<?xml version="1.0" encoding="UTF-8"?>
<gpx version="1.1" creator="https://www.youtrack.es" xsi:schemaLocation="http://www.topografix.com/GPX/1/1 http://www.topografix.com/GPX/1/1/gpx.xsd http://www.garmin.com/xmlschemas/GpxExtensions/v3 http://www.garmin.com/xmlschemas/GpxExtensionsv3.xsd http://www.garmin.com/xmlschemas/TrackPointExtension/v1 http://www.garmin.com/xmlschemas/TrackPointExtensionv1.xsd" xmlns:gpxtpx="http://www.garmin.com/xmlschemas/TrackPointExtension/v1" xmlns:gpxx="http://www.garmin.com/xmlschemas/GpxExtensions/v3" xmlns:xsi="http://www.w3.org/2001/XMLSchema-instance">
  <metadata>
    <author>
      <name>Antonio  Rodríguez Cáceres</name>
      <email id="anroca911" domain="msn.com"/>
    </author>
    <link href="https://www.youtrack.es">
      <text>YouTrack.es</text>
    </link>
    <time>2026-05-08T04:46:36Z</time>
  </metadata>
  <trk>
    <src>https://www.youtrack.es</src>
    <link href="https://www.youtrack.es/ruta/26906-via-de-la-plata">
      <text>YouTrack.es</text>
    </link>
    <trkseg>
      <trkpt lat="43.2212620" lon="-5.7853490">
        <ele>233.8</ele>
        <time>2021-10-10T09:35:14Z</time>
      </trkpt>
      <trkpt lat="43.2212270" lon="-5.7853380">
        <ele>232.8</ele>
        <time>2021-10-10T09:35:15Z</time>
      </trkpt>
      <trkpt lat="43.2210840" lon="-5.7852980">
        <ele>233.2</ele>
        <time>2021-10-10T09:35:19Z</time>
      </trkpt>
      <trkpt lat="43.2209650" lon="-5.7852700">
        <ele>233.2</ele>
        <time>2021-10-10T09:35:22Z</time>
      </trkpt>
      <trkpt lat="43.2206710" lon="-5.7851890">
        <ele>233.4</ele>
        <time>2021-10-10T09:35:29Z</time>
      </trkpt>
      <trkpt lat="43.2205940" lon="-5.7851670">
        <ele>233.4</ele>
        <time>2021-10-10T09:35:31Z</time>
      </trkpt>
      <trkpt lat="43.2203880" lon="-5.7851200">
        <ele>233.4</ele>
        <time>2021-10-10T09:35:36Z</time>
      </trkpt>
      <trkpt lat="43.2203450" lon="-5.7851160">
        <ele>233.4</ele>
        <time>2021-10-10T09:35:37Z</time>
      </trkpt>
      <trkpt lat="43.2200110" lon="-5.7850790">
        <ele>233.6</ele>
        <time>2021-10-10T09:35:45Z</time>
      </trkpt>
      <trkpt lat="43.2198930" lon="-5.7850560">
        <ele>233.8</ele>
        <time>2021-10-10T09:35:48Z</time>
      </trkpt>
      <trkpt lat="43.2198490" lon="-5.7850520">
        <ele>233.8</ele>
        <time>2021-10-10T09:35:49Z</time>
      </trkpt>
      <trkpt lat="43.2197310" lon="-5.7850330">
        <ele>234.0</ele>
        <time>2021-10-10T09:35:52Z</time>
      </trkpt>
      <trkpt lat="43.2195350" lon="-5.7849960">
        <ele>234.2</ele>
        <time>2021-10-10T09:35:57Z</time>
      </trkpt>
      <trkpt lat="43.2194070" lon="-5.7849680">
        <ele>234.2</ele>
        <time>2021-10-10T09:36:00Z</time>
      </trkpt>
      <trkpt lat="43.2191000" lon="-5.7849030">
        <ele>234.8</ele>
        <time>2021-10-10T09:36:07Z</time>
      </trkpt>
      <trkpt lat="43.2190110" lon="-5.7848950">
        <ele>234.8</ele>
        <time>2021-10-10T09:36:09Z</time>
      </trkpt>
      <trkpt lat="43.2187410" lon="-5.7848350">
        <ele>235.2</ele>
        <time>2021-10-10T09:36:15Z</time>
      </trkpt>
      <trkpt lat="43.2186010" lon="-5.7848110">
        <ele>235.4</ele>
        <time>2021-10-10T09:36:18Z</time>
      </trkpt>
      <trkpt lat="43.2184970" lon="-5.7847960">
        <ele>235.4</ele>
        <time>2021-10-10T09:36:20Z</time>
      </trkpt>
      <trkpt lat="43.2183180" lon="-5.7847650">
        <ele>235.0</ele>
        <time>2021-10-10T09:36:23Z</time>
      </trkpt>
      <trkpt lat="43.2180400" lon="-5.7847350">
        <ele>233.6</ele>
        <time>2021-10-10T09:36:27Z</time>
      </trkpt>
      <trkpt lat="43.2178850" lon="-5.7847280">
        <ele>232.8</ele>
        <time>2021-10-10T09:36:29Z</time>
      </trkpt>
      <trkpt lat="43.2178070" lon="-5.7847270">
        <ele>232.4</ele>
        <time>2021-10-10T09:36:30Z</time>
      </trkpt>
      <trkpt lat="43.2175820" lon="-5.7847490">
        <ele>231.2</ele>
        <time>2021-10-10T09:36:33Z</time>
      </trkpt>
      <trkpt lat="43.2174500" lon="-5.7847600">
        <ele>230.6</ele>
        <time>2021-10-10T09:36:35Z</time>
      </trkpt>
      <trkpt lat="43.2172190" lon="-5.7847830">
        <ele>230.2</ele>
        <time>2021-10-10T09:36:39Z</time>
      </trkpt>
      <trkpt lat="43.2171650" lon="-5.7847920">
        <ele>230.2</ele>
        <time>2021-10-10T09:36:40Z</time>
      </trkpt>
      <trkpt lat="43.2171110" lon="-5.7848000">
        <ele>230.2</ele>
        <time>2021-10-10T09:36:41Z</time>
      </trkpt>
      <trkpt lat="43.2168960" lon="-5.7848410">
        <ele>230.2</ele>
        <time>2021-10-10T09:36:45Z</time>
      </trkpt>
      <trkpt lat="43.2167370" lon="-5.7848860">
        <ele>230.4</ele>
        <time>2021-10-10T09:36:48Z</time>
      </trkpt>
      <trkpt lat="43.2162960" lon="-5.7849830">
        <ele>230.8</ele>
        <time>2021-10-10T09:36:56Z</time>
      </trkpt>
      <trkpt lat="43.2159460" lon="-5.7850780">
        <ele>230.8</ele>
        <time>2021-10-10T09:37:03Z</time>
      </trkpt>
      <trkpt lat="43.2157190" lon="-5.7851580">
        <ele>231.2</ele>
        <time>2021-10-10T09:37:08Z</time>
      </trkpt>
      <trkpt lat="43.2156240" lon="-5.7851780">
        <ele>231.6</ele>
        <time>2021-10-10T09:37:10Z</time>
      </trkpt>
      <trkpt lat="43.2152470" lon="-5.7852510">
        <ele>231.8</ele>
        <time>2021-10-10T09:37:18Z</time>
      </trkpt>
      <trkpt lat="43.2149590" lon="-5.7853320">
        <ele>232.2</ele>
        <time>2021-10-10T09:37:24Z</time>
      </trkpt>
      <trkpt lat="43.2148660" lon="-5.7853480">
        <ele>232.2</ele>
        <time>2021-10-10T09:37:26Z</time>
      </trkpt>
      <trkpt lat="43.2148190" lon="-5.7853610">
        <ele>232.2</ele>
        <time>2021-10-10T09:37:27Z</time>
      </trkpt>
      <trkpt lat="43.2147200" lon="-5.7854030">
        <ele>232.4</ele>
        <time>2021-10-10T09:37:29Z</time>
      </trkpt>
      <trkpt lat="43.2146740" lon="-5.7854170">
        <ele>232.4</ele>
        <time>2021-10-10T09:37:30Z</time>
      </trkpt>
      <trkpt lat="43.2146260" lon="-5.7854290">
        <ele>232.4</ele>
        <time>2021-10-10T09:37:31Z</time>
      </trkpt>
      <trkpt lat="43.2144140" lon="-5.7854930">
        <ele>232.8</ele>
        <time>2021-10-10T09:37:36Z</time>
      </trkpt>
      <trkpt lat="43.2143270" lon="-5.7855140">
        <ele>232.8</ele>
        <time>2021-10-10T09:37:38Z</time>
      </trkpt>
      <trkpt lat="43.2142510" lon="-5.7855310">
        <ele>233.0</ele>
        <time>2021-10-10T09:37:40Z</time>
      </trkpt>
      <trkpt lat="43.2141520" lon="-5.7855440">
        <ele>233.2</ele>
        <time>2021-10-10T09:37:43Z</time>
      </trkpt>
      <trkpt lat="43.2141110" lon="-5.7855730">
        <ele>233.2</ele>
        <time>2021-10-10T09:37:47Z</time>
      </trkpt>
      <trkpt lat="43.2141110" lon="-5.7855730">
        <ele>233.2</ele>
        <time>2021-10-10T09:37:49Z</time>
      </trkpt>
      <trkpt lat="43.2140710" lon="-5.7855850">
        <ele>233.0</ele>
        <time>2021-10-10T09:38:27Z</time>
      </trkpt>
      <trkpt lat="43.2140490" lon="-5.7855910">
        <ele>233.0</ele>
        <time>2021-10-10T09:38:28Z</time>
      </trkpt>
      <trkpt lat="43.2140230" lon="-5.7855980">
        <ele>233.0</ele>
        <time>2021-10-10T09:38:29Z</time>
      </trkpt>
      <trkpt lat="43.2138950" lon="-5.7856370">
        <ele>233.2</ele>
        <time>2021-10-10T09:38:34Z</time>
      </trkpt>
      <trkpt lat="43.2137540" lon="-5.7856770">
        <ele>233.4</ele>
        <time>2021-10-10T09:38:39Z</time>
      </trkpt>
      <trkpt lat="43.2136860" lon="-5.7856910">
        <ele>233.4</ele>
        <time>2021-10-10T09:38:41Z</time>
      </trkpt>
      <trkpt lat="43.2134380" lon="-5.7857840">
        <ele>233.6</ele>
        <time>2021-10-10T09:38:48Z</time>
      </trkpt>
      <trkpt lat="43.2131330" lon="-5.7859270">
        <ele>233.8</ele>
        <time>2021-10-10T09:38:56Z</time>
      </trkpt>
      <trkpt lat="43.2130600" lon="-5.7859680">
        <ele>234.0</ele>
        <time>2021-10-10T09:38:58Z</time>
      </trkpt>
      <trkpt lat="43.2127660" lon="-5.7861450">
        <ele>234.2</ele>
        <time>2021-10-10T09:39:06Z</time>
      </trkpt>
      <trkpt lat="43.2127310" lon="-5.7861720">
        <ele>234.2</ele>
        <time>2021-10-10T09:39:07Z</time>
      </trkpt>
      <trkpt lat="43.2125780" lon="-5.7862850">
        <ele>234.4</ele>
        <time>2021-10-10T09:39:12Z</time>
      </trkpt>
      <trkpt lat="43.2124880" lon="-5.7863490">
        <ele>234.6</ele>
        <time>2021-10-10T09:39:15Z</time>
      </trkpt>
      <trkpt lat="43.2122120" lon="-5.7865690">
        <ele>234.8</ele>
        <time>2021-10-10T09:39:23Z</time>
      </trkpt>
      <trkpt lat="43.2121750" lon="-5.7866030">
        <ele>234.8</ele>
        <time>2021-10-10T09:39:24Z</time>
      </trkpt>
      <trkpt lat="43.2119740" lon="-5.7868310">
        <ele>235.4</ele>
        <time>2021-10-10T09:39:31Z</time>
      </trkpt>
      <trkpt lat="43.2119530" lon="-5.7868640">
        <ele>235.4</ele>
        <time>2021-10-10T09:39:32Z</time>
      </trkpt>
      <trkpt lat="43.2118920" lon="-5.7869500">
        <ele>235.8</ele>
        <time>2021-10-10T09:39:35Z</time>
      </trkpt>
      <trkpt lat="43.2118270" lon="-5.7870370">
        <ele>236.6</ele>
        <time>2021-10-10T09:39:38Z</time>
      </trkpt>
      <trkpt lat="43.2117200" lon="-5.7872160">
        <ele>237.6</ele>
        <time>2021-10-10T09:39:44Z</time>
      </trkpt>
      <trkpt lat="43.2116800" lon="-5.7872660">
        <ele>238.0</ele>
        <time>2021-10-10T09:39:46Z</time>
      </trkpt>
      <trkpt lat="43.2116160" lon="-5.7873330">
        <ele>238.6</ele>
        <time>2021-10-10T09:39:49Z</time>
      </trkpt>
      <trkpt lat="43.2115640" lon="-5.7873970">
        <ele>239.0</ele>
        <time>2021-10-10T09:39:52Z</time>
      </trkpt>
      <trkpt lat="43.2115350" lon="-5.7874370">
        <ele>239.6</ele>
        <time>2021-10-10T09:39:54Z</time>
      </trkpt>
      <trkpt lat="43.2115180" lon="-5.7874600">
        <ele>239.6</ele>
        <time>2021-10-10T09:39:55Z</time>
      </trkpt>
      <trkpt lat="43.2115010" lon="-5.7874780">
        <ele>240.0</ele>
        <time>2021-10-10T09:39:56Z</time>
      </trkpt>
      <trkpt lat="43.2114500" lon="-5.7874720">
        <ele>240.4</ele>
        <time>2021-10-10T09:39:58Z</time>
      </trkpt>
      <trkpt lat="43.2114240" lon="-5.7874480">
        <ele>240.6</ele>
        <time>2021-10-10T09:39:59Z</time>
      </trkpt>
      <trkpt lat="43.2113320" lon="-5.7873250">
        <ele>241.0</ele>
        <time>2021-10-10T09:40:03Z</time>
      </trkpt>
      <trkpt lat="43.2112880" lon="-5.7872590">
        <ele>241.2</ele>
        <time>2021-10-10T09:40:05Z</time>
      </trkpt>
      <trkpt lat="43.2112210" lon="-5.7871710">
        <ele>241.4</ele>
        <time>2021-10-10T09:40:08Z</time>
      </trkpt>
      <trkpt lat="43.2111510" lon="-5.7870820">
        <ele>241.4</ele>
        <time>2021-10-10T09:40:11Z</time>
      </trkpt>
      <trkpt lat="43.2110850" lon="-5.7869890">
        <ele>241.6</ele>
        <time>2021-10-10T09:40:14Z</time>
      </trkpt>
      <trkpt lat="43.2110170" lon="-5.7869030">
        <ele>241.6</ele>
        <time>2021-10-10T09:40:17Z</time>
      </trkpt>
      <trkpt lat="43.2109930" lon="-5.7868780">
        <ele>241.6</ele>
        <time>2021-10-10T09:40:18Z</time>
      </trkpt>
      <trkpt lat="43.2108120" lon="-5.7868010">
        <ele>242.0</ele>
        <time>2021-10-10T09:40:24Z</time>
      </trkpt>
      <trkpt lat="43.2106950" lon="-5.7868330">
        <ele>242.0</ele>
        <time>2021-10-10T09:40:30Z</time>
      </trkpt>
      <trkpt lat="43.2106950" lon="-5.7868330">
        <ele>241.8</ele>
        <time>2021-10-10T09:40:32Z</time>
      </trkpt>
      <trkpt lat="43.2106780" lon="-5.7868520">
        <ele>241.4</ele>
        <time>2021-10-10T09:41:14Z</time>
      </trkpt>
      <trkpt lat="43.2106580" lon="-5.7868750">
        <ele>241.4</ele>
        <time>2021-10-10T09:41:15Z</time>
      </trkpt>
      <trkpt lat="43.2105750" lon="-5.7870060">
        <ele>241.2</ele>
        <time>2021-10-10T09:41:19Z</time>
      </trkpt>
      <trkpt lat="43.2105530" lon="-5.7870510">
        <ele>241.2</ele>
        <time>2021-10-10T09:41:20Z</time>
      </trkpt>
      <trkpt lat="43.2104720" lon="-5.7871880">
        <ele>241.0</ele>
        <time>2021-10-10T09:41:23Z</time>
      </trkpt>
      <trkpt lat="43.2103990" lon="-5.7873180">
        <ele>240.6</ele>
        <time>2021-10-10T09:41:26Z</time>
      </trkpt>
      <trkpt lat="43.2103470" lon="-5.7873890">
        <ele>240.4</ele>
        <time>2021-10-10T09:41:28Z</time>
      </trkpt>
      <trkpt lat="43.2102530" lon="-5.7875650">
        <ele>240.0</ele>
        <time>2021-10-10T09:41:32Z</time>
      </trkpt>
      <trkpt lat="43.2102280" lon="-5.7876100">
        <ele>240.0</ele>
        <time>2021-10-10T09:41:33Z</time>
      </trkpt>
      <trkpt lat="43.2100810" lon="-5.7878470">
        <ele>240.0</ele>
        <time>2021-10-10T09:41:38Z</time>
      </trkpt>
      <trkpt lat="43.2099880" lon="-5.7879870">
        <ele>240.0</ele>
        <time>2021-10-10T09:41:41Z</time>
      </trkpt>
      <trkpt lat="43.2098620" lon="-5.7881660">
        <ele>239.8</ele>
        <time>2021-10-10T09:41:45Z</time>
      </trkpt>
      <trkpt lat="43.2096960" lon="-5.7883660">
        <ele>239.8</ele>
        <time>2021-10-10T09:41:50Z</time>
      </trkpt>
      <trkpt lat="43.2094080" lon="-5.7887150">
        <ele>239.6</ele>
        <time>2021-10-10T09:41:58Z</time>
      </trkpt>
      <trkpt lat="43.2093230" lon="-5.7888050">
        <ele>239.6</ele>
        <time>2021-10-10T09:42:00Z</time>
      </trkpt>
      <trkpt lat="43.2092760" lon="-5.7888400">
        <ele>239.6</ele>
        <time>2021-10-10T09:42:01Z</time>
      </trkpt>
      <trkpt lat="43.2092290" lon="-5.7888670">
        <ele>239.4</ele>
        <time>2021-10-10T09:42:02Z</time>
      </trkpt>
      <trkpt lat="43.2091390" lon="-5.7889100">
        <ele>238.8</ele>
        <time>2021-10-10T09:42:04Z</time>
      </trkpt>
      <trkpt lat="43.2090900" lon="-5.7889250">
        <ele>238.6</ele>
        <time>2021-10-10T09:42:05Z</time>
      </trkpt>
      <trkpt lat="43.2089920" lon="-5.7889300">
        <ele>238.2</ele>
        <time>2021-10-10T09:42:07Z</time>
      </trkpt>
      <trkpt lat="43.2089410" lon="-5.7889260">
        <ele>238.2</ele>
        <time>2021-10-10T09:42:08Z</time>
      </trkpt>
      <trkpt lat="43.2088410" lon="-5.7889050">
        <ele>238.0</ele>
        <time>2021-10-10T09:42:10Z</time>
      </trkpt>
      <trkpt lat="43.2084900" lon="-5.7887570">
        <ele>238.6</ele>
        <time>2021-10-10T09:42:18Z</time>
      </trkpt>
      <trkpt lat="43.2081600" lon="-5.7886020">
        <ele>238.8</ele>
        <time>2021-10-10T09:42:26Z</time>
      </trkpt>
      <trkpt lat="43.2081210" lon="-5.7885830">
        <ele>238.8</ele>
        <time>2021-10-10T09:42:27Z</time>
      </trkpt>
      <trkpt lat="43.2077660" lon="-5.7884180">
        <ele>239.0</ele>
        <time>2021-10-10T09:42:36Z</time>
      </trkpt>
      <trkpt lat="43.2074080" lon="-5.7882500">
        <ele>239.4</ele>
        <time>2021-10-10T09:42:45Z</time>
      </trkpt>
      <trkpt lat="43.2073660" lon="-5.7882240">
        <ele>239.4</ele>
        <time>2021-10-10T09:42:46Z</time>
      </trkpt>
      <trkpt lat="43.2070770" lon="-5.7880290">
        <ele>239.8</ele>
        <time>2021-10-10T09:42:53Z</time>
      </trkpt>
      <trkpt lat="43.2067330" lon="-5.7878850">
        <ele>240.0</ele>
        <time>2021-10-10T09:43:01Z</time>
      </trkpt>
      <trkpt lat="43.2063350" lon="-5.7878070">
        <ele>240.0</ele>
        <time>2021-10-10T09:43:10Z</time>
      </trkpt>
      <trkpt lat="43.2062070" lon="-5.7877840">
        <ele>240.0</ele>
        <time>2021-10-10T09:43:13Z</time>
      </trkpt>
      <trkpt lat="43.2060800" lon="-5.7877520">
        <ele>240.0</ele>
        <time>2021-10-10T09:43:16Z</time>
      </trkpt>
      <trkpt lat="43.2060490" lon="-5.7877470">
        <ele>240.2</ele>
        <time>2021-10-10T09:43:17Z</time>
      </trkpt>
      <trkpt lat="43.2057620" lon="-5.7876900">
        <ele>240.6</ele>
        <time>2021-10-10T09:43:24Z</time>
      </trkpt>
      <trkpt lat="43.2055540" lon="-5.7876490">
        <ele>240.6</ele>
        <time>2021-10-10T09:43:29Z</time>
      </trkpt>
      <trkpt lat="43.2050900" lon="-5.7875750">
        <ele>240.8</ele>
        <time>2021-10-10T09:43:40Z</time>
      </trkpt>
      <trkpt lat="43.2047120" lon="-5.7875170">
        <ele>241.2</ele>
        <time>2021-10-10T09:43:49Z</time>
      </trkpt>
      <trkpt lat="43.2042220" lon="-5.7874640">
        <ele>241.8</ele>
        <time>2021-10-10T09:44:01Z</time>
      </trkpt>
      <trkpt lat="43.2039230" lon="-5.7874750">
        <ele>241.8</ele>
        <time>2021-10-10T09:44:08Z</time>
      </trkpt>
      <trkpt lat="43.2037560" lon="-5.7874880">
        <ele>242.0</ele>
        <time>2021-10-10T09:44:12Z</time>
      </trkpt>
      <trkpt lat="43.2034230" lon="-5.7875530">
        <ele>242.2</ele>
        <time>2021-10-10T09:44:20Z</time>
      </trkpt>
      <trkpt lat="43.2033450" lon="-5.7875770">
        <ele>242.4</ele>
        <time>2021-10-10T09:44:22Z</time>
      </trkpt>
      <trkpt lat="43.2029590" lon="-5.7877500">
        <ele>242.6</ele>
        <time>2021-10-10T09:44:32Z</time>
      </trkpt>
      <trkpt lat="43.2026120" lon="-5.7880310">
        <ele>242.6</ele>
        <time>2021-10-10T09:44:41Z</time>
      </trkpt>
      <trkpt lat="43.2023480" lon="-5.7882830">
        <ele>242.8</ele>
        <time>2021-10-10T09:44:49Z</time>
      </trkpt>
      <trkpt lat="43.2022000" lon="-5.7884000">
        <ele>243.2</ele>
        <time>2021-10-10T09:44:54Z</time>
      </trkpt>
      <trkpt lat="43.2021400" lon="-5.7884410">
        <ele>243.2</ele>
        <time>2021-10-10T09:44:56Z</time>
      </trkpt>
      <trkpt lat="43.2020360" lon="-5.7885240">
        <ele>243.8</ele>
        <time>2021-10-10T09:45:00Z</time>
      </trkpt>
      <trkpt lat="43.2019500" lon="-5.7885870">
        <ele>244.2</ele>
        <time>2021-10-10T09:45:03Z</time>
      </trkpt>
      <trkpt lat="43.2019220" lon="-5.7886070">
        <ele>244.4</ele>
        <time>2021-10-10T09:45:04Z</time>
      </trkpt>
      <trkpt lat="43.2018470" lon="-5.7886720">
        <ele>244.8</ele>
        <time>2021-10-10T09:45:07Z</time>
      </trkpt>
      <trkpt lat="43.2016590" lon="-5.7888030">
        <ele>246.0</ele>
        <time>2021-10-10T09:45:14Z</time>
      </trkpt>
      <trkpt lat="43.2015690" lon="-5.7888700">
        <ele>246.6</ele>
        <time>2021-10-10T09:45:18Z</time>
      </trkpt>
      <trkpt lat="43.2015470" lon="-5.7888860">
        <ele>246.8</ele>
        <time>2021-10-10T09:45:19Z</time>
      </trkpt>
      <trkpt lat="43.2015230" lon="-5.7889040">
        <ele>247.0</ele>
        <time>2021-10-10T09:45:20Z</time>
      </trkpt>
      <trkpt lat="43.2014740" lon="-5.7889380">
        <ele>247.2</ele>
        <time>2021-10-10T09:45:22Z</time>
      </trkpt>
      <trkpt lat="43.2014310" lon="-5.7889610">
        <ele>247.6</ele>
        <time>2021-10-10T09:45:24Z</time>
      </trkpt>
      <trkpt lat="43.2013780" lon="-5.7889950">
        <ele>248.0</ele>
        <time>2021-10-10T09:45:27Z</time>
      </trkpt>
      <trkpt lat="43.2013510" lon="-5.7890140">
        <ele>248.2</ele>
        <time>2021-10-10T09:45:28Z</time>
      </trkpt>
      <trkpt lat="43.2012150" lon="-5.7890800">
        <ele>248.4</ele>
        <time>2021-10-10T09:45:32Z</time>
      </trkpt>
      <trkpt lat="43.2010840" lon="-5.7890850">
        <ele>248.6</ele>
        <time>2021-10-10T09:45:36Z</time>
      </trkpt>
      <trkpt lat="43.2010220" lon="-5.7890870">
        <ele>248.8</ele>
        <time>2021-10-10T09:45:38Z</time>
      </trkpt>
      <trkpt lat="43.2009270" lon="-5.7890900">
        <ele>249.0</ele>
        <time>2021-10-10T09:45:41Z</time>
      </trkpt>
      <trkpt lat="43.2008630" lon="-5.7890940">
        <ele>249.2</ele>
        <time>2021-10-10T09:45:43Z</time>
      </trkpt>
      <trkpt lat="43.2007890" lon="-5.7891110">
        <ele>249.2</ele>
        <time>2021-10-10T09:45:45Z</time>
      </trkpt>
      <trkpt lat="43.2007600" lon="-5.7891250">
        <ele>249.2</ele>
        <time>2021-10-10T09:45:46Z</time>
      </trkpt>
      <trkpt lat="43.2005810" lon="-5.7891860">
        <ele>249.4</ele>
        <time>2021-10-10T09:45:51Z</time>
      </trkpt>
      <trkpt lat="43.2005030" lon="-5.7892160">
        <ele>249.2</ele>
        <time>2021-10-10T09:45:53Z</time>
      </trkpt>
      <trkpt lat="43.2004640" lon="-5.7892320">
        <ele>249.2</ele>
        <time>2021-10-10T09:45:54Z</time>
      </trkpt>
      <trkpt lat="43.2003470" lon="-5.7892830">
        <ele>249.2</ele>
        <time>2021-10-10T09:45:57Z</time>
      </trkpt>
      <trkpt lat="43.2001420" lon="-5.7893670">
        <ele>249.0</ele>
        <time>2021-10-10T09:46:02Z</time>
      </trkpt>
      <trkpt lat="43.2000620" lon="-5.7893870">
        <ele>249.0</ele>
        <time>2021-10-10T09:46:04Z</time>
      </trkpt>
      <trkpt lat="43.1999790" lon="-5.7894060">
        <ele>249.0</ele>
        <time>2021-10-10T09:46:06Z</time>
      </trkpt>
      <trkpt lat="43.1998970" lon="-5.7894180">
        <ele>249.0</ele>
        <time>2021-10-10T09:46:08Z</time>
      </trkpt>
      <trkpt lat="43.1997370" lon="-5.7894290">
        <ele>249.0</ele>
        <time>2021-10-10T09:46:12Z</time>
      </trkpt>
      <trkpt lat="43.1996980" lon="-5.7894310">
        <ele>249.0</ele>
        <time>2021-10-10T09:46:13Z</time>
      </trkpt>
      <trkpt lat="43.1996160" lon="-5.7894310">
        <ele>249.0</ele>
        <time>2021-10-10T09:46:15Z</time>
      </trkpt>
      <trkpt lat="43.1994480" lon="-5.7894150">
        <ele>249.0</ele>
        <time>2021-10-10T09:46:19Z</time>
      </trkpt>
      <trkpt lat="43.1992830" lon="-5.7894020">
        <ele>248.8</ele>
        <time>2021-10-10T09:46:23Z</time>
      </trkpt>
      <trkpt lat="43.1990070" lon="-5.7893780">
        <ele>249.2</ele>
        <time>2021-10-10T09:46:30Z</time>
      </trkpt>
      <trkpt lat="43.1988940" lon="-5.7893680">
        <ele>249.2</ele>
        <time>2021-10-10T09:46:33Z</time>
      </trkpt>
      <trkpt lat="43.1988580" lon="-5.7893640">
        <ele>249.2</ele>
        <time>2021-10-10T09:46:34Z</time>
      </trkpt>
      <trkpt lat="43.1985600" lon="-5.7893350">
        <ele>249.4</ele>
        <time>2021-10-10T09:46:42Z</time>
      </trkpt>
      <trkpt lat="43.1983260" lon="-5.7892750">
        <ele>249.2</ele>
        <time>2021-10-10T09:46:48Z</time>
      </trkpt>
      <trkpt lat="43.1982840" lon="-5.7892520">
        <ele>249.2</ele>
        <time>2021-10-10T09:46:49Z</time>
      </trkpt>
      <trkpt lat="43.1982040" lon="-5.7891760">
        <ele>249.0</ele>
        <time>2021-10-10T09:46:51Z</time>
      </trkpt>
      <trkpt lat="43.1981310" lon="-5.7890780">
        <ele>248.8</ele>
        <time>2021-10-10T09:46:53Z</time>
      </trkpt>
      <trkpt lat="43.1980680" lon="-5.7889620">
        <ele>248.4</ele>
        <time>2021-10-10T09:46:55Z</time>
      </trkpt>
      <trkpt lat="43.1980450" lon="-5.7888950">
        <ele>248.2</ele>
        <time>2021-10-10T09:46:56Z</time>
      </trkpt>
      <trkpt lat="43.1980330" lon="-5.7888250">
        <ele>248.0</ele>
        <time>2021-10-10T09:46:57Z</time>
      </trkpt>
      <trkpt lat="43.1980050" lon="-5.7887310">
        <ele>247.8</ele>
        <time>2021-10-10T09:46:59Z</time>
      </trkpt>
      <trkpt lat="43.1979860" lon="-5.7887050">
        <ele>247.6</ele>
        <time>2021-10-10T09:47:00Z</time>
      </trkpt>
      <trkpt lat="43.1979660" lon="-5.7887010">
        <ele>247.6</ele>
        <time>2021-10-10T09:47:01Z</time>
      </trkpt>
      <trkpt lat="43.1978760" lon="-5.7887190">
        <ele>248.0</ele>
        <time>2021-10-10T09:47:04Z</time>
      </trkpt>
      <trkpt lat="43.1977670" lon="-5.7887380">
        <ele>248.4</ele>
        <time>2021-10-10T09:47:07Z</time>
      </trkpt>
      <trkpt lat="43.1976940" lon="-5.7887530">
        <ele>248.6</ele>
        <time>2021-10-10T09:47:09Z</time>
      </trkpt>
      <trkpt lat="43.1975860" lon="-5.7887740">
        <ele>248.6</ele>
        <time>2021-10-10T09:47:12Z</time>
      </trkpt>
      <trkpt lat="43.1972680" lon="-5.7888710">
        <ele>248.6</ele>
        <time>2021-10-10T09:47:20Z</time>
      </trkpt>
      <trkpt lat="43.1971520" lon="-5.7889250">
        <ele>248.6</ele>
        <time>2021-10-10T09:47:23Z</time>
      </trkpt>
      <trkpt lat="43.1970430" lon="-5.7889940">
        <ele>248.6</ele>
        <time>2021-10-10T09:47:26Z</time>
      </trkpt>
      <trkpt lat="43.1967340" lon="-5.7891500">
        <ele>248.8</ele>
        <time>2021-10-10T09:47:34Z</time>
      </trkpt>
      <trkpt lat="43.1966580" lon="-5.7891780">
        <ele>248.8</ele>
        <time>2021-10-10T09:47:36Z</time>
      </trkpt>
      <trkpt lat="43.1965360" lon="-5.7891730">
        <ele>248.8</ele>
        <time>2021-10-10T09:47:39Z</time>
      </trkpt>
      <trkpt lat="43.1963110" lon="-5.7891840">
        <ele>249.0</ele>
        <time>2021-10-10T09:47:45Z</time>
      </trkpt>
      <trkpt lat="43.1961630" lon="-5.7892980">
        <ele>249.4</ele>
        <time>2021-10-10T09:47:51Z</time>
      </trkpt>
      <trkpt lat="43.1960600" lon="-5.7894560">
        <ele>249.0</ele>
        <time>2021-10-10T09:47:56Z</time>
      </trkpt>
      <trkpt lat="43.1958450" lon="-5.7896430">
        <ele>249.2</ele>
        <time>2021-10-10T09:48:03Z</time>
      </trkpt>
      <trkpt lat="43.1955660" lon="-5.7898790">
        <ele>250.2</ele>
        <time>2021-10-10T09:48:13Z</time>
      </trkpt>
      <trkpt lat="43.1955110" lon="-5.7899220">
        <ele>250.4</ele>
        <time>2021-10-10T09:48:15Z</time>
      </trkpt>
      <trkpt lat="43.1953750" lon="-5.7900700">
        <ele>251.0</ele>
        <time>2021-10-10T09:48:21Z</time>
      </trkpt>
      <trkpt lat="43.1953190" lon="-5.7901590">
        <ele>251.2</ele>
        <time>2021-10-10T09:48:24Z</time>
      </trkpt>
      <trkpt lat="43.1951910" lon="-5.7902920">
        <ele>252.0</ele>
        <time>2021-10-10T09:48:29Z</time>
      </trkpt>
      <trkpt lat="43.1951350" lon="-5.7903400">
        <ele>252.2</ele>
        <time>2021-10-10T09:48:31Z</time>
      </trkpt>
      <trkpt lat="43.1949770" lon="-5.7904610">
        <ele>252.4</ele>
        <time>2021-10-10T09:48:36Z</time>
      </trkpt>
      <trkpt lat="43.1946880" lon="-5.7906430">
        <ele>252.4</ele>
        <time>2021-10-10T09:48:44Z</time>
      </trkpt>
      <trkpt lat="43.1945990" lon="-5.7906740">
        <ele>252.4</ele>
        <time>2021-10-10T09:48:46Z</time>
      </trkpt>
      <trkpt lat="43.1944660" lon="-5.7907080">
        <ele>252.4</ele>
        <time>2021-10-10T09:48:49Z</time>
      </trkpt>
      <trkpt lat="43.1942090" lon="-5.7907310">
        <ele>252.2</ele>
        <time>2021-10-10T09:48:55Z</time>
      </trkpt>
      <trkpt lat="43.1941720" lon="-5.7907280">
        <ele>252.2</ele>
        <time>2021-10-10T09:48:56Z</time>
      </trkpt>
      <trkpt lat="43.1941330" lon="-5.7907250">
        <ele>252.2</ele>
        <time>2021-10-10T09:48:57Z</time>
      </trkpt>
      <trkpt lat="43.1939770" lon="-5.7907580">
        <ele>252.4</ele>
        <time>2021-10-10T09:49:01Z</time>
      </trkpt>
      <trkpt lat="43.1936900" lon="-5.7908750">
        <ele>253.2</ele>
        <time>2021-10-10T09:49:09Z</time>
      </trkpt>
      <trkpt lat="43.1936290" lon="-5.7909160">
        <ele>253.4</ele>
        <time>2021-10-10T09:49:11Z</time>
      </trkpt>
      <trkpt lat="43.1935160" lon="-5.7909710">
        <ele>254.0</ele>
        <time>2021-10-10T09:49:15Z</time>
      </trkpt>
      <trkpt lat="43.1934470" lon="-5.7910080">
        <ele>254.0</ele>
        <time>2021-10-10T09:49:18Z</time>
      </trkpt>
      <trkpt lat="43.1934190" lon="-5.7910280">
        <ele>254.2</ele>
        <time>2021-10-10T09:49:19Z</time>
      </trkpt>
      <trkpt lat="43.1933190" lon="-5.7910730">
        <ele>254.2</ele>
        <time>2021-10-10T09:49:22Z</time>
      </trkpt>
      <trkpt lat="43.1931330" lon="-5.7911510">
        <ele>254.4</ele>
        <time>2021-10-10T09:49:27Z</time>
      </trkpt>
      <trkpt lat="43.1930270" lon="-5.7912050">
        <ele>254.4</ele>
        <time>2021-10-10T09:49:30Z</time>
      </trkpt>
      <trkpt lat="43.1927330" lon="-5.7913630">
        <ele>255.0</ele>
        <time>2021-10-10T09:49:39Z</time>
      </trkpt>
      <trkpt lat="43.1926730" lon="-5.7913980">
        <ele>255.2</ele>
        <time>2021-10-10T09:49:41Z</time>
      </trkpt>
      <trkpt lat="43.1924400" lon="-5.7915270">
        <ele>255.6</ele>
        <time>2021-10-10T09:49:48Z</time>
      </trkpt>
      <trkpt lat="43.1922530" lon="-5.7916370">
        <ele>255.6</ele>
        <time>2021-10-10T09:49:54Z</time>
      </trkpt>
      <trkpt lat="43.1919670" lon="-5.7918130">
        <ele>255.8</ele>
        <time>2021-10-10T09:50:03Z</time>
      </trkpt>
      <trkpt lat="43.1917970" lon="-5.7918610">
        <ele>256.0</ele>
        <time>2021-10-10T09:50:08Z</time>
      </trkpt>
      <trkpt lat="43.1916680" lon="-5.7919100">
        <ele>256.2</ele>
        <time>2021-10-10T09:50:12Z</time>
      </trkpt>
      <trkpt lat="43.1916080" lon="-5.7919150">
        <ele>256.2</ele>
        <time>2021-10-10T09:50:14Z</time>
      </trkpt>
      <trkpt lat="43.1913820" lon="-5.7919500">
        <ele>256.8</ele>
        <time>2021-10-10T09:50:21Z</time>
      </trkpt>
      <trkpt lat="43.1912180" lon="-5.7919860">
        <ele>256.8</ele>
        <time>2021-10-10T09:50:26Z</time>
      </trkpt>
      <trkpt lat="43.1911540" lon="-5.7919990">
        <ele>257.0</ele>
        <time>2021-10-10T09:50:28Z</time>
      </trkpt>
      <trkpt lat="43.1910860" lon="-5.7920220">
        <ele>257.2</ele>
        <time>2021-10-10T09:50:30Z</time>
      </trkpt>
      <trkpt lat="43.1909930" lon="-5.7920440">
        <ele>257.4</ele>
        <time>2021-10-10T09:50:33Z</time>
      </trkpt>
      <trkpt lat="43.1908500" lon="-5.7920530">
        <ele>258.0</ele>
        <time>2021-10-10T09:50:38Z</time>
      </trkpt>
      <trkpt lat="43.1908170" lon="-5.7920520">
        <ele>258.0</ele>
        <time>2021-10-10T09:50:39Z</time>
      </trkpt>
      <trkpt lat="43.1906940" lon="-5.7920440">
        <ele>258.4</ele>
        <time>2021-10-10T09:50:43Z</time>
      </trkpt>
      <trkpt lat="43.1905630" lon="-5.7920650">
        <ele>258.6</ele>
        <time>2021-10-10T09:50:47Z</time>
      </trkpt>
      <trkpt lat="43.1903200" lon="-5.7921140">
        <ele>258.4</ele>
        <time>2021-10-10T09:50:54Z</time>
      </trkpt>
      <trkpt lat="43.1902630" lon="-5.7921300">
        <ele>258.6</ele>
        <time>2021-10-10T09:50:56Z</time>
      </trkpt>
      <trkpt lat="43.1902200" lon="-5.7921420">
        <ele>258.4</ele>
        <time>2021-10-10T09:50:57Z</time>
      </trkpt>
      <trkpt lat="43.1901180" lon="-5.7921730">
        <ele>258.4</ele>
        <time>2021-10-10T09:51:00Z</time>
      </trkpt>
      <trkpt lat="43.1900580" lon="-5.7921930">
        <ele>258.2</ele>
        <time>2021-10-10T09:51:02Z</time>
      </trkpt>
      <trkpt lat="43.1899920" lon="-5.7922140">
        <ele>258.2</ele>
        <time>2021-10-10T09:51:04Z</time>
      </trkpt>
      <trkpt lat="43.1898520" lon="-5.7922550">
        <ele>258.2</ele>
        <time>2021-10-10T09:51:08Z</time>
      </trkpt>
      <trkpt lat="43.1897900" lon="-5.7922760">
        <ele>258.2</ele>
        <time>2021-10-10T09:51:10Z</time>
      </trkpt>
      <trkpt lat="43.1897230" lon="-5.7922950">
        <ele>258.2</ele>
        <time>2021-10-10T09:51:12Z</time>
      </trkpt>
      <trkpt lat="43.1895720" lon="-5.7923430">
        <ele>258.0</ele>
        <time>2021-10-10T09:51:16Z</time>
      </trkpt>
      <trkpt lat="43.1894240" lon="-5.7924090">
        <ele>258.0</ele>
        <time>2021-10-10T09:51:20Z</time>
      </trkpt>
      <trkpt lat="43.1893880" lon="-5.7924260">
        <ele>258.0</ele>
        <time>2021-10-10T09:51:21Z</time>
      </trkpt>
      <trkpt lat="43.1891880" lon="-5.7925790">
        <ele>257.2</ele>
        <time>2021-10-10T09:51:28Z</time>
      </trkpt>
      <trkpt lat="43.1891670" lon="-5.7925960">
        <ele>257.2</ele>
        <time>2021-10-10T09:51:29Z</time>
      </trkpt>
      <trkpt lat="43.1891260" lon="-5.7926310">
        <ele>257.2</ele>
        <time>2021-10-10T09:51:31Z</time>
      </trkpt>
      <trkpt lat="43.1890450" lon="-5.7927070">
        <ele>257.4</ele>
        <time>2021-10-10T09:51:35Z</time>
      </trkpt>
      <trkpt lat="43.1890060" lon="-5.7927430">
        <ele>257.8</ele>
        <time>2021-10-10T09:51:37Z</time>
      </trkpt>
      <trkpt lat="43.1889710" lon="-5.7927770">
        <ele>258.4</ele>
        <time>2021-10-10T09:51:39Z</time>
      </trkpt>
      <trkpt lat="43.1889390" lon="-5.7928130">
        <ele>258.6</ele>
        <time>2021-10-10T09:51:41Z</time>
      </trkpt>
      <trkpt lat="43.1889130" lon="-5.7928410">
        <ele>259.2</ele>
        <time>2021-10-10T09:51:43Z</time>
      </trkpt>
      <trkpt lat="43.1888840" lon="-5.7928700">
        <ele>259.6</ele>
        <time>2021-10-10T09:51:45Z</time>
      </trkpt>
      <trkpt lat="43.1888380" lon="-5.7929080">
        <ele>260.2</ele>
        <time>2021-10-10T09:51:47Z</time>
      </trkpt>
      <trkpt lat="43.1888210" lon="-5.7929250">
        <ele>260.2</ele>
        <time>2021-10-10T09:51:48Z</time>
      </trkpt>
      <trkpt lat="43.1887910" lon="-5.7929590">
        <ele>260.8</ele>
        <time>2021-10-10T09:51:50Z</time>
      </trkpt>
      <trkpt lat="43.1887340" lon="-5.7930180">
        <ele>261.2</ele>
        <time>2021-10-10T09:51:54Z</time>
      </trkpt>
      <trkpt lat="43.1887380" lon="-5.7930400">
        <ele>261.4</ele>
        <time>2021-10-10T09:51:55Z</time>
      </trkpt>
      <trkpt lat="43.1887850" lon="-5.7931150">
        <ele>262.0</ele>
        <time>2021-10-10T09:51:58Z</time>
      </trkpt>
      <trkpt lat="43.1888590" lon="-5.7932350">
        <ele>262.4</ele>
        <time>2021-10-10T09:52:02Z</time>
      </trkpt>
      <trkpt lat="43.1888940" lon="-5.7932930">
        <ele>262.4</ele>
        <time>2021-10-10T09:52:04Z</time>
      </trkpt>
      <trkpt lat="43.1889110" lon="-5.7933230">
        <ele>262.4</ele>
        <time>2021-10-10T09:52:05Z</time>
      </trkpt>
      <trkpt lat="43.1889420" lon="-5.7933820">
        <ele>262.4</ele>
        <time>2021-10-10T09:52:07Z</time>
      </trkpt>
      <trkpt lat="43.1890710" lon="-5.7935870">
        <ele>262.2</ele>
        <time>2021-10-10T09:52:12Z</time>
      </trkpt>
      <trkpt lat="43.1891470" lon="-5.7937350">
        <ele>261.4</ele>
        <time>2021-10-10T09:52:15Z</time>
      </trkpt>
      <trkpt lat="43.1891660" lon="-5.7937950">
        <ele>260.8</ele>
        <time>2021-10-10T09:52:16Z</time>
      </trkpt>
      <trkpt lat="43.1892060" lon="-5.7939280">
        <ele>260.2</ele>
        <time>2021-10-10T09:52:18Z</time>
      </trkpt>
      <trkpt lat="43.1892480" lon="-5.7940540">
        <ele>259.2</ele>
        <time>2021-10-10T09:52:20Z</time>
      </trkpt>
      <trkpt lat="43.1892740" lon="-5.7941500">
        <ele>258.2</ele>
        <time>2021-10-10T09:52:22Z</time>
      </trkpt>
      <trkpt lat="43.1892830" lon="-5.7941870">
        <ele>257.6</ele>
        <time>2021-10-10T09:52:23Z</time>
      </trkpt>
      <trkpt lat="43.1892690" lon="-5.7942810">
        <ele>256.6</ele>
        <time>2021-10-10T09:52:27Z</time>
      </trkpt>
      <trkpt lat="43.1892680" lon="-5.7942860">
        <ele>256.6</ele>
        <time>2021-10-10T09:52:29Z</time>
      </trkpt>
      <trkpt lat="43.1892400" lon="-5.7943390">
        <ele>257.0</ele>
        <time>2021-10-10T09:52:47Z</time>
      </trkpt>
      <trkpt lat="43.1892270" lon="-5.7943600">
        <ele>257.0</ele>
        <time>2021-10-10T09:52:48Z</time>
      </trkpt>
      <trkpt lat="43.1892040" lon="-5.7943750">
        <ele>257.0</ele>
        <time>2021-10-10T09:52:49Z</time>
      </trkpt>
      <trkpt lat="43.1891230" lon="-5.7943900">
        <ele>257.0</ele>
        <time>2021-10-10T09:52:52Z</time>
      </trkpt>
      <trkpt lat="43.1890380" lon="-5.7944050">
        <ele>257.2</ele>
        <time>2021-10-10T09:52:55Z</time>
      </trkpt>
      <trkpt lat="43.1890140" lon="-5.7944110">
        <ele>257.2</ele>
        <time>2021-10-10T09:52:56Z</time>
      </trkpt>
      <trkpt lat="43.1889450" lon="-5.7944330">
        <ele>257.2</ele>
        <time>2021-10-10T09:52:58Z</time>
      </trkpt>
      <trkpt lat="43.1889110" lon="-5.7944470">
        <ele>257.2</ele>
        <time>2021-10-10T09:52:59Z</time>
      </trkpt>
      <trkpt lat="43.1887770" lon="-5.7945230">
        <ele>257.4</ele>
        <time>2021-10-10T09:53:03Z</time>
      </trkpt>
      <trkpt lat="43.1887150" lon="-5.7945690">
        <ele>257.6</ele>
        <time>2021-10-10T09:53:05Z</time>
      </trkpt>
      <trkpt lat="43.1886860" lon="-5.7945940">
        <ele>257.8</ele>
        <time>2021-10-10T09:53:06Z</time>
      </trkpt>
      <trkpt lat="43.1884720" lon="-5.7948290">
        <ele>258.8</ele>
        <time>2021-10-10T09:53:14Z</time>
      </trkpt>
      <trkpt lat="43.1884480" lon="-5.7948650">
        <ele>258.8</ele>
        <time>2021-10-10T09:53:15Z</time>
      </trkpt>
      <trkpt lat="43.1883240" lon="-5.7950570">
        <ele>259.6</ele>
        <time>2021-10-10T09:53:21Z</time>
      </trkpt>
      <trkpt lat="43.1883070" lon="-5.7950880">
        <ele>260.0</ele>
        <time>2021-10-10T09:53:22Z</time>
      </trkpt>
      <trkpt lat="43.1882720" lon="-5.7951470">
        <ele>260.4</ele>
        <time>2021-10-10T09:53:24Z</time>
      </trkpt>
      <trkpt lat="43.1882590" lon="-5.7951720">
        <ele>260.6</ele>
        <time>2021-10-10T09:53:25Z</time>
      </trkpt>
      <trkpt lat="43.1882210" lon="-5.7952370">
        <ele>261.0</ele>
        <time>2021-10-10T09:53:27Z</time>
      </trkpt>
      <trkpt lat="43.1881900" lon="-5.7952910">
        <ele>261.2</ele>
        <time>2021-10-10T09:53:29Z</time>
      </trkpt>
      <trkpt lat="43.1881620" lon="-5.7953390">
        <ele>261.8</ele>
        <time>2021-10-10T09:53:31Z</time>
      </trkpt>
      <trkpt lat="43.1881310" lon="-5.7953960">
        <ele>262.2</ele>
        <time>2021-10-10T09:53:33Z</time>
      </trkpt>
      <trkpt lat="43.1881180" lon="-5.7954230">
        <ele>262.6</ele>
        <time>2021-10-10T09:53:34Z</time>
      </trkpt>
      <trkpt lat="43.1880840" lon="-5.7955070">
        <ele>263.2</ele>
        <time>2021-10-10T09:53:37Z</time>
      </trkpt>
      <trkpt lat="43.1880690" lon="-5.7955690">
        <ele>263.6</ele>
        <time>2021-10-10T09:53:39Z</time>
      </trkpt>
      <trkpt lat="43.1880590" lon="-5.7956280">
        <ele>264.2</ele>
        <time>2021-10-10T09:53:41Z</time>
      </trkpt>
      <trkpt lat="43.1880540" lon="-5.7956600">
        <ele>264.4</ele>
        <time>2021-10-10T09:53:42Z</time>
      </trkpt>
      <trkpt lat="43.1880510" lon="-5.7958000">
        <ele>265.0</ele>
        <time>2021-10-10T09:53:46Z</time>
      </trkpt>
      <trkpt lat="43.1880440" lon="-5.7959320">
        <ele>265.2</ele>
        <time>2021-10-10T09:53:49Z</time>
      </trkpt>
      <trkpt lat="43.1880100" lon="-5.7961780">
        <ele>265.4</ele>
        <time>2021-10-10T09:53:54Z</time>
      </trkpt>
      <trkpt lat="43.1879400" lon="-5.7964230">
        <ele>265.2</ele>
        <time>2021-10-10T09:53:59Z</time>
      </trkpt>
      <trkpt lat="43.1879020" lon="-5.7965320">
        <ele>265.2</ele>
        <time>2021-10-10T09:54:01Z</time>
      </trkpt>
      <trkpt lat="43.1878690" lon="-5.7966420">
        <ele>264.8</ele>
        <time>2021-10-10T09:54:03Z</time>
      </trkpt>
      <trkpt lat="43.1877990" lon="-5.7968470">
        <ele>264.8</ele>
        <time>2021-10-10T09:54:07Z</time>
      </trkpt>
      <trkpt lat="43.1877620" lon="-5.7969530">
        <ele>264.6</ele>
        <time>2021-10-10T09:54:09Z</time>
      </trkpt>
      <trkpt lat="43.1877220" lon="-5.7970600">
        <ele>264.6</ele>
        <time>2021-10-10T09:54:11Z</time>
      </trkpt>
      <trkpt lat="43.1876540" lon="-5.7972200">
        <ele>264.6</ele>
        <time>2021-10-10T09:54:14Z</time>
      </trkpt>
      <trkpt lat="43.1876160" lon="-5.7973350">
        <ele>264.4</ele>
        <time>2021-10-10T09:54:16Z</time>
      </trkpt>
      <trkpt lat="43.1876010" lon="-5.7973900">
        <ele>264.4</ele>
        <time>2021-10-10T09:54:17Z</time>
      </trkpt>
      <trkpt lat="43.1875890" lon="-5.7974460">
        <ele>264.4</ele>
        <time>2021-10-10T09:54:18Z</time>
      </trkpt>
      <trkpt lat="43.1875400" lon="-5.7977230">
        <ele>264.4</ele>
        <time>2021-10-10T09:54:23Z</time>
      </trkpt>
      <trkpt lat="43.1875280" lon="-5.7978300">
        <ele>264.6</ele>
        <time>2021-10-10T09:54:25Z</time>
      </trkpt>
      <trkpt lat="43.1875130" lon="-5.7979420">
        <ele>264.6</ele>
        <time>2021-10-10T09:54:27Z</time>
      </trkpt>
      <trkpt lat="43.1874910" lon="-5.7981100">
        <ele>264.8</ele>
        <time>2021-10-10T09:54:30Z</time>
      </trkpt>
      <trkpt lat="43.1874680" lon="-5.7982610">
        <ele>265.0</ele>
        <time>2021-10-10T09:54:33Z</time>
      </trkpt>
      <trkpt lat="43.1874510" lon="-5.7983650">
        <ele>265.2</ele>
        <time>2021-10-10T09:54:35Z</time>
      </trkpt>
      <trkpt lat="43.1873670" lon="-5.7987770">
        <ele>266.2</ele>
        <time>2021-10-10T09:54:43Z</time>
      </trkpt>
      <trkpt lat="43.1873430" lon="-5.7988770">
        <ele>266.2</ele>
        <time>2021-10-10T09:54:45Z</time>
      </trkpt>
      <trkpt lat="43.1872670" lon="-5.7991760">
        <ele>266.4</ele>
        <time>2021-10-10T09:54:51Z</time>
      </trkpt>
      <trkpt lat="43.1872450" lon="-5.7992710">
        <ele>266.6</ele>
        <time>2021-10-10T09:54:53Z</time>
      </trkpt>
      <trkpt lat="43.1871070" lon="-5.7996770">
        <ele>266.8</ele>
        <time>2021-10-10T09:55:01Z</time>
      </trkpt>
      <trkpt lat="43.1870710" lon="-5.7997720">
        <ele>266.8</ele>
        <time>2021-10-10T09:55:03Z</time>
      </trkpt>
      <trkpt lat="43.1870350" lon="-5.7998660">
        <ele>266.8</ele>
        <time>2021-10-10T09:55:05Z</time>
      </trkpt>
      <trkpt lat="43.1870060" lon="-5.7999520">
        <ele>266.8</ele>
        <time>2021-10-10T09:55:07Z</time>
      </trkpt>
      <trkpt lat="43.1869550" lon="-5.8000510">
        <ele>267.0</ele>
        <time>2021-10-10T09:55:09Z</time>
      </trkpt>
      <trkpt lat="43.1868680" lon="-5.8001530">
        <ele>267.0</ele>
        <time>2021-10-10T09:55:12Z</time>
      </trkpt>
      <trkpt lat="43.1866900" lon="-5.8003350">
        <ele>267.6</ele>
        <time>2021-10-10T09:55:18Z</time>
      </trkpt>
      <trkpt lat="43.1866130" lon="-5.8004180">
        <ele>268.0</ele>
        <time>2021-10-10T09:55:21Z</time>
      </trkpt>
      <trkpt lat="43.1865650" lon="-5.8004810">
        <ele>268.4</ele>
        <time>2021-10-10T09:55:23Z</time>
      </trkpt>
      <trkpt lat="43.1865170" lon="-5.8005440">
        <ele>268.6</ele>
        <time>2021-10-10T09:55:25Z</time>
      </trkpt>
      <trkpt lat="43.1864450" lon="-5.8006480">
        <ele>269.2</ele>
        <time>2021-10-10T09:55:28Z</time>
      </trkpt>
      <trkpt lat="43.1864060" lon="-5.8007260">
        <ele>269.4</ele>
        <time>2021-10-10T09:55:30Z</time>
      </trkpt>
      <trkpt lat="43.1863650" lon="-5.8008230">
        <ele>269.6</ele>
        <time>2021-10-10T09:55:32Z</time>
      </trkpt>
      <trkpt lat="43.1863420" lon="-5.8009400">
        <ele>269.6</ele>
        <time>2021-10-10T09:55:34Z</time>
      </trkpt>
      <trkpt lat="43.1863350" lon="-5.8010000">
        <ele>269.6</ele>
        <time>2021-10-10T09:55:35Z</time>
      </trkpt>
      <trkpt lat="43.1863320" lon="-5.8011220">
        <ele>269.6</ele>
        <time>2021-10-10T09:55:37Z</time>
      </trkpt>
      <trkpt lat="43.1863330" lon="-5.8013480">
        <ele>269.6</ele>
        <time>2021-10-10T09:55:41Z</time>
      </trkpt>
      <trkpt lat="43.1863590" lon="-5.8016800">
        <ele>269.8</ele>
        <time>2021-10-10T09:55:48Z</time>
      </trkpt>
      <trkpt lat="43.1863630" lon="-5.8017750">
        <ele>270.2</ele>
        <time>2021-10-10T09:55:50Z</time>
      </trkpt>
      <trkpt lat="43.1863700" lon="-5.8019110">
        <ele>270.8</ele>
        <time>2021-10-10T09:55:53Z</time>
      </trkpt>
      <trkpt lat="43.1863740" lon="-5.8019560">
        <ele>271.0</ele>
        <time>2021-10-10T09:55:54Z</time>
      </trkpt>
      <trkpt lat="43.1863790" lon="-5.8020960">
        <ele>271.4</ele>
        <time>2021-10-10T09:55:57Z</time>
      </trkpt>
      <trkpt lat="43.1863790" lon="-5.8021590">
        <ele>271.4</ele>
        <time>2021-10-10T09:55:58Z</time>
      </trkpt>
      <trkpt lat="43.1863770" lon="-5.8023850">
        <ele>271.8</ele>
        <time>2021-10-10T09:56:02Z</time>
      </trkpt>
      <trkpt lat="43.1863790" lon="-5.8026320">
        <ele>271.6</ele>
        <time>2021-10-10T09:56:06Z</time>
      </trkpt>
      <trkpt lat="43.1863840" lon="-5.8026940">
        <ele>271.6</ele>
        <time>2021-10-10T09:56:07Z</time>
      </trkpt>
      <trkpt lat="43.1863980" lon="-5.8028240">
        <ele>271.6</ele>
        <time>2021-10-10T09:56:09Z</time>
      </trkpt>
      <trkpt lat="43.1864110" lon="-5.8028890">
        <ele>271.6</ele>
        <time>2021-10-10T09:56:10Z</time>
      </trkpt>
      <trkpt lat="43.1864510" lon="-5.8030170">
        <ele>271.4</ele>
        <time>2021-10-10T09:56:12Z</time>
      </trkpt>
      <trkpt lat="43.1865410" lon="-5.8031980">
        <ele>271.0</ele>
        <time>2021-10-10T09:56:15Z</time>
      </trkpt>
      <trkpt lat="43.1865700" lon="-5.8032470">
        <ele>271.0</ele>
        <time>2021-10-10T09:56:16Z</time>
      </trkpt>
      <trkpt lat="43.1866440" lon="-5.8033840">
        <ele>270.8</ele>
        <time>2021-10-10T09:56:18Z</time>
      </trkpt>
      <trkpt lat="43.1867250" lon="-5.8036400">
        <ele>269.8</ele>
        <time>2021-10-10T09:56:21Z</time>
      </trkpt>
      <trkpt lat="43.1867610" lon="-5.8038090">
        <ele>269.4</ele>
        <time>2021-10-10T09:56:23Z</time>
      </trkpt>
      <trkpt lat="43.1867800" lon="-5.8039750">
        <ele>269.2</ele>
        <time>2021-10-10T09:56:25Z</time>
      </trkpt>
      <trkpt lat="43.1867800" lon="-5.8040530">
        <ele>269.2</ele>
        <time>2021-10-10T09:56:26Z</time>
      </trkpt>
      <trkpt lat="43.1867780" lon="-5.8041960">
        <ele>269.2</ele>
        <time>2021-10-10T09:56:28Z</time>
      </trkpt>
      <trkpt lat="43.1867600" lon="-5.8043720">
        <ele>269.2</ele>
        <time>2021-10-10T09:56:31Z</time>
      </trkpt>
      <trkpt lat="43.1866810" lon="-5.8048100">
        <ele>270.0</ele>
        <time>2021-10-10T09:56:39Z</time>
      </trkpt>
      <trkpt lat="43.1866610" lon="-5.8050680">
        <ele>270.6</ele>
        <time>2021-10-10T09:56:44Z</time>
      </trkpt>
      <trkpt lat="43.1866630" lon="-5.8051170">
        <ele>271.0</ele>
        <time>2021-10-10T09:56:45Z</time>
      </trkpt>
      <trkpt lat="43.1866660" lon="-5.8051660">
        <ele>271.2</ele>
        <time>2021-10-10T09:56:46Z</time>
      </trkpt>
      <trkpt lat="43.1866810" lon="-5.8052510">
        <ele>271.6</ele>
        <time>2021-10-10T09:56:48Z</time>
      </trkpt>
      <trkpt lat="43.1867240" lon="-5.8054000">
        <ele>272.0</ele>
        <time>2021-10-10T09:56:51Z</time>
      </trkpt>
      <trkpt lat="43.1867520" lon="-5.8054980">
        <ele>272.2</ele>
        <time>2021-10-10T09:56:53Z</time>
      </trkpt>
      <trkpt lat="43.1867820" lon="-5.8056110">
        <ele>272.2</ele>
        <time>2021-10-10T09:56:55Z</time>
      </trkpt>
      <trkpt lat="43.1868180" lon="-5.8058080">
        <ele>272.6</ele>
        <time>2021-10-10T09:56:58Z</time>
      </trkpt>
      <trkpt lat="43.1869030" lon="-5.8062730">
        <ele>272.2</ele>
        <time>2021-10-10T09:57:05Z</time>
      </trkpt>
      <trkpt lat="43.1869800" lon="-5.8065800">
        <ele>271.8</ele>
        <time>2021-10-10T09:57:10Z</time>
      </trkpt>
      <trkpt lat="43.1870140" lon="-5.8067070">
        <ele>271.4</ele>
        <time>2021-10-10T09:57:12Z</time>
      </trkpt>
      <trkpt lat="43.1870660" lon="-5.8069050">
        <ele>271.4</ele>
        <time>2021-10-10T09:57:15Z</time>
      </trkpt>
      <trkpt lat="43.1872010" lon="-5.8074370">
        <ele>270.8</ele>
        <time>2021-10-10T09:57:23Z</time>
      </trkpt>
      <trkpt lat="43.1872060" lon="-5.8075100">
        <ele>270.8</ele>
        <time>2021-10-10T09:57:24Z</time>
      </trkpt>
      <trkpt lat="43.1871580" lon="-5.8079830">
        <ele>270.4</ele>
        <time>2021-10-10T09:57:30Z</time>
      </trkpt>
      <trkpt lat="43.1870800" lon="-5.8083930">
        <ele>269.8</ele>
        <time>2021-10-10T09:57:35Z</time>
      </trkpt>
      <trkpt lat="43.1870510" lon="-5.8085510">
        <ele>269.4</ele>
        <time>2021-10-10T09:57:37Z</time>
      </trkpt>
      <trkpt lat="43.1870320" lon="-5.8086270">
        <ele>269.4</ele>
        <time>2021-10-10T09:57:38Z</time>
      </trkpt>
      <trkpt lat="43.1868800" lon="-5.8090410">
        <ele>269.0</ele>
        <time>2021-10-10T09:57:44Z</time>
      </trkpt>
      <trkpt lat="43.1866880" lon="-5.8094890">
        <ele>269.2</ele>
        <time>2021-10-10T09:57:51Z</time>
      </trkpt>
      <trkpt lat="43.1866330" lon="-5.8096070">
        <ele>269.4</ele>
        <time>2021-10-10T09:57:53Z</time>
      </trkpt>
      <trkpt lat="43.1864290" lon="-5.8100550">
        <ele>270.0</ele>
        <time>2021-10-10T09:58:01Z</time>
      </trkpt>
      <trkpt lat="43.1864050" lon="-5.8101110">
        <ele>270.0</ele>
        <time>2021-10-10T09:58:02Z</time>
      </trkpt>
      <trkpt lat="43.1862770" lon="-5.8104290">
        <ele>270.4</ele>
        <time>2021-10-10T09:58:08Z</time>
      </trkpt>
      <trkpt lat="43.1862180" lon="-5.8105810">
        <ele>270.8</ele>
        <time>2021-10-10T09:58:11Z</time>
      </trkpt>
      <trkpt lat="43.1861090" lon="-5.8108110">
        <ele>271.6</ele>
        <time>2021-10-10T09:58:16Z</time>
      </trkpt>
      <trkpt lat="43.1860560" lon="-5.8108940">
        <ele>271.8</ele>
        <time>2021-10-10T09:58:18Z</time>
      </trkpt>
      <trkpt lat="43.1859770" lon="-5.8110060">
        <ele>272.2</ele>
        <time>2021-10-10T09:58:21Z</time>
      </trkpt>
      <trkpt lat="43.1859290" lon="-5.8110840">
        <ele>272.2</ele>
        <time>2021-10-10T09:58:23Z</time>
      </trkpt>
      <trkpt lat="43.1858800" lon="-5.8111570">
        <ele>273.0</ele>
        <time>2021-10-10T09:58:25Z</time>
      </trkpt>
      <trkpt lat="43.1858000" lon="-5.8112630">
        <ele>273.4</ele>
        <time>2021-10-10T09:58:28Z</time>
      </trkpt>
      <trkpt lat="43.1857440" lon="-5.8113360">
        <ele>273.6</ele>
        <time>2021-10-10T09:58:30Z</time>
      </trkpt>
      <trkpt lat="43.1856840" lon="-5.8114020">
        <ele>273.8</ele>
        <time>2021-10-10T09:58:32Z</time>
      </trkpt>
      <trkpt lat="43.1856560" lon="-5.8114320">
        <ele>273.8</ele>
        <time>2021-10-10T09:58:33Z</time>
      </trkpt>
      <trkpt lat="43.1855040" lon="-5.8115890">
        <ele>274.6</ele>
        <time>2021-10-10T09:58:38Z</time>
      </trkpt>
      <trkpt lat="43.1854470" lon="-5.8116570">
        <ele>274.8</ele>
        <time>2021-10-10T09:58:40Z</time>
      </trkpt>
      <trkpt lat="43.1853050" lon="-5.8118190">
        <ele>275.8</ele>
        <time>2021-10-10T09:58:45Z</time>
      </trkpt>
      <trkpt lat="43.1852510" lon="-5.8118900">
        <ele>276.0</ele>
        <time>2021-10-10T09:58:47Z</time>
      </trkpt>
      <trkpt lat="43.1851790" lon="-5.8119810">
        <ele>276.4</ele>
        <time>2021-10-10T09:58:50Z</time>
      </trkpt>
      <trkpt lat="43.1850990" lon="-5.8120910">
        <ele>276.6</ele>
        <time>2021-10-10T09:58:53Z</time>
      </trkpt>
      <trkpt lat="43.1849440" lon="-5.8122850">
        <ele>277.0</ele>
        <time>2021-10-10T09:58:59Z</time>
      </trkpt>
      <trkpt lat="43.1848730" lon="-5.8123810">
        <ele>277.6</ele>
        <time>2021-10-10T09:59:02Z</time>
      </trkpt>
      <trkpt lat="43.1848000" lon="-5.8124790">
        <ele>278.0</ele>
        <time>2021-10-10T09:59:05Z</time>
      </trkpt>
      <trkpt lat="43.1847300" lon="-5.8125760">
        <ele>278.4</ele>
        <time>2021-10-10T09:59:08Z</time>
      </trkpt>
      <trkpt lat="43.1846800" lon="-5.8126430">
        <ele>278.6</ele>
        <time>2021-10-10T09:59:10Z</time>
      </trkpt>
      <trkpt lat="43.1845520" lon="-5.8128070">
        <ele>279.0</ele>
        <time>2021-10-10T09:59:15Z</time>
      </trkpt>
      <trkpt lat="43.1844660" lon="-5.8129170">
        <ele>279.4</ele>
        <time>2021-10-10T09:59:19Z</time>
      </trkpt>
      <trkpt lat="43.1844040" lon="-5.8129950">
        <ele>280.0</ele>
        <time>2021-10-10T09:59:22Z</time>
      </trkpt>
      <trkpt lat="43.1843060" lon="-5.8131270">
        <ele>280.6</ele>
        <time>2021-10-10T09:59:27Z</time>
      </trkpt>
      <trkpt lat="43.1842410" lon="-5.8132450">
        <ele>281.2</ele>
        <time>2021-10-10T09:59:31Z</time>
      </trkpt>
      <trkpt lat="43.1841810" lon="-5.8133490">
        <ele>281.4</ele>
        <time>2021-10-10T09:59:35Z</time>
      </trkpt>
      <trkpt lat="43.1841160" lon="-5.8133610">
        <ele>282.0</ele>
        <time>2021-10-10T09:59:39Z</time>
      </trkpt>
      <trkpt lat="43.1840480" lon="-5.8133260">
        <ele>282.0</ele>
        <time>2021-10-10T09:59:43Z</time>
      </trkpt>
      <trkpt lat="43.1839240" lon="-5.8134050">
        <ele>281.0</ele>
        <time>2021-10-10T09:59:48Z</time>
      </trkpt>
      <trkpt lat="43.1838550" lon="-5.8134440">
        <ele>280.4</ele>
        <time>2021-10-10T09:59:50Z</time>
      </trkpt>
      <trkpt lat="43.1838320" lon="-5.8134820">
        <ele>279.8</ele>
        <time>2021-10-10T09:59:51Z</time>
      </trkpt>
      <trkpt lat="43.1838160" lon="-5.8135340">
        <ele>279.6</ele>
        <time>2021-10-10T09:59:52Z</time>
      </trkpt>
      <trkpt lat="43.1837860" lon="-5.8136490">
        <ele>278.8</ele>
        <time>2021-10-10T09:59:54Z</time>
      </trkpt>
      <trkpt lat="43.1837750" lon="-5.8136970">
        <ele>278.0</ele>
        <time>2021-10-10T09:59:55Z</time>
      </trkpt>
      <trkpt lat="43.1837580" lon="-5.8137960">
        <ele>277.6</ele>
        <time>2021-10-10T09:59:57Z</time>
      </trkpt>
      <trkpt lat="43.1837140" lon="-5.8138870">
        <ele>277.4</ele>
        <time>2021-10-10T10:00:00Z</time>
      </trkpt>
      <trkpt lat="43.1837020" lon="-5.8139130">
        <ele>277.4</ele>
        <time>2021-10-10T10:00:01Z</time>
      </trkpt>
      <trkpt lat="43.1836960" lon="-5.8139350">
        <ele>277.4</ele>
        <time>2021-10-10T10:00:02Z</time>
      </trkpt>
      <trkpt lat="43.1836900" lon="-5.8139550">
        <ele>277.4</ele>
        <time>2021-10-10T10:00:03Z</time>
      </trkpt>
      <trkpt lat="43.1836880" lon="-5.8139590">
        <ele>278.2</ele>
        <time>2021-10-10T10:00:07Z</time>
      </trkpt>
      <trkpt lat="43.1837010" lon="-5.8139160">
        <ele>278.4</ele>
        <time>2021-10-10T10:00:41Z</time>
      </trkpt>
      <trkpt lat="43.1837420" lon="-5.8138590">
        <ele>278.4</ele>
        <time>2021-10-10T10:00:43Z</time>
      </trkpt>
      <trkpt lat="43.1837810" lon="-5.8137490">
        <ele>278.0</ele>
        <time>2021-10-10T10:00:46Z</time>
      </trkpt>
      <trkpt lat="43.1837800" lon="-5.8137240">
        <ele>277.8</ele>
        <time>2021-10-10T10:00:47Z</time>
      </trkpt>
      <trkpt lat="43.1837480" lon="-5.8136480">
        <ele>277.0</ele>
        <time>2021-10-10T10:00:50Z</time>
      </trkpt>
      <trkpt lat="43.1837290" lon="-5.8136290">
        <ele>276.6</ele>
        <time>2021-10-10T10:00:52Z</time>
      </trkpt>
      <trkpt lat="43.1837270" lon="-5.8136240">
        <ele>276.2</ele>
        <time>2021-10-10T10:00:55Z</time>
      </trkpt>
      <trkpt lat="43.1837140" lon="-5.8135020">
        <ele>275.8</ele>
        <time>2021-10-10T10:01:06Z</time>
      </trkpt>
      <trkpt lat="43.1837120" lon="-5.8134540">
        <ele>275.6</ele>
        <time>2021-10-10T10:01:07Z</time>
      </trkpt>
      <trkpt lat="43.1836990" lon="-5.8134120">
        <ele>275.6</ele>
        <time>2021-10-10T10:01:08Z</time>
      </trkpt>
      <trkpt lat="43.1836520" lon="-5.8133290">
        <ele>275.2</ele>
        <time>2021-10-10T10:01:10Z</time>
      </trkpt>
      <trkpt lat="43.1836280" lon="-5.8132870">
        <ele>275.0</ele>
        <time>2021-10-10T10:01:11Z</time>
      </trkpt>
      <trkpt lat="43.1836120" lon="-5.8132440">
        <ele>274.6</ele>
        <time>2021-10-10T10:01:12Z</time>
      </trkpt>
      <trkpt lat="43.1835590" lon="-5.8131200">
        <ele>272.8</ele>
        <time>2021-10-10T10:01:15Z</time>
      </trkpt>
      <trkpt lat="43.1835360" lon="-5.8130970">
        <ele>272.6</ele>
        <time>2021-10-10T10:01:16Z</time>
      </trkpt>
      <trkpt lat="43.1834730" lon="-5.8130570">
        <ele>271.6</ele>
        <time>2021-10-10T10:01:18Z</time>
      </trkpt>
      <trkpt lat="43.1834300" lon="-5.8130710">
        <ele>271.0</ele>
        <time>2021-10-10T10:01:20Z</time>
      </trkpt>
      <trkpt lat="43.1834030" lon="-5.8131160">
        <ele>270.6</ele>
        <time>2021-10-10T10:01:22Z</time>
      </trkpt>
      <trkpt lat="43.1833830" lon="-5.8131870">
        <ele>270.6</ele>
        <time>2021-10-10T10:01:25Z</time>
      </trkpt>
      <trkpt lat="43.1833680" lon="-5.8132210">
        <ele>270.6</ele>
        <time>2021-10-10T10:01:27Z</time>
      </trkpt>
      <trkpt lat="43.1833400" lon="-5.8132850">
        <ele>270.8</ele>
        <time>2021-10-10T10:01:30Z</time>
      </trkpt>
      <trkpt lat="43.1833090" lon="-5.8133530">
        <ele>270.8</ele>
        <time>2021-10-10T10:01:32Z</time>
      </trkpt>
      <trkpt lat="43.1832390" lon="-5.8135070">
        <ele>270.8</ele>
        <time>2021-10-10T10:01:36Z</time>
      </trkpt>
      <trkpt lat="43.1832010" lon="-5.8135810">
        <ele>270.8</ele>
        <time>2021-10-10T10:01:38Z</time>
      </trkpt>
      <trkpt lat="43.1831460" lon="-5.8136710">
        <ele>271.0</ele>
        <time>2021-10-10T10:01:42Z</time>
      </trkpt>
      <trkpt lat="43.1831350" lon="-5.8136650">
        <ele>271.0</ele>
        <time>2021-10-10T10:01:43Z</time>
      </trkpt>
      <trkpt lat="43.1831650" lon="-5.8135720">
        <ele>270.8</ele>
        <time>2021-10-10T10:01:47Z</time>
      </trkpt>
      <trkpt lat="43.1832780" lon="-5.8133460">
        <ele>271.0</ele>
        <time>2021-10-10T10:01:53Z</time>
      </trkpt>
      <trkpt lat="43.1833480" lon="-5.8132070">
        <ele>271.0</ele>
        <time>2021-10-10T10:01:56Z</time>
      </trkpt>
      <trkpt lat="43.1833930" lon="-5.8131050">
        <ele>271.0</ele>
        <time>2021-10-10T10:01:58Z</time>
      </trkpt>
      <trkpt lat="43.1834800" lon="-5.8128570">
        <ele>271.0</ele>
        <time>2021-10-10T10:02:03Z</time>
      </trkpt>
      <trkpt lat="43.1834860" lon="-5.8128060">
        <ele>271.0</ele>
        <time>2021-10-10T10:02:04Z</time>
      </trkpt>
      <trkpt lat="43.1834840" lon="-5.8126160">
        <ele>271.4</ele>
        <time>2021-10-10T10:02:08Z</time>
      </trkpt>
      <trkpt lat="43.1834650" lon="-5.8125380">
        <ele>271.8</ele>
        <time>2021-10-10T10:02:10Z</time>
      </trkpt>
      <trkpt lat="43.1834230" lon="-5.8124700">
        <ele>272.0</ele>
        <time>2021-10-10T10:02:12Z</time>
      </trkpt>
      <trkpt lat="43.1832830" lon="-5.8123220">
        <ele>272.4</ele>
        <time>2021-10-10T10:02:17Z</time>
      </trkpt>
      <trkpt lat="43.1831960" lon="-5.8122460">
        <ele>272.8</ele>
        <time>2021-10-10T10:02:20Z</time>
      </trkpt>
      <trkpt lat="43.1830700" lon="-5.8121360">
        <ele>273.0</ele>
        <time>2021-10-10T10:02:24Z</time>
      </trkpt>
      <trkpt lat="43.1829260" lon="-5.8120120">
        <ele>273.0</ele>
        <time>2021-10-10T10:02:28Z</time>
      </trkpt>
      <trkpt lat="43.1827570" lon="-5.8118750">
        <ele>273.0</ele>
        <time>2021-10-10T10:02:32Z</time>
      </trkpt>
      <trkpt lat="43.1827080" lon="-5.8118420">
        <ele>273.0</ele>
        <time>2021-10-10T10:02:33Z</time>
      </trkpt>
      <trkpt lat="43.1826530" lon="-5.8118180">
        <ele>272.8</ele>
        <time>2021-10-10T10:02:34Z</time>
      </trkpt>
      <trkpt lat="43.1825990" lon="-5.8118050">
        <ele>272.8</ele>
        <time>2021-10-10T10:02:35Z</time>
      </trkpt>
      <trkpt lat="43.1824840" lon="-5.8118050">
        <ele>272.4</ele>
        <time>2021-10-10T10:02:37Z</time>
      </trkpt>
      <trkpt lat="43.1824240" lon="-5.8118160">
        <ele>272.2</ele>
        <time>2021-10-10T10:02:38Z</time>
      </trkpt>
      <trkpt lat="43.1823670" lon="-5.8118350">
        <ele>272.0</ele>
        <time>2021-10-10T10:02:39Z</time>
      </trkpt>
      <trkpt lat="43.1823130" lon="-5.8118650">
        <ele>272.0</ele>
        <time>2021-10-10T10:02:40Z</time>
      </trkpt>
      <trkpt lat="43.1822610" lon="-5.8119040">
        <ele>271.8</ele>
        <time>2021-10-10T10:02:41Z</time>
      </trkpt>
      <trkpt lat="43.1822120" lon="-5.8119480">
        <ele>271.8</ele>
        <time>2021-10-10T10:02:42Z</time>
      </trkpt>
      <trkpt lat="43.1821250" lon="-5.8120490">
        <ele>271.6</ele>
        <time>2021-10-10T10:02:44Z</time>
      </trkpt>
      <trkpt lat="43.1820290" lon="-5.8122240">
        <ele>271.6</ele>
        <time>2021-10-10T10:02:47Z</time>
      </trkpt>
      <trkpt lat="43.1819250" lon="-5.8124360">
        <ele>271.6</ele>
        <time>2021-10-10T10:02:51Z</time>
      </trkpt>
      <trkpt lat="43.1818610" lon="-5.8125990">
        <ele>271.8</ele>
        <time>2021-10-10T10:02:54Z</time>
      </trkpt>
      <trkpt lat="43.1816980" lon="-5.8129200">
        <ele>272.0</ele>
        <time>2021-10-10T10:03:00Z</time>
      </trkpt>
      <trkpt lat="43.1816310" lon="-5.8130120">
        <ele>272.0</ele>
        <time>2021-10-10T10:03:02Z</time>
      </trkpt>
      <trkpt lat="43.1814290" lon="-5.8131830">
        <ele>272.2</ele>
        <time>2021-10-10T10:03:07Z</time>
      </trkpt>
      <trkpt lat="43.1813880" lon="-5.8132120">
        <ele>272.2</ele>
        <time>2021-10-10T10:03:08Z</time>
      </trkpt>
      <trkpt lat="43.1813420" lon="-5.8132360">
        <ele>272.2</ele>
        <time>2021-10-10T10:03:09Z</time>
      </trkpt>
      <trkpt lat="43.1812490" lon="-5.8132470">
        <ele>272.2</ele>
        <time>2021-10-10T10:03:11Z</time>
      </trkpt>
      <trkpt lat="43.1812030" lon="-5.8132340">
        <ele>272.4</ele>
        <time>2021-10-10T10:03:12Z</time>
      </trkpt>
      <trkpt lat="43.1811600" lon="-5.8132070">
        <ele>272.4</ele>
        <time>2021-10-10T10:03:13Z</time>
      </trkpt>
      <trkpt lat="43.1810540" lon="-5.8130810">
        <ele>272.4</ele>
        <time>2021-10-10T10:03:16Z</time>
      </trkpt>
      <trkpt lat="43.1809630" lon="-5.8129380">
        <ele>272.6</ele>
        <time>2021-10-10T10:03:19Z</time>
      </trkpt>
      <trkpt lat="43.1809180" lon="-5.8128240">
        <ele>272.8</ele>
        <time>2021-10-10T10:03:21Z</time>
      </trkpt>
      <trkpt lat="43.1809010" lon="-5.8127600">
        <ele>272.8</ele>
        <time>2021-10-10T10:03:22Z</time>
      </trkpt>
      <trkpt lat="43.1808220" lon="-5.8122630">
        <ele>272.8</ele>
        <time>2021-10-10T10:03:29Z</time>
      </trkpt>
      <trkpt lat="43.1807790" lon="-5.8119310">
        <ele>272.6</ele>
        <time>2021-10-10T10:03:34Z</time>
      </trkpt>
      <trkpt lat="43.1807370" lon="-5.8118280">
        <ele>272.6</ele>
        <time>2021-10-10T10:03:36Z</time>
      </trkpt>
      <trkpt lat="43.1806540" lon="-5.8117930">
        <ele>272.4</ele>
        <time>2021-10-10T10:03:38Z</time>
      </trkpt>
      <trkpt lat="43.1806120" lon="-5.8118030">
        <ele>272.2</ele>
        <time>2021-10-10T10:03:39Z</time>
      </trkpt>
      <trkpt lat="43.1805250" lon="-5.8118530">
        <ele>272.0</ele>
        <time>2021-10-10T10:03:41Z</time>
      </trkpt>
      <trkpt lat="43.1803760" lon="-5.8119860">
        <ele>272.0</ele>
        <time>2021-10-10T10:03:45Z</time>
      </trkpt>
      <trkpt lat="43.1802740" lon="-5.8120820">
        <ele>272.2</ele>
        <time>2021-10-10T10:03:48Z</time>
      </trkpt>
      <trkpt lat="43.1801230" lon="-5.8122420">
        <ele>272.8</ele>
        <time>2021-10-10T10:03:53Z</time>
      </trkpt>
      <trkpt lat="43.1800550" lon="-5.8123110">
        <ele>273.2</ele>
        <time>2021-10-10T10:03:55Z</time>
      </trkpt>
      <trkpt lat="43.1799920" lon="-5.8123830">
        <ele>273.6</ele>
        <time>2021-10-10T10:03:57Z</time>
      </trkpt>
      <trkpt lat="43.1798300" lon="-5.8125690">
        <ele>274.0</ele>
        <time>2021-10-10T10:04:02Z</time>
      </trkpt>
      <trkpt lat="43.1797630" lon="-5.8126430">
        <ele>274.2</ele>
        <time>2021-10-10T10:04:04Z</time>
      </trkpt>
      <trkpt lat="43.1797340" lon="-5.8126820">
        <ele>274.2</ele>
        <time>2021-10-10T10:04:05Z</time>
      </trkpt>
      <trkpt lat="43.1796800" lon="-5.8127610">
        <ele>274.4</ele>
        <time>2021-10-10T10:04:07Z</time>
      </trkpt>
      <trkpt lat="43.1795270" lon="-5.8129350">
        <ele>274.6</ele>
        <time>2021-10-10T10:04:12Z</time>
      </trkpt>
      <trkpt lat="43.1793840" lon="-5.8131040">
        <ele>275.2</ele>
        <time>2021-10-10T10:04:17Z</time>
      </trkpt>
      <trkpt lat="43.1793560" lon="-5.8131350">
        <ele>275.4</ele>
        <time>2021-10-10T10:04:18Z</time>
      </trkpt>
      <trkpt lat="43.1792970" lon="-5.8132020">
        <ele>275.6</ele>
        <time>2021-10-10T10:04:20Z</time>
      </trkpt>
      <trkpt lat="43.1791350" lon="-5.8134390">
        <ele>275.8</ele>
        <time>2021-10-10T10:04:26Z</time>
      </trkpt>
      <trkpt lat="43.1791070" lon="-5.8134790">
        <ele>276.0</ele>
        <time>2021-10-10T10:04:27Z</time>
      </trkpt>
      <trkpt lat="43.1790770" lon="-5.8135180">
        <ele>276.0</ele>
        <time>2021-10-10T10:04:28Z</time>
      </trkpt>
      <trkpt lat="43.1789490" lon="-5.8136830">
        <ele>276.0</ele>
        <time>2021-10-10T10:04:32Z</time>
      </trkpt>
      <trkpt lat="43.1788850" lon="-5.8137620">
        <ele>276.2</ele>
        <time>2021-10-10T10:04:34Z</time>
      </trkpt>
      <trkpt lat="43.1788220" lon="-5.8138450">
        <ele>276.4</ele>
        <time>2021-10-10T10:04:36Z</time>
      </trkpt>
      <trkpt lat="43.1787920" lon="-5.8138850">
        <ele>276.4</ele>
        <time>2021-10-10T10:04:37Z</time>
      </trkpt>
      <trkpt lat="43.1786380" lon="-5.8141080">
        <ele>276.6</ele>
        <time>2021-10-10T10:04:42Z</time>
      </trkpt>
      <trkpt lat="43.1785410" lon="-5.8142420">
        <ele>276.6</ele>
        <time>2021-10-10T10:04:45Z</time>
      </trkpt>
      <trkpt lat="43.1785090" lon="-5.8142850">
        <ele>276.6</ele>
        <time>2021-10-10T10:04:46Z</time>
      </trkpt>
      <trkpt lat="43.1783710" lon="-5.8144460">
        <ele>276.6</ele>
        <time>2021-10-10T10:04:50Z</time>
      </trkpt>
      <trkpt lat="43.1783020" lon="-5.8145270">
        <ele>276.6</ele>
        <time>2021-10-10T10:04:52Z</time>
      </trkpt>
      <trkpt lat="43.1781240" lon="-5.8147390">
        <ele>276.6</ele>
        <time>2021-10-10T10:04:57Z</time>
      </trkpt>
      <trkpt lat="43.1780900" lon="-5.8147830">
        <ele>276.6</ele>
        <time>2021-10-10T10:04:58Z</time>
      </trkpt>
      <trkpt lat="43.1777190" lon="-5.8152790">
        <ele>276.8</ele>
        <time>2021-10-10T10:05:10Z</time>
      </trkpt>
      <trkpt lat="43.1775500" lon="-5.8154990">
        <ele>278.2</ele>
        <time>2021-10-10T10:05:16Z</time>
      </trkpt>
      <trkpt lat="43.1775190" lon="-5.8155400">
        <ele>277.8</ele>
        <time>2021-10-10T10:05:17Z</time>
      </trkpt>
      <trkpt lat="43.1772470" lon="-5.8158880">
        <ele>278.2</ele>
        <time>2021-10-10T10:05:26Z</time>
      </trkpt>
      <trkpt lat="43.1770340" lon="-5.8161650">
        <ele>278.4</ele>
        <time>2021-10-10T10:05:33Z</time>
      </trkpt>
      <trkpt lat="43.1768530" lon="-5.8163960">
        <ele>278.6</ele>
        <time>2021-10-10T10:05:39Z</time>
      </trkpt>
      <trkpt lat="43.1767650" lon="-5.8165150">
        <ele>278.8</ele>
        <time>2021-10-10T10:05:42Z</time>
      </trkpt>
      <trkpt lat="43.1767340" lon="-5.8165570">
        <ele>278.8</ele>
        <time>2021-10-10T10:05:43Z</time>
      </trkpt>
      <trkpt lat="43.1766410" lon="-5.8166780">
        <ele>279.0</ele>
        <time>2021-10-10T10:05:46Z</time>
      </trkpt>
      <trkpt lat="43.1764570" lon="-5.8169210">
        <ele>279.2</ele>
        <time>2021-10-10T10:05:52Z</time>
      </trkpt>
      <trkpt lat="43.1763620" lon="-5.8170330">
        <ele>279.2</ele>
        <time>2021-10-10T10:05:55Z</time>
      </trkpt>
      <trkpt lat="43.1763040" lon="-5.8171070">
        <ele>279.4</ele>
        <time>2021-10-10T10:05:57Z</time>
      </trkpt>
      <trkpt lat="43.1761840" lon="-5.8172580">
        <ele>279.4</ele>
        <time>2021-10-10T10:06:01Z</time>
      </trkpt>
      <trkpt lat="43.1761170" lon="-5.8173420">
        <ele>279.4</ele>
        <time>2021-10-10T10:06:03Z</time>
      </trkpt>
      <trkpt lat="43.1760200" lon="-5.8174780">
        <ele>279.4</ele>
        <time>2021-10-10T10:06:06Z</time>
      </trkpt>
      <trkpt lat="43.1758950" lon="-5.8176580">
        <ele>279.2</ele>
        <time>2021-10-10T10:06:10Z</time>
      </trkpt>
      <trkpt lat="43.1757080" lon="-5.8179040">
        <ele>279.2</ele>
        <time>2021-10-10T10:06:16Z</time>
      </trkpt>
      <trkpt lat="43.1755150" lon="-5.8181670">
        <ele>279.4</ele>
        <time>2021-10-10T10:06:23Z</time>
      </trkpt>
      <trkpt lat="43.1753550" lon="-5.8183690">
        <ele>280.0</ele>
        <time>2021-10-10T10:06:29Z</time>
      </trkpt>
      <trkpt lat="43.1753010" lon="-5.8184440">
        <ele>280.2</ele>
        <time>2021-10-10T10:06:31Z</time>
      </trkpt>
      <trkpt lat="43.1752710" lon="-5.8184800">
        <ele>280.4</ele>
        <time>2021-10-10T10:06:32Z</time>
      </trkpt>
      <trkpt lat="43.1750060" lon="-5.8188200">
        <ele>280.8</ele>
        <time>2021-10-10T10:06:41Z</time>
      </trkpt>
      <trkpt lat="43.1749790" lon="-5.8188580">
        <ele>281.0</ele>
        <time>2021-10-10T10:06:42Z</time>
      </trkpt>
      <trkpt lat="43.1749500" lon="-5.8188960">
        <ele>281.0</ele>
        <time>2021-10-10T10:06:43Z</time>
      </trkpt>
      <trkpt lat="43.1749210" lon="-5.8189360">
        <ele>281.0</ele>
        <time>2021-10-10T10:06:44Z</time>
      </trkpt>
      <trkpt lat="43.1748340" lon="-5.8190480">
        <ele>281.2</ele>
        <time>2021-10-10T10:06:47Z</time>
      </trkpt>
      <trkpt lat="43.1747180" lon="-5.8192000">
        <ele>281.4</ele>
        <time>2021-10-10T10:06:51Z</time>
      </trkpt>
      <trkpt lat="43.1745260" lon="-5.8194640">
        <ele>281.8</ele>
        <time>2021-10-10T10:06:58Z</time>
      </trkpt>
      <trkpt lat="43.1744160" lon="-5.8196120">
        <ele>282.0</ele>
        <time>2021-10-10T10:07:02Z</time>
      </trkpt>
      <trkpt lat="43.1743600" lon="-5.8196890">
        <ele>282.2</ele>
        <time>2021-10-10T10:07:04Z</time>
      </trkpt>
      <trkpt lat="43.1743060" lon="-5.8197640">
        <ele>282.2</ele>
        <time>2021-10-10T10:07:06Z</time>
      </trkpt>
      <trkpt lat="43.1741620" lon="-5.8199510">
        <ele>282.4</ele>
        <time>2021-10-10T10:07:11Z</time>
      </trkpt>
      <trkpt lat="43.1741320" lon="-5.8199900">
        <ele>282.6</ele>
        <time>2021-10-10T10:07:12Z</time>
      </trkpt>
      <trkpt lat="43.1739990" lon="-5.8201750">
        <ele>283.0</ele>
        <time>2021-10-10T10:07:17Z</time>
      </trkpt>
      <trkpt lat="43.1739460" lon="-5.8202470">
        <ele>283.2</ele>
        <time>2021-10-10T10:07:19Z</time>
      </trkpt>
      <trkpt lat="43.1738880" lon="-5.8203160">
        <ele>283.4</ele>
        <time>2021-10-10T10:07:21Z</time>
      </trkpt>
      <trkpt lat="43.1738610" lon="-5.8203520">
        <ele>283.4</ele>
        <time>2021-10-10T10:07:22Z</time>
      </trkpt>
      <trkpt lat="43.1738020" lon="-5.8204220">
        <ele>283.6</ele>
        <time>2021-10-10T10:07:24Z</time>
      </trkpt>
      <trkpt lat="43.1737430" lon="-5.8204980">
        <ele>283.6</ele>
        <time>2021-10-10T10:07:26Z</time>
      </trkpt>
      <trkpt lat="43.1736580" lon="-5.8206130">
        <ele>284.2</ele>
        <time>2021-10-10T10:07:29Z</time>
      </trkpt>
      <trkpt lat="43.1735950" lon="-5.8206860">
        <ele>284.4</ele>
        <time>2021-10-10T10:07:31Z</time>
      </trkpt>
      <trkpt lat="43.1735330" lon="-5.8207560">
        <ele>284.4</ele>
        <time>2021-10-10T10:07:33Z</time>
      </trkpt>
      <trkpt lat="43.1734750" lon="-5.8208370">
        <ele>284.6</ele>
        <time>2021-10-10T10:07:35Z</time>
      </trkpt>
      <trkpt lat="43.1733560" lon="-5.8209820">
        <ele>284.8</ele>
        <time>2021-10-10T10:07:39Z</time>
      </trkpt>
      <trkpt lat="43.1732350" lon="-5.8211480">
        <ele>285.0</ele>
        <time>2021-10-10T10:07:43Z</time>
      </trkpt>
      <trkpt lat="43.1730590" lon="-5.8213830">
        <ele>284.8</ele>
        <time>2021-10-10T10:07:48Z</time>
      </trkpt>
      <trkpt lat="43.1729600" lon="-5.8215210">
        <ele>284.6</ele>
        <time>2021-10-10T10:07:51Z</time>
      </trkpt>
      <trkpt lat="43.1728890" lon="-5.8216090">
        <ele>284.6</ele>
        <time>2021-10-10T10:07:53Z</time>
      </trkpt>
      <trkpt lat="43.1728240" lon="-5.8216900">
        <ele>284.6</ele>
        <time>2021-10-10T10:07:55Z</time>
      </trkpt>
      <trkpt lat="43.1726270" lon="-5.8219500">
        <ele>285.4</ele>
        <time>2021-10-10T10:08:02Z</time>
      </trkpt>
      <trkpt lat="43.1726030" lon="-5.8219850">
        <ele>285.4</ele>
        <time>2021-10-10T10:08:03Z</time>
      </trkpt>
      <trkpt lat="43.1724630" lon="-5.8221830">
        <ele>286.4</ele>
        <time>2021-10-10T10:08:09Z</time>
      </trkpt>
      <trkpt lat="43.1724400" lon="-5.8222180">
        <ele>286.4</ele>
        <time>2021-10-10T10:08:10Z</time>
      </trkpt>
      <trkpt lat="43.1723030" lon="-5.8223790">
        <ele>287.0</ele>
        <time>2021-10-10T10:08:15Z</time>
      </trkpt>
      <trkpt lat="43.1722760" lon="-5.8224160">
        <ele>287.0</ele>
        <time>2021-10-10T10:08:16Z</time>
      </trkpt>
      <trkpt lat="43.1721720" lon="-5.8225580">
        <ele>287.4</ele>
        <time>2021-10-10T10:08:20Z</time>
      </trkpt>
      <trkpt lat="43.1720050" lon="-5.8227740">
        <ele>287.8</ele>
        <time>2021-10-10T10:08:26Z</time>
      </trkpt>
      <trkpt lat="43.1717970" lon="-5.8230640">
        <ele>288.0</ele>
        <time>2021-10-10T10:08:34Z</time>
      </trkpt>
      <trkpt lat="43.1717440" lon="-5.8231350">
        <ele>288.0</ele>
        <time>2021-10-10T10:08:36Z</time>
      </trkpt>
      <trkpt lat="43.1715600" lon="-5.8233820">
        <ele>288.4</ele>
        <time>2021-10-10T10:08:43Z</time>
      </trkpt>
      <trkpt lat="43.1715060" lon="-5.8234440">
        <ele>288.6</ele>
        <time>2021-10-10T10:08:45Z</time>
      </trkpt>
      <trkpt lat="43.1714790" lon="-5.8234770">
        <ele>288.6</ele>
        <time>2021-10-10T10:08:46Z</time>
      </trkpt>
      <trkpt lat="43.1713690" lon="-5.8236220">
        <ele>288.8</ele>
        <time>2021-10-10T10:08:50Z</time>
      </trkpt>
      <trkpt lat="43.1713120" lon="-5.8236960">
        <ele>288.8</ele>
        <time>2021-10-10T10:08:52Z</time>
      </trkpt>
      <trkpt lat="43.1712850" lon="-5.8237310">
        <ele>288.8</ele>
        <time>2021-10-10T10:08:53Z</time>
      </trkpt>
      <trkpt lat="43.1711450" lon="-5.8238980">
        <ele>289.2</ele>
        <time>2021-10-10T10:08:58Z</time>
      </trkpt>
      <trkpt lat="43.1710590" lon="-5.8239880">
        <ele>289.4</ele>
        <time>2021-10-10T10:09:01Z</time>
      </trkpt>
      <trkpt lat="43.1710020" lon="-5.8240480">
        <ele>289.6</ele>
        <time>2021-10-10T10:09:03Z</time>
      </trkpt>
      <trkpt lat="43.1709120" lon="-5.8241350">
        <ele>289.8</ele>
        <time>2021-10-10T10:09:06Z</time>
      </trkpt>
      <trkpt lat="43.1707620" lon="-5.8242640">
        <ele>290.0</ele>
        <time>2021-10-10T10:09:11Z</time>
      </trkpt>
      <trkpt lat="43.1707310" lon="-5.8242900">
        <ele>290.2</ele>
        <time>2021-10-10T10:09:12Z</time>
      </trkpt>
      <trkpt lat="43.1705480" lon="-5.8244360">
        <ele>290.8</ele>
        <time>2021-10-10T10:09:18Z</time>
      </trkpt>
      <trkpt lat="43.1704430" lon="-5.8245150">
        <ele>291.0</ele>
        <time>2021-10-10T10:09:21Z</time>
      </trkpt>
      <trkpt lat="43.1703340" lon="-5.8245930">
        <ele>291.2</ele>
        <time>2021-10-10T10:09:24Z</time>
      </trkpt>
      <trkpt lat="43.1700640" lon="-5.8247740">
        <ele>291.4</ele>
        <time>2021-10-10T10:09:32Z</time>
      </trkpt>
      <trkpt lat="43.1699320" lon="-5.8248530">
        <ele>291.8</ele>
        <time>2021-10-10T10:09:36Z</time>
      </trkpt>
      <trkpt lat="43.1697290" lon="-5.8249510">
        <ele>292.4</ele>
        <time>2021-10-10T10:09:42Z</time>
      </trkpt>
      <trkpt lat="43.1696960" lon="-5.8249670">
        <ele>292.4</ele>
        <time>2021-10-10T10:09:43Z</time>
      </trkpt>
      <trkpt lat="43.1696630" lon="-5.8249810">
        <ele>292.6</ele>
        <time>2021-10-10T10:09:44Z</time>
      </trkpt>
      <trkpt lat="43.1695950" lon="-5.8250040">
        <ele>293.0</ele>
        <time>2021-10-10T10:09:46Z</time>
      </trkpt>
      <trkpt lat="43.1694520" lon="-5.8250590">
        <ele>293.2</ele>
        <time>2021-10-10T10:09:50Z</time>
      </trkpt>
      <trkpt lat="43.1693830" lon="-5.8250850">
        <ele>293.4</ele>
        <time>2021-10-10T10:09:52Z</time>
      </trkpt>
      <trkpt lat="43.1692410" lon="-5.8251200">
        <ele>294.0</ele>
        <time>2021-10-10T10:09:56Z</time>
      </trkpt>
      <trkpt lat="43.1692030" lon="-5.8251300">
        <ele>294.2</ele>
        <time>2021-10-10T10:09:57Z</time>
      </trkpt>
      <trkpt lat="43.1690960" lon="-5.8251690">
        <ele>294.2</ele>
        <time>2021-10-10T10:10:00Z</time>
      </trkpt>
      <trkpt lat="43.1690600" lon="-5.8251810">
        <ele>294.2</ele>
        <time>2021-10-10T10:10:01Z</time>
      </trkpt>
      <trkpt lat="43.1690230" lon="-5.8251930">
        <ele>294.4</ele>
        <time>2021-10-10T10:10:02Z</time>
      </trkpt>
      <trkpt lat="43.1689840" lon="-5.8252040">
        <ele>294.4</ele>
        <time>2021-10-10T10:10:03Z</time>
      </trkpt>
      <trkpt lat="43.1688620" lon="-5.8252440">
        <ele>294.4</ele>
        <time>2021-10-10T10:10:06Z</time>
      </trkpt>
      <trkpt lat="43.1687190" lon="-5.8252900">
        <ele>294.4</ele>
        <time>2021-10-10T10:10:09Z</time>
      </trkpt>
      <trkpt lat="43.1684240" lon="-5.8253760">
        <ele>294.4</ele>
        <time>2021-10-10T10:10:16Z</time>
      </trkpt>
      <trkpt lat="43.1683550" lon="-5.8254040">
        <ele>294.4</ele>
        <time>2021-10-10T10:10:18Z</time>
      </trkpt>
      <trkpt lat="43.1682850" lon="-5.8254320">
        <ele>294.6</ele>
        <time>2021-10-10T10:10:20Z</time>
      </trkpt>
      <trkpt lat="43.1681360" lon="-5.8254900">
        <ele>295.0</ele>
        <time>2021-10-10T10:10:24Z</time>
      </trkpt>
      <trkpt lat="43.1680200" lon="-5.8255410">
        <ele>295.2</ele>
        <time>2021-10-10T10:10:27Z</time>
      </trkpt>
      <trkpt lat="43.1678990" lon="-5.8255960">
        <ele>295.2</ele>
        <time>2021-10-10T10:10:30Z</time>
      </trkpt>
      <trkpt lat="43.1677140" lon="-5.8256730">
        <ele>295.4</ele>
        <time>2021-10-10T10:10:35Z</time>
      </trkpt>
      <trkpt lat="43.1673680" lon="-5.8258240">
        <ele>296.0</ele>
        <time>2021-10-10T10:10:44Z</time>
      </trkpt>
      <trkpt lat="43.1673300" lon="-5.8258430">
        <ele>296.0</ele>
        <time>2021-10-10T10:10:45Z</time>
      </trkpt>
      <trkpt lat="43.1671240" lon="-5.8259460">
        <ele>296.0</ele>
        <time>2021-10-10T10:10:50Z</time>
      </trkpt>
      <trkpt lat="43.1670050" lon="-5.8259980">
        <ele>296.0</ele>
        <time>2021-10-10T10:10:53Z</time>
      </trkpt>
      <trkpt lat="43.1668840" lon="-5.8260390">
        <ele>296.2</ele>
        <time>2021-10-10T10:10:56Z</time>
      </trkpt>
      <trkpt lat="43.1667570" lon="-5.8260860">
        <ele>296.2</ele>
        <time>2021-10-10T10:10:59Z</time>
      </trkpt>
      <trkpt lat="43.1665800" lon="-5.8261660">
        <ele>296.6</ele>
        <time>2021-10-10T10:11:04Z</time>
      </trkpt>
      <trkpt lat="43.1665470" lon="-5.8261860">
        <ele>296.8</ele>
        <time>2021-10-10T10:11:05Z</time>
      </trkpt>
      <trkpt lat="43.1664830" lon="-5.8262220">
        <ele>297.0</ele>
        <time>2021-10-10T10:11:07Z</time>
      </trkpt>
      <trkpt lat="43.1663850" lon="-5.8262740">
        <ele>297.4</ele>
        <time>2021-10-10T10:11:10Z</time>
      </trkpt>
      <trkpt lat="43.1663530" lon="-5.8262920">
        <ele>297.6</ele>
        <time>2021-10-10T10:11:11Z</time>
      </trkpt>
      <trkpt lat="43.1662530" lon="-5.8263370">
        <ele>297.8</ele>
        <time>2021-10-10T10:11:14Z</time>
      </trkpt>
      <trkpt lat="43.1662190" lon="-5.8263510">
        <ele>298.0</ele>
        <time>2021-10-10T10:11:15Z</time>
      </trkpt>
      <trkpt lat="43.1661550" lon="-5.8263780">
        <ele>298.2</ele>
        <time>2021-10-10T10:11:17Z</time>
      </trkpt>
      <trkpt lat="43.1660860" lon="-5.8264080">
        <ele>298.6</ele>
        <time>2021-10-10T10:11:19Z</time>
      </trkpt>
      <trkpt lat="43.1659830" lon="-5.8264510">
        <ele>298.8</ele>
        <time>2021-10-10T10:11:22Z</time>
      </trkpt>
      <trkpt lat="43.1658220" lon="-5.8265260">
        <ele>299.4</ele>
        <time>2021-10-10T10:11:27Z</time>
      </trkpt>
      <trkpt lat="43.1657540" lon="-5.8265630">
        <ele>299.6</ele>
        <time>2021-10-10T10:11:29Z</time>
      </trkpt>
      <trkpt lat="43.1656530" lon="-5.8266350">
        <ele>300.0</ele>
        <time>2021-10-10T10:11:32Z</time>
      </trkpt>
      <trkpt lat="43.1654880" lon="-5.8267530">
        <ele>300.2</ele>
        <time>2021-10-10T10:11:37Z</time>
      </trkpt>
      <trkpt lat="43.1652940" lon="-5.8269070">
        <ele>300.6</ele>
        <time>2021-10-10T10:11:43Z</time>
      </trkpt>
      <trkpt lat="43.1652310" lon="-5.8269590">
        <ele>300.8</ele>
        <time>2021-10-10T10:11:45Z</time>
      </trkpt>
      <trkpt lat="43.1651990" lon="-5.8269860">
        <ele>300.8</ele>
        <time>2021-10-10T10:11:46Z</time>
      </trkpt>
      <trkpt lat="43.1651070" lon="-5.8270770">
        <ele>301.0</ele>
        <time>2021-10-10T10:11:49Z</time>
      </trkpt>
      <trkpt lat="43.1649960" lon="-5.8271730">
        <ele>301.4</ele>
        <time>2021-10-10T10:11:53Z</time>
      </trkpt>
      <trkpt lat="43.1648370" lon="-5.8273380">
        <ele>301.8</ele>
        <time>2021-10-10T10:11:59Z</time>
      </trkpt>
      <trkpt lat="43.1647400" lon="-5.8273760">
        <ele>301.8</ele>
        <time>2021-10-10T10:12:03Z</time>
      </trkpt>
      <trkpt lat="43.1646400" lon="-5.8274940">
        <ele>301.6</ele>
        <time>2021-10-10T10:12:07Z</time>
      </trkpt>
      <trkpt lat="43.1645530" lon="-5.8276370">
        <ele>301.4</ele>
        <time>2021-10-10T10:12:10Z</time>
      </trkpt>
      <trkpt lat="43.1644510" lon="-5.8277990">
        <ele>301.2</ele>
        <time>2021-10-10T10:12:13Z</time>
      </trkpt>
      <trkpt lat="43.1643530" lon="-5.8279620">
        <ele>300.6</ele>
        <time>2021-10-10T10:12:16Z</time>
      </trkpt>
      <trkpt lat="43.1643020" lon="-5.8280850">
        <ele>300.2</ele>
        <time>2021-10-10T10:12:18Z</time>
      </trkpt>
      <trkpt lat="43.1642910" lon="-5.8281580">
        <ele>300.2</ele>
        <time>2021-10-10T10:12:19Z</time>
      </trkpt>
      <trkpt lat="43.1642920" lon="-5.8282300">
        <ele>299.8</ele>
        <time>2021-10-10T10:12:20Z</time>
      </trkpt>
      <trkpt lat="43.1642880" lon="-5.8283700">
        <ele>299.4</ele>
        <time>2021-10-10T10:12:22Z</time>
      </trkpt>
      <trkpt lat="43.1642680" lon="-5.8284330">
        <ele>299.2</ele>
        <time>2021-10-10T10:12:23Z</time>
      </trkpt>
      <trkpt lat="43.1642400" lon="-5.8284810">
        <ele>299.0</ele>
        <time>2021-10-10T10:12:24Z</time>
      </trkpt>
      <trkpt lat="43.1641600" lon="-5.8285410">
        <ele>298.8</ele>
        <time>2021-10-10T10:12:26Z</time>
      </trkpt>
      <trkpt lat="43.1641110" lon="-5.8285650">
        <ele>298.6</ele>
        <time>2021-10-10T10:12:27Z</time>
      </trkpt>
      <trkpt lat="43.1640220" lon="-5.8286060">
        <ele>298.4</ele>
        <time>2021-10-10T10:12:29Z</time>
      </trkpt>
      <trkpt lat="43.1639520" lon="-5.8286900">
        <ele>298.4</ele>
        <time>2021-10-10T10:12:31Z</time>
      </trkpt>
      <trkpt lat="43.1638810" lon="-5.8289110">
        <ele>298.2</ele>
        <time>2021-10-10T10:12:35Z</time>
      </trkpt>
      <trkpt lat="43.1638510" lon="-5.8290700">
        <ele>298.4</ele>
        <time>2021-10-10T10:12:38Z</time>
      </trkpt>
      <trkpt lat="43.1638470" lon="-5.8291630">
        <ele>298.6</ele>
        <time>2021-10-10T10:12:40Z</time>
      </trkpt>
      <trkpt lat="43.1638460" lon="-5.8292030">
        <ele>298.6</ele>
        <time>2021-10-10T10:12:41Z</time>
      </trkpt>
      <trkpt lat="43.1638190" lon="-5.8293340">
        <ele>298.8</ele>
        <time>2021-10-10T10:12:44Z</time>
      </trkpt>
      <trkpt lat="43.1637890" lon="-5.8294240">
        <ele>299.0</ele>
        <time>2021-10-10T10:12:47Z</time>
      </trkpt>
      <trkpt lat="43.1637410" lon="-5.8294710">
        <ele>299.2</ele>
        <time>2021-10-10T10:12:50Z</time>
      </trkpt>
      <trkpt lat="43.1636800" lon="-5.8294780">
        <ele>299.4</ele>
        <time>2021-10-10T10:12:52Z</time>
      </trkpt>
      <trkpt lat="43.1636100" lon="-5.8294830">
        <ele>299.4</ele>
        <time>2021-10-10T10:12:54Z</time>
      </trkpt>
      <trkpt lat="43.1635330" lon="-5.8294880">
        <ele>299.8</ele>
        <time>2021-10-10T10:12:56Z</time>
      </trkpt>
      <trkpt lat="43.1634070" lon="-5.8295050">
        <ele>300.0</ele>
        <time>2021-10-10T10:12:59Z</time>
      </trkpt>
      <trkpt lat="43.1633130" lon="-5.8295050">
        <ele>300.0</ele>
        <time>2021-10-10T10:13:01Z</time>
      </trkpt>
      <trkpt lat="43.1632390" lon="-5.8295050">
        <ele>300.0</ele>
        <time>2021-10-10T10:13:03Z</time>
      </trkpt>
      <trkpt lat="43.1631010" lon="-5.8294940">
        <ele>300.2</ele>
        <time>2021-10-10T10:13:07Z</time>
      </trkpt>
      <trkpt lat="43.1629860" lon="-5.8294550">
        <ele>300.4</ele>
        <time>2021-10-10T10:13:10Z</time>
      </trkpt>
      <trkpt lat="43.1628270" lon="-5.8294360">
        <ele>300.6</ele>
        <time>2021-10-10T10:13:14Z</time>
      </trkpt>
      <trkpt lat="43.1626820" lon="-5.8294230">
        <ele>300.8</ele>
        <time>2021-10-10T10:13:17Z</time>
      </trkpt>
      <trkpt lat="43.1625790" lon="-5.8294230">
        <ele>301.2</ele>
        <time>2021-10-10T10:13:20Z</time>
      </trkpt>
      <trkpt lat="43.1624900" lon="-5.8294450">
        <ele>301.6</ele>
        <time>2021-10-10T10:13:23Z</time>
      </trkpt>
      <trkpt lat="43.1624620" lon="-5.8294480">
        <ele>301.8</ele>
        <time>2021-10-10T10:13:24Z</time>
      </trkpt>
      <trkpt lat="43.1623800" lon="-5.8294530">
        <ele>302.4</ele>
        <time>2021-10-10T10:13:27Z</time>
      </trkpt>
      <trkpt lat="43.1622940" lon="-5.8294560">
        <ele>302.6</ele>
        <time>2021-10-10T10:13:30Z</time>
      </trkpt>
      <trkpt lat="43.1622040" lon="-5.8294590">
        <ele>303.4</ele>
        <time>2021-10-10T10:13:33Z</time>
      </trkpt>
      <trkpt lat="43.1621300" lon="-5.8294810">
        <ele>303.6</ele>
        <time>2021-10-10T10:13:36Z</time>
      </trkpt>
      <trkpt lat="43.1620580" lon="-5.8294870">
        <ele>304.2</ele>
        <time>2021-10-10T10:13:39Z</time>
      </trkpt>
      <trkpt lat="43.1620230" lon="-5.8294800">
        <ele>304.4</ele>
        <time>2021-10-10T10:13:41Z</time>
      </trkpt>
      <trkpt lat="43.1620020" lon="-5.8294790">
        <ele>304.6</ele>
        <time>2021-10-10T10:13:42Z</time>
      </trkpt>
      <trkpt lat="43.1619530" lon="-5.8294800">
        <ele>304.8</ele>
        <time>2021-10-10T10:13:44Z</time>
      </trkpt>
      <trkpt lat="43.1618090" lon="-5.8294780">
        <ele>305.4</ele>
        <time>2021-10-10T10:13:49Z</time>
      </trkpt>
      <trkpt lat="43.1617540" lon="-5.8294790">
        <ele>305.6</ele>
        <time>2021-10-10T10:13:51Z</time>
      </trkpt>
      <trkpt lat="43.1617280" lon="-5.8294800">
        <ele>305.6</ele>
        <time>2021-10-10T10:13:52Z</time>
      </trkpt>
      <trkpt lat="43.1616740" lon="-5.8294840">
        <ele>305.8</ele>
        <time>2021-10-10T10:13:54Z</time>
      </trkpt>
      <trkpt lat="43.1615960" lon="-5.8294850">
        <ele>306.4</ele>
        <time>2021-10-10T10:13:57Z</time>
      </trkpt>
      <trkpt lat="43.1615330" lon="-5.8294840">
        <ele>306.6</ele>
        <time>2021-10-10T10:13:59Z</time>
      </trkpt>
      <trkpt lat="43.1614520" lon="-5.8294860">
        <ele>307.0</ele>
        <time>2021-10-10T10:14:02Z</time>
      </trkpt>
      <trkpt lat="43.1613950" lon="-5.8294820">
        <ele>307.2</ele>
        <time>2021-10-10T10:14:04Z</time>
      </trkpt>
      <trkpt lat="43.1613400" lon="-5.8294750">
        <ele>307.4</ele>
        <time>2021-10-10T10:14:06Z</time>
      </trkpt>
      <trkpt lat="43.1613130" lon="-5.8294750">
        <ele>307.4</ele>
        <time>2021-10-10T10:14:07Z</time>
      </trkpt>
      <trkpt lat="43.1612850" lon="-5.8294760">
        <ele>307.6</ele>
        <time>2021-10-10T10:14:08Z</time>
      </trkpt>
      <trkpt lat="43.1612570" lon="-5.8294700">
        <ele>307.8</ele>
        <time>2021-10-10T10:14:09Z</time>
      </trkpt>
      <trkpt lat="43.1611250" lon="-5.8294590">
        <ele>308.0</ele>
        <time>2021-10-10T10:14:13Z</time>
      </trkpt>
      <trkpt lat="43.1610900" lon="-5.8294680">
        <ele>308.0</ele>
        <time>2021-10-10T10:14:14Z</time>
      </trkpt>
      <trkpt lat="43.1610550" lon="-5.8294710">
        <ele>308.2</ele>
        <time>2021-10-10T10:14:15Z</time>
      </trkpt>
      <trkpt lat="43.1610180" lon="-5.8294710">
        <ele>308.2</ele>
        <time>2021-10-10T10:14:16Z</time>
      </trkpt>
      <trkpt lat="43.1609780" lon="-5.8294770">
        <ele>308.2</ele>
        <time>2021-10-10T10:14:17Z</time>
      </trkpt>
      <trkpt lat="43.1609390" lon="-5.8294820">
        <ele>308.2</ele>
        <time>2021-10-10T10:14:18Z</time>
      </trkpt>
      <trkpt lat="43.1608680" lon="-5.8294860">
        <ele>308.2</ele>
        <time>2021-10-10T10:14:20Z</time>
      </trkpt>
      <trkpt lat="43.1607940" lon="-5.8294960">
        <ele>308.4</ele>
        <time>2021-10-10T10:14:22Z</time>
      </trkpt>
      <trkpt lat="43.1605360" lon="-5.8295920">
        <ele>308.4</ele>
        <time>2021-10-10T10:14:28Z</time>
      </trkpt>
      <trkpt lat="43.1604450" lon="-5.8295830">
        <ele>308.2</ele>
        <time>2021-10-10T10:14:31Z</time>
      </trkpt>
      <trkpt lat="43.1604030" lon="-5.8295430">
        <ele>308.2</ele>
        <time>2021-10-10T10:14:33Z</time>
      </trkpt>
      <trkpt lat="43.1603810" lon="-5.8294760">
        <ele>308.2</ele>
        <time>2021-10-10T10:14:35Z</time>
      </trkpt>
      <trkpt lat="43.1603620" lon="-5.8294460">
        <ele>308.2</ele>
        <time>2021-10-10T10:14:37Z</time>
      </trkpt>
      <trkpt lat="43.1603560" lon="-5.8294320">
        <ele>308.2</ele>
        <time>2021-10-10T10:14:38Z</time>
      </trkpt>
      <trkpt lat="43.1603530" lon="-5.8294290">
        <ele>308.2</ele>
        <time>2021-10-10T10:14:40Z</time>
      </trkpt>
      <trkpt lat="43.1604360" lon="-5.8292560">
        <ele>308.2</ele>
        <time>2021-10-10T10:23:28Z</time>
      </trkpt>
      <trkpt lat="43.1604470" lon="-5.8292150">
        <ele>308.2</ele>
        <time>2021-10-10T10:23:29Z</time>
      </trkpt>
      <trkpt lat="43.1604800" lon="-5.8290690">
        <ele>308.2</ele>
        <time>2021-10-10T10:23:32Z</time>
      </trkpt>
      <trkpt lat="43.1604950" lon="-5.8290200">
        <ele>308.2</ele>
        <time>2021-10-10T10:23:33Z</time>
      </trkpt>
      <trkpt lat="43.1605850" lon="-5.8288390">
        <ele>308.0</ele>
        <time>2021-10-10T10:23:36Z</time>
      </trkpt>
      <trkpt lat="43.1606330" lon="-5.8287740">
        <ele>307.8</ele>
        <time>2021-10-10T10:23:37Z</time>
      </trkpt>
      <trkpt lat="43.1606840" lon="-5.8285700">
        <ele>307.2</ele>
        <time>2021-10-10T10:23:40Z</time>
      </trkpt>
      <trkpt lat="43.1606960" lon="-5.8284370">
        <ele>307.0</ele>
        <time>2021-10-10T10:23:42Z</time>
      </trkpt>
      <trkpt lat="43.1606800" lon="-5.8282800">
        <ele>306.6</ele>
        <time>2021-10-10T10:23:44Z</time>
      </trkpt>
      <trkpt lat="43.1606560" lon="-5.8281540">
        <ele>306.2</ele>
        <time>2021-10-10T10:23:46Z</time>
      </trkpt>
      <trkpt lat="43.1606530" lon="-5.8280950">
        <ele>306.0</ele>
        <time>2021-10-10T10:23:47Z</time>
      </trkpt>
      <trkpt lat="43.1606030" lon="-5.8278960">
        <ele>305.6</ele>
        <time>2021-10-10T10:23:51Z</time>
      </trkpt>
      <trkpt lat="43.1605310" lon="-5.8278330">
        <ele>305.4</ele>
        <time>2021-10-10T10:23:54Z</time>
      </trkpt>
      <trkpt lat="43.1604650" lon="-5.8278540">
        <ele>305.2</ele>
        <time>2021-10-10T10:23:55Z</time>
      </trkpt>
      <trkpt lat="43.1604000" lon="-5.8278770">
        <ele>305.2</ele>
        <time>2021-10-10T10:23:56Z</time>
      </trkpt>
      <trkpt lat="43.1602130" lon="-5.8279280">
        <ele>304.8</ele>
        <time>2021-10-10T10:24:00Z</time>
      </trkpt>
      <trkpt lat="43.1601140" lon="-5.8278990">
        <ele>304.6</ele>
        <time>2021-10-10T10:24:02Z</time>
      </trkpt>
      <trkpt lat="43.1600430" lon="-5.8278680">
        <ele>304.4</ele>
        <time>2021-10-10T10:24:04Z</time>
      </trkpt>
      <trkpt lat="43.1600430" lon="-5.8279270">
        <ele>304.4</ele>
        <time>2021-10-10T10:24:06Z</time>
      </trkpt>
      <trkpt lat="43.1599060" lon="-5.8280940">
        <ele>304.2</ele>
        <time>2021-10-10T10:24:11Z</time>
      </trkpt>
      <trkpt lat="43.1598140" lon="-5.8281500">
        <ele>304.2</ele>
        <time>2021-10-10T10:24:15Z</time>
      </trkpt>
      <trkpt lat="43.1597300" lon="-5.8282340">
        <ele>304.2</ele>
        <time>2021-10-10T10:24:20Z</time>
      </trkpt>
      <trkpt lat="43.1597130" lon="-5.8282390">
        <ele>304.2</ele>
        <time>2021-10-10T10:24:21Z</time>
      </trkpt>
      <trkpt lat="43.1596460" lon="-5.8282260">
        <ele>304.4</ele>
        <time>2021-10-10T10:24:24Z</time>
      </trkpt>
      <trkpt lat="43.1595580" lon="-5.8282010">
        <ele>304.4</ele>
        <time>2021-10-10T10:24:28Z</time>
      </trkpt>
      <trkpt lat="43.1595050" lon="-5.8282130">
        <ele>304.4</ele>
        <time>2021-10-10T10:24:30Z</time>
      </trkpt>
      <trkpt lat="43.1594840" lon="-5.8282090">
        <ele>304.4</ele>
        <time>2021-10-10T10:24:31Z</time>
      </trkpt>
      <trkpt lat="43.1594710" lon="-5.8281980">
        <ele>304.4</ele>
        <time>2021-10-10T10:24:34Z</time>
      </trkpt>
      <trkpt lat="43.1594750" lon="-5.8281620">
        <ele>304.2</ele>
        <time>2021-10-10T10:24:37Z</time>
      </trkpt>
      <trkpt lat="43.1594880" lon="-5.8281170">
        <ele>304.2</ele>
        <time>2021-10-10T10:24:40Z</time>
      </trkpt>
      <trkpt lat="43.1594860" lon="-5.8280920">
        <ele>304.4</ele>
        <time>2021-10-10T10:24:41Z</time>
      </trkpt>
      <trkpt lat="43.1594510" lon="-5.8280210">
        <ele>304.6</ele>
        <time>2021-10-10T10:24:44Z</time>
      </trkpt>
      <trkpt lat="43.1594670" lon="-5.8279470">
        <ele>304.4</ele>
        <time>2021-10-10T10:24:46Z</time>
      </trkpt>
      <trkpt lat="43.1595000" lon="-5.8277970">
        <ele>304.4</ele>
        <time>2021-10-10T10:24:49Z</time>
      </trkpt>
      <trkpt lat="43.1595970" lon="-5.8277280">
        <ele>304.0</ele>
        <time>2021-10-10T10:24:53Z</time>
      </trkpt>
      <trkpt lat="43.1596880" lon="-5.8276640">
        <ele>303.8</ele>
        <time>2021-10-10T10:24:57Z</time>
      </trkpt>
      <trkpt lat="43.1597230" lon="-5.8276220">
        <ele>303.6</ele>
        <time>2021-10-10T10:24:59Z</time>
      </trkpt>
      <trkpt lat="43.1597570" lon="-5.8275990">
        <ele>303.6</ele>
        <time>2021-10-10T10:25:01Z</time>
      </trkpt>
      <trkpt lat="43.1597900" lon="-5.8276220">
        <ele>303.6</ele>
        <time>2021-10-10T10:25:03Z</time>
      </trkpt>
      <trkpt lat="43.1598050" lon="-5.8276100">
        <ele>303.4</ele>
        <time>2021-10-10T10:25:04Z</time>
      </trkpt>
      <trkpt lat="43.1598150" lon="-5.8275700">
        <ele>303.4</ele>
        <time>2021-10-10T10:25:05Z</time>
      </trkpt>
      <trkpt lat="43.1598010" lon="-5.8274960">
        <ele>303.0</ele>
        <time>2021-10-10T10:25:10Z</time>
      </trkpt>
      <trkpt lat="43.1598610" lon="-5.8273470">
        <ele>302.4</ele>
        <time>2021-10-10T10:25:19Z</time>
      </trkpt>
      <trkpt lat="43.1599090" lon="-5.8273260">
        <ele>302.4</ele>
        <time>2021-10-10T10:25:21Z</time>
      </trkpt>
      <trkpt lat="43.1600860" lon="-5.8272670">
        <ele>302.6</ele>
        <time>2021-10-10T10:25:28Z</time>
      </trkpt>
      <trkpt lat="43.1601380" lon="-5.8272680">
        <ele>302.8</ele>
        <time>2021-10-10T10:25:30Z</time>
      </trkpt>
      <trkpt lat="43.1602120" lon="-5.8272580">
        <ele>302.8</ele>
        <time>2021-10-10T10:25:33Z</time>
      </trkpt>
      <trkpt lat="43.1602760" lon="-5.8272370">
        <ele>302.8</ele>
        <time>2021-10-10T10:25:36Z</time>
      </trkpt>
      <trkpt lat="43.1602880" lon="-5.8272170">
        <ele>302.8</ele>
        <time>2021-10-10T10:25:37Z</time>
      </trkpt>
      <trkpt lat="43.1602810" lon="-5.8271980">
        <ele>302.8</ele>
        <time>2021-10-10T10:25:38Z</time>
      </trkpt>
      <trkpt lat="43.1602230" lon="-5.8271930">
        <ele>303.0</ele>
        <time>2021-10-10T10:25:42Z</time>
      </trkpt>
      <trkpt lat="43.1602190" lon="-5.8271940">
        <ele>303.0</ele>
        <time>2021-10-10T10:25:44Z</time>
      </trkpt>
      <trkpt lat="43.1601550" lon="-5.8271180">
        <ele>303.6</ele>
        <time>2021-10-10T10:25:53Z</time>
      </trkpt>
      <trkpt lat="43.1601490" lon="-5.8271220">
        <ele>303.6</ele>
        <time>2021-10-10T10:25:54Z</time>
      </trkpt>
      <trkpt lat="43.1601490" lon="-5.8271240">
        <ele>303.8</ele>
        <time>2021-10-10T10:25:57Z</time>
      </trkpt>
      <trkpt lat="43.1600990" lon="-5.8271340">
        <ele>304.0</ele>
        <time>2021-10-10T10:26:07Z</time>
      </trkpt>
      <trkpt lat="43.1600550" lon="-5.8271310">
        <ele>304.0</ele>
        <time>2021-10-10T10:26:09Z</time>
      </trkpt>
      <trkpt lat="43.1599880" lon="-5.8271250">
        <ele>303.6</ele>
        <time>2021-10-10T10:26:12Z</time>
      </trkpt>
      <trkpt lat="43.1599670" lon="-5.8271220">
        <ele>303.6</ele>
        <time>2021-10-10T10:26:13Z</time>
      </trkpt>
      <trkpt lat="43.1598330" lon="-5.8270680">
        <ele>303.8</ele>
        <time>2021-10-10T10:26:20Z</time>
      </trkpt>
      <trkpt lat="43.1597410" lon="-5.8270220">
        <ele>304.0</ele>
        <time>2021-10-10T10:26:25Z</time>
      </trkpt>
      <trkpt lat="43.1597160" lon="-5.8270310">
        <ele>304.2</ele>
        <time>2021-10-10T10:26:27Z</time>
      </trkpt>
      <trkpt lat="43.1596890" lon="-5.8270920">
        <ele>305.0</ele>
        <time>2021-10-10T10:26:30Z</time>
      </trkpt>
      <trkpt lat="43.1596960" lon="-5.8271420">
        <ele>305.2</ele>
        <time>2021-10-10T10:26:32Z</time>
      </trkpt>
      <trkpt lat="43.1597220" lon="-5.8271760">
        <ele>305.6</ele>
        <time>2021-10-10T10:26:34Z</time>
      </trkpt>
      <trkpt lat="43.1597560" lon="-5.8271920">
        <ele>306.0</ele>
        <time>2021-10-10T10:26:36Z</time>
      </trkpt>
      <trkpt lat="43.1597740" lon="-5.8271900">
        <ele>306.2</ele>
        <time>2021-10-10T10:26:37Z</time>
      </trkpt>
      <trkpt lat="43.1597920" lon="-5.8271800">
        <ele>306.4</ele>
        <time>2021-10-10T10:26:38Z</time>
      </trkpt>
      <trkpt lat="43.1598070" lon="-5.8271630">
        <ele>306.8</ele>
        <time>2021-10-10T10:26:39Z</time>
      </trkpt>
      <trkpt lat="43.1598170" lon="-5.8271410">
        <ele>307.0</ele>
        <time>2021-10-10T10:26:40Z</time>
      </trkpt>
      <trkpt lat="43.1598170" lon="-5.8270930">
        <ele>307.4</ele>
        <time>2021-10-10T10:26:42Z</time>
      </trkpt>
      <trkpt lat="43.1598110" lon="-5.8270130">
        <ele>308.0</ele>
        <time>2021-10-10T10:26:45Z</time>
      </trkpt>
      <trkpt lat="43.1598040" lon="-5.8268690">
        <ele>309.0</ele>
        <time>2021-10-10T10:26:50Z</time>
      </trkpt>
      <trkpt lat="43.1597920" lon="-5.8267320">
        <ele>309.4</ele>
        <time>2021-10-10T10:26:54Z</time>
      </trkpt>
      <trkpt lat="43.1597900" lon="-5.8266610">
        <ele>309.6</ele>
        <time>2021-10-10T10:26:56Z</time>
      </trkpt>
      <trkpt lat="43.1597890" lon="-5.8266220">
        <ele>309.6</ele>
        <time>2021-10-10T10:26:57Z</time>
      </trkpt>
      <trkpt lat="43.1597900" lon="-5.8265730">
        <ele>309.4</ele>
        <time>2021-10-10T10:26:58Z</time>
      </trkpt>
      <trkpt lat="43.1597880" lon="-5.8265390">
        <ele>309.4</ele>
        <time>2021-10-10T10:26:59Z</time>
      </trkpt>
      <trkpt lat="43.1597840" lon="-5.8264980">
        <ele>309.4</ele>
        <time>2021-10-10T10:27:00Z</time>
      </trkpt>
      <trkpt lat="43.1597930" lon="-5.8263810">
        <ele>309.2</ele>
        <time>2021-10-10T10:27:03Z</time>
      </trkpt>
      <trkpt lat="43.1598540" lon="-5.8263400">
        <ele>308.6</ele>
        <time>2021-10-10T10:27:05Z</time>
      </trkpt>
      <trkpt lat="43.1599300" lon="-5.8263190">
        <ele>308.0</ele>
        <time>2021-10-10T10:27:07Z</time>
      </trkpt>
      <trkpt lat="43.1600040" lon="-5.8262940">
        <ele>307.6</ele>
        <time>2021-10-10T10:27:09Z</time>
      </trkpt>
      <trkpt lat="43.1600540" lon="-5.8262760">
        <ele>307.0</ele>
        <time>2021-10-10T10:27:10Z</time>
      </trkpt>
      <trkpt lat="43.1601760" lon="-5.8262380">
        <ele>306.0</ele>
        <time>2021-10-10T10:27:13Z</time>
      </trkpt>
      <trkpt lat="43.1602260" lon="-5.8262230">
        <ele>305.4</ele>
        <time>2021-10-10T10:27:14Z</time>
      </trkpt>
      <trkpt lat="43.1602820" lon="-5.8261860">
        <ele>304.6</ele>
        <time>2021-10-10T10:27:16Z</time>
      </trkpt>
      <trkpt lat="43.1602910" lon="-5.8261600">
        <ele>303.8</ele>
        <time>2021-10-10T10:27:17Z</time>
      </trkpt>
      <trkpt lat="43.1602810" lon="-5.8261370">
        <ele>303.4</ele>
        <time>2021-10-10T10:27:18Z</time>
      </trkpt>
      <trkpt lat="43.1602370" lon="-5.8261160">
        <ele>302.6</ele>
        <time>2021-10-10T10:27:20Z</time>
      </trkpt>
      <trkpt lat="43.1602240" lon="-5.8261150">
        <ele>302.2</ele>
        <time>2021-10-10T10:27:21Z</time>
      </trkpt>
      <trkpt lat="43.1602040" lon="-5.8261170">
        <ele>302.0</ele>
        <time>2021-10-10T10:27:25Z</time>
      </trkpt>
      <trkpt lat="43.1601390" lon="-5.8261550">
        <ele>302.0</ele>
        <time>2021-10-10T10:27:38Z</time>
      </trkpt>
      <trkpt lat="43.1600810" lon="-5.8261730">
        <ele>302.0</ele>
        <time>2021-10-10T10:27:40Z</time>
      </trkpt>
      <trkpt lat="43.1600080" lon="-5.8262060">
        <ele>302.0</ele>
        <time>2021-10-10T10:27:43Z</time>
      </trkpt>
      <trkpt lat="43.1599300" lon="-5.8262480">
        <ele>302.0</ele>
        <time>2021-10-10T10:27:46Z</time>
      </trkpt>
      <trkpt lat="43.1597070" lon="-5.8263210">
        <ele>302.4</ele>
        <time>2021-10-10T10:27:54Z</time>
      </trkpt>
      <trkpt lat="43.1596120" lon="-5.8263440">
        <ele>302.6</ele>
        <time>2021-10-10T10:27:57Z</time>
      </trkpt>
      <trkpt lat="43.1595150" lon="-5.8263790">
        <ele>302.8</ele>
        <time>2021-10-10T10:28:00Z</time>
      </trkpt>
      <trkpt lat="43.1593800" lon="-5.8264140">
        <ele>303.0</ele>
        <time>2021-10-10T10:28:04Z</time>
      </trkpt>
      <trkpt lat="43.1592330" lon="-5.8264530">
        <ele>303.2</ele>
        <time>2021-10-10T10:28:08Z</time>
      </trkpt>
      <trkpt lat="43.1591370" lon="-5.8264500">
        <ele>303.4</ele>
        <time>2021-10-10T10:28:11Z</time>
      </trkpt>
      <trkpt lat="43.1590150" lon="-5.8264300">
        <ele>303.4</ele>
        <time>2021-10-10T10:28:15Z</time>
      </trkpt>
      <trkpt lat="43.1588660" lon="-5.8264130">
        <ele>303.8</ele>
        <time>2021-10-10T10:28:19Z</time>
      </trkpt>
      <trkpt lat="43.1587300" lon="-5.8263940">
        <ele>304.0</ele>
        <time>2021-10-10T10:28:23Z</time>
      </trkpt>
      <trkpt lat="43.1586300" lon="-5.8263870">
        <ele>304.4</ele>
        <time>2021-10-10T10:28:26Z</time>
      </trkpt>
      <trkpt lat="43.1584430" lon="-5.8263790">
        <ele>304.8</ele>
        <time>2021-10-10T10:28:31Z</time>
      </trkpt>
      <trkpt lat="43.1583510" lon="-5.8263810">
        <ele>305.0</ele>
        <time>2021-10-10T10:28:34Z</time>
      </trkpt>
      <trkpt lat="43.1582270" lon="-5.8263660">
        <ele>305.4</ele>
        <time>2021-10-10T10:28:38Z</time>
      </trkpt>
      <trkpt lat="43.1581900" lon="-5.8263590">
        <ele>305.4</ele>
        <time>2021-10-10T10:28:39Z</time>
      </trkpt>
      <trkpt lat="43.1580570" lon="-5.8263340">
        <ele>305.8</ele>
        <time>2021-10-10T10:28:43Z</time>
      </trkpt>
      <trkpt lat="43.1579490" lon="-5.8263200">
        <ele>306.2</ele>
        <time>2021-10-10T10:28:46Z</time>
      </trkpt>
      <trkpt lat="43.1578930" lon="-5.8263070">
        <ele>306.4</ele>
        <time>2021-10-10T10:28:48Z</time>
      </trkpt>
      <trkpt lat="43.1578610" lon="-5.8263000">
        <ele>306.4</ele>
        <time>2021-10-10T10:28:49Z</time>
      </trkpt>
      <trkpt lat="43.1576240" lon="-5.8262660">
        <ele>306.6</ele>
        <time>2021-10-10T10:28:56Z</time>
      </trkpt>
      <trkpt lat="43.1574900" lon="-5.8262660">
        <ele>307.0</ele>
        <time>2021-10-10T10:29:00Z</time>
      </trkpt>
      <trkpt lat="43.1574240" lon="-5.8262640">
        <ele>307.0</ele>
        <time>2021-10-10T10:29:02Z</time>
      </trkpt>
      <trkpt lat="43.1573500" lon="-5.8262600">
        <ele>307.2</ele>
        <time>2021-10-10T10:29:04Z</time>
      </trkpt>
      <trkpt lat="43.1572410" lon="-5.8262520">
        <ele>307.2</ele>
        <time>2021-10-10T10:29:07Z</time>
      </trkpt>
      <trkpt lat="43.1571400" lon="-5.8262500">
        <ele>307.4</ele>
        <time>2021-10-10T10:29:10Z</time>
      </trkpt>
      <trkpt lat="43.1571120" lon="-5.8262480">
        <ele>307.4</ele>
        <time>2021-10-10T10:29:11Z</time>
      </trkpt>
      <trkpt lat="43.1569730" lon="-5.8262250">
        <ele>307.8</ele>
        <time>2021-10-10T10:29:15Z</time>
      </trkpt>
      <trkpt lat="43.1569490" lon="-5.8262260">
        <ele>308.0</ele>
        <time>2021-10-10T10:29:16Z</time>
      </trkpt>
      <trkpt lat="43.1569190" lon="-5.8262290">
        <ele>308.0</ele>
        <time>2021-10-10T10:29:17Z</time>
      </trkpt>
      <trkpt lat="43.1568030" lon="-5.8262260">
        <ele>308.4</ele>
        <time>2021-10-10T10:29:21Z</time>
      </trkpt>
      <trkpt lat="43.1567380" lon="-5.8262200">
        <ele>308.6</ele>
        <time>2021-10-10T10:29:23Z</time>
      </trkpt>
      <trkpt lat="43.1566700" lon="-5.8262240">
        <ele>308.8</ele>
        <time>2021-10-10T10:29:25Z</time>
      </trkpt>
      <trkpt lat="43.1566390" lon="-5.8262210">
        <ele>308.8</ele>
        <time>2021-10-10T10:29:26Z</time>
      </trkpt>
      <trkpt lat="43.1565620" lon="-5.8262040">
        <ele>309.2</ele>
        <time>2021-10-10T10:29:29Z</time>
      </trkpt>
      <trkpt lat="43.1563610" lon="-5.8261600">
        <ele>309.6</ele>
        <time>2021-10-10T10:29:36Z</time>
      </trkpt>
      <trkpt lat="43.1562840" lon="-5.8261520">
        <ele>309.6</ele>
        <time>2021-10-10T10:29:38Z</time>
      </trkpt>
      <trkpt lat="43.1561410" lon="-5.8261320">
        <ele>309.6</ele>
        <time>2021-10-10T10:29:42Z</time>
      </trkpt>
      <trkpt lat="43.1560650" lon="-5.8261080">
        <ele>309.6</ele>
        <time>2021-10-10T10:29:44Z</time>
      </trkpt>
      <trkpt lat="43.1557400" lon="-5.8260470">
        <ele>309.8</ele>
        <time>2021-10-10T10:29:52Z</time>
      </trkpt>
      <trkpt lat="43.1556640" lon="-5.8260140">
        <ele>309.8</ele>
        <time>2021-10-10T10:29:54Z</time>
      </trkpt>
      <trkpt lat="43.1555130" lon="-5.8259690">
        <ele>309.8</ele>
        <time>2021-10-10T10:29:57Z</time>
      </trkpt>
      <trkpt lat="43.1555130" lon="-5.8259690">
        <ele>309.8</ele>
        <time>2021-10-10T10:29:58Z</time>
      </trkpt>
      <trkpt lat="43.1553190" lon="-5.8258850">
        <ele>310.0</ele>
        <time>2021-10-10T10:30:03Z</time>
      </trkpt>
      <trkpt lat="43.1552480" lon="-5.8258410">
        <ele>310.0</ele>
        <time>2021-10-10T10:30:05Z</time>
      </trkpt>
      <trkpt lat="43.1551150" lon="-5.8257590">
        <ele>310.4</ele>
        <time>2021-10-10T10:30:09Z</time>
      </trkpt>
      <trkpt lat="43.1550590" lon="-5.8257180">
        <ele>310.8</ele>
        <time>2021-10-10T10:30:11Z</time>
      </trkpt>
      <trkpt lat="43.1550110" lon="-5.8256760">
        <ele>311.4</ele>
        <time>2021-10-10T10:30:13Z</time>
      </trkpt>
      <trkpt lat="43.1549870" lon="-5.8256580">
        <ele>311.8</ele>
        <time>2021-10-10T10:30:14Z</time>
      </trkpt>
      <trkpt lat="43.1549390" lon="-5.8256220">
        <ele>312.2</ele>
        <time>2021-10-10T10:30:16Z</time>
      </trkpt>
      <trkpt lat="43.1548540" lon="-5.8255440">
        <ele>312.8</ele>
        <time>2021-10-10T10:30:20Z</time>
      </trkpt>
      <trkpt lat="43.1548320" lon="-5.8255240">
        <ele>313.0</ele>
        <time>2021-10-10T10:30:21Z</time>
      </trkpt>
      <trkpt lat="43.1547540" lon="-5.8254400">
        <ele>314.2</ele>
        <time>2021-10-10T10:30:25Z</time>
      </trkpt>
      <trkpt lat="43.1546940" lon="-5.8253830">
        <ele>314.6</ele>
        <time>2021-10-10T10:30:28Z</time>
      </trkpt>
      <trkpt lat="43.1546310" lon="-5.8252800">
        <ele>315.2</ele>
        <time>2021-10-10T10:30:31Z</time>
      </trkpt>
      <trkpt lat="43.1545960" lon="-5.8252210">
        <ele>315.6</ele>
        <time>2021-10-10T10:30:34Z</time>
      </trkpt>
      <trkpt lat="43.1545800" lon="-5.8251950">
        <ele>315.8</ele>
        <time>2021-10-10T10:30:35Z</time>
      </trkpt>
      <trkpt lat="43.1545160" lon="-5.8250970">
        <ele>316.4</ele>
        <time>2021-10-10T10:30:38Z</time>
      </trkpt>
      <trkpt lat="43.1544750" lon="-5.8250050">
        <ele>316.8</ele>
        <time>2021-10-10T10:30:42Z</time>
      </trkpt>
      <trkpt lat="43.1544590" lon="-5.8249750">
        <ele>316.8</ele>
        <time>2021-10-10T10:30:43Z</time>
      </trkpt>
      <trkpt lat="43.1544270" lon="-5.8249250">
        <ele>317.2</ele>
        <time>2021-10-10T10:30:45Z</time>
      </trkpt>
      <trkpt lat="43.1543920" lon="-5.8248720">
        <ele>317.4</ele>
        <time>2021-10-10T10:30:47Z</time>
      </trkpt>
      <trkpt lat="43.1543610" lon="-5.8248170">
        <ele>317.6</ele>
        <time>2021-10-10T10:30:49Z</time>
      </trkpt>
      <trkpt lat="43.1543300" lon="-5.8247690">
        <ele>317.8</ele>
        <time>2021-10-10T10:30:50Z</time>
      </trkpt>
      <trkpt lat="43.1542520" lon="-5.8246410">
        <ele>318.6</ele>
        <time>2021-10-10T10:30:55Z</time>
      </trkpt>
      <trkpt lat="43.1542400" lon="-5.8246140">
        <ele>318.8</ele>
        <time>2021-10-10T10:30:57Z</time>
      </trkpt>
      <trkpt lat="43.1542110" lon="-5.8245560">
        <ele>319.0</ele>
        <time>2021-10-10T10:30:59Z</time>
      </trkpt>
      <trkpt lat="43.1541640" lon="-5.8244640">
        <ele>319.2</ele>
        <time>2021-10-10T10:31:01Z</time>
      </trkpt>
      <trkpt lat="43.1540950" lon="-5.8243720">
        <ele>319.2</ele>
        <time>2021-10-10T10:31:04Z</time>
      </trkpt>
      <trkpt lat="43.1540740" lon="-5.8243530">
        <ele>319.4</ele>
        <time>2021-10-10T10:31:06Z</time>
      </trkpt>
      <trkpt lat="43.1539380" lon="-5.8242350">
        <ele>319.2</ele>
        <time>2021-10-10T10:31:11Z</time>
      </trkpt>
      <trkpt lat="43.1538260" lon="-5.8241680">
        <ele>319.2</ele>
        <time>2021-10-10T10:31:13Z</time>
      </trkpt>
      <trkpt lat="43.1537780" lon="-5.8241410">
        <ele>319.0</ele>
        <time>2021-10-10T10:31:15Z</time>
      </trkpt>
      <trkpt lat="43.1536720" lon="-5.8240670">
        <ele>318.8</ele>
        <time>2021-10-10T10:31:16Z</time>
      </trkpt>
      <trkpt lat="43.1535090" lon="-5.8239240">
        <ele>318.4</ele>
        <time>2021-10-10T10:31:19Z</time>
      </trkpt>
      <trkpt lat="43.1533470" lon="-5.8237500">
        <ele>317.4</ele>
        <time>2021-10-10T10:31:22Z</time>
      </trkpt>
      <trkpt lat="43.1532940" lon="-5.8236890">
        <ele>316.8</ele>
        <time>2021-10-10T10:31:24Z</time>
      </trkpt>
      <trkpt lat="43.1532420" lon="-5.8236350">
        <ele>316.6</ele>
        <time>2021-10-10T10:31:25Z</time>
      </trkpt>
      <trkpt lat="43.1531290" lon="-5.8235300">
        <ele>316.0</ele>
        <time>2021-10-10T10:31:26Z</time>
      </trkpt>
      <trkpt lat="43.1530680" lon="-5.8234700">
        <ele>315.4</ele>
        <time>2021-10-10T10:31:27Z</time>
      </trkpt>
      <trkpt lat="43.1530070" lon="-5.8234110">
        <ele>314.6</ele>
        <time>2021-10-10T10:31:29Z</time>
      </trkpt>
      <trkpt lat="43.1529700" lon="-5.8233810">
        <ele>313.8</ele>
        <time>2021-10-10T10:31:31Z</time>
      </trkpt>
      <trkpt lat="43.1529330" lon="-5.8233700">
        <ele>313.6</ele>
        <time>2021-10-10T10:31:32Z</time>
      </trkpt>
      <trkpt lat="43.1528760" lon="-5.8234170">
        <ele>313.0</ele>
        <time>2021-10-10T10:31:33Z</time>
      </trkpt>
      <trkpt lat="43.1528590" lon="-5.8234520">
        <ele>312.8</ele>
        <time>2021-10-10T10:31:34Z</time>
      </trkpt>
      <trkpt lat="43.1528430" lon="-5.8234870">
        <ele>312.6</ele>
        <time>2021-10-10T10:31:36Z</time>
      </trkpt>
      <trkpt lat="43.1527760" lon="-5.8236330">
        <ele>312.4</ele>
        <time>2021-10-10T10:31:41Z</time>
      </trkpt>
      <trkpt lat="43.1527480" lon="-5.8236310">
        <ele>312.4</ele>
        <time>2021-10-10T10:31:42Z</time>
      </trkpt>
      <trkpt lat="43.1527190" lon="-5.8236290">
        <ele>312.0</ele>
        <time>2021-10-10T10:32:02Z</time>
      </trkpt>
      <trkpt lat="43.1526910" lon="-5.8236270">
        <ele>312.0</ele>
        <time>2021-10-10T10:32:03Z</time>
      </trkpt>
      <trkpt lat="43.1526620" lon="-5.8236250">
        <ele>312.0</ele>
        <time>2021-10-10T10:32:04Z</time>
      </trkpt>
      <trkpt lat="43.1526100" lon="-5.8235860">
        <ele>312.0</ele>
        <time>2021-10-10T10:32:06Z</time>
      </trkpt>
      <trkpt lat="43.1525830" lon="-5.8235620">
        <ele>312.2</ele>
        <time>2021-10-10T10:32:07Z</time>
      </trkpt>
      <trkpt lat="43.1525350" lon="-5.8235100">
        <ele>312.2</ele>
        <time>2021-10-10T10:32:09Z</time>
      </trkpt>
      <trkpt lat="43.1523890" lon="-5.8233570">
        <ele>312.2</ele>
        <time>2021-10-10T10:32:14Z</time>
      </trkpt>
      <trkpt lat="43.1522890" lon="-5.8232590">
        <ele>312.4</ele>
        <time>2021-10-10T10:32:17Z</time>
      </trkpt>
      <trkpt lat="43.1522580" lon="-5.8232230">
        <ele>312.6</ele>
        <time>2021-10-10T10:32:19Z</time>
      </trkpt>
      <trkpt lat="43.1521200" lon="-5.8230880">
        <ele>312.8</ele>
        <time>2021-10-10T10:32:22Z</time>
      </trkpt>
      <trkpt lat="43.1520830" lon="-5.8230570">
        <ele>312.8</ele>
        <time>2021-10-10T10:32:23Z</time>
      </trkpt>
      <trkpt lat="43.1520070" lon="-5.8229950">
        <ele>312.8</ele>
        <time>2021-10-10T10:32:25Z</time>
      </trkpt>
      <trkpt lat="43.1519340" lon="-5.8229360">
        <ele>313.0</ele>
        <time>2021-10-10T10:32:27Z</time>
      </trkpt>
      <trkpt lat="43.1517030" lon="-5.8227820">
        <ele>313.2</ele>
        <time>2021-10-10T10:32:34Z</time>
      </trkpt>
      <trkpt lat="43.1513580" lon="-5.8226390">
        <ele>313.6</ele>
        <time>2021-10-10T10:32:42Z</time>
      </trkpt>
      <trkpt lat="43.1512510" lon="-5.8226050">
        <ele>313.6</ele>
        <time>2021-10-10T10:32:45Z</time>
      </trkpt>
      <trkpt lat="43.1511820" lon="-5.8225770">
        <ele>313.8</ele>
        <time>2021-10-10T10:32:47Z</time>
      </trkpt>
      <trkpt lat="43.1510010" lon="-5.8224780">
        <ele>314.0</ele>
        <time>2021-10-10T10:32:52Z</time>
      </trkpt>
      <trkpt lat="43.1507130" lon="-5.8223400">
        <ele>314.2</ele>
        <time>2021-10-10T10:33:00Z</time>
      </trkpt>
      <trkpt lat="43.1506110" lon="-5.8222950">
        <ele>314.4</ele>
        <time>2021-10-10T10:33:03Z</time>
      </trkpt>
      <trkpt lat="43.1504750" lon="-5.8222290">
        <ele>314.8</ele>
        <time>2021-10-10T10:33:07Z</time>
      </trkpt>
      <trkpt lat="43.1502940" lon="-5.8221320">
        <ele>315.0</ele>
        <time>2021-10-10T10:33:12Z</time>
      </trkpt>
      <trkpt lat="43.1502590" lon="-5.8221130">
        <ele>315.2</ele>
        <time>2021-10-10T10:33:13Z</time>
      </trkpt>
      <trkpt lat="43.1501420" lon="-5.8220650">
        <ele>315.4</ele>
        <time>2021-10-10T10:33:16Z</time>
      </trkpt>
      <trkpt lat="43.1498250" lon="-5.8219140">
        <ele>315.6</ele>
        <time>2021-10-10T10:33:24Z</time>
      </trkpt>
      <trkpt lat="43.1497050" lon="-5.8218570">
        <ele>316.0</ele>
        <time>2021-10-10T10:33:28Z</time>
      </trkpt>
      <trkpt lat="43.1493830" lon="-5.8217240">
        <ele>316.2</ele>
        <time>2021-10-10T10:33:35Z</time>
      </trkpt>
      <trkpt lat="43.1493000" lon="-5.8216990">
        <ele>316.2</ele>
        <time>2021-10-10T10:33:37Z</time>
      </trkpt>
      <trkpt lat="43.1491330" lon="-5.8216870">
        <ele>316.6</ele>
        <time>2021-10-10T10:33:41Z</time>
      </trkpt>
      <trkpt lat="43.1490570" lon="-5.8216950">
        <ele>316.6</ele>
        <time>2021-10-10T10:33:43Z</time>
      </trkpt>
      <trkpt lat="43.1488340" lon="-5.8217430">
        <ele>317.0</ele>
        <time>2021-10-10T10:33:49Z</time>
      </trkpt>
      <trkpt lat="43.1487950" lon="-5.8217540">
        <ele>317.2</ele>
        <time>2021-10-10T10:33:50Z</time>
      </trkpt>
      <trkpt lat="43.1486760" lon="-5.8217890">
        <ele>317.4</ele>
        <time>2021-10-10T10:33:53Z</time>
      </trkpt>
      <trkpt lat="43.1485940" lon="-5.8218150">
        <ele>317.4</ele>
        <time>2021-10-10T10:33:55Z</time>
      </trkpt>
      <trkpt lat="43.1484810" lon="-5.8218490">
        <ele>317.6</ele>
        <time>2021-10-10T10:33:58Z</time>
      </trkpt>
      <trkpt lat="43.1483640" lon="-5.8218880">
        <ele>317.6</ele>
        <time>2021-10-10T10:34:01Z</time>
      </trkpt>
      <trkpt lat="43.1482190" lon="-5.8219330">
        <ele>317.8</ele>
        <time>2021-10-10T10:34:06Z</time>
      </trkpt>
      <trkpt lat="43.1481120" lon="-5.8219530">
        <ele>317.8</ele>
        <time>2021-10-10T10:34:08Z</time>
      </trkpt>
      <trkpt lat="43.1479040" lon="-5.8220090">
        <ele>317.8</ele>
        <time>2021-10-10T10:34:14Z</time>
      </trkpt>
      <trkpt lat="43.1478150" lon="-5.8221380">
        <ele>317.8</ele>
        <time>2021-10-10T10:34:18Z</time>
      </trkpt>
      <trkpt lat="43.1478040" lon="-5.8222520">
        <ele>318.2</ele>
        <time>2021-10-10T10:34:21Z</time>
      </trkpt>
      <trkpt lat="43.1477830" lon="-5.8223600">
        <ele>318.6</ele>
        <time>2021-10-10T10:34:24Z</time>
      </trkpt>
      <trkpt lat="43.1477690" lon="-5.8223890">
        <ele>318.8</ele>
        <time>2021-10-10T10:34:25Z</time>
      </trkpt>
      <trkpt lat="43.1477240" lon="-5.8224130">
        <ele>319.2</ele>
        <time>2021-10-10T10:34:27Z</time>
      </trkpt>
      <trkpt lat="43.1476960" lon="-5.8224140">
        <ele>319.4</ele>
        <time>2021-10-10T10:34:28Z</time>
      </trkpt>
      <trkpt lat="43.1475390" lon="-5.8224320">
        <ele>320.0</ele>
        <time>2021-10-10T10:34:33Z</time>
      </trkpt>
      <trkpt lat="43.1475390" lon="-5.8224320">
        <ele>320.0</ele>
        <time>2021-10-10T10:34:34Z</time>
      </trkpt>
      <trkpt lat="43.1473820" lon="-5.8225330">
        <ele>320.4</ele>
        <time>2021-10-10T10:34:39Z</time>
      </trkpt>
      <trkpt lat="43.1473270" lon="-5.8225920">
        <ele>320.4</ele>
        <time>2021-10-10T10:34:40Z</time>
      </trkpt>
      <trkpt lat="43.1472560" lon="-5.8226960">
        <ele>320.6</ele>
        <time>2021-10-10T10:34:43Z</time>
      </trkpt>
      <trkpt lat="43.1471670" lon="-5.8228500">
        <ele>321.0</ele>
        <time>2021-10-10T10:34:47Z</time>
      </trkpt>
      <trkpt lat="43.1470040" lon="-5.8230690">
        <ele>321.4</ele>
        <time>2021-10-10T10:34:53Z</time>
      </trkpt>
      <trkpt lat="43.1469710" lon="-5.8230970">
        <ele>321.6</ele>
        <time>2021-10-10T10:34:54Z</time>
      </trkpt>
      <trkpt lat="43.1467820" lon="-5.8231440">
        <ele>321.6</ele>
        <time>2021-10-10T10:34:59Z</time>
      </trkpt>
      <trkpt lat="43.1466600" lon="-5.8231560">
        <ele>321.6</ele>
        <time>2021-10-10T10:35:03Z</time>
      </trkpt>
      <trkpt lat="43.1464820" lon="-5.8231720">
        <ele>321.8</ele>
        <time>2021-10-10T10:35:06Z</time>
      </trkpt>
      <trkpt lat="43.1464360" lon="-5.8231790">
        <ele>321.8</ele>
        <time>2021-10-10T10:35:08Z</time>
      </trkpt>
      <trkpt lat="43.1463530" lon="-5.8232040">
        <ele>321.8</ele>
        <time>2021-10-10T10:35:09Z</time>
      </trkpt>
      <trkpt lat="43.1462730" lon="-5.8232310">
        <ele>321.8</ele>
        <time>2021-10-10T10:35:11Z</time>
      </trkpt>
      <trkpt lat="43.1462040" lon="-5.8232650">
        <ele>321.8</ele>
        <time>2021-10-10T10:35:13Z</time>
      </trkpt>
      <trkpt lat="43.1460750" lon="-5.8233680">
        <ele>322.0</ele>
        <time>2021-10-10T10:35:17Z</time>
      </trkpt>
      <trkpt lat="43.1458850" lon="-5.8235240">
        <ele>322.4</ele>
        <time>2021-10-10T10:35:24Z</time>
      </trkpt>
      <trkpt lat="43.1458240" lon="-5.8235550">
        <ele>322.6</ele>
        <time>2021-10-10T10:35:26Z</time>
      </trkpt>
      <trkpt lat="43.1456630" lon="-5.8236150">
        <ele>323.0</ele>
        <time>2021-10-10T10:35:31Z</time>
      </trkpt>
      <trkpt lat="43.1456230" lon="-5.8236280">
        <ele>323.0</ele>
        <time>2021-10-10T10:35:32Z</time>
      </trkpt>
      <trkpt lat="43.1455810" lon="-5.8236390">
        <ele>323.0</ele>
        <time>2021-10-10T10:35:33Z</time>
      </trkpt>
      <trkpt lat="43.1454960" lon="-5.8236540">
        <ele>323.0</ele>
        <time>2021-10-10T10:35:35Z</time>
      </trkpt>
      <trkpt lat="43.1453300" lon="-5.8236730">
        <ele>322.6</ele>
        <time>2021-10-10T10:35:39Z</time>
      </trkpt>
      <trkpt lat="43.1450810" lon="-5.8237010">
        <ele>322.8</ele>
        <time>2021-10-10T10:35:46Z</time>
      </trkpt>
      <trkpt lat="43.1449790" lon="-5.8237120">
        <ele>322.8</ele>
        <time>2021-10-10T10:35:49Z</time>
      </trkpt>
      <trkpt lat="43.1447700" lon="-5.8237470">
        <ele>323.2</ele>
        <time>2021-10-10T10:35:55Z</time>
      </trkpt>
      <trkpt lat="43.1445480" lon="-5.8237810">
        <ele>323.4</ele>
        <time>2021-10-10T10:36:01Z</time>
      </trkpt>
      <trkpt lat="43.1443920" lon="-5.8238040">
        <ele>323.4</ele>
        <time>2021-10-10T10:36:05Z</time>
      </trkpt>
      <trkpt lat="43.1443490" lon="-5.8238100">
        <ele>323.4</ele>
        <time>2021-10-10T10:36:06Z</time>
      </trkpt>
      <trkpt lat="43.1440540" lon="-5.8238530">
        <ele>323.6</ele>
        <time>2021-10-10T10:36:14Z</time>
      </trkpt>
      <trkpt lat="43.1437450" lon="-5.8238960">
        <ele>323.8</ele>
        <time>2021-10-10T10:36:21Z</time>
      </trkpt>
      <trkpt lat="43.1436690" lon="-5.8239130">
        <ele>324.0</ele>
        <time>2021-10-10T10:36:23Z</time>
      </trkpt>
      <trkpt lat="43.1433330" lon="-5.8239780">
        <ele>324.4</ele>
        <time>2021-10-10T10:36:32Z</time>
      </trkpt>
      <trkpt lat="43.1431770" lon="-5.8240040">
        <ele>324.8</ele>
        <time>2021-10-10T10:36:36Z</time>
      </trkpt>
      <trkpt lat="43.1429740" lon="-5.8240390">
        <ele>325.2</ele>
        <time>2021-10-10T10:36:41Z</time>
      </trkpt>
      <trkpt lat="43.1427000" lon="-5.8241130">
        <ele>325.4</ele>
        <time>2021-10-10T10:36:48Z</time>
      </trkpt>
      <trkpt lat="43.1425470" lon="-5.8241650">
        <ele>325.8</ele>
        <time>2021-10-10T10:36:52Z</time>
      </trkpt>
      <trkpt lat="43.1424660" lon="-5.8241840">
        <ele>326.0</ele>
        <time>2021-10-10T10:36:54Z</time>
      </trkpt>
      <trkpt lat="43.1423120" lon="-5.8242000">
        <ele>326.0</ele>
        <time>2021-10-10T10:36:58Z</time>
      </trkpt>
      <trkpt lat="43.1422320" lon="-5.8242120">
        <ele>326.2</ele>
        <time>2021-10-10T10:37:00Z</time>
      </trkpt>
      <trkpt lat="43.1421900" lon="-5.8242240">
        <ele>326.2</ele>
        <time>2021-10-10T10:37:01Z</time>
      </trkpt>
      <trkpt lat="43.1421060" lon="-5.8242480">
        <ele>326.6</ele>
        <time>2021-10-10T10:37:03Z</time>
      </trkpt>
      <trkpt lat="43.1418550" lon="-5.8243130">
        <ele>326.6</ele>
        <time>2021-10-10T10:37:09Z</time>
      </trkpt>
      <trkpt lat="43.1416420" lon="-5.8243420">
        <ele>327.0</ele>
        <time>2021-10-10T10:37:14Z</time>
      </trkpt>
      <trkpt lat="43.1415600" lon="-5.8243470">
        <ele>327.2</ele>
        <time>2021-10-10T10:37:16Z</time>
      </trkpt>
      <trkpt lat="43.1414420" lon="-5.8243510">
        <ele>327.2</ele>
        <time>2021-10-10T10:37:19Z</time>
      </trkpt>
      <trkpt lat="43.1411100" lon="-5.8243300">
        <ele>327.8</ele>
        <time>2021-10-10T10:37:27Z</time>
      </trkpt>
      <trkpt lat="43.1408510" lon="-5.8242770">
        <ele>327.8</ele>
        <time>2021-10-10T10:37:33Z</time>
      </trkpt>
      <trkpt lat="43.1406720" lon="-5.8242050">
        <ele>327.8</ele>
        <time>2021-10-10T10:37:37Z</time>
      </trkpt>
      <trkpt lat="43.1403730" lon="-5.8240880">
        <ele>328.0</ele>
        <time>2021-10-10T10:37:44Z</time>
      </trkpt>
      <trkpt lat="43.1402980" lon="-5.8240530">
        <ele>328.2</ele>
        <time>2021-10-10T10:37:46Z</time>
      </trkpt>
      <trkpt lat="43.1402620" lon="-5.8240380">
        <ele>328.2</ele>
        <time>2021-10-10T10:37:47Z</time>
      </trkpt>
      <trkpt lat="43.1401280" lon="-5.8239730">
        <ele>329.0</ele>
        <time>2021-10-10T10:37:51Z</time>
      </trkpt>
      <trkpt lat="43.1400290" lon="-5.8239230">
        <ele>329.2</ele>
        <time>2021-10-10T10:37:54Z</time>
      </trkpt>
      <trkpt lat="43.1399950" lon="-5.8239080">
        <ele>329.2</ele>
        <time>2021-10-10T10:37:55Z</time>
      </trkpt>
      <trkpt lat="43.1398580" lon="-5.8238340">
        <ele>329.4</ele>
        <time>2021-10-10T10:37:59Z</time>
      </trkpt>
      <trkpt lat="43.1397620" lon="-5.8237650">
        <ele>329.8</ele>
        <time>2021-10-10T10:38:02Z</time>
      </trkpt>
      <trkpt lat="43.1395820" lon="-5.8236030">
        <ele>330.2</ele>
        <time>2021-10-10T10:38:08Z</time>
      </trkpt>
      <trkpt lat="43.1395050" lon="-5.8235350">
        <ele>330.8</ele>
        <time>2021-10-10T10:38:11Z</time>
      </trkpt>
      <trkpt lat="43.1394260" lon="-5.8234540">
        <ele>331.2</ele>
        <time>2021-10-10T10:38:15Z</time>
      </trkpt>
      <trkpt lat="43.1394080" lon="-5.8234310">
        <ele>331.6</ele>
        <time>2021-10-10T10:38:16Z</time>
      </trkpt>
      <trkpt lat="43.1393350" lon="-5.8233520">
        <ele>332.2</ele>
        <time>2021-10-10T10:38:20Z</time>
      </trkpt>
      <trkpt lat="43.1393010" lon="-5.8233100">
        <ele>332.8</ele>
        <time>2021-10-10T10:38:22Z</time>
      </trkpt>
      <trkpt lat="43.1392850" lon="-5.8232890">
        <ele>333.0</ele>
        <time>2021-10-10T10:38:23Z</time>
      </trkpt>
      <trkpt lat="43.1392150" lon="-5.8231990">
        <ele>333.6</ele>
        <time>2021-10-10T10:38:28Z</time>
      </trkpt>
      <trkpt lat="43.1391750" lon="-5.8231620">
        <ele>333.8</ele>
        <time>2021-10-10T10:38:29Z</time>
      </trkpt>
      <trkpt lat="43.1391530" lon="-5.8231470">
        <ele>334.0</ele>
        <time>2021-10-10T10:38:30Z</time>
      </trkpt>
      <trkpt lat="43.1390300" lon="-5.8230840">
        <ele>334.8</ele>
        <time>2021-10-10T10:38:35Z</time>
      </trkpt>
      <trkpt lat="43.1389050" lon="-5.8230180">
        <ele>335.6</ele>
        <time>2021-10-10T10:38:40Z</time>
      </trkpt>
      <trkpt lat="43.1388690" lon="-5.8229670">
        <ele>335.8</ele>
        <time>2021-10-10T10:38:42Z</time>
      </trkpt>
      <trkpt lat="43.1388610" lon="-5.8229000">
        <ele>335.8</ele>
        <time>2021-10-10T10:38:44Z</time>
      </trkpt>
      <trkpt lat="43.1389090" lon="-5.8226920">
        <ele>336.0</ele>
        <time>2021-10-10T10:38:51Z</time>
      </trkpt>
      <trkpt lat="43.1389420" lon="-5.8226290">
        <ele>336.0</ele>
        <time>2021-10-10T10:38:53Z</time>
      </trkpt>
      <trkpt lat="43.1390470" lon="-5.8224500">
        <ele>336.4</ele>
        <time>2021-10-10T10:39:01Z</time>
      </trkpt>
      <trkpt lat="43.1390640" lon="-5.8224160">
        <ele>336.8</ele>
        <time>2021-10-10T10:39:03Z</time>
      </trkpt>
      <trkpt lat="43.1390760" lon="-5.8223930">
        <ele>337.0</ele>
        <time>2021-10-10T10:39:04Z</time>
      </trkpt>
      <trkpt lat="43.1390840" lon="-5.8223710">
        <ele>337.4</ele>
        <time>2021-10-10T10:39:05Z</time>
      </trkpt>
      <trkpt lat="43.1390890" lon="-5.8223180">
        <ele>337.6</ele>
        <time>2021-10-10T10:39:07Z</time>
      </trkpt>
      <trkpt lat="43.1390800" lon="-5.8222950">
        <ele>337.6</ele>
        <time>2021-10-10T10:39:08Z</time>
      </trkpt>
      <trkpt lat="43.1390680" lon="-5.8222740">
        <ele>337.8</ele>
        <time>2021-10-10T10:39:09Z</time>
      </trkpt>
      <trkpt lat="43.1390220" lon="-5.8222130">
        <ele>338.0</ele>
        <time>2021-10-10T10:39:12Z</time>
      </trkpt>
      <trkpt lat="43.1390060" lon="-5.8221940">
        <ele>338.2</ele>
        <time>2021-10-10T10:39:13Z</time>
      </trkpt>
      <trkpt lat="43.1389690" lon="-5.8221610">
        <ele>338.2</ele>
        <time>2021-10-10T10:39:15Z</time>
      </trkpt>
      <trkpt lat="43.1388990" lon="-5.8220900">
        <ele>338.8</ele>
        <time>2021-10-10T10:39:20Z</time>
      </trkpt>
      <trkpt lat="43.1388760" lon="-5.8220620">
        <ele>339.2</ele>
        <time>2021-10-10T10:39:22Z</time>
      </trkpt>
      <trkpt lat="43.1388520" lon="-5.8220300">
        <ele>339.4</ele>
        <time>2021-10-10T10:39:24Z</time>
      </trkpt>
      <trkpt lat="43.1387900" lon="-5.8219460">
        <ele>339.8</ele>
        <time>2021-10-10T10:39:28Z</time>
      </trkpt>
      <trkpt lat="43.1387560" lon="-5.8219030">
        <ele>340.0</ele>
        <time>2021-10-10T10:39:30Z</time>
      </trkpt>
      <trkpt lat="43.1387230" lon="-5.8218630">
        <ele>340.2</ele>
        <time>2021-10-10T10:39:32Z</time>
      </trkpt>
      <trkpt lat="43.1387050" lon="-5.8218470">
        <ele>340.4</ele>
        <time>2021-10-10T10:39:33Z</time>
      </trkpt>
      <trkpt lat="43.1386680" lon="-5.8218160">
        <ele>340.6</ele>
        <time>2021-10-10T10:39:35Z</time>
      </trkpt>
      <trkpt lat="43.1386100" lon="-5.8217660">
        <ele>341.2</ele>
        <time>2021-10-10T10:39:38Z</time>
      </trkpt>
      <trkpt lat="43.1385820" lon="-5.8217170">
        <ele>341.4</ele>
        <time>2021-10-10T10:39:40Z</time>
      </trkpt>
      <trkpt lat="43.1385380" lon="-5.8216620">
        <ele>341.8</ele>
        <time>2021-10-10T10:39:43Z</time>
      </trkpt>
      <trkpt lat="43.1385240" lon="-5.8216450">
        <ele>342.2</ele>
        <time>2021-10-10T10:39:46Z</time>
      </trkpt>
      <trkpt lat="43.1385000" lon="-5.8215430">
        <ele>342.4</ele>
        <time>2021-10-10T10:39:53Z</time>
      </trkpt>
      <trkpt lat="43.1384730" lon="-5.8214610">
        <ele>342.4</ele>
        <time>2021-10-10T10:39:56Z</time>
      </trkpt>
      <trkpt lat="43.1384610" lon="-5.8214380">
        <ele>342.4</ele>
        <time>2021-10-10T10:39:57Z</time>
      </trkpt>
      <trkpt lat="43.1384170" lon="-5.8213520">
        <ele>342.4</ele>
        <time>2021-10-10T10:40:00Z</time>
      </trkpt>
      <trkpt lat="43.1383700" lon="-5.8212460">
        <ele>342.4</ele>
        <time>2021-10-10T10:40:03Z</time>
      </trkpt>
      <trkpt lat="43.1383510" lon="-5.8212090">
        <ele>342.4</ele>
        <time>2021-10-10T10:40:04Z</time>
      </trkpt>
      <trkpt lat="43.1383350" lon="-5.8211730">
        <ele>342.4</ele>
        <time>2021-10-10T10:40:05Z</time>
      </trkpt>
      <trkpt lat="43.1383000" lon="-5.8210920">
        <ele>342.4</ele>
        <time>2021-10-10T10:40:07Z</time>
      </trkpt>
      <trkpt lat="43.1382580" lon="-5.8210160">
        <ele>342.2</ele>
        <time>2021-10-10T10:40:09Z</time>
      </trkpt>
      <trkpt lat="43.1382190" lon="-5.8209370">
        <ele>342.2</ele>
        <time>2021-10-10T10:40:11Z</time>
      </trkpt>
      <trkpt lat="43.1381980" lon="-5.8208950">
        <ele>342.2</ele>
        <time>2021-10-10T10:40:12Z</time>
      </trkpt>
      <trkpt lat="43.1380790" lon="-5.8207010">
        <ele>342.2</ele>
        <time>2021-10-10T10:40:17Z</time>
      </trkpt>
      <trkpt lat="43.1379880" lon="-5.8205980">
        <ele>342.2</ele>
        <time>2021-10-10T10:40:20Z</time>
      </trkpt>
      <trkpt lat="43.1379610" lon="-5.8205660">
        <ele>342.2</ele>
        <time>2021-10-10T10:40:21Z</time>
      </trkpt>
      <trkpt lat="43.1377950" lon="-5.8203710">
        <ele>342.2</ele>
        <time>2021-10-10T10:40:27Z</time>
      </trkpt>
      <trkpt lat="43.1377670" lon="-5.8203410">
        <ele>342.2</ele>
        <time>2021-10-10T10:40:28Z</time>
      </trkpt>
      <trkpt lat="43.1376820" lon="-5.8202550">
        <ele>342.2</ele>
        <time>2021-10-10T10:40:31Z</time>
      </trkpt>
      <trkpt lat="43.1376030" lon="-5.8201710">
        <ele>342.2</ele>
        <time>2021-10-10T10:40:34Z</time>
      </trkpt>
      <trkpt lat="43.1375240" lon="-5.8200860">
        <ele>342.4</ele>
        <time>2021-10-10T10:40:37Z</time>
      </trkpt>
      <trkpt lat="43.1373640" lon="-5.8198660">
        <ele>343.0</ele>
        <time>2021-10-10T10:40:44Z</time>
      </trkpt>
      <trkpt lat="43.1373070" lon="-5.8197600">
        <ele>343.4</ele>
        <time>2021-10-10T10:40:47Z</time>
      </trkpt>
      <trkpt lat="43.1372860" lon="-5.8197280">
        <ele>343.8</ele>
        <time>2021-10-10T10:40:48Z</time>
      </trkpt>
      <trkpt lat="43.1372410" lon="-5.8196670">
        <ele>343.8</ele>
        <time>2021-10-10T10:40:50Z</time>
      </trkpt>
      <trkpt lat="43.1372220" lon="-5.8196450">
        <ele>344.2</ele>
        <time>2021-10-10T10:40:51Z</time>
      </trkpt>
      <trkpt lat="43.1371720" lon="-5.8195840">
        <ele>344.4</ele>
        <time>2021-10-10T10:40:53Z</time>
      </trkpt>
      <trkpt lat="43.1370810" lon="-5.8194950">
        <ele>344.8</ele>
        <time>2021-10-10T10:40:57Z</time>
      </trkpt>
      <trkpt lat="43.1370090" lon="-5.8194410">
        <ele>345.2</ele>
        <time>2021-10-10T10:41:00Z</time>
      </trkpt>
      <trkpt lat="43.1369840" lon="-5.8194270">
        <ele>345.4</ele>
        <time>2021-10-10T10:41:01Z</time>
      </trkpt>
      <trkpt lat="43.1369400" lon="-5.8193940">
        <ele>345.6</ele>
        <time>2021-10-10T10:41:03Z</time>
      </trkpt>
      <trkpt lat="43.1368960" lon="-5.8193560">
        <ele>345.6</ele>
        <time>2021-10-10T10:41:05Z</time>
      </trkpt>
      <trkpt lat="43.1368260" lon="-5.8193120">
        <ele>345.8</ele>
        <time>2021-10-10T10:41:08Z</time>
      </trkpt>
      <trkpt lat="43.1368020" lon="-5.8193050">
        <ele>346.0</ele>
        <time>2021-10-10T10:41:09Z</time>
      </trkpt>
      <trkpt lat="43.1367290" lon="-5.8192980">
        <ele>346.2</ele>
        <time>2021-10-10T10:41:12Z</time>
      </trkpt>
      <trkpt lat="43.1365560" lon="-5.8191990">
        <ele>347.0</ele>
        <time>2021-10-10T10:41:19Z</time>
      </trkpt>
      <trkpt lat="43.1364100" lon="-5.8190970">
        <ele>347.4</ele>
        <time>2021-10-10T10:41:25Z</time>
      </trkpt>
      <trkpt lat="43.1362210" lon="-5.8190010">
        <ele>348.0</ele>
        <time>2021-10-10T10:41:32Z</time>
      </trkpt>
      <trkpt lat="43.1361940" lon="-5.8189900">
        <ele>348.2</ele>
        <time>2021-10-10T10:41:33Z</time>
      </trkpt>
      <trkpt lat="43.1359780" lon="-5.8188960">
        <ele>348.8</ele>
        <time>2021-10-10T10:41:41Z</time>
      </trkpt>
      <trkpt lat="43.1358540" lon="-5.8188270">
        <ele>349.2</ele>
        <time>2021-10-10T10:41:46Z</time>
      </trkpt>
      <trkpt lat="43.1358310" lon="-5.8188120">
        <ele>349.2</ele>
        <time>2021-10-10T10:41:47Z</time>
      </trkpt>
      <trkpt lat="43.1356900" lon="-5.8187190">
        <ele>350.0</ele>
        <time>2021-10-10T10:41:53Z</time>
      </trkpt>
      <trkpt lat="43.1356400" lon="-5.8187120">
        <ele>350.0</ele>
        <time>2021-10-10T10:41:55Z</time>
      </trkpt>
      <trkpt lat="43.1355230" lon="-5.8186490">
        <ele>350.2</ele>
        <time>2021-10-10T10:42:00Z</time>
      </trkpt>
      <trkpt lat="43.1354780" lon="-5.8186210">
        <ele>350.2</ele>
        <time>2021-10-10T10:42:02Z</time>
      </trkpt>
      <trkpt lat="43.1354030" lon="-5.8185800">
        <ele>350.4</ele>
        <time>2021-10-10T10:42:05Z</time>
      </trkpt>
      <trkpt lat="43.1353500" lon="-5.8185500">
        <ele>350.6</ele>
        <time>2021-10-10T10:42:07Z</time>
      </trkpt>
      <trkpt lat="43.1351520" lon="-5.8184870">
        <ele>351.0</ele>
        <time>2021-10-10T10:42:15Z</time>
      </trkpt>
      <trkpt lat="43.1350410" lon="-5.8184770">
        <ele>351.4</ele>
        <time>2021-10-10T10:42:19Z</time>
      </trkpt>
      <trkpt lat="43.1349340" lon="-5.8184740">
        <ele>351.6</ele>
        <time>2021-10-10T10:42:23Z</time>
      </trkpt>
      <trkpt lat="43.1347920" lon="-5.8184560">
        <ele>352.0</ele>
        <time>2021-10-10T10:42:28Z</time>
      </trkpt>
      <trkpt lat="43.1347650" lon="-5.8184570">
        <ele>352.0</ele>
        <time>2021-10-10T10:42:29Z</time>
      </trkpt>
      <trkpt lat="43.1346810" lon="-5.8184670">
        <ele>352.2</ele>
        <time>2021-10-10T10:42:32Z</time>
      </trkpt>
      <trkpt lat="43.1345740" lon="-5.8184720">
        <ele>352.6</ele>
        <time>2021-10-10T10:42:36Z</time>
      </trkpt>
      <trkpt lat="43.1344370" lon="-5.8184920">
        <ele>353.2</ele>
        <time>2021-10-10T10:42:41Z</time>
      </trkpt>
      <trkpt lat="43.1343820" lon="-5.8185100">
        <ele>353.4</ele>
        <time>2021-10-10T10:42:43Z</time>
      </trkpt>
      <trkpt lat="43.1342540" lon="-5.8184730">
        <ele>353.8</ele>
        <time>2021-10-10T10:42:48Z</time>
      </trkpt>
      <trkpt lat="43.1340600" lon="-5.8184950">
        <ele>354.4</ele>
        <time>2021-10-10T10:42:55Z</time>
      </trkpt>
      <trkpt lat="43.1339270" lon="-5.8183590">
        <ele>354.6</ele>
        <time>2021-10-10T10:43:01Z</time>
      </trkpt>
      <trkpt lat="43.1337540" lon="-5.8181120">
        <ele>355.0</ele>
        <time>2021-10-10T10:43:09Z</time>
      </trkpt>
      <trkpt lat="43.1336920" lon="-5.8180310">
        <ele>355.6</ele>
        <time>2021-10-10T10:43:12Z</time>
      </trkpt>
      <trkpt lat="43.1336410" lon="-5.8179560">
        <ele>357.0</ele>
        <time>2021-10-10T10:43:15Z</time>
      </trkpt>
      <trkpt lat="43.1336080" lon="-5.8179100">
        <ele>357.6</ele>
        <time>2021-10-10T10:43:17Z</time>
      </trkpt>
      <trkpt lat="43.1335760" lon="-5.8178710">
        <ele>358.0</ele>
        <time>2021-10-10T10:43:19Z</time>
      </trkpt>
      <trkpt lat="43.1335410" lon="-5.8178320">
        <ele>358.2</ele>
        <time>2021-10-10T10:43:21Z</time>
      </trkpt>
      <trkpt lat="43.1335030" lon="-5.8177980">
        <ele>358.4</ele>
        <time>2021-10-10T10:43:23Z</time>
      </trkpt>
      <trkpt lat="43.1334830" lon="-5.8177810">
        <ele>358.6</ele>
        <time>2021-10-10T10:43:24Z</time>
      </trkpt>
      <trkpt lat="43.1334620" lon="-5.8177620">
        <ele>358.8</ele>
        <time>2021-10-10T10:43:25Z</time>
      </trkpt>
      <trkpt lat="43.1334220" lon="-5.8177160">
        <ele>359.0</ele>
        <time>2021-10-10T10:43:27Z</time>
      </trkpt>
      <trkpt lat="43.1334000" lon="-5.8176960">
        <ele>359.0</ele>
        <time>2021-10-10T10:43:28Z</time>
      </trkpt>
      <trkpt lat="43.1333560" lon="-5.8176500">
        <ele>359.2</ele>
        <time>2021-10-10T10:43:30Z</time>
      </trkpt>
      <trkpt lat="43.1333350" lon="-5.8176250">
        <ele>359.2</ele>
        <time>2021-10-10T10:43:31Z</time>
      </trkpt>
      <trkpt lat="43.1333140" lon="-5.8175980">
        <ele>359.4</ele>
        <time>2021-10-10T10:43:32Z</time>
      </trkpt>
      <trkpt lat="43.1332330" lon="-5.8174910">
        <ele>359.6</ele>
        <time>2021-10-10T10:43:36Z</time>
      </trkpt>
      <trkpt lat="43.1331370" lon="-5.8173460">
        <ele>359.8</ele>
        <time>2021-10-10T10:43:41Z</time>
      </trkpt>
      <trkpt lat="43.1330860" lon="-5.8172610">
        <ele>360.0</ele>
        <time>2021-10-10T10:43:44Z</time>
      </trkpt>
      <trkpt lat="43.1330720" lon="-5.8172330">
        <ele>360.2</ele>
        <time>2021-10-10T10:43:45Z</time>
      </trkpt>
      <trkpt lat="43.1330360" lon="-5.8171570">
        <ele>360.8</ele>
        <time>2021-10-10T10:43:48Z</time>
      </trkpt>
      <trkpt lat="43.1330100" lon="-5.8171100">
        <ele>361.4</ele>
        <time>2021-10-10T10:43:50Z</time>
      </trkpt>
      <trkpt lat="43.1328800" lon="-5.8169910">
        <ele>362.2</ele>
        <time>2021-10-10T10:43:55Z</time>
      </trkpt>
      <trkpt lat="43.1326590" lon="-5.8168170">
        <ele>361.8</ele>
        <time>2021-10-10T10:44:00Z</time>
      </trkpt>
      <trkpt lat="43.1325540" lon="-5.8167650">
        <ele>361.6</ele>
        <time>2021-10-10T10:44:02Z</time>
      </trkpt>
      <trkpt lat="43.1324460" lon="-5.8167570">
        <ele>360.8</ele>
        <time>2021-10-10T10:44:04Z</time>
      </trkpt>
      <trkpt lat="43.1323380" lon="-5.8167750">
        <ele>360.6</ele>
        <time>2021-10-10T10:44:06Z</time>
      </trkpt>
      <trkpt lat="43.1322850" lon="-5.8167880">
        <ele>360.4</ele>
        <time>2021-10-10T10:44:07Z</time>
      </trkpt>
      <trkpt lat="43.1321830" lon="-5.8168190">
        <ele>360.0</ele>
        <time>2021-10-10T10:44:09Z</time>
      </trkpt>
      <trkpt lat="43.1321340" lon="-5.8168420">
        <ele>359.4</ele>
        <time>2021-10-10T10:44:10Z</time>
      </trkpt>
      <trkpt lat="43.1320860" lon="-5.8168700">
        <ele>359.2</ele>
        <time>2021-10-10T10:44:11Z</time>
      </trkpt>
      <trkpt lat="43.1318920" lon="-5.8169730">
        <ele>358.6</ele>
        <time>2021-10-10T10:44:15Z</time>
      </trkpt>
      <trkpt lat="43.1318120" lon="-5.8169650">
        <ele>358.4</ele>
        <time>2021-10-10T10:44:17Z</time>
      </trkpt>
      <trkpt lat="43.1317510" lon="-5.8169180">
        <ele>358.2</ele>
        <time>2021-10-10T10:44:19Z</time>
      </trkpt>
      <trkpt lat="43.1316940" lon="-5.8168720">
        <ele>358.2</ele>
        <time>2021-10-10T10:44:21Z</time>
      </trkpt>
      <trkpt lat="43.1316440" lon="-5.8168300">
        <ele>358.2</ele>
        <time>2021-10-10T10:44:23Z</time>
      </trkpt>
      <trkpt lat="43.1316000" lon="-5.8167900">
        <ele>358.4</ele>
        <time>2021-10-10T10:44:25Z</time>
      </trkpt>
      <trkpt lat="43.1315420" lon="-5.8167320">
        <ele>358.8</ele>
        <time>2021-10-10T10:44:28Z</time>
      </trkpt>
      <trkpt lat="43.1315010" lon="-5.8166910">
        <ele>359.0</ele>
        <time>2021-10-10T10:44:30Z</time>
      </trkpt>
      <trkpt lat="43.1314380" lon="-5.8166300">
        <ele>359.2</ele>
        <time>2021-10-10T10:44:33Z</time>
      </trkpt>
      <trkpt lat="43.1313940" lon="-5.8165890">
        <ele>359.4</ele>
        <time>2021-10-10T10:44:35Z</time>
      </trkpt>
      <trkpt lat="43.1313720" lon="-5.8165710">
        <ele>359.6</ele>
        <time>2021-10-10T10:44:36Z</time>
      </trkpt>
      <trkpt lat="43.1313490" lon="-5.8165510">
        <ele>359.6</ele>
        <time>2021-10-10T10:44:37Z</time>
      </trkpt>
      <trkpt lat="43.1313030" lon="-5.8165080">
        <ele>360.0</ele>
        <time>2021-10-10T10:44:39Z</time>
      </trkpt>
      <trkpt lat="43.1312170" lon="-5.8164300">
        <ele>360.4</ele>
        <time>2021-10-10T10:44:43Z</time>
      </trkpt>
      <trkpt lat="43.1311240" lon="-5.8163480">
        <ele>360.8</ele>
        <time>2021-10-10T10:44:47Z</time>
      </trkpt>
      <trkpt lat="43.1309470" lon="-5.8161880">
        <ele>361.0</ele>
        <time>2021-10-10T10:44:55Z</time>
      </trkpt>
      <trkpt lat="43.1308550" lon="-5.8160440">
        <ele>361.2</ele>
        <time>2021-10-10T10:45:01Z</time>
      </trkpt>
      <trkpt lat="43.1308630" lon="-5.8158470">
        <ele>361.6</ele>
        <time>2021-10-10T10:45:06Z</time>
      </trkpt>
      <trkpt lat="43.1308730" lon="-5.8157420">
        <ele>361.6</ele>
        <time>2021-10-10T10:45:08Z</time>
      </trkpt>
      <trkpt lat="43.1308840" lon="-5.8156350">
        <ele>361.2</ele>
        <time>2021-10-10T10:45:10Z</time>
      </trkpt>
      <trkpt lat="43.1308890" lon="-5.8155900">
        <ele>361.0</ele>
        <time>2021-10-10T10:45:11Z</time>
      </trkpt>
      <trkpt lat="43.1308820" lon="-5.8155310">
        <ele>360.4</ele>
        <time>2021-10-10T10:45:13Z</time>
      </trkpt>
      <trkpt lat="43.1308380" lon="-5.8155210">
        <ele>359.4</ele>
        <time>2021-10-10T10:45:15Z</time>
      </trkpt>
      <trkpt lat="43.1308160" lon="-5.8155380">
        <ele>358.8</ele>
        <time>2021-10-10T10:45:16Z</time>
      </trkpt>
      <trkpt lat="43.1307960" lon="-5.8155650">
        <ele>358.4</ele>
        <time>2021-10-10T10:45:17Z</time>
      </trkpt>
      <trkpt lat="43.1307570" lon="-5.8156430">
        <ele>357.6</ele>
        <time>2021-10-10T10:45:19Z</time>
      </trkpt>
      <trkpt lat="43.1307380" lon="-5.8156880">
        <ele>357.0</ele>
        <time>2021-10-10T10:45:20Z</time>
      </trkpt>
      <trkpt lat="43.1307210" lon="-5.8157410">
        <ele>356.6</ele>
        <time>2021-10-10T10:45:21Z</time>
      </trkpt>
      <trkpt lat="43.1307000" lon="-5.8158090">
        <ele>356.6</ele>
        <time>2021-10-10T10:45:22Z</time>
      </trkpt>
      <trkpt lat="43.1306520" lon="-5.8158920">
        <ele>355.8</ele>
        <time>2021-10-10T10:45:24Z</time>
      </trkpt>
      <trkpt lat="43.1306200" lon="-5.8159170">
        <ele>355.6</ele>
        <time>2021-10-10T10:45:25Z</time>
      </trkpt>
      <trkpt lat="43.1305540" lon="-5.8159390">
        <ele>354.6</ele>
        <time>2021-10-10T10:45:27Z</time>
      </trkpt>
      <trkpt lat="43.1304970" lon="-5.8159680">
        <ele>353.2</ele>
        <time>2021-10-10T10:45:29Z</time>
      </trkpt>
      <trkpt lat="43.1304530" lon="-5.8160830">
        <ele>351.6</ele>
        <time>2021-10-10T10:45:32Z</time>
      </trkpt>
      <trkpt lat="43.1304560" lon="-5.8161060">
        <ele>351.2</ele>
        <time>2021-10-10T10:45:33Z</time>
      </trkpt>
      <trkpt lat="43.1304980" lon="-5.8162820">
        <ele>350.6</ele>
        <time>2021-10-10T10:45:38Z</time>
      </trkpt>
      <trkpt lat="43.1304960" lon="-5.8163200">
        <ele>350.6</ele>
        <time>2021-10-10T10:45:39Z</time>
      </trkpt>
      <trkpt lat="43.1304860" lon="-5.8163540">
        <ele>350.6</ele>
        <time>2021-10-10T10:45:40Z</time>
      </trkpt>
      <trkpt lat="43.1304270" lon="-5.8164030">
        <ele>350.6</ele>
        <time>2021-10-10T10:45:42Z</time>
      </trkpt>
      <trkpt lat="43.1303400" lon="-5.8164140">
        <ele>350.6</ele>
        <time>2021-10-10T10:45:44Z</time>
      </trkpt>
      <trkpt lat="43.1302850" lon="-5.8163920">
        <ele>350.6</ele>
        <time>2021-10-10T10:45:45Z</time>
      </trkpt>
      <trkpt lat="43.1302470" lon="-5.8163700">
        <ele>350.4</ele>
        <time>2021-10-10T10:45:46Z</time>
      </trkpt>
      <trkpt lat="43.1299810" lon="-5.8162070">
        <ele>349.8</ele>
        <time>2021-10-10T10:45:52Z</time>
      </trkpt>
      <trkpt lat="43.1298910" lon="-5.8161420">
        <ele>349.8</ele>
        <time>2021-10-10T10:45:54Z</time>
      </trkpt>
      <trkpt lat="43.1297490" lon="-5.8160400">
        <ele>349.6</ele>
        <time>2021-10-10T10:45:57Z</time>
      </trkpt>
      <trkpt lat="43.1296590" lon="-5.8159730">
        <ele>349.6</ele>
        <time>2021-10-10T10:45:59Z</time>
      </trkpt>
      <trkpt lat="43.1296230" lon="-5.8159490">
        <ele>349.6</ele>
        <time>2021-10-10T10:46:00Z</time>
      </trkpt>
      <trkpt lat="43.1295370" lon="-5.8159030">
        <ele>349.6</ele>
        <time>2021-10-10T10:46:02Z</time>
      </trkpt>
      <trkpt lat="43.1293970" lon="-5.8158550">
        <ele>349.6</ele>
        <time>2021-10-10T10:46:05Z</time>
      </trkpt>
      <trkpt lat="43.1293040" lon="-5.8158190">
        <ele>349.8</ele>
        <time>2021-10-10T10:46:07Z</time>
      </trkpt>
      <trkpt lat="43.1292180" lon="-5.8157900">
        <ele>349.8</ele>
        <time>2021-10-10T10:46:09Z</time>
      </trkpt>
      <trkpt lat="43.1291150" lon="-5.8157860">
        <ele>349.8</ele>
        <time>2021-10-10T10:46:11Z</time>
      </trkpt>
      <trkpt lat="43.1290680" lon="-5.8157880">
        <ele>349.8</ele>
        <time>2021-10-10T10:46:12Z</time>
      </trkpt>
      <trkpt lat="43.1286870" lon="-5.8158500">
        <ele>349.8</ele>
        <time>2021-10-10T10:46:20Z</time>
      </trkpt>
      <trkpt lat="43.1284420" lon="-5.8158650">
        <ele>349.6</ele>
        <time>2021-10-10T10:46:25Z</time>
      </trkpt>
      <trkpt lat="43.1283450" lon="-5.8158470">
        <ele>349.6</ele>
        <time>2021-10-10T10:46:27Z</time>
      </trkpt>
      <trkpt lat="43.1279990" lon="-5.8157750">
        <ele>349.6</ele>
        <time>2021-10-10T10:46:34Z</time>
      </trkpt>
      <trkpt lat="43.1277240" lon="-5.8156810">
        <ele>349.8</ele>
        <time>2021-10-10T10:46:40Z</time>
      </trkpt>
      <trkpt lat="43.1275910" lon="-5.8156210">
        <ele>350.0</ele>
        <time>2021-10-10T10:46:43Z</time>
      </trkpt>
      <trkpt lat="43.1274550" lon="-5.8155640">
        <ele>350.0</ele>
        <time>2021-10-10T10:46:46Z</time>
      </trkpt>
      <trkpt lat="43.1272300" lon="-5.8154620">
        <ele>350.4</ele>
        <time>2021-10-10T10:46:51Z</time>
      </trkpt>
      <trkpt lat="43.1270890" lon="-5.8154020">
        <ele>350.4</ele>
        <time>2021-10-10T10:46:54Z</time>
      </trkpt>
      <trkpt lat="43.1270060" lon="-5.8153840">
        <ele>350.6</ele>
        <time>2021-10-10T10:46:56Z</time>
      </trkpt>
      <trkpt lat="43.1269010" lon="-5.8153640">
        <ele>350.6</ele>
        <time>2021-10-10T10:46:58Z</time>
      </trkpt>
      <trkpt lat="43.1266220" lon="-5.8152960">
        <ele>350.8</ele>
        <time>2021-10-10T10:47:04Z</time>
      </trkpt>
      <trkpt lat="43.1265480" lon="-5.8152380">
        <ele>350.8</ele>
        <time>2021-10-10T10:47:06Z</time>
      </trkpt>
      <trkpt lat="43.1264390" lon="-5.8151330">
        <ele>350.8</ele>
        <time>2021-10-10T10:47:09Z</time>
      </trkpt>
      <trkpt lat="43.1263560" lon="-5.8150640">
        <ele>351.0</ele>
        <time>2021-10-10T10:47:12Z</time>
      </trkpt>
      <trkpt lat="43.1262720" lon="-5.8150520">
        <ele>351.2</ele>
        <time>2021-10-10T10:47:15Z</time>
      </trkpt>
      <trkpt lat="43.1262470" lon="-5.8150790">
        <ele>351.4</ele>
        <time>2021-10-10T10:47:16Z</time>
      </trkpt>
      <trkpt lat="43.1262310" lon="-5.8151010">
        <ele>351.6</ele>
        <time>2021-10-10T10:47:17Z</time>
      </trkpt>
      <trkpt lat="43.1261590" lon="-5.8151940">
        <ele>352.0</ele>
        <time>2021-10-10T10:47:20Z</time>
      </trkpt>
      <trkpt lat="43.1260930" lon="-5.8152400">
        <ele>352.2</ele>
        <time>2021-10-10T10:47:22Z</time>
      </trkpt>
      <trkpt lat="43.1258680" lon="-5.8152020">
        <ele>352.2</ele>
        <time>2021-10-10T10:47:28Z</time>
      </trkpt>
      <trkpt lat="43.1256960" lon="-5.8151120">
        <ele>352.2</ele>
        <time>2021-10-10T10:47:33Z</time>
      </trkpt>
      <trkpt lat="43.1256310" lon="-5.8150950">
        <ele>352.2</ele>
        <time>2021-10-10T10:47:35Z</time>
      </trkpt>
      <trkpt lat="43.1255910" lon="-5.8150920">
        <ele>352.2</ele>
        <time>2021-10-10T10:47:36Z</time>
      </trkpt>
      <trkpt lat="43.1253480" lon="-5.8151710">
        <ele>352.6</ele>
        <time>2021-10-10T10:47:42Z</time>
      </trkpt>
      <trkpt lat="43.1252820" lon="-5.8152090">
        <ele>352.6</ele>
        <time>2021-10-10T10:47:44Z</time>
      </trkpt>
      <trkpt lat="43.1251720" lon="-5.8152600">
        <ele>352.8</ele>
        <time>2021-10-10T10:47:47Z</time>
      </trkpt>
      <trkpt lat="43.1250960" lon="-5.8153000">
        <ele>353.0</ele>
        <time>2021-10-10T10:47:49Z</time>
      </trkpt>
      <trkpt lat="43.1249810" lon="-5.8153640">
        <ele>353.0</ele>
        <time>2021-10-10T10:47:52Z</time>
      </trkpt>
      <trkpt lat="43.1247770" lon="-5.8154550">
        <ele>353.2</ele>
        <time>2021-10-10T10:47:57Z</time>
      </trkpt>
      <trkpt lat="43.1247380" lon="-5.8154760">
        <ele>353.2</ele>
        <time>2021-10-10T10:47:58Z</time>
      </trkpt>
      <trkpt lat="43.1246060" lon="-5.8155470">
        <ele>353.2</ele>
        <time>2021-10-10T10:48:01Z</time>
      </trkpt>
      <trkpt lat="43.1245230" lon="-5.8155820">
        <ele>353.2</ele>
        <time>2021-10-10T10:48:03Z</time>
      </trkpt>
      <trkpt lat="43.1244500" lon="-5.8156110">
        <ele>353.2</ele>
        <time>2021-10-10T10:48:05Z</time>
      </trkpt>
      <trkpt lat="43.1244010" lon="-5.8156330">
        <ele>353.2</ele>
        <time>2021-10-10T10:48:06Z</time>
      </trkpt>
      <trkpt lat="43.1242810" lon="-5.8156760">
        <ele>353.2</ele>
        <time>2021-10-10T10:48:09Z</time>
      </trkpt>
      <trkpt lat="43.1241180" lon="-5.8157130">
        <ele>353.4</ele>
        <time>2021-10-10T10:48:13Z</time>
      </trkpt>
      <trkpt lat="43.1240350" lon="-5.8157430">
        <ele>353.4</ele>
        <time>2021-10-10T10:48:15Z</time>
      </trkpt>
      <trkpt lat="43.1238170" lon="-5.8158450">
        <ele>353.6</ele>
        <time>2021-10-10T10:48:21Z</time>
      </trkpt>
      <trkpt lat="43.1237900" lon="-5.8158560">
        <ele>353.6</ele>
        <time>2021-10-10T10:48:22Z</time>
      </trkpt>
      <trkpt lat="43.1237680" lon="-5.8158630">
        <ele>353.6</ele>
        <time>2021-10-10T10:48:23Z</time>
      </trkpt>
      <trkpt lat="43.1237150" lon="-5.8158860">
        <ele>353.8</ele>
        <time>2021-10-10T10:48:25Z</time>
      </trkpt>
      <trkpt lat="43.1236480" lon="-5.8159260">
        <ele>354.6</ele>
        <time>2021-10-10T10:48:28Z</time>
      </trkpt>
      <trkpt lat="43.1236200" lon="-5.8159360">
        <ele>354.8</ele>
        <time>2021-10-10T10:48:29Z</time>
      </trkpt>
      <trkpt lat="43.1235480" lon="-5.8159640">
        <ele>355.4</ele>
        <time>2021-10-10T10:48:32Z</time>
      </trkpt>
      <trkpt lat="43.1235280" lon="-5.8159690">
        <ele>355.6</ele>
        <time>2021-10-10T10:48:33Z</time>
      </trkpt>
      <trkpt lat="43.1234790" lon="-5.8159890">
        <ele>355.8</ele>
        <time>2021-10-10T10:48:35Z</time>
      </trkpt>
      <trkpt lat="43.1234280" lon="-5.8160050">
        <ele>356.4</ele>
        <time>2021-10-10T10:48:37Z</time>
      </trkpt>
      <trkpt lat="43.1234020" lon="-5.8160100">
        <ele>356.6</ele>
        <time>2021-10-10T10:48:38Z</time>
      </trkpt>
      <trkpt lat="43.1233300" lon="-5.8160350">
        <ele>357.0</ele>
        <time>2021-10-10T10:48:41Z</time>
      </trkpt>
      <trkpt lat="43.1232430" lon="-5.8160570">
        <ele>357.8</ele>
        <time>2021-10-10T10:48:45Z</time>
      </trkpt>
      <trkpt lat="43.1232220" lon="-5.8160620">
        <ele>358.2</ele>
        <time>2021-10-10T10:48:46Z</time>
      </trkpt>
      <trkpt lat="43.1232000" lon="-5.8160680">
        <ele>358.4</ele>
        <time>2021-10-10T10:48:47Z</time>
      </trkpt>
      <trkpt lat="43.1230540" lon="-5.8161020">
        <ele>359.2</ele>
        <time>2021-10-10T10:48:53Z</time>
      </trkpt>
      <trkpt lat="43.1229730" lon="-5.8161250">
        <ele>359.6</ele>
        <time>2021-10-10T10:48:56Z</time>
      </trkpt>
      <trkpt lat="43.1229450" lon="-5.8161340">
        <ele>359.8</ele>
        <time>2021-10-10T10:48:57Z</time>
      </trkpt>
      <trkpt lat="43.1229150" lon="-5.8161410">
        <ele>359.8</ele>
        <time>2021-10-10T10:48:58Z</time>
      </trkpt>
      <trkpt lat="43.1228860" lon="-5.8161430">
        <ele>359.8</ele>
        <time>2021-10-10T10:48:59Z</time>
      </trkpt>
      <trkpt lat="43.1228080" lon="-5.8161420">
        <ele>359.8</ele>
        <time>2021-10-10T10:49:01Z</time>
      </trkpt>
      <trkpt lat="43.1227750" lon="-5.8161410">
        <ele>359.8</ele>
        <time>2021-10-10T10:49:02Z</time>
      </trkpt>
      <trkpt lat="43.1225290" lon="-5.8161400">
        <ele>359.6</ele>
        <time>2021-10-10T10:49:07Z</time>
      </trkpt>
      <trkpt lat="43.1222660" lon="-5.8161410">
        <ele>358.6</ele>
        <time>2021-10-10T10:49:11Z</time>
      </trkpt>
      <trkpt lat="43.1222020" lon="-5.8161380">
        <ele>358.6</ele>
        <time>2021-10-10T10:49:12Z</time>
      </trkpt>
      <trkpt lat="43.1221430" lon="-5.8161350">
        <ele>358.0</ele>
        <time>2021-10-10T10:49:13Z</time>
      </trkpt>
      <trkpt lat="43.1220850" lon="-5.8161320">
        <ele>357.8</ele>
        <time>2021-10-10T10:49:14Z</time>
      </trkpt>
      <trkpt lat="43.1219750" lon="-5.8161110">
        <ele>357.4</ele>
        <time>2021-10-10T10:49:16Z</time>
      </trkpt>
      <trkpt lat="43.1219250" lon="-5.8160970">
        <ele>357.4</ele>
        <time>2021-10-10T10:49:17Z</time>
      </trkpt>
      <trkpt lat="43.1218350" lon="-5.8160800">
        <ele>357.2</ele>
        <time>2021-10-10T10:49:19Z</time>
      </trkpt>
      <trkpt lat="43.1217920" lon="-5.8160680">
        <ele>357.2</ele>
        <time>2021-10-10T10:49:20Z</time>
      </trkpt>
      <trkpt lat="43.1216680" lon="-5.8160170">
        <ele>357.2</ele>
        <time>2021-10-10T10:49:23Z</time>
      </trkpt>
      <trkpt lat="43.1215310" lon="-5.8159790">
        <ele>357.4</ele>
        <time>2021-10-10T10:49:26Z</time>
      </trkpt>
      <trkpt lat="43.1214540" lon="-5.8159580">
        <ele>357.6</ele>
        <time>2021-10-10T10:49:28Z</time>
      </trkpt>
      <trkpt lat="43.1213610" lon="-5.8159280">
        <ele>358.2</ele>
        <time>2021-10-10T10:49:31Z</time>
      </trkpt>
      <trkpt lat="43.1212750" lon="-5.8159000">
        <ele>358.4</ele>
        <time>2021-10-10T10:49:34Z</time>
      </trkpt>
      <trkpt lat="43.1211880" lon="-5.8158790">
        <ele>359.2</ele>
        <time>2021-10-10T10:49:37Z</time>
      </trkpt>
      <trkpt lat="43.1211540" lon="-5.8158700">
        <ele>359.4</ele>
        <time>2021-10-10T10:49:38Z</time>
      </trkpt>
      <trkpt lat="43.1210740" lon="-5.8158420">
        <ele>360.2</ele>
        <time>2021-10-10T10:49:41Z</time>
      </trkpt>
      <trkpt lat="43.1210460" lon="-5.8158320">
        <ele>360.4</ele>
        <time>2021-10-10T10:49:42Z</time>
      </trkpt>
      <trkpt lat="43.1209900" lon="-5.8158130">
        <ele>361.0</ele>
        <time>2021-10-10T10:49:44Z</time>
      </trkpt>
      <trkpt lat="43.1209620" lon="-5.8158090">
        <ele>361.2</ele>
        <time>2021-10-10T10:49:45Z</time>
      </trkpt>
      <trkpt lat="43.1209110" lon="-5.8157930">
        <ele>361.4</ele>
        <time>2021-10-10T10:49:47Z</time>
      </trkpt>
      <trkpt lat="43.1208240" lon="-5.8157520">
        <ele>361.6</ele>
        <time>2021-10-10T10:49:50Z</time>
      </trkpt>
      <trkpt lat="43.1206940" lon="-5.8157140">
        <ele>361.8</ele>
        <time>2021-10-10T10:49:54Z</time>
      </trkpt>
      <trkpt lat="43.1206160" lon="-5.8157030">
        <ele>361.8</ele>
        <time>2021-10-10T10:49:56Z</time>
      </trkpt>
      <trkpt lat="43.1205730" lon="-5.8156960">
        <ele>361.8</ele>
        <time>2021-10-10T10:49:57Z</time>
      </trkpt>
      <trkpt lat="43.1204790" lon="-5.8156770">
        <ele>361.8</ele>
        <time>2021-10-10T10:49:59Z</time>
      </trkpt>
      <trkpt lat="43.1203850" lon="-5.8156590">
        <ele>361.4</ele>
        <time>2021-10-10T10:50:01Z</time>
      </trkpt>
      <trkpt lat="43.1203380" lon="-5.8156580">
        <ele>361.2</ele>
        <time>2021-10-10T10:50:02Z</time>
      </trkpt>
      <trkpt lat="43.1202520" lon="-5.8156520">
        <ele>360.8</ele>
        <time>2021-10-10T10:50:04Z</time>
      </trkpt>
      <trkpt lat="43.1201790" lon="-5.8156330">
        <ele>360.2</ele>
        <time>2021-10-10T10:50:06Z</time>
      </trkpt>
      <trkpt lat="43.1201390" lon="-5.8156270">
        <ele>360.0</ele>
        <time>2021-10-10T10:50:07Z</time>
      </trkpt>
      <trkpt lat="43.1200530" lon="-5.8156280">
        <ele>359.8</ele>
        <time>2021-10-10T10:50:09Z</time>
      </trkpt>
      <trkpt lat="43.1199040" lon="-5.8156300">
        <ele>359.2</ele>
        <time>2021-10-10T10:50:12Z</time>
      </trkpt>
      <trkpt lat="43.1198040" lon="-5.8156370">
        <ele>359.2</ele>
        <time>2021-10-10T10:50:14Z</time>
      </trkpt>
      <trkpt lat="43.1197200" lon="-5.8156460">
        <ele>358.8</ele>
        <time>2021-10-10T10:50:16Z</time>
      </trkpt>
      <trkpt lat="43.1196370" lon="-5.8156540">
        <ele>358.6</ele>
        <time>2021-10-10T10:50:18Z</time>
      </trkpt>
      <trkpt lat="43.1195920" lon="-5.8156620">
        <ele>358.6</ele>
        <time>2021-10-10T10:50:19Z</time>
      </trkpt>
      <trkpt lat="43.1195260" lon="-5.8156730">
        <ele>358.4</ele>
        <time>2021-10-10T10:50:21Z</time>
      </trkpt>
      <trkpt lat="43.1194340" lon="-5.8156770">
        <ele>358.4</ele>
        <time>2021-10-10T10:50:23Z</time>
      </trkpt>
      <trkpt lat="43.1193930" lon="-5.8156830">
        <ele>358.6</ele>
        <time>2021-10-10T10:50:24Z</time>
      </trkpt>
      <trkpt lat="43.1193160" lon="-5.8156990">
        <ele>358.8</ele>
        <time>2021-10-10T10:50:26Z</time>
      </trkpt>
      <trkpt lat="43.1191860" lon="-5.8157270">
        <ele>358.8</ele>
        <time>2021-10-10T10:50:29Z</time>
      </trkpt>
      <trkpt lat="43.1191070" lon="-5.8157490">
        <ele>358.8</ele>
        <time>2021-10-10T10:50:31Z</time>
      </trkpt>
      <trkpt lat="43.1189580" lon="-5.8157940">
        <ele>359.0</ele>
        <time>2021-10-10T10:50:35Z</time>
      </trkpt>
      <trkpt lat="43.1188830" lon="-5.8158020">
        <ele>359.2</ele>
        <time>2021-10-10T10:50:37Z</time>
      </trkpt>
      <trkpt lat="43.1188190" lon="-5.8158030">
        <ele>359.4</ele>
        <time>2021-10-10T10:50:39Z</time>
      </trkpt>
      <trkpt lat="43.1187280" lon="-5.8157820">
        <ele>359.8</ele>
        <time>2021-10-10T10:50:42Z</time>
      </trkpt>
      <trkpt lat="43.1186260" lon="-5.8157470">
        <ele>360.4</ele>
        <time>2021-10-10T10:50:45Z</time>
      </trkpt>
      <trkpt lat="43.1185060" lon="-5.8157150">
        <ele>360.8</ele>
        <time>2021-10-10T10:50:48Z</time>
      </trkpt>
      <trkpt lat="43.1184160" lon="-5.8156920">
        <ele>360.8</ele>
        <time>2021-10-10T10:50:50Z</time>
      </trkpt>
      <trkpt lat="43.1183090" lon="-5.8156710">
        <ele>360.8</ele>
        <time>2021-10-10T10:50:52Z</time>
      </trkpt>
      <trkpt lat="43.1180990" lon="-5.8156410">
        <ele>360.4</ele>
        <time>2021-10-10T10:50:57Z</time>
      </trkpt>
      <trkpt lat="43.1179740" lon="-5.8156550">
        <ele>360.4</ele>
        <time>2021-10-10T10:51:00Z</time>
      </trkpt>
      <trkpt lat="43.1179370" lon="-5.8156570">
        <ele>360.2</ele>
        <time>2021-10-10T10:51:01Z</time>
      </trkpt>
      <trkpt lat="43.1178610" lon="-5.8156380">
        <ele>360.2</ele>
        <time>2021-10-10T10:51:03Z</time>
      </trkpt>
      <trkpt lat="43.1177910" lon="-5.8156090">
        <ele>360.4</ele>
        <time>2021-10-10T10:51:05Z</time>
      </trkpt>
      <trkpt lat="43.1177580" lon="-5.8155980">
        <ele>360.6</ele>
        <time>2021-10-10T10:51:06Z</time>
      </trkpt>
      <trkpt lat="43.1177300" lon="-5.8155900">
        <ele>360.4</ele>
        <time>2021-10-10T10:51:07Z</time>
      </trkpt>
      <trkpt lat="43.1176830" lon="-5.8155880">
        <ele>360.8</ele>
        <time>2021-10-10T10:51:09Z</time>
      </trkpt>
      <trkpt lat="43.1176400" lon="-5.8155870">
        <ele>361.0</ele>
        <time>2021-10-10T10:51:11Z</time>
      </trkpt>
      <trkpt lat="43.1175950" lon="-5.8155810">
        <ele>361.4</ele>
        <time>2021-10-10T10:51:13Z</time>
      </trkpt>
      <trkpt lat="43.1175570" lon="-5.8155920">
        <ele>361.8</ele>
        <time>2021-10-10T10:51:15Z</time>
      </trkpt>
      <trkpt lat="43.1175160" lon="-5.8156090">
        <ele>362.4</ele>
        <time>2021-10-10T10:51:17Z</time>
      </trkpt>
      <trkpt lat="43.1174990" lon="-5.8156160">
        <ele>362.4</ele>
        <time>2021-10-10T10:51:18Z</time>
      </trkpt>
      <trkpt lat="43.1174220" lon="-5.8156420">
        <ele>363.2</ele>
        <time>2021-10-10T10:51:22Z</time>
      </trkpt>
      <trkpt lat="43.1174040" lon="-5.8156460">
        <ele>363.6</ele>
        <time>2021-10-10T10:51:23Z</time>
      </trkpt>
      <trkpt lat="43.1173670" lon="-5.8156630">
        <ele>364.0</ele>
        <time>2021-10-10T10:51:25Z</time>
      </trkpt>
      <trkpt lat="43.1173150" lon="-5.8156850">
        <ele>364.8</ele>
        <time>2021-10-10T10:51:28Z</time>
      </trkpt>
      <trkpt lat="43.1172870" lon="-5.8157010">
        <ele>365.0</ele>
        <time>2021-10-10T10:51:30Z</time>
      </trkpt>
      <trkpt lat="43.1172250" lon="-5.8157170">
        <ele>366.0</ele>
        <time>2021-10-10T10:51:34Z</time>
      </trkpt>
      <trkpt lat="43.1172000" lon="-5.8157320">
        <ele>366.6</ele>
        <time>2021-10-10T10:51:36Z</time>
      </trkpt>
      <trkpt lat="43.1171720" lon="-5.8157460">
        <ele>367.0</ele>
        <time>2021-10-10T10:51:38Z</time>
      </trkpt>
      <trkpt lat="43.1171590" lon="-5.8157550">
        <ele>367.2</ele>
        <time>2021-10-10T10:51:39Z</time>
      </trkpt>
      <trkpt lat="43.1170840" lon="-5.8158100">
        <ele>368.4</ele>
        <time>2021-10-10T10:51:44Z</time>
      </trkpt>
      <trkpt lat="43.1170720" lon="-5.8158200">
        <ele>368.4</ele>
        <time>2021-10-10T10:51:45Z</time>
      </trkpt>
      <trkpt lat="43.1170560" lon="-5.8158300">
        <ele>368.6</ele>
        <time>2021-10-10T10:51:46Z</time>
      </trkpt>
      <trkpt lat="43.1170290" lon="-5.8158480">
        <ele>369.2</ele>
        <time>2021-10-10T10:51:48Z</time>
      </trkpt>
      <trkpt lat="43.1170080" lon="-5.8158640">
        <ele>369.6</ele>
        <time>2021-10-10T10:51:50Z</time>
      </trkpt>
      <trkpt lat="43.1169800" lon="-5.8158660">
        <ele>370.0</ele>
        <time>2021-10-10T10:51:52Z</time>
      </trkpt>
      <trkpt lat="43.1169660" lon="-5.8158640">
        <ele>370.2</ele>
        <time>2021-10-10T10:51:53Z</time>
      </trkpt>
      <trkpt lat="43.1169350" lon="-5.8158590">
        <ele>370.8</ele>
        <time>2021-10-10T10:51:55Z</time>
      </trkpt>
      <trkpt lat="43.1169030" lon="-5.8158680">
        <ele>371.2</ele>
        <time>2021-10-10T10:51:57Z</time>
      </trkpt>
      <trkpt lat="43.1168720" lon="-5.8158750">
        <ele>371.6</ele>
        <time>2021-10-10T10:51:59Z</time>
      </trkpt>
      <trkpt lat="43.1168570" lon="-5.8158810">
        <ele>371.6</ele>
        <time>2021-10-10T10:52:00Z</time>
      </trkpt>
      <trkpt lat="43.1168450" lon="-5.8158870">
        <ele>371.8</ele>
        <time>2021-10-10T10:52:01Z</time>
      </trkpt>
      <trkpt lat="43.1168180" lon="-5.8158990">
        <ele>372.4</ele>
        <time>2021-10-10T10:52:03Z</time>
      </trkpt>
      <trkpt lat="43.1167770" lon="-5.8159240">
        <ele>373.0</ele>
        <time>2021-10-10T10:52:06Z</time>
      </trkpt>
      <trkpt lat="43.1167620" lon="-5.8159330">
        <ele>373.2</ele>
        <time>2021-10-10T10:52:07Z</time>
      </trkpt>
      <trkpt lat="43.1167250" lon="-5.8159540">
        <ele>374.2</ele>
        <time>2021-10-10T10:52:10Z</time>
      </trkpt>
      <trkpt lat="43.1166980" lon="-5.8159640">
        <ele>374.8</ele>
        <time>2021-10-10T10:52:12Z</time>
      </trkpt>
      <trkpt lat="43.1166860" lon="-5.8159680">
        <ele>375.0</ele>
        <time>2021-10-10T10:52:13Z</time>
      </trkpt>
      <trkpt lat="43.1166750" lon="-5.8159730">
        <ele>375.4</ele>
        <time>2021-10-10T10:52:14Z</time>
      </trkpt>
      <trkpt lat="43.1166620" lon="-5.8159790">
        <ele>375.6</ele>
        <time>2021-10-10T10:52:15Z</time>
      </trkpt>
      <trkpt lat="43.1166220" lon="-5.8159760">
        <ele>376.4</ele>
        <time>2021-10-10T10:52:18Z</time>
      </trkpt>
      <trkpt lat="43.1166030" lon="-5.8159780">
        <ele>376.6</ele>
        <time>2021-10-10T10:52:19Z</time>
      </trkpt>
      <trkpt lat="43.1165770" lon="-5.8159830">
        <ele>377.0</ele>
        <time>2021-10-10T10:52:21Z</time>
      </trkpt>
      <trkpt lat="43.1165430" lon="-5.8159910">
        <ele>377.4</ele>
        <time>2021-10-10T10:52:24Z</time>
      </trkpt>
      <trkpt lat="43.1165300" lon="-5.8159970">
        <ele>377.6</ele>
        <time>2021-10-10T10:52:25Z</time>
      </trkpt>
      <trkpt lat="43.1165190" lon="-5.8160010">
        <ele>377.8</ele>
        <time>2021-10-10T10:52:26Z</time>
      </trkpt>
      <trkpt lat="43.1164830" lon="-5.8160140">
        <ele>378.2</ele>
        <time>2021-10-10T10:52:29Z</time>
      </trkpt>
      <trkpt lat="43.1164700" lon="-5.8160200">
        <ele>378.6</ele>
        <time>2021-10-10T10:52:30Z</time>
      </trkpt>
      <trkpt lat="43.1164430" lon="-5.8160230">
        <ele>379.0</ele>
        <time>2021-10-10T10:52:32Z</time>
      </trkpt>
      <trkpt lat="43.1164280" lon="-5.8160250">
        <ele>379.2</ele>
        <time>2021-10-10T10:52:33Z</time>
      </trkpt>
      <trkpt lat="43.1164140" lon="-5.8160290">
        <ele>379.4</ele>
        <time>2021-10-10T10:52:34Z</time>
      </trkpt>
      <trkpt lat="43.1163600" lon="-5.8160540">
        <ele>380.0</ele>
        <time>2021-10-10T10:52:38Z</time>
      </trkpt>
      <trkpt lat="43.1163150" lon="-5.8160800">
        <ele>380.8</ele>
        <time>2021-10-10T10:52:41Z</time>
      </trkpt>
      <trkpt lat="43.1162800" lon="-5.8160970">
        <ele>381.2</ele>
        <time>2021-10-10T10:52:43Z</time>
      </trkpt>
      <trkpt lat="43.1162350" lon="-5.8161190">
        <ele>381.4</ele>
        <time>2021-10-10T10:52:45Z</time>
      </trkpt>
      <trkpt lat="43.1162030" lon="-5.8161400">
        <ele>381.4</ele>
        <time>2021-10-10T10:52:47Z</time>
      </trkpt>
      <trkpt lat="43.1161650" lon="-5.8161610">
        <ele>381.4</ele>
        <time>2021-10-10T10:52:49Z</time>
      </trkpt>
      <trkpt lat="43.1160900" lon="-5.8162030">
        <ele>381.6</ele>
        <time>2021-10-10T10:52:53Z</time>
      </trkpt>
      <trkpt lat="43.1160540" lon="-5.8162310">
        <ele>381.8</ele>
        <time>2021-10-10T10:52:55Z</time>
      </trkpt>
      <trkpt lat="43.1160270" lon="-5.8162520">
        <ele>381.8</ele>
        <time>2021-10-10T10:52:57Z</time>
      </trkpt>
      <trkpt lat="43.1160120" lon="-5.8162630">
        <ele>381.8</ele>
        <time>2021-10-10T10:52:58Z</time>
      </trkpt>
      <trkpt lat="43.1160040" lon="-5.8162720">
        <ele>382.0</ele>
        <time>2021-10-10T10:52:59Z</time>
      </trkpt>
      <trkpt lat="43.1159970" lon="-5.8162830">
        <ele>382.0</ele>
        <time>2021-10-10T10:53:00Z</time>
      </trkpt>
      <trkpt lat="43.1159920" lon="-5.8162940">
        <ele>382.0</ele>
        <time>2021-10-10T10:53:01Z</time>
      </trkpt>
      <trkpt lat="43.1159900" lon="-5.8162990">
        <ele>382.0</ele>
        <time>2021-10-10T10:53:03Z</time>
      </trkpt>
      <trkpt lat="43.1159900" lon="-5.8162990">
        <ele>382.0</ele>
        <time>2021-10-10T10:53:04Z</time>
      </trkpt>
      <trkpt lat="43.1159090" lon="-5.8163220">
        <ele>382.2</ele>
        <time>2021-10-10T10:56:02Z</time>
      </trkpt>
      <trkpt lat="43.1158830" lon="-5.8163310">
        <ele>382.2</ele>
        <time>2021-10-10T10:56:03Z</time>
      </trkpt>
      <trkpt lat="43.1158590" lon="-5.8163400">
        <ele>382.2</ele>
        <time>2021-10-10T10:56:04Z</time>
      </trkpt>
      <trkpt lat="43.1157090" lon="-5.8164240">
        <ele>382.0</ele>
        <time>2021-10-10T10:56:10Z</time>
      </trkpt>
      <trkpt lat="43.1156710" lon="-5.8164580">
        <ele>382.0</ele>
        <time>2021-10-10T10:56:12Z</time>
      </trkpt>
      <trkpt lat="43.1155420" lon="-5.8165800">
        <ele>382.0</ele>
        <time>2021-10-10T10:56:16Z</time>
      </trkpt>
      <trkpt lat="43.1152970" lon="-5.8167230">
        <ele>381.4</ele>
        <time>2021-10-10T10:56:22Z</time>
      </trkpt>
      <trkpt lat="43.1152560" lon="-5.8167570">
        <ele>381.2</ele>
        <time>2021-10-10T10:56:23Z</time>
      </trkpt>
      <trkpt lat="43.1151150" lon="-5.8169100">
        <ele>381.2</ele>
        <time>2021-10-10T10:56:27Z</time>
      </trkpt>
      <trkpt lat="43.1150010" lon="-5.8170230">
        <ele>381.2</ele>
        <time>2021-10-10T10:56:30Z</time>
      </trkpt>
      <trkpt lat="43.1147710" lon="-5.8172210">
        <ele>381.2</ele>
        <time>2021-10-10T10:56:36Z</time>
      </trkpt>
      <trkpt lat="43.1146260" lon="-5.8173480">
        <ele>381.4</ele>
        <time>2021-10-10T10:56:40Z</time>
      </trkpt>
      <trkpt lat="43.1145890" lon="-5.8173840">
        <ele>381.4</ele>
        <time>2021-10-10T10:56:41Z</time>
      </trkpt>
      <trkpt lat="43.1145020" lon="-5.8174700">
        <ele>381.6</ele>
        <time>2021-10-10T10:56:43Z</time>
      </trkpt>
      <trkpt lat="43.1143280" lon="-5.8176370">
        <ele>381.6</ele>
        <time>2021-10-10T10:56:47Z</time>
      </trkpt>
      <trkpt lat="43.1142680" lon="-5.8176720">
        <ele>381.4</ele>
        <time>2021-10-10T10:56:48Z</time>
      </trkpt>
      <trkpt lat="43.1140720" lon="-5.8177870">
        <ele>380.4</ele>
        <time>2021-10-10T10:56:51Z</time>
      </trkpt>
      <trkpt lat="43.1140230" lon="-5.8178270">
        <ele>380.2</ele>
        <time>2021-10-10T10:56:52Z</time>
      </trkpt>
      <trkpt lat="43.1139630" lon="-5.8178790">
        <ele>379.2</ele>
        <time>2021-10-10T10:56:53Z</time>
      </trkpt>
      <trkpt lat="43.1139050" lon="-5.8179340">
        <ele>379.0</ele>
        <time>2021-10-10T10:56:54Z</time>
      </trkpt>
      <trkpt lat="43.1137820" lon="-5.8180390">
        <ele>377.6</ele>
        <time>2021-10-10T10:56:56Z</time>
      </trkpt>
      <trkpt lat="43.1137140" lon="-5.8180870">
        <ele>376.8</ele>
        <time>2021-10-10T10:56:57Z</time>
      </trkpt>
      <trkpt lat="43.1136360" lon="-5.8181390">
        <ele>376.2</ele>
        <time>2021-10-10T10:56:58Z</time>
      </trkpt>
      <trkpt lat="43.1135490" lon="-5.8181850">
        <ele>376.0</ele>
        <time>2021-10-10T10:56:59Z</time>
      </trkpt>
      <trkpt lat="43.1133590" lon="-5.8182620">
        <ele>375.0</ele>
        <time>2021-10-10T10:57:01Z</time>
      </trkpt>
      <trkpt lat="43.1131660" lon="-5.8183130">
        <ele>373.6</ele>
        <time>2021-10-10T10:57:03Z</time>
      </trkpt>
      <trkpt lat="43.1130690" lon="-5.8183320">
        <ele>372.4</ele>
        <time>2021-10-10T10:57:04Z</time>
      </trkpt>
      <trkpt lat="43.1128660" lon="-5.8183700">
        <ele>370.8</ele>
        <time>2021-10-10T10:57:06Z</time>
      </trkpt>
      <trkpt lat="43.1125770" lon="-5.8183970">
        <ele>369.6</ele>
        <time>2021-10-10T10:57:09Z</time>
      </trkpt>
      <trkpt lat="43.1124050" lon="-5.8183930">
        <ele>368.4</ele>
        <time>2021-10-10T10:57:11Z</time>
      </trkpt>
      <trkpt lat="43.1121680" lon="-5.8183770">
        <ele>368.0</ele>
        <time>2021-10-10T10:57:14Z</time>
      </trkpt>
      <trkpt lat="43.1120100" lon="-5.8183370">
        <ele>367.6</ele>
        <time>2021-10-10T10:57:16Z</time>
      </trkpt>
      <trkpt lat="43.1119200" lon="-5.8183020">
        <ele>367.4</ele>
        <time>2021-10-10T10:57:17Z</time>
      </trkpt>
      <trkpt lat="43.1117950" lon="-5.8182510">
        <ele>367.2</ele>
        <time>2021-10-10T10:57:19Z</time>
      </trkpt>
      <trkpt lat="43.1116560" lon="-5.8182160">
        <ele>367.0</ele>
        <time>2021-10-10T10:57:21Z</time>
      </trkpt>
      <trkpt lat="43.1115560" lon="-5.8182070">
        <ele>367.0</ele>
        <time>2021-10-10T10:57:23Z</time>
      </trkpt>
      <trkpt lat="43.1113820" lon="-5.8181810">
        <ele>367.0</ele>
        <time>2021-10-10T10:57:26Z</time>
      </trkpt>
      <trkpt lat="43.1111170" lon="-5.8181190">
        <ele>367.4</ele>
        <time>2021-10-10T10:57:31Z</time>
      </trkpt>
      <trkpt lat="43.1108860" lon="-5.8180590">
        <ele>367.4</ele>
        <time>2021-10-10T10:57:36Z</time>
      </trkpt>
      <trkpt lat="43.1107950" lon="-5.8180460">
        <ele>367.8</ele>
        <time>2021-10-10T10:57:38Z</time>
      </trkpt>
      <trkpt lat="43.1106530" lon="-5.8180180">
        <ele>368.0</ele>
        <time>2021-10-10T10:57:41Z</time>
      </trkpt>
      <trkpt lat="43.1104250" lon="-5.8179610">
        <ele>368.6</ele>
        <time>2021-10-10T10:57:46Z</time>
      </trkpt>
      <trkpt lat="43.1102590" lon="-5.8179120">
        <ele>369.2</ele>
        <time>2021-10-10T10:57:50Z</time>
      </trkpt>
      <trkpt lat="43.1101770" lon="-5.8178950">
        <ele>369.2</ele>
        <time>2021-10-10T10:57:52Z</time>
      </trkpt>
      <trkpt lat="43.1101370" lon="-5.8178830">
        <ele>369.4</ele>
        <time>2021-10-10T10:57:53Z</time>
      </trkpt>
      <trkpt lat="43.1100500" lon="-5.8178590">
        <ele>369.6</ele>
        <time>2021-10-10T10:57:55Z</time>
      </trkpt>
      <trkpt lat="43.1099420" lon="-5.8178480">
        <ele>369.6</ele>
        <time>2021-10-10T10:57:57Z</time>
      </trkpt>
      <trkpt lat="43.1098870" lon="-5.8178350">
        <ele>369.6</ele>
        <time>2021-10-10T10:57:58Z</time>
      </trkpt>
      <trkpt lat="43.1097790" lon="-5.8178000">
        <ele>369.6</ele>
        <time>2021-10-10T10:58:00Z</time>
      </trkpt>
      <trkpt lat="43.1097190" lon="-5.8177740">
        <ele>369.6</ele>
        <time>2021-10-10T10:58:01Z</time>
      </trkpt>
      <trkpt lat="43.1095840" lon="-5.8176930">
        <ele>369.8</ele>
        <time>2021-10-10T10:58:04Z</time>
      </trkpt>
      <trkpt lat="43.1094880" lon="-5.8176490">
        <ele>369.8</ele>
        <time>2021-10-10T10:58:06Z</time>
      </trkpt>
      <trkpt lat="43.1094100" lon="-5.8176280">
        <ele>369.8</ele>
        <time>2021-10-10T10:58:08Z</time>
      </trkpt>
      <trkpt lat="43.1093670" lon="-5.8176220">
        <ele>369.8</ele>
        <time>2021-10-10T10:58:09Z</time>
      </trkpt>
      <trkpt lat="43.1092830" lon="-5.8176100">
        <ele>370.2</ele>
        <time>2021-10-10T10:58:11Z</time>
      </trkpt>
      <trkpt lat="43.1092400" lon="-5.8176090">
        <ele>370.2</ele>
        <time>2021-10-10T10:58:12Z</time>
      </trkpt>
      <trkpt lat="43.1091580" lon="-5.8176050">
        <ele>370.6</ele>
        <time>2021-10-10T10:58:14Z</time>
      </trkpt>
      <trkpt lat="43.1091090" lon="-5.8176010">
        <ele>370.8</ele>
        <time>2021-10-10T10:58:15Z</time>
      </trkpt>
      <trkpt lat="43.1089860" lon="-5.8176050">
        <ele>371.0</ele>
        <time>2021-10-10T10:58:18Z</time>
      </trkpt>
      <trkpt lat="43.1087660" lon="-5.8176180">
        <ele>371.4</ele>
        <time>2021-10-10T10:58:23Z</time>
      </trkpt>
      <trkpt lat="43.1087230" lon="-5.8176260">
        <ele>371.4</ele>
        <time>2021-10-10T10:58:24Z</time>
      </trkpt>
      <trkpt lat="43.1086310" lon="-5.8176510">
        <ele>371.4</ele>
        <time>2021-10-10T10:58:26Z</time>
      </trkpt>
      <trkpt lat="43.1085030" lon="-5.8176990">
        <ele>371.6</ele>
        <time>2021-10-10T10:58:29Z</time>
      </trkpt>
      <trkpt lat="43.1083380" lon="-5.8177930">
        <ele>371.8</ele>
        <time>2021-10-10T10:58:33Z</time>
      </trkpt>
      <trkpt lat="43.1082270" lon="-5.8178770">
        <ele>371.8</ele>
        <time>2021-10-10T10:58:36Z</time>
      </trkpt>
      <trkpt lat="43.1081900" lon="-5.8178960">
        <ele>371.8</ele>
        <time>2021-10-10T10:58:37Z</time>
      </trkpt>
      <trkpt lat="43.1080550" lon="-5.8179660">
        <ele>372.2</ele>
        <time>2021-10-10T10:58:41Z</time>
      </trkpt>
      <trkpt lat="43.1079450" lon="-5.8179790">
        <ele>372.6</ele>
        <time>2021-10-10T10:58:44Z</time>
      </trkpt>
      <trkpt lat="43.1079110" lon="-5.8179540">
        <ele>372.6</ele>
        <time>2021-10-10T10:58:45Z</time>
      </trkpt>
      <trkpt lat="43.1077880" lon="-5.8177280">
        <ele>372.8</ele>
        <time>2021-10-10T10:58:50Z</time>
      </trkpt>
      <trkpt lat="43.1077140" lon="-5.8175930">
        <ele>373.0</ele>
        <time>2021-10-10T10:58:53Z</time>
      </trkpt>
      <trkpt lat="43.1076380" lon="-5.8174540">
        <ele>373.0</ele>
        <time>2021-10-10T10:58:56Z</time>
      </trkpt>
      <trkpt lat="43.1074510" lon="-5.8171330">
        <ele>373.2</ele>
        <time>2021-10-10T10:59:03Z</time>
      </trkpt>
      <trkpt lat="43.1073980" lon="-5.8170480">
        <ele>373.4</ele>
        <time>2021-10-10T10:59:05Z</time>
      </trkpt>
      <trkpt lat="43.1073540" lon="-5.8169790">
        <ele>373.4</ele>
        <time>2021-10-10T10:59:07Z</time>
      </trkpt>
      <trkpt lat="43.1073060" lon="-5.8168910">
        <ele>374.0</ele>
        <time>2021-10-10T10:59:10Z</time>
      </trkpt>
      <trkpt lat="43.1072400" lon="-5.8167750">
        <ele>375.2</ele>
        <time>2021-10-10T10:59:15Z</time>
      </trkpt>
      <trkpt lat="43.1072270" lon="-5.8167560">
        <ele>375.4</ele>
        <time>2021-10-10T10:59:16Z</time>
      </trkpt>
      <trkpt lat="43.1071900" lon="-5.8167030">
        <ele>376.4</ele>
        <time>2021-10-10T10:59:19Z</time>
      </trkpt>
      <trkpt lat="43.1071620" lon="-5.8166500">
        <ele>377.2</ele>
        <time>2021-10-10T10:59:22Z</time>
      </trkpt>
      <trkpt lat="43.1071720" lon="-5.8166060">
        <ele>377.8</ele>
        <time>2021-10-10T10:59:24Z</time>
      </trkpt>
      <trkpt lat="43.1071900" lon="-5.8165710">
        <ele>378.4</ele>
        <time>2021-10-10T10:59:26Z</time>
      </trkpt>
      <trkpt lat="43.1072130" lon="-5.8165380">
        <ele>379.0</ele>
        <time>2021-10-10T10:59:28Z</time>
      </trkpt>
      <trkpt lat="43.1072390" lon="-5.8165100">
        <ele>379.2</ele>
        <time>2021-10-10T10:59:30Z</time>
      </trkpt>
      <trkpt lat="43.1072940" lon="-5.8164620">
        <ele>380.2</ele>
        <time>2021-10-10T10:59:34Z</time>
      </trkpt>
      <trkpt lat="43.1073090" lon="-5.8164500">
        <ele>380.6</ele>
        <time>2021-10-10T10:59:35Z</time>
      </trkpt>
      <trkpt lat="43.1073680" lon="-5.8163950">
        <ele>381.0</ele>
        <time>2021-10-10T10:59:39Z</time>
      </trkpt>
      <trkpt lat="43.1073740" lon="-5.8163790">
        <ele>381.0</ele>
        <time>2021-10-10T10:59:40Z</time>
      </trkpt>
      <trkpt lat="43.1073670" lon="-5.8163670">
        <ele>381.2</ele>
        <time>2021-10-10T10:59:41Z</time>
      </trkpt>
      <trkpt lat="43.1073470" lon="-5.8163620">
        <ele>381.2</ele>
        <time>2021-10-10T10:59:42Z</time>
      </trkpt>
      <trkpt lat="43.1073270" lon="-5.8163700">
        <ele>381.6</ele>
        <time>2021-10-10T10:59:43Z</time>
      </trkpt>
      <trkpt lat="43.1073100" lon="-5.8163800">
        <ele>381.6</ele>
        <time>2021-10-10T10:59:44Z</time>
      </trkpt>
      <trkpt lat="43.1072920" lon="-5.8163970">
        <ele>381.8</ele>
        <time>2021-10-10T10:59:45Z</time>
      </trkpt>
      <trkpt lat="43.1072720" lon="-5.8164180">
        <ele>381.8</ele>
        <time>2021-10-10T10:59:46Z</time>
      </trkpt>
      <trkpt lat="43.1072310" lon="-5.8164750">
        <ele>382.0</ele>
        <time>2021-10-10T10:59:48Z</time>
      </trkpt>
      <trkpt lat="43.1072160" lon="-5.8164970">
        <ele>382.0</ele>
        <time>2021-10-10T10:59:49Z</time>
      </trkpt>
      <trkpt lat="43.1071790" lon="-5.8165400">
        <ele>382.0</ele>
        <time>2021-10-10T10:59:51Z</time>
      </trkpt>
      <trkpt lat="43.1071580" lon="-5.8165690">
        <ele>382.0</ele>
        <time>2021-10-10T10:59:52Z</time>
      </trkpt>
      <trkpt lat="43.1071450" lon="-5.8165870">
        <ele>382.0</ele>
        <time>2021-10-10T10:59:53Z</time>
      </trkpt>
      <trkpt lat="43.1071270" lon="-5.8166130">
        <ele>382.0</ele>
        <time>2021-10-10T10:59:54Z</time>
      </trkpt>
      <trkpt lat="43.1070760" lon="-5.8166940">
        <ele>382.0</ele>
        <time>2021-10-10T10:59:57Z</time>
      </trkpt>
      <trkpt lat="43.1070350" lon="-5.8167480">
        <ele>382.0</ele>
        <time>2021-10-10T10:59:59Z</time>
      </trkpt>
      <trkpt lat="43.1069520" lon="-5.8168720">
        <ele>382.2</ele>
        <time>2021-10-10T11:00:03Z</time>
      </trkpt>
      <trkpt lat="43.1069280" lon="-5.8168980">
        <ele>382.2</ele>
        <time>2021-10-10T11:00:04Z</time>
      </trkpt>
      <trkpt lat="43.1069060" lon="-5.8169270">
        <ele>382.2</ele>
        <time>2021-10-10T11:00:05Z</time>
      </trkpt>
      <trkpt lat="43.1068670" lon="-5.8169840">
        <ele>382.2</ele>
        <time>2021-10-10T11:00:07Z</time>
      </trkpt>
      <trkpt lat="43.1067460" lon="-5.8171390">
        <ele>382.2</ele>
        <time>2021-10-10T11:00:12Z</time>
      </trkpt>
      <trkpt lat="43.1066590" lon="-5.8172530">
        <ele>382.4</ele>
        <time>2021-10-10T11:00:16Z</time>
      </trkpt>
      <trkpt lat="43.1065940" lon="-5.8173460">
        <ele>382.2</ele>
        <time>2021-10-10T11:00:19Z</time>
      </trkpt>
      <trkpt lat="43.1064660" lon="-5.8175110">
        <ele>382.2</ele>
        <time>2021-10-10T11:00:25Z</time>
      </trkpt>
      <trkpt lat="43.1064000" lon="-5.8175500">
        <ele>382.2</ele>
        <time>2021-10-10T11:00:28Z</time>
      </trkpt>
      <trkpt lat="43.1063090" lon="-5.8175680">
        <ele>382.0</ele>
        <time>2021-10-10T11:00:32Z</time>
      </trkpt>
      <trkpt lat="43.1062950" lon="-5.8175720">
        <ele>382.0</ele>
        <time>2021-10-10T11:00:33Z</time>
      </trkpt>
      <trkpt lat="43.1062840" lon="-5.8175850">
        <ele>382.0</ele>
        <time>2021-10-10T11:00:36Z</time>
      </trkpt>
      <trkpt lat="43.1062840" lon="-5.8175850">
        <ele>382.0</ele>
        <time>2021-10-10T11:00:37Z</time>
      </trkpt>
      <trkpt lat="43.1062930" lon="-5.8176140">
        <ele>382.0</ele>
        <time>2021-10-10T11:01:43Z</time>
      </trkpt>
      <trkpt lat="43.1062990" lon="-5.8176420">
        <ele>382.0</ele>
        <time>2021-10-10T11:01:44Z</time>
      </trkpt>
      <trkpt lat="43.1063000" lon="-5.8176690">
        <ele>382.0</ele>
        <time>2021-10-10T11:01:45Z</time>
      </trkpt>
      <trkpt lat="43.1062950" lon="-5.8176940">
        <ele>382.2</ele>
        <time>2021-10-10T11:01:46Z</time>
      </trkpt>
      <trkpt lat="43.1062680" lon="-5.8177620">
        <ele>382.2</ele>
        <time>2021-10-10T11:01:49Z</time>
      </trkpt>
      <trkpt lat="43.1062580" lon="-5.8177820">
        <ele>382.2</ele>
        <time>2021-10-10T11:01:50Z</time>
      </trkpt>
      <trkpt lat="43.1062240" lon="-5.8178550">
        <ele>382.2</ele>
        <time>2021-10-10T11:01:54Z</time>
      </trkpt>
      <trkpt lat="43.1061910" lon="-5.8179350">
        <ele>382.2</ele>
        <time>2021-10-10T11:01:59Z</time>
      </trkpt>
      <trkpt lat="43.1061900" lon="-5.8179390">
        <ele>382.2</ele>
        <time>2021-10-10T11:02:01Z</time>
      </trkpt>
      <trkpt lat="43.1061650" lon="-5.8179940">
        <ele>382.2</ele>
        <time>2021-10-10T11:02:07Z</time>
      </trkpt>
      <trkpt lat="43.1061490" lon="-5.8180170">
        <ele>382.2</ele>
        <time>2021-10-10T11:02:08Z</time>
      </trkpt>
      <trkpt lat="43.1060880" lon="-5.8180800">
        <ele>382.4</ele>
        <time>2021-10-10T11:02:11Z</time>
      </trkpt>
      <trkpt lat="43.1060360" lon="-5.8181550">
        <ele>382.6</ele>
        <time>2021-10-10T11:02:14Z</time>
      </trkpt>
      <trkpt lat="43.1059060" lon="-5.8183260">
        <ele>383.0</ele>
        <time>2021-10-10T11:02:21Z</time>
      </trkpt>
      <trkpt lat="43.1058550" lon="-5.8184000">
        <ele>383.2</ele>
        <time>2021-10-10T11:02:24Z</time>
      </trkpt>
      <trkpt lat="43.1058390" lon="-5.8184290">
        <ele>383.2</ele>
        <time>2021-10-10T11:02:25Z</time>
      </trkpt>
      <trkpt lat="43.1058220" lon="-5.8184550">
        <ele>383.4</ele>
        <time>2021-10-10T11:02:26Z</time>
      </trkpt>
      <trkpt lat="43.1058050" lon="-5.8184840">
        <ele>383.4</ele>
        <time>2021-10-10T11:02:27Z</time>
      </trkpt>
      <trkpt lat="43.1057390" lon="-5.8185770">
        <ele>383.6</ele>
        <time>2021-10-10T11:02:30Z</time>
      </trkpt>
      <trkpt lat="43.1056340" lon="-5.8186880">
        <ele>384.4</ele>
        <time>2021-10-10T11:02:35Z</time>
      </trkpt>
      <trkpt lat="43.1055960" lon="-5.8187270">
        <ele>384.6</ele>
        <time>2021-10-10T11:02:37Z</time>
      </trkpt>
      <trkpt lat="43.1055810" lon="-5.8187460">
        <ele>384.8</ele>
        <time>2021-10-10T11:02:38Z</time>
      </trkpt>
      <trkpt lat="43.1055460" lon="-5.8187740">
        <ele>385.0</ele>
        <time>2021-10-10T11:02:40Z</time>
      </trkpt>
      <trkpt lat="43.1055260" lon="-5.8187750">
        <ele>385.2</ele>
        <time>2021-10-10T11:02:41Z</time>
      </trkpt>
      <trkpt lat="43.1054970" lon="-5.8187420">
        <ele>385.2</ele>
        <time>2021-10-10T11:02:43Z</time>
      </trkpt>
      <trkpt lat="43.1054830" lon="-5.8187100">
        <ele>385.4</ele>
        <time>2021-10-10T11:02:45Z</time>
      </trkpt>
      <trkpt lat="43.1054800" lon="-5.8186960">
        <ele>385.6</ele>
        <time>2021-10-10T11:02:49Z</time>
      </trkpt>
      <trkpt lat="43.1055210" lon="-5.8186640">
        <ele>388.6</ele>
        <time>2021-10-10T11:39:17Z</time>
      </trkpt>
      <trkpt lat="43.1055360" lon="-5.8187470">
        <ele>388.6</ele>
        <time>2021-10-10T11:39:20Z</time>
      </trkpt>
      <trkpt lat="43.1055220" lon="-5.8187840">
        <ele>388.6</ele>
        <time>2021-10-10T11:39:21Z</time>
      </trkpt>
      <trkpt lat="43.1054710" lon="-5.8188410">
        <ele>388.6</ele>
        <time>2021-10-10T11:39:23Z</time>
      </trkpt>
      <trkpt lat="43.1053870" lon="-5.8188760">
        <ele>388.6</ele>
        <time>2021-10-10T11:39:25Z</time>
      </trkpt>
      <trkpt lat="43.1053490" lon="-5.8188860">
        <ele>388.6</ele>
        <time>2021-10-10T11:39:26Z</time>
      </trkpt>
      <trkpt lat="43.1052180" lon="-5.8189560">
        <ele>388.8</ele>
        <time>2021-10-10T11:39:30Z</time>
      </trkpt>
      <trkpt lat="43.1051900" lon="-5.8189860">
        <ele>388.8</ele>
        <time>2021-10-10T11:39:31Z</time>
      </trkpt>
      <trkpt lat="43.1050570" lon="-5.8190950">
        <ele>389.2</ele>
        <time>2021-10-10T11:39:35Z</time>
      </trkpt>
      <trkpt lat="43.1050250" lon="-5.8191190">
        <ele>389.2</ele>
        <time>2021-10-10T11:39:36Z</time>
      </trkpt>
      <trkpt lat="43.1049370" lon="-5.8191610">
        <ele>389.4</ele>
        <time>2021-10-10T11:39:39Z</time>
      </trkpt>
      <trkpt lat="43.1048740" lon="-5.8192440">
        <ele>389.6</ele>
        <time>2021-10-10T11:39:42Z</time>
      </trkpt>
      <trkpt lat="43.1048510" lon="-5.8192740">
        <ele>389.6</ele>
        <time>2021-10-10T11:39:43Z</time>
      </trkpt>
      <trkpt lat="43.1047430" lon="-5.8193110">
        <ele>389.6</ele>
        <time>2021-10-10T11:39:46Z</time>
      </trkpt>
      <trkpt lat="43.1047120" lon="-5.8193220">
        <ele>389.6</ele>
        <time>2021-10-10T11:39:47Z</time>
      </trkpt>
      <trkpt lat="43.1046400" lon="-5.8193380">
        <ele>389.8</ele>
        <time>2021-10-10T11:39:49Z</time>
      </trkpt>
      <trkpt lat="43.1046090" lon="-5.8193450">
        <ele>389.8</ele>
        <time>2021-10-10T11:39:50Z</time>
      </trkpt>
      <trkpt lat="43.1044740" lon="-5.8193480">
        <ele>389.8</ele>
        <time>2021-10-10T11:39:54Z</time>
      </trkpt>
      <trkpt lat="43.1044360" lon="-5.8193470">
        <ele>389.8</ele>
        <time>2021-10-10T11:39:55Z</time>
      </trkpt>
      <trkpt lat="43.1043310" lon="-5.8193330">
        <ele>390.0</ele>
        <time>2021-10-10T11:39:58Z</time>
      </trkpt>
      <trkpt lat="43.1042230" lon="-5.8192990">
        <ele>390.2</ele>
        <time>2021-10-10T11:40:01Z</time>
      </trkpt>
      <trkpt lat="43.1041230" lon="-5.8192710">
        <ele>390.2</ele>
        <time>2021-10-10T11:40:04Z</time>
      </trkpt>
      <trkpt lat="43.1039770" lon="-5.8192320">
        <ele>390.4</ele>
        <time>2021-10-10T11:40:08Z</time>
      </trkpt>
      <trkpt lat="43.1038250" lon="-5.8192050">
        <ele>390.4</ele>
        <time>2021-10-10T11:40:12Z</time>
      </trkpt>
      <trkpt lat="43.1037400" lon="-5.8192070">
        <ele>390.4</ele>
        <time>2021-10-10T11:40:14Z</time>
      </trkpt>
      <trkpt lat="43.1035000" lon="-5.8192440">
        <ele>390.6</ele>
        <time>2021-10-10T11:40:20Z</time>
      </trkpt>
      <trkpt lat="43.1032900" lon="-5.8192940">
        <ele>390.6</ele>
        <time>2021-10-10T11:40:25Z</time>
      </trkpt>
      <trkpt lat="43.1032460" lon="-5.8193040">
        <ele>390.8</ele>
        <time>2021-10-10T11:40:26Z</time>
      </trkpt>
      <trkpt lat="43.1031160" lon="-5.8193640">
        <ele>390.8</ele>
        <time>2021-10-10T11:40:29Z</time>
      </trkpt>
      <trkpt lat="43.1030760" lon="-5.8193930">
        <ele>390.8</ele>
        <time>2021-10-10T11:40:30Z</time>
      </trkpt>
      <trkpt lat="43.1027880" lon="-5.8195850">
        <ele>390.8</ele>
        <time>2021-10-10T11:40:37Z</time>
      </trkpt>
      <trkpt lat="43.1025520" lon="-5.8198020">
        <ele>391.0</ele>
        <time>2021-10-10T11:40:43Z</time>
      </trkpt>
      <trkpt lat="43.1025030" lon="-5.8198430">
        <ele>391.0</ele>
        <time>2021-10-10T11:40:44Z</time>
      </trkpt>
      <trkpt lat="43.1023820" lon="-5.8199310">
        <ele>391.0</ele>
        <time>2021-10-10T11:40:47Z</time>
      </trkpt>
      <trkpt lat="43.1021910" lon="-5.8200800">
        <ele>391.0</ele>
        <time>2021-10-10T11:40:52Z</time>
      </trkpt>
      <trkpt lat="43.1020860" lon="-5.8201670">
        <ele>391.2</ele>
        <time>2021-10-10T11:40:55Z</time>
      </trkpt>
      <trkpt lat="43.1019250" lon="-5.8202900">
        <ele>391.6</ele>
        <time>2021-10-10T11:41:00Z</time>
      </trkpt>
      <trkpt lat="43.1018660" lon="-5.8203370">
        <ele>391.8</ele>
        <time>2021-10-10T11:41:02Z</time>
      </trkpt>
      <trkpt lat="43.1018380" lon="-5.8203600">
        <ele>391.8</ele>
        <time>2021-10-10T11:41:03Z</time>
      </trkpt>
      <trkpt lat="43.1016940" lon="-5.8204760">
        <ele>392.4</ele>
        <time>2021-10-10T11:41:08Z</time>
      </trkpt>
      <trkpt lat="43.1015490" lon="-5.8205810">
        <ele>392.8</ele>
        <time>2021-10-10T11:41:13Z</time>
      </trkpt>
      <trkpt lat="43.1013890" lon="-5.8207120">
        <ele>393.8</ele>
        <time>2021-10-10T11:41:19Z</time>
      </trkpt>
      <trkpt lat="43.1012690" lon="-5.8207940">
        <ele>394.4</ele>
        <time>2021-10-10T11:41:24Z</time>
      </trkpt>
      <trkpt lat="43.1012190" lon="-5.8208180">
        <ele>394.6</ele>
        <time>2021-10-10T11:41:26Z</time>
      </trkpt>
      <trkpt lat="43.1011720" lon="-5.8208330">
        <ele>395.0</ele>
        <time>2021-10-10T11:41:28Z</time>
      </trkpt>
      <trkpt lat="43.1009910" lon="-5.8208510">
        <ele>395.8</ele>
        <time>2021-10-10T11:41:34Z</time>
      </trkpt>
      <trkpt lat="43.1009640" lon="-5.8208530">
        <ele>395.8</ele>
        <time>2021-10-10T11:41:35Z</time>
      </trkpt>
      <trkpt lat="43.1008820" lon="-5.8208640">
        <ele>396.0</ele>
        <time>2021-10-10T11:41:38Z</time>
      </trkpt>
      <trkpt lat="43.1007700" lon="-5.8208760">
        <ele>396.2</ele>
        <time>2021-10-10T11:41:42Z</time>
      </trkpt>
      <trkpt lat="43.1006370" lon="-5.8208960">
        <ele>396.8</ele>
        <time>2021-10-10T11:41:47Z</time>
      </trkpt>
      <trkpt lat="43.1005510" lon="-5.8208960">
        <ele>397.4</ele>
        <time>2021-10-10T11:41:50Z</time>
      </trkpt>
      <trkpt lat="43.1003980" lon="-5.8209190">
        <ele>398.0</ele>
        <time>2021-10-10T11:41:56Z</time>
      </trkpt>
      <trkpt lat="43.1003000" lon="-5.8209340">
        <ele>398.4</ele>
        <time>2021-10-10T11:42:00Z</time>
      </trkpt>
      <trkpt lat="43.1001920" lon="-5.8209640">
        <ele>398.6</ele>
        <time>2021-10-10T11:42:04Z</time>
      </trkpt>
      <trkpt lat="43.1001320" lon="-5.8209790">
        <ele>398.8</ele>
        <time>2021-10-10T11:42:06Z</time>
      </trkpt>
      <trkpt lat="43.0999540" lon="-5.8210230">
        <ele>399.4</ele>
        <time>2021-10-10T11:42:12Z</time>
      </trkpt>
      <trkpt lat="43.0998350" lon="-5.8210490">
        <ele>399.6</ele>
        <time>2021-10-10T11:42:16Z</time>
      </trkpt>
      <trkpt lat="43.0996780" lon="-5.8211350">
        <ele>400.0</ele>
        <time>2021-10-10T11:42:22Z</time>
      </trkpt>
      <trkpt lat="43.0996340" lon="-5.8211780">
        <ele>400.2</ele>
        <time>2021-10-10T11:42:24Z</time>
      </trkpt>
      <trkpt lat="43.0995360" lon="-5.8212810">
        <ele>400.4</ele>
        <time>2021-10-10T11:42:29Z</time>
      </trkpt>
      <trkpt lat="43.0994460" lon="-5.8214220">
        <ele>400.8</ele>
        <time>2021-10-10T11:42:34Z</time>
      </trkpt>
      <trkpt lat="43.0993810" lon="-5.8215720">
        <ele>401.6</ele>
        <time>2021-10-10T11:42:39Z</time>
      </trkpt>
      <trkpt lat="43.0993550" lon="-5.8216470">
        <ele>401.8</ele>
        <time>2021-10-10T11:42:42Z</time>
      </trkpt>
      <trkpt lat="43.0993290" lon="-5.8218370">
        <ele>402.6</ele>
        <time>2021-10-10T11:42:48Z</time>
      </trkpt>
      <trkpt lat="43.0993150" lon="-5.8219540">
        <ele>403.0</ele>
        <time>2021-10-10T11:42:52Z</time>
      </trkpt>
      <trkpt lat="43.0992880" lon="-5.8221260">
        <ele>403.4</ele>
        <time>2021-10-10T11:42:58Z</time>
      </trkpt>
      <trkpt lat="43.0992860" lon="-5.8221490">
        <ele>403.6</ele>
        <time>2021-10-10T11:42:59Z</time>
      </trkpt>
      <trkpt lat="43.0992800" lon="-5.8221860">
        <ele>403.8</ele>
        <time>2021-10-10T11:43:00Z</time>
      </trkpt>
      <trkpt lat="43.0992310" lon="-5.8224160">
        <ele>404.4</ele>
        <time>2021-10-10T11:43:08Z</time>
      </trkpt>
      <trkpt lat="43.0991920" lon="-5.8224970">
        <ele>404.8</ele>
        <time>2021-10-10T11:43:11Z</time>
      </trkpt>
      <trkpt lat="43.0991610" lon="-5.8225790">
        <ele>405.2</ele>
        <time>2021-10-10T11:43:14Z</time>
      </trkpt>
      <trkpt lat="43.0990890" lon="-5.8226780">
        <ele>405.8</ele>
        <time>2021-10-10T11:43:18Z</time>
      </trkpt>
      <trkpt lat="43.0990070" lon="-5.8227730">
        <ele>406.4</ele>
        <time>2021-10-10T11:43:22Z</time>
      </trkpt>
      <trkpt lat="43.0989170" lon="-5.8228700">
        <ele>407.0</ele>
        <time>2021-10-10T11:43:27Z</time>
      </trkpt>
      <trkpt lat="43.0988420" lon="-5.8229490">
        <ele>407.6</ele>
        <time>2021-10-10T11:43:31Z</time>
      </trkpt>
      <trkpt lat="43.0987260" lon="-5.8230480">
        <ele>408.2</ele>
        <time>2021-10-10T11:43:37Z</time>
      </trkpt>
      <trkpt lat="43.0987040" lon="-5.8230680">
        <ele>408.4</ele>
        <time>2021-10-10T11:43:38Z</time>
      </trkpt>
      <trkpt lat="43.0986470" lon="-5.8231260">
        <ele>408.8</ele>
        <time>2021-10-10T11:43:41Z</time>
      </trkpt>
      <trkpt lat="43.0986070" lon="-5.8231610">
        <ele>409.2</ele>
        <time>2021-10-10T11:43:43Z</time>
      </trkpt>
      <trkpt lat="43.0985020" lon="-5.8232470">
        <ele>409.8</ele>
        <time>2021-10-10T11:43:48Z</time>
      </trkpt>
      <trkpt lat="43.0984240" lon="-5.8233090">
        <ele>410.4</ele>
        <time>2021-10-10T11:43:52Z</time>
      </trkpt>
      <trkpt lat="43.0983000" lon="-5.8233900">
        <ele>410.8</ele>
        <time>2021-10-10T11:43:58Z</time>
      </trkpt>
      <trkpt lat="43.0981900" lon="-5.8234430">
        <ele>411.4</ele>
        <time>2021-10-10T11:44:03Z</time>
      </trkpt>
      <trkpt lat="43.0981440" lon="-5.8234730">
        <ele>411.6</ele>
        <time>2021-10-10T11:44:05Z</time>
      </trkpt>
      <trkpt lat="43.0981100" lon="-5.8234960">
        <ele>412.0</ele>
        <time>2021-10-10T11:44:07Z</time>
      </trkpt>
      <trkpt lat="43.0980000" lon="-5.8235600">
        <ele>412.4</ele>
        <time>2021-10-10T11:44:13Z</time>
      </trkpt>
      <trkpt lat="43.0979830" lon="-5.8235740">
        <ele>412.4</ele>
        <time>2021-10-10T11:44:14Z</time>
      </trkpt>
      <trkpt lat="43.0978450" lon="-5.8236560">
        <ele>413.2</ele>
        <time>2021-10-10T11:44:21Z</time>
      </trkpt>
      <trkpt lat="43.0978280" lon="-5.8236640">
        <ele>413.2</ele>
        <time>2021-10-10T11:44:22Z</time>
      </trkpt>
      <trkpt lat="43.0977860" lon="-5.8236840">
        <ele>413.4</ele>
        <time>2021-10-10T11:44:24Z</time>
      </trkpt>
      <trkpt lat="43.0977600" lon="-5.8236960">
        <ele>413.4</ele>
        <time>2021-10-10T11:44:25Z</time>
      </trkpt>
      <trkpt lat="43.0976610" lon="-5.8237540">
        <ele>414.0</ele>
        <time>2021-10-10T11:44:30Z</time>
      </trkpt>
      <trkpt lat="43.0975150" lon="-5.8238030">
        <ele>414.8</ele>
        <time>2021-10-10T11:44:36Z</time>
      </trkpt>
      <trkpt lat="43.0974160" lon="-5.8238400">
        <ele>415.0</ele>
        <time>2021-10-10T11:44:40Z</time>
      </trkpt>
      <trkpt lat="43.0971170" lon="-5.8239450">
        <ele>415.8</ele>
        <time>2021-10-10T11:44:50Z</time>
      </trkpt>
      <trkpt lat="43.0969210" lon="-5.8239810">
        <ele>416.0</ele>
        <time>2021-10-10T11:44:55Z</time>
      </trkpt>
      <trkpt lat="43.0968860" lon="-5.8239920">
        <ele>416.0</ele>
        <time>2021-10-10T11:44:56Z</time>
      </trkpt>
      <trkpt lat="43.0966530" lon="-5.8240160">
        <ele>416.0</ele>
        <time>2021-10-10T11:45:02Z</time>
      </trkpt>
      <trkpt lat="43.0964770" lon="-5.8239510">
        <ele>416.2</ele>
        <time>2021-10-10T11:45:07Z</time>
      </trkpt>
      <trkpt lat="43.0964080" lon="-5.8239230">
        <ele>416.2</ele>
        <time>2021-10-10T11:45:09Z</time>
      </trkpt>
      <trkpt lat="43.0963390" lon="-5.8238910">
        <ele>416.2</ele>
        <time>2021-10-10T11:45:11Z</time>
      </trkpt>
      <trkpt lat="43.0959900" lon="-5.8238130">
        <ele>416.2</ele>
        <time>2021-10-10T11:45:20Z</time>
      </trkpt>
      <trkpt lat="43.0959570" lon="-5.8238110">
        <ele>416.4</ele>
        <time>2021-10-10T11:45:21Z</time>
      </trkpt>
      <trkpt lat="43.0959070" lon="-5.8238070">
        <ele>416.4</ele>
        <time>2021-10-10T11:45:22Z</time>
      </trkpt>
      <trkpt lat="43.0957500" lon="-5.8238190">
        <ele>416.4</ele>
        <time>2021-10-10T11:45:26Z</time>
      </trkpt>
      <trkpt lat="43.0957070" lon="-5.8238230">
        <ele>416.6</ele>
        <time>2021-10-10T11:45:27Z</time>
      </trkpt>
      <trkpt lat="43.0954650" lon="-5.8238510">
        <ele>416.8</ele>
        <time>2021-10-10T11:45:33Z</time>
      </trkpt>
      <trkpt lat="43.0953400" lon="-5.8238590">
        <ele>416.8</ele>
        <time>2021-10-10T11:45:36Z</time>
      </trkpt>
      <trkpt lat="43.0952190" lon="-5.8238940">
        <ele>417.0</ele>
        <time>2021-10-10T11:45:39Z</time>
      </trkpt>
      <trkpt lat="43.0950630" lon="-5.8239320">
        <ele>417.0</ele>
        <time>2021-10-10T11:45:43Z</time>
      </trkpt>
      <trkpt lat="43.0949610" lon="-5.8239700">
        <ele>417.0</ele>
        <time>2021-10-10T11:45:46Z</time>
      </trkpt>
      <trkpt lat="43.0949270" lon="-5.8239870">
        <ele>417.2</ele>
        <time>2021-10-10T11:45:47Z</time>
      </trkpt>
      <trkpt lat="43.0948190" lon="-5.8240230">
        <ele>417.2</ele>
        <time>2021-10-10T11:45:50Z</time>
      </trkpt>
      <trkpt lat="43.0947840" lon="-5.8240370">
        <ele>417.2</ele>
        <time>2021-10-10T11:45:51Z</time>
      </trkpt>
      <trkpt lat="43.0945750" lon="-5.8241250">
        <ele>417.4</ele>
        <time>2021-10-10T11:45:57Z</time>
      </trkpt>
      <trkpt lat="43.0943250" lon="-5.8241970">
        <ele>417.8</ele>
        <time>2021-10-10T11:46:04Z</time>
      </trkpt>
      <trkpt lat="43.0942560" lon="-5.8242380">
        <ele>417.8</ele>
        <time>2021-10-10T11:46:06Z</time>
      </trkpt>
      <trkpt lat="43.0941540" lon="-5.8242890">
        <ele>418.0</ele>
        <time>2021-10-10T11:46:09Z</time>
      </trkpt>
      <trkpt lat="43.0940650" lon="-5.8243500">
        <ele>418.2</ele>
        <time>2021-10-10T11:46:12Z</time>
      </trkpt>
      <trkpt lat="43.0939520" lon="-5.8244290">
        <ele>418.6</ele>
        <time>2021-10-10T11:46:17Z</time>
      </trkpt>
      <trkpt lat="43.0937960" lon="-5.8244610">
        <ele>419.0</ele>
        <time>2021-10-10T11:46:22Z</time>
      </trkpt>
      <trkpt lat="43.0937670" lon="-5.8244790">
        <ele>419.2</ele>
        <time>2021-10-10T11:46:23Z</time>
      </trkpt>
      <trkpt lat="43.0936210" lon="-5.8245220">
        <ele>420.0</ele>
        <time>2021-10-10T11:46:28Z</time>
      </trkpt>
      <trkpt lat="43.0935930" lon="-5.8245220">
        <ele>420.2</ele>
        <time>2021-10-10T11:46:29Z</time>
      </trkpt>
      <trkpt lat="43.0933940" lon="-5.8244840">
        <ele>420.8</ele>
        <time>2021-10-10T11:46:35Z</time>
      </trkpt>
      <trkpt lat="43.0933660" lon="-5.8244700">
        <ele>421.0</ele>
        <time>2021-10-10T11:46:36Z</time>
      </trkpt>
      <trkpt lat="43.0931440" lon="-5.8243580">
        <ele>421.2</ele>
        <time>2021-10-10T11:46:42Z</time>
      </trkpt>
      <trkpt lat="43.0928730" lon="-5.8243640">
        <ele>421.4</ele>
        <time>2021-10-10T11:46:49Z</time>
      </trkpt>
      <trkpt lat="43.0928430" lon="-5.8243730">
        <ele>421.4</ele>
        <time>2021-10-10T11:46:50Z</time>
      </trkpt>
      <trkpt lat="43.0926100" lon="-5.8244490">
        <ele>422.2</ele>
        <time>2021-10-10T11:46:57Z</time>
      </trkpt>
      <trkpt lat="43.0925850" lon="-5.8244590">
        <ele>422.2</ele>
        <time>2021-10-10T11:46:58Z</time>
      </trkpt>
      <trkpt lat="43.0923810" lon="-5.8245080">
        <ele>422.8</ele>
        <time>2021-10-10T11:47:04Z</time>
      </trkpt>
      <trkpt lat="43.0921590" lon="-5.8245800">
        <ele>423.0</ele>
        <time>2021-10-10T11:47:10Z</time>
      </trkpt>
      <trkpt lat="43.0920730" lon="-5.8246090">
        <ele>423.0</ele>
        <time>2021-10-10T11:47:12Z</time>
      </trkpt>
      <trkpt lat="43.0919300" lon="-5.8246700">
        <ele>423.2</ele>
        <time>2021-10-10T11:47:16Z</time>
      </trkpt>
      <trkpt lat="43.0917040" lon="-5.8246820">
        <ele>423.6</ele>
        <time>2021-10-10T11:47:22Z</time>
      </trkpt>
      <trkpt lat="43.0916690" lon="-5.8247100">
        <ele>423.6</ele>
        <time>2021-10-10T11:47:23Z</time>
      </trkpt>
      <trkpt lat="43.0916360" lon="-5.8247330">
        <ele>423.8</ele>
        <time>2021-10-10T11:47:24Z</time>
      </trkpt>
      <trkpt lat="43.0915680" lon="-5.8247860">
        <ele>424.0</ele>
        <time>2021-10-10T11:47:26Z</time>
      </trkpt>
      <trkpt lat="43.0914830" lon="-5.8248770">
        <ele>424.0</ele>
        <time>2021-10-10T11:47:29Z</time>
      </trkpt>
      <trkpt lat="43.0914000" lon="-5.8249900">
        <ele>424.2</ele>
        <time>2021-10-10T11:47:32Z</time>
      </trkpt>
      <trkpt lat="43.0913730" lon="-5.8250210">
        <ele>424.2</ele>
        <time>2021-10-10T11:47:33Z</time>
      </trkpt>
      <trkpt lat="43.0913290" lon="-5.8250770">
        <ele>424.4</ele>
        <time>2021-10-10T11:47:35Z</time>
      </trkpt>
      <trkpt lat="43.0911170" lon="-5.8253440">
        <ele>425.0</ele>
        <time>2021-10-10T11:47:43Z</time>
      </trkpt>
      <trkpt lat="43.0909990" lon="-5.8254420">
        <ele>425.2</ele>
        <time>2021-10-10T11:47:47Z</time>
      </trkpt>
      <trkpt lat="43.0909370" lon="-5.8254750">
        <ele>425.2</ele>
        <time>2021-10-10T11:47:49Z</time>
      </trkpt>
      <trkpt lat="43.0907590" lon="-5.8255330">
        <ele>425.6</ele>
        <time>2021-10-10T11:47:54Z</time>
      </trkpt>
      <trkpt lat="43.0905990" lon="-5.8255710">
        <ele>425.8</ele>
        <time>2021-10-10T11:47:58Z</time>
      </trkpt>
      <trkpt lat="43.0904340" lon="-5.8255890">
        <ele>425.8</ele>
        <time>2021-10-10T11:48:02Z</time>
      </trkpt>
      <trkpt lat="43.0903910" lon="-5.8256090">
        <ele>425.8</ele>
        <time>2021-10-10T11:48:03Z</time>
      </trkpt>
      <trkpt lat="43.0903100" lon="-5.8256410">
        <ele>425.8</ele>
        <time>2021-10-10T11:48:05Z</time>
      </trkpt>
      <trkpt lat="43.0901420" lon="-5.8256670">
        <ele>426.0</ele>
        <time>2021-10-10T11:48:09Z</time>
      </trkpt>
      <trkpt lat="43.0900050" lon="-5.8257130">
        <ele>426.2</ele>
        <time>2021-10-10T11:48:12Z</time>
      </trkpt>
      <trkpt lat="43.0898310" lon="-5.8257490">
        <ele>426.2</ele>
        <time>2021-10-10T11:48:16Z</time>
      </trkpt>
      <trkpt lat="43.0897020" lon="-5.8257630">
        <ele>426.4</ele>
        <time>2021-10-10T11:48:19Z</time>
      </trkpt>
      <trkpt lat="43.0894020" lon="-5.8257690">
        <ele>426.6</ele>
        <time>2021-10-10T11:48:26Z</time>
      </trkpt>
      <trkpt lat="43.0891020" lon="-5.8257030">
        <ele>427.0</ele>
        <time>2021-10-10T11:48:33Z</time>
      </trkpt>
      <trkpt lat="43.0890150" lon="-5.8256860">
        <ele>427.0</ele>
        <time>2021-10-10T11:48:35Z</time>
      </trkpt>
      <trkpt lat="43.0889210" lon="-5.8256720">
        <ele>427.2</ele>
        <time>2021-10-10T11:48:37Z</time>
      </trkpt>
      <trkpt lat="43.0888260" lon="-5.8256540">
        <ele>427.2</ele>
        <time>2021-10-10T11:48:39Z</time>
      </trkpt>
      <trkpt lat="43.0886870" lon="-5.8256290">
        <ele>427.0</ele>
        <time>2021-10-10T11:48:42Z</time>
      </trkpt>
      <trkpt lat="43.0885860" lon="-5.8256450">
        <ele>427.0</ele>
        <time>2021-10-10T11:48:44Z</time>
      </trkpt>
      <trkpt lat="43.0883250" lon="-5.8257840">
        <ele>426.2</ele>
        <time>2021-10-10T11:48:49Z</time>
      </trkpt>
      <trkpt lat="43.0882700" lon="-5.8258280">
        <ele>426.0</ele>
        <time>2021-10-10T11:48:50Z</time>
      </trkpt>
      <trkpt lat="43.0882200" lon="-5.8258830">
        <ele>426.0</ele>
        <time>2021-10-10T11:48:51Z</time>
      </trkpt>
      <trkpt lat="43.0880440" lon="-5.8261460">
        <ele>425.2</ele>
        <time>2021-10-10T11:48:55Z</time>
      </trkpt>
      <trkpt lat="43.0880060" lon="-5.8262190">
        <ele>424.8</ele>
        <time>2021-10-10T11:48:56Z</time>
      </trkpt>
      <trkpt lat="43.0879270" lon="-5.8263580">
        <ele>424.6</ele>
        <time>2021-10-10T11:48:58Z</time>
      </trkpt>
      <trkpt lat="43.0878830" lon="-5.8264220">
        <ele>424.6</ele>
        <time>2021-10-10T11:48:59Z</time>
      </trkpt>
      <trkpt lat="43.0878340" lon="-5.8264820">
        <ele>424.2</ele>
        <time>2021-10-10T11:49:00Z</time>
      </trkpt>
      <trkpt lat="43.0877850" lon="-5.8265390">
        <ele>424.0</ele>
        <time>2021-10-10T11:49:01Z</time>
      </trkpt>
      <trkpt lat="43.0877360" lon="-5.8265960">
        <ele>423.6</ele>
        <time>2021-10-10T11:49:02Z</time>
      </trkpt>
      <trkpt lat="43.0875860" lon="-5.8267570">
        <ele>423.2</ele>
        <time>2021-10-10T11:49:05Z</time>
      </trkpt>
      <trkpt lat="43.0874400" lon="-5.8268970">
        <ele>423.2</ele>
        <time>2021-10-10T11:49:08Z</time>
      </trkpt>
      <trkpt lat="43.0873940" lon="-5.8269360">
        <ele>423.0</ele>
        <time>2021-10-10T11:49:09Z</time>
      </trkpt>
      <trkpt lat="43.0871770" lon="-5.8270970">
        <ele>422.8</ele>
        <time>2021-10-10T11:49:14Z</time>
      </trkpt>
      <trkpt lat="43.0871370" lon="-5.8271270">
        <ele>422.8</ele>
        <time>2021-10-10T11:49:15Z</time>
      </trkpt>
      <trkpt lat="43.0869010" lon="-5.8272760">
        <ele>423.2</ele>
        <time>2021-10-10T11:49:21Z</time>
      </trkpt>
      <trkpt lat="43.0868690" lon="-5.8272870">
        <ele>423.2</ele>
        <time>2021-10-10T11:49:22Z</time>
      </trkpt>
      <trkpt lat="43.0867080" lon="-5.8273510">
        <ele>423.6</ele>
        <time>2021-10-10T11:49:26Z</time>
      </trkpt>
      <trkpt lat="43.0866110" lon="-5.8274040">
        <ele>424.0</ele>
        <time>2021-10-10T11:49:29Z</time>
      </trkpt>
      <trkpt lat="43.0865780" lon="-5.8274250">
        <ele>424.2</ele>
        <time>2021-10-10T11:49:30Z</time>
      </trkpt>
      <trkpt lat="43.0864030" lon="-5.8275150">
        <ele>424.8</ele>
        <time>2021-10-10T11:49:35Z</time>
      </trkpt>
      <trkpt lat="43.0862940" lon="-5.8275740">
        <ele>425.0</ele>
        <time>2021-10-10T11:49:38Z</time>
      </trkpt>
      <trkpt lat="43.0861000" lon="-5.8276670">
        <ele>425.0</ele>
        <time>2021-10-10T11:49:43Z</time>
      </trkpt>
      <trkpt lat="43.0860290" lon="-5.8276990">
        <ele>425.2</ele>
        <time>2021-10-10T11:49:45Z</time>
      </trkpt>
      <trkpt lat="43.0859570" lon="-5.8277310">
        <ele>425.2</ele>
        <time>2021-10-10T11:49:47Z</time>
      </trkpt>
      <trkpt lat="43.0858830" lon="-5.8277640">
        <ele>425.6</ele>
        <time>2021-10-10T11:49:49Z</time>
      </trkpt>
      <trkpt lat="43.0857290" lon="-5.8278410">
        <ele>425.8</ele>
        <time>2021-10-10T11:49:53Z</time>
      </trkpt>
      <trkpt lat="43.0856580" lon="-5.8278850">
        <ele>425.8</ele>
        <time>2021-10-10T11:49:55Z</time>
      </trkpt>
      <trkpt lat="43.0856230" lon="-5.8279060">
        <ele>426.0</ele>
        <time>2021-10-10T11:49:56Z</time>
      </trkpt>
      <trkpt lat="43.0855150" lon="-5.8279630">
        <ele>426.0</ele>
        <time>2021-10-10T11:49:59Z</time>
      </trkpt>
      <trkpt lat="43.0852960" lon="-5.8280620">
        <ele>426.4</ele>
        <time>2021-10-10T11:50:05Z</time>
      </trkpt>
      <trkpt lat="43.0851880" lon="-5.8281120">
        <ele>426.4</ele>
        <time>2021-10-10T11:50:08Z</time>
      </trkpt>
      <trkpt lat="43.0851180" lon="-5.8281460">
        <ele>426.4</ele>
        <time>2021-10-10T11:50:10Z</time>
      </trkpt>
      <trkpt lat="43.0850450" lon="-5.8281720">
        <ele>426.6</ele>
        <time>2021-10-10T11:50:12Z</time>
      </trkpt>
      <trkpt lat="43.0848290" lon="-5.8282710">
        <ele>427.0</ele>
        <time>2021-10-10T11:50:18Z</time>
      </trkpt>
      <trkpt lat="43.0847940" lon="-5.8282900">
        <ele>427.0</ele>
        <time>2021-10-10T11:50:19Z</time>
      </trkpt>
      <trkpt lat="43.0846880" lon="-5.8283430">
        <ele>427.2</ele>
        <time>2021-10-10T11:50:22Z</time>
      </trkpt>
      <trkpt lat="43.0845870" lon="-5.8283990">
        <ele>427.6</ele>
        <time>2021-10-10T11:50:25Z</time>
      </trkpt>
      <trkpt lat="43.0845170" lon="-5.8284310">
        <ele>427.8</ele>
        <time>2021-10-10T11:50:27Z</time>
      </trkpt>
      <trkpt lat="43.0843770" lon="-5.8284950">
        <ele>428.2</ele>
        <time>2021-10-10T11:50:31Z</time>
      </trkpt>
      <trkpt lat="43.0841340" lon="-5.8286170">
        <ele>428.8</ele>
        <time>2021-10-10T11:50:38Z</time>
      </trkpt>
      <trkpt lat="43.0839940" lon="-5.8286900">
        <ele>429.4</ele>
        <time>2021-10-10T11:50:42Z</time>
      </trkpt>
      <trkpt lat="43.0837840" lon="-5.8287910">
        <ele>430.0</ele>
        <time>2021-10-10T11:50:48Z</time>
      </trkpt>
      <trkpt lat="43.0836150" lon="-5.8288780">
        <ele>430.4</ele>
        <time>2021-10-10T11:50:53Z</time>
      </trkpt>
      <trkpt lat="43.0833860" lon="-5.8289870">
        <ele>431.0</ele>
        <time>2021-10-10T11:51:00Z</time>
      </trkpt>
      <trkpt lat="43.0831950" lon="-5.8290810">
        <ele>431.2</ele>
        <time>2021-10-10T11:51:06Z</time>
      </trkpt>
      <trkpt lat="43.0831640" lon="-5.8290990">
        <ele>431.4</ele>
        <time>2021-10-10T11:51:07Z</time>
      </trkpt>
      <trkpt lat="43.0831350" lon="-5.8291140">
        <ele>431.4</ele>
        <time>2021-10-10T11:51:08Z</time>
      </trkpt>
      <trkpt lat="43.0830480" lon="-5.8291600">
        <ele>431.8</ele>
        <time>2021-10-10T11:51:11Z</time>
      </trkpt>
      <trkpt lat="43.0829030" lon="-5.8292300">
        <ele>432.2</ele>
        <time>2021-10-10T11:51:16Z</time>
      </trkpt>
      <trkpt lat="43.0828460" lon="-5.8292560">
        <ele>432.4</ele>
        <time>2021-10-10T11:51:18Z</time>
      </trkpt>
      <trkpt lat="43.0827910" lon="-5.8292860">
        <ele>432.6</ele>
        <time>2021-10-10T11:51:20Z</time>
      </trkpt>
      <trkpt lat="43.0826000" lon="-5.8293920">
        <ele>433.6</ele>
        <time>2021-10-10T11:51:27Z</time>
      </trkpt>
      <trkpt lat="43.0825710" lon="-5.8294030">
        <ele>433.6</ele>
        <time>2021-10-10T11:51:28Z</time>
      </trkpt>
      <trkpt lat="43.0823570" lon="-5.8295100">
        <ele>434.2</ele>
        <time>2021-10-10T11:51:36Z</time>
      </trkpt>
      <trkpt lat="43.0822460" lon="-5.8295640">
        <ele>434.6</ele>
        <time>2021-10-10T11:51:40Z</time>
      </trkpt>
      <trkpt lat="43.0821040" lon="-5.8296060">
        <ele>435.2</ele>
        <time>2021-10-10T11:51:45Z</time>
      </trkpt>
      <trkpt lat="43.0819620" lon="-5.8296440">
        <ele>435.6</ele>
        <time>2021-10-10T11:51:50Z</time>
      </trkpt>
      <trkpt lat="43.0818220" lon="-5.8296840">
        <ele>436.0</ele>
        <time>2021-10-10T11:51:55Z</time>
      </trkpt>
      <trkpt lat="43.0817950" lon="-5.8296920">
        <ele>436.2</ele>
        <time>2021-10-10T11:51:56Z</time>
      </trkpt>
      <trkpt lat="43.0817140" lon="-5.8297240">
        <ele>436.6</ele>
        <time>2021-10-10T11:51:59Z</time>
      </trkpt>
      <trkpt lat="43.0816250" lon="-5.8297390">
        <ele>437.4</ele>
        <time>2021-10-10T11:52:03Z</time>
      </trkpt>
      <trkpt lat="43.0816030" lon="-5.8297420">
        <ele>437.6</ele>
        <time>2021-10-10T11:52:04Z</time>
      </trkpt>
      <trkpt lat="43.0814980" lon="-5.8297590">
        <ele>438.0</ele>
        <time>2021-10-10T11:52:08Z</time>
      </trkpt>
      <trkpt lat="43.0813480" lon="-5.8297830">
        <ele>438.6</ele>
        <time>2021-10-10T11:52:14Z</time>
      </trkpt>
      <trkpt lat="43.0813270" lon="-5.8297890">
        <ele>438.8</ele>
        <time>2021-10-10T11:52:15Z</time>
      </trkpt>
      <trkpt lat="43.0811510" lon="-5.8298250">
        <ele>439.6</ele>
        <time>2021-10-10T11:52:22Z</time>
      </trkpt>
      <trkpt lat="43.0810720" lon="-5.8298380">
        <ele>439.8</ele>
        <time>2021-10-10T11:52:25Z</time>
      </trkpt>
      <trkpt lat="43.0809850" lon="-5.8298410">
        <ele>440.2</ele>
        <time>2021-10-10T11:52:28Z</time>
      </trkpt>
      <trkpt lat="43.0808780" lon="-5.8298690">
        <ele>440.4</ele>
        <time>2021-10-10T11:52:32Z</time>
      </trkpt>
      <trkpt lat="43.0808500" lon="-5.8298770">
        <ele>440.6</ele>
        <time>2021-10-10T11:52:33Z</time>
      </trkpt>
      <trkpt lat="43.0808160" lon="-5.8298790">
        <ele>440.6</ele>
        <time>2021-10-10T11:52:34Z</time>
      </trkpt>
      <trkpt lat="43.0807630" lon="-5.8299020">
        <ele>440.8</ele>
        <time>2021-10-10T11:52:36Z</time>
      </trkpt>
      <trkpt lat="43.0807330" lon="-5.8299050">
        <ele>441.0</ele>
        <time>2021-10-10T11:52:37Z</time>
      </trkpt>
      <trkpt lat="43.0806780" lon="-5.8299030">
        <ele>441.0</ele>
        <time>2021-10-10T11:52:39Z</time>
      </trkpt>
      <trkpt lat="43.0805160" lon="-5.8299190">
        <ele>441.6</ele>
        <time>2021-10-10T11:52:44Z</time>
      </trkpt>
      <trkpt lat="43.0803890" lon="-5.8299260">
        <ele>442.0</ele>
        <time>2021-10-10T11:52:48Z</time>
      </trkpt>
      <trkpt lat="43.0802850" lon="-5.8299670">
        <ele>442.4</ele>
        <time>2021-10-10T11:52:51Z</time>
      </trkpt>
      <trkpt lat="43.0801540" lon="-5.8300320">
        <ele>442.8</ele>
        <time>2021-10-10T11:52:55Z</time>
      </trkpt>
      <trkpt lat="43.0800620" lon="-5.8300790">
        <ele>443.0</ele>
        <time>2021-10-10T11:52:58Z</time>
      </trkpt>
      <trkpt lat="43.0800230" lon="-5.8300820">
        <ele>443.0</ele>
        <time>2021-10-10T11:52:59Z</time>
      </trkpt>
      <trkpt lat="43.0799890" lon="-5.8301030">
        <ele>443.2</ele>
        <time>2021-10-10T11:53:00Z</time>
      </trkpt>
      <trkpt lat="43.0799560" lon="-5.8301280">
        <ele>443.2</ele>
        <time>2021-10-10T11:53:01Z</time>
      </trkpt>
      <trkpt lat="43.0797660" lon="-5.8302570">
        <ele>443.2</ele>
        <time>2021-10-10T11:53:06Z</time>
      </trkpt>
      <trkpt lat="43.0796420" lon="-5.8302950">
        <ele>443.0</ele>
        <time>2021-10-10T11:53:09Z</time>
      </trkpt>
      <trkpt lat="43.0795280" lon="-5.8302960">
        <ele>442.8</ele>
        <time>2021-10-10T11:53:11Z</time>
      </trkpt>
      <trkpt lat="43.0793540" lon="-5.8302680">
        <ele>442.4</ele>
        <time>2021-10-10T11:53:14Z</time>
      </trkpt>
      <trkpt lat="43.0792930" lon="-5.8302570">
        <ele>442.0</ele>
        <time>2021-10-10T11:53:15Z</time>
      </trkpt>
      <trkpt lat="43.0792330" lon="-5.8302450">
        <ele>442.0</ele>
        <time>2021-10-10T11:53:16Z</time>
      </trkpt>
      <trkpt lat="43.0790370" lon="-5.8301950">
        <ele>441.0</ele>
        <time>2021-10-10T11:53:19Z</time>
      </trkpt>
      <trkpt lat="43.0788340" lon="-5.8301520">
        <ele>440.4</ele>
        <time>2021-10-10T11:53:22Z</time>
      </trkpt>
      <trkpt lat="43.0785710" lon="-5.8301030">
        <ele>439.6</ele>
        <time>2021-10-10T11:53:26Z</time>
      </trkpt>
      <trkpt lat="43.0784450" lon="-5.8301130">
        <ele>439.2</ele>
        <time>2021-10-10T11:53:28Z</time>
      </trkpt>
      <trkpt lat="43.0783870" lon="-5.8301260">
        <ele>439.2</ele>
        <time>2021-10-10T11:53:29Z</time>
      </trkpt>
      <trkpt lat="43.0781230" lon="-5.8301970">
        <ele>438.8</ele>
        <time>2021-10-10T11:53:34Z</time>
      </trkpt>
      <trkpt lat="43.0779740" lon="-5.8302580">
        <ele>439.0</ele>
        <time>2021-10-10T11:53:37Z</time>
      </trkpt>
      <trkpt lat="43.0779260" lon="-5.8302790">
        <ele>438.8</ele>
        <time>2021-10-10T11:53:38Z</time>
      </trkpt>
      <trkpt lat="43.0778280" lon="-5.8303400">
        <ele>439.0</ele>
        <time>2021-10-10T11:53:40Z</time>
      </trkpt>
      <trkpt lat="43.0776910" lon="-5.8304840">
        <ele>439.4</ele>
        <time>2021-10-10T11:53:44Z</time>
      </trkpt>
      <trkpt lat="43.0776260" lon="-5.8305540">
        <ele>439.6</ele>
        <time>2021-10-10T11:53:46Z</time>
      </trkpt>
      <trkpt lat="43.0775610" lon="-5.8306500">
        <ele>440.0</ele>
        <time>2021-10-10T11:53:49Z</time>
      </trkpt>
      <trkpt lat="43.0775310" lon="-5.8306680">
        <ele>440.2</ele>
        <time>2021-10-10T11:53:50Z</time>
      </trkpt>
      <trkpt lat="43.0775080" lon="-5.8306780">
        <ele>440.4</ele>
        <time>2021-10-10T11:53:51Z</time>
      </trkpt>
      <trkpt lat="43.0774800" lon="-5.8306980">
        <ele>440.6</ele>
        <time>2021-10-10T11:53:52Z</time>
      </trkpt>
      <trkpt lat="43.0774170" lon="-5.8307730">
        <ele>441.2</ele>
        <time>2021-10-10T11:53:55Z</time>
      </trkpt>
      <trkpt lat="43.0773920" lon="-5.8308040">
        <ele>441.4</ele>
        <time>2021-10-10T11:53:56Z</time>
      </trkpt>
      <trkpt lat="43.0773780" lon="-5.8308250">
        <ele>441.6</ele>
        <time>2021-10-10T11:53:57Z</time>
      </trkpt>
      <trkpt lat="43.0772210" lon="-5.8311550">
        <ele>442.6</ele>
        <time>2021-10-10T11:54:06Z</time>
      </trkpt>
      <trkpt lat="43.0771450" lon="-5.8312570">
        <ele>442.8</ele>
        <time>2021-10-10T11:54:09Z</time>
      </trkpt>
      <trkpt lat="43.0770370" lon="-5.8313260">
        <ele>443.0</ele>
        <time>2021-10-10T11:54:12Z</time>
      </trkpt>
      <trkpt lat="43.0768270" lon="-5.8313590">
        <ele>443.4</ele>
        <time>2021-10-10T11:54:17Z</time>
      </trkpt>
      <trkpt lat="43.0767860" lon="-5.8313640">
        <ele>443.2</ele>
        <time>2021-10-10T11:54:18Z</time>
      </trkpt>
      <trkpt lat="43.0767430" lon="-5.8313630">
        <ele>443.0</ele>
        <time>2021-10-10T11:54:19Z</time>
      </trkpt>
      <trkpt lat="43.0764950" lon="-5.8313710">
        <ele>443.0</ele>
        <time>2021-10-10T11:54:25Z</time>
      </trkpt>
      <trkpt lat="43.0764640" lon="-5.8313740">
        <ele>443.0</ele>
        <time>2021-10-10T11:54:26Z</time>
      </trkpt>
      <trkpt lat="43.0761910" lon="-5.8313410">
        <ele>443.8</ele>
        <time>2021-10-10T11:54:33Z</time>
      </trkpt>
      <trkpt lat="43.0760820" lon="-5.8313060">
        <ele>444.0</ele>
        <time>2021-10-10T11:54:36Z</time>
      </trkpt>
      <trkpt lat="43.0760100" lon="-5.8312950">
        <ele>444.2</ele>
        <time>2021-10-10T11:54:38Z</time>
      </trkpt>
      <trkpt lat="43.0759740" lon="-5.8312860">
        <ele>444.2</ele>
        <time>2021-10-10T11:54:39Z</time>
      </trkpt>
      <trkpt lat="43.0758680" lon="-5.8312500">
        <ele>444.6</ele>
        <time>2021-10-10T11:54:42Z</time>
      </trkpt>
      <trkpt lat="43.0758320" lon="-5.8312400">
        <ele>444.6</ele>
        <time>2021-10-10T11:54:43Z</time>
      </trkpt>
      <trkpt lat="43.0757960" lon="-5.8312250">
        <ele>444.8</ele>
        <time>2021-10-10T11:54:44Z</time>
      </trkpt>
      <trkpt lat="43.0756670" lon="-5.8311680">
        <ele>445.0</ele>
        <time>2021-10-10T11:54:48Z</time>
      </trkpt>
      <trkpt lat="43.0756010" lon="-5.8311330">
        <ele>445.2</ele>
        <time>2021-10-10T11:54:50Z</time>
      </trkpt>
      <trkpt lat="43.0755670" lon="-5.8311170">
        <ele>445.2</ele>
        <time>2021-10-10T11:54:51Z</time>
      </trkpt>
      <trkpt lat="43.0754300" lon="-5.8310570">
        <ele>445.6</ele>
        <time>2021-10-10T11:54:55Z</time>
      </trkpt>
      <trkpt lat="43.0754020" lon="-5.8310440">
        <ele>445.4</ele>
        <time>2021-10-10T11:54:56Z</time>
      </trkpt>
      <trkpt lat="43.0753280" lon="-5.8310050">
        <ele>445.6</ele>
        <time>2021-10-10T11:54:58Z</time>
      </trkpt>
      <trkpt lat="43.0751530" lon="-5.8309200">
        <ele>446.2</ele>
        <time>2021-10-10T11:55:03Z</time>
      </trkpt>
      <trkpt lat="43.0748900" lon="-5.8307590">
        <ele>446.6</ele>
        <time>2021-10-10T11:55:11Z</time>
      </trkpt>
      <trkpt lat="43.0748320" lon="-5.8307030">
        <ele>446.8</ele>
        <time>2021-10-10T11:55:13Z</time>
      </trkpt>
      <trkpt lat="43.0746930" lon="-5.8305740">
        <ele>447.0</ele>
        <time>2021-10-10T11:55:18Z</time>
      </trkpt>
      <trkpt lat="43.0745000" lon="-5.8305620">
        <ele>447.4</ele>
        <time>2021-10-10T11:55:24Z</time>
      </trkpt>
      <trkpt lat="43.0744410" lon="-5.8305810">
        <ele>447.6</ele>
        <time>2021-10-10T11:55:26Z</time>
      </trkpt>
      <trkpt lat="43.0743710" lon="-5.8305980">
        <ele>447.8</ele>
        <time>2021-10-10T11:55:28Z</time>
      </trkpt>
      <trkpt lat="43.0741270" lon="-5.8306890">
        <ele>448.6</ele>
        <time>2021-10-10T11:55:35Z</time>
      </trkpt>
      <trkpt lat="43.0738680" lon="-5.8307590">
        <ele>449.0</ele>
        <time>2021-10-10T11:55:42Z</time>
      </trkpt>
      <trkpt lat="43.0738310" lon="-5.8307630">
        <ele>449.2</ele>
        <time>2021-10-10T11:55:43Z</time>
      </trkpt>
      <trkpt lat="43.0737930" lon="-5.8307610">
        <ele>449.4</ele>
        <time>2021-10-10T11:55:44Z</time>
      </trkpt>
      <trkpt lat="43.0736600" lon="-5.8307740">
        <ele>449.8</ele>
        <time>2021-10-10T11:55:48Z</time>
      </trkpt>
      <trkpt lat="43.0735900" lon="-5.8307900">
        <ele>449.8</ele>
        <time>2021-10-10T11:55:50Z</time>
      </trkpt>
      <trkpt lat="43.0735220" lon="-5.8308050">
        <ele>450.0</ele>
        <time>2021-10-10T11:55:52Z</time>
      </trkpt>
      <trkpt lat="43.0734500" lon="-5.8308240">
        <ele>450.2</ele>
        <time>2021-10-10T11:55:54Z</time>
      </trkpt>
      <trkpt lat="43.0733110" lon="-5.8308430">
        <ele>450.4</ele>
        <time>2021-10-10T11:55:58Z</time>
      </trkpt>
      <trkpt lat="43.0732130" lon="-5.8308890">
        <ele>450.6</ele>
        <time>2021-10-10T11:56:01Z</time>
      </trkpt>
      <trkpt lat="43.0731500" lon="-5.8309030">
        <ele>450.8</ele>
        <time>2021-10-10T11:56:03Z</time>
      </trkpt>
      <trkpt lat="43.0729250" lon="-5.8310160">
        <ele>451.6</ele>
        <time>2021-10-10T11:56:10Z</time>
      </trkpt>
      <trkpt lat="43.0728230" lon="-5.8310530">
        <ele>451.8</ele>
        <time>2021-10-10T11:56:13Z</time>
      </trkpt>
      <trkpt lat="43.0727490" lon="-5.8310570">
        <ele>452.0</ele>
        <time>2021-10-10T11:56:15Z</time>
      </trkpt>
      <trkpt lat="43.0726790" lon="-5.8310410">
        <ele>452.2</ele>
        <time>2021-10-10T11:56:17Z</time>
      </trkpt>
      <trkpt lat="43.0726070" lon="-5.8310180">
        <ele>452.4</ele>
        <time>2021-10-10T11:56:19Z</time>
      </trkpt>
      <trkpt lat="43.0724180" lon="-5.8309640">
        <ele>452.8</ele>
        <time>2021-10-10T11:56:24Z</time>
      </trkpt>
      <trkpt lat="43.0723810" lon="-5.8309520">
        <ele>452.8</ele>
        <time>2021-10-10T11:56:25Z</time>
      </trkpt>
      <trkpt lat="43.0723450" lon="-5.8309380">
        <ele>452.8</ele>
        <time>2021-10-10T11:56:26Z</time>
      </trkpt>
      <trkpt lat="43.0722350" lon="-5.8309030">
        <ele>453.0</ele>
        <time>2021-10-10T11:56:29Z</time>
      </trkpt>
      <trkpt lat="43.0721990" lon="-5.8308910">
        <ele>453.2</ele>
        <time>2021-10-10T11:56:30Z</time>
      </trkpt>
      <trkpt lat="43.0721640" lon="-5.8308740">
        <ele>453.2</ele>
        <time>2021-10-10T11:56:31Z</time>
      </trkpt>
      <trkpt lat="43.0720960" lon="-5.8308380">
        <ele>453.2</ele>
        <time>2021-10-10T11:56:33Z</time>
      </trkpt>
      <trkpt lat="43.0720650" lon="-5.8308190">
        <ele>453.4</ele>
        <time>2021-10-10T11:56:34Z</time>
      </trkpt>
      <trkpt lat="43.0720070" lon="-5.8307790">
        <ele>453.6</ele>
        <time>2021-10-10T11:56:36Z</time>
      </trkpt>
      <trkpt lat="43.0719490" lon="-5.8307370">
        <ele>453.8</ele>
        <time>2021-10-10T11:56:38Z</time>
      </trkpt>
      <trkpt lat="43.0718860" lon="-5.8306860">
        <ele>454.0</ele>
        <time>2021-10-10T11:56:40Z</time>
      </trkpt>
      <trkpt lat="43.0718000" lon="-5.8306210">
        <ele>454.2</ele>
        <time>2021-10-10T11:56:43Z</time>
      </trkpt>
      <trkpt lat="43.0717090" lon="-5.8305710">
        <ele>454.6</ele>
        <time>2021-10-10T11:56:46Z</time>
      </trkpt>
      <trkpt lat="43.0715200" lon="-5.8305060">
        <ele>455.0</ele>
        <time>2021-10-10T11:56:52Z</time>
      </trkpt>
      <trkpt lat="43.0713780" lon="-5.8304270">
        <ele>455.6</ele>
        <time>2021-10-10T11:56:57Z</time>
      </trkpt>
      <trkpt lat="43.0713470" lon="-5.8304240">
        <ele>455.8</ele>
        <time>2021-10-10T11:56:58Z</time>
      </trkpt>
      <trkpt lat="43.0712550" lon="-5.8304110">
        <ele>456.2</ele>
        <time>2021-10-10T11:57:01Z</time>
      </trkpt>
      <trkpt lat="43.0710680" lon="-5.8303820">
        <ele>456.8</ele>
        <time>2021-10-10T11:57:07Z</time>
      </trkpt>
      <trkpt lat="43.0709760" lon="-5.8303660">
        <ele>457.2</ele>
        <time>2021-10-10T11:57:10Z</time>
      </trkpt>
      <trkpt lat="43.0707710" lon="-5.8303250">
        <ele>458.0</ele>
        <time>2021-10-10T11:57:17Z</time>
      </trkpt>
      <trkpt lat="43.0707420" lon="-5.8303220">
        <ele>458.0</ele>
        <time>2021-10-10T11:57:18Z</time>
      </trkpt>
      <trkpt lat="43.0707140" lon="-5.8303200">
        <ele>458.2</ele>
        <time>2021-10-10T11:57:19Z</time>
      </trkpt>
      <trkpt lat="43.0706020" lon="-5.8302830">
        <ele>458.6</ele>
        <time>2021-10-10T11:57:23Z</time>
      </trkpt>
      <trkpt lat="43.0705700" lon="-5.8302740">
        <ele>458.8</ele>
        <time>2021-10-10T11:57:24Z</time>
      </trkpt>
      <trkpt lat="43.0705400" lon="-5.8302730">
        <ele>458.8</ele>
        <time>2021-10-10T11:57:25Z</time>
      </trkpt>
      <trkpt lat="43.0705100" lon="-5.8302740">
        <ele>459.0</ele>
        <time>2021-10-10T11:57:26Z</time>
      </trkpt>
      <trkpt lat="43.0702850" lon="-5.8302460">
        <ele>459.8</ele>
        <time>2021-10-10T11:57:33Z</time>
      </trkpt>
      <trkpt lat="43.0701850" lon="-5.8302220">
        <ele>460.0</ele>
        <time>2021-10-10T11:57:36Z</time>
      </trkpt>
      <trkpt lat="43.0700630" lon="-5.8301620">
        <ele>460.4</ele>
        <time>2021-10-10T11:57:40Z</time>
      </trkpt>
      <trkpt lat="43.0698560" lon="-5.8299980">
        <ele>461.0</ele>
        <time>2021-10-10T11:57:47Z</time>
      </trkpt>
      <trkpt lat="43.0698330" lon="-5.8299820">
        <ele>461.2</ele>
        <time>2021-10-10T11:57:48Z</time>
      </trkpt>
      <trkpt lat="43.0695460" lon="-5.8297200">
        <ele>461.8</ele>
        <time>2021-10-10T11:57:58Z</time>
      </trkpt>
      <trkpt lat="43.0694090" lon="-5.8296350">
        <ele>461.8</ele>
        <time>2021-10-10T11:58:03Z</time>
      </trkpt>
      <trkpt lat="43.0693720" lon="-5.8296220">
        <ele>462.0</ele>
        <time>2021-10-10T11:58:04Z</time>
      </trkpt>
      <trkpt lat="43.0693410" lon="-5.8296200">
        <ele>462.0</ele>
        <time>2021-10-10T11:58:05Z</time>
      </trkpt>
      <trkpt lat="43.0691790" lon="-5.8295930">
        <ele>462.4</ele>
        <time>2021-10-10T11:58:10Z</time>
      </trkpt>
      <trkpt lat="43.0691450" lon="-5.8295980">
        <ele>462.6</ele>
        <time>2021-10-10T11:58:11Z</time>
      </trkpt>
      <trkpt lat="43.0689700" lon="-5.8296710">
        <ele>462.8</ele>
        <time>2021-10-10T11:58:16Z</time>
      </trkpt>
      <trkpt lat="43.0688700" lon="-5.8297210">
        <ele>463.0</ele>
        <time>2021-10-10T11:58:19Z</time>
      </trkpt>
      <trkpt lat="43.0688300" lon="-5.8297370">
        <ele>463.0</ele>
        <time>2021-10-10T11:58:20Z</time>
      </trkpt>
      <trkpt lat="43.0687920" lon="-5.8297540">
        <ele>463.0</ele>
        <time>2021-10-10T11:58:21Z</time>
      </trkpt>
      <trkpt lat="43.0687190" lon="-5.8297840">
        <ele>463.2</ele>
        <time>2021-10-10T11:58:23Z</time>
      </trkpt>
      <trkpt lat="43.0684960" lon="-5.8298640">
        <ele>463.4</ele>
        <time>2021-10-10T11:58:29Z</time>
      </trkpt>
      <trkpt lat="43.0684600" lon="-5.8298820">
        <ele>463.4</ele>
        <time>2021-10-10T11:58:30Z</time>
      </trkpt>
      <trkpt lat="43.0681550" lon="-5.8299470">
        <ele>464.0</ele>
        <time>2021-10-10T11:58:39Z</time>
      </trkpt>
      <trkpt lat="43.0680880" lon="-5.8299380">
        <ele>464.0</ele>
        <time>2021-10-10T11:58:41Z</time>
      </trkpt>
      <trkpt lat="43.0679840" lon="-5.8299080">
        <ele>464.2</ele>
        <time>2021-10-10T11:58:44Z</time>
      </trkpt>
      <trkpt lat="43.0678740" lon="-5.8298870">
        <ele>464.4</ele>
        <time>2021-10-10T11:58:47Z</time>
      </trkpt>
      <trkpt lat="43.0677970" lon="-5.8298760">
        <ele>464.4</ele>
        <time>2021-10-10T11:58:49Z</time>
      </trkpt>
      <trkpt lat="43.0676090" lon="-5.8298290">
        <ele>464.6</ele>
        <time>2021-10-10T11:58:54Z</time>
      </trkpt>
      <trkpt lat="43.0674800" lon="-5.8297320">
        <ele>464.8</ele>
        <time>2021-10-10T11:58:58Z</time>
      </trkpt>
      <trkpt lat="43.0674030" lon="-5.8296370">
        <ele>464.8</ele>
        <time>2021-10-10T11:59:01Z</time>
      </trkpt>
      <trkpt lat="43.0673570" lon="-5.8295800">
        <ele>464.8</ele>
        <time>2021-10-10T11:59:03Z</time>
      </trkpt>
      <trkpt lat="43.0673120" lon="-5.8295300">
        <ele>465.0</ele>
        <time>2021-10-10T11:59:05Z</time>
      </trkpt>
      <trkpt lat="43.0672880" lon="-5.8295010">
        <ele>465.0</ele>
        <time>2021-10-10T11:59:06Z</time>
      </trkpt>
      <trkpt lat="43.0672090" lon="-5.8294390">
        <ele>465.2</ele>
        <time>2021-10-10T11:59:09Z</time>
      </trkpt>
      <trkpt lat="43.0671220" lon="-5.8293790">
        <ele>465.4</ele>
        <time>2021-10-10T11:59:12Z</time>
      </trkpt>
      <trkpt lat="43.0669700" lon="-5.8293480">
        <ele>465.6</ele>
        <time>2021-10-10T11:59:17Z</time>
      </trkpt>
      <trkpt lat="43.0668910" lon="-5.8293670">
        <ele>466.0</ele>
        <time>2021-10-10T11:59:20Z</time>
      </trkpt>
      <trkpt lat="43.0668680" lon="-5.8293850">
        <ele>466.0</ele>
        <time>2021-10-10T11:59:21Z</time>
      </trkpt>
      <trkpt lat="43.0667900" lon="-5.8294400">
        <ele>466.8</ele>
        <time>2021-10-10T11:59:25Z</time>
      </trkpt>
      <trkpt lat="43.0667510" lon="-5.8294650">
        <ele>467.0</ele>
        <time>2021-10-10T11:59:27Z</time>
      </trkpt>
      <trkpt lat="43.0667180" lon="-5.8294860">
        <ele>467.2</ele>
        <time>2021-10-10T11:59:28Z</time>
      </trkpt>
      <trkpt lat="43.0665740" lon="-5.8295750">
        <ele>467.8</ele>
        <time>2021-10-10T11:59:33Z</time>
      </trkpt>
      <trkpt lat="43.0665450" lon="-5.8295930">
        <ele>468.0</ele>
        <time>2021-10-10T11:59:34Z</time>
      </trkpt>
      <trkpt lat="43.0664870" lon="-5.8296120">
        <ele>468.4</ele>
        <time>2021-10-10T11:59:36Z</time>
      </trkpt>
      <trkpt lat="43.0664290" lon="-5.8296190">
        <ele>468.6</ele>
        <time>2021-10-10T11:59:38Z</time>
      </trkpt>
      <trkpt lat="43.0663700" lon="-5.8296220">
        <ele>468.8</ele>
        <time>2021-10-10T11:59:40Z</time>
      </trkpt>
      <trkpt lat="43.0663390" lon="-5.8296190">
        <ele>469.0</ele>
        <time>2021-10-10T11:59:41Z</time>
      </trkpt>
      <trkpt lat="43.0662450" lon="-5.8295920">
        <ele>469.2</ele>
        <time>2021-10-10T11:59:44Z</time>
      </trkpt>
      <trkpt lat="43.0662140" lon="-5.8295780">
        <ele>469.4</ele>
        <time>2021-10-10T11:59:45Z</time>
      </trkpt>
      <trkpt lat="43.0661550" lon="-5.8295310">
        <ele>469.4</ele>
        <time>2021-10-10T11:59:47Z</time>
      </trkpt>
      <trkpt lat="43.0659100" lon="-5.8292690">
        <ele>470.2</ele>
        <time>2021-10-10T11:59:56Z</time>
      </trkpt>
      <trkpt lat="43.0658780" lon="-5.8292480">
        <ele>470.2</ele>
        <time>2021-10-10T11:59:57Z</time>
      </trkpt>
      <trkpt lat="43.0657100" lon="-5.8291860">
        <ele>470.4</ele>
        <time>2021-10-10T12:00:02Z</time>
      </trkpt>
      <trkpt lat="43.0656190" lon="-5.8291700">
        <ele>470.4</ele>
        <time>2021-10-10T12:00:05Z</time>
      </trkpt>
      <trkpt lat="43.0655480" lon="-5.8291260">
        <ele>470.6</ele>
        <time>2021-10-10T12:00:08Z</time>
      </trkpt>
      <trkpt lat="43.0654620" lon="-5.8290940">
        <ele>470.8</ele>
        <time>2021-10-10T12:00:11Z</time>
      </trkpt>
      <trkpt lat="43.0654080" lon="-5.8290630">
        <ele>471.0</ele>
        <time>2021-10-10T12:00:13Z</time>
      </trkpt>
      <trkpt lat="43.0653870" lon="-5.8290520">
        <ele>471.2</ele>
        <time>2021-10-10T12:00:14Z</time>
      </trkpt>
      <trkpt lat="43.0653530" lon="-5.8290170">
        <ele>471.4</ele>
        <time>2021-10-10T12:00:16Z</time>
      </trkpt>
      <trkpt lat="43.0653100" lon="-5.8289880">
        <ele>471.6</ele>
        <time>2021-10-10T12:00:18Z</time>
      </trkpt>
      <trkpt lat="43.0652390" lon="-5.8289510">
        <ele>472.0</ele>
        <time>2021-10-10T12:00:21Z</time>
      </trkpt>
      <trkpt lat="43.0652120" lon="-5.8289470">
        <ele>472.0</ele>
        <time>2021-10-10T12:00:22Z</time>
      </trkpt>
      <trkpt lat="43.0651540" lon="-5.8289240">
        <ele>472.0</ele>
        <time>2021-10-10T12:00:24Z</time>
      </trkpt>
      <trkpt lat="43.0651330" lon="-5.8289130">
        <ele>472.2</ele>
        <time>2021-10-10T12:00:25Z</time>
      </trkpt>
      <trkpt lat="43.0651050" lon="-5.8288980">
        <ele>472.4</ele>
        <time>2021-10-10T12:00:26Z</time>
      </trkpt>
      <trkpt lat="43.0650530" lon="-5.8288890">
        <ele>472.6</ele>
        <time>2021-10-10T12:00:28Z</time>
      </trkpt>
      <trkpt lat="43.0650030" lon="-5.8288830">
        <ele>473.0</ele>
        <time>2021-10-10T12:00:30Z</time>
      </trkpt>
      <trkpt lat="43.0649710" lon="-5.8288840">
        <ele>473.0</ele>
        <time>2021-10-10T12:00:31Z</time>
      </trkpt>
      <trkpt lat="43.0649410" lon="-5.8288970">
        <ele>473.2</ele>
        <time>2021-10-10T12:00:32Z</time>
      </trkpt>
      <trkpt lat="43.0649130" lon="-5.8289040">
        <ele>473.4</ele>
        <time>2021-10-10T12:00:33Z</time>
      </trkpt>
      <trkpt lat="43.0648560" lon="-5.8289070">
        <ele>473.6</ele>
        <time>2021-10-10T12:00:35Z</time>
      </trkpt>
      <trkpt lat="43.0647180" lon="-5.8289050">
        <ele>474.4</ele>
        <time>2021-10-10T12:00:40Z</time>
      </trkpt>
      <trkpt lat="43.0646960" lon="-5.8289010">
        <ele>474.6</ele>
        <time>2021-10-10T12:00:41Z</time>
      </trkpt>
      <trkpt lat="43.0645940" lon="-5.8289430">
        <ele>475.0</ele>
        <time>2021-10-10T12:00:45Z</time>
      </trkpt>
      <trkpt lat="43.0645090" lon="-5.8289800">
        <ele>475.6</ele>
        <time>2021-10-10T12:00:48Z</time>
      </trkpt>
      <trkpt lat="43.0643130" lon="-5.8290620">
        <ele>476.4</ele>
        <time>2021-10-10T12:00:55Z</time>
      </trkpt>
      <trkpt lat="43.0642530" lon="-5.8290930">
        <ele>476.4</ele>
        <time>2021-10-10T12:00:57Z</time>
      </trkpt>
      <trkpt lat="43.0642260" lon="-5.8291090">
        <ele>476.6</ele>
        <time>2021-10-10T12:00:58Z</time>
      </trkpt>
      <trkpt lat="43.0641740" lon="-5.8291430">
        <ele>476.8</ele>
        <time>2021-10-10T12:01:00Z</time>
      </trkpt>
      <trkpt lat="43.0641450" lon="-5.8291620">
        <ele>476.8</ele>
        <time>2021-10-10T12:01:01Z</time>
      </trkpt>
      <trkpt lat="43.0641160" lon="-5.8291820">
        <ele>477.0</ele>
        <time>2021-10-10T12:01:02Z</time>
      </trkpt>
      <trkpt lat="43.0640840" lon="-5.8292060">
        <ele>477.0</ele>
        <time>2021-10-10T12:01:03Z</time>
      </trkpt>
      <trkpt lat="43.0640300" lon="-5.8292480">
        <ele>477.0</ele>
        <time>2021-10-10T12:01:05Z</time>
      </trkpt>
      <trkpt lat="43.0640050" lon="-5.8292650">
        <ele>477.0</ele>
        <time>2021-10-10T12:01:06Z</time>
      </trkpt>
      <trkpt lat="43.0639570" lon="-5.8293060">
        <ele>477.2</ele>
        <time>2021-10-10T12:01:08Z</time>
      </trkpt>
      <trkpt lat="43.0638490" lon="-5.8293960">
        <ele>477.0</ele>
        <time>2021-10-10T12:01:12Z</time>
      </trkpt>
      <trkpt lat="43.0637890" lon="-5.8294400">
        <ele>477.0</ele>
        <time>2021-10-10T12:01:14Z</time>
      </trkpt>
      <trkpt lat="43.0636220" lon="-5.8295680">
        <ele>477.0</ele>
        <time>2021-10-10T12:01:19Z</time>
      </trkpt>
      <trkpt lat="43.0635530" lon="-5.8296040">
        <ele>477.0</ele>
        <time>2021-10-10T12:01:21Z</time>
      </trkpt>
      <trkpt lat="43.0634090" lon="-5.8296550">
        <ele>477.0</ele>
        <time>2021-10-10T12:01:25Z</time>
      </trkpt>
      <trkpt lat="43.0633720" lon="-5.8296540">
        <ele>477.0</ele>
        <time>2021-10-10T12:01:26Z</time>
      </trkpt>
      <trkpt lat="43.0632320" lon="-5.8295490">
        <ele>477.2</ele>
        <time>2021-10-10T12:01:30Z</time>
      </trkpt>
      <trkpt lat="43.0631560" lon="-5.8294030">
        <ele>477.0</ele>
        <time>2021-10-10T12:01:33Z</time>
      </trkpt>
      <trkpt lat="43.0631400" lon="-5.8293480">
        <ele>477.0</ele>
        <time>2021-10-10T12:01:34Z</time>
      </trkpt>
      <trkpt lat="43.0631290" lon="-5.8292930">
        <ele>477.0</ele>
        <time>2021-10-10T12:01:35Z</time>
      </trkpt>
      <trkpt lat="43.0631190" lon="-5.8291810">
        <ele>477.0</ele>
        <time>2021-10-10T12:01:37Z</time>
      </trkpt>
      <trkpt lat="43.0631130" lon="-5.8290630">
        <ele>477.0</ele>
        <time>2021-10-10T12:01:39Z</time>
      </trkpt>
      <trkpt lat="43.0630860" lon="-5.8289520">
        <ele>476.8</ele>
        <time>2021-10-10T12:01:41Z</time>
      </trkpt>
      <trkpt lat="43.0630240" lon="-5.8288090">
        <ele>476.8</ele>
        <time>2021-10-10T12:01:44Z</time>
      </trkpt>
      <trkpt lat="43.0629600" lon="-5.8286600">
        <ele>476.8</ele>
        <time>2021-10-10T12:01:47Z</time>
      </trkpt>
      <trkpt lat="43.0629330" lon="-5.8286190">
        <ele>476.8</ele>
        <time>2021-10-10T12:01:48Z</time>
      </trkpt>
      <trkpt lat="43.0628140" lon="-5.8285150">
        <ele>476.8</ele>
        <time>2021-10-10T12:01:52Z</time>
      </trkpt>
      <trkpt lat="43.0627810" lon="-5.8284950">
        <ele>476.8</ele>
        <time>2021-10-10T12:01:53Z</time>
      </trkpt>
      <trkpt lat="43.0627500" lon="-5.8284750">
        <ele>477.0</ele>
        <time>2021-10-10T12:01:54Z</time>
      </trkpt>
      <trkpt lat="43.0627210" lon="-5.8284570">
        <ele>477.0</ele>
        <time>2021-10-10T12:01:55Z</time>
      </trkpt>
      <trkpt lat="43.0626890" lon="-5.8284400">
        <ele>477.0</ele>
        <time>2021-10-10T12:01:56Z</time>
      </trkpt>
      <trkpt lat="43.0626290" lon="-5.8284100">
        <ele>477.4</ele>
        <time>2021-10-10T12:01:58Z</time>
      </trkpt>
      <trkpt lat="43.0626010" lon="-5.8283980">
        <ele>477.6</ele>
        <time>2021-10-10T12:01:59Z</time>
      </trkpt>
      <trkpt lat="43.0625680" lon="-5.8283880">
        <ele>477.8</ele>
        <time>2021-10-10T12:02:00Z</time>
      </trkpt>
      <trkpt lat="43.0625040" lon="-5.8283790">
        <ele>478.0</ele>
        <time>2021-10-10T12:02:02Z</time>
      </trkpt>
      <trkpt lat="43.0623830" lon="-5.8283600">
        <ele>478.6</ele>
        <time>2021-10-10T12:02:06Z</time>
      </trkpt>
      <trkpt lat="43.0623520" lon="-5.8283540">
        <ele>478.8</ele>
        <time>2021-10-10T12:02:07Z</time>
      </trkpt>
      <trkpt lat="43.0622890" lon="-5.8283430">
        <ele>479.0</ele>
        <time>2021-10-10T12:02:09Z</time>
      </trkpt>
      <trkpt lat="43.0622610" lon="-5.8283430">
        <ele>479.2</ele>
        <time>2021-10-10T12:02:10Z</time>
      </trkpt>
      <trkpt lat="43.0620750" lon="-5.8283350">
        <ele>479.8</ele>
        <time>2021-10-10T12:02:16Z</time>
      </trkpt>
      <trkpt lat="43.0620170" lon="-5.8283320">
        <ele>480.2</ele>
        <time>2021-10-10T12:02:18Z</time>
      </trkpt>
      <trkpt lat="43.0619600" lon="-5.8283270">
        <ele>480.4</ele>
        <time>2021-10-10T12:02:20Z</time>
      </trkpt>
      <trkpt lat="43.0619070" lon="-5.8283270">
        <ele>480.6</ele>
        <time>2021-10-10T12:02:22Z</time>
      </trkpt>
      <trkpt lat="43.0618520" lon="-5.8283230">
        <ele>480.8</ele>
        <time>2021-10-10T12:02:24Z</time>
      </trkpt>
      <trkpt lat="43.0617660" lon="-5.8283280">
        <ele>481.0</ele>
        <time>2021-10-10T12:02:27Z</time>
      </trkpt>
      <trkpt lat="43.0616800" lon="-5.8283240">
        <ele>481.4</ele>
        <time>2021-10-10T12:02:30Z</time>
      </trkpt>
      <trkpt lat="43.0616250" lon="-5.8283320">
        <ele>481.4</ele>
        <time>2021-10-10T12:02:32Z</time>
      </trkpt>
      <trkpt lat="43.0615490" lon="-5.8283640">
        <ele>481.6</ele>
        <time>2021-10-10T12:02:35Z</time>
      </trkpt>
      <trkpt lat="43.0615200" lon="-5.8283910">
        <ele>481.8</ele>
        <time>2021-10-10T12:02:36Z</time>
      </trkpt>
      <trkpt lat="43.0615010" lon="-5.8284110">
        <ele>482.0</ele>
        <time>2021-10-10T12:02:37Z</time>
      </trkpt>
      <trkpt lat="43.0614210" lon="-5.8285180">
        <ele>482.6</ele>
        <time>2021-10-10T12:02:41Z</time>
      </trkpt>
      <trkpt lat="43.0614030" lon="-5.8285540">
        <ele>482.6</ele>
        <time>2021-10-10T12:02:42Z</time>
      </trkpt>
      <trkpt lat="43.0613380" lon="-5.8287170">
        <ele>483.2</ele>
        <time>2021-10-10T12:02:47Z</time>
      </trkpt>
      <trkpt lat="43.0613210" lon="-5.8287780">
        <ele>483.2</ele>
        <time>2021-10-10T12:02:49Z</time>
      </trkpt>
      <trkpt lat="43.0612560" lon="-5.8289190">
        <ele>483.6</ele>
        <time>2021-10-10T12:02:54Z</time>
      </trkpt>
      <trkpt lat="43.0612100" lon="-5.8289670">
        <ele>483.8</ele>
        <time>2021-10-10T12:02:56Z</time>
      </trkpt>
      <trkpt lat="43.0611910" lon="-5.8289870">
        <ele>483.8</ele>
        <time>2021-10-10T12:02:57Z</time>
      </trkpt>
      <trkpt lat="43.0611680" lon="-5.8290090">
        <ele>484.0</ele>
        <time>2021-10-10T12:02:58Z</time>
      </trkpt>
      <trkpt lat="43.0611180" lon="-5.8290490">
        <ele>484.2</ele>
        <time>2021-10-10T12:03:00Z</time>
      </trkpt>
      <trkpt lat="43.0610930" lon="-5.8290720">
        <ele>484.2</ele>
        <time>2021-10-10T12:03:01Z</time>
      </trkpt>
      <trkpt lat="43.0608870" lon="-5.8292450">
        <ele>484.8</ele>
        <time>2021-10-10T12:03:09Z</time>
      </trkpt>
      <trkpt lat="43.0607810" lon="-5.8293410">
        <ele>485.0</ele>
        <time>2021-10-10T12:03:13Z</time>
      </trkpt>
      <trkpt lat="43.0607560" lon="-5.8293700">
        <ele>485.0</ele>
        <time>2021-10-10T12:03:14Z</time>
      </trkpt>
      <trkpt lat="43.0607060" lon="-5.8294210">
        <ele>485.0</ele>
        <time>2021-10-10T12:03:16Z</time>
      </trkpt>
      <trkpt lat="43.0605820" lon="-5.8295140">
        <ele>485.2</ele>
        <time>2021-10-10T12:03:20Z</time>
      </trkpt>
      <trkpt lat="43.0605540" lon="-5.8295240">
        <ele>485.4</ele>
        <time>2021-10-10T12:03:21Z</time>
      </trkpt>
      <trkpt lat="43.0604800" lon="-5.8295270">
        <ele>485.4</ele>
        <time>2021-10-10T12:03:23Z</time>
      </trkpt>
      <trkpt lat="43.0603480" lon="-5.8295100">
        <ele>485.4</ele>
        <time>2021-10-10T12:03:27Z</time>
      </trkpt>
      <trkpt lat="43.0600980" lon="-5.8295540">
        <ele>485.6</ele>
        <time>2021-10-10T12:03:34Z</time>
      </trkpt>
      <trkpt lat="43.0600330" lon="-5.8295890">
        <ele>485.6</ele>
        <time>2021-10-10T12:03:36Z</time>
      </trkpt>
      <trkpt lat="43.0599730" lon="-5.8296200">
        <ele>485.6</ele>
        <time>2021-10-10T12:03:38Z</time>
      </trkpt>
      <trkpt lat="43.0599010" lon="-5.8296420">
        <ele>485.8</ele>
        <time>2021-10-10T12:03:40Z</time>
      </trkpt>
      <trkpt lat="43.0596320" lon="-5.8296380">
        <ele>486.0</ele>
        <time>2021-10-10T12:03:48Z</time>
      </trkpt>
      <trkpt lat="43.0595710" lon="-5.8296380">
        <ele>486.0</ele>
        <time>2021-10-10T12:03:50Z</time>
      </trkpt>
      <trkpt lat="43.0594190" lon="-5.8296480">
        <ele>486.0</ele>
        <time>2021-10-10T12:03:55Z</time>
      </trkpt>
      <trkpt lat="43.0593930" lon="-5.8296470">
        <ele>486.0</ele>
        <time>2021-10-10T12:03:56Z</time>
      </trkpt>
      <trkpt lat="43.0593550" lon="-5.8296440">
        <ele>486.2</ele>
        <time>2021-10-10T12:03:57Z</time>
      </trkpt>
      <trkpt lat="43.0591910" lon="-5.8296740">
        <ele>486.6</ele>
        <time>2021-10-10T12:04:02Z</time>
      </trkpt>
      <trkpt lat="43.0591280" lon="-5.8296860">
        <ele>486.6</ele>
        <time>2021-10-10T12:04:04Z</time>
      </trkpt>
      <trkpt lat="43.0589780" lon="-5.8296910">
        <ele>487.0</ele>
        <time>2021-10-10T12:04:09Z</time>
      </trkpt>
      <trkpt lat="43.0589510" lon="-5.8296950">
        <ele>487.2</ele>
        <time>2021-10-10T12:04:10Z</time>
      </trkpt>
      <trkpt lat="43.0588690" lon="-5.8296880">
        <ele>487.2</ele>
        <time>2021-10-10T12:04:13Z</time>
      </trkpt>
      <trkpt lat="43.0586990" lon="-5.8297020">
        <ele>488.0</ele>
        <time>2021-10-10T12:04:19Z</time>
      </trkpt>
      <trkpt lat="43.0586450" lon="-5.8297010">
        <ele>488.2</ele>
        <time>2021-10-10T12:04:21Z</time>
      </trkpt>
      <trkpt lat="43.0586150" lon="-5.8297020">
        <ele>488.2</ele>
        <time>2021-10-10T12:04:22Z</time>
      </trkpt>
      <trkpt lat="43.0583920" lon="-5.8296450">
        <ele>488.8</ele>
        <time>2021-10-10T12:04:30Z</time>
      </trkpt>
      <trkpt lat="43.0583060" lon="-5.8296210">
        <ele>489.0</ele>
        <time>2021-10-10T12:04:33Z</time>
      </trkpt>
      <trkpt lat="43.0582770" lon="-5.8296080">
        <ele>489.2</ele>
        <time>2021-10-10T12:04:34Z</time>
      </trkpt>
      <trkpt lat="43.0582500" lon="-5.8295950">
        <ele>489.2</ele>
        <time>2021-10-10T12:04:35Z</time>
      </trkpt>
      <trkpt lat="43.0582250" lon="-5.8295800">
        <ele>489.4</ele>
        <time>2021-10-10T12:04:36Z</time>
      </trkpt>
      <trkpt lat="43.0581710" lon="-5.8295550">
        <ele>489.6</ele>
        <time>2021-10-10T12:04:38Z</time>
      </trkpt>
      <trkpt lat="43.0581200" lon="-5.8295250">
        <ele>489.8</ele>
        <time>2021-10-10T12:04:40Z</time>
      </trkpt>
      <trkpt lat="43.0580650" lon="-5.8294980">
        <ele>490.0</ele>
        <time>2021-10-10T12:04:42Z</time>
      </trkpt>
      <trkpt lat="43.0580050" lon="-5.8294780">
        <ele>490.0</ele>
        <time>2021-10-10T12:04:44Z</time>
      </trkpt>
      <trkpt lat="43.0579500" lon="-5.8294470">
        <ele>490.2</ele>
        <time>2021-10-10T12:04:46Z</time>
      </trkpt>
      <trkpt lat="43.0579180" lon="-5.8294310">
        <ele>490.4</ele>
        <time>2021-10-10T12:04:47Z</time>
      </trkpt>
      <trkpt lat="43.0577980" lon="-5.8293710">
        <ele>490.6</ele>
        <time>2021-10-10T12:04:51Z</time>
      </trkpt>
      <trkpt lat="43.0577180" lon="-5.8293120">
        <ele>490.8</ele>
        <time>2021-10-10T12:04:54Z</time>
      </trkpt>
      <trkpt lat="43.0576000" lon="-5.8292020">
        <ele>491.2</ele>
        <time>2021-10-10T12:04:59Z</time>
      </trkpt>
      <trkpt lat="43.0575760" lon="-5.8291800">
        <ele>491.4</ele>
        <time>2021-10-10T12:05:00Z</time>
      </trkpt>
      <trkpt lat="43.0575500" lon="-5.8291570">
        <ele>491.6</ele>
        <time>2021-10-10T12:05:01Z</time>
      </trkpt>
      <trkpt lat="43.0573790" lon="-5.8290720">
        <ele>492.2</ele>
        <time>2021-10-10T12:05:07Z</time>
      </trkpt>
      <trkpt lat="43.0573180" lon="-5.8290550">
        <ele>492.4</ele>
        <time>2021-10-10T12:05:09Z</time>
      </trkpt>
      <trkpt lat="43.0572060" lon="-5.8290340">
        <ele>492.8</ele>
        <time>2021-10-10T12:05:13Z</time>
      </trkpt>
      <trkpt lat="43.0571140" lon="-5.8290310">
        <ele>493.2</ele>
        <time>2021-10-10T12:05:16Z</time>
      </trkpt>
      <trkpt lat="43.0569950" lon="-5.8290100">
        <ele>493.4</ele>
        <time>2021-10-10T12:05:20Z</time>
      </trkpt>
      <trkpt lat="43.0569660" lon="-5.8290090">
        <ele>493.6</ele>
        <time>2021-10-10T12:05:21Z</time>
      </trkpt>
      <trkpt lat="43.0567910" lon="-5.8289790">
        <ele>494.2</ele>
        <time>2021-10-10T12:05:27Z</time>
      </trkpt>
      <trkpt lat="43.0567350" lon="-5.8289790">
        <ele>494.2</ele>
        <time>2021-10-10T12:05:29Z</time>
      </trkpt>
      <trkpt lat="43.0567080" lon="-5.8289790">
        <ele>494.2</ele>
        <time>2021-10-10T12:05:30Z</time>
      </trkpt>
      <trkpt lat="43.0566780" lon="-5.8289830">
        <ele>494.4</ele>
        <time>2021-10-10T12:05:31Z</time>
      </trkpt>
      <trkpt lat="43.0565890" lon="-5.8289840">
        <ele>494.6</ele>
        <time>2021-10-10T12:05:34Z</time>
      </trkpt>
      <trkpt lat="43.0565060" lon="-5.8289870">
        <ele>495.0</ele>
        <time>2021-10-10T12:05:37Z</time>
      </trkpt>
      <trkpt lat="43.0563950" lon="-5.8290110">
        <ele>495.4</ele>
        <time>2021-10-10T12:05:41Z</time>
      </trkpt>
      <trkpt lat="43.0563170" lon="-5.8289860">
        <ele>495.8</ele>
        <time>2021-10-10T12:05:44Z</time>
      </trkpt>
      <trkpt lat="43.0562420" lon="-5.8289200">
        <ele>496.0</ele>
        <time>2021-10-10T12:05:47Z</time>
      </trkpt>
      <trkpt lat="43.0562180" lon="-5.8288960">
        <ele>496.2</ele>
        <time>2021-10-10T12:05:48Z</time>
      </trkpt>
      <trkpt lat="43.0561960" lon="-5.8288690">
        <ele>496.2</ele>
        <time>2021-10-10T12:05:49Z</time>
      </trkpt>
      <trkpt lat="43.0561770" lon="-5.8288400">
        <ele>496.4</ele>
        <time>2021-10-10T12:05:50Z</time>
      </trkpt>
      <trkpt lat="43.0561440" lon="-5.8287830">
        <ele>496.6</ele>
        <time>2021-10-10T12:05:52Z</time>
      </trkpt>
      <trkpt lat="43.0560640" lon="-5.8286750">
        <ele>496.8</ele>
        <time>2021-10-10T12:05:56Z</time>
      </trkpt>
      <trkpt lat="43.0560400" lon="-5.8286470">
        <ele>497.0</ele>
        <time>2021-10-10T12:05:57Z</time>
      </trkpt>
      <trkpt lat="43.0560150" lon="-5.8286240">
        <ele>497.0</ele>
        <time>2021-10-10T12:05:58Z</time>
      </trkpt>
      <trkpt lat="43.0559590" lon="-5.8285920">
        <ele>497.2</ele>
        <time>2021-10-10T12:06:00Z</time>
      </trkpt>
      <trkpt lat="43.0559240" lon="-5.8285850">
        <ele>497.4</ele>
        <time>2021-10-10T12:06:01Z</time>
      </trkpt>
      <trkpt lat="43.0558610" lon="-5.8285760">
        <ele>497.4</ele>
        <time>2021-10-10T12:06:03Z</time>
      </trkpt>
      <trkpt lat="43.0557880" lon="-5.8285640">
        <ele>497.6</ele>
        <time>2021-10-10T12:06:05Z</time>
      </trkpt>
      <trkpt lat="43.0556670" lon="-5.8285780">
        <ele>497.8</ele>
        <time>2021-10-10T12:06:09Z</time>
      </trkpt>
      <trkpt lat="43.0555200" lon="-5.8286240">
        <ele>498.4</ele>
        <time>2021-10-10T12:06:15Z</time>
      </trkpt>
      <trkpt lat="43.0554410" lon="-5.8286530">
        <ele>498.8</ele>
        <time>2021-10-10T12:06:18Z</time>
      </trkpt>
      <trkpt lat="43.0553300" lon="-5.8286920">
        <ele>499.4</ele>
        <time>2021-10-10T12:06:23Z</time>
      </trkpt>
      <trkpt lat="43.0552030" lon="-5.8287160">
        <ele>499.6</ele>
        <time>2021-10-10T12:06:27Z</time>
      </trkpt>
      <trkpt lat="43.0551730" lon="-5.8287150">
        <ele>499.8</ele>
        <time>2021-10-10T12:06:28Z</time>
      </trkpt>
      <trkpt lat="43.0550490" lon="-5.8286850">
        <ele>500.0</ele>
        <time>2021-10-10T12:06:32Z</time>
      </trkpt>
      <trkpt lat="43.0549970" lon="-5.8286690">
        <ele>500.4</ele>
        <time>2021-10-10T12:06:34Z</time>
      </trkpt>
      <trkpt lat="43.0549060" lon="-5.8286460">
        <ele>500.6</ele>
        <time>2021-10-10T12:06:37Z</time>
      </trkpt>
      <trkpt lat="43.0548780" lon="-5.8286350">
        <ele>500.8</ele>
        <time>2021-10-10T12:06:38Z</time>
      </trkpt>
      <trkpt lat="43.0546760" lon="-5.8285780">
        <ele>501.4</ele>
        <time>2021-10-10T12:06:45Z</time>
      </trkpt>
      <trkpt lat="43.0546240" lon="-5.8285490">
        <ele>501.8</ele>
        <time>2021-10-10T12:06:47Z</time>
      </trkpt>
      <trkpt lat="43.0545430" lon="-5.8285140">
        <ele>502.2</ele>
        <time>2021-10-10T12:06:50Z</time>
      </trkpt>
      <trkpt lat="43.0545160" lon="-5.8285050">
        <ele>502.2</ele>
        <time>2021-10-10T12:06:51Z</time>
      </trkpt>
      <trkpt lat="43.0544850" lon="-5.8285000">
        <ele>502.4</ele>
        <time>2021-10-10T12:06:52Z</time>
      </trkpt>
      <trkpt lat="43.0543780" lon="-5.8284540">
        <ele>502.8</ele>
        <time>2021-10-10T12:06:56Z</time>
      </trkpt>
      <trkpt lat="43.0543530" lon="-5.8284350">
        <ele>502.8</ele>
        <time>2021-10-10T12:06:57Z</time>
      </trkpt>
      <trkpt lat="43.0542350" lon="-5.8283230">
        <ele>503.0</ele>
        <time>2021-10-10T12:07:02Z</time>
      </trkpt>
      <trkpt lat="43.0541800" lon="-5.8282970">
        <ele>503.2</ele>
        <time>2021-10-10T12:07:04Z</time>
      </trkpt>
      <trkpt lat="43.0541510" lon="-5.8282850">
        <ele>503.4</ele>
        <time>2021-10-10T12:07:05Z</time>
      </trkpt>
      <trkpt lat="43.0540950" lon="-5.8282560">
        <ele>503.6</ele>
        <time>2021-10-10T12:07:07Z</time>
      </trkpt>
      <trkpt lat="43.0540410" lon="-5.8282290">
        <ele>503.8</ele>
        <time>2021-10-10T12:07:09Z</time>
      </trkpt>
      <trkpt lat="43.0539910" lon="-5.8281950">
        <ele>504.2</ele>
        <time>2021-10-10T12:07:11Z</time>
      </trkpt>
      <trkpt lat="43.0539650" lon="-5.8281810">
        <ele>504.2</ele>
        <time>2021-10-10T12:07:12Z</time>
      </trkpt>
      <trkpt lat="43.0539390" lon="-5.8281670">
        <ele>504.4</ele>
        <time>2021-10-10T12:07:13Z</time>
      </trkpt>
      <trkpt lat="43.0538860" lon="-5.8281390">
        <ele>504.6</ele>
        <time>2021-10-10T12:07:15Z</time>
      </trkpt>
      <trkpt lat="43.0538320" lon="-5.8281050">
        <ele>504.6</ele>
        <time>2021-10-10T12:07:17Z</time>
      </trkpt>
      <trkpt lat="43.0537550" lon="-5.8280610">
        <ele>505.0</ele>
        <time>2021-10-10T12:07:20Z</time>
      </trkpt>
      <trkpt lat="43.0537280" lon="-5.8280520">
        <ele>505.2</ele>
        <time>2021-10-10T12:07:21Z</time>
      </trkpt>
      <trkpt lat="43.0537030" lon="-5.8280410">
        <ele>505.4</ele>
        <time>2021-10-10T12:07:22Z</time>
      </trkpt>
      <trkpt lat="43.0536790" lon="-5.8280290">
        <ele>505.4</ele>
        <time>2021-10-10T12:07:23Z</time>
      </trkpt>
      <trkpt lat="43.0536300" lon="-5.8280070">
        <ele>505.6</ele>
        <time>2021-10-10T12:07:25Z</time>
      </trkpt>
      <trkpt lat="43.0536030" lon="-5.8280010">
        <ele>505.8</ele>
        <time>2021-10-10T12:07:26Z</time>
      </trkpt>
      <trkpt lat="43.0535480" lon="-5.8279890">
        <ele>506.0</ele>
        <time>2021-10-10T12:07:28Z</time>
      </trkpt>
      <trkpt lat="43.0534880" lon="-5.8279880">
        <ele>506.2</ele>
        <time>2021-10-10T12:07:30Z</time>
      </trkpt>
      <trkpt lat="43.0534270" lon="-5.8279770">
        <ele>506.2</ele>
        <time>2021-10-10T12:07:32Z</time>
      </trkpt>
      <trkpt lat="43.0533740" lon="-5.8279760">
        <ele>506.6</ele>
        <time>2021-10-10T12:07:34Z</time>
      </trkpt>
      <trkpt lat="43.0533220" lon="-5.8279820">
        <ele>506.8</ele>
        <time>2021-10-10T12:07:36Z</time>
      </trkpt>
      <trkpt lat="43.0532510" lon="-5.8280080">
        <ele>507.2</ele>
        <time>2021-10-10T12:07:39Z</time>
      </trkpt>
      <trkpt lat="43.0530970" lon="-5.8281000">
        <ele>507.4</ele>
        <time>2021-10-10T12:07:45Z</time>
      </trkpt>
      <trkpt lat="43.0529740" lon="-5.8282040">
        <ele>507.6</ele>
        <time>2021-10-10T12:07:50Z</time>
      </trkpt>
      <trkpt lat="43.0529160" lon="-5.8282590">
        <ele>507.8</ele>
        <time>2021-10-10T12:07:52Z</time>
      </trkpt>
      <trkpt lat="43.0528290" lon="-5.8283380">
        <ele>507.8</ele>
        <time>2021-10-10T12:07:55Z</time>
      </trkpt>
      <trkpt lat="43.0527980" lon="-5.8283520">
        <ele>507.8</ele>
        <time>2021-10-10T12:07:56Z</time>
      </trkpt>
      <trkpt lat="43.0527080" lon="-5.8284570">
        <ele>507.8</ele>
        <time>2021-10-10T12:07:59Z</time>
      </trkpt>
      <trkpt lat="43.0526580" lon="-5.8285190">
        <ele>507.8</ele>
        <time>2021-10-10T12:08:01Z</time>
      </trkpt>
      <trkpt lat="43.0526090" lon="-5.8285850">
        <ele>507.8</ele>
        <time>2021-10-10T12:08:03Z</time>
      </trkpt>
      <trkpt lat="43.0525230" lon="-5.8286890">
        <ele>508.0</ele>
        <time>2021-10-10T12:08:06Z</time>
      </trkpt>
      <trkpt lat="43.0522930" lon="-5.8288180">
        <ele>507.8</ele>
        <time>2021-10-10T12:08:13Z</time>
      </trkpt>
      <trkpt lat="43.0521130" lon="-5.8287610">
        <ele>507.8</ele>
        <time>2021-10-10T12:08:18Z</time>
      </trkpt>
      <trkpt lat="43.0519400" lon="-5.8286100">
        <ele>507.8</ele>
        <time>2021-10-10T12:08:23Z</time>
      </trkpt>
      <trkpt lat="43.0518740" lon="-5.8285520">
        <ele>508.0</ele>
        <time>2021-10-10T12:08:25Z</time>
      </trkpt>
      <trkpt lat="43.0516590" lon="-5.8283380">
        <ele>508.2</ele>
        <time>2021-10-10T12:08:32Z</time>
      </trkpt>
      <trkpt lat="43.0513840" lon="-5.8281310">
        <ele>508.2</ele>
        <time>2021-10-10T12:08:40Z</time>
      </trkpt>
      <trkpt lat="43.0512320" lon="-5.8280020">
        <ele>508.4</ele>
        <time>2021-10-10T12:08:45Z</time>
      </trkpt>
      <trkpt lat="43.0511780" lon="-5.8279550">
        <ele>508.8</ele>
        <time>2021-10-10T12:08:47Z</time>
      </trkpt>
      <trkpt lat="43.0511040" lon="-5.8278790">
        <ele>509.0</ele>
        <time>2021-10-10T12:08:50Z</time>
      </trkpt>
      <trkpt lat="43.0510360" lon="-5.8277910">
        <ele>509.2</ele>
        <time>2021-10-10T12:08:53Z</time>
      </trkpt>
      <trkpt lat="43.0510140" lon="-5.8277660">
        <ele>509.4</ele>
        <time>2021-10-10T12:08:54Z</time>
      </trkpt>
      <trkpt lat="43.0509900" lon="-5.8277460">
        <ele>509.4</ele>
        <time>2021-10-10T12:08:55Z</time>
      </trkpt>
      <trkpt lat="43.0509150" lon="-5.8276770">
        <ele>509.8</ele>
        <time>2021-10-10T12:08:58Z</time>
      </trkpt>
      <trkpt lat="43.0508590" lon="-5.8276410">
        <ele>510.0</ele>
        <time>2021-10-10T12:09:00Z</time>
      </trkpt>
      <trkpt lat="43.0508370" lon="-5.8276270">
        <ele>510.0</ele>
        <time>2021-10-10T12:09:01Z</time>
      </trkpt>
      <trkpt lat="43.0506590" lon="-5.8275350">
        <ele>510.8</ele>
        <time>2021-10-10T12:09:07Z</time>
      </trkpt>
      <trkpt lat="43.0506340" lon="-5.8275250">
        <ele>510.8</ele>
        <time>2021-10-10T12:09:08Z</time>
      </trkpt>
      <trkpt lat="43.0506050" lon="-5.8275190">
        <ele>510.8</ele>
        <time>2021-10-10T12:09:09Z</time>
      </trkpt>
      <trkpt lat="43.0504040" lon="-5.8274750">
        <ele>511.4</ele>
        <time>2021-10-10T12:09:16Z</time>
      </trkpt>
      <trkpt lat="43.0502880" lon="-5.8274600">
        <ele>511.8</ele>
        <time>2021-10-10T12:09:20Z</time>
      </trkpt>
      <trkpt lat="43.0502070" lon="-5.8274780">
        <ele>512.2</ele>
        <time>2021-10-10T12:09:23Z</time>
      </trkpt>
      <trkpt lat="43.0500180" lon="-5.8275160">
        <ele>513.0</ele>
        <time>2021-10-10T12:09:29Z</time>
      </trkpt>
      <trkpt lat="43.0499120" lon="-5.8275470">
        <ele>513.4</ele>
        <time>2021-10-10T12:09:32Z</time>
      </trkpt>
      <trkpt lat="43.0498770" lon="-5.8275630">
        <ele>513.4</ele>
        <time>2021-10-10T12:09:33Z</time>
      </trkpt>
      <trkpt lat="43.0498160" lon="-5.8275990">
        <ele>513.6</ele>
        <time>2021-10-10T12:09:35Z</time>
      </trkpt>
      <trkpt lat="43.0497220" lon="-5.8276960">
        <ele>513.8</ele>
        <time>2021-10-10T12:09:38Z</time>
      </trkpt>
      <trkpt lat="43.0497030" lon="-5.8277260">
        <ele>514.0</ele>
        <time>2021-10-10T12:09:39Z</time>
      </trkpt>
      <trkpt lat="43.0496820" lon="-5.8277580">
        <ele>514.2</ele>
        <time>2021-10-10T12:09:40Z</time>
      </trkpt>
      <trkpt lat="43.0496600" lon="-5.8277840">
        <ele>514.2</ele>
        <time>2021-10-10T12:09:41Z</time>
      </trkpt>
      <trkpt lat="43.0495900" lon="-5.8278790">
        <ele>514.4</ele>
        <time>2021-10-10T12:09:44Z</time>
      </trkpt>
      <trkpt lat="43.0495730" lon="-5.8279020">
        <ele>514.6</ele>
        <time>2021-10-10T12:09:45Z</time>
      </trkpt>
      <trkpt lat="43.0494760" lon="-5.8281100">
        <ele>515.0</ele>
        <time>2021-10-10T12:09:51Z</time>
      </trkpt>
      <trkpt lat="43.0494620" lon="-5.8281440">
        <ele>514.8</ele>
        <time>2021-10-10T12:09:52Z</time>
      </trkpt>
      <trkpt lat="43.0494220" lon="-5.8282450">
        <ele>515.2</ele>
        <time>2021-10-10T12:09:55Z</time>
      </trkpt>
      <trkpt lat="43.0493590" lon="-5.8284100">
        <ele>515.6</ele>
        <time>2021-10-10T12:09:59Z</time>
      </trkpt>
      <trkpt lat="43.0493070" lon="-5.8285060">
        <ele>516.0</ele>
        <time>2021-10-10T12:10:02Z</time>
      </trkpt>
      <trkpt lat="43.0492570" lon="-5.8286010">
        <ele>516.2</ele>
        <time>2021-10-10T12:10:05Z</time>
      </trkpt>
      <trkpt lat="43.0491320" lon="-5.8288030">
        <ele>517.0</ele>
        <time>2021-10-10T12:10:11Z</time>
      </trkpt>
      <trkpt lat="43.0491050" lon="-5.8288360">
        <ele>517.0</ele>
        <time>2021-10-10T12:10:12Z</time>
      </trkpt>
      <trkpt lat="43.0489510" lon="-5.8289330">
        <ele>517.8</ele>
        <time>2021-10-10T12:10:18Z</time>
      </trkpt>
      <trkpt lat="43.0489070" lon="-5.8289700">
        <ele>518.2</ele>
        <time>2021-10-10T12:10:20Z</time>
      </trkpt>
      <trkpt lat="43.0488160" lon="-5.8290030">
        <ele>518.6</ele>
        <time>2021-10-10T12:10:23Z</time>
      </trkpt>
      <trkpt lat="43.0487190" lon="-5.8290040">
        <ele>519.2</ele>
        <time>2021-10-10T12:10:27Z</time>
      </trkpt>
      <trkpt lat="43.0486210" lon="-5.8289830">
        <ele>520.0</ele>
        <time>2021-10-10T12:10:31Z</time>
      </trkpt>
      <trkpt lat="43.0485940" lon="-5.8289730">
        <ele>520.2</ele>
        <time>2021-10-10T12:10:32Z</time>
      </trkpt>
      <trkpt lat="43.0484870" lon="-5.8289310">
        <ele>521.0</ele>
        <time>2021-10-10T12:10:37Z</time>
      </trkpt>
      <trkpt lat="43.0484530" lon="-5.8289190">
        <ele>521.2</ele>
        <time>2021-10-10T12:10:39Z</time>
      </trkpt>
      <trkpt lat="43.0484080" lon="-5.8288920">
        <ele>521.4</ele>
        <time>2021-10-10T12:10:41Z</time>
      </trkpt>
      <trkpt lat="43.0483560" lon="-5.8288510">
        <ele>521.8</ele>
        <time>2021-10-10T12:10:43Z</time>
      </trkpt>
      <trkpt lat="43.0482860" lon="-5.8288200">
        <ele>522.4</ele>
        <time>2021-10-10T12:10:46Z</time>
      </trkpt>
      <trkpt lat="43.0482570" lon="-5.8288010">
        <ele>522.4</ele>
        <time>2021-10-10T12:10:47Z</time>
      </trkpt>
      <trkpt lat="43.0482360" lon="-5.8287800">
        <ele>522.6</ele>
        <time>2021-10-10T12:10:48Z</time>
      </trkpt>
      <trkpt lat="43.0481330" lon="-5.8287130">
        <ele>523.6</ele>
        <time>2021-10-10T12:10:53Z</time>
      </trkpt>
      <trkpt lat="43.0480950" lon="-5.8286830">
        <ele>523.8</ele>
        <time>2021-10-10T12:10:55Z</time>
      </trkpt>
      <trkpt lat="43.0480760" lon="-5.8286680">
        <ele>524.0</ele>
        <time>2021-10-10T12:10:56Z</time>
      </trkpt>
      <trkpt lat="43.0480320" lon="-5.8286270">
        <ele>524.2</ele>
        <time>2021-10-10T12:10:58Z</time>
      </trkpt>
      <trkpt lat="43.0479940" lon="-5.8285940">
        <ele>524.4</ele>
        <time>2021-10-10T12:11:00Z</time>
      </trkpt>
      <trkpt lat="43.0479740" lon="-5.8285800">
        <ele>524.6</ele>
        <time>2021-10-10T12:11:01Z</time>
      </trkpt>
      <trkpt lat="43.0479320" lon="-5.8285470">
        <ele>524.8</ele>
        <time>2021-10-10T12:11:03Z</time>
      </trkpt>
      <trkpt lat="43.0477740" lon="-5.8285020">
        <ele>525.6</ele>
        <time>2021-10-10T12:11:10Z</time>
      </trkpt>
      <trkpt lat="43.0477500" lon="-5.8285000">
        <ele>525.6</ele>
        <time>2021-10-10T12:11:11Z</time>
      </trkpt>
      <trkpt lat="43.0476500" lon="-5.8285140">
        <ele>526.2</ele>
        <time>2021-10-10T12:11:16Z</time>
      </trkpt>
      <trkpt lat="43.0476010" lon="-5.8285460">
        <ele>526.8</ele>
        <time>2021-10-10T12:11:19Z</time>
      </trkpt>
      <trkpt lat="43.0475260" lon="-5.8285610">
        <ele>527.6</ele>
        <time>2021-10-10T12:11:23Z</time>
      </trkpt>
      <trkpt lat="43.0474860" lon="-5.8285670">
        <ele>528.0</ele>
        <time>2021-10-10T12:11:26Z</time>
      </trkpt>
      <trkpt lat="43.0474190" lon="-5.8285910">
        <ele>528.6</ele>
        <time>2021-10-10T12:11:30Z</time>
      </trkpt>
      <trkpt lat="43.0474030" lon="-5.8286060">
        <ele>528.8</ele>
        <time>2021-10-10T12:11:31Z</time>
      </trkpt>
      <trkpt lat="43.0473720" lon="-5.8286200">
        <ele>529.0</ele>
        <time>2021-10-10T12:11:33Z</time>
      </trkpt>
      <trkpt lat="43.0473190" lon="-5.8286230">
        <ele>529.4</ele>
        <time>2021-10-10T12:11:36Z</time>
      </trkpt>
      <trkpt lat="43.0472850" lon="-5.8286400">
        <ele>529.6</ele>
        <time>2021-10-10T12:11:38Z</time>
      </trkpt>
      <trkpt lat="43.0472660" lon="-5.8286480">
        <ele>530.0</ele>
        <time>2021-10-10T12:11:39Z</time>
      </trkpt>
      <trkpt lat="43.0472490" lon="-5.8286540">
        <ele>530.0</ele>
        <time>2021-10-10T12:11:40Z</time>
      </trkpt>
      <trkpt lat="43.0471990" lon="-5.8286690">
        <ele>530.4</ele>
        <time>2021-10-10T12:11:43Z</time>
      </trkpt>
      <trkpt lat="43.0471790" lon="-5.8286800">
        <ele>530.6</ele>
        <time>2021-10-10T12:11:44Z</time>
      </trkpt>
      <trkpt lat="43.0471440" lon="-5.8287040">
        <ele>531.0</ele>
        <time>2021-10-10T12:11:46Z</time>
      </trkpt>
      <trkpt lat="43.0471330" lon="-5.8287120">
        <ele>531.2</ele>
        <time>2021-10-10T12:11:47Z</time>
      </trkpt>
      <trkpt lat="43.0470580" lon="-5.8287190">
        <ele>531.6</ele>
        <time>2021-10-10T12:11:51Z</time>
      </trkpt>
      <trkpt lat="43.0469950" lon="-5.8287130">
        <ele>532.2</ele>
        <time>2021-10-10T12:11:54Z</time>
      </trkpt>
      <trkpt lat="43.0468590" lon="-5.8286460">
        <ele>533.4</ele>
        <time>2021-10-10T12:12:01Z</time>
      </trkpt>
      <trkpt lat="43.0468400" lon="-5.8286220">
        <ele>533.4</ele>
        <time>2021-10-10T12:12:02Z</time>
      </trkpt>
      <trkpt lat="43.0467290" lon="-5.8284880">
        <ele>534.6</ele>
        <time>2021-10-10T12:12:09Z</time>
      </trkpt>
      <trkpt lat="43.0467000" lon="-5.8284530">
        <ele>534.8</ele>
        <time>2021-10-10T12:12:11Z</time>
      </trkpt>
      <trkpt lat="43.0465920" lon="-5.8283790">
        <ele>535.4</ele>
        <time>2021-10-10T12:12:17Z</time>
      </trkpt>
      <trkpt lat="43.0465650" lon="-5.8283750">
        <ele>535.4</ele>
        <time>2021-10-10T12:12:18Z</time>
      </trkpt>
      <trkpt lat="43.0465400" lon="-5.8283780">
        <ele>535.6</ele>
        <time>2021-10-10T12:12:19Z</time>
      </trkpt>
      <trkpt lat="43.0464840" lon="-5.8283990">
        <ele>536.4</ele>
        <time>2021-10-10T12:12:22Z</time>
      </trkpt>
      <trkpt lat="43.0464460" lon="-5.8284290">
        <ele>536.6</ele>
        <time>2021-10-10T12:12:24Z</time>
      </trkpt>
      <trkpt lat="43.0464270" lon="-5.8284480">
        <ele>536.8</ele>
        <time>2021-10-10T12:12:25Z</time>
      </trkpt>
      <trkpt lat="43.0464080" lon="-5.8284680">
        <ele>537.2</ele>
        <time>2021-10-10T12:12:26Z</time>
      </trkpt>
      <trkpt lat="43.0463510" lon="-5.8285530">
        <ele>537.8</ele>
        <time>2021-10-10T12:12:30Z</time>
      </trkpt>
      <trkpt lat="43.0463280" lon="-5.8285970">
        <ele>538.4</ele>
        <time>2021-10-10T12:12:32Z</time>
      </trkpt>
      <trkpt lat="43.0462960" lon="-5.8286400">
        <ele>538.8</ele>
        <time>2021-10-10T12:12:34Z</time>
      </trkpt>
      <trkpt lat="43.0462850" lon="-5.8286530">
        <ele>539.0</ele>
        <time>2021-10-10T12:12:35Z</time>
      </trkpt>
      <trkpt lat="43.0462510" lon="-5.8286780">
        <ele>539.4</ele>
        <time>2021-10-10T12:12:37Z</time>
      </trkpt>
      <trkpt lat="43.0462120" lon="-5.8287010">
        <ele>539.6</ele>
        <time>2021-10-10T12:12:39Z</time>
      </trkpt>
      <trkpt lat="43.0461740" lon="-5.8287200">
        <ele>539.8</ele>
        <time>2021-10-10T12:12:41Z</time>
      </trkpt>
      <trkpt lat="43.0461590" lon="-5.8287240">
        <ele>539.8</ele>
        <time>2021-10-10T12:12:42Z</time>
      </trkpt>
      <trkpt lat="43.0461410" lon="-5.8287230">
        <ele>540.0</ele>
        <time>2021-10-10T12:12:43Z</time>
      </trkpt>
      <trkpt lat="43.0461100" lon="-5.8287200">
        <ele>540.2</ele>
        <time>2021-10-10T12:12:45Z</time>
      </trkpt>
      <trkpt lat="43.0460920" lon="-5.8287180">
        <ele>540.4</ele>
        <time>2021-10-10T12:12:46Z</time>
      </trkpt>
      <trkpt lat="43.0460720" lon="-5.8287160">
        <ele>540.6</ele>
        <time>2021-10-10T12:12:47Z</time>
      </trkpt>
      <trkpt lat="43.0459880" lon="-5.8287220">
        <ele>541.0</ele>
        <time>2021-10-10T12:12:52Z</time>
      </trkpt>
      <trkpt lat="43.0459660" lon="-5.8287240">
        <ele>541.0</ele>
        <time>2021-10-10T12:12:53Z</time>
      </trkpt>
      <trkpt lat="43.0458270" lon="-5.8287280">
        <ele>542.0</ele>
        <time>2021-10-10T12:13:00Z</time>
      </trkpt>
      <trkpt lat="43.0458030" lon="-5.8287280">
        <ele>542.4</ele>
        <time>2021-10-10T12:13:01Z</time>
      </trkpt>
      <trkpt lat="43.0457870" lon="-5.8287310">
        <ele>542.4</ele>
        <time>2021-10-10T12:13:02Z</time>
      </trkpt>
      <trkpt lat="43.0457450" lon="-5.8287360">
        <ele>542.8</ele>
        <time>2021-10-10T12:13:04Z</time>
      </trkpt>
      <trkpt lat="43.0457070" lon="-5.8287380">
        <ele>542.8</ele>
        <time>2021-10-10T12:13:06Z</time>
      </trkpt>
      <trkpt lat="43.0456810" lon="-5.8287390">
        <ele>543.0</ele>
        <time>2021-10-10T12:13:07Z</time>
      </trkpt>
      <trkpt lat="43.0456580" lon="-5.8287430">
        <ele>543.2</ele>
        <time>2021-10-10T12:13:08Z</time>
      </trkpt>
      <trkpt lat="43.0456350" lon="-5.8287420">
        <ele>543.2</ele>
        <time>2021-10-10T12:13:09Z</time>
      </trkpt>
      <trkpt lat="43.0456120" lon="-5.8287440">
        <ele>543.4</ele>
        <time>2021-10-10T12:13:10Z</time>
      </trkpt>
      <trkpt lat="43.0455950" lon="-5.8287470">
        <ele>543.6</ele>
        <time>2021-10-10T12:13:11Z</time>
      </trkpt>
      <trkpt lat="43.0455710" lon="-5.8287510">
        <ele>543.8</ele>
        <time>2021-10-10T12:13:12Z</time>
      </trkpt>
      <trkpt lat="43.0455300" lon="-5.8287660">
        <ele>543.8</ele>
        <time>2021-10-10T12:13:14Z</time>
      </trkpt>
      <trkpt lat="43.0454930" lon="-5.8287630">
        <ele>544.2</ele>
        <time>2021-10-10T12:13:16Z</time>
      </trkpt>
      <trkpt lat="43.0454330" lon="-5.8287730">
        <ele>544.4</ele>
        <time>2021-10-10T12:13:19Z</time>
      </trkpt>
      <trkpt lat="43.0454160" lon="-5.8287750">
        <ele>544.6</ele>
        <time>2021-10-10T12:13:20Z</time>
      </trkpt>
      <trkpt lat="43.0453250" lon="-5.8287700">
        <ele>545.2</ele>
        <time>2021-10-10T12:13:24Z</time>
      </trkpt>
      <trkpt lat="43.0453050" lon="-5.8287600">
        <ele>545.6</ele>
        <time>2021-10-10T12:13:25Z</time>
      </trkpt>
      <trkpt lat="43.0452890" lon="-5.8287640">
        <ele>545.6</ele>
        <time>2021-10-10T12:13:26Z</time>
      </trkpt>
      <trkpt lat="43.0452290" lon="-5.8287750">
        <ele>546.0</ele>
        <time>2021-10-10T12:13:29Z</time>
      </trkpt>
      <trkpt lat="43.0451850" lon="-5.8287930">
        <ele>546.2</ele>
        <time>2021-10-10T12:13:31Z</time>
      </trkpt>
      <trkpt lat="43.0451600" lon="-5.8287970">
        <ele>546.4</ele>
        <time>2021-10-10T12:13:32Z</time>
      </trkpt>
      <trkpt lat="43.0451380" lon="-5.8288000">
        <ele>546.6</ele>
        <time>2021-10-10T12:13:33Z</time>
      </trkpt>
      <trkpt lat="43.0451150" lon="-5.8288030">
        <ele>546.6</ele>
        <time>2021-10-10T12:13:34Z</time>
      </trkpt>
      <trkpt lat="43.0450810" lon="-5.8288070">
        <ele>546.8</ele>
        <time>2021-10-10T12:13:36Z</time>
      </trkpt>
      <trkpt lat="43.0450330" lon="-5.8288020">
        <ele>547.0</ele>
        <time>2021-10-10T12:13:38Z</time>
      </trkpt>
      <trkpt lat="43.0449720" lon="-5.8287940">
        <ele>547.4</ele>
        <time>2021-10-10T12:13:41Z</time>
      </trkpt>
      <trkpt lat="43.0449260" lon="-5.8288000">
        <ele>547.8</ele>
        <time>2021-10-10T12:13:43Z</time>
      </trkpt>
      <trkpt lat="43.0448620" lon="-5.8288100">
        <ele>548.0</ele>
        <time>2021-10-10T12:13:46Z</time>
      </trkpt>
      <trkpt lat="43.0448010" lon="-5.8288260">
        <ele>548.2</ele>
        <time>2021-10-10T12:13:49Z</time>
      </trkpt>
      <trkpt lat="43.0447800" lon="-5.8288350">
        <ele>548.4</ele>
        <time>2021-10-10T12:13:50Z</time>
      </trkpt>
      <trkpt lat="43.0447410" lon="-5.8288460">
        <ele>548.6</ele>
        <time>2021-10-10T12:13:52Z</time>
      </trkpt>
      <trkpt lat="43.0447090" lon="-5.8288810">
        <ele>548.8</ele>
        <time>2021-10-10T12:13:54Z</time>
      </trkpt>
      <trkpt lat="43.0446930" lon="-5.8289020">
        <ele>548.8</ele>
        <time>2021-10-10T12:13:55Z</time>
      </trkpt>
      <trkpt lat="43.0446580" lon="-5.8289320">
        <ele>549.2</ele>
        <time>2021-10-10T12:13:57Z</time>
      </trkpt>
      <trkpt lat="43.0446270" lon="-5.8289530">
        <ele>549.4</ele>
        <time>2021-10-10T12:13:59Z</time>
      </trkpt>
      <trkpt lat="43.0445980" lon="-5.8289880">
        <ele>549.6</ele>
        <time>2021-10-10T12:14:01Z</time>
      </trkpt>
      <trkpt lat="43.0445710" lon="-5.8290280">
        <ele>550.0</ele>
        <time>2021-10-10T12:14:03Z</time>
      </trkpt>
      <trkpt lat="43.0444930" lon="-5.8291490">
        <ele>550.4</ele>
        <time>2021-10-10T12:14:09Z</time>
      </trkpt>
      <trkpt lat="43.0444780" lon="-5.8291890">
        <ele>551.0</ele>
        <time>2021-10-10T12:14:11Z</time>
      </trkpt>
      <trkpt lat="43.0444690" lon="-5.8292020">
        <ele>551.2</ele>
        <time>2021-10-10T12:14:12Z</time>
      </trkpt>
      <trkpt lat="43.0444200" lon="-5.8292480">
        <ele>551.6</ele>
        <time>2021-10-10T12:14:15Z</time>
      </trkpt>
      <trkpt lat="43.0443510" lon="-5.8293300">
        <ele>552.2</ele>
        <time>2021-10-10T12:14:20Z</time>
      </trkpt>
      <trkpt lat="43.0443220" lon="-5.8293550">
        <ele>552.4</ele>
        <time>2021-10-10T12:14:22Z</time>
      </trkpt>
      <trkpt lat="43.0442220" lon="-5.8294150">
        <ele>553.2</ele>
        <time>2021-10-10T12:14:28Z</time>
      </trkpt>
      <trkpt lat="43.0442080" lon="-5.8294170">
        <ele>553.6</ele>
        <time>2021-10-10T12:14:29Z</time>
      </trkpt>
      <trkpt lat="43.0440790" lon="-5.8294390">
        <ele>554.4</ele>
        <time>2021-10-10T12:14:36Z</time>
      </trkpt>
      <trkpt lat="43.0440060" lon="-5.8294520">
        <ele>555.0</ele>
        <time>2021-10-10T12:14:40Z</time>
      </trkpt>
      <trkpt lat="43.0439580" lon="-5.8294480">
        <ele>555.2</ele>
        <time>2021-10-10T12:14:42Z</time>
      </trkpt>
      <trkpt lat="43.0439370" lon="-5.8294520">
        <ele>555.2</ele>
        <time>2021-10-10T12:14:43Z</time>
      </trkpt>
      <trkpt lat="43.0438950" lon="-5.8294670">
        <ele>555.6</ele>
        <time>2021-10-10T12:14:45Z</time>
      </trkpt>
      <trkpt lat="43.0438480" lon="-5.8294860">
        <ele>555.8</ele>
        <time>2021-10-10T12:14:47Z</time>
      </trkpt>
      <trkpt lat="43.0437910" lon="-5.8295000">
        <ele>556.4</ele>
        <time>2021-10-10T12:14:50Z</time>
      </trkpt>
      <trkpt lat="43.0437490" lon="-5.8295260">
        <ele>556.6</ele>
        <time>2021-10-10T12:14:52Z</time>
      </trkpt>
      <trkpt lat="43.0436900" lon="-5.8295560">
        <ele>557.0</ele>
        <time>2021-10-10T12:14:55Z</time>
      </trkpt>
      <trkpt lat="43.0436340" lon="-5.8295930">
        <ele>557.6</ele>
        <time>2021-10-10T12:14:58Z</time>
      </trkpt>
      <trkpt lat="43.0435970" lon="-5.8296260">
        <ele>557.6</ele>
        <time>2021-10-10T12:15:00Z</time>
      </trkpt>
      <trkpt lat="43.0435810" lon="-5.8296410">
        <ele>557.8</ele>
        <time>2021-10-10T12:15:01Z</time>
      </trkpt>
      <trkpt lat="43.0435070" lon="-5.8297230">
        <ele>558.8</ele>
        <time>2021-10-10T12:15:06Z</time>
      </trkpt>
      <trkpt lat="43.0434960" lon="-5.8297410">
        <ele>559.0</ele>
        <time>2021-10-10T12:15:07Z</time>
      </trkpt>
      <trkpt lat="43.0434800" lon="-5.8297640">
        <ele>559.2</ele>
        <time>2021-10-10T12:15:08Z</time>
      </trkpt>
      <trkpt lat="43.0434390" lon="-5.8298490">
        <ele>560.0</ele>
        <time>2021-10-10T12:15:12Z</time>
      </trkpt>
      <trkpt lat="43.0434250" lon="-5.8298660">
        <ele>560.2</ele>
        <time>2021-10-10T12:15:13Z</time>
      </trkpt>
      <trkpt lat="43.0434120" lon="-5.8298860">
        <ele>560.4</ele>
        <time>2021-10-10T12:15:14Z</time>
      </trkpt>
      <trkpt lat="43.0433410" lon="-5.8299680">
        <ele>561.0</ele>
        <time>2021-10-10T12:15:19Z</time>
      </trkpt>
      <trkpt lat="43.0433260" lon="-5.8299770">
        <ele>561.2</ele>
        <time>2021-10-10T12:15:20Z</time>
      </trkpt>
      <trkpt lat="43.0433080" lon="-5.8299780">
        <ele>561.2</ele>
        <time>2021-10-10T12:15:21Z</time>
      </trkpt>
      <trkpt lat="43.0432890" lon="-5.8299830">
        <ele>561.6</ele>
        <time>2021-10-10T12:15:22Z</time>
      </trkpt>
      <trkpt lat="43.0432660" lon="-5.8299870">
        <ele>561.8</ele>
        <time>2021-10-10T12:15:23Z</time>
      </trkpt>
      <trkpt lat="43.0432010" lon="-5.8299880">
        <ele>562.2</ele>
        <time>2021-10-10T12:15:26Z</time>
      </trkpt>
      <trkpt lat="43.0431850" lon="-5.8299860">
        <ele>562.4</ele>
        <time>2021-10-10T12:15:27Z</time>
      </trkpt>
      <trkpt lat="43.0431220" lon="-5.8299830">
        <ele>563.0</ele>
        <time>2021-10-10T12:15:30Z</time>
      </trkpt>
      <trkpt lat="43.0431040" lon="-5.8299820">
        <ele>563.0</ele>
        <time>2021-10-10T12:15:31Z</time>
      </trkpt>
      <trkpt lat="43.0430640" lon="-5.8299830">
        <ele>563.2</ele>
        <time>2021-10-10T12:15:33Z</time>
      </trkpt>
      <trkpt lat="43.0430290" lon="-5.8299720">
        <ele>563.4</ele>
        <time>2021-10-10T12:15:35Z</time>
      </trkpt>
      <trkpt lat="43.0429760" lon="-5.8299710">
        <ele>564.2</ele>
        <time>2021-10-10T12:15:38Z</time>
      </trkpt>
      <trkpt lat="43.0429580" lon="-5.8299750">
        <ele>564.2</ele>
        <time>2021-10-10T12:15:39Z</time>
      </trkpt>
      <trkpt lat="43.0429440" lon="-5.8299720">
        <ele>564.4</ele>
        <time>2021-10-10T12:15:40Z</time>
      </trkpt>
      <trkpt lat="43.0428630" lon="-5.8299700">
        <ele>564.8</ele>
        <time>2021-10-10T12:15:45Z</time>
      </trkpt>
      <trkpt lat="43.0427730" lon="-5.8299690">
        <ele>565.4</ele>
        <time>2021-10-10T12:15:49Z</time>
      </trkpt>
      <trkpt lat="43.0427290" lon="-5.8299850">
        <ele>565.6</ele>
        <time>2021-10-10T12:15:51Z</time>
      </trkpt>
      <trkpt lat="43.0426440" lon="-5.8299700">
        <ele>566.0</ele>
        <time>2021-10-10T12:15:55Z</time>
      </trkpt>
      <trkpt lat="43.0425850" lon="-5.8299750">
        <ele>566.4</ele>
        <time>2021-10-10T12:15:58Z</time>
      </trkpt>
      <trkpt lat="43.0425440" lon="-5.8299880">
        <ele>566.8</ele>
        <time>2021-10-10T12:16:00Z</time>
      </trkpt>
      <trkpt lat="43.0424600" lon="-5.8299980">
        <ele>567.2</ele>
        <time>2021-10-10T12:16:04Z</time>
      </trkpt>
      <trkpt lat="43.0424020" lon="-5.8300230">
        <ele>567.6</ele>
        <time>2021-10-10T12:16:07Z</time>
      </trkpt>
      <trkpt lat="43.0423240" lon="-5.8300530">
        <ele>568.4</ele>
        <time>2021-10-10T12:16:11Z</time>
      </trkpt>
      <trkpt lat="43.0423060" lon="-5.8300650">
        <ele>568.4</ele>
        <time>2021-10-10T12:16:12Z</time>
      </trkpt>
      <trkpt lat="43.0422710" lon="-5.8300780">
        <ele>568.6</ele>
        <time>2021-10-10T12:16:14Z</time>
      </trkpt>
      <trkpt lat="43.0422320" lon="-5.8300950">
        <ele>569.0</ele>
        <time>2021-10-10T12:16:16Z</time>
      </trkpt>
      <trkpt lat="43.0421820" lon="-5.8301220">
        <ele>569.4</ele>
        <time>2021-10-10T12:16:19Z</time>
      </trkpt>
      <trkpt lat="43.0421670" lon="-5.8301280">
        <ele>569.6</ele>
        <time>2021-10-10T12:16:20Z</time>
      </trkpt>
      <trkpt lat="43.0421490" lon="-5.8301350">
        <ele>569.6</ele>
        <time>2021-10-10T12:16:21Z</time>
      </trkpt>
      <trkpt lat="43.0421330" lon="-5.8301520">
        <ele>569.8</ele>
        <time>2021-10-10T12:16:22Z</time>
      </trkpt>
      <trkpt lat="43.0421130" lon="-5.8301670">
        <ele>570.0</ele>
        <time>2021-10-10T12:16:23Z</time>
      </trkpt>
      <trkpt lat="43.0420120" lon="-5.8302190">
        <ele>570.4</ele>
        <time>2021-10-10T12:16:28Z</time>
      </trkpt>
      <trkpt lat="43.0419900" lon="-5.8302360">
        <ele>570.6</ele>
        <time>2021-10-10T12:16:29Z</time>
      </trkpt>
      <trkpt lat="43.0419550" lon="-5.8302630">
        <ele>570.8</ele>
        <time>2021-10-10T12:16:31Z</time>
      </trkpt>
      <trkpt lat="43.0419380" lon="-5.8302710">
        <ele>571.0</ele>
        <time>2021-10-10T12:16:32Z</time>
      </trkpt>
      <trkpt lat="43.0419210" lon="-5.8302790">
        <ele>571.2</ele>
        <time>2021-10-10T12:16:33Z</time>
      </trkpt>
      <trkpt lat="43.0418170" lon="-5.8303800">
        <ele>572.0</ele>
        <time>2021-10-10T12:16:39Z</time>
      </trkpt>
      <trkpt lat="43.0418040" lon="-5.8303990">
        <ele>572.2</ele>
        <time>2021-10-10T12:16:40Z</time>
      </trkpt>
      <trkpt lat="43.0417720" lon="-5.8304350">
        <ele>572.4</ele>
        <time>2021-10-10T12:16:42Z</time>
      </trkpt>
      <trkpt lat="43.0417540" lon="-5.8304540">
        <ele>572.4</ele>
        <time>2021-10-10T12:16:43Z</time>
      </trkpt>
      <trkpt lat="43.0417350" lon="-5.8304660">
        <ele>572.6</ele>
        <time>2021-10-10T12:16:44Z</time>
      </trkpt>
      <trkpt lat="43.0416980" lon="-5.8304910">
        <ele>572.6</ele>
        <time>2021-10-10T12:16:46Z</time>
      </trkpt>
      <trkpt lat="43.0416860" lon="-5.8305000">
        <ele>573.0</ele>
        <time>2021-10-10T12:16:47Z</time>
      </trkpt>
      <trkpt lat="43.0416300" lon="-5.8305240">
        <ele>573.4</ele>
        <time>2021-10-10T12:16:50Z</time>
      </trkpt>
      <trkpt lat="43.0415610" lon="-5.8305300">
        <ele>573.8</ele>
        <time>2021-10-10T12:16:53Z</time>
      </trkpt>
      <trkpt lat="43.0415170" lon="-5.8305380">
        <ele>574.0</ele>
        <time>2021-10-10T12:16:55Z</time>
      </trkpt>
      <trkpt lat="43.0414940" lon="-5.8305470">
        <ele>574.0</ele>
        <time>2021-10-10T12:16:56Z</time>
      </trkpt>
      <trkpt lat="43.0414550" lon="-5.8305620">
        <ele>574.4</ele>
        <time>2021-10-10T12:16:58Z</time>
      </trkpt>
      <trkpt lat="43.0414380" lon="-5.8305550">
        <ele>574.4</ele>
        <time>2021-10-10T12:16:59Z</time>
      </trkpt>
      <trkpt lat="43.0413560" lon="-5.8305210">
        <ele>575.0</ele>
        <time>2021-10-10T12:17:03Z</time>
      </trkpt>
      <trkpt lat="43.0413320" lon="-5.8305140">
        <ele>575.2</ele>
        <time>2021-10-10T12:17:04Z</time>
      </trkpt>
      <trkpt lat="43.0413160" lon="-5.8305110">
        <ele>575.2</ele>
        <time>2021-10-10T12:17:05Z</time>
      </trkpt>
      <trkpt lat="43.0412980" lon="-5.8305080">
        <ele>575.4</ele>
        <time>2021-10-10T12:17:06Z</time>
      </trkpt>
      <trkpt lat="43.0412370" lon="-5.8304850">
        <ele>576.0</ele>
        <time>2021-10-10T12:17:09Z</time>
      </trkpt>
      <trkpt lat="43.0412180" lon="-5.8304810">
        <ele>576.2</ele>
        <time>2021-10-10T12:17:10Z</time>
      </trkpt>
      <trkpt lat="43.0411980" lon="-5.8304820">
        <ele>576.4</ele>
        <time>2021-10-10T12:17:11Z</time>
      </trkpt>
      <trkpt lat="43.0411540" lon="-5.8304800">
        <ele>576.6</ele>
        <time>2021-10-10T12:17:13Z</time>
      </trkpt>
      <trkpt lat="43.0411310" lon="-5.8304690">
        <ele>576.6</ele>
        <time>2021-10-10T12:17:14Z</time>
      </trkpt>
      <trkpt lat="43.0410880" lon="-5.8304430">
        <ele>576.8</ele>
        <time>2021-10-10T12:17:16Z</time>
      </trkpt>
      <trkpt lat="43.0410710" lon="-5.8304300">
        <ele>577.0</ele>
        <time>2021-10-10T12:17:17Z</time>
      </trkpt>
      <trkpt lat="43.0410470" lon="-5.8304160">
        <ele>577.0</ele>
        <time>2021-10-10T12:17:18Z</time>
      </trkpt>
      <trkpt lat="43.0410050" lon="-5.8304160">
        <ele>577.4</ele>
        <time>2021-10-10T12:17:20Z</time>
      </trkpt>
      <trkpt lat="43.0409210" lon="-5.8304200">
        <ele>577.6</ele>
        <time>2021-10-10T12:17:23Z</time>
      </trkpt>
      <trkpt lat="43.0408140" lon="-5.8304560">
        <ele>578.0</ele>
        <time>2021-10-10T12:17:28Z</time>
      </trkpt>
      <trkpt lat="43.0407650" lon="-5.8305180">
        <ele>578.2</ele>
        <time>2021-10-10T12:17:31Z</time>
      </trkpt>
      <trkpt lat="43.0407460" lon="-5.8305420">
        <ele>578.2</ele>
        <time>2021-10-10T12:17:32Z</time>
      </trkpt>
      <trkpt lat="43.0407130" lon="-5.8306010">
        <ele>578.2</ele>
        <time>2021-10-10T12:17:34Z</time>
      </trkpt>
      <trkpt lat="43.0406980" lon="-5.8306340">
        <ele>578.4</ele>
        <time>2021-10-10T12:17:35Z</time>
      </trkpt>
      <trkpt lat="43.0406740" lon="-5.8306900">
        <ele>578.4</ele>
        <time>2021-10-10T12:17:37Z</time>
      </trkpt>
      <trkpt lat="43.0406530" lon="-5.8307390">
        <ele>578.6</ele>
        <time>2021-10-10T12:17:40Z</time>
      </trkpt>
      <trkpt lat="43.0406510" lon="-5.8307450">
        <ele>578.6</ele>
        <time>2021-10-10T12:17:44Z</time>
      </trkpt>
      <trkpt lat="43.0406510" lon="-5.8307530">
        <ele>578.6</ele>
        <time>2021-10-10T12:17:48Z</time>
      </trkpt>
      <trkpt lat="43.0406050" lon="-5.8307630">
        <ele>578.8</ele>
        <time>2021-10-10T12:23:49Z</time>
      </trkpt>
      <trkpt lat="43.0405780" lon="-5.8307760">
        <ele>578.8</ele>
        <time>2021-10-10T12:23:50Z</time>
      </trkpt>
      <trkpt lat="43.0405590" lon="-5.8307830">
        <ele>578.8</ele>
        <time>2021-10-10T12:23:51Z</time>
      </trkpt>
      <trkpt lat="43.0404160" lon="-5.8308510">
        <ele>579.0</ele>
        <time>2021-10-10T12:23:56Z</time>
      </trkpt>
      <trkpt lat="43.0402570" lon="-5.8309030">
        <ele>579.0</ele>
        <time>2021-10-10T12:24:01Z</time>
      </trkpt>
      <trkpt lat="43.0401890" lon="-5.8309230">
        <ele>579.2</ele>
        <time>2021-10-10T12:24:03Z</time>
      </trkpt>
      <trkpt lat="43.0401500" lon="-5.8309360">
        <ele>579.2</ele>
        <time>2021-10-10T12:24:04Z</time>
      </trkpt>
      <trkpt lat="43.0401060" lon="-5.8309540">
        <ele>579.2</ele>
        <time>2021-10-10T12:24:05Z</time>
      </trkpt>
      <trkpt lat="43.0400260" lon="-5.8309860">
        <ele>579.4</ele>
        <time>2021-10-10T12:24:07Z</time>
      </trkpt>
      <trkpt lat="43.0399940" lon="-5.8309970">
        <ele>579.4</ele>
        <time>2021-10-10T12:24:08Z</time>
      </trkpt>
      <trkpt lat="43.0399120" lon="-5.8310200">
        <ele>580.0</ele>
        <time>2021-10-10T12:24:10Z</time>
      </trkpt>
      <trkpt lat="43.0397830" lon="-5.8310610">
        <ele>580.4</ele>
        <time>2021-10-10T12:24:13Z</time>
      </trkpt>
      <trkpt lat="43.0396450" lon="-5.8310770">
        <ele>580.6</ele>
        <time>2021-10-10T12:24:16Z</time>
      </trkpt>
      <trkpt lat="43.0395740" lon="-5.8311010">
        <ele>580.8</ele>
        <time>2021-10-10T12:24:18Z</time>
      </trkpt>
      <trkpt lat="43.0394580" lon="-5.8311630">
        <ele>581.0</ele>
        <time>2021-10-10T12:24:21Z</time>
      </trkpt>
      <trkpt lat="43.0394180" lon="-5.8311790">
        <ele>581.0</ele>
        <time>2021-10-10T12:24:22Z</time>
      </trkpt>
      <trkpt lat="43.0393300" lon="-5.8311960">
        <ele>581.4</ele>
        <time>2021-10-10T12:24:24Z</time>
      </trkpt>
      <trkpt lat="43.0392880" lon="-5.8311970">
        <ele>581.4</ele>
        <time>2021-10-10T12:24:25Z</time>
      </trkpt>
      <trkpt lat="43.0391580" lon="-5.8311820">
        <ele>581.8</ele>
        <time>2021-10-10T12:24:28Z</time>
      </trkpt>
      <trkpt lat="43.0389010" lon="-5.8311310">
        <ele>582.6</ele>
        <time>2021-10-10T12:24:34Z</time>
      </trkpt>
      <trkpt lat="43.0388540" lon="-5.8311280">
        <ele>582.6</ele>
        <time>2021-10-10T12:24:35Z</time>
      </trkpt>
      <trkpt lat="43.0387970" lon="-5.8311310">
        <ele>582.6</ele>
        <time>2021-10-10T12:24:36Z</time>
      </trkpt>
      <trkpt lat="43.0387620" lon="-5.8311360">
        <ele>582.8</ele>
        <time>2021-10-10T12:24:37Z</time>
      </trkpt>
      <trkpt lat="43.0387240" lon="-5.8311390">
        <ele>582.8</ele>
        <time>2021-10-10T12:24:38Z</time>
      </trkpt>
      <trkpt lat="43.0386470" lon="-5.8311500">
        <ele>582.8</ele>
        <time>2021-10-10T12:24:40Z</time>
      </trkpt>
      <trkpt lat="43.0385640" lon="-5.8311560">
        <ele>583.0</ele>
        <time>2021-10-10T12:24:42Z</time>
      </trkpt>
      <trkpt lat="43.0384690" lon="-5.8311470">
        <ele>583.0</ele>
        <time>2021-10-10T12:24:44Z</time>
      </trkpt>
      <trkpt lat="43.0383770" lon="-5.8311220">
        <ele>583.0</ele>
        <time>2021-10-10T12:24:46Z</time>
      </trkpt>
      <trkpt lat="43.0382820" lon="-5.8310850">
        <ele>583.0</ele>
        <time>2021-10-10T12:24:48Z</time>
      </trkpt>
      <trkpt lat="43.0381730" lon="-5.8310790">
        <ele>583.0</ele>
        <time>2021-10-10T12:24:50Z</time>
      </trkpt>
      <trkpt lat="43.0380810" lon="-5.8310870">
        <ele>583.0</ele>
        <time>2021-10-10T12:24:52Z</time>
      </trkpt>
      <trkpt lat="43.0379070" lon="-5.8310950">
        <ele>582.8</ele>
        <time>2021-10-10T12:24:55Z</time>
      </trkpt>
      <trkpt lat="43.0378470" lon="-5.8311090">
        <ele>582.6</ele>
        <time>2021-10-10T12:24:56Z</time>
      </trkpt>
      <trkpt lat="43.0377870" lon="-5.8311330">
        <ele>582.4</ele>
        <time>2021-10-10T12:24:57Z</time>
      </trkpt>
      <trkpt lat="43.0377220" lon="-5.8311700">
        <ele>582.2</ele>
        <time>2021-10-10T12:24:58Z</time>
      </trkpt>
      <trkpt lat="43.0376530" lon="-5.8312200">
        <ele>582.0</ele>
        <time>2021-10-10T12:24:59Z</time>
      </trkpt>
      <trkpt lat="43.0375820" lon="-5.8312740">
        <ele>581.8</ele>
        <time>2021-10-10T12:25:00Z</time>
      </trkpt>
      <trkpt lat="43.0375050" lon="-5.8313100">
        <ele>581.8</ele>
        <time>2021-10-10T12:25:01Z</time>
      </trkpt>
      <trkpt lat="43.0374240" lon="-5.8313310">
        <ele>581.4</ele>
        <time>2021-10-10T12:25:02Z</time>
      </trkpt>
      <trkpt lat="43.0373420" lon="-5.8313380">
        <ele>581.2</ele>
        <time>2021-10-10T12:25:03Z</time>
      </trkpt>
      <trkpt lat="43.0371540" lon="-5.8312980">
        <ele>580.2</ele>
        <time>2021-10-10T12:25:05Z</time>
      </trkpt>
      <trkpt lat="43.0370860" lon="-5.8312660">
        <ele>579.8</ele>
        <time>2021-10-10T12:25:06Z</time>
      </trkpt>
      <trkpt lat="43.0370000" lon="-5.8312200">
        <ele>579.2</ele>
        <time>2021-10-10T12:25:07Z</time>
      </trkpt>
      <trkpt lat="43.0367720" lon="-5.8311330">
        <ele>578.8</ele>
        <time>2021-10-10T12:25:08Z</time>
      </trkpt>
      <trkpt lat="43.0366300" lon="-5.8310930">
        <ele>578.0</ele>
        <time>2021-10-10T12:25:10Z</time>
      </trkpt>
      <trkpt lat="43.0365850" lon="-5.8310900">
        <ele>577.0</ele>
        <time>2021-10-10T12:25:11Z</time>
      </trkpt>
      <trkpt lat="43.0365400" lon="-5.8310880">
        <ele>576.8</ele>
        <time>2021-10-10T12:25:12Z</time>
      </trkpt>
      <trkpt lat="43.0363860" lon="-5.8311400">
        <ele>575.6</ele>
        <time>2021-10-10T12:25:14Z</time>
      </trkpt>
      <trkpt lat="43.0362760" lon="-5.8312850">
        <ele>575.2</ele>
        <time>2021-10-10T12:25:15Z</time>
      </trkpt>
      <trkpt lat="43.0362420" lon="-5.8313890">
        <ele>574.6</ele>
        <time>2021-10-10T12:25:16Z</time>
      </trkpt>
      <trkpt lat="43.0362060" lon="-5.8315480">
        <ele>574.4</ele>
        <time>2021-10-10T12:25:17Z</time>
      </trkpt>
      <trkpt lat="43.0361690" lon="-5.8317070">
        <ele>573.0</ele>
        <time>2021-10-10T12:25:19Z</time>
      </trkpt>
      <trkpt lat="43.0361480" lon="-5.8318090">
        <ele>571.8</ele>
        <time>2021-10-10T12:25:21Z</time>
      </trkpt>
      <trkpt lat="43.0361080" lon="-5.8319010">
        <ele>571.2</ele>
        <time>2021-10-10T12:25:22Z</time>
      </trkpt>
      <trkpt lat="43.0359860" lon="-5.8321760">
        <ele>570.4</ele>
        <time>2021-10-10T12:25:25Z</time>
      </trkpt>
      <trkpt lat="43.0358380" lon="-5.8323740">
        <ele>569.2</ele>
        <time>2021-10-10T12:25:28Z</time>
      </trkpt>
      <trkpt lat="43.0356560" lon="-5.8324370">
        <ele>569.0</ele>
        <time>2021-10-10T12:25:30Z</time>
      </trkpt>
      <trkpt lat="43.0355870" lon="-5.8324230">
        <ele>568.8</ele>
        <time>2021-10-10T12:25:32Z</time>
      </trkpt>
      <trkpt lat="43.0354010" lon="-5.8323580">
        <ele>568.6</ele>
        <time>2021-10-10T12:25:35Z</time>
      </trkpt>
      <trkpt lat="43.0351370" lon="-5.8322200">
        <ele>568.6</ele>
        <time>2021-10-10T12:25:39Z</time>
      </trkpt>
      <trkpt lat="43.0350820" lon="-5.8321870">
        <ele>568.6</ele>
        <time>2021-10-10T12:25:41Z</time>
      </trkpt>
      <trkpt lat="43.0350310" lon="-5.8321530">
        <ele>568.6</ele>
        <time>2021-10-10T12:25:42Z</time>
      </trkpt>
      <trkpt lat="43.0349310" lon="-5.8321010">
        <ele>568.6</ele>
        <time>2021-10-10T12:25:43Z</time>
      </trkpt>
      <trkpt lat="43.0348780" lon="-5.8320830">
        <ele>568.6</ele>
        <time>2021-10-10T12:25:44Z</time>
      </trkpt>
      <trkpt lat="43.0348210" lon="-5.8320720">
        <ele>568.6</ele>
        <time>2021-10-10T12:25:45Z</time>
      </trkpt>
      <trkpt lat="43.0347920" lon="-5.8320710">
        <ele>568.6</ele>
        <time>2021-10-10T12:25:46Z</time>
      </trkpt>
      <trkpt lat="43.0347630" lon="-5.8320710">
        <ele>568.6</ele>
        <time>2021-10-10T12:25:47Z</time>
      </trkpt>
      <trkpt lat="43.0345460" lon="-5.8321550">
        <ele>568.8</ele>
        <time>2021-10-10T12:25:50Z</time>
      </trkpt>
      <trkpt lat="43.0344440" lon="-5.8321910">
        <ele>568.8</ele>
        <time>2021-10-10T12:25:52Z</time>
      </trkpt>
      <trkpt lat="43.0343940" lon="-5.8322230">
        <ele>568.8</ele>
        <time>2021-10-10T12:25:53Z</time>
      </trkpt>
      <trkpt lat="43.0342910" lon="-5.8322810">
        <ele>568.8</ele>
        <time>2021-10-10T12:25:55Z</time>
      </trkpt>
      <trkpt lat="43.0341880" lon="-5.8323420">
        <ele>568.8</ele>
        <time>2021-10-10T12:25:57Z</time>
      </trkpt>
      <trkpt lat="43.0341380" lon="-5.8323680">
        <ele>568.8</ele>
        <time>2021-10-10T12:25:58Z</time>
      </trkpt>
      <trkpt lat="43.0340330" lon="-5.8324130">
        <ele>568.8</ele>
        <time>2021-10-10T12:26:00Z</time>
      </trkpt>
      <trkpt lat="43.0339760" lon="-5.8324240">
        <ele>568.8</ele>
        <time>2021-10-10T12:26:02Z</time>
      </trkpt>
      <trkpt lat="43.0336360" lon="-5.8324730">
        <ele>569.0</ele>
        <time>2021-10-10T12:26:07Z</time>
      </trkpt>
      <trkpt lat="43.0335840" lon="-5.8324870">
        <ele>569.0</ele>
        <time>2021-10-10T12:26:08Z</time>
      </trkpt>
      <trkpt lat="43.0335320" lon="-5.8325010">
        <ele>569.2</ele>
        <time>2021-10-10T12:26:09Z</time>
      </trkpt>
      <trkpt lat="43.0331030" lon="-5.8326180">
        <ele>570.0</ele>
        <time>2021-10-10T12:26:18Z</time>
      </trkpt>
      <trkpt lat="43.0329780" lon="-5.8326570">
        <ele>570.2</ele>
        <time>2021-10-10T12:26:21Z</time>
      </trkpt>
      <trkpt lat="43.0329300" lon="-5.8326770">
        <ele>570.2</ele>
        <time>2021-10-10T12:26:22Z</time>
      </trkpt>
      <trkpt lat="43.0328580" lon="-5.8327170">
        <ele>570.4</ele>
        <time>2021-10-10T12:26:24Z</time>
      </trkpt>
      <trkpt lat="43.0328230" lon="-5.8327410">
        <ele>570.6</ele>
        <time>2021-10-10T12:26:25Z</time>
      </trkpt>
      <trkpt lat="43.0326670" lon="-5.8328480">
        <ele>570.8</ele>
        <time>2021-10-10T12:26:29Z</time>
      </trkpt>
      <trkpt lat="43.0326280" lon="-5.8328760">
        <ele>571.0</ele>
        <time>2021-10-10T12:26:30Z</time>
      </trkpt>
      <trkpt lat="43.0324810" lon="-5.8329840">
        <ele>571.4</ele>
        <time>2021-10-10T12:26:34Z</time>
      </trkpt>
      <trkpt lat="43.0323300" lon="-5.8331270">
        <ele>572.0</ele>
        <time>2021-10-10T12:26:38Z</time>
      </trkpt>
      <trkpt lat="43.0322910" lon="-5.8331560">
        <ele>572.0</ele>
        <time>2021-10-10T12:26:39Z</time>
      </trkpt>
      <trkpt lat="43.0322160" lon="-5.8332100">
        <ele>572.0</ele>
        <time>2021-10-10T12:26:41Z</time>
      </trkpt>
      <trkpt lat="43.0321120" lon="-5.8332840">
        <ele>572.4</ele>
        <time>2021-10-10T12:26:44Z</time>
      </trkpt>
      <trkpt lat="43.0320460" lon="-5.8333330">
        <ele>572.8</ele>
        <time>2021-10-10T12:26:46Z</time>
      </trkpt>
      <trkpt lat="43.0319740" lon="-5.8333620">
        <ele>572.8</ele>
        <time>2021-10-10T12:26:48Z</time>
      </trkpt>
      <trkpt lat="43.0318940" lon="-5.8333800">
        <ele>573.2</ele>
        <time>2021-10-10T12:26:50Z</time>
      </trkpt>
      <trkpt lat="43.0318550" lon="-5.8333860">
        <ele>573.4</ele>
        <time>2021-10-10T12:26:51Z</time>
      </trkpt>
      <trkpt lat="43.0317730" lon="-5.8333890">
        <ele>573.6</ele>
        <time>2021-10-10T12:26:53Z</time>
      </trkpt>
      <trkpt lat="43.0316960" lon="-5.8333840">
        <ele>573.8</ele>
        <time>2021-10-10T12:26:55Z</time>
      </trkpt>
      <trkpt lat="43.0316220" lon="-5.8333630">
        <ele>574.2</ele>
        <time>2021-10-10T12:26:57Z</time>
      </trkpt>
      <trkpt lat="43.0315850" lon="-5.8333600">
        <ele>574.2</ele>
        <time>2021-10-10T12:26:58Z</time>
      </trkpt>
      <trkpt lat="43.0315470" lon="-5.8333580">
        <ele>574.4</ele>
        <time>2021-10-10T12:26:59Z</time>
      </trkpt>
      <trkpt lat="43.0314450" lon="-5.8333470">
        <ele>574.6</ele>
        <time>2021-10-10T12:27:02Z</time>
      </trkpt>
      <trkpt lat="43.0314130" lon="-5.8333420">
        <ele>574.8</ele>
        <time>2021-10-10T12:27:03Z</time>
      </trkpt>
      <trkpt lat="43.0312210" lon="-5.8333310">
        <ele>575.8</ele>
        <time>2021-10-10T12:27:09Z</time>
      </trkpt>
      <trkpt lat="43.0311930" lon="-5.8333300">
        <ele>575.8</ele>
        <time>2021-10-10T12:27:10Z</time>
      </trkpt>
      <trkpt lat="43.0309930" lon="-5.8333520">
        <ele>576.8</ele>
        <time>2021-10-10T12:27:17Z</time>
      </trkpt>
      <trkpt lat="43.0308270" lon="-5.8334090">
        <ele>577.6</ele>
        <time>2021-10-10T12:27:24Z</time>
      </trkpt>
      <trkpt lat="43.0308010" lon="-5.8334130">
        <ele>577.8</ele>
        <time>2021-10-10T12:27:25Z</time>
      </trkpt>
      <trkpt lat="43.0306390" lon="-5.8334730">
        <ele>579.0</ele>
        <time>2021-10-10T12:27:32Z</time>
      </trkpt>
      <trkpt lat="43.0305190" lon="-5.8335210">
        <ele>579.8</ele>
        <time>2021-10-10T12:27:37Z</time>
      </trkpt>
      <trkpt lat="43.0304950" lon="-5.8335320">
        <ele>580.0</ele>
        <time>2021-10-10T12:27:38Z</time>
      </trkpt>
      <trkpt lat="43.0304720" lon="-5.8335400">
        <ele>580.0</ele>
        <time>2021-10-10T12:27:39Z</time>
      </trkpt>
      <trkpt lat="43.0303150" lon="-5.8336860">
        <ele>580.8</ele>
        <time>2021-10-10T12:27:46Z</time>
      </trkpt>
      <trkpt lat="43.0302840" lon="-5.8337310">
        <ele>581.0</ele>
        <time>2021-10-10T12:27:48Z</time>
      </trkpt>
      <trkpt lat="43.0302480" lon="-5.8337920">
        <ele>581.6</ele>
        <time>2021-10-10T12:27:51Z</time>
      </trkpt>
      <trkpt lat="43.0302360" lon="-5.8338180">
        <ele>581.8</ele>
        <time>2021-10-10T12:27:52Z</time>
      </trkpt>
      <trkpt lat="43.0302120" lon="-5.8338750">
        <ele>582.2</ele>
        <time>2021-10-10T12:27:54Z</time>
      </trkpt>
      <trkpt lat="43.0301830" lon="-5.8339720">
        <ele>582.6</ele>
        <time>2021-10-10T12:27:58Z</time>
      </trkpt>
      <trkpt lat="43.0301270" lon="-5.8341280">
        <ele>583.0</ele>
        <time>2021-10-10T12:28:02Z</time>
      </trkpt>
      <trkpt lat="43.0300560" lon="-5.8342450">
        <ele>583.6</ele>
        <time>2021-10-10T12:28:06Z</time>
      </trkpt>
      <trkpt lat="43.0300380" lon="-5.8342730">
        <ele>583.6</ele>
        <time>2021-10-10T12:28:07Z</time>
      </trkpt>
      <trkpt lat="43.0300030" lon="-5.8343330">
        <ele>583.8</ele>
        <time>2021-10-10T12:28:09Z</time>
      </trkpt>
      <trkpt lat="43.0299220" lon="-5.8344430">
        <ele>584.0</ele>
        <time>2021-10-10T12:28:13Z</time>
      </trkpt>
      <trkpt lat="43.0298730" lon="-5.8345120">
        <ele>584.2</ele>
        <time>2021-10-10T12:28:15Z</time>
      </trkpt>
      <trkpt lat="43.0298400" lon="-5.8345440">
        <ele>584.2</ele>
        <time>2021-10-10T12:28:16Z</time>
      </trkpt>
      <trkpt lat="43.0298170" lon="-5.8345750">
        <ele>584.2</ele>
        <time>2021-10-10T12:28:17Z</time>
      </trkpt>
      <trkpt lat="43.0297980" lon="-5.8346090">
        <ele>584.4</ele>
        <time>2021-10-10T12:28:18Z</time>
      </trkpt>
      <trkpt lat="43.0297660" lon="-5.8346830">
        <ele>584.4</ele>
        <time>2021-10-10T12:28:20Z</time>
      </trkpt>
      <trkpt lat="43.0297500" lon="-5.8347250">
        <ele>584.4</ele>
        <time>2021-10-10T12:28:21Z</time>
      </trkpt>
      <trkpt lat="43.0297360" lon="-5.8347730">
        <ele>584.4</ele>
        <time>2021-10-10T12:28:22Z</time>
      </trkpt>
      <trkpt lat="43.0297290" lon="-5.8348270">
        <ele>584.4</ele>
        <time>2021-10-10T12:28:23Z</time>
      </trkpt>
      <trkpt lat="43.0297130" lon="-5.8350860">
        <ele>584.4</ele>
        <time>2021-10-10T12:28:28Z</time>
      </trkpt>
      <trkpt lat="43.0297410" lon="-5.8353320">
        <ele>584.2</ele>
        <time>2021-10-10T12:28:33Z</time>
      </trkpt>
      <trkpt lat="43.0297380" lon="-5.8353870">
        <ele>584.2</ele>
        <time>2021-10-10T12:28:34Z</time>
      </trkpt>
      <trkpt lat="43.0297320" lon="-5.8354420">
        <ele>584.2</ele>
        <time>2021-10-10T12:28:35Z</time>
      </trkpt>
      <trkpt lat="43.0296420" lon="-5.8356180">
        <ele>584.2</ele>
        <time>2021-10-10T12:28:39Z</time>
      </trkpt>
      <trkpt lat="43.0296080" lon="-5.8356500">
        <ele>584.4</ele>
        <time>2021-10-10T12:28:40Z</time>
      </trkpt>
      <trkpt lat="43.0294160" lon="-5.8358080">
        <ele>584.6</ele>
        <time>2021-10-10T12:28:46Z</time>
      </trkpt>
      <trkpt lat="43.0293280" lon="-5.8358970">
        <ele>584.8</ele>
        <time>2021-10-10T12:28:49Z</time>
      </trkpt>
      <trkpt lat="43.0292580" lon="-5.8359730">
        <ele>585.0</ele>
        <time>2021-10-10T12:28:52Z</time>
      </trkpt>
      <trkpt lat="43.0292310" lon="-5.8360010">
        <ele>585.2</ele>
        <time>2021-10-10T12:28:53Z</time>
      </trkpt>
      <trkpt lat="43.0291780" lon="-5.8360550">
        <ele>585.4</ele>
        <time>2021-10-10T12:28:56Z</time>
      </trkpt>
      <trkpt lat="43.0290730" lon="-5.8361280">
        <ele>585.6</ele>
        <time>2021-10-10T12:28:59Z</time>
      </trkpt>
      <trkpt lat="43.0289940" lon="-5.8361830">
        <ele>586.2</ele>
        <time>2021-10-10T12:29:02Z</time>
      </trkpt>
      <trkpt lat="43.0289690" lon="-5.8361950">
        <ele>586.2</ele>
        <time>2021-10-10T12:29:03Z</time>
      </trkpt>
      <trkpt lat="43.0289410" lon="-5.8361980">
        <ele>586.2</ele>
        <time>2021-10-10T12:29:04Z</time>
      </trkpt>
      <trkpt lat="43.0288870" lon="-5.8362110">
        <ele>586.4</ele>
        <time>2021-10-10T12:29:06Z</time>
      </trkpt>
      <trkpt lat="43.0288310" lon="-5.8362300">
        <ele>586.6</ele>
        <time>2021-10-10T12:29:08Z</time>
      </trkpt>
      <trkpt lat="43.0287980" lon="-5.8362300">
        <ele>586.8</ele>
        <time>2021-10-10T12:29:09Z</time>
      </trkpt>
      <trkpt lat="43.0287460" lon="-5.8362660">
        <ele>586.8</ele>
        <time>2021-10-10T12:29:11Z</time>
      </trkpt>
      <trkpt lat="43.0287050" lon="-5.8362880">
        <ele>587.0</ele>
        <time>2021-10-10T12:29:13Z</time>
      </trkpt>
      <trkpt lat="43.0286400" lon="-5.8362900">
        <ele>587.4</ele>
        <time>2021-10-10T12:29:15Z</time>
      </trkpt>
      <trkpt lat="43.0284530" lon="-5.8362680">
        <ele>587.8</ele>
        <time>2021-10-10T12:29:20Z</time>
      </trkpt>
      <trkpt lat="43.0283550" lon="-5.8362390">
        <ele>588.2</ele>
        <time>2021-10-10T12:29:23Z</time>
      </trkpt>
      <trkpt lat="43.0282570" lon="-5.8362370">
        <ele>588.6</ele>
        <time>2021-10-10T12:29:26Z</time>
      </trkpt>
      <trkpt lat="43.0281950" lon="-5.8362510">
        <ele>588.8</ele>
        <time>2021-10-10T12:29:28Z</time>
      </trkpt>
      <trkpt lat="43.0281630" lon="-5.8362670">
        <ele>588.8</ele>
        <time>2021-10-10T12:29:29Z</time>
      </trkpt>
      <trkpt lat="43.0280980" lon="-5.8363090">
        <ele>589.0</ele>
        <time>2021-10-10T12:29:31Z</time>
      </trkpt>
      <trkpt lat="43.0280500" lon="-5.8363550">
        <ele>589.2</ele>
        <time>2021-10-10T12:29:33Z</time>
      </trkpt>
      <trkpt lat="43.0279960" lon="-5.8364110">
        <ele>589.4</ele>
        <time>2021-10-10T12:29:35Z</time>
      </trkpt>
      <trkpt lat="43.0279630" lon="-5.8364750">
        <ele>589.6</ele>
        <time>2021-10-10T12:29:37Z</time>
      </trkpt>
      <trkpt lat="43.0279510" lon="-5.8364980">
        <ele>589.8</ele>
        <time>2021-10-10T12:29:38Z</time>
      </trkpt>
      <trkpt lat="43.0279350" lon="-5.8365290">
        <ele>590.0</ele>
        <time>2021-10-10T12:29:39Z</time>
      </trkpt>
      <trkpt lat="43.0279150" lon="-5.8365580">
        <ele>590.0</ele>
        <time>2021-10-10T12:29:40Z</time>
      </trkpt>
      <trkpt lat="43.0278940" lon="-5.8365950">
        <ele>590.2</ele>
        <time>2021-10-10T12:29:41Z</time>
      </trkpt>
      <trkpt lat="43.0278730" lon="-5.8366260">
        <ele>590.4</ele>
        <time>2021-10-10T12:29:42Z</time>
      </trkpt>
      <trkpt lat="43.0277980" lon="-5.8366970">
        <ele>590.6</ele>
        <time>2021-10-10T12:29:45Z</time>
      </trkpt>
      <trkpt lat="43.0277590" lon="-5.8367420">
        <ele>591.0</ele>
        <time>2021-10-10T12:29:47Z</time>
      </trkpt>
      <trkpt lat="43.0277350" lon="-5.8367590">
        <ele>591.2</ele>
        <time>2021-10-10T12:29:48Z</time>
      </trkpt>
      <trkpt lat="43.0276600" lon="-5.8368010">
        <ele>591.4</ele>
        <time>2021-10-10T12:29:51Z</time>
      </trkpt>
      <trkpt lat="43.0275970" lon="-5.8368160">
        <ele>591.8</ele>
        <time>2021-10-10T12:29:53Z</time>
      </trkpt>
      <trkpt lat="43.0274900" lon="-5.8368490">
        <ele>592.0</ele>
        <time>2021-10-10T12:29:57Z</time>
      </trkpt>
      <trkpt lat="43.0274600" lon="-5.8368520">
        <ele>592.4</ele>
        <time>2021-10-10T12:29:58Z</time>
      </trkpt>
      <trkpt lat="43.0274310" lon="-5.8368540">
        <ele>592.4</ele>
        <time>2021-10-10T12:29:59Z</time>
      </trkpt>
      <trkpt lat="43.0273100" lon="-5.8368830">
        <ele>592.8</ele>
        <time>2021-10-10T12:30:03Z</time>
      </trkpt>
      <trkpt lat="43.0272180" lon="-5.8368950">
        <ele>593.2</ele>
        <time>2021-10-10T12:30:06Z</time>
      </trkpt>
      <trkpt lat="43.0271750" lon="-5.8368960">
        <ele>593.4</ele>
        <time>2021-10-10T12:30:08Z</time>
      </trkpt>
      <trkpt lat="43.0271190" lon="-5.8368830">
        <ele>593.4</ele>
        <time>2021-10-10T12:30:10Z</time>
      </trkpt>
      <trkpt lat="43.0270970" lon="-5.8368790">
        <ele>593.6</ele>
        <time>2021-10-10T12:30:11Z</time>
      </trkpt>
      <trkpt lat="43.0269200" lon="-5.8368380">
        <ele>594.2</ele>
        <time>2021-10-10T12:30:18Z</time>
      </trkpt>
      <trkpt lat="43.0268060" lon="-5.8368430">
        <ele>594.4</ele>
        <time>2021-10-10T12:30:22Z</time>
      </trkpt>
      <trkpt lat="43.0267530" lon="-5.8368420">
        <ele>594.8</ele>
        <time>2021-10-10T12:30:24Z</time>
      </trkpt>
      <trkpt lat="43.0266800" lon="-5.8368430">
        <ele>595.0</ele>
        <time>2021-10-10T12:30:26Z</time>
      </trkpt>
      <trkpt lat="43.0264970" lon="-5.8368560">
        <ele>595.4</ele>
        <time>2021-10-10T12:30:32Z</time>
      </trkpt>
      <trkpt lat="43.0262500" lon="-5.8368270">
        <ele>596.2</ele>
        <time>2021-10-10T12:30:40Z</time>
      </trkpt>
      <trkpt lat="43.0261290" lon="-5.8368320">
        <ele>596.4</ele>
        <time>2021-10-10T12:30:44Z</time>
      </trkpt>
      <trkpt lat="43.0260620" lon="-5.8368560">
        <ele>596.6</ele>
        <time>2021-10-10T12:30:46Z</time>
      </trkpt>
      <trkpt lat="43.0260310" lon="-5.8368710">
        <ele>596.6</ele>
        <time>2021-10-10T12:30:47Z</time>
      </trkpt>
      <trkpt lat="43.0260070" lon="-5.8368890">
        <ele>596.8</ele>
        <time>2021-10-10T12:30:48Z</time>
      </trkpt>
      <trkpt lat="43.0259230" lon="-5.8369750">
        <ele>597.0</ele>
        <time>2021-10-10T12:30:51Z</time>
      </trkpt>
      <trkpt lat="43.0258750" lon="-5.8370300">
        <ele>597.2</ele>
        <time>2021-10-10T12:30:53Z</time>
      </trkpt>
      <trkpt lat="43.0258560" lon="-5.8370560">
        <ele>597.2</ele>
        <time>2021-10-10T12:30:54Z</time>
      </trkpt>
      <trkpt lat="43.0258090" lon="-5.8371540">
        <ele>597.6</ele>
        <time>2021-10-10T12:30:57Z</time>
      </trkpt>
      <trkpt lat="43.0257950" lon="-5.8371980">
        <ele>597.8</ele>
        <time>2021-10-10T12:30:58Z</time>
      </trkpt>
      <trkpt lat="43.0257820" lon="-5.8372450">
        <ele>598.0</ele>
        <time>2021-10-10T12:30:59Z</time>
      </trkpt>
      <trkpt lat="43.0257400" lon="-5.8374380">
        <ele>598.4</ele>
        <time>2021-10-10T12:31:03Z</time>
      </trkpt>
      <trkpt lat="43.0257090" lon="-5.8375350">
        <ele>598.6</ele>
        <time>2021-10-10T12:31:05Z</time>
      </trkpt>
      <trkpt lat="43.0256920" lon="-5.8375770">
        <ele>598.8</ele>
        <time>2021-10-10T12:31:06Z</time>
      </trkpt>
      <trkpt lat="43.0256800" lon="-5.8376120">
        <ele>598.8</ele>
        <time>2021-10-10T12:31:07Z</time>
      </trkpt>
      <trkpt lat="43.0256540" lon="-5.8377100">
        <ele>598.8</ele>
        <time>2021-10-10T12:31:09Z</time>
      </trkpt>
      <trkpt lat="43.0256160" lon="-5.8378650">
        <ele>599.2</ele>
        <time>2021-10-10T12:31:13Z</time>
      </trkpt>
      <trkpt lat="43.0255900" lon="-5.8379550">
        <ele>599.4</ele>
        <time>2021-10-10T12:31:15Z</time>
      </trkpt>
      <trkpt lat="43.0255800" lon="-5.8379920">
        <ele>599.4</ele>
        <time>2021-10-10T12:31:16Z</time>
      </trkpt>
      <trkpt lat="43.0255560" lon="-5.8380720">
        <ele>599.6</ele>
        <time>2021-10-10T12:31:18Z</time>
      </trkpt>
      <trkpt lat="43.0255390" lon="-5.8381100">
        <ele>599.6</ele>
        <time>2021-10-10T12:31:19Z</time>
      </trkpt>
      <trkpt lat="43.0255300" lon="-5.8381260">
        <ele>599.8</ele>
        <time>2021-10-10T12:31:20Z</time>
      </trkpt>
      <trkpt lat="43.0254620" lon="-5.8382060">
        <ele>600.0</ele>
        <time>2021-10-10T12:31:23Z</time>
      </trkpt>
      <trkpt lat="43.0254120" lon="-5.8382460">
        <ele>600.4</ele>
        <time>2021-10-10T12:31:25Z</time>
      </trkpt>
      <trkpt lat="43.0253920" lon="-5.8382560">
        <ele>600.4</ele>
        <time>2021-10-10T12:31:26Z</time>
      </trkpt>
      <trkpt lat="43.0253500" lon="-5.8382700">
        <ele>600.8</ele>
        <time>2021-10-10T12:31:28Z</time>
      </trkpt>
      <trkpt lat="43.0253070" lon="-5.8382910">
        <ele>601.0</ele>
        <time>2021-10-10T12:31:30Z</time>
      </trkpt>
      <trkpt lat="43.0252490" lon="-5.8383160">
        <ele>601.4</ele>
        <time>2021-10-10T12:31:33Z</time>
      </trkpt>
      <trkpt lat="43.0252060" lon="-5.8383360">
        <ele>602.0</ele>
        <time>2021-10-10T12:31:35Z</time>
      </trkpt>
      <trkpt lat="43.0251530" lon="-5.8383570">
        <ele>602.6</ele>
        <time>2021-10-10T12:31:38Z</time>
      </trkpt>
      <trkpt lat="43.0251360" lon="-5.8383690">
        <ele>603.0</ele>
        <time>2021-10-10T12:31:39Z</time>
      </trkpt>
      <trkpt lat="43.0251050" lon="-5.8383940">
        <ele>603.4</ele>
        <time>2021-10-10T12:31:41Z</time>
      </trkpt>
      <trkpt lat="43.0250890" lon="-5.8384100">
        <ele>603.6</ele>
        <time>2021-10-10T12:31:42Z</time>
      </trkpt>
      <trkpt lat="43.0250250" lon="-5.8384520">
        <ele>604.2</ele>
        <time>2021-10-10T12:31:46Z</time>
      </trkpt>
      <trkpt lat="43.0250020" lon="-5.8384820">
        <ele>604.6</ele>
        <time>2021-10-10T12:31:48Z</time>
      </trkpt>
      <trkpt lat="43.0249810" lon="-5.8385170">
        <ele>605.0</ele>
        <time>2021-10-10T12:31:50Z</time>
      </trkpt>
      <trkpt lat="43.0249580" lon="-5.8385490">
        <ele>605.6</ele>
        <time>2021-10-10T12:31:52Z</time>
      </trkpt>
      <trkpt lat="43.0249290" lon="-5.8386040">
        <ele>606.0</ele>
        <time>2021-10-10T12:31:55Z</time>
      </trkpt>
      <trkpt lat="43.0249190" lon="-5.8386220">
        <ele>606.4</ele>
        <time>2021-10-10T12:31:56Z</time>
      </trkpt>
      <trkpt lat="43.0249080" lon="-5.8386420">
        <ele>606.6</ele>
        <time>2021-10-10T12:31:57Z</time>
      </trkpt>
      <trkpt lat="43.0248940" lon="-5.8386600">
        <ele>606.8</ele>
        <time>2021-10-10T12:31:58Z</time>
      </trkpt>
      <trkpt lat="43.0248800" lon="-5.8386780">
        <ele>606.8</ele>
        <time>2021-10-10T12:31:59Z</time>
      </trkpt>
      <trkpt lat="43.0248280" lon="-5.8387690">
        <ele>607.8</ele>
        <time>2021-10-10T12:32:04Z</time>
      </trkpt>
      <trkpt lat="43.0248080" lon="-5.8388120">
        <ele>608.0</ele>
        <time>2021-10-10T12:32:06Z</time>
      </trkpt>
      <trkpt lat="43.0247970" lon="-5.8388280">
        <ele>608.2</ele>
        <time>2021-10-10T12:32:07Z</time>
      </trkpt>
      <trkpt lat="43.0247880" lon="-5.8388410">
        <ele>608.4</ele>
        <time>2021-10-10T12:32:08Z</time>
      </trkpt>
      <trkpt lat="43.0247660" lon="-5.8388880">
        <ele>608.8</ele>
        <time>2021-10-10T12:32:11Z</time>
      </trkpt>
      <trkpt lat="43.0247400" lon="-5.8389600">
        <ele>609.4</ele>
        <time>2021-10-10T12:32:15Z</time>
      </trkpt>
      <trkpt lat="43.0247340" lon="-5.8389810">
        <ele>609.6</ele>
        <time>2021-10-10T12:32:16Z</time>
      </trkpt>
      <trkpt lat="43.0247290" lon="-5.8390030">
        <ele>609.8</ele>
        <time>2021-10-10T12:32:17Z</time>
      </trkpt>
      <trkpt lat="43.0247210" lon="-5.8390260">
        <ele>610.0</ele>
        <time>2021-10-10T12:32:18Z</time>
      </trkpt>
      <trkpt lat="43.0247140" lon="-5.8390490">
        <ele>610.4</ele>
        <time>2021-10-10T12:32:19Z</time>
      </trkpt>
      <trkpt lat="43.0247040" lon="-5.8390820">
        <ele>610.8</ele>
        <time>2021-10-10T12:32:21Z</time>
      </trkpt>
      <trkpt lat="43.0246970" lon="-5.8391020">
        <ele>610.8</ele>
        <time>2021-10-10T12:32:22Z</time>
      </trkpt>
      <trkpt lat="43.0246900" lon="-5.8391240">
        <ele>611.0</ele>
        <time>2021-10-10T12:32:23Z</time>
      </trkpt>
      <trkpt lat="43.0246830" lon="-5.8391470">
        <ele>611.0</ele>
        <time>2021-10-10T12:32:24Z</time>
      </trkpt>
      <trkpt lat="43.0246760" lon="-5.8391710">
        <ele>611.2</ele>
        <time>2021-10-10T12:32:25Z</time>
      </trkpt>
      <trkpt lat="43.0246690" lon="-5.8391950">
        <ele>611.2</ele>
        <time>2021-10-10T12:32:26Z</time>
      </trkpt>
      <trkpt lat="43.0246610" lon="-5.8392180">
        <ele>611.4</ele>
        <time>2021-10-10T12:32:27Z</time>
      </trkpt>
      <trkpt lat="43.0246550" lon="-5.8392420">
        <ele>611.6</ele>
        <time>2021-10-10T12:32:28Z</time>
      </trkpt>
      <trkpt lat="43.0246490" lon="-5.8392660">
        <ele>611.8</ele>
        <time>2021-10-10T12:32:29Z</time>
      </trkpt>
      <trkpt lat="43.0246390" lon="-5.8392910">
        <ele>612.0</ele>
        <time>2021-10-10T12:32:30Z</time>
      </trkpt>
      <trkpt lat="43.0246320" lon="-5.8393150">
        <ele>612.0</ele>
        <time>2021-10-10T12:32:31Z</time>
      </trkpt>
      <trkpt lat="43.0246210" lon="-5.8393590">
        <ele>612.0</ele>
        <time>2021-10-10T12:32:33Z</time>
      </trkpt>
      <trkpt lat="43.0245810" lon="-5.8394650">
        <ele>612.2</ele>
        <time>2021-10-10T12:32:37Z</time>
      </trkpt>
      <trkpt lat="43.0245590" lon="-5.8395260">
        <ele>612.2</ele>
        <time>2021-10-10T12:32:39Z</time>
      </trkpt>
      <trkpt lat="43.0244200" lon="-5.8397350">
        <ele>612.4</ele>
        <time>2021-10-10T12:32:46Z</time>
      </trkpt>
      <trkpt lat="43.0243730" lon="-5.8397980">
        <ele>612.4</ele>
        <time>2021-10-10T12:32:48Z</time>
      </trkpt>
      <trkpt lat="43.0243500" lon="-5.8398280">
        <ele>612.6</ele>
        <time>2021-10-10T12:32:49Z</time>
      </trkpt>
      <trkpt lat="43.0243060" lon="-5.8398950">
        <ele>612.6</ele>
        <time>2021-10-10T12:32:51Z</time>
      </trkpt>
      <trkpt lat="43.0242350" lon="-5.8399880">
        <ele>612.8</ele>
        <time>2021-10-10T12:32:54Z</time>
      </trkpt>
      <trkpt lat="43.0241070" lon="-5.8401160">
        <ele>612.8</ele>
        <time>2021-10-10T12:32:59Z</time>
      </trkpt>
      <trkpt lat="43.0240510" lon="-5.8401660">
        <ele>612.8</ele>
        <time>2021-10-10T12:33:01Z</time>
      </trkpt>
      <trkpt lat="43.0240220" lon="-5.8401880">
        <ele>612.8</ele>
        <time>2021-10-10T12:33:02Z</time>
      </trkpt>
      <trkpt lat="43.0238980" lon="-5.8403170">
        <ele>613.0</ele>
        <time>2021-10-10T12:33:07Z</time>
      </trkpt>
      <trkpt lat="43.0238470" lon="-5.8403780">
        <ele>613.0</ele>
        <time>2021-10-10T12:33:09Z</time>
      </trkpt>
      <trkpt lat="43.0238040" lon="-5.8404280">
        <ele>613.0</ele>
        <time>2021-10-10T12:33:11Z</time>
      </trkpt>
      <trkpt lat="43.0237320" lon="-5.8405390">
        <ele>613.2</ele>
        <time>2021-10-10T12:33:15Z</time>
      </trkpt>
      <trkpt lat="43.0237190" lon="-5.8405640">
        <ele>613.4</ele>
        <time>2021-10-10T12:33:16Z</time>
      </trkpt>
      <trkpt lat="43.0237100" lon="-5.8405890">
        <ele>613.4</ele>
        <time>2021-10-10T12:33:17Z</time>
      </trkpt>
      <trkpt lat="43.0236760" lon="-5.8406920">
        <ele>614.2</ele>
        <time>2021-10-10T12:33:21Z</time>
      </trkpt>
      <trkpt lat="43.0236570" lon="-5.8407350">
        <ele>614.6</ele>
        <time>2021-10-10T12:33:23Z</time>
      </trkpt>
      <trkpt lat="43.0236340" lon="-5.8407690">
        <ele>615.0</ele>
        <time>2021-10-10T12:33:25Z</time>
      </trkpt>
      <trkpt lat="43.0236250" lon="-5.8407900">
        <ele>615.2</ele>
        <time>2021-10-10T12:33:26Z</time>
      </trkpt>
      <trkpt lat="43.0236170" lon="-5.8408090">
        <ele>615.4</ele>
        <time>2021-10-10T12:33:27Z</time>
      </trkpt>
      <trkpt lat="43.0236040" lon="-5.8408440">
        <ele>615.8</ele>
        <time>2021-10-10T12:33:29Z</time>
      </trkpt>
      <trkpt lat="43.0235980" lon="-5.8408670">
        <ele>616.0</ele>
        <time>2021-10-10T12:33:30Z</time>
      </trkpt>
      <trkpt lat="43.0235740" lon="-5.8409260">
        <ele>616.4</ele>
        <time>2021-10-10T12:33:32Z</time>
      </trkpt>
      <trkpt lat="43.0235500" lon="-5.8410230">
        <ele>617.0</ele>
        <time>2021-10-10T12:33:36Z</time>
      </trkpt>
      <trkpt lat="43.0235280" lon="-5.8410750">
        <ele>617.6</ele>
        <time>2021-10-10T12:33:39Z</time>
      </trkpt>
      <trkpt lat="43.0235210" lon="-5.8410990">
        <ele>618.0</ele>
        <time>2021-10-10T12:33:40Z</time>
      </trkpt>
      <trkpt lat="43.0235130" lon="-5.8411530">
        <ele>618.2</ele>
        <time>2021-10-10T12:33:42Z</time>
      </trkpt>
      <trkpt lat="43.0234990" lon="-5.8412200">
        <ele>618.8</ele>
        <time>2021-10-10T12:33:45Z</time>
      </trkpt>
      <trkpt lat="43.0234810" lon="-5.8412720">
        <ele>619.2</ele>
        <time>2021-10-10T12:33:47Z</time>
      </trkpt>
      <trkpt lat="43.0234720" lon="-5.8412920">
        <ele>619.4</ele>
        <time>2021-10-10T12:33:48Z</time>
      </trkpt>
      <trkpt lat="43.0234610" lon="-5.8413060">
        <ele>619.6</ele>
        <time>2021-10-10T12:33:49Z</time>
      </trkpt>
      <trkpt lat="43.0234540" lon="-5.8413300">
        <ele>619.8</ele>
        <time>2021-10-10T12:33:50Z</time>
      </trkpt>
      <trkpt lat="43.0234470" lon="-5.8413560">
        <ele>620.0</ele>
        <time>2021-10-10T12:33:51Z</time>
      </trkpt>
      <trkpt lat="43.0234310" lon="-5.8415150">
        <ele>620.8</ele>
        <time>2021-10-10T12:33:57Z</time>
      </trkpt>
      <trkpt lat="43.0234290" lon="-5.8415400">
        <ele>621.0</ele>
        <time>2021-10-10T12:33:58Z</time>
      </trkpt>
      <trkpt lat="43.0234250" lon="-5.8415630">
        <ele>621.0</ele>
        <time>2021-10-10T12:33:59Z</time>
      </trkpt>
      <trkpt lat="43.0234190" lon="-5.8415840">
        <ele>621.2</ele>
        <time>2021-10-10T12:34:00Z</time>
      </trkpt>
      <trkpt lat="43.0234130" lon="-5.8416050">
        <ele>621.2</ele>
        <time>2021-10-10T12:34:01Z</time>
      </trkpt>
      <trkpt lat="43.0234060" lon="-5.8416290">
        <ele>621.4</ele>
        <time>2021-10-10T12:34:02Z</time>
      </trkpt>
      <trkpt lat="43.0234010" lon="-5.8416480">
        <ele>621.6</ele>
        <time>2021-10-10T12:34:04Z</time>
      </trkpt>
      <trkpt lat="43.0233800" lon="-5.8417560">
        <ele>622.2</ele>
        <time>2021-10-10T12:34:07Z</time>
      </trkpt>
      <trkpt lat="43.0233730" lon="-5.8418070">
        <ele>622.4</ele>
        <time>2021-10-10T12:34:09Z</time>
      </trkpt>
      <trkpt lat="43.0233730" lon="-5.8418290">
        <ele>622.4</ele>
        <time>2021-10-10T12:34:10Z</time>
      </trkpt>
      <trkpt lat="43.0233620" lon="-5.8418740">
        <ele>622.8</ele>
        <time>2021-10-10T12:34:12Z</time>
      </trkpt>
      <trkpt lat="43.0233550" lon="-5.8419120">
        <ele>623.4</ele>
        <time>2021-10-10T12:34:14Z</time>
      </trkpt>
      <trkpt lat="43.0233520" lon="-5.8419340">
        <ele>623.4</ele>
        <time>2021-10-10T12:34:15Z</time>
      </trkpt>
      <trkpt lat="43.0233510" lon="-5.8419600">
        <ele>623.8</ele>
        <time>2021-10-10T12:34:16Z</time>
      </trkpt>
      <trkpt lat="43.0233520" lon="-5.8419990">
        <ele>623.8</ele>
        <time>2021-10-10T12:34:18Z</time>
      </trkpt>
      <trkpt lat="43.0233520" lon="-5.8420260">
        <ele>623.8</ele>
        <time>2021-10-10T12:34:19Z</time>
      </trkpt>
      <trkpt lat="43.0233520" lon="-5.8420820">
        <ele>624.2</ele>
        <time>2021-10-10T12:34:21Z</time>
      </trkpt>
      <trkpt lat="43.0233510" lon="-5.8421060">
        <ele>624.2</ele>
        <time>2021-10-10T12:34:22Z</time>
      </trkpt>
      <trkpt lat="43.0233410" lon="-5.8421470">
        <ele>624.6</ele>
        <time>2021-10-10T12:34:24Z</time>
      </trkpt>
      <trkpt lat="43.0233360" lon="-5.8421880">
        <ele>624.8</ele>
        <time>2021-10-10T12:34:26Z</time>
      </trkpt>
      <trkpt lat="43.0233290" lon="-5.8422290">
        <ele>625.2</ele>
        <time>2021-10-10T12:34:28Z</time>
      </trkpt>
      <trkpt lat="43.0233260" lon="-5.8422510">
        <ele>625.4</ele>
        <time>2021-10-10T12:34:29Z</time>
      </trkpt>
      <trkpt lat="43.0233120" lon="-5.8423010">
        <ele>625.6</ele>
        <time>2021-10-10T12:34:31Z</time>
      </trkpt>
      <trkpt lat="43.0232980" lon="-5.8423450">
        <ele>625.8</ele>
        <time>2021-10-10T12:34:33Z</time>
      </trkpt>
      <trkpt lat="43.0232920" lon="-5.8423640">
        <ele>626.0</ele>
        <time>2021-10-10T12:34:34Z</time>
      </trkpt>
      <trkpt lat="43.0232830" lon="-5.8423900">
        <ele>626.0</ele>
        <time>2021-10-10T12:34:35Z</time>
      </trkpt>
      <trkpt lat="43.0232700" lon="-5.8424340">
        <ele>626.4</ele>
        <time>2021-10-10T12:34:37Z</time>
      </trkpt>
      <trkpt lat="43.0232570" lon="-5.8424560">
        <ele>626.6</ele>
        <time>2021-10-10T12:34:38Z</time>
      </trkpt>
      <trkpt lat="43.0232420" lon="-5.8424720">
        <ele>626.8</ele>
        <time>2021-10-10T12:34:39Z</time>
      </trkpt>
      <trkpt lat="43.0232310" lon="-5.8424850">
        <ele>627.0</ele>
        <time>2021-10-10T12:34:40Z</time>
      </trkpt>
      <trkpt lat="43.0232220" lon="-5.8425040">
        <ele>627.0</ele>
        <time>2021-10-10T12:34:41Z</time>
      </trkpt>
      <trkpt lat="43.0231970" lon="-5.8425520">
        <ele>627.4</ele>
        <time>2021-10-10T12:34:43Z</time>
      </trkpt>
      <trkpt lat="43.0231840" lon="-5.8425660">
        <ele>627.6</ele>
        <time>2021-10-10T12:34:44Z</time>
      </trkpt>
      <trkpt lat="43.0231590" lon="-5.8426090">
        <ele>627.8</ele>
        <time>2021-10-10T12:34:46Z</time>
      </trkpt>
      <trkpt lat="43.0231130" lon="-5.8426770">
        <ele>628.6</ele>
        <time>2021-10-10T12:34:50Z</time>
      </trkpt>
      <trkpt lat="43.0231010" lon="-5.8426990">
        <ele>628.8</ele>
        <time>2021-10-10T12:34:51Z</time>
      </trkpt>
      <trkpt lat="43.0230920" lon="-5.8427160">
        <ele>629.0</ele>
        <time>2021-10-10T12:34:52Z</time>
      </trkpt>
      <trkpt lat="43.0230720" lon="-5.8427420">
        <ele>629.2</ele>
        <time>2021-10-10T12:34:54Z</time>
      </trkpt>
      <trkpt lat="43.0230550" lon="-5.8427790">
        <ele>629.4</ele>
        <time>2021-10-10T12:34:56Z</time>
      </trkpt>
      <trkpt lat="43.0230380" lon="-5.8428160">
        <ele>629.6</ele>
        <time>2021-10-10T12:34:58Z</time>
      </trkpt>
      <trkpt lat="43.0230320" lon="-5.8428360">
        <ele>629.6</ele>
        <time>2021-10-10T12:34:59Z</time>
      </trkpt>
      <trkpt lat="43.0230220" lon="-5.8428570">
        <ele>629.8</ele>
        <time>2021-10-10T12:35:00Z</time>
      </trkpt>
      <trkpt lat="43.0230130" lon="-5.8428780">
        <ele>630.0</ele>
        <time>2021-10-10T12:35:01Z</time>
      </trkpt>
      <trkpt lat="43.0229870" lon="-5.8429440">
        <ele>630.2</ele>
        <time>2021-10-10T12:35:04Z</time>
      </trkpt>
      <trkpt lat="43.0229730" lon="-5.8429850">
        <ele>630.6</ele>
        <time>2021-10-10T12:35:06Z</time>
      </trkpt>
      <trkpt lat="43.0229660" lon="-5.8430100">
        <ele>631.0</ele>
        <time>2021-10-10T12:35:07Z</time>
      </trkpt>
      <trkpt lat="43.0229590" lon="-5.8430560">
        <ele>631.2</ele>
        <time>2021-10-10T12:35:09Z</time>
      </trkpt>
      <trkpt lat="43.0229570" lon="-5.8430770">
        <ele>631.2</ele>
        <time>2021-10-10T12:35:10Z</time>
      </trkpt>
      <trkpt lat="43.0229550" lon="-5.8431220">
        <ele>631.6</ele>
        <time>2021-10-10T12:35:12Z</time>
      </trkpt>
      <trkpt lat="43.0229510" lon="-5.8431670">
        <ele>631.8</ele>
        <time>2021-10-10T12:35:14Z</time>
      </trkpt>
      <trkpt lat="43.0229480" lon="-5.8431900">
        <ele>632.0</ele>
        <time>2021-10-10T12:35:15Z</time>
      </trkpt>
      <trkpt lat="43.0229460" lon="-5.8432120">
        <ele>632.2</ele>
        <time>2021-10-10T12:35:16Z</time>
      </trkpt>
      <trkpt lat="43.0229450" lon="-5.8432330">
        <ele>632.2</ele>
        <time>2021-10-10T12:35:17Z</time>
      </trkpt>
      <trkpt lat="43.0229430" lon="-5.8432470">
        <ele>632.4</ele>
        <time>2021-10-10T12:35:18Z</time>
      </trkpt>
      <trkpt lat="43.0229330" lon="-5.8432850">
        <ele>632.6</ele>
        <time>2021-10-10T12:35:20Z</time>
      </trkpt>
      <trkpt lat="43.0229270" lon="-5.8433040">
        <ele>632.8</ele>
        <time>2021-10-10T12:35:21Z</time>
      </trkpt>
      <trkpt lat="43.0229210" lon="-5.8433250">
        <ele>632.8</ele>
        <time>2021-10-10T12:35:22Z</time>
      </trkpt>
      <trkpt lat="43.0229150" lon="-5.8433650">
        <ele>633.2</ele>
        <time>2021-10-10T12:35:24Z</time>
      </trkpt>
      <trkpt lat="43.0229060" lon="-5.8434010">
        <ele>633.4</ele>
        <time>2021-10-10T12:35:26Z</time>
      </trkpt>
      <trkpt lat="43.0228990" lon="-5.8434350">
        <ele>633.8</ele>
        <time>2021-10-10T12:35:28Z</time>
      </trkpt>
      <trkpt lat="43.0228870" lon="-5.8434710">
        <ele>634.0</ele>
        <time>2021-10-10T12:35:30Z</time>
      </trkpt>
      <trkpt lat="43.0228830" lon="-5.8434920">
        <ele>634.2</ele>
        <time>2021-10-10T12:35:31Z</time>
      </trkpt>
      <trkpt lat="43.0228800" lon="-5.8435150">
        <ele>634.4</ele>
        <time>2021-10-10T12:35:32Z</time>
      </trkpt>
      <trkpt lat="43.0228740" lon="-5.8435360">
        <ele>634.6</ele>
        <time>2021-10-10T12:35:33Z</time>
      </trkpt>
      <trkpt lat="43.0228690" lon="-5.8435590">
        <ele>634.6</ele>
        <time>2021-10-10T12:35:34Z</time>
      </trkpt>
      <trkpt lat="43.0228790" lon="-5.8436970">
        <ele>635.6</ele>
        <time>2021-10-10T12:35:40Z</time>
      </trkpt>
      <trkpt lat="43.0228880" lon="-5.8437340">
        <ele>636.0</ele>
        <time>2021-10-10T12:35:42Z</time>
      </trkpt>
      <trkpt lat="43.0229020" lon="-5.8437700">
        <ele>636.4</ele>
        <time>2021-10-10T12:35:44Z</time>
      </trkpt>
      <trkpt lat="43.0229100" lon="-5.8437890">
        <ele>636.4</ele>
        <time>2021-10-10T12:35:45Z</time>
      </trkpt>
      <trkpt lat="43.0229160" lon="-5.8438080">
        <ele>636.4</ele>
        <time>2021-10-10T12:35:46Z</time>
      </trkpt>
      <trkpt lat="43.0229190" lon="-5.8438260">
        <ele>636.8</ele>
        <time>2021-10-10T12:35:47Z</time>
      </trkpt>
      <trkpt lat="43.0229210" lon="-5.8438450">
        <ele>636.8</ele>
        <time>2021-10-10T12:35:48Z</time>
      </trkpt>
      <trkpt lat="43.0229240" lon="-5.8438630">
        <ele>636.8</ele>
        <time>2021-10-10T12:35:49Z</time>
      </trkpt>
      <trkpt lat="43.0229300" lon="-5.8438880">
        <ele>637.0</ele>
        <time>2021-10-10T12:35:50Z</time>
      </trkpt>
      <trkpt lat="43.0229440" lon="-5.8439150">
        <ele>637.2</ele>
        <time>2021-10-10T12:35:52Z</time>
      </trkpt>
      <trkpt lat="43.0229480" lon="-5.8439290">
        <ele>637.4</ele>
        <time>2021-10-10T12:35:53Z</time>
      </trkpt>
      <trkpt lat="43.0229500" lon="-5.8439360">
        <ele>637.8</ele>
        <time>2021-10-10T12:35:56Z</time>
      </trkpt>
      <trkpt lat="43.0229480" lon="-5.8439590">
        <ele>638.8</ele>
        <time>2021-10-10T12:40:50Z</time>
      </trkpt>
      <trkpt lat="43.0229460" lon="-5.8439780">
        <ele>638.8</ele>
        <time>2021-10-10T12:40:51Z</time>
      </trkpt>
      <trkpt lat="43.0229400" lon="-5.8440220">
        <ele>639.0</ele>
        <time>2021-10-10T12:40:53Z</time>
      </trkpt>
      <trkpt lat="43.0229470" lon="-5.8440630">
        <ele>639.2</ele>
        <time>2021-10-10T12:40:55Z</time>
      </trkpt>
      <trkpt lat="43.0229510" lon="-5.8440870">
        <ele>639.2</ele>
        <time>2021-10-10T12:40:56Z</time>
      </trkpt>
      <trkpt lat="43.0229550" lon="-5.8441070">
        <ele>639.2</ele>
        <time>2021-10-10T12:40:57Z</time>
      </trkpt>
      <trkpt lat="43.0229590" lon="-5.8441290">
        <ele>639.2</ele>
        <time>2021-10-10T12:40:58Z</time>
      </trkpt>
      <trkpt lat="43.0229840" lon="-5.8442310">
        <ele>639.8</ele>
        <time>2021-10-10T12:41:03Z</time>
      </trkpt>
      <trkpt lat="43.0230070" lon="-5.8443480">
        <ele>640.4</ele>
        <time>2021-10-10T12:41:08Z</time>
      </trkpt>
      <trkpt lat="43.0230360" lon="-5.8444520">
        <ele>641.0</ele>
        <time>2021-10-10T12:41:13Z</time>
      </trkpt>
      <trkpt lat="43.0230450" lon="-5.8445100">
        <ele>641.4</ele>
        <time>2021-10-10T12:41:16Z</time>
      </trkpt>
      <trkpt lat="43.0230490" lon="-5.8445310">
        <ele>641.4</ele>
        <time>2021-10-10T12:41:17Z</time>
      </trkpt>
      <trkpt lat="43.0230540" lon="-5.8446240">
        <ele>642.0</ele>
        <time>2021-10-10T12:41:21Z</time>
      </trkpt>
      <trkpt lat="43.0230610" lon="-5.8446840">
        <ele>642.4</ele>
        <time>2021-10-10T12:41:24Z</time>
      </trkpt>
      <trkpt lat="43.0230820" lon="-5.8448170">
        <ele>643.0</ele>
        <time>2021-10-10T12:41:30Z</time>
      </trkpt>
      <trkpt lat="43.0230860" lon="-5.8448770">
        <ele>643.4</ele>
        <time>2021-10-10T12:41:33Z</time>
      </trkpt>
      <trkpt lat="43.0230860" lon="-5.8449370">
        <ele>644.0</ele>
        <time>2021-10-10T12:41:36Z</time>
      </trkpt>
      <trkpt lat="43.0230890" lon="-5.8449530">
        <ele>644.2</ele>
        <time>2021-10-10T12:41:37Z</time>
      </trkpt>
      <trkpt lat="43.0230930" lon="-5.8449950">
        <ele>644.4</ele>
        <time>2021-10-10T12:41:39Z</time>
      </trkpt>
      <trkpt lat="43.0230990" lon="-5.8450140">
        <ele>644.6</ele>
        <time>2021-10-10T12:41:40Z</time>
      </trkpt>
      <trkpt lat="43.0231020" lon="-5.8450360">
        <ele>644.6</ele>
        <time>2021-10-10T12:41:41Z</time>
      </trkpt>
      <trkpt lat="43.0231170" lon="-5.8451170">
        <ele>645.0</ele>
        <time>2021-10-10T12:41:45Z</time>
      </trkpt>
      <trkpt lat="43.0231190" lon="-5.8451390">
        <ele>645.4</ele>
        <time>2021-10-10T12:41:46Z</time>
      </trkpt>
      <trkpt lat="43.0231180" lon="-5.8452080">
        <ele>645.8</ele>
        <time>2021-10-10T12:41:49Z</time>
      </trkpt>
      <trkpt lat="43.0231200" lon="-5.8452320">
        <ele>646.0</ele>
        <time>2021-10-10T12:41:50Z</time>
      </trkpt>
      <trkpt lat="43.0231220" lon="-5.8452800">
        <ele>646.4</ele>
        <time>2021-10-10T12:41:52Z</time>
      </trkpt>
      <trkpt lat="43.0231300" lon="-5.8453270">
        <ele>646.8</ele>
        <time>2021-10-10T12:41:54Z</time>
      </trkpt>
      <trkpt lat="43.0231320" lon="-5.8454260">
        <ele>647.6</ele>
        <time>2021-10-10T12:41:58Z</time>
      </trkpt>
      <trkpt lat="43.0231340" lon="-5.8454520">
        <ele>647.8</ele>
        <time>2021-10-10T12:41:59Z</time>
      </trkpt>
      <trkpt lat="43.0231410" lon="-5.8455220">
        <ele>648.6</ele>
        <time>2021-10-10T12:42:02Z</time>
      </trkpt>
      <trkpt lat="43.0231410" lon="-5.8455470">
        <ele>648.8</ele>
        <time>2021-10-10T12:42:03Z</time>
      </trkpt>
      <trkpt lat="43.0231390" lon="-5.8456520">
        <ele>649.4</ele>
        <time>2021-10-10T12:42:07Z</time>
      </trkpt>
      <trkpt lat="43.0231430" lon="-5.8457010">
        <ele>649.6</ele>
        <time>2021-10-10T12:42:09Z</time>
      </trkpt>
      <trkpt lat="43.0231520" lon="-5.8457480">
        <ele>649.8</ele>
        <time>2021-10-10T12:42:11Z</time>
      </trkpt>
      <trkpt lat="43.0231690" lon="-5.8457960">
        <ele>650.0</ele>
        <time>2021-10-10T12:42:13Z</time>
      </trkpt>
      <trkpt lat="43.0231740" lon="-5.8458390">
        <ele>650.2</ele>
        <time>2021-10-10T12:42:15Z</time>
      </trkpt>
      <trkpt lat="43.0231790" lon="-5.8458610">
        <ele>650.4</ele>
        <time>2021-10-10T12:42:16Z</time>
      </trkpt>
      <trkpt lat="43.0231920" lon="-5.8459080">
        <ele>650.6</ele>
        <time>2021-10-10T12:42:18Z</time>
      </trkpt>
      <trkpt lat="43.0232030" lon="-5.8459450">
        <ele>650.8</ele>
        <time>2021-10-10T12:42:20Z</time>
      </trkpt>
      <trkpt lat="43.0232160" lon="-5.8460120">
        <ele>651.4</ele>
        <time>2021-10-10T12:42:23Z</time>
      </trkpt>
      <trkpt lat="43.0232210" lon="-5.8460320">
        <ele>651.6</ele>
        <time>2021-10-10T12:42:24Z</time>
      </trkpt>
      <trkpt lat="43.0232230" lon="-5.8460490">
        <ele>651.6</ele>
        <time>2021-10-10T12:42:25Z</time>
      </trkpt>
      <trkpt lat="43.0232320" lon="-5.8460930">
        <ele>652.0</ele>
        <time>2021-10-10T12:42:27Z</time>
      </trkpt>
      <trkpt lat="43.0232520" lon="-5.8461950">
        <ele>652.4</ele>
        <time>2021-10-10T12:42:31Z</time>
      </trkpt>
      <trkpt lat="43.0232820" lon="-5.8463030">
        <ele>653.0</ele>
        <time>2021-10-10T12:42:36Z</time>
      </trkpt>
      <trkpt lat="43.0232860" lon="-5.8463240">
        <ele>653.2</ele>
        <time>2021-10-10T12:42:37Z</time>
      </trkpt>
      <trkpt lat="43.0232880" lon="-5.8463710">
        <ele>653.4</ele>
        <time>2021-10-10T12:42:39Z</time>
      </trkpt>
      <trkpt lat="43.0232890" lon="-5.8464430">
        <ele>654.0</ele>
        <time>2021-10-10T12:42:42Z</time>
      </trkpt>
      <trkpt lat="43.0232910" lon="-5.8464910">
        <ele>654.2</ele>
        <time>2021-10-10T12:42:44Z</time>
      </trkpt>
      <trkpt lat="43.0232930" lon="-5.8465130">
        <ele>654.4</ele>
        <time>2021-10-10T12:42:45Z</time>
      </trkpt>
      <trkpt lat="43.0232910" lon="-5.8465810">
        <ele>654.8</ele>
        <time>2021-10-10T12:42:48Z</time>
      </trkpt>
      <trkpt lat="43.0232780" lon="-5.8466700">
        <ele>655.2</ele>
        <time>2021-10-10T12:42:52Z</time>
      </trkpt>
      <trkpt lat="43.0232730" lon="-5.8466930">
        <ele>655.4</ele>
        <time>2021-10-10T12:42:53Z</time>
      </trkpt>
      <trkpt lat="43.0232660" lon="-5.8467410">
        <ele>655.6</ele>
        <time>2021-10-10T12:42:55Z</time>
      </trkpt>
      <trkpt lat="43.0232550" lon="-5.8468010">
        <ele>656.0</ele>
        <time>2021-10-10T12:42:58Z</time>
      </trkpt>
      <trkpt lat="43.0232440" lon="-5.8468490">
        <ele>656.4</ele>
        <time>2021-10-10T12:43:00Z</time>
      </trkpt>
      <trkpt lat="43.0232390" lon="-5.8468900">
        <ele>656.8</ele>
        <time>2021-10-10T12:43:02Z</time>
      </trkpt>
      <trkpt lat="43.0232330" lon="-5.8469100">
        <ele>657.0</ele>
        <time>2021-10-10T12:43:03Z</time>
      </trkpt>
      <trkpt lat="43.0232270" lon="-5.8469270">
        <ele>657.2</ele>
        <time>2021-10-10T12:43:04Z</time>
      </trkpt>
      <trkpt lat="43.0232120" lon="-5.8469660">
        <ele>657.4</ele>
        <time>2021-10-10T12:43:06Z</time>
      </trkpt>
      <trkpt lat="43.0231950" lon="-5.8470080">
        <ele>657.4</ele>
        <time>2021-10-10T12:43:08Z</time>
      </trkpt>
      <trkpt lat="43.0231860" lon="-5.8470270">
        <ele>657.6</ele>
        <time>2021-10-10T12:43:09Z</time>
      </trkpt>
      <trkpt lat="43.0231760" lon="-5.8470470">
        <ele>657.6</ele>
        <time>2021-10-10T12:43:10Z</time>
      </trkpt>
      <trkpt lat="43.0231630" lon="-5.8470640">
        <ele>657.8</ele>
        <time>2021-10-10T12:43:11Z</time>
      </trkpt>
      <trkpt lat="43.0231020" lon="-5.8471800">
        <ele>658.4</ele>
        <time>2021-10-10T12:43:17Z</time>
      </trkpt>
      <trkpt lat="43.0230540" lon="-5.8472890">
        <ele>659.0</ele>
        <time>2021-10-10T12:43:22Z</time>
      </trkpt>
      <trkpt lat="43.0230240" lon="-5.8473760">
        <ele>659.6</ele>
        <time>2021-10-10T12:43:26Z</time>
      </trkpt>
      <trkpt lat="43.0230080" lon="-5.8474740">
        <ele>659.8</ele>
        <time>2021-10-10T12:43:30Z</time>
      </trkpt>
      <trkpt lat="43.0230040" lon="-5.8474990">
        <ele>660.0</ele>
        <time>2021-10-10T12:43:31Z</time>
      </trkpt>
      <trkpt lat="43.0230050" lon="-5.8475450">
        <ele>660.8</ele>
        <time>2021-10-10T12:43:33Z</time>
      </trkpt>
      <trkpt lat="43.0229970" lon="-5.8477030">
        <ele>661.6</ele>
        <time>2021-10-10T12:43:40Z</time>
      </trkpt>
      <trkpt lat="43.0230020" lon="-5.8477390">
        <ele>661.8</ele>
        <time>2021-10-10T12:43:42Z</time>
      </trkpt>
      <trkpt lat="43.0230080" lon="-5.8478540">
        <ele>662.4</ele>
        <time>2021-10-10T12:43:47Z</time>
      </trkpt>
      <trkpt lat="43.0230110" lon="-5.8479280">
        <ele>662.8</ele>
        <time>2021-10-10T12:43:50Z</time>
      </trkpt>
      <trkpt lat="43.0230140" lon="-5.8479480">
        <ele>662.8</ele>
        <time>2021-10-10T12:43:51Z</time>
      </trkpt>
      <trkpt lat="43.0230150" lon="-5.8480070">
        <ele>663.2</ele>
        <time>2021-10-10T12:43:54Z</time>
      </trkpt>
      <trkpt lat="43.0230110" lon="-5.8481620">
        <ele>663.8</ele>
        <time>2021-10-10T12:44:01Z</time>
      </trkpt>
      <trkpt lat="43.0230040" lon="-5.8482310">
        <ele>664.2</ele>
        <time>2021-10-10T12:44:04Z</time>
      </trkpt>
      <trkpt lat="43.0229890" lon="-5.8483200">
        <ele>664.6</ele>
        <time>2021-10-10T12:44:08Z</time>
      </trkpt>
      <trkpt lat="43.0229780" lon="-5.8483660">
        <ele>665.0</ele>
        <time>2021-10-10T12:44:10Z</time>
      </trkpt>
      <trkpt lat="43.0229300" lon="-5.8485290">
        <ele>665.8</ele>
        <time>2021-10-10T12:44:18Z</time>
      </trkpt>
      <trkpt lat="43.0229190" lon="-5.8485680">
        <ele>666.0</ele>
        <time>2021-10-10T12:44:20Z</time>
      </trkpt>
      <trkpt lat="43.0228710" lon="-5.8486940">
        <ele>666.8</ele>
        <time>2021-10-10T12:44:26Z</time>
      </trkpt>
      <trkpt lat="43.0228640" lon="-5.8487190">
        <ele>667.0</ele>
        <time>2021-10-10T12:44:27Z</time>
      </trkpt>
      <trkpt lat="43.0228560" lon="-5.8487430">
        <ele>667.0</ele>
        <time>2021-10-10T12:44:28Z</time>
      </trkpt>
      <trkpt lat="43.0228420" lon="-5.8487880">
        <ele>667.4</ele>
        <time>2021-10-10T12:44:30Z</time>
      </trkpt>
      <trkpt lat="43.0228290" lon="-5.8488350">
        <ele>667.6</ele>
        <time>2021-10-10T12:44:32Z</time>
      </trkpt>
      <trkpt lat="43.0228220" lon="-5.8488600">
        <ele>667.8</ele>
        <time>2021-10-10T12:44:33Z</time>
      </trkpt>
      <trkpt lat="43.0228140" lon="-5.8488850">
        <ele>667.8</ele>
        <time>2021-10-10T12:44:34Z</time>
      </trkpt>
      <trkpt lat="43.0228040" lon="-5.8489050">
        <ele>668.0</ele>
        <time>2021-10-10T12:44:35Z</time>
      </trkpt>
      <trkpt lat="43.0227970" lon="-5.8489260">
        <ele>668.0</ele>
        <time>2021-10-10T12:44:36Z</time>
      </trkpt>
      <trkpt lat="43.0227920" lon="-5.8489500">
        <ele>668.4</ele>
        <time>2021-10-10T12:44:37Z</time>
      </trkpt>
      <trkpt lat="43.0227830" lon="-5.8490540">
        <ele>668.8</ele>
        <time>2021-10-10T12:44:41Z</time>
      </trkpt>
      <trkpt lat="43.0227820" lon="-5.8490820">
        <ele>669.0</ele>
        <time>2021-10-10T12:44:42Z</time>
      </trkpt>
      <trkpt lat="43.0227800" lon="-5.8491320">
        <ele>669.0</ele>
        <time>2021-10-10T12:44:44Z</time>
      </trkpt>
      <trkpt lat="43.0227780" lon="-5.8491510">
        <ele>669.2</ele>
        <time>2021-10-10T12:44:45Z</time>
      </trkpt>
      <trkpt lat="43.0227970" lon="-5.8491920">
        <ele>669.4</ele>
        <time>2021-10-10T12:44:47Z</time>
      </trkpt>
      <trkpt lat="43.0228080" lon="-5.8492110">
        <ele>669.4</ele>
        <time>2021-10-10T12:44:48Z</time>
      </trkpt>
      <trkpt lat="43.0228190" lon="-5.8492320">
        <ele>669.4</ele>
        <time>2021-10-10T12:44:49Z</time>
      </trkpt>
      <trkpt lat="43.0228340" lon="-5.8492460">
        <ele>669.6</ele>
        <time>2021-10-10T12:44:50Z</time>
      </trkpt>
      <trkpt lat="43.0228640" lon="-5.8492700">
        <ele>669.8</ele>
        <time>2021-10-10T12:44:52Z</time>
      </trkpt>
      <trkpt lat="43.0228790" lon="-5.8492770">
        <ele>670.0</ele>
        <time>2021-10-10T12:44:53Z</time>
      </trkpt>
      <trkpt lat="43.0229100" lon="-5.8492850">
        <ele>670.2</ele>
        <time>2021-10-10T12:44:55Z</time>
      </trkpt>
      <trkpt lat="43.0229440" lon="-5.8492800">
        <ele>670.6</ele>
        <time>2021-10-10T12:44:57Z</time>
      </trkpt>
      <trkpt lat="43.0229600" lon="-5.8492730">
        <ele>670.8</ele>
        <time>2021-10-10T12:44:58Z</time>
      </trkpt>
      <trkpt lat="43.0229770" lon="-5.8492640">
        <ele>670.8</ele>
        <time>2021-10-10T12:44:59Z</time>
      </trkpt>
      <trkpt lat="43.0230070" lon="-5.8492380">
        <ele>671.0</ele>
        <time>2021-10-10T12:45:01Z</time>
      </trkpt>
      <trkpt lat="43.0230350" lon="-5.8492050">
        <ele>671.2</ele>
        <time>2021-10-10T12:45:03Z</time>
      </trkpt>
      <trkpt lat="43.0230760" lon="-5.8491200">
        <ele>671.8</ele>
        <time>2021-10-10T12:45:07Z</time>
      </trkpt>
      <trkpt lat="43.0230800" lon="-5.8490600">
        <ele>672.2</ele>
        <time>2021-10-10T12:45:09Z</time>
      </trkpt>
      <trkpt lat="43.0230790" lon="-5.8490320">
        <ele>672.2</ele>
        <time>2021-10-10T12:45:10Z</time>
      </trkpt>
      <trkpt lat="43.0230630" lon="-5.8489190">
        <ele>672.6</ele>
        <time>2021-10-10T12:45:14Z</time>
      </trkpt>
      <trkpt lat="43.0230650" lon="-5.8488180">
        <ele>672.8</ele>
        <time>2021-10-10T12:45:17Z</time>
      </trkpt>
      <trkpt lat="43.0230690" lon="-5.8487850">
        <ele>673.0</ele>
        <time>2021-10-10T12:45:18Z</time>
      </trkpt>
      <trkpt lat="43.0230720" lon="-5.8487550">
        <ele>673.0</ele>
        <time>2021-10-10T12:45:19Z</time>
      </trkpt>
      <trkpt lat="43.0230870" lon="-5.8486990">
        <ele>673.2</ele>
        <time>2021-10-10T12:45:21Z</time>
      </trkpt>
      <trkpt lat="43.0230980" lon="-5.8486700">
        <ele>673.2</ele>
        <time>2021-10-10T12:45:22Z</time>
      </trkpt>
      <trkpt lat="43.0231550" lon="-5.8485260">
        <ele>673.8</ele>
        <time>2021-10-10T12:45:27Z</time>
      </trkpt>
      <trkpt lat="43.0231830" lon="-5.8484670">
        <ele>674.0</ele>
        <time>2021-10-10T12:45:29Z</time>
      </trkpt>
      <trkpt lat="43.0232150" lon="-5.8483920">
        <ele>674.0</ele>
        <time>2021-10-10T12:45:32Z</time>
      </trkpt>
      <trkpt lat="43.0232890" lon="-5.8482510">
        <ele>674.8</ele>
        <time>2021-10-10T12:45:38Z</time>
      </trkpt>
      <trkpt lat="43.0233070" lon="-5.8482090">
        <ele>675.0</ele>
        <time>2021-10-10T12:45:40Z</time>
      </trkpt>
      <trkpt lat="43.0233150" lon="-5.8481840">
        <ele>675.2</ele>
        <time>2021-10-10T12:45:41Z</time>
      </trkpt>
      <trkpt lat="43.0233570" lon="-5.8480700">
        <ele>676.2</ele>
        <time>2021-10-10T12:45:46Z</time>
      </trkpt>
      <trkpt lat="43.0233670" lon="-5.8480460">
        <ele>676.4</ele>
        <time>2021-10-10T12:45:47Z</time>
      </trkpt>
      <trkpt lat="43.0233920" lon="-5.8479850">
        <ele>676.8</ele>
        <time>2021-10-10T12:45:50Z</time>
      </trkpt>
      <trkpt lat="43.0234090" lon="-5.8479310">
        <ele>677.2</ele>
        <time>2021-10-10T12:45:52Z</time>
      </trkpt>
      <trkpt lat="43.0234160" lon="-5.8479100">
        <ele>677.2</ele>
        <time>2021-10-10T12:45:53Z</time>
      </trkpt>
      <trkpt lat="43.0234330" lon="-5.8478610">
        <ele>677.6</ele>
        <time>2021-10-10T12:45:55Z</time>
      </trkpt>
      <trkpt lat="43.0234590" lon="-5.8477780">
        <ele>678.0</ele>
        <time>2021-10-10T12:45:58Z</time>
      </trkpt>
      <trkpt lat="43.0234760" lon="-5.8477320">
        <ele>678.2</ele>
        <time>2021-10-10T12:46:00Z</time>
      </trkpt>
      <trkpt lat="43.0234840" lon="-5.8477080">
        <ele>678.4</ele>
        <time>2021-10-10T12:46:01Z</time>
      </trkpt>
      <trkpt lat="43.0234930" lon="-5.8476590">
        <ele>678.6</ele>
        <time>2021-10-10T12:46:03Z</time>
      </trkpt>
      <trkpt lat="43.0235080" lon="-5.8476100">
        <ele>678.8</ele>
        <time>2021-10-10T12:46:05Z</time>
      </trkpt>
      <trkpt lat="43.0235560" lon="-5.8474880">
        <ele>679.2</ele>
        <time>2021-10-10T12:46:10Z</time>
      </trkpt>
      <trkpt lat="43.0235620" lon="-5.8474660">
        <ele>679.4</ele>
        <time>2021-10-10T12:46:11Z</time>
      </trkpt>
      <trkpt lat="43.0235690" lon="-5.8474410">
        <ele>679.4</ele>
        <time>2021-10-10T12:46:12Z</time>
      </trkpt>
      <trkpt lat="43.0235870" lon="-5.8473960">
        <ele>679.6</ele>
        <time>2021-10-10T12:46:14Z</time>
      </trkpt>
      <trkpt lat="43.0235970" lon="-5.8473730">
        <ele>679.8</ele>
        <time>2021-10-10T12:46:15Z</time>
      </trkpt>
      <trkpt lat="43.0236310" lon="-5.8472890">
        <ele>680.4</ele>
        <time>2021-10-10T12:46:19Z</time>
      </trkpt>
      <trkpt lat="43.0236390" lon="-5.8472670">
        <ele>680.6</ele>
        <time>2021-10-10T12:46:20Z</time>
      </trkpt>
      <trkpt lat="43.0236570" lon="-5.8471740">
        <ele>681.4</ele>
        <time>2021-10-10T12:46:24Z</time>
      </trkpt>
      <trkpt lat="43.0236570" lon="-5.8471560">
        <ele>681.4</ele>
        <time>2021-10-10T12:46:25Z</time>
      </trkpt>
      <trkpt lat="43.0236550" lon="-5.8471310">
        <ele>681.8</ele>
        <time>2021-10-10T12:46:26Z</time>
      </trkpt>
      <trkpt lat="43.0236560" lon="-5.8471040">
        <ele>682.0</ele>
        <time>2021-10-10T12:46:27Z</time>
      </trkpt>
      <trkpt lat="43.0236560" lon="-5.8470770">
        <ele>682.2</ele>
        <time>2021-10-10T12:46:28Z</time>
      </trkpt>
      <trkpt lat="43.0236580" lon="-5.8470520">
        <ele>682.4</ele>
        <time>2021-10-10T12:46:29Z</time>
      </trkpt>
      <trkpt lat="43.0236580" lon="-5.8470300">
        <ele>682.6</ele>
        <time>2021-10-10T12:46:30Z</time>
      </trkpt>
      <trkpt lat="43.0236550" lon="-5.8470100">
        <ele>682.8</ele>
        <time>2021-10-10T12:46:31Z</time>
      </trkpt>
      <trkpt lat="43.0236530" lon="-5.8469580">
        <ele>683.0</ele>
        <time>2021-10-10T12:46:33Z</time>
      </trkpt>
      <trkpt lat="43.0236510" lon="-5.8469070">
        <ele>683.2</ele>
        <time>2021-10-10T12:46:35Z</time>
      </trkpt>
      <trkpt lat="43.0236510" lon="-5.8468820">
        <ele>683.2</ele>
        <time>2021-10-10T12:46:36Z</time>
      </trkpt>
      <trkpt lat="43.0236490" lon="-5.8468540">
        <ele>683.4</ele>
        <time>2021-10-10T12:46:37Z</time>
      </trkpt>
      <trkpt lat="43.0236580" lon="-5.8467220">
        <ele>684.0</ele>
        <time>2021-10-10T12:46:42Z</time>
      </trkpt>
      <trkpt lat="43.0236630" lon="-5.8466750">
        <ele>684.2</ele>
        <time>2021-10-10T12:46:44Z</time>
      </trkpt>
      <trkpt lat="43.0236690" lon="-5.8466230">
        <ele>684.4</ele>
        <time>2021-10-10T12:46:46Z</time>
      </trkpt>
      <trkpt lat="43.0236760" lon="-5.8466010">
        <ele>684.8</ele>
        <time>2021-10-10T12:46:47Z</time>
      </trkpt>
      <trkpt lat="43.0236920" lon="-5.8465320">
        <ele>685.2</ele>
        <time>2021-10-10T12:46:50Z</time>
      </trkpt>
      <trkpt lat="43.0236940" lon="-5.8465070">
        <ele>685.2</ele>
        <time>2021-10-10T12:46:51Z</time>
      </trkpt>
      <trkpt lat="43.0236950" lon="-5.8464820">
        <ele>685.4</ele>
        <time>2021-10-10T12:46:52Z</time>
      </trkpt>
      <trkpt lat="43.0236970" lon="-5.8464310">
        <ele>685.6</ele>
        <time>2021-10-10T12:46:54Z</time>
      </trkpt>
      <trkpt lat="43.0237000" lon="-5.8463820">
        <ele>685.8</ele>
        <time>2021-10-10T12:46:56Z</time>
      </trkpt>
      <trkpt lat="43.0237060" lon="-5.8463600">
        <ele>685.8</ele>
        <time>2021-10-10T12:46:57Z</time>
      </trkpt>
      <trkpt lat="43.0237170" lon="-5.8463160">
        <ele>686.0</ele>
        <time>2021-10-10T12:46:59Z</time>
      </trkpt>
      <trkpt lat="43.0237240" lon="-5.8462940">
        <ele>686.2</ele>
        <time>2021-10-10T12:47:00Z</time>
      </trkpt>
      <trkpt lat="43.0237300" lon="-5.8462710">
        <ele>686.4</ele>
        <time>2021-10-10T12:47:01Z</time>
      </trkpt>
      <trkpt lat="43.0237360" lon="-5.8462460">
        <ele>686.6</ele>
        <time>2021-10-10T12:47:02Z</time>
      </trkpt>
      <trkpt lat="43.0237520" lon="-5.8462000">
        <ele>687.0</ele>
        <time>2021-10-10T12:47:04Z</time>
      </trkpt>
      <trkpt lat="43.0237600" lon="-5.8461760">
        <ele>687.2</ele>
        <time>2021-10-10T12:47:05Z</time>
      </trkpt>
      <trkpt lat="43.0237660" lon="-5.8461540">
        <ele>687.2</ele>
        <time>2021-10-10T12:47:06Z</time>
      </trkpt>
      <trkpt lat="43.0237760" lon="-5.8461320">
        <ele>687.4</ele>
        <time>2021-10-10T12:47:07Z</time>
      </trkpt>
      <trkpt lat="43.0237960" lon="-5.8460960">
        <ele>687.4</ele>
        <time>2021-10-10T12:47:09Z</time>
      </trkpt>
      <trkpt lat="43.0238390" lon="-5.8460190">
        <ele>688.0</ele>
        <time>2021-10-10T12:47:13Z</time>
      </trkpt>
      <trkpt lat="43.0238580" lon="-5.8459760">
        <ele>688.2</ele>
        <time>2021-10-10T12:47:15Z</time>
      </trkpt>
      <trkpt lat="43.0238660" lon="-5.8459520">
        <ele>688.4</ele>
        <time>2021-10-10T12:47:16Z</time>
      </trkpt>
      <trkpt lat="43.0239120" lon="-5.8458660">
        <ele>688.8</ele>
        <time>2021-10-10T12:47:20Z</time>
      </trkpt>
      <trkpt lat="43.0239520" lon="-5.8458320">
        <ele>689.2</ele>
        <time>2021-10-10T12:47:23Z</time>
      </trkpt>
      <trkpt lat="43.0239840" lon="-5.8458240">
        <ele>689.4</ele>
        <time>2021-10-10T12:47:25Z</time>
      </trkpt>
      <trkpt lat="43.0240000" lon="-5.8458220">
        <ele>689.6</ele>
        <time>2021-10-10T12:47:26Z</time>
      </trkpt>
      <trkpt lat="43.0240170" lon="-5.8458180">
        <ele>689.6</ele>
        <time>2021-10-10T12:47:27Z</time>
      </trkpt>
      <trkpt lat="43.0240450" lon="-5.8458090">
        <ele>690.2</ele>
        <time>2021-10-10T12:47:29Z</time>
      </trkpt>
      <trkpt lat="43.0240750" lon="-5.8458150">
        <ele>690.6</ele>
        <time>2021-10-10T12:47:31Z</time>
      </trkpt>
      <trkpt lat="43.0240880" lon="-5.8458220">
        <ele>690.6</ele>
        <time>2021-10-10T12:47:32Z</time>
      </trkpt>
      <trkpt lat="43.0241610" lon="-5.8458900">
        <ele>691.6</ele>
        <time>2021-10-10T12:47:38Z</time>
      </trkpt>
      <trkpt lat="43.0241980" lon="-5.8459560">
        <ele>692.2</ele>
        <time>2021-10-10T12:47:42Z</time>
      </trkpt>
      <trkpt lat="43.0242010" lon="-5.8459940">
        <ele>692.6</ele>
        <time>2021-10-10T12:47:44Z</time>
      </trkpt>
      <trkpt lat="43.0242000" lon="-5.8460120">
        <ele>692.6</ele>
        <time>2021-10-10T12:47:45Z</time>
      </trkpt>
      <trkpt lat="43.0242010" lon="-5.8460280">
        <ele>692.8</ele>
        <time>2021-10-10T12:47:46Z</time>
      </trkpt>
      <trkpt lat="43.0241980" lon="-5.8460690">
        <ele>693.2</ele>
        <time>2021-10-10T12:47:48Z</time>
      </trkpt>
      <trkpt lat="43.0241920" lon="-5.8460930">
        <ele>693.4</ele>
        <time>2021-10-10T12:47:49Z</time>
      </trkpt>
      <trkpt lat="43.0241740" lon="-5.8461490">
        <ele>693.8</ele>
        <time>2021-10-10T12:47:52Z</time>
      </trkpt>
      <trkpt lat="43.0241370" lon="-5.8461640">
        <ele>694.0</ele>
        <time>2021-10-10T12:47:54Z</time>
      </trkpt>
      <trkpt lat="43.0241160" lon="-5.8461780">
        <ele>694.2</ele>
        <time>2021-10-10T12:47:55Z</time>
      </trkpt>
      <trkpt lat="43.0240990" lon="-5.8461700">
        <ele>694.2</ele>
        <time>2021-10-10T12:47:56Z</time>
      </trkpt>
      <trkpt lat="43.0240800" lon="-5.8461680">
        <ele>694.4</ele>
        <time>2021-10-10T12:47:57Z</time>
      </trkpt>
      <trkpt lat="43.0240590" lon="-5.8461730">
        <ele>694.4</ele>
        <time>2021-10-10T12:47:58Z</time>
      </trkpt>
      <trkpt lat="43.0240390" lon="-5.8461870">
        <ele>694.6</ele>
        <time>2021-10-10T12:47:59Z</time>
      </trkpt>
      <trkpt lat="43.0240180" lon="-5.8461990">
        <ele>694.6</ele>
        <time>2021-10-10T12:48:00Z</time>
      </trkpt>
      <trkpt lat="43.0239990" lon="-5.8462110">
        <ele>694.6</ele>
        <time>2021-10-10T12:48:01Z</time>
      </trkpt>
      <trkpt lat="43.0239800" lon="-5.8462260">
        <ele>694.8</ele>
        <time>2021-10-10T12:48:02Z</time>
      </trkpt>
      <trkpt lat="43.0239560" lon="-5.8462430">
        <ele>694.8</ele>
        <time>2021-10-10T12:48:03Z</time>
      </trkpt>
      <trkpt lat="43.0239390" lon="-5.8462580">
        <ele>694.8</ele>
        <time>2021-10-10T12:48:04Z</time>
      </trkpt>
      <trkpt lat="43.0239210" lon="-5.8462730">
        <ele>695.0</ele>
        <time>2021-10-10T12:48:05Z</time>
      </trkpt>
      <trkpt lat="43.0239080" lon="-5.8462860">
        <ele>695.2</ele>
        <time>2021-10-10T12:48:06Z</time>
      </trkpt>
      <trkpt lat="43.0238450" lon="-5.8463880">
        <ele>695.4</ele>
        <time>2021-10-10T12:48:10Z</time>
      </trkpt>
      <trkpt lat="43.0238290" lon="-5.8464650">
        <ele>695.6</ele>
        <time>2021-10-10T12:48:12Z</time>
      </trkpt>
      <trkpt lat="43.0238260" lon="-5.8465070">
        <ele>695.6</ele>
        <time>2021-10-10T12:48:13Z</time>
      </trkpt>
      <trkpt lat="43.0238210" lon="-5.8465430">
        <ele>695.6</ele>
        <time>2021-10-10T12:48:14Z</time>
      </trkpt>
      <trkpt lat="43.0238200" lon="-5.8465710">
        <ele>695.8</ele>
        <time>2021-10-10T12:48:15Z</time>
      </trkpt>
      <trkpt lat="43.0238150" lon="-5.8466120">
        <ele>695.8</ele>
        <time>2021-10-10T12:48:16Z</time>
      </trkpt>
      <trkpt lat="43.0238100" lon="-5.8466480">
        <ele>696.0</ele>
        <time>2021-10-10T12:48:17Z</time>
      </trkpt>
      <trkpt lat="43.0238060" lon="-5.8467450">
        <ele>696.4</ele>
        <time>2021-10-10T12:48:20Z</time>
      </trkpt>
      <trkpt lat="43.0238100" lon="-5.8468040">
        <ele>696.4</ele>
        <time>2021-10-10T12:48:22Z</time>
      </trkpt>
      <trkpt lat="43.0238130" lon="-5.8468330">
        <ele>696.2</ele>
        <time>2021-10-10T12:48:23Z</time>
      </trkpt>
      <trkpt lat="43.0238160" lon="-5.8468660">
        <ele>696.6</ele>
        <time>2021-10-10T12:48:24Z</time>
      </trkpt>
      <trkpt lat="43.0238210" lon="-5.8468960">
        <ele>696.6</ele>
        <time>2021-10-10T12:48:25Z</time>
      </trkpt>
      <trkpt lat="43.0238250" lon="-5.8469280">
        <ele>696.6</ele>
        <time>2021-10-10T12:48:26Z</time>
      </trkpt>
      <trkpt lat="43.0238470" lon="-5.8470690">
        <ele>697.2</ele>
        <time>2021-10-10T12:48:31Z</time>
      </trkpt>
      <trkpt lat="43.0238510" lon="-5.8470980">
        <ele>697.2</ele>
        <time>2021-10-10T12:48:32Z</time>
      </trkpt>
      <trkpt lat="43.0238570" lon="-5.8471530">
        <ele>697.2</ele>
        <time>2021-10-10T12:48:34Z</time>
      </trkpt>
      <trkpt lat="43.0238580" lon="-5.8471830">
        <ele>697.4</ele>
        <time>2021-10-10T12:48:35Z</time>
      </trkpt>
      <trkpt lat="43.0238600" lon="-5.8472170">
        <ele>697.4</ele>
        <time>2021-10-10T12:48:36Z</time>
      </trkpt>
      <trkpt lat="43.0238670" lon="-5.8472750">
        <ele>697.6</ele>
        <time>2021-10-10T12:48:38Z</time>
      </trkpt>
      <trkpt lat="43.0238730" lon="-5.8473350">
        <ele>697.8</ele>
        <time>2021-10-10T12:48:40Z</time>
      </trkpt>
      <trkpt lat="43.0238790" lon="-5.8473640">
        <ele>697.8</ele>
        <time>2021-10-10T12:48:41Z</time>
      </trkpt>
      <trkpt lat="43.0238870" lon="-5.8474170">
        <ele>698.0</ele>
        <time>2021-10-10T12:48:43Z</time>
      </trkpt>
      <trkpt lat="43.0238910" lon="-5.8474450">
        <ele>698.2</ele>
        <time>2021-10-10T12:48:44Z</time>
      </trkpt>
      <trkpt lat="43.0238930" lon="-5.8474810">
        <ele>698.2</ele>
        <time>2021-10-10T12:48:45Z</time>
      </trkpt>
      <trkpt lat="43.0238900" lon="-5.8475170">
        <ele>698.4</ele>
        <time>2021-10-10T12:48:46Z</time>
      </trkpt>
      <trkpt lat="43.0239050" lon="-5.8476420">
        <ele>698.6</ele>
        <time>2021-10-10T12:48:50Z</time>
      </trkpt>
      <trkpt lat="43.0239070" lon="-5.8476750">
        <ele>698.8</ele>
        <time>2021-10-10T12:48:51Z</time>
      </trkpt>
      <trkpt lat="43.0239120" lon="-5.8477400">
        <ele>699.0</ele>
        <time>2021-10-10T12:48:53Z</time>
      </trkpt>
      <trkpt lat="43.0239130" lon="-5.8478150">
        <ele>699.0</ele>
        <time>2021-10-10T12:48:55Z</time>
      </trkpt>
      <trkpt lat="43.0239310" lon="-5.8479250">
        <ele>699.2</ele>
        <time>2021-10-10T12:48:59Z</time>
      </trkpt>
      <trkpt lat="43.0239370" lon="-5.8479510">
        <ele>699.2</ele>
        <time>2021-10-10T12:49:00Z</time>
      </trkpt>
      <trkpt lat="43.0239530" lon="-5.8480310">
        <ele>699.6</ele>
        <time>2021-10-10T12:49:03Z</time>
      </trkpt>
      <trkpt lat="43.0239800" lon="-5.8481500">
        <ele>700.0</ele>
        <time>2021-10-10T12:49:08Z</time>
      </trkpt>
      <trkpt lat="43.0239860" lon="-5.8481750">
        <ele>700.0</ele>
        <time>2021-10-10T12:49:09Z</time>
      </trkpt>
      <trkpt lat="43.0240020" lon="-5.8482280">
        <ele>700.6</ele>
        <time>2021-10-10T12:49:11Z</time>
      </trkpt>
      <trkpt lat="43.0240110" lon="-5.8483250">
        <ele>701.4</ele>
        <time>2021-10-10T12:49:15Z</time>
      </trkpt>
      <trkpt lat="43.0240110" lon="-5.8483490">
        <ele>701.6</ele>
        <time>2021-10-10T12:49:16Z</time>
      </trkpt>
      <trkpt lat="43.0240090" lon="-5.8483810">
        <ele>701.6</ele>
        <time>2021-10-10T12:49:17Z</time>
      </trkpt>
      <trkpt lat="43.0240150" lon="-5.8485110">
        <ele>702.2</ele>
        <time>2021-10-10T12:49:22Z</time>
      </trkpt>
      <trkpt lat="43.0240270" lon="-5.8485880">
        <ele>702.6</ele>
        <time>2021-10-10T12:49:25Z</time>
      </trkpt>
      <trkpt lat="43.0240280" lon="-5.8486250">
        <ele>702.8</ele>
        <time>2021-10-10T12:49:27Z</time>
      </trkpt>
      <trkpt lat="43.0240280" lon="-5.8486920">
        <ele>703.4</ele>
        <time>2021-10-10T12:49:30Z</time>
      </trkpt>
      <trkpt lat="43.0240280" lon="-5.8487170">
        <ele>703.8</ele>
        <time>2021-10-10T12:49:31Z</time>
      </trkpt>
      <trkpt lat="43.0240230" lon="-5.8487670">
        <ele>704.0</ele>
        <time>2021-10-10T12:49:33Z</time>
      </trkpt>
      <trkpt lat="43.0240180" lon="-5.8488050">
        <ele>704.4</ele>
        <time>2021-10-10T12:49:35Z</time>
      </trkpt>
      <trkpt lat="43.0240120" lon="-5.8488270">
        <ele>704.4</ele>
        <time>2021-10-10T12:49:36Z</time>
      </trkpt>
      <trkpt lat="43.0240020" lon="-5.8488780">
        <ele>705.0</ele>
        <time>2021-10-10T12:49:38Z</time>
      </trkpt>
      <trkpt lat="43.0239890" lon="-5.8489220">
        <ele>705.2</ele>
        <time>2021-10-10T12:49:40Z</time>
      </trkpt>
      <trkpt lat="43.0239700" lon="-5.8489690">
        <ele>705.4</ele>
        <time>2021-10-10T12:49:42Z</time>
      </trkpt>
      <trkpt lat="43.0239360" lon="-5.8490680">
        <ele>706.0</ele>
        <time>2021-10-10T12:49:46Z</time>
      </trkpt>
      <trkpt lat="43.0239100" lon="-5.8491390">
        <ele>706.6</ele>
        <time>2021-10-10T12:49:49Z</time>
      </trkpt>
      <trkpt lat="43.0239030" lon="-5.8491570">
        <ele>706.6</ele>
        <time>2021-10-10T12:49:50Z</time>
      </trkpt>
      <trkpt lat="43.0238950" lon="-5.8491830">
        <ele>706.8</ele>
        <time>2021-10-10T12:49:51Z</time>
      </trkpt>
      <trkpt lat="43.0238840" lon="-5.8492040">
        <ele>707.0</ele>
        <time>2021-10-10T12:49:52Z</time>
      </trkpt>
      <trkpt lat="43.0238710" lon="-5.8492520">
        <ele>707.4</ele>
        <time>2021-10-10T12:49:54Z</time>
      </trkpt>
      <trkpt lat="43.0238660" lon="-5.8493090">
        <ele>707.8</ele>
        <time>2021-10-10T12:49:56Z</time>
      </trkpt>
      <trkpt lat="43.0238640" lon="-5.8493640">
        <ele>708.0</ele>
        <time>2021-10-10T12:49:58Z</time>
      </trkpt>
      <trkpt lat="43.0238640" lon="-5.8493900">
        <ele>708.2</ele>
        <time>2021-10-10T12:49:59Z</time>
      </trkpt>
      <trkpt lat="43.0238720" lon="-5.8495020">
        <ele>708.6</ele>
        <time>2021-10-10T12:50:03Z</time>
      </trkpt>
      <trkpt lat="43.0238800" lon="-5.8496050">
        <ele>708.8</ele>
        <time>2021-10-10T12:50:07Z</time>
      </trkpt>
      <trkpt lat="43.0238850" lon="-5.8496570">
        <ele>709.0</ele>
        <time>2021-10-10T12:50:09Z</time>
      </trkpt>
      <trkpt lat="43.0238900" lon="-5.8496900">
        <ele>709.0</ele>
        <time>2021-10-10T12:50:10Z</time>
      </trkpt>
      <trkpt lat="43.0238960" lon="-5.8497160">
        <ele>709.0</ele>
        <time>2021-10-10T12:50:11Z</time>
      </trkpt>
      <trkpt lat="43.0239010" lon="-5.8497600">
        <ele>709.2</ele>
        <time>2021-10-10T12:50:13Z</time>
      </trkpt>
      <trkpt lat="43.0239270" lon="-5.8498600">
        <ele>709.6</ele>
        <time>2021-10-10T12:50:17Z</time>
      </trkpt>
      <trkpt lat="43.0239310" lon="-5.8498760">
        <ele>709.8</ele>
        <time>2021-10-10T12:50:18Z</time>
      </trkpt>
      <trkpt lat="43.0239380" lon="-5.8498970">
        <ele>710.0</ele>
        <time>2021-10-10T12:50:19Z</time>
      </trkpt>
      <trkpt lat="43.0239420" lon="-5.8499190">
        <ele>710.0</ele>
        <time>2021-10-10T12:50:20Z</time>
      </trkpt>
      <trkpt lat="43.0239460" lon="-5.8499420">
        <ele>710.2</ele>
        <time>2021-10-10T12:50:21Z</time>
      </trkpt>
      <trkpt lat="43.0239440" lon="-5.8499600">
        <ele>710.4</ele>
        <time>2021-10-10T12:50:22Z</time>
      </trkpt>
      <trkpt lat="43.0239440" lon="-5.8499760">
        <ele>710.4</ele>
        <time>2021-10-10T12:50:23Z</time>
      </trkpt>
      <trkpt lat="43.0239440" lon="-5.8499970">
        <ele>710.8</ele>
        <time>2021-10-10T12:50:24Z</time>
      </trkpt>
      <trkpt lat="43.0239510" lon="-5.8500420">
        <ele>711.0</ele>
        <time>2021-10-10T12:50:26Z</time>
      </trkpt>
      <trkpt lat="43.0239600" lon="-5.8500830">
        <ele>711.2</ele>
        <time>2021-10-10T12:50:28Z</time>
      </trkpt>
      <trkpt lat="43.0239760" lon="-5.8501750">
        <ele>712.0</ele>
        <time>2021-10-10T12:50:32Z</time>
      </trkpt>
      <trkpt lat="43.0239770" lon="-5.8501980">
        <ele>712.4</ele>
        <time>2021-10-10T12:50:33Z</time>
      </trkpt>
      <trkpt lat="43.0239750" lon="-5.8502280">
        <ele>712.4</ele>
        <time>2021-10-10T12:50:34Z</time>
      </trkpt>
      <trkpt lat="43.0239700" lon="-5.8502520">
        <ele>712.6</ele>
        <time>2021-10-10T12:50:35Z</time>
      </trkpt>
      <trkpt lat="43.0239450" lon="-5.8503570">
        <ele>713.4</ele>
        <time>2021-10-10T12:50:40Z</time>
      </trkpt>
      <trkpt lat="43.0239340" lon="-5.8503710">
        <ele>713.4</ele>
        <time>2021-10-10T12:50:41Z</time>
      </trkpt>
      <trkpt lat="43.0239240" lon="-5.8503870">
        <ele>713.6</ele>
        <time>2021-10-10T12:50:42Z</time>
      </trkpt>
      <trkpt lat="43.0239140" lon="-5.8503990">
        <ele>713.8</ele>
        <time>2021-10-10T12:50:43Z</time>
      </trkpt>
      <trkpt lat="43.0239000" lon="-5.8504130">
        <ele>713.8</ele>
        <time>2021-10-10T12:50:44Z</time>
      </trkpt>
      <trkpt lat="43.0238690" lon="-5.8504350">
        <ele>714.0</ele>
        <time>2021-10-10T12:50:46Z</time>
      </trkpt>
      <trkpt lat="43.0238430" lon="-5.8504520">
        <ele>714.4</ele>
        <time>2021-10-10T12:50:48Z</time>
      </trkpt>
      <trkpt lat="43.0238280" lon="-5.8504630">
        <ele>714.6</ele>
        <time>2021-10-10T12:50:49Z</time>
      </trkpt>
      <trkpt lat="43.0238020" lon="-5.8504780">
        <ele>715.0</ele>
        <time>2021-10-10T12:50:51Z</time>
      </trkpt>
      <trkpt lat="43.0237780" lon="-5.8504930">
        <ele>715.6</ele>
        <time>2021-10-10T12:50:53Z</time>
      </trkpt>
      <trkpt lat="43.0237700" lon="-5.8504990">
        <ele>715.8</ele>
        <time>2021-10-10T12:50:54Z</time>
      </trkpt>
      <trkpt lat="43.0237500" lon="-5.8505050">
        <ele>716.0</ele>
        <time>2021-10-10T12:50:55Z</time>
      </trkpt>
      <trkpt lat="43.0237350" lon="-5.8505090">
        <ele>716.0</ele>
        <time>2021-10-10T12:50:56Z</time>
      </trkpt>
      <trkpt lat="43.0236710" lon="-5.8505380">
        <ele>716.8</ele>
        <time>2021-10-10T12:51:00Z</time>
      </trkpt>
      <trkpt lat="43.0236360" lon="-5.8505590">
        <ele>717.2</ele>
        <time>2021-10-10T12:51:02Z</time>
      </trkpt>
      <trkpt lat="43.0236240" lon="-5.8505710">
        <ele>717.2</ele>
        <time>2021-10-10T12:51:03Z</time>
      </trkpt>
      <trkpt lat="43.0236100" lon="-5.8505830">
        <ele>717.6</ele>
        <time>2021-10-10T12:51:04Z</time>
      </trkpt>
      <trkpt lat="43.0235920" lon="-5.8506080">
        <ele>717.8</ele>
        <time>2021-10-10T12:51:06Z</time>
      </trkpt>
      <trkpt lat="43.0235260" lon="-5.8506990">
        <ele>718.4</ele>
        <time>2021-10-10T12:51:12Z</time>
      </trkpt>
      <trkpt lat="43.0235190" lon="-5.8507170">
        <ele>718.6</ele>
        <time>2021-10-10T12:51:13Z</time>
      </trkpt>
      <trkpt lat="43.0235070" lon="-5.8507540">
        <ele>719.0</ele>
        <time>2021-10-10T12:51:15Z</time>
      </trkpt>
      <trkpt lat="43.0234820" lon="-5.8508410">
        <ele>719.4</ele>
        <time>2021-10-10T12:51:19Z</time>
      </trkpt>
      <trkpt lat="43.0234760" lon="-5.8508640">
        <ele>719.4</ele>
        <time>2021-10-10T12:51:20Z</time>
      </trkpt>
      <trkpt lat="43.0234500" lon="-5.8509450">
        <ele>720.0</ele>
        <time>2021-10-10T12:51:24Z</time>
      </trkpt>
      <trkpt lat="43.0234410" lon="-5.8509600">
        <ele>720.0</ele>
        <time>2021-10-10T12:51:25Z</time>
      </trkpt>
      <trkpt lat="43.0234360" lon="-5.8509840">
        <ele>720.2</ele>
        <time>2021-10-10T12:51:26Z</time>
      </trkpt>
      <trkpt lat="43.0234300" lon="-5.8510310">
        <ele>720.4</ele>
        <time>2021-10-10T12:51:28Z</time>
      </trkpt>
      <trkpt lat="43.0234240" lon="-5.8511320">
        <ele>720.8</ele>
        <time>2021-10-10T12:51:32Z</time>
      </trkpt>
      <trkpt lat="43.0234220" lon="-5.8511540">
        <ele>721.0</ele>
        <time>2021-10-10T12:51:33Z</time>
      </trkpt>
      <trkpt lat="43.0234230" lon="-5.8512030">
        <ele>721.2</ele>
        <time>2021-10-10T12:51:35Z</time>
      </trkpt>
      <trkpt lat="43.0234190" lon="-5.8512780">
        <ele>721.6</ele>
        <time>2021-10-10T12:51:38Z</time>
      </trkpt>
      <trkpt lat="43.0234200" lon="-5.8513030">
        <ele>721.6</ele>
        <time>2021-10-10T12:51:39Z</time>
      </trkpt>
      <trkpt lat="43.0234210" lon="-5.8513270">
        <ele>721.8</ele>
        <time>2021-10-10T12:51:40Z</time>
      </trkpt>
      <trkpt lat="43.0234200" lon="-5.8513510">
        <ele>721.8</ele>
        <time>2021-10-10T12:51:41Z</time>
      </trkpt>
      <trkpt lat="43.0234190" lon="-5.8513740">
        <ele>722.0</ele>
        <time>2021-10-10T12:51:42Z</time>
      </trkpt>
      <trkpt lat="43.0234190" lon="-5.8513970">
        <ele>722.0</ele>
        <time>2021-10-10T12:51:43Z</time>
      </trkpt>
      <trkpt lat="43.0234210" lon="-5.8514440">
        <ele>722.4</ele>
        <time>2021-10-10T12:51:45Z</time>
      </trkpt>
      <trkpt lat="43.0234580" lon="-5.8515450">
        <ele>722.8</ele>
        <time>2021-10-10T12:51:50Z</time>
      </trkpt>
      <trkpt lat="43.0234750" lon="-5.8515820">
        <ele>723.2</ele>
        <time>2021-10-10T12:51:52Z</time>
      </trkpt>
      <trkpt lat="43.0235270" lon="-5.8516820">
        <ele>723.8</ele>
        <time>2021-10-10T12:51:58Z</time>
      </trkpt>
      <trkpt lat="43.0235330" lon="-5.8516940">
        <ele>724.0</ele>
        <time>2021-10-10T12:51:59Z</time>
      </trkpt>
      <trkpt lat="43.0235380" lon="-5.8517100">
        <ele>724.4</ele>
        <time>2021-10-10T12:52:00Z</time>
      </trkpt>
      <trkpt lat="43.0235450" lon="-5.8517430">
        <ele>724.6</ele>
        <time>2021-10-10T12:52:02Z</time>
      </trkpt>
      <trkpt lat="43.0235510" lon="-5.8517610">
        <ele>724.8</ele>
        <time>2021-10-10T12:52:03Z</time>
      </trkpt>
      <trkpt lat="43.0235620" lon="-5.8517940">
        <ele>724.8</ele>
        <time>2021-10-10T12:52:05Z</time>
      </trkpt>
      <trkpt lat="43.0235700" lon="-5.8518390">
        <ele>725.2</ele>
        <time>2021-10-10T12:52:07Z</time>
      </trkpt>
      <trkpt lat="43.0235710" lon="-5.8518760">
        <ele>725.4</ele>
        <time>2021-10-10T12:52:09Z</time>
      </trkpt>
      <trkpt lat="43.0235720" lon="-5.8519120">
        <ele>725.6</ele>
        <time>2021-10-10T12:52:11Z</time>
      </trkpt>
      <trkpt lat="43.0235700" lon="-5.8519720">
        <ele>726.0</ele>
        <time>2021-10-10T12:52:14Z</time>
      </trkpt>
      <trkpt lat="43.0235700" lon="-5.8520230">
        <ele>726.2</ele>
        <time>2021-10-10T12:52:16Z</time>
      </trkpt>
      <trkpt lat="43.0235680" lon="-5.8520520">
        <ele>726.4</ele>
        <time>2021-10-10T12:52:17Z</time>
      </trkpt>
      <trkpt lat="43.0235720" lon="-5.8520770">
        <ele>726.6</ele>
        <time>2021-10-10T12:52:18Z</time>
      </trkpt>
      <trkpt lat="43.0235770" lon="-5.8521460">
        <ele>727.0</ele>
        <time>2021-10-10T12:52:21Z</time>
      </trkpt>
      <trkpt lat="43.0235720" lon="-5.8522220">
        <ele>727.4</ele>
        <time>2021-10-10T12:52:25Z</time>
      </trkpt>
      <trkpt lat="43.0235680" lon="-5.8522610">
        <ele>727.6</ele>
        <time>2021-10-10T12:52:27Z</time>
      </trkpt>
      <trkpt lat="43.0235690" lon="-5.8522770">
        <ele>728.0</ele>
        <time>2021-10-10T12:52:28Z</time>
      </trkpt>
      <trkpt lat="43.0235700" lon="-5.8523390">
        <ele>728.2</ele>
        <time>2021-10-10T12:52:31Z</time>
      </trkpt>
      <trkpt lat="43.0235720" lon="-5.8523750">
        <ele>728.6</ele>
        <time>2021-10-10T12:52:33Z</time>
      </trkpt>
      <trkpt lat="43.0235690" lon="-5.8523960">
        <ele>728.6</ele>
        <time>2021-10-10T12:52:34Z</time>
      </trkpt>
      <trkpt lat="43.0235610" lon="-5.8524370">
        <ele>729.0</ele>
        <time>2021-10-10T12:52:36Z</time>
      </trkpt>
      <trkpt lat="43.0235630" lon="-5.8524590">
        <ele>729.2</ele>
        <time>2021-10-10T12:52:37Z</time>
      </trkpt>
      <trkpt lat="43.0235640" lon="-5.8524780">
        <ele>729.2</ele>
        <time>2021-10-10T12:52:38Z</time>
      </trkpt>
      <trkpt lat="43.0235640" lon="-5.8525000">
        <ele>729.4</ele>
        <time>2021-10-10T12:52:39Z</time>
      </trkpt>
      <trkpt lat="43.0235640" lon="-5.8525260">
        <ele>729.6</ele>
        <time>2021-10-10T12:52:40Z</time>
      </trkpt>
      <trkpt lat="43.0235640" lon="-5.8525490">
        <ele>729.8</ele>
        <time>2021-10-10T12:52:41Z</time>
      </trkpt>
      <trkpt lat="43.0235520" lon="-5.8526170">
        <ele>730.6</ele>
        <time>2021-10-10T12:52:44Z</time>
      </trkpt>
      <trkpt lat="43.0235520" lon="-5.8526410">
        <ele>730.6</ele>
        <time>2021-10-10T12:52:45Z</time>
      </trkpt>
      <trkpt lat="43.0235570" lon="-5.8526920">
        <ele>730.8</ele>
        <time>2021-10-10T12:52:47Z</time>
      </trkpt>
      <trkpt lat="43.0235620" lon="-5.8527400">
        <ele>731.2</ele>
        <time>2021-10-10T12:52:49Z</time>
      </trkpt>
      <trkpt lat="43.0235700" lon="-5.8527870">
        <ele>731.4</ele>
        <time>2021-10-10T12:52:51Z</time>
      </trkpt>
      <trkpt lat="43.0235760" lon="-5.8528040">
        <ele>731.6</ele>
        <time>2021-10-10T12:52:52Z</time>
      </trkpt>
      <trkpt lat="43.0235830" lon="-5.8528280">
        <ele>731.6</ele>
        <time>2021-10-10T12:52:53Z</time>
      </trkpt>
      <trkpt lat="43.0235920" lon="-5.8528460">
        <ele>731.8</ele>
        <time>2021-10-10T12:52:54Z</time>
      </trkpt>
      <trkpt lat="43.0236000" lon="-5.8528670">
        <ele>731.8</ele>
        <time>2021-10-10T12:52:55Z</time>
      </trkpt>
      <trkpt lat="43.0236070" lon="-5.8528880">
        <ele>731.8</ele>
        <time>2021-10-10T12:52:56Z</time>
      </trkpt>
      <trkpt lat="43.0236450" lon="-5.8529370">
        <ele>732.2</ele>
        <time>2021-10-10T12:52:59Z</time>
      </trkpt>
      <trkpt lat="43.0236580" lon="-5.8529500">
        <ele>732.4</ele>
        <time>2021-10-10T12:53:00Z</time>
      </trkpt>
      <trkpt lat="43.0236710" lon="-5.8529610">
        <ele>732.4</ele>
        <time>2021-10-10T12:53:01Z</time>
      </trkpt>
      <trkpt lat="43.0236980" lon="-5.8529820">
        <ele>732.8</ele>
        <time>2021-10-10T12:53:03Z</time>
      </trkpt>
      <trkpt lat="43.0237110" lon="-5.8529960">
        <ele>733.0</ele>
        <time>2021-10-10T12:53:04Z</time>
      </trkpt>
      <trkpt lat="43.0237210" lon="-5.8530060">
        <ele>733.0</ele>
        <time>2021-10-10T12:53:05Z</time>
      </trkpt>
      <trkpt lat="43.0237540" lon="-5.8530270">
        <ele>733.6</ele>
        <time>2021-10-10T12:53:08Z</time>
      </trkpt>
      <trkpt lat="43.0237810" lon="-5.8530410">
        <ele>734.0</ele>
        <time>2021-10-10T12:53:10Z</time>
      </trkpt>
      <trkpt lat="43.0237950" lon="-5.8530460">
        <ele>734.2</ele>
        <time>2021-10-10T12:53:11Z</time>
      </trkpt>
      <trkpt lat="43.0238390" lon="-5.8530610">
        <ele>734.4</ele>
        <time>2021-10-10T12:53:14Z</time>
      </trkpt>
      <trkpt lat="43.0238690" lon="-5.8530680">
        <ele>734.6</ele>
        <time>2021-10-10T12:53:16Z</time>
      </trkpt>
      <trkpt lat="43.0238820" lon="-5.8530760">
        <ele>735.0</ele>
        <time>2021-10-10T12:53:17Z</time>
      </trkpt>
      <trkpt lat="43.0239140" lon="-5.8530910">
        <ele>735.2</ele>
        <time>2021-10-10T12:53:19Z</time>
      </trkpt>
      <trkpt lat="43.0239280" lon="-5.8530920">
        <ele>735.2</ele>
        <time>2021-10-10T12:53:20Z</time>
      </trkpt>
      <trkpt lat="43.0239400" lon="-5.8530960">
        <ele>735.4</ele>
        <time>2021-10-10T12:53:21Z</time>
      </trkpt>
      <trkpt lat="43.0239700" lon="-5.8531060">
        <ele>735.6</ele>
        <time>2021-10-10T12:53:23Z</time>
      </trkpt>
      <trkpt lat="43.0239890" lon="-5.8531160">
        <ele>735.8</ele>
        <time>2021-10-10T12:53:24Z</time>
      </trkpt>
      <trkpt lat="43.0240460" lon="-5.8531320">
        <ele>736.0</ele>
        <time>2021-10-10T12:53:27Z</time>
      </trkpt>
      <trkpt lat="43.0240620" lon="-5.8531400">
        <ele>736.6</ele>
        <time>2021-10-10T12:53:28Z</time>
      </trkpt>
      <trkpt lat="43.0240910" lon="-5.8531670">
        <ele>737.0</ele>
        <time>2021-10-10T12:53:30Z</time>
      </trkpt>
      <trkpt lat="43.0241180" lon="-5.8531950">
        <ele>737.4</ele>
        <time>2021-10-10T12:53:32Z</time>
      </trkpt>
      <trkpt lat="43.0241480" lon="-5.8532010">
        <ele>737.8</ele>
        <time>2021-10-10T12:53:34Z</time>
      </trkpt>
      <trkpt lat="43.0242390" lon="-5.8531790">
        <ele>738.8</ele>
        <time>2021-10-10T12:53:39Z</time>
      </trkpt>
      <trkpt lat="43.0242590" lon="-5.8532260">
        <ele>738.8</ele>
        <time>2021-10-10T12:53:41Z</time>
      </trkpt>
      <trkpt lat="43.0243500" lon="-5.8532690">
        <ele>739.8</ele>
        <time>2021-10-10T12:53:46Z</time>
      </trkpt>
      <trkpt lat="43.0243640" lon="-5.8532720">
        <ele>739.8</ele>
        <time>2021-10-10T12:53:47Z</time>
      </trkpt>
      <trkpt lat="43.0244520" lon="-5.8533020">
        <ele>740.8</ele>
        <time>2021-10-10T12:53:53Z</time>
      </trkpt>
      <trkpt lat="43.0244660" lon="-5.8533120">
        <ele>740.8</ele>
        <time>2021-10-10T12:53:54Z</time>
      </trkpt>
      <trkpt lat="43.0244960" lon="-5.8533260">
        <ele>741.2</ele>
        <time>2021-10-10T12:53:56Z</time>
      </trkpt>
      <trkpt lat="43.0245220" lon="-5.8533390">
        <ele>741.4</ele>
        <time>2021-10-10T12:53:58Z</time>
      </trkpt>
      <trkpt lat="43.0245590" lon="-5.8533300">
        <ele>741.8</ele>
        <time>2021-10-10T12:54:00Z</time>
      </trkpt>
      <trkpt lat="43.0245730" lon="-5.8533260">
        <ele>741.8</ele>
        <time>2021-10-10T12:54:01Z</time>
      </trkpt>
      <trkpt lat="43.0245900" lon="-5.8533260">
        <ele>742.0</ele>
        <time>2021-10-10T12:54:02Z</time>
      </trkpt>
      <trkpt lat="43.0246030" lon="-5.8533260">
        <ele>742.0</ele>
        <time>2021-10-10T12:54:03Z</time>
      </trkpt>
      <trkpt lat="43.0246360" lon="-5.8533160">
        <ele>742.4</ele>
        <time>2021-10-10T12:54:05Z</time>
      </trkpt>
      <trkpt lat="43.0246850" lon="-5.8533340">
        <ele>743.0</ele>
        <time>2021-10-10T12:54:08Z</time>
      </trkpt>
      <trkpt lat="43.0247740" lon="-5.8533600">
        <ele>744.0</ele>
        <time>2021-10-10T12:54:14Z</time>
      </trkpt>
      <trkpt lat="43.0247930" lon="-5.8533770">
        <ele>744.2</ele>
        <time>2021-10-10T12:54:15Z</time>
      </trkpt>
      <trkpt lat="43.0248190" lon="-5.8533990">
        <ele>744.6</ele>
        <time>2021-10-10T12:54:17Z</time>
      </trkpt>
      <trkpt lat="43.0248330" lon="-5.8534100">
        <ele>744.6</ele>
        <time>2021-10-10T12:54:18Z</time>
      </trkpt>
      <trkpt lat="43.0248640" lon="-5.8534350">
        <ele>744.8</ele>
        <time>2021-10-10T12:54:20Z</time>
      </trkpt>
      <trkpt lat="43.0248950" lon="-5.8534650">
        <ele>745.2</ele>
        <time>2021-10-10T12:54:22Z</time>
      </trkpt>
      <trkpt lat="43.0248980" lon="-5.8534790">
        <ele>745.4</ele>
        <time>2021-10-10T12:54:23Z</time>
      </trkpt>
      <trkpt lat="43.0249230" lon="-5.8535080">
        <ele>745.6</ele>
        <time>2021-10-10T12:54:25Z</time>
      </trkpt>
      <trkpt lat="43.0249430" lon="-5.8535490">
        <ele>745.8</ele>
        <time>2021-10-10T12:54:27Z</time>
      </trkpt>
      <trkpt lat="43.0249640" lon="-5.8536120">
        <ele>746.2</ele>
        <time>2021-10-10T12:54:30Z</time>
      </trkpt>
      <trkpt lat="43.0249710" lon="-5.8536360">
        <ele>746.4</ele>
        <time>2021-10-10T12:54:31Z</time>
      </trkpt>
      <trkpt lat="43.0249800" lon="-5.8536810">
        <ele>746.8</ele>
        <time>2021-10-10T12:54:33Z</time>
      </trkpt>
      <trkpt lat="43.0249880" lon="-5.8537530">
        <ele>747.2</ele>
        <time>2021-10-10T12:54:36Z</time>
      </trkpt>
      <trkpt lat="43.0249910" lon="-5.8537770">
        <ele>747.4</ele>
        <time>2021-10-10T12:54:37Z</time>
      </trkpt>
      <trkpt lat="43.0249930" lon="-5.8538030">
        <ele>747.6</ele>
        <time>2021-10-10T12:54:38Z</time>
      </trkpt>
      <trkpt lat="43.0249970" lon="-5.8538540">
        <ele>747.8</ele>
        <time>2021-10-10T12:54:40Z</time>
      </trkpt>
      <trkpt lat="43.0249970" lon="-5.8538760">
        <ele>748.0</ele>
        <time>2021-10-10T12:54:41Z</time>
      </trkpt>
      <trkpt lat="43.0249970" lon="-5.8539050">
        <ele>748.0</ele>
        <time>2021-10-10T12:54:42Z</time>
      </trkpt>
      <trkpt lat="43.0250040" lon="-5.8539690">
        <ele>748.4</ele>
        <time>2021-10-10T12:54:45Z</time>
      </trkpt>
      <trkpt lat="43.0250040" lon="-5.8539910">
        <ele>748.4</ele>
        <time>2021-10-10T12:54:46Z</time>
      </trkpt>
      <trkpt lat="43.0250020" lon="-5.8540170">
        <ele>748.6</ele>
        <time>2021-10-10T12:54:47Z</time>
      </trkpt>
      <trkpt lat="43.0250030" lon="-5.8540410">
        <ele>748.6</ele>
        <time>2021-10-10T12:54:48Z</time>
      </trkpt>
      <trkpt lat="43.0250080" lon="-5.8540650">
        <ele>748.8</ele>
        <time>2021-10-10T12:54:49Z</time>
      </trkpt>
      <trkpt lat="43.0250070" lon="-5.8540870">
        <ele>749.0</ele>
        <time>2021-10-10T12:54:50Z</time>
      </trkpt>
      <trkpt lat="43.0250160" lon="-5.8541730">
        <ele>749.6</ele>
        <time>2021-10-10T12:54:54Z</time>
      </trkpt>
      <trkpt lat="43.0250270" lon="-5.8542320">
        <ele>750.0</ele>
        <time>2021-10-10T12:54:57Z</time>
      </trkpt>
      <trkpt lat="43.0250270" lon="-5.8542850">
        <ele>750.2</ele>
        <time>2021-10-10T12:55:00Z</time>
      </trkpt>
      <trkpt lat="43.0250320" lon="-5.8543010">
        <ele>750.4</ele>
        <time>2021-10-10T12:55:01Z</time>
      </trkpt>
      <trkpt lat="43.0250360" lon="-5.8543210">
        <ele>750.4</ele>
        <time>2021-10-10T12:55:02Z</time>
      </trkpt>
      <trkpt lat="43.0250370" lon="-5.8543400">
        <ele>750.6</ele>
        <time>2021-10-10T12:55:03Z</time>
      </trkpt>
      <trkpt lat="43.0250350" lon="-5.8544030">
        <ele>751.0</ele>
        <time>2021-10-10T12:55:06Z</time>
      </trkpt>
      <trkpt lat="43.0250290" lon="-5.8544590">
        <ele>751.2</ele>
        <time>2021-10-10T12:55:09Z</time>
      </trkpt>
      <trkpt lat="43.0250300" lon="-5.8544810">
        <ele>751.6</ele>
        <time>2021-10-10T12:55:10Z</time>
      </trkpt>
      <trkpt lat="43.0250300" lon="-5.8545400">
        <ele>752.4</ele>
        <time>2021-10-10T12:55:13Z</time>
      </trkpt>
      <trkpt lat="43.0250290" lon="-5.8545790">
        <ele>752.6</ele>
        <time>2021-10-10T12:55:15Z</time>
      </trkpt>
      <trkpt lat="43.0250230" lon="-5.8545980">
        <ele>752.6</ele>
        <time>2021-10-10T12:55:16Z</time>
      </trkpt>
      <trkpt lat="43.0250140" lon="-5.8546250">
        <ele>752.8</ele>
        <time>2021-10-10T12:55:17Z</time>
      </trkpt>
      <trkpt lat="43.0250050" lon="-5.8547030">
        <ele>753.4</ele>
        <time>2021-10-10T12:55:21Z</time>
      </trkpt>
      <trkpt lat="43.0250040" lon="-5.8547710">
        <ele>753.6</ele>
        <time>2021-10-10T12:55:24Z</time>
      </trkpt>
      <trkpt lat="43.0250040" lon="-5.8547930">
        <ele>753.8</ele>
        <time>2021-10-10T12:55:25Z</time>
      </trkpt>
      <trkpt lat="43.0250050" lon="-5.8548190">
        <ele>753.8</ele>
        <time>2021-10-10T12:55:26Z</time>
      </trkpt>
      <trkpt lat="43.0250080" lon="-5.8548830">
        <ele>754.2</ele>
        <time>2021-10-10T12:55:29Z</time>
      </trkpt>
      <trkpt lat="43.0250010" lon="-5.8549250">
        <ele>754.4</ele>
        <time>2021-10-10T12:55:31Z</time>
      </trkpt>
      <trkpt lat="43.0249980" lon="-5.8549450">
        <ele>754.6</ele>
        <time>2021-10-10T12:55:32Z</time>
      </trkpt>
      <trkpt lat="43.0249900" lon="-5.8549650">
        <ele>754.8</ele>
        <time>2021-10-10T12:55:33Z</time>
      </trkpt>
      <trkpt lat="43.0249760" lon="-5.8549860">
        <ele>755.0</ele>
        <time>2021-10-10T12:55:34Z</time>
      </trkpt>
      <trkpt lat="43.0249580" lon="-5.8550180">
        <ele>755.0</ele>
        <time>2021-10-10T12:55:36Z</time>
      </trkpt>
      <trkpt lat="43.0249450" lon="-5.8550290">
        <ele>755.4</ele>
        <time>2021-10-10T12:55:37Z</time>
      </trkpt>
      <trkpt lat="43.0249370" lon="-5.8550430">
        <ele>755.4</ele>
        <time>2021-10-10T12:55:38Z</time>
      </trkpt>
      <trkpt lat="43.0249230" lon="-5.8550880">
        <ele>755.6</ele>
        <time>2021-10-10T12:55:40Z</time>
      </trkpt>
      <trkpt lat="43.0249050" lon="-5.8551150">
        <ele>756.0</ele>
        <time>2021-10-10T12:55:42Z</time>
      </trkpt>
      <trkpt lat="43.0248880" lon="-5.8551490">
        <ele>756.2</ele>
        <time>2021-10-10T12:55:44Z</time>
      </trkpt>
      <trkpt lat="43.0248320" lon="-5.8552240">
        <ele>756.8</ele>
        <time>2021-10-10T12:55:49Z</time>
      </trkpt>
      <trkpt lat="43.0248220" lon="-5.8552420">
        <ele>757.0</ele>
        <time>2021-10-10T12:55:50Z</time>
      </trkpt>
      <trkpt lat="43.0248120" lon="-5.8552560">
        <ele>756.8</ele>
        <time>2021-10-10T12:55:51Z</time>
      </trkpt>
      <trkpt lat="43.0247940" lon="-5.8552940">
        <ele>757.2</ele>
        <time>2021-10-10T12:55:53Z</time>
      </trkpt>
      <trkpt lat="43.0247800" lon="-5.8553310">
        <ele>757.4</ele>
        <time>2021-10-10T12:55:55Z</time>
      </trkpt>
      <trkpt lat="43.0247420" lon="-5.8553990">
        <ele>757.8</ele>
        <time>2021-10-10T12:55:59Z</time>
      </trkpt>
      <trkpt lat="43.0247300" lon="-5.8554110">
        <ele>757.8</ele>
        <time>2021-10-10T12:56:00Z</time>
      </trkpt>
      <trkpt lat="43.0246950" lon="-5.8554360">
        <ele>758.2</ele>
        <time>2021-10-10T12:56:03Z</time>
      </trkpt>
      <trkpt lat="43.0246620" lon="-5.8554610">
        <ele>758.6</ele>
        <time>2021-10-10T12:56:06Z</time>
      </trkpt>
      <trkpt lat="43.0246590" lon="-5.8554660">
        <ele>758.8</ele>
        <time>2021-10-10T12:56:07Z</time>
      </trkpt>
      <trkpt lat="43.0246590" lon="-5.8554660">
        <ele>759.0</ele>
        <time>2021-10-10T12:56:08Z</time>
      </trkpt>
      <trkpt lat="43.0246590" lon="-5.8554660">
        <ele>759.0</ele>
        <time>2021-10-10T12:56:09Z</time>
      </trkpt>
      <trkpt lat="43.0246250" lon="-5.8554840">
        <ele>760.4</ele>
        <time>2021-10-10T12:59:21Z</time>
      </trkpt>
      <trkpt lat="43.0246060" lon="-5.8554920">
        <ele>760.4</ele>
        <time>2021-10-10T12:59:22Z</time>
      </trkpt>
      <trkpt lat="43.0245640" lon="-5.8555070">
        <ele>760.4</ele>
        <time>2021-10-10T12:59:24Z</time>
      </trkpt>
      <trkpt lat="43.0245100" lon="-5.8555300">
        <ele>760.6</ele>
        <time>2021-10-10T12:59:27Z</time>
      </trkpt>
      <trkpt lat="43.0244790" lon="-5.8555400">
        <ele>760.8</ele>
        <time>2021-10-10T12:59:29Z</time>
      </trkpt>
      <trkpt lat="43.0244180" lon="-5.8555590">
        <ele>761.2</ele>
        <time>2021-10-10T12:59:33Z</time>
      </trkpt>
      <trkpt lat="43.0243910" lon="-5.8555870">
        <ele>761.2</ele>
        <time>2021-10-10T12:59:35Z</time>
      </trkpt>
      <trkpt lat="43.0243730" lon="-5.8555960">
        <ele>761.4</ele>
        <time>2021-10-10T12:59:36Z</time>
      </trkpt>
      <trkpt lat="43.0243400" lon="-5.8556060">
        <ele>761.8</ele>
        <time>2021-10-10T12:59:38Z</time>
      </trkpt>
      <trkpt lat="43.0243300" lon="-5.8556130">
        <ele>762.0</ele>
        <time>2021-10-10T12:59:39Z</time>
      </trkpt>
      <trkpt lat="43.0242810" lon="-5.8556340">
        <ele>762.4</ele>
        <time>2021-10-10T12:59:42Z</time>
      </trkpt>
      <trkpt lat="43.0242640" lon="-5.8556460">
        <ele>762.8</ele>
        <time>2021-10-10T12:59:43Z</time>
      </trkpt>
      <trkpt lat="43.0242140" lon="-5.8557360">
        <ele>763.6</ele>
        <time>2021-10-10T12:59:48Z</time>
      </trkpt>
      <trkpt lat="43.0242090" lon="-5.8557540">
        <ele>763.8</ele>
        <time>2021-10-10T12:59:49Z</time>
      </trkpt>
      <trkpt lat="43.0242020" lon="-5.8557990">
        <ele>764.2</ele>
        <time>2021-10-10T12:59:51Z</time>
      </trkpt>
      <trkpt lat="43.0242020" lon="-5.8558660">
        <ele>765.0</ele>
        <time>2021-10-10T12:59:54Z</time>
      </trkpt>
      <trkpt lat="43.0242060" lon="-5.8559110">
        <ele>765.4</ele>
        <time>2021-10-10T12:59:56Z</time>
      </trkpt>
      <trkpt lat="43.0242210" lon="-5.8559510">
        <ele>765.6</ele>
        <time>2021-10-10T12:59:58Z</time>
      </trkpt>
      <trkpt lat="43.0242360" lon="-5.8559950">
        <ele>766.0</ele>
        <time>2021-10-10T13:00:00Z</time>
      </trkpt>
      <trkpt lat="43.0242810" lon="-5.8560530">
        <ele>766.6</ele>
        <time>2021-10-10T13:00:04Z</time>
      </trkpt>
      <trkpt lat="43.0243300" lon="-5.8561050">
        <ele>767.4</ele>
        <time>2021-10-10T13:00:08Z</time>
      </trkpt>
      <trkpt lat="43.0243650" lon="-5.8561160">
        <ele>767.8</ele>
        <time>2021-10-10T13:00:10Z</time>
      </trkpt>
      <trkpt lat="43.0243810" lon="-5.8561210">
        <ele>768.0</ele>
        <time>2021-10-10T13:00:11Z</time>
      </trkpt>
      <trkpt lat="43.0243920" lon="-5.8561240">
        <ele>768.4</ele>
        <time>2021-10-10T13:00:12Z</time>
      </trkpt>
      <trkpt lat="43.0244080" lon="-5.8561280">
        <ele>768.4</ele>
        <time>2021-10-10T13:00:13Z</time>
      </trkpt>
      <trkpt lat="43.0244270" lon="-5.8561320">
        <ele>768.6</ele>
        <time>2021-10-10T13:00:14Z</time>
      </trkpt>
      <trkpt lat="43.0244580" lon="-5.8561490">
        <ele>768.8</ele>
        <time>2021-10-10T13:00:16Z</time>
      </trkpt>
      <trkpt lat="43.0244930" lon="-5.8561640">
        <ele>769.0</ele>
        <time>2021-10-10T13:00:18Z</time>
      </trkpt>
      <trkpt lat="43.0245240" lon="-5.8561780">
        <ele>769.0</ele>
        <time>2021-10-10T13:00:20Z</time>
      </trkpt>
      <trkpt lat="43.0245440" lon="-5.8561880">
        <ele>769.2</ele>
        <time>2021-10-10T13:00:21Z</time>
      </trkpt>
      <trkpt lat="43.0245730" lon="-5.8562170">
        <ele>769.4</ele>
        <time>2021-10-10T13:00:23Z</time>
      </trkpt>
      <trkpt lat="43.0245950" lon="-5.8562550">
        <ele>769.6</ele>
        <time>2021-10-10T13:00:25Z</time>
      </trkpt>
      <trkpt lat="43.0246260" lon="-5.8563130">
        <ele>770.0</ele>
        <time>2021-10-10T13:00:28Z</time>
      </trkpt>
      <trkpt lat="43.0246500" lon="-5.8564040">
        <ele>770.8</ele>
        <time>2021-10-10T13:00:32Z</time>
      </trkpt>
      <trkpt lat="43.0246540" lon="-5.8564260">
        <ele>770.8</ele>
        <time>2021-10-10T13:00:33Z</time>
      </trkpt>
      <trkpt lat="43.0246610" lon="-5.8564880">
        <ele>771.2</ele>
        <time>2021-10-10T13:00:36Z</time>
      </trkpt>
      <trkpt lat="43.0246610" lon="-5.8565320">
        <ele>771.6</ele>
        <time>2021-10-10T13:00:38Z</time>
      </trkpt>
      <trkpt lat="43.0246600" lon="-5.8565530">
        <ele>771.6</ele>
        <time>2021-10-10T13:00:39Z</time>
      </trkpt>
      <trkpt lat="43.0246570" lon="-5.8565730">
        <ele>771.8</ele>
        <time>2021-10-10T13:00:40Z</time>
      </trkpt>
      <trkpt lat="43.0246460" lon="-5.8566140">
        <ele>772.2</ele>
        <time>2021-10-10T13:00:42Z</time>
      </trkpt>
      <trkpt lat="43.0246240" lon="-5.8566690">
        <ele>772.8</ele>
        <time>2021-10-10T13:00:45Z</time>
      </trkpt>
      <trkpt lat="43.0246080" lon="-5.8567100">
        <ele>772.8</ele>
        <time>2021-10-10T13:00:47Z</time>
      </trkpt>
      <trkpt lat="43.0245920" lon="-5.8567510">
        <ele>773.4</ele>
        <time>2021-10-10T13:00:49Z</time>
      </trkpt>
      <trkpt lat="43.0245760" lon="-5.8567830">
        <ele>773.6</ele>
        <time>2021-10-10T13:00:51Z</time>
      </trkpt>
      <trkpt lat="43.0245680" lon="-5.8567950">
        <ele>773.6</ele>
        <time>2021-10-10T13:00:52Z</time>
      </trkpt>
      <trkpt lat="43.0245560" lon="-5.8568280">
        <ele>774.2</ele>
        <time>2021-10-10T13:00:54Z</time>
      </trkpt>
      <trkpt lat="43.0245480" lon="-5.8568460">
        <ele>774.2</ele>
        <time>2021-10-10T13:00:55Z</time>
      </trkpt>
      <trkpt lat="43.0245120" lon="-5.8569060">
        <ele>774.8</ele>
        <time>2021-10-10T13:00:59Z</time>
      </trkpt>
      <trkpt lat="43.0244840" lon="-5.8569740">
        <ele>775.4</ele>
        <time>2021-10-10T13:01:03Z</time>
      </trkpt>
      <trkpt lat="43.0244730" lon="-5.8570020">
        <ele>775.4</ele>
        <time>2021-10-10T13:01:05Z</time>
      </trkpt>
      <trkpt lat="43.0244640" lon="-5.8570200">
        <ele>775.6</ele>
        <time>2021-10-10T13:01:06Z</time>
      </trkpt>
      <trkpt lat="43.0244480" lon="-5.8570570">
        <ele>776.0</ele>
        <time>2021-10-10T13:01:08Z</time>
      </trkpt>
      <trkpt lat="43.0244410" lon="-5.8570740">
        <ele>776.0</ele>
        <time>2021-10-10T13:01:09Z</time>
      </trkpt>
      <trkpt lat="43.0244160" lon="-5.8571330">
        <ele>776.2</ele>
        <time>2021-10-10T13:01:12Z</time>
      </trkpt>
      <trkpt lat="43.0244090" lon="-5.8571440">
        <ele>776.2</ele>
        <time>2021-10-10T13:01:13Z</time>
      </trkpt>
      <trkpt lat="43.0244010" lon="-5.8571600">
        <ele>776.4</ele>
        <time>2021-10-10T13:01:14Z</time>
      </trkpt>
      <trkpt lat="43.0243890" lon="-5.8571980">
        <ele>776.8</ele>
        <time>2021-10-10T13:01:16Z</time>
      </trkpt>
      <trkpt lat="43.0243790" lon="-5.8572300">
        <ele>776.8</ele>
        <time>2021-10-10T13:01:18Z</time>
      </trkpt>
      <trkpt lat="43.0243610" lon="-5.8572800">
        <ele>777.2</ele>
        <time>2021-10-10T13:01:21Z</time>
      </trkpt>
      <trkpt lat="43.0243530" lon="-5.8573010">
        <ele>777.4</ele>
        <time>2021-10-10T13:01:22Z</time>
      </trkpt>
      <trkpt lat="43.0243410" lon="-5.8573330">
        <ele>777.6</ele>
        <time>2021-10-10T13:01:24Z</time>
      </trkpt>
      <trkpt lat="43.0243300" lon="-5.8573540">
        <ele>778.0</ele>
        <time>2021-10-10T13:01:25Z</time>
      </trkpt>
      <trkpt lat="43.0243240" lon="-5.8573690">
        <ele>778.0</ele>
        <time>2021-10-10T13:01:26Z</time>
      </trkpt>
      <trkpt lat="43.0243020" lon="-5.8574200">
        <ele>778.4</ele>
        <time>2021-10-10T13:01:29Z</time>
      </trkpt>
      <trkpt lat="43.0242870" lon="-5.8574680">
        <ele>778.8</ele>
        <time>2021-10-10T13:01:32Z</time>
      </trkpt>
      <trkpt lat="43.0242680" lon="-5.8575090">
        <ele>779.0</ele>
        <time>2021-10-10T13:01:34Z</time>
      </trkpt>
      <trkpt lat="43.0242470" lon="-5.8575570">
        <ele>779.4</ele>
        <time>2021-10-10T13:01:37Z</time>
      </trkpt>
      <trkpt lat="43.0242230" lon="-5.8575960">
        <ele>779.8</ele>
        <time>2021-10-10T13:01:40Z</time>
      </trkpt>
      <trkpt lat="43.0241840" lon="-5.8576660">
        <ele>780.2</ele>
        <time>2021-10-10T13:01:44Z</time>
      </trkpt>
      <trkpt lat="43.0241410" lon="-5.8577180">
        <ele>780.6</ele>
        <time>2021-10-10T13:01:48Z</time>
      </trkpt>
      <trkpt lat="43.0241280" lon="-5.8577310">
        <ele>781.0</ele>
        <time>2021-10-10T13:01:49Z</time>
      </trkpt>
      <trkpt lat="43.0241080" lon="-5.8577500">
        <ele>781.2</ele>
        <time>2021-10-10T13:01:51Z</time>
      </trkpt>
      <trkpt lat="43.0240970" lon="-5.8577600">
        <ele>781.4</ele>
        <time>2021-10-10T13:01:52Z</time>
      </trkpt>
      <trkpt lat="43.0240530" lon="-5.8577900">
        <ele>781.8</ele>
        <time>2021-10-10T13:01:55Z</time>
      </trkpt>
      <trkpt lat="43.0240290" lon="-5.8578150">
        <ele>782.0</ele>
        <time>2021-10-10T13:01:57Z</time>
      </trkpt>
      <trkpt lat="43.0240150" lon="-5.8578260">
        <ele>782.0</ele>
        <time>2021-10-10T13:01:58Z</time>
      </trkpt>
      <trkpt lat="43.0240000" lon="-5.8578390">
        <ele>782.2</ele>
        <time>2021-10-10T13:01:59Z</time>
      </trkpt>
      <trkpt lat="43.0239870" lon="-5.8578510">
        <ele>782.4</ele>
        <time>2021-10-10T13:02:00Z</time>
      </trkpt>
      <trkpt lat="43.0239060" lon="-5.8579240">
        <ele>783.2</ele>
        <time>2021-10-10T13:02:07Z</time>
      </trkpt>
      <trkpt lat="43.0238920" lon="-5.8579370">
        <ele>783.4</ele>
        <time>2021-10-10T13:02:08Z</time>
      </trkpt>
      <trkpt lat="43.0238810" lon="-5.8579480">
        <ele>783.4</ele>
        <time>2021-10-10T13:02:09Z</time>
      </trkpt>
      <trkpt lat="43.0238310" lon="-5.8579990">
        <ele>783.8</ele>
        <time>2021-10-10T13:02:13Z</time>
      </trkpt>
      <trkpt lat="43.0238080" lon="-5.8580200">
        <ele>784.0</ele>
        <time>2021-10-10T13:02:15Z</time>
      </trkpt>
      <trkpt lat="43.0237900" lon="-5.8580470">
        <ele>784.2</ele>
        <time>2021-10-10T13:02:17Z</time>
      </trkpt>
      <trkpt lat="43.0237810" lon="-5.8580580">
        <ele>784.6</ele>
        <time>2021-10-10T13:02:18Z</time>
      </trkpt>
      <trkpt lat="43.0237670" lon="-5.8580730">
        <ele>784.6</ele>
        <time>2021-10-10T13:02:19Z</time>
      </trkpt>
      <trkpt lat="43.0237600" lon="-5.8580820">
        <ele>785.0</ele>
        <time>2021-10-10T13:02:20Z</time>
      </trkpt>
      <trkpt lat="43.0237380" lon="-5.8581050">
        <ele>785.2</ele>
        <time>2021-10-10T13:02:22Z</time>
      </trkpt>
      <trkpt lat="43.0237270" lon="-5.8581130">
        <ele>785.4</ele>
        <time>2021-10-10T13:02:23Z</time>
      </trkpt>
      <trkpt lat="43.0237110" lon="-5.8581250">
        <ele>785.4</ele>
        <time>2021-10-10T13:02:24Z</time>
      </trkpt>
      <trkpt lat="43.0237010" lon="-5.8581330">
        <ele>785.6</ele>
        <time>2021-10-10T13:02:25Z</time>
      </trkpt>
      <trkpt lat="43.0236880" lon="-5.8581430">
        <ele>785.6</ele>
        <time>2021-10-10T13:02:26Z</time>
      </trkpt>
      <trkpt lat="43.0236560" lon="-5.8581600">
        <ele>785.8</ele>
        <time>2021-10-10T13:02:28Z</time>
      </trkpt>
      <trkpt lat="43.0236440" lon="-5.8581700">
        <ele>786.0</ele>
        <time>2021-10-10T13:02:29Z</time>
      </trkpt>
      <trkpt lat="43.0235780" lon="-5.8582090">
        <ele>786.6</ele>
        <time>2021-10-10T13:02:34Z</time>
      </trkpt>
      <trkpt lat="43.0235430" lon="-5.8582180">
        <ele>786.8</ele>
        <time>2021-10-10T13:02:36Z</time>
      </trkpt>
      <trkpt lat="43.0235140" lon="-5.8582280">
        <ele>787.2</ele>
        <time>2021-10-10T13:02:38Z</time>
      </trkpt>
      <trkpt lat="43.0234890" lon="-5.8582390">
        <ele>787.4</ele>
        <time>2021-10-10T13:02:40Z</time>
      </trkpt>
      <trkpt lat="43.0234750" lon="-5.8582450">
        <ele>787.6</ele>
        <time>2021-10-10T13:02:41Z</time>
      </trkpt>
      <trkpt lat="43.0234620" lon="-5.8582490">
        <ele>787.6</ele>
        <time>2021-10-10T13:02:42Z</time>
      </trkpt>
      <trkpt lat="43.0234200" lon="-5.8582570">
        <ele>788.2</ele>
        <time>2021-10-10T13:02:45Z</time>
      </trkpt>
      <trkpt lat="43.0234050" lon="-5.8582610">
        <ele>788.2</ele>
        <time>2021-10-10T13:02:46Z</time>
      </trkpt>
      <trkpt lat="43.0233730" lon="-5.8582750">
        <ele>788.4</ele>
        <time>2021-10-10T13:02:48Z</time>
      </trkpt>
      <trkpt lat="43.0233610" lon="-5.8582810">
        <ele>788.8</ele>
        <time>2021-10-10T13:02:49Z</time>
      </trkpt>
      <trkpt lat="43.0232890" lon="-5.8583080">
        <ele>789.2</ele>
        <time>2021-10-10T13:02:54Z</time>
      </trkpt>
      <trkpt lat="43.0232650" lon="-5.8583230">
        <ele>789.6</ele>
        <time>2021-10-10T13:02:56Z</time>
      </trkpt>
      <trkpt lat="43.0232530" lon="-5.8583340">
        <ele>789.6</ele>
        <time>2021-10-10T13:02:57Z</time>
      </trkpt>
      <trkpt lat="43.0232390" lon="-5.8583430">
        <ele>790.0</ele>
        <time>2021-10-10T13:02:58Z</time>
      </trkpt>
      <trkpt lat="43.0232000" lon="-5.8583760">
        <ele>790.4</ele>
        <time>2021-10-10T13:03:01Z</time>
      </trkpt>
      <trkpt lat="43.0231860" lon="-5.8584010">
        <ele>790.6</ele>
        <time>2021-10-10T13:03:03Z</time>
      </trkpt>
      <trkpt lat="43.0231720" lon="-5.8584300">
        <ele>790.8</ele>
        <time>2021-10-10T13:03:05Z</time>
      </trkpt>
      <trkpt lat="43.0231600" lon="-5.8584670">
        <ele>791.2</ele>
        <time>2021-10-10T13:03:07Z</time>
      </trkpt>
      <trkpt lat="43.0231470" lon="-5.8585010">
        <ele>791.4</ele>
        <time>2021-10-10T13:03:09Z</time>
      </trkpt>
      <trkpt lat="43.0231340" lon="-5.8585350">
        <ele>791.6</ele>
        <time>2021-10-10T13:03:11Z</time>
      </trkpt>
      <trkpt lat="43.0231170" lon="-5.8586050">
        <ele>792.2</ele>
        <time>2021-10-10T13:03:15Z</time>
      </trkpt>
      <trkpt lat="43.0231130" lon="-5.8586230">
        <ele>792.2</ele>
        <time>2021-10-10T13:03:16Z</time>
      </trkpt>
      <trkpt lat="43.0231070" lon="-5.8586390">
        <ele>792.4</ele>
        <time>2021-10-10T13:03:17Z</time>
      </trkpt>
      <trkpt lat="43.0230920" lon="-5.8586940">
        <ele>792.8</ele>
        <time>2021-10-10T13:03:20Z</time>
      </trkpt>
      <trkpt lat="43.0230790" lon="-5.8587670">
        <ele>793.2</ele>
        <time>2021-10-10T13:03:24Z</time>
      </trkpt>
      <trkpt lat="43.0230740" lon="-5.8587880">
        <ele>793.4</ele>
        <time>2021-10-10T13:03:25Z</time>
      </trkpt>
      <trkpt lat="43.0230530" lon="-5.8589210">
        <ele>794.2</ele>
        <time>2021-10-10T13:03:32Z</time>
      </trkpt>
      <trkpt lat="43.0230470" lon="-5.8589370">
        <ele>794.4</ele>
        <time>2021-10-10T13:03:33Z</time>
      </trkpt>
      <trkpt lat="43.0230300" lon="-5.8589920">
        <ele>795.0</ele>
        <time>2021-10-10T13:03:36Z</time>
      </trkpt>
      <trkpt lat="43.0230110" lon="-5.8590490">
        <ele>795.2</ele>
        <time>2021-10-10T13:03:39Z</time>
      </trkpt>
      <trkpt lat="43.0230050" lon="-5.8590670">
        <ele>795.4</ele>
        <time>2021-10-10T13:03:40Z</time>
      </trkpt>
      <trkpt lat="43.0229970" lon="-5.8590840">
        <ele>795.4</ele>
        <time>2021-10-10T13:03:41Z</time>
      </trkpt>
      <trkpt lat="43.0229890" lon="-5.8591220">
        <ele>795.8</ele>
        <time>2021-10-10T13:03:43Z</time>
      </trkpt>
      <trkpt lat="43.0229840" lon="-5.8591390">
        <ele>796.2</ele>
        <time>2021-10-10T13:03:44Z</time>
      </trkpt>
      <trkpt lat="43.0229740" lon="-5.8591740">
        <ele>796.4</ele>
        <time>2021-10-10T13:03:46Z</time>
      </trkpt>
      <trkpt lat="43.0229690" lon="-5.8591910">
        <ele>796.6</ele>
        <time>2021-10-10T13:03:47Z</time>
      </trkpt>
      <trkpt lat="43.0229560" lon="-5.8592480">
        <ele>797.0</ele>
        <time>2021-10-10T13:03:50Z</time>
      </trkpt>
      <trkpt lat="43.0229520" lon="-5.8592670">
        <ele>797.2</ele>
        <time>2021-10-10T13:03:51Z</time>
      </trkpt>
      <trkpt lat="43.0229490" lon="-5.8592840">
        <ele>797.2</ele>
        <time>2021-10-10T13:03:52Z</time>
      </trkpt>
      <trkpt lat="43.0229440" lon="-5.8593400">
        <ele>797.6</ele>
        <time>2021-10-10T13:03:55Z</time>
      </trkpt>
      <trkpt lat="43.0229430" lon="-5.8594150">
        <ele>798.0</ele>
        <time>2021-10-10T13:03:59Z</time>
      </trkpt>
      <trkpt lat="43.0229410" lon="-5.8594330">
        <ele>798.2</ele>
        <time>2021-10-10T13:04:00Z</time>
      </trkpt>
      <trkpt lat="43.0229410" lon="-5.8594510">
        <ele>798.2</ele>
        <time>2021-10-10T13:04:01Z</time>
      </trkpt>
      <trkpt lat="43.0229420" lon="-5.8594910">
        <ele>798.4</ele>
        <time>2021-10-10T13:04:03Z</time>
      </trkpt>
      <trkpt lat="43.0229460" lon="-5.8595300">
        <ele>798.8</ele>
        <time>2021-10-10T13:04:05Z</time>
      </trkpt>
      <trkpt lat="43.0229650" lon="-5.8595980">
        <ele>799.0</ele>
        <time>2021-10-10T13:04:09Z</time>
      </trkpt>
      <trkpt lat="43.0229750" lon="-5.8596360">
        <ele>799.2</ele>
        <time>2021-10-10T13:04:11Z</time>
      </trkpt>
      <trkpt lat="43.0229800" lon="-5.8596550">
        <ele>799.2</ele>
        <time>2021-10-10T13:04:12Z</time>
      </trkpt>
      <trkpt lat="43.0229870" lon="-5.8596730">
        <ele>799.4</ele>
        <time>2021-10-10T13:04:13Z</time>
      </trkpt>
      <trkpt lat="43.0230140" lon="-5.8597290">
        <ele>799.8</ele>
        <time>2021-10-10T13:04:16Z</time>
      </trkpt>
      <trkpt lat="43.0230220" lon="-5.8597470">
        <ele>799.8</ele>
        <time>2021-10-10T13:04:17Z</time>
      </trkpt>
      <trkpt lat="43.0230440" lon="-5.8598060">
        <ele>800.2</ele>
        <time>2021-10-10T13:04:20Z</time>
      </trkpt>
      <trkpt lat="43.0230500" lon="-5.8598290">
        <ele>800.2</ele>
        <time>2021-10-10T13:04:21Z</time>
      </trkpt>
      <trkpt lat="43.0230650" lon="-5.8598910">
        <ele>800.6</ele>
        <time>2021-10-10T13:04:24Z</time>
      </trkpt>
      <trkpt lat="43.0230740" lon="-5.8599280">
        <ele>801.0</ele>
        <time>2021-10-10T13:04:26Z</time>
      </trkpt>
      <trkpt lat="43.0230850" lon="-5.8599620">
        <ele>801.2</ele>
        <time>2021-10-10T13:04:28Z</time>
      </trkpt>
      <trkpt lat="43.0230910" lon="-5.8599820">
        <ele>801.2</ele>
        <time>2021-10-10T13:04:29Z</time>
      </trkpt>
      <trkpt lat="43.0231030" lon="-5.8600160">
        <ele>801.4</ele>
        <time>2021-10-10T13:04:31Z</time>
      </trkpt>
      <trkpt lat="43.0231140" lon="-5.8600510">
        <ele>801.8</ele>
        <time>2021-10-10T13:04:33Z</time>
      </trkpt>
      <trkpt lat="43.0231320" lon="-5.8601060">
        <ele>802.2</ele>
        <time>2021-10-10T13:04:36Z</time>
      </trkpt>
      <trkpt lat="43.0231380" lon="-5.8601250">
        <ele>802.4</ele>
        <time>2021-10-10T13:04:37Z</time>
      </trkpt>
      <trkpt lat="43.0231430" lon="-5.8601460">
        <ele>802.6</ele>
        <time>2021-10-10T13:04:38Z</time>
      </trkpt>
      <trkpt lat="43.0231430" lon="-5.8601890">
        <ele>802.6</ele>
        <time>2021-10-10T13:04:40Z</time>
      </trkpt>
      <trkpt lat="43.0231440" lon="-5.8602100">
        <ele>802.8</ele>
        <time>2021-10-10T13:04:41Z</time>
      </trkpt>
      <trkpt lat="43.0231440" lon="-5.8602460">
        <ele>802.8</ele>
        <time>2021-10-10T13:04:43Z</time>
      </trkpt>
      <trkpt lat="43.0231420" lon="-5.8602860">
        <ele>803.2</ele>
        <time>2021-10-10T13:04:45Z</time>
      </trkpt>
      <trkpt lat="43.0231360" lon="-5.8603070">
        <ele>803.2</ele>
        <time>2021-10-10T13:04:46Z</time>
      </trkpt>
      <trkpt lat="43.0231290" lon="-5.8603480">
        <ele>803.4</ele>
        <time>2021-10-10T13:04:48Z</time>
      </trkpt>
      <trkpt lat="43.0231260" lon="-5.8603680">
        <ele>803.6</ele>
        <time>2021-10-10T13:04:49Z</time>
      </trkpt>
      <trkpt lat="43.0231210" lon="-5.8604120">
        <ele>803.8</ele>
        <time>2021-10-10T13:04:51Z</time>
      </trkpt>
      <trkpt lat="43.0231080" lon="-5.8604540">
        <ele>804.0</ele>
        <time>2021-10-10T13:04:53Z</time>
      </trkpt>
      <trkpt lat="43.0231010" lon="-5.8604900">
        <ele>804.2</ele>
        <time>2021-10-10T13:04:55Z</time>
      </trkpt>
      <trkpt lat="43.0230970" lon="-5.8605070">
        <ele>804.4</ele>
        <time>2021-10-10T13:04:56Z</time>
      </trkpt>
      <trkpt lat="43.0230900" lon="-5.8605420">
        <ele>804.6</ele>
        <time>2021-10-10T13:04:58Z</time>
      </trkpt>
      <trkpt lat="43.0230260" lon="-5.8607150">
        <ele>805.2</ele>
        <time>2021-10-10T13:05:06Z</time>
      </trkpt>
      <trkpt lat="43.0229960" lon="-5.8607700">
        <ele>805.4</ele>
        <time>2021-10-10T13:05:09Z</time>
      </trkpt>
      <trkpt lat="43.0229860" lon="-5.8607850">
        <ele>805.6</ele>
        <time>2021-10-10T13:05:10Z</time>
      </trkpt>
      <trkpt lat="43.0229760" lon="-5.8608010">
        <ele>805.6</ele>
        <time>2021-10-10T13:05:11Z</time>
      </trkpt>
      <trkpt lat="43.0229580" lon="-5.8608310">
        <ele>806.0</ele>
        <time>2021-10-10T13:05:13Z</time>
      </trkpt>
      <trkpt lat="43.0229270" lon="-5.8608800">
        <ele>806.2</ele>
        <time>2021-10-10T13:05:16Z</time>
      </trkpt>
      <trkpt lat="43.0229200" lon="-5.8608960">
        <ele>806.2</ele>
        <time>2021-10-10T13:05:17Z</time>
      </trkpt>
      <trkpt lat="43.0229120" lon="-5.8609110">
        <ele>806.4</ele>
        <time>2021-10-10T13:05:18Z</time>
      </trkpt>
      <trkpt lat="43.0229030" lon="-5.8609260">
        <ele>806.6</ele>
        <time>2021-10-10T13:05:19Z</time>
      </trkpt>
      <trkpt lat="43.0228630" lon="-5.8609890">
        <ele>807.4</ele>
        <time>2021-10-10T13:05:23Z</time>
      </trkpt>
      <trkpt lat="43.0228520" lon="-5.8610040">
        <ele>807.4</ele>
        <time>2021-10-10T13:05:24Z</time>
      </trkpt>
      <trkpt lat="43.0228400" lon="-5.8610160">
        <ele>807.6</ele>
        <time>2021-10-10T13:05:25Z</time>
      </trkpt>
      <trkpt lat="43.0228280" lon="-5.8610280">
        <ele>807.6</ele>
        <time>2021-10-10T13:05:26Z</time>
      </trkpt>
      <trkpt lat="43.0227920" lon="-5.8610680">
        <ele>808.0</ele>
        <time>2021-10-10T13:05:29Z</time>
      </trkpt>
      <trkpt lat="43.0227710" lon="-5.8610950">
        <ele>808.2</ele>
        <time>2021-10-10T13:05:31Z</time>
      </trkpt>
      <trkpt lat="43.0227500" lon="-5.8611160">
        <ele>808.6</ele>
        <time>2021-10-10T13:05:33Z</time>
      </trkpt>
      <trkpt lat="43.0227350" lon="-5.8611480">
        <ele>809.0</ele>
        <time>2021-10-10T13:05:35Z</time>
      </trkpt>
      <trkpt lat="43.0227280" lon="-5.8611880">
        <ele>809.2</ele>
        <time>2021-10-10T13:05:37Z</time>
      </trkpt>
      <trkpt lat="43.0227220" lon="-5.8612100">
        <ele>809.2</ele>
        <time>2021-10-10T13:05:38Z</time>
      </trkpt>
      <trkpt lat="43.0227230" lon="-5.8612850">
        <ele>809.8</ele>
        <time>2021-10-10T13:05:42Z</time>
      </trkpt>
      <trkpt lat="43.0227330" lon="-5.8613180">
        <ele>810.0</ele>
        <time>2021-10-10T13:05:44Z</time>
      </trkpt>
      <trkpt lat="43.0227400" lon="-5.8613330">
        <ele>810.0</ele>
        <time>2021-10-10T13:05:45Z</time>
      </trkpt>
      <trkpt lat="43.0227510" lon="-5.8613470">
        <ele>810.4</ele>
        <time>2021-10-10T13:05:46Z</time>
      </trkpt>
      <trkpt lat="43.0227640" lon="-5.8613580">
        <ele>810.4</ele>
        <time>2021-10-10T13:05:47Z</time>
      </trkpt>
      <trkpt lat="43.0227930" lon="-5.8613730">
        <ele>810.6</ele>
        <time>2021-10-10T13:05:49Z</time>
      </trkpt>
      <trkpt lat="43.0228200" lon="-5.8613680">
        <ele>811.0</ele>
        <time>2021-10-10T13:05:51Z</time>
      </trkpt>
      <trkpt lat="43.0228330" lon="-5.8613630">
        <ele>811.2</ele>
        <time>2021-10-10T13:05:52Z</time>
      </trkpt>
      <trkpt lat="43.0228920" lon="-5.8613170">
        <ele>811.6</ele>
        <time>2021-10-10T13:05:57Z</time>
      </trkpt>
      <trkpt lat="43.0229060" lon="-5.8613050">
        <ele>811.8</ele>
        <time>2021-10-10T13:05:58Z</time>
      </trkpt>
      <trkpt lat="43.0229350" lon="-5.8612770">
        <ele>812.2</ele>
        <time>2021-10-10T13:06:00Z</time>
      </trkpt>
      <trkpt lat="43.0229460" lon="-5.8612610">
        <ele>812.2</ele>
        <time>2021-10-10T13:06:01Z</time>
      </trkpt>
      <trkpt lat="43.0229950" lon="-5.8611820">
        <ele>813.4</ele>
        <time>2021-10-10T13:06:06Z</time>
      </trkpt>
      <trkpt lat="43.0230060" lon="-5.8611680">
        <ele>813.6</ele>
        <time>2021-10-10T13:06:07Z</time>
      </trkpt>
      <trkpt lat="43.0230290" lon="-5.8611390">
        <ele>813.8</ele>
        <time>2021-10-10T13:06:09Z</time>
      </trkpt>
      <trkpt lat="43.0230400" lon="-5.8611230">
        <ele>813.8</ele>
        <time>2021-10-10T13:06:10Z</time>
      </trkpt>
      <trkpt lat="43.0230600" lon="-5.8610880">
        <ele>814.0</ele>
        <time>2021-10-10T13:06:12Z</time>
      </trkpt>
      <trkpt lat="43.0230820" lon="-5.8610630">
        <ele>814.2</ele>
        <time>2021-10-10T13:06:14Z</time>
      </trkpt>
      <trkpt lat="43.0230960" lon="-5.8610530">
        <ele>814.2</ele>
        <time>2021-10-10T13:06:15Z</time>
      </trkpt>
      <trkpt lat="43.0231100" lon="-5.8610370">
        <ele>814.4</ele>
        <time>2021-10-10T13:06:16Z</time>
      </trkpt>
      <trkpt lat="43.0231260" lon="-5.8610250">
        <ele>814.4</ele>
        <time>2021-10-10T13:06:17Z</time>
      </trkpt>
      <trkpt lat="43.0231400" lon="-5.8610120">
        <ele>814.4</ele>
        <time>2021-10-10T13:06:18Z</time>
      </trkpt>
      <trkpt lat="43.0231600" lon="-5.8609770">
        <ele>814.6</ele>
        <time>2021-10-10T13:06:20Z</time>
      </trkpt>
      <trkpt lat="43.0231810" lon="-5.8609350">
        <ele>814.8</ele>
        <time>2021-10-10T13:06:22Z</time>
      </trkpt>
      <trkpt lat="43.0232000" lon="-5.8608970">
        <ele>814.8</ele>
        <time>2021-10-10T13:06:24Z</time>
      </trkpt>
      <trkpt lat="43.0232070" lon="-5.8608800">
        <ele>814.8</ele>
        <time>2021-10-10T13:06:25Z</time>
      </trkpt>
      <trkpt lat="43.0232210" lon="-5.8608460">
        <ele>815.2</ele>
        <time>2021-10-10T13:06:27Z</time>
      </trkpt>
      <trkpt lat="43.0232330" lon="-5.8608020">
        <ele>815.4</ele>
        <time>2021-10-10T13:06:29Z</time>
      </trkpt>
      <trkpt lat="43.0232400" lon="-5.8607790">
        <ele>815.4</ele>
        <time>2021-10-10T13:06:30Z</time>
      </trkpt>
      <trkpt lat="43.0232450" lon="-5.8607570">
        <ele>815.6</ele>
        <time>2021-10-10T13:06:31Z</time>
      </trkpt>
      <trkpt lat="43.0232620" lon="-5.8607170">
        <ele>816.0</ele>
        <time>2021-10-10T13:06:33Z</time>
      </trkpt>
      <trkpt lat="43.0232830" lon="-5.8606820">
        <ele>816.2</ele>
        <time>2021-10-10T13:06:35Z</time>
      </trkpt>
      <trkpt lat="43.0233000" lon="-5.8606490">
        <ele>816.6</ele>
        <time>2021-10-10T13:06:37Z</time>
      </trkpt>
      <trkpt lat="43.0233090" lon="-5.8606310">
        <ele>816.6</ele>
        <time>2021-10-10T13:06:38Z</time>
      </trkpt>
      <trkpt lat="43.0233160" lon="-5.8606130">
        <ele>816.8</ele>
        <time>2021-10-10T13:06:39Z</time>
      </trkpt>
      <trkpt lat="43.0233310" lon="-5.8605740">
        <ele>817.4</ele>
        <time>2021-10-10T13:06:42Z</time>
      </trkpt>
      <trkpt lat="43.0233440" lon="-5.8605630">
        <ele>817.6</ele>
        <time>2021-10-10T13:06:43Z</time>
      </trkpt>
      <trkpt lat="43.0233620" lon="-5.8605230">
        <ele>817.8</ele>
        <time>2021-10-10T13:06:45Z</time>
      </trkpt>
      <trkpt lat="43.0233780" lon="-5.8604800">
        <ele>818.2</ele>
        <time>2021-10-10T13:06:47Z</time>
      </trkpt>
      <trkpt lat="43.0233880" lon="-5.8604300">
        <ele>818.6</ele>
        <time>2021-10-10T13:06:49Z</time>
      </trkpt>
      <trkpt lat="43.0233890" lon="-5.8604060">
        <ele>818.6</ele>
        <time>2021-10-10T13:06:50Z</time>
      </trkpt>
      <trkpt lat="43.0233910" lon="-5.8603820">
        <ele>818.8</ele>
        <time>2021-10-10T13:06:51Z</time>
      </trkpt>
      <trkpt lat="43.0233910" lon="-5.8603340">
        <ele>819.0</ele>
        <time>2021-10-10T13:06:53Z</time>
      </trkpt>
      <trkpt lat="43.0233910" lon="-5.8602600">
        <ele>819.2</ele>
        <time>2021-10-10T13:06:56Z</time>
      </trkpt>
      <trkpt lat="43.0233950" lon="-5.8602340">
        <ele>819.4</ele>
        <time>2021-10-10T13:06:57Z</time>
      </trkpt>
      <trkpt lat="43.0234040" lon="-5.8601520">
        <ele>819.6</ele>
        <time>2021-10-10T13:07:00Z</time>
      </trkpt>
      <trkpt lat="43.0234050" lon="-5.8601250">
        <ele>819.8</ele>
        <time>2021-10-10T13:07:01Z</time>
      </trkpt>
      <trkpt lat="43.0234130" lon="-5.8600770">
        <ele>820.0</ele>
        <time>2021-10-10T13:07:03Z</time>
      </trkpt>
      <trkpt lat="43.0234310" lon="-5.8600370">
        <ele>820.2</ele>
        <time>2021-10-10T13:07:05Z</time>
      </trkpt>
      <trkpt lat="43.0234470" lon="-5.8600220">
        <ele>820.4</ele>
        <time>2021-10-10T13:07:06Z</time>
      </trkpt>
      <trkpt lat="43.0235230" lon="-5.8599980">
        <ele>820.8</ele>
        <time>2021-10-10T13:07:10Z</time>
      </trkpt>
      <trkpt lat="43.0235410" lon="-5.8600050">
        <ele>821.0</ele>
        <time>2021-10-10T13:07:11Z</time>
      </trkpt>
      <trkpt lat="43.0235600" lon="-5.8600100">
        <ele>821.2</ele>
        <time>2021-10-10T13:07:12Z</time>
      </trkpt>
      <trkpt lat="43.0235930" lon="-5.8600320">
        <ele>821.4</ele>
        <time>2021-10-10T13:07:14Z</time>
      </trkpt>
      <trkpt lat="43.0236270" lon="-5.8600840">
        <ele>821.8</ele>
        <time>2021-10-10T13:07:17Z</time>
      </trkpt>
      <trkpt lat="43.0236360" lon="-5.8601060">
        <ele>821.8</ele>
        <time>2021-10-10T13:07:18Z</time>
      </trkpt>
      <trkpt lat="43.0236500" lon="-5.8601500">
        <ele>822.0</ele>
        <time>2021-10-10T13:07:20Z</time>
      </trkpt>
      <trkpt lat="43.0236580" lon="-5.8602020">
        <ele>822.2</ele>
        <time>2021-10-10T13:07:22Z</time>
      </trkpt>
      <trkpt lat="43.0236650" lon="-5.8602460">
        <ele>822.6</ele>
        <time>2021-10-10T13:07:24Z</time>
      </trkpt>
      <trkpt lat="43.0236700" lon="-5.8602980">
        <ele>822.8</ele>
        <time>2021-10-10T13:07:26Z</time>
      </trkpt>
      <trkpt lat="43.0236710" lon="-5.8603230">
        <ele>823.0</ele>
        <time>2021-10-10T13:07:27Z</time>
      </trkpt>
      <trkpt lat="43.0236680" lon="-5.8603480">
        <ele>823.2</ele>
        <time>2021-10-10T13:07:28Z</time>
      </trkpt>
      <trkpt lat="43.0236620" lon="-5.8604720">
        <ele>823.8</ele>
        <time>2021-10-10T13:07:33Z</time>
      </trkpt>
      <trkpt lat="43.0236600" lon="-5.8604970">
        <ele>824.0</ele>
        <time>2021-10-10T13:07:34Z</time>
      </trkpt>
      <trkpt lat="43.0236560" lon="-5.8605480">
        <ele>824.2</ele>
        <time>2021-10-10T13:07:36Z</time>
      </trkpt>
      <trkpt lat="43.0236460" lon="-5.8605990">
        <ele>824.4</ele>
        <time>2021-10-10T13:07:38Z</time>
      </trkpt>
      <trkpt lat="43.0236390" lon="-5.8606270">
        <ele>824.6</ele>
        <time>2021-10-10T13:07:39Z</time>
      </trkpt>
      <trkpt lat="43.0236290" lon="-5.8606810">
        <ele>825.0</ele>
        <time>2021-10-10T13:07:41Z</time>
      </trkpt>
      <trkpt lat="43.0236200" lon="-5.8607310">
        <ele>825.2</ele>
        <time>2021-10-10T13:07:43Z</time>
      </trkpt>
      <trkpt lat="43.0235800" lon="-5.8608720">
        <ele>825.8</ele>
        <time>2021-10-10T13:07:49Z</time>
      </trkpt>
      <trkpt lat="43.0235710" lon="-5.8609390">
        <ele>826.2</ele>
        <time>2021-10-10T13:07:52Z</time>
      </trkpt>
      <trkpt lat="43.0235380" lon="-5.8610250">
        <ele>826.6</ele>
        <time>2021-10-10T13:07:56Z</time>
      </trkpt>
      <trkpt lat="43.0235310" lon="-5.8610470">
        <ele>826.8</ele>
        <time>2021-10-10T13:07:57Z</time>
      </trkpt>
      <trkpt lat="43.0234950" lon="-5.8611610">
        <ele>827.2</ele>
        <time>2021-10-10T13:08:02Z</time>
      </trkpt>
      <trkpt lat="43.0234870" lon="-5.8611860">
        <ele>827.4</ele>
        <time>2021-10-10T13:08:03Z</time>
      </trkpt>
      <trkpt lat="43.0234650" lon="-5.8612510">
        <ele>827.8</ele>
        <time>2021-10-10T13:08:06Z</time>
      </trkpt>
      <trkpt lat="43.0234460" lon="-5.8612960">
        <ele>828.0</ele>
        <time>2021-10-10T13:08:08Z</time>
      </trkpt>
      <trkpt lat="43.0234370" lon="-5.8613160">
        <ele>828.0</ele>
        <time>2021-10-10T13:08:09Z</time>
      </trkpt>
      <trkpt lat="43.0234230" lon="-5.8613340">
        <ele>828.0</ele>
        <time>2021-10-10T13:08:10Z</time>
      </trkpt>
      <trkpt lat="43.0234110" lon="-5.8613520">
        <ele>828.2</ele>
        <time>2021-10-10T13:08:11Z</time>
      </trkpt>
      <trkpt lat="43.0234000" lon="-5.8613680">
        <ele>828.4</ele>
        <time>2021-10-10T13:08:12Z</time>
      </trkpt>
      <trkpt lat="43.0233560" lon="-5.8614370">
        <ele>828.8</ele>
        <time>2021-10-10T13:08:16Z</time>
      </trkpt>
      <trkpt lat="43.0233290" lon="-5.8614750">
        <ele>829.0</ele>
        <time>2021-10-10T13:08:18Z</time>
      </trkpt>
      <trkpt lat="43.0232910" lon="-5.8615240">
        <ele>829.4</ele>
        <time>2021-10-10T13:08:21Z</time>
      </trkpt>
      <trkpt lat="43.0232780" lon="-5.8615390">
        <ele>829.4</ele>
        <time>2021-10-10T13:08:22Z</time>
      </trkpt>
      <trkpt lat="43.0232380" lon="-5.8615910">
        <ele>829.8</ele>
        <time>2021-10-10T13:08:25Z</time>
      </trkpt>
      <trkpt lat="43.0232140" lon="-5.8616250">
        <ele>830.0</ele>
        <time>2021-10-10T13:08:27Z</time>
      </trkpt>
      <trkpt lat="43.0231940" lon="-5.8616570">
        <ele>830.4</ele>
        <time>2021-10-10T13:08:29Z</time>
      </trkpt>
      <trkpt lat="43.0231690" lon="-5.8616890">
        <ele>830.6</ele>
        <time>2021-10-10T13:08:31Z</time>
      </trkpt>
      <trkpt lat="43.0231150" lon="-5.8617530">
        <ele>831.2</ele>
        <time>2021-10-10T13:08:35Z</time>
      </trkpt>
      <trkpt lat="43.0230790" lon="-5.8618020">
        <ele>831.6</ele>
        <time>2021-10-10T13:08:38Z</time>
      </trkpt>
      <trkpt lat="43.0230120" lon="-5.8618750">
        <ele>832.4</ele>
        <time>2021-10-10T13:08:43Z</time>
      </trkpt>
      <trkpt lat="43.0229980" lon="-5.8618910">
        <ele>832.6</ele>
        <time>2021-10-10T13:08:44Z</time>
      </trkpt>
      <trkpt lat="43.0229860" lon="-5.8619080">
        <ele>832.8</ele>
        <time>2021-10-10T13:08:45Z</time>
      </trkpt>
      <trkpt lat="43.0229210" lon="-5.8619990">
        <ele>833.2</ele>
        <time>2021-10-10T13:08:51Z</time>
      </trkpt>
      <trkpt lat="43.0228970" lon="-5.8620320">
        <ele>833.6</ele>
        <time>2021-10-10T13:08:53Z</time>
      </trkpt>
      <trkpt lat="43.0228850" lon="-5.8620480">
        <ele>833.8</ele>
        <time>2021-10-10T13:08:54Z</time>
      </trkpt>
      <trkpt lat="43.0228730" lon="-5.8620660">
        <ele>834.0</ele>
        <time>2021-10-10T13:08:55Z</time>
      </trkpt>
      <trkpt lat="43.0228620" lon="-5.8620820">
        <ele>834.0</ele>
        <time>2021-10-10T13:08:56Z</time>
      </trkpt>
      <trkpt lat="43.0228510" lon="-5.8620960">
        <ele>834.2</ele>
        <time>2021-10-10T13:08:57Z</time>
      </trkpt>
      <trkpt lat="43.0228390" lon="-5.8621100">
        <ele>834.4</ele>
        <time>2021-10-10T13:08:58Z</time>
      </trkpt>
      <trkpt lat="43.0228280" lon="-5.8621230">
        <ele>834.4</ele>
        <time>2021-10-10T13:08:59Z</time>
      </trkpt>
      <trkpt lat="43.0228060" lon="-5.8621580">
        <ele>834.6</ele>
        <time>2021-10-10T13:09:01Z</time>
      </trkpt>
      <trkpt lat="43.0227660" lon="-5.8622360">
        <ele>835.0</ele>
        <time>2021-10-10T13:09:05Z</time>
      </trkpt>
      <trkpt lat="43.0227580" lon="-5.8622570">
        <ele>835.2</ele>
        <time>2021-10-10T13:09:06Z</time>
      </trkpt>
      <trkpt lat="43.0227490" lon="-5.8622790">
        <ele>835.2</ele>
        <time>2021-10-10T13:09:07Z</time>
      </trkpt>
      <trkpt lat="43.0227380" lon="-5.8623190">
        <ele>835.4</ele>
        <time>2021-10-10T13:09:09Z</time>
      </trkpt>
      <trkpt lat="43.0227150" lon="-5.8623840">
        <ele>835.8</ele>
        <time>2021-10-10T13:09:12Z</time>
      </trkpt>
      <trkpt lat="43.0227080" lon="-5.8624040">
        <ele>835.8</ele>
        <time>2021-10-10T13:09:13Z</time>
      </trkpt>
      <trkpt lat="43.0227010" lon="-5.8624230">
        <ele>836.2</ele>
        <time>2021-10-10T13:09:14Z</time>
      </trkpt>
      <trkpt lat="43.0226950" lon="-5.8624440">
        <ele>836.2</ele>
        <time>2021-10-10T13:09:15Z</time>
      </trkpt>
      <trkpt lat="43.0226900" lon="-5.8624650">
        <ele>836.4</ele>
        <time>2021-10-10T13:09:16Z</time>
      </trkpt>
      <trkpt lat="43.0226740" lon="-5.8625070">
        <ele>836.6</ele>
        <time>2021-10-10T13:09:18Z</time>
      </trkpt>
      <trkpt lat="43.0226640" lon="-5.8625520">
        <ele>836.8</ele>
        <time>2021-10-10T13:09:20Z</time>
      </trkpt>
      <trkpt lat="43.0226290" lon="-5.8626250">
        <ele>837.2</ele>
        <time>2021-10-10T13:09:24Z</time>
      </trkpt>
      <trkpt lat="43.0226040" lon="-5.8626580">
        <ele>837.4</ele>
        <time>2021-10-10T13:09:26Z</time>
      </trkpt>
      <trkpt lat="43.0225920" lon="-5.8626730">
        <ele>837.4</ele>
        <time>2021-10-10T13:09:27Z</time>
      </trkpt>
      <trkpt lat="43.0225700" lon="-5.8627040">
        <ele>837.6</ele>
        <time>2021-10-10T13:09:29Z</time>
      </trkpt>
      <trkpt lat="43.0225530" lon="-5.8627190">
        <ele>837.8</ele>
        <time>2021-10-10T13:09:30Z</time>
      </trkpt>
      <trkpt lat="43.0225190" lon="-5.8627440">
        <ele>838.0</ele>
        <time>2021-10-10T13:09:32Z</time>
      </trkpt>
      <trkpt lat="43.0225040" lon="-5.8627540">
        <ele>838.0</ele>
        <time>2021-10-10T13:09:33Z</time>
      </trkpt>
      <trkpt lat="43.0224900" lon="-5.8627630">
        <ele>838.2</ele>
        <time>2021-10-10T13:09:34Z</time>
      </trkpt>
      <trkpt lat="43.0224740" lon="-5.8627740">
        <ele>838.2</ele>
        <time>2021-10-10T13:09:35Z</time>
      </trkpt>
      <trkpt lat="43.0224240" lon="-5.8628030">
        <ele>838.6</ele>
        <time>2021-10-10T13:09:38Z</time>
      </trkpt>
      <trkpt lat="43.0224080" lon="-5.8628170">
        <ele>838.8</ele>
        <time>2021-10-10T13:09:39Z</time>
      </trkpt>
      <trkpt lat="43.0223940" lon="-5.8628310">
        <ele>838.8</ele>
        <time>2021-10-10T13:09:40Z</time>
      </trkpt>
      <trkpt lat="43.0223540" lon="-5.8628790">
        <ele>839.2</ele>
        <time>2021-10-10T13:09:43Z</time>
      </trkpt>
      <trkpt lat="43.0223450" lon="-5.8629000">
        <ele>839.4</ele>
        <time>2021-10-10T13:09:44Z</time>
      </trkpt>
      <trkpt lat="43.0223350" lon="-5.8629230">
        <ele>839.4</ele>
        <time>2021-10-10T13:09:45Z</time>
      </trkpt>
      <trkpt lat="43.0223250" lon="-5.8629460">
        <ele>839.4</ele>
        <time>2021-10-10T13:09:46Z</time>
      </trkpt>
      <trkpt lat="43.0223160" lon="-5.8629700">
        <ele>839.8</ele>
        <time>2021-10-10T13:09:47Z</time>
      </trkpt>
      <trkpt lat="43.0223130" lon="-5.8629900">
        <ele>840.0</ele>
        <time>2021-10-10T13:09:48Z</time>
      </trkpt>
      <trkpt lat="43.0223110" lon="-5.8630630">
        <ele>840.4</ele>
        <time>2021-10-10T13:09:51Z</time>
      </trkpt>
      <trkpt lat="43.0223230" lon="-5.8630990">
        <ele>840.8</ele>
        <time>2021-10-10T13:09:53Z</time>
      </trkpt>
      <trkpt lat="43.0223290" lon="-5.8631200">
        <ele>841.0</ele>
        <time>2021-10-10T13:09:54Z</time>
      </trkpt>
      <trkpt lat="43.0223350" lon="-5.8631410">
        <ele>841.0</ele>
        <time>2021-10-10T13:09:55Z</time>
      </trkpt>
      <trkpt lat="43.0223420" lon="-5.8631660">
        <ele>841.2</ele>
        <time>2021-10-10T13:09:56Z</time>
      </trkpt>
      <trkpt lat="43.0223480" lon="-5.8631890">
        <ele>841.6</ele>
        <time>2021-10-10T13:09:57Z</time>
      </trkpt>
      <trkpt lat="43.0223570" lon="-5.8632070">
        <ele>841.6</ele>
        <time>2021-10-10T13:09:58Z</time>
      </trkpt>
      <trkpt lat="43.0223720" lon="-5.8632470">
        <ele>842.0</ele>
        <time>2021-10-10T13:10:00Z</time>
      </trkpt>
      <trkpt lat="43.0223910" lon="-5.8632900">
        <ele>842.2</ele>
        <time>2021-10-10T13:10:02Z</time>
      </trkpt>
      <trkpt lat="43.0223980" lon="-5.8633070">
        <ele>842.4</ele>
        <time>2021-10-10T13:10:03Z</time>
      </trkpt>
      <trkpt lat="43.0224230" lon="-5.8633840">
        <ele>842.8</ele>
        <time>2021-10-10T13:10:06Z</time>
      </trkpt>
      <trkpt lat="43.0224310" lon="-5.8634020">
        <ele>842.8</ele>
        <time>2021-10-10T13:10:07Z</time>
      </trkpt>
      <trkpt lat="43.0224650" lon="-5.8634560">
        <ele>843.0</ele>
        <time>2021-10-10T13:10:10Z</time>
      </trkpt>
      <trkpt lat="43.0224760" lon="-5.8634730">
        <ele>843.2</ele>
        <time>2021-10-10T13:10:11Z</time>
      </trkpt>
      <trkpt lat="43.0224960" lon="-5.8635070">
        <ele>843.4</ele>
        <time>2021-10-10T13:10:13Z</time>
      </trkpt>
      <trkpt lat="43.0225200" lon="-5.8635380">
        <ele>843.6</ele>
        <time>2021-10-10T13:10:15Z</time>
      </trkpt>
      <trkpt lat="43.0225460" lon="-5.8635680">
        <ele>843.8</ele>
        <time>2021-10-10T13:10:17Z</time>
      </trkpt>
      <trkpt lat="43.0225600" lon="-5.8635840">
        <ele>844.0</ele>
        <time>2021-10-10T13:10:18Z</time>
      </trkpt>
      <trkpt lat="43.0225710" lon="-5.8635940">
        <ele>844.0</ele>
        <time>2021-10-10T13:10:19Z</time>
      </trkpt>
      <trkpt lat="43.0225830" lon="-5.8636120">
        <ele>844.2</ele>
        <time>2021-10-10T13:10:20Z</time>
      </trkpt>
      <trkpt lat="43.0225930" lon="-5.8636230">
        <ele>844.4</ele>
        <time>2021-10-10T13:10:21Z</time>
      </trkpt>
      <trkpt lat="43.0226280" lon="-5.8636810">
        <ele>844.6</ele>
        <time>2021-10-10T13:10:24Z</time>
      </trkpt>
      <trkpt lat="43.0226430" lon="-5.8637110">
        <ele>845.0</ele>
        <time>2021-10-10T13:10:26Z</time>
      </trkpt>
      <trkpt lat="43.0226530" lon="-5.8637320">
        <ele>845.0</ele>
        <time>2021-10-10T13:10:27Z</time>
      </trkpt>
      <trkpt lat="43.0226780" lon="-5.8637770">
        <ele>845.4</ele>
        <time>2021-10-10T13:10:29Z</time>
      </trkpt>
      <trkpt lat="43.0227000" lon="-5.8638160">
        <ele>845.6</ele>
        <time>2021-10-10T13:10:31Z</time>
      </trkpt>
      <trkpt lat="43.0227180" lon="-5.8638600">
        <ele>846.0</ele>
        <time>2021-10-10T13:10:33Z</time>
      </trkpt>
      <trkpt lat="43.0227400" lon="-5.8639050">
        <ele>846.2</ele>
        <time>2021-10-10T13:10:35Z</time>
      </trkpt>
      <trkpt lat="43.0227610" lon="-5.8639500">
        <ele>846.4</ele>
        <time>2021-10-10T13:10:37Z</time>
      </trkpt>
      <trkpt lat="43.0228020" lon="-5.8640490">
        <ele>846.8</ele>
        <time>2021-10-10T13:10:41Z</time>
      </trkpt>
      <trkpt lat="43.0228480" lon="-5.8641860">
        <ele>847.2</ele>
        <time>2021-10-10T13:10:46Z</time>
      </trkpt>
      <trkpt lat="43.0228570" lon="-5.8642150">
        <ele>847.4</ele>
        <time>2021-10-10T13:10:47Z</time>
      </trkpt>
      <trkpt lat="43.0228680" lon="-5.8642440">
        <ele>847.4</ele>
        <time>2021-10-10T13:10:48Z</time>
      </trkpt>
      <trkpt lat="43.0228890" lon="-5.8642980">
        <ele>847.6</ele>
        <time>2021-10-10T13:10:50Z</time>
      </trkpt>
      <trkpt lat="43.0228990" lon="-5.8643260">
        <ele>847.6</ele>
        <time>2021-10-10T13:10:51Z</time>
      </trkpt>
      <trkpt lat="43.0229100" lon="-5.8643560">
        <ele>847.6</ele>
        <time>2021-10-10T13:10:52Z</time>
      </trkpt>
      <trkpt lat="43.0229180" lon="-5.8643860">
        <ele>847.6</ele>
        <time>2021-10-10T13:10:53Z</time>
      </trkpt>
      <trkpt lat="43.0229260" lon="-5.8644160">
        <ele>847.8</ele>
        <time>2021-10-10T13:10:54Z</time>
      </trkpt>
      <trkpt lat="43.0229330" lon="-5.8644440">
        <ele>847.8</ele>
        <time>2021-10-10T13:10:55Z</time>
      </trkpt>
      <trkpt lat="43.0229430" lon="-5.8644700">
        <ele>847.8</ele>
        <time>2021-10-10T13:10:56Z</time>
      </trkpt>
      <trkpt lat="43.0230010" lon="-5.8646530">
        <ele>848.2</ele>
        <time>2021-10-10T13:11:02Z</time>
      </trkpt>
      <trkpt lat="43.0230270" lon="-5.8647480">
        <ele>848.2</ele>
        <time>2021-10-10T13:11:05Z</time>
      </trkpt>
      <trkpt lat="43.0230440" lon="-5.8648100">
        <ele>848.4</ele>
        <time>2021-10-10T13:11:07Z</time>
      </trkpt>
      <trkpt lat="43.0230500" lon="-5.8648410">
        <ele>848.4</ele>
        <time>2021-10-10T13:11:08Z</time>
      </trkpt>
      <trkpt lat="43.0230540" lon="-5.8648740">
        <ele>848.6</ele>
        <time>2021-10-10T13:11:09Z</time>
      </trkpt>
      <trkpt lat="43.0230570" lon="-5.8649510">
        <ele>848.6</ele>
        <time>2021-10-10T13:11:11Z</time>
      </trkpt>
      <trkpt lat="43.0230580" lon="-5.8649890">
        <ele>848.8</ele>
        <time>2021-10-10T13:11:12Z</time>
      </trkpt>
      <trkpt lat="43.0230610" lon="-5.8650620">
        <ele>848.8</ele>
        <time>2021-10-10T13:11:14Z</time>
      </trkpt>
      <trkpt lat="43.0230670" lon="-5.8651380">
        <ele>849.0</ele>
        <time>2021-10-10T13:11:16Z</time>
      </trkpt>
      <trkpt lat="43.0230680" lon="-5.8652600">
        <ele>849.2</ele>
        <time>2021-10-10T13:11:19Z</time>
      </trkpt>
      <trkpt lat="43.0230660" lon="-5.8653030">
        <ele>849.4</ele>
        <time>2021-10-10T13:11:20Z</time>
      </trkpt>
      <trkpt lat="43.0230640" lon="-5.8653420">
        <ele>849.4</ele>
        <time>2021-10-10T13:11:21Z</time>
      </trkpt>
      <trkpt lat="43.0230520" lon="-5.8654780">
        <ele>849.6</ele>
        <time>2021-10-10T13:11:24Z</time>
      </trkpt>
      <trkpt lat="43.0229870" lon="-5.8659510">
        <ele>850.2</ele>
        <time>2021-10-10T13:11:35Z</time>
      </trkpt>
      <trkpt lat="43.0229610" lon="-5.8661670">
        <ele>850.6</ele>
        <time>2021-10-10T13:11:40Z</time>
      </trkpt>
      <trkpt lat="43.0229540" lon="-5.8662930">
        <ele>850.8</ele>
        <time>2021-10-10T13:11:43Z</time>
      </trkpt>
      <trkpt lat="43.0229490" lon="-5.8663790">
        <ele>850.8</ele>
        <time>2021-10-10T13:11:45Z</time>
      </trkpt>
      <trkpt lat="43.0229490" lon="-5.8665380">
        <ele>850.8</ele>
        <time>2021-10-10T13:11:49Z</time>
      </trkpt>
      <trkpt lat="43.0229610" lon="-5.8666180">
        <ele>851.2</ele>
        <time>2021-10-10T13:11:51Z</time>
      </trkpt>
      <trkpt lat="43.0229660" lon="-5.8666550">
        <ele>851.2</ele>
        <time>2021-10-10T13:11:52Z</time>
      </trkpt>
      <trkpt lat="43.0229780" lon="-5.8667670">
        <ele>851.4</ele>
        <time>2021-10-10T13:11:55Z</time>
      </trkpt>
      <trkpt lat="43.0229880" lon="-5.8668960">
        <ele>851.6</ele>
        <time>2021-10-10T13:11:58Z</time>
      </trkpt>
      <trkpt lat="43.0229930" lon="-5.8669500">
        <ele>851.6</ele>
        <time>2021-10-10T13:11:59Z</time>
      </trkpt>
      <trkpt lat="43.0230100" lon="-5.8670690">
        <ele>851.8</ele>
        <time>2021-10-10T13:12:02Z</time>
      </trkpt>
      <trkpt lat="43.0230310" lon="-5.8671370">
        <ele>851.8</ele>
        <time>2021-10-10T13:12:04Z</time>
      </trkpt>
      <trkpt lat="43.0230430" lon="-5.8671730">
        <ele>852.0</ele>
        <time>2021-10-10T13:12:05Z</time>
      </trkpt>
      <trkpt lat="43.0230760" lon="-5.8673320">
        <ele>852.6</ele>
        <time>2021-10-10T13:12:09Z</time>
      </trkpt>
      <trkpt lat="43.0230840" lon="-5.8674190">
        <ele>852.8</ele>
        <time>2021-10-10T13:12:11Z</time>
      </trkpt>
      <trkpt lat="43.0230360" lon="-5.8677210">
        <ele>853.2</ele>
        <time>2021-10-10T13:12:18Z</time>
      </trkpt>
      <trkpt lat="43.0229530" lon="-5.8678430">
        <ele>853.6</ele>
        <time>2021-10-10T13:12:22Z</time>
      </trkpt>
      <trkpt lat="43.0228900" lon="-5.8678950">
        <ele>853.8</ele>
        <time>2021-10-10T13:12:24Z</time>
      </trkpt>
      <trkpt lat="43.0226880" lon="-5.8679330">
        <ele>854.0</ele>
        <time>2021-10-10T13:12:30Z</time>
      </trkpt>
      <trkpt lat="43.0226510" lon="-5.8679320">
        <ele>854.0</ele>
        <time>2021-10-10T13:12:31Z</time>
      </trkpt>
      <trkpt lat="43.0225410" lon="-5.8679580">
        <ele>854.2</ele>
        <time>2021-10-10T13:12:34Z</time>
      </trkpt>
      <trkpt lat="43.0224920" lon="-5.8680220">
        <ele>854.4</ele>
        <time>2021-10-10T13:12:36Z</time>
      </trkpt>
      <trkpt lat="43.0224630" lon="-5.8681190">
        <ele>854.6</ele>
        <time>2021-10-10T13:12:38Z</time>
      </trkpt>
      <trkpt lat="43.0224360" lon="-5.8682370">
        <ele>854.8</ele>
        <time>2021-10-10T13:12:41Z</time>
      </trkpt>
      <trkpt lat="43.0223830" lon="-5.8684290">
        <ele>855.2</ele>
        <time>2021-10-10T13:12:46Z</time>
      </trkpt>
      <trkpt lat="43.0223500" lon="-5.8685410">
        <ele>855.8</ele>
        <time>2021-10-10T13:12:49Z</time>
      </trkpt>
      <trkpt lat="43.0223090" lon="-5.8686660">
        <ele>856.0</ele>
        <time>2021-10-10T13:12:52Z</time>
      </trkpt>
      <trkpt lat="43.0222960" lon="-5.8687010">
        <ele>856.0</ele>
        <time>2021-10-10T13:12:53Z</time>
      </trkpt>
      <trkpt lat="43.0222830" lon="-5.8687470">
        <ele>856.2</ele>
        <time>2021-10-10T13:12:54Z</time>
      </trkpt>
      <trkpt lat="43.0222520" lon="-5.8688320">
        <ele>856.2</ele>
        <time>2021-10-10T13:12:56Z</time>
      </trkpt>
      <trkpt lat="43.0222250" lon="-5.8689160">
        <ele>856.2</ele>
        <time>2021-10-10T13:12:58Z</time>
      </trkpt>
      <trkpt lat="43.0221980" lon="-5.8689990">
        <ele>856.4</ele>
        <time>2021-10-10T13:13:00Z</time>
      </trkpt>
      <trkpt lat="43.0221680" lon="-5.8690950">
        <ele>856.4</ele>
        <time>2021-10-10T13:13:02Z</time>
      </trkpt>
      <trkpt lat="43.0221590" lon="-5.8691310">
        <ele>856.6</ele>
        <time>2021-10-10T13:13:03Z</time>
      </trkpt>
      <trkpt lat="43.0221330" lon="-5.8692150">
        <ele>856.6</ele>
        <time>2021-10-10T13:13:05Z</time>
      </trkpt>
      <trkpt lat="43.0220810" lon="-5.8693820">
        <ele>857.0</ele>
        <time>2021-10-10T13:13:09Z</time>
      </trkpt>
      <trkpt lat="43.0220460" lon="-5.8695020">
        <ele>857.0</ele>
        <time>2021-10-10T13:13:12Z</time>
      </trkpt>
      <trkpt lat="43.0220010" lon="-5.8696190">
        <ele>857.2</ele>
        <time>2021-10-10T13:13:15Z</time>
      </trkpt>
      <trkpt lat="43.0219090" lon="-5.8697550">
        <ele>857.4</ele>
        <time>2021-10-10T13:13:19Z</time>
      </trkpt>
      <trkpt lat="43.0218490" lon="-5.8698020">
        <ele>857.6</ele>
        <time>2021-10-10T13:13:21Z</time>
      </trkpt>
      <trkpt lat="43.0217520" lon="-5.8698630">
        <ele>857.8</ele>
        <time>2021-10-10T13:13:24Z</time>
      </trkpt>
      <trkpt lat="43.0216910" lon="-5.8699090">
        <ele>858.0</ele>
        <time>2021-10-10T13:13:26Z</time>
      </trkpt>
      <trkpt lat="43.0216630" lon="-5.8699420">
        <ele>858.0</ele>
        <time>2021-10-10T13:13:27Z</time>
      </trkpt>
      <trkpt lat="43.0216080" lon="-5.8700680">
        <ele>858.2</ele>
        <time>2021-10-10T13:13:30Z</time>
      </trkpt>
      <trkpt lat="43.0215590" lon="-5.8702870">
        <ele>858.2</ele>
        <time>2021-10-10T13:13:35Z</time>
      </trkpt>
      <trkpt lat="43.0215200" lon="-5.8704550">
        <ele>858.4</ele>
        <time>2021-10-10T13:13:39Z</time>
      </trkpt>
      <trkpt lat="43.0214640" lon="-5.8707500">
        <ele>858.8</ele>
        <time>2021-10-10T13:13:46Z</time>
      </trkpt>
      <trkpt lat="43.0214350" lon="-5.8708350">
        <ele>859.0</ele>
        <time>2021-10-10T13:13:48Z</time>
      </trkpt>
      <trkpt lat="43.0214160" lon="-5.8709250">
        <ele>859.2</ele>
        <time>2021-10-10T13:13:50Z</time>
      </trkpt>
      <trkpt lat="43.0213820" lon="-5.8710900">
        <ele>859.6</ele>
        <time>2021-10-10T13:13:54Z</time>
      </trkpt>
      <trkpt lat="43.0213770" lon="-5.8711380">
        <ele>859.6</ele>
        <time>2021-10-10T13:13:55Z</time>
      </trkpt>
      <trkpt lat="43.0213700" lon="-5.8711840">
        <ele>859.6</ele>
        <time>2021-10-10T13:13:56Z</time>
      </trkpt>
      <trkpt lat="43.0213760" lon="-5.8713260">
        <ele>859.8</ele>
        <time>2021-10-10T13:13:59Z</time>
      </trkpt>
      <trkpt lat="43.0213910" lon="-5.8714130">
        <ele>859.8</ele>
        <time>2021-10-10T13:14:01Z</time>
      </trkpt>
      <trkpt lat="43.0214440" lon="-5.8715630">
        <ele>860.2</ele>
        <time>2021-10-10T13:14:05Z</time>
      </trkpt>
      <trkpt lat="43.0214750" lon="-5.8716320">
        <ele>860.4</ele>
        <time>2021-10-10T13:14:07Z</time>
      </trkpt>
      <trkpt lat="43.0215310" lon="-5.8717800">
        <ele>860.6</ele>
        <time>2021-10-10T13:14:11Z</time>
      </trkpt>
      <trkpt lat="43.0215610" lon="-5.8718600">
        <ele>860.8</ele>
        <time>2021-10-10T13:14:13Z</time>
      </trkpt>
      <trkpt lat="43.0216250" lon="-5.8720580">
        <ele>861.2</ele>
        <time>2021-10-10T13:14:18Z</time>
      </trkpt>
      <trkpt lat="43.0216540" lon="-5.8721920">
        <ele>861.2</ele>
        <time>2021-10-10T13:14:21Z</time>
      </trkpt>
      <trkpt lat="43.0216600" lon="-5.8722330">
        <ele>861.2</ele>
        <time>2021-10-10T13:14:22Z</time>
      </trkpt>
      <trkpt lat="43.0216890" lon="-5.8725470">
        <ele>861.8</ele>
        <time>2021-10-10T13:14:30Z</time>
      </trkpt>
      <trkpt lat="43.0217200" lon="-5.8726400">
        <ele>862.0</ele>
        <time>2021-10-10T13:14:33Z</time>
      </trkpt>
      <trkpt lat="43.0217540" lon="-5.8726940">
        <ele>862.4</ele>
        <time>2021-10-10T13:14:35Z</time>
      </trkpt>
      <trkpt lat="43.0217710" lon="-5.8727180">
        <ele>862.4</ele>
        <time>2021-10-10T13:14:36Z</time>
      </trkpt>
      <trkpt lat="43.0218520" lon="-5.8728220">
        <ele>863.2</ele>
        <time>2021-10-10T13:14:41Z</time>
      </trkpt>
      <trkpt lat="43.0218690" lon="-5.8728420">
        <ele>863.6</ele>
        <time>2021-10-10T13:14:42Z</time>
      </trkpt>
      <trkpt lat="43.0219200" lon="-5.8728960">
        <ele>863.8</ele>
        <time>2021-10-10T13:14:45Z</time>
      </trkpt>
      <trkpt lat="43.0220440" lon="-5.8729200">
        <ele>864.8</ele>
        <time>2021-10-10T13:14:51Z</time>
      </trkpt>
      <trkpt lat="43.0222470" lon="-5.8728980">
        <ele>865.8</ele>
        <time>2021-10-10T13:15:01Z</time>
      </trkpt>
      <trkpt lat="43.0222660" lon="-5.8728980">
        <ele>866.0</ele>
        <time>2021-10-10T13:15:02Z</time>
      </trkpt>
      <trkpt lat="43.0224150" lon="-5.8729630">
        <ele>866.8</ele>
        <time>2021-10-10T13:15:09Z</time>
      </trkpt>
      <trkpt lat="43.0224320" lon="-5.8729720">
        <ele>867.0</ele>
        <time>2021-10-10T13:15:10Z</time>
      </trkpt>
      <trkpt lat="43.0225460" lon="-5.8730710">
        <ele>867.6</ele>
        <time>2021-10-10T13:15:16Z</time>
      </trkpt>
      <trkpt lat="43.0225740" lon="-5.8731090">
        <ele>868.0</ele>
        <time>2021-10-10T13:15:18Z</time>
      </trkpt>
      <trkpt lat="43.0226280" lon="-5.8731990">
        <ele>868.2</ele>
        <time>2021-10-10T13:15:22Z</time>
      </trkpt>
      <trkpt lat="43.0226730" lon="-5.8732920">
        <ele>869.0</ele>
        <time>2021-10-10T13:15:26Z</time>
      </trkpt>
      <trkpt lat="43.0227020" lon="-5.8733650">
        <ele>869.4</ele>
        <time>2021-10-10T13:15:29Z</time>
      </trkpt>
      <trkpt lat="43.0227360" lon="-5.8734410">
        <ele>869.8</ele>
        <time>2021-10-10T13:15:32Z</time>
      </trkpt>
      <trkpt lat="43.0227560" lon="-5.8734870">
        <ele>870.0</ele>
        <time>2021-10-10T13:15:34Z</time>
      </trkpt>
      <trkpt lat="43.0227780" lon="-5.8735300">
        <ele>870.2</ele>
        <time>2021-10-10T13:15:36Z</time>
      </trkpt>
      <trkpt lat="43.0228110" lon="-5.8735950">
        <ele>870.4</ele>
        <time>2021-10-10T13:15:39Z</time>
      </trkpt>
      <trkpt lat="43.0228440" lon="-5.8737180">
        <ele>871.2</ele>
        <time>2021-10-10T13:15:44Z</time>
      </trkpt>
      <trkpt lat="43.0228570" lon="-5.8737680">
        <ele>871.2</ele>
        <time>2021-10-10T13:15:46Z</time>
      </trkpt>
      <trkpt lat="43.0229000" lon="-5.8739660">
        <ele>872.0</ele>
        <time>2021-10-10T13:15:53Z</time>
      </trkpt>
      <trkpt lat="43.0229050" lon="-5.8739920">
        <ele>872.2</ele>
        <time>2021-10-10T13:15:54Z</time>
      </trkpt>
      <trkpt lat="43.0228670" lon="-5.8741740">
        <ele>873.0</ele>
        <time>2021-10-10T13:16:01Z</time>
      </trkpt>
      <trkpt lat="43.0228590" lon="-5.8742040">
        <ele>873.4</ele>
        <time>2021-10-10T13:16:02Z</time>
      </trkpt>
      <trkpt lat="43.0228180" lon="-5.8743060">
        <ele>873.8</ele>
        <time>2021-10-10T13:16:06Z</time>
      </trkpt>
      <trkpt lat="43.0227890" lon="-5.8743500">
        <ele>874.2</ele>
        <time>2021-10-10T13:16:08Z</time>
      </trkpt>
      <trkpt lat="43.0227510" lon="-5.8744120">
        <ele>874.6</ele>
        <time>2021-10-10T13:16:11Z</time>
      </trkpt>
      <trkpt lat="43.0226520" lon="-5.8745680">
        <ele>875.2</ele>
        <time>2021-10-10T13:16:18Z</time>
      </trkpt>
      <trkpt lat="43.0226300" lon="-5.8746090">
        <ele>875.4</ele>
        <time>2021-10-10T13:16:20Z</time>
      </trkpt>
      <trkpt lat="43.0225870" lon="-5.8746930">
        <ele>876.2</ele>
        <time>2021-10-10T13:16:24Z</time>
      </trkpt>
      <trkpt lat="43.0225380" lon="-5.8747700">
        <ele>876.6</ele>
        <time>2021-10-10T13:16:28Z</time>
      </trkpt>
      <trkpt lat="43.0225250" lon="-5.8747860">
        <ele>876.8</ele>
        <time>2021-10-10T13:16:29Z</time>
      </trkpt>
      <trkpt lat="43.0224800" lon="-5.8748500">
        <ele>877.4</ele>
        <time>2021-10-10T13:16:33Z</time>
      </trkpt>
      <trkpt lat="43.0224550" lon="-5.8748890">
        <ele>877.6</ele>
        <time>2021-10-10T13:16:35Z</time>
      </trkpt>
      <trkpt lat="43.0224450" lon="-5.8749090">
        <ele>877.6</ele>
        <time>2021-10-10T13:16:36Z</time>
      </trkpt>
      <trkpt lat="43.0223950" lon="-5.8749730">
        <ele>878.0</ele>
        <time>2021-10-10T13:16:40Z</time>
      </trkpt>
      <trkpt lat="43.0223420" lon="-5.8750370">
        <ele>878.4</ele>
        <time>2021-10-10T13:16:44Z</time>
      </trkpt>
      <trkpt lat="43.0223260" lon="-5.8750500">
        <ele>878.6</ele>
        <time>2021-10-10T13:16:45Z</time>
      </trkpt>
      <trkpt lat="43.0223000" lon="-5.8750850">
        <ele>878.8</ele>
        <time>2021-10-10T13:16:47Z</time>
      </trkpt>
      <trkpt lat="43.0222140" lon="-5.8751890">
        <ele>879.4</ele>
        <time>2021-10-10T13:16:53Z</time>
      </trkpt>
      <trkpt lat="43.0221900" lon="-5.8752300">
        <ele>879.6</ele>
        <time>2021-10-10T13:16:55Z</time>
      </trkpt>
      <trkpt lat="43.0221200" lon="-5.8753690">
        <ele>880.2</ele>
        <time>2021-10-10T13:17:01Z</time>
      </trkpt>
      <trkpt lat="43.0220730" lon="-5.8754450">
        <ele>880.6</ele>
        <time>2021-10-10T13:17:05Z</time>
      </trkpt>
      <trkpt lat="43.0220620" lon="-5.8754680">
        <ele>880.6</ele>
        <time>2021-10-10T13:17:06Z</time>
      </trkpt>
      <trkpt lat="43.0220180" lon="-5.8756120">
        <ele>881.4</ele>
        <time>2021-10-10T13:17:12Z</time>
      </trkpt>
      <trkpt lat="43.0220120" lon="-5.8756350">
        <ele>881.6</ele>
        <time>2021-10-10T13:17:13Z</time>
      </trkpt>
      <trkpt lat="43.0219740" lon="-5.8758120">
        <ele>882.4</ele>
        <time>2021-10-10T13:17:20Z</time>
      </trkpt>
      <trkpt lat="43.0219670" lon="-5.8758330">
        <ele>882.6</ele>
        <time>2021-10-10T13:17:21Z</time>
      </trkpt>
      <trkpt lat="43.0219620" lon="-5.8758510">
        <ele>882.6</ele>
        <time>2021-10-10T13:17:22Z</time>
      </trkpt>
      <trkpt lat="43.0219580" lon="-5.8758900">
        <ele>883.0</ele>
        <time>2021-10-10T13:17:24Z</time>
      </trkpt>
      <trkpt lat="43.0219520" lon="-5.8759300">
        <ele>883.2</ele>
        <time>2021-10-10T13:17:26Z</time>
      </trkpt>
      <trkpt lat="43.0219500" lon="-5.8759770">
        <ele>883.4</ele>
        <time>2021-10-10T13:17:28Z</time>
      </trkpt>
      <trkpt lat="43.0219460" lon="-5.8760280">
        <ele>883.6</ele>
        <time>2021-10-10T13:17:30Z</time>
      </trkpt>
      <trkpt lat="43.0219250" lon="-5.8761670">
        <ele>884.2</ele>
        <time>2021-10-10T13:17:36Z</time>
      </trkpt>
      <trkpt lat="43.0219240" lon="-5.8761900">
        <ele>884.4</ele>
        <time>2021-10-10T13:17:37Z</time>
      </trkpt>
      <trkpt lat="43.0219100" lon="-5.8762680">
        <ele>884.8</ele>
        <time>2021-10-10T13:17:41Z</time>
      </trkpt>
      <trkpt lat="43.0219040" lon="-5.8762890">
        <ele>884.8</ele>
        <time>2021-10-10T13:17:42Z</time>
      </trkpt>
      <trkpt lat="43.0218900" lon="-5.8763410">
        <ele>885.0</ele>
        <time>2021-10-10T13:17:44Z</time>
      </trkpt>
      <trkpt lat="43.0218900" lon="-5.8763660">
        <ele>885.0</ele>
        <time>2021-10-10T13:17:45Z</time>
      </trkpt>
      <trkpt lat="43.0218920" lon="-5.8763950">
        <ele>885.2</ele>
        <time>2021-10-10T13:17:46Z</time>
      </trkpt>
      <trkpt lat="43.0218930" lon="-5.8764230">
        <ele>885.2</ele>
        <time>2021-10-10T13:17:47Z</time>
      </trkpt>
      <trkpt lat="43.0218910" lon="-5.8764770">
        <ele>885.4</ele>
        <time>2021-10-10T13:17:49Z</time>
      </trkpt>
      <trkpt lat="43.0218880" lon="-5.8764970">
        <ele>885.6</ele>
        <time>2021-10-10T13:17:50Z</time>
      </trkpt>
      <trkpt lat="43.0218810" lon="-5.8765530">
        <ele>885.8</ele>
        <time>2021-10-10T13:17:52Z</time>
      </trkpt>
      <trkpt lat="43.0218780" lon="-5.8765820">
        <ele>885.8</ele>
        <time>2021-10-10T13:17:53Z</time>
      </trkpt>
      <trkpt lat="43.0218730" lon="-5.8766330">
        <ele>886.0</ele>
        <time>2021-10-10T13:17:55Z</time>
      </trkpt>
      <trkpt lat="43.0218710" lon="-5.8766600">
        <ele>886.0</ele>
        <time>2021-10-10T13:17:56Z</time>
      </trkpt>
      <trkpt lat="43.0218680" lon="-5.8766840">
        <ele>886.2</ele>
        <time>2021-10-10T13:17:57Z</time>
      </trkpt>
      <trkpt lat="43.0218660" lon="-5.8767320">
        <ele>886.2</ele>
        <time>2021-10-10T13:17:59Z</time>
      </trkpt>
      <trkpt lat="43.0218640" lon="-5.8767830">
        <ele>886.6</ele>
        <time>2021-10-10T13:18:01Z</time>
      </trkpt>
      <trkpt lat="43.0218610" lon="-5.8768290">
        <ele>886.8</ele>
        <time>2021-10-10T13:18:03Z</time>
      </trkpt>
      <trkpt lat="43.0218560" lon="-5.8768570">
        <ele>886.8</ele>
        <time>2021-10-10T13:18:04Z</time>
      </trkpt>
      <trkpt lat="43.0218440" lon="-5.8769630">
        <ele>887.2</ele>
        <time>2021-10-10T13:18:09Z</time>
      </trkpt>
      <trkpt lat="43.0218240" lon="-5.8770620">
        <ele>887.6</ele>
        <time>2021-10-10T13:18:13Z</time>
      </trkpt>
      <trkpt lat="43.0218190" lon="-5.8770860">
        <ele>887.8</ele>
        <time>2021-10-10T13:18:14Z</time>
      </trkpt>
      <trkpt lat="43.0218060" lon="-5.8771340">
        <ele>888.0</ele>
        <time>2021-10-10T13:18:16Z</time>
      </trkpt>
      <trkpt lat="43.0217330" lon="-5.8773000">
        <ele>888.8</ele>
        <time>2021-10-10T13:18:23Z</time>
      </trkpt>
      <trkpt lat="43.0217240" lon="-5.8773110">
        <ele>888.8</ele>
        <time>2021-10-10T13:18:24Z</time>
      </trkpt>
      <trkpt lat="43.0217120" lon="-5.8773260">
        <ele>889.0</ele>
        <time>2021-10-10T13:18:25Z</time>
      </trkpt>
      <trkpt lat="43.0216890" lon="-5.8773650">
        <ele>889.2</ele>
        <time>2021-10-10T13:18:27Z</time>
      </trkpt>
      <trkpt lat="43.0216770" lon="-5.8773840">
        <ele>889.2</ele>
        <time>2021-10-10T13:18:28Z</time>
      </trkpt>
      <trkpt lat="43.0216640" lon="-5.8773990">
        <ele>889.4</ele>
        <time>2021-10-10T13:18:29Z</time>
      </trkpt>
      <trkpt lat="43.0216530" lon="-5.8774140">
        <ele>889.4</ele>
        <time>2021-10-10T13:18:30Z</time>
      </trkpt>
      <trkpt lat="43.0216180" lon="-5.8774430">
        <ele>889.6</ele>
        <time>2021-10-10T13:18:33Z</time>
      </trkpt>
      <trkpt lat="43.0216060" lon="-5.8774530">
        <ele>889.8</ele>
        <time>2021-10-10T13:18:34Z</time>
      </trkpt>
      <trkpt lat="43.0215860" lon="-5.8774780">
        <ele>890.0</ele>
        <time>2021-10-10T13:18:36Z</time>
      </trkpt>
      <trkpt lat="43.0215740" lon="-5.8774960">
        <ele>890.4</ele>
        <time>2021-10-10T13:18:41Z</time>
      </trkpt>
      <trkpt lat="43.0214890" lon="-5.8775370">
        <ele>892.2</ele>
        <time>2021-10-10T13:43:50Z</time>
      </trkpt>
      <trkpt lat="43.0213790" lon="-5.8775310">
        <ele>892.8</ele>
        <time>2021-10-10T13:43:56Z</time>
      </trkpt>
      <trkpt lat="43.0213160" lon="-5.8774970">
        <ele>893.0</ele>
        <time>2021-10-10T13:44:00Z</time>
      </trkpt>
      <trkpt lat="43.0212640" lon="-5.8774800">
        <ele>893.2</ele>
        <time>2021-10-10T13:44:02Z</time>
      </trkpt>
      <trkpt lat="43.0212290" lon="-5.8774560">
        <ele>893.4</ele>
        <time>2021-10-10T13:44:04Z</time>
      </trkpt>
      <trkpt lat="43.0211710" lon="-5.8774370">
        <ele>893.6</ele>
        <time>2021-10-10T13:44:07Z</time>
      </trkpt>
      <trkpt lat="43.0211110" lon="-5.8774080">
        <ele>894.0</ele>
        <time>2021-10-10T13:44:10Z</time>
      </trkpt>
      <trkpt lat="43.0210610" lon="-5.8773840">
        <ele>894.0</ele>
        <time>2021-10-10T13:44:12Z</time>
      </trkpt>
      <trkpt lat="43.0209460" lon="-5.8773340">
        <ele>894.6</ele>
        <time>2021-10-10T13:44:17Z</time>
      </trkpt>
      <trkpt lat="43.0208420" lon="-5.8772900">
        <ele>895.0</ele>
        <time>2021-10-10T13:44:22Z</time>
      </trkpt>
      <trkpt lat="43.0208080" lon="-5.8772780">
        <ele>895.2</ele>
        <time>2021-10-10T13:44:24Z</time>
      </trkpt>
      <trkpt lat="43.0207820" lon="-5.8772670">
        <ele>895.4</ele>
        <time>2021-10-10T13:44:25Z</time>
      </trkpt>
      <trkpt lat="43.0207630" lon="-5.8772590">
        <ele>895.6</ele>
        <time>2021-10-10T13:44:26Z</time>
      </trkpt>
      <trkpt lat="43.0207390" lon="-5.8772530">
        <ele>895.6</ele>
        <time>2021-10-10T13:44:27Z</time>
      </trkpt>
      <trkpt lat="43.0206510" lon="-5.8772610">
        <ele>896.2</ele>
        <time>2021-10-10T13:44:31Z</time>
      </trkpt>
      <trkpt lat="43.0206080" lon="-5.8772700">
        <ele>896.6</ele>
        <time>2021-10-10T13:44:33Z</time>
      </trkpt>
      <trkpt lat="43.0205870" lon="-5.8772700">
        <ele>896.8</ele>
        <time>2021-10-10T13:44:34Z</time>
      </trkpt>
      <trkpt lat="43.0205460" lon="-5.8772770">
        <ele>897.2</ele>
        <time>2021-10-10T13:44:36Z</time>
      </trkpt>
      <trkpt lat="43.0205270" lon="-5.8772770">
        <ele>897.4</ele>
        <time>2021-10-10T13:44:37Z</time>
      </trkpt>
      <trkpt lat="43.0204680" lon="-5.8773000">
        <ele>897.8</ele>
        <time>2021-10-10T13:44:40Z</time>
      </trkpt>
      <trkpt lat="43.0204310" lon="-5.8773150">
        <ele>897.8</ele>
        <time>2021-10-10T13:44:42Z</time>
      </trkpt>
      <trkpt lat="43.0203900" lon="-5.8773360">
        <ele>898.2</ele>
        <time>2021-10-10T13:44:44Z</time>
      </trkpt>
      <trkpt lat="43.0203550" lon="-5.8773650">
        <ele>898.6</ele>
        <time>2021-10-10T13:44:46Z</time>
      </trkpt>
      <trkpt lat="43.0202400" lon="-5.8774930">
        <ele>899.2</ele>
        <time>2021-10-10T13:44:53Z</time>
      </trkpt>
      <trkpt lat="43.0202000" lon="-5.8775670">
        <ele>899.6</ele>
        <time>2021-10-10T13:44:56Z</time>
      </trkpt>
      <trkpt lat="43.0201860" lon="-5.8775930">
        <ele>899.8</ele>
        <time>2021-10-10T13:44:57Z</time>
      </trkpt>
      <trkpt lat="43.0201770" lon="-5.8776160">
        <ele>900.0</ele>
        <time>2021-10-10T13:44:58Z</time>
      </trkpt>
      <trkpt lat="43.0201670" lon="-5.8776440">
        <ele>900.2</ele>
        <time>2021-10-10T13:44:59Z</time>
      </trkpt>
      <trkpt lat="43.0201470" lon="-5.8777080">
        <ele>900.6</ele>
        <time>2021-10-10T13:45:01Z</time>
      </trkpt>
      <trkpt lat="43.0201420" lon="-5.8777300">
        <ele>900.8</ele>
        <time>2021-10-10T13:45:02Z</time>
      </trkpt>
      <trkpt lat="43.0201390" lon="-5.8777580">
        <ele>901.0</ele>
        <time>2021-10-10T13:45:03Z</time>
      </trkpt>
      <trkpt lat="43.0201370" lon="-5.8778210">
        <ele>901.2</ele>
        <time>2021-10-10T13:45:05Z</time>
      </trkpt>
      <trkpt lat="43.0201360" lon="-5.8779540">
        <ele>901.6</ele>
        <time>2021-10-10T13:45:09Z</time>
      </trkpt>
      <trkpt lat="43.0201480" lon="-5.8780430">
        <ele>901.8</ele>
        <time>2021-10-10T13:45:12Z</time>
      </trkpt>
      <trkpt lat="43.0201590" lon="-5.8781010">
        <ele>902.2</ele>
        <time>2021-10-10T13:45:14Z</time>
      </trkpt>
      <trkpt lat="43.0201680" lon="-5.8781290">
        <ele>902.2</ele>
        <time>2021-10-10T13:45:15Z</time>
      </trkpt>
      <trkpt lat="43.0201870" lon="-5.8782100">
        <ele>902.6</ele>
        <time>2021-10-10T13:45:18Z</time>
      </trkpt>
      <trkpt lat="43.0202000" lon="-5.8782610">
        <ele>902.8</ele>
        <time>2021-10-10T13:45:20Z</time>
      </trkpt>
      <trkpt lat="43.0202160" lon="-5.8783130">
        <ele>903.2</ele>
        <time>2021-10-10T13:45:22Z</time>
      </trkpt>
      <trkpt lat="43.0202240" lon="-5.8783360">
        <ele>903.4</ele>
        <time>2021-10-10T13:45:23Z</time>
      </trkpt>
      <trkpt lat="43.0202670" lon="-5.8784570">
        <ele>904.0</ele>
        <time>2021-10-10T13:45:28Z</time>
      </trkpt>
      <trkpt lat="43.0202790" lon="-5.8784810">
        <ele>904.0</ele>
        <time>2021-10-10T13:45:29Z</time>
      </trkpt>
      <trkpt lat="43.0203190" lon="-5.8785470">
        <ele>904.4</ele>
        <time>2021-10-10T13:45:32Z</time>
      </trkpt>
      <trkpt lat="43.0203450" lon="-5.8785890">
        <ele>904.6</ele>
        <time>2021-10-10T13:45:34Z</time>
      </trkpt>
      <trkpt lat="43.0203800" lon="-5.8786560">
        <ele>905.0</ele>
        <time>2021-10-10T13:45:37Z</time>
      </trkpt>
      <trkpt lat="43.0204070" lon="-5.8787040">
        <ele>905.2</ele>
        <time>2021-10-10T13:45:39Z</time>
      </trkpt>
      <trkpt lat="43.0204420" lon="-5.8787690">
        <ele>905.4</ele>
        <time>2021-10-10T13:45:42Z</time>
      </trkpt>
      <trkpt lat="43.0204560" lon="-5.8787910">
        <ele>905.8</ele>
        <time>2021-10-10T13:45:43Z</time>
      </trkpt>
      <trkpt lat="43.0205060" lon="-5.8788730">
        <ele>906.0</ele>
        <time>2021-10-10T13:45:47Z</time>
      </trkpt>
      <trkpt lat="43.0205520" lon="-5.8789790">
        <ele>906.4</ele>
        <time>2021-10-10T13:45:51Z</time>
      </trkpt>
      <trkpt lat="43.0205830" lon="-5.8790550">
        <ele>906.8</ele>
        <time>2021-10-10T13:45:54Z</time>
      </trkpt>
      <trkpt lat="43.0206010" lon="-5.8791330">
        <ele>907.0</ele>
        <time>2021-10-10T13:45:57Z</time>
      </trkpt>
      <trkpt lat="43.0206610" lon="-5.8793070">
        <ele>907.6</ele>
        <time>2021-10-10T13:46:04Z</time>
      </trkpt>
      <trkpt lat="43.0206740" lon="-5.8793490">
        <ele>907.8</ele>
        <time>2021-10-10T13:46:06Z</time>
      </trkpt>
      <trkpt lat="43.0206880" lon="-5.8793960">
        <ele>908.2</ele>
        <time>2021-10-10T13:46:08Z</time>
      </trkpt>
      <trkpt lat="43.0207090" lon="-5.8794530">
        <ele>908.6</ele>
        <time>2021-10-10T13:46:10Z</time>
      </trkpt>
      <trkpt lat="43.0207210" lon="-5.8795240">
        <ele>908.8</ele>
        <time>2021-10-10T13:46:13Z</time>
      </trkpt>
      <trkpt lat="43.0207240" lon="-5.8795510">
        <ele>909.0</ele>
        <time>2021-10-10T13:46:14Z</time>
      </trkpt>
      <trkpt lat="43.0207260" lon="-5.8797440">
        <ele>910.2</ele>
        <time>2021-10-10T13:46:21Z</time>
      </trkpt>
      <trkpt lat="43.0207180" lon="-5.8797960">
        <ele>910.6</ele>
        <time>2021-10-10T13:46:23Z</time>
      </trkpt>
      <trkpt lat="43.0207140" lon="-5.8798230">
        <ele>910.8</ele>
        <time>2021-10-10T13:46:24Z</time>
      </trkpt>
      <trkpt lat="43.0207080" lon="-5.8798740">
        <ele>911.2</ele>
        <time>2021-10-10T13:46:26Z</time>
      </trkpt>
      <trkpt lat="43.0207050" lon="-5.8799030">
        <ele>911.4</ele>
        <time>2021-10-10T13:46:27Z</time>
      </trkpt>
      <trkpt lat="43.0206970" lon="-5.8799880">
        <ele>911.8</ele>
        <time>2021-10-10T13:46:30Z</time>
      </trkpt>
      <trkpt lat="43.0206930" lon="-5.8800140">
        <ele>911.8</ele>
        <time>2021-10-10T13:46:31Z</time>
      </trkpt>
      <trkpt lat="43.0206860" lon="-5.8800420">
        <ele>912.0</ele>
        <time>2021-10-10T13:46:32Z</time>
      </trkpt>
      <trkpt lat="43.0206830" lon="-5.8800710">
        <ele>912.0</ele>
        <time>2021-10-10T13:46:33Z</time>
      </trkpt>
      <trkpt lat="43.0206770" lon="-5.8801470">
        <ele>912.2</ele>
        <time>2021-10-10T13:46:36Z</time>
      </trkpt>
      <trkpt lat="43.0206730" lon="-5.8801740">
        <ele>912.4</ele>
        <time>2021-10-10T13:46:37Z</time>
      </trkpt>
      <trkpt lat="43.0206580" lon="-5.8802520">
        <ele>912.8</ele>
        <time>2021-10-10T13:46:40Z</time>
      </trkpt>
      <trkpt lat="43.0206530" lon="-5.8803110">
        <ele>913.2</ele>
        <time>2021-10-10T13:46:42Z</time>
      </trkpt>
      <trkpt lat="43.0206500" lon="-5.8803400">
        <ele>913.4</ele>
        <time>2021-10-10T13:46:43Z</time>
      </trkpt>
      <trkpt lat="43.0206470" lon="-5.8803660">
        <ele>913.4</ele>
        <time>2021-10-10T13:46:44Z</time>
      </trkpt>
      <trkpt lat="43.0206420" lon="-5.8804150">
        <ele>913.8</ele>
        <time>2021-10-10T13:46:46Z</time>
      </trkpt>
      <trkpt lat="43.0206330" lon="-5.8804590">
        <ele>914.2</ele>
        <time>2021-10-10T13:46:48Z</time>
      </trkpt>
      <trkpt lat="43.0206050" lon="-5.8805260">
        <ele>914.4</ele>
        <time>2021-10-10T13:46:51Z</time>
      </trkpt>
      <trkpt lat="43.0205800" lon="-5.8805690">
        <ele>914.4</ele>
        <time>2021-10-10T13:46:53Z</time>
      </trkpt>
      <trkpt lat="43.0205670" lon="-5.8805900">
        <ele>914.6</ele>
        <time>2021-10-10T13:46:54Z</time>
      </trkpt>
      <trkpt lat="43.0205560" lon="-5.8806070">
        <ele>914.6</ele>
        <time>2021-10-10T13:46:55Z</time>
      </trkpt>
      <trkpt lat="43.0205280" lon="-5.8806510">
        <ele>915.0</ele>
        <time>2021-10-10T13:46:57Z</time>
      </trkpt>
      <trkpt lat="43.0204690" lon="-5.8807310">
        <ele>915.4</ele>
        <time>2021-10-10T13:47:01Z</time>
      </trkpt>
      <trkpt lat="43.0204360" lon="-5.8807760">
        <ele>915.6</ele>
        <time>2021-10-10T13:47:03Z</time>
      </trkpt>
      <trkpt lat="43.0204150" lon="-5.8808210">
        <ele>916.0</ele>
        <time>2021-10-10T13:47:05Z</time>
      </trkpt>
      <trkpt lat="43.0203830" lon="-5.8808850">
        <ele>916.2</ele>
        <time>2021-10-10T13:47:08Z</time>
      </trkpt>
      <trkpt lat="43.0203760" lon="-5.8809040">
        <ele>916.2</ele>
        <time>2021-10-10T13:47:09Z</time>
      </trkpt>
      <trkpt lat="43.0203550" lon="-5.8809500">
        <ele>916.8</ele>
        <time>2021-10-10T13:47:11Z</time>
      </trkpt>
      <trkpt lat="43.0203400" lon="-5.8809930">
        <ele>917.0</ele>
        <time>2021-10-10T13:47:13Z</time>
      </trkpt>
      <trkpt lat="43.0202970" lon="-5.8811260">
        <ele>917.4</ele>
        <time>2021-10-10T13:47:18Z</time>
      </trkpt>
      <trkpt lat="43.0202870" lon="-5.8811510">
        <ele>917.6</ele>
        <time>2021-10-10T13:47:19Z</time>
      </trkpt>
      <trkpt lat="43.0202740" lon="-5.8811950">
        <ele>917.8</ele>
        <time>2021-10-10T13:47:21Z</time>
      </trkpt>
      <trkpt lat="43.0202230" lon="-5.8813450">
        <ele>918.8</ele>
        <time>2021-10-10T13:47:27Z</time>
      </trkpt>
      <trkpt lat="43.0202170" lon="-5.8813700">
        <ele>918.8</ele>
        <time>2021-10-10T13:47:28Z</time>
      </trkpt>
      <trkpt lat="43.0202020" lon="-5.8814200">
        <ele>919.2</ele>
        <time>2021-10-10T13:47:30Z</time>
      </trkpt>
      <trkpt lat="43.0201770" lon="-5.8814660">
        <ele>919.4</ele>
        <time>2021-10-10T13:47:32Z</time>
      </trkpt>
      <trkpt lat="43.0201360" lon="-5.8815530">
        <ele>919.6</ele>
        <time>2021-10-10T13:47:36Z</time>
      </trkpt>
      <trkpt lat="43.0200910" lon="-5.8816270">
        <ele>920.0</ele>
        <time>2021-10-10T13:47:39Z</time>
      </trkpt>
      <trkpt lat="43.0200770" lon="-5.8816460">
        <ele>920.2</ele>
        <time>2021-10-10T13:47:40Z</time>
      </trkpt>
      <trkpt lat="43.0200230" lon="-5.8817090">
        <ele>920.8</ele>
        <time>2021-10-10T13:47:43Z</time>
      </trkpt>
      <trkpt lat="43.0199800" lon="-5.8817480">
        <ele>921.0</ele>
        <time>2021-10-10T13:47:45Z</time>
      </trkpt>
      <trkpt lat="43.0199360" lon="-5.8817790">
        <ele>921.0</ele>
        <time>2021-10-10T13:47:47Z</time>
      </trkpt>
      <trkpt lat="43.0198910" lon="-5.8818020">
        <ele>921.2</ele>
        <time>2021-10-10T13:47:49Z</time>
      </trkpt>
      <trkpt lat="43.0198710" lon="-5.8818150">
        <ele>921.2</ele>
        <time>2021-10-10T13:47:50Z</time>
      </trkpt>
      <trkpt lat="43.0198510" lon="-5.8818280">
        <ele>921.2</ele>
        <time>2021-10-10T13:47:51Z</time>
      </trkpt>
      <trkpt lat="43.0197300" lon="-5.8819170">
        <ele>922.0</ele>
        <time>2021-10-10T13:47:57Z</time>
      </trkpt>
      <trkpt lat="43.0197090" lon="-5.8819310">
        <ele>922.2</ele>
        <time>2021-10-10T13:47:58Z</time>
      </trkpt>
      <trkpt lat="43.0196690" lon="-5.8819670">
        <ele>922.6</ele>
        <time>2021-10-10T13:48:00Z</time>
      </trkpt>
      <trkpt lat="43.0196520" lon="-5.8819860">
        <ele>922.8</ele>
        <time>2021-10-10T13:48:01Z</time>
      </trkpt>
      <trkpt lat="43.0196190" lon="-5.8820240">
        <ele>923.2</ele>
        <time>2021-10-10T13:48:03Z</time>
      </trkpt>
      <trkpt lat="43.0195690" lon="-5.8820880">
        <ele>923.4</ele>
        <time>2021-10-10T13:48:06Z</time>
      </trkpt>
      <trkpt lat="43.0194900" lon="-5.8821980">
        <ele>924.2</ele>
        <time>2021-10-10T13:48:11Z</time>
      </trkpt>
      <trkpt lat="43.0194590" lon="-5.8822350">
        <ele>924.4</ele>
        <time>2021-10-10T13:48:13Z</time>
      </trkpt>
      <trkpt lat="43.0194320" lon="-5.8822760">
        <ele>924.6</ele>
        <time>2021-10-10T13:48:15Z</time>
      </trkpt>
      <trkpt lat="43.0194180" lon="-5.8822970">
        <ele>924.8</ele>
        <time>2021-10-10T13:48:16Z</time>
      </trkpt>
      <trkpt lat="43.0193920" lon="-5.8823400">
        <ele>925.2</ele>
        <time>2021-10-10T13:48:18Z</time>
      </trkpt>
      <trkpt lat="43.0193830" lon="-5.8823620">
        <ele>925.2</ele>
        <time>2021-10-10T13:48:19Z</time>
      </trkpt>
      <trkpt lat="43.0193730" lon="-5.8823860">
        <ele>925.4</ele>
        <time>2021-10-10T13:48:20Z</time>
      </trkpt>
      <trkpt lat="43.0193500" lon="-5.8824350">
        <ele>925.8</ele>
        <time>2021-10-10T13:48:22Z</time>
      </trkpt>
      <trkpt lat="43.0193380" lon="-5.8824850">
        <ele>925.8</ele>
        <time>2021-10-10T13:48:24Z</time>
      </trkpt>
      <trkpt lat="43.0193160" lon="-5.8825930">
        <ele>926.2</ele>
        <time>2021-10-10T13:48:28Z</time>
      </trkpt>
      <trkpt lat="43.0193140" lon="-5.8826490">
        <ele>926.4</ele>
        <time>2021-10-10T13:48:30Z</time>
      </trkpt>
      <trkpt lat="43.0193170" lon="-5.8827090">
        <ele>926.6</ele>
        <time>2021-10-10T13:48:32Z</time>
      </trkpt>
      <trkpt lat="43.0193300" lon="-5.8828220">
        <ele>927.0</ele>
        <time>2021-10-10T13:48:36Z</time>
      </trkpt>
      <trkpt lat="43.0193440" lon="-5.8829110">
        <ele>927.4</ele>
        <time>2021-10-10T13:48:39Z</time>
      </trkpt>
      <trkpt lat="43.0193490" lon="-5.8829420">
        <ele>927.4</ele>
        <time>2021-10-10T13:48:40Z</time>
      </trkpt>
      <trkpt lat="43.0193550" lon="-5.8829710">
        <ele>927.6</ele>
        <time>2021-10-10T13:48:41Z</time>
      </trkpt>
      <trkpt lat="43.0193700" lon="-5.8830750">
        <ele>928.0</ele>
        <time>2021-10-10T13:48:45Z</time>
      </trkpt>
      <trkpt lat="43.0194040" lon="-5.8832310">
        <ele>928.6</ele>
        <time>2021-10-10T13:48:51Z</time>
      </trkpt>
      <trkpt lat="43.0194130" lon="-5.8832810">
        <ele>928.8</ele>
        <time>2021-10-10T13:48:53Z</time>
      </trkpt>
      <trkpt lat="43.0194330" lon="-5.8834370">
        <ele>929.6</ele>
        <time>2021-10-10T13:48:59Z</time>
      </trkpt>
      <trkpt lat="43.0194340" lon="-5.8834630">
        <ele>929.6</ele>
        <time>2021-10-10T13:49:00Z</time>
      </trkpt>
      <trkpt lat="43.0194310" lon="-5.8834890">
        <ele>929.8</ele>
        <time>2021-10-10T13:49:01Z</time>
      </trkpt>
      <trkpt lat="43.0194120" lon="-5.8836010">
        <ele>930.4</ele>
        <time>2021-10-10T13:49:05Z</time>
      </trkpt>
      <trkpt lat="43.0193970" lon="-5.8836470">
        <ele>931.0</ele>
        <time>2021-10-10T13:49:07Z</time>
      </trkpt>
      <trkpt lat="43.0193870" lon="-5.8836730">
        <ele>931.2</ele>
        <time>2021-10-10T13:49:08Z</time>
      </trkpt>
      <trkpt lat="43.0193490" lon="-5.8837370">
        <ele>931.6</ele>
        <time>2021-10-10T13:49:11Z</time>
      </trkpt>
      <trkpt lat="43.0192880" lon="-5.8838220">
        <ele>932.0</ele>
        <time>2021-10-10T13:49:15Z</time>
      </trkpt>
      <trkpt lat="43.0192720" lon="-5.8838430">
        <ele>932.0</ele>
        <time>2021-10-10T13:49:16Z</time>
      </trkpt>
      <trkpt lat="43.0192540" lon="-5.8838610">
        <ele>932.0</ele>
        <time>2021-10-10T13:49:17Z</time>
      </trkpt>
      <trkpt lat="43.0191770" lon="-5.8839240">
        <ele>932.4</ele>
        <time>2021-10-10T13:49:21Z</time>
      </trkpt>
      <trkpt lat="43.0191110" lon="-5.8840100">
        <ele>932.8</ele>
        <time>2021-10-10T13:49:25Z</time>
      </trkpt>
      <trkpt lat="43.0191020" lon="-5.8840320">
        <ele>932.8</ele>
        <time>2021-10-10T13:49:26Z</time>
      </trkpt>
      <trkpt lat="43.0190840" lon="-5.8840510">
        <ele>933.0</ele>
        <time>2021-10-10T13:49:27Z</time>
      </trkpt>
      <trkpt lat="43.0190410" lon="-5.8840630">
        <ele>933.2</ele>
        <time>2021-10-10T13:49:29Z</time>
      </trkpt>
      <trkpt lat="43.0189950" lon="-5.8840860">
        <ele>933.6</ele>
        <time>2021-10-10T13:49:31Z</time>
      </trkpt>
      <trkpt lat="43.0189740" lon="-5.8841030">
        <ele>933.8</ele>
        <time>2021-10-10T13:49:32Z</time>
      </trkpt>
      <trkpt lat="43.0189470" lon="-5.8841090">
        <ele>934.2</ele>
        <time>2021-10-10T13:49:33Z</time>
      </trkpt>
      <trkpt lat="43.0189020" lon="-5.8841380">
        <ele>934.8</ele>
        <time>2021-10-10T13:49:36Z</time>
      </trkpt>
      <trkpt lat="43.0188850" lon="-5.8841840">
        <ele>935.2</ele>
        <time>2021-10-10T13:49:38Z</time>
      </trkpt>
      <trkpt lat="43.0188650" lon="-5.8842660">
        <ele>935.6</ele>
        <time>2021-10-10T13:49:41Z</time>
      </trkpt>
      <trkpt lat="43.0188630" lon="-5.8842950">
        <ele>936.0</ele>
        <time>2021-10-10T13:49:42Z</time>
      </trkpt>
      <trkpt lat="43.0188570" lon="-5.8843200">
        <ele>936.2</ele>
        <time>2021-10-10T13:49:43Z</time>
      </trkpt>
      <trkpt lat="43.0188440" lon="-5.8843900">
        <ele>937.0</ele>
        <time>2021-10-10T13:49:46Z</time>
      </trkpt>
      <trkpt lat="43.0188390" lon="-5.8844680">
        <ele>937.2</ele>
        <time>2021-10-10T13:49:49Z</time>
      </trkpt>
      <trkpt lat="43.0188360" lon="-5.8845490">
        <ele>937.2</ele>
        <time>2021-10-10T13:49:52Z</time>
      </trkpt>
      <trkpt lat="43.0188350" lon="-5.8845750">
        <ele>937.4</ele>
        <time>2021-10-10T13:49:53Z</time>
      </trkpt>
      <trkpt lat="43.0188270" lon="-5.8846520">
        <ele>937.6</ele>
        <time>2021-10-10T13:49:56Z</time>
      </trkpt>
      <trkpt lat="43.0187990" lon="-5.8847520">
        <ele>938.0</ele>
        <time>2021-10-10T13:50:00Z</time>
      </trkpt>
      <trkpt lat="43.0187840" lon="-5.8848040">
        <ele>938.4</ele>
        <time>2021-10-10T13:50:02Z</time>
      </trkpt>
      <trkpt lat="43.0187610" lon="-5.8848510">
        <ele>938.6</ele>
        <time>2021-10-10T13:50:04Z</time>
      </trkpt>
      <trkpt lat="43.0187490" lon="-5.8848770">
        <ele>938.6</ele>
        <time>2021-10-10T13:50:05Z</time>
      </trkpt>
      <trkpt lat="43.0187370" lon="-5.8848990">
        <ele>938.6</ele>
        <time>2021-10-10T13:50:06Z</time>
      </trkpt>
      <trkpt lat="43.0187070" lon="-5.8849670">
        <ele>939.0</ele>
        <time>2021-10-10T13:50:09Z</time>
      </trkpt>
      <trkpt lat="43.0186820" lon="-5.8850070">
        <ele>939.4</ele>
        <time>2021-10-10T13:50:11Z</time>
      </trkpt>
      <trkpt lat="43.0186690" lon="-5.8850320">
        <ele>939.4</ele>
        <time>2021-10-10T13:50:12Z</time>
      </trkpt>
      <trkpt lat="43.0186580" lon="-5.8850570">
        <ele>939.6</ele>
        <time>2021-10-10T13:50:13Z</time>
      </trkpt>
      <trkpt lat="43.0185880" lon="-5.8852240">
        <ele>940.6</ele>
        <time>2021-10-10T13:50:20Z</time>
      </trkpt>
      <trkpt lat="43.0185650" lon="-5.8852690">
        <ele>940.6</ele>
        <time>2021-10-10T13:50:22Z</time>
      </trkpt>
      <trkpt lat="43.0185560" lon="-5.8852930">
        <ele>940.6</ele>
        <time>2021-10-10T13:50:23Z</time>
      </trkpt>
      <trkpt lat="43.0185450" lon="-5.8853150">
        <ele>940.6</ele>
        <time>2021-10-10T13:50:24Z</time>
      </trkpt>
      <trkpt lat="43.0185120" lon="-5.8853780">
        <ele>940.8</ele>
        <time>2021-10-10T13:50:27Z</time>
      </trkpt>
      <trkpt lat="43.0184960" lon="-5.8854060">
        <ele>940.8</ele>
        <time>2021-10-10T13:50:28Z</time>
      </trkpt>
      <trkpt lat="43.0184630" lon="-5.8854670">
        <ele>941.2</ele>
        <time>2021-10-10T13:50:31Z</time>
      </trkpt>
      <trkpt lat="43.0184540" lon="-5.8854900">
        <ele>941.2</ele>
        <time>2021-10-10T13:50:32Z</time>
      </trkpt>
      <trkpt lat="43.0184330" lon="-5.8855360">
        <ele>941.4</ele>
        <time>2021-10-10T13:50:34Z</time>
      </trkpt>
      <trkpt lat="43.0184120" lon="-5.8855770">
        <ele>941.8</ele>
        <time>2021-10-10T13:50:36Z</time>
      </trkpt>
      <trkpt lat="43.0183690" lon="-5.8856250">
        <ele>942.0</ele>
        <time>2021-10-10T13:50:39Z</time>
      </trkpt>
      <trkpt lat="43.0183480" lon="-5.8856650">
        <ele>942.4</ele>
        <time>2021-10-10T13:50:41Z</time>
      </trkpt>
      <trkpt lat="43.0183310" lon="-5.8857160">
        <ele>942.6</ele>
        <time>2021-10-10T13:50:43Z</time>
      </trkpt>
      <trkpt lat="43.0183310" lon="-5.8857490">
        <ele>942.8</ele>
        <time>2021-10-10T13:50:44Z</time>
      </trkpt>
      <trkpt lat="43.0183300" lon="-5.8857760">
        <ele>943.0</ele>
        <time>2021-10-10T13:50:45Z</time>
      </trkpt>
      <trkpt lat="43.0183350" lon="-5.8858540">
        <ele>943.4</ele>
        <time>2021-10-10T13:50:48Z</time>
      </trkpt>
      <trkpt lat="43.0183420" lon="-5.8859000">
        <ele>944.0</ele>
        <time>2021-10-10T13:50:50Z</time>
      </trkpt>
      <trkpt lat="43.0183450" lon="-5.8859300">
        <ele>944.4</ele>
        <time>2021-10-10T13:50:51Z</time>
      </trkpt>
      <trkpt lat="43.0183490" lon="-5.8859540">
        <ele>944.6</ele>
        <time>2021-10-10T13:50:52Z</time>
      </trkpt>
      <trkpt lat="43.0183550" lon="-5.8859980">
        <ele>945.0</ele>
        <time>2021-10-10T13:50:54Z</time>
      </trkpt>
      <trkpt lat="43.0183660" lon="-5.8860440">
        <ele>945.2</ele>
        <time>2021-10-10T13:50:56Z</time>
      </trkpt>
      <trkpt lat="43.0184010" lon="-5.8861210">
        <ele>945.6</ele>
        <time>2021-10-10T13:51:00Z</time>
      </trkpt>
      <trkpt lat="43.0184230" lon="-5.8861520">
        <ele>945.8</ele>
        <time>2021-10-10T13:51:02Z</time>
      </trkpt>
      <trkpt lat="43.0184320" lon="-5.8862240">
        <ele>946.2</ele>
        <time>2021-10-10T13:51:05Z</time>
      </trkpt>
      <trkpt lat="43.0184390" lon="-5.8863270">
        <ele>946.6</ele>
        <time>2021-10-10T13:51:09Z</time>
      </trkpt>
      <trkpt lat="43.0184320" lon="-5.8863790">
        <ele>946.8</ele>
        <time>2021-10-10T13:51:11Z</time>
      </trkpt>
      <trkpt lat="43.0184250" lon="-5.8864080">
        <ele>947.0</ele>
        <time>2021-10-10T13:51:12Z</time>
      </trkpt>
      <trkpt lat="43.0183890" lon="-5.8865430">
        <ele>947.2</ele>
        <time>2021-10-10T13:51:17Z</time>
      </trkpt>
      <trkpt lat="43.0183820" lon="-5.8865670">
        <ele>947.2</ele>
        <time>2021-10-10T13:51:18Z</time>
      </trkpt>
      <trkpt lat="43.0183440" lon="-5.8866940">
        <ele>947.6</ele>
        <time>2021-10-10T13:51:23Z</time>
      </trkpt>
      <trkpt lat="43.0183340" lon="-5.8867220">
        <ele>947.8</ele>
        <time>2021-10-10T13:51:24Z</time>
      </trkpt>
      <trkpt lat="43.0183130" lon="-5.8867770">
        <ele>947.8</ele>
        <time>2021-10-10T13:51:26Z</time>
      </trkpt>
      <trkpt lat="43.0182930" lon="-5.8868520">
        <ele>948.2</ele>
        <time>2021-10-10T13:51:29Z</time>
      </trkpt>
      <trkpt lat="43.0182730" lon="-5.8869240">
        <ele>948.4</ele>
        <time>2021-10-10T13:51:32Z</time>
      </trkpt>
      <trkpt lat="43.0182550" lon="-5.8869720">
        <ele>948.8</ele>
        <time>2021-10-10T13:51:34Z</time>
      </trkpt>
      <trkpt lat="43.0182200" lon="-5.8870670">
        <ele>949.8</ele>
        <time>2021-10-10T13:51:38Z</time>
      </trkpt>
      <trkpt lat="43.0182110" lon="-5.8870890">
        <ele>949.8</ele>
        <time>2021-10-10T13:51:39Z</time>
      </trkpt>
      <trkpt lat="43.0181690" lon="-5.8872330">
        <ele>950.8</ele>
        <time>2021-10-10T13:51:45Z</time>
      </trkpt>
      <trkpt lat="43.0181570" lon="-5.8872770">
        <ele>951.2</ele>
        <time>2021-10-10T13:51:47Z</time>
      </trkpt>
      <trkpt lat="43.0181450" lon="-5.8873240">
        <ele>951.8</ele>
        <time>2021-10-10T13:51:49Z</time>
      </trkpt>
      <trkpt lat="43.0181390" lon="-5.8873470">
        <ele>951.8</ele>
        <time>2021-10-10T13:51:50Z</time>
      </trkpt>
      <trkpt lat="43.0181310" lon="-5.8873750">
        <ele>952.0</ele>
        <time>2021-10-10T13:51:51Z</time>
      </trkpt>
      <trkpt lat="43.0181180" lon="-5.8874320">
        <ele>952.0</ele>
        <time>2021-10-10T13:51:53Z</time>
      </trkpt>
      <trkpt lat="43.0181070" lon="-5.8874890">
        <ele>952.2</ele>
        <time>2021-10-10T13:51:55Z</time>
      </trkpt>
      <trkpt lat="43.0181140" lon="-5.8875910">
        <ele>952.6</ele>
        <time>2021-10-10T13:51:59Z</time>
      </trkpt>
      <trkpt lat="43.0181330" lon="-5.8876670">
        <ele>953.0</ele>
        <time>2021-10-10T13:52:02Z</time>
      </trkpt>
      <trkpt lat="43.0181410" lon="-5.8876880">
        <ele>953.2</ele>
        <time>2021-10-10T13:52:03Z</time>
      </trkpt>
      <trkpt lat="43.0181690" lon="-5.8877540">
        <ele>953.6</ele>
        <time>2021-10-10T13:52:06Z</time>
      </trkpt>
      <trkpt lat="43.0181900" lon="-5.8878000">
        <ele>953.6</ele>
        <time>2021-10-10T13:52:08Z</time>
      </trkpt>
      <trkpt lat="43.0182090" lon="-5.8878470">
        <ele>953.8</ele>
        <time>2021-10-10T13:52:10Z</time>
      </trkpt>
      <trkpt lat="43.0182300" lon="-5.8878880">
        <ele>954.0</ele>
        <time>2021-10-10T13:52:12Z</time>
      </trkpt>
      <trkpt lat="43.0182390" lon="-5.8879130">
        <ele>954.2</ele>
        <time>2021-10-10T13:52:13Z</time>
      </trkpt>
      <trkpt lat="43.0182550" lon="-5.8879650">
        <ele>954.4</ele>
        <time>2021-10-10T13:52:15Z</time>
      </trkpt>
      <trkpt lat="43.0182690" lon="-5.8880160">
        <ele>954.4</ele>
        <time>2021-10-10T13:52:17Z</time>
      </trkpt>
      <trkpt lat="43.0182990" lon="-5.8881110">
        <ele>954.8</ele>
        <time>2021-10-10T13:52:21Z</time>
      </trkpt>
      <trkpt lat="43.0183050" lon="-5.8881360">
        <ele>955.0</ele>
        <time>2021-10-10T13:52:22Z</time>
      </trkpt>
      <trkpt lat="43.0183090" lon="-5.8881610">
        <ele>955.0</ele>
        <time>2021-10-10T13:52:23Z</time>
      </trkpt>
      <trkpt lat="43.0183160" lon="-5.8881830">
        <ele>955.2</ele>
        <time>2021-10-10T13:52:24Z</time>
      </trkpt>
      <trkpt lat="43.0183250" lon="-5.8882070">
        <ele>955.4</ele>
        <time>2021-10-10T13:52:25Z</time>
      </trkpt>
      <trkpt lat="43.0183340" lon="-5.8882720">
        <ele>955.6</ele>
        <time>2021-10-10T13:52:28Z</time>
      </trkpt>
      <trkpt lat="43.0183370" lon="-5.8883210">
        <ele>955.8</ele>
        <time>2021-10-10T13:52:30Z</time>
      </trkpt>
      <trkpt lat="43.0183350" lon="-5.8883690">
        <ele>956.0</ele>
        <time>2021-10-10T13:52:32Z</time>
      </trkpt>
      <trkpt lat="43.0183290" lon="-5.8884180">
        <ele>956.0</ele>
        <time>2021-10-10T13:52:34Z</time>
      </trkpt>
      <trkpt lat="43.0183250" lon="-5.8884940">
        <ele>956.4</ele>
        <time>2021-10-10T13:52:37Z</time>
      </trkpt>
      <trkpt lat="43.0183240" lon="-5.8885180">
        <ele>956.4</ele>
        <time>2021-10-10T13:52:38Z</time>
      </trkpt>
      <trkpt lat="43.0183200" lon="-5.8885700">
        <ele>956.8</ele>
        <time>2021-10-10T13:52:40Z</time>
      </trkpt>
      <trkpt lat="43.0183200" lon="-5.8885880">
        <ele>956.8</ele>
        <time>2021-10-10T13:52:41Z</time>
      </trkpt>
      <trkpt lat="43.0183210" lon="-5.8886560">
        <ele>957.4</ele>
        <time>2021-10-10T13:52:44Z</time>
      </trkpt>
      <trkpt lat="43.0183220" lon="-5.8886820">
        <ele>957.4</ele>
        <time>2021-10-10T13:52:45Z</time>
      </trkpt>
      <trkpt lat="43.0183230" lon="-5.8887050">
        <ele>957.6</ele>
        <time>2021-10-10T13:52:46Z</time>
      </trkpt>
      <trkpt lat="43.0183210" lon="-5.8887470">
        <ele>957.8</ele>
        <time>2021-10-10T13:52:48Z</time>
      </trkpt>
      <trkpt lat="43.0183220" lon="-5.8888140">
        <ele>958.4</ele>
        <time>2021-10-10T13:52:51Z</time>
      </trkpt>
      <trkpt lat="43.0183340" lon="-5.8888810">
        <ele>958.6</ele>
        <time>2021-10-10T13:52:54Z</time>
      </trkpt>
      <trkpt lat="43.0183400" lon="-5.8889040">
        <ele>958.8</ele>
        <time>2021-10-10T13:52:55Z</time>
      </trkpt>
      <trkpt lat="43.0183780" lon="-5.8890170">
        <ele>959.6</ele>
        <time>2021-10-10T13:53:01Z</time>
      </trkpt>
      <trkpt lat="43.0183860" lon="-5.8890320">
        <ele>959.6</ele>
        <time>2021-10-10T13:53:02Z</time>
      </trkpt>
      <trkpt lat="43.0184240" lon="-5.8891260">
        <ele>960.2</ele>
        <time>2021-10-10T13:53:07Z</time>
      </trkpt>
      <trkpt lat="43.0184330" lon="-5.8891530">
        <ele>960.2</ele>
        <time>2021-10-10T13:53:08Z</time>
      </trkpt>
      <trkpt lat="43.0184480" lon="-5.8891950">
        <ele>960.2</ele>
        <time>2021-10-10T13:53:10Z</time>
      </trkpt>
      <trkpt lat="43.0184530" lon="-5.8892470">
        <ele>960.4</ele>
        <time>2021-10-10T13:53:12Z</time>
      </trkpt>
      <trkpt lat="43.0184510" lon="-5.8892760">
        <ele>960.6</ele>
        <time>2021-10-10T13:53:13Z</time>
      </trkpt>
      <trkpt lat="43.0184500" lon="-5.8893030">
        <ele>960.6</ele>
        <time>2021-10-10T13:53:14Z</time>
      </trkpt>
      <trkpt lat="43.0184500" lon="-5.8893590">
        <ele>960.6</ele>
        <time>2021-10-10T13:53:16Z</time>
      </trkpt>
      <trkpt lat="43.0184400" lon="-5.8894290">
        <ele>960.8</ele>
        <time>2021-10-10T13:53:19Z</time>
      </trkpt>
      <trkpt lat="43.0184310" lon="-5.8894780">
        <ele>961.0</ele>
        <time>2021-10-10T13:53:21Z</time>
      </trkpt>
      <trkpt lat="43.0184270" lon="-5.8895030">
        <ele>961.2</ele>
        <time>2021-10-10T13:53:22Z</time>
      </trkpt>
      <trkpt lat="43.0184210" lon="-5.8895260">
        <ele>961.2</ele>
        <time>2021-10-10T13:53:23Z</time>
      </trkpt>
      <trkpt lat="43.0183540" lon="-5.8896230">
        <ele>961.8</ele>
        <time>2021-10-10T13:53:28Z</time>
      </trkpt>
      <trkpt lat="43.0183240" lon="-5.8896420">
        <ele>962.0</ele>
        <time>2021-10-10T13:53:30Z</time>
      </trkpt>
      <trkpt lat="43.0183090" lon="-5.8896510">
        <ele>962.2</ele>
        <time>2021-10-10T13:53:31Z</time>
      </trkpt>
      <trkpt lat="43.0182770" lon="-5.8896670">
        <ele>962.6</ele>
        <time>2021-10-10T13:53:33Z</time>
      </trkpt>
      <trkpt lat="43.0182280" lon="-5.8897000">
        <ele>962.8</ele>
        <time>2021-10-10T13:53:36Z</time>
      </trkpt>
      <trkpt lat="43.0181670" lon="-5.8897290">
        <ele>963.2</ele>
        <time>2021-10-10T13:53:40Z</time>
      </trkpt>
      <trkpt lat="43.0181380" lon="-5.8897490">
        <ele>963.6</ele>
        <time>2021-10-10T13:53:42Z</time>
      </trkpt>
      <trkpt lat="43.0181070" lon="-5.8897630">
        <ele>963.8</ele>
        <time>2021-10-10T13:53:44Z</time>
      </trkpt>
      <trkpt lat="43.0180800" lon="-5.8897960">
        <ele>964.0</ele>
        <time>2021-10-10T13:53:46Z</time>
      </trkpt>
      <trkpt lat="43.0180510" lon="-5.8898160">
        <ele>964.2</ele>
        <time>2021-10-10T13:53:48Z</time>
      </trkpt>
      <trkpt lat="43.0180240" lon="-5.8898360">
        <ele>964.8</ele>
        <time>2021-10-10T13:53:50Z</time>
      </trkpt>
      <trkpt lat="43.0180100" lon="-5.8898480">
        <ele>964.8</ele>
        <time>2021-10-10T13:53:51Z</time>
      </trkpt>
      <trkpt lat="43.0179640" lon="-5.8898850">
        <ele>965.2</ele>
        <time>2021-10-10T13:53:54Z</time>
      </trkpt>
      <trkpt lat="43.0179400" lon="-5.8899140">
        <ele>965.4</ele>
        <time>2021-10-10T13:53:56Z</time>
      </trkpt>
      <trkpt lat="43.0179070" lon="-5.8899600">
        <ele>965.8</ele>
        <time>2021-10-10T13:53:59Z</time>
      </trkpt>
      <trkpt lat="43.0178860" lon="-5.8899970">
        <ele>966.2</ele>
        <time>2021-10-10T13:54:01Z</time>
      </trkpt>
      <trkpt lat="43.0178570" lon="-5.8900770">
        <ele>966.6</ele>
        <time>2021-10-10T13:54:05Z</time>
      </trkpt>
      <trkpt lat="43.0178310" lon="-5.8901370">
        <ele>967.0</ele>
        <time>2021-10-10T13:54:08Z</time>
      </trkpt>
      <trkpt lat="43.0178220" lon="-5.8901580">
        <ele>967.2</ele>
        <time>2021-10-10T13:54:09Z</time>
      </trkpt>
      <trkpt lat="43.0178130" lon="-5.8901790">
        <ele>967.6</ele>
        <time>2021-10-10T13:54:10Z</time>
      </trkpt>
      <trkpt lat="43.0178010" lon="-5.8902480">
        <ele>968.2</ele>
        <time>2021-10-10T13:54:13Z</time>
      </trkpt>
      <trkpt lat="43.0177980" lon="-5.8902720">
        <ele>968.2</ele>
        <time>2021-10-10T13:54:14Z</time>
      </trkpt>
      <trkpt lat="43.0177950" lon="-5.8902970">
        <ele>968.6</ele>
        <time>2021-10-10T13:54:15Z</time>
      </trkpt>
      <trkpt lat="43.0177780" lon="-5.8903650">
        <ele>969.0</ele>
        <time>2021-10-10T13:54:18Z</time>
      </trkpt>
      <trkpt lat="43.0177440" lon="-5.8905150">
        <ele>969.6</ele>
        <time>2021-10-10T13:54:25Z</time>
      </trkpt>
      <trkpt lat="43.0177390" lon="-5.8905390">
        <ele>969.8</ele>
        <time>2021-10-10T13:54:26Z</time>
      </trkpt>
      <trkpt lat="43.0177240" lon="-5.8907090">
        <ele>970.6</ele>
        <time>2021-10-10T13:54:33Z</time>
      </trkpt>
      <trkpt lat="43.0177250" lon="-5.8907330">
        <ele>970.8</ele>
        <time>2021-10-10T13:54:34Z</time>
      </trkpt>
      <trkpt lat="43.0177810" lon="-5.8908690">
        <ele>972.0</ele>
        <time>2021-10-10T13:54:41Z</time>
      </trkpt>
      <trkpt lat="43.0178560" lon="-5.8909350">
        <ele>972.6</ele>
        <time>2021-10-10T13:54:47Z</time>
      </trkpt>
      <trkpt lat="43.0178850" lon="-5.8909500">
        <ele>973.0</ele>
        <time>2021-10-10T13:54:49Z</time>
      </trkpt>
      <trkpt lat="43.0179020" lon="-5.8909610">
        <ele>973.0</ele>
        <time>2021-10-10T13:54:50Z</time>
      </trkpt>
      <trkpt lat="43.0179300" lon="-5.8909860">
        <ele>973.2</ele>
        <time>2021-10-10T13:54:52Z</time>
      </trkpt>
      <trkpt lat="43.0179590" lon="-5.8910120">
        <ele>973.4</ele>
        <time>2021-10-10T13:54:54Z</time>
      </trkpt>
      <trkpt lat="43.0180010" lon="-5.8910510">
        <ele>973.8</ele>
        <time>2021-10-10T13:54:57Z</time>
      </trkpt>
      <trkpt lat="43.0180530" lon="-5.8911150">
        <ele>974.2</ele>
        <time>2021-10-10T13:55:01Z</time>
      </trkpt>
      <trkpt lat="43.0180840" lon="-5.8911690">
        <ele>974.6</ele>
        <time>2021-10-10T13:55:04Z</time>
      </trkpt>
      <trkpt lat="43.0181430" lon="-5.8912930">
        <ele>975.4</ele>
        <time>2021-10-10T13:55:10Z</time>
      </trkpt>
      <trkpt lat="43.0181570" lon="-5.8913320">
        <ele>975.4</ele>
        <time>2021-10-10T13:55:12Z</time>
      </trkpt>
      <trkpt lat="43.0181790" lon="-5.8913940">
        <ele>975.8</ele>
        <time>2021-10-10T13:55:15Z</time>
      </trkpt>
      <trkpt lat="43.0182090" lon="-5.8914730">
        <ele>976.4</ele>
        <time>2021-10-10T13:55:19Z</time>
      </trkpt>
      <trkpt lat="43.0182150" lon="-5.8914930">
        <ele>976.6</ele>
        <time>2021-10-10T13:55:20Z</time>
      </trkpt>
      <trkpt lat="43.0182420" lon="-5.8916310">
        <ele>977.0</ele>
        <time>2021-10-10T13:55:26Z</time>
      </trkpt>
      <trkpt lat="43.0182450" lon="-5.8916540">
        <ele>977.0</ele>
        <time>2021-10-10T13:55:27Z</time>
      </trkpt>
      <trkpt lat="43.0182500" lon="-5.8917000">
        <ele>977.2</ele>
        <time>2021-10-10T13:55:29Z</time>
      </trkpt>
      <trkpt lat="43.0182520" lon="-5.8917250">
        <ele>977.4</ele>
        <time>2021-10-10T13:55:30Z</time>
      </trkpt>
      <trkpt lat="43.0182520" lon="-5.8918220">
        <ele>977.8</ele>
        <time>2021-10-10T13:55:34Z</time>
      </trkpt>
      <trkpt lat="43.0182600" lon="-5.8919190">
        <ele>978.2</ele>
        <time>2021-10-10T13:55:38Z</time>
      </trkpt>
      <trkpt lat="43.0182630" lon="-5.8919400">
        <ele>978.4</ele>
        <time>2021-10-10T13:55:39Z</time>
      </trkpt>
      <trkpt lat="43.0182730" lon="-5.8919830">
        <ele>978.6</ele>
        <time>2021-10-10T13:55:41Z</time>
      </trkpt>
      <trkpt lat="43.0182800" lon="-5.8921270">
        <ele>979.4</ele>
        <time>2021-10-10T13:55:48Z</time>
      </trkpt>
      <trkpt lat="43.0182830" lon="-5.8921510">
        <ele>979.4</ele>
        <time>2021-10-10T13:55:49Z</time>
      </trkpt>
      <trkpt lat="43.0182870" lon="-5.8922020">
        <ele>979.8</ele>
        <time>2021-10-10T13:55:51Z</time>
      </trkpt>
      <trkpt lat="43.0183020" lon="-5.8922800">
        <ele>980.6</ele>
        <time>2021-10-10T13:55:55Z</time>
      </trkpt>
      <trkpt lat="43.0183260" lon="-5.8923430">
        <ele>981.0</ele>
        <time>2021-10-10T13:55:58Z</time>
      </trkpt>
      <trkpt lat="43.0183300" lon="-5.8923660">
        <ele>981.2</ele>
        <time>2021-10-10T13:55:59Z</time>
      </trkpt>
      <trkpt lat="43.0183540" lon="-5.8924390">
        <ele>981.8</ele>
        <time>2021-10-10T13:56:03Z</time>
      </trkpt>
      <trkpt lat="43.0183680" lon="-5.8924550">
        <ele>981.8</ele>
        <time>2021-10-10T13:56:04Z</time>
      </trkpt>
      <trkpt lat="43.0183810" lon="-5.8924720">
        <ele>982.0</ele>
        <time>2021-10-10T13:56:05Z</time>
      </trkpt>
      <trkpt lat="43.0184040" lon="-5.8925060">
        <ele>982.2</ele>
        <time>2021-10-10T13:56:07Z</time>
      </trkpt>
      <trkpt lat="43.0184290" lon="-5.8925380">
        <ele>982.4</ele>
        <time>2021-10-10T13:56:09Z</time>
      </trkpt>
      <trkpt lat="43.0184540" lon="-5.8925750">
        <ele>982.8</ele>
        <time>2021-10-10T13:56:11Z</time>
      </trkpt>
      <trkpt lat="43.0184680" lon="-5.8925940">
        <ele>983.0</ele>
        <time>2021-10-10T13:56:12Z</time>
      </trkpt>
      <trkpt lat="43.0184830" lon="-5.8926080">
        <ele>983.0</ele>
        <time>2021-10-10T13:56:13Z</time>
      </trkpt>
      <trkpt lat="43.0185110" lon="-5.8926420">
        <ele>983.2</ele>
        <time>2021-10-10T13:56:15Z</time>
      </trkpt>
      <trkpt lat="43.0185590" lon="-5.8927320">
        <ele>983.8</ele>
        <time>2021-10-10T13:56:20Z</time>
      </trkpt>
      <trkpt lat="43.0185650" lon="-5.8927760">
        <ele>984.0</ele>
        <time>2021-10-10T13:56:22Z</time>
      </trkpt>
      <trkpt lat="43.0185890" lon="-5.8928670">
        <ele>984.6</ele>
        <time>2021-10-10T13:56:27Z</time>
      </trkpt>
      <trkpt lat="43.0185950" lon="-5.8928850">
        <ele>984.8</ele>
        <time>2021-10-10T13:56:28Z</time>
      </trkpt>
      <trkpt lat="43.0186030" lon="-5.8929040">
        <ele>984.8</ele>
        <time>2021-10-10T13:56:29Z</time>
      </trkpt>
      <trkpt lat="43.0186280" lon="-5.8929680">
        <ele>985.0</ele>
        <time>2021-10-10T13:56:32Z</time>
      </trkpt>
      <trkpt lat="43.0186670" lon="-5.8930540">
        <ele>985.8</ele>
        <time>2021-10-10T13:56:37Z</time>
      </trkpt>
      <trkpt lat="43.0186920" lon="-5.8931220">
        <ele>986.0</ele>
        <time>2021-10-10T13:56:40Z</time>
      </trkpt>
      <trkpt lat="43.0187140" lon="-5.8931650">
        <ele>986.4</ele>
        <time>2021-10-10T13:56:42Z</time>
      </trkpt>
      <trkpt lat="43.0187370" lon="-5.8932520">
        <ele>987.0</ele>
        <time>2021-10-10T13:56:46Z</time>
      </trkpt>
      <trkpt lat="43.0187450" lon="-5.8932940">
        <ele>987.2</ele>
        <time>2021-10-10T13:56:48Z</time>
      </trkpt>
      <trkpt lat="43.0187730" lon="-5.8934570">
        <ele>987.8</ele>
        <time>2021-10-10T13:56:55Z</time>
      </trkpt>
      <trkpt lat="43.0187770" lon="-5.8935270">
        <ele>988.2</ele>
        <time>2021-10-10T13:56:58Z</time>
      </trkpt>
      <trkpt lat="43.0187740" lon="-5.8935760">
        <ele>988.4</ele>
        <time>2021-10-10T13:57:00Z</time>
      </trkpt>
      <trkpt lat="43.0187700" lon="-5.8937000">
        <ele>988.6</ele>
        <time>2021-10-10T13:57:05Z</time>
      </trkpt>
      <trkpt lat="43.0187600" lon="-5.8938290">
        <ele>989.2</ele>
        <time>2021-10-10T13:57:10Z</time>
      </trkpt>
      <trkpt lat="43.0187430" lon="-5.8939260">
        <ele>989.8</ele>
        <time>2021-10-10T13:57:14Z</time>
      </trkpt>
      <trkpt lat="43.0187340" lon="-5.8939550">
        <ele>990.0</ele>
        <time>2021-10-10T13:57:15Z</time>
      </trkpt>
      <trkpt lat="43.0187250" lon="-5.8940010">
        <ele>990.2</ele>
        <time>2021-10-10T13:57:17Z</time>
      </trkpt>
      <trkpt lat="43.0187190" lon="-5.8940480">
        <ele>990.4</ele>
        <time>2021-10-10T13:57:19Z</time>
      </trkpt>
      <trkpt lat="43.0187130" lon="-5.8940810">
        <ele>990.4</ele>
        <time>2021-10-10T13:57:20Z</time>
      </trkpt>
      <trkpt lat="43.0186960" lon="-5.8941800">
        <ele>990.6</ele>
        <time>2021-10-10T13:57:24Z</time>
      </trkpt>
      <trkpt lat="43.0186840" lon="-5.8942370">
        <ele>990.8</ele>
        <time>2021-10-10T13:57:26Z</time>
      </trkpt>
      <trkpt lat="43.0186730" lon="-5.8943050">
        <ele>990.8</ele>
        <time>2021-10-10T13:57:29Z</time>
      </trkpt>
      <trkpt lat="43.0186630" lon="-5.8943730">
        <ele>991.2</ele>
        <time>2021-10-10T13:57:32Z</time>
      </trkpt>
      <trkpt lat="43.0186320" lon="-5.8945100">
        <ele>991.8</ele>
        <time>2021-10-10T13:57:38Z</time>
      </trkpt>
      <trkpt lat="43.0186170" lon="-5.8945820">
        <ele>991.8</ele>
        <time>2021-10-10T13:57:41Z</time>
      </trkpt>
      <trkpt lat="43.0186050" lon="-5.8946340">
        <ele>992.0</ele>
        <time>2021-10-10T13:57:43Z</time>
      </trkpt>
      <trkpt lat="43.0185640" lon="-5.8947890">
        <ele>992.6</ele>
        <time>2021-10-10T13:57:50Z</time>
      </trkpt>
      <trkpt lat="43.0185560" lon="-5.8948340">
        <ele>992.8</ele>
        <time>2021-10-10T13:57:52Z</time>
      </trkpt>
      <trkpt lat="43.0185250" lon="-5.8949690">
        <ele>993.4</ele>
        <time>2021-10-10T13:57:58Z</time>
      </trkpt>
      <trkpt lat="43.0185070" lon="-5.8950390">
        <ele>993.6</ele>
        <time>2021-10-10T13:58:01Z</time>
      </trkpt>
      <trkpt lat="43.0184950" lon="-5.8950860">
        <ele>993.8</ele>
        <time>2021-10-10T13:58:03Z</time>
      </trkpt>
      <trkpt lat="43.0184920" lon="-5.8951070">
        <ele>994.0</ele>
        <time>2021-10-10T13:58:04Z</time>
      </trkpt>
      <trkpt lat="43.0184630" lon="-5.8952250">
        <ele>994.4</ele>
        <time>2021-10-10T13:58:09Z</time>
      </trkpt>
      <trkpt lat="43.0184520" lon="-5.8952760">
        <ele>994.6</ele>
        <time>2021-10-10T13:58:11Z</time>
      </trkpt>
      <trkpt lat="43.0184410" lon="-5.8953290">
        <ele>994.8</ele>
        <time>2021-10-10T13:58:13Z</time>
      </trkpt>
      <trkpt lat="43.0184370" lon="-5.8953520">
        <ele>995.0</ele>
        <time>2021-10-10T13:58:14Z</time>
      </trkpt>
      <trkpt lat="43.0184360" lon="-5.8953770">
        <ele>995.0</ele>
        <time>2021-10-10T13:58:15Z</time>
      </trkpt>
      <trkpt lat="43.0184380" lon="-5.8954560">
        <ele>995.4</ele>
        <time>2021-10-10T13:58:18Z</time>
      </trkpt>
      <trkpt lat="43.0184410" lon="-5.8954850">
        <ele>995.4</ele>
        <time>2021-10-10T13:58:19Z</time>
      </trkpt>
      <trkpt lat="43.0184610" lon="-5.8955680">
        <ele>995.8</ele>
        <time>2021-10-10T13:58:22Z</time>
      </trkpt>
      <trkpt lat="43.0184680" lon="-5.8955960">
        <ele>996.2</ele>
        <time>2021-10-10T13:58:23Z</time>
      </trkpt>
      <trkpt lat="43.0184820" lon="-5.8956510">
        <ele>996.2</ele>
        <time>2021-10-10T13:58:25Z</time>
      </trkpt>
      <trkpt lat="43.0184870" lon="-5.8956780">
        <ele>996.4</ele>
        <time>2021-10-10T13:58:26Z</time>
      </trkpt>
      <trkpt lat="43.0184880" lon="-5.8957080">
        <ele>996.6</ele>
        <time>2021-10-10T13:58:27Z</time>
      </trkpt>
      <trkpt lat="43.0184890" lon="-5.8958430">
        <ele>996.8</ele>
        <time>2021-10-10T13:58:31Z</time>
      </trkpt>
      <trkpt lat="43.0184580" lon="-5.8959660">
        <ele>997.2</ele>
        <time>2021-10-10T13:58:35Z</time>
      </trkpt>
      <trkpt lat="43.0184070" lon="-5.8960660">
        <ele>997.2</ele>
        <time>2021-10-10T13:58:38Z</time>
      </trkpt>
      <trkpt lat="43.0182640" lon="-5.8963020">
        <ele>997.6</ele>
        <time>2021-10-10T13:58:45Z</time>
      </trkpt>
      <trkpt lat="43.0182530" lon="-5.8964300">
        <ele>997.6</ele>
        <time>2021-10-10T13:58:48Z</time>
      </trkpt>
      <trkpt lat="43.0182630" lon="-5.8965120">
        <ele>997.8</ele>
        <time>2021-10-10T13:58:50Z</time>
      </trkpt>
      <trkpt lat="43.0182790" lon="-5.8965990">
        <ele>998.0</ele>
        <time>2021-10-10T13:58:52Z</time>
      </trkpt>
      <trkpt lat="43.0182930" lon="-5.8966360">
        <ele>998.2</ele>
        <time>2021-10-10T13:58:53Z</time>
      </trkpt>
      <trkpt lat="43.0183180" lon="-5.8967140">
        <ele>998.4</ele>
        <time>2021-10-10T13:58:55Z</time>
      </trkpt>
      <trkpt lat="43.0183270" lon="-5.8967480">
        <ele>998.4</ele>
        <time>2021-10-10T13:58:56Z</time>
      </trkpt>
      <trkpt lat="43.0183520" lon="-5.8968200">
        <ele>998.6</ele>
        <time>2021-10-10T13:58:58Z</time>
      </trkpt>
      <trkpt lat="43.0183840" lon="-5.8968690">
        <ele>998.6</ele>
        <time>2021-10-10T13:59:00Z</time>
      </trkpt>
      <trkpt lat="43.0184010" lon="-5.8968900">
        <ele>998.6</ele>
        <time>2021-10-10T13:59:01Z</time>
      </trkpt>
      <trkpt lat="43.0184340" lon="-5.8969350">
        <ele>998.8</ele>
        <time>2021-10-10T13:59:03Z</time>
      </trkpt>
      <trkpt lat="43.0184970" lon="-5.8969890">
        <ele>999.0</ele>
        <time>2021-10-10T13:59:06Z</time>
      </trkpt>
      <trkpt lat="43.0185580" lon="-5.8970370">
        <ele>999.4</ele>
        <time>2021-10-10T13:59:09Z</time>
      </trkpt>
      <trkpt lat="43.0186220" lon="-5.8970840">
        <ele>999.8</ele>
        <time>2021-10-10T13:59:12Z</time>
      </trkpt>
      <trkpt lat="43.0186860" lon="-5.8971130">
        <ele>1000.4</ele>
        <time>2021-10-10T13:59:15Z</time>
      </trkpt>
      <trkpt lat="43.0187220" lon="-5.8971370">
        <ele>1000.6</ele>
        <time>2021-10-10T13:59:17Z</time>
      </trkpt>
      <trkpt lat="43.0187980" lon="-5.8971840">
        <ele>1001.2</ele>
        <time>2021-10-10T13:59:21Z</time>
      </trkpt>
      <trkpt lat="43.0188320" lon="-5.8972150">
        <ele>1001.4</ele>
        <time>2021-10-10T13:59:23Z</time>
      </trkpt>
      <trkpt lat="43.0188470" lon="-5.8972320">
        <ele>1001.4</ele>
        <time>2021-10-10T13:59:24Z</time>
      </trkpt>
      <trkpt lat="43.0188810" lon="-5.8972690">
        <ele>1001.6</ele>
        <time>2021-10-10T13:59:26Z</time>
      </trkpt>
      <trkpt lat="43.0189080" lon="-5.8973070">
        <ele>1002.0</ele>
        <time>2021-10-10T13:59:28Z</time>
      </trkpt>
      <trkpt lat="43.0189470" lon="-5.8973660">
        <ele>1002.4</ele>
        <time>2021-10-10T13:59:31Z</time>
      </trkpt>
      <trkpt lat="43.0189580" lon="-5.8973820">
        <ele>1002.6</ele>
        <time>2021-10-10T13:59:32Z</time>
      </trkpt>
      <trkpt lat="43.0190310" lon="-5.8974940">
        <ele>1003.4</ele>
        <time>2021-10-10T13:59:38Z</time>
      </trkpt>
      <trkpt lat="43.0190470" lon="-5.8975470">
        <ele>1003.6</ele>
        <time>2021-10-10T13:59:40Z</time>
      </trkpt>
      <trkpt lat="43.0190540" lon="-5.8975690">
        <ele>1003.8</ele>
        <time>2021-10-10T13:59:41Z</time>
      </trkpt>
      <trkpt lat="43.0190660" lon="-5.8975870">
        <ele>1004.0</ele>
        <time>2021-10-10T13:59:42Z</time>
      </trkpt>
      <trkpt lat="43.0190970" lon="-5.8976990">
        <ele>1004.6</ele>
        <time>2021-10-10T13:59:47Z</time>
      </trkpt>
      <trkpt lat="43.0191020" lon="-5.8977280">
        <ele>1004.6</ele>
        <time>2021-10-10T13:59:48Z</time>
      </trkpt>
      <trkpt lat="43.0191010" lon="-5.8977510">
        <ele>1004.8</ele>
        <time>2021-10-10T13:59:49Z</time>
      </trkpt>
      <trkpt lat="43.0191030" lon="-5.8977760">
        <ele>1004.8</ele>
        <time>2021-10-10T13:59:50Z</time>
      </trkpt>
      <trkpt lat="43.0191130" lon="-5.8977990">
        <ele>1005.0</ele>
        <time>2021-10-10T13:59:51Z</time>
      </trkpt>
      <trkpt lat="43.0191360" lon="-5.8978730">
        <ele>1005.6</ele>
        <time>2021-10-10T13:59:55Z</time>
      </trkpt>
      <trkpt lat="43.0191420" lon="-5.8978920">
        <ele>1005.8</ele>
        <time>2021-10-10T13:59:56Z</time>
      </trkpt>
      <trkpt lat="43.0191480" lon="-5.8979110">
        <ele>1005.8</ele>
        <time>2021-10-10T13:59:57Z</time>
      </trkpt>
      <trkpt lat="43.0191610" lon="-5.8979560">
        <ele>1006.0</ele>
        <time>2021-10-10T13:59:59Z</time>
      </trkpt>
      <trkpt lat="43.0191720" lon="-5.8979920">
        <ele>1006.0</ele>
        <time>2021-10-10T14:00:01Z</time>
      </trkpt>
      <trkpt lat="43.0192070" lon="-5.8980630">
        <ele>1006.4</ele>
        <time>2021-10-10T14:00:05Z</time>
      </trkpt>
      <trkpt lat="43.0192180" lon="-5.8980970">
        <ele>1006.8</ele>
        <time>2021-10-10T14:00:07Z</time>
      </trkpt>
      <trkpt lat="43.0192230" lon="-5.8981160">
        <ele>1006.8</ele>
        <time>2021-10-10T14:00:08Z</time>
      </trkpt>
      <trkpt lat="43.0192290" lon="-5.8981360">
        <ele>1006.6</ele>
        <time>2021-10-10T14:00:09Z</time>
      </trkpt>
      <trkpt lat="43.0192400" lon="-5.8981710">
        <ele>1006.8</ele>
        <time>2021-10-10T14:00:11Z</time>
      </trkpt>
      <trkpt lat="43.0192560" lon="-5.8982030">
        <ele>1007.2</ele>
        <time>2021-10-10T14:00:13Z</time>
      </trkpt>
      <trkpt lat="43.0192720" lon="-5.8982570">
        <ele>1007.6</ele>
        <time>2021-10-10T14:00:16Z</time>
      </trkpt>
      <trkpt lat="43.0192850" lon="-5.8982830">
        <ele>1008.0</ele>
        <time>2021-10-10T14:00:18Z</time>
      </trkpt>
      <trkpt lat="43.0193100" lon="-5.8983310">
        <ele>1008.4</ele>
        <time>2021-10-10T14:00:21Z</time>
      </trkpt>
      <trkpt lat="43.0193260" lon="-5.8983630">
        <ele>1008.6</ele>
        <time>2021-10-10T14:00:23Z</time>
      </trkpt>
      <trkpt lat="43.0193540" lon="-5.8984060">
        <ele>1009.0</ele>
        <time>2021-10-10T14:00:26Z</time>
      </trkpt>
      <trkpt lat="43.0193930" lon="-5.8984800">
        <ele>1009.6</ele>
        <time>2021-10-10T14:00:31Z</time>
      </trkpt>
      <trkpt lat="43.0194020" lon="-5.8984960">
        <ele>1009.8</ele>
        <time>2021-10-10T14:00:32Z</time>
      </trkpt>
      <trkpt lat="43.0194200" lon="-5.8985300">
        <ele>1009.8</ele>
        <time>2021-10-10T14:00:34Z</time>
      </trkpt>
      <trkpt lat="43.0194290" lon="-5.8985450">
        <ele>1010.0</ele>
        <time>2021-10-10T14:00:35Z</time>
      </trkpt>
      <trkpt lat="43.0194390" lon="-5.8985600">
        <ele>1010.0</ele>
        <time>2021-10-10T14:00:36Z</time>
      </trkpt>
      <trkpt lat="43.0194550" lon="-5.8986000">
        <ele>1010.2</ele>
        <time>2021-10-10T14:00:38Z</time>
      </trkpt>
      <trkpt lat="43.0194550" lon="-5.8986540">
        <ele>1010.4</ele>
        <time>2021-10-10T14:00:40Z</time>
      </trkpt>
      <trkpt lat="43.0194750" lon="-5.8987140">
        <ele>1010.6</ele>
        <time>2021-10-10T14:00:43Z</time>
      </trkpt>
      <trkpt lat="43.0194820" lon="-5.8987390">
        <ele>1010.8</ele>
        <time>2021-10-10T14:00:44Z</time>
      </trkpt>
      <trkpt lat="43.0194920" lon="-5.8987860">
        <ele>1011.0</ele>
        <time>2021-10-10T14:00:46Z</time>
      </trkpt>
      <trkpt lat="43.0195000" lon="-5.8988040">
        <ele>1011.0</ele>
        <time>2021-10-10T14:00:47Z</time>
      </trkpt>
      <trkpt lat="43.0195220" lon="-5.8988370">
        <ele>1011.2</ele>
        <time>2021-10-10T14:00:49Z</time>
      </trkpt>
      <trkpt lat="43.0195580" lon="-5.8988860">
        <ele>1011.6</ele>
        <time>2021-10-10T14:00:52Z</time>
      </trkpt>
      <trkpt lat="43.0195700" lon="-5.8989050">
        <ele>1011.6</ele>
        <time>2021-10-10T14:00:53Z</time>
      </trkpt>
      <trkpt lat="43.0195940" lon="-5.8989740">
        <ele>1012.0</ele>
        <time>2021-10-10T14:00:56Z</time>
      </trkpt>
      <trkpt lat="43.0196120" lon="-5.8990090">
        <ele>1012.2</ele>
        <time>2021-10-10T14:00:58Z</time>
      </trkpt>
      <trkpt lat="43.0196300" lon="-5.8990450">
        <ele>1012.4</ele>
        <time>2021-10-10T14:01:00Z</time>
      </trkpt>
      <trkpt lat="43.0196460" lon="-5.8990780">
        <ele>1012.8</ele>
        <time>2021-10-10T14:01:02Z</time>
      </trkpt>
      <trkpt lat="43.0196660" lon="-5.8991080">
        <ele>1013.2</ele>
        <time>2021-10-10T14:01:04Z</time>
      </trkpt>
      <trkpt lat="43.0196890" lon="-5.8991390">
        <ele>1013.6</ele>
        <time>2021-10-10T14:01:06Z</time>
      </trkpt>
      <trkpt lat="43.0197030" lon="-5.8991510">
        <ele>1013.8</ele>
        <time>2021-10-10T14:01:07Z</time>
      </trkpt>
      <trkpt lat="43.0197210" lon="-5.8991670">
        <ele>1014.0</ele>
        <time>2021-10-10T14:01:08Z</time>
      </trkpt>
      <trkpt lat="43.0197450" lon="-5.8991910">
        <ele>1014.2</ele>
        <time>2021-10-10T14:01:10Z</time>
      </trkpt>
      <trkpt lat="43.0197910" lon="-5.8992510">
        <ele>1014.4</ele>
        <time>2021-10-10T14:01:14Z</time>
      </trkpt>
      <trkpt lat="43.0198050" lon="-5.8992680">
        <ele>1014.6</ele>
        <time>2021-10-10T14:01:15Z</time>
      </trkpt>
      <trkpt lat="43.0198460" lon="-5.8993180">
        <ele>1014.8</ele>
        <time>2021-10-10T14:01:18Z</time>
      </trkpt>
      <trkpt lat="43.0198770" lon="-5.8993740">
        <ele>1015.2</ele>
        <time>2021-10-10T14:01:21Z</time>
      </trkpt>
      <trkpt lat="43.0199020" lon="-5.8994010">
        <ele>1015.6</ele>
        <time>2021-10-10T14:01:23Z</time>
      </trkpt>
      <trkpt lat="43.0199170" lon="-5.8994070">
        <ele>1015.8</ele>
        <time>2021-10-10T14:01:24Z</time>
      </trkpt>
      <trkpt lat="43.0199710" lon="-5.8994470">
        <ele>1016.6</ele>
        <time>2021-10-10T14:01:28Z</time>
      </trkpt>
      <trkpt lat="43.0199950" lon="-5.8994740">
        <ele>1016.8</ele>
        <time>2021-10-10T14:01:30Z</time>
      </trkpt>
      <trkpt lat="43.0200060" lon="-5.8994930">
        <ele>1016.8</ele>
        <time>2021-10-10T14:01:31Z</time>
      </trkpt>
      <trkpt lat="43.0200230" lon="-5.8995440">
        <ele>1017.0</ele>
        <time>2021-10-10T14:01:33Z</time>
      </trkpt>
      <trkpt lat="43.0200490" lon="-5.8995790">
        <ele>1017.2</ele>
        <time>2021-10-10T14:01:35Z</time>
      </trkpt>
      <trkpt lat="43.0200750" lon="-5.8996040">
        <ele>1017.4</ele>
        <time>2021-10-10T14:01:37Z</time>
      </trkpt>
      <trkpt lat="43.0200870" lon="-5.8996190">
        <ele>1017.4</ele>
        <time>2021-10-10T14:01:38Z</time>
      </trkpt>
      <trkpt lat="43.0201100" lon="-5.8996490">
        <ele>1017.6</ele>
        <time>2021-10-10T14:01:40Z</time>
      </trkpt>
      <trkpt lat="43.0201200" lon="-5.8996650">
        <ele>1018.0</ele>
        <time>2021-10-10T14:01:41Z</time>
      </trkpt>
      <trkpt lat="43.0201790" lon="-5.8997640">
        <ele>1018.6</ele>
        <time>2021-10-10T14:01:47Z</time>
      </trkpt>
      <trkpt lat="43.0202030" lon="-5.8998000">
        <ele>1019.0</ele>
        <time>2021-10-10T14:01:49Z</time>
      </trkpt>
      <trkpt lat="43.0202170" lon="-5.8998180">
        <ele>1019.0</ele>
        <time>2021-10-10T14:01:50Z</time>
      </trkpt>
      <trkpt lat="43.0202290" lon="-5.8998340">
        <ele>1019.2</ele>
        <time>2021-10-10T14:01:51Z</time>
      </trkpt>
      <trkpt lat="43.0202520" lon="-5.8998630">
        <ele>1019.4</ele>
        <time>2021-10-10T14:01:53Z</time>
      </trkpt>
      <trkpt lat="43.0202730" lon="-5.8998890">
        <ele>1019.8</ele>
        <time>2021-10-10T14:01:55Z</time>
      </trkpt>
      <trkpt lat="43.0202860" lon="-5.8998980">
        <ele>1019.8</ele>
        <time>2021-10-10T14:01:56Z</time>
      </trkpt>
      <trkpt lat="43.0203020" lon="-5.8999130">
        <ele>1020.0</ele>
        <time>2021-10-10T14:01:57Z</time>
      </trkpt>
      <trkpt lat="43.0203260" lon="-5.8999280">
        <ele>1020.2</ele>
        <time>2021-10-10T14:01:59Z</time>
      </trkpt>
      <trkpt lat="43.0203430" lon="-5.8999590">
        <ele>1020.4</ele>
        <time>2021-10-10T14:02:01Z</time>
      </trkpt>
      <trkpt lat="43.0203810" lon="-5.8999970">
        <ele>1020.8</ele>
        <time>2021-10-10T14:02:04Z</time>
      </trkpt>
      <trkpt lat="43.0204120" lon="-5.9000260">
        <ele>1021.0</ele>
        <time>2021-10-10T14:02:06Z</time>
      </trkpt>
      <trkpt lat="43.0204680" lon="-5.9000670">
        <ele>1021.4</ele>
        <time>2021-10-10T14:02:10Z</time>
      </trkpt>
      <trkpt lat="43.0205210" lon="-5.9001080">
        <ele>1021.8</ele>
        <time>2021-10-10T14:02:14Z</time>
      </trkpt>
      <trkpt lat="43.0205500" lon="-5.9001310">
        <ele>1022.0</ele>
        <time>2021-10-10T14:02:16Z</time>
      </trkpt>
      <trkpt lat="43.0206220" lon="-5.9001790">
        <ele>1022.6</ele>
        <time>2021-10-10T14:02:21Z</time>
      </trkpt>
      <trkpt lat="43.0206760" lon="-5.9002230">
        <ele>1023.4</ele>
        <time>2021-10-10T14:02:25Z</time>
      </trkpt>
      <trkpt lat="43.0207310" lon="-5.9002710">
        <ele>1023.6</ele>
        <time>2021-10-10T14:02:29Z</time>
      </trkpt>
      <trkpt lat="43.0207440" lon="-5.9002820">
        <ele>1023.6</ele>
        <time>2021-10-10T14:02:30Z</time>
      </trkpt>
      <trkpt lat="43.0207740" lon="-5.9002970">
        <ele>1024.2</ele>
        <time>2021-10-10T14:02:32Z</time>
      </trkpt>
      <trkpt lat="43.0207880" lon="-5.9003050">
        <ele>1024.4</ele>
        <time>2021-10-10T14:02:33Z</time>
      </trkpt>
      <trkpt lat="43.0208010" lon="-5.9003150">
        <ele>1024.6</ele>
        <time>2021-10-10T14:02:34Z</time>
      </trkpt>
      <trkpt lat="43.0208150" lon="-5.9003260">
        <ele>1024.8</ele>
        <time>2021-10-10T14:02:35Z</time>
      </trkpt>
      <trkpt lat="43.0208300" lon="-5.9003390">
        <ele>1024.8</ele>
        <time>2021-10-10T14:02:36Z</time>
      </trkpt>
      <trkpt lat="43.0208400" lon="-5.9003500">
        <ele>1025.0</ele>
        <time>2021-10-10T14:02:37Z</time>
      </trkpt>
      <trkpt lat="43.0208630" lon="-5.9003730">
        <ele>1025.2</ele>
        <time>2021-10-10T14:02:39Z</time>
      </trkpt>
      <trkpt lat="43.0208910" lon="-5.9003920">
        <ele>1025.4</ele>
        <time>2021-10-10T14:02:41Z</time>
      </trkpt>
      <trkpt lat="43.0209020" lon="-5.9004020">
        <ele>1025.6</ele>
        <time>2021-10-10T14:02:42Z</time>
      </trkpt>
      <trkpt lat="43.0209150" lon="-5.9004140">
        <ele>1025.8</ele>
        <time>2021-10-10T14:02:43Z</time>
      </trkpt>
      <trkpt lat="43.0209380" lon="-5.9004380">
        <ele>1026.0</ele>
        <time>2021-10-10T14:02:45Z</time>
      </trkpt>
      <trkpt lat="43.0209740" lon="-5.9004740">
        <ele>1026.6</ele>
        <time>2021-10-10T14:02:48Z</time>
      </trkpt>
      <trkpt lat="43.0210010" lon="-5.9005070">
        <ele>1027.0</ele>
        <time>2021-10-10T14:02:51Z</time>
      </trkpt>
      <trkpt lat="43.0210370" lon="-5.9005350">
        <ele>1027.6</ele>
        <time>2021-10-10T14:02:54Z</time>
      </trkpt>
      <trkpt lat="43.0210520" lon="-5.9005420">
        <ele>1027.6</ele>
        <time>2021-10-10T14:02:55Z</time>
      </trkpt>
      <trkpt lat="43.0210700" lon="-5.9005660">
        <ele>1027.8</ele>
        <time>2021-10-10T14:02:57Z</time>
      </trkpt>
      <trkpt lat="43.0211000" lon="-5.9005950">
        <ele>1028.2</ele>
        <time>2021-10-10T14:02:59Z</time>
      </trkpt>
      <trkpt lat="43.0211380" lon="-5.9006300">
        <ele>1028.6</ele>
        <time>2021-10-10T14:03:02Z</time>
      </trkpt>
      <trkpt lat="43.0211550" lon="-5.9006420">
        <ele>1028.8</ele>
        <time>2021-10-10T14:03:03Z</time>
      </trkpt>
      <trkpt lat="43.0211630" lon="-5.9006510">
        <ele>1028.8</ele>
        <time>2021-10-10T14:03:04Z</time>
      </trkpt>
      <trkpt lat="43.0211910" lon="-5.9006750">
        <ele>1029.2</ele>
        <time>2021-10-10T14:03:06Z</time>
      </trkpt>
      <trkpt lat="43.0212230" lon="-5.9007250">
        <ele>1029.8</ele>
        <time>2021-10-10T14:03:09Z</time>
      </trkpt>
      <trkpt lat="43.0212360" lon="-5.9007330">
        <ele>1030.0</ele>
        <time>2021-10-10T14:03:10Z</time>
      </trkpt>
      <trkpt lat="43.0212670" lon="-5.9007610">
        <ele>1030.0</ele>
        <time>2021-10-10T14:03:12Z</time>
      </trkpt>
      <trkpt lat="43.0212760" lon="-5.9007760">
        <ele>1030.2</ele>
        <time>2021-10-10T14:03:13Z</time>
      </trkpt>
      <trkpt lat="43.0213450" lon="-5.9008410">
        <ele>1030.6</ele>
        <time>2021-10-10T14:03:18Z</time>
      </trkpt>
      <trkpt lat="43.0213570" lon="-5.9008520">
        <ele>1030.8</ele>
        <time>2021-10-10T14:03:19Z</time>
      </trkpt>
      <trkpt lat="43.0213840" lon="-5.9008750">
        <ele>1031.0</ele>
        <time>2021-10-10T14:03:21Z</time>
      </trkpt>
      <trkpt lat="43.0214140" lon="-5.9008980">
        <ele>1031.2</ele>
        <time>2021-10-10T14:03:23Z</time>
      </trkpt>
      <trkpt lat="43.0214400" lon="-5.9009280">
        <ele>1031.4</ele>
        <time>2021-10-10T14:03:25Z</time>
      </trkpt>
      <trkpt lat="43.0214680" lon="-5.9009510">
        <ele>1031.6</ele>
        <time>2021-10-10T14:03:27Z</time>
      </trkpt>
      <trkpt lat="43.0214940" lon="-5.9009780">
        <ele>1031.8</ele>
        <time>2021-10-10T14:03:29Z</time>
      </trkpt>
      <trkpt lat="43.0215460" lon="-5.9010300">
        <ele>1032.6</ele>
        <time>2021-10-10T14:03:33Z</time>
      </trkpt>
      <trkpt lat="43.0215680" lon="-5.9010480">
        <ele>1033.0</ele>
        <time>2021-10-10T14:03:35Z</time>
      </trkpt>
      <trkpt lat="43.0215800" lon="-5.9010550">
        <ele>1033.0</ele>
        <time>2021-10-10T14:03:36Z</time>
      </trkpt>
      <trkpt lat="43.0216100" lon="-5.9010670">
        <ele>1033.2</ele>
        <time>2021-10-10T14:03:38Z</time>
      </trkpt>
      <trkpt lat="43.0216380" lon="-5.9010810">
        <ele>1033.4</ele>
        <time>2021-10-10T14:03:40Z</time>
      </trkpt>
      <trkpt lat="43.0216540" lon="-5.9010880">
        <ele>1033.4</ele>
        <time>2021-10-10T14:03:41Z</time>
      </trkpt>
      <trkpt lat="43.0216810" lon="-5.9011030">
        <ele>1033.6</ele>
        <time>2021-10-10T14:03:43Z</time>
      </trkpt>
      <trkpt lat="43.0217390" lon="-5.9011440">
        <ele>1034.2</ele>
        <time>2021-10-10T14:03:47Z</time>
      </trkpt>
      <trkpt lat="43.0217520" lon="-5.9011590">
        <ele>1034.2</ele>
        <time>2021-10-10T14:03:48Z</time>
      </trkpt>
      <trkpt lat="43.0217620" lon="-5.9011680">
        <ele>1034.4</ele>
        <time>2021-10-10T14:03:49Z</time>
      </trkpt>
      <trkpt lat="43.0217870" lon="-5.9011830">
        <ele>1034.6</ele>
        <time>2021-10-10T14:03:51Z</time>
      </trkpt>
      <trkpt lat="43.0218250" lon="-5.9011960">
        <ele>1035.4</ele>
        <time>2021-10-10T14:03:54Z</time>
      </trkpt>
      <trkpt lat="43.0218460" lon="-5.9012110">
        <ele>1035.6</ele>
        <time>2021-10-10T14:03:56Z</time>
      </trkpt>
      <trkpt lat="43.0218690" lon="-5.9012250">
        <ele>1036.0</ele>
        <time>2021-10-10T14:03:58Z</time>
      </trkpt>
      <trkpt lat="43.0218810" lon="-5.9012340">
        <ele>1036.0</ele>
        <time>2021-10-10T14:03:59Z</time>
      </trkpt>
      <trkpt lat="43.0218950" lon="-5.9012420">
        <ele>1036.2</ele>
        <time>2021-10-10T14:04:00Z</time>
      </trkpt>
      <trkpt lat="43.0219040" lon="-5.9012440">
        <ele>1036.2</ele>
        <time>2021-10-10T14:04:01Z</time>
      </trkpt>
      <trkpt lat="43.0219160" lon="-5.9012470">
        <ele>1036.4</ele>
        <time>2021-10-10T14:04:02Z</time>
      </trkpt>
      <trkpt lat="43.0219270" lon="-5.9012570">
        <ele>1036.4</ele>
        <time>2021-10-10T14:04:03Z</time>
      </trkpt>
      <trkpt lat="43.0219530" lon="-5.9012770">
        <ele>1036.8</ele>
        <time>2021-10-10T14:04:05Z</time>
      </trkpt>
      <trkpt lat="43.0219700" lon="-5.9012890">
        <ele>1036.8</ele>
        <time>2021-10-10T14:04:06Z</time>
      </trkpt>
      <trkpt lat="43.0219960" lon="-5.9013060">
        <ele>1037.2</ele>
        <time>2021-10-10T14:04:08Z</time>
      </trkpt>
      <trkpt lat="43.0220220" lon="-5.9013440">
        <ele>1037.6</ele>
        <time>2021-10-10T14:04:10Z</time>
      </trkpt>
      <trkpt lat="43.0220510" lon="-5.9013640">
        <ele>1037.8</ele>
        <time>2021-10-10T14:04:12Z</time>
      </trkpt>
      <trkpt lat="43.0220950" lon="-5.9013970">
        <ele>1038.2</ele>
        <time>2021-10-10T14:04:15Z</time>
      </trkpt>
      <trkpt lat="43.0221190" lon="-5.9014260">
        <ele>1038.4</ele>
        <time>2021-10-10T14:04:17Z</time>
      </trkpt>
      <trkpt lat="43.0221350" lon="-5.9014440">
        <ele>1038.6</ele>
        <time>2021-10-10T14:04:18Z</time>
      </trkpt>
      <trkpt lat="43.0221500" lon="-5.9014570">
        <ele>1038.6</ele>
        <time>2021-10-10T14:04:19Z</time>
      </trkpt>
      <trkpt lat="43.0221960" lon="-5.9014930">
        <ele>1039.0</ele>
        <time>2021-10-10T14:04:22Z</time>
      </trkpt>
      <trkpt lat="43.0222140" lon="-5.9015100">
        <ele>1039.2</ele>
        <time>2021-10-10T14:04:23Z</time>
      </trkpt>
      <trkpt lat="43.0222420" lon="-5.9015410">
        <ele>1039.4</ele>
        <time>2021-10-10T14:04:25Z</time>
      </trkpt>
      <trkpt lat="43.0222720" lon="-5.9015570">
        <ele>1039.6</ele>
        <time>2021-10-10T14:04:27Z</time>
      </trkpt>
      <trkpt lat="43.0222980" lon="-5.9015630">
        <ele>1039.6</ele>
        <time>2021-10-10T14:04:28Z</time>
      </trkpt>
      <trkpt lat="43.0223130" lon="-5.9015720">
        <ele>1039.6</ele>
        <time>2021-10-10T14:04:29Z</time>
      </trkpt>
      <trkpt lat="43.0223290" lon="-5.9015750">
        <ele>1039.8</ele>
        <time>2021-10-10T14:04:30Z</time>
      </trkpt>
      <trkpt lat="43.0224000" lon="-5.9016550">
        <ele>1040.4</ele>
        <time>2021-10-10T14:04:35Z</time>
      </trkpt>
      <trkpt lat="43.0224170" lon="-5.9016920">
        <ele>1040.6</ele>
        <time>2021-10-10T14:04:37Z</time>
      </trkpt>
      <trkpt lat="43.0224220" lon="-5.9017160">
        <ele>1040.6</ele>
        <time>2021-10-10T14:04:38Z</time>
      </trkpt>
      <trkpt lat="43.0224380" lon="-5.9017570">
        <ele>1040.8</ele>
        <time>2021-10-10T14:04:40Z</time>
      </trkpt>
      <trkpt lat="43.0224520" lon="-5.9018020">
        <ele>1041.0</ele>
        <time>2021-10-10T14:04:42Z</time>
      </trkpt>
      <trkpt lat="43.0224710" lon="-5.9018930">
        <ele>1041.4</ele>
        <time>2021-10-10T14:04:45Z</time>
      </trkpt>
      <trkpt lat="43.0224820" lon="-5.9019410">
        <ele>1041.6</ele>
        <time>2021-10-10T14:04:48Z</time>
      </trkpt>
      <trkpt lat="43.0224790" lon="-5.9020110">
        <ele>1042.0</ele>
        <time>2021-10-10T14:04:51Z</time>
      </trkpt>
      <trkpt lat="43.0224810" lon="-5.9020370">
        <ele>1042.0</ele>
        <time>2021-10-10T14:04:52Z</time>
      </trkpt>
      <trkpt lat="43.0224840" lon="-5.9020860">
        <ele>1042.4</ele>
        <time>2021-10-10T14:04:54Z</time>
      </trkpt>
      <trkpt lat="43.0224650" lon="-5.9022050">
        <ele>1042.8</ele>
        <time>2021-10-10T14:04:59Z</time>
      </trkpt>
      <trkpt lat="43.0224590" lon="-5.9022300">
        <ele>1043.0</ele>
        <time>2021-10-10T14:05:00Z</time>
      </trkpt>
      <trkpt lat="43.0224390" lon="-5.9023100">
        <ele>1043.2</ele>
        <time>2021-10-10T14:05:03Z</time>
      </trkpt>
      <trkpt lat="43.0223900" lon="-5.9024670">
        <ele>1043.8</ele>
        <time>2021-10-10T14:05:09Z</time>
      </trkpt>
      <trkpt lat="43.0223820" lon="-5.9024900">
        <ele>1043.8</ele>
        <time>2021-10-10T14:05:10Z</time>
      </trkpt>
      <trkpt lat="43.0223720" lon="-5.9025140">
        <ele>1044.0</ele>
        <time>2021-10-10T14:05:11Z</time>
      </trkpt>
      <trkpt lat="43.0223370" lon="-5.9025990">
        <ele>1044.4</ele>
        <time>2021-10-10T14:05:15Z</time>
      </trkpt>
      <trkpt lat="43.0223280" lon="-5.9026230">
        <ele>1044.6</ele>
        <time>2021-10-10T14:05:16Z</time>
      </trkpt>
      <trkpt lat="43.0223230" lon="-5.9026680">
        <ele>1044.6</ele>
        <time>2021-10-10T14:05:18Z</time>
      </trkpt>
      <trkpt lat="43.0223230" lon="-5.9027120">
        <ele>1044.8</ele>
        <time>2021-10-10T14:05:20Z</time>
      </trkpt>
      <trkpt lat="43.0223270" lon="-5.9027580">
        <ele>1045.0</ele>
        <time>2021-10-10T14:05:22Z</time>
      </trkpt>
      <trkpt lat="43.0223270" lon="-5.9027580">
        <ele>1045.2</ele>
        <time>2021-10-10T14:05:23Z</time>
      </trkpt>
      <trkpt lat="43.0223290" lon="-5.9027810">
        <ele>1045.2</ele>
        <time>2021-10-10T14:05:24Z</time>
      </trkpt>
      <trkpt lat="43.0223390" lon="-5.9028130">
        <ele>1045.6</ele>
        <time>2021-10-10T14:05:26Z</time>
      </trkpt>
      <trkpt lat="43.0223480" lon="-5.9028470">
        <ele>1045.8</ele>
        <time>2021-10-10T14:05:28Z</time>
      </trkpt>
      <trkpt lat="43.0223690" lon="-5.9028890">
        <ele>1046.2</ele>
        <time>2021-10-10T14:05:30Z</time>
      </trkpt>
      <trkpt lat="43.0223820" lon="-5.9028980">
        <ele>1046.2</ele>
        <time>2021-10-10T14:05:31Z</time>
      </trkpt>
      <trkpt lat="43.0223950" lon="-5.9029050">
        <ele>1046.8</ele>
        <time>2021-10-10T14:05:33Z</time>
      </trkpt>
      <trkpt lat="43.0224630" lon="-5.9029370">
        <ele>1047.6</ele>
        <time>2021-10-10T14:05:38Z</time>
      </trkpt>
      <trkpt lat="43.0224920" lon="-5.9029380">
        <ele>1047.8</ele>
        <time>2021-10-10T14:05:40Z</time>
      </trkpt>
      <trkpt lat="43.0225220" lon="-5.9029250">
        <ele>1047.8</ele>
        <time>2021-10-10T14:05:41Z</time>
      </trkpt>
      <trkpt lat="43.0225370" lon="-5.9029140">
        <ele>1048.2</ele>
        <time>2021-10-10T14:05:43Z</time>
      </trkpt>
      <trkpt lat="43.0225630" lon="-5.9028910">
        <ele>1048.2</ele>
        <time>2021-10-10T14:05:44Z</time>
      </trkpt>
      <trkpt lat="43.0225740" lon="-5.9028740">
        <ele>1048.4</ele>
        <time>2021-10-10T14:05:45Z</time>
      </trkpt>
      <trkpt lat="43.0225980" lon="-5.9028400">
        <ele>1048.6</ele>
        <time>2021-10-10T14:05:47Z</time>
      </trkpt>
      <trkpt lat="43.0226340" lon="-5.9027840">
        <ele>1049.0</ele>
        <time>2021-10-10T14:05:50Z</time>
      </trkpt>
      <trkpt lat="43.0226530" lon="-5.9027170">
        <ele>1049.2</ele>
        <time>2021-10-10T14:05:53Z</time>
      </trkpt>
      <trkpt lat="43.0226770" lon="-5.9026430">
        <ele>1049.8</ele>
        <time>2021-10-10T14:05:56Z</time>
      </trkpt>
      <trkpt lat="43.0226840" lon="-5.9026210">
        <ele>1049.8</ele>
        <time>2021-10-10T14:05:57Z</time>
      </trkpt>
      <trkpt lat="43.0227190" lon="-5.9025340">
        <ele>1050.0</ele>
        <time>2021-10-10T14:06:01Z</time>
      </trkpt>
      <trkpt lat="43.0227270" lon="-5.9025110">
        <ele>1050.0</ele>
        <time>2021-10-10T14:06:02Z</time>
      </trkpt>
      <trkpt lat="43.0227280" lon="-5.9024600">
        <ele>1050.2</ele>
        <time>2021-10-10T14:06:04Z</time>
      </trkpt>
      <trkpt lat="43.0227320" lon="-5.9024030">
        <ele>1050.4</ele>
        <time>2021-10-10T14:06:06Z</time>
      </trkpt>
      <trkpt lat="43.0227310" lon="-5.9023260">
        <ele>1050.8</ele>
        <time>2021-10-10T14:06:09Z</time>
      </trkpt>
      <trkpt lat="43.0227290" lon="-5.9023020">
        <ele>1050.8</ele>
        <time>2021-10-10T14:06:10Z</time>
      </trkpt>
      <trkpt lat="43.0227270" lon="-5.9022790">
        <ele>1051.0</ele>
        <time>2021-10-10T14:06:11Z</time>
      </trkpt>
      <trkpt lat="43.0227160" lon="-5.9021800">
        <ele>1052.0</ele>
        <time>2021-10-10T14:06:15Z</time>
      </trkpt>
      <trkpt lat="43.0227100" lon="-5.9021560">
        <ele>1052.2</ele>
        <time>2021-10-10T14:06:17Z</time>
      </trkpt>
      <trkpt lat="43.0226830" lon="-5.9020370">
        <ele>1052.6</ele>
        <time>2021-10-10T14:06:21Z</time>
      </trkpt>
      <trkpt lat="43.0226740" lon="-5.9019600">
        <ele>1053.0</ele>
        <time>2021-10-10T14:06:24Z</time>
      </trkpt>
      <trkpt lat="43.0226700" lon="-5.9019080">
        <ele>1053.2</ele>
        <time>2021-10-10T14:06:26Z</time>
      </trkpt>
      <trkpt lat="43.0226810" lon="-5.9017850">
        <ele>1054.0</ele>
        <time>2021-10-10T14:06:31Z</time>
      </trkpt>
      <trkpt lat="43.0226900" lon="-5.9017530">
        <ele>1054.0</ele>
        <time>2021-10-10T14:06:32Z</time>
      </trkpt>
      <trkpt lat="43.0227080" lon="-5.9017070">
        <ele>1054.4</ele>
        <time>2021-10-10T14:06:34Z</time>
      </trkpt>
      <trkpt lat="43.0227300" lon="-5.9016730">
        <ele>1054.4</ele>
        <time>2021-10-10T14:06:36Z</time>
      </trkpt>
      <trkpt lat="43.0227640" lon="-5.9016340">
        <ele>1054.6</ele>
        <time>2021-10-10T14:06:38Z</time>
      </trkpt>
      <trkpt lat="43.0228470" lon="-5.9015980">
        <ele>1055.4</ele>
        <time>2021-10-10T14:06:43Z</time>
      </trkpt>
      <trkpt lat="43.0228800" lon="-5.9016010">
        <ele>1055.4</ele>
        <time>2021-10-10T14:06:45Z</time>
      </trkpt>
      <trkpt lat="43.0228950" lon="-5.9016020">
        <ele>1055.4</ele>
        <time>2021-10-10T14:06:46Z</time>
      </trkpt>
      <trkpt lat="43.0229130" lon="-5.9016040">
        <ele>1055.6</ele>
        <time>2021-10-10T14:06:47Z</time>
      </trkpt>
      <trkpt lat="43.0229290" lon="-5.9016110">
        <ele>1055.6</ele>
        <time>2021-10-10T14:06:48Z</time>
      </trkpt>
      <trkpt lat="43.0229650" lon="-5.9016280">
        <ele>1055.6</ele>
        <time>2021-10-10T14:06:50Z</time>
      </trkpt>
      <trkpt lat="43.0230010" lon="-5.9016540">
        <ele>1056.0</ele>
        <time>2021-10-10T14:06:52Z</time>
      </trkpt>
      <trkpt lat="43.0230420" lon="-5.9016950">
        <ele>1056.2</ele>
        <time>2021-10-10T14:06:55Z</time>
      </trkpt>
      <trkpt lat="43.0230500" lon="-5.9017260">
        <ele>1056.2</ele>
        <time>2021-10-10T14:06:56Z</time>
      </trkpt>
      <trkpt lat="43.0230550" lon="-5.9017550">
        <ele>1056.2</ele>
        <time>2021-10-10T14:06:57Z</time>
      </trkpt>
      <trkpt lat="43.0231090" lon="-5.9018950">
        <ele>1057.4</ele>
        <time>2021-10-10T14:07:04Z</time>
      </trkpt>
      <trkpt lat="43.0231170" lon="-5.9019150">
        <ele>1057.6</ele>
        <time>2021-10-10T14:07:05Z</time>
      </trkpt>
      <trkpt lat="43.0231290" lon="-5.9019580">
        <ele>1057.8</ele>
        <time>2021-10-10T14:07:07Z</time>
      </trkpt>
      <trkpt lat="43.0231380" lon="-5.9019920">
        <ele>1058.2</ele>
        <time>2021-10-10T14:07:09Z</time>
      </trkpt>
      <trkpt lat="43.0231440" lon="-5.9020120">
        <ele>1058.2</ele>
        <time>2021-10-10T14:07:10Z</time>
      </trkpt>
      <trkpt lat="43.0231490" lon="-5.9020320">
        <ele>1058.6</ele>
        <time>2021-10-10T14:07:11Z</time>
      </trkpt>
      <trkpt lat="43.0231540" lon="-5.9020500">
        <ele>1058.6</ele>
        <time>2021-10-10T14:07:12Z</time>
      </trkpt>
      <trkpt lat="43.0231600" lon="-5.9021650">
        <ele>1059.2</ele>
        <time>2021-10-10T14:07:17Z</time>
      </trkpt>
      <trkpt lat="43.0231540" lon="-5.9022310">
        <ele>1059.6</ele>
        <time>2021-10-10T14:07:20Z</time>
      </trkpt>
      <trkpt lat="43.0231480" lon="-5.9023010">
        <ele>1059.8</ele>
        <time>2021-10-10T14:07:23Z</time>
      </trkpt>
      <trkpt lat="43.0231330" lon="-5.9023480">
        <ele>1060.0</ele>
        <time>2021-10-10T14:07:25Z</time>
      </trkpt>
      <trkpt lat="43.0231240" lon="-5.9023730">
        <ele>1060.2</ele>
        <time>2021-10-10T14:07:26Z</time>
      </trkpt>
      <trkpt lat="43.0231060" lon="-5.9024530">
        <ele>1060.6</ele>
        <time>2021-10-10T14:07:30Z</time>
      </trkpt>
      <trkpt lat="43.0230790" lon="-5.9025110">
        <ele>1060.8</ele>
        <time>2021-10-10T14:07:33Z</time>
      </trkpt>
      <trkpt lat="43.0230690" lon="-5.9025330">
        <ele>1061.0</ele>
        <time>2021-10-10T14:07:34Z</time>
      </trkpt>
      <trkpt lat="43.0230560" lon="-5.9025720">
        <ele>1061.2</ele>
        <time>2021-10-10T14:07:36Z</time>
      </trkpt>
      <trkpt lat="43.0230460" lon="-5.9026070">
        <ele>1061.4</ele>
        <time>2021-10-10T14:07:38Z</time>
      </trkpt>
      <trkpt lat="43.0230290" lon="-5.9026500">
        <ele>1061.6</ele>
        <time>2021-10-10T14:07:40Z</time>
      </trkpt>
      <trkpt lat="43.0230130" lon="-5.9026870">
        <ele>1061.8</ele>
        <time>2021-10-10T14:07:42Z</time>
      </trkpt>
      <trkpt lat="43.0229950" lon="-5.9027320">
        <ele>1061.8</ele>
        <time>2021-10-10T14:07:44Z</time>
      </trkpt>
      <trkpt lat="43.0229840" lon="-5.9027710">
        <ele>1062.0</ele>
        <time>2021-10-10T14:07:46Z</time>
      </trkpt>
      <trkpt lat="43.0229760" lon="-5.9027890">
        <ele>1062.2</ele>
        <time>2021-10-10T14:07:47Z</time>
      </trkpt>
      <trkpt lat="43.0229630" lon="-5.9028610">
        <ele>1062.4</ele>
        <time>2021-10-10T14:07:50Z</time>
      </trkpt>
      <trkpt lat="43.0229600" lon="-5.9028840">
        <ele>1062.8</ele>
        <time>2021-10-10T14:07:51Z</time>
      </trkpt>
      <trkpt lat="43.0229610" lon="-5.9029020">
        <ele>1062.8</ele>
        <time>2021-10-10T14:07:52Z</time>
      </trkpt>
      <trkpt lat="43.0229610" lon="-5.9029260">
        <ele>1062.8</ele>
        <time>2021-10-10T14:07:53Z</time>
      </trkpt>
      <trkpt lat="43.0229600" lon="-5.9029640">
        <ele>1063.0</ele>
        <time>2021-10-10T14:07:55Z</time>
      </trkpt>
      <trkpt lat="43.0229630" lon="-5.9029850">
        <ele>1063.0</ele>
        <time>2021-10-10T14:07:56Z</time>
      </trkpt>
      <trkpt lat="43.0229740" lon="-5.9030910">
        <ele>1063.2</ele>
        <time>2021-10-10T14:08:01Z</time>
      </trkpt>
      <trkpt lat="43.0229840" lon="-5.9031300">
        <ele>1063.6</ele>
        <time>2021-10-10T14:08:03Z</time>
      </trkpt>
      <trkpt lat="43.0229910" lon="-5.9031500">
        <ele>1064.0</ele>
        <time>2021-10-10T14:08:04Z</time>
      </trkpt>
      <trkpt lat="43.0229950" lon="-5.9031680">
        <ele>1064.0</ele>
        <time>2021-10-10T14:08:05Z</time>
      </trkpt>
      <trkpt lat="43.0230050" lon="-5.9031940">
        <ele>1064.2</ele>
        <time>2021-10-10T14:08:07Z</time>
      </trkpt>
      <trkpt lat="43.0230190" lon="-5.9032240">
        <ele>1064.4</ele>
        <time>2021-10-10T14:08:09Z</time>
      </trkpt>
      <trkpt lat="43.0230500" lon="-5.9032780">
        <ele>1064.6</ele>
        <time>2021-10-10T14:08:12Z</time>
      </trkpt>
      <trkpt lat="43.0230570" lon="-5.9032890">
        <ele>1064.8</ele>
        <time>2021-10-10T14:08:13Z</time>
      </trkpt>
      <trkpt lat="43.0230750" lon="-5.9033200">
        <ele>1065.0</ele>
        <time>2021-10-10T14:08:15Z</time>
      </trkpt>
      <trkpt lat="43.0230860" lon="-5.9033350">
        <ele>1065.2</ele>
        <time>2021-10-10T14:08:16Z</time>
      </trkpt>
      <trkpt lat="43.0230960" lon="-5.9033500">
        <ele>1065.4</ele>
        <time>2021-10-10T14:08:17Z</time>
      </trkpt>
      <trkpt lat="43.0231130" lon="-5.9033780">
        <ele>1065.6</ele>
        <time>2021-10-10T14:08:19Z</time>
      </trkpt>
      <trkpt lat="43.0231390" lon="-5.9034190">
        <ele>1066.2</ele>
        <time>2021-10-10T14:08:22Z</time>
      </trkpt>
      <trkpt lat="43.0231820" lon="-5.9035010">
        <ele>1067.0</ele>
        <time>2021-10-10T14:08:28Z</time>
      </trkpt>
      <trkpt lat="43.0231920" lon="-5.9035300">
        <ele>1067.0</ele>
        <time>2021-10-10T14:08:30Z</time>
      </trkpt>
      <trkpt lat="43.0231970" lon="-5.9035520">
        <ele>1067.0</ele>
        <time>2021-10-10T14:08:31Z</time>
      </trkpt>
      <trkpt lat="43.0232010" lon="-5.9035660">
        <ele>1067.2</ele>
        <time>2021-10-10T14:08:32Z</time>
      </trkpt>
      <trkpt lat="43.0232090" lon="-5.9036020">
        <ele>1067.4</ele>
        <time>2021-10-10T14:08:34Z</time>
      </trkpt>
      <trkpt lat="43.0232080" lon="-5.9036570">
        <ele>1068.0</ele>
        <time>2021-10-10T14:08:37Z</time>
      </trkpt>
      <trkpt lat="43.0232040" lon="-5.9036930">
        <ele>1068.2</ele>
        <time>2021-10-10T14:08:39Z</time>
      </trkpt>
      <trkpt lat="43.0232030" lon="-5.9037140">
        <ele>1068.4</ele>
        <time>2021-10-10T14:08:40Z</time>
      </trkpt>
      <trkpt lat="43.0231960" lon="-5.9037500">
        <ele>1068.6</ele>
        <time>2021-10-10T14:08:42Z</time>
      </trkpt>
      <trkpt lat="43.0231720" lon="-5.9037920">
        <ele>1069.0</ele>
        <time>2021-10-10T14:08:45Z</time>
      </trkpt>
      <trkpt lat="43.0231500" lon="-5.9038430">
        <ele>1069.0</ele>
        <time>2021-10-10T14:08:48Z</time>
      </trkpt>
      <trkpt lat="43.0231250" lon="-5.9038770">
        <ele>1069.2</ele>
        <time>2021-10-10T14:08:50Z</time>
      </trkpt>
      <trkpt lat="43.0231040" lon="-5.9038980">
        <ele>1069.4</ele>
        <time>2021-10-10T14:08:52Z</time>
      </trkpt>
      <trkpt lat="43.0230490" lon="-5.9039650">
        <ele>1070.2</ele>
        <time>2021-10-10T14:08:57Z</time>
      </trkpt>
      <trkpt lat="43.0230340" lon="-5.9039940">
        <ele>1070.6</ele>
        <time>2021-10-10T14:08:59Z</time>
      </trkpt>
      <trkpt lat="43.0230260" lon="-5.9040160">
        <ele>1070.6</ele>
        <time>2021-10-10T14:09:00Z</time>
      </trkpt>
      <trkpt lat="43.0230200" lon="-5.9040300">
        <ele>1070.8</ele>
        <time>2021-10-10T14:09:01Z</time>
      </trkpt>
      <trkpt lat="43.0230140" lon="-5.9040460">
        <ele>1071.0</ele>
        <time>2021-10-10T14:09:02Z</time>
      </trkpt>
      <trkpt lat="43.0230100" lon="-5.9040620">
        <ele>1071.0</ele>
        <time>2021-10-10T14:09:03Z</time>
      </trkpt>
      <trkpt lat="43.0229960" lon="-5.9041150">
        <ele>1071.6</ele>
        <time>2021-10-10T14:09:06Z</time>
      </trkpt>
      <trkpt lat="43.0229940" lon="-5.9041330">
        <ele>1071.6</ele>
        <time>2021-10-10T14:09:07Z</time>
      </trkpt>
      <trkpt lat="43.0229920" lon="-5.9041700">
        <ele>1072.0</ele>
        <time>2021-10-10T14:09:09Z</time>
      </trkpt>
      <trkpt lat="43.0229930" lon="-5.9041900">
        <ele>1072.0</ele>
        <time>2021-10-10T14:09:10Z</time>
      </trkpt>
      <trkpt lat="43.0230040" lon="-5.9042450">
        <ele>1072.8</ele>
        <time>2021-10-10T14:09:13Z</time>
      </trkpt>
      <trkpt lat="43.0230120" lon="-5.9042620">
        <ele>1073.0</ele>
        <time>2021-10-10T14:09:14Z</time>
      </trkpt>
      <trkpt lat="43.0230190" lon="-5.9042790">
        <ele>1073.2</ele>
        <time>2021-10-10T14:09:15Z</time>
      </trkpt>
      <trkpt lat="43.0230230" lon="-5.9042960">
        <ele>1073.2</ele>
        <time>2021-10-10T14:09:16Z</time>
      </trkpt>
      <trkpt lat="43.0230360" lon="-5.9043320">
        <ele>1073.6</ele>
        <time>2021-10-10T14:09:18Z</time>
      </trkpt>
      <trkpt lat="43.0230420" lon="-5.9043460">
        <ele>1073.8</ele>
        <time>2021-10-10T14:09:19Z</time>
      </trkpt>
      <trkpt lat="43.0230570" lon="-5.9043780">
        <ele>1073.8</ele>
        <time>2021-10-10T14:09:21Z</time>
      </trkpt>
      <trkpt lat="43.0231000" lon="-5.9044490">
        <ele>1074.4</ele>
        <time>2021-10-10T14:09:26Z</time>
      </trkpt>
      <trkpt lat="43.0231110" lon="-5.9044650">
        <ele>1074.4</ele>
        <time>2021-10-10T14:09:27Z</time>
      </trkpt>
      <trkpt lat="43.0231640" lon="-5.9045430">
        <ele>1074.6</ele>
        <time>2021-10-10T14:09:32Z</time>
      </trkpt>
      <trkpt lat="43.0231820" lon="-5.9045810">
        <ele>1074.8</ele>
        <time>2021-10-10T14:09:34Z</time>
      </trkpt>
      <trkpt lat="43.0231960" lon="-5.9046150">
        <ele>1075.0</ele>
        <time>2021-10-10T14:09:36Z</time>
      </trkpt>
      <trkpt lat="43.0232140" lon="-5.9046500">
        <ele>1075.2</ele>
        <time>2021-10-10T14:09:38Z</time>
      </trkpt>
      <trkpt lat="43.0232260" lon="-5.9046650">
        <ele>1075.4</ele>
        <time>2021-10-10T14:09:39Z</time>
      </trkpt>
      <trkpt lat="43.0232470" lon="-5.9046960">
        <ele>1075.6</ele>
        <time>2021-10-10T14:09:41Z</time>
      </trkpt>
      <trkpt lat="43.0232660" lon="-5.9047280">
        <ele>1076.0</ele>
        <time>2021-10-10T14:09:43Z</time>
      </trkpt>
      <trkpt lat="43.0232800" lon="-5.9047450">
        <ele>1076.0</ele>
        <time>2021-10-10T14:09:44Z</time>
      </trkpt>
      <trkpt lat="43.0232890" lon="-5.9047560">
        <ele>1076.2</ele>
        <time>2021-10-10T14:09:45Z</time>
      </trkpt>
      <trkpt lat="43.0233090" lon="-5.9047900">
        <ele>1076.4</ele>
        <time>2021-10-10T14:09:47Z</time>
      </trkpt>
      <trkpt lat="43.0233240" lon="-5.9048170">
        <ele>1076.6</ele>
        <time>2021-10-10T14:09:49Z</time>
      </trkpt>
      <trkpt lat="43.0233450" lon="-5.9048450">
        <ele>1076.8</ele>
        <time>2021-10-10T14:09:51Z</time>
      </trkpt>
      <trkpt lat="43.0233590" lon="-5.9048810">
        <ele>1077.0</ele>
        <time>2021-10-10T14:09:53Z</time>
      </trkpt>
      <trkpt lat="43.0233660" lon="-5.9049010">
        <ele>1077.2</ele>
        <time>2021-10-10T14:09:54Z</time>
      </trkpt>
      <trkpt lat="43.0233750" lon="-5.9049160">
        <ele>1077.4</ele>
        <time>2021-10-10T14:09:55Z</time>
      </trkpt>
      <trkpt lat="43.0233940" lon="-5.9049520">
        <ele>1077.6</ele>
        <time>2021-10-10T14:09:57Z</time>
      </trkpt>
      <trkpt lat="43.0234120" lon="-5.9049850">
        <ele>1077.8</ele>
        <time>2021-10-10T14:09:59Z</time>
      </trkpt>
      <trkpt lat="43.0234220" lon="-5.9050000">
        <ele>1078.0</ele>
        <time>2021-10-10T14:10:00Z</time>
      </trkpt>
      <trkpt lat="43.0234300" lon="-5.9050210">
        <ele>1078.2</ele>
        <time>2021-10-10T14:10:01Z</time>
      </trkpt>
      <trkpt lat="43.0234400" lon="-5.9050390">
        <ele>1078.2</ele>
        <time>2021-10-10T14:10:02Z</time>
      </trkpt>
      <trkpt lat="43.0234620" lon="-5.9050690">
        <ele>1078.4</ele>
        <time>2021-10-10T14:10:04Z</time>
      </trkpt>
      <trkpt lat="43.0234720" lon="-5.9050860">
        <ele>1078.6</ele>
        <time>2021-10-10T14:10:05Z</time>
      </trkpt>
      <trkpt lat="43.0234960" lon="-5.9051210">
        <ele>1078.8</ele>
        <time>2021-10-10T14:10:07Z</time>
      </trkpt>
      <trkpt lat="43.0235120" lon="-5.9051460">
        <ele>1079.0</ele>
        <time>2021-10-10T14:10:09Z</time>
      </trkpt>
      <trkpt lat="43.0235200" lon="-5.9051610">
        <ele>1079.2</ele>
        <time>2021-10-10T14:10:10Z</time>
      </trkpt>
      <trkpt lat="43.0235660" lon="-5.9052610">
        <ele>1079.8</ele>
        <time>2021-10-10T14:10:16Z</time>
      </trkpt>
      <trkpt lat="43.0235740" lon="-5.9052750">
        <ele>1080.0</ele>
        <time>2021-10-10T14:10:17Z</time>
      </trkpt>
      <trkpt lat="43.0235820" lon="-5.9052900">
        <ele>1080.2</ele>
        <time>2021-10-10T14:10:18Z</time>
      </trkpt>
      <trkpt lat="43.0235920" lon="-5.9053050">
        <ele>1080.2</ele>
        <time>2021-10-10T14:10:19Z</time>
      </trkpt>
      <trkpt lat="43.0236020" lon="-5.9053220">
        <ele>1080.2</ele>
        <time>2021-10-10T14:10:20Z</time>
      </trkpt>
      <trkpt lat="43.0236190" lon="-5.9053520">
        <ele>1080.8</ele>
        <time>2021-10-10T14:10:22Z</time>
      </trkpt>
      <trkpt lat="43.0236460" lon="-5.9054170">
        <ele>1081.4</ele>
        <time>2021-10-10T14:10:26Z</time>
      </trkpt>
      <trkpt lat="43.0236550" lon="-5.9054330">
        <ele>1081.6</ele>
        <time>2021-10-10T14:10:27Z</time>
      </trkpt>
      <trkpt lat="43.0236640" lon="-5.9054490">
        <ele>1081.6</ele>
        <time>2021-10-10T14:10:28Z</time>
      </trkpt>
      <trkpt lat="43.0237130" lon="-5.9055800">
        <ele>1082.6</ele>
        <time>2021-10-10T14:10:35Z</time>
      </trkpt>
      <trkpt lat="43.0237460" lon="-5.9056420">
        <ele>1083.0</ele>
        <time>2021-10-10T14:10:39Z</time>
      </trkpt>
      <trkpt lat="43.0237550" lon="-5.9056570">
        <ele>1083.0</ele>
        <time>2021-10-10T14:10:40Z</time>
      </trkpt>
      <trkpt lat="43.0237810" lon="-5.9057120">
        <ele>1083.6</ele>
        <time>2021-10-10T14:10:44Z</time>
      </trkpt>
      <trkpt lat="43.0237850" lon="-5.9057190">
        <ele>1083.6</ele>
        <time>2021-10-10T14:10:45Z</time>
      </trkpt>
      <trkpt lat="43.0237950" lon="-5.9057290">
        <ele>1083.8</ele>
        <time>2021-10-10T14:10:46Z</time>
      </trkpt>
      <trkpt lat="43.0238110" lon="-5.9057540">
        <ele>1084.0</ele>
        <time>2021-10-10T14:10:48Z</time>
      </trkpt>
      <trkpt lat="43.0238260" lon="-5.9057830">
        <ele>1084.4</ele>
        <time>2021-10-10T14:10:50Z</time>
      </trkpt>
      <trkpt lat="43.0238390" lon="-5.9058140">
        <ele>1084.6</ele>
        <time>2021-10-10T14:10:52Z</time>
      </trkpt>
      <trkpt lat="43.0238480" lon="-5.9058510">
        <ele>1084.8</ele>
        <time>2021-10-10T14:10:54Z</time>
      </trkpt>
      <trkpt lat="43.0238590" lon="-5.9058880">
        <ele>1085.0</ele>
        <time>2021-10-10T14:10:56Z</time>
      </trkpt>
      <trkpt lat="43.0238650" lon="-5.9059110">
        <ele>1085.2</ele>
        <time>2021-10-10T14:10:57Z</time>
      </trkpt>
      <trkpt lat="43.0238690" lon="-5.9059230">
        <ele>1085.2</ele>
        <time>2021-10-10T14:10:58Z</time>
      </trkpt>
      <trkpt lat="43.0238730" lon="-5.9059420">
        <ele>1085.4</ele>
        <time>2021-10-10T14:10:59Z</time>
      </trkpt>
      <trkpt lat="43.0238850" lon="-5.9060180">
        <ele>1085.6</ele>
        <time>2021-10-10T14:11:03Z</time>
      </trkpt>
      <trkpt lat="43.0238830" lon="-5.9060790">
        <ele>1086.0</ele>
        <time>2021-10-10T14:11:06Z</time>
      </trkpt>
      <trkpt lat="43.0238810" lon="-5.9061150">
        <ele>1086.4</ele>
        <time>2021-10-10T14:11:08Z</time>
      </trkpt>
      <trkpt lat="43.0238900" lon="-5.9061560">
        <ele>1086.6</ele>
        <time>2021-10-10T14:11:10Z</time>
      </trkpt>
      <trkpt lat="43.0238910" lon="-5.9061760">
        <ele>1086.8</ele>
        <time>2021-10-10T14:11:11Z</time>
      </trkpt>
      <trkpt lat="43.0238910" lon="-5.9061930">
        <ele>1087.0</ele>
        <time>2021-10-10T14:11:12Z</time>
      </trkpt>
      <trkpt lat="43.0238920" lon="-5.9062110">
        <ele>1086.8</ele>
        <time>2021-10-10T14:11:13Z</time>
      </trkpt>
      <trkpt lat="43.0238890" lon="-5.9063380">
        <ele>1087.4</ele>
        <time>2021-10-10T14:11:20Z</time>
      </trkpt>
      <trkpt lat="43.0238910" lon="-5.9063560">
        <ele>1087.6</ele>
        <time>2021-10-10T14:11:21Z</time>
      </trkpt>
      <trkpt lat="43.0238970" lon="-5.9063870">
        <ele>1087.8</ele>
        <time>2021-10-10T14:11:23Z</time>
      </trkpt>
      <trkpt lat="43.0239000" lon="-5.9064160">
        <ele>1088.0</ele>
        <time>2021-10-10T14:11:25Z</time>
      </trkpt>
      <trkpt lat="43.0239020" lon="-5.9064450">
        <ele>1088.2</ele>
        <time>2021-10-10T14:11:27Z</time>
      </trkpt>
      <trkpt lat="43.0239030" lon="-5.9064620">
        <ele>1088.4</ele>
        <time>2021-10-10T14:11:28Z</time>
      </trkpt>
      <trkpt lat="43.0239060" lon="-5.9064780">
        <ele>1088.4</ele>
        <time>2021-10-10T14:11:29Z</time>
      </trkpt>
      <trkpt lat="43.0239050" lon="-5.9064990">
        <ele>1088.6</ele>
        <time>2021-10-10T14:11:30Z</time>
      </trkpt>
      <trkpt lat="43.0239090" lon="-5.9065340">
        <ele>1088.8</ele>
        <time>2021-10-10T14:11:32Z</time>
      </trkpt>
      <trkpt lat="43.0239150" lon="-5.9065650">
        <ele>1089.2</ele>
        <time>2021-10-10T14:11:34Z</time>
      </trkpt>
      <trkpt lat="43.0239200" lon="-5.9066000">
        <ele>1089.4</ele>
        <time>2021-10-10T14:11:36Z</time>
      </trkpt>
      <trkpt lat="43.0239240" lon="-5.9066810">
        <ele>1090.0</ele>
        <time>2021-10-10T14:11:40Z</time>
      </trkpt>
      <trkpt lat="43.0239280" lon="-5.9067390">
        <ele>1090.4</ele>
        <time>2021-10-10T14:11:43Z</time>
      </trkpt>
      <trkpt lat="43.0239260" lon="-5.9067580">
        <ele>1090.4</ele>
        <time>2021-10-10T14:11:44Z</time>
      </trkpt>
      <trkpt lat="43.0239280" lon="-5.9067930">
        <ele>1090.6</ele>
        <time>2021-10-10T14:11:46Z</time>
      </trkpt>
      <trkpt lat="43.0239350" lon="-5.9068290">
        <ele>1090.8</ele>
        <time>2021-10-10T14:11:48Z</time>
      </trkpt>
      <trkpt lat="43.0239400" lon="-5.9068460">
        <ele>1091.0</ele>
        <time>2021-10-10T14:11:49Z</time>
      </trkpt>
      <trkpt lat="43.0239450" lon="-5.9068600">
        <ele>1091.0</ele>
        <time>2021-10-10T14:11:50Z</time>
      </trkpt>
      <trkpt lat="43.0239560" lon="-5.9069270">
        <ele>1091.4</ele>
        <time>2021-10-10T14:11:54Z</time>
      </trkpt>
      <trkpt lat="43.0239630" lon="-5.9069630">
        <ele>1091.6</ele>
        <time>2021-10-10T14:11:56Z</time>
      </trkpt>
      <trkpt lat="43.0239700" lon="-5.9070050">
        <ele>1092.2</ele>
        <time>2021-10-10T14:11:58Z</time>
      </trkpt>
      <trkpt lat="43.0239720" lon="-5.9070190">
        <ele>1092.4</ele>
        <time>2021-10-10T14:11:59Z</time>
      </trkpt>
      <trkpt lat="43.0239820" lon="-5.9070750">
        <ele>1092.6</ele>
        <time>2021-10-10T14:12:02Z</time>
      </trkpt>
      <trkpt lat="43.0239950" lon="-5.9071290">
        <ele>1093.0</ele>
        <time>2021-10-10T14:12:05Z</time>
      </trkpt>
      <trkpt lat="43.0239990" lon="-5.9071440">
        <ele>1093.2</ele>
        <time>2021-10-10T14:12:06Z</time>
      </trkpt>
      <trkpt lat="43.0240030" lon="-5.9071590">
        <ele>1093.2</ele>
        <time>2021-10-10T14:12:07Z</time>
      </trkpt>
      <trkpt lat="43.0240120" lon="-5.9071860">
        <ele>1093.4</ele>
        <time>2021-10-10T14:12:09Z</time>
      </trkpt>
      <trkpt lat="43.0240230" lon="-5.9072220">
        <ele>1093.8</ele>
        <time>2021-10-10T14:12:11Z</time>
      </trkpt>
      <trkpt lat="43.0240410" lon="-5.9072820">
        <ele>1094.2</ele>
        <time>2021-10-10T14:12:14Z</time>
      </trkpt>
      <trkpt lat="43.0240470" lon="-5.9073190">
        <ele>1094.6</ele>
        <time>2021-10-10T14:12:16Z</time>
      </trkpt>
      <trkpt lat="43.0240540" lon="-5.9073580">
        <ele>1094.8</ele>
        <time>2021-10-10T14:12:18Z</time>
      </trkpt>
      <trkpt lat="43.0240640" lon="-5.9074110">
        <ele>1095.4</ele>
        <time>2021-10-10T14:12:21Z</time>
      </trkpt>
      <trkpt lat="43.0240740" lon="-5.9074410">
        <ele>1095.6</ele>
        <time>2021-10-10T14:12:23Z</time>
      </trkpt>
      <trkpt lat="43.0241040" lon="-5.9075440">
        <ele>1096.0</ele>
        <time>2021-10-10T14:12:29Z</time>
      </trkpt>
      <trkpt lat="43.0241220" lon="-5.9076130">
        <ele>1096.4</ele>
        <time>2021-10-10T14:12:33Z</time>
      </trkpt>
      <trkpt lat="43.0241300" lon="-5.9076480">
        <ele>1096.8</ele>
        <time>2021-10-10T14:12:35Z</time>
      </trkpt>
      <trkpt lat="43.0241410" lon="-5.9077020">
        <ele>1097.2</ele>
        <time>2021-10-10T14:12:38Z</time>
      </trkpt>
      <trkpt lat="43.0241460" lon="-5.9077150">
        <ele>1097.4</ele>
        <time>2021-10-10T14:12:39Z</time>
      </trkpt>
      <trkpt lat="43.0241570" lon="-5.9077490">
        <ele>1097.6</ele>
        <time>2021-10-10T14:12:41Z</time>
      </trkpt>
      <trkpt lat="43.0241700" lon="-5.9077810">
        <ele>1097.8</ele>
        <time>2021-10-10T14:12:43Z</time>
      </trkpt>
      <trkpt lat="43.0241830" lon="-5.9078140">
        <ele>1098.0</ele>
        <time>2021-10-10T14:12:45Z</time>
      </trkpt>
      <trkpt lat="43.0241900" lon="-5.9078280">
        <ele>1098.0</ele>
        <time>2021-10-10T14:12:46Z</time>
      </trkpt>
      <trkpt lat="43.0242010" lon="-5.9078630">
        <ele>1098.2</ele>
        <time>2021-10-10T14:12:48Z</time>
      </trkpt>
      <trkpt lat="43.0242110" lon="-5.9079010">
        <ele>1098.4</ele>
        <time>2021-10-10T14:12:50Z</time>
      </trkpt>
      <trkpt lat="43.0242150" lon="-5.9079180">
        <ele>1098.4</ele>
        <time>2021-10-10T14:12:51Z</time>
      </trkpt>
      <trkpt lat="43.0242210" lon="-5.9079320">
        <ele>1098.6</ele>
        <time>2021-10-10T14:12:52Z</time>
      </trkpt>
      <trkpt lat="43.0242300" lon="-5.9079500">
        <ele>1098.6</ele>
        <time>2021-10-10T14:12:53Z</time>
      </trkpt>
      <trkpt lat="43.0242440" lon="-5.9079840">
        <ele>1098.8</ele>
        <time>2021-10-10T14:12:55Z</time>
      </trkpt>
      <trkpt lat="43.0242470" lon="-5.9080000">
        <ele>1099.0</ele>
        <time>2021-10-10T14:12:56Z</time>
      </trkpt>
      <trkpt lat="43.0242660" lon="-5.9080450">
        <ele>1099.2</ele>
        <time>2021-10-10T14:12:59Z</time>
      </trkpt>
      <trkpt lat="43.0242840" lon="-5.9080830">
        <ele>1099.4</ele>
        <time>2021-10-10T14:13:01Z</time>
      </trkpt>
      <trkpt lat="43.0242990" lon="-5.9081300">
        <ele>1100.0</ele>
        <time>2021-10-10T14:13:04Z</time>
      </trkpt>
      <trkpt lat="43.0243180" lon="-5.9081780">
        <ele>1100.2</ele>
        <time>2021-10-10T14:13:07Z</time>
      </trkpt>
      <trkpt lat="43.0243300" lon="-5.9082140">
        <ele>1100.4</ele>
        <time>2021-10-10T14:13:09Z</time>
      </trkpt>
      <trkpt lat="43.0243670" lon="-5.9082860">
        <ele>1101.0</ele>
        <time>2021-10-10T14:13:14Z</time>
      </trkpt>
      <trkpt lat="43.0243820" lon="-5.9083120">
        <ele>1101.2</ele>
        <time>2021-10-10T14:13:16Z</time>
      </trkpt>
      <trkpt lat="43.0243880" lon="-5.9083280">
        <ele>1101.2</ele>
        <time>2021-10-10T14:13:17Z</time>
      </trkpt>
      <trkpt lat="43.0244050" lon="-5.9083740">
        <ele>1101.6</ele>
        <time>2021-10-10T14:13:20Z</time>
      </trkpt>
      <trkpt lat="43.0244290" lon="-5.9084370">
        <ele>1102.0</ele>
        <time>2021-10-10T14:13:24Z</time>
      </trkpt>
      <trkpt lat="43.0244380" lon="-5.9084520">
        <ele>1102.0</ele>
        <time>2021-10-10T14:13:25Z</time>
      </trkpt>
      <trkpt lat="43.0244540" lon="-5.9084810">
        <ele>1102.2</ele>
        <time>2021-10-10T14:13:27Z</time>
      </trkpt>
      <trkpt lat="43.0244990" lon="-5.9085820">
        <ele>1103.0</ele>
        <time>2021-10-10T14:13:34Z</time>
      </trkpt>
      <trkpt lat="43.0245080" lon="-5.9085920">
        <ele>1103.0</ele>
        <time>2021-10-10T14:13:35Z</time>
      </trkpt>
      <trkpt lat="43.0245170" lon="-5.9086040">
        <ele>1103.2</ele>
        <time>2021-10-10T14:13:36Z</time>
      </trkpt>
      <trkpt lat="43.0245380" lon="-5.9086270">
        <ele>1103.4</ele>
        <time>2021-10-10T14:13:38Z</time>
      </trkpt>
      <trkpt lat="43.0245450" lon="-5.9086360">
        <ele>1103.4</ele>
        <time>2021-10-10T14:13:39Z</time>
      </trkpt>
      <trkpt lat="43.0245530" lon="-5.9086490">
        <ele>1103.4</ele>
        <time>2021-10-10T14:13:40Z</time>
      </trkpt>
      <trkpt lat="43.0245740" lon="-5.9086750">
        <ele>1103.8</ele>
        <time>2021-10-10T14:13:42Z</time>
      </trkpt>
      <trkpt lat="43.0245830" lon="-5.9086890">
        <ele>1103.8</ele>
        <time>2021-10-10T14:13:43Z</time>
      </trkpt>
      <trkpt lat="43.0246030" lon="-5.9087110">
        <ele>1104.0</ele>
        <time>2021-10-10T14:13:45Z</time>
      </trkpt>
      <trkpt lat="43.0246250" lon="-5.9087320">
        <ele>1104.2</ele>
        <time>2021-10-10T14:13:47Z</time>
      </trkpt>
      <trkpt lat="43.0246380" lon="-5.9087420">
        <ele>1104.4</ele>
        <time>2021-10-10T14:13:48Z</time>
      </trkpt>
      <trkpt lat="43.0246830" lon="-5.9087760">
        <ele>1104.8</ele>
        <time>2021-10-10T14:13:52Z</time>
      </trkpt>
      <trkpt lat="43.0247570" lon="-5.9088470">
        <ele>1105.4</ele>
        <time>2021-10-10T14:13:59Z</time>
      </trkpt>
      <trkpt lat="43.0247890" lon="-5.9088740">
        <ele>1105.8</ele>
        <time>2021-10-10T14:14:02Z</time>
      </trkpt>
      <trkpt lat="43.0247990" lon="-5.9088850">
        <ele>1106.0</ele>
        <time>2021-10-10T14:14:03Z</time>
      </trkpt>
      <trkpt lat="43.0248190" lon="-5.9089140">
        <ele>1106.2</ele>
        <time>2021-10-10T14:14:05Z</time>
      </trkpt>
      <trkpt lat="43.0248400" lon="-5.9089440">
        <ele>1106.4</ele>
        <time>2021-10-10T14:14:07Z</time>
      </trkpt>
      <trkpt lat="43.0248490" lon="-5.9089560">
        <ele>1106.6</ele>
        <time>2021-10-10T14:14:08Z</time>
      </trkpt>
      <trkpt lat="43.0248660" lon="-5.9089840">
        <ele>1106.8</ele>
        <time>2021-10-10T14:14:10Z</time>
      </trkpt>
      <trkpt lat="43.0248860" lon="-5.9090170">
        <ele>1107.4</ele>
        <time>2021-10-10T14:14:12Z</time>
      </trkpt>
      <trkpt lat="43.0248960" lon="-5.9090340">
        <ele>1107.4</ele>
        <time>2021-10-10T14:14:13Z</time>
      </trkpt>
      <trkpt lat="43.0249040" lon="-5.9090480">
        <ele>1107.6</ele>
        <time>2021-10-10T14:14:14Z</time>
      </trkpt>
      <trkpt lat="43.0249180" lon="-5.9090790">
        <ele>1108.2</ele>
        <time>2021-10-10T14:14:16Z</time>
      </trkpt>
      <trkpt lat="43.0249310" lon="-5.9091090">
        <ele>1108.4</ele>
        <time>2021-10-10T14:14:18Z</time>
      </trkpt>
      <trkpt lat="43.0249400" lon="-5.9091220">
        <ele>1108.4</ele>
        <time>2021-10-10T14:14:19Z</time>
      </trkpt>
      <trkpt lat="43.0249520" lon="-5.9091540">
        <ele>1108.6</ele>
        <time>2021-10-10T14:14:21Z</time>
      </trkpt>
      <trkpt lat="43.0249560" lon="-5.9091710">
        <ele>1108.8</ele>
        <time>2021-10-10T14:14:22Z</time>
      </trkpt>
      <trkpt lat="43.0249850" lon="-5.9092420">
        <ele>1109.4</ele>
        <time>2021-10-10T14:14:26Z</time>
      </trkpt>
      <trkpt lat="43.0250100" lon="-5.9092910">
        <ele>1110.0</ele>
        <time>2021-10-10T14:14:29Z</time>
      </trkpt>
      <trkpt lat="43.0250510" lon="-5.9093930">
        <ele>1110.6</ele>
        <time>2021-10-10T14:14:35Z</time>
      </trkpt>
      <trkpt lat="43.0250600" lon="-5.9094100">
        <ele>1110.8</ele>
        <time>2021-10-10T14:14:36Z</time>
      </trkpt>
      <trkpt lat="43.0250710" lon="-5.9094460">
        <ele>1110.8</ele>
        <time>2021-10-10T14:14:38Z</time>
      </trkpt>
      <trkpt lat="43.0250800" lon="-5.9094810">
        <ele>1111.0</ele>
        <time>2021-10-10T14:14:40Z</time>
      </trkpt>
      <trkpt lat="43.0250890" lon="-5.9095130">
        <ele>1111.2</ele>
        <time>2021-10-10T14:14:42Z</time>
      </trkpt>
      <trkpt lat="43.0250960" lon="-5.9095300">
        <ele>1111.2</ele>
        <time>2021-10-10T14:14:43Z</time>
      </trkpt>
      <trkpt lat="43.0251000" lon="-5.9095470">
        <ele>1111.4</ele>
        <time>2021-10-10T14:14:44Z</time>
      </trkpt>
      <trkpt lat="43.0251140" lon="-5.9095800">
        <ele>1111.8</ele>
        <time>2021-10-10T14:14:46Z</time>
      </trkpt>
      <trkpt lat="43.0251210" lon="-5.9095970">
        <ele>1112.0</ele>
        <time>2021-10-10T14:14:47Z</time>
      </trkpt>
      <trkpt lat="43.0251380" lon="-5.9096270">
        <ele>1112.2</ele>
        <time>2021-10-10T14:14:49Z</time>
      </trkpt>
      <trkpt lat="43.0251560" lon="-5.9096600">
        <ele>1112.4</ele>
        <time>2021-10-10T14:14:51Z</time>
      </trkpt>
      <trkpt lat="43.0252030" lon="-5.9097730">
        <ele>1113.2</ele>
        <time>2021-10-10T14:14:58Z</time>
      </trkpt>
      <trkpt lat="43.0252150" lon="-5.9098080">
        <ele>1113.2</ele>
        <time>2021-10-10T14:15:00Z</time>
      </trkpt>
      <trkpt lat="43.0252320" lon="-5.9098620">
        <ele>1113.6</ele>
        <time>2021-10-10T14:15:03Z</time>
      </trkpt>
      <trkpt lat="43.0252500" lon="-5.9099400">
        <ele>1114.0</ele>
        <time>2021-10-10T14:15:07Z</time>
      </trkpt>
      <trkpt lat="43.0252570" lon="-5.9099520">
        <ele>1114.0</ele>
        <time>2021-10-10T14:15:08Z</time>
      </trkpt>
      <trkpt lat="43.0252610" lon="-5.9099690">
        <ele>1114.2</ele>
        <time>2021-10-10T14:15:09Z</time>
      </trkpt>
      <trkpt lat="43.0252600" lon="-5.9099880">
        <ele>1114.2</ele>
        <time>2021-10-10T14:15:10Z</time>
      </trkpt>
      <trkpt lat="43.0252540" lon="-5.9100100">
        <ele>1114.4</ele>
        <time>2021-10-10T14:15:11Z</time>
      </trkpt>
      <trkpt lat="43.0252480" lon="-5.9100670">
        <ele>1114.8</ele>
        <time>2021-10-10T14:15:14Z</time>
      </trkpt>
      <trkpt lat="43.0252370" lon="-5.9101270">
        <ele>1115.2</ele>
        <time>2021-10-10T14:15:17Z</time>
      </trkpt>
      <trkpt lat="43.0252180" lon="-5.9102000">
        <ele>1115.6</ele>
        <time>2021-10-10T14:15:21Z</time>
      </trkpt>
      <trkpt lat="43.0252100" lon="-5.9102380">
        <ele>1116.0</ele>
        <time>2021-10-10T14:15:23Z</time>
      </trkpt>
      <trkpt lat="43.0252090" lon="-5.9102560">
        <ele>1116.2</ele>
        <time>2021-10-10T14:15:24Z</time>
      </trkpt>
      <trkpt lat="43.0252090" lon="-5.9102710">
        <ele>1116.2</ele>
        <time>2021-10-10T14:15:25Z</time>
      </trkpt>
      <trkpt lat="43.0251850" lon="-5.9103670">
        <ele>1116.6</ele>
        <time>2021-10-10T14:15:30Z</time>
      </trkpt>
      <trkpt lat="43.0251810" lon="-5.9104180">
        <ele>1117.2</ele>
        <time>2021-10-10T14:15:33Z</time>
      </trkpt>
      <trkpt lat="43.0251740" lon="-5.9104560">
        <ele>1117.4</ele>
        <time>2021-10-10T14:15:35Z</time>
      </trkpt>
      <trkpt lat="43.0251710" lon="-5.9104960">
        <ele>1117.6</ele>
        <time>2021-10-10T14:15:37Z</time>
      </trkpt>
      <trkpt lat="43.0251710" lon="-5.9105130">
        <ele>1117.8</ele>
        <time>2021-10-10T14:15:38Z</time>
      </trkpt>
      <trkpt lat="43.0251720" lon="-5.9105460">
        <ele>1118.4</ele>
        <time>2021-10-10T14:15:40Z</time>
      </trkpt>
      <trkpt lat="43.0251740" lon="-5.9105640">
        <ele>1118.4</ele>
        <time>2021-10-10T14:15:41Z</time>
      </trkpt>
      <trkpt lat="43.0251770" lon="-5.9106040">
        <ele>1118.8</ele>
        <time>2021-10-10T14:15:43Z</time>
      </trkpt>
      <trkpt lat="43.0251800" lon="-5.9106250">
        <ele>1119.0</ele>
        <time>2021-10-10T14:15:44Z</time>
      </trkpt>
      <trkpt lat="43.0251870" lon="-5.9106820">
        <ele>1119.4</ele>
        <time>2021-10-10T14:15:47Z</time>
      </trkpt>
      <trkpt lat="43.0252010" lon="-5.9107590">
        <ele>1120.2</ele>
        <time>2021-10-10T14:15:51Z</time>
      </trkpt>
      <trkpt lat="43.0252050" lon="-5.9107780">
        <ele>1120.4</ele>
        <time>2021-10-10T14:15:52Z</time>
      </trkpt>
      <trkpt lat="43.0252100" lon="-5.9107960">
        <ele>1120.4</ele>
        <time>2021-10-10T14:15:53Z</time>
      </trkpt>
      <trkpt lat="43.0252190" lon="-5.9108340">
        <ele>1120.8</ele>
        <time>2021-10-10T14:15:55Z</time>
      </trkpt>
      <trkpt lat="43.0252450" lon="-5.9109440">
        <ele>1121.6</ele>
        <time>2021-10-10T14:16:01Z</time>
      </trkpt>
      <trkpt lat="43.0252510" lon="-5.9109600">
        <ele>1121.8</ele>
        <time>2021-10-10T14:16:02Z</time>
      </trkpt>
      <trkpt lat="43.0252620" lon="-5.9110140">
        <ele>1122.4</ele>
        <time>2021-10-10T14:16:05Z</time>
      </trkpt>
      <trkpt lat="43.0252690" lon="-5.9110500">
        <ele>1122.6</ele>
        <time>2021-10-10T14:16:07Z</time>
      </trkpt>
      <trkpt lat="43.0252760" lon="-5.9110890">
        <ele>1122.8</ele>
        <time>2021-10-10T14:16:09Z</time>
      </trkpt>
      <trkpt lat="43.0252820" lon="-5.9111100">
        <ele>1123.0</ele>
        <time>2021-10-10T14:16:10Z</time>
      </trkpt>
      <trkpt lat="43.0252870" lon="-5.9111290">
        <ele>1123.2</ele>
        <time>2021-10-10T14:16:11Z</time>
      </trkpt>
      <trkpt lat="43.0252920" lon="-5.9111470">
        <ele>1123.2</ele>
        <time>2021-10-10T14:16:12Z</time>
      </trkpt>
      <trkpt lat="43.0253050" lon="-5.9112040">
        <ele>1123.8</ele>
        <time>2021-10-10T14:16:15Z</time>
      </trkpt>
      <trkpt lat="43.0253160" lon="-5.9112340">
        <ele>1124.0</ele>
        <time>2021-10-10T14:16:17Z</time>
      </trkpt>
      <trkpt lat="43.0253320" lon="-5.9112650">
        <ele>1124.4</ele>
        <time>2021-10-10T14:16:19Z</time>
      </trkpt>
      <trkpt lat="43.0253440" lon="-5.9112910">
        <ele>1124.6</ele>
        <time>2021-10-10T14:16:21Z</time>
      </trkpt>
      <trkpt lat="43.0253520" lon="-5.9113020">
        <ele>1124.8</ele>
        <time>2021-10-10T14:16:22Z</time>
      </trkpt>
      <trkpt lat="43.0253680" lon="-5.9113320">
        <ele>1125.0</ele>
        <time>2021-10-10T14:16:24Z</time>
      </trkpt>
      <trkpt lat="43.0253930" lon="-5.9113700">
        <ele>1125.4</ele>
        <time>2021-10-10T14:16:27Z</time>
      </trkpt>
      <trkpt lat="43.0254240" lon="-5.9113980">
        <ele>1125.6</ele>
        <time>2021-10-10T14:16:30Z</time>
      </trkpt>
      <trkpt lat="43.0254500" lon="-5.9114130">
        <ele>1125.6</ele>
        <time>2021-10-10T14:16:32Z</time>
      </trkpt>
      <trkpt lat="43.0254640" lon="-5.9114210">
        <ele>1126.0</ele>
        <time>2021-10-10T14:16:33Z</time>
      </trkpt>
      <trkpt lat="43.0254880" lon="-5.9114410">
        <ele>1126.4</ele>
        <time>2021-10-10T14:16:35Z</time>
      </trkpt>
      <trkpt lat="43.0254990" lon="-5.9114490">
        <ele>1126.4</ele>
        <time>2021-10-10T14:16:36Z</time>
      </trkpt>
      <trkpt lat="43.0255110" lon="-5.9114600">
        <ele>1126.6</ele>
        <time>2021-10-10T14:16:37Z</time>
      </trkpt>
      <trkpt lat="43.0255280" lon="-5.9114850">
        <ele>1126.6</ele>
        <time>2021-10-10T14:16:39Z</time>
      </trkpt>
      <trkpt lat="43.0255610" lon="-5.9115290">
        <ele>1126.8</ele>
        <time>2021-10-10T14:16:42Z</time>
      </trkpt>
      <trkpt lat="43.0256040" lon="-5.9116250">
        <ele>1127.6</ele>
        <time>2021-10-10T14:16:48Z</time>
      </trkpt>
      <trkpt lat="43.0256150" lon="-5.9116570">
        <ele>1127.8</ele>
        <time>2021-10-10T14:16:50Z</time>
      </trkpt>
      <trkpt lat="43.0256220" lon="-5.9116720">
        <ele>1128.0</ele>
        <time>2021-10-10T14:16:51Z</time>
      </trkpt>
      <trkpt lat="43.0256290" lon="-5.9116900">
        <ele>1128.0</ele>
        <time>2021-10-10T14:16:52Z</time>
      </trkpt>
      <trkpt lat="43.0256350" lon="-5.9117070">
        <ele>1128.2</ele>
        <time>2021-10-10T14:16:53Z</time>
      </trkpt>
      <trkpt lat="43.0256530" lon="-5.9117990">
        <ele>1128.8</ele>
        <time>2021-10-10T14:16:58Z</time>
      </trkpt>
      <trkpt lat="43.0256540" lon="-5.9118180">
        <ele>1129.0</ele>
        <time>2021-10-10T14:16:59Z</time>
      </trkpt>
      <trkpt lat="43.0256580" lon="-5.9118560">
        <ele>1129.2</ele>
        <time>2021-10-10T14:17:01Z</time>
      </trkpt>
      <trkpt lat="43.0256650" lon="-5.9119530">
        <ele>1130.0</ele>
        <time>2021-10-10T14:17:06Z</time>
      </trkpt>
      <trkpt lat="43.0256650" lon="-5.9119720">
        <ele>1130.0</ele>
        <time>2021-10-10T14:17:07Z</time>
      </trkpt>
      <trkpt lat="43.0256560" lon="-5.9120340">
        <ele>1130.4</ele>
        <time>2021-10-10T14:17:10Z</time>
      </trkpt>
      <trkpt lat="43.0256560" lon="-5.9120720">
        <ele>1130.8</ele>
        <time>2021-10-10T14:17:12Z</time>
      </trkpt>
      <trkpt lat="43.0256520" lon="-5.9120930">
        <ele>1130.8</ele>
        <time>2021-10-10T14:17:13Z</time>
      </trkpt>
      <trkpt lat="43.0256440" lon="-5.9121310">
        <ele>1131.2</ele>
        <time>2021-10-10T14:17:15Z</time>
      </trkpt>
      <trkpt lat="43.0256080" lon="-5.9122070">
        <ele>1131.6</ele>
        <time>2021-10-10T14:17:19Z</time>
      </trkpt>
      <trkpt lat="43.0255950" lon="-5.9122390">
        <ele>1131.8</ele>
        <time>2021-10-10T14:17:21Z</time>
      </trkpt>
      <trkpt lat="43.0255740" lon="-5.9122670">
        <ele>1132.0</ele>
        <time>2021-10-10T14:17:23Z</time>
      </trkpt>
      <trkpt lat="43.0255620" lon="-5.9122810">
        <ele>1132.2</ele>
        <time>2021-10-10T14:17:24Z</time>
      </trkpt>
      <trkpt lat="43.0255510" lon="-5.9122980">
        <ele>1132.2</ele>
        <time>2021-10-10T14:17:25Z</time>
      </trkpt>
      <trkpt lat="43.0255210" lon="-5.9123400">
        <ele>1132.8</ele>
        <time>2021-10-10T14:17:28Z</time>
      </trkpt>
      <trkpt lat="43.0255150" lon="-5.9123530">
        <ele>1133.0</ele>
        <time>2021-10-10T14:17:29Z</time>
      </trkpt>
      <trkpt lat="43.0254850" lon="-5.9123890">
        <ele>1133.2</ele>
        <time>2021-10-10T14:17:32Z</time>
      </trkpt>
      <trkpt lat="43.0254720" lon="-5.9124000">
        <ele>1133.4</ele>
        <time>2021-10-10T14:17:33Z</time>
      </trkpt>
      <trkpt lat="43.0254480" lon="-5.9124220">
        <ele>1133.6</ele>
        <time>2021-10-10T14:17:35Z</time>
      </trkpt>
      <trkpt lat="43.0254190" lon="-5.9124400">
        <ele>1133.8</ele>
        <time>2021-10-10T14:17:37Z</time>
      </trkpt>
      <trkpt lat="43.0253960" lon="-5.9124620">
        <ele>1134.0</ele>
        <time>2021-10-10T14:17:39Z</time>
      </trkpt>
      <trkpt lat="43.0253780" lon="-5.9124870">
        <ele>1134.2</ele>
        <time>2021-10-10T14:17:41Z</time>
      </trkpt>
      <trkpt lat="43.0253670" lon="-5.9124990">
        <ele>1134.4</ele>
        <time>2021-10-10T14:17:42Z</time>
      </trkpt>
      <trkpt lat="43.0253330" lon="-5.9125340">
        <ele>1134.6</ele>
        <time>2021-10-10T14:17:45Z</time>
      </trkpt>
      <trkpt lat="43.0253230" lon="-5.9125470">
        <ele>1134.8</ele>
        <time>2021-10-10T14:17:46Z</time>
      </trkpt>
      <trkpt lat="43.0253000" lon="-5.9125740">
        <ele>1135.0</ele>
        <time>2021-10-10T14:17:48Z</time>
      </trkpt>
      <trkpt lat="43.0252720" lon="-5.9126190">
        <ele>1135.4</ele>
        <time>2021-10-10T14:17:51Z</time>
      </trkpt>
      <trkpt lat="43.0252630" lon="-5.9126280">
        <ele>1135.4</ele>
        <time>2021-10-10T14:17:52Z</time>
      </trkpt>
      <trkpt lat="43.0252570" lon="-5.9126380">
        <ele>1135.6</ele>
        <time>2021-10-10T14:17:53Z</time>
      </trkpt>
      <trkpt lat="43.0252460" lon="-5.9126520">
        <ele>1135.6</ele>
        <time>2021-10-10T14:17:54Z</time>
      </trkpt>
      <trkpt lat="43.0252360" lon="-5.9126660">
        <ele>1135.8</ele>
        <time>2021-10-10T14:17:55Z</time>
      </trkpt>
      <trkpt lat="43.0252300" lon="-5.9126840">
        <ele>1135.8</ele>
        <time>2021-10-10T14:17:56Z</time>
      </trkpt>
      <trkpt lat="43.0251940" lon="-5.9127690">
        <ele>1136.2</ele>
        <time>2021-10-10T14:18:01Z</time>
      </trkpt>
      <trkpt lat="43.0251880" lon="-5.9127910">
        <ele>1136.6</ele>
        <time>2021-10-10T14:18:02Z</time>
      </trkpt>
      <trkpt lat="43.0251880" lon="-5.9128110">
        <ele>1136.6</ele>
        <time>2021-10-10T14:18:03Z</time>
      </trkpt>
      <trkpt lat="43.0251890" lon="-5.9128260">
        <ele>1136.8</ele>
        <time>2021-10-10T14:18:04Z</time>
      </trkpt>
      <trkpt lat="43.0251910" lon="-5.9128440">
        <ele>1136.8</ele>
        <time>2021-10-10T14:18:05Z</time>
      </trkpt>
      <trkpt lat="43.0251930" lon="-5.9128630">
        <ele>1137.0</ele>
        <time>2021-10-10T14:18:06Z</time>
      </trkpt>
      <trkpt lat="43.0251910" lon="-5.9128850">
        <ele>1137.0</ele>
        <time>2021-10-10T14:18:07Z</time>
      </trkpt>
      <trkpt lat="43.0251840" lon="-5.9129210">
        <ele>1137.2</ele>
        <time>2021-10-10T14:18:09Z</time>
      </trkpt>
      <trkpt lat="43.0251820" lon="-5.9129760">
        <ele>1137.4</ele>
        <time>2021-10-10T14:18:12Z</time>
      </trkpt>
      <trkpt lat="43.0251800" lon="-5.9130350">
        <ele>1137.8</ele>
        <time>2021-10-10T14:18:15Z</time>
      </trkpt>
      <trkpt lat="43.0251810" lon="-5.9130560">
        <ele>1137.8</ele>
        <time>2021-10-10T14:18:16Z</time>
      </trkpt>
      <trkpt lat="43.0251760" lon="-5.9130910">
        <ele>1138.4</ele>
        <time>2021-10-10T14:18:18Z</time>
      </trkpt>
      <trkpt lat="43.0251740" lon="-5.9131320">
        <ele>1138.8</ele>
        <time>2021-10-10T14:18:20Z</time>
      </trkpt>
      <trkpt lat="43.0251720" lon="-5.9131730">
        <ele>1139.0</ele>
        <time>2021-10-10T14:18:22Z</time>
      </trkpt>
      <trkpt lat="43.0251590" lon="-5.9132150">
        <ele>1139.2</ele>
        <time>2021-10-10T14:18:24Z</time>
      </trkpt>
      <trkpt lat="43.0251380" lon="-5.9132500">
        <ele>1139.4</ele>
        <time>2021-10-10T14:18:26Z</time>
      </trkpt>
      <trkpt lat="43.0251010" lon="-5.9132920">
        <ele>1140.0</ele>
        <time>2021-10-10T14:18:29Z</time>
      </trkpt>
      <trkpt lat="43.0250690" lon="-5.9133200">
        <ele>1140.2</ele>
        <time>2021-10-10T14:18:31Z</time>
      </trkpt>
      <trkpt lat="43.0250570" lon="-5.9133320">
        <ele>1140.2</ele>
        <time>2021-10-10T14:18:32Z</time>
      </trkpt>
      <trkpt lat="43.0250490" lon="-5.9133380">
        <ele>1140.4</ele>
        <time>2021-10-10T14:18:33Z</time>
      </trkpt>
      <trkpt lat="43.0250300" lon="-5.9133440">
        <ele>1140.6</ele>
        <time>2021-10-10T14:18:34Z</time>
      </trkpt>
      <trkpt lat="43.0249820" lon="-5.9133580">
        <ele>1140.8</ele>
        <time>2021-10-10T14:18:37Z</time>
      </trkpt>
      <trkpt lat="43.0249340" lon="-5.9133530">
        <ele>1141.0</ele>
        <time>2021-10-10T14:18:42Z</time>
      </trkpt>
      <trkpt lat="43.0248810" lon="-5.9133170">
        <ele>1141.4</ele>
        <time>2021-10-10T14:18:46Z</time>
      </trkpt>
      <trkpt lat="43.0248720" lon="-5.9133030">
        <ele>1141.6</ele>
        <time>2021-10-10T14:18:47Z</time>
      </trkpt>
      <trkpt lat="43.0248570" lon="-5.9132660">
        <ele>1141.8</ele>
        <time>2021-10-10T14:18:49Z</time>
      </trkpt>
      <trkpt lat="43.0248500" lon="-5.9132550">
        <ele>1141.8</ele>
        <time>2021-10-10T14:18:50Z</time>
      </trkpt>
      <trkpt lat="43.0248370" lon="-5.9131420">
        <ele>1142.6</ele>
        <time>2021-10-10T14:18:55Z</time>
      </trkpt>
      <trkpt lat="43.0248340" lon="-5.9131200">
        <ele>1142.6</ele>
        <time>2021-10-10T14:18:56Z</time>
      </trkpt>
      <trkpt lat="43.0248260" lon="-5.9130800">
        <ele>1142.6</ele>
        <time>2021-10-10T14:18:58Z</time>
      </trkpt>
      <trkpt lat="43.0248230" lon="-5.9130300">
        <ele>1142.8</ele>
        <time>2021-10-10T14:19:00Z</time>
      </trkpt>
      <trkpt lat="43.0248220" lon="-5.9129900">
        <ele>1143.0</ele>
        <time>2021-10-10T14:19:02Z</time>
      </trkpt>
      <trkpt lat="43.0248250" lon="-5.9129650">
        <ele>1143.0</ele>
        <time>2021-10-10T14:19:03Z</time>
      </trkpt>
      <trkpt lat="43.0248340" lon="-5.9129220">
        <ele>1143.2</ele>
        <time>2021-10-10T14:19:05Z</time>
      </trkpt>
      <trkpt lat="43.0248400" lon="-5.9128590">
        <ele>1143.6</ele>
        <time>2021-10-10T14:19:08Z</time>
      </trkpt>
      <trkpt lat="43.0248470" lon="-5.9128130">
        <ele>1143.8</ele>
        <time>2021-10-10T14:19:10Z</time>
      </trkpt>
      <trkpt lat="43.0248420" lon="-5.9127310">
        <ele>1144.0</ele>
        <time>2021-10-10T14:19:14Z</time>
      </trkpt>
      <trkpt lat="43.0248400" lon="-5.9126660">
        <ele>1144.4</ele>
        <time>2021-10-10T14:19:17Z</time>
      </trkpt>
      <trkpt lat="43.0248310" lon="-5.9126250">
        <ele>1144.6</ele>
        <time>2021-10-10T14:19:19Z</time>
      </trkpt>
      <trkpt lat="43.0248200" lon="-5.9125590">
        <ele>1144.6</ele>
        <time>2021-10-10T14:19:22Z</time>
      </trkpt>
      <trkpt lat="43.0248100" lon="-5.9124990">
        <ele>1145.0</ele>
        <time>2021-10-10T14:19:25Z</time>
      </trkpt>
      <trkpt lat="43.0247960" lon="-5.9124080">
        <ele>1145.2</ele>
        <time>2021-10-10T14:19:29Z</time>
      </trkpt>
      <trkpt lat="43.0247910" lon="-5.9123940">
        <ele>1145.2</ele>
        <time>2021-10-10T14:19:30Z</time>
      </trkpt>
      <trkpt lat="43.0247840" lon="-5.9123730">
        <ele>1145.4</ele>
        <time>2021-10-10T14:19:31Z</time>
      </trkpt>
      <trkpt lat="43.0247800" lon="-5.9123490">
        <ele>1145.4</ele>
        <time>2021-10-10T14:19:32Z</time>
      </trkpt>
      <trkpt lat="43.0247720" lon="-5.9122960">
        <ele>1145.8</ele>
        <time>2021-10-10T14:19:35Z</time>
      </trkpt>
      <trkpt lat="43.0247620" lon="-5.9122570">
        <ele>1146.0</ele>
        <time>2021-10-10T14:19:37Z</time>
      </trkpt>
      <trkpt lat="43.0247550" lon="-5.9122380">
        <ele>1146.0</ele>
        <time>2021-10-10T14:19:38Z</time>
      </trkpt>
      <trkpt lat="43.0247370" lon="-5.9121840">
        <ele>1146.6</ele>
        <time>2021-10-10T14:19:41Z</time>
      </trkpt>
      <trkpt lat="43.0247260" lon="-5.9121440">
        <ele>1146.8</ele>
        <time>2021-10-10T14:19:43Z</time>
      </trkpt>
      <trkpt lat="43.0247180" lon="-5.9121030">
        <ele>1147.0</ele>
        <time>2021-10-10T14:19:45Z</time>
      </trkpt>
      <trkpt lat="43.0247180" lon="-5.9120820">
        <ele>1147.4</ele>
        <time>2021-10-10T14:19:46Z</time>
      </trkpt>
      <trkpt lat="43.0247040" lon="-5.9120300">
        <ele>1147.6</ele>
        <time>2021-10-10T14:19:49Z</time>
      </trkpt>
      <trkpt lat="43.0246890" lon="-5.9119800">
        <ele>1148.0</ele>
        <time>2021-10-10T14:19:52Z</time>
      </trkpt>
      <trkpt lat="43.0246750" lon="-5.9119380">
        <ele>1148.2</ele>
        <time>2021-10-10T14:19:54Z</time>
      </trkpt>
      <trkpt lat="43.0246370" lon="-5.9118420">
        <ele>1148.8</ele>
        <time>2021-10-10T14:19:59Z</time>
      </trkpt>
      <trkpt lat="43.0246330" lon="-5.9118160">
        <ele>1148.8</ele>
        <time>2021-10-10T14:20:00Z</time>
      </trkpt>
      <trkpt lat="43.0246310" lon="-5.9117960">
        <ele>1149.0</ele>
        <time>2021-10-10T14:20:01Z</time>
      </trkpt>
      <trkpt lat="43.0246290" lon="-5.9117770">
        <ele>1149.0</ele>
        <time>2021-10-10T14:20:02Z</time>
      </trkpt>
      <trkpt lat="43.0246250" lon="-5.9117370">
        <ele>1149.2</ele>
        <time>2021-10-10T14:20:04Z</time>
      </trkpt>
      <trkpt lat="43.0246310" lon="-5.9117000">
        <ele>1149.4</ele>
        <time>2021-10-10T14:20:06Z</time>
      </trkpt>
      <trkpt lat="43.0246300" lon="-5.9116810">
        <ele>1149.4</ele>
        <time>2021-10-10T14:20:07Z</time>
      </trkpt>
      <trkpt lat="43.0246140" lon="-5.9116170">
        <ele>1149.8</ele>
        <time>2021-10-10T14:20:10Z</time>
      </trkpt>
      <trkpt lat="43.0246140" lon="-5.9115810">
        <ele>1150.0</ele>
        <time>2021-10-10T14:20:12Z</time>
      </trkpt>
      <trkpt lat="43.0246110" lon="-5.9115660">
        <ele>1150.2</ele>
        <time>2021-10-10T14:20:13Z</time>
      </trkpt>
      <trkpt lat="43.0246080" lon="-5.9115480">
        <ele>1150.4</ele>
        <time>2021-10-10T14:20:14Z</time>
      </trkpt>
      <trkpt lat="43.0246070" lon="-5.9115050">
        <ele>1150.6</ele>
        <time>2021-10-10T14:20:16Z</time>
      </trkpt>
      <trkpt lat="43.0246130" lon="-5.9114730">
        <ele>1151.0</ele>
        <time>2021-10-10T14:20:18Z</time>
      </trkpt>
      <trkpt lat="43.0246130" lon="-5.9114530">
        <ele>1151.2</ele>
        <time>2021-10-10T14:20:19Z</time>
      </trkpt>
      <trkpt lat="43.0245970" lon="-5.9114070">
        <ele>1151.4</ele>
        <time>2021-10-10T14:20:21Z</time>
      </trkpt>
      <trkpt lat="43.0245700" lon="-5.9113670">
        <ele>1151.6</ele>
        <time>2021-10-10T14:20:24Z</time>
      </trkpt>
      <trkpt lat="43.0245540" lon="-5.9113350">
        <ele>1152.0</ele>
        <time>2021-10-10T14:20:26Z</time>
      </trkpt>
      <trkpt lat="43.0245340" lon="-5.9112990">
        <ele>1152.4</ele>
        <time>2021-10-10T14:20:29Z</time>
      </trkpt>
      <trkpt lat="43.0245070" lon="-5.9112720">
        <ele>1152.4</ele>
        <time>2021-10-10T14:20:31Z</time>
      </trkpt>
      <trkpt lat="43.0244810" lon="-5.9112420">
        <ele>1153.0</ele>
        <time>2021-10-10T14:20:34Z</time>
      </trkpt>
      <trkpt lat="43.0244560" lon="-5.9112240">
        <ele>1153.4</ele>
        <time>2021-10-10T14:20:36Z</time>
      </trkpt>
      <trkpt lat="43.0244330" lon="-5.9111970">
        <ele>1153.6</ele>
        <time>2021-10-10T14:20:38Z</time>
      </trkpt>
      <trkpt lat="43.0244240" lon="-5.9111850">
        <ele>1154.0</ele>
        <time>2021-10-10T14:20:39Z</time>
      </trkpt>
      <trkpt lat="43.0244160" lon="-5.9111750">
        <ele>1154.0</ele>
        <time>2021-10-10T14:20:40Z</time>
      </trkpt>
      <trkpt lat="43.0243770" lon="-5.9111060">
        <ele>1154.6</ele>
        <time>2021-10-10T14:20:45Z</time>
      </trkpt>
      <trkpt lat="43.0243580" lon="-5.9110760">
        <ele>1154.6</ele>
        <time>2021-10-10T14:20:47Z</time>
      </trkpt>
      <trkpt lat="43.0243110" lon="-5.9110150">
        <ele>1155.0</ele>
        <time>2021-10-10T14:20:51Z</time>
      </trkpt>
      <trkpt lat="43.0243020" lon="-5.9109970">
        <ele>1155.0</ele>
        <time>2021-10-10T14:20:52Z</time>
      </trkpt>
      <trkpt lat="43.0242850" lon="-5.9109420">
        <ele>1155.4</ele>
        <time>2021-10-10T14:20:55Z</time>
      </trkpt>
      <trkpt lat="43.0242790" lon="-5.9109280">
        <ele>1155.4</ele>
        <time>2021-10-10T14:20:56Z</time>
      </trkpt>
      <trkpt lat="43.0242410" lon="-5.9108530">
        <ele>1155.8</ele>
        <time>2021-10-10T14:21:00Z</time>
      </trkpt>
      <trkpt lat="43.0242200" lon="-5.9108040">
        <ele>1156.2</ele>
        <time>2021-10-10T14:21:03Z</time>
      </trkpt>
      <trkpt lat="43.0242040" lon="-5.9107630">
        <ele>1156.4</ele>
        <time>2021-10-10T14:21:05Z</time>
      </trkpt>
      <trkpt lat="43.0241790" lon="-5.9106950">
        <ele>1157.0</ele>
        <time>2021-10-10T14:21:09Z</time>
      </trkpt>
      <trkpt lat="43.0241730" lon="-5.9106710">
        <ele>1157.0</ele>
        <time>2021-10-10T14:21:10Z</time>
      </trkpt>
      <trkpt lat="43.0241580" lon="-5.9106470">
        <ele>1157.2</ele>
        <time>2021-10-10T14:21:12Z</time>
      </trkpt>
      <trkpt lat="43.0241460" lon="-5.9106300">
        <ele>1157.2</ele>
        <time>2021-10-10T14:21:13Z</time>
      </trkpt>
      <trkpt lat="43.0241330" lon="-5.9106170">
        <ele>1157.4</ele>
        <time>2021-10-10T14:21:14Z</time>
      </trkpt>
      <trkpt lat="43.0241220" lon="-5.9106090">
        <ele>1157.6</ele>
        <time>2021-10-10T14:21:15Z</time>
      </trkpt>
      <trkpt lat="43.0240830" lon="-5.9105870">
        <ele>1157.8</ele>
        <time>2021-10-10T14:21:18Z</time>
      </trkpt>
      <trkpt lat="43.0240680" lon="-5.9105760">
        <ele>1158.0</ele>
        <time>2021-10-10T14:21:19Z</time>
      </trkpt>
      <trkpt lat="43.0240490" lon="-5.9105540">
        <ele>1158.4</ele>
        <time>2021-10-10T14:21:21Z</time>
      </trkpt>
      <trkpt lat="43.0240340" lon="-5.9105400">
        <ele>1158.4</ele>
        <time>2021-10-10T14:21:22Z</time>
      </trkpt>
      <trkpt lat="43.0239890" lon="-5.9105000">
        <ele>1159.0</ele>
        <time>2021-10-10T14:21:25Z</time>
      </trkpt>
      <trkpt lat="43.0239360" lon="-5.9104770">
        <ele>1159.0</ele>
        <time>2021-10-10T14:21:29Z</time>
      </trkpt>
      <trkpt lat="43.0238780" lon="-5.9104500">
        <ele>1159.6</ele>
        <time>2021-10-10T14:21:34Z</time>
      </trkpt>
      <trkpt lat="43.0238580" lon="-5.9104440">
        <ele>1159.6</ele>
        <time>2021-10-10T14:21:36Z</time>
      </trkpt>
      <trkpt lat="43.0238460" lon="-5.9104390">
        <ele>1159.8</ele>
        <time>2021-10-10T14:21:37Z</time>
      </trkpt>
      <trkpt lat="43.0237960" lon="-5.9104120">
        <ele>1160.2</ele>
        <time>2021-10-10T14:21:41Z</time>
      </trkpt>
      <trkpt lat="43.0237700" lon="-5.9103980">
        <ele>1160.4</ele>
        <time>2021-10-10T14:21:43Z</time>
      </trkpt>
      <trkpt lat="43.0237400" lon="-5.9103830">
        <ele>1160.6</ele>
        <time>2021-10-10T14:21:45Z</time>
      </trkpt>
      <trkpt lat="43.0237140" lon="-5.9103680">
        <ele>1160.8</ele>
        <time>2021-10-10T14:21:47Z</time>
      </trkpt>
      <trkpt lat="43.0236440" lon="-5.9103340">
        <ele>1161.4</ele>
        <time>2021-10-10T14:21:52Z</time>
      </trkpt>
      <trkpt lat="43.0236090" lon="-5.9103030">
        <ele>1161.6</ele>
        <time>2021-10-10T14:21:55Z</time>
      </trkpt>
      <trkpt lat="43.0235960" lon="-5.9102940">
        <ele>1161.8</ele>
        <time>2021-10-10T14:21:56Z</time>
      </trkpt>
      <trkpt lat="43.0235490" lon="-5.9102650">
        <ele>1162.6</ele>
        <time>2021-10-10T14:22:00Z</time>
      </trkpt>
      <trkpt lat="43.0235020" lon="-5.9102440">
        <ele>1163.0</ele>
        <time>2021-10-10T14:22:03Z</time>
      </trkpt>
      <trkpt lat="43.0234410" lon="-5.9102110">
        <ele>1163.6</ele>
        <time>2021-10-10T14:22:08Z</time>
      </trkpt>
      <trkpt lat="43.0233860" lon="-5.9101840">
        <ele>1164.0</ele>
        <time>2021-10-10T14:22:12Z</time>
      </trkpt>
      <trkpt lat="43.0233730" lon="-5.9101770">
        <ele>1164.0</ele>
        <time>2021-10-10T14:22:13Z</time>
      </trkpt>
      <trkpt lat="43.0233300" lon="-5.9101520">
        <ele>1164.4</ele>
        <time>2021-10-10T14:22:16Z</time>
      </trkpt>
      <trkpt lat="43.0233020" lon="-5.9101310">
        <ele>1164.6</ele>
        <time>2021-10-10T14:22:18Z</time>
      </trkpt>
      <trkpt lat="43.0232460" lon="-5.9100990">
        <ele>1165.2</ele>
        <time>2021-10-10T14:22:22Z</time>
      </trkpt>
      <trkpt lat="43.0231970" lon="-5.9100630">
        <ele>1165.6</ele>
        <time>2021-10-10T14:22:26Z</time>
      </trkpt>
      <trkpt lat="43.0231360" lon="-5.9100090">
        <ele>1166.2</ele>
        <time>2021-10-10T14:22:31Z</time>
      </trkpt>
      <trkpt lat="43.0231220" lon="-5.9100020">
        <ele>1166.4</ele>
        <time>2021-10-10T14:22:32Z</time>
      </trkpt>
      <trkpt lat="43.0230390" lon="-5.9099310">
        <ele>1167.2</ele>
        <time>2021-10-10T14:22:39Z</time>
      </trkpt>
      <trkpt lat="43.0230000" lon="-5.9098990">
        <ele>1167.4</ele>
        <time>2021-10-10T14:22:42Z</time>
      </trkpt>
      <trkpt lat="43.0229620" lon="-5.9098740">
        <ele>1168.0</ele>
        <time>2021-10-10T14:22:45Z</time>
      </trkpt>
      <trkpt lat="43.0229410" lon="-5.9098480">
        <ele>1168.2</ele>
        <time>2021-10-10T14:22:47Z</time>
      </trkpt>
      <trkpt lat="43.0228220" lon="-5.9097540">
        <ele>1169.0</ele>
        <time>2021-10-10T14:22:56Z</time>
      </trkpt>
      <trkpt lat="43.0228000" lon="-5.9097290">
        <ele>1169.4</ele>
        <time>2021-10-10T14:22:58Z</time>
      </trkpt>
      <trkpt lat="43.0227540" lon="-5.9096960">
        <ele>1169.6</ele>
        <time>2021-10-10T14:23:01Z</time>
      </trkpt>
      <trkpt lat="43.0227500" lon="-5.9096930">
        <ele>1169.6</ele>
        <time>2021-10-10T14:23:02Z</time>
      </trkpt>
      <trkpt lat="43.0227500" lon="-5.9096930">
        <ele>1170.0</ele>
        <time>2021-10-10T14:23:05Z</time>
      </trkpt>
      <trkpt lat="43.0225230" lon="-5.9096420">
        <ele>1171.0</ele>
        <time>2021-10-10T14:26:59Z</time>
      </trkpt>
      <trkpt lat="43.0225080" lon="-5.9096440">
        <ele>1171.0</ele>
        <time>2021-10-10T14:27:00Z</time>
      </trkpt>
      <trkpt lat="43.0224560" lon="-5.9096370">
        <ele>1171.2</ele>
        <time>2021-10-10T14:27:03Z</time>
      </trkpt>
      <trkpt lat="43.0224170" lon="-5.9096290">
        <ele>1171.4</ele>
        <time>2021-10-10T14:27:05Z</time>
      </trkpt>
      <trkpt lat="43.0223600" lon="-5.9095910">
        <ele>1171.8</ele>
        <time>2021-10-10T14:27:09Z</time>
      </trkpt>
      <trkpt lat="43.0223450" lon="-5.9095830">
        <ele>1172.0</ele>
        <time>2021-10-10T14:27:10Z</time>
      </trkpt>
      <trkpt lat="43.0223200" lon="-5.9095710">
        <ele>1172.2</ele>
        <time>2021-10-10T14:27:12Z</time>
      </trkpt>
      <trkpt lat="43.0223050" lon="-5.9095620">
        <ele>1172.4</ele>
        <time>2021-10-10T14:27:13Z</time>
      </trkpt>
      <trkpt lat="43.0222730" lon="-5.9095480">
        <ele>1172.8</ele>
        <time>2021-10-10T14:27:15Z</time>
      </trkpt>
      <trkpt lat="43.0222400" lon="-5.9095190">
        <ele>1173.0</ele>
        <time>2021-10-10T14:27:18Z</time>
      </trkpt>
      <trkpt lat="43.0221980" lon="-5.9094930">
        <ele>1173.4</ele>
        <time>2021-10-10T14:27:21Z</time>
      </trkpt>
      <trkpt lat="43.0221660" lon="-5.9094660">
        <ele>1173.6</ele>
        <time>2021-10-10T14:27:24Z</time>
      </trkpt>
      <trkpt lat="43.0221320" lon="-5.9094380">
        <ele>1174.0</ele>
        <time>2021-10-10T14:27:27Z</time>
      </trkpt>
      <trkpt lat="43.0220600" lon="-5.9093770">
        <ele>1175.0</ele>
        <time>2021-10-10T14:27:33Z</time>
      </trkpt>
      <trkpt lat="43.0220480" lon="-5.9093680">
        <ele>1175.2</ele>
        <time>2021-10-10T14:27:34Z</time>
      </trkpt>
      <trkpt lat="43.0220200" lon="-5.9093460">
        <ele>1175.4</ele>
        <time>2021-10-10T14:27:36Z</time>
      </trkpt>
      <trkpt lat="43.0219910" lon="-5.9093220">
        <ele>1175.6</ele>
        <time>2021-10-10T14:27:38Z</time>
      </trkpt>
      <trkpt lat="43.0219670" lon="-5.9092960">
        <ele>1175.8</ele>
        <time>2021-10-10T14:27:40Z</time>
      </trkpt>
      <trkpt lat="43.0219520" lon="-5.9092800">
        <ele>1176.0</ele>
        <time>2021-10-10T14:27:41Z</time>
      </trkpt>
      <trkpt lat="43.0219250" lon="-5.9092620">
        <ele>1176.2</ele>
        <time>2021-10-10T14:27:43Z</time>
      </trkpt>
      <trkpt lat="43.0218980" lon="-5.9092410">
        <ele>1176.4</ele>
        <time>2021-10-10T14:27:45Z</time>
      </trkpt>
      <trkpt lat="43.0218770" lon="-5.9092220">
        <ele>1176.6</ele>
        <time>2021-10-10T14:27:47Z</time>
      </trkpt>
      <trkpt lat="43.0218580" lon="-5.9091980">
        <ele>1176.8</ele>
        <time>2021-10-10T14:27:49Z</time>
      </trkpt>
      <trkpt lat="43.0218300" lon="-5.9091730">
        <ele>1177.0</ele>
        <time>2021-10-10T14:27:51Z</time>
      </trkpt>
      <trkpt lat="43.0217980" lon="-5.9091590">
        <ele>1177.4</ele>
        <time>2021-10-10T14:27:53Z</time>
      </trkpt>
      <trkpt lat="43.0217460" lon="-5.9091730">
        <ele>1177.6</ele>
        <time>2021-10-10T14:27:56Z</time>
      </trkpt>
      <trkpt lat="43.0217350" lon="-5.9091710">
        <ele>1177.6</ele>
        <time>2021-10-10T14:27:57Z</time>
      </trkpt>
      <trkpt lat="43.0216940" lon="-5.9091480">
        <ele>1178.0</ele>
        <time>2021-10-10T14:28:00Z</time>
      </trkpt>
      <trkpt lat="43.0216830" lon="-5.9091370">
        <ele>1178.2</ele>
        <time>2021-10-10T14:28:01Z</time>
      </trkpt>
      <trkpt lat="43.0216710" lon="-5.9091290">
        <ele>1178.2</ele>
        <time>2021-10-10T14:28:02Z</time>
      </trkpt>
      <trkpt lat="43.0215760" lon="-5.9090810">
        <ele>1179.2</ele>
        <time>2021-10-10T14:28:09Z</time>
      </trkpt>
      <trkpt lat="43.0215490" lon="-5.9090640">
        <ele>1179.4</ele>
        <time>2021-10-10T14:28:11Z</time>
      </trkpt>
      <trkpt lat="43.0215220" lon="-5.9090460">
        <ele>1179.8</ele>
        <time>2021-10-10T14:28:13Z</time>
      </trkpt>
      <trkpt lat="43.0214600" lon="-5.9090220">
        <ele>1180.2</ele>
        <time>2021-10-10T14:28:18Z</time>
      </trkpt>
      <trkpt lat="43.0214470" lon="-5.9090140">
        <ele>1180.4</ele>
        <time>2021-10-10T14:28:19Z</time>
      </trkpt>
      <trkpt lat="43.0213570" lon="-5.9089540">
        <ele>1181.4</ele>
        <time>2021-10-10T14:28:27Z</time>
      </trkpt>
      <trkpt lat="43.0213370" lon="-5.9089240">
        <ele>1181.6</ele>
        <time>2021-10-10T14:28:29Z</time>
      </trkpt>
      <trkpt lat="43.0212860" lon="-5.9088780">
        <ele>1182.0</ele>
        <time>2021-10-10T14:28:33Z</time>
      </trkpt>
      <trkpt lat="43.0212530" lon="-5.9088360">
        <ele>1182.2</ele>
        <time>2021-10-10T14:28:36Z</time>
      </trkpt>
      <trkpt lat="43.0212420" lon="-5.9088200">
        <ele>1182.4</ele>
        <time>2021-10-10T14:28:37Z</time>
      </trkpt>
      <trkpt lat="43.0212140" lon="-5.9087630">
        <ele>1182.6</ele>
        <time>2021-10-10T14:28:40Z</time>
      </trkpt>
      <trkpt lat="43.0211990" lon="-5.9087250">
        <ele>1182.8</ele>
        <time>2021-10-10T14:28:42Z</time>
      </trkpt>
      <trkpt lat="43.0211740" lon="-5.9086720">
        <ele>1183.0</ele>
        <time>2021-10-10T14:28:45Z</time>
      </trkpt>
      <trkpt lat="43.0211640" lon="-5.9086270">
        <ele>1183.2</ele>
        <time>2021-10-10T14:28:47Z</time>
      </trkpt>
      <trkpt lat="43.0211610" lon="-5.9086060">
        <ele>1183.2</ele>
        <time>2021-10-10T14:28:48Z</time>
      </trkpt>
      <trkpt lat="43.0211580" lon="-5.9085440">
        <ele>1183.6</ele>
        <time>2021-10-10T14:28:51Z</time>
      </trkpt>
      <trkpt lat="43.0211490" lon="-5.9084850">
        <ele>1183.8</ele>
        <time>2021-10-10T14:28:54Z</time>
      </trkpt>
      <trkpt lat="43.0211530" lon="-5.9084430">
        <ele>1184.0</ele>
        <time>2021-10-10T14:28:56Z</time>
      </trkpt>
      <trkpt lat="43.0211560" lon="-5.9084240">
        <ele>1184.2</ele>
        <time>2021-10-10T14:28:57Z</time>
      </trkpt>
      <trkpt lat="43.0211580" lon="-5.9083840">
        <ele>1184.6</ele>
        <time>2021-10-10T14:28:59Z</time>
      </trkpt>
      <trkpt lat="43.0211570" lon="-5.9083440">
        <ele>1184.6</ele>
        <time>2021-10-10T14:29:01Z</time>
      </trkpt>
      <trkpt lat="43.0211590" lon="-5.9082690">
        <ele>1185.0</ele>
        <time>2021-10-10T14:29:05Z</time>
      </trkpt>
      <trkpt lat="43.0211450" lon="-5.9082070">
        <ele>1185.4</ele>
        <time>2021-10-10T14:29:08Z</time>
      </trkpt>
      <trkpt lat="43.0211290" lon="-5.9080260">
        <ele>1186.6</ele>
        <time>2021-10-10T14:29:17Z</time>
      </trkpt>
      <trkpt lat="43.0211140" lon="-5.9079320">
        <ele>1187.0</ele>
        <time>2021-10-10T14:29:22Z</time>
      </trkpt>
      <trkpt lat="43.0211130" lon="-5.9079120">
        <ele>1187.2</ele>
        <time>2021-10-10T14:29:23Z</time>
      </trkpt>
      <trkpt lat="43.0210860" lon="-5.9078410">
        <ele>1187.6</ele>
        <time>2021-10-10T14:29:27Z</time>
      </trkpt>
      <trkpt lat="43.0210640" lon="-5.9077820">
        <ele>1188.0</ele>
        <time>2021-10-10T14:29:30Z</time>
      </trkpt>
      <trkpt lat="43.0210520" lon="-5.9077450">
        <ele>1188.4</ele>
        <time>2021-10-10T14:29:32Z</time>
      </trkpt>
      <trkpt lat="43.0210400" lon="-5.9077070">
        <ele>1188.6</ele>
        <time>2021-10-10T14:29:34Z</time>
      </trkpt>
      <trkpt lat="43.0210300" lon="-5.9076730">
        <ele>1188.8</ele>
        <time>2021-10-10T14:29:36Z</time>
      </trkpt>
      <trkpt lat="43.0210170" lon="-5.9076210">
        <ele>1189.0</ele>
        <time>2021-10-10T14:29:39Z</time>
      </trkpt>
      <trkpt lat="43.0209940" lon="-5.9074860">
        <ele>1189.6</ele>
        <time>2021-10-10T14:29:46Z</time>
      </trkpt>
      <trkpt lat="43.0209920" lon="-5.9074720">
        <ele>1189.8</ele>
        <time>2021-10-10T14:29:47Z</time>
      </trkpt>
      <trkpt lat="43.0209680" lon="-5.9074190">
        <ele>1190.4</ele>
        <time>2021-10-10T14:29:50Z</time>
      </trkpt>
      <trkpt lat="43.0209610" lon="-5.9073890">
        <ele>1190.6</ele>
        <time>2021-10-10T14:29:52Z</time>
      </trkpt>
      <trkpt lat="43.0209570" lon="-5.9073490">
        <ele>1190.8</ele>
        <time>2021-10-10T14:29:54Z</time>
      </trkpt>
      <trkpt lat="43.0209370" lon="-5.9073170">
        <ele>1191.0</ele>
        <time>2021-10-10T14:29:56Z</time>
      </trkpt>
      <trkpt lat="43.0209320" lon="-5.9073040">
        <ele>1191.0</ele>
        <time>2021-10-10T14:29:57Z</time>
      </trkpt>
      <trkpt lat="43.0209150" lon="-5.9072570">
        <ele>1191.6</ele>
        <time>2021-10-10T14:30:00Z</time>
      </trkpt>
      <trkpt lat="43.0209100" lon="-5.9072410">
        <ele>1191.6</ele>
        <time>2021-10-10T14:30:01Z</time>
      </trkpt>
      <trkpt lat="43.0208870" lon="-5.9072170">
        <ele>1191.8</ele>
        <time>2021-10-10T14:30:03Z</time>
      </trkpt>
      <trkpt lat="43.0208720" lon="-5.9071880">
        <ele>1191.8</ele>
        <time>2021-10-10T14:30:05Z</time>
      </trkpt>
      <trkpt lat="43.0208690" lon="-5.9071730">
        <ele>1192.0</ele>
        <time>2021-10-10T14:30:06Z</time>
      </trkpt>
      <trkpt lat="43.0208350" lon="-5.9070690">
        <ele>1192.8</ele>
        <time>2021-10-10T14:30:12Z</time>
      </trkpt>
      <trkpt lat="43.0208260" lon="-5.9070490">
        <ele>1192.8</ele>
        <time>2021-10-10T14:30:13Z</time>
      </trkpt>
      <trkpt lat="43.0208170" lon="-5.9070360">
        <ele>1193.0</ele>
        <time>2021-10-10T14:30:14Z</time>
      </trkpt>
      <trkpt lat="43.0208080" lon="-5.9070240">
        <ele>1193.0</ele>
        <time>2021-10-10T14:30:15Z</time>
      </trkpt>
      <trkpt lat="43.0207850" lon="-5.9069940">
        <ele>1193.2</ele>
        <time>2021-10-10T14:30:17Z</time>
      </trkpt>
      <trkpt lat="43.0207800" lon="-5.9069810">
        <ele>1193.4</ele>
        <time>2021-10-10T14:30:18Z</time>
      </trkpt>
      <trkpt lat="43.0207760" lon="-5.9069680">
        <ele>1193.6</ele>
        <time>2021-10-10T14:30:19Z</time>
      </trkpt>
      <trkpt lat="43.0207650" lon="-5.9069540">
        <ele>1193.8</ele>
        <time>2021-10-10T14:30:20Z</time>
      </trkpt>
      <trkpt lat="43.0207310" lon="-5.9069130">
        <ele>1194.4</ele>
        <time>2021-10-10T14:30:23Z</time>
      </trkpt>
      <trkpt lat="43.0206970" lon="-5.9068670">
        <ele>1194.8</ele>
        <time>2021-10-10T14:30:27Z</time>
      </trkpt>
      <trkpt lat="43.0206910" lon="-5.9068510">
        <ele>1194.8</ele>
        <time>2021-10-10T14:30:28Z</time>
      </trkpt>
      <trkpt lat="43.0206470" lon="-5.9067830">
        <ele>1195.6</ele>
        <time>2021-10-10T14:30:33Z</time>
      </trkpt>
      <trkpt lat="43.0205740" lon="-5.9067360">
        <ele>1196.0</ele>
        <time>2021-10-10T14:30:37Z</time>
      </trkpt>
      <trkpt lat="43.0205550" lon="-5.9067260">
        <ele>1196.2</ele>
        <time>2021-10-10T14:30:38Z</time>
      </trkpt>
      <trkpt lat="43.0205220" lon="-5.9066980">
        <ele>1196.4</ele>
        <time>2021-10-10T14:30:41Z</time>
      </trkpt>
      <trkpt lat="43.0204880" lon="-5.9066780">
        <ele>1196.6</ele>
        <time>2021-10-10T14:30:43Z</time>
      </trkpt>
      <trkpt lat="43.0204710" lon="-5.9066670">
        <ele>1196.8</ele>
        <time>2021-10-10T14:30:44Z</time>
      </trkpt>
      <trkpt lat="43.0203960" lon="-5.9066280">
        <ele>1197.2</ele>
        <time>2021-10-10T14:30:48Z</time>
      </trkpt>
      <trkpt lat="43.0203590" lon="-5.9066110">
        <ele>1197.4</ele>
        <time>2021-10-10T14:30:50Z</time>
      </trkpt>
      <trkpt lat="43.0203310" lon="-5.9065930">
        <ele>1197.6</ele>
        <time>2021-10-10T14:30:52Z</time>
      </trkpt>
      <trkpt lat="43.0203140" lon="-5.9065780">
        <ele>1197.8</ele>
        <time>2021-10-10T14:30:53Z</time>
      </trkpt>
      <trkpt lat="43.0202680" lon="-5.9065700">
        <ele>1197.8</ele>
        <time>2021-10-10T14:30:55Z</time>
      </trkpt>
      <trkpt lat="43.0202480" lon="-5.9065660">
        <ele>1198.0</ele>
        <time>2021-10-10T14:30:56Z</time>
      </trkpt>
      <trkpt lat="43.0201380" lon="-5.9065180">
        <ele>1198.8</ele>
        <time>2021-10-10T14:31:03Z</time>
      </trkpt>
      <trkpt lat="43.0201220" lon="-5.9065130">
        <ele>1199.0</ele>
        <time>2021-10-10T14:31:04Z</time>
      </trkpt>
      <trkpt lat="43.0200400" lon="-5.9064930">
        <ele>1199.6</ele>
        <time>2021-10-10T14:31:10Z</time>
      </trkpt>
      <trkpt lat="43.0200190" lon="-5.9064920">
        <ele>1199.8</ele>
        <time>2021-10-10T14:31:12Z</time>
      </trkpt>
      <trkpt lat="43.0199930" lon="-5.9064840">
        <ele>1199.8</ele>
        <time>2021-10-10T14:31:14Z</time>
      </trkpt>
      <trkpt lat="43.0199590" lon="-5.9064560">
        <ele>1200.0</ele>
        <time>2021-10-10T14:31:16Z</time>
      </trkpt>
      <trkpt lat="43.0199480" lon="-5.9064470">
        <ele>1200.2</ele>
        <time>2021-10-10T14:31:17Z</time>
      </trkpt>
      <trkpt lat="43.0199340" lon="-5.9064370">
        <ele>1200.4</ele>
        <time>2021-10-10T14:31:18Z</time>
      </trkpt>
      <trkpt lat="43.0198870" lon="-5.9064120">
        <ele>1200.8</ele>
        <time>2021-10-10T14:31:21Z</time>
      </trkpt>
      <trkpt lat="43.0198720" lon="-5.9064120">
        <ele>1200.8</ele>
        <time>2021-10-10T14:31:22Z</time>
      </trkpt>
      <trkpt lat="43.0198570" lon="-5.9064130">
        <ele>1200.8</ele>
        <time>2021-10-10T14:31:23Z</time>
      </trkpt>
      <trkpt lat="43.0197240" lon="-5.9064300">
        <ele>1201.6</ele>
        <time>2021-10-10T14:31:31Z</time>
      </trkpt>
      <trkpt lat="43.0196930" lon="-5.9064330">
        <ele>1202.0</ele>
        <time>2021-10-10T14:31:33Z</time>
      </trkpt>
      <trkpt lat="43.0196450" lon="-5.9064540">
        <ele>1202.4</ele>
        <time>2021-10-10T14:31:37Z</time>
      </trkpt>
      <trkpt lat="43.0196240" lon="-5.9064680">
        <ele>1202.6</ele>
        <time>2021-10-10T14:31:39Z</time>
      </trkpt>
      <trkpt lat="43.0195690" lon="-5.9064890">
        <ele>1203.2</ele>
        <time>2021-10-10T14:31:43Z</time>
      </trkpt>
      <trkpt lat="43.0195230" lon="-5.9064980">
        <ele>1203.4</ele>
        <time>2021-10-10T14:31:46Z</time>
      </trkpt>
      <trkpt lat="43.0194780" lon="-5.9064980">
        <ele>1203.8</ele>
        <time>2021-10-10T14:31:49Z</time>
      </trkpt>
      <trkpt lat="43.0194420" lon="-5.9064880">
        <ele>1204.2</ele>
        <time>2021-10-10T14:31:51Z</time>
      </trkpt>
      <trkpt lat="43.0193510" lon="-5.9064810">
        <ele>1205.0</ele>
        <time>2021-10-10T14:31:57Z</time>
      </trkpt>
      <trkpt lat="43.0193190" lon="-5.9064670">
        <ele>1205.2</ele>
        <time>2021-10-10T14:31:59Z</time>
      </trkpt>
      <trkpt lat="43.0192940" lon="-5.9064570">
        <ele>1205.6</ele>
        <time>2021-10-10T14:32:01Z</time>
      </trkpt>
      <trkpt lat="43.0192800" lon="-5.9064520">
        <ele>1205.6</ele>
        <time>2021-10-10T14:32:02Z</time>
      </trkpt>
      <trkpt lat="43.0192390" lon="-5.9064290">
        <ele>1206.0</ele>
        <time>2021-10-10T14:32:05Z</time>
      </trkpt>
      <trkpt lat="43.0192230" lon="-5.9064150">
        <ele>1206.2</ele>
        <time>2021-10-10T14:32:07Z</time>
      </trkpt>
      <trkpt lat="43.0191860" lon="-5.9063960">
        <ele>1206.8</ele>
        <time>2021-10-10T14:32:11Z</time>
      </trkpt>
      <trkpt lat="43.0191620" lon="-5.9063760">
        <ele>1207.2</ele>
        <time>2021-10-10T14:32:13Z</time>
      </trkpt>
      <trkpt lat="43.0191520" lon="-5.9063680">
        <ele>1207.2</ele>
        <time>2021-10-10T14:32:14Z</time>
      </trkpt>
      <trkpt lat="43.0191440" lon="-5.9063610">
        <ele>1207.4</ele>
        <time>2021-10-10T14:32:15Z</time>
      </trkpt>
      <trkpt lat="43.0191370" lon="-5.9063550">
        <ele>1207.4</ele>
        <time>2021-10-10T14:32:16Z</time>
      </trkpt>
      <trkpt lat="43.0191110" lon="-5.9063350">
        <ele>1207.6</ele>
        <time>2021-10-10T14:32:18Z</time>
      </trkpt>
      <trkpt lat="43.0190800" lon="-5.9063130">
        <ele>1208.0</ele>
        <time>2021-10-10T14:32:20Z</time>
      </trkpt>
      <trkpt lat="43.0190530" lon="-5.9062910">
        <ele>1208.2</ele>
        <time>2021-10-10T14:32:22Z</time>
      </trkpt>
      <trkpt lat="43.0190390" lon="-5.9062800">
        <ele>1208.2</ele>
        <time>2021-10-10T14:32:23Z</time>
      </trkpt>
      <trkpt lat="43.0190270" lon="-5.9062680">
        <ele>1208.4</ele>
        <time>2021-10-10T14:32:24Z</time>
      </trkpt>
      <trkpt lat="43.0190120" lon="-5.9062280">
        <ele>1208.6</ele>
        <time>2021-10-10T14:32:26Z</time>
      </trkpt>
      <trkpt lat="43.0189590" lon="-5.9061670">
        <ele>1209.2</ele>
        <time>2021-10-10T14:32:31Z</time>
      </trkpt>
      <trkpt lat="43.0189440" lon="-5.9061520">
        <ele>1209.2</ele>
        <time>2021-10-10T14:32:32Z</time>
      </trkpt>
      <trkpt lat="43.0189290" lon="-5.9061450">
        <ele>1209.4</ele>
        <time>2021-10-10T14:32:33Z</time>
      </trkpt>
      <trkpt lat="43.0188980" lon="-5.9061370">
        <ele>1209.4</ele>
        <time>2021-10-10T14:32:35Z</time>
      </trkpt>
      <trkpt lat="43.0188740" lon="-5.9061160">
        <ele>1209.6</ele>
        <time>2021-10-10T14:32:37Z</time>
      </trkpt>
      <trkpt lat="43.0188500" lon="-5.9060930">
        <ele>1209.8</ele>
        <time>2021-10-10T14:32:39Z</time>
      </trkpt>
      <trkpt lat="43.0188260" lon="-5.9060710">
        <ele>1210.0</ele>
        <time>2021-10-10T14:32:41Z</time>
      </trkpt>
      <trkpt lat="43.0188020" lon="-5.9060300">
        <ele>1210.4</ele>
        <time>2021-10-10T14:32:44Z</time>
      </trkpt>
      <trkpt lat="43.0187850" lon="-5.9060000">
        <ele>1210.6</ele>
        <time>2021-10-10T14:32:47Z</time>
      </trkpt>
      <trkpt lat="43.0187530" lon="-5.9059500">
        <ele>1211.0</ele>
        <time>2021-10-10T14:32:50Z</time>
      </trkpt>
      <trkpt lat="43.0187360" lon="-5.9059340">
        <ele>1211.2</ele>
        <time>2021-10-10T14:32:51Z</time>
      </trkpt>
      <trkpt lat="43.0187160" lon="-5.9059100">
        <ele>1211.4</ele>
        <time>2021-10-10T14:32:53Z</time>
      </trkpt>
      <trkpt lat="43.0186660" lon="-5.9058550">
        <ele>1211.8</ele>
        <time>2021-10-10T14:32:57Z</time>
      </trkpt>
      <trkpt lat="43.0186030" lon="-5.9057970">
        <ele>1212.2</ele>
        <time>2021-10-10T14:33:00Z</time>
      </trkpt>
      <trkpt lat="43.0185560" lon="-5.9057710">
        <ele>1212.4</ele>
        <time>2021-10-10T14:33:02Z</time>
      </trkpt>
      <trkpt lat="43.0185290" lon="-5.9057440">
        <ele>1212.4</ele>
        <time>2021-10-10T14:33:03Z</time>
      </trkpt>
      <trkpt lat="43.0185090" lon="-5.9057330">
        <ele>1212.6</ele>
        <time>2021-10-10T14:33:04Z</time>
      </trkpt>
      <trkpt lat="43.0184690" lon="-5.9057220">
        <ele>1212.8</ele>
        <time>2021-10-10T14:33:06Z</time>
      </trkpt>
      <trkpt lat="43.0184130" lon="-5.9057430">
        <ele>1213.4</ele>
        <time>2021-10-10T14:33:11Z</time>
      </trkpt>
      <trkpt lat="43.0183990" lon="-5.9057460">
        <ele>1213.6</ele>
        <time>2021-10-10T14:33:12Z</time>
      </trkpt>
      <trkpt lat="43.0183490" lon="-5.9057710">
        <ele>1213.8</ele>
        <time>2021-10-10T14:33:16Z</time>
      </trkpt>
      <trkpt lat="43.0183290" lon="-5.9057950">
        <ele>1214.2</ele>
        <time>2021-10-10T14:33:18Z</time>
      </trkpt>
      <trkpt lat="43.0182850" lon="-5.9058520">
        <ele>1214.6</ele>
        <time>2021-10-10T14:33:22Z</time>
      </trkpt>
      <trkpt lat="43.0182300" lon="-5.9059190">
        <ele>1215.2</ele>
        <time>2021-10-10T14:33:27Z</time>
      </trkpt>
      <trkpt lat="43.0182080" lon="-5.9059570">
        <ele>1215.4</ele>
        <time>2021-10-10T14:33:29Z</time>
      </trkpt>
      <trkpt lat="43.0181820" lon="-5.9060040">
        <ele>1215.6</ele>
        <time>2021-10-10T14:33:32Z</time>
      </trkpt>
      <trkpt lat="43.0181530" lon="-5.9060510">
        <ele>1216.2</ele>
        <time>2021-10-10T14:33:35Z</time>
      </trkpt>
      <trkpt lat="43.0181070" lon="-5.9061600">
        <ele>1216.8</ele>
        <time>2021-10-10T14:33:41Z</time>
      </trkpt>
      <trkpt lat="43.0180960" lon="-5.9061900">
        <ele>1217.0</ele>
        <time>2021-10-10T14:33:43Z</time>
      </trkpt>
      <trkpt lat="43.0180910" lon="-5.9062090">
        <ele>1217.0</ele>
        <time>2021-10-10T14:33:44Z</time>
      </trkpt>
      <trkpt lat="43.0180860" lon="-5.9062240">
        <ele>1217.2</ele>
        <time>2021-10-10T14:33:45Z</time>
      </trkpt>
      <trkpt lat="43.0180770" lon="-5.9062460">
        <ele>1217.4</ele>
        <time>2021-10-10T14:33:46Z</time>
      </trkpt>
      <trkpt lat="43.0180630" lon="-5.9062780">
        <ele>1217.4</ele>
        <time>2021-10-10T14:33:48Z</time>
      </trkpt>
      <trkpt lat="43.0180410" lon="-5.9063520">
        <ele>1217.8</ele>
        <time>2021-10-10T14:33:52Z</time>
      </trkpt>
      <trkpt lat="43.0180380" lon="-5.9063650">
        <ele>1217.8</ele>
        <time>2021-10-10T14:33:53Z</time>
      </trkpt>
      <trkpt lat="43.0180240" lon="-5.9064000">
        <ele>1218.0</ele>
        <time>2021-10-10T14:33:55Z</time>
      </trkpt>
      <trkpt lat="43.0179710" lon="-5.9064950">
        <ele>1218.8</ele>
        <time>2021-10-10T14:34:01Z</time>
      </trkpt>
      <trkpt lat="43.0179670" lon="-5.9065360">
        <ele>1219.2</ele>
        <time>2021-10-10T14:34:03Z</time>
      </trkpt>
      <trkpt lat="43.0179510" lon="-5.9066100">
        <ele>1219.6</ele>
        <time>2021-10-10T14:34:07Z</time>
      </trkpt>
      <trkpt lat="43.0179430" lon="-5.9066460">
        <ele>1219.8</ele>
        <time>2021-10-10T14:34:09Z</time>
      </trkpt>
      <trkpt lat="43.0179400" lon="-5.9066640">
        <ele>1220.0</ele>
        <time>2021-10-10T14:34:10Z</time>
      </trkpt>
      <trkpt lat="43.0179390" lon="-5.9066820">
        <ele>1220.2</ele>
        <time>2021-10-10T14:34:11Z</time>
      </trkpt>
      <trkpt lat="43.0179280" lon="-5.9067400">
        <ele>1220.6</ele>
        <time>2021-10-10T14:34:14Z</time>
      </trkpt>
      <trkpt lat="43.0179140" lon="-5.9067960">
        <ele>1220.8</ele>
        <time>2021-10-10T14:34:17Z</time>
      </trkpt>
      <trkpt lat="43.0178950" lon="-5.9068680">
        <ele>1221.2</ele>
        <time>2021-10-10T14:34:21Z</time>
      </trkpt>
      <trkpt lat="43.0178790" lon="-5.9069450">
        <ele>1221.4</ele>
        <time>2021-10-10T14:34:25Z</time>
      </trkpt>
      <trkpt lat="43.0178580" lon="-5.9070670">
        <ele>1222.2</ele>
        <time>2021-10-10T14:34:31Z</time>
      </trkpt>
      <trkpt lat="43.0178360" lon="-5.9071460">
        <ele>1222.6</ele>
        <time>2021-10-10T14:34:35Z</time>
      </trkpt>
      <trkpt lat="43.0178300" lon="-5.9071640">
        <ele>1222.8</ele>
        <time>2021-10-10T14:34:36Z</time>
      </trkpt>
      <trkpt lat="43.0178140" lon="-5.9072030">
        <ele>1222.8</ele>
        <time>2021-10-10T14:34:38Z</time>
      </trkpt>
      <trkpt lat="43.0177590" lon="-5.9072800">
        <ele>1223.2</ele>
        <time>2021-10-10T14:34:43Z</time>
      </trkpt>
      <trkpt lat="43.0177460" lon="-5.9072910">
        <ele>1223.2</ele>
        <time>2021-10-10T14:34:44Z</time>
      </trkpt>
      <trkpt lat="43.0176470" lon="-5.9074020">
        <ele>1224.4</ele>
        <time>2021-10-10T14:34:52Z</time>
      </trkpt>
      <trkpt lat="43.0175850" lon="-5.9075080">
        <ele>1225.0</ele>
        <time>2021-10-10T14:34:59Z</time>
      </trkpt>
      <trkpt lat="43.0175760" lon="-5.9075220">
        <ele>1225.0</ele>
        <time>2021-10-10T14:35:00Z</time>
      </trkpt>
      <trkpt lat="43.0175680" lon="-5.9075370">
        <ele>1225.2</ele>
        <time>2021-10-10T14:35:01Z</time>
      </trkpt>
      <trkpt lat="43.0175500" lon="-5.9075680">
        <ele>1225.4</ele>
        <time>2021-10-10T14:35:03Z</time>
      </trkpt>
      <trkpt lat="43.0175220" lon="-5.9076370">
        <ele>1226.0</ele>
        <time>2021-10-10T14:35:07Z</time>
      </trkpt>
      <trkpt lat="43.0174910" lon="-5.9077070">
        <ele>1226.2</ele>
        <time>2021-10-10T14:35:11Z</time>
      </trkpt>
      <trkpt lat="43.0174750" lon="-5.9077360">
        <ele>1226.4</ele>
        <time>2021-10-10T14:35:13Z</time>
      </trkpt>
      <trkpt lat="43.0174650" lon="-5.9077530">
        <ele>1226.6</ele>
        <time>2021-10-10T14:35:14Z</time>
      </trkpt>
      <trkpt lat="43.0174580" lon="-5.9077700">
        <ele>1226.6</ele>
        <time>2021-10-10T14:35:15Z</time>
      </trkpt>
      <trkpt lat="43.0174510" lon="-5.9077870">
        <ele>1226.8</ele>
        <time>2021-10-10T14:35:16Z</time>
      </trkpt>
      <trkpt lat="43.0174280" lon="-5.9078350">
        <ele>1227.2</ele>
        <time>2021-10-10T14:35:19Z</time>
      </trkpt>
      <trkpt lat="43.0174150" lon="-5.9078680">
        <ele>1227.6</ele>
        <time>2021-10-10T14:35:21Z</time>
      </trkpt>
      <trkpt lat="43.0174070" lon="-5.9078860">
        <ele>1227.6</ele>
        <time>2021-10-10T14:35:22Z</time>
      </trkpt>
      <trkpt lat="43.0173920" lon="-5.9079200">
        <ele>1227.8</ele>
        <time>2021-10-10T14:35:24Z</time>
      </trkpt>
      <trkpt lat="43.0173650" lon="-5.9079830">
        <ele>1228.2</ele>
        <time>2021-10-10T14:35:28Z</time>
      </trkpt>
      <trkpt lat="43.0173590" lon="-5.9080000">
        <ele>1228.4</ele>
        <time>2021-10-10T14:35:29Z</time>
      </trkpt>
      <trkpt lat="43.0173500" lon="-5.9080180">
        <ele>1228.4</ele>
        <time>2021-10-10T14:35:30Z</time>
      </trkpt>
      <trkpt lat="43.0173380" lon="-5.9080350">
        <ele>1228.6</ele>
        <time>2021-10-10T14:35:31Z</time>
      </trkpt>
      <trkpt lat="43.0173250" lon="-5.9080470">
        <ele>1228.6</ele>
        <time>2021-10-10T14:35:32Z</time>
      </trkpt>
      <trkpt lat="43.0173120" lon="-5.9080580">
        <ele>1228.8</ele>
        <time>2021-10-10T14:35:33Z</time>
      </trkpt>
      <trkpt lat="43.0172940" lon="-5.9080890">
        <ele>1229.0</ele>
        <time>2021-10-10T14:35:35Z</time>
      </trkpt>
      <trkpt lat="43.0172800" lon="-5.9081200">
        <ele>1229.4</ele>
        <time>2021-10-10T14:35:37Z</time>
      </trkpt>
      <trkpt lat="43.0172680" lon="-5.9081340">
        <ele>1229.6</ele>
        <time>2021-10-10T14:35:38Z</time>
      </trkpt>
      <trkpt lat="43.0172560" lon="-5.9081460">
        <ele>1229.6</ele>
        <time>2021-10-10T14:35:39Z</time>
      </trkpt>
      <trkpt lat="43.0172430" lon="-5.9081620">
        <ele>1229.8</ele>
        <time>2021-10-10T14:35:40Z</time>
      </trkpt>
      <trkpt lat="43.0172310" lon="-5.9081770">
        <ele>1229.8</ele>
        <time>2021-10-10T14:35:41Z</time>
      </trkpt>
      <trkpt lat="43.0172210" lon="-5.9081940">
        <ele>1230.0</ele>
        <time>2021-10-10T14:35:42Z</time>
      </trkpt>
      <trkpt lat="43.0172110" lon="-5.9082080">
        <ele>1230.2</ele>
        <time>2021-10-10T14:35:43Z</time>
      </trkpt>
      <trkpt lat="43.0172030" lon="-5.9082200">
        <ele>1230.2</ele>
        <time>2021-10-10T14:35:44Z</time>
      </trkpt>
      <trkpt lat="43.0171930" lon="-5.9082380">
        <ele>1230.2</ele>
        <time>2021-10-10T14:35:45Z</time>
      </trkpt>
      <trkpt lat="43.0171810" lon="-5.9082510">
        <ele>1230.4</ele>
        <time>2021-10-10T14:35:46Z</time>
      </trkpt>
      <trkpt lat="43.0171580" lon="-5.9082800">
        <ele>1230.6</ele>
        <time>2021-10-10T14:35:48Z</time>
      </trkpt>
      <trkpt lat="43.0171300" lon="-5.9083040">
        <ele>1230.8</ele>
        <time>2021-10-10T14:35:50Z</time>
      </trkpt>
      <trkpt lat="43.0171200" lon="-5.9083170">
        <ele>1230.8</ele>
        <time>2021-10-10T14:35:51Z</time>
      </trkpt>
      <trkpt lat="43.0171040" lon="-5.9083420">
        <ele>1231.2</ele>
        <time>2021-10-10T14:35:53Z</time>
      </trkpt>
      <trkpt lat="43.0170970" lon="-5.9083590">
        <ele>1231.4</ele>
        <time>2021-10-10T14:35:54Z</time>
      </trkpt>
      <trkpt lat="43.0170800" lon="-5.9083910">
        <ele>1231.6</ele>
        <time>2021-10-10T14:35:56Z</time>
      </trkpt>
      <trkpt lat="43.0170720" lon="-5.9084060">
        <ele>1231.6</ele>
        <time>2021-10-10T14:35:57Z</time>
      </trkpt>
      <trkpt lat="43.0170650" lon="-5.9084220">
        <ele>1231.8</ele>
        <time>2021-10-10T14:35:58Z</time>
      </trkpt>
      <trkpt lat="43.0170440" lon="-5.9084460">
        <ele>1232.0</ele>
        <time>2021-10-10T14:36:00Z</time>
      </trkpt>
      <trkpt lat="43.0170240" lon="-5.9084760">
        <ele>1232.4</ele>
        <time>2021-10-10T14:36:02Z</time>
      </trkpt>
      <trkpt lat="43.0170070" lon="-5.9085080">
        <ele>1232.8</ele>
        <time>2021-10-10T14:36:04Z</time>
      </trkpt>
      <trkpt lat="43.0169970" lon="-5.9085240">
        <ele>1233.0</ele>
        <time>2021-10-10T14:36:05Z</time>
      </trkpt>
      <trkpt lat="43.0169860" lon="-5.9085360">
        <ele>1233.0</ele>
        <time>2021-10-10T14:36:06Z</time>
      </trkpt>
      <trkpt lat="43.0169740" lon="-5.9085480">
        <ele>1233.2</ele>
        <time>2021-10-10T14:36:07Z</time>
      </trkpt>
      <trkpt lat="43.0169330" lon="-5.9085780">
        <ele>1233.4</ele>
        <time>2021-10-10T14:36:10Z</time>
      </trkpt>
      <trkpt lat="43.0169210" lon="-5.9085860">
        <ele>1233.8</ele>
        <time>2021-10-10T14:36:11Z</time>
      </trkpt>
      <trkpt lat="43.0168800" lon="-5.9086060">
        <ele>1234.0</ele>
        <time>2021-10-10T14:36:14Z</time>
      </trkpt>
      <trkpt lat="43.0168670" lon="-5.9086130">
        <ele>1234.2</ele>
        <time>2021-10-10T14:36:15Z</time>
      </trkpt>
      <trkpt lat="43.0168260" lon="-5.9086190">
        <ele>1234.6</ele>
        <time>2021-10-10T14:36:18Z</time>
      </trkpt>
      <trkpt lat="43.0168100" lon="-5.9086210">
        <ele>1234.6</ele>
        <time>2021-10-10T14:36:19Z</time>
      </trkpt>
      <trkpt lat="43.0167930" lon="-5.9086220">
        <ele>1234.8</ele>
        <time>2021-10-10T14:36:20Z</time>
      </trkpt>
      <trkpt lat="43.0167780" lon="-5.9086210">
        <ele>1234.8</ele>
        <time>2021-10-10T14:36:21Z</time>
      </trkpt>
      <trkpt lat="43.0167190" lon="-5.9085970">
        <ele>1235.2</ele>
        <time>2021-10-10T14:36:26Z</time>
      </trkpt>
      <trkpt lat="43.0166660" lon="-5.9085850">
        <ele>1235.6</ele>
        <time>2021-10-10T14:36:29Z</time>
      </trkpt>
      <trkpt lat="43.0166210" lon="-5.9085730">
        <ele>1235.8</ele>
        <time>2021-10-10T14:36:31Z</time>
      </trkpt>
      <trkpt lat="43.0165410" lon="-5.9085720">
        <ele>1236.2</ele>
        <time>2021-10-10T14:36:36Z</time>
      </trkpt>
      <trkpt lat="43.0165240" lon="-5.9085720">
        <ele>1236.4</ele>
        <time>2021-10-10T14:36:37Z</time>
      </trkpt>
      <trkpt lat="43.0164940" lon="-5.9085850">
        <ele>1236.8</ele>
        <time>2021-10-10T14:36:40Z</time>
      </trkpt>
      <trkpt lat="43.0164430" lon="-5.9085990">
        <ele>1237.2</ele>
        <time>2021-10-10T14:36:44Z</time>
      </trkpt>
      <trkpt lat="43.0164200" lon="-5.9085990">
        <ele>1237.6</ele>
        <time>2021-10-10T14:36:46Z</time>
      </trkpt>
      <trkpt lat="43.0163880" lon="-5.9086010">
        <ele>1237.8</ele>
        <time>2021-10-10T14:36:48Z</time>
      </trkpt>
      <trkpt lat="43.0163550" lon="-5.9086010">
        <ele>1238.0</ele>
        <time>2021-10-10T14:36:50Z</time>
      </trkpt>
      <trkpt lat="43.0163280" lon="-5.9085970">
        <ele>1238.2</ele>
        <time>2021-10-10T14:36:52Z</time>
      </trkpt>
      <trkpt lat="43.0163150" lon="-5.9085970">
        <ele>1238.4</ele>
        <time>2021-10-10T14:36:53Z</time>
      </trkpt>
      <trkpt lat="43.0162850" lon="-5.9085980">
        <ele>1238.6</ele>
        <time>2021-10-10T14:36:55Z</time>
      </trkpt>
      <trkpt lat="43.0162670" lon="-5.9085940">
        <ele>1238.6</ele>
        <time>2021-10-10T14:36:56Z</time>
      </trkpt>
      <trkpt lat="43.0162110" lon="-5.9085810">
        <ele>1239.2</ele>
        <time>2021-10-10T14:36:59Z</time>
      </trkpt>
      <trkpt lat="43.0161920" lon="-5.9085740">
        <ele>1239.2</ele>
        <time>2021-10-10T14:37:00Z</time>
      </trkpt>
      <trkpt lat="43.0161740" lon="-5.9085700">
        <ele>1239.4</ele>
        <time>2021-10-10T14:37:01Z</time>
      </trkpt>
      <trkpt lat="43.0161380" lon="-5.9085640">
        <ele>1239.4</ele>
        <time>2021-10-10T14:37:03Z</time>
      </trkpt>
      <trkpt lat="43.0160980" lon="-5.9085630">
        <ele>1239.6</ele>
        <time>2021-10-10T14:37:05Z</time>
      </trkpt>
      <trkpt lat="43.0160810" lon="-5.9085780">
        <ele>1239.8</ele>
        <time>2021-10-10T14:37:06Z</time>
      </trkpt>
      <trkpt lat="43.0160330" lon="-5.9085750">
        <ele>1240.0</ele>
        <time>2021-10-10T14:37:08Z</time>
      </trkpt>
      <trkpt lat="43.0160150" lon="-5.9085760">
        <ele>1240.2</ele>
        <time>2021-10-10T14:37:09Z</time>
      </trkpt>
      <trkpt lat="43.0160010" lon="-5.9085760">
        <ele>1240.4</ele>
        <time>2021-10-10T14:37:10Z</time>
      </trkpt>
      <trkpt lat="43.0159730" lon="-5.9085860">
        <ele>1240.6</ele>
        <time>2021-10-10T14:37:12Z</time>
      </trkpt>
      <trkpt lat="43.0159560" lon="-5.9085960">
        <ele>1240.8</ele>
        <time>2021-10-10T14:37:13Z</time>
      </trkpt>
      <trkpt lat="43.0159460" lon="-5.9086110">
        <ele>1240.8</ele>
        <time>2021-10-10T14:37:14Z</time>
      </trkpt>
      <trkpt lat="43.0159200" lon="-5.9086620">
        <ele>1241.2</ele>
        <time>2021-10-10T14:37:17Z</time>
      </trkpt>
      <trkpt lat="43.0158830" lon="-5.9087220">
        <ele>1241.8</ele>
        <time>2021-10-10T14:37:21Z</time>
      </trkpt>
      <trkpt lat="43.0158690" lon="-5.9087590">
        <ele>1242.0</ele>
        <time>2021-10-10T14:37:23Z</time>
      </trkpt>
      <trkpt lat="43.0158610" lon="-5.9087750">
        <ele>1242.2</ele>
        <time>2021-10-10T14:37:24Z</time>
      </trkpt>
      <trkpt lat="43.0158540" lon="-5.9087970">
        <ele>1242.2</ele>
        <time>2021-10-10T14:37:25Z</time>
      </trkpt>
      <trkpt lat="43.0158500" lon="-5.9088260">
        <ele>1242.4</ele>
        <time>2021-10-10T14:37:26Z</time>
      </trkpt>
      <trkpt lat="43.0158450" lon="-5.9088500">
        <ele>1242.4</ele>
        <time>2021-10-10T14:37:27Z</time>
      </trkpt>
      <trkpt lat="43.0158270" lon="-5.9089080">
        <ele>1242.8</ele>
        <time>2021-10-10T14:37:30Z</time>
      </trkpt>
      <trkpt lat="43.0158220" lon="-5.9089310">
        <ele>1242.8</ele>
        <time>2021-10-10T14:37:31Z</time>
      </trkpt>
      <trkpt lat="43.0158150" lon="-5.9089500">
        <ele>1242.8</ele>
        <time>2021-10-10T14:37:32Z</time>
      </trkpt>
      <trkpt lat="43.0157810" lon="-5.9090450">
        <ele>1243.6</ele>
        <time>2021-10-10T14:37:37Z</time>
      </trkpt>
      <trkpt lat="43.0157610" lon="-5.9090950">
        <ele>1243.8</ele>
        <time>2021-10-10T14:37:40Z</time>
      </trkpt>
      <trkpt lat="43.0157440" lon="-5.9091270">
        <ele>1244.2</ele>
        <time>2021-10-10T14:37:42Z</time>
      </trkpt>
      <trkpt lat="43.0157290" lon="-5.9091560">
        <ele>1244.4</ele>
        <time>2021-10-10T14:37:44Z</time>
      </trkpt>
      <trkpt lat="43.0157150" lon="-5.9091870">
        <ele>1244.4</ele>
        <time>2021-10-10T14:37:46Z</time>
      </trkpt>
      <trkpt lat="43.0156980" lon="-5.9092180">
        <ele>1244.6</ele>
        <time>2021-10-10T14:37:48Z</time>
      </trkpt>
      <trkpt lat="43.0156870" lon="-5.9092300">
        <ele>1244.6</ele>
        <time>2021-10-10T14:37:49Z</time>
      </trkpt>
      <trkpt lat="43.0156740" lon="-5.9092390">
        <ele>1244.8</ele>
        <time>2021-10-10T14:37:50Z</time>
      </trkpt>
      <trkpt lat="43.0156610" lon="-5.9092530">
        <ele>1245.0</ele>
        <time>2021-10-10T14:37:51Z</time>
      </trkpt>
      <trkpt lat="43.0156240" lon="-5.9092960">
        <ele>1245.4</ele>
        <time>2021-10-10T14:37:54Z</time>
      </trkpt>
      <trkpt lat="43.0155600" lon="-5.9094190">
        <ele>1246.0</ele>
        <time>2021-10-10T14:38:01Z</time>
      </trkpt>
      <trkpt lat="43.0155500" lon="-5.9094390">
        <ele>1246.2</ele>
        <time>2021-10-10T14:38:02Z</time>
      </trkpt>
      <trkpt lat="43.0155280" lon="-5.9095240">
        <ele>1246.6</ele>
        <time>2021-10-10T14:38:07Z</time>
      </trkpt>
      <trkpt lat="43.0155210" lon="-5.9095410">
        <ele>1246.8</ele>
        <time>2021-10-10T14:38:08Z</time>
      </trkpt>
      <trkpt lat="43.0155100" lon="-5.9095540">
        <ele>1246.8</ele>
        <time>2021-10-10T14:38:09Z</time>
      </trkpt>
      <trkpt lat="43.0154970" lon="-5.9095650">
        <ele>1247.0</ele>
        <time>2021-10-10T14:38:10Z</time>
      </trkpt>
      <trkpt lat="43.0154850" lon="-5.9095810">
        <ele>1247.2</ele>
        <time>2021-10-10T14:38:11Z</time>
      </trkpt>
      <trkpt lat="43.0154680" lon="-5.9095850">
        <ele>1247.2</ele>
        <time>2021-10-10T14:38:12Z</time>
      </trkpt>
      <trkpt lat="43.0154410" lon="-5.9096030">
        <ele>1247.4</ele>
        <time>2021-10-10T14:38:14Z</time>
      </trkpt>
      <trkpt lat="43.0154230" lon="-5.9096470">
        <ele>1247.6</ele>
        <time>2021-10-10T14:38:16Z</time>
      </trkpt>
      <trkpt lat="43.0153770" lon="-5.9097510">
        <ele>1248.4</ele>
        <time>2021-10-10T14:38:21Z</time>
      </trkpt>
      <trkpt lat="43.0153730" lon="-5.9097870">
        <ele>1248.6</ele>
        <time>2021-10-10T14:38:23Z</time>
      </trkpt>
      <trkpt lat="43.0153550" lon="-5.9098440">
        <ele>1248.8</ele>
        <time>2021-10-10T14:38:26Z</time>
      </trkpt>
      <trkpt lat="43.0153430" lon="-5.9098900">
        <ele>1249.0</ele>
        <time>2021-10-10T14:38:28Z</time>
      </trkpt>
      <trkpt lat="43.0153360" lon="-5.9099090">
        <ele>1249.2</ele>
        <time>2021-10-10T14:38:29Z</time>
      </trkpt>
      <trkpt lat="43.0153180" lon="-5.9099480">
        <ele>1249.4</ele>
        <time>2021-10-10T14:38:31Z</time>
      </trkpt>
      <trkpt lat="43.0152980" lon="-5.9100320">
        <ele>1249.8</ele>
        <time>2021-10-10T14:38:35Z</time>
      </trkpt>
      <trkpt lat="43.0152980" lon="-5.9100550">
        <ele>1250.0</ele>
        <time>2021-10-10T14:38:36Z</time>
      </trkpt>
      <trkpt lat="43.0152940" lon="-5.9100920">
        <ele>1250.2</ele>
        <time>2021-10-10T14:38:38Z</time>
      </trkpt>
      <trkpt lat="43.0152900" lon="-5.9101120">
        <ele>1250.6</ele>
        <time>2021-10-10T14:38:39Z</time>
      </trkpt>
      <trkpt lat="43.0152830" lon="-5.9101480">
        <ele>1250.8</ele>
        <time>2021-10-10T14:38:41Z</time>
      </trkpt>
      <trkpt lat="43.0152820" lon="-5.9101730">
        <ele>1251.0</ele>
        <time>2021-10-10T14:38:42Z</time>
      </trkpt>
      <trkpt lat="43.0152620" lon="-5.9102690">
        <ele>1251.4</ele>
        <time>2021-10-10T14:38:47Z</time>
      </trkpt>
      <trkpt lat="43.0152520" lon="-5.9102890">
        <ele>1251.6</ele>
        <time>2021-10-10T14:38:48Z</time>
      </trkpt>
      <trkpt lat="43.0152500" lon="-5.9103090">
        <ele>1251.6</ele>
        <time>2021-10-10T14:38:49Z</time>
      </trkpt>
      <trkpt lat="43.0152050" lon="-5.9103880">
        <ele>1252.2</ele>
        <time>2021-10-10T14:38:55Z</time>
      </trkpt>
      <trkpt lat="43.0151980" lon="-5.9103970">
        <ele>1252.4</ele>
        <time>2021-10-10T14:38:56Z</time>
      </trkpt>
      <trkpt lat="43.0151890" lon="-5.9104060">
        <ele>1252.6</ele>
        <time>2021-10-10T14:38:58Z</time>
      </trkpt>
      <trkpt lat="43.0151890" lon="-5.9104060">
        <ele>1252.8</ele>
        <time>2021-10-10T14:39:00Z</time>
      </trkpt>
      <trkpt lat="43.0151630" lon="-5.9105030">
        <ele>1253.8</ele>
        <time>2021-10-10T14:48:15Z</time>
      </trkpt>
      <trkpt lat="43.0151420" lon="-5.9105560">
        <ele>1254.0</ele>
        <time>2021-10-10T14:48:17Z</time>
      </trkpt>
      <trkpt lat="43.0151310" lon="-5.9106090">
        <ele>1254.2</ele>
        <time>2021-10-10T14:48:19Z</time>
      </trkpt>
      <trkpt lat="43.0151180" lon="-5.9106490">
        <ele>1254.2</ele>
        <time>2021-10-10T14:48:21Z</time>
      </trkpt>
      <trkpt lat="43.0151140" lon="-5.9106720">
        <ele>1254.4</ele>
        <time>2021-10-10T14:48:22Z</time>
      </trkpt>
      <trkpt lat="43.0151000" lon="-5.9107430">
        <ele>1254.6</ele>
        <time>2021-10-10T14:48:25Z</time>
      </trkpt>
      <trkpt lat="43.0150700" lon="-5.9108180">
        <ele>1254.8</ele>
        <time>2021-10-10T14:48:28Z</time>
      </trkpt>
      <trkpt lat="43.0150530" lon="-5.9108550">
        <ele>1255.2</ele>
        <time>2021-10-10T14:48:30Z</time>
      </trkpt>
      <trkpt lat="43.0150390" lon="-5.9108980">
        <ele>1255.4</ele>
        <time>2021-10-10T14:48:32Z</time>
      </trkpt>
      <trkpt lat="43.0150180" lon="-5.9109300">
        <ele>1255.8</ele>
        <time>2021-10-10T14:48:34Z</time>
      </trkpt>
      <trkpt lat="43.0150070" lon="-5.9109340">
        <ele>1255.8</ele>
        <time>2021-10-10T14:48:35Z</time>
      </trkpt>
      <trkpt lat="43.0149910" lon="-5.9109450">
        <ele>1256.0</ele>
        <time>2021-10-10T14:48:36Z</time>
      </trkpt>
      <trkpt lat="43.0149420" lon="-5.9109900">
        <ele>1256.2</ele>
        <time>2021-10-10T14:48:39Z</time>
      </trkpt>
      <trkpt lat="43.0149330" lon="-5.9110820">
        <ele>1256.6</ele>
        <time>2021-10-10T14:48:44Z</time>
      </trkpt>
      <trkpt lat="43.0149260" lon="-5.9110940">
        <ele>1256.6</ele>
        <time>2021-10-10T14:48:45Z</time>
      </trkpt>
      <trkpt lat="43.0148990" lon="-5.9111240">
        <ele>1256.8</ele>
        <time>2021-10-10T14:48:47Z</time>
      </trkpt>
      <trkpt lat="43.0148940" lon="-5.9111640">
        <ele>1257.0</ele>
        <time>2021-10-10T14:48:49Z</time>
      </trkpt>
      <trkpt lat="43.0148900" lon="-5.9111790">
        <ele>1257.0</ele>
        <time>2021-10-10T14:48:50Z</time>
      </trkpt>
      <trkpt lat="43.0148790" lon="-5.9111970">
        <ele>1257.0</ele>
        <time>2021-10-10T14:48:51Z</time>
      </trkpt>
      <trkpt lat="43.0148520" lon="-5.9112420">
        <ele>1257.4</ele>
        <time>2021-10-10T14:48:54Z</time>
      </trkpt>
      <trkpt lat="43.0148180" lon="-5.9113150">
        <ele>1258.0</ele>
        <time>2021-10-10T14:48:58Z</time>
      </trkpt>
      <trkpt lat="43.0148110" lon="-5.9113350">
        <ele>1258.0</ele>
        <time>2021-10-10T14:48:59Z</time>
      </trkpt>
      <trkpt lat="43.0147800" lon="-5.9113820">
        <ele>1258.6</ele>
        <time>2021-10-10T14:49:02Z</time>
      </trkpt>
      <trkpt lat="43.0147710" lon="-5.9113980">
        <ele>1258.6</ele>
        <time>2021-10-10T14:49:03Z</time>
      </trkpt>
      <trkpt lat="43.0147560" lon="-5.9114290">
        <ele>1259.0</ele>
        <time>2021-10-10T14:49:05Z</time>
      </trkpt>
      <trkpt lat="43.0147500" lon="-5.9114470">
        <ele>1259.0</ele>
        <time>2021-10-10T14:49:06Z</time>
      </trkpt>
      <trkpt lat="43.0147310" lon="-5.9115000">
        <ele>1259.6</ele>
        <time>2021-10-10T14:49:09Z</time>
      </trkpt>
      <trkpt lat="43.0146760" lon="-5.9116250">
        <ele>1260.2</ele>
        <time>2021-10-10T14:49:16Z</time>
      </trkpt>
      <trkpt lat="43.0146680" lon="-5.9116590">
        <ele>1260.4</ele>
        <time>2021-10-10T14:49:18Z</time>
      </trkpt>
      <trkpt lat="43.0146640" lon="-5.9116780">
        <ele>1260.4</ele>
        <time>2021-10-10T14:49:19Z</time>
      </trkpt>
      <trkpt lat="43.0146590" lon="-5.9117190">
        <ele>1260.6</ele>
        <time>2021-10-10T14:49:21Z</time>
      </trkpt>
      <trkpt lat="43.0146580" lon="-5.9117410">
        <ele>1260.8</ele>
        <time>2021-10-10T14:49:22Z</time>
      </trkpt>
      <trkpt lat="43.0146510" lon="-5.9117780">
        <ele>1261.2</ele>
        <time>2021-10-10T14:49:24Z</time>
      </trkpt>
      <trkpt lat="43.0146310" lon="-5.9118990">
        <ele>1262.0</ele>
        <time>2021-10-10T14:49:30Z</time>
      </trkpt>
      <trkpt lat="43.0146150" lon="-5.9119560">
        <ele>1262.2</ele>
        <time>2021-10-10T14:49:33Z</time>
      </trkpt>
      <trkpt lat="43.0146010" lon="-5.9120130">
        <ele>1262.8</ele>
        <time>2021-10-10T14:49:36Z</time>
      </trkpt>
      <trkpt lat="43.0145870" lon="-5.9120690">
        <ele>1263.2</ele>
        <time>2021-10-10T14:49:39Z</time>
      </trkpt>
      <trkpt lat="43.0145740" lon="-5.9120850">
        <ele>1263.2</ele>
        <time>2021-10-10T14:49:40Z</time>
      </trkpt>
      <trkpt lat="43.0145230" lon="-5.9122210">
        <ele>1264.0</ele>
        <time>2021-10-10T14:49:47Z</time>
      </trkpt>
      <trkpt lat="43.0145090" lon="-5.9122600">
        <ele>1264.4</ele>
        <time>2021-10-10T14:49:49Z</time>
      </trkpt>
      <trkpt lat="43.0144660" lon="-5.9123570">
        <ele>1264.8</ele>
        <time>2021-10-10T14:49:54Z</time>
      </trkpt>
      <trkpt lat="43.0144540" lon="-5.9124450">
        <ele>1265.4</ele>
        <time>2021-10-10T14:49:58Z</time>
      </trkpt>
      <trkpt lat="43.0144420" lon="-5.9124850">
        <ele>1265.6</ele>
        <time>2021-10-10T14:50:00Z</time>
      </trkpt>
      <trkpt lat="43.0144360" lon="-5.9124980">
        <ele>1265.8</ele>
        <time>2021-10-10T14:50:01Z</time>
      </trkpt>
      <trkpt lat="43.0144050" lon="-5.9125950">
        <ele>1266.4</ele>
        <time>2021-10-10T14:50:06Z</time>
      </trkpt>
      <trkpt lat="43.0143990" lon="-5.9126120">
        <ele>1266.4</ele>
        <time>2021-10-10T14:50:07Z</time>
      </trkpt>
      <trkpt lat="43.0143670" lon="-5.9127460">
        <ele>1267.2</ele>
        <time>2021-10-10T14:50:14Z</time>
      </trkpt>
      <trkpt lat="43.0143690" lon="-5.9127720">
        <ele>1267.6</ele>
        <time>2021-10-10T14:50:15Z</time>
      </trkpt>
      <trkpt lat="43.0143680" lon="-5.9128090">
        <ele>1267.8</ele>
        <time>2021-10-10T14:50:17Z</time>
      </trkpt>
      <trkpt lat="43.0143590" lon="-5.9128440">
        <ele>1268.0</ele>
        <time>2021-10-10T14:50:19Z</time>
      </trkpt>
      <trkpt lat="43.0143270" lon="-5.9129190">
        <ele>1268.4</ele>
        <time>2021-10-10T14:50:23Z</time>
      </trkpt>
      <trkpt lat="43.0143180" lon="-5.9129380">
        <ele>1268.6</ele>
        <time>2021-10-10T14:50:24Z</time>
      </trkpt>
      <trkpt lat="43.0143100" lon="-5.9129570">
        <ele>1268.8</ele>
        <time>2021-10-10T14:50:25Z</time>
      </trkpt>
      <trkpt lat="43.0143050" lon="-5.9129730">
        <ele>1269.0</ele>
        <time>2021-10-10T14:50:26Z</time>
      </trkpt>
      <trkpt lat="43.0142720" lon="-5.9130440">
        <ele>1269.4</ele>
        <time>2021-10-10T14:50:30Z</time>
      </trkpt>
      <trkpt lat="43.0142630" lon="-5.9130540">
        <ele>1269.6</ele>
        <time>2021-10-10T14:50:31Z</time>
      </trkpt>
      <trkpt lat="43.0142420" lon="-5.9130770">
        <ele>1269.8</ele>
        <time>2021-10-10T14:50:33Z</time>
      </trkpt>
      <trkpt lat="43.0141980" lon="-5.9131110">
        <ele>1270.0</ele>
        <time>2021-10-10T14:50:36Z</time>
      </trkpt>
      <trkpt lat="43.0141390" lon="-5.9131260">
        <ele>1270.4</ele>
        <time>2021-10-10T14:50:39Z</time>
      </trkpt>
      <trkpt lat="43.0141240" lon="-5.9131270">
        <ele>1270.4</ele>
        <time>2021-10-10T14:50:40Z</time>
      </trkpt>
      <trkpt lat="43.0140510" lon="-5.9131180">
        <ele>1270.8</ele>
        <time>2021-10-10T14:50:44Z</time>
      </trkpt>
      <trkpt lat="43.0140000" lon="-5.9130950">
        <ele>1270.8</ele>
        <time>2021-10-10T14:50:47Z</time>
      </trkpt>
      <trkpt lat="43.0139830" lon="-5.9130880">
        <ele>1271.0</ele>
        <time>2021-10-10T14:50:48Z</time>
      </trkpt>
      <trkpt lat="43.0139500" lon="-5.9130770">
        <ele>1271.0</ele>
        <time>2021-10-10T14:50:50Z</time>
      </trkpt>
      <trkpt lat="43.0139030" lon="-5.9130810">
        <ele>1271.6</ele>
        <time>2021-10-10T14:50:53Z</time>
      </trkpt>
      <trkpt lat="43.0138790" lon="-5.9130910">
        <ele>1271.8</ele>
        <time>2021-10-10T14:50:55Z</time>
      </trkpt>
      <trkpt lat="43.0137820" lon="-5.9131400">
        <ele>1272.6</ele>
        <time>2021-10-10T14:51:01Z</time>
      </trkpt>
      <trkpt lat="43.0137440" lon="-5.9131880">
        <ele>1273.2</ele>
        <time>2021-10-10T14:51:04Z</time>
      </trkpt>
      <trkpt lat="43.0137380" lon="-5.9132030">
        <ele>1273.2</ele>
        <time>2021-10-10T14:51:05Z</time>
      </trkpt>
      <trkpt lat="43.0137300" lon="-5.9132480">
        <ele>1273.6</ele>
        <time>2021-10-10T14:51:07Z</time>
      </trkpt>
      <trkpt lat="43.0137290" lon="-5.9132690">
        <ele>1273.8</ele>
        <time>2021-10-10T14:51:08Z</time>
      </trkpt>
      <trkpt lat="43.0137330" lon="-5.9132880">
        <ele>1274.0</ele>
        <time>2021-10-10T14:51:09Z</time>
      </trkpt>
      <trkpt lat="43.0137330" lon="-5.9133290">
        <ele>1274.2</ele>
        <time>2021-10-10T14:51:11Z</time>
      </trkpt>
      <trkpt lat="43.0137360" lon="-5.9133450">
        <ele>1274.4</ele>
        <time>2021-10-10T14:51:12Z</time>
      </trkpt>
      <trkpt lat="43.0137560" lon="-5.9133720">
        <ele>1274.6</ele>
        <time>2021-10-10T14:51:14Z</time>
      </trkpt>
      <trkpt lat="43.0137610" lon="-5.9133870">
        <ele>1274.8</ele>
        <time>2021-10-10T14:51:15Z</time>
      </trkpt>
      <trkpt lat="43.0137950" lon="-5.9134200">
        <ele>1275.2</ele>
        <time>2021-10-10T14:51:18Z</time>
      </trkpt>
      <trkpt lat="43.0138400" lon="-5.9134670">
        <ele>1275.8</ele>
        <time>2021-10-10T14:51:21Z</time>
      </trkpt>
      <trkpt lat="43.0138580" lon="-5.9134800">
        <ele>1276.0</ele>
        <time>2021-10-10T14:51:22Z</time>
      </trkpt>
      <trkpt lat="43.0139000" lon="-5.9134760">
        <ele>1276.4</ele>
        <time>2021-10-10T14:51:24Z</time>
      </trkpt>
      <trkpt lat="43.0139800" lon="-5.9134520">
        <ele>1276.6</ele>
        <time>2021-10-10T14:51:27Z</time>
      </trkpt>
      <trkpt lat="43.0140110" lon="-5.9134230">
        <ele>1277.0</ele>
        <time>2021-10-10T14:51:31Z</time>
      </trkpt>
      <trkpt lat="43.0140610" lon="-5.9133950">
        <ele>1277.6</ele>
        <time>2021-10-10T14:51:34Z</time>
      </trkpt>
      <trkpt lat="43.0141230" lon="-5.9133390">
        <ele>1278.2</ele>
        <time>2021-10-10T14:51:38Z</time>
      </trkpt>
      <trkpt lat="43.0141510" lon="-5.9133120">
        <ele>1278.4</ele>
        <time>2021-10-10T14:51:40Z</time>
      </trkpt>
      <trkpt lat="43.0142520" lon="-5.9132440">
        <ele>1279.2</ele>
        <time>2021-10-10T14:51:46Z</time>
      </trkpt>
      <trkpt lat="43.0142920" lon="-5.9132030">
        <ele>1279.4</ele>
        <time>2021-10-10T14:51:49Z</time>
      </trkpt>
      <trkpt lat="43.0143400" lon="-5.9131520">
        <ele>1279.8</ele>
        <time>2021-10-10T14:51:52Z</time>
      </trkpt>
      <trkpt lat="43.0143710" lon="-5.9131130">
        <ele>1280.0</ele>
        <time>2021-10-10T14:51:54Z</time>
      </trkpt>
      <trkpt lat="43.0144130" lon="-5.9130430">
        <ele>1280.2</ele>
        <time>2021-10-10T14:51:57Z</time>
      </trkpt>
      <trkpt lat="43.0144410" lon="-5.9129930">
        <ele>1280.4</ele>
        <time>2021-10-10T14:51:59Z</time>
      </trkpt>
      <trkpt lat="43.0144940" lon="-5.9128760">
        <ele>1280.6</ele>
        <time>2021-10-10T14:52:03Z</time>
      </trkpt>
      <trkpt lat="43.0145180" lon="-5.9128130">
        <ele>1280.8</ele>
        <time>2021-10-10T14:52:05Z</time>
      </trkpt>
      <trkpt lat="43.0145410" lon="-5.9127460">
        <ele>1280.8</ele>
        <time>2021-10-10T14:52:07Z</time>
      </trkpt>
      <trkpt lat="43.0145620" lon="-5.9126650">
        <ele>1281.0</ele>
        <time>2021-10-10T14:52:09Z</time>
      </trkpt>
      <trkpt lat="43.0145710" lon="-5.9126360">
        <ele>1281.2</ele>
        <time>2021-10-10T14:52:10Z</time>
      </trkpt>
      <trkpt lat="43.0146610" lon="-5.9123980">
        <ele>1281.6</ele>
        <time>2021-10-10T14:52:17Z</time>
      </trkpt>
      <trkpt lat="43.0147020" lon="-5.9123380">
        <ele>1281.8</ele>
        <time>2021-10-10T14:52:19Z</time>
      </trkpt>
      <trkpt lat="43.0147460" lon="-5.9122990">
        <ele>1282.0</ele>
        <time>2021-10-10T14:52:21Z</time>
      </trkpt>
      <trkpt lat="43.0147680" lon="-5.9122750">
        <ele>1282.0</ele>
        <time>2021-10-10T14:52:22Z</time>
      </trkpt>
      <trkpt lat="43.0148290" lon="-5.9121990">
        <ele>1282.2</ele>
        <time>2021-10-10T14:52:25Z</time>
      </trkpt>
      <trkpt lat="43.0148430" lon="-5.9121700">
        <ele>1282.2</ele>
        <time>2021-10-10T14:52:26Z</time>
      </trkpt>
      <trkpt lat="43.0148790" lon="-5.9120760">
        <ele>1282.4</ele>
        <time>2021-10-10T14:52:29Z</time>
      </trkpt>
      <trkpt lat="43.0148980" lon="-5.9120150">
        <ele>1282.6</ele>
        <time>2021-10-10T14:52:31Z</time>
      </trkpt>
      <trkpt lat="43.0149170" lon="-5.9119440">
        <ele>1282.8</ele>
        <time>2021-10-10T14:52:33Z</time>
      </trkpt>
      <trkpt lat="43.0149260" lon="-5.9119230">
        <ele>1282.8</ele>
        <time>2021-10-10T14:52:34Z</time>
      </trkpt>
      <trkpt lat="43.0149370" lon="-5.9118950">
        <ele>1283.0</ele>
        <time>2021-10-10T14:52:35Z</time>
      </trkpt>
      <trkpt lat="43.0149510" lon="-5.9118350">
        <ele>1283.2</ele>
        <time>2021-10-10T14:52:37Z</time>
      </trkpt>
      <trkpt lat="43.0149590" lon="-5.9118050">
        <ele>1283.2</ele>
        <time>2021-10-10T14:52:38Z</time>
      </trkpt>
      <trkpt lat="43.0149820" lon="-5.9117490">
        <ele>1283.6</ele>
        <time>2021-10-10T14:52:40Z</time>
      </trkpt>
      <trkpt lat="43.0149960" lon="-5.9117220">
        <ele>1283.6</ele>
        <time>2021-10-10T14:52:41Z</time>
      </trkpt>
      <trkpt lat="43.0151190" lon="-5.9115260">
        <ele>1284.6</ele>
        <time>2021-10-10T14:52:49Z</time>
      </trkpt>
      <trkpt lat="43.0152140" lon="-5.9114150">
        <ele>1284.8</ele>
        <time>2021-10-10T14:52:54Z</time>
      </trkpt>
      <trkpt lat="43.0152970" lon="-5.9112700">
        <ele>1285.4</ele>
        <time>2021-10-10T14:53:00Z</time>
      </trkpt>
      <trkpt lat="43.0153350" lon="-5.9111840">
        <ele>1285.6</ele>
        <time>2021-10-10T14:53:03Z</time>
      </trkpt>
      <trkpt lat="43.0153610" lon="-5.9111350">
        <ele>1285.8</ele>
        <time>2021-10-10T14:53:05Z</time>
      </trkpt>
      <trkpt lat="43.0153910" lon="-5.9110820">
        <ele>1286.0</ele>
        <time>2021-10-10T14:53:07Z</time>
      </trkpt>
      <trkpt lat="43.0154700" lon="-5.9108610">
        <ele>1286.6</ele>
        <time>2021-10-10T14:53:15Z</time>
      </trkpt>
      <trkpt lat="43.0154790" lon="-5.9108310">
        <ele>1286.6</ele>
        <time>2021-10-10T14:53:16Z</time>
      </trkpt>
      <trkpt lat="43.0154990" lon="-5.9107730">
        <ele>1286.8</ele>
        <time>2021-10-10T14:53:18Z</time>
      </trkpt>
      <trkpt lat="43.0155630" lon="-5.9106350">
        <ele>1287.2</ele>
        <time>2021-10-10T14:53:23Z</time>
      </trkpt>
      <trkpt lat="43.0156780" lon="-5.9104660">
        <ele>1287.6</ele>
        <time>2021-10-10T14:53:30Z</time>
      </trkpt>
      <trkpt lat="43.0156970" lon="-5.9104420">
        <ele>1287.8</ele>
        <time>2021-10-10T14:53:31Z</time>
      </trkpt>
      <trkpt lat="43.0157330" lon="-5.9103950">
        <ele>1288.0</ele>
        <time>2021-10-10T14:53:33Z</time>
      </trkpt>
      <trkpt lat="43.0158040" lon="-5.9102980">
        <ele>1288.2</ele>
        <time>2021-10-10T14:53:37Z</time>
      </trkpt>
      <trkpt lat="43.0158580" lon="-5.9102340">
        <ele>1288.4</ele>
        <time>2021-10-10T14:53:40Z</time>
      </trkpt>
      <trkpt lat="43.0159120" lon="-5.9101710">
        <ele>1288.6</ele>
        <time>2021-10-10T14:53:43Z</time>
      </trkpt>
      <trkpt lat="43.0159460" lon="-5.9101280">
        <ele>1288.8</ele>
        <time>2021-10-10T14:53:45Z</time>
      </trkpt>
      <trkpt lat="43.0159640" lon="-5.9101040">
        <ele>1288.8</ele>
        <time>2021-10-10T14:53:46Z</time>
      </trkpt>
      <trkpt lat="43.0159800" lon="-5.9100800">
        <ele>1289.0</ele>
        <time>2021-10-10T14:53:47Z</time>
      </trkpt>
      <trkpt lat="43.0160150" lon="-5.9100390">
        <ele>1289.2</ele>
        <time>2021-10-10T14:53:49Z</time>
      </trkpt>
      <trkpt lat="43.0160840" lon="-5.9099530">
        <ele>1289.6</ele>
        <time>2021-10-10T14:53:53Z</time>
      </trkpt>
      <trkpt lat="43.0161050" lon="-5.9099300">
        <ele>1289.6</ele>
        <time>2021-10-10T14:53:54Z</time>
      </trkpt>
      <trkpt lat="43.0162000" lon="-5.9098090">
        <ele>1290.0</ele>
        <time>2021-10-10T14:54:00Z</time>
      </trkpt>
      <trkpt lat="43.0162530" lon="-5.9097490">
        <ele>1290.2</ele>
        <time>2021-10-10T14:54:03Z</time>
      </trkpt>
      <trkpt lat="43.0163990" lon="-5.9096920">
        <ele>1290.8</ele>
        <time>2021-10-10T14:54:10Z</time>
      </trkpt>
      <trkpt lat="43.0165100" lon="-5.9097160">
        <ele>1291.0</ele>
        <time>2021-10-10T14:54:15Z</time>
      </trkpt>
      <trkpt lat="43.0165770" lon="-5.9097520">
        <ele>1291.2</ele>
        <time>2021-10-10T14:54:18Z</time>
      </trkpt>
      <trkpt lat="43.0166500" lon="-5.9097860">
        <ele>1291.4</ele>
        <time>2021-10-10T14:54:21Z</time>
      </trkpt>
      <trkpt lat="43.0166950" lon="-5.9098010">
        <ele>1291.6</ele>
        <time>2021-10-10T14:54:23Z</time>
      </trkpt>
      <trkpt lat="43.0167370" lon="-5.9098110">
        <ele>1291.6</ele>
        <time>2021-10-10T14:54:25Z</time>
      </trkpt>
      <trkpt lat="43.0168110" lon="-5.9098070">
        <ele>1292.0</ele>
        <time>2021-10-10T14:54:28Z</time>
      </trkpt>
      <trkpt lat="43.0168680" lon="-5.9097990">
        <ele>1292.0</ele>
        <time>2021-10-10T14:54:30Z</time>
      </trkpt>
      <trkpt lat="43.0169180" lon="-5.9097820">
        <ele>1292.4</ele>
        <time>2021-10-10T14:54:32Z</time>
      </trkpt>
      <trkpt lat="43.0169380" lon="-5.9097690">
        <ele>1292.4</ele>
        <time>2021-10-10T14:54:33Z</time>
      </trkpt>
      <trkpt lat="43.0169740" lon="-5.9097340">
        <ele>1292.6</ele>
        <time>2021-10-10T14:54:35Z</time>
      </trkpt>
      <trkpt lat="43.0171280" lon="-5.9096250">
        <ele>1293.0</ele>
        <time>2021-10-10T14:54:42Z</time>
      </trkpt>
      <trkpt lat="43.0171750" lon="-5.9096080">
        <ele>1293.0</ele>
        <time>2021-10-10T14:54:44Z</time>
      </trkpt>
      <trkpt lat="43.0172020" lon="-5.9096030">
        <ele>1293.0</ele>
        <time>2021-10-10T14:54:45Z</time>
      </trkpt>
      <trkpt lat="43.0172580" lon="-5.9095950">
        <ele>1293.2</ele>
        <time>2021-10-10T14:54:47Z</time>
      </trkpt>
      <trkpt lat="43.0173110" lon="-5.9095850">
        <ele>1293.2</ele>
        <time>2021-10-10T14:54:49Z</time>
      </trkpt>
      <trkpt lat="43.0173630" lon="-5.9095750">
        <ele>1293.2</ele>
        <time>2021-10-10T14:54:51Z</time>
      </trkpt>
      <trkpt lat="43.0175790" lon="-5.9094950">
        <ele>1293.6</ele>
        <time>2021-10-10T14:54:59Z</time>
      </trkpt>
      <trkpt lat="43.0176680" lon="-5.9094240">
        <ele>1293.8</ele>
        <time>2021-10-10T14:55:03Z</time>
      </trkpt>
      <trkpt lat="43.0177270" lon="-5.9093700">
        <ele>1294.0</ele>
        <time>2021-10-10T14:55:06Z</time>
      </trkpt>
      <trkpt lat="43.0177670" lon="-5.9093380">
        <ele>1294.2</ele>
        <time>2021-10-10T14:55:08Z</time>
      </trkpt>
      <trkpt lat="43.0178730" lon="-5.9092650">
        <ele>1294.6</ele>
        <time>2021-10-10T14:55:13Z</time>
      </trkpt>
      <trkpt lat="43.0179890" lon="-5.9091840">
        <ele>1295.2</ele>
        <time>2021-10-10T14:55:19Z</time>
      </trkpt>
      <trkpt lat="43.0180440" lon="-5.9091320">
        <ele>1295.6</ele>
        <time>2021-10-10T14:55:22Z</time>
      </trkpt>
      <trkpt lat="43.0181770" lon="-5.9090180">
        <ele>1296.4</ele>
        <time>2021-10-10T14:55:29Z</time>
      </trkpt>
      <trkpt lat="43.0181960" lon="-5.9090050">
        <ele>1296.4</ele>
        <time>2021-10-10T14:55:30Z</time>
      </trkpt>
      <trkpt lat="43.0182180" lon="-5.9089850">
        <ele>1296.6</ele>
        <time>2021-10-10T14:55:31Z</time>
      </trkpt>
      <trkpt lat="43.0182530" lon="-5.9089590">
        <ele>1296.6</ele>
        <time>2021-10-10T14:55:33Z</time>
      </trkpt>
      <trkpt lat="43.0182710" lon="-5.9089440">
        <ele>1296.8</ele>
        <time>2021-10-10T14:55:34Z</time>
      </trkpt>
      <trkpt lat="43.0183310" lon="-5.9089010">
        <ele>1297.0</ele>
        <time>2021-10-10T14:55:37Z</time>
      </trkpt>
      <trkpt lat="43.0183670" lon="-5.9088750">
        <ele>1297.2</ele>
        <time>2021-10-10T14:55:39Z</time>
      </trkpt>
      <trkpt lat="43.0183880" lon="-5.9088620">
        <ele>1297.2</ele>
        <time>2021-10-10T14:55:40Z</time>
      </trkpt>
      <trkpt lat="43.0184090" lon="-5.9088470">
        <ele>1297.4</ele>
        <time>2021-10-10T14:55:41Z</time>
      </trkpt>
      <trkpt lat="43.0184280" lon="-5.9088330">
        <ele>1297.4</ele>
        <time>2021-10-10T14:55:42Z</time>
      </trkpt>
      <trkpt lat="43.0184930" lon="-5.9088030">
        <ele>1297.6</ele>
        <time>2021-10-10T14:55:45Z</time>
      </trkpt>
      <trkpt lat="43.0185140" lon="-5.9087930">
        <ele>1297.6</ele>
        <time>2021-10-10T14:55:46Z</time>
      </trkpt>
      <trkpt lat="43.0185620" lon="-5.9087810">
        <ele>1297.8</ele>
        <time>2021-10-10T14:55:48Z</time>
      </trkpt>
      <trkpt lat="43.0186080" lon="-5.9087810">
        <ele>1297.8</ele>
        <time>2021-10-10T14:55:50Z</time>
      </trkpt>
      <trkpt lat="43.0186540" lon="-5.9087990">
        <ele>1298.0</ele>
        <time>2021-10-10T14:55:52Z</time>
      </trkpt>
      <trkpt lat="43.0187110" lon="-5.9088390">
        <ele>1298.4</ele>
        <time>2021-10-10T14:55:55Z</time>
      </trkpt>
      <trkpt lat="43.0187530" lon="-5.9089080">
        <ele>1298.8</ele>
        <time>2021-10-10T14:55:58Z</time>
      </trkpt>
      <trkpt lat="43.0187820" lon="-5.9090510">
        <ele>1299.2</ele>
        <time>2021-10-10T14:56:03Z</time>
      </trkpt>
      <trkpt lat="43.0187760" lon="-5.9091140">
        <ele>1299.6</ele>
        <time>2021-10-10T14:56:05Z</time>
      </trkpt>
      <trkpt lat="43.0187680" lon="-5.9091430">
        <ele>1299.6</ele>
        <time>2021-10-10T14:56:06Z</time>
      </trkpt>
      <trkpt lat="43.0187440" lon="-5.9092040">
        <ele>1300.0</ele>
        <time>2021-10-10T14:56:09Z</time>
      </trkpt>
      <trkpt lat="43.0187150" lon="-5.9092210">
        <ele>1300.0</ele>
        <time>2021-10-10T14:56:11Z</time>
      </trkpt>
      <trkpt lat="43.0186590" lon="-5.9092420">
        <ele>1300.4</ele>
        <time>2021-10-10T14:56:15Z</time>
      </trkpt>
      <trkpt lat="43.0186400" lon="-5.9092390">
        <ele>1300.8</ele>
        <time>2021-10-10T14:56:16Z</time>
      </trkpt>
      <trkpt lat="43.0186000" lon="-5.9092310">
        <ele>1301.0</ele>
        <time>2021-10-10T14:56:18Z</time>
      </trkpt>
      <trkpt lat="43.0184750" lon="-5.9092200">
        <ele>1301.8</ele>
        <time>2021-10-10T14:56:23Z</time>
      </trkpt>
      <trkpt lat="43.0184460" lon="-5.9092230">
        <ele>1301.8</ele>
        <time>2021-10-10T14:56:24Z</time>
      </trkpt>
      <trkpt lat="43.0182660" lon="-5.9092250">
        <ele>1302.6</ele>
        <time>2021-10-10T14:56:31Z</time>
      </trkpt>
      <trkpt lat="43.0182460" lon="-5.9092320">
        <ele>1302.8</ele>
        <time>2021-10-10T14:56:32Z</time>
      </trkpt>
      <trkpt lat="43.0182270" lon="-5.9092420">
        <ele>1302.8</ele>
        <time>2021-10-10T14:56:33Z</time>
      </trkpt>
      <trkpt lat="43.0181740" lon="-5.9092780">
        <ele>1303.2</ele>
        <time>2021-10-10T14:56:36Z</time>
      </trkpt>
      <trkpt lat="43.0181040" lon="-5.9093230">
        <ele>1304.0</ele>
        <time>2021-10-10T14:56:40Z</time>
      </trkpt>
      <trkpt lat="43.0180350" lon="-5.9093960">
        <ele>1304.6</ele>
        <time>2021-10-10T14:56:45Z</time>
      </trkpt>
      <trkpt lat="43.0180100" lon="-5.9094310">
        <ele>1304.8</ele>
        <time>2021-10-10T14:56:47Z</time>
      </trkpt>
      <trkpt lat="43.0179850" lon="-5.9094660">
        <ele>1305.0</ele>
        <time>2021-10-10T14:56:49Z</time>
      </trkpt>
      <trkpt lat="43.0179050" lon="-5.9095730">
        <ele>1305.6</ele>
        <time>2021-10-10T14:56:56Z</time>
      </trkpt>
      <trkpt lat="43.0178400" lon="-5.9096660">
        <ele>1306.2</ele>
        <time>2021-10-10T14:57:02Z</time>
      </trkpt>
      <trkpt lat="43.0178240" lon="-5.9096920">
        <ele>1306.6</ele>
        <time>2021-10-10T14:57:04Z</time>
      </trkpt>
      <trkpt lat="43.0177630" lon="-5.9097610">
        <ele>1307.2</ele>
        <time>2021-10-10T14:57:09Z</time>
      </trkpt>
      <trkpt lat="43.0177280" lon="-5.9097960">
        <ele>1307.4</ele>
        <time>2021-10-10T14:57:12Z</time>
      </trkpt>
      <trkpt lat="43.0176590" lon="-5.9098620">
        <ele>1308.2</ele>
        <time>2021-10-10T14:57:17Z</time>
      </trkpt>
      <trkpt lat="43.0176460" lon="-5.9098740">
        <ele>1308.4</ele>
        <time>2021-10-10T14:57:18Z</time>
      </trkpt>
      <trkpt lat="43.0175870" lon="-5.9099130">
        <ele>1309.0</ele>
        <time>2021-10-10T14:57:22Z</time>
      </trkpt>
      <trkpt lat="43.0175360" lon="-5.9099370">
        <ele>1309.4</ele>
        <time>2021-10-10T14:57:25Z</time>
      </trkpt>
      <trkpt lat="43.0174380" lon="-5.9099860">
        <ele>1310.0</ele>
        <time>2021-10-10T14:57:31Z</time>
      </trkpt>
      <trkpt lat="43.0173880" lon="-5.9100050">
        <ele>1310.4</ele>
        <time>2021-10-10T14:57:34Z</time>
      </trkpt>
      <trkpt lat="43.0172800" lon="-5.9100500">
        <ele>1311.4</ele>
        <time>2021-10-10T14:57:41Z</time>
      </trkpt>
      <trkpt lat="43.0172670" lon="-5.9100560">
        <ele>1311.6</ele>
        <time>2021-10-10T14:57:42Z</time>
      </trkpt>
      <trkpt lat="43.0171560" lon="-5.9101120">
        <ele>1312.4</ele>
        <time>2021-10-10T14:57:50Z</time>
      </trkpt>
      <trkpt lat="43.0171470" lon="-5.9101220">
        <ele>1312.6</ele>
        <time>2021-10-10T14:57:51Z</time>
      </trkpt>
      <trkpt lat="43.0171230" lon="-5.9101430">
        <ele>1312.8</ele>
        <time>2021-10-10T14:57:53Z</time>
      </trkpt>
      <trkpt lat="43.0170970" lon="-5.9101650">
        <ele>1312.8</ele>
        <time>2021-10-10T14:57:55Z</time>
      </trkpt>
      <trkpt lat="43.0170800" lon="-5.9101830">
        <ele>1313.0</ele>
        <time>2021-10-10T14:57:57Z</time>
      </trkpt>
      <trkpt lat="43.0170710" lon="-5.9101970">
        <ele>1313.2</ele>
        <time>2021-10-10T14:57:58Z</time>
      </trkpt>
      <trkpt lat="43.0170640" lon="-5.9102030">
        <ele>1313.2</ele>
        <time>2021-10-10T14:57:59Z</time>
      </trkpt>
      <trkpt lat="43.0170550" lon="-5.9102080">
        <ele>1313.4</ele>
        <time>2021-10-10T14:58:00Z</time>
      </trkpt>
      <trkpt lat="43.0170460" lon="-5.9102180">
        <ele>1313.6</ele>
        <time>2021-10-10T14:58:01Z</time>
      </trkpt>
      <trkpt lat="43.0170220" lon="-5.9102470">
        <ele>1313.8</ele>
        <time>2021-10-10T14:58:03Z</time>
      </trkpt>
      <trkpt lat="43.0170080" lon="-5.9102590">
        <ele>1314.0</ele>
        <time>2021-10-10T14:58:04Z</time>
      </trkpt>
      <trkpt lat="43.0169710" lon="-5.9102880">
        <ele>1314.6</ele>
        <time>2021-10-10T14:58:07Z</time>
      </trkpt>
      <trkpt lat="43.0169560" lon="-5.9103030">
        <ele>1314.6</ele>
        <time>2021-10-10T14:58:08Z</time>
      </trkpt>
      <trkpt lat="43.0169440" lon="-5.9103150">
        <ele>1314.8</ele>
        <time>2021-10-10T14:58:09Z</time>
      </trkpt>
      <trkpt lat="43.0169050" lon="-5.9103320">
        <ele>1315.0</ele>
        <time>2021-10-10T14:58:12Z</time>
      </trkpt>
      <trkpt lat="43.0168680" lon="-5.9103440">
        <ele>1315.2</ele>
        <time>2021-10-10T14:58:14Z</time>
      </trkpt>
      <trkpt lat="43.0168500" lon="-5.9103470">
        <ele>1315.4</ele>
        <time>2021-10-10T14:58:15Z</time>
      </trkpt>
      <trkpt lat="43.0168040" lon="-5.9103490">
        <ele>1315.8</ele>
        <time>2021-10-10T14:58:18Z</time>
      </trkpt>
      <trkpt lat="43.0167720" lon="-5.9103480">
        <ele>1316.0</ele>
        <time>2021-10-10T14:58:20Z</time>
      </trkpt>
      <trkpt lat="43.0167440" lon="-5.9103490">
        <ele>1316.0</ele>
        <time>2021-10-10T14:58:22Z</time>
      </trkpt>
      <trkpt lat="43.0167040" lon="-5.9103430">
        <ele>1316.4</ele>
        <time>2021-10-10T14:58:25Z</time>
      </trkpt>
      <trkpt lat="43.0166630" lon="-5.9103390">
        <ele>1316.6</ele>
        <time>2021-10-10T14:58:28Z</time>
      </trkpt>
      <trkpt lat="43.0166490" lon="-5.9103390">
        <ele>1316.6</ele>
        <time>2021-10-10T14:58:29Z</time>
      </trkpt>
      <trkpt lat="43.0165960" lon="-5.9103460">
        <ele>1317.2</ele>
        <time>2021-10-10T14:58:33Z</time>
      </trkpt>
      <trkpt lat="43.0165330" lon="-5.9103610">
        <ele>1317.6</ele>
        <time>2021-10-10T14:58:37Z</time>
      </trkpt>
      <trkpt lat="43.0165220" lon="-5.9103680">
        <ele>1317.8</ele>
        <time>2021-10-10T14:58:38Z</time>
      </trkpt>
      <trkpt lat="43.0164960" lon="-5.9103810">
        <ele>1317.8</ele>
        <time>2021-10-10T14:58:40Z</time>
      </trkpt>
      <trkpt lat="43.0164570" lon="-5.9104080">
        <ele>1318.2</ele>
        <time>2021-10-10T14:58:43Z</time>
      </trkpt>
      <trkpt lat="43.0164230" lon="-5.9104460">
        <ele>1318.6</ele>
        <time>2021-10-10T14:58:46Z</time>
      </trkpt>
      <trkpt lat="43.0163980" lon="-5.9104690">
        <ele>1318.8</ele>
        <time>2021-10-10T14:58:48Z</time>
      </trkpt>
      <trkpt lat="43.0163790" lon="-5.9104920">
        <ele>1319.2</ele>
        <time>2021-10-10T14:58:50Z</time>
      </trkpt>
      <trkpt lat="43.0163400" lon="-5.9105420">
        <ele>1319.6</ele>
        <time>2021-10-10T14:58:54Z</time>
      </trkpt>
      <trkpt lat="43.0163290" lon="-5.9105520">
        <ele>1319.6</ele>
        <time>2021-10-10T14:58:55Z</time>
      </trkpt>
      <trkpt lat="43.0163070" lon="-5.9105770">
        <ele>1320.0</ele>
        <time>2021-10-10T14:58:57Z</time>
      </trkpt>
      <trkpt lat="43.0162680" lon="-5.9106360">
        <ele>1320.4</ele>
        <time>2021-10-10T14:59:01Z</time>
      </trkpt>
      <trkpt lat="43.0162570" lon="-5.9106500">
        <ele>1320.6</ele>
        <time>2021-10-10T14:59:02Z</time>
      </trkpt>
      <trkpt lat="43.0162450" lon="-5.9106660">
        <ele>1320.8</ele>
        <time>2021-10-10T14:59:03Z</time>
      </trkpt>
      <trkpt lat="43.0162350" lon="-5.9106780">
        <ele>1321.0</ele>
        <time>2021-10-10T14:59:04Z</time>
      </trkpt>
      <trkpt lat="43.0162270" lon="-5.9106890">
        <ele>1321.0</ele>
        <time>2021-10-10T14:59:05Z</time>
      </trkpt>
      <trkpt lat="43.0161760" lon="-5.9107600">
        <ele>1321.6</ele>
        <time>2021-10-10T14:59:10Z</time>
      </trkpt>
      <trkpt lat="43.0161390" lon="-5.9108160">
        <ele>1322.2</ele>
        <time>2021-10-10T14:59:14Z</time>
      </trkpt>
      <trkpt lat="43.0161190" lon="-5.9108630">
        <ele>1322.8</ele>
        <time>2021-10-10T14:59:17Z</time>
      </trkpt>
      <trkpt lat="43.0160980" lon="-5.9108920">
        <ele>1323.0</ele>
        <time>2021-10-10T14:59:19Z</time>
      </trkpt>
      <trkpt lat="43.0160840" lon="-5.9109230">
        <ele>1323.0</ele>
        <time>2021-10-10T14:59:21Z</time>
      </trkpt>
      <trkpt lat="43.0160760" lon="-5.9109390">
        <ele>1323.0</ele>
        <time>2021-10-10T14:59:22Z</time>
      </trkpt>
      <trkpt lat="43.0160630" lon="-5.9109710">
        <ele>1323.4</ele>
        <time>2021-10-10T14:59:24Z</time>
      </trkpt>
      <trkpt lat="43.0160490" lon="-5.9110030">
        <ele>1323.6</ele>
        <time>2021-10-10T14:59:26Z</time>
      </trkpt>
      <trkpt lat="43.0160030" lon="-5.9111250">
        <ele>1324.4</ele>
        <time>2021-10-10T14:59:33Z</time>
      </trkpt>
      <trkpt lat="43.0159960" lon="-5.9111430">
        <ele>1324.6</ele>
        <time>2021-10-10T14:59:34Z</time>
      </trkpt>
      <trkpt lat="43.0159660" lon="-5.9112120">
        <ele>1325.2</ele>
        <time>2021-10-10T14:59:38Z</time>
      </trkpt>
      <trkpt lat="43.0159570" lon="-5.9112290">
        <ele>1325.2</ele>
        <time>2021-10-10T14:59:39Z</time>
      </trkpt>
      <trkpt lat="43.0159400" lon="-5.9112590">
        <ele>1325.2</ele>
        <time>2021-10-10T14:59:41Z</time>
      </trkpt>
      <trkpt lat="43.0159340" lon="-5.9112900">
        <ele>1325.4</ele>
        <time>2021-10-10T14:59:43Z</time>
      </trkpt>
      <trkpt lat="43.0159180" lon="-5.9113260">
        <ele>1325.8</ele>
        <time>2021-10-10T14:59:45Z</time>
      </trkpt>
      <trkpt lat="43.0159040" lon="-5.9113630">
        <ele>1326.0</ele>
        <time>2021-10-10T14:59:47Z</time>
      </trkpt>
      <trkpt lat="43.0158890" lon="-5.9114210">
        <ele>1326.2</ele>
        <time>2021-10-10T14:59:50Z</time>
      </trkpt>
      <trkpt lat="43.0158850" lon="-5.9114410">
        <ele>1326.6</ele>
        <time>2021-10-10T14:59:51Z</time>
      </trkpt>
      <trkpt lat="43.0158790" lon="-5.9114600">
        <ele>1326.8</ele>
        <time>2021-10-10T14:59:52Z</time>
      </trkpt>
      <trkpt lat="43.0158730" lon="-5.9114820">
        <ele>1326.8</ele>
        <time>2021-10-10T14:59:53Z</time>
      </trkpt>
      <trkpt lat="43.0158610" lon="-5.9115160">
        <ele>1327.0</ele>
        <time>2021-10-10T14:59:55Z</time>
      </trkpt>
      <trkpt lat="43.0158560" lon="-5.9115330">
        <ele>1327.2</ele>
        <time>2021-10-10T14:59:56Z</time>
      </trkpt>
      <trkpt lat="43.0158470" lon="-5.9115670">
        <ele>1327.6</ele>
        <time>2021-10-10T14:59:58Z</time>
      </trkpt>
      <trkpt lat="43.0158050" lon="-5.9116610">
        <ele>1328.0</ele>
        <time>2021-10-10T15:00:03Z</time>
      </trkpt>
      <trkpt lat="43.0157910" lon="-5.9116940">
        <ele>1328.2</ele>
        <time>2021-10-10T15:00:05Z</time>
      </trkpt>
      <trkpt lat="43.0157770" lon="-5.9117310">
        <ele>1328.6</ele>
        <time>2021-10-10T15:00:07Z</time>
      </trkpt>
      <trkpt lat="43.0157710" lon="-5.9117510">
        <ele>1328.6</ele>
        <time>2021-10-10T15:00:08Z</time>
      </trkpt>
      <trkpt lat="43.0157300" lon="-5.9118470">
        <ele>1329.2</ele>
        <time>2021-10-10T15:00:13Z</time>
      </trkpt>
      <trkpt lat="43.0156930" lon="-5.9119600">
        <ele>1329.8</ele>
        <time>2021-10-10T15:00:19Z</time>
      </trkpt>
      <trkpt lat="43.0156890" lon="-5.9119800">
        <ele>1329.8</ele>
        <time>2021-10-10T15:00:20Z</time>
      </trkpt>
      <trkpt lat="43.0156790" lon="-5.9120180">
        <ele>1330.0</ele>
        <time>2021-10-10T15:00:22Z</time>
      </trkpt>
      <trkpt lat="43.0156650" lon="-5.9120780">
        <ele>1330.2</ele>
        <time>2021-10-10T15:00:25Z</time>
      </trkpt>
      <trkpt lat="43.0156460" lon="-5.9121340">
        <ele>1330.4</ele>
        <time>2021-10-10T15:00:28Z</time>
      </trkpt>
      <trkpt lat="43.0156340" lon="-5.9121740">
        <ele>1330.8</ele>
        <time>2021-10-10T15:00:30Z</time>
      </trkpt>
      <trkpt lat="43.0156280" lon="-5.9121910">
        <ele>1330.8</ele>
        <time>2021-10-10T15:00:31Z</time>
      </trkpt>
      <trkpt lat="43.0156200" lon="-5.9122110">
        <ele>1331.0</ele>
        <time>2021-10-10T15:00:32Z</time>
      </trkpt>
      <trkpt lat="43.0156060" lon="-5.9122510">
        <ele>1331.2</ele>
        <time>2021-10-10T15:00:34Z</time>
      </trkpt>
      <trkpt lat="43.0155920" lon="-5.9123100">
        <ele>1331.6</ele>
        <time>2021-10-10T15:00:37Z</time>
      </trkpt>
      <trkpt lat="43.0155840" lon="-5.9123670">
        <ele>1332.0</ele>
        <time>2021-10-10T15:00:40Z</time>
      </trkpt>
      <trkpt lat="43.0155610" lon="-5.9124540">
        <ele>1332.4</ele>
        <time>2021-10-10T15:00:44Z</time>
      </trkpt>
      <trkpt lat="43.0155510" lon="-5.9124870">
        <ele>1332.6</ele>
        <time>2021-10-10T15:00:46Z</time>
      </trkpt>
      <trkpt lat="43.0155260" lon="-5.9125590">
        <ele>1333.0</ele>
        <time>2021-10-10T15:00:50Z</time>
      </trkpt>
      <trkpt lat="43.0155210" lon="-5.9125780">
        <ele>1333.2</ele>
        <time>2021-10-10T15:00:51Z</time>
      </trkpt>
      <trkpt lat="43.0155120" lon="-5.9126180">
        <ele>1333.4</ele>
        <time>2021-10-10T15:00:53Z</time>
      </trkpt>
      <trkpt lat="43.0155060" lon="-5.9126570">
        <ele>1333.6</ele>
        <time>2021-10-10T15:00:55Z</time>
      </trkpt>
      <trkpt lat="43.0154900" lon="-5.9127120">
        <ele>1334.0</ele>
        <time>2021-10-10T15:00:58Z</time>
      </trkpt>
      <trkpt lat="43.0154710" lon="-5.9127450">
        <ele>1334.2</ele>
        <time>2021-10-10T15:01:00Z</time>
      </trkpt>
      <trkpt lat="43.0154680" lon="-5.9127630">
        <ele>1334.4</ele>
        <time>2021-10-10T15:01:01Z</time>
      </trkpt>
      <trkpt lat="43.0154640" lon="-5.9127810">
        <ele>1334.4</ele>
        <time>2021-10-10T15:01:02Z</time>
      </trkpt>
      <trkpt lat="43.0154600" lon="-5.9128010">
        <ele>1334.6</ele>
        <time>2021-10-10T15:01:03Z</time>
      </trkpt>
      <trkpt lat="43.0154460" lon="-5.9128380">
        <ele>1334.8</ele>
        <time>2021-10-10T15:01:05Z</time>
      </trkpt>
      <trkpt lat="43.0154130" lon="-5.9129070">
        <ele>1335.4</ele>
        <time>2021-10-10T15:01:09Z</time>
      </trkpt>
      <trkpt lat="43.0153970" lon="-5.9129400">
        <ele>1335.6</ele>
        <time>2021-10-10T15:01:11Z</time>
      </trkpt>
      <trkpt lat="43.0153890" lon="-5.9129570">
        <ele>1335.6</ele>
        <time>2021-10-10T15:01:12Z</time>
      </trkpt>
      <trkpt lat="43.0153680" lon="-5.9129860">
        <ele>1336.0</ele>
        <time>2021-10-10T15:01:14Z</time>
      </trkpt>
      <trkpt lat="43.0153580" lon="-5.9130020">
        <ele>1336.0</ele>
        <time>2021-10-10T15:01:15Z</time>
      </trkpt>
      <trkpt lat="43.0153460" lon="-5.9130170">
        <ele>1336.2</ele>
        <time>2021-10-10T15:01:16Z</time>
      </trkpt>
      <trkpt lat="43.0153260" lon="-5.9130450">
        <ele>1336.4</ele>
        <time>2021-10-10T15:01:18Z</time>
      </trkpt>
      <trkpt lat="43.0153130" lon="-5.9130590">
        <ele>1336.4</ele>
        <time>2021-10-10T15:01:19Z</time>
      </trkpt>
      <trkpt lat="43.0152980" lon="-5.9130730">
        <ele>1336.4</ele>
        <time>2021-10-10T15:01:20Z</time>
      </trkpt>
      <trkpt lat="43.0152870" lon="-5.9130860">
        <ele>1336.4</ele>
        <time>2021-10-10T15:01:21Z</time>
      </trkpt>
      <trkpt lat="43.0152560" lon="-5.9131240">
        <ele>1336.8</ele>
        <time>2021-10-10T15:01:24Z</time>
      </trkpt>
      <trkpt lat="43.0152110" lon="-5.9131880">
        <ele>1337.4</ele>
        <time>2021-10-10T15:01:28Z</time>
      </trkpt>
      <trkpt lat="43.0151910" lon="-5.9132230">
        <ele>1337.6</ele>
        <time>2021-10-10T15:01:30Z</time>
      </trkpt>
      <trkpt lat="43.0151840" lon="-5.9132400">
        <ele>1337.8</ele>
        <time>2021-10-10T15:01:31Z</time>
      </trkpt>
      <trkpt lat="43.0151620" lon="-5.9132880">
        <ele>1338.2</ele>
        <time>2021-10-10T15:01:34Z</time>
      </trkpt>
      <trkpt lat="43.0151480" lon="-5.9133220">
        <ele>1338.6</ele>
        <time>2021-10-10T15:01:36Z</time>
      </trkpt>
      <trkpt lat="43.0151330" lon="-5.9133610">
        <ele>1338.8</ele>
        <time>2021-10-10T15:01:38Z</time>
      </trkpt>
      <trkpt lat="43.0151170" lon="-5.9133990">
        <ele>1338.8</ele>
        <time>2021-10-10T15:01:40Z</time>
      </trkpt>
      <trkpt lat="43.0150620" lon="-5.9135150">
        <ele>1339.6</ele>
        <time>2021-10-10T15:01:46Z</time>
      </trkpt>
      <trkpt lat="43.0150380" lon="-5.9135680">
        <ele>1339.8</ele>
        <time>2021-10-10T15:01:49Z</time>
      </trkpt>
      <trkpt lat="43.0150330" lon="-5.9135870">
        <ele>1339.8</ele>
        <time>2021-10-10T15:01:50Z</time>
      </trkpt>
      <trkpt lat="43.0150230" lon="-5.9136190">
        <ele>1340.0</ele>
        <time>2021-10-10T15:01:52Z</time>
      </trkpt>
      <trkpt lat="43.0149990" lon="-5.9136910">
        <ele>1340.6</ele>
        <time>2021-10-10T15:01:56Z</time>
      </trkpt>
      <trkpt lat="43.0149830" lon="-5.9137430">
        <ele>1341.0</ele>
        <time>2021-10-10T15:01:59Z</time>
      </trkpt>
      <trkpt lat="43.0149490" lon="-5.9138440">
        <ele>1341.6</ele>
        <time>2021-10-10T15:02:04Z</time>
      </trkpt>
      <trkpt lat="43.0149420" lon="-5.9138640">
        <ele>1341.6</ele>
        <time>2021-10-10T15:02:05Z</time>
      </trkpt>
      <trkpt lat="43.0149270" lon="-5.9138990">
        <ele>1342.0</ele>
        <time>2021-10-10T15:02:07Z</time>
      </trkpt>
      <trkpt lat="43.0149140" lon="-5.9139400">
        <ele>1342.2</ele>
        <time>2021-10-10T15:02:09Z</time>
      </trkpt>
      <trkpt lat="43.0149030" lon="-5.9139950">
        <ele>1342.6</ele>
        <time>2021-10-10T15:02:12Z</time>
      </trkpt>
      <trkpt lat="43.0148920" lon="-5.9140300">
        <ele>1342.8</ele>
        <time>2021-10-10T15:02:14Z</time>
      </trkpt>
      <trkpt lat="43.0148890" lon="-5.9141470">
        <ele>1343.8</ele>
        <time>2021-10-10T15:02:20Z</time>
      </trkpt>
      <trkpt lat="43.0148940" lon="-5.9143310">
        <ele>1344.8</ele>
        <time>2021-10-10T15:02:29Z</time>
      </trkpt>
      <trkpt lat="43.0149000" lon="-5.9143940">
        <ele>1345.0</ele>
        <time>2021-10-10T15:02:32Z</time>
      </trkpt>
      <trkpt lat="43.0149050" lon="-5.9144840">
        <ele>1345.6</ele>
        <time>2021-10-10T15:02:37Z</time>
      </trkpt>
      <trkpt lat="43.0149050" lon="-5.9145450">
        <ele>1346.0</ele>
        <time>2021-10-10T15:02:40Z</time>
      </trkpt>
      <trkpt lat="43.0149120" lon="-5.9146840">
        <ele>1347.2</ele>
        <time>2021-10-10T15:02:47Z</time>
      </trkpt>
      <trkpt lat="43.0149080" lon="-5.9147700">
        <ele>1347.8</ele>
        <time>2021-10-10T15:02:51Z</time>
      </trkpt>
      <trkpt lat="43.0149050" lon="-5.9147880">
        <ele>1348.2</ele>
        <time>2021-10-10T15:02:52Z</time>
      </trkpt>
      <trkpt lat="43.0149010" lon="-5.9148350">
        <ele>1348.4</ele>
        <time>2021-10-10T15:02:54Z</time>
      </trkpt>
      <trkpt lat="43.0148940" lon="-5.9148560">
        <ele>1348.6</ele>
        <time>2021-10-10T15:02:55Z</time>
      </trkpt>
      <trkpt lat="43.0148790" lon="-5.9149170">
        <ele>1349.0</ele>
        <time>2021-10-10T15:02:58Z</time>
      </trkpt>
      <trkpt lat="43.0148710" lon="-5.9149360">
        <ele>1349.2</ele>
        <time>2021-10-10T15:02:59Z</time>
      </trkpt>
      <trkpt lat="43.0148450" lon="-5.9149860">
        <ele>1349.6</ele>
        <time>2021-10-10T15:03:02Z</time>
      </trkpt>
      <trkpt lat="43.0147660" lon="-5.9150620">
        <ele>1350.2</ele>
        <time>2021-10-10T15:03:08Z</time>
      </trkpt>
      <trkpt lat="43.0147310" lon="-5.9150780">
        <ele>1350.4</ele>
        <time>2021-10-10T15:03:10Z</time>
      </trkpt>
      <trkpt lat="43.0146360" lon="-5.9150810">
        <ele>1351.2</ele>
        <time>2021-10-10T15:03:16Z</time>
      </trkpt>
      <trkpt lat="43.0146200" lon="-5.9150850">
        <ele>1351.4</ele>
        <time>2021-10-10T15:03:17Z</time>
      </trkpt>
      <trkpt lat="43.0145870" lon="-5.9150920">
        <ele>1351.6</ele>
        <time>2021-10-10T15:03:19Z</time>
      </trkpt>
      <trkpt lat="43.0144630" lon="-5.9151120">
        <ele>1352.0</ele>
        <time>2021-10-10T15:03:27Z</time>
      </trkpt>
      <trkpt lat="43.0144480" lon="-5.9151150">
        <ele>1352.2</ele>
        <time>2021-10-10T15:03:28Z</time>
      </trkpt>
      <trkpt lat="43.0144240" lon="-5.9151270">
        <ele>1352.6</ele>
        <time>2021-10-10T15:03:30Z</time>
      </trkpt>
      <trkpt lat="43.0143660" lon="-5.9151560">
        <ele>1353.0</ele>
        <time>2021-10-10T15:03:34Z</time>
      </trkpt>
      <trkpt lat="43.0143400" lon="-5.9151750">
        <ele>1353.2</ele>
        <time>2021-10-10T15:03:36Z</time>
      </trkpt>
      <trkpt lat="43.0142840" lon="-5.9152130">
        <ele>1353.6</ele>
        <time>2021-10-10T15:03:40Z</time>
      </trkpt>
      <trkpt lat="43.0142370" lon="-5.9152310">
        <ele>1354.0</ele>
        <time>2021-10-10T15:03:43Z</time>
      </trkpt>
      <trkpt lat="43.0142010" lon="-5.9152540">
        <ele>1354.4</ele>
        <time>2021-10-10T15:03:46Z</time>
      </trkpt>
      <trkpt lat="43.0141610" lon="-5.9152980">
        <ele>1355.0</ele>
        <time>2021-10-10T15:03:49Z</time>
      </trkpt>
      <trkpt lat="43.0141530" lon="-5.9153050">
        <ele>1355.0</ele>
        <time>2021-10-10T15:03:50Z</time>
      </trkpt>
      <trkpt lat="43.0141130" lon="-5.9153600">
        <ele>1355.6</ele>
        <time>2021-10-10T15:03:54Z</time>
      </trkpt>
      <trkpt lat="43.0140910" lon="-5.9153820">
        <ele>1355.8</ele>
        <time>2021-10-10T15:03:56Z</time>
      </trkpt>
      <trkpt lat="43.0140810" lon="-5.9153970">
        <ele>1355.8</ele>
        <time>2021-10-10T15:03:57Z</time>
      </trkpt>
      <trkpt lat="43.0140710" lon="-5.9154140">
        <ele>1356.0</ele>
        <time>2021-10-10T15:03:58Z</time>
      </trkpt>
      <trkpt lat="43.0140400" lon="-5.9154600">
        <ele>1356.4</ele>
        <time>2021-10-10T15:04:01Z</time>
      </trkpt>
      <trkpt lat="43.0140080" lon="-5.9155050">
        <ele>1356.6</ele>
        <time>2021-10-10T15:04:04Z</time>
      </trkpt>
      <trkpt lat="43.0139980" lon="-5.9155170">
        <ele>1356.6</ele>
        <time>2021-10-10T15:04:05Z</time>
      </trkpt>
      <trkpt lat="43.0139540" lon="-5.9155690">
        <ele>1357.2</ele>
        <time>2021-10-10T15:04:09Z</time>
      </trkpt>
      <trkpt lat="43.0138950" lon="-5.9156330">
        <ele>1357.8</ele>
        <time>2021-10-10T15:04:14Z</time>
      </trkpt>
      <trkpt lat="43.0138710" lon="-5.9156640">
        <ele>1358.2</ele>
        <time>2021-10-10T15:04:16Z</time>
      </trkpt>
      <trkpt lat="43.0137890" lon="-5.9157510">
        <ele>1358.8</ele>
        <time>2021-10-10T15:04:24Z</time>
      </trkpt>
      <trkpt lat="43.0137100" lon="-5.9158410">
        <ele>1360.0</ele>
        <time>2021-10-10T15:04:31Z</time>
      </trkpt>
      <trkpt lat="43.0136800" lon="-5.9158830">
        <ele>1360.2</ele>
        <time>2021-10-10T15:04:34Z</time>
      </trkpt>
      <trkpt lat="43.0136700" lon="-5.9158980">
        <ele>1360.4</ele>
        <time>2021-10-10T15:04:35Z</time>
      </trkpt>
      <trkpt lat="43.0136560" lon="-5.9159160">
        <ele>1360.4</ele>
        <time>2021-10-10T15:04:36Z</time>
      </trkpt>
      <trkpt lat="43.0136470" lon="-5.9159320">
        <ele>1360.6</ele>
        <time>2021-10-10T15:04:37Z</time>
      </trkpt>
      <trkpt lat="43.0136400" lon="-5.9159460">
        <ele>1360.8</ele>
        <time>2021-10-10T15:04:38Z</time>
      </trkpt>
      <trkpt lat="43.0136330" lon="-5.9159630">
        <ele>1361.0</ele>
        <time>2021-10-10T15:04:39Z</time>
      </trkpt>
      <trkpt lat="43.0136260" lon="-5.9159780">
        <ele>1361.0</ele>
        <time>2021-10-10T15:04:40Z</time>
      </trkpt>
      <trkpt lat="43.0136000" lon="-5.9160090">
        <ele>1361.2</ele>
        <time>2021-10-10T15:04:42Z</time>
      </trkpt>
      <trkpt lat="43.0135910" lon="-5.9160200">
        <ele>1361.4</ele>
        <time>2021-10-10T15:04:43Z</time>
      </trkpt>
      <trkpt lat="43.0135680" lon="-5.9160650">
        <ele>1361.6</ele>
        <time>2021-10-10T15:04:46Z</time>
      </trkpt>
      <trkpt lat="43.0135310" lon="-5.9161140">
        <ele>1362.0</ele>
        <time>2021-10-10T15:04:49Z</time>
      </trkpt>
      <trkpt lat="43.0134730" lon="-5.9161810">
        <ele>1362.6</ele>
        <time>2021-10-10T15:04:54Z</time>
      </trkpt>
      <trkpt lat="43.0134590" lon="-5.9161910">
        <ele>1362.8</ele>
        <time>2021-10-10T15:04:55Z</time>
      </trkpt>
      <trkpt lat="43.0134380" lon="-5.9162160">
        <ele>1363.0</ele>
        <time>2021-10-10T15:04:57Z</time>
      </trkpt>
      <trkpt lat="43.0134170" lon="-5.9162440">
        <ele>1363.2</ele>
        <time>2021-10-10T15:04:59Z</time>
      </trkpt>
      <trkpt lat="43.0133940" lon="-5.9162740">
        <ele>1363.4</ele>
        <time>2021-10-10T15:05:01Z</time>
      </trkpt>
      <trkpt lat="43.0133790" lon="-5.9162890">
        <ele>1363.6</ele>
        <time>2021-10-10T15:05:02Z</time>
      </trkpt>
      <trkpt lat="43.0133500" lon="-5.9163140">
        <ele>1363.8</ele>
        <time>2021-10-10T15:05:04Z</time>
      </trkpt>
      <trkpt lat="43.0133350" lon="-5.9163250">
        <ele>1364.0</ele>
        <time>2021-10-10T15:05:05Z</time>
      </trkpt>
      <trkpt lat="43.0133090" lon="-5.9163480">
        <ele>1364.2</ele>
        <time>2021-10-10T15:05:07Z</time>
      </trkpt>
      <trkpt lat="43.0132200" lon="-5.9164080">
        <ele>1365.0</ele>
        <time>2021-10-10T15:05:13Z</time>
      </trkpt>
      <trkpt lat="43.0132040" lon="-5.9164160">
        <ele>1365.0</ele>
        <time>2021-10-10T15:05:14Z</time>
      </trkpt>
      <trkpt lat="43.0131100" lon="-5.9164570">
        <ele>1366.0</ele>
        <time>2021-10-10T15:05:20Z</time>
      </trkpt>
      <trkpt lat="43.0130950" lon="-5.9164690">
        <ele>1366.0</ele>
        <time>2021-10-10T15:05:21Z</time>
      </trkpt>
      <trkpt lat="43.0130360" lon="-5.9165050">
        <ele>1366.4</ele>
        <time>2021-10-10T15:05:25Z</time>
      </trkpt>
      <trkpt lat="43.0129490" lon="-5.9165480">
        <ele>1367.2</ele>
        <time>2021-10-10T15:05:31Z</time>
      </trkpt>
      <trkpt lat="43.0129170" lon="-5.9165590">
        <ele>1367.4</ele>
        <time>2021-10-10T15:05:33Z</time>
      </trkpt>
      <trkpt lat="43.0129030" lon="-5.9165640">
        <ele>1367.4</ele>
        <time>2021-10-10T15:05:34Z</time>
      </trkpt>
      <trkpt lat="43.0128870" lon="-5.9165700">
        <ele>1367.6</ele>
        <time>2021-10-10T15:05:35Z</time>
      </trkpt>
      <trkpt lat="43.0128550" lon="-5.9165740">
        <ele>1367.8</ele>
        <time>2021-10-10T15:05:37Z</time>
      </trkpt>
      <trkpt lat="43.0128150" lon="-5.9165810">
        <ele>1368.2</ele>
        <time>2021-10-10T15:05:40Z</time>
      </trkpt>
      <trkpt lat="43.0128010" lon="-5.9165850">
        <ele>1368.4</ele>
        <time>2021-10-10T15:05:41Z</time>
      </trkpt>
      <trkpt lat="43.0127360" lon="-5.9165710">
        <ele>1368.8</ele>
        <time>2021-10-10T15:05:45Z</time>
      </trkpt>
      <trkpt lat="43.0126850" lon="-5.9165440">
        <ele>1369.2</ele>
        <time>2021-10-10T15:05:48Z</time>
      </trkpt>
      <trkpt lat="43.0126720" lon="-5.9165360">
        <ele>1369.4</ele>
        <time>2021-10-10T15:05:49Z</time>
      </trkpt>
      <trkpt lat="43.0126420" lon="-5.9165090">
        <ele>1369.8</ele>
        <time>2021-10-10T15:05:51Z</time>
      </trkpt>
      <trkpt lat="43.0126150" lon="-5.9164770">
        <ele>1370.0</ele>
        <time>2021-10-10T15:05:53Z</time>
      </trkpt>
      <trkpt lat="43.0125710" lon="-5.9164190">
        <ele>1370.2</ele>
        <time>2021-10-10T15:05:56Z</time>
      </trkpt>
      <trkpt lat="43.0125620" lon="-5.9164010">
        <ele>1370.2</ele>
        <time>2021-10-10T15:05:57Z</time>
      </trkpt>
      <trkpt lat="43.0125440" lon="-5.9163590">
        <ele>1370.4</ele>
        <time>2021-10-10T15:05:59Z</time>
      </trkpt>
      <trkpt lat="43.0125350" lon="-5.9163360">
        <ele>1370.6</ele>
        <time>2021-10-10T15:06:00Z</time>
      </trkpt>
      <trkpt lat="43.0125240" lon="-5.9163090">
        <ele>1370.6</ele>
        <time>2021-10-10T15:06:01Z</time>
      </trkpt>
      <trkpt lat="43.0125030" lon="-5.9162640">
        <ele>1370.8</ele>
        <time>2021-10-10T15:06:03Z</time>
      </trkpt>
      <trkpt lat="43.0124840" lon="-5.9162220">
        <ele>1371.2</ele>
        <time>2021-10-10T15:06:05Z</time>
      </trkpt>
      <trkpt lat="43.0124790" lon="-5.9161980">
        <ele>1371.2</ele>
        <time>2021-10-10T15:06:06Z</time>
      </trkpt>
      <trkpt lat="43.0124790" lon="-5.9161770">
        <ele>1371.4</ele>
        <time>2021-10-10T15:06:07Z</time>
      </trkpt>
      <trkpt lat="43.0124800" lon="-5.9161600">
        <ele>1371.6</ele>
        <time>2021-10-10T15:06:08Z</time>
      </trkpt>
      <trkpt lat="43.0124810" lon="-5.9161400">
        <ele>1371.6</ele>
        <time>2021-10-10T15:06:09Z</time>
      </trkpt>
      <trkpt lat="43.0124670" lon="-5.9159600">
        <ele>1372.2</ele>
        <time>2021-10-10T15:06:16Z</time>
      </trkpt>
      <trkpt lat="43.0124680" lon="-5.9159200">
        <ele>1372.4</ele>
        <time>2021-10-10T15:06:18Z</time>
      </trkpt>
      <trkpt lat="43.0124650" lon="-5.9158880">
        <ele>1372.6</ele>
        <time>2021-10-10T15:06:19Z</time>
      </trkpt>
      <trkpt lat="43.0124690" lon="-5.9158050">
        <ele>1373.0</ele>
        <time>2021-10-10T15:06:23Z</time>
      </trkpt>
      <trkpt lat="43.0124670" lon="-5.9157840">
        <ele>1373.2</ele>
        <time>2021-10-10T15:06:24Z</time>
      </trkpt>
      <trkpt lat="43.0124690" lon="-5.9157270">
        <ele>1373.6</ele>
        <time>2021-10-10T15:06:27Z</time>
      </trkpt>
      <trkpt lat="43.0124670" lon="-5.9157040">
        <ele>1373.6</ele>
        <time>2021-10-10T15:06:28Z</time>
      </trkpt>
      <trkpt lat="43.0124750" lon="-5.9156680">
        <ele>1373.8</ele>
        <time>2021-10-10T15:06:30Z</time>
      </trkpt>
      <trkpt lat="43.0124790" lon="-5.9156490">
        <ele>1374.0</ele>
        <time>2021-10-10T15:06:31Z</time>
      </trkpt>
      <trkpt lat="43.0124720" lon="-5.9155930">
        <ele>1374.4</ele>
        <time>2021-10-10T15:06:34Z</time>
      </trkpt>
      <trkpt lat="43.0124670" lon="-5.9155720">
        <ele>1374.4</ele>
        <time>2021-10-10T15:06:35Z</time>
      </trkpt>
      <trkpt lat="43.0124700" lon="-5.9155590">
        <ele>1374.6</ele>
        <time>2021-10-10T15:06:36Z</time>
      </trkpt>
      <trkpt lat="43.0124660" lon="-5.9155420">
        <ele>1374.6</ele>
        <time>2021-10-10T15:06:37Z</time>
      </trkpt>
      <trkpt lat="43.0124640" lon="-5.9155220">
        <ele>1374.6</ele>
        <time>2021-10-10T15:06:38Z</time>
      </trkpt>
      <trkpt lat="43.0124620" lon="-5.9154990">
        <ele>1374.8</ele>
        <time>2021-10-10T15:06:39Z</time>
      </trkpt>
      <trkpt lat="43.0124540" lon="-5.9154600">
        <ele>1375.0</ele>
        <time>2021-10-10T15:06:41Z</time>
      </trkpt>
      <trkpt lat="43.0124450" lon="-5.9154360">
        <ele>1375.4</ele>
        <time>2021-10-10T15:06:42Z</time>
      </trkpt>
      <trkpt lat="43.0124310" lon="-5.9153910">
        <ele>1375.6</ele>
        <time>2021-10-10T15:06:44Z</time>
      </trkpt>
      <trkpt lat="43.0124260" lon="-5.9153680">
        <ele>1375.6</ele>
        <time>2021-10-10T15:06:45Z</time>
      </trkpt>
      <trkpt lat="43.0124210" lon="-5.9153520">
        <ele>1375.8</ele>
        <time>2021-10-10T15:06:46Z</time>
      </trkpt>
      <trkpt lat="43.0123950" lon="-5.9153060">
        <ele>1376.2</ele>
        <time>2021-10-10T15:06:49Z</time>
      </trkpt>
      <trkpt lat="43.0123730" lon="-5.9152720">
        <ele>1376.4</ele>
        <time>2021-10-10T15:06:51Z</time>
      </trkpt>
      <trkpt lat="43.0123620" lon="-5.9152510">
        <ele>1376.4</ele>
        <time>2021-10-10T15:06:52Z</time>
      </trkpt>
      <trkpt lat="43.0123340" lon="-5.9151820">
        <ele>1377.0</ele>
        <time>2021-10-10T15:06:56Z</time>
      </trkpt>
      <trkpt lat="43.0123250" lon="-5.9151570">
        <ele>1377.2</ele>
        <time>2021-10-10T15:06:58Z</time>
      </trkpt>
      <trkpt lat="43.0123140" lon="-5.9151300">
        <ele>1377.4</ele>
        <time>2021-10-10T15:07:00Z</time>
      </trkpt>
      <trkpt lat="43.0122980" lon="-5.9151030">
        <ele>1377.6</ele>
        <time>2021-10-10T15:07:02Z</time>
      </trkpt>
      <trkpt lat="43.0122740" lon="-5.9150730">
        <ele>1378.0</ele>
        <time>2021-10-10T15:07:04Z</time>
      </trkpt>
      <trkpt lat="43.0122650" lon="-5.9150610">
        <ele>1378.2</ele>
        <time>2021-10-10T15:07:05Z</time>
      </trkpt>
      <trkpt lat="43.0122460" lon="-5.9150310">
        <ele>1378.4</ele>
        <time>2021-10-10T15:07:07Z</time>
      </trkpt>
      <trkpt lat="43.0122340" lon="-5.9149790">
        <ele>1378.8</ele>
        <time>2021-10-10T15:07:11Z</time>
      </trkpt>
      <trkpt lat="43.0122100" lon="-5.9149480">
        <ele>1379.0</ele>
        <time>2021-10-10T15:07:13Z</time>
      </trkpt>
      <trkpt lat="43.0122030" lon="-5.9149320">
        <ele>1379.2</ele>
        <time>2021-10-10T15:07:14Z</time>
      </trkpt>
      <trkpt lat="43.0121920" lon="-5.9149200">
        <ele>1379.2</ele>
        <time>2021-10-10T15:07:15Z</time>
      </trkpt>
      <trkpt lat="43.0121860" lon="-5.9149050">
        <ele>1379.4</ele>
        <time>2021-10-10T15:07:16Z</time>
      </trkpt>
      <trkpt lat="43.0121720" lon="-5.9148790">
        <ele>1379.6</ele>
        <time>2021-10-10T15:07:18Z</time>
      </trkpt>
      <trkpt lat="43.0121180" lon="-5.9148500">
        <ele>1379.8</ele>
        <time>2021-10-10T15:07:22Z</time>
      </trkpt>
      <trkpt lat="43.0121010" lon="-5.9148440">
        <ele>1380.0</ele>
        <time>2021-10-10T15:07:23Z</time>
      </trkpt>
      <trkpt lat="43.0120870" lon="-5.9148380">
        <ele>1380.0</ele>
        <time>2021-10-10T15:07:24Z</time>
      </trkpt>
      <trkpt lat="43.0120560" lon="-5.9148150">
        <ele>1380.4</ele>
        <time>2021-10-10T15:07:28Z</time>
      </trkpt>
      <trkpt lat="43.0120280" lon="-5.9148080">
        <ele>1380.8</ele>
        <time>2021-10-10T15:07:31Z</time>
      </trkpt>
      <trkpt lat="43.0119640" lon="-5.9147910">
        <ele>1381.2</ele>
        <time>2021-10-10T15:07:37Z</time>
      </trkpt>
      <trkpt lat="43.0119330" lon="-5.9147680">
        <ele>1381.4</ele>
        <time>2021-10-10T15:07:39Z</time>
      </trkpt>
      <trkpt lat="43.0118930" lon="-5.9147530">
        <ele>1381.6</ele>
        <time>2021-10-10T15:07:41Z</time>
      </trkpt>
      <trkpt lat="43.0118410" lon="-5.9147300">
        <ele>1381.8</ele>
        <time>2021-10-10T15:07:44Z</time>
      </trkpt>
      <trkpt lat="43.0118080" lon="-5.9147270">
        <ele>1382.0</ele>
        <time>2021-10-10T15:07:46Z</time>
      </trkpt>
      <trkpt lat="43.0117910" lon="-5.9147270">
        <ele>1382.2</ele>
        <time>2021-10-10T15:07:47Z</time>
      </trkpt>
      <trkpt lat="43.0117590" lon="-5.9147310">
        <ele>1382.6</ele>
        <time>2021-10-10T15:07:49Z</time>
      </trkpt>
      <trkpt lat="43.0117250" lon="-5.9147330">
        <ele>1383.0</ele>
        <time>2021-10-10T15:07:51Z</time>
      </trkpt>
      <trkpt lat="43.0116760" lon="-5.9147520">
        <ele>1384.0</ele>
        <time>2021-10-10T15:07:54Z</time>
      </trkpt>
      <trkpt lat="43.0116590" lon="-5.9147620">
        <ele>1384.0</ele>
        <time>2021-10-10T15:07:55Z</time>
      </trkpt>
      <trkpt lat="43.0116390" lon="-5.9147670">
        <ele>1384.2</ele>
        <time>2021-10-10T15:07:56Z</time>
      </trkpt>
      <trkpt lat="43.0115730" lon="-5.9147760">
        <ele>1384.8</ele>
        <time>2021-10-10T15:08:00Z</time>
      </trkpt>
      <trkpt lat="43.0115420" lon="-5.9147860">
        <ele>1385.0</ele>
        <time>2021-10-10T15:08:02Z</time>
      </trkpt>
      <trkpt lat="43.0114630" lon="-5.9147940">
        <ele>1386.0</ele>
        <time>2021-10-10T15:08:07Z</time>
      </trkpt>
      <trkpt lat="43.0114500" lon="-5.9147940">
        <ele>1386.2</ele>
        <time>2021-10-10T15:08:08Z</time>
      </trkpt>
      <trkpt lat="43.0113550" lon="-5.9147600">
        <ele>1387.0</ele>
        <time>2021-10-10T15:08:14Z</time>
      </trkpt>
      <trkpt lat="43.0113120" lon="-5.9147340">
        <ele>1387.2</ele>
        <time>2021-10-10T15:08:17Z</time>
      </trkpt>
      <trkpt lat="43.0112980" lon="-5.9147270">
        <ele>1387.4</ele>
        <time>2021-10-10T15:08:18Z</time>
      </trkpt>
      <trkpt lat="43.0112140" lon="-5.9146660">
        <ele>1388.2</ele>
        <time>2021-10-10T15:08:24Z</time>
      </trkpt>
      <trkpt lat="43.0111780" lon="-5.9146270">
        <ele>1388.6</ele>
        <time>2021-10-10T15:08:27Z</time>
      </trkpt>
      <trkpt lat="43.0111170" lon="-5.9145950">
        <ele>1389.2</ele>
        <time>2021-10-10T15:08:31Z</time>
      </trkpt>
      <trkpt lat="43.0111010" lon="-5.9145890">
        <ele>1389.4</ele>
        <time>2021-10-10T15:08:32Z</time>
      </trkpt>
      <trkpt lat="43.0110440" lon="-5.9145580">
        <ele>1390.0</ele>
        <time>2021-10-10T15:08:36Z</time>
      </trkpt>
      <trkpt lat="43.0110110" lon="-5.9145390">
        <ele>1390.0</ele>
        <time>2021-10-10T15:08:38Z</time>
      </trkpt>
      <trkpt lat="43.0109390" lon="-5.9144940">
        <ele>1390.4</ele>
        <time>2021-10-10T15:08:43Z</time>
      </trkpt>
      <trkpt lat="43.0108790" lon="-5.9144590">
        <ele>1390.4</ele>
        <time>2021-10-10T15:08:46Z</time>
      </trkpt>
      <trkpt lat="43.0108350" lon="-5.9144290">
        <ele>1390.6</ele>
        <time>2021-10-10T15:08:48Z</time>
      </trkpt>
      <trkpt lat="43.0107890" lon="-5.9143700">
        <ele>1390.8</ele>
        <time>2021-10-10T15:08:51Z</time>
      </trkpt>
      <trkpt lat="43.0106990" lon="-5.9142790">
        <ele>1391.0</ele>
        <time>2021-10-10T15:08:55Z</time>
      </trkpt>
      <trkpt lat="43.0106710" lon="-5.9142550">
        <ele>1391.0</ele>
        <time>2021-10-10T15:08:56Z</time>
      </trkpt>
      <trkpt lat="43.0106480" lon="-5.9142320">
        <ele>1391.0</ele>
        <time>2021-10-10T15:08:57Z</time>
      </trkpt>
      <trkpt lat="43.0106280" lon="-5.9142110">
        <ele>1391.0</ele>
        <time>2021-10-10T15:08:58Z</time>
      </trkpt>
      <trkpt lat="43.0106120" lon="-5.9141900">
        <ele>1391.2</ele>
        <time>2021-10-10T15:08:59Z</time>
      </trkpt>
      <trkpt lat="43.0104800" lon="-5.9140570">
        <ele>1391.2</ele>
        <time>2021-10-10T15:09:05Z</time>
      </trkpt>
      <trkpt lat="43.0104310" lon="-5.9140390">
        <ele>1391.4</ele>
        <time>2021-10-10T15:09:07Z</time>
      </trkpt>
      <trkpt lat="43.0103540" lon="-5.9140540">
        <ele>1391.4</ele>
        <time>2021-10-10T15:09:10Z</time>
      </trkpt>
      <trkpt lat="43.0103270" lon="-5.9140740">
        <ele>1391.4</ele>
        <time>2021-10-10T15:09:11Z</time>
      </trkpt>
      <trkpt lat="43.0102850" lon="-5.9141590">
        <ele>1391.6</ele>
        <time>2021-10-10T15:09:14Z</time>
      </trkpt>
      <trkpt lat="43.0102690" lon="-5.9143130">
        <ele>1391.8</ele>
        <time>2021-10-10T15:09:18Z</time>
      </trkpt>
      <trkpt lat="43.0102710" lon="-5.9143550">
        <ele>1391.8</ele>
        <time>2021-10-10T15:09:19Z</time>
      </trkpt>
      <trkpt lat="43.0103080" lon="-5.9145550">
        <ele>1392.0</ele>
        <time>2021-10-10T15:09:25Z</time>
      </trkpt>
      <trkpt lat="43.0103260" lon="-5.9146260">
        <ele>1392.4</ele>
        <time>2021-10-10T15:09:27Z</time>
      </trkpt>
      <trkpt lat="43.0103660" lon="-5.9148100">
        <ele>1392.4</ele>
        <time>2021-10-10T15:09:32Z</time>
      </trkpt>
      <trkpt lat="43.0103870" lon="-5.9148940">
        <ele>1392.6</ele>
        <time>2021-10-10T15:09:34Z</time>
      </trkpt>
      <trkpt lat="43.0103980" lon="-5.9149720">
        <ele>1392.8</ele>
        <time>2021-10-10T15:09:36Z</time>
      </trkpt>
      <trkpt lat="43.0104220" lon="-5.9150890">
        <ele>1393.0</ele>
        <time>2021-10-10T15:09:39Z</time>
      </trkpt>
      <trkpt lat="43.0104460" lon="-5.9151990">
        <ele>1393.2</ele>
        <time>2021-10-10T15:09:42Z</time>
      </trkpt>
      <trkpt lat="43.0104680" lon="-5.9154370">
        <ele>1393.6</ele>
        <time>2021-10-10T15:09:48Z</time>
      </trkpt>
      <trkpt lat="43.0104720" lon="-5.9154790">
        <ele>1393.6</ele>
        <time>2021-10-10T15:09:49Z</time>
      </trkpt>
      <trkpt lat="43.0104210" lon="-5.9157150">
        <ele>1394.0</ele>
        <time>2021-10-10T15:09:55Z</time>
      </trkpt>
      <trkpt lat="43.0102480" lon="-5.9158440">
        <ele>1394.4</ele>
        <time>2021-10-10T15:10:01Z</time>
      </trkpt>
      <trkpt lat="43.0100560" lon="-5.9158150">
        <ele>1394.6</ele>
        <time>2021-10-10T15:10:07Z</time>
      </trkpt>
      <trkpt lat="43.0100250" lon="-5.9157990">
        <ele>1394.6</ele>
        <time>2021-10-10T15:10:08Z</time>
      </trkpt>
      <trkpt lat="43.0098110" lon="-5.9156450">
        <ele>1395.2</ele>
        <time>2021-10-10T15:10:16Z</time>
      </trkpt>
      <trkpt lat="43.0095520" lon="-5.9154400">
        <ele>1395.4</ele>
        <time>2021-10-10T15:10:26Z</time>
      </trkpt>
      <trkpt lat="43.0094470" lon="-5.9153480">
        <ele>1395.8</ele>
        <time>2021-10-10T15:10:30Z</time>
      </trkpt>
      <trkpt lat="43.0093210" lon="-5.9152070">
        <ele>1396.0</ele>
        <time>2021-10-10T15:10:35Z</time>
      </trkpt>
      <trkpt lat="43.0092670" lon="-5.9151020">
        <ele>1396.2</ele>
        <time>2021-10-10T15:10:38Z</time>
      </trkpt>
      <trkpt lat="43.0092230" lon="-5.9150290">
        <ele>1396.2</ele>
        <time>2021-10-10T15:10:40Z</time>
      </trkpt>
      <trkpt lat="43.0092080" lon="-5.9149910">
        <ele>1396.4</ele>
        <time>2021-10-10T15:10:41Z</time>
      </trkpt>
      <trkpt lat="43.0091920" lon="-5.9149520">
        <ele>1396.4</ele>
        <time>2021-10-10T15:10:42Z</time>
      </trkpt>
      <trkpt lat="43.0091770" lon="-5.9149140">
        <ele>1396.4</ele>
        <time>2021-10-10T15:10:43Z</time>
      </trkpt>
      <trkpt lat="43.0091630" lon="-5.9148690">
        <ele>1396.4</ele>
        <time>2021-10-10T15:10:44Z</time>
      </trkpt>
      <trkpt lat="43.0090940" lon="-5.9147200">
        <ele>1396.8</ele>
        <time>2021-10-10T15:10:48Z</time>
      </trkpt>
      <trkpt lat="43.0090430" lon="-5.9146290">
        <ele>1396.8</ele>
        <time>2021-10-10T15:10:51Z</time>
      </trkpt>
      <trkpt lat="43.0089920" lon="-5.9145780">
        <ele>1397.0</ele>
        <time>2021-10-10T15:10:53Z</time>
      </trkpt>
      <trkpt lat="43.0089330" lon="-5.9145530">
        <ele>1397.0</ele>
        <time>2021-10-10T15:10:55Z</time>
      </trkpt>
      <trkpt lat="43.0088310" lon="-5.9145290">
        <ele>1397.2</ele>
        <time>2021-10-10T15:10:59Z</time>
      </trkpt>
      <trkpt lat="43.0088050" lon="-5.9145250">
        <ele>1397.2</ele>
        <time>2021-10-10T15:11:00Z</time>
      </trkpt>
      <trkpt lat="43.0086350" lon="-5.9144980">
        <ele>1397.4</ele>
        <time>2021-10-10T15:11:06Z</time>
      </trkpt>
      <trkpt lat="43.0085150" lon="-5.9144810">
        <ele>1397.4</ele>
        <time>2021-10-10T15:11:10Z</time>
      </trkpt>
      <trkpt lat="43.0084490" lon="-5.9144770">
        <ele>1397.6</ele>
        <time>2021-10-10T15:11:12Z</time>
      </trkpt>
      <trkpt lat="43.0083920" lon="-5.9144760">
        <ele>1397.8</ele>
        <time>2021-10-10T15:11:14Z</time>
      </trkpt>
      <trkpt lat="43.0083610" lon="-5.9144770">
        <ele>1397.8</ele>
        <time>2021-10-10T15:11:15Z</time>
      </trkpt>
      <trkpt lat="43.0082720" lon="-5.9144800">
        <ele>1398.0</ele>
        <time>2021-10-10T15:11:18Z</time>
      </trkpt>
      <trkpt lat="43.0080860" lon="-5.9144550">
        <ele>1398.4</ele>
        <time>2021-10-10T15:11:24Z</time>
      </trkpt>
      <trkpt lat="43.0079130" lon="-5.9143060">
        <ele>1398.8</ele>
        <time>2021-10-10T15:11:30Z</time>
      </trkpt>
      <trkpt lat="43.0078850" lon="-5.9142760">
        <ele>1399.0</ele>
        <time>2021-10-10T15:11:31Z</time>
      </trkpt>
      <trkpt lat="43.0076900" lon="-5.9140520">
        <ele>1399.4</ele>
        <time>2021-10-10T15:11:39Z</time>
      </trkpt>
      <trkpt lat="43.0075690" lon="-5.9139640">
        <ele>1400.0</ele>
        <time>2021-10-10T15:11:45Z</time>
      </trkpt>
      <trkpt lat="43.0075480" lon="-5.9139600">
        <ele>1400.0</ele>
        <time>2021-10-10T15:11:46Z</time>
      </trkpt>
      <trkpt lat="43.0074140" lon="-5.9139920">
        <ele>1401.0</ele>
        <time>2021-10-10T15:11:53Z</time>
      </trkpt>
      <trkpt lat="43.0072990" lon="-5.9140310">
        <ele>1402.2</ele>
        <time>2021-10-10T15:12:00Z</time>
      </trkpt>
      <trkpt lat="43.0072100" lon="-5.9140000">
        <ele>1402.6</ele>
        <time>2021-10-10T15:12:05Z</time>
      </trkpt>
      <trkpt lat="43.0071480" lon="-5.9139310">
        <ele>1403.0</ele>
        <time>2021-10-10T15:12:09Z</time>
      </trkpt>
      <trkpt lat="43.0071090" lon="-5.9138350">
        <ele>1403.4</ele>
        <time>2021-10-10T15:12:12Z</time>
      </trkpt>
      <trkpt lat="43.0070710" lon="-5.9136910">
        <ele>1403.8</ele>
        <time>2021-10-10T15:12:17Z</time>
      </trkpt>
      <trkpt lat="43.0070530" lon="-5.9135730">
        <ele>1404.0</ele>
        <time>2021-10-10T15:12:21Z</time>
      </trkpt>
      <trkpt lat="43.0070480" lon="-5.9135440">
        <ele>1404.2</ele>
        <time>2021-10-10T15:12:22Z</time>
      </trkpt>
      <trkpt lat="43.0070200" lon="-5.9133530">
        <ele>1404.6</ele>
        <time>2021-10-10T15:12:29Z</time>
      </trkpt>
      <trkpt lat="43.0069950" lon="-5.9132330">
        <ele>1405.2</ele>
        <time>2021-10-10T15:12:33Z</time>
      </trkpt>
      <trkpt lat="43.0069890" lon="-5.9131560">
        <ele>1405.4</ele>
        <time>2021-10-10T15:12:36Z</time>
      </trkpt>
      <trkpt lat="43.0069710" lon="-5.9129660">
        <ele>1406.0</ele>
        <time>2021-10-10T15:12:43Z</time>
      </trkpt>
      <trkpt lat="43.0069680" lon="-5.9128840">
        <ele>1406.2</ele>
        <time>2021-10-10T15:12:46Z</time>
      </trkpt>
      <trkpt lat="43.0069890" lon="-5.9128170">
        <ele>1406.6</ele>
        <time>2021-10-10T15:12:49Z</time>
      </trkpt>
      <trkpt lat="43.0069920" lon="-5.9127960">
        <ele>1406.6</ele>
        <time>2021-10-10T15:12:50Z</time>
      </trkpt>
      <trkpt lat="43.0070280" lon="-5.9126530">
        <ele>1407.2</ele>
        <time>2021-10-10T15:12:56Z</time>
      </trkpt>
      <trkpt lat="43.0070320" lon="-5.9126110">
        <ele>1407.6</ele>
        <time>2021-10-10T15:12:58Z</time>
      </trkpt>
      <trkpt lat="43.0070540" lon="-5.9125740">
        <ele>1407.8</ele>
        <time>2021-10-10T15:13:00Z</time>
      </trkpt>
      <trkpt lat="43.0070590" lon="-5.9125450">
        <ele>1407.8</ele>
        <time>2021-10-10T15:13:01Z</time>
      </trkpt>
      <trkpt lat="43.0070660" lon="-5.9125240">
        <ele>1408.0</ele>
        <time>2021-10-10T15:13:02Z</time>
      </trkpt>
      <trkpt lat="43.0070750" lon="-5.9125030">
        <ele>1408.0</ele>
        <time>2021-10-10T15:13:03Z</time>
      </trkpt>
      <trkpt lat="43.0070880" lon="-5.9124810">
        <ele>1408.2</ele>
        <time>2021-10-10T15:13:04Z</time>
      </trkpt>
      <trkpt lat="43.0071100" lon="-5.9124360">
        <ele>1408.2</ele>
        <time>2021-10-10T15:13:06Z</time>
      </trkpt>
      <trkpt lat="43.0071140" lon="-5.9124060">
        <ele>1408.4</ele>
        <time>2021-10-10T15:13:07Z</time>
      </trkpt>
      <trkpt lat="43.0071510" lon="-5.9123500">
        <ele>1408.6</ele>
        <time>2021-10-10T15:13:10Z</time>
      </trkpt>
      <trkpt lat="43.0071930" lon="-5.9123000">
        <ele>1409.0</ele>
        <time>2021-10-10T15:13:13Z</time>
      </trkpt>
      <trkpt lat="43.0072310" lon="-5.9122430">
        <ele>1409.4</ele>
        <time>2021-10-10T15:13:16Z</time>
      </trkpt>
      <trkpt lat="43.0072810" lon="-5.9121450">
        <ele>1410.2</ele>
        <time>2021-10-10T15:13:21Z</time>
      </trkpt>
      <trkpt lat="43.0073340" lon="-5.9120710">
        <ele>1410.6</ele>
        <time>2021-10-10T15:13:26Z</time>
      </trkpt>
      <trkpt lat="43.0073380" lon="-5.9120600">
        <ele>1410.8</ele>
        <time>2021-10-10T15:13:27Z</time>
      </trkpt>
      <trkpt lat="43.0073350" lon="-5.9120090">
        <ele>1410.8</ele>
        <time>2021-10-10T15:13:29Z</time>
      </trkpt>
      <trkpt lat="43.0073680" lon="-5.9119410">
        <ele>1411.4</ele>
        <time>2021-10-10T15:13:33Z</time>
      </trkpt>
      <trkpt lat="43.0073760" lon="-5.9119180">
        <ele>1411.4</ele>
        <time>2021-10-10T15:13:34Z</time>
      </trkpt>
      <trkpt lat="43.0073820" lon="-5.9118680">
        <ele>1411.6</ele>
        <time>2021-10-10T15:13:36Z</time>
      </trkpt>
      <trkpt lat="43.0073870" lon="-5.9118460">
        <ele>1411.8</ele>
        <time>2021-10-10T15:13:37Z</time>
      </trkpt>
      <trkpt lat="43.0074010" lon="-5.9118080">
        <ele>1412.0</ele>
        <time>2021-10-10T15:13:39Z</time>
      </trkpt>
      <trkpt lat="43.0074280" lon="-5.9117300">
        <ele>1412.6</ele>
        <time>2021-10-10T15:13:43Z</time>
      </trkpt>
      <trkpt lat="43.0074320" lon="-5.9117090">
        <ele>1412.6</ele>
        <time>2021-10-10T15:13:44Z</time>
      </trkpt>
      <trkpt lat="43.0074380" lon="-5.9116910">
        <ele>1412.8</ele>
        <time>2021-10-10T15:13:45Z</time>
      </trkpt>
      <trkpt lat="43.0074590" lon="-5.9116090">
        <ele>1413.4</ele>
        <time>2021-10-10T15:13:49Z</time>
      </trkpt>
      <trkpt lat="43.0074740" lon="-5.9115790">
        <ele>1413.6</ele>
        <time>2021-10-10T15:13:51Z</time>
      </trkpt>
      <trkpt lat="43.0074950" lon="-5.9115490">
        <ele>1413.8</ele>
        <time>2021-10-10T15:13:53Z</time>
      </trkpt>
      <trkpt lat="43.0075320" lon="-5.9114250">
        <ele>1414.0</ele>
        <time>2021-10-10T15:13:59Z</time>
      </trkpt>
      <trkpt lat="43.0075400" lon="-5.9114100">
        <ele>1414.2</ele>
        <time>2021-10-10T15:14:00Z</time>
      </trkpt>
      <trkpt lat="43.0075620" lon="-5.9113570">
        <ele>1414.6</ele>
        <time>2021-10-10T15:14:03Z</time>
      </trkpt>
      <trkpt lat="43.0076020" lon="-5.9112250">
        <ele>1415.4</ele>
        <time>2021-10-10T15:14:10Z</time>
      </trkpt>
      <trkpt lat="43.0076130" lon="-5.9111920">
        <ele>1415.6</ele>
        <time>2021-10-10T15:14:12Z</time>
      </trkpt>
      <trkpt lat="43.0076440" lon="-5.9110750">
        <ele>1416.4</ele>
        <time>2021-10-10T15:14:18Z</time>
      </trkpt>
      <trkpt lat="43.0076630" lon="-5.9110190">
        <ele>1416.6</ele>
        <time>2021-10-10T15:14:21Z</time>
      </trkpt>
      <trkpt lat="43.0077140" lon="-5.9109130">
        <ele>1417.2</ele>
        <time>2021-10-10T15:14:27Z</time>
      </trkpt>
      <trkpt lat="43.0077540" lon="-5.9108180">
        <ele>1417.8</ele>
        <time>2021-10-10T15:14:32Z</time>
      </trkpt>
      <trkpt lat="43.0077670" lon="-5.9107770">
        <ele>1418.0</ele>
        <time>2021-10-10T15:14:34Z</time>
      </trkpt>
      <trkpt lat="43.0078130" lon="-5.9106720">
        <ele>1418.8</ele>
        <time>2021-10-10T15:14:40Z</time>
      </trkpt>
      <trkpt lat="43.0078240" lon="-5.9106550">
        <ele>1419.0</ele>
        <time>2021-10-10T15:14:41Z</time>
      </trkpt>
      <trkpt lat="43.0078560" lon="-5.9105790">
        <ele>1419.2</ele>
        <time>2021-10-10T15:14:45Z</time>
      </trkpt>
      <trkpt lat="43.0078760" lon="-5.9105430">
        <ele>1419.4</ele>
        <time>2021-10-10T15:14:47Z</time>
      </trkpt>
      <trkpt lat="43.0079150" lon="-5.9104770">
        <ele>1420.0</ele>
        <time>2021-10-10T15:14:51Z</time>
      </trkpt>
      <trkpt lat="43.0079410" lon="-5.9104190">
        <ele>1420.4</ele>
        <time>2021-10-10T15:14:54Z</time>
      </trkpt>
      <trkpt lat="43.0080010" lon="-5.9103080">
        <ele>1421.0</ele>
        <time>2021-10-10T15:15:01Z</time>
      </trkpt>
      <trkpt lat="43.0080450" lon="-5.9102420">
        <ele>1421.6</ele>
        <time>2021-10-10T15:15:05Z</time>
      </trkpt>
      <trkpt lat="43.0080670" lon="-5.9101840">
        <ele>1422.0</ele>
        <time>2021-10-10T15:15:08Z</time>
      </trkpt>
      <trkpt lat="43.0080750" lon="-5.9101630">
        <ele>1422.2</ele>
        <time>2021-10-10T15:15:09Z</time>
      </trkpt>
      <trkpt lat="43.0081210" lon="-5.9100590">
        <ele>1422.8</ele>
        <time>2021-10-10T15:15:15Z</time>
      </trkpt>
      <trkpt lat="43.0081310" lon="-5.9100430">
        <ele>1422.8</ele>
        <time>2021-10-10T15:15:16Z</time>
      </trkpt>
      <trkpt lat="43.0081580" lon="-5.9099990">
        <ele>1423.2</ele>
        <time>2021-10-10T15:15:19Z</time>
      </trkpt>
      <trkpt lat="43.0082050" lon="-5.9098960">
        <ele>1423.8</ele>
        <time>2021-10-10T15:15:25Z</time>
      </trkpt>
      <trkpt lat="43.0082370" lon="-5.9098530">
        <ele>1424.0</ele>
        <time>2021-10-10T15:15:28Z</time>
      </trkpt>
      <trkpt lat="43.0082460" lon="-5.9098360">
        <ele>1424.2</ele>
        <time>2021-10-10T15:15:29Z</time>
      </trkpt>
      <trkpt lat="43.0082720" lon="-5.9097820">
        <ele>1424.6</ele>
        <time>2021-10-10T15:15:32Z</time>
      </trkpt>
      <trkpt lat="43.0083150" lon="-5.9096770">
        <ele>1425.4</ele>
        <time>2021-10-10T15:15:38Z</time>
      </trkpt>
      <trkpt lat="43.0083880" lon="-5.9095440">
        <ele>1426.2</ele>
        <time>2021-10-10T15:15:46Z</time>
      </trkpt>
      <trkpt lat="43.0083950" lon="-5.9095290">
        <ele>1426.4</ele>
        <time>2021-10-10T15:15:47Z</time>
      </trkpt>
      <trkpt lat="43.0084440" lon="-5.9094510">
        <ele>1426.8</ele>
        <time>2021-10-10T15:15:52Z</time>
      </trkpt>
      <trkpt lat="43.0084540" lon="-5.9094320">
        <ele>1427.0</ele>
        <time>2021-10-10T15:15:53Z</time>
      </trkpt>
      <trkpt lat="43.0084910" lon="-5.9093970">
        <ele>1427.2</ele>
        <time>2021-10-10T15:15:56Z</time>
      </trkpt>
      <trkpt lat="43.0085440" lon="-5.9093240">
        <ele>1428.0</ele>
        <time>2021-10-10T15:16:01Z</time>
      </trkpt>
      <trkpt lat="43.0085610" lon="-5.9092860">
        <ele>1428.2</ele>
        <time>2021-10-10T15:16:03Z</time>
      </trkpt>
      <trkpt lat="43.0086360" lon="-5.9091810">
        <ele>1429.0</ele>
        <time>2021-10-10T15:16:10Z</time>
      </trkpt>
      <trkpt lat="43.0086680" lon="-5.9091340">
        <ele>1429.6</ele>
        <time>2021-10-10T15:16:13Z</time>
      </trkpt>
      <trkpt lat="43.0087580" lon="-5.9090530">
        <ele>1430.2</ele>
        <time>2021-10-10T15:16:20Z</time>
      </trkpt>
      <trkpt lat="43.0088230" lon="-5.9089960">
        <ele>1430.6</ele>
        <time>2021-10-10T15:16:25Z</time>
      </trkpt>
      <trkpt lat="43.0088650" lon="-5.9089380">
        <ele>1430.8</ele>
        <time>2021-10-10T15:16:29Z</time>
      </trkpt>
      <trkpt lat="43.0088780" lon="-5.9089000">
        <ele>1431.2</ele>
        <time>2021-10-10T15:16:31Z</time>
      </trkpt>
      <trkpt lat="43.0088870" lon="-5.9088610">
        <ele>1431.4</ele>
        <time>2021-10-10T15:16:33Z</time>
      </trkpt>
      <trkpt lat="43.0088890" lon="-5.9088430">
        <ele>1431.6</ele>
        <time>2021-10-10T15:16:34Z</time>
      </trkpt>
      <trkpt lat="43.0088830" lon="-5.9087830">
        <ele>1432.2</ele>
        <time>2021-10-10T15:16:37Z</time>
      </trkpt>
      <trkpt lat="43.0088800" lon="-5.9087660">
        <ele>1432.2</ele>
        <time>2021-10-10T15:16:38Z</time>
      </trkpt>
      <trkpt lat="43.0088750" lon="-5.9087460">
        <ele>1432.4</ele>
        <time>2021-10-10T15:16:39Z</time>
      </trkpt>
      <trkpt lat="43.0088670" lon="-5.9087080">
        <ele>1432.8</ele>
        <time>2021-10-10T15:16:41Z</time>
      </trkpt>
      <trkpt lat="43.0088260" lon="-5.9086320">
        <ele>1433.4</ele>
        <time>2021-10-10T15:16:46Z</time>
      </trkpt>
      <trkpt lat="43.0087870" lon="-5.9086010">
        <ele>1434.0</ele>
        <time>2021-10-10T15:16:49Z</time>
      </trkpt>
      <trkpt lat="43.0087240" lon="-5.9086010">
        <ele>1434.4</ele>
        <time>2021-10-10T15:16:54Z</time>
      </trkpt>
      <trkpt lat="43.0086240" lon="-5.9086430">
        <ele>1435.2</ele>
        <time>2021-10-10T15:17:01Z</time>
      </trkpt>
      <trkpt lat="43.0086120" lon="-5.9086520">
        <ele>1435.2</ele>
        <time>2021-10-10T15:17:02Z</time>
      </trkpt>
      <trkpt lat="43.0085920" lon="-5.9086560">
        <ele>1435.4</ele>
        <time>2021-10-10T15:17:03Z</time>
      </trkpt>
      <trkpt lat="43.0085800" lon="-5.9086560">
        <ele>1435.4</ele>
        <time>2021-10-10T15:17:04Z</time>
      </trkpt>
      <trkpt lat="43.0085220" lon="-5.9086630">
        <ele>1435.8</ele>
        <time>2021-10-10T15:17:08Z</time>
      </trkpt>
      <trkpt lat="43.0084720" lon="-5.9086490">
        <ele>1436.2</ele>
        <time>2021-10-10T15:17:11Z</time>
      </trkpt>
      <trkpt lat="43.0084230" lon="-5.9086340">
        <ele>1436.4</ele>
        <time>2021-10-10T15:17:14Z</time>
      </trkpt>
      <trkpt lat="43.0083970" lon="-5.9086250">
        <ele>1436.8</ele>
        <time>2021-10-10T15:17:16Z</time>
      </trkpt>
      <trkpt lat="43.0083650" lon="-5.9086130">
        <ele>1437.0</ele>
        <time>2021-10-10T15:17:18Z</time>
      </trkpt>
      <trkpt lat="43.0083140" lon="-5.9085920">
        <ele>1437.6</ele>
        <time>2021-10-10T15:17:22Z</time>
      </trkpt>
      <trkpt lat="43.0082880" lon="-5.9085780">
        <ele>1437.8</ele>
        <time>2021-10-10T15:17:24Z</time>
      </trkpt>
      <trkpt lat="43.0082100" lon="-5.9085650">
        <ele>1438.6</ele>
        <time>2021-10-10T15:17:30Z</time>
      </trkpt>
      <trkpt lat="43.0081960" lon="-5.9085640">
        <ele>1438.6</ele>
        <time>2021-10-10T15:17:31Z</time>
      </trkpt>
      <trkpt lat="43.0081830" lon="-5.9085590">
        <ele>1438.6</ele>
        <time>2021-10-10T15:17:32Z</time>
      </trkpt>
      <trkpt lat="43.0080970" lon="-5.9085490">
        <ele>1439.4</ele>
        <time>2021-10-10T15:17:38Z</time>
      </trkpt>
      <trkpt lat="43.0080880" lon="-5.9085470">
        <ele>1439.4</ele>
        <time>2021-10-10T15:17:39Z</time>
      </trkpt>
      <trkpt lat="43.0080630" lon="-5.9085410">
        <ele>1439.8</ele>
        <time>2021-10-10T15:17:41Z</time>
      </trkpt>
      <trkpt lat="43.0079620" lon="-5.9085210">
        <ele>1441.0</ele>
        <time>2021-10-10T15:17:49Z</time>
      </trkpt>
      <trkpt lat="43.0079500" lon="-5.9085200">
        <ele>1441.2</ele>
        <time>2021-10-10T15:17:50Z</time>
      </trkpt>
      <trkpt lat="43.0079260" lon="-5.9085150">
        <ele>1441.2</ele>
        <time>2021-10-10T15:17:52Z</time>
      </trkpt>
      <trkpt lat="43.0079140" lon="-5.9085150">
        <ele>1441.4</ele>
        <time>2021-10-10T15:17:53Z</time>
      </trkpt>
      <trkpt lat="43.0078880" lon="-5.9085190">
        <ele>1441.6</ele>
        <time>2021-10-10T15:17:55Z</time>
      </trkpt>
      <trkpt lat="43.0078450" lon="-5.9085240">
        <ele>1441.8</ele>
        <time>2021-10-10T15:17:58Z</time>
      </trkpt>
      <trkpt lat="43.0078180" lon="-5.9085260">
        <ele>1442.0</ele>
        <time>2021-10-10T15:18:00Z</time>
      </trkpt>
      <trkpt lat="43.0077990" lon="-5.9085270">
        <ele>1442.2</ele>
        <time>2021-10-10T15:18:01Z</time>
      </trkpt>
      <trkpt lat="43.0077210" lon="-5.9085170">
        <ele>1442.8</ele>
        <time>2021-10-10T15:18:07Z</time>
      </trkpt>
      <trkpt lat="43.0076980" lon="-5.9085160">
        <ele>1443.0</ele>
        <time>2021-10-10T15:18:09Z</time>
      </trkpt>
      <trkpt lat="43.0076760" lon="-5.9085100">
        <ele>1443.2</ele>
        <time>2021-10-10T15:18:11Z</time>
      </trkpt>
      <trkpt lat="43.0076640" lon="-5.9085100">
        <ele>1443.4</ele>
        <time>2021-10-10T15:18:12Z</time>
      </trkpt>
      <trkpt lat="43.0076400" lon="-5.9085020">
        <ele>1443.4</ele>
        <time>2021-10-10T15:18:14Z</time>
      </trkpt>
      <trkpt lat="43.0076290" lon="-5.9085010">
        <ele>1443.6</ele>
        <time>2021-10-10T15:18:15Z</time>
      </trkpt>
      <trkpt lat="43.0076080" lon="-5.9085040">
        <ele>1444.0</ele>
        <time>2021-10-10T15:18:17Z</time>
      </trkpt>
      <trkpt lat="43.0075620" lon="-5.9085080">
        <ele>1444.4</ele>
        <time>2021-10-10T15:18:21Z</time>
      </trkpt>
      <trkpt lat="43.0075440" lon="-5.9085040">
        <ele>1444.6</ele>
        <time>2021-10-10T15:18:23Z</time>
      </trkpt>
      <trkpt lat="43.0075050" lon="-5.9085030">
        <ele>1445.0</ele>
        <time>2021-10-10T15:18:26Z</time>
      </trkpt>
      <trkpt lat="43.0074830" lon="-5.9084970">
        <ele>1445.4</ele>
        <time>2021-10-10T15:18:28Z</time>
      </trkpt>
      <trkpt lat="43.0074700" lon="-5.9084960">
        <ele>1445.4</ele>
        <time>2021-10-10T15:18:29Z</time>
      </trkpt>
      <trkpt lat="43.0074570" lon="-5.9084970">
        <ele>1445.6</ele>
        <time>2021-10-10T15:18:30Z</time>
      </trkpt>
      <trkpt lat="43.0074420" lon="-5.9085030">
        <ele>1445.6</ele>
        <time>2021-10-10T15:18:31Z</time>
      </trkpt>
      <trkpt lat="43.0074250" lon="-5.9085050">
        <ele>1445.8</ele>
        <time>2021-10-10T15:18:32Z</time>
      </trkpt>
      <trkpt lat="43.0073990" lon="-5.9085120">
        <ele>1446.2</ele>
        <time>2021-10-10T15:18:34Z</time>
      </trkpt>
      <trkpt lat="43.0073720" lon="-5.9085130">
        <ele>1446.6</ele>
        <time>2021-10-10T15:18:37Z</time>
      </trkpt>
      <trkpt lat="43.0073480" lon="-5.9085270">
        <ele>1446.6</ele>
        <time>2021-10-10T15:18:39Z</time>
      </trkpt>
      <trkpt lat="43.0072880" lon="-5.9085410">
        <ele>1447.2</ele>
        <time>2021-10-10T15:18:44Z</time>
      </trkpt>
      <trkpt lat="43.0072760" lon="-5.9085430">
        <ele>1447.4</ele>
        <time>2021-10-10T15:18:45Z</time>
      </trkpt>
      <trkpt lat="43.0072540" lon="-5.9085480">
        <ele>1447.6</ele>
        <time>2021-10-10T15:18:47Z</time>
      </trkpt>
      <trkpt lat="43.0072390" lon="-5.9085500">
        <ele>1447.8</ele>
        <time>2021-10-10T15:18:48Z</time>
      </trkpt>
      <trkpt lat="43.0071860" lon="-5.9085560">
        <ele>1448.2</ele>
        <time>2021-10-10T15:18:52Z</time>
      </trkpt>
      <trkpt lat="43.0071090" lon="-5.9085460">
        <ele>1448.6</ele>
        <time>2021-10-10T15:18:57Z</time>
      </trkpt>
      <trkpt lat="43.0070940" lon="-5.9085440">
        <ele>1448.8</ele>
        <time>2021-10-10T15:18:58Z</time>
      </trkpt>
      <trkpt lat="43.0070640" lon="-5.9085320">
        <ele>1449.0</ele>
        <time>2021-10-10T15:19:00Z</time>
      </trkpt>
      <trkpt lat="43.0069700" lon="-5.9084720">
        <ele>1449.8</ele>
        <time>2021-10-10T15:19:07Z</time>
      </trkpt>
      <trkpt lat="43.0069600" lon="-5.9084640">
        <ele>1449.8</ele>
        <time>2021-10-10T15:19:08Z</time>
      </trkpt>
      <trkpt lat="43.0069490" lon="-5.9084580">
        <ele>1450.0</ele>
        <time>2021-10-10T15:19:09Z</time>
      </trkpt>
      <trkpt lat="43.0069240" lon="-5.9084500">
        <ele>1450.2</ele>
        <time>2021-10-10T15:19:11Z</time>
      </trkpt>
      <trkpt lat="43.0069030" lon="-5.9084360">
        <ele>1450.4</ele>
        <time>2021-10-10T15:19:13Z</time>
      </trkpt>
      <trkpt lat="43.0068800" lon="-5.9084350">
        <ele>1450.6</ele>
        <time>2021-10-10T15:19:15Z</time>
      </trkpt>
      <trkpt lat="43.0068400" lon="-5.9084240">
        <ele>1451.0</ele>
        <time>2021-10-10T15:19:18Z</time>
      </trkpt>
      <trkpt lat="43.0068170" lon="-5.9084210">
        <ele>1451.2</ele>
        <time>2021-10-10T15:19:20Z</time>
      </trkpt>
      <trkpt lat="43.0068040" lon="-5.9084220">
        <ele>1451.4</ele>
        <time>2021-10-10T15:19:21Z</time>
      </trkpt>
      <trkpt lat="43.0067540" lon="-5.9084310">
        <ele>1451.8</ele>
        <time>2021-10-10T15:19:25Z</time>
      </trkpt>
      <trkpt lat="43.0067300" lon="-5.9084400">
        <ele>1452.0</ele>
        <time>2021-10-10T15:19:27Z</time>
      </trkpt>
      <trkpt lat="43.0067020" lon="-5.9084450">
        <ele>1452.2</ele>
        <time>2021-10-10T15:19:29Z</time>
      </trkpt>
      <trkpt lat="43.0066400" lon="-5.9084630">
        <ele>1452.6</ele>
        <time>2021-10-10T15:19:34Z</time>
      </trkpt>
      <trkpt lat="43.0066000" lon="-5.9084750">
        <ele>1453.0</ele>
        <time>2021-10-10T15:19:37Z</time>
      </trkpt>
      <trkpt lat="43.0065880" lon="-5.9084780">
        <ele>1453.2</ele>
        <time>2021-10-10T15:19:38Z</time>
      </trkpt>
      <trkpt lat="43.0065610" lon="-5.9084830">
        <ele>1453.4</ele>
        <time>2021-10-10T15:19:40Z</time>
      </trkpt>
      <trkpt lat="43.0065200" lon="-5.9084930">
        <ele>1453.6</ele>
        <time>2021-10-10T15:19:43Z</time>
      </trkpt>
      <trkpt lat="43.0064890" lon="-5.9084930">
        <ele>1453.8</ele>
        <time>2021-10-10T15:19:45Z</time>
      </trkpt>
      <trkpt lat="43.0064750" lon="-5.9084930">
        <ele>1453.8</ele>
        <time>2021-10-10T15:19:46Z</time>
      </trkpt>
      <trkpt lat="43.0064610" lon="-5.9084950">
        <ele>1454.0</ele>
        <time>2021-10-10T15:19:47Z</time>
      </trkpt>
      <trkpt lat="43.0064320" lon="-5.9085010">
        <ele>1454.4</ele>
        <time>2021-10-10T15:19:49Z</time>
      </trkpt>
      <trkpt lat="43.0064160" lon="-5.9085040">
        <ele>1454.4</ele>
        <time>2021-10-10T15:19:50Z</time>
      </trkpt>
      <trkpt lat="43.0063710" lon="-5.9085090">
        <ele>1454.6</ele>
        <time>2021-10-10T15:19:53Z</time>
      </trkpt>
      <trkpt lat="43.0063000" lon="-5.9085220">
        <ele>1455.2</ele>
        <time>2021-10-10T15:19:58Z</time>
      </trkpt>
      <trkpt lat="43.0062600" lon="-5.9085240">
        <ele>1455.2</ele>
        <time>2021-10-10T15:20:01Z</time>
      </trkpt>
      <trkpt lat="43.0062480" lon="-5.9085260">
        <ele>1455.4</ele>
        <time>2021-10-10T15:20:02Z</time>
      </trkpt>
      <trkpt lat="43.0062020" lon="-5.9085360">
        <ele>1455.6</ele>
        <time>2021-10-10T15:20:05Z</time>
      </trkpt>
      <trkpt lat="43.0061770" lon="-5.9085450">
        <ele>1455.8</ele>
        <time>2021-10-10T15:20:07Z</time>
      </trkpt>
      <trkpt lat="43.0060950" lon="-5.9085650">
        <ele>1456.4</ele>
        <time>2021-10-10T15:20:13Z</time>
      </trkpt>
      <trkpt lat="43.0060670" lon="-5.9085650">
        <ele>1456.6</ele>
        <time>2021-10-10T15:20:15Z</time>
      </trkpt>
      <trkpt lat="43.0059700" lon="-5.9086020">
        <ele>1457.4</ele>
        <time>2021-10-10T15:20:23Z</time>
      </trkpt>
      <trkpt lat="43.0059580" lon="-5.9086040">
        <ele>1457.6</ele>
        <time>2021-10-10T15:20:24Z</time>
      </trkpt>
      <trkpt lat="43.0058570" lon="-5.9086250">
        <ele>1458.2</ele>
        <time>2021-10-10T15:20:31Z</time>
      </trkpt>
      <trkpt lat="43.0058290" lon="-5.9086290">
        <ele>1458.4</ele>
        <time>2021-10-10T15:20:33Z</time>
      </trkpt>
      <trkpt lat="43.0058150" lon="-5.9086330">
        <ele>1458.4</ele>
        <time>2021-10-10T15:20:34Z</time>
      </trkpt>
      <trkpt lat="43.0057940" lon="-5.9086430">
        <ele>1458.8</ele>
        <time>2021-10-10T15:20:36Z</time>
      </trkpt>
      <trkpt lat="43.0057650" lon="-5.9086570">
        <ele>1459.0</ele>
        <time>2021-10-10T15:20:38Z</time>
      </trkpt>
      <trkpt lat="43.0056760" lon="-5.9086670">
        <ele>1459.8</ele>
        <time>2021-10-10T15:20:44Z</time>
      </trkpt>
      <trkpt lat="43.0056650" lon="-5.9086640">
        <ele>1459.8</ele>
        <time>2021-10-10T15:20:45Z</time>
      </trkpt>
      <trkpt lat="43.0056250" lon="-5.9086570">
        <ele>1460.2</ele>
        <time>2021-10-10T15:20:48Z</time>
      </trkpt>
      <trkpt lat="43.0056130" lon="-5.9086570">
        <ele>1460.4</ele>
        <time>2021-10-10T15:20:49Z</time>
      </trkpt>
      <trkpt lat="43.0055640" lon="-5.9086480">
        <ele>1460.8</ele>
        <time>2021-10-10T15:20:53Z</time>
      </trkpt>
      <trkpt lat="43.0055520" lon="-5.9086450">
        <ele>1460.8</ele>
        <time>2021-10-10T15:20:54Z</time>
      </trkpt>
      <trkpt lat="43.0055380" lon="-5.9086410">
        <ele>1461.0</ele>
        <time>2021-10-10T15:20:55Z</time>
      </trkpt>
      <trkpt lat="43.0055150" lon="-5.9086420">
        <ele>1461.2</ele>
        <time>2021-10-10T15:20:57Z</time>
      </trkpt>
      <trkpt lat="43.0054440" lon="-5.9086430">
        <ele>1461.6</ele>
        <time>2021-10-10T15:21:02Z</time>
      </trkpt>
      <trkpt lat="43.0054290" lon="-5.9086450">
        <ele>1461.8</ele>
        <time>2021-10-10T15:21:03Z</time>
      </trkpt>
      <trkpt lat="43.0054140" lon="-5.9086450">
        <ele>1461.8</ele>
        <time>2021-10-10T15:21:04Z</time>
      </trkpt>
      <trkpt lat="43.0054020" lon="-5.9086440">
        <ele>1462.0</ele>
        <time>2021-10-10T15:21:05Z</time>
      </trkpt>
      <trkpt lat="43.0053540" lon="-5.9086400">
        <ele>1462.4</ele>
        <time>2021-10-10T15:21:08Z</time>
      </trkpt>
      <trkpt lat="43.0053400" lon="-5.9086330">
        <ele>1462.4</ele>
        <time>2021-10-10T15:21:09Z</time>
      </trkpt>
      <trkpt lat="43.0053280" lon="-5.9086310">
        <ele>1462.6</ele>
        <time>2021-10-10T15:21:10Z</time>
      </trkpt>
      <trkpt lat="43.0053190" lon="-5.9086280">
        <ele>1462.6</ele>
        <time>2021-10-10T15:21:11Z</time>
      </trkpt>
      <trkpt lat="43.0053030" lon="-5.9086260">
        <ele>1462.8</ele>
        <time>2021-10-10T15:21:12Z</time>
      </trkpt>
      <trkpt lat="43.0052930" lon="-5.9086240">
        <ele>1463.0</ele>
        <time>2021-10-10T15:21:13Z</time>
      </trkpt>
      <trkpt lat="43.0052240" lon="-5.9086380">
        <ele>1463.2</ele>
        <time>2021-10-10T15:21:18Z</time>
      </trkpt>
      <trkpt lat="43.0051450" lon="-5.9086500">
        <ele>1464.0</ele>
        <time>2021-10-10T15:21:24Z</time>
      </trkpt>
      <trkpt lat="43.0051160" lon="-5.9086460">
        <ele>1464.2</ele>
        <time>2021-10-10T15:21:26Z</time>
      </trkpt>
      <trkpt lat="43.0050320" lon="-5.9086510">
        <ele>1464.8</ele>
        <time>2021-10-10T15:21:32Z</time>
      </trkpt>
      <trkpt lat="43.0050040" lon="-5.9086430">
        <ele>1464.8</ele>
        <time>2021-10-10T15:21:34Z</time>
      </trkpt>
      <trkpt lat="43.0049750" lon="-5.9086450">
        <ele>1465.0</ele>
        <time>2021-10-10T15:21:36Z</time>
      </trkpt>
      <trkpt lat="43.0049220" lon="-5.9086430">
        <ele>1465.4</ele>
        <time>2021-10-10T15:21:40Z</time>
      </trkpt>
      <trkpt lat="43.0048940" lon="-5.9086400">
        <ele>1465.6</ele>
        <time>2021-10-10T15:21:42Z</time>
      </trkpt>
      <trkpt lat="43.0048260" lon="-5.9086250">
        <ele>1466.2</ele>
        <time>2021-10-10T15:21:48Z</time>
      </trkpt>
      <trkpt lat="43.0047670" lon="-5.9086230">
        <ele>1466.8</ele>
        <time>2021-10-10T15:21:52Z</time>
      </trkpt>
      <trkpt lat="43.0046990" lon="-5.9086210">
        <ele>1467.2</ele>
        <time>2021-10-10T15:21:57Z</time>
      </trkpt>
      <trkpt lat="43.0046740" lon="-5.9086270">
        <ele>1467.4</ele>
        <time>2021-10-10T15:21:59Z</time>
      </trkpt>
      <trkpt lat="43.0045940" lon="-5.9086430">
        <ele>1468.0</ele>
        <time>2021-10-10T15:22:05Z</time>
      </trkpt>
      <trkpt lat="43.0045520" lon="-5.9086560">
        <ele>1468.4</ele>
        <time>2021-10-10T15:22:08Z</time>
      </trkpt>
      <trkpt lat="43.0045250" lon="-5.9086660">
        <ele>1468.6</ele>
        <time>2021-10-10T15:22:10Z</time>
      </trkpt>
      <trkpt lat="43.0044850" lon="-5.9086760">
        <ele>1468.8</ele>
        <time>2021-10-10T15:22:13Z</time>
      </trkpt>
      <trkpt lat="43.0044470" lon="-5.9086810">
        <ele>1469.0</ele>
        <time>2021-10-10T15:22:16Z</time>
      </trkpt>
      <trkpt lat="43.0044060" lon="-5.9086820">
        <ele>1469.4</ele>
        <time>2021-10-10T15:22:19Z</time>
      </trkpt>
      <trkpt lat="43.0043600" lon="-5.9086830">
        <ele>1469.8</ele>
        <time>2021-10-10T15:22:22Z</time>
      </trkpt>
      <trkpt lat="43.0043170" lon="-5.9086920">
        <ele>1470.2</ele>
        <time>2021-10-10T15:22:25Z</time>
      </trkpt>
      <trkpt lat="43.0042920" lon="-5.9086960">
        <ele>1470.4</ele>
        <time>2021-10-10T15:22:27Z</time>
      </trkpt>
      <trkpt lat="43.0042510" lon="-5.9086980">
        <ele>1470.8</ele>
        <time>2021-10-10T15:22:30Z</time>
      </trkpt>
      <trkpt lat="43.0042270" lon="-5.9087010">
        <ele>1471.2</ele>
        <time>2021-10-10T15:22:32Z</time>
      </trkpt>
      <trkpt lat="43.0041740" lon="-5.9087060">
        <ele>1471.4</ele>
        <time>2021-10-10T15:22:36Z</time>
      </trkpt>
      <trkpt lat="43.0041180" lon="-5.9087080">
        <ele>1471.6</ele>
        <time>2021-10-10T15:22:40Z</time>
      </trkpt>
      <trkpt lat="43.0040270" lon="-5.9087000">
        <ele>1472.4</ele>
        <time>2021-10-10T15:22:46Z</time>
      </trkpt>
      <trkpt lat="43.0039840" lon="-5.9086910">
        <ele>1472.6</ele>
        <time>2021-10-10T15:22:50Z</time>
      </trkpt>
      <trkpt lat="43.0039340" lon="-5.9086740">
        <ele>1473.0</ele>
        <time>2021-10-10T15:22:53Z</time>
      </trkpt>
      <trkpt lat="43.0039220" lon="-5.9086670">
        <ele>1473.2</ele>
        <time>2021-10-10T15:22:54Z</time>
      </trkpt>
      <trkpt lat="43.0039080" lon="-5.9086640">
        <ele>1473.2</ele>
        <time>2021-10-10T15:22:55Z</time>
      </trkpt>
      <trkpt lat="43.0038950" lon="-5.9086600">
        <ele>1473.4</ele>
        <time>2021-10-10T15:22:56Z</time>
      </trkpt>
      <trkpt lat="43.0038820" lon="-5.9086540">
        <ele>1473.4</ele>
        <time>2021-10-10T15:22:57Z</time>
      </trkpt>
      <trkpt lat="43.0038680" lon="-5.9086470">
        <ele>1473.6</ele>
        <time>2021-10-10T15:22:58Z</time>
      </trkpt>
      <trkpt lat="43.0038220" lon="-5.9086380">
        <ele>1474.0</ele>
        <time>2021-10-10T15:23:01Z</time>
      </trkpt>
      <trkpt lat="43.0038100" lon="-5.9086340">
        <ele>1474.0</ele>
        <time>2021-10-10T15:23:02Z</time>
      </trkpt>
      <trkpt lat="43.0037790" lon="-5.9086270">
        <ele>1474.0</ele>
        <time>2021-10-10T15:23:04Z</time>
      </trkpt>
      <trkpt lat="43.0037390" lon="-5.9086180">
        <ele>1474.6</ele>
        <time>2021-10-10T15:23:07Z</time>
      </trkpt>
      <trkpt lat="43.0037250" lon="-5.9086140">
        <ele>1474.6</ele>
        <time>2021-10-10T15:23:08Z</time>
      </trkpt>
      <trkpt lat="43.0036970" lon="-5.9086080">
        <ele>1474.8</ele>
        <time>2021-10-10T15:23:10Z</time>
      </trkpt>
      <trkpt lat="43.0036600" lon="-5.9085900">
        <ele>1475.2</ele>
        <time>2021-10-10T15:23:13Z</time>
      </trkpt>
      <trkpt lat="43.0036130" lon="-5.9085740">
        <ele>1475.6</ele>
        <time>2021-10-10T15:23:16Z</time>
      </trkpt>
      <trkpt lat="43.0035720" lon="-5.9085700">
        <ele>1476.0</ele>
        <time>2021-10-10T15:23:19Z</time>
      </trkpt>
      <trkpt lat="43.0035520" lon="-5.9085630">
        <ele>1476.2</ele>
        <time>2021-10-10T15:23:21Z</time>
      </trkpt>
      <trkpt lat="43.0035200" lon="-5.9085480">
        <ele>1476.4</ele>
        <time>2021-10-10T15:23:23Z</time>
      </trkpt>
      <trkpt lat="43.0035070" lon="-5.9085460">
        <ele>1476.6</ele>
        <time>2021-10-10T15:23:24Z</time>
      </trkpt>
      <trkpt lat="43.0034810" lon="-5.9085370">
        <ele>1476.8</ele>
        <time>2021-10-10T15:23:26Z</time>
      </trkpt>
      <trkpt lat="43.0034130" lon="-5.9085200">
        <ele>1477.4</ele>
        <time>2021-10-10T15:23:31Z</time>
      </trkpt>
      <trkpt lat="43.0033660" lon="-5.9085110">
        <ele>1477.6</ele>
        <time>2021-10-10T15:23:34Z</time>
      </trkpt>
      <trkpt lat="43.0033080" lon="-5.9084840">
        <ele>1478.0</ele>
        <time>2021-10-10T15:23:39Z</time>
      </trkpt>
      <trkpt lat="43.0032660" lon="-5.9084680">
        <ele>1478.4</ele>
        <time>2021-10-10T15:23:42Z</time>
      </trkpt>
      <trkpt lat="43.0032390" lon="-5.9084580">
        <ele>1478.6</ele>
        <time>2021-10-10T15:23:44Z</time>
      </trkpt>
      <trkpt lat="43.0031770" lon="-5.9084380">
        <ele>1478.8</ele>
        <time>2021-10-10T15:23:48Z</time>
      </trkpt>
      <trkpt lat="43.0031240" lon="-5.9084210">
        <ele>1479.2</ele>
        <time>2021-10-10T15:23:52Z</time>
      </trkpt>
      <trkpt lat="43.0031100" lon="-5.9084170">
        <ele>1479.4</ele>
        <time>2021-10-10T15:23:53Z</time>
      </trkpt>
      <trkpt lat="43.0030990" lon="-5.9084100">
        <ele>1479.4</ele>
        <time>2021-10-10T15:23:54Z</time>
      </trkpt>
      <trkpt lat="43.0030860" lon="-5.9084080">
        <ele>1479.4</ele>
        <time>2021-10-10T15:23:55Z</time>
      </trkpt>
      <trkpt lat="43.0030730" lon="-5.9084070">
        <ele>1479.6</ele>
        <time>2021-10-10T15:23:56Z</time>
      </trkpt>
      <trkpt lat="43.0030570" lon="-5.9084030">
        <ele>1479.6</ele>
        <time>2021-10-10T15:23:57Z</time>
      </trkpt>
      <trkpt lat="43.0030300" lon="-5.9083950">
        <ele>1479.8</ele>
        <time>2021-10-10T15:23:59Z</time>
      </trkpt>
      <trkpt lat="43.0030010" lon="-5.9083850">
        <ele>1480.2</ele>
        <time>2021-10-10T15:24:01Z</time>
      </trkpt>
      <trkpt lat="43.0029570" lon="-5.9083720">
        <ele>1480.6</ele>
        <time>2021-10-10T15:24:04Z</time>
      </trkpt>
      <trkpt lat="43.0029440" lon="-5.9083720">
        <ele>1480.6</ele>
        <time>2021-10-10T15:24:05Z</time>
      </trkpt>
      <trkpt lat="43.0028700" lon="-5.9083530">
        <ele>1481.2</ele>
        <time>2021-10-10T15:24:10Z</time>
      </trkpt>
      <trkpt lat="43.0028260" lon="-5.9083390">
        <ele>1481.4</ele>
        <time>2021-10-10T15:24:13Z</time>
      </trkpt>
      <trkpt lat="43.0027860" lon="-5.9083220">
        <ele>1481.6</ele>
        <time>2021-10-10T15:24:16Z</time>
      </trkpt>
      <trkpt lat="43.0027040" lon="-5.9082650">
        <ele>1482.2</ele>
        <time>2021-10-10T15:24:22Z</time>
      </trkpt>
      <trkpt lat="43.0026560" lon="-5.9082150">
        <ele>1482.6</ele>
        <time>2021-10-10T15:24:26Z</time>
      </trkpt>
      <trkpt lat="43.0026040" lon="-5.9081710">
        <ele>1483.0</ele>
        <time>2021-10-10T15:24:30Z</time>
      </trkpt>
      <trkpt lat="43.0025330" lon="-5.9081300">
        <ele>1483.6</ele>
        <time>2021-10-10T15:24:35Z</time>
      </trkpt>
      <trkpt lat="43.0025190" lon="-5.9081190">
        <ele>1483.8</ele>
        <time>2021-10-10T15:24:37Z</time>
      </trkpt>
      <trkpt lat="43.0024800" lon="-5.9081100">
        <ele>1484.2</ele>
        <time>2021-10-10T15:24:40Z</time>
      </trkpt>
      <trkpt lat="43.0023990" lon="-5.9081180">
        <ele>1484.8</ele>
        <time>2021-10-10T15:24:46Z</time>
      </trkpt>
      <trkpt lat="43.0023800" lon="-5.9081180">
        <ele>1485.0</ele>
        <time>2021-10-10T15:24:47Z</time>
      </trkpt>
      <trkpt lat="43.0023000" lon="-5.9081360">
        <ele>1486.0</ele>
        <time>2021-10-10T15:24:53Z</time>
      </trkpt>
      <trkpt lat="43.0022890" lon="-5.9081320">
        <ele>1486.2</ele>
        <time>2021-10-10T15:24:54Z</time>
      </trkpt>
      <trkpt lat="43.0021880" lon="-5.9081580">
        <ele>1487.2</ele>
        <time>2021-10-10T15:25:02Z</time>
      </trkpt>
      <trkpt lat="43.0021730" lon="-5.9081600">
        <ele>1487.4</ele>
        <time>2021-10-10T15:25:03Z</time>
      </trkpt>
      <trkpt lat="43.0021100" lon="-5.9081630">
        <ele>1487.8</ele>
        <time>2021-10-10T15:25:07Z</time>
      </trkpt>
      <trkpt lat="43.0020700" lon="-5.9081710">
        <ele>1488.2</ele>
        <time>2021-10-10T15:25:10Z</time>
      </trkpt>
      <trkpt lat="43.0020290" lon="-5.9081830">
        <ele>1488.4</ele>
        <time>2021-10-10T15:25:13Z</time>
      </trkpt>
      <trkpt lat="43.0019580" lon="-5.9081800">
        <ele>1489.0</ele>
        <time>2021-10-10T15:25:18Z</time>
      </trkpt>
      <trkpt lat="43.0019440" lon="-5.9081800">
        <ele>1489.2</ele>
        <time>2021-10-10T15:25:19Z</time>
      </trkpt>
      <trkpt lat="43.0019180" lon="-5.9081940">
        <ele>1489.4</ele>
        <time>2021-10-10T15:25:21Z</time>
      </trkpt>
      <trkpt lat="43.0018670" lon="-5.9082120">
        <ele>1489.6</ele>
        <time>2021-10-10T15:25:25Z</time>
      </trkpt>
      <trkpt lat="43.0017840" lon="-5.9082090">
        <ele>1490.2</ele>
        <time>2021-10-10T15:25:31Z</time>
      </trkpt>
      <trkpt lat="43.0017530" lon="-5.9082190">
        <ele>1490.4</ele>
        <time>2021-10-10T15:25:33Z</time>
      </trkpt>
      <trkpt lat="43.0016300" lon="-5.9082450">
        <ele>1491.4</ele>
        <time>2021-10-10T15:25:42Z</time>
      </trkpt>
      <trkpt lat="43.0015360" lon="-5.9082610">
        <ele>1492.4</ele>
        <time>2021-10-10T15:25:49Z</time>
      </trkpt>
      <trkpt lat="43.0015260" lon="-5.9082640">
        <ele>1492.4</ele>
        <time>2021-10-10T15:25:50Z</time>
      </trkpt>
      <trkpt lat="43.0014660" lon="-5.9082770">
        <ele>1493.0</ele>
        <time>2021-10-10T15:25:55Z</time>
      </trkpt>
      <trkpt lat="43.0014280" lon="-5.9082840">
        <ele>1493.4</ele>
        <time>2021-10-10T15:25:58Z</time>
      </trkpt>
      <trkpt lat="43.0013840" lon="-5.9082760">
        <ele>1493.8</ele>
        <time>2021-10-10T15:26:01Z</time>
      </trkpt>
      <trkpt lat="43.0013230" lon="-5.9082480">
        <ele>1494.2</ele>
        <time>2021-10-10T15:26:06Z</time>
      </trkpt>
      <trkpt lat="43.0013110" lon="-5.9082390">
        <ele>1494.4</ele>
        <time>2021-10-10T15:26:07Z</time>
      </trkpt>
      <trkpt lat="43.0012400" lon="-5.9081770">
        <ele>1495.2</ele>
        <time>2021-10-10T15:26:13Z</time>
      </trkpt>
      <trkpt lat="43.0012150" lon="-5.9081470">
        <ele>1495.2</ele>
        <time>2021-10-10T15:26:15Z</time>
      </trkpt>
      <trkpt lat="43.0012010" lon="-5.9081100">
        <ele>1495.4</ele>
        <time>2021-10-10T15:26:17Z</time>
      </trkpt>
      <trkpt lat="43.0011930" lon="-5.9080910">
        <ele>1495.4</ele>
        <time>2021-10-10T15:26:18Z</time>
      </trkpt>
      <trkpt lat="43.0011770" lon="-5.9080570">
        <ele>1495.6</ele>
        <time>2021-10-10T15:26:20Z</time>
      </trkpt>
      <trkpt lat="43.0011460" lon="-5.9080000">
        <ele>1495.8</ele>
        <time>2021-10-10T15:26:23Z</time>
      </trkpt>
      <trkpt lat="43.0010920" lon="-5.9078900">
        <ele>1496.6</ele>
        <time>2021-10-10T15:26:29Z</time>
      </trkpt>
      <trkpt lat="43.0010260" lon="-5.9078320">
        <ele>1497.2</ele>
        <time>2021-10-10T15:26:34Z</time>
      </trkpt>
      <trkpt lat="43.0009920" lon="-5.9078070">
        <ele>1497.2</ele>
        <time>2021-10-10T15:26:37Z</time>
      </trkpt>
      <trkpt lat="43.0009470" lon="-5.9077990">
        <ele>1497.6</ele>
        <time>2021-10-10T15:26:40Z</time>
      </trkpt>
      <trkpt lat="43.0008640" lon="-5.9077800">
        <ele>1498.4</ele>
        <time>2021-10-10T15:26:46Z</time>
      </trkpt>
      <trkpt lat="43.0007980" lon="-5.9077540">
        <ele>1498.8</ele>
        <time>2021-10-10T15:26:51Z</time>
      </trkpt>
      <trkpt lat="43.0007740" lon="-5.9077380">
        <ele>1499.0</ele>
        <time>2021-10-10T15:26:53Z</time>
      </trkpt>
      <trkpt lat="43.0007610" lon="-5.9077310">
        <ele>1499.2</ele>
        <time>2021-10-10T15:26:54Z</time>
      </trkpt>
      <trkpt lat="43.0007280" lon="-5.9077170">
        <ele>1499.4</ele>
        <time>2021-10-10T15:26:56Z</time>
      </trkpt>
      <trkpt lat="43.0006590" lon="-5.9076830">
        <ele>1499.8</ele>
        <time>2021-10-10T15:27:01Z</time>
      </trkpt>
      <trkpt lat="43.0006460" lon="-5.9076770">
        <ele>1500.0</ele>
        <time>2021-10-10T15:27:02Z</time>
      </trkpt>
      <trkpt lat="43.0006210" lon="-5.9076610">
        <ele>1500.2</ele>
        <time>2021-10-10T15:27:04Z</time>
      </trkpt>
      <trkpt lat="43.0005850" lon="-5.9076380">
        <ele>1500.6</ele>
        <time>2021-10-10T15:27:07Z</time>
      </trkpt>
      <trkpt lat="43.0005580" lon="-5.9076200">
        <ele>1500.8</ele>
        <time>2021-10-10T15:27:09Z</time>
      </trkpt>
      <trkpt lat="43.0005430" lon="-5.9076090">
        <ele>1501.0</ele>
        <time>2021-10-10T15:27:10Z</time>
      </trkpt>
      <trkpt lat="43.0005370" lon="-5.9076020">
        <ele>1501.2</ele>
        <time>2021-10-10T15:27:11Z</time>
      </trkpt>
      <trkpt lat="43.0005210" lon="-5.9075950">
        <ele>1501.2</ele>
        <time>2021-10-10T15:27:12Z</time>
      </trkpt>
      <trkpt lat="43.0004880" lon="-5.9075830">
        <ele>1501.4</ele>
        <time>2021-10-10T15:27:14Z</time>
      </trkpt>
      <trkpt lat="43.0004350" lon="-5.9075550">
        <ele>1501.6</ele>
        <time>2021-10-10T15:27:18Z</time>
      </trkpt>
      <trkpt lat="43.0003940" lon="-5.9075270">
        <ele>1502.0</ele>
        <time>2021-10-10T15:27:21Z</time>
      </trkpt>
      <trkpt lat="43.0003550" lon="-5.9074930">
        <ele>1502.4</ele>
        <time>2021-10-10T15:27:24Z</time>
      </trkpt>
      <trkpt lat="43.0003410" lon="-5.9074840">
        <ele>1502.4</ele>
        <time>2021-10-10T15:27:25Z</time>
      </trkpt>
      <trkpt lat="43.0003280" lon="-5.9074760">
        <ele>1502.6</ele>
        <time>2021-10-10T15:27:26Z</time>
      </trkpt>
      <trkpt lat="43.0002630" lon="-5.9074340">
        <ele>1503.0</ele>
        <time>2021-10-10T15:27:31Z</time>
      </trkpt>
      <trkpt lat="43.0002380" lon="-5.9074160">
        <ele>1503.4</ele>
        <time>2021-10-10T15:27:33Z</time>
      </trkpt>
      <trkpt lat="43.0002180" lon="-5.9074020">
        <ele>1503.6</ele>
        <time>2021-10-10T15:27:35Z</time>
      </trkpt>
      <trkpt lat="43.0001310" lon="-5.9073420">
        <ele>1504.2</ele>
        <time>2021-10-10T15:27:42Z</time>
      </trkpt>
      <trkpt lat="43.0001070" lon="-5.9073280">
        <ele>1504.4</ele>
        <time>2021-10-10T15:27:44Z</time>
      </trkpt>
      <trkpt lat="43.0000270" lon="-5.9072890">
        <ele>1505.2</ele>
        <time>2021-10-10T15:27:50Z</time>
      </trkpt>
      <trkpt lat="43.0000140" lon="-5.9072810">
        <ele>1505.2</ele>
        <time>2021-10-10T15:27:51Z</time>
      </trkpt>
      <trkpt lat="42.9999970" lon="-5.9072670">
        <ele>1505.6</ele>
        <time>2021-10-10T15:27:53Z</time>
      </trkpt>
      <trkpt lat="42.9999520" lon="-5.9072390">
        <ele>1506.0</ele>
        <time>2021-10-10T15:27:57Z</time>
      </trkpt>
      <trkpt lat="42.9999010" lon="-5.9072030">
        <ele>1506.4</ele>
        <time>2021-10-10T15:28:01Z</time>
      </trkpt>
      <trkpt lat="42.9998750" lon="-5.9071920">
        <ele>1506.4</ele>
        <time>2021-10-10T15:28:03Z</time>
      </trkpt>
      <trkpt lat="42.9997820" lon="-5.9071440">
        <ele>1507.2</ele>
        <time>2021-10-10T15:28:10Z</time>
      </trkpt>
      <trkpt lat="42.9997550" lon="-5.9071330">
        <ele>1507.6</ele>
        <time>2021-10-10T15:28:12Z</time>
      </trkpt>
      <trkpt lat="42.9997460" lon="-5.9071280">
        <ele>1507.6</ele>
        <time>2021-10-10T15:28:13Z</time>
      </trkpt>
      <trkpt lat="42.9996980" lon="-5.9071140">
        <ele>1508.2</ele>
        <time>2021-10-10T15:28:17Z</time>
      </trkpt>
      <trkpt lat="42.9996730" lon="-5.9071030">
        <ele>1508.4</ele>
        <time>2021-10-10T15:28:19Z</time>
      </trkpt>
      <trkpt lat="42.9996360" lon="-5.9070970">
        <ele>1508.6</ele>
        <time>2021-10-10T15:28:21Z</time>
      </trkpt>
      <trkpt lat="42.9995920" lon="-5.9070850">
        <ele>1509.0</ele>
        <time>2021-10-10T15:28:25Z</time>
      </trkpt>
      <trkpt lat="42.9995560" lon="-5.9070760">
        <ele>1509.4</ele>
        <time>2021-10-10T15:28:28Z</time>
      </trkpt>
      <trkpt lat="42.9994970" lon="-5.9070770">
        <ele>1509.8</ele>
        <time>2021-10-10T15:28:32Z</time>
      </trkpt>
      <trkpt lat="42.9994570" lon="-5.9070680">
        <ele>1510.2</ele>
        <time>2021-10-10T15:28:35Z</time>
      </trkpt>
      <trkpt lat="42.9993980" lon="-5.9070400">
        <ele>1510.6</ele>
        <time>2021-10-10T15:28:40Z</time>
      </trkpt>
      <trkpt lat="42.9993720" lon="-5.9070340">
        <ele>1510.8</ele>
        <time>2021-10-10T15:28:42Z</time>
      </trkpt>
      <trkpt lat="42.9993590" lon="-5.9070330">
        <ele>1511.0</ele>
        <time>2021-10-10T15:28:43Z</time>
      </trkpt>
      <trkpt lat="42.9993450" lon="-5.9070310">
        <ele>1511.0</ele>
        <time>2021-10-10T15:28:44Z</time>
      </trkpt>
      <trkpt lat="42.9992770" lon="-5.9070180">
        <ele>1511.6</ele>
        <time>2021-10-10T15:28:49Z</time>
      </trkpt>
      <trkpt lat="42.9992430" lon="-5.9070190">
        <ele>1511.8</ele>
        <time>2021-10-10T15:28:51Z</time>
      </trkpt>
      <trkpt lat="42.9992290" lon="-5.9070200">
        <ele>1512.0</ele>
        <time>2021-10-10T15:28:52Z</time>
      </trkpt>
      <trkpt lat="42.9991370" lon="-5.9070650">
        <ele>1512.8</ele>
        <time>2021-10-10T15:28:59Z</time>
      </trkpt>
      <trkpt lat="42.9991150" lon="-5.9070890">
        <ele>1513.2</ele>
        <time>2021-10-10T15:29:01Z</time>
      </trkpt>
      <trkpt lat="42.9990410" lon="-5.9071870">
        <ele>1513.8</ele>
        <time>2021-10-10T15:29:08Z</time>
      </trkpt>
      <trkpt lat="42.9990170" lon="-5.9072440">
        <ele>1514.2</ele>
        <time>2021-10-10T15:29:12Z</time>
      </trkpt>
      <trkpt lat="42.9990020" lon="-5.9073090">
        <ele>1514.6</ele>
        <time>2021-10-10T15:29:16Z</time>
      </trkpt>
      <trkpt lat="42.9989950" lon="-5.9073310">
        <ele>1514.8</ele>
        <time>2021-10-10T15:29:17Z</time>
      </trkpt>
      <trkpt lat="42.9989760" lon="-5.9073970">
        <ele>1515.4</ele>
        <time>2021-10-10T15:29:21Z</time>
      </trkpt>
      <trkpt lat="42.9989560" lon="-5.9074470">
        <ele>1515.6</ele>
        <time>2021-10-10T15:29:24Z</time>
      </trkpt>
      <trkpt lat="42.9989160" lon="-5.9075280">
        <ele>1516.2</ele>
        <time>2021-10-10T15:29:29Z</time>
      </trkpt>
      <trkpt lat="42.9989000" lon="-5.9075610">
        <ele>1516.4</ele>
        <time>2021-10-10T15:29:31Z</time>
      </trkpt>
      <trkpt lat="42.9988930" lon="-5.9075700">
        <ele>1516.8</ele>
        <time>2021-10-10T15:29:33Z</time>
      </trkpt>
      <trkpt lat="42.9988740" lon="-5.9075900">
        <ele>1517.0</ele>
        <time>2021-10-10T15:29:35Z</time>
      </trkpt>
      <trkpt lat="42.9988350" lon="-5.9076100">
        <ele>1517.2</ele>
        <time>2021-10-10T15:29:38Z</time>
      </trkpt>
      <trkpt lat="42.9988220" lon="-5.9076140">
        <ele>1517.2</ele>
        <time>2021-10-10T15:29:39Z</time>
      </trkpt>
      <trkpt lat="42.9987910" lon="-5.9076290">
        <ele>1517.4</ele>
        <time>2021-10-10T15:29:42Z</time>
      </trkpt>
      <trkpt lat="42.9987260" lon="-5.9076540">
        <ele>1518.0</ele>
        <time>2021-10-10T15:29:46Z</time>
      </trkpt>
      <trkpt lat="42.9986640" lon="-5.9076760">
        <ele>1518.4</ele>
        <time>2021-10-10T15:29:50Z</time>
      </trkpt>
      <trkpt lat="42.9986500" lon="-5.9076820">
        <ele>1518.6</ele>
        <time>2021-10-10T15:29:51Z</time>
      </trkpt>
      <trkpt lat="42.9986220" lon="-5.9076980">
        <ele>1518.6</ele>
        <time>2021-10-10T15:29:53Z</time>
      </trkpt>
      <trkpt lat="42.9985090" lon="-5.9077350">
        <ele>1519.4</ele>
        <time>2021-10-10T15:30:01Z</time>
      </trkpt>
      <trkpt lat="42.9984930" lon="-5.9077440">
        <ele>1519.6</ele>
        <time>2021-10-10T15:30:02Z</time>
      </trkpt>
      <trkpt lat="42.9984550" lon="-5.9077750">
        <ele>1520.2</ele>
        <time>2021-10-10T15:30:05Z</time>
      </trkpt>
      <trkpt lat="42.9983990" lon="-5.9077970">
        <ele>1520.6</ele>
        <time>2021-10-10T15:30:09Z</time>
      </trkpt>
      <trkpt lat="42.9983690" lon="-5.9077920">
        <ele>1520.8</ele>
        <time>2021-10-10T15:30:11Z</time>
      </trkpt>
      <trkpt lat="42.9983110" lon="-5.9078110">
        <ele>1521.0</ele>
        <time>2021-10-10T15:30:15Z</time>
      </trkpt>
      <trkpt lat="42.9982030" lon="-5.9078540">
        <ele>1521.8</ele>
        <time>2021-10-10T15:30:22Z</time>
      </trkpt>
      <trkpt lat="42.9981780" lon="-5.9078660">
        <ele>1522.0</ele>
        <time>2021-10-10T15:30:24Z</time>
      </trkpt>
      <trkpt lat="42.9980850" lon="-5.9079240">
        <ele>1522.6</ele>
        <time>2021-10-10T15:30:32Z</time>
      </trkpt>
      <trkpt lat="42.9980740" lon="-5.9079310">
        <ele>1522.8</ele>
        <time>2021-10-10T15:30:33Z</time>
      </trkpt>
      <trkpt lat="42.9979670" lon="-5.9079620">
        <ele>1523.4</ele>
        <time>2021-10-10T15:30:40Z</time>
      </trkpt>
      <trkpt lat="42.9979500" lon="-5.9079710">
        <ele>1523.8</ele>
        <time>2021-10-10T15:30:43Z</time>
      </trkpt>
      <trkpt lat="42.9979410" lon="-5.9079770">
        <ele>1524.0</ele>
        <time>2021-10-10T15:30:46Z</time>
      </trkpt>
      <trkpt lat="42.9979410" lon="-5.9079770">
        <ele>1524.2</ele>
        <time>2021-10-10T15:30:50Z</time>
      </trkpt>
      <trkpt lat="42.9977040" lon="-5.9079470">
        <ele>1524.6</ele>
        <time>2021-10-10T15:41:54Z</time>
      </trkpt>
      <trkpt lat="42.9976860" lon="-5.9079490">
        <ele>1524.8</ele>
        <time>2021-10-10T15:41:55Z</time>
      </trkpt>
      <trkpt lat="42.9976280" lon="-5.9079550">
        <ele>1525.2</ele>
        <time>2021-10-10T15:41:59Z</time>
      </trkpt>
      <trkpt lat="42.9975920" lon="-5.9079550">
        <ele>1525.4</ele>
        <time>2021-10-10T15:42:01Z</time>
      </trkpt>
      <trkpt lat="42.9975600" lon="-5.9079540">
        <ele>1525.6</ele>
        <time>2021-10-10T15:42:03Z</time>
      </trkpt>
      <trkpt lat="42.9975450" lon="-5.9079500">
        <ele>1525.8</ele>
        <time>2021-10-10T15:42:04Z</time>
      </trkpt>
      <trkpt lat="42.9974660" lon="-5.9079480">
        <ele>1526.4</ele>
        <time>2021-10-10T15:42:09Z</time>
      </trkpt>
      <trkpt lat="42.9974300" lon="-5.9079420">
        <ele>1526.8</ele>
        <time>2021-10-10T15:42:11Z</time>
      </trkpt>
      <trkpt lat="42.9974140" lon="-5.9079360">
        <ele>1527.0</ele>
        <time>2021-10-10T15:42:12Z</time>
      </trkpt>
      <trkpt lat="42.9973890" lon="-5.9079200">
        <ele>1527.2</ele>
        <time>2021-10-10T15:42:14Z</time>
      </trkpt>
      <trkpt lat="42.9973270" lon="-5.9078930">
        <ele>1528.0</ele>
        <time>2021-10-10T15:42:18Z</time>
      </trkpt>
      <trkpt lat="42.9972200" lon="-5.9078410">
        <ele>1528.8</ele>
        <time>2021-10-10T15:42:24Z</time>
      </trkpt>
      <trkpt lat="42.9971830" lon="-5.9078290">
        <ele>1529.0</ele>
        <time>2021-10-10T15:42:26Z</time>
      </trkpt>
      <trkpt lat="42.9971490" lon="-5.9078110">
        <ele>1529.2</ele>
        <time>2021-10-10T15:42:28Z</time>
      </trkpt>
      <trkpt lat="42.9970760" lon="-5.9077640">
        <ele>1530.2</ele>
        <time>2021-10-10T15:42:33Z</time>
      </trkpt>
      <trkpt lat="42.9970490" lon="-5.9077450">
        <ele>1530.4</ele>
        <time>2021-10-10T15:42:35Z</time>
      </trkpt>
      <trkpt lat="42.9970360" lon="-5.9077330">
        <ele>1530.6</ele>
        <time>2021-10-10T15:42:36Z</time>
      </trkpt>
      <trkpt lat="42.9970060" lon="-5.9077100">
        <ele>1530.8</ele>
        <time>2021-10-10T15:42:38Z</time>
      </trkpt>
      <trkpt lat="42.9969610" lon="-5.9076800">
        <ele>1531.0</ele>
        <time>2021-10-10T15:42:41Z</time>
      </trkpt>
      <trkpt lat="42.9969490" lon="-5.9076720">
        <ele>1531.2</ele>
        <time>2021-10-10T15:42:42Z</time>
      </trkpt>
      <trkpt lat="42.9969060" lon="-5.9076410">
        <ele>1531.6</ele>
        <time>2021-10-10T15:42:45Z</time>
      </trkpt>
      <trkpt lat="42.9968440" lon="-5.9075980">
        <ele>1532.0</ele>
        <time>2021-10-10T15:42:49Z</time>
      </trkpt>
      <trkpt lat="42.9968140" lon="-5.9075760">
        <ele>1532.2</ele>
        <time>2021-10-10T15:42:51Z</time>
      </trkpt>
      <trkpt lat="42.9967460" lon="-5.9075220">
        <ele>1533.4</ele>
        <time>2021-10-10T15:42:56Z</time>
      </trkpt>
      <trkpt lat="42.9966540" lon="-5.9074680">
        <ele>1534.0</ele>
        <time>2021-10-10T15:43:02Z</time>
      </trkpt>
      <trkpt lat="42.9966120" lon="-5.9074450">
        <ele>1534.4</ele>
        <time>2021-10-10T15:43:05Z</time>
      </trkpt>
      <trkpt lat="42.9965030" lon="-5.9074380">
        <ele>1535.4</ele>
        <time>2021-10-10T15:43:12Z</time>
      </trkpt>
      <trkpt lat="42.9964330" lon="-5.9074700">
        <ele>1536.2</ele>
        <time>2021-10-10T15:43:17Z</time>
      </trkpt>
      <trkpt lat="42.9963900" lon="-5.9075040">
        <ele>1536.4</ele>
        <time>2021-10-10T15:43:20Z</time>
      </trkpt>
      <trkpt lat="42.9963790" lon="-5.9075110">
        <ele>1536.6</ele>
        <time>2021-10-10T15:43:21Z</time>
      </trkpt>
      <trkpt lat="42.9962920" lon="-5.9075900">
        <ele>1537.6</ele>
        <time>2021-10-10T15:43:28Z</time>
      </trkpt>
      <trkpt lat="42.9962770" lon="-5.9075980">
        <ele>1537.8</ele>
        <time>2021-10-10T15:43:29Z</time>
      </trkpt>
      <trkpt lat="42.9961660" lon="-5.9076370">
        <ele>1538.4</ele>
        <time>2021-10-10T15:43:35Z</time>
      </trkpt>
      <trkpt lat="42.9961410" lon="-5.9076430">
        <ele>1538.4</ele>
        <time>2021-10-10T15:43:36Z</time>
      </trkpt>
      <trkpt lat="42.9961180" lon="-5.9076490">
        <ele>1538.4</ele>
        <time>2021-10-10T15:43:37Z</time>
      </trkpt>
      <trkpt lat="42.9960800" lon="-5.9076580">
        <ele>1538.6</ele>
        <time>2021-10-10T15:43:39Z</time>
      </trkpt>
      <trkpt lat="42.9959090" lon="-5.9076500">
        <ele>1539.0</ele>
        <time>2021-10-10T15:43:46Z</time>
      </trkpt>
      <trkpt lat="42.9958120" lon="-5.9076470">
        <ele>1539.6</ele>
        <time>2021-10-10T15:43:51Z</time>
      </trkpt>
      <trkpt lat="42.9957760" lon="-5.9076390">
        <ele>1539.8</ele>
        <time>2021-10-10T15:43:53Z</time>
      </trkpt>
      <trkpt lat="42.9957040" lon="-5.9076120">
        <ele>1540.6</ele>
        <time>2021-10-10T15:43:57Z</time>
      </trkpt>
      <trkpt lat="42.9956710" lon="-5.9076060">
        <ele>1541.2</ele>
        <time>2021-10-10T15:43:59Z</time>
      </trkpt>
      <trkpt lat="42.9955740" lon="-5.9075900">
        <ele>1541.8</ele>
        <time>2021-10-10T15:44:04Z</time>
      </trkpt>
      <trkpt lat="42.9955040" lon="-5.9075760">
        <ele>1542.4</ele>
        <time>2021-10-10T15:44:08Z</time>
      </trkpt>
      <trkpt lat="42.9954680" lon="-5.9075730">
        <ele>1542.8</ele>
        <time>2021-10-10T15:44:10Z</time>
      </trkpt>
      <trkpt lat="42.9953090" lon="-5.9075490">
        <ele>1543.8</ele>
        <time>2021-10-10T15:44:19Z</time>
      </trkpt>
      <trkpt lat="42.9952880" lon="-5.9075480">
        <ele>1543.8</ele>
        <time>2021-10-10T15:44:20Z</time>
      </trkpt>
      <trkpt lat="42.9952380" lon="-5.9075560">
        <ele>1544.4</ele>
        <time>2021-10-10T15:44:23Z</time>
      </trkpt>
      <trkpt lat="42.9952060" lon="-5.9075640">
        <ele>1544.4</ele>
        <time>2021-10-10T15:44:25Z</time>
      </trkpt>
      <trkpt lat="42.9951780" lon="-5.9075670">
        <ele>1544.8</ele>
        <time>2021-10-10T15:44:27Z</time>
      </trkpt>
      <trkpt lat="42.9951140" lon="-5.9075730">
        <ele>1545.2</ele>
        <time>2021-10-10T15:44:31Z</time>
      </trkpt>
      <trkpt lat="42.9950510" lon="-5.9075770">
        <ele>1545.8</ele>
        <time>2021-10-10T15:44:35Z</time>
      </trkpt>
      <trkpt lat="42.9950090" lon="-5.9075770">
        <ele>1546.2</ele>
        <time>2021-10-10T15:44:38Z</time>
      </trkpt>
      <trkpt lat="42.9949740" lon="-5.9075750">
        <ele>1546.4</ele>
        <time>2021-10-10T15:44:40Z</time>
      </trkpt>
      <trkpt lat="42.9949230" lon="-5.9075640">
        <ele>1546.6</ele>
        <time>2021-10-10T15:44:43Z</time>
      </trkpt>
      <trkpt lat="42.9948760" lon="-5.9075490">
        <ele>1546.8</ele>
        <time>2021-10-10T15:44:46Z</time>
      </trkpt>
      <trkpt lat="42.9948590" lon="-5.9075420">
        <ele>1546.8</ele>
        <time>2021-10-10T15:44:47Z</time>
      </trkpt>
      <trkpt lat="42.9948090" lon="-5.9075230">
        <ele>1547.2</ele>
        <time>2021-10-10T15:44:50Z</time>
      </trkpt>
      <trkpt lat="42.9947300" lon="-5.9074570">
        <ele>1548.0</ele>
        <time>2021-10-10T15:44:55Z</time>
      </trkpt>
      <trkpt lat="42.9946990" lon="-5.9074270">
        <ele>1548.0</ele>
        <time>2021-10-10T15:44:57Z</time>
      </trkpt>
      <trkpt lat="42.9946650" lon="-5.9073950">
        <ele>1548.2</ele>
        <time>2021-10-10T15:44:59Z</time>
      </trkpt>
      <trkpt lat="42.9946380" lon="-5.9073710">
        <ele>1548.6</ele>
        <time>2021-10-10T15:45:01Z</time>
      </trkpt>
      <trkpt lat="42.9945750" lon="-5.9073370">
        <ele>1549.0</ele>
        <time>2021-10-10T15:45:05Z</time>
      </trkpt>
      <trkpt lat="42.9944460" lon="-5.9072820">
        <ele>1550.2</ele>
        <time>2021-10-10T15:45:14Z</time>
      </trkpt>
      <trkpt lat="42.9942930" lon="-5.9072940">
        <ele>1551.2</ele>
        <time>2021-10-10T15:45:23Z</time>
      </trkpt>
      <trkpt lat="42.9942580" lon="-5.9072870">
        <ele>1551.6</ele>
        <time>2021-10-10T15:45:25Z</time>
      </trkpt>
      <trkpt lat="42.9942130" lon="-5.9072740">
        <ele>1552.0</ele>
        <time>2021-10-10T15:45:28Z</time>
      </trkpt>
      <trkpt lat="42.9941540" lon="-5.9072240">
        <ele>1552.4</ele>
        <time>2021-10-10T15:45:32Z</time>
      </trkpt>
      <trkpt lat="42.9941410" lon="-5.9072040">
        <ele>1552.6</ele>
        <time>2021-10-10T15:45:33Z</time>
      </trkpt>
      <trkpt lat="42.9941180" lon="-5.9071620">
        <ele>1552.8</ele>
        <time>2021-10-10T15:45:35Z</time>
      </trkpt>
      <trkpt lat="42.9941120" lon="-5.9071400">
        <ele>1553.0</ele>
        <time>2021-10-10T15:45:36Z</time>
      </trkpt>
      <trkpt lat="42.9941030" lon="-5.9071130">
        <ele>1553.0</ele>
        <time>2021-10-10T15:45:37Z</time>
      </trkpt>
      <trkpt lat="42.9940960" lon="-5.9070660">
        <ele>1553.2</ele>
        <time>2021-10-10T15:45:39Z</time>
      </trkpt>
      <trkpt lat="42.9940910" lon="-5.9069950">
        <ele>1553.6</ele>
        <time>2021-10-10T15:45:42Z</time>
      </trkpt>
      <trkpt lat="42.9941010" lon="-5.9068620">
        <ele>1554.2</ele>
        <time>2021-10-10T15:45:47Z</time>
      </trkpt>
      <trkpt lat="42.9941030" lon="-5.9068430">
        <ele>1554.2</ele>
        <time>2021-10-10T15:45:48Z</time>
      </trkpt>
      <trkpt lat="42.9941050" lon="-5.9068230">
        <ele>1554.2</ele>
        <time>2021-10-10T15:45:49Z</time>
      </trkpt>
      <trkpt lat="42.9941060" lon="-5.9067660">
        <ele>1554.4</ele>
        <time>2021-10-10T15:45:52Z</time>
      </trkpt>
      <trkpt lat="42.9941100" lon="-5.9067320">
        <ele>1554.6</ele>
        <time>2021-10-10T15:45:54Z</time>
      </trkpt>
      <trkpt lat="42.9941120" lon="-5.9066900">
        <ele>1555.0</ele>
        <time>2021-10-10T15:45:56Z</time>
      </trkpt>
      <trkpt lat="42.9940860" lon="-5.9065720">
        <ele>1555.8</ele>
        <time>2021-10-10T15:46:01Z</time>
      </trkpt>
      <trkpt lat="42.9940470" lon="-5.9065230">
        <ele>1556.2</ele>
        <time>2021-10-10T15:46:04Z</time>
      </trkpt>
      <trkpt lat="42.9939770" lon="-5.9064910">
        <ele>1556.8</ele>
        <time>2021-10-10T15:46:09Z</time>
      </trkpt>
      <trkpt lat="42.9939410" lon="-5.9064840">
        <ele>1557.0</ele>
        <time>2021-10-10T15:46:11Z</time>
      </trkpt>
      <trkpt lat="42.9938590" lon="-5.9065530">
        <ele>1557.8</ele>
        <time>2021-10-10T15:46:17Z</time>
      </trkpt>
      <trkpt lat="42.9938370" lon="-5.9065830">
        <ele>1558.0</ele>
        <time>2021-10-10T15:46:19Z</time>
      </trkpt>
      <trkpt lat="42.9937870" lon="-5.9067040">
        <ele>1558.6</ele>
        <time>2021-10-10T15:46:25Z</time>
      </trkpt>
      <trkpt lat="42.9937850" lon="-5.9067760">
        <ele>1559.0</ele>
        <time>2021-10-10T15:46:28Z</time>
      </trkpt>
      <trkpt lat="42.9938040" lon="-5.9069050">
        <ele>1559.6</ele>
        <time>2021-10-10T15:46:33Z</time>
      </trkpt>
      <trkpt lat="42.9938170" lon="-5.9070110">
        <ele>1560.2</ele>
        <time>2021-10-10T15:46:37Z</time>
      </trkpt>
      <trkpt lat="42.9938370" lon="-5.9071140">
        <ele>1561.0</ele>
        <time>2021-10-10T15:46:41Z</time>
      </trkpt>
      <trkpt lat="42.9938470" lon="-5.9071720">
        <ele>1561.2</ele>
        <time>2021-10-10T15:46:43Z</time>
      </trkpt>
      <trkpt lat="42.9938610" lon="-5.9073610">
        <ele>1562.0</ele>
        <time>2021-10-10T15:46:50Z</time>
      </trkpt>
      <trkpt lat="42.9938670" lon="-5.9074080">
        <ele>1562.2</ele>
        <time>2021-10-10T15:46:52Z</time>
      </trkpt>
      <trkpt lat="42.9938720" lon="-5.9074360">
        <ele>1562.4</ele>
        <time>2021-10-10T15:46:53Z</time>
      </trkpt>
      <trkpt lat="42.9938920" lon="-5.9075890">
        <ele>1563.2</ele>
        <time>2021-10-10T15:47:00Z</time>
      </trkpt>
      <trkpt lat="42.9939200" lon="-5.9077020">
        <ele>1564.0</ele>
        <time>2021-10-10T15:47:05Z</time>
      </trkpt>
      <trkpt lat="42.9939370" lon="-5.9077670">
        <ele>1564.4</ele>
        <time>2021-10-10T15:47:08Z</time>
      </trkpt>
      <trkpt lat="42.9939440" lon="-5.9077870">
        <ele>1564.4</ele>
        <time>2021-10-10T15:47:09Z</time>
      </trkpt>
      <trkpt lat="42.9939500" lon="-5.9078060">
        <ele>1564.6</ele>
        <time>2021-10-10T15:47:10Z</time>
      </trkpt>
      <trkpt lat="42.9939630" lon="-5.9078290">
        <ele>1564.8</ele>
        <time>2021-10-10T15:47:11Z</time>
      </trkpt>
      <trkpt lat="42.9939970" lon="-5.9078840">
        <ele>1565.2</ele>
        <time>2021-10-10T15:47:14Z</time>
      </trkpt>
      <trkpt lat="42.9940140" lon="-5.9079230">
        <ele>1565.4</ele>
        <time>2021-10-10T15:47:16Z</time>
      </trkpt>
      <trkpt lat="42.9940450" lon="-5.9079550">
        <ele>1565.6</ele>
        <time>2021-10-10T15:47:18Z</time>
      </trkpt>
      <trkpt lat="42.9941360" lon="-5.9080170">
        <ele>1566.4</ele>
        <time>2021-10-10T15:47:24Z</time>
      </trkpt>
      <trkpt lat="42.9941660" lon="-5.9080330">
        <ele>1566.6</ele>
        <time>2021-10-10T15:47:26Z</time>
      </trkpt>
      <trkpt lat="42.9942180" lon="-5.9080480">
        <ele>1566.8</ele>
        <time>2021-10-10T15:47:29Z</time>
      </trkpt>
      <trkpt lat="42.9942350" lon="-5.9080530">
        <ele>1567.0</ele>
        <time>2021-10-10T15:47:30Z</time>
      </trkpt>
      <trkpt lat="42.9943080" lon="-5.9080670">
        <ele>1567.6</ele>
        <time>2021-10-10T15:47:34Z</time>
      </trkpt>
      <trkpt lat="42.9943800" lon="-5.9080760">
        <ele>1568.0</ele>
        <time>2021-10-10T15:47:38Z</time>
      </trkpt>
      <trkpt lat="42.9944640" lon="-5.9080980">
        <ele>1568.6</ele>
        <time>2021-10-10T15:47:43Z</time>
      </trkpt>
      <trkpt lat="42.9944820" lon="-5.9080990">
        <ele>1568.6</ele>
        <time>2021-10-10T15:47:44Z</time>
      </trkpt>
      <trkpt lat="42.9945610" lon="-5.9081030">
        <ele>1569.2</ele>
        <time>2021-10-10T15:47:48Z</time>
      </trkpt>
      <trkpt lat="42.9946380" lon="-5.9081160">
        <ele>1569.6</ele>
        <time>2021-10-10T15:47:52Z</time>
      </trkpt>
      <trkpt lat="42.9947590" lon="-5.9081580">
        <ele>1570.6</ele>
        <time>2021-10-10T15:48:00Z</time>
      </trkpt>
      <trkpt lat="42.9947700" lon="-5.9081650">
        <ele>1570.8</ele>
        <time>2021-10-10T15:48:01Z</time>
      </trkpt>
      <trkpt lat="42.9948160" lon="-5.9081950">
        <ele>1571.2</ele>
        <time>2021-10-10T15:48:04Z</time>
      </trkpt>
      <trkpt lat="42.9948590" lon="-5.9082250">
        <ele>1571.4</ele>
        <time>2021-10-10T15:48:07Z</time>
      </trkpt>
      <trkpt lat="42.9949090" lon="-5.9082680">
        <ele>1572.0</ele>
        <time>2021-10-10T15:48:10Z</time>
      </trkpt>
      <trkpt lat="42.9949750" lon="-5.9083490">
        <ele>1572.6</ele>
        <time>2021-10-10T15:48:16Z</time>
      </trkpt>
      <trkpt lat="42.9949990" lon="-5.9083940">
        <ele>1573.0</ele>
        <time>2021-10-10T15:48:19Z</time>
      </trkpt>
      <trkpt lat="42.9950200" lon="-5.9084500">
        <ele>1573.2</ele>
        <time>2021-10-10T15:48:22Z</time>
      </trkpt>
      <trkpt lat="42.9950570" lon="-5.9084980">
        <ele>1573.8</ele>
        <time>2021-10-10T15:48:25Z</time>
      </trkpt>
      <trkpt lat="42.9950930" lon="-5.9085480">
        <ele>1574.2</ele>
        <time>2021-10-10T15:48:28Z</time>
      </trkpt>
      <trkpt lat="42.9951300" lon="-5.9085990">
        <ele>1574.6</ele>
        <time>2021-10-10T15:48:31Z</time>
      </trkpt>
      <trkpt lat="42.9951510" lon="-5.9086130">
        <ele>1574.8</ele>
        <time>2021-10-10T15:48:33Z</time>
      </trkpt>
      <trkpt lat="42.9951980" lon="-5.9086250">
        <ele>1575.2</ele>
        <time>2021-10-10T15:48:36Z</time>
      </trkpt>
      <trkpt lat="42.9952320" lon="-5.9086250">
        <ele>1575.4</ele>
        <time>2021-10-10T15:48:38Z</time>
      </trkpt>
      <trkpt lat="42.9952800" lon="-5.9086300">
        <ele>1575.8</ele>
        <time>2021-10-10T15:48:41Z</time>
      </trkpt>
      <trkpt lat="42.9953440" lon="-5.9086180">
        <ele>1576.2</ele>
        <time>2021-10-10T15:48:45Z</time>
      </trkpt>
      <trkpt lat="42.9954000" lon="-5.9085970">
        <ele>1576.6</ele>
        <time>2021-10-10T15:48:48Z</time>
      </trkpt>
      <trkpt lat="42.9954980" lon="-5.9085430">
        <ele>1577.4</ele>
        <time>2021-10-10T15:48:55Z</time>
      </trkpt>
      <trkpt lat="42.9956060" lon="-5.9084750">
        <ele>1578.2</ele>
        <time>2021-10-10T15:49:03Z</time>
      </trkpt>
      <trkpt lat="42.9956190" lon="-5.9084700">
        <ele>1578.4</ele>
        <time>2021-10-10T15:49:04Z</time>
      </trkpt>
      <trkpt lat="42.9956870" lon="-5.9084310">
        <ele>1579.0</ele>
        <time>2021-10-10T15:49:09Z</time>
      </trkpt>
      <trkpt lat="42.9957310" lon="-5.9084120">
        <ele>1579.4</ele>
        <time>2021-10-10T15:49:12Z</time>
      </trkpt>
      <trkpt lat="42.9957560" lon="-5.9084070">
        <ele>1579.6</ele>
        <time>2021-10-10T15:49:14Z</time>
      </trkpt>
      <trkpt lat="42.9957710" lon="-5.9084070">
        <ele>1579.6</ele>
        <time>2021-10-10T15:49:15Z</time>
      </trkpt>
      <trkpt lat="42.9958870" lon="-5.9084030">
        <ele>1580.4</ele>
        <time>2021-10-10T15:49:22Z</time>
      </trkpt>
      <trkpt lat="42.9959010" lon="-5.9084080">
        <ele>1580.6</ele>
        <time>2021-10-10T15:49:23Z</time>
      </trkpt>
      <trkpt lat="42.9960240" lon="-5.9084280">
        <ele>1581.6</ele>
        <time>2021-10-10T15:49:31Z</time>
      </trkpt>
      <trkpt lat="42.9960400" lon="-5.9084250">
        <ele>1581.6</ele>
        <time>2021-10-10T15:49:32Z</time>
      </trkpt>
      <trkpt lat="42.9961260" lon="-5.9084150">
        <ele>1582.2</ele>
        <time>2021-10-10T15:49:37Z</time>
      </trkpt>
      <trkpt lat="42.9961560" lon="-5.9084050">
        <ele>1582.6</ele>
        <time>2021-10-10T15:49:39Z</time>
      </trkpt>
      <trkpt lat="42.9962830" lon="-5.9083380">
        <ele>1583.6</ele>
        <time>2021-10-10T15:49:48Z</time>
      </trkpt>
      <trkpt lat="42.9963230" lon="-5.9083090">
        <ele>1584.0</ele>
        <time>2021-10-10T15:49:51Z</time>
      </trkpt>
      <trkpt lat="42.9964020" lon="-5.9082980">
        <ele>1584.8</ele>
        <time>2021-10-10T15:49:56Z</time>
      </trkpt>
      <trkpt lat="42.9964350" lon="-5.9083030">
        <ele>1585.0</ele>
        <time>2021-10-10T15:49:58Z</time>
      </trkpt>
      <trkpt lat="42.9965270" lon="-5.9083460">
        <ele>1585.8</ele>
        <time>2021-10-10T15:50:04Z</time>
      </trkpt>
      <trkpt lat="42.9965660" lon="-5.9083820">
        <ele>1586.2</ele>
        <time>2021-10-10T15:50:07Z</time>
      </trkpt>
      <trkpt lat="42.9966140" lon="-5.9084340">
        <ele>1586.6</ele>
        <time>2021-10-10T15:50:11Z</time>
      </trkpt>
      <trkpt lat="42.9966420" lon="-5.9084570">
        <ele>1587.0</ele>
        <time>2021-10-10T15:50:13Z</time>
      </trkpt>
      <trkpt lat="42.9966520" lon="-5.9084670">
        <ele>1587.0</ele>
        <time>2021-10-10T15:50:14Z</time>
      </trkpt>
      <trkpt lat="42.9967410" lon="-5.9085500">
        <ele>1588.0</ele>
        <time>2021-10-10T15:50:21Z</time>
      </trkpt>
      <trkpt lat="42.9967530" lon="-5.9085640">
        <ele>1588.0</ele>
        <time>2021-10-10T15:50:22Z</time>
      </trkpt>
      <trkpt lat="42.9968620" lon="-5.9086530">
        <ele>1589.0</ele>
        <time>2021-10-10T15:50:30Z</time>
      </trkpt>
      <trkpt lat="42.9968760" lon="-5.9086650">
        <ele>1589.2</ele>
        <time>2021-10-10T15:50:31Z</time>
      </trkpt>
      <trkpt lat="42.9969670" lon="-5.9087690">
        <ele>1590.2</ele>
        <time>2021-10-10T15:50:38Z</time>
      </trkpt>
      <trkpt lat="42.9969880" lon="-5.9088040">
        <ele>1590.6</ele>
        <time>2021-10-10T15:50:40Z</time>
      </trkpt>
      <trkpt lat="42.9970600" lon="-5.9089250">
        <ele>1591.4</ele>
        <time>2021-10-10T15:50:48Z</time>
      </trkpt>
      <trkpt lat="42.9970690" lon="-5.9089440">
        <ele>1591.4</ele>
        <time>2021-10-10T15:50:49Z</time>
      </trkpt>
      <trkpt lat="42.9971470" lon="-5.9090750">
        <ele>1592.4</ele>
        <time>2021-10-10T15:50:57Z</time>
      </trkpt>
      <trkpt lat="42.9972320" lon="-5.9092010">
        <ele>1593.4</ele>
        <time>2021-10-10T15:51:06Z</time>
      </trkpt>
      <trkpt lat="42.9973130" lon="-5.9093190">
        <ele>1594.4</ele>
        <time>2021-10-10T15:51:14Z</time>
      </trkpt>
      <trkpt lat="42.9973240" lon="-5.9093340">
        <ele>1594.6</ele>
        <time>2021-10-10T15:51:15Z</time>
      </trkpt>
      <trkpt lat="42.9973760" lon="-5.9094430">
        <ele>1595.4</ele>
        <time>2021-10-10T15:51:22Z</time>
      </trkpt>
      <trkpt lat="42.9973860" lon="-5.9094580">
        <ele>1595.8</ele>
        <time>2021-10-10T15:51:23Z</time>
      </trkpt>
      <trkpt lat="42.9974380" lon="-5.9095580">
        <ele>1596.4</ele>
        <time>2021-10-10T15:51:30Z</time>
      </trkpt>
      <trkpt lat="42.9974560" lon="-5.9096010">
        <ele>1596.6</ele>
        <time>2021-10-10T15:51:33Z</time>
      </trkpt>
      <trkpt lat="42.9974750" lon="-5.9096330">
        <ele>1596.8</ele>
        <time>2021-10-10T15:51:35Z</time>
      </trkpt>
      <trkpt lat="42.9974910" lon="-5.9096590">
        <ele>1597.2</ele>
        <time>2021-10-10T15:51:37Z</time>
      </trkpt>
      <trkpt lat="42.9975100" lon="-5.9096880">
        <ele>1597.2</ele>
        <time>2021-10-10T15:51:39Z</time>
      </trkpt>
      <trkpt lat="42.9975180" lon="-5.9097000">
        <ele>1597.4</ele>
        <time>2021-10-10T15:51:40Z</time>
      </trkpt>
      <trkpt lat="42.9975370" lon="-5.9097310">
        <ele>1597.4</ele>
        <time>2021-10-10T15:51:42Z</time>
      </trkpt>
      <trkpt lat="42.9975450" lon="-5.9097460">
        <ele>1597.6</ele>
        <time>2021-10-10T15:51:43Z</time>
      </trkpt>
      <trkpt lat="42.9975730" lon="-5.9097930">
        <ele>1597.8</ele>
        <time>2021-10-10T15:51:46Z</time>
      </trkpt>
      <trkpt lat="42.9975970" lon="-5.9098490">
        <ele>1598.2</ele>
        <time>2021-10-10T15:51:49Z</time>
      </trkpt>
      <trkpt lat="42.9976370" lon="-5.9099260">
        <ele>1598.6</ele>
        <time>2021-10-10T15:51:54Z</time>
      </trkpt>
      <trkpt lat="42.9976530" lon="-5.9099510">
        <ele>1598.6</ele>
        <time>2021-10-10T15:51:56Z</time>
      </trkpt>
      <trkpt lat="42.9976810" lon="-5.9099990">
        <ele>1599.0</ele>
        <time>2021-10-10T15:51:59Z</time>
      </trkpt>
      <trkpt lat="42.9976950" lon="-5.9100230">
        <ele>1599.2</ele>
        <time>2021-10-10T15:52:01Z</time>
      </trkpt>
      <trkpt lat="42.9977330" lon="-5.9101200">
        <ele>1599.8</ele>
        <time>2021-10-10T15:52:07Z</time>
      </trkpt>
      <trkpt lat="42.9977500" lon="-5.9101660">
        <ele>1600.0</ele>
        <time>2021-10-10T15:52:10Z</time>
      </trkpt>
      <trkpt lat="42.9977670" lon="-5.9101950">
        <ele>1600.2</ele>
        <time>2021-10-10T15:52:12Z</time>
      </trkpt>
      <trkpt lat="42.9977900" lon="-5.9102260">
        <ele>1600.6</ele>
        <time>2021-10-10T15:52:14Z</time>
      </trkpt>
      <trkpt lat="42.9977980" lon="-5.9102390">
        <ele>1600.6</ele>
        <time>2021-10-10T15:52:15Z</time>
      </trkpt>
      <trkpt lat="42.9978170" lon="-5.9102700">
        <ele>1600.8</ele>
        <time>2021-10-10T15:52:17Z</time>
      </trkpt>
      <trkpt lat="42.9978770" lon="-5.9103750">
        <ele>1601.6</ele>
        <time>2021-10-10T15:52:24Z</time>
      </trkpt>
      <trkpt lat="42.9978990" lon="-5.9103970">
        <ele>1601.8</ele>
        <time>2021-10-10T15:52:26Z</time>
      </trkpt>
      <trkpt lat="42.9979460" lon="-5.9104500">
        <ele>1602.2</ele>
        <time>2021-10-10T15:52:30Z</time>
      </trkpt>
      <trkpt lat="42.9979930" lon="-5.9104940">
        <ele>1602.8</ele>
        <time>2021-10-10T15:52:34Z</time>
      </trkpt>
      <trkpt lat="42.9980040" lon="-5.9105060">
        <ele>1602.8</ele>
        <time>2021-10-10T15:52:35Z</time>
      </trkpt>
      <trkpt lat="42.9980440" lon="-5.9105400">
        <ele>1603.2</ele>
        <time>2021-10-10T15:52:38Z</time>
      </trkpt>
      <trkpt lat="42.9980690" lon="-5.9105610">
        <ele>1603.4</ele>
        <time>2021-10-10T15:52:40Z</time>
      </trkpt>
      <trkpt lat="42.9980950" lon="-5.9105810">
        <ele>1603.6</ele>
        <time>2021-10-10T15:52:42Z</time>
      </trkpt>
      <trkpt lat="42.9981220" lon="-5.9106070">
        <ele>1603.8</ele>
        <time>2021-10-10T15:52:44Z</time>
      </trkpt>
      <trkpt lat="42.9981320" lon="-5.9106150">
        <ele>1604.0</ele>
        <time>2021-10-10T15:52:45Z</time>
      </trkpt>
      <trkpt lat="42.9982170" lon="-5.9107060">
        <ele>1605.0</ele>
        <time>2021-10-10T15:52:53Z</time>
      </trkpt>
      <trkpt lat="42.9983220" lon="-5.9107980">
        <ele>1606.2</ele>
        <time>2021-10-10T15:53:02Z</time>
      </trkpt>
      <trkpt lat="42.9983310" lon="-5.9108060">
        <ele>1606.2</ele>
        <time>2021-10-10T15:53:03Z</time>
      </trkpt>
      <trkpt lat="42.9984360" lon="-5.9108510">
        <ele>1606.8</ele>
        <time>2021-10-10T15:53:11Z</time>
      </trkpt>
      <trkpt lat="42.9984540" lon="-5.9108530">
        <ele>1607.0</ele>
        <time>2021-10-10T15:53:12Z</time>
      </trkpt>
      <trkpt lat="42.9985000" lon="-5.9108550">
        <ele>1607.2</ele>
        <time>2021-10-10T15:53:15Z</time>
      </trkpt>
      <trkpt lat="42.9985310" lon="-5.9108560">
        <ele>1607.6</ele>
        <time>2021-10-10T15:53:17Z</time>
      </trkpt>
      <trkpt lat="42.9985580" lon="-5.9108510">
        <ele>1607.8</ele>
        <time>2021-10-10T15:53:19Z</time>
      </trkpt>
      <trkpt lat="42.9986190" lon="-5.9108430">
        <ele>1608.2</ele>
        <time>2021-10-10T15:53:23Z</time>
      </trkpt>
      <trkpt lat="42.9986490" lon="-5.9108320">
        <ele>1608.2</ele>
        <time>2021-10-10T15:53:25Z</time>
      </trkpt>
      <trkpt lat="42.9986760" lon="-5.9108180">
        <ele>1608.4</ele>
        <time>2021-10-10T15:53:27Z</time>
      </trkpt>
      <trkpt lat="42.9986910" lon="-5.9108110">
        <ele>1608.4</ele>
        <time>2021-10-10T15:53:28Z</time>
      </trkpt>
      <trkpt lat="42.9987230" lon="-5.9107940">
        <ele>1608.6</ele>
        <time>2021-10-10T15:53:30Z</time>
      </trkpt>
      <trkpt lat="42.9987480" lon="-5.9107770">
        <ele>1608.8</ele>
        <time>2021-10-10T15:53:32Z</time>
      </trkpt>
      <trkpt lat="42.9987900" lon="-5.9107530">
        <ele>1609.0</ele>
        <time>2021-10-10T15:53:34Z</time>
      </trkpt>
      <trkpt lat="42.9988330" lon="-5.9107230">
        <ele>1609.4</ele>
        <time>2021-10-10T15:53:38Z</time>
      </trkpt>
      <trkpt lat="42.9989010" lon="-5.9106920">
        <ele>1610.0</ele>
        <time>2021-10-10T15:53:43Z</time>
      </trkpt>
      <trkpt lat="42.9989370" lon="-5.9106820">
        <ele>1610.4</ele>
        <time>2021-10-10T15:53:46Z</time>
      </trkpt>
      <trkpt lat="42.9989960" lon="-5.9106840">
        <ele>1610.8</ele>
        <time>2021-10-10T15:53:50Z</time>
      </trkpt>
      <trkpt lat="42.9990110" lon="-5.9106900">
        <ele>1611.0</ele>
        <time>2021-10-10T15:53:51Z</time>
      </trkpt>
      <trkpt lat="42.9990660" lon="-5.9107310">
        <ele>1611.2</ele>
        <time>2021-10-10T15:53:54Z</time>
      </trkpt>
      <trkpt lat="42.9991020" lon="-5.9107760">
        <ele>1611.6</ele>
        <time>2021-10-10T15:53:57Z</time>
      </trkpt>
      <trkpt lat="42.9991020" lon="-5.9107760">
        <ele>1611.8</ele>
        <time>2021-10-10T15:53:58Z</time>
      </trkpt>
      <trkpt lat="42.9991280" lon="-5.9108510">
        <ele>1612.0</ele>
        <time>2021-10-10T15:54:01Z</time>
      </trkpt>
      <trkpt lat="42.9991290" lon="-5.9108710">
        <ele>1612.4</ele>
        <time>2021-10-10T15:54:03Z</time>
      </trkpt>
      <trkpt lat="42.9991290" lon="-5.9108910">
        <ele>1612.4</ele>
        <time>2021-10-10T15:54:04Z</time>
      </trkpt>
      <trkpt lat="42.9991300" lon="-5.9109120">
        <ele>1612.6</ele>
        <time>2021-10-10T15:54:05Z</time>
      </trkpt>
      <trkpt lat="42.9990760" lon="-5.9111100">
        <ele>1613.2</ele>
        <time>2021-10-10T15:54:13Z</time>
      </trkpt>
      <trkpt lat="42.9990760" lon="-5.9111100">
        <ele>1613.4</ele>
        <time>2021-10-10T15:54:14Z</time>
      </trkpt>
      <trkpt lat="42.9989830" lon="-5.9111770">
        <ele>1613.6</ele>
        <time>2021-10-10T15:54:19Z</time>
      </trkpt>
      <trkpt lat="42.9989610" lon="-5.9111850">
        <ele>1613.6</ele>
        <time>2021-10-10T15:54:20Z</time>
      </trkpt>
      <trkpt lat="42.9987920" lon="-5.9111870">
        <ele>1614.0</ele>
        <time>2021-10-10T15:54:29Z</time>
      </trkpt>
      <trkpt lat="42.9986890" lon="-5.9111560">
        <ele>1614.0</ele>
        <time>2021-10-10T15:54:34Z</time>
      </trkpt>
      <trkpt lat="42.9985580" lon="-5.9111200">
        <ele>1614.2</ele>
        <time>2021-10-10T15:54:38Z</time>
      </trkpt>
      <trkpt lat="42.9984570" lon="-5.9110760">
        <ele>1614.0</ele>
        <time>2021-10-10T15:54:42Z</time>
      </trkpt>
      <trkpt lat="42.9983280" lon="-5.9110080">
        <ele>1614.2</ele>
        <time>2021-10-10T15:54:48Z</time>
      </trkpt>
      <trkpt lat="42.9982760" lon="-5.9109820">
        <ele>1614.2</ele>
        <time>2021-10-10T15:54:49Z</time>
      </trkpt>
      <trkpt lat="42.9980740" lon="-5.9108920">
        <ele>1614.6</ele>
        <time>2021-10-10T15:54:57Z</time>
      </trkpt>
      <trkpt lat="42.9979540" lon="-5.9108540">
        <ele>1615.4</ele>
        <time>2021-10-10T15:55:03Z</time>
      </trkpt>
      <trkpt lat="42.9978630" lon="-5.9108270">
        <ele>1615.6</ele>
        <time>2021-10-10T15:55:07Z</time>
      </trkpt>
      <trkpt lat="42.9977310" lon="-5.9107710">
        <ele>1616.4</ele>
        <time>2021-10-10T15:55:13Z</time>
      </trkpt>
      <trkpt lat="42.9977140" lon="-5.9107620">
        <ele>1616.4</ele>
        <time>2021-10-10T15:55:14Z</time>
      </trkpt>
      <trkpt lat="42.9976240" lon="-5.9106950">
        <ele>1617.2</ele>
        <time>2021-10-10T15:55:20Z</time>
      </trkpt>
      <trkpt lat="42.9975950" lon="-5.9106710">
        <ele>1617.4</ele>
        <time>2021-10-10T15:55:22Z</time>
      </trkpt>
      <trkpt lat="42.9975270" lon="-5.9105890">
        <ele>1618.0</ele>
        <time>2021-10-10T15:55:27Z</time>
      </trkpt>
      <trkpt lat="42.9974820" lon="-5.9105240">
        <ele>1618.6</ele>
        <time>2021-10-10T15:55:31Z</time>
      </trkpt>
      <trkpt lat="42.9974260" lon="-5.9104450">
        <ele>1619.2</ele>
        <time>2021-10-10T15:55:36Z</time>
      </trkpt>
      <trkpt lat="42.9974020" lon="-5.9103880">
        <ele>1619.4</ele>
        <time>2021-10-10T15:55:39Z</time>
      </trkpt>
      <trkpt lat="42.9973630" lon="-5.9102960">
        <ele>1620.0</ele>
        <time>2021-10-10T15:55:45Z</time>
      </trkpt>
      <trkpt lat="42.9973320" lon="-5.9102170">
        <ele>1620.6</ele>
        <time>2021-10-10T15:55:49Z</time>
      </trkpt>
      <trkpt lat="42.9973000" lon="-5.9101450">
        <ele>1620.8</ele>
        <time>2021-10-10T15:55:52Z</time>
      </trkpt>
      <trkpt lat="42.9972720" lon="-5.9100690">
        <ele>1621.6</ele>
        <time>2021-10-10T15:55:57Z</time>
      </trkpt>
      <trkpt lat="42.9972490" lon="-5.9100120">
        <ele>1621.8</ele>
        <time>2021-10-10T15:55:59Z</time>
      </trkpt>
      <trkpt lat="42.9972150" lon="-5.9099000">
        <ele>1622.8</ele>
        <time>2021-10-10T15:56:05Z</time>
      </trkpt>
      <trkpt lat="42.9971450" lon="-5.9097650">
        <ele>1623.8</ele>
        <time>2021-10-10T15:56:13Z</time>
      </trkpt>
      <trkpt lat="42.9971210" lon="-5.9097380">
        <ele>1624.2</ele>
        <time>2021-10-10T15:56:15Z</time>
      </trkpt>
      <trkpt lat="42.9970600" lon="-5.9096820">
        <ele>1625.0</ele>
        <time>2021-10-10T15:56:20Z</time>
      </trkpt>
      <trkpt lat="42.9970140" lon="-5.9096300">
        <ele>1625.4</ele>
        <time>2021-10-10T15:56:24Z</time>
      </trkpt>
      <trkpt lat="42.9969600" lon="-5.9095660">
        <ele>1626.0</ele>
        <time>2021-10-10T15:56:29Z</time>
      </trkpt>
      <trkpt lat="42.9969420" lon="-5.9095130">
        <ele>1626.4</ele>
        <time>2021-10-10T15:56:32Z</time>
      </trkpt>
      <trkpt lat="42.9969040" lon="-5.9094230">
        <ele>1627.0</ele>
        <time>2021-10-10T15:56:38Z</time>
      </trkpt>
      <trkpt lat="42.9968580" lon="-5.9093730">
        <ele>1627.6</ele>
        <time>2021-10-10T15:56:42Z</time>
      </trkpt>
      <trkpt lat="42.9968270" lon="-5.9093390">
        <ele>1628.0</ele>
        <time>2021-10-10T15:56:45Z</time>
      </trkpt>
      <trkpt lat="42.9968130" lon="-5.9093290">
        <ele>1628.2</ele>
        <time>2021-10-10T15:56:46Z</time>
      </trkpt>
      <trkpt lat="42.9967760" lon="-5.9093080">
        <ele>1628.6</ele>
        <time>2021-10-10T15:56:49Z</time>
      </trkpt>
      <trkpt lat="42.9967650" lon="-5.9093000">
        <ele>1628.8</ele>
        <time>2021-10-10T15:56:50Z</time>
      </trkpt>
      <trkpt lat="42.9967250" lon="-5.9092720">
        <ele>1629.2</ele>
        <time>2021-10-10T15:56:53Z</time>
      </trkpt>
      <trkpt lat="42.9966870" lon="-5.9092420">
        <ele>1629.2</ele>
        <time>2021-10-10T15:56:56Z</time>
      </trkpt>
      <trkpt lat="42.9966740" lon="-5.9092330">
        <ele>1629.2</ele>
        <time>2021-10-10T15:56:57Z</time>
      </trkpt>
      <trkpt lat="42.9966100" lon="-5.9091880">
        <ele>1629.6</ele>
        <time>2021-10-10T15:57:02Z</time>
      </trkpt>
      <trkpt lat="42.9965000" lon="-5.9091050">
        <ele>1630.6</ele>
        <time>2021-10-10T15:57:11Z</time>
      </trkpt>
      <trkpt lat="42.9964300" lon="-5.9090860">
        <ele>1631.2</ele>
        <time>2021-10-10T15:57:17Z</time>
      </trkpt>
      <trkpt lat="42.9963690" lon="-5.9091120">
        <ele>1631.6</ele>
        <time>2021-10-10T15:57:21Z</time>
      </trkpt>
      <trkpt lat="42.9963690" lon="-5.9091120">
        <ele>1631.6</ele>
        <time>2021-10-10T15:57:22Z</time>
      </trkpt>
      <trkpt lat="42.9963420" lon="-5.9091250">
        <ele>1631.6</ele>
        <time>2021-10-10T15:57:23Z</time>
      </trkpt>
      <trkpt lat="42.9962560" lon="-5.9091940">
        <ele>1632.4</ele>
        <time>2021-10-10T15:57:29Z</time>
      </trkpt>
      <trkpt lat="42.9962310" lon="-5.9092150">
        <ele>1632.4</ele>
        <time>2021-10-10T15:57:31Z</time>
      </trkpt>
      <trkpt lat="42.9962180" lon="-5.9092260">
        <ele>1632.6</ele>
        <time>2021-10-10T15:57:32Z</time>
      </trkpt>
      <trkpt lat="42.9961080" lon="-5.9092820">
        <ele>1633.0</ele>
        <time>2021-10-10T15:57:40Z</time>
      </trkpt>
      <trkpt lat="42.9960060" lon="-5.9092970">
        <ele>1633.6</ele>
        <time>2021-10-10T15:57:47Z</time>
      </trkpt>
      <trkpt lat="42.9959900" lon="-5.9093050">
        <ele>1633.8</ele>
        <time>2021-10-10T15:57:48Z</time>
      </trkpt>
      <trkpt lat="42.9959400" lon="-5.9093410">
        <ele>1634.2</ele>
        <time>2021-10-10T15:57:52Z</time>
      </trkpt>
      <trkpt lat="42.9959180" lon="-5.9093530">
        <ele>1634.4</ele>
        <time>2021-10-10T15:57:54Z</time>
      </trkpt>
      <trkpt lat="42.9958850" lon="-5.9093830">
        <ele>1634.6</ele>
        <time>2021-10-10T15:57:57Z</time>
      </trkpt>
      <trkpt lat="42.9958710" lon="-5.9093970">
        <ele>1634.8</ele>
        <time>2021-10-10T15:57:58Z</time>
      </trkpt>
      <trkpt lat="42.9958520" lon="-5.9094260">
        <ele>1635.0</ele>
        <time>2021-10-10T15:58:00Z</time>
      </trkpt>
      <trkpt lat="42.9957980" lon="-5.9094910">
        <ele>1635.4</ele>
        <time>2021-10-10T15:58:05Z</time>
      </trkpt>
      <trkpt lat="42.9957880" lon="-5.9095040">
        <ele>1635.4</ele>
        <time>2021-10-10T15:58:06Z</time>
      </trkpt>
      <trkpt lat="42.9957620" lon="-5.9095460">
        <ele>1636.0</ele>
        <time>2021-10-10T15:58:09Z</time>
      </trkpt>
      <trkpt lat="42.9957240" lon="-5.9095990">
        <ele>1636.2</ele>
        <time>2021-10-10T15:58:12Z</time>
      </trkpt>
      <trkpt lat="42.9956180" lon="-5.9096710">
        <ele>1636.8</ele>
        <time>2021-10-10T15:58:19Z</time>
      </trkpt>
      <trkpt lat="42.9955980" lon="-5.9096820">
        <ele>1637.0</ele>
        <time>2021-10-10T15:58:20Z</time>
      </trkpt>
      <trkpt lat="42.9955330" lon="-5.9096980">
        <ele>1637.2</ele>
        <time>2021-10-10T15:58:24Z</time>
      </trkpt>
      <trkpt lat="42.9954660" lon="-5.9096880">
        <ele>1637.4</ele>
        <time>2021-10-10T15:58:28Z</time>
      </trkpt>
      <trkpt lat="42.9954240" lon="-5.9097000">
        <ele>1638.0</ele>
        <time>2021-10-10T15:58:31Z</time>
      </trkpt>
      <trkpt lat="42.9953450" lon="-5.9097370">
        <ele>1638.4</ele>
        <time>2021-10-10T15:58:36Z</time>
      </trkpt>
      <trkpt lat="42.9953210" lon="-5.9097580">
        <ele>1638.6</ele>
        <time>2021-10-10T15:58:38Z</time>
      </trkpt>
      <trkpt lat="42.9953060" lon="-5.9097740">
        <ele>1638.8</ele>
        <time>2021-10-10T15:58:39Z</time>
      </trkpt>
      <trkpt lat="42.9952930" lon="-5.9097870">
        <ele>1639.0</ele>
        <time>2021-10-10T15:58:40Z</time>
      </trkpt>
      <trkpt lat="42.9952810" lon="-5.9097990">
        <ele>1639.0</ele>
        <time>2021-10-10T15:58:41Z</time>
      </trkpt>
      <trkpt lat="42.9952710" lon="-5.9098080">
        <ele>1639.2</ele>
        <time>2021-10-10T15:58:42Z</time>
      </trkpt>
      <trkpt lat="42.9952600" lon="-5.9098180">
        <ele>1639.4</ele>
        <time>2021-10-10T15:58:43Z</time>
      </trkpt>
      <trkpt lat="42.9952220" lon="-5.9098560">
        <ele>1639.8</ele>
        <time>2021-10-10T15:58:46Z</time>
      </trkpt>
      <trkpt lat="42.9951830" lon="-5.9098830">
        <ele>1640.0</ele>
        <time>2021-10-10T15:58:49Z</time>
      </trkpt>
      <trkpt lat="42.9951680" lon="-5.9098870">
        <ele>1640.0</ele>
        <time>2021-10-10T15:58:50Z</time>
      </trkpt>
      <trkpt lat="42.9951540" lon="-5.9098940">
        <ele>1640.2</ele>
        <time>2021-10-10T15:58:51Z</time>
      </trkpt>
      <trkpt lat="42.9951400" lon="-5.9099010">
        <ele>1640.2</ele>
        <time>2021-10-10T15:58:52Z</time>
      </trkpt>
      <trkpt lat="42.9951120" lon="-5.9099020">
        <ele>1640.4</ele>
        <time>2021-10-10T15:58:54Z</time>
      </trkpt>
      <trkpt lat="42.9950650" lon="-5.9099090">
        <ele>1640.6</ele>
        <time>2021-10-10T15:58:57Z</time>
      </trkpt>
      <trkpt lat="42.9950540" lon="-5.9099140">
        <ele>1640.8</ele>
        <time>2021-10-10T15:58:58Z</time>
      </trkpt>
      <trkpt lat="42.9950080" lon="-5.9099260">
        <ele>1641.0</ele>
        <time>2021-10-10T15:59:01Z</time>
      </trkpt>
      <trkpt lat="42.9949920" lon="-5.9099330">
        <ele>1641.2</ele>
        <time>2021-10-10T15:59:02Z</time>
      </trkpt>
      <trkpt lat="42.9949520" lon="-5.9099510">
        <ele>1641.4</ele>
        <time>2021-10-10T15:59:05Z</time>
      </trkpt>
      <trkpt lat="42.9948490" lon="-5.9099970">
        <ele>1642.0</ele>
        <time>2021-10-10T15:59:12Z</time>
      </trkpt>
      <trkpt lat="42.9948190" lon="-5.9100170">
        <ele>1642.2</ele>
        <time>2021-10-10T15:59:14Z</time>
      </trkpt>
      <trkpt lat="42.9947570" lon="-5.9100640">
        <ele>1642.4</ele>
        <time>2021-10-10T15:59:18Z</time>
      </trkpt>
      <trkpt lat="42.9947060" lon="-5.9100870">
        <ele>1642.6</ele>
        <time>2021-10-10T15:59:21Z</time>
      </trkpt>
      <trkpt lat="42.9946760" lon="-5.9101040">
        <ele>1642.8</ele>
        <time>2021-10-10T15:59:23Z</time>
      </trkpt>
      <trkpt lat="42.9946640" lon="-5.9101070">
        <ele>1642.8</ele>
        <time>2021-10-10T15:59:24Z</time>
      </trkpt>
      <trkpt lat="42.9946500" lon="-5.9101120">
        <ele>1643.0</ele>
        <time>2021-10-10T15:59:25Z</time>
      </trkpt>
      <trkpt lat="42.9946350" lon="-5.9101170">
        <ele>1643.0</ele>
        <time>2021-10-10T15:59:26Z</time>
      </trkpt>
      <trkpt lat="42.9946040" lon="-5.9101280">
        <ele>1643.4</ele>
        <time>2021-10-10T15:59:28Z</time>
      </trkpt>
      <trkpt lat="42.9945600" lon="-5.9101590">
        <ele>1643.8</ele>
        <time>2021-10-10T15:59:31Z</time>
      </trkpt>
      <trkpt lat="42.9945320" lon="-5.9101810">
        <ele>1644.0</ele>
        <time>2021-10-10T15:59:33Z</time>
      </trkpt>
      <trkpt lat="42.9944720" lon="-5.9102130">
        <ele>1644.4</ele>
        <time>2021-10-10T15:59:37Z</time>
      </trkpt>
      <trkpt lat="42.9944490" lon="-5.9102220">
        <ele>1644.6</ele>
        <time>2021-10-10T15:59:39Z</time>
      </trkpt>
      <trkpt lat="42.9944120" lon="-5.9102370">
        <ele>1644.8</ele>
        <time>2021-10-10T15:59:41Z</time>
      </trkpt>
      <trkpt lat="42.9943880" lon="-5.9102570">
        <ele>1645.0</ele>
        <time>2021-10-10T15:59:43Z</time>
      </trkpt>
      <trkpt lat="42.9943500" lon="-5.9102750">
        <ele>1645.4</ele>
        <time>2021-10-10T15:59:46Z</time>
      </trkpt>
      <trkpt lat="42.9942660" lon="-5.9103420">
        <ele>1646.2</ele>
        <time>2021-10-10T15:59:53Z</time>
      </trkpt>
      <trkpt lat="42.9941840" lon="-5.9103930">
        <ele>1646.4</ele>
        <time>2021-10-10T15:59:59Z</time>
      </trkpt>
      <trkpt lat="42.9941090" lon="-5.9104260">
        <ele>1647.0</ele>
        <time>2021-10-10T16:00:04Z</time>
      </trkpt>
      <trkpt lat="42.9940940" lon="-5.9104300">
        <ele>1647.0</ele>
        <time>2021-10-10T16:00:05Z</time>
      </trkpt>
      <trkpt lat="42.9939810" lon="-5.9104640">
        <ele>1648.0</ele>
        <time>2021-10-10T16:00:12Z</time>
      </trkpt>
      <trkpt lat="42.9939590" lon="-5.9104690">
        <ele>1648.0</ele>
        <time>2021-10-10T16:00:13Z</time>
      </trkpt>
      <trkpt lat="42.9938550" lon="-5.9104860">
        <ele>1648.4</ele>
        <time>2021-10-10T16:00:19Z</time>
      </trkpt>
      <trkpt lat="42.9938380" lon="-5.9104810">
        <ele>1648.4</ele>
        <time>2021-10-10T16:00:20Z</time>
      </trkpt>
      <trkpt lat="42.9936960" lon="-5.9104540">
        <ele>1649.2</ele>
        <time>2021-10-10T16:00:28Z</time>
      </trkpt>
      <trkpt lat="42.9936640" lon="-5.9104440">
        <ele>1649.6</ele>
        <time>2021-10-10T16:00:30Z</time>
      </trkpt>
      <trkpt lat="42.9935890" lon="-5.9104030">
        <ele>1650.2</ele>
        <time>2021-10-10T16:00:35Z</time>
      </trkpt>
      <trkpt lat="42.9935390" lon="-5.9103720">
        <ele>1650.6</ele>
        <time>2021-10-10T16:00:38Z</time>
      </trkpt>
      <trkpt lat="42.9934300" lon="-5.9102990">
        <ele>1651.4</ele>
        <time>2021-10-10T16:00:45Z</time>
      </trkpt>
      <trkpt lat="42.9934110" lon="-5.9102880">
        <ele>1651.4</ele>
        <time>2021-10-10T16:00:46Z</time>
      </trkpt>
      <trkpt lat="42.9933190" lon="-5.9102060">
        <ele>1652.0</ele>
        <time>2021-10-10T16:00:52Z</time>
      </trkpt>
      <trkpt lat="42.9933040" lon="-5.9101960">
        <ele>1652.2</ele>
        <time>2021-10-10T16:00:53Z</time>
      </trkpt>
      <trkpt lat="42.9932810" lon="-5.9101770">
        <ele>1652.4</ele>
        <time>2021-10-10T16:00:55Z</time>
      </trkpt>
      <trkpt lat="42.9932360" lon="-5.9101340">
        <ele>1652.6</ele>
        <time>2021-10-10T16:00:58Z</time>
      </trkpt>
      <trkpt lat="42.9932250" lon="-5.9101280">
        <ele>1652.6</ele>
        <time>2021-10-10T16:00:59Z</time>
      </trkpt>
      <trkpt lat="42.9931910" lon="-5.9100900">
        <ele>1653.0</ele>
        <time>2021-10-10T16:01:02Z</time>
      </trkpt>
      <trkpt lat="42.9931540" lon="-5.9100590">
        <ele>1653.2</ele>
        <time>2021-10-10T16:01:05Z</time>
      </trkpt>
      <trkpt lat="42.9931420" lon="-5.9100440">
        <ele>1653.4</ele>
        <time>2021-10-10T16:01:06Z</time>
      </trkpt>
      <trkpt lat="42.9931290" lon="-5.9100340">
        <ele>1653.4</ele>
        <time>2021-10-10T16:01:07Z</time>
      </trkpt>
      <trkpt lat="42.9930990" lon="-5.9100130">
        <ele>1653.8</ele>
        <time>2021-10-10T16:01:10Z</time>
      </trkpt>
      <trkpt lat="42.9930380" lon="-5.9099270">
        <ele>1654.2</ele>
        <time>2021-10-10T16:01:16Z</time>
      </trkpt>
      <trkpt lat="42.9930280" lon="-5.9099120">
        <ele>1654.4</ele>
        <time>2021-10-10T16:01:17Z</time>
      </trkpt>
      <trkpt lat="42.9929460" lon="-5.9097800">
        <ele>1655.2</ele>
        <time>2021-10-10T16:01:26Z</time>
      </trkpt>
      <trkpt lat="42.9929420" lon="-5.9097660">
        <ele>1655.2</ele>
        <time>2021-10-10T16:01:27Z</time>
      </trkpt>
      <trkpt lat="42.9929200" lon="-5.9097030">
        <ele>1655.8</ele>
        <time>2021-10-10T16:01:31Z</time>
      </trkpt>
      <trkpt lat="42.9929000" lon="-5.9096770">
        <ele>1655.8</ele>
        <time>2021-10-10T16:01:33Z</time>
      </trkpt>
      <trkpt lat="42.9928900" lon="-5.9096650">
        <ele>1656.0</ele>
        <time>2021-10-10T16:01:34Z</time>
      </trkpt>
      <trkpt lat="42.9928680" lon="-5.9096410">
        <ele>1656.2</ele>
        <time>2021-10-10T16:01:36Z</time>
      </trkpt>
      <trkpt lat="42.9928500" lon="-5.9096120">
        <ele>1656.6</ele>
        <time>2021-10-10T16:01:38Z</time>
      </trkpt>
      <trkpt lat="42.9928040" lon="-5.9094930">
        <ele>1657.4</ele>
        <time>2021-10-10T16:01:45Z</time>
      </trkpt>
      <trkpt lat="42.9928040" lon="-5.9094730">
        <ele>1657.4</ele>
        <time>2021-10-10T16:01:46Z</time>
      </trkpt>
      <trkpt lat="42.9927890" lon="-5.9093690">
        <ele>1658.0</ele>
        <time>2021-10-10T16:01:51Z</time>
      </trkpt>
      <trkpt lat="42.9927750" lon="-5.9093320">
        <ele>1658.4</ele>
        <time>2021-10-10T16:01:53Z</time>
      </trkpt>
      <trkpt lat="42.9927280" lon="-5.9092010">
        <ele>1659.2</ele>
        <time>2021-10-10T16:02:00Z</time>
      </trkpt>
      <trkpt lat="42.9927190" lon="-5.9091830">
        <ele>1659.4</ele>
        <time>2021-10-10T16:02:01Z</time>
      </trkpt>
      <trkpt lat="42.9926540" lon="-5.9090700">
        <ele>1660.0</ele>
        <time>2021-10-10T16:02:08Z</time>
      </trkpt>
      <trkpt lat="42.9926380" lon="-5.9090350">
        <ele>1660.4</ele>
        <time>2021-10-10T16:02:10Z</time>
      </trkpt>
      <trkpt lat="42.9926040" lon="-5.9089890">
        <ele>1660.6</ele>
        <time>2021-10-10T16:02:13Z</time>
      </trkpt>
      <trkpt lat="42.9925700" lon="-5.9089490">
        <ele>1660.8</ele>
        <time>2021-10-10T16:02:16Z</time>
      </trkpt>
      <trkpt lat="42.9925260" lon="-5.9088910">
        <ele>1661.2</ele>
        <time>2021-10-10T16:02:20Z</time>
      </trkpt>
      <trkpt lat="42.9924850" lon="-5.9088320">
        <ele>1661.6</ele>
        <time>2021-10-10T16:02:24Z</time>
      </trkpt>
      <trkpt lat="42.9924320" lon="-5.9087640">
        <ele>1662.2</ele>
        <time>2021-10-10T16:02:29Z</time>
      </trkpt>
      <trkpt lat="42.9924220" lon="-5.9087520">
        <ele>1662.2</ele>
        <time>2021-10-10T16:02:30Z</time>
      </trkpt>
      <trkpt lat="42.9923730" lon="-5.9086940">
        <ele>1663.0</ele>
        <time>2021-10-10T16:02:34Z</time>
      </trkpt>
      <trkpt lat="42.9923560" lon="-5.9086720">
        <ele>1663.4</ele>
        <time>2021-10-10T16:02:36Z</time>
      </trkpt>
      <trkpt lat="42.9923380" lon="-5.9086470">
        <ele>1663.8</ele>
        <time>2021-10-10T16:02:38Z</time>
      </trkpt>
      <trkpt lat="42.9922860" lon="-5.9085790">
        <ele>1664.4</ele>
        <time>2021-10-10T16:02:43Z</time>
      </trkpt>
      <trkpt lat="42.9922360" lon="-5.9085400">
        <ele>1664.8</ele>
        <time>2021-10-10T16:02:47Z</time>
      </trkpt>
      <trkpt lat="42.9921900" lon="-5.9084890">
        <ele>1665.6</ele>
        <time>2021-10-10T16:02:51Z</time>
      </trkpt>
      <trkpt lat="42.9921380" lon="-5.9084310">
        <ele>1666.0</ele>
        <time>2021-10-10T16:02:55Z</time>
      </trkpt>
      <trkpt lat="42.9920770" lon="-5.9083560">
        <ele>1666.6</ele>
        <time>2021-10-10T16:03:00Z</time>
      </trkpt>
      <trkpt lat="42.9920460" lon="-5.9083260">
        <ele>1666.8</ele>
        <time>2021-10-10T16:03:03Z</time>
      </trkpt>
      <trkpt lat="42.9920360" lon="-5.9083130">
        <ele>1667.0</ele>
        <time>2021-10-10T16:03:04Z</time>
      </trkpt>
      <trkpt lat="42.9919950" lon="-5.9082590">
        <ele>1667.2</ele>
        <time>2021-10-10T16:03:08Z</time>
      </trkpt>
      <trkpt lat="42.9919710" lon="-5.9082340">
        <ele>1667.6</ele>
        <time>2021-10-10T16:03:10Z</time>
      </trkpt>
      <trkpt lat="42.9919070" lon="-5.9081780">
        <ele>1668.4</ele>
        <time>2021-10-10T16:03:15Z</time>
      </trkpt>
      <trkpt lat="42.9918950" lon="-5.9081610">
        <ele>1668.6</ele>
        <time>2021-10-10T16:03:16Z</time>
      </trkpt>
      <trkpt lat="42.9918680" lon="-5.9081350">
        <ele>1668.6</ele>
        <time>2021-10-10T16:03:18Z</time>
      </trkpt>
      <trkpt lat="42.9918000" lon="-5.9080670">
        <ele>1669.2</ele>
        <time>2021-10-10T16:03:23Z</time>
      </trkpt>
      <trkpt lat="42.9917530" lon="-5.9080030">
        <ele>1669.4</ele>
        <time>2021-10-10T16:03:27Z</time>
      </trkpt>
      <trkpt lat="42.9917420" lon="-5.9079890">
        <ele>1669.6</ele>
        <time>2021-10-10T16:03:28Z</time>
      </trkpt>
      <trkpt lat="42.9917100" lon="-5.9079580">
        <ele>1669.8</ele>
        <time>2021-10-10T16:03:31Z</time>
      </trkpt>
      <trkpt lat="42.9916430" lon="-5.9078830">
        <ele>1670.6</ele>
        <time>2021-10-10T16:03:37Z</time>
      </trkpt>
      <trkpt lat="42.9916090" lon="-5.9078430">
        <ele>1670.8</ele>
        <time>2021-10-10T16:03:40Z</time>
      </trkpt>
      <trkpt lat="42.9915670" lon="-5.9078080">
        <ele>1671.4</ele>
        <time>2021-10-10T16:03:44Z</time>
      </trkpt>
      <trkpt lat="42.9915340" lon="-5.9077790">
        <ele>1671.6</ele>
        <time>2021-10-10T16:03:47Z</time>
      </trkpt>
      <trkpt lat="42.9915230" lon="-5.9077680">
        <ele>1671.8</ele>
        <time>2021-10-10T16:03:48Z</time>
      </trkpt>
      <trkpt lat="42.9914430" lon="-5.9076850">
        <ele>1672.4</ele>
        <time>2021-10-10T16:03:55Z</time>
      </trkpt>
      <trkpt lat="42.9914320" lon="-5.9076750">
        <ele>1672.4</ele>
        <time>2021-10-10T16:03:56Z</time>
      </trkpt>
      <trkpt lat="42.9914210" lon="-5.9076610">
        <ele>1672.6</ele>
        <time>2021-10-10T16:03:57Z</time>
      </trkpt>
      <trkpt lat="42.9913870" lon="-5.9076170">
        <ele>1673.0</ele>
        <time>2021-10-10T16:04:00Z</time>
      </trkpt>
      <trkpt lat="42.9913490" lon="-5.9075580">
        <ele>1673.6</ele>
        <time>2021-10-10T16:04:04Z</time>
      </trkpt>
      <trkpt lat="42.9913280" lon="-5.9075110">
        <ele>1673.8</ele>
        <time>2021-10-10T16:04:07Z</time>
      </trkpt>
      <trkpt lat="42.9912940" lon="-5.9074470">
        <ele>1674.2</ele>
        <time>2021-10-10T16:04:11Z</time>
      </trkpt>
      <trkpt lat="42.9912700" lon="-5.9073910">
        <ele>1674.6</ele>
        <time>2021-10-10T16:04:14Z</time>
      </trkpt>
      <trkpt lat="42.9912610" lon="-5.9073520">
        <ele>1674.8</ele>
        <time>2021-10-10T16:04:16Z</time>
      </trkpt>
      <trkpt lat="42.9912050" lon="-5.9072290">
        <ele>1675.6</ele>
        <time>2021-10-10T16:04:23Z</time>
      </trkpt>
      <trkpt lat="42.9911870" lon="-5.9071520">
        <ele>1676.0</ele>
        <time>2021-10-10T16:04:27Z</time>
      </trkpt>
      <trkpt lat="42.9911600" lon="-5.9070780">
        <ele>1676.2</ele>
        <time>2021-10-10T16:04:31Z</time>
      </trkpt>
      <trkpt lat="42.9911250" lon="-5.9070130">
        <ele>1676.6</ele>
        <time>2021-10-10T16:04:35Z</time>
      </trkpt>
      <trkpt lat="42.9911130" lon="-5.9069980">
        <ele>1676.8</ele>
        <time>2021-10-10T16:04:36Z</time>
      </trkpt>
      <trkpt lat="42.9910460" lon="-5.9068670">
        <ele>1677.8</ele>
        <time>2021-10-10T16:04:44Z</time>
      </trkpt>
      <trkpt lat="42.9909990" lon="-5.9067910">
        <ele>1678.2</ele>
        <time>2021-10-10T16:04:49Z</time>
      </trkpt>
      <trkpt lat="42.9909580" lon="-5.9067040">
        <ele>1678.8</ele>
        <time>2021-10-10T16:04:54Z</time>
      </trkpt>
      <trkpt lat="42.9909310" lon="-5.9066300">
        <ele>1679.8</ele>
        <time>2021-10-10T16:04:58Z</time>
      </trkpt>
      <trkpt lat="42.9909270" lon="-5.9066100">
        <ele>1679.8</ele>
        <time>2021-10-10T16:04:59Z</time>
      </trkpt>
      <trkpt lat="42.9909200" lon="-5.9065510">
        <ele>1680.6</ele>
        <time>2021-10-10T16:05:02Z</time>
      </trkpt>
      <trkpt lat="42.9909230" lon="-5.9065280">
        <ele>1680.8</ele>
        <time>2021-10-10T16:05:03Z</time>
      </trkpt>
      <trkpt lat="42.9909190" lon="-5.9064910">
        <ele>1681.0</ele>
        <time>2021-10-10T16:05:05Z</time>
      </trkpt>
      <trkpt lat="42.9909120" lon="-5.9064570">
        <ele>1681.2</ele>
        <time>2021-10-10T16:05:07Z</time>
      </trkpt>
      <trkpt lat="42.9908940" lon="-5.9063580">
        <ele>1681.6</ele>
        <time>2021-10-10T16:05:12Z</time>
      </trkpt>
      <trkpt lat="42.9908910" lon="-5.9063160">
        <ele>1681.6</ele>
        <time>2021-10-10T16:05:14Z</time>
      </trkpt>
      <trkpt lat="42.9908840" lon="-5.9061870">
        <ele>1682.0</ele>
        <time>2021-10-10T16:05:20Z</time>
      </trkpt>
      <trkpt lat="42.9908670" lon="-5.9061020">
        <ele>1682.4</ele>
        <time>2021-10-10T16:05:24Z</time>
      </trkpt>
      <trkpt lat="42.9908370" lon="-5.9059750">
        <ele>1683.0</ele>
        <time>2021-10-10T16:05:30Z</time>
      </trkpt>
      <trkpt lat="42.9908150" lon="-5.9059380">
        <ele>1683.4</ele>
        <time>2021-10-10T16:05:32Z</time>
      </trkpt>
      <trkpt lat="42.9907540" lon="-5.9057810">
        <ele>1684.2</ele>
        <time>2021-10-10T16:05:40Z</time>
      </trkpt>
      <trkpt lat="42.9907340" lon="-5.9057450">
        <ele>1684.6</ele>
        <time>2021-10-10T16:05:42Z</time>
      </trkpt>
      <trkpt lat="42.9906920" lon="-5.9056770">
        <ele>1685.0</ele>
        <time>2021-10-10T16:05:46Z</time>
      </trkpt>
      <trkpt lat="42.9906740" lon="-5.9056480">
        <ele>1685.2</ele>
        <time>2021-10-10T16:05:48Z</time>
      </trkpt>
      <trkpt lat="42.9906620" lon="-5.9056290">
        <ele>1685.4</ele>
        <time>2021-10-10T16:05:49Z</time>
      </trkpt>
      <trkpt lat="42.9906110" lon="-5.9055650">
        <ele>1686.0</ele>
        <time>2021-10-10T16:05:54Z</time>
      </trkpt>
      <trkpt lat="42.9905960" lon="-5.9055410">
        <ele>1686.2</ele>
        <time>2021-10-10T16:05:56Z</time>
      </trkpt>
      <trkpt lat="42.9905880" lon="-5.9055270">
        <ele>1686.2</ele>
        <time>2021-10-10T16:05:57Z</time>
      </trkpt>
      <trkpt lat="42.9905700" lon="-5.9055070">
        <ele>1686.2</ele>
        <time>2021-10-10T16:05:59Z</time>
      </trkpt>
      <trkpt lat="42.9905480" lon="-5.9054860">
        <ele>1686.6</ele>
        <time>2021-10-10T16:06:01Z</time>
      </trkpt>
      <trkpt lat="42.9905310" lon="-5.9054630">
        <ele>1686.6</ele>
        <time>2021-10-10T16:06:03Z</time>
      </trkpt>
      <trkpt lat="42.9905220" lon="-5.9054540">
        <ele>1686.6</ele>
        <time>2021-10-10T16:06:04Z</time>
      </trkpt>
      <trkpt lat="42.9905140" lon="-5.9054450">
        <ele>1686.6</ele>
        <time>2021-10-10T16:06:05Z</time>
      </trkpt>
      <trkpt lat="42.9905040" lon="-5.9054370">
        <ele>1686.8</ele>
        <time>2021-10-10T16:06:06Z</time>
      </trkpt>
      <trkpt lat="42.9904980" lon="-5.9054310">
        <ele>1686.8</ele>
        <time>2021-10-10T16:06:07Z</time>
      </trkpt>
      <trkpt lat="42.9904940" lon="-5.9054300">
        <ele>1686.8</ele>
        <time>2021-10-10T16:06:08Z</time>
      </trkpt>
      <trkpt lat="42.9904900" lon="-5.9054300">
        <ele>1687.2</ele>
        <time>2021-10-10T16:06:11Z</time>
      </trkpt>
      <trkpt lat="42.9903020" lon="-5.9053690">
        <ele>1688.4</ele>
        <time>2021-10-10T16:13:21Z</time>
      </trkpt>
      <trkpt lat="42.9902910" lon="-5.9053910">
        <ele>1688.4</ele>
        <time>2021-10-10T16:13:22Z</time>
      </trkpt>
      <trkpt lat="42.9902640" lon="-5.9054470">
        <ele>1688.6</ele>
        <time>2021-10-10T16:13:24Z</time>
      </trkpt>
      <trkpt lat="42.9902350" lon="-5.9055240">
        <ele>1688.4</ele>
        <time>2021-10-10T16:13:26Z</time>
      </trkpt>
      <trkpt lat="42.9902050" lon="-5.9056160">
        <ele>1688.2</ele>
        <time>2021-10-10T16:13:28Z</time>
      </trkpt>
      <trkpt lat="42.9901770" lon="-5.9057150">
        <ele>1688.2</ele>
        <time>2021-10-10T16:13:30Z</time>
      </trkpt>
      <trkpt lat="42.9901490" lon="-5.9058230">
        <ele>1687.6</ele>
        <time>2021-10-10T16:13:32Z</time>
      </trkpt>
      <trkpt lat="42.9900620" lon="-5.9061190">
        <ele>1686.4</ele>
        <time>2021-10-10T16:13:37Z</time>
      </trkpt>
      <trkpt lat="42.9900000" lon="-5.9063220">
        <ele>1685.6</ele>
        <time>2021-10-10T16:13:40Z</time>
      </trkpt>
      <trkpt lat="42.9899800" lon="-5.9063950">
        <ele>1685.4</ele>
        <time>2021-10-10T16:13:41Z</time>
      </trkpt>
      <trkpt lat="42.9899310" lon="-5.9066110">
        <ele>1685.0</ele>
        <time>2021-10-10T16:13:44Z</time>
      </trkpt>
      <trkpt lat="42.9898770" lon="-5.9068320">
        <ele>1684.2</ele>
        <time>2021-10-10T16:13:47Z</time>
      </trkpt>
      <trkpt lat="42.9898570" lon="-5.9069850">
        <ele>1683.6</ele>
        <time>2021-10-10T16:13:49Z</time>
      </trkpt>
      <trkpt lat="42.9898510" lon="-5.9070620">
        <ele>1683.0</ele>
        <time>2021-10-10T16:13:50Z</time>
      </trkpt>
      <trkpt lat="42.9898440" lon="-5.9073940">
        <ele>1681.8</ele>
        <time>2021-10-10T16:13:54Z</time>
      </trkpt>
      <trkpt lat="42.9898510" lon="-5.9076350">
        <ele>1681.0</ele>
        <time>2021-10-10T16:13:57Z</time>
      </trkpt>
      <trkpt lat="42.9898550" lon="-5.9077390">
        <ele>1680.8</ele>
        <time>2021-10-10T16:13:58Z</time>
      </trkpt>
      <trkpt lat="42.9898760" lon="-5.9081090">
        <ele>1679.6</ele>
        <time>2021-10-10T16:14:02Z</time>
      </trkpt>
      <trkpt lat="42.9898930" lon="-5.9084050">
        <ele>1678.6</ele>
        <time>2021-10-10T16:14:05Z</time>
      </trkpt>
      <trkpt lat="42.9899020" lon="-5.9086080">
        <ele>1678.0</ele>
        <time>2021-10-10T16:14:07Z</time>
      </trkpt>
      <trkpt lat="42.9898880" lon="-5.9088170">
        <ele>1677.6</ele>
        <time>2021-10-10T16:14:09Z</time>
      </trkpt>
      <trkpt lat="42.9898740" lon="-5.9089230">
        <ele>1677.2</ele>
        <time>2021-10-10T16:14:10Z</time>
      </trkpt>
      <trkpt lat="42.9898270" lon="-5.9091410">
        <ele>1676.4</ele>
        <time>2021-10-10T16:14:12Z</time>
      </trkpt>
      <trkpt lat="42.9897700" lon="-5.9093550">
        <ele>1675.2</ele>
        <time>2021-10-10T16:14:14Z</time>
      </trkpt>
      <trkpt lat="42.9897390" lon="-5.9094600">
        <ele>1675.0</ele>
        <time>2021-10-10T16:14:15Z</time>
      </trkpt>
      <trkpt lat="42.9897140" lon="-5.9095670">
        <ele>1674.0</ele>
        <time>2021-10-10T16:14:16Z</time>
      </trkpt>
      <trkpt lat="42.9896840" lon="-5.9097800">
        <ele>1672.8</ele>
        <time>2021-10-10T16:14:18Z</time>
      </trkpt>
      <trkpt lat="42.9896840" lon="-5.9098850">
        <ele>1672.6</ele>
        <time>2021-10-10T16:14:19Z</time>
      </trkpt>
      <trkpt lat="42.9896980" lon="-5.9099870">
        <ele>1672.4</ele>
        <time>2021-10-10T16:14:20Z</time>
      </trkpt>
      <trkpt lat="42.9897220" lon="-5.9100860">
        <ele>1671.8</ele>
        <time>2021-10-10T16:14:21Z</time>
      </trkpt>
      <trkpt lat="42.9897550" lon="-5.9101860">
        <ele>1671.4</ele>
        <time>2021-10-10T16:14:22Z</time>
      </trkpt>
      <trkpt lat="42.9898480" lon="-5.9103690">
        <ele>1670.8</ele>
        <time>2021-10-10T16:14:24Z</time>
      </trkpt>
      <trkpt lat="42.9899040" lon="-5.9104560">
        <ele>1670.0</ele>
        <time>2021-10-10T16:14:25Z</time>
      </trkpt>
      <trkpt lat="42.9899580" lon="-5.9105430">
        <ele>1669.8</ele>
        <time>2021-10-10T16:14:26Z</time>
      </trkpt>
      <trkpt lat="42.9900610" lon="-5.9107180">
        <ele>1669.0</ele>
        <time>2021-10-10T16:14:28Z</time>
      </trkpt>
      <trkpt lat="42.9901380" lon="-5.9108950">
        <ele>1668.4</ele>
        <time>2021-10-10T16:14:30Z</time>
      </trkpt>
      <trkpt lat="42.9901680" lon="-5.9109870">
        <ele>1668.0</ele>
        <time>2021-10-10T16:14:31Z</time>
      </trkpt>
      <trkpt lat="42.9901880" lon="-5.9110840">
        <ele>1667.8</ele>
        <time>2021-10-10T16:14:32Z</time>
      </trkpt>
      <trkpt lat="42.9902100" lon="-5.9112850">
        <ele>1667.6</ele>
        <time>2021-10-10T16:14:34Z</time>
      </trkpt>
      <trkpt lat="42.9902300" lon="-5.9114940">
        <ele>1666.8</ele>
        <time>2021-10-10T16:14:36Z</time>
      </trkpt>
      <trkpt lat="42.9902590" lon="-5.9118220">
        <ele>1665.8</ele>
        <time>2021-10-10T16:14:39Z</time>
      </trkpt>
      <trkpt lat="42.9902890" lon="-5.9122810">
        <ele>1664.2</ele>
        <time>2021-10-10T16:14:43Z</time>
      </trkpt>
      <trkpt lat="42.9902890" lon="-5.9126380">
        <ele>1663.0</ele>
        <time>2021-10-10T16:14:46Z</time>
      </trkpt>
      <trkpt lat="42.9902820" lon="-5.9129940">
        <ele>1661.8</ele>
        <time>2021-10-10T16:14:49Z</time>
      </trkpt>
      <trkpt lat="42.9902790" lon="-5.9131110">
        <ele>1661.6</ele>
        <time>2021-10-10T16:14:50Z</time>
      </trkpt>
      <trkpt lat="42.9902750" lon="-5.9133430">
        <ele>1660.6</ele>
        <time>2021-10-10T16:14:52Z</time>
      </trkpt>
      <trkpt lat="42.9902710" lon="-5.9136710">
        <ele>1659.2</ele>
        <time>2021-10-10T16:14:55Z</time>
      </trkpt>
      <trkpt lat="42.9902640" lon="-5.9138860">
        <ele>1658.2</ele>
        <time>2021-10-10T16:14:57Z</time>
      </trkpt>
      <trkpt lat="42.9902530" lon="-5.9140010">
        <ele>1657.6</ele>
        <time>2021-10-10T16:14:58Z</time>
      </trkpt>
      <trkpt lat="42.9902310" lon="-5.9141370">
        <ele>1657.2</ele>
        <time>2021-10-10T16:14:59Z</time>
      </trkpt>
      <trkpt lat="42.9902100" lon="-5.9142220">
        <ele>1656.8</ele>
        <time>2021-10-10T16:15:00Z</time>
      </trkpt>
      <trkpt lat="42.9901470" lon="-5.9144310">
        <ele>1656.0</ele>
        <time>2021-10-10T16:15:02Z</time>
      </trkpt>
      <trkpt lat="42.9901090" lon="-5.9145320">
        <ele>1655.8</ele>
        <time>2021-10-10T16:15:03Z</time>
      </trkpt>
      <trkpt lat="42.9900250" lon="-5.9147290">
        <ele>1655.0</ele>
        <time>2021-10-10T16:15:05Z</time>
      </trkpt>
      <trkpt lat="42.9899740" lon="-5.9148190">
        <ele>1654.4</ele>
        <time>2021-10-10T16:15:06Z</time>
      </trkpt>
      <trkpt lat="42.9899120" lon="-5.9149040">
        <ele>1654.0</ele>
        <time>2021-10-10T16:15:07Z</time>
      </trkpt>
      <trkpt lat="42.9897730" lon="-5.9150680">
        <ele>1653.0</ele>
        <time>2021-10-10T16:15:09Z</time>
      </trkpt>
      <trkpt lat="42.9896280" lon="-5.9152060">
        <ele>1651.8</ele>
        <time>2021-10-10T16:15:11Z</time>
      </trkpt>
      <trkpt lat="42.9895490" lon="-5.9152740">
        <ele>1651.6</ele>
        <time>2021-10-10T16:15:12Z</time>
      </trkpt>
      <trkpt lat="42.9893060" lon="-5.9154630">
        <ele>1650.8</ele>
        <time>2021-10-10T16:15:15Z</time>
      </trkpt>
      <trkpt lat="42.9889850" lon="-5.9157010">
        <ele>1649.8</ele>
        <time>2021-10-10T16:15:19Z</time>
      </trkpt>
      <trkpt lat="42.9889040" lon="-5.9157650">
        <ele>1649.2</ele>
        <time>2021-10-10T16:15:20Z</time>
      </trkpt>
      <trkpt lat="42.9886650" lon="-5.9159360">
        <ele>1648.2</ele>
        <time>2021-10-10T16:15:23Z</time>
      </trkpt>
      <trkpt lat="42.9885130" lon="-5.9160530">
        <ele>1647.2</ele>
        <time>2021-10-10T16:15:25Z</time>
      </trkpt>
      <trkpt lat="42.9883740" lon="-5.9161520">
        <ele>1646.0</ele>
        <time>2021-10-10T16:15:27Z</time>
      </trkpt>
      <trkpt lat="42.9883140" lon="-5.9162060">
        <ele>1645.6</ele>
        <time>2021-10-10T16:15:28Z</time>
      </trkpt>
      <trkpt lat="42.9882600" lon="-5.9162650">
        <ele>1645.2</ele>
        <time>2021-10-10T16:15:29Z</time>
      </trkpt>
      <trkpt lat="42.9882090" lon="-5.9163310">
        <ele>1644.8</ele>
        <time>2021-10-10T16:15:30Z</time>
      </trkpt>
      <trkpt lat="42.9881620" lon="-5.9164030">
        <ele>1644.0</ele>
        <time>2021-10-10T16:15:31Z</time>
      </trkpt>
      <trkpt lat="42.9881220" lon="-5.9164860">
        <ele>1643.6</ele>
        <time>2021-10-10T16:15:32Z</time>
      </trkpt>
      <trkpt lat="42.9880310" lon="-5.9167650">
        <ele>1642.0</ele>
        <time>2021-10-10T16:15:35Z</time>
      </trkpt>
      <trkpt lat="42.9879860" lon="-5.9169690">
        <ele>1641.6</ele>
        <time>2021-10-10T16:15:37Z</time>
      </trkpt>
      <trkpt lat="42.9879510" lon="-5.9171840">
        <ele>1640.8</ele>
        <time>2021-10-10T16:15:39Z</time>
      </trkpt>
      <trkpt lat="42.9879160" lon="-5.9175240">
        <ele>1639.4</ele>
        <time>2021-10-10T16:15:42Z</time>
      </trkpt>
      <trkpt lat="42.9879070" lon="-5.9176420">
        <ele>1639.2</ele>
        <time>2021-10-10T16:15:43Z</time>
      </trkpt>
      <trkpt lat="42.9878750" lon="-5.9180060">
        <ele>1638.2</ele>
        <time>2021-10-10T16:15:46Z</time>
      </trkpt>
      <trkpt lat="42.9878390" lon="-5.9183720">
        <ele>1637.0</ele>
        <time>2021-10-10T16:15:49Z</time>
      </trkpt>
      <trkpt lat="42.9878230" lon="-5.9184910">
        <ele>1636.4</ele>
        <time>2021-10-10T16:15:50Z</time>
      </trkpt>
      <trkpt lat="42.9878020" lon="-5.9186080">
        <ele>1635.2</ele>
        <time>2021-10-10T16:15:51Z</time>
      </trkpt>
      <trkpt lat="42.9877450" lon="-5.9188370">
        <ele>1633.8</ele>
        <time>2021-10-10T16:15:53Z</time>
      </trkpt>
      <trkpt lat="42.9876660" lon="-5.9190550">
        <ele>1633.2</ele>
        <time>2021-10-10T16:15:55Z</time>
      </trkpt>
      <trkpt lat="42.9875770" lon="-5.9192630">
        <ele>1632.4</ele>
        <time>2021-10-10T16:15:57Z</time>
      </trkpt>
      <trkpt lat="42.9874710" lon="-5.9195600">
        <ele>1631.4</ele>
        <time>2021-10-10T16:16:00Z</time>
      </trkpt>
      <trkpt lat="42.9874520" lon="-5.9196650">
        <ele>1630.8</ele>
        <time>2021-10-10T16:16:01Z</time>
      </trkpt>
      <trkpt lat="42.9874420" lon="-5.9197720">
        <ele>1630.4</ele>
        <time>2021-10-10T16:16:02Z</time>
      </trkpt>
      <trkpt lat="42.9874390" lon="-5.9198820">
        <ele>1629.6</ele>
        <time>2021-10-10T16:16:03Z</time>
      </trkpt>
      <trkpt lat="42.9874490" lon="-5.9201070">
        <ele>1628.8</ele>
        <time>2021-10-10T16:16:05Z</time>
      </trkpt>
      <trkpt lat="42.9874570" lon="-5.9202200">
        <ele>1628.4</ele>
        <time>2021-10-10T16:16:06Z</time>
      </trkpt>
      <trkpt lat="42.9874940" lon="-5.9206760">
        <ele>1627.2</ele>
        <time>2021-10-10T16:16:10Z</time>
      </trkpt>
      <trkpt lat="42.9875220" lon="-5.9209060">
        <ele>1626.2</ele>
        <time>2021-10-10T16:16:12Z</time>
      </trkpt>
      <trkpt lat="42.9875680" lon="-5.9212460">
        <ele>1624.4</ele>
        <time>2021-10-10T16:16:15Z</time>
      </trkpt>
      <trkpt lat="42.9876080" lon="-5.9217230">
        <ele>1623.0</ele>
        <time>2021-10-10T16:16:19Z</time>
      </trkpt>
      <trkpt lat="42.9876070" lon="-5.9219700">
        <ele>1621.8</ele>
        <time>2021-10-10T16:16:21Z</time>
      </trkpt>
      <trkpt lat="42.9875910" lon="-5.9222150">
        <ele>1620.8</ele>
        <time>2021-10-10T16:16:23Z</time>
      </trkpt>
      <trkpt lat="42.9875720" lon="-5.9223380">
        <ele>1620.4</ele>
        <time>2021-10-10T16:16:24Z</time>
      </trkpt>
      <trkpt lat="42.9875470" lon="-5.9224570">
        <ele>1620.0</ele>
        <time>2021-10-10T16:16:25Z</time>
      </trkpt>
      <trkpt lat="42.9875170" lon="-5.9225740">
        <ele>1619.4</ele>
        <time>2021-10-10T16:16:26Z</time>
      </trkpt>
      <trkpt lat="42.9874520" lon="-5.9228110">
        <ele>1618.2</ele>
        <time>2021-10-10T16:16:28Z</time>
      </trkpt>
      <trkpt lat="42.9873470" lon="-5.9231750">
        <ele>1617.0</ele>
        <time>2021-10-10T16:16:31Z</time>
      </trkpt>
      <trkpt lat="42.9873140" lon="-5.9232950">
        <ele>1616.2</ele>
        <time>2021-10-10T16:16:32Z</time>
      </trkpt>
      <trkpt lat="42.9872760" lon="-5.9234400">
        <ele>1615.8</ele>
        <time>2021-10-10T16:16:33Z</time>
      </trkpt>
      <trkpt lat="42.9872350" lon="-5.9236640">
        <ele>1614.6</ele>
        <time>2021-10-10T16:16:35Z</time>
      </trkpt>
      <trkpt lat="42.9872000" lon="-5.9239120">
        <ele>1612.6</ele>
        <time>2021-10-10T16:16:37Z</time>
      </trkpt>
      <trkpt lat="42.9871670" lon="-5.9241620">
        <ele>1611.0</ele>
        <time>2021-10-10T16:16:39Z</time>
      </trkpt>
      <trkpt lat="42.9871420" lon="-5.9244110">
        <ele>1609.6</ele>
        <time>2021-10-10T16:16:41Z</time>
      </trkpt>
      <trkpt lat="42.9871210" lon="-5.9246430">
        <ele>1608.6</ele>
        <time>2021-10-10T16:16:43Z</time>
      </trkpt>
      <trkpt lat="42.9871020" lon="-5.9248650">
        <ele>1607.6</ele>
        <time>2021-10-10T16:16:45Z</time>
      </trkpt>
      <trkpt lat="42.9870800" lon="-5.9251680">
        <ele>1606.4</ele>
        <time>2021-10-10T16:16:48Z</time>
      </trkpt>
      <trkpt lat="42.9870790" lon="-5.9253580">
        <ele>1605.6</ele>
        <time>2021-10-10T16:16:50Z</time>
      </trkpt>
      <trkpt lat="42.9870860" lon="-5.9255400">
        <ele>1604.4</ele>
        <time>2021-10-10T16:16:52Z</time>
      </trkpt>
      <trkpt lat="42.9871010" lon="-5.9257860">
        <ele>1603.4</ele>
        <time>2021-10-10T16:16:55Z</time>
      </trkpt>
      <trkpt lat="42.9871120" lon="-5.9258600">
        <ele>1602.8</ele>
        <time>2021-10-10T16:16:56Z</time>
      </trkpt>
      <trkpt lat="42.9871480" lon="-5.9259940">
        <ele>1602.4</ele>
        <time>2021-10-10T16:16:58Z</time>
      </trkpt>
      <trkpt lat="42.9871970" lon="-5.9261640">
        <ele>1601.4</ele>
        <time>2021-10-10T16:17:01Z</time>
      </trkpt>
      <trkpt lat="42.9872040" lon="-5.9262130">
        <ele>1601.2</ele>
        <time>2021-10-10T16:17:02Z</time>
      </trkpt>
      <trkpt lat="42.9872160" lon="-5.9263540">
        <ele>1600.0</ele>
        <time>2021-10-10T16:17:05Z</time>
      </trkpt>
      <trkpt lat="42.9872230" lon="-5.9264000">
        <ele>1600.0</ele>
        <time>2021-10-10T16:17:06Z</time>
      </trkpt>
      <trkpt lat="42.9872740" lon="-5.9266620">
        <ele>1599.4</ele>
        <time>2021-10-10T16:17:13Z</time>
      </trkpt>
      <trkpt lat="42.9873050" lon="-5.9267230">
        <ele>1599.2</ele>
        <time>2021-10-10T16:17:18Z</time>
      </trkpt>
      <trkpt lat="42.9873050" lon="-5.9267230">
        <ele>1599.2</ele>
        <time>2021-10-10T16:17:20Z</time>
      </trkpt>
      <trkpt lat="42.9873920" lon="-5.9268300">
        <ele>1601.0</ele>
        <time>2021-10-10T16:23:55Z</time>
      </trkpt>
      <trkpt lat="42.9874050" lon="-5.9268640">
        <ele>1601.0</ele>
        <time>2021-10-10T16:23:56Z</time>
      </trkpt>
      <trkpt lat="42.9874210" lon="-5.9269750">
        <ele>1600.8</ele>
        <time>2021-10-10T16:23:59Z</time>
      </trkpt>
      <trkpt lat="42.9874110" lon="-5.9270060">
        <ele>1600.8</ele>
        <time>2021-10-10T16:24:00Z</time>
      </trkpt>
      <trkpt lat="42.9873550" lon="-5.9270790">
        <ele>1600.2</ele>
        <time>2021-10-10T16:24:03Z</time>
      </trkpt>
      <trkpt lat="42.9872890" lon="-5.9271030">
        <ele>1599.8</ele>
        <time>2021-10-10T16:24:05Z</time>
      </trkpt>
      <trkpt lat="42.9871440" lon="-5.9271070">
        <ele>1599.2</ele>
        <time>2021-10-10T16:24:09Z</time>
      </trkpt>
      <trkpt lat="42.9870690" lon="-5.9271010">
        <ele>1598.4</ele>
        <time>2021-10-10T16:24:11Z</time>
      </trkpt>
      <trkpt lat="42.9869940" lon="-5.9270930">
        <ele>1597.6</ele>
        <time>2021-10-10T16:24:13Z</time>
      </trkpt>
      <trkpt lat="42.9869120" lon="-5.9270790">
        <ele>1596.0</ele>
        <time>2021-10-10T16:24:15Z</time>
      </trkpt>
      <trkpt lat="42.9867830" lon="-5.9270540">
        <ele>1595.0</ele>
        <time>2021-10-10T16:24:18Z</time>
      </trkpt>
      <trkpt lat="42.9867310" lon="-5.9270440">
        <ele>1594.0</ele>
        <time>2021-10-10T16:24:19Z</time>
      </trkpt>
      <trkpt lat="42.9866910" lon="-5.9270400">
        <ele>1593.0</ele>
        <time>2021-10-10T16:24:20Z</time>
      </trkpt>
      <trkpt lat="42.9866220" lon="-5.9270380">
        <ele>1591.4</ele>
        <time>2021-10-10T16:24:22Z</time>
      </trkpt>
      <trkpt lat="42.9865400" lon="-5.9270800">
        <ele>1589.8</ele>
        <time>2021-10-10T16:24:24Z</time>
      </trkpt>
      <trkpt lat="42.9864800" lon="-5.9271690">
        <ele>1589.0</ele>
        <time>2021-10-10T16:24:26Z</time>
      </trkpt>
      <trkpt lat="42.9864630" lon="-5.9272140">
        <ele>1588.8</ele>
        <time>2021-10-10T16:24:27Z</time>
      </trkpt>
      <trkpt lat="42.9864450" lon="-5.9272750">
        <ele>1588.0</ele>
        <time>2021-10-10T16:24:28Z</time>
      </trkpt>
      <trkpt lat="42.9864220" lon="-5.9273520">
        <ele>1587.4</ele>
        <time>2021-10-10T16:24:29Z</time>
      </trkpt>
      <trkpt lat="42.9863840" lon="-5.9274700">
        <ele>1586.0</ele>
        <time>2021-10-10T16:24:31Z</time>
      </trkpt>
      <trkpt lat="42.9863460" lon="-5.9276090">
        <ele>1585.4</ele>
        <time>2021-10-10T16:24:34Z</time>
      </trkpt>
      <trkpt lat="42.9863160" lon="-5.9277010">
        <ele>1585.0</ele>
        <time>2021-10-10T16:24:38Z</time>
      </trkpt>
      <trkpt lat="42.9862810" lon="-5.9278100">
        <ele>1585.4</ele>
        <time>2021-10-10T16:24:44Z</time>
      </trkpt>
      <trkpt lat="42.9862730" lon="-5.9278300">
        <ele>1585.4</ele>
        <time>2021-10-10T16:24:45Z</time>
      </trkpt>
      <trkpt lat="42.9862200" lon="-5.9278920">
        <ele>1585.8</ele>
        <time>2021-10-10T16:24:50Z</time>
      </trkpt>
      <trkpt lat="42.9861560" lon="-5.9279450">
        <ele>1586.4</ele>
        <time>2021-10-10T16:24:56Z</time>
      </trkpt>
      <trkpt lat="42.9860530" lon="-5.9279730">
        <ele>1586.8</ele>
        <time>2021-10-10T16:25:04Z</time>
      </trkpt>
      <trkpt lat="42.9860270" lon="-5.9279590">
        <ele>1586.6</ele>
        <time>2021-10-10T16:25:30Z</time>
      </trkpt>
      <trkpt lat="42.9860000" lon="-5.9279460">
        <ele>1586.6</ele>
        <time>2021-10-10T16:25:31Z</time>
      </trkpt>
      <trkpt lat="42.9859690" lon="-5.9279370">
        <ele>1586.4</ele>
        <time>2021-10-10T16:25:32Z</time>
      </trkpt>
      <trkpt lat="42.9857850" lon="-5.9279140">
        <ele>1586.6</ele>
        <time>2021-10-10T16:25:37Z</time>
      </trkpt>
      <trkpt lat="42.9855910" lon="-5.9278940">
        <ele>1586.0</ele>
        <time>2021-10-10T16:25:42Z</time>
      </trkpt>
      <trkpt lat="42.9853960" lon="-5.9279320">
        <ele>1585.0</ele>
        <time>2021-10-10T16:25:48Z</time>
      </trkpt>
      <trkpt lat="42.9851780" lon="-5.9279560">
        <ele>1584.6</ele>
        <time>2021-10-10T16:25:55Z</time>
      </trkpt>
      <trkpt lat="42.9851480" lon="-5.9279510">
        <ele>1584.6</ele>
        <time>2021-10-10T16:25:56Z</time>
      </trkpt>
      <trkpt lat="42.9851170" lon="-5.9279470">
        <ele>1584.6</ele>
        <time>2021-10-10T16:25:57Z</time>
      </trkpt>
      <trkpt lat="42.9849980" lon="-5.9279350">
        <ele>1584.6</ele>
        <time>2021-10-10T16:26:01Z</time>
      </trkpt>
      <trkpt lat="42.9848250" lon="-5.9278250">
        <ele>1584.0</ele>
        <time>2021-10-10T16:26:06Z</time>
      </trkpt>
      <trkpt lat="42.9847850" lon="-5.9278070">
        <ele>1583.8</ele>
        <time>2021-10-10T16:26:07Z</time>
      </trkpt>
      <trkpt lat="42.9847240" lon="-5.9277970">
        <ele>1583.6</ele>
        <time>2021-10-10T16:26:09Z</time>
      </trkpt>
      <trkpt lat="42.9846530" lon="-5.9277960">
        <ele>1582.6</ele>
        <time>2021-10-10T16:26:12Z</time>
      </trkpt>
      <trkpt lat="42.9846220" lon="-5.9278280">
        <ele>1582.0</ele>
        <time>2021-10-10T16:26:14Z</time>
      </trkpt>
      <trkpt lat="42.9846040" lon="-5.9278520">
        <ele>1581.6</ele>
        <time>2021-10-10T16:26:16Z</time>
      </trkpt>
      <trkpt lat="42.9845990" lon="-5.9278590">
        <ele>1581.4</ele>
        <time>2021-10-10T16:26:17Z</time>
      </trkpt>
      <trkpt lat="42.9845980" lon="-5.9278640">
        <ele>1581.2</ele>
        <time>2021-10-10T16:26:18Z</time>
      </trkpt>
      <trkpt lat="42.9845980" lon="-5.9278660">
        <ele>1581.0</ele>
        <time>2021-10-10T16:26:20Z</time>
      </trkpt>
      <trkpt lat="42.9844920" lon="-5.9280630">
        <ele>1582.0</ele>
        <time>2021-10-10T16:29:01Z</time>
      </trkpt>
      <trkpt lat="42.9844850" lon="-5.9280960">
        <ele>1582.0</ele>
        <time>2021-10-10T16:29:02Z</time>
      </trkpt>
      <trkpt lat="42.9844250" lon="-5.9283160">
        <ele>1581.4</ele>
        <time>2021-10-10T16:29:08Z</time>
      </trkpt>
      <trkpt lat="42.9843550" lon="-5.9285780">
        <ele>1580.8</ele>
        <time>2021-10-10T16:29:13Z</time>
      </trkpt>
      <trkpt lat="42.9843200" lon="-5.9286800">
        <ele>1579.6</ele>
        <time>2021-10-10T16:29:15Z</time>
      </trkpt>
      <trkpt lat="42.9842800" lon="-5.9288560">
        <ele>1578.8</ele>
        <time>2021-10-10T16:29:18Z</time>
      </trkpt>
      <trkpt lat="42.9842690" lon="-5.9289110">
        <ele>1578.6</ele>
        <time>2021-10-10T16:29:19Z</time>
      </trkpt>
      <trkpt lat="42.9842600" lon="-5.9289670">
        <ele>1578.6</ele>
        <time>2021-10-10T16:29:20Z</time>
      </trkpt>
      <trkpt lat="42.9842470" lon="-5.9290230">
        <ele>1578.4</ele>
        <time>2021-10-10T16:29:21Z</time>
      </trkpt>
      <trkpt lat="42.9842120" lon="-5.9291240">
        <ele>1578.4</ele>
        <time>2021-10-10T16:29:23Z</time>
      </trkpt>
      <trkpt lat="42.9841820" lon="-5.9292270">
        <ele>1578.2</ele>
        <time>2021-10-10T16:29:25Z</time>
      </trkpt>
      <trkpt lat="42.9841130" lon="-5.9293830">
        <ele>1577.8</ele>
        <time>2021-10-10T16:29:28Z</time>
      </trkpt>
      <trkpt lat="42.9840860" lon="-5.9294230">
        <ele>1577.8</ele>
        <time>2021-10-10T16:29:29Z</time>
      </trkpt>
      <trkpt lat="42.9840570" lon="-5.9294550">
        <ele>1577.6</ele>
        <time>2021-10-10T16:29:30Z</time>
      </trkpt>
      <trkpt lat="42.9839470" lon="-5.9296160">
        <ele>1577.2</ele>
        <time>2021-10-10T16:29:34Z</time>
      </trkpt>
      <trkpt lat="42.9839010" lon="-5.9297010">
        <ele>1577.2</ele>
        <time>2021-10-10T16:29:36Z</time>
      </trkpt>
      <trkpt lat="42.9837610" lon="-5.9300370">
        <ele>1576.8</ele>
        <time>2021-10-10T16:29:43Z</time>
      </trkpt>
      <trkpt lat="42.9837330" lon="-5.9300910">
        <ele>1576.4</ele>
        <time>2021-10-10T16:29:44Z</time>
      </trkpt>
      <trkpt lat="42.9837050" lon="-5.9301420">
        <ele>1575.8</ele>
        <time>2021-10-10T16:29:45Z</time>
      </trkpt>
      <trkpt lat="42.9836390" lon="-5.9302430">
        <ele>1575.0</ele>
        <time>2021-10-10T16:29:47Z</time>
      </trkpt>
      <trkpt lat="42.9836110" lon="-5.9302880">
        <ele>1574.8</ele>
        <time>2021-10-10T16:29:48Z</time>
      </trkpt>
      <trkpt lat="42.9835690" lon="-5.9303590">
        <ele>1574.6</ele>
        <time>2021-10-10T16:29:49Z</time>
      </trkpt>
      <trkpt lat="42.9835190" lon="-5.9304850">
        <ele>1574.0</ele>
        <time>2021-10-10T16:29:51Z</time>
      </trkpt>
      <trkpt lat="42.9834990" lon="-5.9305400">
        <ele>1573.6</ele>
        <time>2021-10-10T16:29:52Z</time>
      </trkpt>
      <trkpt lat="42.9834790" lon="-5.9306270">
        <ele>1573.6</ele>
        <time>2021-10-10T16:29:53Z</time>
      </trkpt>
      <trkpt lat="42.9834540" lon="-5.9307840">
        <ele>1572.8</ele>
        <time>2021-10-10T16:29:55Z</time>
      </trkpt>
      <trkpt lat="42.9834090" lon="-5.9310080">
        <ele>1571.8</ele>
        <time>2021-10-10T16:29:58Z</time>
      </trkpt>
      <trkpt lat="42.9833500" lon="-5.9311370">
        <ele>1571.4</ele>
        <time>2021-10-10T16:30:00Z</time>
      </trkpt>
      <trkpt lat="42.9832490" lon="-5.9313140">
        <ele>1570.6</ele>
        <time>2021-10-10T16:30:03Z</time>
      </trkpt>
      <trkpt lat="42.9831470" lon="-5.9315530">
        <ele>1570.2</ele>
        <time>2021-10-10T16:30:07Z</time>
      </trkpt>
      <trkpt lat="42.9830200" lon="-5.9318400">
        <ele>1569.4</ele>
        <time>2021-10-10T16:30:12Z</time>
      </trkpt>
      <trkpt lat="42.9829690" lon="-5.9319580">
        <ele>1569.2</ele>
        <time>2021-10-10T16:30:14Z</time>
      </trkpt>
      <trkpt lat="42.9829080" lon="-5.9322140">
        <ele>1569.0</ele>
        <time>2021-10-10T16:30:18Z</time>
      </trkpt>
      <trkpt lat="42.9828980" lon="-5.9322840">
        <ele>1569.0</ele>
        <time>2021-10-10T16:30:19Z</time>
      </trkpt>
      <trkpt lat="42.9828890" lon="-5.9325520">
        <ele>1568.8</ele>
        <time>2021-10-10T16:30:23Z</time>
      </trkpt>
      <trkpt lat="42.9828550" lon="-5.9328870">
        <ele>1568.4</ele>
        <time>2021-10-10T16:30:28Z</time>
      </trkpt>
      <trkpt lat="42.9828510" lon="-5.9330850">
        <ele>1567.8</ele>
        <time>2021-10-10T16:30:31Z</time>
      </trkpt>
      <trkpt lat="42.9828460" lon="-5.9331660">
        <ele>1567.6</ele>
        <time>2021-10-10T16:30:32Z</time>
      </trkpt>
      <trkpt lat="42.9828410" lon="-5.9332310">
        <ele>1567.4</ele>
        <time>2021-10-10T16:30:33Z</time>
      </trkpt>
      <trkpt lat="42.9828410" lon="-5.9334110">
        <ele>1567.0</ele>
        <time>2021-10-10T16:30:36Z</time>
      </trkpt>
      <trkpt lat="42.9828700" lon="-5.9335100">
        <ele>1566.8</ele>
        <time>2021-10-10T16:30:39Z</time>
      </trkpt>
      <trkpt lat="42.9829290" lon="-5.9337290">
        <ele>1566.8</ele>
        <time>2021-10-10T16:30:45Z</time>
      </trkpt>
      <trkpt lat="42.9829820" lon="-5.9338450">
        <ele>1566.2</ele>
        <time>2021-10-10T16:30:48Z</time>
      </trkpt>
      <trkpt lat="42.9830070" lon="-5.9339090">
        <ele>1565.2</ele>
        <time>2021-10-10T16:30:50Z</time>
      </trkpt>
      <trkpt lat="42.9830130" lon="-5.9339760">
        <ele>1564.0</ele>
        <time>2021-10-10T16:30:52Z</time>
      </trkpt>
      <trkpt lat="42.9830140" lon="-5.9340090">
        <ele>1563.6</ele>
        <time>2021-10-10T16:30:53Z</time>
      </trkpt>
      <trkpt lat="42.9830100" lon="-5.9340750">
        <ele>1563.0</ele>
        <time>2021-10-10T16:30:55Z</time>
      </trkpt>
      <trkpt lat="42.9829920" lon="-5.9341680">
        <ele>1562.0</ele>
        <time>2021-10-10T16:30:58Z</time>
      </trkpt>
      <trkpt lat="42.9829850" lon="-5.9341860">
        <ele>1561.6</ele>
        <time>2021-10-10T16:30:59Z</time>
      </trkpt>
      <trkpt lat="42.9829590" lon="-5.9342440">
        <ele>1560.4</ele>
        <time>2021-10-10T16:31:02Z</time>
      </trkpt>
      <trkpt lat="42.9829460" lon="-5.9342770">
        <ele>1560.0</ele>
        <time>2021-10-10T16:31:04Z</time>
      </trkpt>
      <trkpt lat="42.9829450" lon="-5.9342820">
        <ele>1559.6</ele>
        <time>2021-10-10T16:31:07Z</time>
      </trkpt>
      <trkpt lat="42.9829000" lon="-5.9344130">
        <ele>1559.0</ele>
        <time>2021-10-10T16:31:49Z</time>
      </trkpt>
      <trkpt lat="42.9828990" lon="-5.9344490">
        <ele>1559.0</ele>
        <time>2021-10-10T16:31:50Z</time>
      </trkpt>
      <trkpt lat="42.9828970" lon="-5.9346470">
        <ele>1558.8</ele>
        <time>2021-10-10T16:31:55Z</time>
      </trkpt>
      <trkpt lat="42.9828870" lon="-5.9348750">
        <ele>1558.6</ele>
        <time>2021-10-10T16:32:00Z</time>
      </trkpt>
      <trkpt lat="42.9828960" lon="-5.9350060">
        <ele>1558.0</ele>
        <time>2021-10-10T16:32:03Z</time>
      </trkpt>
      <trkpt lat="42.9829080" lon="-5.9351990">
        <ele>1557.0</ele>
        <time>2021-10-10T16:32:07Z</time>
      </trkpt>
      <trkpt lat="42.9829110" lon="-5.9352400">
        <ele>1556.4</ele>
        <time>2021-10-10T16:32:08Z</time>
      </trkpt>
      <trkpt lat="42.9829190" lon="-5.9353110">
        <ele>1555.8</ele>
        <time>2021-10-10T16:32:10Z</time>
      </trkpt>
      <trkpt lat="42.9829330" lon="-5.9354010">
        <ele>1554.4</ele>
        <time>2021-10-10T16:32:12Z</time>
      </trkpt>
      <trkpt lat="42.9829540" lon="-5.9355120">
        <ele>1553.4</ele>
        <time>2021-10-10T16:32:15Z</time>
      </trkpt>
      <trkpt lat="42.9829650" lon="-5.9355820">
        <ele>1552.8</ele>
        <time>2021-10-10T16:32:17Z</time>
      </trkpt>
      <trkpt lat="42.9829730" lon="-5.9356600">
        <ele>1551.8</ele>
        <time>2021-10-10T16:32:19Z</time>
      </trkpt>
      <trkpt lat="42.9829820" lon="-5.9357990">
        <ele>1550.8</ele>
        <time>2021-10-10T16:32:22Z</time>
      </trkpt>
      <trkpt lat="42.9829940" lon="-5.9359110">
        <ele>1549.8</ele>
        <time>2021-10-10T16:32:24Z</time>
      </trkpt>
      <trkpt lat="42.9830000" lon="-5.9359660">
        <ele>1548.8</ele>
        <time>2021-10-10T16:32:25Z</time>
      </trkpt>
      <trkpt lat="42.9830080" lon="-5.9360720">
        <ele>1548.0</ele>
        <time>2021-10-10T16:32:27Z</time>
      </trkpt>
      <trkpt lat="42.9830090" lon="-5.9361220">
        <ele>1547.2</ele>
        <time>2021-10-10T16:32:28Z</time>
      </trkpt>
      <trkpt lat="42.9830110" lon="-5.9362230">
        <ele>1546.2</ele>
        <time>2021-10-10T16:32:30Z</time>
      </trkpt>
      <trkpt lat="42.9830110" lon="-5.9363280">
        <ele>1544.6</ele>
        <time>2021-10-10T16:32:32Z</time>
      </trkpt>
      <trkpt lat="42.9830090" lon="-5.9365200">
        <ele>1543.2</ele>
        <time>2021-10-10T16:32:36Z</time>
      </trkpt>
      <trkpt lat="42.9829900" lon="-5.9366620">
        <ele>1541.8</ele>
        <time>2021-10-10T16:32:39Z</time>
      </trkpt>
      <trkpt lat="42.9829860" lon="-5.9367650">
        <ele>1540.6</ele>
        <time>2021-10-10T16:32:41Z</time>
      </trkpt>
      <trkpt lat="42.9829940" lon="-5.9368680">
        <ele>1539.2</ele>
        <time>2021-10-10T16:32:43Z</time>
      </trkpt>
      <trkpt lat="42.9830390" lon="-5.9370230">
        <ele>1538.0</ele>
        <time>2021-10-10T16:32:46Z</time>
      </trkpt>
      <trkpt lat="42.9830620" lon="-5.9371260">
        <ele>1536.8</ele>
        <time>2021-10-10T16:32:48Z</time>
      </trkpt>
      <trkpt lat="42.9830690" lon="-5.9371780">
        <ele>1535.8</ele>
        <time>2021-10-10T16:32:49Z</time>
      </trkpt>
      <trkpt lat="42.9830780" lon="-5.9372300">
        <ele>1535.0</ele>
        <time>2021-10-10T16:32:50Z</time>
      </trkpt>
      <trkpt lat="42.9830920" lon="-5.9373400">
        <ele>1534.2</ele>
        <time>2021-10-10T16:32:52Z</time>
      </trkpt>
      <trkpt lat="42.9831010" lon="-5.9374450">
        <ele>1533.6</ele>
        <time>2021-10-10T16:32:54Z</time>
      </trkpt>
      <trkpt lat="42.9831070" lon="-5.9375420">
        <ele>1532.8</ele>
        <time>2021-10-10T16:32:56Z</time>
      </trkpt>
      <trkpt lat="42.9831050" lon="-5.9375950">
        <ele>1532.6</ele>
        <time>2021-10-10T16:32:57Z</time>
      </trkpt>
      <trkpt lat="42.9831090" lon="-5.9377000">
        <ele>1531.6</ele>
        <time>2021-10-10T16:32:59Z</time>
      </trkpt>
      <trkpt lat="42.9831180" lon="-5.9378000">
        <ele>1530.4</ele>
        <time>2021-10-10T16:33:01Z</time>
      </trkpt>
      <trkpt lat="42.9831300" lon="-5.9379020">
        <ele>1529.6</ele>
        <time>2021-10-10T16:33:03Z</time>
      </trkpt>
      <trkpt lat="42.9831390" lon="-5.9380050">
        <ele>1528.0</ele>
        <time>2021-10-10T16:33:05Z</time>
      </trkpt>
      <trkpt lat="42.9831450" lon="-5.9380600">
        <ele>1527.8</ele>
        <time>2021-10-10T16:33:06Z</time>
      </trkpt>
      <trkpt lat="42.9831550" lon="-5.9381180">
        <ele>1526.6</ele>
        <time>2021-10-10T16:33:07Z</time>
      </trkpt>
      <trkpt lat="42.9831730" lon="-5.9382330">
        <ele>1525.8</ele>
        <time>2021-10-10T16:33:09Z</time>
      </trkpt>
      <trkpt lat="42.9831920" lon="-5.9383450">
        <ele>1523.8</ele>
        <time>2021-10-10T16:33:11Z</time>
      </trkpt>
      <trkpt lat="42.9832060" lon="-5.9384020">
        <ele>1522.8</ele>
        <time>2021-10-10T16:33:12Z</time>
      </trkpt>
      <trkpt lat="42.9832150" lon="-5.9384620">
        <ele>1522.0</ele>
        <time>2021-10-10T16:33:13Z</time>
      </trkpt>
      <trkpt lat="42.9832220" lon="-5.9385220">
        <ele>1521.0</ele>
        <time>2021-10-10T16:33:14Z</time>
      </trkpt>
      <trkpt lat="42.9832300" lon="-5.9386400">
        <ele>1519.8</ele>
        <time>2021-10-10T16:33:16Z</time>
      </trkpt>
      <trkpt lat="42.9832360" lon="-5.9387570">
        <ele>1517.8</ele>
        <time>2021-10-10T16:33:18Z</time>
      </trkpt>
      <trkpt lat="42.9832440" lon="-5.9388730">
        <ele>1516.8</ele>
        <time>2021-10-10T16:33:20Z</time>
      </trkpt>
      <trkpt lat="42.9832550" lon="-5.9389290">
        <ele>1516.4</ele>
        <time>2021-10-10T16:33:21Z</time>
      </trkpt>
      <trkpt lat="42.9832850" lon="-5.9390400">
        <ele>1515.4</ele>
        <time>2021-10-10T16:33:23Z</time>
      </trkpt>
      <trkpt lat="42.9833120" lon="-5.9391500">
        <ele>1514.2</ele>
        <time>2021-10-10T16:33:25Z</time>
      </trkpt>
      <trkpt lat="42.9833290" lon="-5.9392430">
        <ele>1513.2</ele>
        <time>2021-10-10T16:33:27Z</time>
      </trkpt>
      <trkpt lat="42.9833380" lon="-5.9393040">
        <ele>1512.8</ele>
        <time>2021-10-10T16:33:28Z</time>
      </trkpt>
      <trkpt lat="42.9833390" lon="-5.9393610">
        <ele>1511.8</ele>
        <time>2021-10-10T16:33:29Z</time>
      </trkpt>
      <trkpt lat="42.9833460" lon="-5.9394700">
        <ele>1510.8</ele>
        <time>2021-10-10T16:33:31Z</time>
      </trkpt>
      <trkpt lat="42.9833530" lon="-5.9395100">
        <ele>1510.6</ele>
        <time>2021-10-10T16:33:32Z</time>
      </trkpt>
      <trkpt lat="42.9833680" lon="-5.9396280">
        <ele>1509.2</ele>
        <time>2021-10-10T16:33:34Z</time>
      </trkpt>
      <trkpt lat="42.9833790" lon="-5.9398490">
        <ele>1507.4</ele>
        <time>2021-10-10T16:33:38Z</time>
      </trkpt>
      <trkpt lat="42.9833900" lon="-5.9399810">
        <ele>1506.2</ele>
        <time>2021-10-10T16:33:41Z</time>
      </trkpt>
      <trkpt lat="42.9834100" lon="-5.9400930">
        <ele>1504.8</ele>
        <time>2021-10-10T16:33:44Z</time>
      </trkpt>
      <trkpt lat="42.9834510" lon="-5.9401980">
        <ele>1503.8</ele>
        <time>2021-10-10T16:33:47Z</time>
      </trkpt>
      <trkpt lat="42.9834680" lon="-5.9402590">
        <ele>1502.8</ele>
        <time>2021-10-10T16:33:49Z</time>
      </trkpt>
      <trkpt lat="42.9834660" lon="-5.9402850">
        <ele>1502.4</ele>
        <time>2021-10-10T16:33:50Z</time>
      </trkpt>
      <trkpt lat="42.9834620" lon="-5.9403110">
        <ele>1501.6</ele>
        <time>2021-10-10T16:33:51Z</time>
      </trkpt>
      <trkpt lat="42.9834590" lon="-5.9403390">
        <ele>1501.2</ele>
        <time>2021-10-10T16:33:52Z</time>
      </trkpt>
      <trkpt lat="42.9834570" lon="-5.9404270">
        <ele>1499.8</ele>
        <time>2021-10-10T16:33:55Z</time>
      </trkpt>
      <trkpt lat="42.9834700" lon="-5.9404750">
        <ele>1498.8</ele>
        <time>2021-10-10T16:33:57Z</time>
      </trkpt>
      <trkpt lat="42.9835070" lon="-5.9405360">
        <ele>1497.6</ele>
        <time>2021-10-10T16:34:00Z</time>
      </trkpt>
      <trkpt lat="42.9835380" lon="-5.9406040">
        <ele>1497.2</ele>
        <time>2021-10-10T16:34:04Z</time>
      </trkpt>
      <trkpt lat="42.9835550" lon="-5.9406780">
        <ele>1497.2</ele>
        <time>2021-10-10T16:34:08Z</time>
      </trkpt>
      <trkpt lat="42.9835540" lon="-5.9407020">
        <ele>1497.2</ele>
        <time>2021-10-10T16:34:09Z</time>
      </trkpt>
      <trkpt lat="42.9835530" lon="-5.9408410">
        <ele>1497.4</ele>
        <time>2021-10-10T16:34:13Z</time>
      </trkpt>
      <trkpt lat="42.9835570" lon="-5.9408790">
        <ele>1497.6</ele>
        <time>2021-10-10T16:34:14Z</time>
      </trkpt>
      <trkpt lat="42.9835720" lon="-5.9410850">
        <ele>1497.2</ele>
        <time>2021-10-10T16:34:19Z</time>
      </trkpt>
      <trkpt lat="42.9835730" lon="-5.9411290">
        <ele>1496.8</ele>
        <time>2021-10-10T16:34:20Z</time>
      </trkpt>
      <trkpt lat="42.9835680" lon="-5.9411760">
        <ele>1496.8</ele>
        <time>2021-10-10T16:34:21Z</time>
      </trkpt>
      <trkpt lat="42.9835610" lon="-5.9412260">
        <ele>1496.6</ele>
        <time>2021-10-10T16:34:22Z</time>
      </trkpt>
      <trkpt lat="42.9835260" lon="-5.9414070">
        <ele>1495.8</ele>
        <time>2021-10-10T16:34:25Z</time>
      </trkpt>
      <trkpt lat="42.9835090" lon="-5.9414730">
        <ele>1495.4</ele>
        <time>2021-10-10T16:34:26Z</time>
      </trkpt>
      <trkpt lat="42.9834290" lon="-5.9417990">
        <ele>1494.4</ele>
        <time>2021-10-10T16:34:31Z</time>
      </trkpt>
      <trkpt lat="42.9834080" lon="-5.9418600">
        <ele>1494.2</ele>
        <time>2021-10-10T16:34:32Z</time>
      </trkpt>
      <trkpt lat="42.9833490" lon="-5.9420260">
        <ele>1493.8</ele>
        <time>2021-10-10T16:34:35Z</time>
      </trkpt>
      <trkpt lat="42.9833210" lon="-5.9422030">
        <ele>1493.4</ele>
        <time>2021-10-10T16:34:38Z</time>
      </trkpt>
      <trkpt lat="42.9833110" lon="-5.9422670">
        <ele>1493.0</ele>
        <time>2021-10-10T16:34:39Z</time>
      </trkpt>
      <trkpt lat="42.9832830" lon="-5.9424060">
        <ele>1492.6</ele>
        <time>2021-10-10T16:34:41Z</time>
      </trkpt>
      <trkpt lat="42.9832300" lon="-5.9426210">
        <ele>1492.0</ele>
        <time>2021-10-10T16:34:44Z</time>
      </trkpt>
      <trkpt lat="42.9832150" lon="-5.9426950">
        <ele>1492.0</ele>
        <time>2021-10-10T16:34:45Z</time>
      </trkpt>
      <trkpt lat="42.9831460" lon="-5.9429140">
        <ele>1490.4</ele>
        <time>2021-10-10T16:34:48Z</time>
      </trkpt>
      <trkpt lat="42.9831200" lon="-5.9429940">
        <ele>1490.2</ele>
        <time>2021-10-10T16:34:49Z</time>
      </trkpt>
      <trkpt lat="42.9830210" lon="-5.9432240">
        <ele>1489.4</ele>
        <time>2021-10-10T16:34:52Z</time>
      </trkpt>
      <trkpt lat="42.9829270" lon="-5.9434110">
        <ele>1488.2</ele>
        <time>2021-10-10T16:34:55Z</time>
      </trkpt>
      <trkpt lat="42.9828510" lon="-5.9435750">
        <ele>1488.0</ele>
        <time>2021-10-10T16:34:58Z</time>
      </trkpt>
      <trkpt lat="42.9828120" lon="-5.9436820">
        <ele>1487.8</ele>
        <time>2021-10-10T16:35:00Z</time>
      </trkpt>
      <trkpt lat="42.9827980" lon="-5.9437320">
        <ele>1487.6</ele>
        <time>2021-10-10T16:35:01Z</time>
      </trkpt>
      <trkpt lat="42.9827980" lon="-5.9438670">
        <ele>1487.4</ele>
        <time>2021-10-10T16:35:04Z</time>
      </trkpt>
      <trkpt lat="42.9827950" lon="-5.9439170">
        <ele>1487.2</ele>
        <time>2021-10-10T16:35:05Z</time>
      </trkpt>
      <trkpt lat="42.9828270" lon="-5.9441330">
        <ele>1486.8</ele>
        <time>2021-10-10T16:35:10Z</time>
      </trkpt>
      <trkpt lat="42.9828500" lon="-5.9442230">
        <ele>1486.2</ele>
        <time>2021-10-10T16:35:12Z</time>
      </trkpt>
      <trkpt lat="42.9828820" lon="-5.9443820">
        <ele>1484.8</ele>
        <time>2021-10-10T16:35:15Z</time>
      </trkpt>
      <trkpt lat="42.9829030" lon="-5.9445180">
        <ele>1483.8</ele>
        <time>2021-10-10T16:35:17Z</time>
      </trkpt>
      <trkpt lat="42.9829190" lon="-5.9445880">
        <ele>1483.4</ele>
        <time>2021-10-10T16:35:18Z</time>
      </trkpt>
      <trkpt lat="42.9829410" lon="-5.9446760">
        <ele>1482.6</ele>
        <time>2021-10-10T16:35:19Z</time>
      </trkpt>
      <trkpt lat="42.9829780" lon="-5.9448240">
        <ele>1480.8</ele>
        <time>2021-10-10T16:35:21Z</time>
      </trkpt>
      <trkpt lat="42.9829840" lon="-5.9449010">
        <ele>1480.0</ele>
        <time>2021-10-10T16:35:22Z</time>
      </trkpt>
      <trkpt lat="42.9829840" lon="-5.9449690">
        <ele>1479.6</ele>
        <time>2021-10-10T16:35:23Z</time>
      </trkpt>
      <trkpt lat="42.9829820" lon="-5.9450960">
        <ele>1478.4</ele>
        <time>2021-10-10T16:35:25Z</time>
      </trkpt>
      <trkpt lat="42.9829750" lon="-5.9452250">
        <ele>1477.4</ele>
        <time>2021-10-10T16:35:27Z</time>
      </trkpt>
      <trkpt lat="42.9829640" lon="-5.9452890">
        <ele>1477.0</ele>
        <time>2021-10-10T16:35:28Z</time>
      </trkpt>
      <trkpt lat="42.9828690" lon="-5.9455230">
        <ele>1476.2</ele>
        <time>2021-10-10T16:35:32Z</time>
      </trkpt>
      <trkpt lat="42.9828390" lon="-5.9455770">
        <ele>1475.8</ele>
        <time>2021-10-10T16:35:33Z</time>
      </trkpt>
      <trkpt lat="42.9827860" lon="-5.9456680">
        <ele>1474.8</ele>
        <time>2021-10-10T16:35:35Z</time>
      </trkpt>
      <trkpt lat="42.9827670" lon="-5.9457060">
        <ele>1474.6</ele>
        <time>2021-10-10T16:35:36Z</time>
      </trkpt>
      <trkpt lat="42.9827260" lon="-5.9458090">
        <ele>1474.2</ele>
        <time>2021-10-10T16:35:38Z</time>
      </trkpt>
      <trkpt lat="42.9827110" lon="-5.9458590">
        <ele>1473.8</ele>
        <time>2021-10-10T16:35:39Z</time>
      </trkpt>
      <trkpt lat="42.9826900" lon="-5.9459100">
        <ele>1473.4</ele>
        <time>2021-10-10T16:35:40Z</time>
      </trkpt>
      <trkpt lat="42.9826290" lon="-5.9459930">
        <ele>1472.4</ele>
        <time>2021-10-10T16:35:42Z</time>
      </trkpt>
      <trkpt lat="42.9825740" lon="-5.9460260">
        <ele>1471.6</ele>
        <time>2021-10-10T16:35:43Z</time>
      </trkpt>
      <trkpt lat="42.9825000" lon="-5.9460570">
        <ele>1470.4</ele>
        <time>2021-10-10T16:35:45Z</time>
      </trkpt>
      <trkpt lat="42.9824710" lon="-5.9460860">
        <ele>1469.0</ele>
        <time>2021-10-10T16:35:46Z</time>
      </trkpt>
      <trkpt lat="42.9824530" lon="-5.9461220">
        <ele>1468.6</ele>
        <time>2021-10-10T16:35:47Z</time>
      </trkpt>
      <trkpt lat="42.9824430" lon="-5.9461570">
        <ele>1468.0</ele>
        <time>2021-10-10T16:35:48Z</time>
      </trkpt>
      <trkpt lat="42.9824280" lon="-5.9463200">
        <ele>1466.6</ele>
        <time>2021-10-10T16:35:52Z</time>
      </trkpt>
      <trkpt lat="42.9824010" lon="-5.9464620">
        <ele>1465.2</ele>
        <time>2021-10-10T16:35:55Z</time>
      </trkpt>
      <trkpt lat="42.9823850" lon="-5.9465660">
        <ele>1464.4</ele>
        <time>2021-10-10T16:35:57Z</time>
      </trkpt>
      <trkpt lat="42.9823790" lon="-5.9466440">
        <ele>1464.2</ele>
        <time>2021-10-10T16:35:58Z</time>
      </trkpt>
      <trkpt lat="42.9823730" lon="-5.9468350">
        <ele>1463.2</ele>
        <time>2021-10-10T16:36:01Z</time>
      </trkpt>
      <trkpt lat="42.9823820" lon="-5.9469980">
        <ele>1461.6</ele>
        <time>2021-10-10T16:36:03Z</time>
      </trkpt>
      <trkpt lat="42.9823930" lon="-5.9471220">
        <ele>1460.6</ele>
        <time>2021-10-10T16:36:05Z</time>
      </trkpt>
      <trkpt lat="42.9824060" lon="-5.9472510">
        <ele>1459.4</ele>
        <time>2021-10-10T16:36:07Z</time>
      </trkpt>
      <trkpt lat="42.9824130" lon="-5.9474370">
        <ele>1458.2</ele>
        <time>2021-10-10T16:36:10Z</time>
      </trkpt>
      <trkpt lat="42.9823870" lon="-5.9476320">
        <ele>1457.2</ele>
        <time>2021-10-10T16:36:14Z</time>
      </trkpt>
      <trkpt lat="42.9823820" lon="-5.9476700">
        <ele>1456.8</ele>
        <time>2021-10-10T16:36:15Z</time>
      </trkpt>
      <trkpt lat="42.9823720" lon="-5.9477160">
        <ele>1456.0</ele>
        <time>2021-10-10T16:36:16Z</time>
      </trkpt>
      <trkpt lat="42.9823530" lon="-5.9478720">
        <ele>1455.0</ele>
        <time>2021-10-10T16:36:19Z</time>
      </trkpt>
      <trkpt lat="42.9823490" lon="-5.9479710">
        <ele>1453.8</ele>
        <time>2021-10-10T16:36:21Z</time>
      </trkpt>
      <trkpt lat="42.9823470" lon="-5.9480290">
        <ele>1453.6</ele>
        <time>2021-10-10T16:36:22Z</time>
      </trkpt>
      <trkpt lat="42.9823460" lon="-5.9481020">
        <ele>1452.8</ele>
        <time>2021-10-10T16:36:23Z</time>
      </trkpt>
      <trkpt lat="42.9823520" lon="-5.9482070">
        <ele>1451.6</ele>
        <time>2021-10-10T16:36:25Z</time>
      </trkpt>
      <trkpt lat="42.9823680" lon="-5.9483150">
        <ele>1450.4</ele>
        <time>2021-10-10T16:36:27Z</time>
      </trkpt>
      <trkpt lat="42.9823900" lon="-5.9484280">
        <ele>1448.6</ele>
        <time>2021-10-10T16:36:29Z</time>
      </trkpt>
      <trkpt lat="42.9823990" lon="-5.9485600">
        <ele>1447.6</ele>
        <time>2021-10-10T16:36:31Z</time>
      </trkpt>
      <trkpt lat="42.9824020" lon="-5.9486220">
        <ele>1446.6</ele>
        <time>2021-10-10T16:36:32Z</time>
      </trkpt>
      <trkpt lat="42.9824080" lon="-5.9486850">
        <ele>1446.0</ele>
        <time>2021-10-10T16:36:33Z</time>
      </trkpt>
      <trkpt lat="42.9824120" lon="-5.9487500">
        <ele>1444.6</ele>
        <time>2021-10-10T16:36:34Z</time>
      </trkpt>
      <trkpt lat="42.9824150" lon="-5.9488750">
        <ele>1442.8</ele>
        <time>2021-10-10T16:36:36Z</time>
      </trkpt>
      <trkpt lat="42.9824140" lon="-5.9490040">
        <ele>1440.8</ele>
        <time>2021-10-10T16:36:38Z</time>
      </trkpt>
      <trkpt lat="42.9824190" lon="-5.9491400">
        <ele>1439.6</ele>
        <time>2021-10-10T16:36:40Z</time>
      </trkpt>
      <trkpt lat="42.9824220" lon="-5.9492120">
        <ele>1438.4</ele>
        <time>2021-10-10T16:36:41Z</time>
      </trkpt>
      <trkpt lat="42.9824350" lon="-5.9493560">
        <ele>1437.2</ele>
        <time>2021-10-10T16:36:43Z</time>
      </trkpt>
      <trkpt lat="42.9824460" lon="-5.9495060">
        <ele>1435.4</ele>
        <time>2021-10-10T16:36:45Z</time>
      </trkpt>
      <trkpt lat="42.9824570" lon="-5.9496710">
        <ele>1433.8</ele>
        <time>2021-10-10T16:36:47Z</time>
      </trkpt>
      <trkpt lat="42.9824780" lon="-5.9498250">
        <ele>1431.2</ele>
        <time>2021-10-10T16:36:49Z</time>
      </trkpt>
      <trkpt lat="42.9824840" lon="-5.9499050">
        <ele>1430.6</ele>
        <time>2021-10-10T16:36:50Z</time>
      </trkpt>
      <trkpt lat="42.9824830" lon="-5.9499900">
        <ele>1429.8</ele>
        <time>2021-10-10T16:36:51Z</time>
      </trkpt>
      <trkpt lat="42.9824790" lon="-5.9500770">
        <ele>1428.6</ele>
        <time>2021-10-10T16:36:52Z</time>
      </trkpt>
      <trkpt lat="42.9824800" lon="-5.9502660">
        <ele>1426.4</ele>
        <time>2021-10-10T16:36:54Z</time>
      </trkpt>
      <trkpt lat="42.9824800" lon="-5.9503600">
        <ele>1426.0</ele>
        <time>2021-10-10T16:36:55Z</time>
      </trkpt>
      <trkpt lat="42.9824780" lon="-5.9505500">
        <ele>1425.2</ele>
        <time>2021-10-10T16:36:57Z</time>
      </trkpt>
      <trkpt lat="42.9824770" lon="-5.9507450">
        <ele>1423.6</ele>
        <time>2021-10-10T16:36:59Z</time>
      </trkpt>
      <trkpt lat="42.9824830" lon="-5.9508420">
        <ele>1422.6</ele>
        <time>2021-10-10T16:37:00Z</time>
      </trkpt>
      <trkpt lat="42.9824920" lon="-5.9509300">
        <ele>1421.2</ele>
        <time>2021-10-10T16:37:01Z</time>
      </trkpt>
      <trkpt lat="42.9825000" lon="-5.9510060">
        <ele>1419.6</ele>
        <time>2021-10-10T16:37:02Z</time>
      </trkpt>
      <trkpt lat="42.9825130" lon="-5.9510720">
        <ele>1419.0</ele>
        <time>2021-10-10T16:37:03Z</time>
      </trkpt>
      <trkpt lat="42.9825640" lon="-5.9511740">
        <ele>1418.4</ele>
        <time>2021-10-10T16:37:05Z</time>
      </trkpt>
      <trkpt lat="42.9826870" lon="-5.9513870">
        <ele>1417.8</ele>
        <time>2021-10-10T16:37:10Z</time>
      </trkpt>
      <trkpt lat="42.9827160" lon="-5.9514310">
        <ele>1417.6</ele>
        <time>2021-10-10T16:37:11Z</time>
      </trkpt>
      <trkpt lat="42.9828280" lon="-5.9515470">
        <ele>1417.6</ele>
        <time>2021-10-10T16:37:14Z</time>
      </trkpt>
      <trkpt lat="42.9828770" lon="-5.9515790">
        <ele>1417.4</ele>
        <time>2021-10-10T16:37:15Z</time>
      </trkpt>
      <trkpt lat="42.9829290" lon="-5.9516020">
        <ele>1417.4</ele>
        <time>2021-10-10T16:37:16Z</time>
      </trkpt>
      <trkpt lat="42.9829840" lon="-5.9516120">
        <ele>1417.4</ele>
        <time>2021-10-10T16:37:17Z</time>
      </trkpt>
      <trkpt lat="42.9830910" lon="-5.9516030">
        <ele>1416.6</ele>
        <time>2021-10-10T16:37:19Z</time>
      </trkpt>
      <trkpt lat="42.9831410" lon="-5.9516020">
        <ele>1416.4</ele>
        <time>2021-10-10T16:37:20Z</time>
      </trkpt>
      <trkpt lat="42.9832290" lon="-5.9516020">
        <ele>1416.0</ele>
        <time>2021-10-10T16:37:22Z</time>
      </trkpt>
      <trkpt lat="42.9832970" lon="-5.9516260">
        <ele>1415.6</ele>
        <time>2021-10-10T16:37:24Z</time>
      </trkpt>
      <trkpt lat="42.9833330" lon="-5.9516560">
        <ele>1415.2</ele>
        <time>2021-10-10T16:37:25Z</time>
      </trkpt>
      <trkpt lat="42.9833620" lon="-5.9517000">
        <ele>1415.2</ele>
        <time>2021-10-10T16:37:26Z</time>
      </trkpt>
      <trkpt lat="42.9833890" lon="-5.9517570">
        <ele>1414.8</ele>
        <time>2021-10-10T16:37:27Z</time>
      </trkpt>
      <trkpt lat="42.9834110" lon="-5.9518200">
        <ele>1414.6</ele>
        <time>2021-10-10T16:37:28Z</time>
      </trkpt>
      <trkpt lat="42.9834260" lon="-5.9518880">
        <ele>1414.0</ele>
        <time>2021-10-10T16:37:29Z</time>
      </trkpt>
      <trkpt lat="42.9834420" lon="-5.9519580">
        <ele>1413.8</ele>
        <time>2021-10-10T16:37:30Z</time>
      </trkpt>
      <trkpt lat="42.9834680" lon="-5.9520260">
        <ele>1413.4</ele>
        <time>2021-10-10T16:37:31Z</time>
      </trkpt>
      <trkpt lat="42.9835030" lon="-5.9520920">
        <ele>1413.2</ele>
        <time>2021-10-10T16:37:32Z</time>
      </trkpt>
      <trkpt lat="42.9835380" lon="-5.9521520">
        <ele>1412.6</ele>
        <time>2021-10-10T16:37:33Z</time>
      </trkpt>
      <trkpt lat="42.9836230" lon="-5.9523290">
        <ele>1411.4</ele>
        <time>2021-10-10T16:37:36Z</time>
      </trkpt>
      <trkpt lat="42.9836820" lon="-5.9525980">
        <ele>1409.8</ele>
        <time>2021-10-10T16:37:40Z</time>
      </trkpt>
      <trkpt lat="42.9837180" lon="-5.9528060">
        <ele>1408.8</ele>
        <time>2021-10-10T16:37:43Z</time>
      </trkpt>
      <trkpt lat="42.9837300" lon="-5.9528900">
        <ele>1408.2</ele>
        <time>2021-10-10T16:37:44Z</time>
      </trkpt>
      <trkpt lat="42.9837340" lon="-5.9529480">
        <ele>1407.6</ele>
        <time>2021-10-10T16:37:45Z</time>
      </trkpt>
      <trkpt lat="42.9837370" lon="-5.9530230">
        <ele>1406.6</ele>
        <time>2021-10-10T16:37:46Z</time>
      </trkpt>
      <trkpt lat="42.9837470" lon="-5.9531880">
        <ele>1405.6</ele>
        <time>2021-10-10T16:37:48Z</time>
      </trkpt>
      <trkpt lat="42.9837540" lon="-5.9532730">
        <ele>1404.6</ele>
        <time>2021-10-10T16:37:49Z</time>
      </trkpt>
      <trkpt lat="42.9837600" lon="-5.9534380">
        <ele>1402.8</ele>
        <time>2021-10-10T16:37:51Z</time>
      </trkpt>
      <trkpt lat="42.9837740" lon="-5.9536150">
        <ele>1401.2</ele>
        <time>2021-10-10T16:37:53Z</time>
      </trkpt>
      <trkpt lat="42.9837850" lon="-5.9536970">
        <ele>1400.8</ele>
        <time>2021-10-10T16:37:54Z</time>
      </trkpt>
      <trkpt lat="42.9837920" lon="-5.9537610">
        <ele>1400.0</ele>
        <time>2021-10-10T16:37:55Z</time>
      </trkpt>
      <trkpt lat="42.9837970" lon="-5.9538420">
        <ele>1399.8</ele>
        <time>2021-10-10T16:37:56Z</time>
      </trkpt>
      <trkpt lat="42.9837980" lon="-5.9539180">
        <ele>1399.0</ele>
        <time>2021-10-10T16:37:57Z</time>
      </trkpt>
      <trkpt lat="42.9838100" lon="-5.9540560">
        <ele>1398.0</ele>
        <time>2021-10-10T16:37:59Z</time>
      </trkpt>
      <trkpt lat="42.9838270" lon="-5.9541180">
        <ele>1397.4</ele>
        <time>2021-10-10T16:38:00Z</time>
      </trkpt>
      <trkpt lat="42.9838530" lon="-5.9541760">
        <ele>1397.0</ele>
        <time>2021-10-10T16:38:01Z</time>
      </trkpt>
      <trkpt lat="42.9838850" lon="-5.9542340">
        <ele>1395.8</ele>
        <time>2021-10-10T16:38:02Z</time>
      </trkpt>
      <trkpt lat="42.9839180" lon="-5.9543000">
        <ele>1395.2</ele>
        <time>2021-10-10T16:38:03Z</time>
      </trkpt>
      <trkpt lat="42.9839600" lon="-5.9543860">
        <ele>1394.6</ele>
        <time>2021-10-10T16:38:04Z</time>
      </trkpt>
      <trkpt lat="42.9840150" lon="-5.9545210">
        <ele>1393.4</ele>
        <time>2021-10-10T16:38:06Z</time>
      </trkpt>
      <trkpt lat="42.9840860" lon="-5.9546830">
        <ele>1392.4</ele>
        <time>2021-10-10T16:38:08Z</time>
      </trkpt>
      <trkpt lat="42.9841580" lon="-5.9548390">
        <ele>1391.0</ele>
        <time>2021-10-10T16:38:10Z</time>
      </trkpt>
      <trkpt lat="42.9842350" lon="-5.9549810">
        <ele>1390.0</ele>
        <time>2021-10-10T16:38:12Z</time>
      </trkpt>
      <trkpt lat="42.9842720" lon="-5.9550590">
        <ele>1389.6</ele>
        <time>2021-10-10T16:38:13Z</time>
      </trkpt>
      <trkpt lat="42.9843020" lon="-5.9551410">
        <ele>1389.4</ele>
        <time>2021-10-10T16:38:14Z</time>
      </trkpt>
      <trkpt lat="42.9843230" lon="-5.9552250">
        <ele>1389.0</ele>
        <time>2021-10-10T16:38:15Z</time>
      </trkpt>
      <trkpt lat="42.9843940" lon="-5.9555480">
        <ele>1388.2</ele>
        <time>2021-10-10T16:38:19Z</time>
      </trkpt>
      <trkpt lat="42.9844610" lon="-5.9558320">
        <ele>1388.2</ele>
        <time>2021-10-10T16:38:23Z</time>
      </trkpt>
      <trkpt lat="42.9844670" lon="-5.9558980">
        <ele>1388.4</ele>
        <time>2021-10-10T16:38:24Z</time>
      </trkpt>
      <trkpt lat="42.9845080" lon="-5.9562100">
        <ele>1388.4</ele>
        <time>2021-10-10T16:38:29Z</time>
      </trkpt>
      <trkpt lat="42.9845190" lon="-5.9562690">
        <ele>1388.4</ele>
        <time>2021-10-10T16:38:30Z</time>
      </trkpt>
      <trkpt lat="42.9845780" lon="-5.9564380">
        <ele>1388.0</ele>
        <time>2021-10-10T16:38:33Z</time>
      </trkpt>
      <trkpt lat="42.9846760" lon="-5.9566990">
        <ele>1387.4</ele>
        <time>2021-10-10T16:38:37Z</time>
      </trkpt>
      <trkpt lat="42.9847320" lon="-5.9568530">
        <ele>1386.4</ele>
        <time>2021-10-10T16:38:39Z</time>
      </trkpt>
      <trkpt lat="42.9847810" lon="-5.9569840">
        <ele>1384.8</ele>
        <time>2021-10-10T16:38:41Z</time>
      </trkpt>
      <trkpt lat="42.9848340" lon="-5.9571430">
        <ele>1383.4</ele>
        <time>2021-10-10T16:38:43Z</time>
      </trkpt>
      <trkpt lat="42.9848670" lon="-5.9572600">
        <ele>1382.2</ele>
        <time>2021-10-10T16:38:45Z</time>
      </trkpt>
      <trkpt lat="42.9849070" lon="-5.9574660">
        <ele>1380.6</ele>
        <time>2021-10-10T16:38:48Z</time>
      </trkpt>
      <trkpt lat="42.9849160" lon="-5.9575430">
        <ele>1380.2</ele>
        <time>2021-10-10T16:38:49Z</time>
      </trkpt>
      <trkpt lat="42.9849230" lon="-5.9576280">
        <ele>1379.6</ele>
        <time>2021-10-10T16:38:50Z</time>
      </trkpt>
      <trkpt lat="42.9849290" lon="-5.9579000">
        <ele>1377.8</ele>
        <time>2021-10-10T16:38:53Z</time>
      </trkpt>
      <trkpt lat="42.9849370" lon="-5.9579860">
        <ele>1377.4</ele>
        <time>2021-10-10T16:38:54Z</time>
      </trkpt>
      <trkpt lat="42.9849480" lon="-5.9580640">
        <ele>1376.4</ele>
        <time>2021-10-10T16:38:55Z</time>
      </trkpt>
      <trkpt lat="42.9849810" lon="-5.9582290">
        <ele>1374.4</ele>
        <time>2021-10-10T16:38:57Z</time>
      </trkpt>
      <trkpt lat="42.9850160" lon="-5.9583900">
        <ele>1373.2</ele>
        <time>2021-10-10T16:38:59Z</time>
      </trkpt>
      <trkpt lat="42.9850320" lon="-5.9585540">
        <ele>1371.8</ele>
        <time>2021-10-10T16:39:01Z</time>
      </trkpt>
      <trkpt lat="42.9850300" lon="-5.9586510">
        <ele>1371.2</ele>
        <time>2021-10-10T16:39:02Z</time>
      </trkpt>
      <trkpt lat="42.9850220" lon="-5.9587150">
        <ele>1370.6</ele>
        <time>2021-10-10T16:39:03Z</time>
      </trkpt>
      <trkpt lat="42.9849980" lon="-5.9588120">
        <ele>1369.4</ele>
        <time>2021-10-10T16:39:04Z</time>
      </trkpt>
      <trkpt lat="42.9849510" lon="-5.9589610">
        <ele>1368.0</ele>
        <time>2021-10-10T16:39:06Z</time>
      </trkpt>
      <trkpt lat="42.9849060" lon="-5.9591340">
        <ele>1367.0</ele>
        <time>2021-10-10T16:39:08Z</time>
      </trkpt>
      <trkpt lat="42.9848720" lon="-5.9594280">
        <ele>1366.0</ele>
        <time>2021-10-10T16:39:11Z</time>
      </trkpt>
      <trkpt lat="42.9848910" lon="-5.9597610">
        <ele>1364.8</ele>
        <time>2021-10-10T16:39:14Z</time>
      </trkpt>
      <trkpt lat="42.9848930" lon="-5.9598350">
        <ele>1364.4</ele>
        <time>2021-10-10T16:39:15Z</time>
      </trkpt>
      <trkpt lat="42.9848950" lon="-5.9600080">
        <ele>1363.6</ele>
        <time>2021-10-10T16:39:17Z</time>
      </trkpt>
      <trkpt lat="42.9849060" lon="-5.9601630">
        <ele>1363.0</ele>
        <time>2021-10-10T16:39:19Z</time>
      </trkpt>
      <trkpt lat="42.9849210" lon="-5.9602300">
        <ele>1363.0</ele>
        <time>2021-10-10T16:39:20Z</time>
      </trkpt>
      <trkpt lat="42.9849440" lon="-5.9602920">
        <ele>1362.8</ele>
        <time>2021-10-10T16:39:21Z</time>
      </trkpt>
      <trkpt lat="42.9850210" lon="-5.9603830">
        <ele>1362.2</ele>
        <time>2021-10-10T16:39:23Z</time>
      </trkpt>
      <trkpt lat="42.9851150" lon="-5.9604420">
        <ele>1361.8</ele>
        <time>2021-10-10T16:39:25Z</time>
      </trkpt>
      <trkpt lat="42.9851860" lon="-5.9605250">
        <ele>1361.0</ele>
        <time>2021-10-10T16:39:27Z</time>
      </trkpt>
      <trkpt lat="42.9852250" lon="-5.9606510">
        <ele>1360.0</ele>
        <time>2021-10-10T16:39:29Z</time>
      </trkpt>
      <trkpt lat="42.9852430" lon="-5.9608130">
        <ele>1359.0</ele>
        <time>2021-10-10T16:39:31Z</time>
      </trkpt>
      <trkpt lat="42.9852570" lon="-5.9608990">
        <ele>1358.6</ele>
        <time>2021-10-10T16:39:32Z</time>
      </trkpt>
      <trkpt lat="42.9853230" lon="-5.9610590">
        <ele>1357.0</ele>
        <time>2021-10-10T16:39:34Z</time>
      </trkpt>
      <trkpt lat="42.9854340" lon="-5.9612670">
        <ele>1354.8</ele>
        <time>2021-10-10T16:39:37Z</time>
      </trkpt>
      <trkpt lat="42.9854600" lon="-5.9613300">
        <ele>1354.4</ele>
        <time>2021-10-10T16:39:38Z</time>
      </trkpt>
      <trkpt lat="42.9854820" lon="-5.9613890">
        <ele>1353.6</ele>
        <time>2021-10-10T16:39:39Z</time>
      </trkpt>
      <trkpt lat="42.9855390" lon="-5.9615740">
        <ele>1353.2</ele>
        <time>2021-10-10T16:39:43Z</time>
      </trkpt>
      <trkpt lat="42.9855660" lon="-5.9616690">
        <ele>1353.2</ele>
        <time>2021-10-10T16:39:47Z</time>
      </trkpt>
      <trkpt lat="42.9856130" lon="-5.9618340">
        <ele>1354.8</ele>
        <time>2021-10-10T16:39:54Z</time>
      </trkpt>
      <trkpt lat="42.9856470" lon="-5.9619150">
        <ele>1356.0</ele>
        <time>2021-10-10T16:39:58Z</time>
      </trkpt>
      <trkpt lat="42.9856730" lon="-5.9619460">
        <ele>1356.4</ele>
        <time>2021-10-10T16:40:00Z</time>
      </trkpt>
      <trkpt lat="42.9856870" lon="-5.9619620">
        <ele>1356.6</ele>
        <time>2021-10-10T16:40:01Z</time>
      </trkpt>
      <trkpt lat="42.9857040" lon="-5.9619770">
        <ele>1356.8</ele>
        <time>2021-10-10T16:40:02Z</time>
      </trkpt>
      <trkpt lat="42.9857310" lon="-5.9620020">
        <ele>1357.2</ele>
        <time>2021-10-10T16:40:04Z</time>
      </trkpt>
      <trkpt lat="42.9857990" lon="-5.9620640">
        <ele>1358.0</ele>
        <time>2021-10-10T16:40:10Z</time>
      </trkpt>
      <trkpt lat="42.9858270" lon="-5.9620930">
        <ele>1358.2</ele>
        <time>2021-10-10T16:40:12Z</time>
      </trkpt>
      <trkpt lat="42.9859170" lon="-5.9622100">
        <ele>1359.0</ele>
        <time>2021-10-10T16:40:19Z</time>
      </trkpt>
      <trkpt lat="42.9859500" lon="-5.9623860">
        <ele>1359.2</ele>
        <time>2021-10-10T16:40:25Z</time>
      </trkpt>
      <trkpt lat="42.9859540" lon="-5.9624120">
        <ele>1359.2</ele>
        <time>2021-10-10T16:40:26Z</time>
      </trkpt>
      <trkpt lat="42.9859800" lon="-5.9625490">
        <ele>1359.4</ele>
        <time>2021-10-10T16:40:31Z</time>
      </trkpt>
      <trkpt lat="42.9859920" lon="-5.9626350">
        <ele>1359.4</ele>
        <time>2021-10-10T16:40:34Z</time>
      </trkpt>
      <trkpt lat="42.9859940" lon="-5.9626660">
        <ele>1359.6</ele>
        <time>2021-10-10T16:40:35Z</time>
      </trkpt>
      <trkpt lat="42.9860380" lon="-5.9628820">
        <ele>1359.8</ele>
        <time>2021-10-10T16:40:41Z</time>
      </trkpt>
      <trkpt lat="42.9860660" lon="-5.9631210">
        <ele>1359.8</ele>
        <time>2021-10-10T16:40:47Z</time>
      </trkpt>
      <trkpt lat="42.9859720" lon="-5.9633040">
        <ele>1359.8</ele>
        <time>2021-10-10T16:40:52Z</time>
      </trkpt>
      <trkpt lat="42.9858120" lon="-5.9636310">
        <ele>1360.0</ele>
        <time>2021-10-10T16:40:59Z</time>
      </trkpt>
      <trkpt lat="42.9856910" lon="-5.9638940">
        <ele>1359.6</ele>
        <time>2021-10-10T16:41:04Z</time>
      </trkpt>
      <trkpt lat="42.9856670" lon="-5.9639390">
        <ele>1359.4</ele>
        <time>2021-10-10T16:41:05Z</time>
      </trkpt>
      <trkpt lat="42.9856440" lon="-5.9639860">
        <ele>1359.4</ele>
        <time>2021-10-10T16:41:06Z</time>
      </trkpt>
      <trkpt lat="42.9854980" lon="-5.9642620">
        <ele>1359.2</ele>
        <time>2021-10-10T16:41:12Z</time>
      </trkpt>
      <trkpt lat="42.9853090" lon="-5.9646420">
        <ele>1359.4</ele>
        <time>2021-10-10T16:41:20Z</time>
      </trkpt>
      <trkpt lat="42.9850340" lon="-5.9652150">
        <ele>1359.6</ele>
        <time>2021-10-10T16:41:31Z</time>
      </trkpt>
      <trkpt lat="42.9848510" lon="-5.9656040">
        <ele>1359.2</ele>
        <time>2021-10-10T16:41:38Z</time>
      </trkpt>
      <trkpt lat="42.9847840" lon="-5.9657660">
        <ele>1359.0</ele>
        <time>2021-10-10T16:41:41Z</time>
      </trkpt>
      <trkpt lat="42.9847700" lon="-5.9658200">
        <ele>1359.0</ele>
        <time>2021-10-10T16:41:42Z</time>
      </trkpt>
      <trkpt lat="42.9847280" lon="-5.9660510">
        <ele>1359.0</ele>
        <time>2021-10-10T16:41:46Z</time>
      </trkpt>
      <trkpt lat="42.9846880" lon="-5.9661590">
        <ele>1358.6</ele>
        <time>2021-10-10T16:41:48Z</time>
      </trkpt>
      <trkpt lat="42.9846620" lon="-5.9662360">
        <ele>1358.6</ele>
        <time>2021-10-10T16:41:49Z</time>
      </trkpt>
      <trkpt lat="42.9846290" lon="-5.9663610">
        <ele>1357.6</ele>
        <time>2021-10-10T16:41:51Z</time>
      </trkpt>
      <trkpt lat="42.9846100" lon="-5.9664350">
        <ele>1357.2</ele>
        <time>2021-10-10T16:41:52Z</time>
      </trkpt>
      <trkpt lat="42.9845680" lon="-5.9665740">
        <ele>1356.4</ele>
        <time>2021-10-10T16:41:54Z</time>
      </trkpt>
      <trkpt lat="42.9845520" lon="-5.9666420">
        <ele>1356.0</ele>
        <time>2021-10-10T16:41:55Z</time>
      </trkpt>
      <trkpt lat="42.9845270" lon="-5.9667640">
        <ele>1355.4</ele>
        <time>2021-10-10T16:41:57Z</time>
      </trkpt>
      <trkpt lat="42.9845020" lon="-5.9669520">
        <ele>1355.0</ele>
        <time>2021-10-10T16:42:00Z</time>
      </trkpt>
      <trkpt lat="42.9844820" lon="-5.9670740">
        <ele>1354.0</ele>
        <time>2021-10-10T16:42:02Z</time>
      </trkpt>
      <trkpt lat="42.9844680" lon="-5.9671320">
        <ele>1353.8</ele>
        <time>2021-10-10T16:42:03Z</time>
      </trkpt>
      <trkpt lat="42.9844570" lon="-5.9672020">
        <ele>1353.6</ele>
        <time>2021-10-10T16:42:04Z</time>
      </trkpt>
      <trkpt lat="42.9844350" lon="-5.9672910">
        <ele>1352.6</ele>
        <time>2021-10-10T16:42:06Z</time>
      </trkpt>
      <trkpt lat="42.9844320" lon="-5.9673640">
        <ele>1352.4</ele>
        <time>2021-10-10T16:42:07Z</time>
      </trkpt>
      <trkpt lat="42.9844320" lon="-5.9674370">
        <ele>1352.0</ele>
        <time>2021-10-10T16:42:08Z</time>
      </trkpt>
      <trkpt lat="42.9844380" lon="-5.9675680">
        <ele>1351.6</ele>
        <time>2021-10-10T16:42:10Z</time>
      </trkpt>
      <trkpt lat="42.9844780" lon="-5.9677630">
        <ele>1351.0</ele>
        <time>2021-10-10T16:42:13Z</time>
      </trkpt>
      <trkpt lat="42.9844920" lon="-5.9678310">
        <ele>1350.8</ele>
        <time>2021-10-10T16:42:14Z</time>
      </trkpt>
      <trkpt lat="42.9845560" lon="-5.9680300">
        <ele>1349.6</ele>
        <time>2021-10-10T16:42:17Z</time>
      </trkpt>
      <trkpt lat="42.9845750" lon="-5.9680940">
        <ele>1349.4</ele>
        <time>2021-10-10T16:42:18Z</time>
      </trkpt>
      <trkpt lat="42.9845990" lon="-5.9683690">
        <ele>1348.6</ele>
        <time>2021-10-10T16:42:22Z</time>
      </trkpt>
      <trkpt lat="42.9846000" lon="-5.9684430">
        <ele>1348.4</ele>
        <time>2021-10-10T16:42:23Z</time>
      </trkpt>
      <trkpt lat="42.9846000" lon="-5.9685120">
        <ele>1348.2</ele>
        <time>2021-10-10T16:42:24Z</time>
      </trkpt>
      <trkpt lat="42.9846160" lon="-5.9688080">
        <ele>1347.4</ele>
        <time>2021-10-10T16:42:28Z</time>
      </trkpt>
      <trkpt lat="42.9846330" lon="-5.9690230">
        <ele>1346.8</ele>
        <time>2021-10-10T16:42:31Z</time>
      </trkpt>
      <trkpt lat="42.9846490" lon="-5.9690850">
        <ele>1346.4</ele>
        <time>2021-10-10T16:42:32Z</time>
      </trkpt>
      <trkpt lat="42.9846720" lon="-5.9691380">
        <ele>1346.2</ele>
        <time>2021-10-10T16:42:33Z</time>
      </trkpt>
      <trkpt lat="42.9847310" lon="-5.9692160">
        <ele>1345.8</ele>
        <time>2021-10-10T16:42:35Z</time>
      </trkpt>
      <trkpt lat="42.9848950" lon="-5.9693130">
        <ele>1345.2</ele>
        <time>2021-10-10T16:42:39Z</time>
      </trkpt>
      <trkpt lat="42.9849310" lon="-5.9693220">
        <ele>1345.0</ele>
        <time>2021-10-10T16:42:40Z</time>
      </trkpt>
      <trkpt lat="42.9850690" lon="-5.9693580">
        <ele>1344.6</ele>
        <time>2021-10-10T16:42:43Z</time>
      </trkpt>
      <trkpt lat="42.9851610" lon="-5.9694340">
        <ele>1343.8</ele>
        <time>2021-10-10T16:42:45Z</time>
      </trkpt>
      <trkpt lat="42.9852240" lon="-5.9695460">
        <ele>1343.0</ele>
        <time>2021-10-10T16:42:47Z</time>
      </trkpt>
      <trkpt lat="42.9852520" lon="-5.9696270">
        <ele>1342.4</ele>
        <time>2021-10-10T16:42:48Z</time>
      </trkpt>
      <trkpt lat="42.9852730" lon="-5.9697120">
        <ele>1342.2</ele>
        <time>2021-10-10T16:42:49Z</time>
      </trkpt>
      <trkpt lat="42.9852800" lon="-5.9697980">
        <ele>1341.4</ele>
        <time>2021-10-10T16:42:50Z</time>
      </trkpt>
      <trkpt lat="42.9852780" lon="-5.9698820">
        <ele>1340.8</ele>
        <time>2021-10-10T16:42:51Z</time>
      </trkpt>
      <trkpt lat="42.9852690" lon="-5.9699640">
        <ele>1340.2</ele>
        <time>2021-10-10T16:42:52Z</time>
      </trkpt>
      <trkpt lat="42.9852130" lon="-5.9702710">
        <ele>1338.6</ele>
        <time>2021-10-10T16:42:56Z</time>
      </trkpt>
      <trkpt lat="42.9851750" lon="-5.9704550">
        <ele>1337.6</ele>
        <time>2021-10-10T16:42:58Z</time>
      </trkpt>
      <trkpt lat="42.9851230" lon="-5.9706820">
        <ele>1336.4</ele>
        <time>2021-10-10T16:43:01Z</time>
      </trkpt>
      <trkpt lat="42.9850850" lon="-5.9708500">
        <ele>1335.6</ele>
        <time>2021-10-10T16:43:03Z</time>
      </trkpt>
      <trkpt lat="42.9850700" lon="-5.9709800">
        <ele>1335.0</ele>
        <time>2021-10-10T16:43:05Z</time>
      </trkpt>
      <trkpt lat="42.9850680" lon="-5.9711050">
        <ele>1334.6</ele>
        <time>2021-10-10T16:43:07Z</time>
      </trkpt>
      <trkpt lat="42.9850710" lon="-5.9712190">
        <ele>1333.8</ele>
        <time>2021-10-10T16:43:09Z</time>
      </trkpt>
      <trkpt lat="42.9851110" lon="-5.9713280">
        <ele>1333.0</ele>
        <time>2021-10-10T16:43:11Z</time>
      </trkpt>
      <trkpt lat="42.9851360" lon="-5.9713710">
        <ele>1332.4</ele>
        <time>2021-10-10T16:43:12Z</time>
      </trkpt>
      <trkpt lat="42.9852390" lon="-5.9714850">
        <ele>1331.6</ele>
        <time>2021-10-10T16:43:15Z</time>
      </trkpt>
      <trkpt lat="42.9852780" lon="-5.9715140">
        <ele>1331.2</ele>
        <time>2021-10-10T16:43:16Z</time>
      </trkpt>
      <trkpt lat="42.9853160" lon="-5.9715400">
        <ele>1331.2</ele>
        <time>2021-10-10T16:43:17Z</time>
      </trkpt>
      <trkpt lat="42.9853920" lon="-5.9715680">
        <ele>1330.0</ele>
        <time>2021-10-10T16:43:19Z</time>
      </trkpt>
      <trkpt lat="42.9854370" lon="-5.9715670">
        <ele>1329.8</ele>
        <time>2021-10-10T16:43:20Z</time>
      </trkpt>
      <trkpt lat="42.9855600" lon="-5.9715560">
        <ele>1328.4</ele>
        <time>2021-10-10T16:43:23Z</time>
      </trkpt>
      <trkpt lat="42.9856340" lon="-5.9715590">
        <ele>1327.8</ele>
        <time>2021-10-10T16:43:25Z</time>
      </trkpt>
      <trkpt lat="42.9857110" lon="-5.9715570">
        <ele>1327.4</ele>
        <time>2021-10-10T16:43:27Z</time>
      </trkpt>
      <trkpt lat="42.9858500" lon="-5.9715350">
        <ele>1326.8</ele>
        <time>2021-10-10T16:43:31Z</time>
      </trkpt>
      <trkpt lat="42.9858820" lon="-5.9715370">
        <ele>1326.4</ele>
        <time>2021-10-10T16:43:32Z</time>
      </trkpt>
      <trkpt lat="42.9860330" lon="-5.9716070">
        <ele>1325.2</ele>
        <time>2021-10-10T16:43:36Z</time>
      </trkpt>
      <trkpt lat="42.9860640" lon="-5.9716330">
        <ele>1325.0</ele>
        <time>2021-10-10T16:43:37Z</time>
      </trkpt>
      <trkpt lat="42.9860970" lon="-5.9716680">
        <ele>1324.2</ele>
        <time>2021-10-10T16:43:38Z</time>
      </trkpt>
      <trkpt lat="42.9861280" lon="-5.9717210">
        <ele>1324.0</ele>
        <time>2021-10-10T16:43:39Z</time>
      </trkpt>
      <trkpt lat="42.9861500" lon="-5.9717800">
        <ele>1323.4</ele>
        <time>2021-10-10T16:43:40Z</time>
      </trkpt>
      <trkpt lat="42.9861680" lon="-5.9718400">
        <ele>1322.8</ele>
        <time>2021-10-10T16:43:41Z</time>
      </trkpt>
      <trkpt lat="42.9861800" lon="-5.9718890">
        <ele>1322.8</ele>
        <time>2021-10-10T16:43:42Z</time>
      </trkpt>
      <trkpt lat="42.9861900" lon="-5.9719560">
        <ele>1322.4</ele>
        <time>2021-10-10T16:43:43Z</time>
      </trkpt>
      <trkpt lat="42.9861960" lon="-5.9720990">
        <ele>1322.0</ele>
        <time>2021-10-10T16:43:45Z</time>
      </trkpt>
      <trkpt lat="42.9861930" lon="-5.9721740">
        <ele>1321.8</ele>
        <time>2021-10-10T16:43:46Z</time>
      </trkpt>
      <trkpt lat="42.9861850" lon="-5.9722480">
        <ele>1321.4</ele>
        <time>2021-10-10T16:43:47Z</time>
      </trkpt>
      <trkpt lat="42.9861750" lon="-5.9723220">
        <ele>1321.2</ele>
        <time>2021-10-10T16:43:48Z</time>
      </trkpt>
      <trkpt lat="42.9861420" lon="-5.9724740">
        <ele>1320.6</ele>
        <time>2021-10-10T16:43:50Z</time>
      </trkpt>
      <trkpt lat="42.9861240" lon="-5.9725480">
        <ele>1320.4</ele>
        <time>2021-10-10T16:43:51Z</time>
      </trkpt>
      <trkpt lat="42.9860810" lon="-5.9726840">
        <ele>1319.4</ele>
        <time>2021-10-10T16:43:53Z</time>
      </trkpt>
      <trkpt lat="42.9860540" lon="-5.9727490">
        <ele>1319.0</ele>
        <time>2021-10-10T16:43:54Z</time>
      </trkpt>
      <trkpt lat="42.9859870" lon="-5.9728710">
        <ele>1318.2</ele>
        <time>2021-10-10T16:43:56Z</time>
      </trkpt>
      <trkpt lat="42.9859510" lon="-5.9729270">
        <ele>1317.8</ele>
        <time>2021-10-10T16:43:57Z</time>
      </trkpt>
      <trkpt lat="42.9859090" lon="-5.9729680">
        <ele>1317.0</ele>
        <time>2021-10-10T16:43:58Z</time>
      </trkpt>
      <trkpt lat="42.9858550" lon="-5.9729990">
        <ele>1316.6</ele>
        <time>2021-10-10T16:43:59Z</time>
      </trkpt>
      <trkpt lat="42.9857970" lon="-5.9730180">
        <ele>1316.0</ele>
        <time>2021-10-10T16:44:00Z</time>
      </trkpt>
      <trkpt lat="42.9856790" lon="-5.9730280">
        <ele>1315.4</ele>
        <time>2021-10-10T16:44:02Z</time>
      </trkpt>
      <trkpt lat="42.9854960" lon="-5.9730400">
        <ele>1314.4</ele>
        <time>2021-10-10T16:44:05Z</time>
      </trkpt>
      <trkpt lat="42.9854390" lon="-5.9730480">
        <ele>1314.2</ele>
        <time>2021-10-10T16:44:06Z</time>
      </trkpt>
      <trkpt lat="42.9852730" lon="-5.9730760">
        <ele>1312.8</ele>
        <time>2021-10-10T16:44:09Z</time>
      </trkpt>
      <trkpt lat="42.9850980" lon="-5.9731030">
        <ele>1311.8</ele>
        <time>2021-10-10T16:44:12Z</time>
      </trkpt>
      <trkpt lat="42.9850420" lon="-5.9731120">
        <ele>1311.2</ele>
        <time>2021-10-10T16:44:13Z</time>
      </trkpt>
      <trkpt lat="42.9849460" lon="-5.9731290">
        <ele>1310.6</ele>
        <time>2021-10-10T16:44:15Z</time>
      </trkpt>
      <trkpt lat="42.9848130" lon="-5.9731270">
        <ele>1309.8</ele>
        <time>2021-10-10T16:44:18Z</time>
      </trkpt>
      <trkpt lat="42.9847680" lon="-5.9731270">
        <ele>1309.6</ele>
        <time>2021-10-10T16:44:19Z</time>
      </trkpt>
      <trkpt lat="42.9847200" lon="-5.9731320">
        <ele>1309.2</ele>
        <time>2021-10-10T16:44:20Z</time>
      </trkpt>
      <trkpt lat="42.9846680" lon="-5.9731440">
        <ele>1308.8</ele>
        <time>2021-10-10T16:44:21Z</time>
      </trkpt>
      <trkpt lat="42.9845700" lon="-5.9731950">
        <ele>1308.0</ele>
        <time>2021-10-10T16:44:23Z</time>
      </trkpt>
      <trkpt lat="42.9844770" lon="-5.9732660">
        <ele>1307.2</ele>
        <time>2021-10-10T16:44:25Z</time>
      </trkpt>
      <trkpt lat="42.9844450" lon="-5.9733030">
        <ele>1307.0</ele>
        <time>2021-10-10T16:44:26Z</time>
      </trkpt>
      <trkpt lat="42.9843720" lon="-5.9734030">
        <ele>1306.4</ele>
        <time>2021-10-10T16:44:28Z</time>
      </trkpt>
      <trkpt lat="42.9842410" lon="-5.9736200">
        <ele>1305.8</ele>
        <time>2021-10-10T16:44:32Z</time>
      </trkpt>
      <trkpt lat="42.9841510" lon="-5.9737770">
        <ele>1304.8</ele>
        <time>2021-10-10T16:44:35Z</time>
      </trkpt>
      <trkpt lat="42.9841200" lon="-5.9738260">
        <ele>1304.2</ele>
        <time>2021-10-10T16:44:36Z</time>
      </trkpt>
      <trkpt lat="42.9840490" lon="-5.9739330">
        <ele>1303.6</ele>
        <time>2021-10-10T16:44:38Z</time>
      </trkpt>
      <trkpt lat="42.9839370" lon="-5.9741160">
        <ele>1302.2</ele>
        <time>2021-10-10T16:44:42Z</time>
      </trkpt>
      <trkpt lat="42.9839140" lon="-5.9741620">
        <ele>1302.0</ele>
        <time>2021-10-10T16:44:43Z</time>
      </trkpt>
      <trkpt lat="42.9838890" lon="-5.9742100">
        <ele>1301.6</ele>
        <time>2021-10-10T16:44:44Z</time>
      </trkpt>
      <trkpt lat="42.9838110" lon="-5.9743580">
        <ele>1300.6</ele>
        <time>2021-10-10T16:44:47Z</time>
      </trkpt>
      <trkpt lat="42.9837670" lon="-5.9744500">
        <ele>1300.0</ele>
        <time>2021-10-10T16:44:49Z</time>
      </trkpt>
      <trkpt lat="42.9837240" lon="-5.9745410">
        <ele>1299.6</ele>
        <time>2021-10-10T16:44:51Z</time>
      </trkpt>
      <trkpt lat="42.9837030" lon="-5.9745860">
        <ele>1299.6</ele>
        <time>2021-10-10T16:44:52Z</time>
      </trkpt>
      <trkpt lat="42.9836670" lon="-5.9747360">
        <ele>1299.0</ele>
        <time>2021-10-10T16:44:55Z</time>
      </trkpt>
      <trkpt lat="42.9836550" lon="-5.9748370">
        <ele>1298.4</ele>
        <time>2021-10-10T16:44:57Z</time>
      </trkpt>
      <trkpt lat="42.9836520" lon="-5.9750220">
        <ele>1297.0</ele>
        <time>2021-10-10T16:45:00Z</time>
      </trkpt>
      <trkpt lat="42.9836510" lon="-5.9750860">
        <ele>1296.8</ele>
        <time>2021-10-10T16:45:01Z</time>
      </trkpt>
      <trkpt lat="42.9836500" lon="-5.9752870">
        <ele>1295.2</ele>
        <time>2021-10-10T16:45:04Z</time>
      </trkpt>
      <trkpt lat="42.9836450" lon="-5.9754140">
        <ele>1294.6</ele>
        <time>2021-10-10T16:45:06Z</time>
      </trkpt>
      <trkpt lat="42.9836440" lon="-5.9754780">
        <ele>1294.4</ele>
        <time>2021-10-10T16:45:07Z</time>
      </trkpt>
      <trkpt lat="42.9836410" lon="-5.9756080">
        <ele>1294.0</ele>
        <time>2021-10-10T16:45:09Z</time>
      </trkpt>
      <trkpt lat="42.9836300" lon="-5.9757310">
        <ele>1293.4</ele>
        <time>2021-10-10T16:45:11Z</time>
      </trkpt>
      <trkpt lat="42.9836180" lon="-5.9757870">
        <ele>1293.4</ele>
        <time>2021-10-10T16:45:12Z</time>
      </trkpt>
      <trkpt lat="42.9836010" lon="-5.9758460">
        <ele>1292.4</ele>
        <time>2021-10-10T16:45:13Z</time>
      </trkpt>
      <trkpt lat="42.9835580" lon="-5.9760430">
        <ele>1291.6</ele>
        <time>2021-10-10T16:45:16Z</time>
      </trkpt>
      <trkpt lat="42.9835470" lon="-5.9761140">
        <ele>1291.0</ele>
        <time>2021-10-10T16:45:17Z</time>
      </trkpt>
      <trkpt lat="42.9835110" lon="-5.9763300">
        <ele>1290.2</ele>
        <time>2021-10-10T16:45:20Z</time>
      </trkpt>
      <trkpt lat="42.9834720" lon="-5.9764880">
        <ele>1289.8</ele>
        <time>2021-10-10T16:45:22Z</time>
      </trkpt>
      <trkpt lat="42.9834190" lon="-5.9767280">
        <ele>1289.0</ele>
        <time>2021-10-10T16:45:25Z</time>
      </trkpt>
      <trkpt lat="42.9833720" lon="-5.9769680">
        <ele>1287.6</ele>
        <time>2021-10-10T16:45:28Z</time>
      </trkpt>
      <trkpt lat="42.9833510" lon="-5.9770590">
        <ele>1287.4</ele>
        <time>2021-10-10T16:45:29Z</time>
      </trkpt>
      <trkpt lat="42.9833060" lon="-5.9772600">
        <ele>1286.4</ele>
        <time>2021-10-10T16:45:32Z</time>
      </trkpt>
      <trkpt lat="42.9832550" lon="-5.9774770">
        <ele>1285.4</ele>
        <time>2021-10-10T16:45:35Z</time>
      </trkpt>
      <trkpt lat="42.9832410" lon="-5.9775410">
        <ele>1285.4</ele>
        <time>2021-10-10T16:45:36Z</time>
      </trkpt>
      <trkpt lat="42.9832200" lon="-5.9776670">
        <ele>1284.2</ele>
        <time>2021-10-10T16:45:38Z</time>
      </trkpt>
      <trkpt lat="42.9832070" lon="-5.9777200">
        <ele>1283.6</ele>
        <time>2021-10-10T16:45:39Z</time>
      </trkpt>
      <trkpt lat="42.9831550" lon="-5.9778570">
        <ele>1282.8</ele>
        <time>2021-10-10T16:45:41Z</time>
      </trkpt>
      <trkpt lat="42.9831220" lon="-5.9779120">
        <ele>1282.2</ele>
        <time>2021-10-10T16:45:42Z</time>
      </trkpt>
      <trkpt lat="42.9830840" lon="-5.9779690">
        <ele>1281.8</ele>
        <time>2021-10-10T16:45:43Z</time>
      </trkpt>
      <trkpt lat="42.9830470" lon="-5.9780390">
        <ele>1281.2</ele>
        <time>2021-10-10T16:45:44Z</time>
      </trkpt>
      <trkpt lat="42.9830230" lon="-5.9781140">
        <ele>1280.6</ele>
        <time>2021-10-10T16:45:45Z</time>
      </trkpt>
      <trkpt lat="42.9830150" lon="-5.9781760">
        <ele>1279.8</ele>
        <time>2021-10-10T16:45:46Z</time>
      </trkpt>
      <trkpt lat="42.9830100" lon="-5.9782520">
        <ele>1279.4</ele>
        <time>2021-10-10T16:45:47Z</time>
      </trkpt>
      <trkpt lat="42.9830120" lon="-5.9783460">
        <ele>1278.6</ele>
        <time>2021-10-10T16:45:48Z</time>
      </trkpt>
      <trkpt lat="42.9830250" lon="-5.9784310">
        <ele>1278.2</ele>
        <time>2021-10-10T16:45:49Z</time>
      </trkpt>
      <trkpt lat="42.9830450" lon="-5.9785170">
        <ele>1277.8</ele>
        <time>2021-10-10T16:45:50Z</time>
      </trkpt>
      <trkpt lat="42.9830870" lon="-5.9786890">
        <ele>1277.2</ele>
        <time>2021-10-10T16:45:52Z</time>
      </trkpt>
      <trkpt lat="42.9831000" lon="-5.9787730">
        <ele>1276.6</ele>
        <time>2021-10-10T16:45:53Z</time>
      </trkpt>
      <trkpt lat="42.9830970" lon="-5.9789320">
        <ele>1275.2</ele>
        <time>2021-10-10T16:45:55Z</time>
      </trkpt>
      <trkpt lat="42.9830790" lon="-5.9790630">
        <ele>1274.6</ele>
        <time>2021-10-10T16:45:58Z</time>
      </trkpt>
      <trkpt lat="42.9830520" lon="-5.9791220">
        <ele>1274.4</ele>
        <time>2021-10-10T16:46:01Z</time>
      </trkpt>
      <trkpt lat="42.9830120" lon="-5.9791880">
        <ele>1274.2</ele>
        <time>2021-10-10T16:46:05Z</time>
      </trkpt>
      <trkpt lat="42.9829250" lon="-5.9792540">
        <ele>1274.2</ele>
        <time>2021-10-10T16:46:11Z</time>
      </trkpt>
      <trkpt lat="42.9829090" lon="-5.9792750">
        <ele>1274.4</ele>
        <time>2021-10-10T16:46:12Z</time>
      </trkpt>
      <trkpt lat="42.9828940" lon="-5.9792900">
        <ele>1274.4</ele>
        <time>2021-10-10T16:46:13Z</time>
      </trkpt>
      <trkpt lat="42.9828580" lon="-5.9793010">
        <ele>1274.6</ele>
        <time>2021-10-10T16:46:15Z</time>
      </trkpt>
      <trkpt lat="42.9828250" lon="-5.9793210">
        <ele>1274.8</ele>
        <time>2021-10-10T16:46:17Z</time>
      </trkpt>
      <trkpt lat="42.9827860" lon="-5.9793620">
        <ele>1274.8</ele>
        <time>2021-10-10T16:46:20Z</time>
      </trkpt>
      <trkpt lat="42.9827350" lon="-5.9794340">
        <ele>1275.0</ele>
        <time>2021-10-10T16:46:25Z</time>
      </trkpt>
      <trkpt lat="42.9827220" lon="-5.9794530">
        <ele>1275.0</ele>
        <time>2021-10-10T16:46:26Z</time>
      </trkpt>
      <trkpt lat="42.9826760" lon="-5.9795280">
        <ele>1275.0</ele>
        <time>2021-10-10T16:46:29Z</time>
      </trkpt>
      <trkpt lat="42.9826470" lon="-5.9795950">
        <ele>1275.2</ele>
        <time>2021-10-10T16:46:31Z</time>
      </trkpt>
      <trkpt lat="42.9825690" lon="-5.9797910">
        <ele>1275.0</ele>
        <time>2021-10-10T16:46:36Z</time>
      </trkpt>
      <trkpt lat="42.9825560" lon="-5.9798290">
        <ele>1274.8</ele>
        <time>2021-10-10T16:46:37Z</time>
      </trkpt>
      <trkpt lat="42.9824380" lon="-5.9801740">
        <ele>1274.2</ele>
        <time>2021-10-10T16:46:44Z</time>
      </trkpt>
      <trkpt lat="42.9823960" lon="-5.9802850">
        <ele>1273.6</ele>
        <time>2021-10-10T16:46:48Z</time>
      </trkpt>
      <trkpt lat="42.9823960" lon="-5.9802850">
        <ele>1273.6</ele>
        <time>2021-10-10T16:46:49Z</time>
      </trkpt>
      <trkpt lat="42.9823960" lon="-5.9802850">
        <ele>1273.4</ele>
        <time>2021-10-10T16:46:50Z</time>
      </trkpt>
      <trkpt lat="42.9823720" lon="-5.9803220">
        <ele>1273.2</ele>
        <time>2021-10-10T16:47:03Z</time>
      </trkpt>
      <trkpt lat="42.9823620" lon="-5.9803430">
        <ele>1273.2</ele>
        <time>2021-10-10T16:47:04Z</time>
      </trkpt>
      <trkpt lat="42.9823540" lon="-5.9803700">
        <ele>1273.0</ele>
        <time>2021-10-10T16:47:08Z</time>
      </trkpt>
      <trkpt lat="42.9823270" lon="-5.9803970">
        <ele>1273.4</ele>
        <time>2021-10-10T16:47:47Z</time>
      </trkpt>
      <trkpt lat="42.9822430" lon="-5.9804820">
        <ele>1273.0</ele>
        <time>2021-10-10T16:47:54Z</time>
      </trkpt>
      <trkpt lat="42.9822430" lon="-5.9804820">
        <ele>1273.2</ele>
        <time>2021-10-10T16:47:57Z</time>
      </trkpt>
      <trkpt lat="42.9822020" lon="-5.9805090">
        <ele>1272.2</ele>
        <time>2021-10-10T16:49:36Z</time>
      </trkpt>
      <trkpt lat="42.9821750" lon="-5.9805240">
        <ele>1272.2</ele>
        <time>2021-10-10T16:49:37Z</time>
      </trkpt>
      <trkpt lat="42.9819920" lon="-5.9806310">
        <ele>1271.8</ele>
        <time>2021-10-10T16:49:42Z</time>
      </trkpt>
      <trkpt lat="42.9817490" lon="-5.9807990">
        <ele>1271.0</ele>
        <time>2021-10-10T16:49:47Z</time>
      </trkpt>
      <trkpt lat="42.9815040" lon="-5.9810100">
        <ele>1270.0</ele>
        <time>2021-10-10T16:49:51Z</time>
      </trkpt>
      <trkpt lat="42.9814370" lon="-5.9810730">
        <ele>1269.8</ele>
        <time>2021-10-10T16:49:52Z</time>
      </trkpt>
      <trkpt lat="42.9813000" lon="-5.9812010">
        <ele>1269.0</ele>
        <time>2021-10-10T16:49:54Z</time>
      </trkpt>
      <trkpt lat="42.9811480" lon="-5.9813110">
        <ele>1268.0</ele>
        <time>2021-10-10T16:49:56Z</time>
      </trkpt>
      <trkpt lat="42.9810670" lon="-5.9813600">
        <ele>1267.2</ele>
        <time>2021-10-10T16:49:57Z</time>
      </trkpt>
      <trkpt lat="42.9809960" lon="-5.9813940">
        <ele>1267.0</ele>
        <time>2021-10-10T16:49:58Z</time>
      </trkpt>
      <trkpt lat="42.9807930" lon="-5.9814670">
        <ele>1265.8</ele>
        <time>2021-10-10T16:50:00Z</time>
      </trkpt>
      <trkpt lat="42.9806980" lon="-5.9814940">
        <ele>1265.2</ele>
        <time>2021-10-10T16:50:01Z</time>
      </trkpt>
      <trkpt lat="42.9806210" lon="-5.9815190">
        <ele>1264.6</ele>
        <time>2021-10-10T16:50:02Z</time>
      </trkpt>
      <trkpt lat="42.9804170" lon="-5.9815890">
        <ele>1263.2</ele>
        <time>2021-10-10T16:50:04Z</time>
      </trkpt>
      <trkpt lat="42.9802570" lon="-5.9816620">
        <ele>1261.6</ele>
        <time>2021-10-10T16:50:06Z</time>
      </trkpt>
      <trkpt lat="42.9801510" lon="-5.9817260">
        <ele>1261.4</ele>
        <time>2021-10-10T16:50:07Z</time>
      </trkpt>
      <trkpt lat="42.9800860" lon="-5.9817800">
        <ele>1260.2</ele>
        <time>2021-10-10T16:50:08Z</time>
      </trkpt>
      <trkpt lat="42.9799190" lon="-5.9819600">
        <ele>1258.8</ele>
        <time>2021-10-10T16:50:10Z</time>
      </trkpt>
      <trkpt lat="42.9798490" lon="-5.9820550">
        <ele>1258.4</ele>
        <time>2021-10-10T16:50:11Z</time>
      </trkpt>
      <trkpt lat="42.9797800" lon="-5.9821550">
        <ele>1257.6</ele>
        <time>2021-10-10T16:50:12Z</time>
      </trkpt>
      <trkpt lat="42.9796420" lon="-5.9823670">
        <ele>1256.6</ele>
        <time>2021-10-10T16:50:14Z</time>
      </trkpt>
      <trkpt lat="42.9794990" lon="-5.9825660">
        <ele>1255.4</ele>
        <time>2021-10-10T16:50:16Z</time>
      </trkpt>
      <trkpt lat="42.9794270" lon="-5.9826680">
        <ele>1254.4</ele>
        <time>2021-10-10T16:50:17Z</time>
      </trkpt>
      <trkpt lat="42.9793580" lon="-5.9827720">
        <ele>1254.0</ele>
        <time>2021-10-10T16:50:18Z</time>
      </trkpt>
      <trkpt lat="42.9792190" lon="-5.9829820">
        <ele>1252.8</ele>
        <time>2021-10-10T16:50:20Z</time>
      </trkpt>
      <trkpt lat="42.9790800" lon="-5.9831800">
        <ele>1251.6</ele>
        <time>2021-10-10T16:50:22Z</time>
      </trkpt>
      <trkpt lat="42.9789490" lon="-5.9833690">
        <ele>1250.6</ele>
        <time>2021-10-10T16:50:24Z</time>
      </trkpt>
      <trkpt lat="42.9788890" lon="-5.9834620">
        <ele>1250.4</ele>
        <time>2021-10-10T16:50:25Z</time>
      </trkpt>
      <trkpt lat="42.9787710" lon="-5.9836490">
        <ele>1250.0</ele>
        <time>2021-10-10T16:50:27Z</time>
      </trkpt>
      <trkpt lat="42.9786130" lon="-5.9839330">
        <ele>1249.4</ele>
        <time>2021-10-10T16:50:30Z</time>
      </trkpt>
      <trkpt lat="42.9785640" lon="-5.9840260">
        <ele>1249.2</ele>
        <time>2021-10-10T16:50:31Z</time>
      </trkpt>
      <trkpt lat="42.9782840" lon="-5.9846200">
        <ele>1248.0</ele>
        <time>2021-10-10T16:50:37Z</time>
      </trkpt>
      <trkpt lat="42.9780480" lon="-5.9851340">
        <ele>1247.0</ele>
        <time>2021-10-10T16:50:42Z</time>
      </trkpt>
      <trkpt lat="42.9778630" lon="-5.9855310">
        <ele>1245.4</ele>
        <time>2021-10-10T16:50:46Z</time>
      </trkpt>
      <trkpt lat="42.9778140" lon="-5.9856350">
        <ele>1245.2</ele>
        <time>2021-10-10T16:50:47Z</time>
      </trkpt>
      <trkpt lat="42.9776700" lon="-5.9859450">
        <ele>1244.2</ele>
        <time>2021-10-10T16:50:50Z</time>
      </trkpt>
      <trkpt lat="42.9774880" lon="-5.9863560">
        <ele>1243.2</ele>
        <time>2021-10-10T16:50:54Z</time>
      </trkpt>
      <trkpt lat="42.9774450" lon="-5.9864600">
        <ele>1242.8</ele>
        <time>2021-10-10T16:50:55Z</time>
      </trkpt>
      <trkpt lat="42.9772780" lon="-5.9868730">
        <ele>1242.0</ele>
        <time>2021-10-10T16:50:59Z</time>
      </trkpt>
      <trkpt lat="42.9770720" lon="-5.9873750">
        <ele>1241.0</ele>
        <time>2021-10-10T16:51:04Z</time>
      </trkpt>
      <trkpt lat="42.9769920" lon="-5.9875770">
        <ele>1240.4</ele>
        <time>2021-10-10T16:51:06Z</time>
      </trkpt>
      <trkpt lat="42.9768540" lon="-5.9879070">
        <ele>1240.0</ele>
        <time>2021-10-10T16:51:09Z</time>
      </trkpt>
      <trkpt lat="42.9766710" lon="-5.9883550">
        <ele>1239.2</ele>
        <time>2021-10-10T16:51:13Z</time>
      </trkpt>
      <trkpt lat="42.9766210" lon="-5.9884730">
        <ele>1238.8</ele>
        <time>2021-10-10T16:51:14Z</time>
      </trkpt>
      <trkpt lat="42.9764770" lon="-5.9888150">
        <ele>1237.4</ele>
        <time>2021-10-10T16:51:17Z</time>
      </trkpt>
      <trkpt lat="42.9763310" lon="-5.9891930">
        <ele>1236.0</ele>
        <time>2021-10-10T16:51:20Z</time>
      </trkpt>
      <trkpt lat="42.9762800" lon="-5.9893160">
        <ele>1235.4</ele>
        <time>2021-10-10T16:51:21Z</time>
      </trkpt>
      <trkpt lat="42.9761680" lon="-5.9895860">
        <ele>1234.6</ele>
        <time>2021-10-10T16:51:23Z</time>
      </trkpt>
      <trkpt lat="42.9760230" lon="-5.9899400">
        <ele>1233.4</ele>
        <time>2021-10-10T16:51:26Z</time>
      </trkpt>
      <trkpt lat="42.9759030" lon="-5.9902230">
        <ele>1232.2</ele>
        <time>2021-10-10T16:51:28Z</time>
      </trkpt>
      <trkpt lat="42.9758090" lon="-5.9904560">
        <ele>1231.4</ele>
        <time>2021-10-10T16:51:30Z</time>
      </trkpt>
      <trkpt lat="42.9757570" lon="-5.9905850">
        <ele>1231.0</ele>
        <time>2021-10-10T16:51:31Z</time>
      </trkpt>
      <trkpt lat="42.9756300" lon="-5.9908600">
        <ele>1230.2</ele>
        <time>2021-10-10T16:51:33Z</time>
      </trkpt>
      <trkpt lat="42.9754850" lon="-5.9910790">
        <ele>1229.2</ele>
        <time>2021-10-10T16:51:35Z</time>
      </trkpt>
      <trkpt lat="42.9754040" lon="-5.9911790">
        <ele>1228.8</ele>
        <time>2021-10-10T16:51:36Z</time>
      </trkpt>
      <trkpt lat="42.9752300" lon="-5.9913700">
        <ele>1227.6</ele>
        <time>2021-10-10T16:51:38Z</time>
      </trkpt>
      <trkpt lat="42.9749560" lon="-5.9916380">
        <ele>1225.8</ele>
        <time>2021-10-10T16:51:41Z</time>
      </trkpt>
      <trkpt lat="42.9747740" lon="-5.9918230">
        <ele>1224.6</ele>
        <time>2021-10-10T16:51:43Z</time>
      </trkpt>
      <trkpt lat="42.9745940" lon="-5.9920040">
        <ele>1223.4</ele>
        <time>2021-10-10T16:51:45Z</time>
      </trkpt>
      <trkpt lat="42.9743340" lon="-5.9922600">
        <ele>1222.0</ele>
        <time>2021-10-10T16:51:48Z</time>
      </trkpt>
      <trkpt lat="42.9742690" lon="-5.9923220">
        <ele>1221.4</ele>
        <time>2021-10-10T16:51:49Z</time>
      </trkpt>
      <trkpt lat="42.9741090" lon="-5.9924750">
        <ele>1220.8</ele>
        <time>2021-10-10T16:51:51Z</time>
      </trkpt>
      <trkpt lat="42.9738160" lon="-5.9927970">
        <ele>1219.6</ele>
        <time>2021-10-10T16:51:55Z</time>
      </trkpt>
      <trkpt lat="42.9735200" lon="-5.9931810">
        <ele>1218.8</ele>
        <time>2021-10-10T16:52:00Z</time>
      </trkpt>
      <trkpt lat="42.9734720" lon="-5.9932720">
        <ele>1218.6</ele>
        <time>2021-10-10T16:52:01Z</time>
      </trkpt>
      <trkpt lat="42.9733340" lon="-5.9935660">
        <ele>1218.4</ele>
        <time>2021-10-10T16:52:04Z</time>
      </trkpt>
      <trkpt lat="42.9731930" lon="-5.9938670">
        <ele>1217.8</ele>
        <time>2021-10-10T16:52:07Z</time>
      </trkpt>
      <trkpt lat="42.9730020" lon="-5.9942730">
        <ele>1216.6</ele>
        <time>2021-10-10T16:52:11Z</time>
      </trkpt>
      <trkpt lat="42.9728190" lon="-5.9946840">
        <ele>1215.6</ele>
        <time>2021-10-10T16:52:15Z</time>
      </trkpt>
      <trkpt lat="42.9727750" lon="-5.9947800">
        <ele>1215.2</ele>
        <time>2021-10-10T16:52:16Z</time>
      </trkpt>
      <trkpt lat="42.9726180" lon="-5.9951410">
        <ele>1214.4</ele>
        <time>2021-10-10T16:52:20Z</time>
      </trkpt>
      <trkpt lat="42.9725800" lon="-5.9952200">
        <ele>1214.4</ele>
        <time>2021-10-10T16:52:21Z</time>
      </trkpt>
      <trkpt lat="42.9724300" lon="-5.9955490">
        <ele>1214.6</ele>
        <time>2021-10-10T16:52:26Z</time>
      </trkpt>
      <trkpt lat="42.9722930" lon="-5.9958670">
        <ele>1215.6</ele>
        <time>2021-10-10T16:52:32Z</time>
      </trkpt>
      <trkpt lat="42.9722730" lon="-5.9959220">
        <ele>1215.8</ele>
        <time>2021-10-10T16:52:33Z</time>
      </trkpt>
      <trkpt lat="42.9722090" lon="-5.9961080">
        <ele>1215.8</ele>
        <time>2021-10-10T16:52:37Z</time>
      </trkpt>
      <trkpt lat="42.9721710" lon="-5.9964050">
        <ele>1216.0</ele>
        <time>2021-10-10T16:52:42Z</time>
      </trkpt>
      <trkpt lat="42.9721100" lon="-5.9968130">
        <ele>1215.4</ele>
        <time>2021-10-10T16:52:47Z</time>
      </trkpt>
      <trkpt lat="42.9720500" lon="-5.9971930">
        <ele>1214.2</ele>
        <time>2021-10-10T16:52:51Z</time>
      </trkpt>
      <trkpt lat="42.9719980" lon="-5.9975010">
        <ele>1213.6</ele>
        <time>2021-10-10T16:52:54Z</time>
      </trkpt>
      <trkpt lat="42.9719790" lon="-5.9976080">
        <ele>1213.2</ele>
        <time>2021-10-10T16:52:55Z</time>
      </trkpt>
      <trkpt lat="42.9719310" lon="-5.9979330">
        <ele>1211.8</ele>
        <time>2021-10-10T16:52:58Z</time>
      </trkpt>
      <trkpt lat="42.9718800" lon="-5.9982690">
        <ele>1210.4</ele>
        <time>2021-10-10T16:53:01Z</time>
      </trkpt>
      <trkpt lat="42.9718630" lon="-5.9983820">
        <ele>1209.8</ele>
        <time>2021-10-10T16:53:02Z</time>
      </trkpt>
      <trkpt lat="42.9718320" lon="-5.9986000">
        <ele>1208.6</ele>
        <time>2021-10-10T16:53:04Z</time>
      </trkpt>
      <trkpt lat="42.9717850" lon="-5.9989220">
        <ele>1207.2</ele>
        <time>2021-10-10T16:53:07Z</time>
      </trkpt>
      <trkpt lat="42.9717500" lon="-5.9991410">
        <ele>1206.2</ele>
        <time>2021-10-10T16:53:09Z</time>
      </trkpt>
      <trkpt lat="42.9716970" lon="-5.9994610">
        <ele>1205.2</ele>
        <time>2021-10-10T16:53:12Z</time>
      </trkpt>
      <trkpt lat="42.9716790" lon="-5.9995640">
        <ele>1204.6</ele>
        <time>2021-10-10T16:53:13Z</time>
      </trkpt>
      <trkpt lat="42.9716600" lon="-5.9996680">
        <ele>1204.0</ele>
        <time>2021-10-10T16:53:14Z</time>
      </trkpt>
      <trkpt lat="42.9716160" lon="-5.9998620">
        <ele>1202.4</ele>
        <time>2021-10-10T16:53:16Z</time>
      </trkpt>
      <trkpt lat="42.9715660" lon="-6.0000410">
        <ele>1201.6</ele>
        <time>2021-10-10T16:53:18Z</time>
      </trkpt>
      <trkpt lat="42.9715440" lon="-6.0001120">
        <ele>1201.4</ele>
        <time>2021-10-10T16:53:19Z</time>
      </trkpt>
      <trkpt lat="42.9715030" lon="-6.0002480">
        <ele>1199.6</ele>
        <time>2021-10-10T16:53:22Z</time>
      </trkpt>
      <trkpt lat="42.9714810" lon="-6.0002950">
        <ele>1198.4</ele>
        <time>2021-10-10T16:53:24Z</time>
      </trkpt>
      <trkpt lat="42.9714640" lon="-6.0003200">
        <ele>1197.4</ele>
        <time>2021-10-10T16:53:26Z</time>
      </trkpt>
      <trkpt lat="42.9714540" lon="-6.0003290">
        <ele>1197.0</ele>
        <time>2021-10-10T16:53:27Z</time>
      </trkpt>
      <trkpt lat="42.9714450" lon="-6.0003380">
        <ele>1196.4</ele>
        <time>2021-10-10T16:53:31Z</time>
      </trkpt>
      <trkpt lat="42.9714370" lon="-6.0004310">
        <ele>1195.8</ele>
        <time>2021-10-10T16:54:05Z</time>
      </trkpt>
      <trkpt lat="42.9714460" lon="-6.0004640">
        <ele>1195.8</ele>
        <time>2021-10-10T16:54:06Z</time>
      </trkpt>
      <trkpt lat="42.9715070" lon="-6.0005620">
        <ele>1196.0</ele>
        <time>2021-10-10T16:54:09Z</time>
      </trkpt>
      <trkpt lat="42.9716740" lon="-6.0007480">
        <ele>1196.4</ele>
        <time>2021-10-10T16:54:16Z</time>
      </trkpt>
      <trkpt lat="42.9717050" lon="-6.0007590">
        <ele>1196.4</ele>
        <time>2021-10-10T16:54:17Z</time>
      </trkpt>
      <trkpt lat="42.9717900" lon="-6.0007660">
        <ele>1196.4</ele>
        <time>2021-10-10T16:54:21Z</time>
      </trkpt>
      <trkpt lat="42.9717900" lon="-6.0007660">
        <ele>1196.2</ele>
        <time>2021-10-10T16:54:22Z</time>
      </trkpt>
      <trkpt lat="42.9718500" lon="-6.0007670">
        <ele>1196.0</ele>
        <time>2021-10-10T16:54:35Z</time>
      </trkpt>
      <trkpt lat="42.9718680" lon="-6.0007660">
        <ele>1196.0</ele>
        <time>2021-10-10T16:54:36Z</time>
      </trkpt>
      <trkpt lat="42.9719110" lon="-6.0007670">
        <ele>1196.2</ele>
        <time>2021-10-10T16:54:38Z</time>
      </trkpt>
      <trkpt lat="42.9721130" lon="-6.0007150">
        <ele>1196.4</ele>
        <time>2021-10-10T16:54:45Z</time>
      </trkpt>
      <trkpt lat="42.9722240" lon="-6.0006920">
        <ele>1196.6</ele>
        <time>2021-10-10T16:54:51Z</time>
      </trkpt>
      <trkpt lat="42.9722610" lon="-6.0006910">
        <ele>1196.6</ele>
        <time>2021-10-10T16:54:54Z</time>
      </trkpt>
      <trkpt lat="42.9722940" lon="-6.0006890">
        <ele>1196.8</ele>
        <time>2021-10-10T16:54:56Z</time>
      </trkpt>
      <trkpt lat="42.9723090" lon="-6.0006880">
        <ele>1196.8</ele>
        <time>2021-10-10T16:54:57Z</time>
      </trkpt>
      <trkpt lat="42.9723410" lon="-6.0006880">
        <ele>1197.0</ele>
        <time>2021-10-10T16:54:59Z</time>
      </trkpt>
      <trkpt lat="42.9723880" lon="-6.0006950">
        <ele>1197.2</ele>
        <time>2021-10-10T16:55:01Z</time>
      </trkpt>
      <trkpt lat="42.9724680" lon="-6.0007000">
        <ele>1197.2</ele>
        <time>2021-10-10T16:55:04Z</time>
      </trkpt>
      <trkpt lat="42.9725790" lon="-6.0006790">
        <ele>1197.4</ele>
        <time>2021-10-10T16:55:08Z</time>
      </trkpt>
      <trkpt lat="42.9726840" lon="-6.0006680">
        <ele>1197.8</ele>
        <time>2021-10-10T16:55:12Z</time>
      </trkpt>
      <trkpt lat="42.9727610" lon="-6.0006670">
        <ele>1198.0</ele>
        <time>2021-10-10T16:55:15Z</time>
      </trkpt>
      <trkpt lat="42.9728280" lon="-6.0006740">
        <ele>1198.0</ele>
        <time>2021-10-10T16:55:18Z</time>
      </trkpt>
      <trkpt lat="42.9728620" lon="-6.0006850">
        <ele>1198.0</ele>
        <time>2021-10-10T16:55:20Z</time>
      </trkpt>
      <trkpt lat="42.9728790" lon="-6.0006890">
        <ele>1198.0</ele>
        <time>2021-10-10T16:55:21Z</time>
      </trkpt>
      <trkpt lat="42.9729090" lon="-6.0007000">
        <ele>1198.0</ele>
        <time>2021-10-10T16:55:23Z</time>
      </trkpt>
      <trkpt lat="42.9729130" lon="-6.0007370">
        <ele>1198.0</ele>
        <time>2021-10-10T16:55:25Z</time>
      </trkpt>
      <trkpt lat="42.9728710" lon="-6.0007530">
        <ele>1198.0</ele>
        <time>2021-10-10T16:55:27Z</time>
      </trkpt>
      <trkpt lat="42.9728200" lon="-6.0007430">
        <ele>1198.0</ele>
        <time>2021-10-10T16:55:29Z</time>
      </trkpt>
      <trkpt lat="42.9726190" lon="-6.0007120">
        <ele>1198.0</ele>
        <time>2021-10-10T16:55:35Z</time>
      </trkpt>
      <trkpt lat="42.9724060" lon="-6.0006860">
        <ele>1197.8</ele>
        <time>2021-10-10T16:55:40Z</time>
      </trkpt>
      <trkpt lat="42.9723630" lon="-6.0006910">
        <ele>1197.6</ele>
        <time>2021-10-10T16:55:41Z</time>
      </trkpt>
      <trkpt lat="42.9722210" lon="-6.0007190">
        <ele>1197.4</ele>
        <time>2021-10-10T16:55:44Z</time>
      </trkpt>
      <trkpt lat="42.9721270" lon="-6.0007330">
        <ele>1197.4</ele>
        <time>2021-10-10T16:55:46Z</time>
      </trkpt>
      <trkpt lat="42.9719220" lon="-6.0007960">
        <ele>1196.8</ele>
        <time>2021-10-10T16:55:51Z</time>
      </trkpt>
      <trkpt lat="42.9718780" lon="-6.0008100">
        <ele>1196.8</ele>
        <time>2021-10-10T16:55:53Z</time>
      </trkpt>
      <trkpt lat="42.9718300" lon="-6.0008510">
        <ele>1196.8</ele>
        <time>2021-10-10T16:55:56Z</time>
      </trkpt>
      <trkpt lat="42.9718260" lon="-6.0008780">
        <ele>1196.8</ele>
        <time>2021-10-10T16:55:57Z</time>
      </trkpt>
      <trkpt lat="42.9718300" lon="-6.0009070">
        <ele>1196.8</ele>
        <time>2021-10-10T16:55:58Z</time>
      </trkpt>
      <trkpt lat="42.9718680" lon="-6.0009950">
        <ele>1196.6</ele>
        <time>2021-10-10T16:56:01Z</time>
      </trkpt>
      <trkpt lat="42.9718880" lon="-6.0010290">
        <ele>1196.6</ele>
        <time>2021-10-10T16:56:02Z</time>
      </trkpt>
      <trkpt lat="42.9719600" lon="-6.0012230">
        <ele>1196.2</ele>
        <time>2021-10-10T16:56:07Z</time>
      </trkpt>
      <trkpt lat="42.9720630" lon="-6.0015630">
        <ele>1195.6</ele>
        <time>2021-10-10T16:56:16Z</time>
      </trkpt>
      <trkpt lat="42.9720830" lon="-6.0015930">
        <ele>1195.6</ele>
        <time>2021-10-10T16:56:17Z</time>
      </trkpt>
      <trkpt lat="42.9721100" lon="-6.0016320">
        <ele>1195.8</ele>
        <time>2021-10-10T16:56:19Z</time>
      </trkpt>
      <trkpt lat="42.9721330" lon="-6.0016570">
        <ele>1195.6</ele>
        <time>2021-10-10T16:56:21Z</time>
      </trkpt>
      <trkpt lat="42.9721870" lon="-6.0016770">
        <ele>1195.6</ele>
        <time>2021-10-10T16:56:25Z</time>
      </trkpt>
      <trkpt lat="42.9722200" lon="-6.0016790">
        <ele>1195.6</ele>
        <time>2021-10-10T16:56:27Z</time>
      </trkpt>
      <trkpt lat="42.9722510" lon="-6.0016890">
        <ele>1195.6</ele>
        <time>2021-10-10T16:56:30Z</time>
      </trkpt>
      <trkpt lat="42.9722790" lon="-6.0016830">
        <ele>1195.8</ele>
        <time>2021-10-10T16:56:32Z</time>
      </trkpt>
      <trkpt lat="42.9722990" lon="-6.0016660">
        <ele>1195.8</ele>
        <time>2021-10-10T16:56:34Z</time>
      </trkpt>
      <trkpt lat="42.9723840" lon="-6.0015530">
        <ele>1196.6</ele>
        <time>2021-10-10T16:56:43Z</time>
      </trkpt>
      <trkpt lat="42.9724000" lon="-6.0015350">
        <ele>1196.6</ele>
        <time>2021-10-10T16:56:44Z</time>
      </trkpt>
      <trkpt lat="42.9724180" lon="-6.0015090">
        <ele>1196.8</ele>
        <time>2021-10-10T16:56:45Z</time>
      </trkpt>
      <trkpt lat="42.9724560" lon="-6.0014630">
        <ele>1197.0</ele>
        <time>2021-10-10T16:56:48Z</time>
      </trkpt>
      <trkpt lat="42.9724850" lon="-6.0014110">
        <ele>1197.2</ele>
        <time>2021-10-10T16:56:50Z</time>
      </trkpt>
      <trkpt lat="42.9725210" lon="-6.0013590">
        <ele>1197.8</ele>
        <time>2021-10-10T16:56:54Z</time>
      </trkpt>
      <trkpt lat="42.9725300" lon="-6.0013510">
        <ele>1197.8</ele>
        <time>2021-10-10T16:56:55Z</time>
      </trkpt>
      <trkpt lat="42.9725350" lon="-6.0013490">
        <ele>1198.0</ele>
        <time>2021-10-10T16:56:58Z</time>
      </trkpt>
      <trkpt lat="42.9725780" lon="-6.0013140">
        <ele>1198.4</ele>
        <time>2021-10-10T16:57:18Z</time>
      </trkpt>
      <trkpt lat="42.9725970" lon="-6.0013020">
        <ele>1198.4</ele>
        <time>2021-10-10T16:57:19Z</time>
      </trkpt>
      <trkpt lat="42.9726980" lon="-6.0011750">
        <ele>1198.6</ele>
        <time>2021-10-10T16:57:25Z</time>
      </trkpt>
      <trkpt lat="42.9728010" lon="-6.0010500">
        <ele>1198.8</ele>
        <time>2021-10-10T16:57:32Z</time>
      </trkpt>
      <trkpt lat="42.9728360" lon="-6.0010230">
        <ele>1198.8</ele>
        <time>2021-10-10T16:57:34Z</time>
      </trkpt>
      <trkpt lat="42.9728840" lon="-6.0009620">
        <ele>1199.0</ele>
        <time>2021-10-10T16:57:38Z</time>
      </trkpt>
      <trkpt lat="42.9729030" lon="-6.0009220">
        <ele>1199.0</ele>
        <time>2021-10-10T16:57:40Z</time>
      </trkpt>
      <trkpt lat="42.9729430" lon="-6.0008140">
        <ele>1199.0</ele>
        <time>2021-10-10T16:57:45Z</time>
      </trkpt>
      <trkpt lat="42.9729440" lon="-6.0008110">
        <ele>1198.8</ele>
        <time>2021-10-10T16:57:48Z</time>
      </trkpt>
      <trkpt lat="42.9729850" lon="-6.0007740">
        <ele>1198.2</ele>
        <time>2021-10-10T16:57:56Z</time>
      </trkpt>
      <trkpt lat="42.9730040" lon="-6.0007660">
        <ele>1198.2</ele>
        <time>2021-10-10T16:57:57Z</time>
      </trkpt>
      <trkpt lat="42.9730720" lon="-6.0007580">
        <ele>1198.6</ele>
        <time>2021-10-10T16:58:02Z</time>
      </trkpt>
      <trkpt lat="42.9730720" lon="-6.0007580">
        <ele>1198.6</ele>
        <time>2021-10-10T16:58:03Z</time>
      </trkpt>
      <trkpt lat="42.9729500" lon="-6.0008710">
        <ele>1182.6</ele>
        <time>2021-10-11T08:37:59Z</time>
      </trkpt>
      <trkpt lat="42.9729500" lon="-6.0008710">
        <ele>1183.4</ele>
        <time>2021-10-11T08:38:00Z</time>
      </trkpt>
      <trkpt lat="42.9727070" lon="-6.0007910">
        <ele>1182.6</ele>
        <time>2021-10-11T08:38:06Z</time>
      </trkpt>
      <trkpt lat="42.9725380" lon="-6.0007430">
        <ele>1182.4</ele>
        <time>2021-10-11T08:38:10Z</time>
      </trkpt>
      <trkpt lat="42.9724090" lon="-6.0007130">
        <ele>1182.6</ele>
        <time>2021-10-11T08:38:13Z</time>
      </trkpt>
      <trkpt lat="42.9722330" lon="-6.0007520">
        <ele>1182.2</ele>
        <time>2021-10-11T08:38:17Z</time>
      </trkpt>
      <trkpt lat="42.9721750" lon="-6.0007620">
        <ele>1182.2</ele>
        <time>2021-10-11T08:38:18Z</time>
      </trkpt>
      <trkpt lat="42.9721260" lon="-6.0007620">
        <ele>1182.2</ele>
        <time>2021-10-11T08:38:19Z</time>
      </trkpt>
      <trkpt lat="42.9720800" lon="-6.0007760">
        <ele>1182.2</ele>
        <time>2021-10-11T08:38:20Z</time>
      </trkpt>
      <trkpt lat="42.9719900" lon="-6.0008100">
        <ele>1181.8</ele>
        <time>2021-10-11T08:38:22Z</time>
      </trkpt>
      <trkpt lat="42.9719430" lon="-6.0008230">
        <ele>1181.8</ele>
        <time>2021-10-11T08:38:23Z</time>
      </trkpt>
      <trkpt lat="42.9717900" lon="-6.0008440">
        <ele>1181.6</ele>
        <time>2021-10-11T08:38:27Z</time>
      </trkpt>
      <trkpt lat="42.9717130" lon="-6.0008270">
        <ele>1181.4</ele>
        <time>2021-10-11T08:38:29Z</time>
      </trkpt>
      <trkpt lat="42.9715990" lon="-6.0007690">
        <ele>1181.4</ele>
        <time>2021-10-11T08:38:32Z</time>
      </trkpt>
      <trkpt lat="42.9715110" lon="-6.0006850">
        <ele>1181.2</ele>
        <time>2021-10-11T08:38:35Z</time>
      </trkpt>
      <trkpt lat="42.9714720" lon="-6.0006130">
        <ele>1181.2</ele>
        <time>2021-10-11T08:38:37Z</time>
      </trkpt>
      <trkpt lat="42.9714080" lon="-6.0004850">
        <ele>1181.0</ele>
        <time>2021-10-11T08:38:41Z</time>
      </trkpt>
      <trkpt lat="42.9713890" lon="-6.0004750">
        <ele>1181.0</ele>
        <time>2021-10-11T08:38:42Z</time>
      </trkpt>
      <trkpt lat="42.9713420" lon="-6.0004870">
        <ele>1181.0</ele>
        <time>2021-10-11T08:38:44Z</time>
      </trkpt>
      <trkpt lat="42.9712900" lon="-6.0005300">
        <ele>1180.6</ele>
        <time>2021-10-11T08:38:48Z</time>
      </trkpt>
      <trkpt lat="42.9712830" lon="-6.0005340">
        <ele>1180.2</ele>
        <time>2021-10-11T08:38:50Z</time>
      </trkpt>
      <trkpt lat="42.9712800" lon="-6.0005340">
        <ele>1179.8</ele>
        <time>2021-10-11T08:38:53Z</time>
      </trkpt>
      <trkpt lat="42.9712250" lon="-6.0005750">
        <ele>1178.8</ele>
        <time>2021-10-11T08:47:04Z</time>
      </trkpt>
      <trkpt lat="42.9712020" lon="-6.0006080">
        <ele>1178.8</ele>
        <time>2021-10-11T08:47:05Z</time>
      </trkpt>
      <trkpt lat="42.9710100" lon="-6.0008750">
        <ele>1178.8</ele>
        <time>2021-10-11T08:47:11Z</time>
      </trkpt>
      <trkpt lat="42.9707670" lon="-6.0011220">
        <ele>1178.4</ele>
        <time>2021-10-11T08:47:17Z</time>
      </trkpt>
      <trkpt lat="42.9707220" lon="-6.0011860">
        <ele>1178.2</ele>
        <time>2021-10-11T08:47:18Z</time>
      </trkpt>
      <trkpt lat="42.9706320" lon="-6.0012920">
        <ele>1178.2</ele>
        <time>2021-10-11T08:47:20Z</time>
      </trkpt>
      <trkpt lat="42.9705890" lon="-6.0013330">
        <ele>1178.2</ele>
        <time>2021-10-11T08:47:21Z</time>
      </trkpt>
      <trkpt lat="42.9705200" lon="-6.0013730">
        <ele>1178.0</ele>
        <time>2021-10-11T08:47:22Z</time>
      </trkpt>
      <trkpt lat="42.9704020" lon="-6.0014240">
        <ele>1177.8</ele>
        <time>2021-10-11T08:47:24Z</time>
      </trkpt>
      <trkpt lat="42.9702970" lon="-6.0014620">
        <ele>1177.6</ele>
        <time>2021-10-11T08:47:26Z</time>
      </trkpt>
      <trkpt lat="42.9700170" lon="-6.0015750">
        <ele>1177.2</ele>
        <time>2021-10-11T08:47:31Z</time>
      </trkpt>
      <trkpt lat="42.9698130" lon="-6.0016660">
        <ele>1176.8</ele>
        <time>2021-10-11T08:47:35Z</time>
      </trkpt>
      <trkpt lat="42.9696600" lon="-6.0017330">
        <ele>1176.6</ele>
        <time>2021-10-11T08:47:38Z</time>
      </trkpt>
      <trkpt lat="42.9692980" lon="-6.0018900">
        <ele>1175.8</ele>
        <time>2021-10-11T08:47:45Z</time>
      </trkpt>
      <trkpt lat="42.9692440" lon="-6.0019110">
        <ele>1175.8</ele>
        <time>2021-10-11T08:47:46Z</time>
      </trkpt>
      <trkpt lat="42.9690800" lon="-6.0019720">
        <ele>1175.6</ele>
        <time>2021-10-11T08:47:49Z</time>
      </trkpt>
      <trkpt lat="42.9689700" lon="-6.0020140">
        <ele>1175.6</ele>
        <time>2021-10-11T08:47:51Z</time>
      </trkpt>
      <trkpt lat="42.9689120" lon="-6.0020360">
        <ele>1175.6</ele>
        <time>2021-10-11T08:47:52Z</time>
      </trkpt>
      <trkpt lat="42.9685640" lon="-6.0021840">
        <ele>1175.0</ele>
        <time>2021-10-11T08:47:58Z</time>
      </trkpt>
      <trkpt lat="42.9682660" lon="-6.0023060">
        <ele>1174.6</ele>
        <time>2021-10-11T08:48:03Z</time>
      </trkpt>
      <trkpt lat="42.9680270" lon="-6.0024130">
        <ele>1174.0</ele>
        <time>2021-10-11T08:48:07Z</time>
      </trkpt>
      <trkpt lat="42.9678080" lon="-6.0025010">
        <ele>1173.8</ele>
        <time>2021-10-11T08:48:11Z</time>
      </trkpt>
      <trkpt lat="42.9677500" lon="-6.0025270">
        <ele>1173.6</ele>
        <time>2021-10-11T08:48:12Z</time>
      </trkpt>
      <trkpt lat="42.9676190" lon="-6.0025860">
        <ele>1173.4</ele>
        <time>2021-10-11T08:48:14Z</time>
      </trkpt>
      <trkpt lat="42.9675150" lon="-6.0026370">
        <ele>1173.0</ele>
        <time>2021-10-11T08:48:16Z</time>
      </trkpt>
      <trkpt lat="42.9671510" lon="-6.0028010">
        <ele>1172.4</ele>
        <time>2021-10-11T08:48:22Z</time>
      </trkpt>
      <trkpt lat="42.9668900" lon="-6.0029090">
        <ele>1172.0</ele>
        <time>2021-10-11T08:48:26Z</time>
      </trkpt>
      <trkpt lat="42.9665300" lon="-6.0030520">
        <ele>1171.4</ele>
        <time>2021-10-11T08:48:32Z</time>
      </trkpt>
      <trkpt lat="42.9664590" lon="-6.0030800">
        <ele>1171.2</ele>
        <time>2021-10-11T08:48:33Z</time>
      </trkpt>
      <trkpt lat="42.9664130" lon="-6.0030960">
        <ele>1171.2</ele>
        <time>2021-10-11T08:48:34Z</time>
      </trkpt>
      <trkpt lat="42.9660610" lon="-6.0031930">
        <ele>1170.4</ele>
        <time>2021-10-11T08:48:40Z</time>
      </trkpt>
      <trkpt lat="42.9659200" lon="-6.0031680">
        <ele>1170.0</ele>
        <time>2021-10-11T08:48:42Z</time>
      </trkpt>
      <trkpt lat="42.9658050" lon="-6.0031220">
        <ele>1170.0</ele>
        <time>2021-10-11T08:48:44Z</time>
      </trkpt>
      <trkpt lat="42.9654930" lon="-6.0029640">
        <ele>1169.4</ele>
        <time>2021-10-11T08:48:49Z</time>
      </trkpt>
      <trkpt lat="42.9653690" lon="-6.0029250">
        <ele>1169.2</ele>
        <time>2021-10-11T08:48:51Z</time>
      </trkpt>
      <trkpt lat="42.9651260" lon="-6.0028800">
        <ele>1169.0</ele>
        <time>2021-10-11T08:48:55Z</time>
      </trkpt>
      <trkpt lat="42.9649960" lon="-6.0028790">
        <ele>1168.8</ele>
        <time>2021-10-11T08:48:57Z</time>
      </trkpt>
      <trkpt lat="42.9645720" lon="-6.0029130">
        <ele>1168.8</ele>
        <time>2021-10-11T08:49:04Z</time>
      </trkpt>
      <trkpt lat="42.9645080" lon="-6.0029180">
        <ele>1168.8</ele>
        <time>2021-10-11T08:49:05Z</time>
      </trkpt>
      <trkpt lat="42.9643210" lon="-6.0029360">
        <ele>1168.8</ele>
        <time>2021-10-11T08:49:08Z</time>
      </trkpt>
      <trkpt lat="42.9640730" lon="-6.0029550">
        <ele>1168.6</ele>
        <time>2021-10-11T08:49:12Z</time>
      </trkpt>
      <trkpt lat="42.9639480" lon="-6.0029670">
        <ele>1168.6</ele>
        <time>2021-10-11T08:49:14Z</time>
      </trkpt>
      <trkpt lat="42.9635760" lon="-6.0029980">
        <ele>1168.2</ele>
        <time>2021-10-11T08:49:20Z</time>
      </trkpt>
      <trkpt lat="42.9635130" lon="-6.0030080">
        <ele>1168.2</ele>
        <time>2021-10-11T08:49:21Z</time>
      </trkpt>
      <trkpt lat="42.9632640" lon="-6.0030270">
        <ele>1167.8</ele>
        <time>2021-10-11T08:49:25Z</time>
      </trkpt>
      <trkpt lat="42.9632020" lon="-6.0030280">
        <ele>1167.8</ele>
        <time>2021-10-11T08:49:26Z</time>
      </trkpt>
      <trkpt lat="42.9626850" lon="-6.0030610">
        <ele>1167.4</ele>
        <time>2021-10-11T08:49:34Z</time>
      </trkpt>
      <trkpt lat="42.9624440" lon="-6.0030840">
        <ele>1167.2</ele>
        <time>2021-10-11T08:49:38Z</time>
      </trkpt>
      <trkpt lat="42.9621080" lon="-6.0030900">
        <ele>1167.0</ele>
        <time>2021-10-11T08:49:43Z</time>
      </trkpt>
      <trkpt lat="42.9619910" lon="-6.0030740">
        <ele>1166.8</ele>
        <time>2021-10-11T08:49:45Z</time>
      </trkpt>
      <trkpt lat="42.9616550" lon="-6.0030360">
        <ele>1166.2</ele>
        <time>2021-10-11T08:49:50Z</time>
      </trkpt>
      <trkpt lat="42.9614570" lon="-6.0030150">
        <ele>1165.8</ele>
        <time>2021-10-11T08:49:53Z</time>
      </trkpt>
      <trkpt lat="42.9610830" lon="-6.0029610">
        <ele>1165.0</ele>
        <time>2021-10-11T08:49:59Z</time>
      </trkpt>
      <trkpt lat="42.9609960" lon="-6.0029440">
        <ele>1164.8</ele>
        <time>2021-10-11T08:50:01Z</time>
      </trkpt>
      <trkpt lat="42.9609420" lon="-6.0029290">
        <ele>1164.8</ele>
        <time>2021-10-11T08:50:03Z</time>
      </trkpt>
      <trkpt lat="42.9609180" lon="-6.0029260">
        <ele>1164.8</ele>
        <time>2021-10-11T08:50:05Z</time>
      </trkpt>
      <trkpt lat="42.9609180" lon="-6.0029260">
        <ele>1164.8</ele>
        <time>2021-10-11T08:50:07Z</time>
      </trkpt>
      <trkpt lat="42.9609020" lon="-6.0029090">
        <ele>1164.4</ele>
        <time>2021-10-11T08:51:07Z</time>
      </trkpt>
      <trkpt lat="42.9608800" lon="-6.0028970">
        <ele>1164.4</ele>
        <time>2021-10-11T08:51:08Z</time>
      </trkpt>
      <trkpt lat="42.9607340" lon="-6.0027980">
        <ele>1164.4</ele>
        <time>2021-10-11T08:51:14Z</time>
      </trkpt>
      <trkpt lat="42.9605250" lon="-6.0026440">
        <ele>1164.2</ele>
        <time>2021-10-11T08:51:21Z</time>
      </trkpt>
      <trkpt lat="42.9604590" lon="-6.0025840">
        <ele>1164.2</ele>
        <time>2021-10-11T08:51:23Z</time>
      </trkpt>
      <trkpt lat="42.9603010" lon="-6.0024570">
        <ele>1164.2</ele>
        <time>2021-10-11T08:51:27Z</time>
      </trkpt>
      <trkpt lat="42.9600760" lon="-6.0022700">
        <ele>1164.0</ele>
        <time>2021-10-11T08:51:32Z</time>
      </trkpt>
      <trkpt lat="42.9597090" lon="-6.0019830">
        <ele>1163.8</ele>
        <time>2021-10-11T08:51:39Z</time>
      </trkpt>
      <trkpt lat="42.9594900" lon="-6.0018100">
        <ele>1163.8</ele>
        <time>2021-10-11T08:51:43Z</time>
      </trkpt>
      <trkpt lat="42.9592000" lon="-6.0016310">
        <ele>1163.4</ele>
        <time>2021-10-11T08:51:48Z</time>
      </trkpt>
      <trkpt lat="42.9587870" lon="-6.0014170">
        <ele>1163.0</ele>
        <time>2021-10-11T08:51:55Z</time>
      </trkpt>
      <trkpt lat="42.9582270" lon="-6.0012740">
        <ele>1162.8</ele>
        <time>2021-10-11T08:52:04Z</time>
      </trkpt>
      <trkpt lat="42.9581610" lon="-6.0012720">
        <ele>1162.8</ele>
        <time>2021-10-11T08:52:05Z</time>
      </trkpt>
      <trkpt lat="42.9578150" lon="-6.0013110">
        <ele>1162.2</ele>
        <time>2021-10-11T08:52:10Z</time>
      </trkpt>
      <trkpt lat="42.9575720" lon="-6.0013820">
        <ele>1161.8</ele>
        <time>2021-10-11T08:52:14Z</time>
      </trkpt>
      <trkpt lat="42.9574490" lon="-6.0014360">
        <ele>1161.6</ele>
        <time>2021-10-11T08:52:16Z</time>
      </trkpt>
      <trkpt lat="42.9573880" lon="-6.0014680">
        <ele>1161.6</ele>
        <time>2021-10-11T08:52:17Z</time>
      </trkpt>
      <trkpt lat="42.9569400" lon="-6.0016760">
        <ele>1161.2</ele>
        <time>2021-10-11T08:52:24Z</time>
      </trkpt>
      <trkpt lat="42.9565700" lon="-6.0018520">
        <ele>1160.8</ele>
        <time>2021-10-11T08:52:30Z</time>
      </trkpt>
      <trkpt lat="42.9565200" lon="-6.0018770">
        <ele>1160.8</ele>
        <time>2021-10-11T08:52:31Z</time>
      </trkpt>
      <trkpt lat="42.9564540" lon="-6.0019080">
        <ele>1160.4</ele>
        <time>2021-10-11T08:52:32Z</time>
      </trkpt>
      <trkpt lat="42.9563100" lon="-6.0019720">
        <ele>1160.2</ele>
        <time>2021-10-11T08:52:34Z</time>
      </trkpt>
      <trkpt lat="42.9562440" lon="-6.0020020">
        <ele>1160.2</ele>
        <time>2021-10-11T08:52:35Z</time>
      </trkpt>
      <trkpt lat="42.9560040" lon="-6.0021090">
        <ele>1159.4</ele>
        <time>2021-10-11T08:52:39Z</time>
      </trkpt>
      <trkpt lat="42.9558770" lon="-6.0021640">
        <ele>1159.2</ele>
        <time>2021-10-11T08:52:41Z</time>
      </trkpt>
      <trkpt lat="42.9556270" lon="-6.0022740">
        <ele>1159.0</ele>
        <time>2021-10-11T08:52:45Z</time>
      </trkpt>
      <trkpt lat="42.9554470" lon="-6.0023520">
        <ele>1159.0</ele>
        <time>2021-10-11T08:52:48Z</time>
      </trkpt>
      <trkpt lat="42.9552000" lon="-6.0024610">
        <ele>1158.8</ele>
        <time>2021-10-11T08:52:52Z</time>
      </trkpt>
      <trkpt lat="42.9548500" lon="-6.0026200">
        <ele>1159.0</ele>
        <time>2021-10-11T08:52:58Z</time>
      </trkpt>
      <trkpt lat="42.9547920" lon="-6.0026450">
        <ele>1159.0</ele>
        <time>2021-10-11T08:52:59Z</time>
      </trkpt>
      <trkpt lat="42.9547330" lon="-6.0026640">
        <ele>1159.0</ele>
        <time>2021-10-11T08:53:00Z</time>
      </trkpt>
      <trkpt lat="42.9542390" lon="-6.0027890">
        <ele>1158.6</ele>
        <time>2021-10-11T08:53:08Z</time>
      </trkpt>
      <trkpt lat="42.9541080" lon="-6.0027940">
        <ele>1158.4</ele>
        <time>2021-10-11T08:53:10Z</time>
      </trkpt>
      <trkpt lat="42.9537640" lon="-6.0027430">
        <ele>1157.8</ele>
        <time>2021-10-11T08:53:15Z</time>
      </trkpt>
      <trkpt lat="42.9535880" lon="-6.0027000">
        <ele>1157.6</ele>
        <time>2021-10-11T08:53:18Z</time>
      </trkpt>
      <trkpt lat="42.9533470" lon="-6.0026460">
        <ele>1157.2</ele>
        <time>2021-10-11T08:53:22Z</time>
      </trkpt>
      <trkpt lat="42.9532850" lon="-6.0026300">
        <ele>1157.2</ele>
        <time>2021-10-11T08:53:23Z</time>
      </trkpt>
      <trkpt lat="42.9529280" lon="-6.0025670">
        <ele>1156.8</ele>
        <time>2021-10-11T08:53:29Z</time>
      </trkpt>
      <trkpt lat="42.9528480" lon="-6.0025680">
        <ele>1156.8</ele>
        <time>2021-10-11T08:53:30Z</time>
      </trkpt>
      <trkpt lat="42.9527760" lon="-6.0025730">
        <ele>1156.8</ele>
        <time>2021-10-11T08:53:31Z</time>
      </trkpt>
      <trkpt lat="42.9525030" lon="-6.0026160">
        <ele>1156.4</ele>
        <time>2021-10-11T08:53:35Z</time>
      </trkpt>
      <trkpt lat="42.9524170" lon="-6.0026330">
        <ele>1156.2</ele>
        <time>2021-10-11T08:53:36Z</time>
      </trkpt>
      <trkpt lat="42.9521460" lon="-6.0027030">
        <ele>1155.0</ele>
        <time>2021-10-11T08:53:40Z</time>
      </trkpt>
      <trkpt lat="42.9518900" lon="-6.0027570">
        <ele>1154.2</ele>
        <time>2021-10-11T08:53:44Z</time>
      </trkpt>
      <trkpt lat="42.9514640" lon="-6.0028640">
        <ele>1154.0</ele>
        <time>2021-10-11T08:53:51Z</time>
      </trkpt>
      <trkpt lat="42.9510510" lon="-6.0028070">
        <ele>1153.8</ele>
        <time>2021-10-11T08:53:58Z</time>
      </trkpt>
      <trkpt lat="42.9509170" lon="-6.0027580">
        <ele>1153.8</ele>
        <time>2021-10-11T08:54:00Z</time>
      </trkpt>
      <trkpt lat="42.9505630" lon="-6.0025710">
        <ele>1153.0</ele>
        <time>2021-10-11T08:54:06Z</time>
      </trkpt>
      <trkpt lat="42.9504440" lon="-6.0025100">
        <ele>1152.8</ele>
        <time>2021-10-11T08:54:08Z</time>
      </trkpt>
      <trkpt lat="42.9503980" lon="-6.0024840">
        <ele>1152.8</ele>
        <time>2021-10-11T08:54:09Z</time>
      </trkpt>
      <trkpt lat="42.9503310" lon="-6.0024410">
        <ele>1152.6</ele>
        <time>2021-10-11T08:54:10Z</time>
      </trkpt>
      <trkpt lat="42.9501030" lon="-6.0022930">
        <ele>1152.2</ele>
        <time>2021-10-11T08:54:14Z</time>
      </trkpt>
      <trkpt lat="42.9498280" lon="-6.0020720">
        <ele>1151.6</ele>
        <time>2021-10-11T08:54:19Z</time>
      </trkpt>
      <trkpt lat="42.9494810" lon="-6.0017300">
        <ele>1151.4</ele>
        <time>2021-10-11T08:54:26Z</time>
      </trkpt>
      <trkpt lat="42.9493220" lon="-6.0015620">
        <ele>1151.6</ele>
        <time>2021-10-11T08:54:30Z</time>
      </trkpt>
      <trkpt lat="42.9491420" lon="-6.0013170">
        <ele>1152.4</ele>
        <time>2021-10-11T08:54:36Z</time>
      </trkpt>
      <trkpt lat="42.9490950" lon="-6.0012250">
        <ele>1152.6</ele>
        <time>2021-10-11T08:54:38Z</time>
      </trkpt>
      <trkpt lat="42.9490730" lon="-6.0011710">
        <ele>1152.6</ele>
        <time>2021-10-11T08:54:39Z</time>
      </trkpt>
      <trkpt lat="42.9490090" lon="-6.0010280">
        <ele>1152.6</ele>
        <time>2021-10-11T08:54:42Z</time>
      </trkpt>
      <trkpt lat="42.9489660" lon="-6.0009530">
        <ele>1152.6</ele>
        <time>2021-10-11T08:54:44Z</time>
      </trkpt>
      <trkpt lat="42.9489110" lon="-6.0008590">
        <ele>1152.0</ele>
        <time>2021-10-11T08:54:47Z</time>
      </trkpt>
      <trkpt lat="42.9488630" lon="-6.0007510">
        <ele>1151.4</ele>
        <time>2021-10-11T08:54:50Z</time>
      </trkpt>
      <trkpt lat="42.9487740" lon="-6.0005830">
        <ele>1151.0</ele>
        <time>2021-10-11T08:54:57Z</time>
      </trkpt>
      <trkpt lat="42.9487300" lon="-6.0004720">
        <ele>1150.6</ele>
        <time>2021-10-11T08:55:01Z</time>
      </trkpt>
      <trkpt lat="42.9486970" lon="-6.0004160">
        <ele>1150.6</ele>
        <time>2021-10-11T08:55:03Z</time>
      </trkpt>
      <trkpt lat="42.9485810" lon="-6.0002590">
        <ele>1150.6</ele>
        <time>2021-10-11T08:55:08Z</time>
      </trkpt>
      <trkpt lat="42.9485520" lon="-6.0002380">
        <ele>1150.6</ele>
        <time>2021-10-11T08:55:09Z</time>
      </trkpt>
      <trkpt lat="42.9484320" lon="-6.0001770">
        <ele>1151.0</ele>
        <time>2021-10-11T08:55:14Z</time>
      </trkpt>
      <trkpt lat="42.9484140" lon="-6.0001730">
        <ele>1151.2</ele>
        <time>2021-10-11T08:55:15Z</time>
      </trkpt>
      <trkpt lat="42.9482960" lon="-6.0000630">
        <ele>1151.4</ele>
        <time>2021-10-11T08:55:21Z</time>
      </trkpt>
      <trkpt lat="42.9482270" lon="-5.9997500">
        <ele>1151.4</ele>
        <time>2021-10-11T08:55:26Z</time>
      </trkpt>
      <trkpt lat="42.9480850" lon="-5.9992950">
        <ele>1150.8</ele>
        <time>2021-10-11T08:55:33Z</time>
      </trkpt>
      <trkpt lat="42.9478950" lon="-5.9988980">
        <ele>1150.0</ele>
        <time>2021-10-11T08:55:39Z</time>
      </trkpt>
      <trkpt lat="42.9477750" lon="-5.9987090">
        <ele>1149.6</ele>
        <time>2021-10-11T08:55:42Z</time>
      </trkpt>
      <trkpt lat="42.9476530" lon="-5.9985160">
        <ele>1149.2</ele>
        <time>2021-10-11T08:55:45Z</time>
      </trkpt>
      <trkpt lat="42.9474890" lon="-5.9982660">
        <ele>1148.8</ele>
        <time>2021-10-11T08:55:49Z</time>
      </trkpt>
      <trkpt lat="42.9474020" lon="-5.9981520">
        <ele>1148.4</ele>
        <time>2021-10-11T08:55:51Z</time>
      </trkpt>
      <trkpt lat="42.9471740" lon="-5.9978750">
        <ele>1148.0</ele>
        <time>2021-10-11T08:55:56Z</time>
      </trkpt>
      <trkpt lat="42.9468940" lon="-5.9975480">
        <ele>1147.6</ele>
        <time>2021-10-11T08:56:02Z</time>
      </trkpt>
      <trkpt lat="42.9468050" lon="-5.9974440">
        <ele>1147.4</ele>
        <time>2021-10-11T08:56:04Z</time>
      </trkpt>
      <trkpt lat="42.9465730" lon="-5.9971760">
        <ele>1146.8</ele>
        <time>2021-10-11T08:56:09Z</time>
      </trkpt>
      <trkpt lat="42.9464800" lon="-5.9970690">
        <ele>1146.6</ele>
        <time>2021-10-11T08:56:11Z</time>
      </trkpt>
      <trkpt lat="42.9463860" lon="-5.9969580">
        <ele>1146.4</ele>
        <time>2021-10-11T08:56:13Z</time>
      </trkpt>
      <trkpt lat="42.9462900" lon="-5.9968490">
        <ele>1146.2</ele>
        <time>2021-10-11T08:56:15Z</time>
      </trkpt>
      <trkpt lat="42.9459570" lon="-5.9964650">
        <ele>1146.0</ele>
        <time>2021-10-11T08:56:22Z</time>
      </trkpt>
      <trkpt lat="42.9456470" lon="-5.9960490">
        <ele>1145.8</ele>
        <time>2021-10-11T08:56:29Z</time>
      </trkpt>
      <trkpt lat="42.9455240" lon="-5.9958650">
        <ele>1145.6</ele>
        <time>2021-10-11T08:56:32Z</time>
      </trkpt>
      <trkpt lat="42.9453960" lon="-5.9956700">
        <ele>1145.2</ele>
        <time>2021-10-11T08:56:35Z</time>
      </trkpt>
      <trkpt lat="42.9450600" lon="-5.9951720">
        <ele>1144.6</ele>
        <time>2021-10-11T08:56:43Z</time>
      </trkpt>
      <trkpt lat="42.9447290" lon="-5.9946830">
        <ele>1144.2</ele>
        <time>2021-10-11T08:56:51Z</time>
      </trkpt>
      <trkpt lat="42.9444700" lon="-5.9943040">
        <ele>1143.4</ele>
        <time>2021-10-11T08:56:57Z</time>
      </trkpt>
      <trkpt lat="42.9443410" lon="-5.9941050">
        <ele>1143.2</ele>
        <time>2021-10-11T08:57:00Z</time>
      </trkpt>
      <trkpt lat="42.9439360" lon="-5.9935010">
        <ele>1142.6</ele>
        <time>2021-10-11T08:57:09Z</time>
      </trkpt>
      <trkpt lat="42.9438910" lon="-5.9934340">
        <ele>1142.6</ele>
        <time>2021-10-11T08:57:10Z</time>
      </trkpt>
      <trkpt lat="42.9437110" lon="-5.9931690">
        <ele>1142.4</ele>
        <time>2021-10-11T08:57:14Z</time>
      </trkpt>
      <trkpt lat="42.9434990" lon="-5.9928400">
        <ele>1142.0</ele>
        <time>2021-10-11T08:57:19Z</time>
      </trkpt>
      <trkpt lat="42.9432260" lon="-5.9924190">
        <ele>1141.8</ele>
        <time>2021-10-11T08:57:26Z</time>
      </trkpt>
      <trkpt lat="42.9430510" lon="-5.9920390">
        <ele>1142.0</ele>
        <time>2021-10-11T08:57:32Z</time>
      </trkpt>
      <trkpt lat="42.9429780" lon="-5.9917190">
        <ele>1142.2</ele>
        <time>2021-10-11T08:57:36Z</time>
      </trkpt>
      <trkpt lat="42.9429610" lon="-5.9915700">
        <ele>1142.0</ele>
        <time>2021-10-11T08:57:38Z</time>
      </trkpt>
      <trkpt lat="42.9429550" lon="-5.9910260">
        <ele>1141.8</ele>
        <time>2021-10-11T08:57:44Z</time>
      </trkpt>
      <trkpt lat="42.9429600" lon="-5.9907630">
        <ele>1141.6</ele>
        <time>2021-10-11T08:57:47Z</time>
      </trkpt>
      <trkpt lat="42.9429680" lon="-5.9902130">
        <ele>1140.6</ele>
        <time>2021-10-11T08:57:53Z</time>
      </trkpt>
      <trkpt lat="42.9429570" lon="-5.9894920">
        <ele>1139.4</ele>
        <time>2021-10-11T08:58:01Z</time>
      </trkpt>
      <trkpt lat="42.9429460" lon="-5.9893240">
        <ele>1139.4</ele>
        <time>2021-10-11T08:58:03Z</time>
      </trkpt>
      <trkpt lat="42.9428280" lon="-5.9887060">
        <ele>1138.8</ele>
        <time>2021-10-11T08:58:10Z</time>
      </trkpt>
      <trkpt lat="42.9426250" lon="-5.9879820">
        <ele>1138.4</ele>
        <time>2021-10-11T08:58:19Z</time>
      </trkpt>
      <trkpt lat="42.9426020" lon="-5.9878990">
        <ele>1138.4</ele>
        <time>2021-10-11T08:58:20Z</time>
      </trkpt>
      <trkpt lat="42.9425270" lon="-5.9876440">
        <ele>1138.2</ele>
        <time>2021-10-11T08:58:23Z</time>
      </trkpt>
      <trkpt lat="42.9424140" lon="-5.9872450">
        <ele>1138.0</ele>
        <time>2021-10-11T08:58:28Z</time>
      </trkpt>
      <trkpt lat="42.9423750" lon="-5.9871010">
        <ele>1137.8</ele>
        <time>2021-10-11T08:58:30Z</time>
      </trkpt>
      <trkpt lat="42.9421990" lon="-5.9863920">
        <ele>1137.4</ele>
        <time>2021-10-11T08:58:39Z</time>
      </trkpt>
      <trkpt lat="42.9421370" lon="-5.9858200">
        <ele>1136.8</ele>
        <time>2021-10-11T08:58:46Z</time>
      </trkpt>
      <trkpt lat="42.9421480" lon="-5.9852380">
        <ele>1136.8</ele>
        <time>2021-10-11T08:58:53Z</time>
      </trkpt>
      <trkpt lat="42.9422300" lon="-5.9846950">
        <ele>1136.8</ele>
        <time>2021-10-11T08:59:00Z</time>
      </trkpt>
      <trkpt lat="42.9423930" lon="-5.9840520">
        <ele>1136.6</ele>
        <time>2021-10-11T08:59:08Z</time>
      </trkpt>
      <trkpt lat="42.9424150" lon="-5.9839730">
        <ele>1136.6</ele>
        <time>2021-10-11T08:59:09Z</time>
      </trkpt>
      <trkpt lat="42.9425430" lon="-5.9834940">
        <ele>1136.2</ele>
        <time>2021-10-11T08:59:15Z</time>
      </trkpt>
      <trkpt lat="42.9426250" lon="-5.9831820">
        <ele>1136.0</ele>
        <time>2021-10-11T08:59:19Z</time>
      </trkpt>
      <trkpt lat="42.9427640" lon="-5.9825540">
        <ele>1135.8</ele>
        <time>2021-10-11T08:59:27Z</time>
      </trkpt>
      <trkpt lat="42.9428260" lon="-5.9820570">
        <ele>1135.6</ele>
        <time>2021-10-11T08:59:33Z</time>
      </trkpt>
      <trkpt lat="42.9428230" lon="-5.9815300">
        <ele>1135.2</ele>
        <time>2021-10-11T08:59:40Z</time>
      </trkpt>
      <trkpt lat="42.9428220" lon="-5.9813770">
        <ele>1135.2</ele>
        <time>2021-10-11T08:59:42Z</time>
      </trkpt>
      <trkpt lat="42.9427880" lon="-5.9808200">
        <ele>1135.0</ele>
        <time>2021-10-11T08:59:49Z</time>
      </trkpt>
      <trkpt lat="42.9427410" lon="-5.9804080">
        <ele>1134.6</ele>
        <time>2021-10-11T08:59:54Z</time>
      </trkpt>
      <trkpt lat="42.9427050" lon="-5.9802430">
        <ele>1134.6</ele>
        <time>2021-10-11T08:59:56Z</time>
      </trkpt>
      <trkpt lat="42.9425960" lon="-5.9798610">
        <ele>1134.2</ele>
        <time>2021-10-11T09:00:01Z</time>
      </trkpt>
      <trkpt lat="42.9425370" lon="-5.9797100">
        <ele>1134.2</ele>
        <time>2021-10-11T09:00:03Z</time>
      </trkpt>
      <trkpt lat="42.9422430" lon="-5.9790810">
        <ele>1134.0</ele>
        <time>2021-10-11T09:00:12Z</time>
      </trkpt>
      <trkpt lat="42.9421570" lon="-5.9789630">
        <ele>1133.8</ele>
        <time>2021-10-11T09:00:14Z</time>
      </trkpt>
      <trkpt lat="42.9420170" lon="-5.9788140">
        <ele>1133.8</ele>
        <time>2021-10-11T09:00:17Z</time>
      </trkpt>
      <trkpt lat="42.9417340" lon="-5.9785460">
        <ele>1133.6</ele>
        <time>2021-10-11T09:00:23Z</time>
      </trkpt>
      <trkpt lat="42.9413770" lon="-5.9782890">
        <ele>1134.0</ele>
        <time>2021-10-11T09:00:30Z</time>
      </trkpt>
      <trkpt lat="42.9411000" lon="-5.9780500">
        <ele>1135.0</ele>
        <time>2021-10-11T09:00:37Z</time>
      </trkpt>
      <trkpt lat="42.9409730" lon="-5.9779540">
        <ele>1135.4</ele>
        <time>2021-10-11T09:00:40Z</time>
      </trkpt>
      <trkpt lat="42.9407510" lon="-5.9778030">
        <ele>1136.0</ele>
        <time>2021-10-11T09:00:45Z</time>
      </trkpt>
      <trkpt lat="42.9405550" lon="-5.9777210">
        <ele>1136.0</ele>
        <time>2021-10-11T09:00:49Z</time>
      </trkpt>
      <trkpt lat="42.9404870" lon="-5.9777180">
        <ele>1136.0</ele>
        <time>2021-10-11T09:00:50Z</time>
      </trkpt>
      <trkpt lat="42.9403860" lon="-5.9777230">
        <ele>1136.0</ele>
        <time>2021-10-11T09:00:52Z</time>
      </trkpt>
      <trkpt lat="42.9401380" lon="-5.9777820">
        <ele>1135.4</ele>
        <time>2021-10-11T09:00:56Z</time>
      </trkpt>
      <trkpt lat="42.9398260" lon="-5.9779340">
        <ele>1134.6</ele>
        <time>2021-10-11T09:01:01Z</time>
      </trkpt>
      <trkpt lat="42.9397080" lon="-5.9779980">
        <ele>1134.2</ele>
        <time>2021-10-11T09:01:03Z</time>
      </trkpt>
      <trkpt lat="42.9395640" lon="-5.9780700">
        <ele>1133.4</ele>
        <time>2021-10-11T09:01:05Z</time>
      </trkpt>
      <trkpt lat="42.9394480" lon="-5.9781160">
        <ele>1132.8</ele>
        <time>2021-10-11T09:01:07Z</time>
      </trkpt>
      <trkpt lat="42.9393210" lon="-5.9781550">
        <ele>1132.4</ele>
        <time>2021-10-11T09:01:09Z</time>
      </trkpt>
      <trkpt lat="42.9392430" lon="-5.9781640">
        <ele>1132.4</ele>
        <time>2021-10-11T09:01:10Z</time>
      </trkpt>
      <trkpt lat="42.9390690" lon="-5.9781550">
        <ele>1132.4</ele>
        <time>2021-10-11T09:01:13Z</time>
      </trkpt>
      <trkpt lat="42.9387790" lon="-5.9780460">
        <ele>1132.4</ele>
        <time>2021-10-11T09:01:18Z</time>
      </trkpt>
      <trkpt lat="42.9387230" lon="-5.9780180">
        <ele>1132.4</ele>
        <time>2021-10-11T09:01:19Z</time>
      </trkpt>
      <trkpt lat="42.9385620" lon="-5.9778830">
        <ele>1132.4</ele>
        <time>2021-10-11T09:01:22Z</time>
      </trkpt>
      <trkpt lat="42.9383160" lon="-5.9775310">
        <ele>1132.2</ele>
        <time>2021-10-11T09:01:28Z</time>
      </trkpt>
      <trkpt lat="42.9382770" lon="-5.9774500">
        <ele>1132.2</ele>
        <time>2021-10-11T09:01:29Z</time>
      </trkpt>
      <trkpt lat="42.9381800" lon="-5.9771520">
        <ele>1132.2</ele>
        <time>2021-10-11T09:01:33Z</time>
      </trkpt>
      <trkpt lat="42.9381340" lon="-5.9767310">
        <ele>1132.0</ele>
        <time>2021-10-11T09:01:38Z</time>
      </trkpt>
      <trkpt lat="42.9381260" lon="-5.9765690">
        <ele>1131.8</ele>
        <time>2021-10-11T09:01:40Z</time>
      </trkpt>
      <trkpt lat="42.9381190" lon="-5.9761850">
        <ele>1131.4</ele>
        <time>2021-10-11T09:01:45Z</time>
      </trkpt>
      <trkpt lat="42.9381010" lon="-5.9757330">
        <ele>1131.2</ele>
        <time>2021-10-11T09:01:51Z</time>
      </trkpt>
      <trkpt lat="42.9380750" lon="-5.9751340">
        <ele>1131.2</ele>
        <time>2021-10-11T09:01:59Z</time>
      </trkpt>
      <trkpt lat="42.9380320" lon="-5.9747190">
        <ele>1131.2</ele>
        <time>2021-10-11T09:02:04Z</time>
      </trkpt>
      <trkpt lat="42.9379920" lon="-5.9745590">
        <ele>1131.0</ele>
        <time>2021-10-11T09:02:06Z</time>
      </trkpt>
      <trkpt lat="42.9378630" lon="-5.9740870">
        <ele>1130.8</ele>
        <time>2021-10-11T09:02:12Z</time>
      </trkpt>
      <trkpt lat="42.9378520" lon="-5.9740240">
        <ele>1130.8</ele>
        <time>2021-10-11T09:02:13Z</time>
      </trkpt>
      <trkpt lat="42.9378170" lon="-5.9736940">
        <ele>1130.4</ele>
        <time>2021-10-11T09:02:17Z</time>
      </trkpt>
      <trkpt lat="42.9378150" lon="-5.9735410">
        <ele>1130.4</ele>
        <time>2021-10-11T09:02:19Z</time>
      </trkpt>
      <trkpt lat="42.9378770" lon="-5.9731150">
        <ele>1129.8</ele>
        <time>2021-10-11T09:02:25Z</time>
      </trkpt>
      <trkpt lat="42.9378940" lon="-5.9730460">
        <ele>1129.6</ele>
        <time>2021-10-11T09:02:26Z</time>
      </trkpt>
      <trkpt lat="42.9380180" lon="-5.9727040">
        <ele>1129.4</ele>
        <time>2021-10-11T09:02:31Z</time>
      </trkpt>
      <trkpt lat="42.9383030" lon="-5.9720080">
        <ele>1128.6</ele>
        <time>2021-10-11T09:02:41Z</time>
      </trkpt>
      <trkpt lat="42.9383890" lon="-5.9717010">
        <ele>1128.4</ele>
        <time>2021-10-11T09:02:45Z</time>
      </trkpt>
      <trkpt lat="42.9384130" lon="-5.9715360">
        <ele>1128.4</ele>
        <time>2021-10-11T09:02:47Z</time>
      </trkpt>
      <trkpt lat="42.9384220" lon="-5.9714490">
        <ele>1128.2</ele>
        <time>2021-10-11T09:02:48Z</time>
      </trkpt>
      <trkpt lat="42.9384100" lon="-5.9710480">
        <ele>1128.0</ele>
        <time>2021-10-11T09:02:53Z</time>
      </trkpt>
      <trkpt lat="42.9382830" lon="-5.9706010">
        <ele>1128.0</ele>
        <time>2021-10-11T09:02:59Z</time>
      </trkpt>
      <trkpt lat="42.9382220" lon="-5.9704670">
        <ele>1127.8</ele>
        <time>2021-10-11T09:03:01Z</time>
      </trkpt>
      <trkpt lat="42.9381210" lon="-5.9702960">
        <ele>1127.8</ele>
        <time>2021-10-11T09:03:04Z</time>
      </trkpt>
      <trkpt lat="42.9380710" lon="-5.9702250">
        <ele>1127.6</ele>
        <time>2021-10-11T09:03:05Z</time>
      </trkpt>
      <trkpt lat="42.9379880" lon="-5.9701320">
        <ele>1127.4</ele>
        <time>2021-10-11T09:03:07Z</time>
      </trkpt>
      <trkpt lat="42.9378800" lon="-5.9700240">
        <ele>1127.4</ele>
        <time>2021-10-11T09:03:09Z</time>
      </trkpt>
      <trkpt lat="42.9376040" lon="-5.9696980">
        <ele>1127.2</ele>
        <time>2021-10-11T09:03:15Z</time>
      </trkpt>
      <trkpt lat="42.9373200" lon="-5.9693910">
        <ele>1127.0</ele>
        <time>2021-10-11T09:03:21Z</time>
      </trkpt>
      <trkpt lat="42.9372220" lon="-5.9692960">
        <ele>1127.0</ele>
        <time>2021-10-11T09:03:23Z</time>
      </trkpt>
      <trkpt lat="42.9369480" lon="-5.9690220">
        <ele>1126.6</ele>
        <time>2021-10-11T09:03:29Z</time>
      </trkpt>
      <trkpt lat="42.9369110" lon="-5.9689890">
        <ele>1126.4</ele>
        <time>2021-10-11T09:03:30Z</time>
      </trkpt>
      <trkpt lat="42.9366000" lon="-5.9687340">
        <ele>1126.0</ele>
        <time>2021-10-11T09:03:37Z</time>
      </trkpt>
      <trkpt lat="42.9363380" lon="-5.9685620">
        <ele>1126.0</ele>
        <time>2021-10-11T09:03:43Z</time>
      </trkpt>
      <trkpt lat="42.9363070" lon="-5.9685490">
        <ele>1126.0</ele>
        <time>2021-10-11T09:03:44Z</time>
      </trkpt>
      <trkpt lat="42.9361970" lon="-5.9684700">
        <ele>1126.0</ele>
        <time>2021-10-11T09:03:47Z</time>
      </trkpt>
      <trkpt lat="42.9360920" lon="-5.9684020">
        <ele>1126.2</ele>
        <time>2021-10-11T09:03:50Z</time>
      </trkpt>
      <trkpt lat="42.9359420" lon="-5.9683560">
        <ele>1126.2</ele>
        <time>2021-10-11T09:03:55Z</time>
      </trkpt>
      <trkpt lat="42.9358640" lon="-5.9684930">
        <ele>1126.2</ele>
        <time>2021-10-11T09:03:59Z</time>
      </trkpt>
      <trkpt lat="42.9357650" lon="-5.9686970">
        <ele>1126.4</ele>
        <time>2021-10-11T09:04:05Z</time>
      </trkpt>
      <trkpt lat="42.9356880" lon="-5.9688040">
        <ele>1126.4</ele>
        <time>2021-10-11T09:04:07Z</time>
      </trkpt>
      <trkpt lat="42.9355910" lon="-5.9688940">
        <ele>1126.2</ele>
        <time>2021-10-11T09:04:09Z</time>
      </trkpt>
      <trkpt lat="42.9354490" lon="-5.9690360">
        <ele>1125.8</ele>
        <time>2021-10-11T09:04:12Z</time>
      </trkpt>
      <trkpt lat="42.9353710" lon="-5.9691130">
        <ele>1125.4</ele>
        <time>2021-10-11T09:04:14Z</time>
      </trkpt>
      <trkpt lat="42.9353130" lon="-5.9691820">
        <ele>1125.2</ele>
        <time>2021-10-11T09:04:16Z</time>
      </trkpt>
      <trkpt lat="42.9352400" lon="-5.9692980">
        <ele>1125.0</ele>
        <time>2021-10-11T09:04:20Z</time>
      </trkpt>
      <trkpt lat="42.9352110" lon="-5.9693420">
        <ele>1125.0</ele>
        <time>2021-10-11T09:04:24Z</time>
      </trkpt>
      <trkpt lat="42.9352110" lon="-5.9693420">
        <ele>1125.2</ele>
        <time>2021-10-11T09:04:25Z</time>
      </trkpt>
      <trkpt lat="42.9351840" lon="-5.9693690">
        <ele>1125.0</ele>
        <time>2021-10-11T09:05:06Z</time>
      </trkpt>
      <trkpt lat="42.9351680" lon="-5.9693860">
        <ele>1125.0</ele>
        <time>2021-10-11T09:05:07Z</time>
      </trkpt>
      <trkpt lat="42.9351340" lon="-5.9694280">
        <ele>1125.0</ele>
        <time>2021-10-11T09:05:09Z</time>
      </trkpt>
      <trkpt lat="42.9350070" lon="-5.9695980">
        <ele>1125.2</ele>
        <time>2021-10-11T09:05:15Z</time>
      </trkpt>
      <trkpt lat="42.9349270" lon="-5.9696970">
        <ele>1125.2</ele>
        <time>2021-10-11T09:05:18Z</time>
      </trkpt>
      <trkpt lat="42.9349010" lon="-5.9697210">
        <ele>1125.2</ele>
        <time>2021-10-11T09:05:19Z</time>
      </trkpt>
      <trkpt lat="42.9348200" lon="-5.9697930">
        <ele>1125.2</ele>
        <time>2021-10-11T09:05:21Z</time>
      </trkpt>
      <trkpt lat="42.9344830" lon="-5.9700420">
        <ele>1125.2</ele>
        <time>2021-10-11T09:05:31Z</time>
      </trkpt>
      <trkpt lat="42.9342840" lon="-5.9702320">
        <ele>1125.2</ele>
        <time>2021-10-11T09:05:38Z</time>
      </trkpt>
      <trkpt lat="42.9341170" lon="-5.9704400">
        <ele>1125.6</ele>
        <time>2021-10-11T09:05:44Z</time>
      </trkpt>
      <trkpt lat="42.9339980" lon="-5.9706320">
        <ele>1126.4</ele>
        <time>2021-10-11T09:05:50Z</time>
      </trkpt>
      <trkpt lat="42.9339690" lon="-5.9706890">
        <ele>1126.6</ele>
        <time>2021-10-11T09:05:52Z</time>
      </trkpt>
      <trkpt lat="42.9339170" lon="-5.9708490">
        <ele>1127.6</ele>
        <time>2021-10-11T09:05:57Z</time>
      </trkpt>
      <trkpt lat="42.9339090" lon="-5.9708750">
        <ele>1127.8</ele>
        <time>2021-10-11T09:05:58Z</time>
      </trkpt>
      <trkpt lat="42.9338760" lon="-5.9709490">
        <ele>1128.6</ele>
        <time>2021-10-11T09:06:02Z</time>
      </trkpt>
      <trkpt lat="42.9338550" lon="-5.9709630">
        <ele>1128.8</ele>
        <time>2021-10-11T09:06:03Z</time>
      </trkpt>
      <trkpt lat="42.9337580" lon="-5.9709970">
        <ele>1129.8</ele>
        <time>2021-10-11T09:06:07Z</time>
      </trkpt>
      <trkpt lat="42.9337100" lon="-5.9710060">
        <ele>1130.4</ele>
        <time>2021-10-11T09:06:09Z</time>
      </trkpt>
      <trkpt lat="42.9336190" lon="-5.9710050">
        <ele>1131.0</ele>
        <time>2021-10-11T09:06:12Z</time>
      </trkpt>
      <trkpt lat="42.9335610" lon="-5.9709960">
        <ele>1131.2</ele>
        <time>2021-10-11T09:06:14Z</time>
      </trkpt>
      <trkpt lat="42.9335020" lon="-5.9709880">
        <ele>1131.4</ele>
        <time>2021-10-11T09:06:16Z</time>
      </trkpt>
      <trkpt lat="42.9334480" lon="-5.9709610">
        <ele>1131.6</ele>
        <time>2021-10-11T09:06:18Z</time>
      </trkpt>
      <trkpt lat="42.9334200" lon="-5.9709490">
        <ele>1131.6</ele>
        <time>2021-10-11T09:06:19Z</time>
      </trkpt>
      <trkpt lat="42.9333400" lon="-5.9709510">
        <ele>1131.6</ele>
        <time>2021-10-11T09:06:21Z</time>
      </trkpt>
      <trkpt lat="42.9332550" lon="-5.9709830">
        <ele>1131.6</ele>
        <time>2021-10-11T09:06:23Z</time>
      </trkpt>
      <trkpt lat="42.9331660" lon="-5.9710220">
        <ele>1131.4</ele>
        <time>2021-10-11T09:06:25Z</time>
      </trkpt>
      <trkpt lat="42.9330730" lon="-5.9710560">
        <ele>1131.2</ele>
        <time>2021-10-11T09:06:27Z</time>
      </trkpt>
      <trkpt lat="42.9329960" lon="-5.9710780">
        <ele>1130.8</ele>
        <time>2021-10-11T09:06:29Z</time>
      </trkpt>
      <trkpt lat="42.9329600" lon="-5.9710860">
        <ele>1130.4</ele>
        <time>2021-10-11T09:06:30Z</time>
      </trkpt>
      <trkpt lat="42.9328940" lon="-5.9710840">
        <ele>1130.0</ele>
        <time>2021-10-11T09:06:33Z</time>
      </trkpt>
      <trkpt lat="42.9328490" lon="-5.9710480">
        <ele>1129.4</ele>
        <time>2021-10-11T09:06:35Z</time>
      </trkpt>
      <trkpt lat="42.9327700" lon="-5.9709670">
        <ele>1128.8</ele>
        <time>2021-10-11T09:06:38Z</time>
      </trkpt>
      <trkpt lat="42.9327260" lon="-5.9709430">
        <ele>1128.0</ele>
        <time>2021-10-11T09:06:40Z</time>
      </trkpt>
      <trkpt lat="42.9327120" lon="-5.9709290">
        <ele>1127.4</ele>
        <time>2021-10-11T09:06:41Z</time>
      </trkpt>
      <trkpt lat="42.9326730" lon="-5.9709040">
        <ele>1126.4</ele>
        <time>2021-10-11T09:06:44Z</time>
      </trkpt>
      <trkpt lat="42.9326680" lon="-5.9708990">
        <ele>1126.0</ele>
        <time>2021-10-11T09:06:45Z</time>
      </trkpt>
      <trkpt lat="42.9326680" lon="-5.9708990">
        <ele>1125.6</ele>
        <time>2021-10-11T09:06:48Z</time>
      </trkpt>
      <trkpt lat="42.9325140" lon="-5.9708250">
        <ele>1125.2</ele>
        <time>2021-10-11T09:07:03Z</time>
      </trkpt>
      <trkpt lat="42.9324840" lon="-5.9708080">
        <ele>1125.0</ele>
        <time>2021-10-11T09:07:04Z</time>
      </trkpt>
      <trkpt lat="42.9322880" lon="-5.9706880">
        <ele>1125.0</ele>
        <time>2021-10-11T09:07:10Z</time>
      </trkpt>
      <trkpt lat="42.9320700" lon="-5.9706080">
        <ele>1124.8</ele>
        <time>2021-10-11T09:07:16Z</time>
      </trkpt>
      <trkpt lat="42.9319040" lon="-5.9704970">
        <ele>1124.8</ele>
        <time>2021-10-11T09:07:22Z</time>
      </trkpt>
      <trkpt lat="42.9317360" lon="-5.9704080">
        <ele>1125.0</ele>
        <time>2021-10-11T09:07:27Z</time>
      </trkpt>
      <trkpt lat="42.9316920" lon="-5.9704070">
        <ele>1125.0</ele>
        <time>2021-10-11T09:07:28Z</time>
      </trkpt>
      <trkpt lat="42.9316010" lon="-5.9704250">
        <ele>1124.8</ele>
        <time>2021-10-11T09:07:30Z</time>
      </trkpt>
      <trkpt lat="42.9315490" lon="-5.9704320">
        <ele>1124.8</ele>
        <time>2021-10-11T09:07:31Z</time>
      </trkpt>
      <trkpt lat="42.9313620" lon="-5.9704390">
        <ele>1124.2</ele>
        <time>2021-10-11T09:07:36Z</time>
      </trkpt>
      <trkpt lat="42.9312300" lon="-5.9704460">
        <ele>1122.8</ele>
        <time>2021-10-11T09:07:40Z</time>
      </trkpt>
      <trkpt lat="42.9311980" lon="-5.9704480">
        <ele>1122.8</ele>
        <time>2021-10-11T09:07:41Z</time>
      </trkpt>
      <trkpt lat="42.9311730" lon="-5.9704490">
        <ele>1122.8</ele>
        <time>2021-10-11T09:07:42Z</time>
      </trkpt>
      <trkpt lat="42.9310410" lon="-5.9705080">
        <ele>1122.8</ele>
        <time>2021-10-11T09:07:47Z</time>
      </trkpt>
      <trkpt lat="42.9309190" lon="-5.9705900">
        <ele>1122.6</ele>
        <time>2021-10-11T09:07:52Z</time>
      </trkpt>
      <trkpt lat="42.9308260" lon="-5.9707400">
        <ele>1122.8</ele>
        <time>2021-10-11T09:07:58Z</time>
      </trkpt>
      <trkpt lat="42.9307720" lon="-5.9708630">
        <ele>1122.8</ele>
        <time>2021-10-11T09:08:03Z</time>
      </trkpt>
      <trkpt lat="42.9306490" lon="-5.9709350">
        <ele>1123.6</ele>
        <time>2021-10-11T09:08:09Z</time>
      </trkpt>
      <trkpt lat="42.9305820" lon="-5.9709560">
        <ele>1124.0</ele>
        <time>2021-10-11T09:08:12Z</time>
      </trkpt>
      <trkpt lat="42.9305120" lon="-5.9709750">
        <ele>1124.2</ele>
        <time>2021-10-11T09:08:16Z</time>
      </trkpt>
      <trkpt lat="42.9304960" lon="-5.9709810">
        <ele>1124.4</ele>
        <time>2021-10-11T09:08:17Z</time>
      </trkpt>
      <trkpt lat="42.9304440" lon="-5.9710100">
        <ele>1125.0</ele>
        <time>2021-10-11T09:08:21Z</time>
      </trkpt>
      <trkpt lat="42.9303900" lon="-5.9710320">
        <ele>1125.6</ele>
        <time>2021-10-11T09:08:24Z</time>
      </trkpt>
      <trkpt lat="42.9303180" lon="-5.9710900">
        <ele>1126.0</ele>
        <time>2021-10-11T09:08:29Z</time>
      </trkpt>
      <trkpt lat="42.9302630" lon="-5.9711420">
        <ele>1126.4</ele>
        <time>2021-10-11T09:08:34Z</time>
      </trkpt>
      <trkpt lat="42.9301730" lon="-5.9712340">
        <ele>1127.0</ele>
        <time>2021-10-11T09:08:40Z</time>
      </trkpt>
      <trkpt lat="42.9301370" lon="-5.9712810">
        <ele>1127.4</ele>
        <time>2021-10-11T09:08:43Z</time>
      </trkpt>
      <trkpt lat="42.9300890" lon="-5.9713160">
        <ele>1128.0</ele>
        <time>2021-10-11T09:08:47Z</time>
      </trkpt>
      <trkpt lat="42.9300390" lon="-5.9713540">
        <ele>1128.8</ele>
        <time>2021-10-11T09:08:51Z</time>
      </trkpt>
      <trkpt lat="42.9300230" lon="-5.9713610">
        <ele>1129.0</ele>
        <time>2021-10-11T09:08:52Z</time>
      </trkpt>
      <trkpt lat="42.9300040" lon="-5.9713710">
        <ele>1129.2</ele>
        <time>2021-10-11T09:08:53Z</time>
      </trkpt>
      <trkpt lat="42.9299400" lon="-5.9714000">
        <ele>1130.0</ele>
        <time>2021-10-11T09:08:59Z</time>
      </trkpt>
      <trkpt lat="42.9299260" lon="-5.9714150">
        <ele>1130.2</ele>
        <time>2021-10-11T09:09:01Z</time>
      </trkpt>
      <trkpt lat="42.9298880" lon="-5.9714470">
        <ele>1130.4</ele>
        <time>2021-10-11T09:09:03Z</time>
      </trkpt>
      <trkpt lat="42.9298590" lon="-5.9714640">
        <ele>1130.6</ele>
        <time>2021-10-11T09:09:05Z</time>
      </trkpt>
      <trkpt lat="42.9298430" lon="-5.9714830">
        <ele>1130.8</ele>
        <time>2021-10-11T09:09:07Z</time>
      </trkpt>
      <trkpt lat="42.9298100" lon="-5.9715010">
        <ele>1130.8</ele>
        <time>2021-10-11T09:09:09Z</time>
      </trkpt>
      <trkpt lat="42.9297890" lon="-5.9715330">
        <ele>1131.2</ele>
        <time>2021-10-11T09:09:11Z</time>
      </trkpt>
      <trkpt lat="42.9297850" lon="-5.9715400">
        <ele>1131.4</ele>
        <time>2021-10-11T09:09:12Z</time>
      </trkpt>
      <trkpt lat="42.9297850" lon="-5.9715400">
        <ele>1131.6</ele>
        <time>2021-10-11T09:09:13Z</time>
      </trkpt>
      <trkpt lat="42.9297810" lon="-5.9715440">
        <ele>1131.8</ele>
        <time>2021-10-11T09:09:14Z</time>
      </trkpt>
      <trkpt lat="42.9292680" lon="-5.9715300">
        <ele>1140.0</ele>
        <time>2021-10-11T09:10:57Z</time>
      </trkpt>
      <trkpt lat="42.9292500" lon="-5.9715080">
        <ele>1140.0</ele>
        <time>2021-10-11T09:10:58Z</time>
      </trkpt>
      <trkpt lat="42.9291730" lon="-5.9713580">
        <ele>1140.0</ele>
        <time>2021-10-11T09:11:03Z</time>
      </trkpt>
      <trkpt lat="42.9291580" lon="-5.9713460">
        <ele>1140.0</ele>
        <time>2021-10-11T09:11:04Z</time>
      </trkpt>
      <trkpt lat="42.9290620" lon="-5.9711770">
        <ele>1139.8</ele>
        <time>2021-10-11T09:11:10Z</time>
      </trkpt>
      <trkpt lat="42.9289960" lon="-5.9710430">
        <ele>1139.6</ele>
        <time>2021-10-11T09:11:13Z</time>
      </trkpt>
      <trkpt lat="42.9289810" lon="-5.9709950">
        <ele>1139.6</ele>
        <time>2021-10-11T09:11:14Z</time>
      </trkpt>
      <trkpt lat="42.9288870" lon="-5.9707320">
        <ele>1138.8</ele>
        <time>2021-10-11T09:11:19Z</time>
      </trkpt>
      <trkpt lat="42.9288610" lon="-5.9706870">
        <ele>1138.8</ele>
        <time>2021-10-11T09:11:20Z</time>
      </trkpt>
      <trkpt lat="42.9287920" lon="-5.9705500">
        <ele>1137.8</ele>
        <time>2021-10-11T09:11:23Z</time>
      </trkpt>
      <trkpt lat="42.9287330" lon="-5.9703700">
        <ele>1137.2</ele>
        <time>2021-10-11T09:11:27Z</time>
      </trkpt>
      <trkpt lat="42.9286590" lon="-5.9701840">
        <ele>1136.6</ele>
        <time>2021-10-11T09:11:32Z</time>
      </trkpt>
      <trkpt lat="42.9285930" lon="-5.9700190">
        <ele>1136.2</ele>
        <time>2021-10-11T09:11:36Z</time>
      </trkpt>
      <trkpt lat="42.9285800" lon="-5.9699790">
        <ele>1136.2</ele>
        <time>2021-10-11T09:11:37Z</time>
      </trkpt>
      <trkpt lat="42.9285070" lon="-5.9697250">
        <ele>1136.0</ele>
        <time>2021-10-11T09:11:43Z</time>
      </trkpt>
      <trkpt lat="42.9284780" lon="-5.9696480">
        <ele>1136.0</ele>
        <time>2021-10-11T09:11:45Z</time>
      </trkpt>
      <trkpt lat="42.9284170" lon="-5.9695530">
        <ele>1136.0</ele>
        <time>2021-10-11T09:11:48Z</time>
      </trkpt>
      <trkpt lat="42.9283320" lon="-5.9693450">
        <ele>1135.8</ele>
        <time>2021-10-11T09:11:55Z</time>
      </trkpt>
      <trkpt lat="42.9283180" lon="-5.9693050">
        <ele>1135.6</ele>
        <time>2021-10-11T09:11:57Z</time>
      </trkpt>
      <trkpt lat="42.9282550" lon="-5.9692530">
        <ele>1135.2</ele>
        <time>2021-10-11T09:12:00Z</time>
      </trkpt>
      <trkpt lat="42.9282150" lon="-5.9691900">
        <ele>1134.6</ele>
        <time>2021-10-11T09:12:03Z</time>
      </trkpt>
      <trkpt lat="42.9282040" lon="-5.9690990">
        <ele>1134.0</ele>
        <time>2021-10-11T09:12:07Z</time>
      </trkpt>
      <trkpt lat="42.9282080" lon="-5.9690230">
        <ele>1133.8</ele>
        <time>2021-10-11T09:12:13Z</time>
      </trkpt>
      <trkpt lat="42.9282110" lon="-5.9690070">
        <ele>1133.8</ele>
        <time>2021-10-11T09:12:14Z</time>
      </trkpt>
      <trkpt lat="42.9282130" lon="-5.9690030">
        <ele>1133.6</ele>
        <time>2021-10-11T09:12:17Z</time>
      </trkpt>
      <trkpt lat="42.9282070" lon="-5.9688290">
        <ele>1133.2</ele>
        <time>2021-10-11T09:12:28Z</time>
      </trkpt>
      <trkpt lat="42.9281480" lon="-5.9686300">
        <ele>1133.2</ele>
        <time>2021-10-11T09:12:34Z</time>
      </trkpt>
      <trkpt lat="42.9280710" lon="-5.9684180">
        <ele>1133.0</ele>
        <time>2021-10-11T09:12:39Z</time>
      </trkpt>
      <trkpt lat="42.9279790" lon="-5.9681920">
        <ele>1133.0</ele>
        <time>2021-10-11T09:12:45Z</time>
      </trkpt>
      <trkpt lat="42.9279320" lon="-5.9681150">
        <ele>1133.4</ele>
        <time>2021-10-11T09:12:50Z</time>
      </trkpt>
      <trkpt lat="42.9278960" lon="-5.9680940">
        <ele>1133.8</ele>
        <time>2021-10-11T09:12:52Z</time>
      </trkpt>
      <trkpt lat="42.9278770" lon="-5.9680580">
        <ele>1134.2</ele>
        <time>2021-10-11T09:12:54Z</time>
      </trkpt>
      <trkpt lat="42.9278700" lon="-5.9680410">
        <ele>1134.4</ele>
        <time>2021-10-11T09:12:55Z</time>
      </trkpt>
      <trkpt lat="42.9278180" lon="-5.9679480">
        <ele>1135.4</ele>
        <time>2021-10-11T09:13:00Z</time>
      </trkpt>
      <trkpt lat="42.9277870" lon="-5.9679110">
        <ele>1135.6</ele>
        <time>2021-10-11T09:13:02Z</time>
      </trkpt>
      <trkpt lat="42.9276910" lon="-5.9677740">
        <ele>1136.0</ele>
        <time>2021-10-11T09:13:09Z</time>
      </trkpt>
      <trkpt lat="42.9276800" lon="-5.9677550">
        <ele>1136.0</ele>
        <time>2021-10-11T09:13:10Z</time>
      </trkpt>
      <trkpt lat="42.9276100" lon="-5.9676420">
        <ele>1136.4</ele>
        <time>2021-10-11T09:13:16Z</time>
      </trkpt>
      <trkpt lat="42.9275810" lon="-5.9676290">
        <ele>1136.6</ele>
        <time>2021-10-11T09:13:17Z</time>
      </trkpt>
      <trkpt lat="42.9274980" lon="-5.9675750">
        <ele>1136.8</ele>
        <time>2021-10-11T09:13:22Z</time>
      </trkpt>
      <trkpt lat="42.9273770" lon="-5.9674700">
        <ele>1137.2</ele>
        <time>2021-10-11T09:13:30Z</time>
      </trkpt>
      <trkpt lat="42.9273620" lon="-5.9674520">
        <ele>1137.2</ele>
        <time>2021-10-11T09:13:31Z</time>
      </trkpt>
      <trkpt lat="42.9273470" lon="-5.9674400">
        <ele>1137.2</ele>
        <time>2021-10-11T09:13:32Z</time>
      </trkpt>
      <trkpt lat="42.9273260" lon="-5.9674320">
        <ele>1137.2</ele>
        <time>2021-10-11T09:13:33Z</time>
      </trkpt>
      <trkpt lat="42.9272990" lon="-5.9674200">
        <ele>1137.2</ele>
        <time>2021-10-11T09:13:35Z</time>
      </trkpt>
      <trkpt lat="42.9272690" lon="-5.9674190">
        <ele>1137.2</ele>
        <time>2021-10-11T09:13:37Z</time>
      </trkpt>
      <trkpt lat="42.9270950" lon="-5.9673930">
        <ele>1136.6</ele>
        <time>2021-10-11T09:13:43Z</time>
      </trkpt>
      <trkpt lat="42.9270750" lon="-5.9673850">
        <ele>1136.4</ele>
        <time>2021-10-11T09:13:44Z</time>
      </trkpt>
      <trkpt lat="42.9270300" lon="-5.9673790">
        <ele>1135.6</ele>
        <time>2021-10-11T09:13:47Z</time>
      </trkpt>
      <trkpt lat="42.9270250" lon="-5.9673810">
        <ele>1135.2</ele>
        <time>2021-10-11T09:13:48Z</time>
      </trkpt>
      <trkpt lat="42.9270250" lon="-5.9673810">
        <ele>1135.0</ele>
        <time>2021-10-11T09:13:50Z</time>
      </trkpt>
      <trkpt lat="42.9268600" lon="-5.9670550">
        <ele>1139.4</ele>
        <time>2021-10-11T09:15:56Z</time>
      </trkpt>
      <trkpt lat="42.9268480" lon="-5.9670090">
        <ele>1139.4</ele>
        <time>2021-10-11T09:15:57Z</time>
      </trkpt>
      <trkpt lat="42.9267890" lon="-5.9667090">
        <ele>1139.6</ele>
        <time>2021-10-11T09:16:04Z</time>
      </trkpt>
      <trkpt lat="42.9267740" lon="-5.9666560">
        <ele>1139.6</ele>
        <time>2021-10-11T09:16:06Z</time>
      </trkpt>
      <trkpt lat="42.9267400" lon="-5.9665450">
        <ele>1139.8</ele>
        <time>2021-10-11T09:16:11Z</time>
      </trkpt>
      <trkpt lat="42.9267390" lon="-5.9665090">
        <ele>1139.8</ele>
        <time>2021-10-11T09:16:12Z</time>
      </trkpt>
      <trkpt lat="42.9267430" lon="-5.9662990">
        <ele>1139.8</ele>
        <time>2021-10-11T09:16:16Z</time>
      </trkpt>
      <trkpt lat="42.9266850" lon="-5.9661260">
        <ele>1139.4</ele>
        <time>2021-10-11T09:16:20Z</time>
      </trkpt>
      <trkpt lat="42.9266000" lon="-5.9660080">
        <ele>1138.4</ele>
        <time>2021-10-11T09:16:24Z</time>
      </trkpt>
      <trkpt lat="42.9265840" lon="-5.9659710">
        <ele>1138.4</ele>
        <time>2021-10-11T09:16:25Z</time>
      </trkpt>
      <trkpt lat="42.9264310" lon="-5.9656860">
        <ele>1137.8</ele>
        <time>2021-10-11T09:16:33Z</time>
      </trkpt>
      <trkpt lat="42.9264260" lon="-5.9656790">
        <ele>1137.4</ele>
        <time>2021-10-11T09:16:36Z</time>
      </trkpt>
      <trkpt lat="42.9263910" lon="-5.9656440">
        <ele>1137.0</ele>
        <time>2021-10-11T09:17:36Z</time>
      </trkpt>
      <trkpt lat="42.9263710" lon="-5.9656170">
        <ele>1137.0</ele>
        <time>2021-10-11T09:17:37Z</time>
      </trkpt>
      <trkpt lat="42.9263490" lon="-5.9655900">
        <ele>1137.2</ele>
        <time>2021-10-11T09:17:38Z</time>
      </trkpt>
      <trkpt lat="42.9261970" lon="-5.9654370">
        <ele>1137.2</ele>
        <time>2021-10-11T09:17:45Z</time>
      </trkpt>
      <trkpt lat="42.9260410" lon="-5.9653300">
        <ele>1137.2</ele>
        <time>2021-10-11T09:17:52Z</time>
      </trkpt>
      <trkpt lat="42.9258390" lon="-5.9652480">
        <ele>1137.4</ele>
        <time>2021-10-11T09:17:59Z</time>
      </trkpt>
      <trkpt lat="42.9256460" lon="-5.9650960">
        <ele>1137.6</ele>
        <time>2021-10-11T09:18:06Z</time>
      </trkpt>
      <trkpt lat="42.9255810" lon="-5.9650500">
        <ele>1137.6</ele>
        <time>2021-10-11T09:18:08Z</time>
      </trkpt>
      <trkpt lat="42.9254610" lon="-5.9649750">
        <ele>1137.0</ele>
        <time>2021-10-11T09:18:12Z</time>
      </trkpt>
      <trkpt lat="42.9253410" lon="-5.9649040">
        <ele>1136.6</ele>
        <time>2021-10-11T09:18:17Z</time>
      </trkpt>
      <trkpt lat="42.9253140" lon="-5.9648920">
        <ele>1136.6</ele>
        <time>2021-10-11T09:18:18Z</time>
      </trkpt>
      <trkpt lat="42.9250250" lon="-5.9647940">
        <ele>1135.8</ele>
        <time>2021-10-11T09:18:27Z</time>
      </trkpt>
      <trkpt lat="42.9249900" lon="-5.9647860">
        <ele>1135.6</ele>
        <time>2021-10-11T09:18:28Z</time>
      </trkpt>
      <trkpt lat="42.9247890" lon="-5.9647550">
        <ele>1135.2</ele>
        <time>2021-10-11T09:18:34Z</time>
      </trkpt>
      <trkpt lat="42.9247520" lon="-5.9647520">
        <ele>1135.2</ele>
        <time>2021-10-11T09:18:35Z</time>
      </trkpt>
      <trkpt lat="42.9247140" lon="-5.9647530">
        <ele>1135.0</ele>
        <time>2021-10-11T09:18:36Z</time>
      </trkpt>
      <trkpt lat="42.9245540" lon="-5.9647220">
        <ele>1134.6</ele>
        <time>2021-10-11T09:18:40Z</time>
      </trkpt>
      <trkpt lat="42.9244050" lon="-5.9647110">
        <ele>1134.2</ele>
        <time>2021-10-11T09:18:44Z</time>
      </trkpt>
      <trkpt lat="42.9243690" lon="-5.9647030">
        <ele>1134.0</ele>
        <time>2021-10-11T09:18:45Z</time>
      </trkpt>
      <trkpt lat="42.9242950" lon="-5.9646760">
        <ele>1134.0</ele>
        <time>2021-10-11T09:18:47Z</time>
      </trkpt>
      <trkpt lat="42.9242190" lon="-5.9646560">
        <ele>1133.8</ele>
        <time>2021-10-11T09:18:49Z</time>
      </trkpt>
      <trkpt lat="42.9241830" lon="-5.9646420">
        <ele>1133.8</ele>
        <time>2021-10-11T09:18:50Z</time>
      </trkpt>
      <trkpt lat="42.9241020" lon="-5.9646270">
        <ele>1133.2</ele>
        <time>2021-10-11T09:18:52Z</time>
      </trkpt>
      <trkpt lat="42.9240610" lon="-5.9646330">
        <ele>1133.0</ele>
        <time>2021-10-11T09:18:53Z</time>
      </trkpt>
      <trkpt lat="42.9239410" lon="-5.9646490">
        <ele>1132.0</ele>
        <time>2021-10-11T09:18:56Z</time>
      </trkpt>
      <trkpt lat="42.9237990" lon="-5.9646660">
        <ele>1131.4</ele>
        <time>2021-10-11T09:19:00Z</time>
      </trkpt>
      <trkpt lat="42.9235520" lon="-5.9646780">
        <ele>1131.0</ele>
        <time>2021-10-11T09:19:07Z</time>
      </trkpt>
      <trkpt lat="42.9234850" lon="-5.9646840">
        <ele>1131.0</ele>
        <time>2021-10-11T09:19:09Z</time>
      </trkpt>
      <trkpt lat="42.9233020" lon="-5.9646610">
        <ele>1130.0</ele>
        <time>2021-10-11T09:19:14Z</time>
      </trkpt>
      <trkpt lat="42.9232780" lon="-5.9646550">
        <ele>1129.8</ele>
        <time>2021-10-11T09:19:15Z</time>
      </trkpt>
      <trkpt lat="42.9231900" lon="-5.9646420">
        <ele>1128.6</ele>
        <time>2021-10-11T09:19:18Z</time>
      </trkpt>
      <trkpt lat="42.9231300" lon="-5.9646220">
        <ele>1127.8</ele>
        <time>2021-10-11T09:19:20Z</time>
      </trkpt>
      <trkpt lat="42.9230990" lon="-5.9646130">
        <ele>1127.4</ele>
        <time>2021-10-11T09:19:21Z</time>
      </trkpt>
      <trkpt lat="42.9230690" lon="-5.9646030">
        <ele>1126.8</ele>
        <time>2021-10-11T09:19:22Z</time>
      </trkpt>
      <trkpt lat="42.9230160" lon="-5.9645830">
        <ele>1126.4</ele>
        <time>2021-10-11T09:19:24Z</time>
      </trkpt>
      <trkpt lat="42.9229470" lon="-5.9645410">
        <ele>1125.2</ele>
        <time>2021-10-11T09:19:27Z</time>
      </trkpt>
      <trkpt lat="42.9228850" lon="-5.9645030">
        <ele>1124.4</ele>
        <time>2021-10-11T09:19:29Z</time>
      </trkpt>
      <trkpt lat="42.9228620" lon="-5.9644790">
        <ele>1124.2</ele>
        <time>2021-10-11T09:19:30Z</time>
      </trkpt>
      <trkpt lat="42.9228130" lon="-5.9643990">
        <ele>1122.8</ele>
        <time>2021-10-11T09:19:33Z</time>
      </trkpt>
      <trkpt lat="42.9227890" lon="-5.9643430">
        <ele>1122.4</ele>
        <time>2021-10-11T09:19:35Z</time>
      </trkpt>
      <trkpt lat="42.9227450" lon="-5.9642800">
        <ele>1122.2</ele>
        <time>2021-10-11T09:19:37Z</time>
      </trkpt>
      <trkpt lat="42.9227240" lon="-5.9642490">
        <ele>1121.8</ele>
        <time>2021-10-11T09:19:38Z</time>
      </trkpt>
      <trkpt lat="42.9226360" lon="-5.9641010">
        <ele>1120.8</ele>
        <time>2021-10-11T09:19:42Z</time>
      </trkpt>
      <trkpt lat="42.9226280" lon="-5.9640860">
        <ele>1120.8</ele>
        <time>2021-10-11T09:19:43Z</time>
      </trkpt>
      <trkpt lat="42.9226280" lon="-5.9640860">
        <ele>1120.2</ele>
        <time>2021-10-11T09:19:45Z</time>
      </trkpt>
      <trkpt lat="42.9226000" lon="-5.9640420">
        <ele>1119.4</ele>
        <time>2021-10-11T09:21:15Z</time>
      </trkpt>
      <trkpt lat="42.9225870" lon="-5.9640260">
        <ele>1119.4</ele>
        <time>2021-10-11T09:21:16Z</time>
      </trkpt>
      <trkpt lat="42.9225640" lon="-5.9640000">
        <ele>1119.4</ele>
        <time>2021-10-11T09:21:18Z</time>
      </trkpt>
      <trkpt lat="42.9225050" lon="-5.9638790">
        <ele>1118.2</ele>
        <time>2021-10-11T09:21:26Z</time>
      </trkpt>
      <trkpt lat="42.9225050" lon="-5.9638790">
        <ele>1118.0</ele>
        <time>2021-10-11T09:21:27Z</time>
      </trkpt>
      <trkpt lat="42.9225050" lon="-5.9638790">
        <ele>1116.8</ele>
        <time>2021-10-11T09:21:32Z</time>
      </trkpt>
      <trkpt lat="42.9225050" lon="-5.9638790">
        <ele>1116.6</ele>
        <time>2021-10-11T09:21:35Z</time>
      </trkpt>
      <trkpt lat="42.9224690" lon="-5.9638070">
        <ele>1116.2</ele>
        <time>2021-10-11T09:21:40Z</time>
      </trkpt>
      <trkpt lat="42.9224360" lon="-5.9637410">
        <ele>1116.0</ele>
        <time>2021-10-11T09:21:42Z</time>
      </trkpt>
      <trkpt lat="42.9224200" lon="-5.9636950">
        <ele>1115.8</ele>
        <time>2021-10-11T09:21:43Z</time>
      </trkpt>
      <trkpt lat="42.9223990" lon="-5.9636550">
        <ele>1115.8</ele>
        <time>2021-10-11T09:21:44Z</time>
      </trkpt>
      <trkpt lat="42.9223490" lon="-5.9635900">
        <ele>1115.4</ele>
        <time>2021-10-11T09:21:46Z</time>
      </trkpt>
      <trkpt lat="42.9222950" lon="-5.9635330">
        <ele>1114.8</ele>
        <time>2021-10-11T09:21:48Z</time>
      </trkpt>
      <trkpt lat="42.9222110" lon="-5.9634310">
        <ele>1114.0</ele>
        <time>2021-10-11T09:21:52Z</time>
      </trkpt>
      <trkpt lat="42.9222120" lon="-5.9633600">
        <ele>1113.8</ele>
        <time>2021-10-11T09:21:54Z</time>
      </trkpt>
      <trkpt lat="42.9221710" lon="-5.9632800">
        <ele>1113.4</ele>
        <time>2021-10-11T09:21:57Z</time>
      </trkpt>
      <trkpt lat="42.9220730" lon="-5.9631680">
        <ele>1112.4</ele>
        <time>2021-10-11T09:22:01Z</time>
      </trkpt>
      <trkpt lat="42.9220080" lon="-5.9631000">
        <ele>1112.0</ele>
        <time>2021-10-11T09:22:04Z</time>
      </trkpt>
      <trkpt lat="42.9219190" lon="-5.9630160">
        <ele>1111.4</ele>
        <time>2021-10-11T09:22:09Z</time>
      </trkpt>
      <trkpt lat="42.9218970" lon="-5.9630000">
        <ele>1111.4</ele>
        <time>2021-10-11T09:22:10Z</time>
      </trkpt>
      <trkpt lat="42.9217780" lon="-5.9628800">
        <ele>1111.2</ele>
        <time>2021-10-11T09:22:16Z</time>
      </trkpt>
      <trkpt lat="42.9217280" lon="-5.9628580">
        <ele>1111.4</ele>
        <time>2021-10-11T09:22:18Z</time>
      </trkpt>
      <trkpt lat="42.9216950" lon="-5.9628510">
        <ele>1111.4</ele>
        <time>2021-10-11T09:22:19Z</time>
      </trkpt>
      <trkpt lat="42.9216440" lon="-5.9628300">
        <ele>1111.4</ele>
        <time>2021-10-11T09:22:21Z</time>
      </trkpt>
      <trkpt lat="42.9214840" lon="-5.9628120">
        <ele>1111.6</ele>
        <time>2021-10-11T09:22:27Z</time>
      </trkpt>
      <trkpt lat="42.9213550" lon="-5.9628680">
        <ele>1112.2</ele>
        <time>2021-10-11T09:22:33Z</time>
      </trkpt>
      <trkpt lat="42.9213360" lon="-5.9628790">
        <ele>1112.4</ele>
        <time>2021-10-11T09:22:34Z</time>
      </trkpt>
      <trkpt lat="42.9212320" lon="-5.9629380">
        <ele>1113.6</ele>
        <time>2021-10-11T09:22:39Z</time>
      </trkpt>
      <trkpt lat="42.9212090" lon="-5.9629510">
        <ele>1113.8</ele>
        <time>2021-10-11T09:22:40Z</time>
      </trkpt>
      <trkpt lat="42.9210880" lon="-5.9629930">
        <ele>1114.8</ele>
        <time>2021-10-11T09:22:45Z</time>
      </trkpt>
      <trkpt lat="42.9210640" lon="-5.9629910">
        <ele>1115.0</ele>
        <time>2021-10-11T09:22:46Z</time>
      </trkpt>
      <trkpt lat="42.9210370" lon="-5.9629850">
        <ele>1115.0</ele>
        <time>2021-10-11T09:22:47Z</time>
      </trkpt>
      <trkpt lat="42.9207800" lon="-5.9629940">
        <ele>1115.0</ele>
        <time>2021-10-11T09:22:55Z</time>
      </trkpt>
      <trkpt lat="42.9206300" lon="-5.9630420">
        <ele>1114.8</ele>
        <time>2021-10-11T09:23:02Z</time>
      </trkpt>
      <trkpt lat="42.9206300" lon="-5.9630420">
        <ele>1114.6</ele>
        <time>2021-10-11T09:23:04Z</time>
      </trkpt>
      <trkpt lat="42.9205620" lon="-5.9631360">
        <ele>1115.2</ele>
        <time>2021-10-11T09:25:57Z</time>
      </trkpt>
      <trkpt lat="42.9205430" lon="-5.9631410">
        <ele>1115.2</ele>
        <time>2021-10-11T09:25:58Z</time>
      </trkpt>
      <trkpt lat="42.9204360" lon="-5.9631970">
        <ele>1115.6</ele>
        <time>2021-10-11T09:26:03Z</time>
      </trkpt>
      <trkpt lat="42.9204180" lon="-5.9631980">
        <ele>1115.8</ele>
        <time>2021-10-11T09:26:04Z</time>
      </trkpt>
      <trkpt lat="42.9202660" lon="-5.9631590">
        <ele>1116.4</ele>
        <time>2021-10-11T09:26:10Z</time>
      </trkpt>
      <trkpt lat="42.9200440" lon="-5.9630650">
        <ele>1116.4</ele>
        <time>2021-10-11T09:26:17Z</time>
      </trkpt>
      <trkpt lat="42.9198390" lon="-5.9629860">
        <ele>1116.4</ele>
        <time>2021-10-11T09:26:23Z</time>
      </trkpt>
      <trkpt lat="42.9194450" lon="-5.9628190">
        <ele>1116.4</ele>
        <time>2021-10-11T09:26:34Z</time>
      </trkpt>
      <trkpt lat="42.9192700" lon="-5.9627400">
        <ele>1116.6</ele>
        <time>2021-10-11T09:26:39Z</time>
      </trkpt>
      <trkpt lat="42.9191490" lon="-5.9626870">
        <ele>1116.8</ele>
        <time>2021-10-11T09:26:42Z</time>
      </trkpt>
      <trkpt lat="42.9191070" lon="-5.9626740">
        <ele>1116.8</ele>
        <time>2021-10-11T09:26:43Z</time>
      </trkpt>
      <trkpt lat="42.9187990" lon="-5.9625260">
        <ele>1116.8</ele>
        <time>2021-10-11T09:26:50Z</time>
      </trkpt>
      <trkpt lat="42.9186540" lon="-5.9624360">
        <ele>1116.8</ele>
        <time>2021-10-11T09:26:54Z</time>
      </trkpt>
      <trkpt lat="42.9185820" lon="-5.9623710">
        <ele>1117.0</ele>
        <time>2021-10-11T09:26:56Z</time>
      </trkpt>
      <trkpt lat="42.9185510" lon="-5.9623320">
        <ele>1117.0</ele>
        <time>2021-10-11T09:26:57Z</time>
      </trkpt>
      <trkpt lat="42.9183820" lon="-5.9621290">
        <ele>1117.4</ele>
        <time>2021-10-11T09:27:02Z</time>
      </trkpt>
      <trkpt lat="42.9183000" lon="-5.9620140">
        <ele>1117.8</ele>
        <time>2021-10-11T09:27:05Z</time>
      </trkpt>
      <trkpt lat="42.9182710" lon="-5.9619740">
        <ele>1117.8</ele>
        <time>2021-10-11T09:27:06Z</time>
      </trkpt>
      <trkpt lat="42.9180380" lon="-5.9616880">
        <ele>1118.6</ele>
        <time>2021-10-11T09:27:14Z</time>
      </trkpt>
      <trkpt lat="42.9177440" lon="-5.9614560">
        <ele>1118.8</ele>
        <time>2021-10-11T09:27:22Z</time>
      </trkpt>
      <trkpt lat="42.9175720" lon="-5.9612870">
        <ele>1118.6</ele>
        <time>2021-10-11T09:27:27Z</time>
      </trkpt>
      <trkpt lat="42.9174690" lon="-5.9611850">
        <ele>1119.0</ele>
        <time>2021-10-11T09:27:30Z</time>
      </trkpt>
      <trkpt lat="42.9174350" lon="-5.9611470">
        <ele>1119.0</ele>
        <time>2021-10-11T09:27:31Z</time>
      </trkpt>
      <trkpt lat="42.9171030" lon="-5.9608100">
        <ele>1119.2</ele>
        <time>2021-10-11T09:27:40Z</time>
      </trkpt>
      <trkpt lat="42.9168060" lon="-5.9605010">
        <ele>1119.2</ele>
        <time>2021-10-11T09:27:49Z</time>
      </trkpt>
      <trkpt lat="42.9166850" lon="-5.9602630">
        <ele>1119.6</ele>
        <time>2021-10-11T09:27:55Z</time>
      </trkpt>
      <trkpt lat="42.9166610" lon="-5.9601670">
        <ele>1120.2</ele>
        <time>2021-10-11T09:27:57Z</time>
      </trkpt>
      <trkpt lat="42.9165910" lon="-5.9598190">
        <ele>1120.6</ele>
        <time>2021-10-11T09:28:05Z</time>
      </trkpt>
      <trkpt lat="42.9165420" lon="-5.9594650">
        <ele>1120.8</ele>
        <time>2021-10-11T09:28:12Z</time>
      </trkpt>
      <trkpt lat="42.9165060" lon="-5.9590450">
        <ele>1121.0</ele>
        <time>2021-10-11T09:28:20Z</time>
      </trkpt>
      <trkpt lat="42.9165030" lon="-5.9588890">
        <ele>1121.2</ele>
        <time>2021-10-11T09:28:23Z</time>
      </trkpt>
      <trkpt lat="42.9165000" lon="-5.9587430">
        <ele>1121.4</ele>
        <time>2021-10-11T09:28:26Z</time>
      </trkpt>
      <trkpt lat="42.9164580" lon="-5.9582670">
        <ele>1121.8</ele>
        <time>2021-10-11T09:28:35Z</time>
      </trkpt>
      <trkpt lat="42.9163880" lon="-5.9579600">
        <ele>1122.0</ele>
        <time>2021-10-11T09:28:41Z</time>
      </trkpt>
      <trkpt lat="42.9163520" lon="-5.9578040">
        <ele>1122.2</ele>
        <time>2021-10-11T09:28:44Z</time>
      </trkpt>
      <trkpt lat="42.9162920" lon="-5.9572840">
        <ele>1122.2</ele>
        <time>2021-10-11T09:28:53Z</time>
      </trkpt>
      <trkpt lat="42.9163300" lon="-5.9567560">
        <ele>1122.0</ele>
        <time>2021-10-11T09:29:01Z</time>
      </trkpt>
      <trkpt lat="42.9163760" lon="-5.9561830">
        <ele>1121.2</ele>
        <time>2021-10-11T09:29:09Z</time>
      </trkpt>
      <trkpt lat="42.9163800" lon="-5.9561120">
        <ele>1120.8</ele>
        <time>2021-10-11T09:29:10Z</time>
      </trkpt>
      <trkpt lat="42.9164130" lon="-5.9557200">
        <ele>1119.8</ele>
        <time>2021-10-11T09:29:15Z</time>
      </trkpt>
      <trkpt lat="42.9164040" lon="-5.9554130">
        <ele>1119.2</ele>
        <time>2021-10-11T09:29:19Z</time>
      </trkpt>
      <trkpt lat="42.9163540" lon="-5.9551010">
        <ele>1118.6</ele>
        <time>2021-10-11T09:29:23Z</time>
      </trkpt>
      <trkpt lat="42.9163050" lon="-5.9548660">
        <ele>1118.2</ele>
        <time>2021-10-11T09:29:26Z</time>
      </trkpt>
      <trkpt lat="42.9162800" lon="-5.9547900">
        <ele>1118.2</ele>
        <time>2021-10-11T09:29:27Z</time>
      </trkpt>
      <trkpt lat="42.9161890" lon="-5.9545690">
        <ele>1117.6</ele>
        <time>2021-10-11T09:29:30Z</time>
      </trkpt>
      <trkpt lat="42.9161200" lon="-5.9544330">
        <ele>1117.2</ele>
        <time>2021-10-11T09:29:32Z</time>
      </trkpt>
      <trkpt lat="42.9159760" lon="-5.9541860">
        <ele>1116.8</ele>
        <time>2021-10-11T09:29:36Z</time>
      </trkpt>
      <trkpt lat="42.9158580" lon="-5.9540200">
        <ele>1116.6</ele>
        <time>2021-10-11T09:29:39Z</time>
      </trkpt>
      <trkpt lat="42.9157810" lon="-5.9539040">
        <ele>1116.4</ele>
        <time>2021-10-11T09:29:41Z</time>
      </trkpt>
      <trkpt lat="42.9155980" lon="-5.9536190">
        <ele>1116.4</ele>
        <time>2021-10-11T09:29:46Z</time>
      </trkpt>
      <trkpt lat="42.9155660" lon="-5.9535660">
        <ele>1116.4</ele>
        <time>2021-10-11T09:29:47Z</time>
      </trkpt>
      <trkpt lat="42.9154810" lon="-5.9534170">
        <ele>1116.8</ele>
        <time>2021-10-11T09:29:50Z</time>
      </trkpt>
      <trkpt lat="42.9153690" lon="-5.9532190">
        <ele>1117.0</ele>
        <time>2021-10-11T09:29:55Z</time>
      </trkpt>
      <trkpt lat="42.9153460" lon="-5.9531870">
        <ele>1117.6</ele>
        <time>2021-10-11T09:29:56Z</time>
      </trkpt>
      <trkpt lat="42.9151970" lon="-5.9529910">
        <ele>1118.6</ele>
        <time>2021-10-11T09:30:03Z</time>
      </trkpt>
      <trkpt lat="42.9151800" lon="-5.9529640">
        <ele>1118.6</ele>
        <time>2021-10-11T09:30:04Z</time>
      </trkpt>
      <trkpt lat="42.9151430" lon="-5.9529090">
        <ele>1119.0</ele>
        <time>2021-10-11T09:30:06Z</time>
      </trkpt>
      <trkpt lat="42.9151240" lon="-5.9528860">
        <ele>1119.2</ele>
        <time>2021-10-11T09:30:07Z</time>
      </trkpt>
      <trkpt lat="42.9150790" lon="-5.9528160">
        <ele>1119.4</ele>
        <time>2021-10-11T09:30:10Z</time>
      </trkpt>
      <trkpt lat="42.9150180" lon="-5.9527420">
        <ele>1119.6</ele>
        <time>2021-10-11T09:30:14Z</time>
      </trkpt>
      <trkpt lat="42.9149970" lon="-5.9527330">
        <ele>1119.8</ele>
        <time>2021-10-11T09:30:15Z</time>
      </trkpt>
      <trkpt lat="42.9148760" lon="-5.9526270">
        <ele>1119.8</ele>
        <time>2021-10-11T09:30:20Z</time>
      </trkpt>
      <trkpt lat="42.9146930" lon="-5.9524340">
        <ele>1120.0</ele>
        <time>2021-10-11T09:30:26Z</time>
      </trkpt>
      <trkpt lat="42.9144330" lon="-5.9521290">
        <ele>1119.8</ele>
        <time>2021-10-11T09:30:34Z</time>
      </trkpt>
      <trkpt lat="42.9143700" lon="-5.9520490">
        <ele>1119.8</ele>
        <time>2021-10-11T09:30:36Z</time>
      </trkpt>
      <trkpt lat="42.9142760" lon="-5.9519190">
        <ele>1119.8</ele>
        <time>2021-10-11T09:30:39Z</time>
      </trkpt>
      <trkpt lat="42.9141500" lon="-5.9517290">
        <ele>1119.8</ele>
        <time>2021-10-11T09:30:43Z</time>
      </trkpt>
      <trkpt lat="42.9140780" lon="-5.9516390">
        <ele>1119.6</ele>
        <time>2021-10-11T09:30:45Z</time>
      </trkpt>
      <trkpt lat="42.9140440" lon="-5.9515900">
        <ele>1119.6</ele>
        <time>2021-10-11T09:30:46Z</time>
      </trkpt>
      <trkpt lat="42.9140130" lon="-5.9515370">
        <ele>1119.4</ele>
        <time>2021-10-11T09:30:47Z</time>
      </trkpt>
      <trkpt lat="42.9138410" lon="-5.9512790">
        <ele>1119.2</ele>
        <time>2021-10-11T09:30:52Z</time>
      </trkpt>
      <trkpt lat="42.9135740" lon="-5.9510190">
        <ele>1118.6</ele>
        <time>2021-10-11T09:30:59Z</time>
      </trkpt>
      <trkpt lat="42.9132800" lon="-5.9508790">
        <ele>1118.6</ele>
        <time>2021-10-11T09:31:06Z</time>
      </trkpt>
      <trkpt lat="42.9132390" lon="-5.9508590">
        <ele>1118.8</ele>
        <time>2021-10-11T09:31:07Z</time>
      </trkpt>
      <trkpt lat="42.9131630" lon="-5.9508250">
        <ele>1118.8</ele>
        <time>2021-10-11T09:31:09Z</time>
      </trkpt>
      <trkpt lat="42.9130760" lon="-5.9508150">
        <ele>1119.0</ele>
        <time>2021-10-11T09:31:11Z</time>
      </trkpt>
      <trkpt lat="42.9130330" lon="-5.9508270">
        <ele>1119.0</ele>
        <time>2021-10-11T09:31:12Z</time>
      </trkpt>
      <trkpt lat="42.9129910" lon="-5.9508440">
        <ele>1119.0</ele>
        <time>2021-10-11T09:31:13Z</time>
      </trkpt>
      <trkpt lat="42.9127900" lon="-5.9509620">
        <ele>1119.4</ele>
        <time>2021-10-11T09:31:18Z</time>
      </trkpt>
      <trkpt lat="42.9125680" lon="-5.9509390">
        <ele>1119.8</ele>
        <time>2021-10-11T09:31:23Z</time>
      </trkpt>
      <trkpt lat="42.9122650" lon="-5.9508460">
        <ele>1120.2</ele>
        <time>2021-10-11T09:31:30Z</time>
      </trkpt>
      <trkpt lat="42.9122110" lon="-5.9508440">
        <ele>1120.2</ele>
        <time>2021-10-11T09:31:31Z</time>
      </trkpt>
      <trkpt lat="42.9120480" lon="-5.9508470">
        <ele>1120.4</ele>
        <time>2021-10-11T09:31:35Z</time>
      </trkpt>
      <trkpt lat="42.9120010" lon="-5.9508620">
        <ele>1120.6</ele>
        <time>2021-10-11T09:31:36Z</time>
      </trkpt>
      <trkpt lat="42.9119200" lon="-5.9508920">
        <ele>1120.6</ele>
        <time>2021-10-11T09:31:38Z</time>
      </trkpt>
      <trkpt lat="42.9115110" lon="-5.9510270">
        <ele>1121.2</ele>
        <time>2021-10-11T09:31:48Z</time>
      </trkpt>
      <trkpt lat="42.9114300" lon="-5.9510620">
        <ele>1121.4</ele>
        <time>2021-10-11T09:31:50Z</time>
      </trkpt>
      <trkpt lat="42.9113520" lon="-5.9511010">
        <ele>1121.6</ele>
        <time>2021-10-11T09:31:52Z</time>
      </trkpt>
      <trkpt lat="42.9111950" lon="-5.9512030">
        <ele>1121.6</ele>
        <time>2021-10-11T09:31:56Z</time>
      </trkpt>
      <trkpt lat="42.9109590" lon="-5.9513430">
        <ele>1122.0</ele>
        <time>2021-10-11T09:32:02Z</time>
      </trkpt>
      <trkpt lat="42.9108760" lon="-5.9513520">
        <ele>1122.2</ele>
        <time>2021-10-11T09:32:04Z</time>
      </trkpt>
      <trkpt lat="42.9108320" lon="-5.9513480">
        <ele>1122.2</ele>
        <time>2021-10-11T09:32:05Z</time>
      </trkpt>
      <trkpt lat="42.9105740" lon="-5.9512840">
        <ele>1122.4</ele>
        <time>2021-10-11T09:32:11Z</time>
      </trkpt>
      <trkpt lat="42.9105270" lon="-5.9512750">
        <ele>1122.6</ele>
        <time>2021-10-11T09:32:12Z</time>
      </trkpt>
      <trkpt lat="42.9104790" lon="-5.9512700">
        <ele>1122.6</ele>
        <time>2021-10-11T09:32:13Z</time>
      </trkpt>
      <trkpt lat="42.9103320" lon="-5.9512860">
        <ele>1122.6</ele>
        <time>2021-10-11T09:32:16Z</time>
      </trkpt>
      <trkpt lat="42.9102800" lon="-5.9513020">
        <ele>1122.6</ele>
        <time>2021-10-11T09:32:17Z</time>
      </trkpt>
      <trkpt lat="42.9101090" lon="-5.9513660">
        <ele>1122.4</ele>
        <time>2021-10-11T09:32:20Z</time>
      </trkpt>
      <trkpt lat="42.9099760" lon="-5.9514320">
        <ele>1122.2</ele>
        <time>2021-10-11T09:32:22Z</time>
      </trkpt>
      <trkpt lat="42.9097970" lon="-5.9515210">
        <ele>1121.2</ele>
        <time>2021-10-11T09:32:25Z</time>
      </trkpt>
      <trkpt lat="42.9094960" lon="-5.9516140">
        <ele>1120.0</ele>
        <time>2021-10-11T09:32:30Z</time>
      </trkpt>
      <trkpt lat="42.9094280" lon="-5.9516170">
        <ele>1120.0</ele>
        <time>2021-10-11T09:32:31Z</time>
      </trkpt>
      <trkpt lat="42.9093340" lon="-5.9515900">
        <ele>1119.8</ele>
        <time>2021-10-11T09:32:33Z</time>
      </trkpt>
      <trkpt lat="42.9090810" lon="-5.9513960">
        <ele>1119.6</ele>
        <time>2021-10-11T09:32:38Z</time>
      </trkpt>
      <trkpt lat="42.9088050" lon="-5.9511000">
        <ele>1119.2</ele>
        <time>2021-10-11T09:32:44Z</time>
      </trkpt>
      <trkpt lat="42.9087370" lon="-5.9509920">
        <ele>1119.0</ele>
        <time>2021-10-11T09:32:46Z</time>
      </trkpt>
      <trkpt lat="42.9087060" lon="-5.9509240">
        <ele>1119.0</ele>
        <time>2021-10-11T09:32:47Z</time>
      </trkpt>
      <trkpt lat="42.9086350" lon="-5.9506630">
        <ele>1118.8</ele>
        <time>2021-10-11T09:32:50Z</time>
      </trkpt>
      <trkpt lat="42.9086110" lon="-5.9505800">
        <ele>1118.8</ele>
        <time>2021-10-11T09:32:51Z</time>
      </trkpt>
      <trkpt lat="42.9085470" lon="-5.9504430">
        <ele>1118.6</ele>
        <time>2021-10-11T09:32:53Z</time>
      </trkpt>
      <trkpt lat="42.9084900" lon="-5.9503620">
        <ele>1118.4</ele>
        <time>2021-10-11T09:32:54Z</time>
      </trkpt>
      <trkpt lat="42.9082850" lon="-5.9501370">
        <ele>1117.6</ele>
        <time>2021-10-11T09:32:58Z</time>
      </trkpt>
      <trkpt lat="42.9081390" lon="-5.9500070">
        <ele>1117.0</ele>
        <time>2021-10-11T09:33:01Z</time>
      </trkpt>
      <trkpt lat="42.9078080" lon="-5.9497650">
        <ele>1116.8</ele>
        <time>2021-10-11T09:33:08Z</time>
      </trkpt>
      <trkpt lat="42.9074240" lon="-5.9493750">
        <ele>1116.8</ele>
        <time>2021-10-11T09:33:16Z</time>
      </trkpt>
      <trkpt lat="42.9071310" lon="-5.9490680">
        <ele>1116.8</ele>
        <time>2021-10-11T09:33:23Z</time>
      </trkpt>
      <trkpt lat="42.9068350" lon="-5.9487560">
        <ele>1117.8</ele>
        <time>2021-10-11T09:33:31Z</time>
      </trkpt>
      <trkpt lat="42.9065830" lon="-5.9484010">
        <ele>1118.6</ele>
        <time>2021-10-11T09:33:39Z</time>
      </trkpt>
      <trkpt lat="42.9065210" lon="-5.9483130">
        <ele>1118.6</ele>
        <time>2021-10-11T09:33:41Z</time>
      </trkpt>
      <trkpt lat="42.9062720" lon="-5.9479550">
        <ele>1119.0</ele>
        <time>2021-10-11T09:33:49Z</time>
      </trkpt>
      <trkpt lat="42.9062410" lon="-5.9479120">
        <ele>1119.0</ele>
        <time>2021-10-11T09:33:50Z</time>
      </trkpt>
      <trkpt lat="42.9060260" lon="-5.9475460">
        <ele>1119.6</ele>
        <time>2021-10-11T09:33:58Z</time>
      </trkpt>
      <trkpt lat="42.9059950" lon="-5.9474860">
        <ele>1119.6</ele>
        <time>2021-10-11T09:33:59Z</time>
      </trkpt>
      <trkpt lat="42.9059730" lon="-5.9474490">
        <ele>1119.8</ele>
        <time>2021-10-11T09:34:00Z</time>
      </trkpt>
      <trkpt lat="42.9058670" lon="-5.9472350">
        <ele>1120.0</ele>
        <time>2021-10-11T09:34:04Z</time>
      </trkpt>
      <trkpt lat="42.9057940" lon="-5.9471010">
        <ele>1120.2</ele>
        <time>2021-10-11T09:34:07Z</time>
      </trkpt>
      <trkpt lat="42.9056790" lon="-5.9469140">
        <ele>1120.4</ele>
        <time>2021-10-11T09:34:11Z</time>
      </trkpt>
      <trkpt lat="42.9056060" lon="-5.9468140">
        <ele>1120.6</ele>
        <time>2021-10-11T09:34:13Z</time>
      </trkpt>
      <trkpt lat="42.9055400" lon="-5.9467450">
        <ele>1120.6</ele>
        <time>2021-10-11T09:34:15Z</time>
      </trkpt>
      <trkpt lat="42.9054560" lon="-5.9466910">
        <ele>1120.6</ele>
        <time>2021-10-11T09:34:17Z</time>
      </trkpt>
      <trkpt lat="42.9054120" lon="-5.9466700">
        <ele>1120.6</ele>
        <time>2021-10-11T09:34:18Z</time>
      </trkpt>
      <trkpt lat="42.9053200" lon="-5.9466430">
        <ele>1120.6</ele>
        <time>2021-10-11T09:34:20Z</time>
      </trkpt>
      <trkpt lat="42.9052290" lon="-5.9466380">
        <ele>1120.4</ele>
        <time>2021-10-11T09:34:22Z</time>
      </trkpt>
      <trkpt lat="42.9047630" lon="-5.9466730">
        <ele>1120.0</ele>
        <time>2021-10-11T09:34:32Z</time>
      </trkpt>
      <trkpt lat="42.9044660" lon="-5.9466780">
        <ele>1120.4</ele>
        <time>2021-10-11T09:34:39Z</time>
      </trkpt>
      <trkpt lat="42.9044260" lon="-5.9466840">
        <ele>1120.6</ele>
        <time>2021-10-11T09:34:40Z</time>
      </trkpt>
      <trkpt lat="42.9043450" lon="-5.9466940">
        <ele>1120.8</ele>
        <time>2021-10-11T09:34:42Z</time>
      </trkpt>
      <trkpt lat="42.9040710" lon="-5.9467390">
        <ele>1121.6</ele>
        <time>2021-10-11T09:34:49Z</time>
      </trkpt>
      <trkpt lat="42.9039300" lon="-5.9467520">
        <ele>1121.8</ele>
        <time>2021-10-11T09:34:53Z</time>
      </trkpt>
      <trkpt lat="42.9038560" lon="-5.9467560">
        <ele>1122.0</ele>
        <time>2021-10-11T09:34:55Z</time>
      </trkpt>
      <trkpt lat="42.9037480" lon="-5.9467580">
        <ele>1122.2</ele>
        <time>2021-10-11T09:34:58Z</time>
      </trkpt>
      <trkpt lat="42.9035440" lon="-5.9467820">
        <ele>1122.8</ele>
        <time>2021-10-11T09:35:04Z</time>
      </trkpt>
      <trkpt lat="42.9035090" lon="-5.9467830">
        <ele>1123.0</ele>
        <time>2021-10-11T09:35:05Z</time>
      </trkpt>
      <trkpt lat="42.9032180" lon="-5.9468010">
        <ele>1123.4</ele>
        <time>2021-10-11T09:35:13Z</time>
      </trkpt>
      <trkpt lat="42.9030670" lon="-5.9468160">
        <ele>1123.6</ele>
        <time>2021-10-11T09:35:17Z</time>
      </trkpt>
      <trkpt lat="42.9028750" lon="-5.9468310">
        <ele>1123.6</ele>
        <time>2021-10-11T09:35:22Z</time>
      </trkpt>
      <trkpt lat="42.9025880" lon="-5.9467690">
        <ele>1123.6</ele>
        <time>2021-10-11T09:35:29Z</time>
      </trkpt>
      <trkpt lat="42.9023240" lon="-5.9467000">
        <ele>1123.6</ele>
        <time>2021-10-11T09:35:36Z</time>
      </trkpt>
      <trkpt lat="42.9021120" lon="-5.9467620">
        <ele>1123.6</ele>
        <time>2021-10-11T09:35:42Z</time>
      </trkpt>
      <trkpt lat="42.9020000" lon="-5.9468190">
        <ele>1124.0</ele>
        <time>2021-10-11T09:35:46Z</time>
      </trkpt>
      <trkpt lat="42.9019450" lon="-5.9468520">
        <ele>1124.4</ele>
        <time>2021-10-11T09:35:48Z</time>
      </trkpt>
      <trkpt lat="42.9018000" lon="-5.9469270">
        <ele>1125.0</ele>
        <time>2021-10-11T09:35:53Z</time>
      </trkpt>
      <trkpt lat="42.9017510" lon="-5.9469550">
        <ele>1125.4</ele>
        <time>2021-10-11T09:35:55Z</time>
      </trkpt>
      <trkpt lat="42.9015970" lon="-5.9470300">
        <ele>1126.2</ele>
        <time>2021-10-11T09:36:01Z</time>
      </trkpt>
      <trkpt lat="42.9015500" lon="-5.9470550">
        <ele>1126.4</ele>
        <time>2021-10-11T09:36:03Z</time>
      </trkpt>
      <trkpt lat="42.9014080" lon="-5.9471280">
        <ele>1127.2</ele>
        <time>2021-10-11T09:36:09Z</time>
      </trkpt>
      <trkpt lat="42.9013330" lon="-5.9471580">
        <ele>1127.8</ele>
        <time>2021-10-11T09:36:12Z</time>
      </trkpt>
      <trkpt lat="42.9012590" lon="-5.9471920">
        <ele>1128.2</ele>
        <time>2021-10-11T09:36:15Z</time>
      </trkpt>
      <trkpt lat="42.9011280" lon="-5.9472550">
        <ele>1129.2</ele>
        <time>2021-10-11T09:36:21Z</time>
      </trkpt>
      <trkpt lat="42.9011060" lon="-5.9472620">
        <ele>1129.2</ele>
        <time>2021-10-11T09:36:22Z</time>
      </trkpt>
      <trkpt lat="42.9010850" lon="-5.9472650">
        <ele>1129.4</ele>
        <time>2021-10-11T09:36:23Z</time>
      </trkpt>
      <trkpt lat="42.9009440" lon="-5.9473190">
        <ele>1130.8</ele>
        <time>2021-10-11T09:36:30Z</time>
      </trkpt>
      <trkpt lat="42.9009230" lon="-5.9473230">
        <ele>1130.8</ele>
        <time>2021-10-11T09:36:31Z</time>
      </trkpt>
      <trkpt lat="42.9008440" lon="-5.9473990">
        <ele>1131.8</ele>
        <time>2021-10-11T09:36:36Z</time>
      </trkpt>
      <trkpt lat="42.9008160" lon="-5.9475040">
        <ele>1132.2</ele>
        <time>2021-10-11T09:36:40Z</time>
      </trkpt>
      <trkpt lat="42.9008030" lon="-5.9476360">
        <ele>1132.4</ele>
        <time>2021-10-11T09:36:44Z</time>
      </trkpt>
      <trkpt lat="42.9008010" lon="-5.9476700">
        <ele>1132.4</ele>
        <time>2021-10-11T09:36:45Z</time>
      </trkpt>
      <trkpt lat="42.9007930" lon="-5.9479490">
        <ele>1132.8</ele>
        <time>2021-10-11T09:36:52Z</time>
      </trkpt>
      <trkpt lat="42.9007980" lon="-5.9479880">
        <ele>1132.6</ele>
        <time>2021-10-11T09:36:53Z</time>
      </trkpt>
      <trkpt lat="42.9008690" lon="-5.9482820">
        <ele>1132.8</ele>
        <time>2021-10-11T09:37:01Z</time>
      </trkpt>
      <trkpt lat="42.9009290" lon="-5.9485530">
        <ele>1133.0</ele>
        <time>2021-10-11T09:37:08Z</time>
      </trkpt>
      <trkpt lat="42.9009640" lon="-5.9487420">
        <ele>1133.4</ele>
        <time>2021-10-11T09:37:13Z</time>
      </trkpt>
      <trkpt lat="42.9010250" lon="-5.9489520">
        <ele>1133.6</ele>
        <time>2021-10-11T09:37:18Z</time>
      </trkpt>
      <trkpt lat="42.9011940" lon="-5.9491470">
        <ele>1133.6</ele>
        <time>2021-10-11T09:37:25Z</time>
      </trkpt>
      <trkpt lat="42.9012540" lon="-5.9491790">
        <ele>1133.6</ele>
        <time>2021-10-11T09:37:27Z</time>
      </trkpt>
      <trkpt lat="42.9013340" lon="-5.9491740">
        <ele>1133.6</ele>
        <time>2021-10-11T09:37:30Z</time>
      </trkpt>
      <trkpt lat="42.9015440" lon="-5.9491240">
        <ele>1134.0</ele>
        <time>2021-10-11T09:37:37Z</time>
      </trkpt>
      <trkpt lat="42.9016390" lon="-5.9491680">
        <ele>1134.6</ele>
        <time>2021-10-11T09:37:41Z</time>
      </trkpt>
      <trkpt lat="42.9016570" lon="-5.9491910">
        <ele>1134.8</ele>
        <time>2021-10-11T09:37:42Z</time>
      </trkpt>
      <trkpt lat="42.9017560" lon="-5.9493050">
        <ele>1135.4</ele>
        <time>2021-10-11T09:37:47Z</time>
      </trkpt>
      <trkpt lat="42.9017870" lon="-5.9493430">
        <ele>1135.6</ele>
        <time>2021-10-11T09:37:49Z</time>
      </trkpt>
      <trkpt lat="42.9018520" lon="-5.9494630">
        <ele>1136.8</ele>
        <time>2021-10-11T09:37:54Z</time>
      </trkpt>
      <trkpt lat="42.9018870" lon="-5.9495440">
        <ele>1137.2</ele>
        <time>2021-10-11T09:37:57Z</time>
      </trkpt>
      <trkpt lat="42.9018930" lon="-5.9495670">
        <ele>1137.4</ele>
        <time>2021-10-11T09:37:58Z</time>
      </trkpt>
      <trkpt lat="42.9019240" lon="-5.9496490">
        <ele>1137.8</ele>
        <time>2021-10-11T09:38:01Z</time>
      </trkpt>
      <trkpt lat="42.9019470" lon="-5.9497280">
        <ele>1138.4</ele>
        <time>2021-10-11T09:38:04Z</time>
      </trkpt>
      <trkpt lat="42.9019620" lon="-5.9498000">
        <ele>1139.0</ele>
        <time>2021-10-11T09:38:07Z</time>
      </trkpt>
      <trkpt lat="42.9019940" lon="-5.9499600">
        <ele>1140.0</ele>
        <time>2021-10-11T09:38:13Z</time>
      </trkpt>
      <trkpt lat="42.9019970" lon="-5.9499840">
        <ele>1140.2</ele>
        <time>2021-10-11T09:38:14Z</time>
      </trkpt>
      <trkpt lat="42.9020020" lon="-5.9500800">
        <ele>1141.0</ele>
        <time>2021-10-11T09:38:18Z</time>
      </trkpt>
      <trkpt lat="42.9020000" lon="-5.9501350">
        <ele>1141.2</ele>
        <time>2021-10-11T09:38:20Z</time>
      </trkpt>
      <trkpt lat="42.9019940" lon="-5.9501890">
        <ele>1141.4</ele>
        <time>2021-10-11T09:38:22Z</time>
      </trkpt>
      <trkpt lat="42.9019920" lon="-5.9502540">
        <ele>1141.6</ele>
        <time>2021-10-11T09:38:24Z</time>
      </trkpt>
      <trkpt lat="42.9019890" lon="-5.9503320">
        <ele>1142.0</ele>
        <time>2021-10-11T09:38:27Z</time>
      </trkpt>
      <trkpt lat="42.9019870" lon="-5.9503870">
        <ele>1142.4</ele>
        <time>2021-10-11T09:38:29Z</time>
      </trkpt>
      <trkpt lat="42.9019800" lon="-5.9504740">
        <ele>1142.6</ele>
        <time>2021-10-11T09:38:32Z</time>
      </trkpt>
      <trkpt lat="42.9019500" lon="-5.9506470">
        <ele>1142.8</ele>
        <time>2021-10-11T09:38:37Z</time>
      </trkpt>
      <trkpt lat="42.9018960" lon="-5.9508280">
        <ele>1143.2</ele>
        <time>2021-10-11T09:38:42Z</time>
      </trkpt>
      <trkpt lat="42.9018370" lon="-5.9509720">
        <ele>1143.2</ele>
        <time>2021-10-11T09:38:46Z</time>
      </trkpt>
      <trkpt lat="42.9017660" lon="-5.9510920">
        <ele>1143.4</ele>
        <time>2021-10-11T09:38:50Z</time>
      </trkpt>
      <trkpt lat="42.9017450" lon="-5.9511180">
        <ele>1143.6</ele>
        <time>2021-10-11T09:38:51Z</time>
      </trkpt>
      <trkpt lat="42.9016770" lon="-5.9512150">
        <ele>1143.8</ele>
        <time>2021-10-11T09:38:55Z</time>
      </trkpt>
      <trkpt lat="42.9016100" lon="-5.9513070">
        <ele>1144.2</ele>
        <time>2021-10-11T09:38:59Z</time>
      </trkpt>
      <trkpt lat="42.9015910" lon="-5.9513300">
        <ele>1144.2</ele>
        <time>2021-10-11T09:39:00Z</time>
      </trkpt>
      <trkpt lat="42.9015140" lon="-5.9514170">
        <ele>1144.6</ele>
        <time>2021-10-11T09:39:04Z</time>
      </trkpt>
      <trkpt lat="42.9014580" lon="-5.9514830">
        <ele>1144.8</ele>
        <time>2021-10-11T09:39:07Z</time>
      </trkpt>
      <trkpt lat="42.9014270" lon="-5.9515270">
        <ele>1145.0</ele>
        <time>2021-10-11T09:39:09Z</time>
      </trkpt>
      <trkpt lat="42.9014120" lon="-5.9515520">
        <ele>1145.2</ele>
        <time>2021-10-11T09:39:10Z</time>
      </trkpt>
      <trkpt lat="42.9012860" lon="-5.9517650">
        <ele>1145.8</ele>
        <time>2021-10-11T09:39:18Z</time>
      </trkpt>
      <trkpt lat="42.9012410" lon="-5.9518480">
        <ele>1146.2</ele>
        <time>2021-10-11T09:39:21Z</time>
      </trkpt>
      <trkpt lat="42.9011530" lon="-5.9520030">
        <ele>1146.6</ele>
        <time>2021-10-11T09:39:27Z</time>
      </trkpt>
      <trkpt lat="42.9010730" lon="-5.9521380">
        <ele>1147.2</ele>
        <time>2021-10-11T09:39:32Z</time>
      </trkpt>
      <trkpt lat="42.9010300" lon="-5.9522090">
        <ele>1147.4</ele>
        <time>2021-10-11T09:39:35Z</time>
      </trkpt>
      <trkpt lat="42.9010010" lon="-5.9522570">
        <ele>1147.6</ele>
        <time>2021-10-11T09:39:37Z</time>
      </trkpt>
      <trkpt lat="42.9009320" lon="-5.9523890">
        <ele>1148.0</ele>
        <time>2021-10-11T09:39:42Z</time>
      </trkpt>
      <trkpt lat="42.9008950" lon="-5.9524440">
        <ele>1148.2</ele>
        <time>2021-10-11T09:39:44Z</time>
      </trkpt>
      <trkpt lat="42.9008030" lon="-5.9525830">
        <ele>1148.6</ele>
        <time>2021-10-11T09:39:50Z</time>
      </trkpt>
      <trkpt lat="42.9007220" lon="-5.9526940">
        <ele>1149.2</ele>
        <time>2021-10-11T09:39:55Z</time>
      </trkpt>
      <trkpt lat="42.9006870" lon="-5.9527450">
        <ele>1149.4</ele>
        <time>2021-10-11T09:39:57Z</time>
      </trkpt>
      <trkpt lat="42.9006580" lon="-5.9527820">
        <ele>1149.8</ele>
        <time>2021-10-11T09:39:59Z</time>
      </trkpt>
      <trkpt lat="42.9006260" lon="-5.9528340">
        <ele>1150.2</ele>
        <time>2021-10-11T09:40:01Z</time>
      </trkpt>
      <trkpt lat="42.9006140" lon="-5.9528520">
        <ele>1150.2</ele>
        <time>2021-10-11T09:40:02Z</time>
      </trkpt>
      <trkpt lat="42.9005710" lon="-5.9529150">
        <ele>1150.8</ele>
        <time>2021-10-11T09:40:05Z</time>
      </trkpt>
      <trkpt lat="42.9005450" lon="-5.9529590">
        <ele>1151.2</ele>
        <time>2021-10-11T09:40:07Z</time>
      </trkpt>
      <trkpt lat="42.9005150" lon="-5.9530060">
        <ele>1151.4</ele>
        <time>2021-10-11T09:40:09Z</time>
      </trkpt>
      <trkpt lat="42.9004350" lon="-5.9531800">
        <ele>1152.2</ele>
        <time>2021-10-11T09:40:16Z</time>
      </trkpt>
      <trkpt lat="42.9003930" lon="-5.9533280">
        <ele>1153.2</ele>
        <time>2021-10-11T09:40:22Z</time>
      </trkpt>
      <trkpt lat="42.9003480" lon="-5.9534670">
        <ele>1154.4</ele>
        <time>2021-10-11T09:40:27Z</time>
      </trkpt>
      <trkpt lat="42.9003240" lon="-5.9535150">
        <ele>1154.4</ele>
        <time>2021-10-11T09:40:29Z</time>
      </trkpt>
      <trkpt lat="42.9003140" lon="-5.9535390">
        <ele>1154.6</ele>
        <time>2021-10-11T09:40:30Z</time>
      </trkpt>
      <trkpt lat="42.9003020" lon="-5.9535510">
        <ele>1154.8</ele>
        <time>2021-10-11T09:40:31Z</time>
      </trkpt>
      <trkpt lat="42.9002660" lon="-5.9535880">
        <ele>1155.2</ele>
        <time>2021-10-11T09:40:33Z</time>
      </trkpt>
      <trkpt lat="42.9001620" lon="-5.9536760">
        <ele>1156.2</ele>
        <time>2021-10-11T09:40:39Z</time>
      </trkpt>
      <trkpt lat="42.9001440" lon="-5.9536890">
        <ele>1156.4</ele>
        <time>2021-10-11T09:40:40Z</time>
      </trkpt>
      <trkpt lat="42.8999930" lon="-5.9538570">
        <ele>1157.2</ele>
        <time>2021-10-11T09:40:47Z</time>
      </trkpt>
      <trkpt lat="42.8999550" lon="-5.9539790">
        <ele>1157.4</ele>
        <time>2021-10-11T09:40:51Z</time>
      </trkpt>
      <trkpt lat="42.8999300" lon="-5.9540410">
        <ele>1157.6</ele>
        <time>2021-10-11T09:40:53Z</time>
      </trkpt>
      <trkpt lat="42.8998370" lon="-5.9542420">
        <ele>1158.6</ele>
        <time>2021-10-11T09:41:00Z</time>
      </trkpt>
      <trkpt lat="42.8998250" lon="-5.9542620">
        <ele>1158.6</ele>
        <time>2021-10-11T09:41:01Z</time>
      </trkpt>
      <trkpt lat="42.8997680" lon="-5.9543920">
        <ele>1159.4</ele>
        <time>2021-10-11T09:41:07Z</time>
      </trkpt>
      <trkpt lat="42.8997440" lon="-5.9544380">
        <ele>1159.6</ele>
        <time>2021-10-11T09:41:09Z</time>
      </trkpt>
      <trkpt lat="42.8996950" lon="-5.9545490">
        <ele>1160.8</ele>
        <time>2021-10-11T09:41:14Z</time>
      </trkpt>
      <trkpt lat="42.8996670" lon="-5.9545860">
        <ele>1161.0</ele>
        <time>2021-10-11T09:41:16Z</time>
      </trkpt>
      <trkpt lat="42.8996240" lon="-5.9546670">
        <ele>1161.4</ele>
        <time>2021-10-11T09:41:20Z</time>
      </trkpt>
      <trkpt lat="42.8995900" lon="-5.9547170">
        <ele>1162.0</ele>
        <time>2021-10-11T09:41:23Z</time>
      </trkpt>
      <trkpt lat="42.8995790" lon="-5.9547480">
        <ele>1162.2</ele>
        <time>2021-10-11T09:41:25Z</time>
      </trkpt>
      <trkpt lat="42.8995680" lon="-5.9547850">
        <ele>1162.6</ele>
        <time>2021-10-11T09:41:27Z</time>
      </trkpt>
      <trkpt lat="42.8995550" lon="-5.9548340">
        <ele>1162.8</ele>
        <time>2021-10-11T09:41:29Z</time>
      </trkpt>
      <trkpt lat="42.8995460" lon="-5.9548780">
        <ele>1162.8</ele>
        <time>2021-10-11T09:41:31Z</time>
      </trkpt>
      <trkpt lat="42.8995250" lon="-5.9550030">
        <ele>1163.2</ele>
        <time>2021-10-11T09:41:36Z</time>
      </trkpt>
      <trkpt lat="42.8995190" lon="-5.9550720">
        <ele>1163.6</ele>
        <time>2021-10-11T09:41:39Z</time>
      </trkpt>
      <trkpt lat="42.8995180" lon="-5.9551270">
        <ele>1163.8</ele>
        <time>2021-10-11T09:41:41Z</time>
      </trkpt>
      <trkpt lat="42.8995160" lon="-5.9551540">
        <ele>1164.0</ele>
        <time>2021-10-11T09:41:42Z</time>
      </trkpt>
      <trkpt lat="42.8995040" lon="-5.9552140">
        <ele>1164.2</ele>
        <time>2021-10-11T09:41:44Z</time>
      </trkpt>
      <trkpt lat="42.8994930" lon="-5.9552730">
        <ele>1164.2</ele>
        <time>2021-10-11T09:41:46Z</time>
      </trkpt>
      <trkpt lat="42.8994680" lon="-5.9553510">
        <ele>1164.6</ele>
        <time>2021-10-11T09:41:49Z</time>
      </trkpt>
      <trkpt lat="42.8994380" lon="-5.9554340">
        <ele>1164.8</ele>
        <time>2021-10-11T09:41:52Z</time>
      </trkpt>
      <trkpt lat="42.8994240" lon="-5.9554870">
        <ele>1165.2</ele>
        <time>2021-10-11T09:41:54Z</time>
      </trkpt>
      <trkpt lat="42.8994040" lon="-5.9555320">
        <ele>1165.2</ele>
        <time>2021-10-11T09:41:56Z</time>
      </trkpt>
      <trkpt lat="42.8993430" lon="-5.9556630">
        <ele>1165.6</ele>
        <time>2021-10-11T09:42:01Z</time>
      </trkpt>
      <trkpt lat="42.8993260" lon="-5.9557140">
        <ele>1165.8</ele>
        <time>2021-10-11T09:42:03Z</time>
      </trkpt>
      <trkpt lat="42.8993220" lon="-5.9557410">
        <ele>1165.8</ele>
        <time>2021-10-11T09:42:04Z</time>
      </trkpt>
      <trkpt lat="42.8993140" lon="-5.9557920">
        <ele>1166.0</ele>
        <time>2021-10-11T09:42:06Z</time>
      </trkpt>
      <trkpt lat="42.8992940" lon="-5.9558780">
        <ele>1166.2</ele>
        <time>2021-10-11T09:42:09Z</time>
      </trkpt>
      <trkpt lat="42.8992730" lon="-5.9559560">
        <ele>1166.6</ele>
        <time>2021-10-11T09:42:12Z</time>
      </trkpt>
      <trkpt lat="42.8992560" lon="-5.9560130">
        <ele>1166.8</ele>
        <time>2021-10-11T09:42:14Z</time>
      </trkpt>
      <trkpt lat="42.8992510" lon="-5.9560380">
        <ele>1167.0</ele>
        <time>2021-10-11T09:42:15Z</time>
      </trkpt>
      <trkpt lat="42.8992390" lon="-5.9560930">
        <ele>1167.0</ele>
        <time>2021-10-11T09:42:17Z</time>
      </trkpt>
      <trkpt lat="42.8992240" lon="-5.9561450">
        <ele>1167.4</ele>
        <time>2021-10-11T09:42:19Z</time>
      </trkpt>
      <trkpt lat="42.8991750" lon="-5.9562620">
        <ele>1167.6</ele>
        <time>2021-10-11T09:42:23Z</time>
      </trkpt>
      <trkpt lat="42.8991030" lon="-5.9564450">
        <ele>1167.8</ele>
        <time>2021-10-11T09:42:29Z</time>
      </trkpt>
      <trkpt lat="42.8990670" lon="-5.9565620">
        <ele>1168.0</ele>
        <time>2021-10-11T09:42:33Z</time>
      </trkpt>
      <trkpt lat="42.8990430" lon="-5.9566530">
        <ele>1168.2</ele>
        <time>2021-10-11T09:42:36Z</time>
      </trkpt>
      <trkpt lat="42.8990170" lon="-5.9567190">
        <ele>1168.4</ele>
        <time>2021-10-11T09:42:38Z</time>
      </trkpt>
      <trkpt lat="42.8989700" lon="-5.9568550">
        <ele>1168.8</ele>
        <time>2021-10-11T09:42:42Z</time>
      </trkpt>
      <trkpt lat="42.8989230" lon="-5.9569500">
        <ele>1168.8</ele>
        <time>2021-10-11T09:42:45Z</time>
      </trkpt>
      <trkpt lat="42.8988980" lon="-5.9570100">
        <ele>1169.0</ele>
        <time>2021-10-11T09:42:47Z</time>
      </trkpt>
      <trkpt lat="42.8988650" lon="-5.9570610">
        <ele>1169.0</ele>
        <time>2021-10-11T09:42:49Z</time>
      </trkpt>
      <trkpt lat="42.8987230" lon="-5.9572600">
        <ele>1169.4</ele>
        <time>2021-10-11T09:42:57Z</time>
      </trkpt>
      <trkpt lat="42.8986760" lon="-5.9573350">
        <ele>1169.6</ele>
        <time>2021-10-11T09:43:00Z</time>
      </trkpt>
      <trkpt lat="42.8986540" lon="-5.9573920">
        <ele>1169.8</ele>
        <time>2021-10-11T09:43:02Z</time>
      </trkpt>
      <trkpt lat="42.8986310" lon="-5.9574530">
        <ele>1170.0</ele>
        <time>2021-10-11T09:43:04Z</time>
      </trkpt>
      <trkpt lat="42.8986280" lon="-5.9576400">
        <ele>1170.4</ele>
        <time>2021-10-11T09:43:10Z</time>
      </trkpt>
      <trkpt lat="42.8986370" lon="-5.9577120">
        <ele>1171.0</ele>
        <time>2021-10-11T09:43:13Z</time>
      </trkpt>
      <trkpt lat="42.8986500" lon="-5.9577920">
        <ele>1171.6</ele>
        <time>2021-10-11T09:43:16Z</time>
      </trkpt>
      <trkpt lat="42.8986630" lon="-5.9578540">
        <ele>1172.0</ele>
        <time>2021-10-11T09:43:19Z</time>
      </trkpt>
      <trkpt lat="42.8986810" lon="-5.9579450">
        <ele>1172.6</ele>
        <time>2021-10-11T09:43:23Z</time>
      </trkpt>
      <trkpt lat="42.8986790" lon="-5.9579730">
        <ele>1172.8</ele>
        <time>2021-10-11T09:43:24Z</time>
      </trkpt>
      <trkpt lat="42.8986750" lon="-5.9580240">
        <ele>1173.0</ele>
        <time>2021-10-11T09:43:26Z</time>
      </trkpt>
      <trkpt lat="42.8986700" lon="-5.9581230">
        <ele>1173.6</ele>
        <time>2021-10-11T09:43:30Z</time>
      </trkpt>
      <trkpt lat="42.8986770" lon="-5.9581690">
        <ele>1174.0</ele>
        <time>2021-10-11T09:43:32Z</time>
      </trkpt>
      <trkpt lat="42.8986800" lon="-5.9582180">
        <ele>1174.4</ele>
        <time>2021-10-11T09:43:34Z</time>
      </trkpt>
      <trkpt lat="42.8986840" lon="-5.9582690">
        <ele>1174.6</ele>
        <time>2021-10-11T09:43:36Z</time>
      </trkpt>
      <trkpt lat="42.8986840" lon="-5.9582910">
        <ele>1174.8</ele>
        <time>2021-10-11T09:43:37Z</time>
      </trkpt>
      <trkpt lat="42.8986810" lon="-5.9583620">
        <ele>1175.2</ele>
        <time>2021-10-11T09:43:40Z</time>
      </trkpt>
      <trkpt lat="42.8986830" lon="-5.9583900">
        <ele>1175.4</ele>
        <time>2021-10-11T09:43:41Z</time>
      </trkpt>
      <trkpt lat="42.8986890" lon="-5.9585370">
        <ele>1176.6</ele>
        <time>2021-10-11T09:43:47Z</time>
      </trkpt>
      <trkpt lat="42.8986940" lon="-5.9587180">
        <ele>1177.4</ele>
        <time>2021-10-11T09:43:54Z</time>
      </trkpt>
      <trkpt lat="42.8986940" lon="-5.9587650">
        <ele>1177.6</ele>
        <time>2021-10-11T09:43:56Z</time>
      </trkpt>
      <trkpt lat="42.8987000" lon="-5.9589030">
        <ele>1178.4</ele>
        <time>2021-10-11T09:44:01Z</time>
      </trkpt>
      <trkpt lat="42.8987110" lon="-5.9589970">
        <ele>1178.6</ele>
        <time>2021-10-11T09:44:05Z</time>
      </trkpt>
      <trkpt lat="42.8987030" lon="-5.9591020">
        <ele>1178.8</ele>
        <time>2021-10-11T09:44:09Z</time>
      </trkpt>
      <trkpt lat="42.8986870" lon="-5.9591840">
        <ele>1179.2</ele>
        <time>2021-10-11T09:44:12Z</time>
      </trkpt>
      <trkpt lat="42.8986610" lon="-5.9592670">
        <ele>1179.2</ele>
        <time>2021-10-11T09:44:15Z</time>
      </trkpt>
      <trkpt lat="42.8986540" lon="-5.9592950">
        <ele>1179.4</ele>
        <time>2021-10-11T09:44:16Z</time>
      </trkpt>
      <trkpt lat="42.8986340" lon="-5.9593570">
        <ele>1179.6</ele>
        <time>2021-10-11T09:44:18Z</time>
      </trkpt>
      <trkpt lat="42.8985930" lon="-5.9594610">
        <ele>1180.4</ele>
        <time>2021-10-11T09:44:22Z</time>
      </trkpt>
      <trkpt lat="42.8985770" lon="-5.9595110">
        <ele>1180.6</ele>
        <time>2021-10-11T09:44:24Z</time>
      </trkpt>
      <trkpt lat="42.8985400" lon="-5.9596300">
        <ele>1181.0</ele>
        <time>2021-10-11T09:44:28Z</time>
      </trkpt>
      <trkpt lat="42.8985230" lon="-5.9596980">
        <ele>1181.4</ele>
        <time>2021-10-11T09:44:30Z</time>
      </trkpt>
      <trkpt lat="42.8984970" lon="-5.9597560">
        <ele>1181.6</ele>
        <time>2021-10-11T09:44:32Z</time>
      </trkpt>
      <trkpt lat="42.8984870" lon="-5.9598020">
        <ele>1182.0</ele>
        <time>2021-10-11T09:44:34Z</time>
      </trkpt>
      <trkpt lat="42.8984760" lon="-5.9598820">
        <ele>1182.4</ele>
        <time>2021-10-11T09:44:37Z</time>
      </trkpt>
      <trkpt lat="42.8984710" lon="-5.9599430">
        <ele>1182.6</ele>
        <time>2021-10-11T09:44:39Z</time>
      </trkpt>
      <trkpt lat="42.8984650" lon="-5.9599680">
        <ele>1182.6</ele>
        <time>2021-10-11T09:44:40Z</time>
      </trkpt>
      <trkpt lat="42.8984540" lon="-5.9600220">
        <ele>1182.8</ele>
        <time>2021-10-11T09:44:42Z</time>
      </trkpt>
      <trkpt lat="42.8984490" lon="-5.9600490">
        <ele>1183.0</ele>
        <time>2021-10-11T09:44:43Z</time>
      </trkpt>
      <trkpt lat="42.8984370" lon="-5.9601000">
        <ele>1183.2</ele>
        <time>2021-10-11T09:44:45Z</time>
      </trkpt>
      <trkpt lat="42.8984330" lon="-5.9601230">
        <ele>1183.2</ele>
        <time>2021-10-11T09:44:46Z</time>
      </trkpt>
      <trkpt lat="42.8984270" lon="-5.9601660">
        <ele>1183.6</ele>
        <time>2021-10-11T09:44:48Z</time>
      </trkpt>
      <trkpt lat="42.8983720" lon="-5.9603370">
        <ele>1184.6</ele>
        <time>2021-10-11T09:44:55Z</time>
      </trkpt>
      <trkpt lat="42.8983650" lon="-5.9603580">
        <ele>1184.8</ele>
        <time>2021-10-11T09:44:56Z</time>
      </trkpt>
      <trkpt lat="42.8983250" lon="-5.9604950">
        <ele>1185.6</ele>
        <time>2021-10-11T09:45:02Z</time>
      </trkpt>
      <trkpt lat="42.8983150" lon="-5.9605190">
        <ele>1185.8</ele>
        <time>2021-10-11T09:45:03Z</time>
      </trkpt>
      <trkpt lat="42.8982930" lon="-5.9605940">
        <ele>1186.2</ele>
        <time>2021-10-11T09:45:06Z</time>
      </trkpt>
      <trkpt lat="42.8982400" lon="-5.9607150">
        <ele>1186.8</ele>
        <time>2021-10-11T09:45:11Z</time>
      </trkpt>
      <trkpt lat="42.8982280" lon="-5.9607580">
        <ele>1187.0</ele>
        <time>2021-10-11T09:45:13Z</time>
      </trkpt>
      <trkpt lat="42.8982000" lon="-5.9608690">
        <ele>1187.8</ele>
        <time>2021-10-11T09:45:18Z</time>
      </trkpt>
      <trkpt lat="42.8981840" lon="-5.9609170">
        <ele>1188.0</ele>
        <time>2021-10-11T09:45:20Z</time>
      </trkpt>
      <trkpt lat="42.8981720" lon="-5.9609610">
        <ele>1188.2</ele>
        <time>2021-10-11T09:45:22Z</time>
      </trkpt>
      <trkpt lat="42.8981570" lon="-5.9610650">
        <ele>1188.8</ele>
        <time>2021-10-11T09:45:26Z</time>
      </trkpt>
      <trkpt lat="42.8981430" lon="-5.9611440">
        <ele>1189.2</ele>
        <time>2021-10-11T09:45:29Z</time>
      </trkpt>
      <trkpt lat="42.8981170" lon="-5.9612460">
        <ele>1189.8</ele>
        <time>2021-10-11T09:45:33Z</time>
      </trkpt>
      <trkpt lat="42.8981030" lon="-5.9613170">
        <ele>1190.2</ele>
        <time>2021-10-11T09:45:36Z</time>
      </trkpt>
      <trkpt lat="42.8981000" lon="-5.9614390">
        <ele>1190.6</ele>
        <time>2021-10-11T09:45:41Z</time>
      </trkpt>
      <trkpt lat="42.8980710" lon="-5.9616060">
        <ele>1191.2</ele>
        <time>2021-10-11T09:45:47Z</time>
      </trkpt>
      <trkpt lat="42.8980450" lon="-5.9616970">
        <ele>1191.4</ele>
        <time>2021-10-11T09:45:50Z</time>
      </trkpt>
      <trkpt lat="42.8979900" lon="-5.9618600">
        <ele>1191.6</ele>
        <time>2021-10-11T09:45:56Z</time>
      </trkpt>
      <trkpt lat="42.8979650" lon="-5.9619230">
        <ele>1192.0</ele>
        <time>2021-10-11T09:45:58Z</time>
      </trkpt>
      <trkpt lat="42.8979430" lon="-5.9619770">
        <ele>1192.2</ele>
        <time>2021-10-11T09:46:00Z</time>
      </trkpt>
      <trkpt lat="42.8978800" lon="-5.9621400">
        <ele>1192.6</ele>
        <time>2021-10-11T09:46:06Z</time>
      </trkpt>
      <trkpt lat="42.8978320" lon="-5.9622760">
        <ele>1192.8</ele>
        <time>2021-10-11T09:46:11Z</time>
      </trkpt>
      <trkpt lat="42.8978020" lon="-5.9623860">
        <ele>1193.2</ele>
        <time>2021-10-11T09:46:15Z</time>
      </trkpt>
      <trkpt lat="42.8977800" lon="-5.9625030">
        <ele>1193.8</ele>
        <time>2021-10-11T09:46:19Z</time>
      </trkpt>
      <trkpt lat="42.8977540" lon="-5.9626090">
        <ele>1194.2</ele>
        <time>2021-10-11T09:46:23Z</time>
      </trkpt>
      <trkpt lat="42.8977430" lon="-5.9627020">
        <ele>1194.6</ele>
        <time>2021-10-11T09:46:27Z</time>
      </trkpt>
      <trkpt lat="42.8977430" lon="-5.9627880">
        <ele>1195.0</ele>
        <time>2021-10-11T09:46:30Z</time>
      </trkpt>
      <trkpt lat="42.8977470" lon="-5.9628400">
        <ele>1195.2</ele>
        <time>2021-10-11T09:46:32Z</time>
      </trkpt>
      <trkpt lat="42.8977490" lon="-5.9628700">
        <ele>1195.2</ele>
        <time>2021-10-11T09:46:33Z</time>
      </trkpt>
      <trkpt lat="42.8977530" lon="-5.9628960">
        <ele>1195.4</ele>
        <time>2021-10-11T09:46:34Z</time>
      </trkpt>
      <trkpt lat="42.8977760" lon="-5.9630410">
        <ele>1196.0</ele>
        <time>2021-10-11T09:46:39Z</time>
      </trkpt>
      <trkpt lat="42.8977790" lon="-5.9631730">
        <ele>1196.4</ele>
        <time>2021-10-11T09:46:43Z</time>
      </trkpt>
      <trkpt lat="42.8977940" lon="-5.9633110">
        <ele>1196.8</ele>
        <time>2021-10-11T09:46:48Z</time>
      </trkpt>
      <trkpt lat="42.8978050" lon="-5.9633670">
        <ele>1197.0</ele>
        <time>2021-10-11T09:46:50Z</time>
      </trkpt>
      <trkpt lat="42.8978110" lon="-5.9634800">
        <ele>1197.4</ele>
        <time>2021-10-11T09:46:54Z</time>
      </trkpt>
      <trkpt lat="42.8978100" lon="-5.9635120">
        <ele>1197.4</ele>
        <time>2021-10-11T09:46:55Z</time>
      </trkpt>
      <trkpt lat="42.8978020" lon="-5.9635830">
        <ele>1197.6</ele>
        <time>2021-10-11T09:46:57Z</time>
      </trkpt>
      <trkpt lat="42.8977680" lon="-5.9637080">
        <ele>1198.0</ele>
        <time>2021-10-11T09:47:01Z</time>
      </trkpt>
      <trkpt lat="42.8977380" lon="-5.9637830">
        <ele>1198.2</ele>
        <time>2021-10-11T09:47:04Z</time>
      </trkpt>
      <trkpt lat="42.8976950" lon="-5.9638720">
        <ele>1198.6</ele>
        <time>2021-10-11T09:47:07Z</time>
      </trkpt>
      <trkpt lat="42.8976850" lon="-5.9638980">
        <ele>1198.6</ele>
        <time>2021-10-11T09:47:08Z</time>
      </trkpt>
      <trkpt lat="42.8976650" lon="-5.9639910">
        <ele>1199.0</ele>
        <time>2021-10-11T09:47:11Z</time>
      </trkpt>
      <trkpt lat="42.8976610" lon="-5.9640140">
        <ele>1199.2</ele>
        <time>2021-10-11T09:47:12Z</time>
      </trkpt>
      <trkpt lat="42.8976490" lon="-5.9640700">
        <ele>1199.4</ele>
        <time>2021-10-11T09:47:14Z</time>
      </trkpt>
      <trkpt lat="42.8976510" lon="-5.9641340">
        <ele>1199.6</ele>
        <time>2021-10-11T09:47:16Z</time>
      </trkpt>
      <trkpt lat="42.8976580" lon="-5.9641920">
        <ele>1200.0</ele>
        <time>2021-10-11T09:47:18Z</time>
      </trkpt>
      <trkpt lat="42.8976690" lon="-5.9642600">
        <ele>1200.0</ele>
        <time>2021-10-11T09:47:20Z</time>
      </trkpt>
      <trkpt lat="42.8976780" lon="-5.9643590">
        <ele>1200.4</ele>
        <time>2021-10-11T09:47:24Z</time>
      </trkpt>
      <trkpt lat="42.8976740" lon="-5.9644200">
        <ele>1200.4</ele>
        <time>2021-10-11T09:47:26Z</time>
      </trkpt>
      <trkpt lat="42.8976700" lon="-5.9644440">
        <ele>1200.4</ele>
        <time>2021-10-11T09:47:27Z</time>
      </trkpt>
      <trkpt lat="42.8976450" lon="-5.9645750">
        <ele>1200.8</ele>
        <time>2021-10-11T09:47:31Z</time>
      </trkpt>
      <trkpt lat="42.8976210" lon="-5.9646280">
        <ele>1201.0</ele>
        <time>2021-10-11T09:47:33Z</time>
      </trkpt>
      <trkpt lat="42.8975580" lon="-5.9647380">
        <ele>1201.6</ele>
        <time>2021-10-11T09:47:38Z</time>
      </trkpt>
      <trkpt lat="42.8975310" lon="-5.9647750">
        <ele>1202.2</ele>
        <time>2021-10-11T09:47:40Z</time>
      </trkpt>
      <trkpt lat="42.8975190" lon="-5.9647970">
        <ele>1202.6</ele>
        <time>2021-10-11T09:47:41Z</time>
      </trkpt>
      <trkpt lat="42.8975080" lon="-5.9648090">
        <ele>1202.6</ele>
        <time>2021-10-11T09:47:42Z</time>
      </trkpt>
      <trkpt lat="42.8974670" lon="-5.9648450">
        <ele>1202.8</ele>
        <time>2021-10-11T09:47:44Z</time>
      </trkpt>
      <trkpt lat="42.8974390" lon="-5.9648860">
        <ele>1203.2</ele>
        <time>2021-10-11T09:47:47Z</time>
      </trkpt>
      <trkpt lat="42.8973960" lon="-5.9649090">
        <ele>1203.4</ele>
        <time>2021-10-11T09:47:49Z</time>
      </trkpt>
      <trkpt lat="42.8973410" lon="-5.9649380">
        <ele>1204.0</ele>
        <time>2021-10-11T09:47:52Z</time>
      </trkpt>
      <trkpt lat="42.8972570" lon="-5.9650030">
        <ele>1204.6</ele>
        <time>2021-10-11T09:47:56Z</time>
      </trkpt>
      <trkpt lat="42.8972200" lon="-5.9650170">
        <ele>1204.8</ele>
        <time>2021-10-11T09:47:58Z</time>
      </trkpt>
      <trkpt lat="42.8971300" lon="-5.9650390">
        <ele>1205.8</ele>
        <time>2021-10-11T09:48:03Z</time>
      </trkpt>
      <trkpt lat="42.8970560" lon="-5.9650490">
        <ele>1206.6</ele>
        <time>2021-10-11T09:48:08Z</time>
      </trkpt>
      <trkpt lat="42.8970190" lon="-5.9650420">
        <ele>1207.0</ele>
        <time>2021-10-11T09:48:10Z</time>
      </trkpt>
      <trkpt lat="42.8969620" lon="-5.9650250">
        <ele>1207.6</ele>
        <time>2021-10-11T09:48:14Z</time>
      </trkpt>
      <trkpt lat="42.8969450" lon="-5.9650290">
        <ele>1207.6</ele>
        <time>2021-10-11T09:48:15Z</time>
      </trkpt>
      <trkpt lat="42.8969290" lon="-5.9650330">
        <ele>1207.8</ele>
        <time>2021-10-11T09:48:16Z</time>
      </trkpt>
      <trkpt lat="42.8968880" lon="-5.9650290">
        <ele>1208.2</ele>
        <time>2021-10-11T09:48:18Z</time>
      </trkpt>
      <trkpt lat="42.8967780" lon="-5.9650350">
        <ele>1208.8</ele>
        <time>2021-10-11T09:48:23Z</time>
      </trkpt>
      <trkpt lat="42.8967550" lon="-5.9650330">
        <ele>1209.0</ele>
        <time>2021-10-11T09:48:24Z</time>
      </trkpt>
      <trkpt lat="42.8966960" lon="-5.9650370">
        <ele>1209.2</ele>
        <time>2021-10-11T09:48:26Z</time>
      </trkpt>
      <trkpt lat="42.8966770" lon="-5.9650360">
        <ele>1209.2</ele>
        <time>2021-10-11T09:48:27Z</time>
      </trkpt>
      <trkpt lat="42.8966510" lon="-5.9650360">
        <ele>1209.2</ele>
        <time>2021-10-11T09:48:28Z</time>
      </trkpt>
      <trkpt lat="42.8965660" lon="-5.9650410">
        <ele>1209.2</ele>
        <time>2021-10-11T09:48:31Z</time>
      </trkpt>
      <trkpt lat="42.8965380" lon="-5.9650450">
        <ele>1209.2</ele>
        <time>2021-10-11T09:48:32Z</time>
      </trkpt>
      <trkpt lat="42.8964500" lon="-5.9650600">
        <ele>1209.4</ele>
        <time>2021-10-11T09:48:35Z</time>
      </trkpt>
      <trkpt lat="42.8963850" lon="-5.9650740">
        <ele>1209.4</ele>
        <time>2021-10-11T09:48:37Z</time>
      </trkpt>
      <trkpt lat="42.8963310" lon="-5.9651110">
        <ele>1209.4</ele>
        <time>2021-10-11T09:48:39Z</time>
      </trkpt>
      <trkpt lat="42.8962900" lon="-5.9652000">
        <ele>1209.4</ele>
        <time>2021-10-11T09:48:42Z</time>
      </trkpt>
      <trkpt lat="42.8962770" lon="-5.9652750">
        <ele>1209.4</ele>
        <time>2021-10-11T09:48:44Z</time>
      </trkpt>
      <trkpt lat="42.8962540" lon="-5.9654690">
        <ele>1209.6</ele>
        <time>2021-10-11T09:48:49Z</time>
      </trkpt>
      <trkpt lat="42.8961890" lon="-5.9656280">
        <ele>1210.0</ele>
        <time>2021-10-11T09:48:54Z</time>
      </trkpt>
      <trkpt lat="42.8961480" lon="-5.9656690">
        <ele>1210.0</ele>
        <time>2021-10-11T09:48:56Z</time>
      </trkpt>
      <trkpt lat="42.8960480" lon="-5.9657300">
        <ele>1210.4</ele>
        <time>2021-10-11T09:49:00Z</time>
      </trkpt>
      <trkpt lat="42.8959730" lon="-5.9657660">
        <ele>1210.8</ele>
        <time>2021-10-11T09:49:03Z</time>
      </trkpt>
      <trkpt lat="42.8959000" lon="-5.9658050">
        <ele>1211.0</ele>
        <time>2021-10-11T09:49:06Z</time>
      </trkpt>
      <trkpt lat="42.8957950" lon="-5.9658380">
        <ele>1211.4</ele>
        <time>2021-10-11T09:49:10Z</time>
      </trkpt>
      <trkpt lat="42.8957010" lon="-5.9658760">
        <ele>1211.8</ele>
        <time>2021-10-11T09:49:14Z</time>
      </trkpt>
      <trkpt lat="42.8956510" lon="-5.9658940">
        <ele>1211.6</ele>
        <time>2021-10-11T09:49:16Z</time>
      </trkpt>
      <trkpt lat="42.8955730" lon="-5.9659260">
        <ele>1211.8</ele>
        <time>2021-10-11T09:49:19Z</time>
      </trkpt>
      <trkpt lat="42.8955030" lon="-5.9659430">
        <ele>1212.2</ele>
        <time>2021-10-11T09:49:22Z</time>
      </trkpt>
      <trkpt lat="42.8954330" lon="-5.9659610">
        <ele>1212.4</ele>
        <time>2021-10-11T09:49:25Z</time>
      </trkpt>
      <trkpt lat="42.8953650" lon="-5.9659890">
        <ele>1212.8</ele>
        <time>2021-10-11T09:49:28Z</time>
      </trkpt>
      <trkpt lat="42.8953190" lon="-5.9660070">
        <ele>1213.0</ele>
        <time>2021-10-11T09:49:30Z</time>
      </trkpt>
      <trkpt lat="42.8952560" lon="-5.9660250">
        <ele>1213.4</ele>
        <time>2021-10-11T09:49:33Z</time>
      </trkpt>
      <trkpt lat="42.8952000" lon="-5.9660830">
        <ele>1213.8</ele>
        <time>2021-10-11T09:49:37Z</time>
      </trkpt>
      <trkpt lat="42.8951820" lon="-5.9661090">
        <ele>1214.2</ele>
        <time>2021-10-11T09:49:38Z</time>
      </trkpt>
      <trkpt lat="42.8951090" lon="-5.9662460">
        <ele>1215.2</ele>
        <time>2021-10-11T09:49:44Z</time>
      </trkpt>
      <trkpt lat="42.8950770" lon="-5.9663150">
        <ele>1215.6</ele>
        <time>2021-10-11T09:49:47Z</time>
      </trkpt>
      <trkpt lat="42.8950560" lon="-5.9663650">
        <ele>1215.8</ele>
        <time>2021-10-11T09:49:49Z</time>
      </trkpt>
      <trkpt lat="42.8950290" lon="-5.9664150">
        <ele>1216.0</ele>
        <time>2021-10-11T09:49:51Z</time>
      </trkpt>
      <trkpt lat="42.8950040" lon="-5.9664700">
        <ele>1216.4</ele>
        <time>2021-10-11T09:49:53Z</time>
      </trkpt>
      <trkpt lat="42.8949870" lon="-5.9664960">
        <ele>1216.6</ele>
        <time>2021-10-11T09:49:54Z</time>
      </trkpt>
      <trkpt lat="42.8949600" lon="-5.9665460">
        <ele>1216.8</ele>
        <time>2021-10-11T09:49:56Z</time>
      </trkpt>
      <trkpt lat="42.8949310" lon="-5.9666300">
        <ele>1217.0</ele>
        <time>2021-10-11T09:49:59Z</time>
      </trkpt>
      <trkpt lat="42.8949080" lon="-5.9666870">
        <ele>1217.2</ele>
        <time>2021-10-11T09:50:01Z</time>
      </trkpt>
      <trkpt lat="42.8948930" lon="-5.9667330">
        <ele>1217.2</ele>
        <time>2021-10-11T09:50:03Z</time>
      </trkpt>
      <trkpt lat="42.8948820" lon="-5.9667540">
        <ele>1217.4</ele>
        <time>2021-10-11T09:50:04Z</time>
      </trkpt>
      <trkpt lat="42.8948490" lon="-5.9668000">
        <ele>1217.4</ele>
        <time>2021-10-11T09:50:06Z</time>
      </trkpt>
      <trkpt lat="42.8948020" lon="-5.9668710">
        <ele>1217.8</ele>
        <time>2021-10-11T09:50:09Z</time>
      </trkpt>
      <trkpt lat="42.8947790" lon="-5.9669360">
        <ele>1218.0</ele>
        <time>2021-10-11T09:50:11Z</time>
      </trkpt>
      <trkpt lat="42.8947500" lon="-5.9670040">
        <ele>1218.2</ele>
        <time>2021-10-11T09:50:13Z</time>
      </trkpt>
      <trkpt lat="42.8947320" lon="-5.9670500">
        <ele>1218.4</ele>
        <time>2021-10-11T09:50:15Z</time>
      </trkpt>
      <trkpt lat="42.8945850" lon="-5.9673260">
        <ele>1219.2</ele>
        <time>2021-10-11T09:50:24Z</time>
      </trkpt>
      <trkpt lat="42.8945550" lon="-5.9673610">
        <ele>1219.4</ele>
        <time>2021-10-11T09:50:26Z</time>
      </trkpt>
      <trkpt lat="42.8944230" lon="-5.9675750">
        <ele>1220.0</ele>
        <time>2021-10-11T09:50:34Z</time>
      </trkpt>
      <trkpt lat="42.8943940" lon="-5.9676180">
        <ele>1220.2</ele>
        <time>2021-10-11T09:50:36Z</time>
      </trkpt>
      <trkpt lat="42.8943660" lon="-5.9676630">
        <ele>1220.4</ele>
        <time>2021-10-11T09:50:38Z</time>
      </trkpt>
      <trkpt lat="42.8943360" lon="-5.9677130">
        <ele>1220.4</ele>
        <time>2021-10-11T09:50:40Z</time>
      </trkpt>
      <trkpt lat="42.8942960" lon="-5.9677870">
        <ele>1220.8</ele>
        <time>2021-10-11T09:50:43Z</time>
      </trkpt>
      <trkpt lat="42.8942350" lon="-5.9679340">
        <ele>1221.0</ele>
        <time>2021-10-11T09:50:48Z</time>
      </trkpt>
      <trkpt lat="42.8941980" lon="-5.9679910">
        <ele>1221.2</ele>
        <time>2021-10-11T09:50:50Z</time>
      </trkpt>
      <trkpt lat="42.8941320" lon="-5.9681170">
        <ele>1221.8</ele>
        <time>2021-10-11T09:50:55Z</time>
      </trkpt>
      <trkpt lat="42.8940970" lon="-5.9681770">
        <ele>1222.2</ele>
        <time>2021-10-11T09:50:58Z</time>
      </trkpt>
      <trkpt lat="42.8940890" lon="-5.9681940">
        <ele>1222.4</ele>
        <time>2021-10-11T09:50:59Z</time>
      </trkpt>
      <trkpt lat="42.8940690" lon="-5.9682300">
        <ele>1222.6</ele>
        <time>2021-10-11T09:51:01Z</time>
      </trkpt>
      <trkpt lat="42.8940340" lon="-5.9682830">
        <ele>1223.2</ele>
        <time>2021-10-11T09:51:04Z</time>
      </trkpt>
      <trkpt lat="42.8939940" lon="-5.9683350">
        <ele>1223.6</ele>
        <time>2021-10-11T09:51:07Z</time>
      </trkpt>
      <trkpt lat="42.8939600" lon="-5.9683870">
        <ele>1224.0</ele>
        <time>2021-10-11T09:51:10Z</time>
      </trkpt>
      <trkpt lat="42.8939460" lon="-5.9684060">
        <ele>1224.0</ele>
        <time>2021-10-11T09:51:11Z</time>
      </trkpt>
      <trkpt lat="42.8939190" lon="-5.9684460">
        <ele>1224.6</ele>
        <time>2021-10-11T09:51:13Z</time>
      </trkpt>
      <trkpt lat="42.8938990" lon="-5.9684870">
        <ele>1225.0</ele>
        <time>2021-10-11T09:51:15Z</time>
      </trkpt>
      <trkpt lat="42.8938550" lon="-5.9685670">
        <ele>1225.6</ele>
        <time>2021-10-11T09:51:19Z</time>
      </trkpt>
      <trkpt lat="42.8938450" lon="-5.9685900">
        <ele>1225.8</ele>
        <time>2021-10-11T09:51:20Z</time>
      </trkpt>
      <trkpt lat="42.8938180" lon="-5.9686620">
        <ele>1226.2</ele>
        <time>2021-10-11T09:51:23Z</time>
      </trkpt>
      <trkpt lat="42.8938050" lon="-5.9687170">
        <ele>1226.6</ele>
        <time>2021-10-11T09:51:25Z</time>
      </trkpt>
      <trkpt lat="42.8937990" lon="-5.9687410">
        <ele>1226.8</ele>
        <time>2021-10-11T09:51:26Z</time>
      </trkpt>
      <trkpt lat="42.8937930" lon="-5.9687690">
        <ele>1227.0</ele>
        <time>2021-10-11T09:51:27Z</time>
      </trkpt>
      <trkpt lat="42.8937840" lon="-5.9688260">
        <ele>1227.2</ele>
        <time>2021-10-11T09:51:29Z</time>
      </trkpt>
      <trkpt lat="42.8937720" lon="-5.9689040">
        <ele>1227.4</ele>
        <time>2021-10-11T09:51:32Z</time>
      </trkpt>
      <trkpt lat="42.8937680" lon="-5.9689790">
        <ele>1227.8</ele>
        <time>2021-10-11T09:51:35Z</time>
      </trkpt>
      <trkpt lat="42.8937580" lon="-5.9690260">
        <ele>1228.0</ele>
        <time>2021-10-11T09:51:37Z</time>
      </trkpt>
      <trkpt lat="42.8937480" lon="-5.9691770">
        <ele>1228.6</ele>
        <time>2021-10-11T09:51:43Z</time>
      </trkpt>
      <trkpt lat="42.8937460" lon="-5.9692390">
        <ele>1229.0</ele>
        <time>2021-10-11T09:51:45Z</time>
      </trkpt>
      <trkpt lat="42.8937500" lon="-5.9693850">
        <ele>1229.6</ele>
        <time>2021-10-11T09:51:50Z</time>
      </trkpt>
      <trkpt lat="42.8937540" lon="-5.9694840">
        <ele>1230.2</ele>
        <time>2021-10-11T09:51:54Z</time>
      </trkpt>
      <trkpt lat="42.8937640" lon="-5.9695560">
        <ele>1230.6</ele>
        <time>2021-10-11T09:51:57Z</time>
      </trkpt>
      <trkpt lat="42.8937670" lon="-5.9695780">
        <ele>1230.8</ele>
        <time>2021-10-11T09:51:58Z</time>
      </trkpt>
      <trkpt lat="42.8937730" lon="-5.9696640">
        <ele>1231.2</ele>
        <time>2021-10-11T09:52:02Z</time>
      </trkpt>
      <trkpt lat="42.8937770" lon="-5.9696850">
        <ele>1231.4</ele>
        <time>2021-10-11T09:52:03Z</time>
      </trkpt>
      <trkpt lat="42.8937920" lon="-5.9698340">
        <ele>1232.2</ele>
        <time>2021-10-11T09:52:09Z</time>
      </trkpt>
      <trkpt lat="42.8938000" lon="-5.9698690">
        <ele>1232.4</ele>
        <time>2021-10-11T09:52:11Z</time>
      </trkpt>
      <trkpt lat="42.8938260" lon="-5.9700280">
        <ele>1233.4</ele>
        <time>2021-10-11T09:52:17Z</time>
      </trkpt>
      <trkpt lat="42.8938230" lon="-5.9700560">
        <ele>1233.4</ele>
        <time>2021-10-11T09:52:18Z</time>
      </trkpt>
      <trkpt lat="42.8937830" lon="-5.9702430">
        <ele>1234.0</ele>
        <time>2021-10-11T09:52:25Z</time>
      </trkpt>
      <trkpt lat="42.8937660" lon="-5.9703080">
        <ele>1234.4</ele>
        <time>2021-10-11T09:52:28Z</time>
      </trkpt>
      <trkpt lat="42.8937390" lon="-5.9703910">
        <ele>1234.8</ele>
        <time>2021-10-11T09:52:32Z</time>
      </trkpt>
      <trkpt lat="42.8936670" lon="-5.9705370">
        <ele>1235.6</ele>
        <time>2021-10-11T09:52:39Z</time>
      </trkpt>
      <trkpt lat="42.8936550" lon="-5.9705580">
        <ele>1235.6</ele>
        <time>2021-10-11T09:52:40Z</time>
      </trkpt>
      <trkpt lat="42.8935930" lon="-5.9706720">
        <ele>1236.0</ele>
        <time>2021-10-11T09:52:46Z</time>
      </trkpt>
      <trkpt lat="42.8935810" lon="-5.9706870">
        <ele>1236.0</ele>
        <time>2021-10-11T09:52:47Z</time>
      </trkpt>
      <trkpt lat="42.8935330" lon="-5.9707440">
        <ele>1236.6</ele>
        <time>2021-10-11T09:52:51Z</time>
      </trkpt>
      <trkpt lat="42.8934950" lon="-5.9707990">
        <ele>1237.0</ele>
        <time>2021-10-11T09:52:54Z</time>
      </trkpt>
      <trkpt lat="42.8934250" lon="-5.9708710">
        <ele>1237.6</ele>
        <time>2021-10-11T09:52:59Z</time>
      </trkpt>
      <trkpt lat="42.8933980" lon="-5.9709060">
        <ele>1238.0</ele>
        <time>2021-10-11T09:53:01Z</time>
      </trkpt>
      <trkpt lat="42.8933270" lon="-5.9710050">
        <ele>1238.6</ele>
        <time>2021-10-11T09:53:07Z</time>
      </trkpt>
      <trkpt lat="42.8932880" lon="-5.9710640">
        <ele>1239.0</ele>
        <time>2021-10-11T09:53:10Z</time>
      </trkpt>
      <trkpt lat="42.8932590" lon="-5.9711250">
        <ele>1239.4</ele>
        <time>2021-10-11T09:53:13Z</time>
      </trkpt>
      <trkpt lat="42.8932510" lon="-5.9711430">
        <ele>1239.6</ele>
        <time>2021-10-11T09:53:14Z</time>
      </trkpt>
      <trkpt lat="42.8932380" lon="-5.9711680">
        <ele>1239.6</ele>
        <time>2021-10-11T09:53:15Z</time>
      </trkpt>
      <trkpt lat="42.8932310" lon="-5.9711870">
        <ele>1239.8</ele>
        <time>2021-10-11T09:53:16Z</time>
      </trkpt>
      <trkpt lat="42.8932190" lon="-5.9712340">
        <ele>1240.2</ele>
        <time>2021-10-11T09:53:18Z</time>
      </trkpt>
      <trkpt lat="42.8932080" lon="-5.9713060">
        <ele>1240.4</ele>
        <time>2021-10-11T09:53:21Z</time>
      </trkpt>
      <trkpt lat="42.8932040" lon="-5.9713600">
        <ele>1240.6</ele>
        <time>2021-10-11T09:53:23Z</time>
      </trkpt>
      <trkpt lat="42.8932040" lon="-5.9714130">
        <ele>1241.0</ele>
        <time>2021-10-11T09:53:25Z</time>
      </trkpt>
      <trkpt lat="42.8932110" lon="-5.9716190">
        <ele>1242.0</ele>
        <time>2021-10-11T09:53:32Z</time>
      </trkpt>
      <trkpt lat="42.8932190" lon="-5.9716520">
        <ele>1242.0</ele>
        <time>2021-10-11T09:53:33Z</time>
      </trkpt>
      <trkpt lat="42.8932300" lon="-5.9717390">
        <ele>1242.6</ele>
        <time>2021-10-11T09:53:36Z</time>
      </trkpt>
      <trkpt lat="42.8932210" lon="-5.9718660">
        <ele>1243.0</ele>
        <time>2021-10-11T09:53:40Z</time>
      </trkpt>
      <trkpt lat="42.8932230" lon="-5.9718900">
        <ele>1243.0</ele>
        <time>2021-10-11T09:53:41Z</time>
      </trkpt>
      <trkpt lat="42.8932270" lon="-5.9719130">
        <ele>1243.2</ele>
        <time>2021-10-11T09:53:42Z</time>
      </trkpt>
      <trkpt lat="42.8932280" lon="-5.9719670">
        <ele>1243.4</ele>
        <time>2021-10-11T09:53:44Z</time>
      </trkpt>
      <trkpt lat="42.8932270" lon="-5.9721090">
        <ele>1244.2</ele>
        <time>2021-10-11T09:53:49Z</time>
      </trkpt>
      <trkpt lat="42.8932320" lon="-5.9721630">
        <ele>1244.6</ele>
        <time>2021-10-11T09:53:51Z</time>
      </trkpt>
      <trkpt lat="42.8932360" lon="-5.9722110">
        <ele>1245.0</ele>
        <time>2021-10-11T09:53:53Z</time>
      </trkpt>
      <trkpt lat="42.8932380" lon="-5.9722620">
        <ele>1245.2</ele>
        <time>2021-10-11T09:53:55Z</time>
      </trkpt>
      <trkpt lat="42.8932430" lon="-5.9722810">
        <ele>1245.4</ele>
        <time>2021-10-11T09:53:56Z</time>
      </trkpt>
      <trkpt lat="42.8932480" lon="-5.9723820">
        <ele>1245.8</ele>
        <time>2021-10-11T09:54:00Z</time>
      </trkpt>
      <trkpt lat="42.8932520" lon="-5.9724670">
        <ele>1246.0</ele>
        <time>2021-10-11T09:54:03Z</time>
      </trkpt>
      <trkpt lat="42.8932550" lon="-5.9725030">
        <ele>1246.2</ele>
        <time>2021-10-11T09:54:04Z</time>
      </trkpt>
      <trkpt lat="42.8932540" lon="-5.9726580">
        <ele>1247.4</ele>
        <time>2021-10-11T09:54:11Z</time>
      </trkpt>
      <trkpt lat="42.8932590" lon="-5.9726930">
        <ele>1247.6</ele>
        <time>2021-10-11T09:54:13Z</time>
      </trkpt>
      <trkpt lat="42.8932860" lon="-5.9727780">
        <ele>1248.0</ele>
        <time>2021-10-11T09:54:17Z</time>
      </trkpt>
      <trkpt lat="42.8932900" lon="-5.9728500">
        <ele>1248.4</ele>
        <time>2021-10-11T09:54:20Z</time>
      </trkpt>
      <trkpt lat="42.8932910" lon="-5.9729000">
        <ele>1248.6</ele>
        <time>2021-10-11T09:54:22Z</time>
      </trkpt>
      <trkpt lat="42.8933000" lon="-5.9729210">
        <ele>1248.8</ele>
        <time>2021-10-11T09:54:23Z</time>
      </trkpt>
      <trkpt lat="42.8933230" lon="-5.9730590">
        <ele>1249.2</ele>
        <time>2021-10-11T09:54:28Z</time>
      </trkpt>
      <trkpt lat="42.8933350" lon="-5.9730880">
        <ele>1249.4</ele>
        <time>2021-10-11T09:54:29Z</time>
      </trkpt>
      <trkpt lat="42.8933450" lon="-5.9731180">
        <ele>1249.4</ele>
        <time>2021-10-11T09:54:30Z</time>
      </trkpt>
      <trkpt lat="42.8933510" lon="-5.9731490">
        <ele>1249.6</ele>
        <time>2021-10-11T09:54:31Z</time>
      </trkpt>
      <trkpt lat="42.8933620" lon="-5.9731740">
        <ele>1249.6</ele>
        <time>2021-10-11T09:54:32Z</time>
      </trkpt>
      <trkpt lat="42.8933960" lon="-5.9732990">
        <ele>1250.0</ele>
        <time>2021-10-11T09:54:36Z</time>
      </trkpt>
      <trkpt lat="42.8934050" lon="-5.9733790">
        <ele>1250.2</ele>
        <time>2021-10-11T09:54:38Z</time>
      </trkpt>
      <trkpt lat="42.8934190" lon="-5.9734380">
        <ele>1250.6</ele>
        <time>2021-10-11T09:54:40Z</time>
      </trkpt>
      <trkpt lat="42.8934430" lon="-5.9735390">
        <ele>1250.8</ele>
        <time>2021-10-11T09:54:43Z</time>
      </trkpt>
      <trkpt lat="42.8934660" lon="-5.9736590">
        <ele>1251.6</ele>
        <time>2021-10-11T09:54:47Z</time>
      </trkpt>
      <trkpt lat="42.8934940" lon="-5.9738610">
        <ele>1252.0</ele>
        <time>2021-10-11T09:54:54Z</time>
      </trkpt>
      <trkpt lat="42.8935050" lon="-5.9739630">
        <ele>1252.8</ele>
        <time>2021-10-11T09:54:58Z</time>
      </trkpt>
      <trkpt lat="42.8935080" lon="-5.9739930">
        <ele>1252.8</ele>
        <time>2021-10-11T09:54:59Z</time>
      </trkpt>
      <trkpt lat="42.8935110" lon="-5.9740220">
        <ele>1253.0</ele>
        <time>2021-10-11T09:55:00Z</time>
      </trkpt>
      <trkpt lat="42.8935120" lon="-5.9740770">
        <ele>1253.4</ele>
        <time>2021-10-11T09:55:02Z</time>
      </trkpt>
      <trkpt lat="42.8935160" lon="-5.9741790">
        <ele>1253.8</ele>
        <time>2021-10-11T09:55:05Z</time>
      </trkpt>
      <trkpt lat="42.8935270" lon="-5.9742790">
        <ele>1254.2</ele>
        <time>2021-10-11T09:55:08Z</time>
      </trkpt>
      <trkpt lat="42.8935260" lon="-5.9743130">
        <ele>1254.4</ele>
        <time>2021-10-11T09:55:09Z</time>
      </trkpt>
      <trkpt lat="42.8934850" lon="-5.9745420">
        <ele>1254.4</ele>
        <time>2021-10-11T09:55:14Z</time>
      </trkpt>
      <trkpt lat="42.8934030" lon="-5.9747530">
        <ele>1254.6</ele>
        <time>2021-10-11T09:55:18Z</time>
      </trkpt>
      <trkpt lat="42.8933810" lon="-5.9748030">
        <ele>1254.4</ele>
        <time>2021-10-11T09:55:19Z</time>
      </trkpt>
      <trkpt lat="42.8932950" lon="-5.9748880">
        <ele>1254.2</ele>
        <time>2021-10-11T09:55:21Z</time>
      </trkpt>
      <trkpt lat="42.8931740" lon="-5.9749470">
        <ele>1253.8</ele>
        <time>2021-10-11T09:55:23Z</time>
      </trkpt>
      <trkpt lat="42.8930430" lon="-5.9749960">
        <ele>1253.4</ele>
        <time>2021-10-11T09:55:25Z</time>
      </trkpt>
      <trkpt lat="42.8928880" lon="-5.9750340">
        <ele>1252.8</ele>
        <time>2021-10-11T09:55:28Z</time>
      </trkpt>
      <trkpt lat="42.8928480" lon="-5.9750490">
        <ele>1252.8</ele>
        <time>2021-10-11T09:55:29Z</time>
      </trkpt>
      <trkpt lat="42.8927010" lon="-5.9750950">
        <ele>1252.6</ele>
        <time>2021-10-11T09:55:34Z</time>
      </trkpt>
      <trkpt lat="42.8925260" lon="-5.9751300">
        <ele>1253.8</ele>
        <time>2021-10-11T09:55:41Z</time>
      </trkpt>
      <trkpt lat="42.8925010" lon="-5.9751340">
        <ele>1254.0</ele>
        <time>2021-10-11T09:55:42Z</time>
      </trkpt>
      <trkpt lat="42.8924050" lon="-5.9751550">
        <ele>1254.6</ele>
        <time>2021-10-11T09:55:46Z</time>
      </trkpt>
      <trkpt lat="42.8923790" lon="-5.9751560">
        <ele>1254.6</ele>
        <time>2021-10-11T09:55:47Z</time>
      </trkpt>
      <trkpt lat="42.8923240" lon="-5.9751500">
        <ele>1254.6</ele>
        <time>2021-10-11T09:55:49Z</time>
      </trkpt>
      <trkpt lat="42.8922990" lon="-5.9751480">
        <ele>1254.8</ele>
        <time>2021-10-11T09:55:50Z</time>
      </trkpt>
      <trkpt lat="42.8922570" lon="-5.9751370">
        <ele>1255.0</ele>
        <time>2021-10-11T09:55:52Z</time>
      </trkpt>
      <trkpt lat="42.8922040" lon="-5.9751230">
        <ele>1255.2</ele>
        <time>2021-10-11T09:55:54Z</time>
      </trkpt>
      <trkpt lat="42.8920630" lon="-5.9750650">
        <ele>1255.6</ele>
        <time>2021-10-11T09:55:59Z</time>
      </trkpt>
      <trkpt lat="42.8918770" lon="-5.9750120">
        <ele>1255.8</ele>
        <time>2021-10-11T09:56:05Z</time>
      </trkpt>
      <trkpt lat="42.8918500" lon="-5.9750000">
        <ele>1255.8</ele>
        <time>2021-10-11T09:56:06Z</time>
      </trkpt>
      <trkpt lat="42.8917640" lon="-5.9749730">
        <ele>1255.8</ele>
        <time>2021-10-11T09:56:09Z</time>
      </trkpt>
      <trkpt lat="42.8917120" lon="-5.9749570">
        <ele>1256.0</ele>
        <time>2021-10-11T09:56:11Z</time>
      </trkpt>
      <trkpt lat="42.8916030" lon="-5.9749630">
        <ele>1256.2</ele>
        <time>2021-10-11T09:56:15Z</time>
      </trkpt>
      <trkpt lat="42.8914830" lon="-5.9749450">
        <ele>1256.8</ele>
        <time>2021-10-11T09:56:20Z</time>
      </trkpt>
      <trkpt lat="42.8914560" lon="-5.9749330">
        <ele>1256.8</ele>
        <time>2021-10-11T09:56:21Z</time>
      </trkpt>
      <trkpt lat="42.8913880" lon="-5.9749210">
        <ele>1257.2</ele>
        <time>2021-10-11T09:56:24Z</time>
      </trkpt>
      <trkpt lat="42.8913670" lon="-5.9749260">
        <ele>1257.4</ele>
        <time>2021-10-11T09:56:25Z</time>
      </trkpt>
      <trkpt lat="42.8913290" lon="-5.9749260">
        <ele>1257.8</ele>
        <time>2021-10-11T09:56:27Z</time>
      </trkpt>
      <trkpt lat="42.8912850" lon="-5.9749250">
        <ele>1258.2</ele>
        <time>2021-10-11T09:56:29Z</time>
      </trkpt>
      <trkpt lat="42.8912430" lon="-5.9749220">
        <ele>1258.4</ele>
        <time>2021-10-11T09:56:31Z</time>
      </trkpt>
      <trkpt lat="42.8912020" lon="-5.9749150">
        <ele>1258.8</ele>
        <time>2021-10-11T09:56:33Z</time>
      </trkpt>
      <trkpt lat="42.8911600" lon="-5.9749160">
        <ele>1259.2</ele>
        <time>2021-10-11T09:56:35Z</time>
      </trkpt>
      <trkpt lat="42.8910980" lon="-5.9749340">
        <ele>1259.6</ele>
        <time>2021-10-11T09:56:38Z</time>
      </trkpt>
      <trkpt lat="42.8910640" lon="-5.9749700">
        <ele>1259.8</ele>
        <time>2021-10-11T09:56:40Z</time>
      </trkpt>
      <trkpt lat="42.8909610" lon="-5.9750250">
        <ele>1260.8</ele>
        <time>2021-10-11T09:56:45Z</time>
      </trkpt>
      <trkpt lat="42.8909370" lon="-5.9750330">
        <ele>1261.0</ele>
        <time>2021-10-11T09:56:46Z</time>
      </trkpt>
      <trkpt lat="42.8909020" lon="-5.9750430">
        <ele>1261.0</ele>
        <time>2021-10-11T09:56:47Z</time>
      </trkpt>
      <trkpt lat="42.8907130" lon="-5.9750640">
        <ele>1261.2</ele>
        <time>2021-10-11T09:56:52Z</time>
      </trkpt>
      <trkpt lat="42.8905550" lon="-5.9751040">
        <ele>1260.8</ele>
        <time>2021-10-11T09:56:56Z</time>
      </trkpt>
      <trkpt lat="42.8905140" lon="-5.9751170">
        <ele>1260.8</ele>
        <time>2021-10-11T09:56:57Z</time>
      </trkpt>
      <trkpt lat="42.8904170" lon="-5.9751660">
        <ele>1260.6</ele>
        <time>2021-10-11T09:57:00Z</time>
      </trkpt>
      <trkpt lat="42.8903580" lon="-5.9752220">
        <ele>1260.6</ele>
        <time>2021-10-11T09:57:02Z</time>
      </trkpt>
      <trkpt lat="42.8903300" lon="-5.9752550">
        <ele>1260.4</ele>
        <time>2021-10-11T09:57:03Z</time>
      </trkpt>
      <trkpt lat="42.8902110" lon="-5.9754450">
        <ele>1260.6</ele>
        <time>2021-10-11T09:57:09Z</time>
      </trkpt>
      <trkpt lat="42.8901290" lon="-5.9757070">
        <ele>1261.2</ele>
        <time>2021-10-11T09:57:17Z</time>
      </trkpt>
      <trkpt lat="42.8900210" lon="-5.9759080">
        <ele>1261.8</ele>
        <time>2021-10-11T09:57:24Z</time>
      </trkpt>
      <trkpt lat="42.8899810" lon="-5.9759900">
        <ele>1262.0</ele>
        <time>2021-10-11T09:57:27Z</time>
      </trkpt>
      <trkpt lat="42.8899120" lon="-5.9761170">
        <ele>1262.8</ele>
        <time>2021-10-11T09:57:32Z</time>
      </trkpt>
      <trkpt lat="42.8899030" lon="-5.9761370">
        <ele>1263.0</ele>
        <time>2021-10-11T09:57:33Z</time>
      </trkpt>
      <trkpt lat="42.8898950" lon="-5.9761590">
        <ele>1263.0</ele>
        <time>2021-10-11T09:57:34Z</time>
      </trkpt>
      <trkpt lat="42.8898580" lon="-5.9762500">
        <ele>1264.0</ele>
        <time>2021-10-11T09:57:38Z</time>
      </trkpt>
      <trkpt lat="42.8898460" lon="-5.9762740">
        <ele>1264.2</ele>
        <time>2021-10-11T09:57:39Z</time>
      </trkpt>
      <trkpt lat="42.8898320" lon="-5.9763140">
        <ele>1264.4</ele>
        <time>2021-10-11T09:57:41Z</time>
      </trkpt>
      <trkpt lat="42.8898090" lon="-5.9763790">
        <ele>1265.0</ele>
        <time>2021-10-11T09:57:44Z</time>
      </trkpt>
      <trkpt lat="42.8897980" lon="-5.9764010">
        <ele>1265.4</ele>
        <time>2021-10-11T09:57:45Z</time>
      </trkpt>
      <trkpt lat="42.8897860" lon="-5.9764170">
        <ele>1265.4</ele>
        <time>2021-10-11T09:57:46Z</time>
      </trkpt>
      <trkpt lat="42.8897770" lon="-5.9764350">
        <ele>1265.8</ele>
        <time>2021-10-11T09:57:47Z</time>
      </trkpt>
      <trkpt lat="42.8897570" lon="-5.9764720">
        <ele>1266.2</ele>
        <time>2021-10-11T09:57:49Z</time>
      </trkpt>
      <trkpt lat="42.8897490" lon="-5.9764890">
        <ele>1266.6</ele>
        <time>2021-10-11T09:57:50Z</time>
      </trkpt>
      <trkpt lat="42.8897350" lon="-5.9765200">
        <ele>1267.0</ele>
        <time>2021-10-11T09:57:52Z</time>
      </trkpt>
      <trkpt lat="42.8897080" lon="-5.9765840">
        <ele>1267.2</ele>
        <time>2021-10-11T09:57:55Z</time>
      </trkpt>
      <trkpt lat="42.8896930" lon="-5.9766220">
        <ele>1267.4</ele>
        <time>2021-10-11T09:57:57Z</time>
      </trkpt>
      <trkpt lat="42.8896660" lon="-5.9766760">
        <ele>1267.8</ele>
        <time>2021-10-11T09:58:00Z</time>
      </trkpt>
      <trkpt lat="42.8896520" lon="-5.9767130">
        <ele>1267.8</ele>
        <time>2021-10-11T09:58:02Z</time>
      </trkpt>
      <trkpt lat="42.8896340" lon="-5.9767560">
        <ele>1268.0</ele>
        <time>2021-10-11T09:58:04Z</time>
      </trkpt>
      <trkpt lat="42.8896160" lon="-5.9768170">
        <ele>1268.4</ele>
        <time>2021-10-11T09:58:07Z</time>
      </trkpt>
      <trkpt lat="42.8895890" lon="-5.9768910">
        <ele>1269.0</ele>
        <time>2021-10-11T09:58:11Z</time>
      </trkpt>
      <trkpt lat="42.8895320" lon="-5.9770270">
        <ele>1270.0</ele>
        <time>2021-10-11T09:58:18Z</time>
      </trkpt>
      <trkpt lat="42.8895070" lon="-5.9770920">
        <ele>1270.2</ele>
        <time>2021-10-11T09:58:21Z</time>
      </trkpt>
      <trkpt lat="42.8894990" lon="-5.9771100">
        <ele>1270.4</ele>
        <time>2021-10-11T09:58:22Z</time>
      </trkpt>
      <trkpt lat="42.8894890" lon="-5.9771350">
        <ele>1270.4</ele>
        <time>2021-10-11T09:58:23Z</time>
      </trkpt>
      <trkpt lat="42.8894840" lon="-5.9771520">
        <ele>1270.6</ele>
        <time>2021-10-11T09:58:24Z</time>
      </trkpt>
      <trkpt lat="42.8894690" lon="-5.9772070">
        <ele>1271.2</ele>
        <time>2021-10-11T09:58:27Z</time>
      </trkpt>
      <trkpt lat="42.8894680" lon="-5.9772130">
        <ele>1271.2</ele>
        <time>2021-10-11T09:58:28Z</time>
      </trkpt>
      <trkpt lat="42.8894680" lon="-5.9772130">
        <ele>1271.4</ele>
        <time>2021-10-11T09:58:29Z</time>
      </trkpt>
      <trkpt lat="42.8894670" lon="-5.9772090">
        <ele>1271.6</ele>
        <time>2021-10-11T09:58:30Z</time>
      </trkpt>
      <trkpt lat="42.8894590" lon="-5.9772340">
        <ele>1272.4</ele>
        <time>2021-10-11T10:14:28Z</time>
      </trkpt>
      <trkpt lat="42.8894450" lon="-5.9772450">
        <ele>1272.4</ele>
        <time>2021-10-11T10:14:29Z</time>
      </trkpt>
      <trkpt lat="42.8894330" lon="-5.9772620">
        <ele>1272.4</ele>
        <time>2021-10-11T10:14:30Z</time>
      </trkpt>
      <trkpt lat="42.8894240" lon="-5.9772820">
        <ele>1272.4</ele>
        <time>2021-10-11T10:14:31Z</time>
      </trkpt>
      <trkpt lat="42.8893770" lon="-5.9773610">
        <ele>1272.4</ele>
        <time>2021-10-11T10:14:36Z</time>
      </trkpt>
      <trkpt lat="42.8893630" lon="-5.9773760">
        <ele>1272.6</ele>
        <time>2021-10-11T10:14:37Z</time>
      </trkpt>
      <trkpt lat="42.8893240" lon="-5.9774670">
        <ele>1273.2</ele>
        <time>2021-10-11T10:14:42Z</time>
      </trkpt>
      <trkpt lat="42.8893150" lon="-5.9775000">
        <ele>1273.4</ele>
        <time>2021-10-11T10:14:44Z</time>
      </trkpt>
      <trkpt lat="42.8893080" lon="-5.9775150">
        <ele>1273.6</ele>
        <time>2021-10-11T10:14:45Z</time>
      </trkpt>
      <trkpt lat="42.8892670" lon="-5.9775890">
        <ele>1274.4</ele>
        <time>2021-10-11T10:14:50Z</time>
      </trkpt>
      <trkpt lat="42.8892610" lon="-5.9776090">
        <ele>1274.6</ele>
        <time>2021-10-11T10:14:51Z</time>
      </trkpt>
      <trkpt lat="42.8892330" lon="-5.9776760">
        <ele>1275.2</ele>
        <time>2021-10-11T10:14:55Z</time>
      </trkpt>
      <trkpt lat="42.8892080" lon="-5.9777290">
        <ele>1275.8</ele>
        <time>2021-10-11T10:14:58Z</time>
      </trkpt>
      <trkpt lat="42.8891890" lon="-5.9777630">
        <ele>1276.0</ele>
        <time>2021-10-11T10:15:00Z</time>
      </trkpt>
      <trkpt lat="42.8891680" lon="-5.9777970">
        <ele>1276.2</ele>
        <time>2021-10-11T10:15:02Z</time>
      </trkpt>
      <trkpt lat="42.8891420" lon="-5.9778450">
        <ele>1276.8</ele>
        <time>2021-10-11T10:15:05Z</time>
      </trkpt>
      <trkpt lat="42.8891330" lon="-5.9778610">
        <ele>1277.0</ele>
        <time>2021-10-11T10:15:06Z</time>
      </trkpt>
      <trkpt lat="42.8891110" lon="-5.9779180">
        <ele>1277.6</ele>
        <time>2021-10-11T10:15:09Z</time>
      </trkpt>
      <trkpt lat="42.8891040" lon="-5.9779360">
        <ele>1277.8</ele>
        <time>2021-10-11T10:15:10Z</time>
      </trkpt>
      <trkpt lat="42.8890900" lon="-5.9779730">
        <ele>1278.2</ele>
        <time>2021-10-11T10:15:12Z</time>
      </trkpt>
      <trkpt lat="42.8890780" lon="-5.9780070">
        <ele>1278.6</ele>
        <time>2021-10-11T10:15:14Z</time>
      </trkpt>
      <trkpt lat="42.8890710" lon="-5.9780280">
        <ele>1278.8</ele>
        <time>2021-10-11T10:15:15Z</time>
      </trkpt>
      <trkpt lat="42.8890590" lon="-5.9780700">
        <ele>1279.0</ele>
        <time>2021-10-11T10:15:17Z</time>
      </trkpt>
      <trkpt lat="42.8890330" lon="-5.9781540">
        <ele>1279.8</ele>
        <time>2021-10-11T10:15:22Z</time>
      </trkpt>
      <trkpt lat="42.8890190" lon="-5.9781830">
        <ele>1280.0</ele>
        <time>2021-10-11T10:15:24Z</time>
      </trkpt>
      <trkpt lat="42.8890000" lon="-5.9782080">
        <ele>1280.2</ele>
        <time>2021-10-11T10:15:26Z</time>
      </trkpt>
      <trkpt lat="42.8889800" lon="-5.9782350">
        <ele>1280.6</ele>
        <time>2021-10-11T10:15:28Z</time>
      </trkpt>
      <trkpt lat="42.8889450" lon="-5.9782710">
        <ele>1280.8</ele>
        <time>2021-10-11T10:15:31Z</time>
      </trkpt>
      <trkpt lat="42.8889310" lon="-5.9782790">
        <ele>1281.0</ele>
        <time>2021-10-11T10:15:32Z</time>
      </trkpt>
      <trkpt lat="42.8888130" lon="-5.9783150">
        <ele>1281.0</ele>
        <time>2021-10-11T10:15:36Z</time>
      </trkpt>
      <trkpt lat="42.8886380" lon="-5.9783330">
        <ele>1280.6</ele>
        <time>2021-10-11T10:15:41Z</time>
      </trkpt>
      <trkpt lat="42.8886080" lon="-5.9783450">
        <ele>1280.4</ele>
        <time>2021-10-11T10:15:42Z</time>
      </trkpt>
      <trkpt lat="42.8885160" lon="-5.9783840">
        <ele>1279.8</ele>
        <time>2021-10-11T10:15:45Z</time>
      </trkpt>
      <trkpt lat="42.8884940" lon="-5.9784200">
        <ele>1279.8</ele>
        <time>2021-10-11T10:15:47Z</time>
      </trkpt>
      <trkpt lat="42.8884420" lon="-5.9784540">
        <ele>1279.8</ele>
        <time>2021-10-11T10:15:50Z</time>
      </trkpt>
      <trkpt lat="42.8884090" lon="-5.9784690">
        <ele>1280.0</ele>
        <time>2021-10-11T10:15:52Z</time>
      </trkpt>
      <trkpt lat="42.8883920" lon="-5.9784710">
        <ele>1280.2</ele>
        <time>2021-10-11T10:15:53Z</time>
      </trkpt>
      <trkpt lat="42.8883780" lon="-5.9784790">
        <ele>1280.6</ele>
        <time>2021-10-11T10:15:54Z</time>
      </trkpt>
      <trkpt lat="42.8883670" lon="-5.9784960">
        <ele>1280.8</ele>
        <time>2021-10-11T10:15:55Z</time>
      </trkpt>
      <trkpt lat="42.8883550" lon="-5.9785110">
        <ele>1281.2</ele>
        <time>2021-10-11T10:15:56Z</time>
      </trkpt>
      <trkpt lat="42.8883490" lon="-5.9785230">
        <ele>1281.4</ele>
        <time>2021-10-11T10:15:57Z</time>
      </trkpt>
      <trkpt lat="42.8883420" lon="-5.9785320">
        <ele>1281.6</ele>
        <time>2021-10-11T10:15:58Z</time>
      </trkpt>
      <trkpt lat="42.8883330" lon="-5.9785490">
        <ele>1281.8</ele>
        <time>2021-10-11T10:15:59Z</time>
      </trkpt>
      <trkpt lat="42.8883280" lon="-5.9785640">
        <ele>1282.0</ele>
        <time>2021-10-11T10:16:00Z</time>
      </trkpt>
      <trkpt lat="42.8883210" lon="-5.9785700">
        <ele>1282.0</ele>
        <time>2021-10-11T10:16:01Z</time>
      </trkpt>
      <trkpt lat="42.8883180" lon="-5.9785730">
        <ele>1282.0</ele>
        <time>2021-10-11T10:16:02Z</time>
      </trkpt>
      <trkpt lat="42.8883180" lon="-5.9785730">
        <ele>1282.0</ele>
        <time>2021-10-11T10:16:04Z</time>
      </trkpt>
      <trkpt lat="42.8882650" lon="-5.9785630">
        <ele>1282.0</ele>
        <time>2021-10-11T10:16:10Z</time>
      </trkpt>
      <trkpt lat="42.8882320" lon="-5.9785600">
        <ele>1282.0</ele>
        <time>2021-10-11T10:16:11Z</time>
      </trkpt>
      <trkpt lat="42.8881110" lon="-5.9785200">
        <ele>1281.6</ele>
        <time>2021-10-11T10:16:14Z</time>
      </trkpt>
      <trkpt lat="42.8880680" lon="-5.9785010">
        <ele>1281.4</ele>
        <time>2021-10-11T10:16:15Z</time>
      </trkpt>
      <trkpt lat="42.8880250" lon="-5.9784770">
        <ele>1281.2</ele>
        <time>2021-10-11T10:16:16Z</time>
      </trkpt>
      <trkpt lat="42.8879770" lon="-5.9784410">
        <ele>1281.2</ele>
        <time>2021-10-11T10:16:17Z</time>
      </trkpt>
      <trkpt lat="42.8878940" lon="-5.9783680">
        <ele>1280.2</ele>
        <time>2021-10-11T10:16:19Z</time>
      </trkpt>
      <trkpt lat="42.8878570" lon="-5.9783490">
        <ele>1279.4</ele>
        <time>2021-10-11T10:16:20Z</time>
      </trkpt>
      <trkpt lat="42.8878260" lon="-5.9783260">
        <ele>1279.0</ele>
        <time>2021-10-11T10:16:21Z</time>
      </trkpt>
      <trkpt lat="42.8877970" lon="-5.9783040">
        <ele>1278.4</ele>
        <time>2021-10-11T10:16:22Z</time>
      </trkpt>
      <trkpt lat="42.8877090" lon="-5.9782510">
        <ele>1277.8</ele>
        <time>2021-10-11T10:16:24Z</time>
      </trkpt>
      <trkpt lat="42.8876540" lon="-5.9782370">
        <ele>1277.4</ele>
        <time>2021-10-11T10:16:25Z</time>
      </trkpt>
      <trkpt lat="42.8876100" lon="-5.9782380">
        <ele>1277.2</ele>
        <time>2021-10-11T10:16:26Z</time>
      </trkpt>
      <trkpt lat="42.8875240" lon="-5.9782650">
        <ele>1276.2</ele>
        <time>2021-10-11T10:16:29Z</time>
      </trkpt>
      <trkpt lat="42.8874200" lon="-5.9782630">
        <ele>1276.2</ele>
        <time>2021-10-11T10:16:35Z</time>
      </trkpt>
      <trkpt lat="42.8872950" lon="-5.9783210">
        <ele>1276.0</ele>
        <time>2021-10-11T10:16:39Z</time>
      </trkpt>
      <trkpt lat="42.8871860" lon="-5.9783820">
        <ele>1275.8</ele>
        <time>2021-10-11T10:16:42Z</time>
      </trkpt>
      <trkpt lat="42.8871150" lon="-5.9784350">
        <ele>1275.2</ele>
        <time>2021-10-11T10:16:44Z</time>
      </trkpt>
      <trkpt lat="42.8870840" lon="-5.9784740">
        <ele>1274.6</ele>
        <time>2021-10-11T10:16:45Z</time>
      </trkpt>
      <trkpt lat="42.8870400" lon="-5.9785670">
        <ele>1274.0</ele>
        <time>2021-10-11T10:16:47Z</time>
      </trkpt>
      <trkpt lat="42.8869740" lon="-5.9787360">
        <ele>1273.2</ele>
        <time>2021-10-11T10:16:51Z</time>
      </trkpt>
      <trkpt lat="42.8869620" lon="-5.9787710">
        <ele>1273.0</ele>
        <time>2021-10-11T10:16:52Z</time>
      </trkpt>
      <trkpt lat="42.8869300" lon="-5.9788980">
        <ele>1273.0</ele>
        <time>2021-10-11T10:16:56Z</time>
      </trkpt>
      <trkpt lat="42.8868830" lon="-5.9790590">
        <ele>1273.0</ele>
        <time>2021-10-11T10:17:01Z</time>
      </trkpt>
      <trkpt lat="42.8868730" lon="-5.9790860">
        <ele>1273.2</ele>
        <time>2021-10-11T10:17:02Z</time>
      </trkpt>
      <trkpt lat="42.8868000" lon="-5.9792550">
        <ele>1273.8</ele>
        <time>2021-10-11T10:17:08Z</time>
      </trkpt>
      <trkpt lat="42.8866680" lon="-5.9793560">
        <ele>1273.8</ele>
        <time>2021-10-11T10:17:14Z</time>
      </trkpt>
      <trkpt lat="42.8865710" lon="-5.9794190">
        <ele>1273.8</ele>
        <time>2021-10-11T10:17:18Z</time>
      </trkpt>
      <trkpt lat="42.8864650" lon="-5.9794670">
        <ele>1274.2</ele>
        <time>2021-10-11T10:17:22Z</time>
      </trkpt>
      <trkpt lat="42.8862140" lon="-5.9795660">
        <ele>1274.8</ele>
        <time>2021-10-11T10:17:31Z</time>
      </trkpt>
      <trkpt lat="42.8861540" lon="-5.9795910">
        <ele>1274.8</ele>
        <time>2021-10-11T10:17:33Z</time>
      </trkpt>
      <trkpt lat="42.8860220" lon="-5.9797440">
        <ele>1274.6</ele>
        <time>2021-10-11T10:17:39Z</time>
      </trkpt>
      <trkpt lat="42.8859570" lon="-5.9799520">
        <ele>1274.6</ele>
        <time>2021-10-11T10:17:45Z</time>
      </trkpt>
      <trkpt lat="42.8859530" lon="-5.9799860">
        <ele>1274.6</ele>
        <time>2021-10-11T10:17:46Z</time>
      </trkpt>
      <trkpt lat="42.8859500" lon="-5.9800900">
        <ele>1275.0</ele>
        <time>2021-10-11T10:17:49Z</time>
      </trkpt>
      <trkpt lat="42.8859490" lon="-5.9801980">
        <ele>1275.4</ele>
        <time>2021-10-11T10:17:52Z</time>
      </trkpt>
      <trkpt lat="42.8859420" lon="-5.9804120">
        <ele>1276.0</ele>
        <time>2021-10-11T10:17:58Z</time>
      </trkpt>
      <trkpt lat="42.8859390" lon="-5.9804460">
        <ele>1276.2</ele>
        <time>2021-10-11T10:17:59Z</time>
      </trkpt>
      <trkpt lat="42.8859190" lon="-5.9806110">
        <ele>1277.0</ele>
        <time>2021-10-11T10:18:04Z</time>
      </trkpt>
      <trkpt lat="42.8859160" lon="-5.9806470">
        <ele>1277.2</ele>
        <time>2021-10-11T10:18:05Z</time>
      </trkpt>
      <trkpt lat="42.8859150" lon="-5.9806790">
        <ele>1277.4</ele>
        <time>2021-10-11T10:18:06Z</time>
      </trkpt>
      <trkpt lat="42.8858730" lon="-5.9807800">
        <ele>1277.6</ele>
        <time>2021-10-11T10:18:10Z</time>
      </trkpt>
      <trkpt lat="42.8858530" lon="-5.9808000">
        <ele>1277.6</ele>
        <time>2021-10-11T10:18:11Z</time>
      </trkpt>
      <trkpt lat="42.8857720" lon="-5.9808810">
        <ele>1278.0</ele>
        <time>2021-10-11T10:18:15Z</time>
      </trkpt>
      <trkpt lat="42.8857100" lon="-5.9809150">
        <ele>1278.4</ele>
        <time>2021-10-11T10:18:18Z</time>
      </trkpt>
      <trkpt lat="42.8856170" lon="-5.9809630">
        <ele>1279.0</ele>
        <time>2021-10-11T10:18:22Z</time>
      </trkpt>
      <trkpt lat="42.8855410" lon="-5.9810130">
        <ele>1279.8</ele>
        <time>2021-10-11T10:18:26Z</time>
      </trkpt>
      <trkpt lat="42.8855010" lon="-5.9810390">
        <ele>1280.2</ele>
        <time>2021-10-11T10:18:28Z</time>
      </trkpt>
      <trkpt lat="42.8854370" lon="-5.9810890">
        <ele>1280.8</ele>
        <time>2021-10-11T10:18:31Z</time>
      </trkpt>
      <trkpt lat="42.8853940" lon="-5.9811120">
        <ele>1281.0</ele>
        <time>2021-10-11T10:18:33Z</time>
      </trkpt>
      <trkpt lat="42.8853670" lon="-5.9811260">
        <ele>1281.0</ele>
        <time>2021-10-11T10:18:34Z</time>
      </trkpt>
      <trkpt lat="42.8852900" lon="-5.9811510">
        <ele>1281.2</ele>
        <time>2021-10-11T10:18:37Z</time>
      </trkpt>
      <trkpt lat="42.8852200" lon="-5.9811500">
        <ele>1281.4</ele>
        <time>2021-10-11T10:18:40Z</time>
      </trkpt>
      <trkpt lat="42.8851970" lon="-5.9811580">
        <ele>1281.6</ele>
        <time>2021-10-11T10:18:41Z</time>
      </trkpt>
      <trkpt lat="42.8851310" lon="-5.9812220">
        <ele>1281.6</ele>
        <time>2021-10-11T10:18:44Z</time>
      </trkpt>
      <trkpt lat="42.8850000" lon="-5.9815090">
        <ele>1281.2</ele>
        <time>2021-10-11T10:18:52Z</time>
      </trkpt>
      <trkpt lat="42.8849850" lon="-5.9815320">
        <ele>1281.2</ele>
        <time>2021-10-11T10:18:53Z</time>
      </trkpt>
      <trkpt lat="42.8849570" lon="-5.9815610">
        <ele>1281.2</ele>
        <time>2021-10-11T10:18:54Z</time>
      </trkpt>
      <trkpt lat="42.8848740" lon="-5.9815940">
        <ele>1281.2</ele>
        <time>2021-10-11T10:18:57Z</time>
      </trkpt>
      <trkpt lat="42.8847260" lon="-5.9816210">
        <ele>1281.8</ele>
        <time>2021-10-11T10:19:03Z</time>
      </trkpt>
      <trkpt lat="42.8846790" lon="-5.9816270">
        <ele>1282.0</ele>
        <time>2021-10-11T10:19:05Z</time>
      </trkpt>
      <trkpt lat="42.8846010" lon="-5.9816510">
        <ele>1283.0</ele>
        <time>2021-10-11T10:19:09Z</time>
      </trkpt>
      <trkpt lat="42.8845420" lon="-5.9816500">
        <ele>1283.4</ele>
        <time>2021-10-11T10:19:12Z</time>
      </trkpt>
      <trkpt lat="42.8844650" lon="-5.9816510">
        <ele>1283.8</ele>
        <time>2021-10-11T10:19:16Z</time>
      </trkpt>
      <trkpt lat="42.8844460" lon="-5.9816570">
        <ele>1284.2</ele>
        <time>2021-10-11T10:19:17Z</time>
      </trkpt>
      <trkpt lat="42.8843950" lon="-5.9816850">
        <ele>1284.6</ele>
        <time>2021-10-11T10:19:20Z</time>
      </trkpt>
      <trkpt lat="42.8842910" lon="-5.9817640">
        <ele>1285.0</ele>
        <time>2021-10-11T10:19:26Z</time>
      </trkpt>
      <trkpt lat="42.8842730" lon="-5.9817730">
        <ele>1285.2</ele>
        <time>2021-10-11T10:19:27Z</time>
      </trkpt>
      <trkpt lat="42.8841540" lon="-5.9817580">
        <ele>1286.2</ele>
        <time>2021-10-11T10:19:33Z</time>
      </trkpt>
      <trkpt lat="42.8840220" lon="-5.9817280">
        <ele>1287.0</ele>
        <time>2021-10-11T10:19:40Z</time>
      </trkpt>
      <trkpt lat="42.8840030" lon="-5.9817170">
        <ele>1287.0</ele>
        <time>2021-10-11T10:19:41Z</time>
      </trkpt>
      <trkpt lat="42.8839690" lon="-5.9816990">
        <ele>1287.4</ele>
        <time>2021-10-11T10:19:43Z</time>
      </trkpt>
      <trkpt lat="42.8839080" lon="-5.9816540">
        <ele>1287.6</ele>
        <time>2021-10-11T10:19:47Z</time>
      </trkpt>
      <trkpt lat="42.8838920" lon="-5.9816450">
        <ele>1287.8</ele>
        <time>2021-10-11T10:19:48Z</time>
      </trkpt>
      <trkpt lat="42.8838480" lon="-5.9816300">
        <ele>1287.8</ele>
        <time>2021-10-11T10:19:50Z</time>
      </trkpt>
      <trkpt lat="42.8838150" lon="-5.9816150">
        <ele>1287.8</ele>
        <time>2021-10-11T10:19:52Z</time>
      </trkpt>
      <trkpt lat="42.8837840" lon="-5.9816010">
        <ele>1287.8</ele>
        <time>2021-10-11T10:19:54Z</time>
      </trkpt>
      <trkpt lat="42.8837300" lon="-5.9815860">
        <ele>1288.2</ele>
        <time>2021-10-11T10:19:57Z</time>
      </trkpt>
      <trkpt lat="42.8836560" lon="-5.9815470">
        <ele>1288.6</ele>
        <time>2021-10-11T10:20:01Z</time>
      </trkpt>
      <trkpt lat="42.8836380" lon="-5.9815360">
        <ele>1288.8</ele>
        <time>2021-10-11T10:20:02Z</time>
      </trkpt>
      <trkpt lat="42.8835980" lon="-5.9815230">
        <ele>1289.0</ele>
        <time>2021-10-11T10:20:04Z</time>
      </trkpt>
      <trkpt lat="42.8835610" lon="-5.9815180">
        <ele>1289.2</ele>
        <time>2021-10-11T10:20:06Z</time>
      </trkpt>
      <trkpt lat="42.8835440" lon="-5.9815140">
        <ele>1289.2</ele>
        <time>2021-10-11T10:20:07Z</time>
      </trkpt>
      <trkpt lat="42.8834810" lon="-5.9815060">
        <ele>1289.6</ele>
        <time>2021-10-11T10:20:11Z</time>
      </trkpt>
      <trkpt lat="42.8834480" lon="-5.9815000">
        <ele>1289.8</ele>
        <time>2021-10-11T10:20:13Z</time>
      </trkpt>
      <trkpt lat="42.8834320" lon="-5.9814930">
        <ele>1290.0</ele>
        <time>2021-10-11T10:20:14Z</time>
      </trkpt>
      <trkpt lat="42.8834160" lon="-5.9814820">
        <ele>1290.2</ele>
        <time>2021-10-11T10:20:15Z</time>
      </trkpt>
      <trkpt lat="42.8834010" lon="-5.9814690">
        <ele>1290.2</ele>
        <time>2021-10-11T10:20:16Z</time>
      </trkpt>
      <trkpt lat="42.8833480" lon="-5.9814290">
        <ele>1290.8</ele>
        <time>2021-10-11T10:20:19Z</time>
      </trkpt>
      <trkpt lat="42.8832900" lon="-5.9813810">
        <ele>1291.4</ele>
        <time>2021-10-11T10:20:23Z</time>
      </trkpt>
      <trkpt lat="42.8832670" lon="-5.9813550">
        <ele>1291.6</ele>
        <time>2021-10-11T10:20:25Z</time>
      </trkpt>
      <trkpt lat="42.8832590" lon="-5.9813430">
        <ele>1291.8</ele>
        <time>2021-10-11T10:20:26Z</time>
      </trkpt>
      <trkpt lat="42.8832160" lon="-5.9812890">
        <ele>1292.4</ele>
        <time>2021-10-11T10:20:30Z</time>
      </trkpt>
      <trkpt lat="42.8831990" lon="-5.9812610">
        <ele>1292.8</ele>
        <time>2021-10-11T10:20:32Z</time>
      </trkpt>
      <trkpt lat="42.8831920" lon="-5.9812450">
        <ele>1293.0</ele>
        <time>2021-10-11T10:20:33Z</time>
      </trkpt>
      <trkpt lat="42.8831710" lon="-5.9812140">
        <ele>1293.4</ele>
        <time>2021-10-11T10:20:35Z</time>
      </trkpt>
      <trkpt lat="42.8831070" lon="-5.9810760">
        <ele>1294.4</ele>
        <time>2021-10-11T10:20:43Z</time>
      </trkpt>
      <trkpt lat="42.8830920" lon="-5.9810430">
        <ele>1294.8</ele>
        <time>2021-10-11T10:20:45Z</time>
      </trkpt>
      <trkpt lat="42.8830850" lon="-5.9810200">
        <ele>1295.0</ele>
        <time>2021-10-11T10:20:46Z</time>
      </trkpt>
      <trkpt lat="42.8830680" lon="-5.9809830">
        <ele>1295.2</ele>
        <time>2021-10-11T10:20:48Z</time>
      </trkpt>
      <trkpt lat="42.8830550" lon="-5.9809490">
        <ele>1295.4</ele>
        <time>2021-10-11T10:20:50Z</time>
      </trkpt>
      <trkpt lat="42.8830470" lon="-5.9809220">
        <ele>1295.6</ele>
        <time>2021-10-11T10:20:51Z</time>
      </trkpt>
      <trkpt lat="42.8830040" lon="-5.9807910">
        <ele>1296.4</ele>
        <time>2021-10-11T10:20:58Z</time>
      </trkpt>
      <trkpt lat="42.8829990" lon="-5.9807710">
        <ele>1296.6</ele>
        <time>2021-10-11T10:20:59Z</time>
      </trkpt>
      <trkpt lat="42.8829920" lon="-5.9807520">
        <ele>1296.6</ele>
        <time>2021-10-11T10:21:00Z</time>
      </trkpt>
      <trkpt lat="42.8829800" lon="-5.9807170">
        <ele>1297.0</ele>
        <time>2021-10-11T10:21:02Z</time>
      </trkpt>
      <trkpt lat="42.8829660" lon="-5.9806850">
        <ele>1297.6</ele>
        <time>2021-10-11T10:21:04Z</time>
      </trkpt>
      <trkpt lat="42.8829570" lon="-5.9806680">
        <ele>1297.6</ele>
        <time>2021-10-11T10:21:05Z</time>
      </trkpt>
      <trkpt lat="42.8829530" lon="-5.9806520">
        <ele>1297.8</ele>
        <time>2021-10-11T10:21:06Z</time>
      </trkpt>
      <trkpt lat="42.8829420" lon="-5.9806170">
        <ele>1298.2</ele>
        <time>2021-10-11T10:21:08Z</time>
      </trkpt>
      <trkpt lat="42.8829300" lon="-5.9805820">
        <ele>1298.6</ele>
        <time>2021-10-11T10:21:10Z</time>
      </trkpt>
      <trkpt lat="42.8829220" lon="-5.9805580">
        <ele>1298.8</ele>
        <time>2021-10-11T10:21:11Z</time>
      </trkpt>
      <trkpt lat="42.8829050" lon="-5.9805100">
        <ele>1299.2</ele>
        <time>2021-10-11T10:21:14Z</time>
      </trkpt>
      <trkpt lat="42.8828940" lon="-5.9804640">
        <ele>1299.6</ele>
        <time>2021-10-11T10:21:17Z</time>
      </trkpt>
      <trkpt lat="42.8828880" lon="-5.9804550">
        <ele>1299.6</ele>
        <time>2021-10-11T10:21:18Z</time>
      </trkpt>
      <trkpt lat="42.8828700" lon="-5.9804230">
        <ele>1300.2</ele>
        <time>2021-10-11T10:21:20Z</time>
      </trkpt>
      <trkpt lat="42.8828500" lon="-5.9803820">
        <ele>1300.6</ele>
        <time>2021-10-11T10:21:23Z</time>
      </trkpt>
      <trkpt lat="42.8828300" lon="-5.9803360">
        <ele>1301.2</ele>
        <time>2021-10-11T10:21:26Z</time>
      </trkpt>
      <trkpt lat="42.8828170" lon="-5.9803060">
        <ele>1301.8</ele>
        <time>2021-10-11T10:21:28Z</time>
      </trkpt>
      <trkpt lat="42.8827950" lon="-5.9802160">
        <ele>1302.4</ele>
        <time>2021-10-11T10:21:34Z</time>
      </trkpt>
      <trkpt lat="42.8827820" lon="-5.9801730">
        <ele>1303.0</ele>
        <time>2021-10-11T10:21:36Z</time>
      </trkpt>
      <trkpt lat="42.8827620" lon="-5.9801160">
        <ele>1303.8</ele>
        <time>2021-10-11T10:21:39Z</time>
      </trkpt>
      <trkpt lat="42.8827510" lon="-5.9800820">
        <ele>1304.0</ele>
        <time>2021-10-11T10:21:41Z</time>
      </trkpt>
      <trkpt lat="42.8827070" lon="-5.9799950">
        <ele>1305.0</ele>
        <time>2021-10-11T10:21:47Z</time>
      </trkpt>
      <trkpt lat="42.8826990" lon="-5.9799730">
        <ele>1305.4</ele>
        <time>2021-10-11T10:21:49Z</time>
      </trkpt>
      <trkpt lat="42.8826660" lon="-5.9799180">
        <ele>1306.2</ele>
        <time>2021-10-11T10:21:54Z</time>
      </trkpt>
      <trkpt lat="42.8826470" lon="-5.9798760">
        <ele>1306.6</ele>
        <time>2021-10-11T10:21:57Z</time>
      </trkpt>
      <trkpt lat="42.8826180" lon="-5.9798120">
        <ele>1307.4</ele>
        <time>2021-10-11T10:22:01Z</time>
      </trkpt>
      <trkpt lat="42.8825930" lon="-5.9797330">
        <ele>1307.8</ele>
        <time>2021-10-11T10:22:05Z</time>
      </trkpt>
      <trkpt lat="42.8825800" lon="-5.9796960">
        <ele>1308.2</ele>
        <time>2021-10-11T10:22:07Z</time>
      </trkpt>
      <trkpt lat="42.8825660" lon="-5.9796560">
        <ele>1308.4</ele>
        <time>2021-10-11T10:22:09Z</time>
      </trkpt>
      <trkpt lat="42.8825310" lon="-5.9795770">
        <ele>1309.4</ele>
        <time>2021-10-11T10:22:13Z</time>
      </trkpt>
      <trkpt lat="42.8825220" lon="-5.9795580">
        <ele>1309.6</ele>
        <time>2021-10-11T10:22:14Z</time>
      </trkpt>
      <trkpt lat="42.8825090" lon="-5.9795260">
        <ele>1310.2</ele>
        <time>2021-10-11T10:22:16Z</time>
      </trkpt>
      <trkpt lat="42.8824980" lon="-5.9795000">
        <ele>1310.6</ele>
        <time>2021-10-11T10:22:18Z</time>
      </trkpt>
      <trkpt lat="42.8825000" lon="-5.9794880">
        <ele>1311.2</ele>
        <time>2021-10-11T10:22:22Z</time>
      </trkpt>
      <trkpt lat="42.8824840" lon="-5.9794820">
        <ele>1311.4</ele>
        <time>2021-10-11T10:22:43Z</time>
      </trkpt>
      <trkpt lat="42.8824710" lon="-5.9794720">
        <ele>1311.4</ele>
        <time>2021-10-11T10:22:44Z</time>
      </trkpt>
      <trkpt lat="42.8824580" lon="-5.9794600">
        <ele>1311.4</ele>
        <time>2021-10-11T10:22:45Z</time>
      </trkpt>
      <trkpt lat="42.8824370" lon="-5.9794420">
        <ele>1311.4</ele>
        <time>2021-10-11T10:22:47Z</time>
      </trkpt>
      <trkpt lat="42.8824270" lon="-5.9794350">
        <ele>1311.6</ele>
        <time>2021-10-11T10:22:48Z</time>
      </trkpt>
      <trkpt lat="42.8824030" lon="-5.9794230">
        <ele>1311.6</ele>
        <time>2021-10-11T10:22:50Z</time>
      </trkpt>
      <trkpt lat="42.8823920" lon="-5.9794150">
        <ele>1312.0</ele>
        <time>2021-10-11T10:22:51Z</time>
      </trkpt>
      <trkpt lat="42.8823810" lon="-5.9794060">
        <ele>1312.2</ele>
        <time>2021-10-11T10:22:52Z</time>
      </trkpt>
      <trkpt lat="42.8823240" lon="-5.9793700">
        <ele>1312.6</ele>
        <time>2021-10-11T10:22:57Z</time>
      </trkpt>
      <trkpt lat="42.8822890" lon="-5.9793550">
        <ele>1313.2</ele>
        <time>2021-10-11T10:23:00Z</time>
      </trkpt>
      <trkpt lat="42.8822130" lon="-5.9793130">
        <ele>1313.6</ele>
        <time>2021-10-11T10:23:06Z</time>
      </trkpt>
      <trkpt lat="42.8821510" lon="-5.9792710">
        <ele>1314.2</ele>
        <time>2021-10-11T10:23:10Z</time>
      </trkpt>
      <trkpt lat="42.8820960" lon="-5.9792070">
        <ele>1314.6</ele>
        <time>2021-10-11T10:23:14Z</time>
      </trkpt>
      <trkpt lat="42.8820570" lon="-5.9791500">
        <ele>1315.0</ele>
        <time>2021-10-11T10:23:18Z</time>
      </trkpt>
      <trkpt lat="42.8819500" lon="-5.9789080">
        <ele>1315.6</ele>
        <time>2021-10-11T10:23:31Z</time>
      </trkpt>
      <trkpt lat="42.8818990" lon="-5.9787780">
        <ele>1316.4</ele>
        <time>2021-10-11T10:23:39Z</time>
      </trkpt>
      <trkpt lat="42.8818850" lon="-5.9787190">
        <ele>1316.6</ele>
        <time>2021-10-11T10:23:41Z</time>
      </trkpt>
      <trkpt lat="42.8818770" lon="-5.9786520">
        <ele>1316.8</ele>
        <time>2021-10-11T10:23:44Z</time>
      </trkpt>
      <trkpt lat="42.8818750" lon="-5.9786340">
        <ele>1317.0</ele>
        <time>2021-10-11T10:23:45Z</time>
      </trkpt>
      <trkpt lat="42.8818400" lon="-5.9785110">
        <ele>1317.6</ele>
        <time>2021-10-11T10:23:51Z</time>
      </trkpt>
      <trkpt lat="42.8817820" lon="-5.9783470">
        <ele>1318.0</ele>
        <time>2021-10-11T10:23:59Z</time>
      </trkpt>
      <trkpt lat="42.8817690" lon="-5.9783120">
        <ele>1318.4</ele>
        <time>2021-10-11T10:24:02Z</time>
      </trkpt>
      <trkpt lat="42.8816800" lon="-5.9781070">
        <ele>1318.8</ele>
        <time>2021-10-11T10:24:09Z</time>
      </trkpt>
      <trkpt lat="42.8816150" lon="-5.9780250">
        <ele>1318.6</ele>
        <time>2021-10-11T10:24:11Z</time>
      </trkpt>
      <trkpt lat="42.8815310" lon="-5.9779440">
        <ele>1318.4</ele>
        <time>2021-10-11T10:24:13Z</time>
      </trkpt>
      <trkpt lat="42.8813720" lon="-5.9777960">
        <ele>1317.8</ele>
        <time>2021-10-11T10:24:17Z</time>
      </trkpt>
      <trkpt lat="42.8813190" lon="-5.9777220">
        <ele>1317.6</ele>
        <time>2021-10-11T10:24:19Z</time>
      </trkpt>
      <trkpt lat="42.8812790" lon="-5.9776640">
        <ele>1317.6</ele>
        <time>2021-10-11T10:24:21Z</time>
      </trkpt>
      <trkpt lat="42.8812320" lon="-5.9776020">
        <ele>1317.6</ele>
        <time>2021-10-11T10:24:24Z</time>
      </trkpt>
      <trkpt lat="42.8811930" lon="-5.9775630">
        <ele>1317.8</ele>
        <time>2021-10-11T10:24:26Z</time>
      </trkpt>
      <trkpt lat="42.8811580" lon="-5.9775120">
        <ele>1317.8</ele>
        <time>2021-10-11T10:24:28Z</time>
      </trkpt>
      <trkpt lat="42.8811310" lon="-5.9774570">
        <ele>1318.0</ele>
        <time>2021-10-11T10:24:31Z</time>
      </trkpt>
      <trkpt lat="42.8811250" lon="-5.9773960">
        <ele>1318.0</ele>
        <time>2021-10-11T10:24:32Z</time>
      </trkpt>
      <trkpt lat="42.8811430" lon="-5.9773130">
        <ele>1318.2</ele>
        <time>2021-10-11T10:24:35Z</time>
      </trkpt>
      <trkpt lat="42.8811600" lon="-5.9771240">
        <ele>1318.6</ele>
        <time>2021-10-11T10:24:41Z</time>
      </trkpt>
      <trkpt lat="42.8811620" lon="-5.9769840">
        <ele>1319.0</ele>
        <time>2021-10-11T10:24:46Z</time>
      </trkpt>
      <trkpt lat="42.8811670" lon="-5.9769370">
        <ele>1319.2</ele>
        <time>2021-10-11T10:24:49Z</time>
      </trkpt>
      <trkpt lat="42.8811720" lon="-5.9768630">
        <ele>1319.8</ele>
        <time>2021-10-11T10:24:51Z</time>
      </trkpt>
      <trkpt lat="42.8811710" lon="-5.9768080">
        <ele>1320.2</ele>
        <time>2021-10-11T10:24:53Z</time>
      </trkpt>
      <trkpt lat="42.8811730" lon="-5.9767590">
        <ele>1320.4</ele>
        <time>2021-10-11T10:24:55Z</time>
      </trkpt>
      <trkpt lat="42.8811720" lon="-5.9766920">
        <ele>1321.0</ele>
        <time>2021-10-11T10:24:59Z</time>
      </trkpt>
      <trkpt lat="42.8811770" lon="-5.9766360">
        <ele>1321.2</ele>
        <time>2021-10-11T10:25:01Z</time>
      </trkpt>
      <trkpt lat="42.8811860" lon="-5.9765110">
        <ele>1322.4</ele>
        <time>2021-10-11T10:25:08Z</time>
      </trkpt>
      <trkpt lat="42.8811900" lon="-5.9764810">
        <ele>1322.8</ele>
        <time>2021-10-11T10:25:10Z</time>
      </trkpt>
      <trkpt lat="42.8811900" lon="-5.9764640">
        <ele>1323.2</ele>
        <time>2021-10-11T10:25:11Z</time>
      </trkpt>
      <trkpt lat="42.8811870" lon="-5.9764340">
        <ele>1323.4</ele>
        <time>2021-10-11T10:25:13Z</time>
      </trkpt>
      <trkpt lat="42.8811840" lon="-5.9764170">
        <ele>1323.6</ele>
        <time>2021-10-11T10:25:15Z</time>
      </trkpt>
      <trkpt lat="42.8811770" lon="-5.9763880">
        <ele>1323.8</ele>
        <time>2021-10-11T10:25:16Z</time>
      </trkpt>
      <trkpt lat="42.8811720" lon="-5.9763590">
        <ele>1324.4</ele>
        <time>2021-10-11T10:25:19Z</time>
      </trkpt>
      <trkpt lat="42.8811570" lon="-5.9763270">
        <ele>1324.4</ele>
        <time>2021-10-11T10:25:20Z</time>
      </trkpt>
      <trkpt lat="42.8811530" lon="-5.9763140">
        <ele>1324.6</ele>
        <time>2021-10-11T10:25:21Z</time>
      </trkpt>
      <trkpt lat="42.8811440" lon="-5.9762830">
        <ele>1325.4</ele>
        <time>2021-10-11T10:25:24Z</time>
      </trkpt>
      <trkpt lat="42.8811340" lon="-5.9762510">
        <ele>1325.6</ele>
        <time>2021-10-11T10:25:25Z</time>
      </trkpt>
      <trkpt lat="42.8811290" lon="-5.9762350">
        <ele>1325.8</ele>
        <time>2021-10-11T10:25:26Z</time>
      </trkpt>
      <trkpt lat="42.8811230" lon="-5.9762200">
        <ele>1326.0</ele>
        <time>2021-10-11T10:25:27Z</time>
      </trkpt>
      <trkpt lat="42.8811180" lon="-5.9762060">
        <ele>1326.0</ele>
        <time>2021-10-11T10:25:28Z</time>
      </trkpt>
      <trkpt lat="42.8811180" lon="-5.9762060">
        <ele>1326.2</ele>
        <time>2021-10-11T10:25:29Z</time>
      </trkpt>
      <trkpt lat="42.8811050" lon="-5.9761800">
        <ele>1326.6</ele>
        <time>2021-10-11T10:25:33Z</time>
      </trkpt>
      <trkpt lat="42.8811030" lon="-5.9761760">
        <ele>1326.8</ele>
        <time>2021-10-11T10:25:47Z</time>
      </trkpt>
      <trkpt lat="42.8811030" lon="-5.9761760">
        <ele>1326.6</ele>
        <time>2021-10-11T10:25:48Z</time>
      </trkpt>
      <trkpt lat="42.8811020" lon="-5.9761720">
        <ele>1326.8</ele>
        <time>2021-10-11T10:26:08Z</time>
      </trkpt>
      <trkpt lat="42.8810930" lon="-5.9760680">
        <ele>1326.8</ele>
        <time>2021-10-11T10:26:10Z</time>
      </trkpt>
      <trkpt lat="42.8810890" lon="-5.9760220">
        <ele>1326.8</ele>
        <time>2021-10-11T10:26:11Z</time>
      </trkpt>
      <trkpt lat="42.8810870" lon="-5.9759730">
        <ele>1326.6</ele>
        <time>2021-10-11T10:26:12Z</time>
      </trkpt>
      <trkpt lat="42.8810870" lon="-5.9759730">
        <ele>1326.6</ele>
        <time>2021-10-11T10:26:13Z</time>
      </trkpt>
      <trkpt lat="42.8810800" lon="-5.9758250">
        <ele>1326.6</ele>
        <time>2021-10-11T10:26:15Z</time>
      </trkpt>
      <trkpt lat="42.8810760" lon="-5.9757410">
        <ele>1326.4</ele>
        <time>2021-10-11T10:26:17Z</time>
      </trkpt>
      <trkpt lat="42.8810700" lon="-5.9756730">
        <ele>1326.2</ele>
        <time>2021-10-11T10:26:19Z</time>
      </trkpt>
      <trkpt lat="42.8810640" lon="-5.9756230">
        <ele>1326.2</ele>
        <time>2021-10-11T10:26:21Z</time>
      </trkpt>
      <trkpt lat="42.8810620" lon="-5.9756040">
        <ele>1326.2</ele>
        <time>2021-10-11T10:26:23Z</time>
      </trkpt>
      <trkpt lat="42.8810460" lon="-5.9755680">
        <ele>1326.2</ele>
        <time>2021-10-11T10:26:24Z</time>
      </trkpt>
      <trkpt lat="42.8810460" lon="-5.9755680">
        <ele>1326.2</ele>
        <time>2021-10-11T10:26:25Z</time>
      </trkpt>
      <trkpt lat="42.8810080" lon="-5.9755060">
        <ele>1326.2</ele>
        <time>2021-10-11T10:26:27Z</time>
      </trkpt>
      <trkpt lat="42.8809670" lon="-5.9754560">
        <ele>1326.2</ele>
        <time>2021-10-11T10:26:30Z</time>
      </trkpt>
      <trkpt lat="42.8809360" lon="-5.9754210">
        <ele>1326.2</ele>
        <time>2021-10-11T10:26:32Z</time>
      </trkpt>
      <trkpt lat="42.8808040" lon="-5.9752270">
        <ele>1326.8</ele>
        <time>2021-10-11T10:26:40Z</time>
      </trkpt>
      <trkpt lat="42.8807230" lon="-5.9749860">
        <ele>1327.4</ele>
        <time>2021-10-11T10:26:48Z</time>
      </trkpt>
      <trkpt lat="42.8807050" lon="-5.9749280">
        <ele>1327.6</ele>
        <time>2021-10-11T10:26:50Z</time>
      </trkpt>
      <trkpt lat="42.8806660" lon="-5.9748170">
        <ele>1328.4</ele>
        <time>2021-10-11T10:26:54Z</time>
      </trkpt>
      <trkpt lat="42.8806500" lon="-5.9747570">
        <ele>1328.8</ele>
        <time>2021-10-11T10:26:56Z</time>
      </trkpt>
      <trkpt lat="42.8806420" lon="-5.9746860">
        <ele>1328.8</ele>
        <time>2021-10-11T10:26:58Z</time>
      </trkpt>
      <trkpt lat="42.8806430" lon="-5.9746130">
        <ele>1329.0</ele>
        <time>2021-10-11T10:27:00Z</time>
      </trkpt>
      <trkpt lat="42.8806410" lon="-5.9743970">
        <ele>1329.6</ele>
        <time>2021-10-11T10:27:06Z</time>
      </trkpt>
      <trkpt lat="42.8806410" lon="-5.9743630">
        <ele>1329.8</ele>
        <time>2021-10-11T10:27:07Z</time>
      </trkpt>
      <trkpt lat="42.8806410" lon="-5.9743280">
        <ele>1329.8</ele>
        <time>2021-10-11T10:27:08Z</time>
      </trkpt>
      <trkpt lat="42.8806650" lon="-5.9741300">
        <ele>1330.6</ele>
        <time>2021-10-11T10:27:15Z</time>
      </trkpt>
      <trkpt lat="42.8806680" lon="-5.9741100">
        <ele>1330.8</ele>
        <time>2021-10-11T10:27:16Z</time>
      </trkpt>
      <trkpt lat="42.8806740" lon="-5.9740490">
        <ele>1331.2</ele>
        <time>2021-10-11T10:27:18Z</time>
      </trkpt>
      <trkpt lat="42.8806730" lon="-5.9739970">
        <ele>1331.6</ele>
        <time>2021-10-11T10:27:20Z</time>
      </trkpt>
      <trkpt lat="42.8806750" lon="-5.9739680">
        <ele>1331.8</ele>
        <time>2021-10-11T10:27:21Z</time>
      </trkpt>
      <trkpt lat="42.8806750" lon="-5.9739680">
        <ele>1332.0</ele>
        <time>2021-10-11T10:27:22Z</time>
      </trkpt>
      <trkpt lat="42.8806710" lon="-5.9738850">
        <ele>1332.2</ele>
        <time>2021-10-11T10:27:24Z</time>
      </trkpt>
      <trkpt lat="42.8806700" lon="-5.9738260">
        <ele>1332.4</ele>
        <time>2021-10-11T10:27:26Z</time>
      </trkpt>
      <trkpt lat="42.8806720" lon="-5.9737700">
        <ele>1332.6</ele>
        <time>2021-10-11T10:27:28Z</time>
      </trkpt>
      <trkpt lat="42.8806730" lon="-5.9737410">
        <ele>1332.6</ele>
        <time>2021-10-11T10:27:29Z</time>
      </trkpt>
      <trkpt lat="42.8806730" lon="-5.9736870">
        <ele>1332.8</ele>
        <time>2021-10-11T10:27:31Z</time>
      </trkpt>
      <trkpt lat="42.8806720" lon="-5.9736610">
        <ele>1333.0</ele>
        <time>2021-10-11T10:27:33Z</time>
      </trkpt>
      <trkpt lat="42.8806580" lon="-5.9735250">
        <ele>1333.6</ele>
        <time>2021-10-11T10:27:38Z</time>
      </trkpt>
      <trkpt lat="42.8806600" lon="-5.9734570">
        <ele>1334.0</ele>
        <time>2021-10-11T10:27:42Z</time>
      </trkpt>
      <trkpt lat="42.8806690" lon="-5.9733720">
        <ele>1334.4</ele>
        <time>2021-10-11T10:27:45Z</time>
      </trkpt>
      <trkpt lat="42.8806820" lon="-5.9732510">
        <ele>1334.8</ele>
        <time>2021-10-11T10:27:52Z</time>
      </trkpt>
      <trkpt lat="42.8806780" lon="-5.9731100">
        <ele>1335.2</ele>
        <time>2021-10-11T10:27:57Z</time>
      </trkpt>
      <trkpt lat="42.8806890" lon="-5.9729300">
        <ele>1336.0</ele>
        <time>2021-10-11T10:28:05Z</time>
      </trkpt>
      <trkpt lat="42.8807050" lon="-5.9727970">
        <ele>1336.8</ele>
        <time>2021-10-11T10:28:11Z</time>
      </trkpt>
      <trkpt lat="42.8807140" lon="-5.9727540">
        <ele>1337.2</ele>
        <time>2021-10-11T10:28:13Z</time>
      </trkpt>
      <trkpt lat="42.8807310" lon="-5.9726260">
        <ele>1338.0</ele>
        <time>2021-10-11T10:28:19Z</time>
      </trkpt>
      <trkpt lat="42.8807380" lon="-5.9725690">
        <ele>1338.2</ele>
        <time>2021-10-11T10:28:22Z</time>
      </trkpt>
      <trkpt lat="42.8807490" lon="-5.9725100">
        <ele>1338.6</ele>
        <time>2021-10-11T10:28:25Z</time>
      </trkpt>
      <trkpt lat="42.8807750" lon="-5.9724080">
        <ele>1339.2</ele>
        <time>2021-10-11T10:28:31Z</time>
      </trkpt>
      <trkpt lat="42.8808060" lon="-5.9723120">
        <ele>1339.4</ele>
        <time>2021-10-11T10:28:35Z</time>
      </trkpt>
      <trkpt lat="42.8808520" lon="-5.9721190">
        <ele>1340.4</ele>
        <time>2021-10-11T10:28:46Z</time>
      </trkpt>
      <trkpt lat="42.8808600" lon="-5.9720820">
        <ele>1340.4</ele>
        <time>2021-10-11T10:28:47Z</time>
      </trkpt>
      <trkpt lat="42.8808970" lon="-5.9719210">
        <ele>1341.4</ele>
        <time>2021-10-11T10:28:55Z</time>
      </trkpt>
      <trkpt lat="42.8809090" lon="-5.9718790">
        <ele>1341.8</ele>
        <time>2021-10-11T10:28:57Z</time>
      </trkpt>
      <trkpt lat="42.8809230" lon="-5.9717210">
        <ele>1342.4</ele>
        <time>2021-10-11T10:29:04Z</time>
      </trkpt>
      <trkpt lat="42.8809210" lon="-5.9716940">
        <ele>1342.6</ele>
        <time>2021-10-11T10:29:05Z</time>
      </trkpt>
      <trkpt lat="42.8809030" lon="-5.9715800">
        <ele>1343.0</ele>
        <time>2021-10-11T10:29:09Z</time>
      </trkpt>
      <trkpt lat="42.8808860" lon="-5.9715030">
        <ele>1343.2</ele>
        <time>2021-10-11T10:29:12Z</time>
      </trkpt>
      <trkpt lat="42.8808920" lon="-5.9712510">
        <ele>1343.4</ele>
        <time>2021-10-11T10:29:22Z</time>
      </trkpt>
      <trkpt lat="42.8808990" lon="-5.9712300">
        <ele>1343.4</ele>
        <time>2021-10-11T10:29:23Z</time>
      </trkpt>
      <trkpt lat="42.8809100" lon="-5.9711800">
        <ele>1343.6</ele>
        <time>2021-10-11T10:29:25Z</time>
      </trkpt>
      <trkpt lat="42.8809450" lon="-5.9709670">
        <ele>1343.6</ele>
        <time>2021-10-11T10:29:33Z</time>
      </trkpt>
      <trkpt lat="42.8809800" lon="-5.9708350">
        <ele>1344.0</ele>
        <time>2021-10-11T10:29:39Z</time>
      </trkpt>
      <trkpt lat="42.8809940" lon="-5.9707960">
        <ele>1344.4</ele>
        <time>2021-10-11T10:29:41Z</time>
      </trkpt>
      <trkpt lat="42.8810000" lon="-5.9707760">
        <ele>1344.6</ele>
        <time>2021-10-11T10:29:42Z</time>
      </trkpt>
      <trkpt lat="42.8810140" lon="-5.9707330">
        <ele>1344.8</ele>
        <time>2021-10-11T10:29:44Z</time>
      </trkpt>
      <trkpt lat="42.8810310" lon="-5.9706890">
        <ele>1345.2</ele>
        <time>2021-10-11T10:29:46Z</time>
      </trkpt>
      <trkpt lat="42.8810490" lon="-5.9706410">
        <ele>1345.2</ele>
        <time>2021-10-11T10:29:48Z</time>
      </trkpt>
      <trkpt lat="42.8810690" lon="-5.9705920">
        <ele>1345.4</ele>
        <time>2021-10-11T10:29:50Z</time>
      </trkpt>
      <trkpt lat="42.8810880" lon="-5.9705460">
        <ele>1345.4</ele>
        <time>2021-10-11T10:29:52Z</time>
      </trkpt>
      <trkpt lat="42.8811090" lon="-5.9705030">
        <ele>1345.6</ele>
        <time>2021-10-11T10:29:54Z</time>
      </trkpt>
      <trkpt lat="42.8811300" lon="-5.9704360">
        <ele>1345.6</ele>
        <time>2021-10-11T10:29:57Z</time>
      </trkpt>
      <trkpt lat="42.8811430" lon="-5.9703900">
        <ele>1345.8</ele>
        <time>2021-10-11T10:29:59Z</time>
      </trkpt>
      <trkpt lat="42.8811510" lon="-5.9703660">
        <ele>1345.8</ele>
        <time>2021-10-11T10:30:00Z</time>
      </trkpt>
      <trkpt lat="42.8811660" lon="-5.9702940">
        <ele>1346.0</ele>
        <time>2021-10-11T10:30:04Z</time>
      </trkpt>
      <trkpt lat="42.8811850" lon="-5.9702240">
        <ele>1346.2</ele>
        <time>2021-10-11T10:30:06Z</time>
      </trkpt>
      <trkpt lat="42.8812090" lon="-5.9701120">
        <ele>1346.6</ele>
        <time>2021-10-11T10:30:11Z</time>
      </trkpt>
      <trkpt lat="42.8812380" lon="-5.9700090">
        <ele>1347.2</ele>
        <time>2021-10-11T10:30:16Z</time>
      </trkpt>
      <trkpt lat="42.8812480" lon="-5.9699630">
        <ele>1347.6</ele>
        <time>2021-10-11T10:30:18Z</time>
      </trkpt>
      <trkpt lat="42.8812730" lon="-5.9698370">
        <ele>1348.4</ele>
        <time>2021-10-11T10:30:24Z</time>
      </trkpt>
      <trkpt lat="42.8812850" lon="-5.9697960">
        <ele>1348.6</ele>
        <time>2021-10-11T10:30:26Z</time>
      </trkpt>
      <trkpt lat="42.8813090" lon="-5.9697200">
        <ele>1349.4</ele>
        <time>2021-10-11T10:30:30Z</time>
      </trkpt>
      <trkpt lat="42.8813300" lon="-5.9696610">
        <ele>1349.8</ele>
        <time>2021-10-11T10:30:33Z</time>
      </trkpt>
      <trkpt lat="42.8813350" lon="-5.9696400">
        <ele>1350.0</ele>
        <time>2021-10-11T10:30:34Z</time>
      </trkpt>
      <trkpt lat="42.8813540" lon="-5.9695800">
        <ele>1350.4</ele>
        <time>2021-10-11T10:30:37Z</time>
      </trkpt>
      <trkpt lat="42.8813600" lon="-5.9694350">
        <ele>1350.6</ele>
        <time>2021-10-11T10:30:43Z</time>
      </trkpt>
      <trkpt lat="42.8813570" lon="-5.9693900">
        <ele>1350.8</ele>
        <time>2021-10-11T10:30:45Z</time>
      </trkpt>
      <trkpt lat="42.8813420" lon="-5.9692770">
        <ele>1351.2</ele>
        <time>2021-10-11T10:30:50Z</time>
      </trkpt>
      <trkpt lat="42.8813410" lon="-5.9692570">
        <ele>1351.2</ele>
        <time>2021-10-11T10:30:51Z</time>
      </trkpt>
      <trkpt lat="42.8813390" lon="-5.9692360">
        <ele>1351.4</ele>
        <time>2021-10-11T10:30:52Z</time>
      </trkpt>
      <trkpt lat="42.8813310" lon="-5.9691990">
        <ele>1352.0</ele>
        <time>2021-10-11T10:30:54Z</time>
      </trkpt>
      <trkpt lat="42.8813300" lon="-5.9691580">
        <ele>1352.4</ele>
        <time>2021-10-11T10:30:56Z</time>
      </trkpt>
      <trkpt lat="42.8813290" lon="-5.9691370">
        <ele>1352.6</ele>
        <time>2021-10-11T10:30:57Z</time>
      </trkpt>
      <trkpt lat="42.8813240" lon="-5.9691000">
        <ele>1353.0</ele>
        <time>2021-10-11T10:30:59Z</time>
      </trkpt>
      <trkpt lat="42.8813210" lon="-5.9690090">
        <ele>1354.0</ele>
        <time>2021-10-11T10:31:04Z</time>
      </trkpt>
      <trkpt lat="42.8813210" lon="-5.9689890">
        <ele>1354.2</ele>
        <time>2021-10-11T10:31:05Z</time>
      </trkpt>
      <trkpt lat="42.8813200" lon="-5.9689520">
        <ele>1354.6</ele>
        <time>2021-10-11T10:31:07Z</time>
      </trkpt>
      <trkpt lat="42.8813160" lon="-5.9689190">
        <ele>1354.8</ele>
        <time>2021-10-11T10:31:09Z</time>
      </trkpt>
      <trkpt lat="42.8813170" lon="-5.9688790">
        <ele>1355.4</ele>
        <time>2021-10-11T10:31:11Z</time>
      </trkpt>
      <trkpt lat="42.8813150" lon="-5.9688380">
        <ele>1355.6</ele>
        <time>2021-10-11T10:31:13Z</time>
      </trkpt>
      <trkpt lat="42.8813090" lon="-5.9687790">
        <ele>1356.4</ele>
        <time>2021-10-11T10:31:16Z</time>
      </trkpt>
      <trkpt lat="42.8813050" lon="-5.9687600">
        <ele>1356.4</ele>
        <time>2021-10-11T10:31:17Z</time>
      </trkpt>
      <trkpt lat="42.8812920" lon="-5.9687000">
        <ele>1356.8</ele>
        <time>2021-10-11T10:31:20Z</time>
      </trkpt>
      <trkpt lat="42.8812850" lon="-5.9686570">
        <ele>1357.0</ele>
        <time>2021-10-11T10:31:22Z</time>
      </trkpt>
      <trkpt lat="42.8812670" lon="-5.9685490">
        <ele>1357.4</ele>
        <time>2021-10-11T10:31:27Z</time>
      </trkpt>
      <trkpt lat="42.8812570" lon="-5.9685060">
        <ele>1357.6</ele>
        <time>2021-10-11T10:31:29Z</time>
      </trkpt>
      <trkpt lat="42.8812500" lon="-5.9684840">
        <ele>1357.6</ele>
        <time>2021-10-11T10:31:30Z</time>
      </trkpt>
      <trkpt lat="42.8812170" lon="-5.9684000">
        <ele>1357.8</ele>
        <time>2021-10-11T10:31:34Z</time>
      </trkpt>
      <trkpt lat="42.8812010" lon="-5.9683650">
        <ele>1357.8</ele>
        <time>2021-10-11T10:31:36Z</time>
      </trkpt>
      <trkpt lat="42.8811850" lon="-5.9683240">
        <ele>1358.0</ele>
        <time>2021-10-11T10:31:38Z</time>
      </trkpt>
      <trkpt lat="42.8811310" lon="-5.9680890">
        <ele>1358.2</ele>
        <time>2021-10-11T10:31:47Z</time>
      </trkpt>
      <trkpt lat="42.8810740" lon="-5.9678680">
        <ele>1358.2</ele>
        <time>2021-10-11T10:31:53Z</time>
      </trkpt>
      <trkpt lat="42.8810640" lon="-5.9677990">
        <ele>1358.2</ele>
        <time>2021-10-11T10:31:55Z</time>
      </trkpt>
      <trkpt lat="42.8810500" lon="-5.9676750">
        <ele>1358.0</ele>
        <time>2021-10-11T10:31:59Z</time>
      </trkpt>
      <trkpt lat="42.8810370" lon="-5.9675880">
        <ele>1358.0</ele>
        <time>2021-10-11T10:32:02Z</time>
      </trkpt>
      <trkpt lat="42.8809890" lon="-5.9674400">
        <ele>1358.4</ele>
        <time>2021-10-11T10:32:08Z</time>
      </trkpt>
      <trkpt lat="42.8809800" lon="-5.9674180">
        <ele>1358.4</ele>
        <time>2021-10-11T10:32:09Z</time>
      </trkpt>
      <trkpt lat="42.8809640" lon="-5.9673820">
        <ele>1358.6</ele>
        <time>2021-10-11T10:32:11Z</time>
      </trkpt>
      <trkpt lat="42.8809460" lon="-5.9673480">
        <ele>1359.0</ele>
        <time>2021-10-11T10:32:13Z</time>
      </trkpt>
      <trkpt lat="42.8809140" lon="-5.9672920">
        <ele>1359.4</ele>
        <time>2021-10-11T10:32:16Z</time>
      </trkpt>
      <trkpt lat="42.8809030" lon="-5.9672740">
        <ele>1359.4</ele>
        <time>2021-10-11T10:32:17Z</time>
      </trkpt>
      <trkpt lat="42.8808810" lon="-5.9672430">
        <ele>1359.6</ele>
        <time>2021-10-11T10:32:19Z</time>
      </trkpt>
      <trkpt lat="42.8808500" lon="-5.9671740">
        <ele>1360.0</ele>
        <time>2021-10-11T10:32:23Z</time>
      </trkpt>
      <trkpt lat="42.8808330" lon="-5.9671420">
        <ele>1360.2</ele>
        <time>2021-10-11T10:32:25Z</time>
      </trkpt>
      <trkpt lat="42.8808160" lon="-5.9671100">
        <ele>1360.4</ele>
        <time>2021-10-11T10:32:27Z</time>
      </trkpt>
      <trkpt lat="42.8807900" lon="-5.9670690">
        <ele>1361.0</ele>
        <time>2021-10-11T10:32:30Z</time>
      </trkpt>
      <trkpt lat="42.8807740" lon="-5.9670470">
        <ele>1361.6</ele>
        <time>2021-10-11T10:32:32Z</time>
      </trkpt>
      <trkpt lat="42.8807370" lon="-5.9669910">
        <ele>1362.4</ele>
        <time>2021-10-11T10:32:36Z</time>
      </trkpt>
      <trkpt lat="42.8807120" lon="-5.9669450">
        <ele>1362.8</ele>
        <time>2021-10-11T10:32:39Z</time>
      </trkpt>
      <trkpt lat="42.8806640" lon="-5.9668410">
        <ele>1363.8</ele>
        <time>2021-10-11T10:32:45Z</time>
      </trkpt>
      <trkpt lat="42.8805950" lon="-5.9667410">
        <ele>1365.0</ele>
        <time>2021-10-11T10:32:52Z</time>
      </trkpt>
      <trkpt lat="42.8805860" lon="-5.9667080">
        <ele>1365.4</ele>
        <time>2021-10-11T10:32:54Z</time>
      </trkpt>
      <trkpt lat="42.8805720" lon="-5.9666570">
        <ele>1366.2</ele>
        <time>2021-10-11T10:32:57Z</time>
      </trkpt>
      <trkpt lat="42.8805470" lon="-5.9666140">
        <ele>1367.2</ele>
        <time>2021-10-11T10:33:00Z</time>
      </trkpt>
      <trkpt lat="42.8805340" lon="-5.9665880">
        <ele>1368.0</ele>
        <time>2021-10-11T10:33:02Z</time>
      </trkpt>
      <trkpt lat="42.8805290" lon="-5.9665760">
        <ele>1368.2</ele>
        <time>2021-10-11T10:33:03Z</time>
      </trkpt>
      <trkpt lat="42.8805170" lon="-5.9665290">
        <ele>1369.2</ele>
        <time>2021-10-11T10:33:06Z</time>
      </trkpt>
      <trkpt lat="42.8805170" lon="-5.9665020">
        <ele>1369.6</ele>
        <time>2021-10-11T10:33:08Z</time>
      </trkpt>
      <trkpt lat="42.8805090" lon="-5.9664700">
        <ele>1370.0</ele>
        <time>2021-10-11T10:33:10Z</time>
      </trkpt>
      <trkpt lat="42.8805060" lon="-5.9664520">
        <ele>1370.2</ele>
        <time>2021-10-11T10:33:11Z</time>
      </trkpt>
      <trkpt lat="42.8805030" lon="-5.9664360">
        <ele>1370.4</ele>
        <time>2021-10-11T10:33:12Z</time>
      </trkpt>
      <trkpt lat="42.8805040" lon="-5.9664210">
        <ele>1370.6</ele>
        <time>2021-10-11T10:33:13Z</time>
      </trkpt>
      <trkpt lat="42.8805030" lon="-5.9663390">
        <ele>1371.4</ele>
        <time>2021-10-11T10:33:18Z</time>
      </trkpt>
      <trkpt lat="42.8805040" lon="-5.9663030">
        <ele>1371.6</ele>
        <time>2021-10-11T10:33:20Z</time>
      </trkpt>
      <trkpt lat="42.8805140" lon="-5.9662540">
        <ele>1372.2</ele>
        <time>2021-10-11T10:33:23Z</time>
      </trkpt>
      <trkpt lat="42.8805190" lon="-5.9662380">
        <ele>1372.4</ele>
        <time>2021-10-11T10:33:24Z</time>
      </trkpt>
      <trkpt lat="42.8805210" lon="-5.9662240">
        <ele>1372.8</ele>
        <time>2021-10-11T10:33:25Z</time>
      </trkpt>
      <trkpt lat="42.8805210" lon="-5.9662120">
        <ele>1372.8</ele>
        <time>2021-10-11T10:33:26Z</time>
      </trkpt>
      <trkpt lat="42.8805130" lon="-5.9661360">
        <ele>1373.6</ele>
        <time>2021-10-11T10:33:32Z</time>
      </trkpt>
      <trkpt lat="42.8805130" lon="-5.9661210">
        <ele>1373.8</ele>
        <time>2021-10-11T10:33:33Z</time>
      </trkpt>
      <trkpt lat="42.8805080" lon="-5.9661050">
        <ele>1373.8</ele>
        <time>2021-10-11T10:33:34Z</time>
      </trkpt>
      <trkpt lat="42.8805060" lon="-5.9660890">
        <ele>1374.2</ele>
        <time>2021-10-11T10:33:35Z</time>
      </trkpt>
      <trkpt lat="42.8805060" lon="-5.9660760">
        <ele>1374.4</ele>
        <time>2021-10-11T10:33:36Z</time>
      </trkpt>
      <trkpt lat="42.8805070" lon="-5.9660630">
        <ele>1374.4</ele>
        <time>2021-10-11T10:33:37Z</time>
      </trkpt>
      <trkpt lat="42.8805060" lon="-5.9660490">
        <ele>1374.6</ele>
        <time>2021-10-11T10:33:38Z</time>
      </trkpt>
      <trkpt lat="42.8805050" lon="-5.9660370">
        <ele>1374.6</ele>
        <time>2021-10-11T10:33:39Z</time>
      </trkpt>
      <trkpt lat="42.8805030" lon="-5.9660220">
        <ele>1375.0</ele>
        <time>2021-10-11T10:33:40Z</time>
      </trkpt>
      <trkpt lat="42.8805020" lon="-5.9660090">
        <ele>1375.0</ele>
        <time>2021-10-11T10:33:41Z</time>
      </trkpt>
      <trkpt lat="42.8805000" lon="-5.9659740">
        <ele>1375.4</ele>
        <time>2021-10-11T10:33:43Z</time>
      </trkpt>
      <trkpt lat="42.8804980" lon="-5.9659580">
        <ele>1375.6</ele>
        <time>2021-10-11T10:33:44Z</time>
      </trkpt>
      <trkpt lat="42.8804970" lon="-5.9659420">
        <ele>1375.8</ele>
        <time>2021-10-11T10:33:45Z</time>
      </trkpt>
      <trkpt lat="42.8804950" lon="-5.9659290">
        <ele>1376.0</ele>
        <time>2021-10-11T10:33:46Z</time>
      </trkpt>
      <trkpt lat="42.8804690" lon="-5.9658010">
        <ele>1377.2</ele>
        <time>2021-10-11T10:33:55Z</time>
      </trkpt>
      <trkpt lat="42.8804470" lon="-5.9657000">
        <ele>1378.4</ele>
        <time>2021-10-11T10:34:02Z</time>
      </trkpt>
      <trkpt lat="42.8804400" lon="-5.9656760">
        <ele>1378.8</ele>
        <time>2021-10-11T10:34:04Z</time>
      </trkpt>
      <trkpt lat="42.8804360" lon="-5.9656660">
        <ele>1378.8</ele>
        <time>2021-10-11T10:34:05Z</time>
      </trkpt>
      <trkpt lat="42.8804310" lon="-5.9656410">
        <ele>1379.2</ele>
        <time>2021-10-11T10:34:07Z</time>
      </trkpt>
      <trkpt lat="42.8804280" lon="-5.9656150">
        <ele>1379.6</ele>
        <time>2021-10-11T10:34:09Z</time>
      </trkpt>
      <trkpt lat="42.8804260" lon="-5.9655850">
        <ele>1380.0</ele>
        <time>2021-10-11T10:34:11Z</time>
      </trkpt>
      <trkpt lat="42.8804240" lon="-5.9655700">
        <ele>1380.0</ele>
        <time>2021-10-11T10:34:12Z</time>
      </trkpt>
      <trkpt lat="42.8804070" lon="-5.9655030">
        <ele>1380.6</ele>
        <time>2021-10-11T10:34:16Z</time>
      </trkpt>
      <trkpt lat="42.8804050" lon="-5.9654860">
        <ele>1380.8</ele>
        <time>2021-10-11T10:34:17Z</time>
      </trkpt>
      <trkpt lat="42.8804040" lon="-5.9654580">
        <ele>1381.0</ele>
        <time>2021-10-11T10:34:19Z</time>
      </trkpt>
      <trkpt lat="42.8804060" lon="-5.9654110">
        <ele>1381.4</ele>
        <time>2021-10-11T10:34:22Z</time>
      </trkpt>
      <trkpt lat="42.8804150" lon="-5.9653870">
        <ele>1381.8</ele>
        <time>2021-10-11T10:34:24Z</time>
      </trkpt>
      <trkpt lat="42.8804200" lon="-5.9653610">
        <ele>1382.0</ele>
        <time>2021-10-11T10:34:26Z</time>
      </trkpt>
      <trkpt lat="42.8804200" lon="-5.9653480">
        <ele>1382.2</ele>
        <time>2021-10-11T10:34:27Z</time>
      </trkpt>
      <trkpt lat="42.8804200" lon="-5.9653330">
        <ele>1382.4</ele>
        <time>2021-10-11T10:34:28Z</time>
      </trkpt>
      <trkpt lat="42.8804250" lon="-5.9653000">
        <ele>1382.8</ele>
        <time>2021-10-11T10:34:30Z</time>
      </trkpt>
      <trkpt lat="42.8804270" lon="-5.9652860">
        <ele>1382.8</ele>
        <time>2021-10-11T10:34:31Z</time>
      </trkpt>
      <trkpt lat="42.8804290" lon="-5.9652730">
        <ele>1383.0</ele>
        <time>2021-10-11T10:34:32Z</time>
      </trkpt>
      <trkpt lat="42.8804270" lon="-5.9652600">
        <ele>1383.2</ele>
        <time>2021-10-11T10:34:33Z</time>
      </trkpt>
      <trkpt lat="42.8804230" lon="-5.9652480">
        <ele>1383.2</ele>
        <time>2021-10-11T10:34:34Z</time>
      </trkpt>
      <trkpt lat="42.8804190" lon="-5.9652340">
        <ele>1383.4</ele>
        <time>2021-10-11T10:34:35Z</time>
      </trkpt>
      <trkpt lat="42.8804160" lon="-5.9652220">
        <ele>1383.6</ele>
        <time>2021-10-11T10:34:36Z</time>
      </trkpt>
      <trkpt lat="42.8804050" lon="-5.9651920">
        <ele>1383.8</ele>
        <time>2021-10-11T10:34:38Z</time>
      </trkpt>
      <trkpt lat="42.8803930" lon="-5.9651530">
        <ele>1384.2</ele>
        <time>2021-10-11T10:34:41Z</time>
      </trkpt>
      <trkpt lat="42.8803830" lon="-5.9651280">
        <ele>1384.4</ele>
        <time>2021-10-11T10:34:43Z</time>
      </trkpt>
      <trkpt lat="42.8803830" lon="-5.9650880">
        <ele>1385.2</ele>
        <time>2021-10-11T10:34:46Z</time>
      </trkpt>
      <trkpt lat="42.8803860" lon="-5.9650590">
        <ele>1385.4</ele>
        <time>2021-10-11T10:34:48Z</time>
      </trkpt>
      <trkpt lat="42.8803860" lon="-5.9649780">
        <ele>1386.2</ele>
        <time>2021-10-11T10:34:54Z</time>
      </trkpt>
      <trkpt lat="42.8803820" lon="-5.9649690">
        <ele>1386.2</ele>
        <time>2021-10-11T10:34:55Z</time>
      </trkpt>
      <trkpt lat="42.8803740" lon="-5.9649430">
        <ele>1386.4</ele>
        <time>2021-10-11T10:34:57Z</time>
      </trkpt>
      <trkpt lat="42.8803690" lon="-5.9649130">
        <ele>1386.6</ele>
        <time>2021-10-11T10:34:59Z</time>
      </trkpt>
      <trkpt lat="42.8803690" lon="-5.9648970">
        <ele>1386.8</ele>
        <time>2021-10-11T10:35:00Z</time>
      </trkpt>
      <trkpt lat="42.8803400" lon="-5.9647650">
        <ele>1387.4</ele>
        <time>2021-10-11T10:35:08Z</time>
      </trkpt>
      <trkpt lat="42.8803370" lon="-5.9647500">
        <ele>1387.4</ele>
        <time>2021-10-11T10:35:09Z</time>
      </trkpt>
      <trkpt lat="42.8803310" lon="-5.9646630">
        <ele>1388.0</ele>
        <time>2021-10-11T10:35:14Z</time>
      </trkpt>
      <trkpt lat="42.8803290" lon="-5.9646330">
        <ele>1388.2</ele>
        <time>2021-10-11T10:35:16Z</time>
      </trkpt>
      <trkpt lat="42.8803250" lon="-5.9645580">
        <ele>1388.8</ele>
        <time>2021-10-11T10:35:21Z</time>
      </trkpt>
      <trkpt lat="42.8803330" lon="-5.9644660">
        <ele>1389.4</ele>
        <time>2021-10-11T10:35:27Z</time>
      </trkpt>
      <trkpt lat="42.8803430" lon="-5.9644070">
        <ele>1389.8</ele>
        <time>2021-10-11T10:35:31Z</time>
      </trkpt>
      <trkpt lat="42.8803420" lon="-5.9643740">
        <ele>1390.0</ele>
        <time>2021-10-11T10:35:33Z</time>
      </trkpt>
      <trkpt lat="42.8803540" lon="-5.9642820">
        <ele>1390.6</ele>
        <time>2021-10-11T10:35:39Z</time>
      </trkpt>
      <trkpt lat="42.8803490" lon="-5.9642590">
        <ele>1391.0</ele>
        <time>2021-10-11T10:35:41Z</time>
      </trkpt>
      <trkpt lat="42.8803020" lon="-5.9640790">
        <ele>1392.2</ele>
        <time>2021-10-11T10:35:52Z</time>
      </trkpt>
      <trkpt lat="42.8802920" lon="-5.9640260">
        <ele>1392.8</ele>
        <time>2021-10-11T10:35:55Z</time>
      </trkpt>
      <trkpt lat="42.8802910" lon="-5.9639630">
        <ele>1393.4</ele>
        <time>2021-10-11T10:35:59Z</time>
      </trkpt>
      <trkpt lat="42.8802900" lon="-5.9639350">
        <ele>1393.6</ele>
        <time>2021-10-11T10:36:01Z</time>
      </trkpt>
      <trkpt lat="42.8802820" lon="-5.9638850">
        <ele>1394.0</ele>
        <time>2021-10-11T10:36:04Z</time>
      </trkpt>
      <trkpt lat="42.8802720" lon="-5.9638310">
        <ele>1394.2</ele>
        <time>2021-10-11T10:36:08Z</time>
      </trkpt>
      <trkpt lat="42.8802700" lon="-5.9637840">
        <ele>1394.4</ele>
        <time>2021-10-11T10:36:11Z</time>
      </trkpt>
      <trkpt lat="42.8802550" lon="-5.9636990">
        <ele>1395.2</ele>
        <time>2021-10-11T10:36:17Z</time>
      </trkpt>
      <trkpt lat="42.8802550" lon="-5.9636730">
        <ele>1395.4</ele>
        <time>2021-10-11T10:36:19Z</time>
      </trkpt>
      <trkpt lat="42.8802620" lon="-5.9636220">
        <ele>1396.0</ele>
        <time>2021-10-11T10:36:23Z</time>
      </trkpt>
      <trkpt lat="42.8802620" lon="-5.9635670">
        <ele>1396.4</ele>
        <time>2021-10-11T10:36:27Z</time>
      </trkpt>
      <trkpt lat="42.8802620" lon="-5.9635530">
        <ele>1396.6</ele>
        <time>2021-10-11T10:36:28Z</time>
      </trkpt>
      <trkpt lat="42.8802530" lon="-5.9634360">
        <ele>1397.8</ele>
        <time>2021-10-11T10:36:36Z</time>
      </trkpt>
      <trkpt lat="42.8802330" lon="-5.9632810">
        <ele>1398.4</ele>
        <time>2021-10-11T10:36:46Z</time>
      </trkpt>
      <trkpt lat="42.8802210" lon="-5.9632330">
        <ele>1398.8</ele>
        <time>2021-10-11T10:36:49Z</time>
      </trkpt>
      <trkpt lat="42.8802060" lon="-5.9631770">
        <ele>1399.4</ele>
        <time>2021-10-11T10:36:53Z</time>
      </trkpt>
      <trkpt lat="42.8802020" lon="-5.9631610">
        <ele>1399.6</ele>
        <time>2021-10-11T10:36:54Z</time>
      </trkpt>
      <trkpt lat="42.8801940" lon="-5.9631290">
        <ele>1400.0</ele>
        <time>2021-10-11T10:36:56Z</time>
      </trkpt>
      <trkpt lat="42.8801850" lon="-5.9630810">
        <ele>1400.4</ele>
        <time>2021-10-11T10:36:59Z</time>
      </trkpt>
      <trkpt lat="42.8801590" lon="-5.9629750">
        <ele>1401.0</ele>
        <time>2021-10-11T10:37:06Z</time>
      </trkpt>
      <trkpt lat="42.8801540" lon="-5.9629590">
        <ele>1401.0</ele>
        <time>2021-10-11T10:37:07Z</time>
      </trkpt>
      <trkpt lat="42.8801450" lon="-5.9629280">
        <ele>1401.2</ele>
        <time>2021-10-11T10:37:09Z</time>
      </trkpt>
      <trkpt lat="42.8801340" lon="-5.9628730">
        <ele>1401.8</ele>
        <time>2021-10-11T10:37:13Z</time>
      </trkpt>
      <trkpt lat="42.8801180" lon="-5.9628290">
        <ele>1402.0</ele>
        <time>2021-10-11T10:37:16Z</time>
      </trkpt>
      <trkpt lat="42.8801030" lon="-5.9628020">
        <ele>1402.0</ele>
        <time>2021-10-11T10:37:18Z</time>
      </trkpt>
      <trkpt lat="42.8800590" lon="-5.9627160">
        <ele>1402.6</ele>
        <time>2021-10-11T10:37:24Z</time>
      </trkpt>
      <trkpt lat="42.8800050" lon="-5.9626220">
        <ele>1403.2</ele>
        <time>2021-10-11T10:37:30Z</time>
      </trkpt>
      <trkpt lat="42.8799920" lon="-5.9625850">
        <ele>1403.4</ele>
        <time>2021-10-11T10:37:32Z</time>
      </trkpt>
      <trkpt lat="42.8799260" lon="-5.9624690">
        <ele>1403.8</ele>
        <time>2021-10-11T10:37:39Z</time>
      </trkpt>
      <trkpt lat="42.8798780" lon="-5.9623460">
        <ele>1404.4</ele>
        <time>2021-10-11T10:37:46Z</time>
      </trkpt>
      <trkpt lat="42.8798750" lon="-5.9623260">
        <ele>1404.4</ele>
        <time>2021-10-11T10:37:47Z</time>
      </trkpt>
      <trkpt lat="42.8798410" lon="-5.9621930">
        <ele>1404.8</ele>
        <time>2021-10-11T10:37:54Z</time>
      </trkpt>
      <trkpt lat="42.8798310" lon="-5.9621560">
        <ele>1404.8</ele>
        <time>2021-10-11T10:37:56Z</time>
      </trkpt>
      <trkpt lat="42.8797970" lon="-5.9620480">
        <ele>1405.6</ele>
        <time>2021-10-11T10:38:02Z</time>
      </trkpt>
      <trkpt lat="42.8797920" lon="-5.9620360">
        <ele>1405.8</ele>
        <time>2021-10-11T10:38:03Z</time>
      </trkpt>
      <trkpt lat="42.8797620" lon="-5.9618770">
        <ele>1406.6</ele>
        <time>2021-10-11T10:38:13Z</time>
      </trkpt>
      <trkpt lat="42.8797430" lon="-5.9617280">
        <ele>1407.6</ele>
        <time>2021-10-11T10:38:22Z</time>
      </trkpt>
      <trkpt lat="42.8797410" lon="-5.9617110">
        <ele>1407.8</ele>
        <time>2021-10-11T10:38:23Z</time>
      </trkpt>
      <trkpt lat="42.8797180" lon="-5.9615600">
        <ele>1408.6</ele>
        <time>2021-10-11T10:38:32Z</time>
      </trkpt>
      <trkpt lat="42.8797130" lon="-5.9615410">
        <ele>1408.8</ele>
        <time>2021-10-11T10:38:33Z</time>
      </trkpt>
      <trkpt lat="42.8796670" lon="-5.9614330">
        <ele>1409.8</ele>
        <time>2021-10-11T10:38:40Z</time>
      </trkpt>
      <trkpt lat="42.8796600" lon="-5.9614210">
        <ele>1410.0</ele>
        <time>2021-10-11T10:38:41Z</time>
      </trkpt>
      <trkpt lat="42.8796090" lon="-5.9613460">
        <ele>1410.6</ele>
        <time>2021-10-11T10:38:46Z</time>
      </trkpt>
      <trkpt lat="42.8796010" lon="-5.9613300">
        <ele>1410.8</ele>
        <time>2021-10-11T10:38:47Z</time>
      </trkpt>
      <trkpt lat="42.8795830" lon="-5.9613020">
        <ele>1411.2</ele>
        <time>2021-10-11T10:38:49Z</time>
      </trkpt>
      <trkpt lat="42.8795590" lon="-5.9612600">
        <ele>1411.4</ele>
        <time>2021-10-11T10:38:52Z</time>
      </trkpt>
      <trkpt lat="42.8795130" lon="-5.9611850">
        <ele>1412.0</ele>
        <time>2021-10-11T10:38:58Z</time>
      </trkpt>
      <trkpt lat="42.8794940" lon="-5.9611400">
        <ele>1412.0</ele>
        <time>2021-10-11T10:39:01Z</time>
      </trkpt>
      <trkpt lat="42.8794550" lon="-5.9610150">
        <ele>1413.0</ele>
        <time>2021-10-11T10:39:09Z</time>
      </trkpt>
      <trkpt lat="42.8794450" lon="-5.9609900">
        <ele>1413.0</ele>
        <time>2021-10-11T10:39:11Z</time>
      </trkpt>
      <trkpt lat="42.8794390" lon="-5.9609760">
        <ele>1413.2</ele>
        <time>2021-10-11T10:39:12Z</time>
      </trkpt>
      <trkpt lat="42.8794060" lon="-5.9608880">
        <ele>1414.4</ele>
        <time>2021-10-11T10:39:18Z</time>
      </trkpt>
      <trkpt lat="42.8793980" lon="-5.9608730">
        <ele>1414.6</ele>
        <time>2021-10-11T10:39:19Z</time>
      </trkpt>
      <trkpt lat="42.8793850" lon="-5.9608190">
        <ele>1415.0</ele>
        <time>2021-10-11T10:39:22Z</time>
      </trkpt>
      <trkpt lat="42.8793700" lon="-5.9608020">
        <ele>1415.2</ele>
        <time>2021-10-11T10:39:24Z</time>
      </trkpt>
      <trkpt lat="42.8793500" lon="-5.9607800">
        <ele>1415.4</ele>
        <time>2021-10-11T10:39:26Z</time>
      </trkpt>
      <trkpt lat="42.8793060" lon="-5.9606880">
        <ele>1416.2</ele>
        <time>2021-10-11T10:39:33Z</time>
      </trkpt>
      <trkpt lat="42.8792920" lon="-5.9606620">
        <ele>1416.6</ele>
        <time>2021-10-11T10:39:35Z</time>
      </trkpt>
      <trkpt lat="42.8792580" lon="-5.9606100">
        <ele>1417.0</ele>
        <time>2021-10-11T10:39:39Z</time>
      </trkpt>
      <trkpt lat="42.8792240" lon="-5.9605520">
        <ele>1417.4</ele>
        <time>2021-10-11T10:39:43Z</time>
      </trkpt>
      <trkpt lat="42.8791830" lon="-5.9604750">
        <ele>1417.6</ele>
        <time>2021-10-11T10:39:48Z</time>
      </trkpt>
      <trkpt lat="42.8791430" lon="-5.9604290">
        <ele>1418.0</ele>
        <time>2021-10-11T10:39:52Z</time>
      </trkpt>
      <trkpt lat="42.8791150" lon="-5.9603850">
        <ele>1418.4</ele>
        <time>2021-10-11T10:39:55Z</time>
      </trkpt>
      <trkpt lat="42.8791060" lon="-5.9603700">
        <ele>1418.4</ele>
        <time>2021-10-11T10:39:56Z</time>
      </trkpt>
      <trkpt lat="42.8790760" lon="-5.9603310">
        <ele>1418.6</ele>
        <time>2021-10-11T10:39:59Z</time>
      </trkpt>
      <trkpt lat="42.8790660" lon="-5.9603220">
        <ele>1418.8</ele>
        <time>2021-10-11T10:40:00Z</time>
      </trkpt>
      <trkpt lat="42.8790300" lon="-5.9602720">
        <ele>1419.0</ele>
        <time>2021-10-11T10:40:04Z</time>
      </trkpt>
      <trkpt lat="42.8789990" lon="-5.9602190">
        <ele>1419.6</ele>
        <time>2021-10-11T10:40:08Z</time>
      </trkpt>
      <trkpt lat="42.8789900" lon="-5.9602100">
        <ele>1419.8</ele>
        <time>2021-10-11T10:40:09Z</time>
      </trkpt>
      <trkpt lat="42.8789400" lon="-5.9601200">
        <ele>1420.4</ele>
        <time>2021-10-11T10:40:16Z</time>
      </trkpt>
      <trkpt lat="42.8789150" lon="-5.9600700">
        <ele>1420.8</ele>
        <time>2021-10-11T10:40:20Z</time>
      </trkpt>
      <trkpt lat="42.8788760" lon="-5.9599840">
        <ele>1421.4</ele>
        <time>2021-10-11T10:40:26Z</time>
      </trkpt>
      <trkpt lat="42.8788650" lon="-5.9599280">
        <ele>1421.8</ele>
        <time>2021-10-11T10:40:30Z</time>
      </trkpt>
      <trkpt lat="42.8788500" lon="-5.9598690">
        <ele>1422.2</ele>
        <time>2021-10-11T10:40:34Z</time>
      </trkpt>
      <trkpt lat="42.8788050" lon="-5.9597180">
        <ele>1422.8</ele>
        <time>2021-10-11T10:40:44Z</time>
      </trkpt>
      <trkpt lat="42.8787790" lon="-5.9596010">
        <ele>1423.8</ele>
        <time>2021-10-11T10:40:51Z</time>
      </trkpt>
      <trkpt lat="42.8787730" lon="-5.9595860">
        <ele>1423.8</ele>
        <time>2021-10-11T10:40:52Z</time>
      </trkpt>
      <trkpt lat="42.8787690" lon="-5.9595730">
        <ele>1424.0</ele>
        <time>2021-10-11T10:40:53Z</time>
      </trkpt>
      <trkpt lat="42.8787390" lon="-5.9594910">
        <ele>1424.8</ele>
        <time>2021-10-11T10:40:58Z</time>
      </trkpt>
      <trkpt lat="42.8787290" lon="-5.9594560">
        <ele>1425.0</ele>
        <time>2021-10-11T10:41:00Z</time>
      </trkpt>
      <trkpt lat="42.8787180" lon="-5.9594230">
        <ele>1425.4</ele>
        <time>2021-10-11T10:41:02Z</time>
      </trkpt>
      <trkpt lat="42.8787140" lon="-5.9593910">
        <ele>1425.6</ele>
        <time>2021-10-11T10:41:04Z</time>
      </trkpt>
      <trkpt lat="42.8786890" lon="-5.9593250">
        <ele>1426.2</ele>
        <time>2021-10-11T10:41:09Z</time>
      </trkpt>
      <trkpt lat="42.8786840" lon="-5.9593140">
        <ele>1426.4</ele>
        <time>2021-10-11T10:41:10Z</time>
      </trkpt>
      <trkpt lat="42.8786540" lon="-5.9592450">
        <ele>1427.4</ele>
        <time>2021-10-11T10:41:15Z</time>
      </trkpt>
      <trkpt lat="42.8786410" lon="-5.9592180">
        <ele>1427.6</ele>
        <time>2021-10-11T10:41:17Z</time>
      </trkpt>
      <trkpt lat="42.8786340" lon="-5.9592040">
        <ele>1427.6</ele>
        <time>2021-10-11T10:41:18Z</time>
      </trkpt>
      <trkpt lat="42.8786310" lon="-5.9591880">
        <ele>1427.8</ele>
        <time>2021-10-11T10:41:19Z</time>
      </trkpt>
      <trkpt lat="42.8786090" lon="-5.9591100">
        <ele>1428.2</ele>
        <time>2021-10-11T10:41:24Z</time>
      </trkpt>
      <trkpt lat="42.8785850" lon="-5.9590410">
        <ele>1428.4</ele>
        <time>2021-10-11T10:41:29Z</time>
      </trkpt>
      <trkpt lat="42.8785660" lon="-5.9590010">
        <ele>1428.8</ele>
        <time>2021-10-11T10:41:32Z</time>
      </trkpt>
      <trkpt lat="42.8785440" lon="-5.9589180">
        <ele>1429.4</ele>
        <time>2021-10-11T10:41:38Z</time>
      </trkpt>
      <trkpt lat="42.8785430" lon="-5.9589060">
        <ele>1429.4</ele>
        <time>2021-10-11T10:41:39Z</time>
      </trkpt>
      <trkpt lat="42.8785310" lon="-5.9588470">
        <ele>1429.8</ele>
        <time>2021-10-11T10:41:43Z</time>
      </trkpt>
      <trkpt lat="42.8785230" lon="-5.9588020">
        <ele>1430.2</ele>
        <time>2021-10-11T10:41:46Z</time>
      </trkpt>
      <trkpt lat="42.8785210" lon="-5.9587890">
        <ele>1430.2</ele>
        <time>2021-10-11T10:41:47Z</time>
      </trkpt>
      <trkpt lat="42.8785200" lon="-5.9587710">
        <ele>1430.4</ele>
        <time>2021-10-11T10:41:48Z</time>
      </trkpt>
      <trkpt lat="42.8785190" lon="-5.9587580">
        <ele>1430.6</ele>
        <time>2021-10-11T10:41:49Z</time>
      </trkpt>
      <trkpt lat="42.8785190" lon="-5.9587280">
        <ele>1431.0</ele>
        <time>2021-10-11T10:41:51Z</time>
      </trkpt>
      <trkpt lat="42.8785210" lon="-5.9587150">
        <ele>1431.0</ele>
        <time>2021-10-11T10:41:52Z</time>
      </trkpt>
      <trkpt lat="42.8785180" lon="-5.9586880">
        <ele>1431.4</ele>
        <time>2021-10-11T10:41:54Z</time>
      </trkpt>
      <trkpt lat="42.8785200" lon="-5.9586620">
        <ele>1431.6</ele>
        <time>2021-10-11T10:41:56Z</time>
      </trkpt>
      <trkpt lat="42.8785210" lon="-5.9586360">
        <ele>1431.8</ele>
        <time>2021-10-11T10:41:58Z</time>
      </trkpt>
      <trkpt lat="42.8785180" lon="-5.9586190">
        <ele>1432.0</ele>
        <time>2021-10-11T10:41:59Z</time>
      </trkpt>
      <trkpt lat="42.8785130" lon="-5.9585830">
        <ele>1432.2</ele>
        <time>2021-10-11T10:42:01Z</time>
      </trkpt>
      <trkpt lat="42.8785110" lon="-5.9585670">
        <ele>1432.2</ele>
        <time>2021-10-11T10:42:02Z</time>
      </trkpt>
      <trkpt lat="42.8785040" lon="-5.9585350">
        <ele>1432.6</ele>
        <time>2021-10-11T10:42:04Z</time>
      </trkpt>
      <trkpt lat="42.8784900" lon="-5.9584940">
        <ele>1433.0</ele>
        <time>2021-10-11T10:42:07Z</time>
      </trkpt>
      <trkpt lat="42.8784860" lon="-5.9584790">
        <ele>1433.2</ele>
        <time>2021-10-11T10:42:08Z</time>
      </trkpt>
      <trkpt lat="42.8784830" lon="-5.9584670">
        <ele>1433.2</ele>
        <time>2021-10-11T10:42:09Z</time>
      </trkpt>
      <trkpt lat="42.8784770" lon="-5.9584430">
        <ele>1433.6</ele>
        <time>2021-10-11T10:42:11Z</time>
      </trkpt>
      <trkpt lat="42.8784750" lon="-5.9584250">
        <ele>1433.6</ele>
        <time>2021-10-11T10:42:12Z</time>
      </trkpt>
      <trkpt lat="42.8784580" lon="-5.9583600">
        <ele>1433.8</ele>
        <time>2021-10-11T10:42:16Z</time>
      </trkpt>
      <trkpt lat="42.8784470" lon="-5.9583310">
        <ele>1434.2</ele>
        <time>2021-10-11T10:42:18Z</time>
      </trkpt>
      <trkpt lat="42.8784410" lon="-5.9583160">
        <ele>1434.2</ele>
        <time>2021-10-11T10:42:19Z</time>
      </trkpt>
      <trkpt lat="42.8784310" lon="-5.9582850">
        <ele>1434.4</ele>
        <time>2021-10-11T10:42:21Z</time>
      </trkpt>
      <trkpt lat="42.8784170" lon="-5.9582600">
        <ele>1434.6</ele>
        <time>2021-10-11T10:42:23Z</time>
      </trkpt>
      <trkpt lat="42.8784050" lon="-5.9582330">
        <ele>1434.8</ele>
        <time>2021-10-11T10:42:25Z</time>
      </trkpt>
      <trkpt lat="42.8783960" lon="-5.9582200">
        <ele>1434.8</ele>
        <time>2021-10-11T10:42:26Z</time>
      </trkpt>
      <trkpt lat="42.8783750" lon="-5.9581990">
        <ele>1435.0</ele>
        <time>2021-10-11T10:42:28Z</time>
      </trkpt>
      <trkpt lat="42.8783450" lon="-5.9581580">
        <ele>1435.4</ele>
        <time>2021-10-11T10:42:32Z</time>
      </trkpt>
      <trkpt lat="42.8783380" lon="-5.9581410">
        <ele>1435.4</ele>
        <time>2021-10-11T10:42:33Z</time>
      </trkpt>
      <trkpt lat="42.8783150" lon="-5.9580970">
        <ele>1435.8</ele>
        <time>2021-10-11T10:42:36Z</time>
      </trkpt>
      <trkpt lat="42.8783090" lon="-5.9580810">
        <ele>1435.8</ele>
        <time>2021-10-11T10:42:37Z</time>
      </trkpt>
      <trkpt lat="42.8783050" lon="-5.9580650">
        <ele>1436.0</ele>
        <time>2021-10-11T10:42:38Z</time>
      </trkpt>
      <trkpt lat="42.8783020" lon="-5.9580480">
        <ele>1436.2</ele>
        <time>2021-10-11T10:42:39Z</time>
      </trkpt>
      <trkpt lat="42.8782920" lon="-5.9580170">
        <ele>1436.4</ele>
        <time>2021-10-11T10:42:41Z</time>
      </trkpt>
      <trkpt lat="42.8782850" lon="-5.9580040">
        <ele>1436.6</ele>
        <time>2021-10-11T10:42:42Z</time>
      </trkpt>
      <trkpt lat="42.8782780" lon="-5.9579920">
        <ele>1436.8</ele>
        <time>2021-10-11T10:42:43Z</time>
      </trkpt>
      <trkpt lat="42.8782650" lon="-5.9579650">
        <ele>1437.0</ele>
        <time>2021-10-11T10:42:45Z</time>
      </trkpt>
      <trkpt lat="42.8782600" lon="-5.9579530">
        <ele>1437.0</ele>
        <time>2021-10-11T10:42:46Z</time>
      </trkpt>
      <trkpt lat="42.8782540" lon="-5.9579410">
        <ele>1437.2</ele>
        <time>2021-10-11T10:42:47Z</time>
      </trkpt>
      <trkpt lat="42.8782470" lon="-5.9579290">
        <ele>1437.4</ele>
        <time>2021-10-11T10:42:48Z</time>
      </trkpt>
      <trkpt lat="42.8782420" lon="-5.9579140">
        <ele>1437.6</ele>
        <time>2021-10-11T10:42:49Z</time>
      </trkpt>
      <trkpt lat="42.8782330" lon="-5.9578870">
        <ele>1437.8</ele>
        <time>2021-10-11T10:42:51Z</time>
      </trkpt>
      <trkpt lat="42.8782240" lon="-5.9578610">
        <ele>1438.2</ele>
        <time>2021-10-11T10:42:53Z</time>
      </trkpt>
      <trkpt lat="42.8781980" lon="-5.9577490">
        <ele>1439.2</ele>
        <time>2021-10-11T10:43:00Z</time>
      </trkpt>
      <trkpt lat="42.8781930" lon="-5.9577200">
        <ele>1439.4</ele>
        <time>2021-10-11T10:43:02Z</time>
      </trkpt>
      <trkpt lat="42.8781830" lon="-5.9576510">
        <ele>1439.8</ele>
        <time>2021-10-11T10:43:07Z</time>
      </trkpt>
      <trkpt lat="42.8781780" lon="-5.9576370">
        <ele>1440.0</ele>
        <time>2021-10-11T10:43:08Z</time>
      </trkpt>
      <trkpt lat="42.8781720" lon="-5.9576230">
        <ele>1440.2</ele>
        <time>2021-10-11T10:43:09Z</time>
      </trkpt>
      <trkpt lat="42.8781680" lon="-5.9576070">
        <ele>1440.2</ele>
        <time>2021-10-11T10:43:10Z</time>
      </trkpt>
      <trkpt lat="42.8781640" lon="-5.9575960">
        <ele>1440.2</ele>
        <time>2021-10-11T10:43:11Z</time>
      </trkpt>
      <trkpt lat="42.8781600" lon="-5.9575640">
        <ele>1440.4</ele>
        <time>2021-10-11T10:43:13Z</time>
      </trkpt>
      <trkpt lat="42.8781520" lon="-5.9575250">
        <ele>1440.4</ele>
        <time>2021-10-11T10:43:15Z</time>
      </trkpt>
      <trkpt lat="42.8781470" lon="-5.9575100">
        <ele>1440.8</ele>
        <time>2021-10-11T10:43:16Z</time>
      </trkpt>
      <trkpt lat="42.8781430" lon="-5.9574940">
        <ele>1440.8</ele>
        <time>2021-10-11T10:43:17Z</time>
      </trkpt>
      <trkpt lat="42.8781220" lon="-5.9574320">
        <ele>1441.2</ele>
        <time>2021-10-11T10:43:21Z</time>
      </trkpt>
      <trkpt lat="42.8781120" lon="-5.9574020">
        <ele>1441.4</ele>
        <time>2021-10-11T10:43:23Z</time>
      </trkpt>
      <trkpt lat="42.8781020" lon="-5.9573740">
        <ele>1441.4</ele>
        <time>2021-10-11T10:43:25Z</time>
      </trkpt>
      <trkpt lat="42.8780950" lon="-5.9573360">
        <ele>1441.4</ele>
        <time>2021-10-11T10:43:27Z</time>
      </trkpt>
      <trkpt lat="42.8780880" lon="-5.9573020">
        <ele>1441.6</ele>
        <time>2021-10-11T10:43:29Z</time>
      </trkpt>
      <trkpt lat="42.8780830" lon="-5.9572720">
        <ele>1441.8</ele>
        <time>2021-10-11T10:43:31Z</time>
      </trkpt>
      <trkpt lat="42.8780680" lon="-5.9572260">
        <ele>1442.4</ele>
        <time>2021-10-11T10:43:34Z</time>
      </trkpt>
      <trkpt lat="42.8780460" lon="-5.9571480">
        <ele>1442.8</ele>
        <time>2021-10-11T10:43:39Z</time>
      </trkpt>
      <trkpt lat="42.8780190" lon="-5.9570760">
        <ele>1443.4</ele>
        <time>2021-10-11T10:43:43Z</time>
      </trkpt>
      <trkpt lat="42.8779920" lon="-5.9569570">
        <ele>1443.6</ele>
        <time>2021-10-11T10:43:48Z</time>
      </trkpt>
      <trkpt lat="42.8779730" lon="-5.9569000">
        <ele>1443.8</ele>
        <time>2021-10-11T10:43:51Z</time>
      </trkpt>
      <trkpt lat="42.8779550" lon="-5.9568320">
        <ele>1443.8</ele>
        <time>2021-10-11T10:43:54Z</time>
      </trkpt>
      <trkpt lat="42.8779220" lon="-5.9566690">
        <ele>1443.8</ele>
        <time>2021-10-11T10:44:01Z</time>
      </trkpt>
      <trkpt lat="42.8778980" lon="-5.9565520">
        <ele>1444.2</ele>
        <time>2021-10-11T10:44:07Z</time>
      </trkpt>
      <trkpt lat="42.8778630" lon="-5.9564660">
        <ele>1444.4</ele>
        <time>2021-10-11T10:44:11Z</time>
      </trkpt>
      <trkpt lat="42.8778380" lon="-5.9564030">
        <ele>1444.6</ele>
        <time>2021-10-11T10:44:14Z</time>
      </trkpt>
      <trkpt lat="42.8778270" lon="-5.9563860">
        <ele>1444.6</ele>
        <time>2021-10-11T10:44:15Z</time>
      </trkpt>
      <trkpt lat="42.8778200" lon="-5.9563680">
        <ele>1444.8</ele>
        <time>2021-10-11T10:44:16Z</time>
      </trkpt>
      <trkpt lat="42.8778110" lon="-5.9563500">
        <ele>1444.8</ele>
        <time>2021-10-11T10:44:17Z</time>
      </trkpt>
      <trkpt lat="42.8777910" lon="-5.9563190">
        <ele>1444.8</ele>
        <time>2021-10-11T10:44:19Z</time>
      </trkpt>
      <trkpt lat="42.8777560" lon="-5.9562740">
        <ele>1445.0</ele>
        <time>2021-10-11T10:44:22Z</time>
      </trkpt>
      <trkpt lat="42.8777320" lon="-5.9562470">
        <ele>1445.2</ele>
        <time>2021-10-11T10:44:24Z</time>
      </trkpt>
      <trkpt lat="42.8777030" lon="-5.9562190">
        <ele>1445.2</ele>
        <time>2021-10-11T10:44:26Z</time>
      </trkpt>
      <trkpt lat="42.8776580" lon="-5.9561530">
        <ele>1445.2</ele>
        <time>2021-10-11T10:44:30Z</time>
      </trkpt>
      <trkpt lat="42.8776400" lon="-5.9561240">
        <ele>1445.4</ele>
        <time>2021-10-11T10:44:32Z</time>
      </trkpt>
      <trkpt lat="42.8776030" lon="-5.9560810">
        <ele>1445.6</ele>
        <time>2021-10-11T10:44:35Z</time>
      </trkpt>
      <trkpt lat="42.8775800" lon="-5.9560520">
        <ele>1445.6</ele>
        <time>2021-10-11T10:44:37Z</time>
      </trkpt>
      <trkpt lat="42.8775600" lon="-5.9560190">
        <ele>1445.8</ele>
        <time>2021-10-11T10:44:39Z</time>
      </trkpt>
      <trkpt lat="42.8775430" lon="-5.9559800">
        <ele>1445.8</ele>
        <time>2021-10-11T10:44:41Z</time>
      </trkpt>
      <trkpt lat="42.8775090" lon="-5.9559310">
        <ele>1446.0</ele>
        <time>2021-10-11T10:44:44Z</time>
      </trkpt>
      <trkpt lat="42.8774610" lon="-5.9558290">
        <ele>1446.2</ele>
        <time>2021-10-11T10:44:50Z</time>
      </trkpt>
      <trkpt lat="42.8774420" lon="-5.9557980">
        <ele>1446.6</ele>
        <time>2021-10-11T10:44:52Z</time>
      </trkpt>
      <trkpt lat="42.8774270" lon="-5.9557600">
        <ele>1446.6</ele>
        <time>2021-10-11T10:44:54Z</time>
      </trkpt>
      <trkpt lat="42.8774110" lon="-5.9557240">
        <ele>1446.8</ele>
        <time>2021-10-11T10:44:56Z</time>
      </trkpt>
      <trkpt lat="42.8773640" lon="-5.9556270">
        <ele>1447.2</ele>
        <time>2021-10-11T10:45:02Z</time>
      </trkpt>
      <trkpt lat="42.8773460" lon="-5.9555800">
        <ele>1447.6</ele>
        <time>2021-10-11T10:45:05Z</time>
      </trkpt>
      <trkpt lat="42.8773350" lon="-5.9555460">
        <ele>1447.6</ele>
        <time>2021-10-11T10:45:07Z</time>
      </trkpt>
      <trkpt lat="42.8773090" lon="-5.9554890">
        <ele>1447.8</ele>
        <time>2021-10-11T10:45:10Z</time>
      </trkpt>
      <trkpt lat="42.8772920" lon="-5.9554620">
        <ele>1448.0</ele>
        <time>2021-10-11T10:45:12Z</time>
      </trkpt>
      <trkpt lat="42.8772510" lon="-5.9554120">
        <ele>1448.6</ele>
        <time>2021-10-11T10:45:16Z</time>
      </trkpt>
      <trkpt lat="42.8772370" lon="-5.9553920">
        <ele>1449.2</ele>
        <time>2021-10-11T10:45:18Z</time>
      </trkpt>
      <trkpt lat="42.8772260" lon="-5.9553830">
        <ele>1449.2</ele>
        <time>2021-10-11T10:45:19Z</time>
      </trkpt>
      <trkpt lat="42.8771960" lon="-5.9553490">
        <ele>1449.8</ele>
        <time>2021-10-11T10:45:22Z</time>
      </trkpt>
      <trkpt lat="42.8771730" lon="-5.9553190">
        <ele>1450.2</ele>
        <time>2021-10-11T10:45:24Z</time>
      </trkpt>
      <trkpt lat="42.8771620" lon="-5.9553080">
        <ele>1450.2</ele>
        <time>2021-10-11T10:45:25Z</time>
      </trkpt>
      <trkpt lat="42.8771480" lon="-5.9552870">
        <ele>1450.4</ele>
        <time>2021-10-11T10:45:27Z</time>
      </trkpt>
      <trkpt lat="42.8771320" lon="-5.9552620">
        <ele>1450.4</ele>
        <time>2021-10-11T10:45:29Z</time>
      </trkpt>
      <trkpt lat="42.8770810" lon="-5.9552180">
        <ele>1450.8</ele>
        <time>2021-10-11T10:45:33Z</time>
      </trkpt>
      <trkpt lat="42.8770680" lon="-5.9552080">
        <ele>1450.8</ele>
        <time>2021-10-11T10:45:34Z</time>
      </trkpt>
      <trkpt lat="42.8770560" lon="-5.9551950">
        <ele>1450.8</ele>
        <time>2021-10-11T10:45:35Z</time>
      </trkpt>
      <trkpt lat="42.8770260" lon="-5.9551540">
        <ele>1451.0</ele>
        <time>2021-10-11T10:45:38Z</time>
      </trkpt>
      <trkpt lat="42.8769750" lon="-5.9550710">
        <ele>1451.4</ele>
        <time>2021-10-11T10:45:44Z</time>
      </trkpt>
      <trkpt lat="42.8769230" lon="-5.9549970">
        <ele>1451.8</ele>
        <time>2021-10-11T10:45:50Z</time>
      </trkpt>
      <trkpt lat="42.8769200" lon="-5.9549910">
        <ele>1452.0</ele>
        <time>2021-10-11T10:45:51Z</time>
      </trkpt>
      <trkpt lat="42.8769200" lon="-5.9549910">
        <ele>1452.0</ele>
        <time>2021-10-11T10:45:52Z</time>
      </trkpt>
      <trkpt lat="42.8763700" lon="-5.9539000">
        <ele>1469.2</ele>
        <time>2021-10-11T10:52:20Z</time>
      </trkpt>
      <trkpt lat="42.8763700" lon="-5.9538890">
        <ele>1469.4</ele>
        <time>2021-10-11T10:52:21Z</time>
      </trkpt>
      <trkpt lat="42.8763650" lon="-5.9538530">
        <ele>1469.6</ele>
        <time>2021-10-11T10:52:24Z</time>
      </trkpt>
      <trkpt lat="42.8763630" lon="-5.9538410">
        <ele>1469.6</ele>
        <time>2021-10-11T10:52:25Z</time>
      </trkpt>
      <trkpt lat="42.8763470" lon="-5.9537740">
        <ele>1470.2</ele>
        <time>2021-10-11T10:52:31Z</time>
      </trkpt>
      <trkpt lat="42.8763380" lon="-5.9537310">
        <ele>1470.6</ele>
        <time>2021-10-11T10:52:35Z</time>
      </trkpt>
      <trkpt lat="42.8763340" lon="-5.9537090">
        <ele>1470.8</ele>
        <time>2021-10-11T10:52:37Z</time>
      </trkpt>
      <trkpt lat="42.8763280" lon="-5.9536600">
        <ele>1471.2</ele>
        <time>2021-10-11T10:52:41Z</time>
      </trkpt>
      <trkpt lat="42.8763260" lon="-5.9536480">
        <ele>1471.4</ele>
        <time>2021-10-11T10:52:42Z</time>
      </trkpt>
      <trkpt lat="42.8763160" lon="-5.9536120">
        <ele>1471.4</ele>
        <time>2021-10-11T10:52:45Z</time>
      </trkpt>
      <trkpt lat="42.8762800" lon="-5.9535370">
        <ele>1472.4</ele>
        <time>2021-10-11T10:52:53Z</time>
      </trkpt>
      <trkpt lat="42.8762730" lon="-5.9535270">
        <ele>1472.6</ele>
        <time>2021-10-11T10:52:54Z</time>
      </trkpt>
      <trkpt lat="42.8762420" lon="-5.9534760">
        <ele>1473.6</ele>
        <time>2021-10-11T10:53:01Z</time>
      </trkpt>
      <trkpt lat="42.8762360" lon="-5.9534630">
        <ele>1473.8</ele>
        <time>2021-10-11T10:53:03Z</time>
      </trkpt>
      <trkpt lat="42.8762150" lon="-5.9534150">
        <ele>1474.6</ele>
        <time>2021-10-11T10:53:09Z</time>
      </trkpt>
      <trkpt lat="42.8762010" lon="-5.9533850">
        <ele>1475.0</ele>
        <time>2021-10-11T10:53:12Z</time>
      </trkpt>
      <trkpt lat="42.8761840" lon="-5.9533410">
        <ele>1475.6</ele>
        <time>2021-10-11T10:53:17Z</time>
      </trkpt>
      <trkpt lat="42.8761770" lon="-5.9533210">
        <ele>1476.0</ele>
        <time>2021-10-11T10:53:19Z</time>
      </trkpt>
      <trkpt lat="42.8761680" lon="-5.9532900">
        <ele>1476.4</ele>
        <time>2021-10-11T10:53:22Z</time>
      </trkpt>
      <trkpt lat="42.8761620" lon="-5.9532700">
        <ele>1476.6</ele>
        <time>2021-10-11T10:53:24Z</time>
      </trkpt>
      <trkpt lat="42.8761570" lon="-5.9532150">
        <ele>1477.6</ele>
        <time>2021-10-11T10:53:31Z</time>
      </trkpt>
      <trkpt lat="42.8761570" lon="-5.9532150">
        <ele>1477.6</ele>
        <time>2021-10-11T10:53:32Z</time>
      </trkpt>
      <trkpt lat="42.8761340" lon="-5.9531350">
        <ele>1478.2</ele>
        <time>2021-10-11T10:53:41Z</time>
      </trkpt>
      <trkpt lat="42.8761230" lon="-5.9530890">
        <ele>1478.6</ele>
        <time>2021-10-11T10:53:45Z</time>
      </trkpt>
      <trkpt lat="42.8761210" lon="-5.9530810">
        <ele>1478.8</ele>
        <time>2021-10-11T10:53:46Z</time>
      </trkpt>
      <trkpt lat="42.8761090" lon="-5.9530160">
        <ele>1479.2</ele>
        <time>2021-10-11T10:53:52Z</time>
      </trkpt>
      <trkpt lat="42.8760980" lon="-5.9529910">
        <ele>1479.8</ele>
        <time>2021-10-11T10:53:55Z</time>
      </trkpt>
      <trkpt lat="42.8760770" lon="-5.9529330">
        <ele>1480.6</ele>
        <time>2021-10-11T10:54:01Z</time>
      </trkpt>
      <trkpt lat="42.8760700" lon="-5.9529100">
        <ele>1480.8</ele>
        <time>2021-10-11T10:54:03Z</time>
      </trkpt>
      <trkpt lat="42.8760530" lon="-5.9528420">
        <ele>1482.0</ele>
        <time>2021-10-11T10:54:10Z</time>
      </trkpt>
      <trkpt lat="42.8760510" lon="-5.9528300">
        <ele>1482.2</ele>
        <time>2021-10-11T10:54:11Z</time>
      </trkpt>
      <trkpt lat="42.8760460" lon="-5.9527880">
        <ele>1482.6</ele>
        <time>2021-10-11T10:54:16Z</time>
      </trkpt>
      <trkpt lat="42.8760420" lon="-5.9527700">
        <ele>1483.0</ele>
        <time>2021-10-11T10:54:18Z</time>
      </trkpt>
      <trkpt lat="42.8760350" lon="-5.9527370">
        <ele>1483.4</ele>
        <time>2021-10-11T10:54:21Z</time>
      </trkpt>
      <trkpt lat="42.8760130" lon="-5.9526720">
        <ele>1484.0</ele>
        <time>2021-10-11T10:54:27Z</time>
      </trkpt>
      <trkpt lat="42.8760060" lon="-5.9526480">
        <ele>1484.4</ele>
        <time>2021-10-11T10:54:30Z</time>
      </trkpt>
      <trkpt lat="42.8759900" lon="-5.9526140">
        <ele>1485.2</ele>
        <time>2021-10-11T10:54:35Z</time>
      </trkpt>
      <trkpt lat="42.8759730" lon="-5.9525750">
        <ele>1485.4</ele>
        <time>2021-10-11T10:54:39Z</time>
      </trkpt>
      <trkpt lat="42.8759560" lon="-5.9525070">
        <ele>1486.2</ele>
        <time>2021-10-11T10:54:46Z</time>
      </trkpt>
      <trkpt lat="42.8759500" lon="-5.9524920">
        <ele>1486.4</ele>
        <time>2021-10-11T10:54:48Z</time>
      </trkpt>
      <trkpt lat="42.8759280" lon="-5.9524320">
        <ele>1487.2</ele>
        <time>2021-10-11T10:54:54Z</time>
      </trkpt>
      <trkpt lat="42.8759140" lon="-5.9523980">
        <ele>1487.8</ele>
        <time>2021-10-11T10:54:58Z</time>
      </trkpt>
      <trkpt lat="42.8759060" lon="-5.9523590">
        <ele>1488.4</ele>
        <time>2021-10-11T10:55:02Z</time>
      </trkpt>
      <trkpt lat="42.8758940" lon="-5.9523040">
        <ele>1489.2</ele>
        <time>2021-10-11T10:55:09Z</time>
      </trkpt>
      <trkpt lat="42.8758970" lon="-5.9522860">
        <ele>1489.6</ele>
        <time>2021-10-11T10:55:11Z</time>
      </trkpt>
      <trkpt lat="42.8758870" lon="-5.9521960">
        <ele>1490.4</ele>
        <time>2021-10-11T10:55:18Z</time>
      </trkpt>
      <trkpt lat="42.8758880" lon="-5.9521840">
        <ele>1490.6</ele>
        <time>2021-10-11T10:55:19Z</time>
      </trkpt>
      <trkpt lat="42.8758860" lon="-5.9521110">
        <ele>1491.0</ele>
        <time>2021-10-11T10:55:25Z</time>
      </trkpt>
      <trkpt lat="42.8758840" lon="-5.9520900">
        <ele>1491.2</ele>
        <time>2021-10-11T10:55:27Z</time>
      </trkpt>
      <trkpt lat="42.8758770" lon="-5.9520570">
        <ele>1491.6</ele>
        <time>2021-10-11T10:55:30Z</time>
      </trkpt>
      <trkpt lat="42.8758760" lon="-5.9520180">
        <ele>1492.2</ele>
        <time>2021-10-11T10:55:35Z</time>
      </trkpt>
      <trkpt lat="42.8758680" lon="-5.9519730">
        <ele>1492.8</ele>
        <time>2021-10-11T10:55:39Z</time>
      </trkpt>
      <trkpt lat="42.8758640" lon="-5.9519080">
        <ele>1493.2</ele>
        <time>2021-10-11T10:55:45Z</time>
      </trkpt>
      <trkpt lat="42.8758660" lon="-5.9518800">
        <ele>1493.8</ele>
        <time>2021-10-11T10:55:50Z</time>
      </trkpt>
      <trkpt lat="42.8757380" lon="-5.9512340">
        <ele>1499.6</ele>
        <time>2021-10-11T10:57:06Z</time>
      </trkpt>
      <trkpt lat="42.8757340" lon="-5.9512180">
        <ele>1499.6</ele>
        <time>2021-10-11T10:57:07Z</time>
      </trkpt>
      <trkpt lat="42.8757340" lon="-5.9512030">
        <ele>1499.6</ele>
        <time>2021-10-11T10:57:08Z</time>
      </trkpt>
      <trkpt lat="42.8757330" lon="-5.9511870">
        <ele>1499.6</ele>
        <time>2021-10-11T10:57:09Z</time>
      </trkpt>
      <trkpt lat="42.8757170" lon="-5.9511510">
        <ele>1499.6</ele>
        <time>2021-10-11T10:57:11Z</time>
      </trkpt>
      <trkpt lat="42.8757120" lon="-5.9511350">
        <ele>1499.6</ele>
        <time>2021-10-11T10:57:12Z</time>
      </trkpt>
      <trkpt lat="42.8756800" lon="-5.9510540">
        <ele>1500.0</ele>
        <time>2021-10-11T10:57:17Z</time>
      </trkpt>
      <trkpt lat="42.8756590" lon="-5.9509880">
        <ele>1500.6</ele>
        <time>2021-10-11T10:57:21Z</time>
      </trkpt>
      <trkpt lat="42.8756560" lon="-5.9509400">
        <ele>1501.0</ele>
        <time>2021-10-11T10:57:24Z</time>
      </trkpt>
      <trkpt lat="42.8756280" lon="-5.9508580">
        <ele>1501.6</ele>
        <time>2021-10-11T10:57:30Z</time>
      </trkpt>
      <trkpt lat="42.8756260" lon="-5.9508410">
        <ele>1501.6</ele>
        <time>2021-10-11T10:57:31Z</time>
      </trkpt>
      <trkpt lat="42.8755910" lon="-5.9507120">
        <ele>1502.6</ele>
        <time>2021-10-11T10:57:39Z</time>
      </trkpt>
      <trkpt lat="42.8755850" lon="-5.9506940">
        <ele>1502.8</ele>
        <time>2021-10-11T10:57:40Z</time>
      </trkpt>
      <trkpt lat="42.8755350" lon="-5.9506360">
        <ele>1503.6</ele>
        <time>2021-10-11T10:57:45Z</time>
      </trkpt>
      <trkpt lat="42.8755180" lon="-5.9506170">
        <ele>1503.8</ele>
        <time>2021-10-11T10:57:47Z</time>
      </trkpt>
      <trkpt lat="42.8754930" lon="-5.9505860">
        <ele>1504.6</ele>
        <time>2021-10-11T10:57:52Z</time>
      </trkpt>
      <trkpt lat="42.8754260" lon="-5.9492850">
        <ele>1514.6</ele>
        <time>2021-10-11T10:59:34Z</time>
      </trkpt>
      <trkpt lat="42.8754290" lon="-5.9492660">
        <ele>1514.6</ele>
        <time>2021-10-11T10:59:35Z</time>
      </trkpt>
      <trkpt lat="42.8754240" lon="-5.9492230">
        <ele>1514.6</ele>
        <time>2021-10-11T10:59:37Z</time>
      </trkpt>
      <trkpt lat="42.8754150" lon="-5.9491850">
        <ele>1514.8</ele>
        <time>2021-10-11T10:59:39Z</time>
      </trkpt>
      <trkpt lat="42.8754120" lon="-5.9491670">
        <ele>1514.8</ele>
        <time>2021-10-11T10:59:40Z</time>
      </trkpt>
      <trkpt lat="42.8754190" lon="-5.9489890">
        <ele>1514.8</ele>
        <time>2021-10-11T10:59:48Z</time>
      </trkpt>
      <trkpt lat="42.8754290" lon="-5.9488890">
        <ele>1515.8</ele>
        <time>2021-10-11T10:59:53Z</time>
      </trkpt>
      <trkpt lat="42.8754320" lon="-5.9488670">
        <ele>1515.8</ele>
        <time>2021-10-11T10:59:54Z</time>
      </trkpt>
      <trkpt lat="42.8754590" lon="-5.9488060">
        <ele>1516.0</ele>
        <time>2021-10-11T10:59:57Z</time>
      </trkpt>
      <trkpt lat="42.8755200" lon="-5.9486860">
        <ele>1516.2</ele>
        <time>2021-10-11T11:00:04Z</time>
      </trkpt>
      <trkpt lat="42.8755300" lon="-5.9486520">
        <ele>1516.8</ele>
        <time>2021-10-11T11:00:07Z</time>
      </trkpt>
      <trkpt lat="42.8755330" lon="-5.9486390">
        <ele>1516.8</ele>
        <time>2021-10-11T11:00:08Z</time>
      </trkpt>
      <trkpt lat="42.8755320" lon="-5.9486340">
        <ele>1516.8</ele>
        <time>2021-10-11T11:00:10Z</time>
      </trkpt>
      <trkpt lat="42.8754960" lon="-5.9484790">
        <ele>1517.8</ele>
        <time>2021-10-11T11:18:36Z</time>
      </trkpt>
      <trkpt lat="42.8754880" lon="-5.9484500">
        <ele>1517.8</ele>
        <time>2021-10-11T11:18:37Z</time>
      </trkpt>
      <trkpt lat="42.8754230" lon="-5.9482980">
        <ele>1517.2</ele>
        <time>2021-10-11T11:18:42Z</time>
      </trkpt>
      <trkpt lat="42.8753830" lon="-5.9482450">
        <ele>1516.8</ele>
        <time>2021-10-11T11:18:44Z</time>
      </trkpt>
      <trkpt lat="42.8752580" lon="-5.9480920">
        <ele>1515.8</ele>
        <time>2021-10-11T11:18:50Z</time>
      </trkpt>
      <trkpt lat="42.8752250" lon="-5.9480300">
        <ele>1515.6</ele>
        <time>2021-10-11T11:18:53Z</time>
      </trkpt>
      <trkpt lat="42.8752150" lon="-5.9480110">
        <ele>1515.4</ele>
        <time>2021-10-11T11:18:55Z</time>
      </trkpt>
      <trkpt lat="42.8752150" lon="-5.9480110">
        <ele>1515.2</ele>
        <time>2021-10-11T11:18:57Z</time>
      </trkpt>
      <trkpt lat="42.8751860" lon="-5.9479560">
        <ele>1514.6</ele>
        <time>2021-10-11T11:19:55Z</time>
      </trkpt>
      <trkpt lat="42.8751710" lon="-5.9479240">
        <ele>1514.6</ele>
        <time>2021-10-11T11:19:56Z</time>
      </trkpt>
      <trkpt lat="42.8750720" lon="-5.9476960">
        <ele>1514.2</ele>
        <time>2021-10-11T11:20:01Z</time>
      </trkpt>
      <trkpt lat="42.8750010" lon="-5.9474610">
        <ele>1513.2</ele>
        <time>2021-10-11T11:20:05Z</time>
      </trkpt>
      <trkpt lat="42.8749860" lon="-5.9474030">
        <ele>1513.2</ele>
        <time>2021-10-11T11:20:06Z</time>
      </trkpt>
      <trkpt lat="42.8749760" lon="-5.9473490">
        <ele>1512.6</ele>
        <time>2021-10-11T11:20:07Z</time>
      </trkpt>
      <trkpt lat="42.8749610" lon="-5.9472940">
        <ele>1512.4</ele>
        <time>2021-10-11T11:20:08Z</time>
      </trkpt>
      <trkpt lat="42.8749390" lon="-5.9472390">
        <ele>1511.8</ele>
        <time>2021-10-11T11:20:09Z</time>
      </trkpt>
      <trkpt lat="42.8749170" lon="-5.9471760">
        <ele>1511.2</ele>
        <time>2021-10-11T11:20:10Z</time>
      </trkpt>
      <trkpt lat="42.8748980" lon="-5.9471060">
        <ele>1510.8</ele>
        <time>2021-10-11T11:20:11Z</time>
      </trkpt>
      <trkpt lat="42.8748810" lon="-5.9470340">
        <ele>1510.4</ele>
        <time>2021-10-11T11:20:12Z</time>
      </trkpt>
      <trkpt lat="42.8748410" lon="-5.9468270">
        <ele>1509.2</ele>
        <time>2021-10-11T11:20:15Z</time>
      </trkpt>
      <trkpt lat="42.8748320" lon="-5.9467690">
        <ele>1508.6</ele>
        <time>2021-10-11T11:20:16Z</time>
      </trkpt>
      <trkpt lat="42.8748230" lon="-5.9467100">
        <ele>1508.0</ele>
        <time>2021-10-11T11:20:17Z</time>
      </trkpt>
      <trkpt lat="42.8748130" lon="-5.9466500">
        <ele>1507.4</ele>
        <time>2021-10-11T11:20:18Z</time>
      </trkpt>
      <trkpt lat="42.8747920" lon="-5.9465410">
        <ele>1506.6</ele>
        <time>2021-10-11T11:20:20Z</time>
      </trkpt>
      <trkpt lat="42.8747830" lon="-5.9464850">
        <ele>1506.4</ele>
        <time>2021-10-11T11:20:21Z</time>
      </trkpt>
      <trkpt lat="42.8747620" lon="-5.9463120">
        <ele>1505.8</ele>
        <time>2021-10-11T11:20:24Z</time>
      </trkpt>
      <trkpt lat="42.8747580" lon="-5.9462550">
        <ele>1505.4</ele>
        <time>2021-10-11T11:20:25Z</time>
      </trkpt>
      <trkpt lat="42.8747430" lon="-5.9461400">
        <ele>1504.6</ele>
        <time>2021-10-11T11:20:27Z</time>
      </trkpt>
      <trkpt lat="42.8747320" lon="-5.9460830">
        <ele>1504.6</ele>
        <time>2021-10-11T11:20:28Z</time>
      </trkpt>
      <trkpt lat="42.8747220" lon="-5.9460370">
        <ele>1504.2</ele>
        <time>2021-10-11T11:20:29Z</time>
      </trkpt>
      <trkpt lat="42.8746750" lon="-5.9458620">
        <ele>1503.4</ele>
        <time>2021-10-11T11:20:33Z</time>
      </trkpt>
      <trkpt lat="42.8746630" lon="-5.9458320">
        <ele>1503.2</ele>
        <time>2021-10-11T11:20:34Z</time>
      </trkpt>
      <trkpt lat="42.8746320" lon="-5.9457730">
        <ele>1502.8</ele>
        <time>2021-10-11T11:20:36Z</time>
      </trkpt>
      <trkpt lat="42.8746170" lon="-5.9457100">
        <ele>1502.6</ele>
        <time>2021-10-11T11:20:38Z</time>
      </trkpt>
      <trkpt lat="42.8746120" lon="-5.9456760">
        <ele>1502.4</ele>
        <time>2021-10-11T11:20:39Z</time>
      </trkpt>
      <trkpt lat="42.8746070" lon="-5.9455970">
        <ele>1502.0</ele>
        <time>2021-10-11T11:20:41Z</time>
      </trkpt>
      <trkpt lat="42.8745910" lon="-5.9454570">
        <ele>1501.6</ele>
        <time>2021-10-11T11:20:44Z</time>
      </trkpt>
      <trkpt lat="42.8745820" lon="-5.9453480">
        <ele>1501.2</ele>
        <time>2021-10-11T11:20:46Z</time>
      </trkpt>
      <trkpt lat="42.8745570" lon="-5.9451700">
        <ele>1501.0</ele>
        <time>2021-10-11T11:20:49Z</time>
      </trkpt>
      <trkpt lat="42.8745480" lon="-5.9451080">
        <ele>1500.8</ele>
        <time>2021-10-11T11:20:50Z</time>
      </trkpt>
      <trkpt lat="42.8745240" lon="-5.9449200">
        <ele>1500.0</ele>
        <time>2021-10-11T11:20:53Z</time>
      </trkpt>
      <trkpt lat="42.8745160" lon="-5.9448560">
        <ele>1499.6</ele>
        <time>2021-10-11T11:20:54Z</time>
      </trkpt>
      <trkpt lat="42.8745080" lon="-5.9447940">
        <ele>1499.4</ele>
        <time>2021-10-11T11:20:55Z</time>
      </trkpt>
      <trkpt lat="42.8745000" lon="-5.9447360">
        <ele>1498.6</ele>
        <time>2021-10-11T11:20:56Z</time>
      </trkpt>
      <trkpt lat="42.8744870" lon="-5.9446310">
        <ele>1498.0</ele>
        <time>2021-10-11T11:20:58Z</time>
      </trkpt>
      <trkpt lat="42.8744740" lon="-5.9443940">
        <ele>1497.6</ele>
        <time>2021-10-11T11:21:02Z</time>
      </trkpt>
      <trkpt lat="42.8744510" lon="-5.9438400">
        <ele>1496.4</ele>
        <time>2021-10-11T11:21:11Z</time>
      </trkpt>
      <trkpt lat="42.8744490" lon="-5.9437800">
        <ele>1496.4</ele>
        <time>2021-10-11T11:21:12Z</time>
      </trkpt>
      <trkpt lat="42.8744460" lon="-5.9436600">
        <ele>1496.0</ele>
        <time>2021-10-11T11:21:14Z</time>
      </trkpt>
      <trkpt lat="42.8744390" lon="-5.9435600">
        <ele>1495.4</ele>
        <time>2021-10-11T11:21:16Z</time>
      </trkpt>
      <trkpt lat="42.8744260" lon="-5.9434300">
        <ele>1494.8</ele>
        <time>2021-10-11T11:21:18Z</time>
      </trkpt>
      <trkpt lat="42.8744050" lon="-5.9431900">
        <ele>1494.0</ele>
        <time>2021-10-11T11:21:22Z</time>
      </trkpt>
      <trkpt lat="42.8743850" lon="-5.9430680">
        <ele>1493.4</ele>
        <time>2021-10-11T11:21:24Z</time>
      </trkpt>
      <trkpt lat="42.8743640" lon="-5.9429760">
        <ele>1493.0</ele>
        <time>2021-10-11T11:21:26Z</time>
      </trkpt>
      <trkpt lat="42.8743480" lon="-5.9428760">
        <ele>1493.0</ele>
        <time>2021-10-11T11:21:28Z</time>
      </trkpt>
      <trkpt lat="42.8743440" lon="-5.9428320">
        <ele>1492.8</ele>
        <time>2021-10-11T11:21:29Z</time>
      </trkpt>
      <trkpt lat="42.8743360" lon="-5.9424690">
        <ele>1491.8</ele>
        <time>2021-10-11T11:21:36Z</time>
      </trkpt>
      <trkpt lat="42.8743060" lon="-5.9423220">
        <ele>1490.8</ele>
        <time>2021-10-11T11:21:39Z</time>
      </trkpt>
      <trkpt lat="42.8742790" lon="-5.9422320">
        <ele>1490.0</ele>
        <time>2021-10-11T11:21:41Z</time>
      </trkpt>
      <trkpt lat="42.8742650" lon="-5.9421780">
        <ele>1489.6</ele>
        <time>2021-10-11T11:21:42Z</time>
      </trkpt>
      <trkpt lat="42.8742560" lon="-5.9421070">
        <ele>1489.2</ele>
        <time>2021-10-11T11:21:43Z</time>
      </trkpt>
      <trkpt lat="42.8742520" lon="-5.9419980">
        <ele>1488.4</ele>
        <time>2021-10-11T11:21:45Z</time>
      </trkpt>
      <trkpt lat="42.8742350" lon="-5.9417990">
        <ele>1487.8</ele>
        <time>2021-10-11T11:21:48Z</time>
      </trkpt>
      <trkpt lat="42.8742250" lon="-5.9417410">
        <ele>1487.6</ele>
        <time>2021-10-11T11:21:49Z</time>
      </trkpt>
      <trkpt lat="42.8742140" lon="-5.9416220">
        <ele>1487.4</ele>
        <time>2021-10-11T11:21:51Z</time>
      </trkpt>
      <trkpt lat="42.8741980" lon="-5.9415030">
        <ele>1487.2</ele>
        <time>2021-10-11T11:21:53Z</time>
      </trkpt>
      <trkpt lat="42.8741730" lon="-5.9413920">
        <ele>1486.8</ele>
        <time>2021-10-11T11:21:55Z</time>
      </trkpt>
      <trkpt lat="42.8741620" lon="-5.9413540">
        <ele>1486.6</ele>
        <time>2021-10-11T11:21:56Z</time>
      </trkpt>
      <trkpt lat="42.8741530" lon="-5.9412550">
        <ele>1486.2</ele>
        <time>2021-10-11T11:21:58Z</time>
      </trkpt>
      <trkpt lat="42.8741470" lon="-5.9411120">
        <ele>1486.0</ele>
        <time>2021-10-11T11:22:01Z</time>
      </trkpt>
      <trkpt lat="42.8741410" lon="-5.9410630">
        <ele>1485.6</ele>
        <time>2021-10-11T11:22:02Z</time>
      </trkpt>
      <trkpt lat="42.8741330" lon="-5.9409320">
        <ele>1485.4</ele>
        <time>2021-10-11T11:22:05Z</time>
      </trkpt>
      <trkpt lat="42.8741250" lon="-5.9408200">
        <ele>1484.8</ele>
        <time>2021-10-11T11:22:07Z</time>
      </trkpt>
      <trkpt lat="42.8741260" lon="-5.9407260">
        <ele>1484.2</ele>
        <time>2021-10-11T11:22:09Z</time>
      </trkpt>
      <trkpt lat="42.8741280" lon="-5.9406730">
        <ele>1484.2</ele>
        <time>2021-10-11T11:22:10Z</time>
      </trkpt>
      <trkpt lat="42.8741320" lon="-5.9405540">
        <ele>1483.8</ele>
        <time>2021-10-11T11:22:12Z</time>
      </trkpt>
      <trkpt lat="42.8741330" lon="-5.9405030">
        <ele>1483.8</ele>
        <time>2021-10-11T11:22:13Z</time>
      </trkpt>
      <trkpt lat="42.8741180" lon="-5.9402620">
        <ele>1482.4</ele>
        <time>2021-10-11T11:22:18Z</time>
      </trkpt>
      <trkpt lat="42.8741160" lon="-5.9401010">
        <ele>1481.6</ele>
        <time>2021-10-11T11:22:21Z</time>
      </trkpt>
      <trkpt lat="42.8741170" lon="-5.9400400">
        <ele>1481.2</ele>
        <time>2021-10-11T11:22:22Z</time>
      </trkpt>
      <trkpt lat="42.8741170" lon="-5.9399920">
        <ele>1481.0</ele>
        <time>2021-10-11T11:22:23Z</time>
      </trkpt>
      <trkpt lat="42.8740990" lon="-5.9398540">
        <ele>1480.2</ele>
        <time>2021-10-11T11:22:25Z</time>
      </trkpt>
      <trkpt lat="42.8740850" lon="-5.9398030">
        <ele>1479.8</ele>
        <time>2021-10-11T11:22:26Z</time>
      </trkpt>
      <trkpt lat="42.8740450" lon="-5.9396860">
        <ele>1479.0</ele>
        <time>2021-10-11T11:22:28Z</time>
      </trkpt>
      <trkpt lat="42.8740240" lon="-5.9396230">
        <ele>1478.6</ele>
        <time>2021-10-11T11:22:29Z</time>
      </trkpt>
      <trkpt lat="42.8739890" lon="-5.9394800">
        <ele>1478.0</ele>
        <time>2021-10-11T11:22:31Z</time>
      </trkpt>
      <trkpt lat="42.8739710" lon="-5.9394170">
        <ele>1478.0</ele>
        <time>2021-10-11T11:22:32Z</time>
      </trkpt>
      <trkpt lat="42.8739450" lon="-5.9393060">
        <ele>1477.0</ele>
        <time>2021-10-11T11:22:34Z</time>
      </trkpt>
      <trkpt lat="42.8739350" lon="-5.9392460">
        <ele>1477.0</ele>
        <time>2021-10-11T11:22:35Z</time>
      </trkpt>
      <trkpt lat="42.8739170" lon="-5.9391160">
        <ele>1476.2</ele>
        <time>2021-10-11T11:22:37Z</time>
      </trkpt>
      <trkpt lat="42.8739090" lon="-5.9390670">
        <ele>1475.8</ele>
        <time>2021-10-11T11:22:38Z</time>
      </trkpt>
      <trkpt lat="42.8738920" lon="-5.9389470">
        <ele>1475.2</ele>
        <time>2021-10-11T11:22:40Z</time>
      </trkpt>
      <trkpt lat="42.8738730" lon="-5.9388310">
        <ele>1474.6</ele>
        <time>2021-10-11T11:22:42Z</time>
      </trkpt>
      <trkpt lat="42.8738450" lon="-5.9387190">
        <ele>1474.2</ele>
        <time>2021-10-11T11:22:44Z</time>
      </trkpt>
      <trkpt lat="42.8737940" lon="-5.9384980">
        <ele>1473.8</ele>
        <time>2021-10-11T11:22:48Z</time>
      </trkpt>
      <trkpt lat="42.8737640" lon="-5.9383860">
        <ele>1473.8</ele>
        <time>2021-10-11T11:22:50Z</time>
      </trkpt>
      <trkpt lat="42.8737370" lon="-5.9382830">
        <ele>1473.8</ele>
        <time>2021-10-11T11:22:52Z</time>
      </trkpt>
      <trkpt lat="42.8737250" lon="-5.9382340">
        <ele>1473.4</ele>
        <time>2021-10-11T11:22:53Z</time>
      </trkpt>
      <trkpt lat="42.8737150" lon="-5.9381850">
        <ele>1473.4</ele>
        <time>2021-10-11T11:22:54Z</time>
      </trkpt>
      <trkpt lat="42.8736910" lon="-5.9380320">
        <ele>1472.4</ele>
        <time>2021-10-11T11:22:57Z</time>
      </trkpt>
      <trkpt lat="42.8736710" lon="-5.9379170">
        <ele>1471.8</ele>
        <time>2021-10-11T11:22:59Z</time>
      </trkpt>
      <trkpt lat="42.8736020" lon="-5.9376670">
        <ele>1471.4</ele>
        <time>2021-10-11T11:23:03Z</time>
      </trkpt>
      <trkpt lat="42.8735850" lon="-5.9376210">
        <ele>1471.2</ele>
        <time>2021-10-11T11:23:04Z</time>
      </trkpt>
      <trkpt lat="42.8735350" lon="-5.9374940">
        <ele>1470.4</ele>
        <time>2021-10-11T11:23:06Z</time>
      </trkpt>
      <trkpt lat="42.8735080" lon="-5.9374370">
        <ele>1470.0</ele>
        <time>2021-10-11T11:23:07Z</time>
      </trkpt>
      <trkpt lat="42.8734540" lon="-5.9373260">
        <ele>1469.0</ele>
        <time>2021-10-11T11:23:09Z</time>
      </trkpt>
      <trkpt lat="42.8734170" lon="-5.9372140">
        <ele>1467.8</ele>
        <time>2021-10-11T11:23:11Z</time>
      </trkpt>
      <trkpt lat="42.8734080" lon="-5.9371570">
        <ele>1467.6</ele>
        <time>2021-10-11T11:23:12Z</time>
      </trkpt>
      <trkpt lat="42.8734040" lon="-5.9370970">
        <ele>1467.2</ele>
        <time>2021-10-11T11:23:13Z</time>
      </trkpt>
      <trkpt lat="42.8734010" lon="-5.9369560">
        <ele>1466.6</ele>
        <time>2021-10-11T11:23:16Z</time>
      </trkpt>
      <trkpt lat="42.8734000" lon="-5.9369120">
        <ele>1465.6</ele>
        <time>2021-10-11T11:23:20Z</time>
      </trkpt>
      <trkpt lat="42.8734000" lon="-5.9368410">
        <ele>1465.0</ele>
        <time>2021-10-11T11:23:30Z</time>
      </trkpt>
      <trkpt lat="42.8734190" lon="-5.9367840">
        <ele>1465.0</ele>
        <time>2021-10-11T11:23:32Z</time>
      </trkpt>
      <trkpt lat="42.8734320" lon="-5.9367210">
        <ele>1464.8</ele>
        <time>2021-10-11T11:23:34Z</time>
      </trkpt>
      <trkpt lat="42.8734770" lon="-5.9365480">
        <ele>1464.6</ele>
        <time>2021-10-11T11:23:38Z</time>
      </trkpt>
      <trkpt lat="42.8734980" lon="-5.9363730">
        <ele>1463.8</ele>
        <time>2021-10-11T11:23:43Z</time>
      </trkpt>
      <trkpt lat="42.8735120" lon="-5.9361910">
        <ele>1463.6</ele>
        <time>2021-10-11T11:23:48Z</time>
      </trkpt>
      <trkpt lat="42.8735060" lon="-5.9361550">
        <ele>1463.6</ele>
        <time>2021-10-11T11:23:49Z</time>
      </trkpt>
      <trkpt lat="42.8735010" lon="-5.9361190">
        <ele>1463.4</ele>
        <time>2021-10-11T11:23:50Z</time>
      </trkpt>
      <trkpt lat="42.8734930" lon="-5.9360630">
        <ele>1463.0</ele>
        <time>2021-10-11T11:23:52Z</time>
      </trkpt>
      <trkpt lat="42.8734910" lon="-5.9360550">
        <ele>1462.8</ele>
        <time>2021-10-11T11:23:54Z</time>
      </trkpt>
      <trkpt lat="42.8734800" lon="-5.9360100">
        <ele>1462.6</ele>
        <time>2021-10-11T11:24:06Z</time>
      </trkpt>
      <trkpt lat="42.8734730" lon="-5.9359730">
        <ele>1462.6</ele>
        <time>2021-10-11T11:24:07Z</time>
      </trkpt>
      <trkpt lat="42.8734690" lon="-5.9359340">
        <ele>1462.6</ele>
        <time>2021-10-11T11:24:08Z</time>
      </trkpt>
      <trkpt lat="42.8734740" lon="-5.9357490">
        <ele>1462.8</ele>
        <time>2021-10-11T11:24:13Z</time>
      </trkpt>
      <trkpt lat="42.8734820" lon="-5.9356200">
        <ele>1462.6</ele>
        <time>2021-10-11T11:24:17Z</time>
      </trkpt>
      <trkpt lat="42.8734900" lon="-5.9355420">
        <ele>1462.2</ele>
        <time>2021-10-11T11:24:19Z</time>
      </trkpt>
      <trkpt lat="42.8734950" lon="-5.9354990">
        <ele>1462.0</ele>
        <time>2021-10-11T11:24:20Z</time>
      </trkpt>
      <trkpt lat="42.8735170" lon="-5.9354120">
        <ele>1461.8</ele>
        <time>2021-10-11T11:24:22Z</time>
      </trkpt>
      <trkpt lat="42.8735580" lon="-5.9352890">
        <ele>1461.8</ele>
        <time>2021-10-11T11:24:25Z</time>
      </trkpt>
      <trkpt lat="42.8735920" lon="-5.9351810">
        <ele>1461.8</ele>
        <time>2021-10-11T11:24:28Z</time>
      </trkpt>
      <trkpt lat="42.8736140" lon="-5.9349850">
        <ele>1461.4</ele>
        <time>2021-10-11T11:24:33Z</time>
      </trkpt>
      <trkpt lat="42.8735750" lon="-5.9346990">
        <ele>1461.6</ele>
        <time>2021-10-11T11:24:41Z</time>
      </trkpt>
      <trkpt lat="42.8735290" lon="-5.9343650">
        <ele>1462.2</ele>
        <time>2021-10-11T11:24:49Z</time>
      </trkpt>
      <trkpt lat="42.8735120" lon="-5.9341350">
        <ele>1462.2</ele>
        <time>2021-10-11T11:24:54Z</time>
      </trkpt>
      <trkpt lat="42.8735060" lon="-5.9340390">
        <ele>1462.2</ele>
        <time>2021-10-11T11:24:56Z</time>
      </trkpt>
      <trkpt lat="42.8735040" lon="-5.9339880">
        <ele>1462.2</ele>
        <time>2021-10-11T11:24:57Z</time>
      </trkpt>
      <trkpt lat="42.8734890" lon="-5.9337910">
        <ele>1462.0</ele>
        <time>2021-10-11T11:25:01Z</time>
      </trkpt>
      <trkpt lat="42.8734610" lon="-5.9337010">
        <ele>1462.0</ele>
        <time>2021-10-11T11:25:03Z</time>
      </trkpt>
      <trkpt lat="42.8734160" lon="-5.9334610">
        <ele>1461.4</ele>
        <time>2021-10-11T11:25:09Z</time>
      </trkpt>
      <trkpt lat="42.8733950" lon="-5.9333390">
        <ele>1460.4</ele>
        <time>2021-10-11T11:25:13Z</time>
      </trkpt>
      <trkpt lat="42.8733800" lon="-5.9332900">
        <ele>1460.4</ele>
        <time>2021-10-11T11:25:15Z</time>
      </trkpt>
      <trkpt lat="42.8732850" lon="-5.9331790">
        <ele>1460.4</ele>
        <time>2021-10-11T11:25:20Z</time>
      </trkpt>
      <trkpt lat="42.8732590" lon="-5.9331540">
        <ele>1460.2</ele>
        <time>2021-10-11T11:25:21Z</time>
      </trkpt>
      <trkpt lat="42.8732170" lon="-5.9331180">
        <ele>1460.2</ele>
        <time>2021-10-11T11:25:23Z</time>
      </trkpt>
      <trkpt lat="42.8731640" lon="-5.9330830">
        <ele>1460.2</ele>
        <time>2021-10-11T11:25:25Z</time>
      </trkpt>
      <trkpt lat="42.8731240" lon="-5.9330310">
        <ele>1460.2</ele>
        <time>2021-10-11T11:25:27Z</time>
      </trkpt>
      <trkpt lat="42.8731070" lon="-5.9330020">
        <ele>1460.0</ele>
        <time>2021-10-11T11:25:28Z</time>
      </trkpt>
      <trkpt lat="42.8730840" lon="-5.9329530">
        <ele>1460.0</ele>
        <time>2021-10-11T11:25:30Z</time>
      </trkpt>
      <trkpt lat="42.8730470" lon="-5.9328870">
        <ele>1460.2</ele>
        <time>2021-10-11T11:25:33Z</time>
      </trkpt>
      <trkpt lat="42.8730270" lon="-5.9328510">
        <ele>1460.4</ele>
        <time>2021-10-11T11:25:35Z</time>
      </trkpt>
      <trkpt lat="42.8730090" lon="-5.9327990">
        <ele>1460.6</ele>
        <time>2021-10-11T11:25:41Z</time>
      </trkpt>
      <trkpt lat="42.8730060" lon="-5.9327460">
        <ele>1459.2</ele>
        <time>2021-10-11T11:26:17Z</time>
      </trkpt>
      <trkpt lat="42.8730040" lon="-5.9327190">
        <ele>1459.2</ele>
        <time>2021-10-11T11:26:18Z</time>
      </trkpt>
      <trkpt lat="42.8730070" lon="-5.9326940">
        <ele>1459.2</ele>
        <time>2021-10-11T11:26:19Z</time>
      </trkpt>
      <trkpt lat="42.8730080" lon="-5.9325890">
        <ele>1459.2</ele>
        <time>2021-10-11T11:26:23Z</time>
      </trkpt>
      <trkpt lat="42.8730110" lon="-5.9325340">
        <ele>1459.4</ele>
        <time>2021-10-11T11:26:25Z</time>
      </trkpt>
      <trkpt lat="42.8730190" lon="-5.9324150">
        <ele>1459.8</ele>
        <time>2021-10-11T11:26:30Z</time>
      </trkpt>
      <trkpt lat="42.8730220" lon="-5.9323900">
        <ele>1460.0</ele>
        <time>2021-10-11T11:26:31Z</time>
      </trkpt>
      <trkpt lat="42.8730240" lon="-5.9323650">
        <ele>1460.0</ele>
        <time>2021-10-11T11:26:32Z</time>
      </trkpt>
      <trkpt lat="42.8730270" lon="-5.9323390">
        <ele>1460.2</ele>
        <time>2021-10-11T11:26:33Z</time>
      </trkpt>
      <trkpt lat="42.8730320" lon="-5.9322880">
        <ele>1460.4</ele>
        <time>2021-10-11T11:26:35Z</time>
      </trkpt>
      <trkpt lat="42.8730310" lon="-5.9322600">
        <ele>1460.6</ele>
        <time>2021-10-11T11:26:36Z</time>
      </trkpt>
      <trkpt lat="42.8730370" lon="-5.9321850">
        <ele>1460.8</ele>
        <time>2021-10-11T11:26:39Z</time>
      </trkpt>
      <trkpt lat="42.8730410" lon="-5.9320900">
        <ele>1461.4</ele>
        <time>2021-10-11T11:26:43Z</time>
      </trkpt>
      <trkpt lat="42.8730510" lon="-5.9319290">
        <ele>1462.2</ele>
        <time>2021-10-11T11:26:50Z</time>
      </trkpt>
      <trkpt lat="42.8730530" lon="-5.9318860">
        <ele>1462.4</ele>
        <time>2021-10-11T11:26:52Z</time>
      </trkpt>
      <trkpt lat="42.8730600" lon="-5.9318400">
        <ele>1462.6</ele>
        <time>2021-10-11T11:26:54Z</time>
      </trkpt>
      <trkpt lat="42.8730670" lon="-5.9317690">
        <ele>1463.0</ele>
        <time>2021-10-11T11:26:57Z</time>
      </trkpt>
      <trkpt lat="42.8730700" lon="-5.9317240">
        <ele>1463.2</ele>
        <time>2021-10-11T11:26:59Z</time>
      </trkpt>
      <trkpt lat="42.8730700" lon="-5.9317050">
        <ele>1463.4</ele>
        <time>2021-10-11T11:27:00Z</time>
      </trkpt>
      <trkpt lat="42.8730750" lon="-5.9316620">
        <ele>1463.6</ele>
        <time>2021-10-11T11:27:02Z</time>
      </trkpt>
      <trkpt lat="42.8730730" lon="-5.9316390">
        <ele>1463.6</ele>
        <time>2021-10-11T11:27:03Z</time>
      </trkpt>
      <trkpt lat="42.8730760" lon="-5.9315920">
        <ele>1463.8</ele>
        <time>2021-10-11T11:27:05Z</time>
      </trkpt>
      <trkpt lat="42.8730810" lon="-5.9315430">
        <ele>1464.0</ele>
        <time>2021-10-11T11:27:07Z</time>
      </trkpt>
      <trkpt lat="42.8730870" lon="-5.9314950">
        <ele>1464.2</ele>
        <time>2021-10-11T11:27:09Z</time>
      </trkpt>
      <trkpt lat="42.8730930" lon="-5.9314290">
        <ele>1464.2</ele>
        <time>2021-10-11T11:27:12Z</time>
      </trkpt>
      <trkpt lat="42.8731060" lon="-5.9313240">
        <ele>1464.6</ele>
        <time>2021-10-11T11:27:17Z</time>
      </trkpt>
      <trkpt lat="42.8731080" lon="-5.9312820">
        <ele>1465.0</ele>
        <time>2021-10-11T11:27:19Z</time>
      </trkpt>
      <trkpt lat="42.8731170" lon="-5.9312230">
        <ele>1465.2</ele>
        <time>2021-10-11T11:27:22Z</time>
      </trkpt>
      <trkpt lat="42.8731200" lon="-5.9312010">
        <ele>1465.6</ele>
        <time>2021-10-11T11:27:23Z</time>
      </trkpt>
      <trkpt lat="42.8731250" lon="-5.9311570">
        <ele>1465.8</ele>
        <time>2021-10-11T11:27:25Z</time>
      </trkpt>
      <trkpt lat="42.8731320" lon="-5.9310960">
        <ele>1466.2</ele>
        <time>2021-10-11T11:27:28Z</time>
      </trkpt>
      <trkpt lat="42.8731340" lon="-5.9310750">
        <ele>1466.4</ele>
        <time>2021-10-11T11:27:29Z</time>
      </trkpt>
      <trkpt lat="42.8731460" lon="-5.9310380">
        <ele>1466.6</ele>
        <time>2021-10-11T11:27:31Z</time>
      </trkpt>
      <trkpt lat="42.8731630" lon="-5.9309470">
        <ele>1466.8</ele>
        <time>2021-10-11T11:27:35Z</time>
      </trkpt>
      <trkpt lat="42.8731690" lon="-5.9309250">
        <ele>1467.0</ele>
        <time>2021-10-11T11:27:36Z</time>
      </trkpt>
      <trkpt lat="42.8731790" lon="-5.9308820">
        <ele>1467.0</ele>
        <time>2021-10-11T11:27:38Z</time>
      </trkpt>
      <trkpt lat="42.8731820" lon="-5.9308580">
        <ele>1467.2</ele>
        <time>2021-10-11T11:27:39Z</time>
      </trkpt>
      <trkpt lat="42.8732080" lon="-5.9306480">
        <ele>1467.4</ele>
        <time>2021-10-11T11:27:48Z</time>
      </trkpt>
      <trkpt lat="42.8732220" lon="-5.9305220">
        <ele>1468.0</ele>
        <time>2021-10-11T11:27:54Z</time>
      </trkpt>
      <trkpt lat="42.8732300" lon="-5.9304830">
        <ele>1468.0</ele>
        <time>2021-10-11T11:27:56Z</time>
      </trkpt>
      <trkpt lat="42.8732350" lon="-5.9304630">
        <ele>1468.2</ele>
        <time>2021-10-11T11:27:57Z</time>
      </trkpt>
      <trkpt lat="42.8732410" lon="-5.9304490">
        <ele>1468.2</ele>
        <time>2021-10-11T11:27:58Z</time>
      </trkpt>
      <trkpt lat="42.8732490" lon="-5.9304260">
        <ele>1468.2</ele>
        <time>2021-10-11T11:27:59Z</time>
      </trkpt>
      <trkpt lat="42.8732590" lon="-5.9303860">
        <ele>1468.6</ele>
        <time>2021-10-11T11:28:01Z</time>
      </trkpt>
      <trkpt lat="42.8732710" lon="-5.9303420">
        <ele>1468.6</ele>
        <time>2021-10-11T11:28:03Z</time>
      </trkpt>
      <trkpt lat="42.8732770" lon="-5.9302980">
        <ele>1468.6</ele>
        <time>2021-10-11T11:28:05Z</time>
      </trkpt>
      <trkpt lat="42.8732770" lon="-5.9302790">
        <ele>1468.6</ele>
        <time>2021-10-11T11:28:06Z</time>
      </trkpt>
      <trkpt lat="42.8732690" lon="-5.9302270">
        <ele>1468.6</ele>
        <time>2021-10-11T11:28:09Z</time>
      </trkpt>
      <trkpt lat="42.8732430" lon="-5.9301980">
        <ele>1468.6</ele>
        <time>2021-10-11T11:28:11Z</time>
      </trkpt>
      <trkpt lat="42.8731970" lon="-5.9301870">
        <ele>1468.6</ele>
        <time>2021-10-11T11:28:14Z</time>
      </trkpt>
      <trkpt lat="42.8731540" lon="-5.9301960">
        <ele>1468.6</ele>
        <time>2021-10-11T11:28:17Z</time>
      </trkpt>
      <trkpt lat="42.8730720" lon="-5.9302410">
        <ele>1468.8</ele>
        <time>2021-10-11T11:28:22Z</time>
      </trkpt>
      <trkpt lat="42.8730540" lon="-5.9302490">
        <ele>1468.8</ele>
        <time>2021-10-11T11:28:23Z</time>
      </trkpt>
      <trkpt lat="42.8730170" lon="-5.9302540">
        <ele>1469.0</ele>
        <time>2021-10-11T11:28:25Z</time>
      </trkpt>
      <trkpt lat="42.8730010" lon="-5.9302570">
        <ele>1469.2</ele>
        <time>2021-10-11T11:28:26Z</time>
      </trkpt>
      <trkpt lat="42.8729840" lon="-5.9302570">
        <ele>1469.2</ele>
        <time>2021-10-11T11:28:27Z</time>
      </trkpt>
      <trkpt lat="42.8729340" lon="-5.9302540">
        <ele>1469.6</ele>
        <time>2021-10-11T11:28:30Z</time>
      </trkpt>
      <trkpt lat="42.8729030" lon="-5.9302520">
        <ele>1469.6</ele>
        <time>2021-10-11T11:28:32Z</time>
      </trkpt>
      <trkpt lat="42.8728860" lon="-5.9302520">
        <ele>1469.8</ele>
        <time>2021-10-11T11:28:33Z</time>
      </trkpt>
      <trkpt lat="42.8728690" lon="-5.9302510">
        <ele>1469.8</ele>
        <time>2021-10-11T11:28:34Z</time>
      </trkpt>
      <trkpt lat="42.8727940" lon="-5.9302510">
        <ele>1470.0</ele>
        <time>2021-10-11T11:28:39Z</time>
      </trkpt>
      <trkpt lat="42.8727790" lon="-5.9302530">
        <ele>1470.0</ele>
        <time>2021-10-11T11:28:40Z</time>
      </trkpt>
      <trkpt lat="42.8727430" lon="-5.9302630">
        <ele>1470.2</ele>
        <time>2021-10-11T11:28:43Z</time>
      </trkpt>
      <trkpt lat="42.8727400" lon="-5.9302620">
        <ele>1470.2</ele>
        <time>2021-10-11T11:28:46Z</time>
      </trkpt>
      <trkpt lat="42.8727400" lon="-5.9302580">
        <ele>1470.8</ele>
        <time>2021-10-11T11:34:52Z</time>
      </trkpt>
      <trkpt lat="42.8727400" lon="-5.9302580">
        <ele>1470.8</ele>
        <time>2021-10-11T11:34:53Z</time>
      </trkpt>
      <trkpt lat="42.8727370" lon="-5.9303320">
        <ele>1471.0</ele>
        <time>2021-10-11T11:35:27Z</time>
      </trkpt>
      <trkpt lat="42.8727180" lon="-5.9303870">
        <ele>1471.0</ele>
        <time>2021-10-11T11:35:30Z</time>
      </trkpt>
      <trkpt lat="42.8726960" lon="-5.9304200">
        <ele>1471.0</ele>
        <time>2021-10-11T11:35:32Z</time>
      </trkpt>
      <trkpt lat="42.8726800" lon="-5.9304450">
        <ele>1471.0</ele>
        <time>2021-10-11T11:35:34Z</time>
      </trkpt>
      <trkpt lat="42.8726620" lon="-5.9304760">
        <ele>1471.0</ele>
        <time>2021-10-11T11:35:36Z</time>
      </trkpt>
      <trkpt lat="42.8726370" lon="-5.9305040">
        <ele>1471.2</ele>
        <time>2021-10-11T11:35:39Z</time>
      </trkpt>
      <trkpt lat="42.8726140" lon="-5.9305280">
        <ele>1471.2</ele>
        <time>2021-10-11T11:35:45Z</time>
      </trkpt>
      <trkpt lat="42.8726430" lon="-5.9304710">
        <ele>1471.4</ele>
        <time>2021-10-11T11:36:42Z</time>
      </trkpt>
      <trkpt lat="42.8726670" lon="-5.9304290">
        <ele>1471.4</ele>
        <time>2021-10-11T11:36:44Z</time>
      </trkpt>
      <trkpt lat="42.8727060" lon="-5.9303530">
        <ele>1471.4</ele>
        <time>2021-10-11T11:36:48Z</time>
      </trkpt>
      <trkpt lat="42.8727200" lon="-5.9303070">
        <ele>1471.4</ele>
        <time>2021-10-11T11:36:51Z</time>
      </trkpt>
      <trkpt lat="42.8727310" lon="-5.9302610">
        <ele>1471.4</ele>
        <time>2021-10-11T11:36:54Z</time>
      </trkpt>
      <trkpt lat="42.8727160" lon="-5.9302290">
        <ele>1471.2</ele>
        <time>2021-10-11T11:36:59Z</time>
      </trkpt>
      <trkpt lat="42.8725940" lon="-5.9305250">
        <ele>1472.6</ele>
        <time>2021-10-11T11:56:58Z</time>
      </trkpt>
      <trkpt lat="42.8725050" lon="-5.9306600">
        <ele>1472.4</ele>
        <time>2021-10-11T11:57:05Z</time>
      </trkpt>
      <trkpt lat="42.8724700" lon="-5.9307090">
        <ele>1472.4</ele>
        <time>2021-10-11T11:57:08Z</time>
      </trkpt>
      <trkpt lat="42.8724000" lon="-5.9308130">
        <ele>1472.4</ele>
        <time>2021-10-11T11:57:13Z</time>
      </trkpt>
      <trkpt lat="42.8723880" lon="-5.9308380">
        <ele>1472.4</ele>
        <time>2021-10-11T11:57:14Z</time>
      </trkpt>
      <trkpt lat="42.8723240" lon="-5.9309250">
        <ele>1472.0</ele>
        <time>2021-10-11T11:57:19Z</time>
      </trkpt>
      <trkpt lat="42.8723040" lon="-5.9309620">
        <ele>1472.0</ele>
        <time>2021-10-11T11:57:21Z</time>
      </trkpt>
      <trkpt lat="42.8722590" lon="-5.9310560">
        <ele>1471.8</ele>
        <time>2021-10-11T11:57:25Z</time>
      </trkpt>
      <trkpt lat="42.8722280" lon="-5.9311210">
        <ele>1471.4</ele>
        <time>2021-10-11T11:57:28Z</time>
      </trkpt>
      <trkpt lat="42.8722250" lon="-5.9311280">
        <ele>1471.2</ele>
        <time>2021-10-11T11:57:30Z</time>
      </trkpt>
      <trkpt lat="42.8722080" lon="-5.9311630">
        <ele>1472.0</ele>
        <time>2021-10-11T12:19:41Z</time>
      </trkpt>
      <trkpt lat="42.8721940" lon="-5.9311910">
        <ele>1472.0</ele>
        <time>2021-10-11T12:19:42Z</time>
      </trkpt>
      <trkpt lat="42.8721770" lon="-5.9312240">
        <ele>1472.0</ele>
        <time>2021-10-11T12:19:43Z</time>
      </trkpt>
      <trkpt lat="42.8721360" lon="-5.9312930">
        <ele>1472.0</ele>
        <time>2021-10-11T12:19:45Z</time>
      </trkpt>
      <trkpt lat="42.8720830" lon="-5.9313670">
        <ele>1472.0</ele>
        <time>2021-10-11T12:19:47Z</time>
      </trkpt>
      <trkpt lat="42.8720280" lon="-5.9314470">
        <ele>1471.8</ele>
        <time>2021-10-11T12:19:49Z</time>
      </trkpt>
      <trkpt lat="42.8719050" lon="-5.9315990">
        <ele>1471.2</ele>
        <time>2021-10-11T12:19:53Z</time>
      </trkpt>
      <trkpt lat="42.8718320" lon="-5.9316570">
        <ele>1470.8</ele>
        <time>2021-10-11T12:19:55Z</time>
      </trkpt>
      <trkpt lat="42.8717920" lon="-5.9316800">
        <ele>1470.6</ele>
        <time>2021-10-11T12:19:56Z</time>
      </trkpt>
      <trkpt lat="42.8717510" lon="-5.9316990">
        <ele>1470.2</ele>
        <time>2021-10-11T12:19:57Z</time>
      </trkpt>
      <trkpt lat="42.8716490" lon="-5.9317540">
        <ele>1469.6</ele>
        <time>2021-10-11T12:20:00Z</time>
      </trkpt>
      <trkpt lat="42.8715990" lon="-5.9318110">
        <ele>1469.2</ele>
        <time>2021-10-11T12:20:02Z</time>
      </trkpt>
      <trkpt lat="42.8714970" lon="-5.9319500">
        <ele>1468.6</ele>
        <time>2021-10-11T12:20:07Z</time>
      </trkpt>
      <trkpt lat="42.8714350" lon="-5.9320400">
        <ele>1468.2</ele>
        <time>2021-10-11T12:20:10Z</time>
      </trkpt>
      <trkpt lat="42.8713650" lon="-5.9321450">
        <ele>1467.4</ele>
        <time>2021-10-11T12:20:13Z</time>
      </trkpt>
      <trkpt lat="42.8713450" lon="-5.9321890">
        <ele>1467.0</ele>
        <time>2021-10-11T12:20:14Z</time>
      </trkpt>
      <trkpt lat="42.8712570" lon="-5.9323270">
        <ele>1465.8</ele>
        <time>2021-10-11T12:20:18Z</time>
      </trkpt>
      <trkpt lat="42.8712330" lon="-5.9323570">
        <ele>1465.6</ele>
        <time>2021-10-11T12:20:19Z</time>
      </trkpt>
      <trkpt lat="42.8711820" lon="-5.9324160">
        <ele>1464.8</ele>
        <time>2021-10-11T12:20:22Z</time>
      </trkpt>
      <trkpt lat="42.8710680" lon="-5.9325490">
        <ele>1463.4</ele>
        <time>2021-10-11T12:20:25Z</time>
      </trkpt>
      <trkpt lat="42.8709920" lon="-5.9326670">
        <ele>1462.8</ele>
        <time>2021-10-11T12:20:28Z</time>
      </trkpt>
      <trkpt lat="42.8709670" lon="-5.9327030">
        <ele>1462.6</ele>
        <time>2021-10-11T12:20:29Z</time>
      </trkpt>
      <trkpt lat="42.8708860" lon="-5.9327900">
        <ele>1461.4</ele>
        <time>2021-10-11T12:20:32Z</time>
      </trkpt>
      <trkpt lat="42.8708350" lon="-5.9328360">
        <ele>1460.4</ele>
        <time>2021-10-11T12:20:34Z</time>
      </trkpt>
      <trkpt lat="42.8708060" lon="-5.9328620">
        <ele>1460.4</ele>
        <time>2021-10-11T12:20:35Z</time>
      </trkpt>
      <trkpt lat="42.8707200" lon="-5.9329340">
        <ele>1459.4</ele>
        <time>2021-10-11T12:20:38Z</time>
      </trkpt>
      <trkpt lat="42.8706320" lon="-5.9330290">
        <ele>1459.0</ele>
        <time>2021-10-11T12:20:41Z</time>
      </trkpt>
      <trkpt lat="42.8705440" lon="-5.9331260">
        <ele>1458.2</ele>
        <time>2021-10-11T12:20:44Z</time>
      </trkpt>
      <trkpt lat="42.8704990" lon="-5.9331720">
        <ele>1457.8</ele>
        <time>2021-10-11T12:20:46Z</time>
      </trkpt>
      <trkpt lat="42.8704830" lon="-5.9331960">
        <ele>1457.6</ele>
        <time>2021-10-11T12:20:47Z</time>
      </trkpt>
      <trkpt lat="42.8704570" lon="-5.9332440">
        <ele>1456.8</ele>
        <time>2021-10-11T12:20:49Z</time>
      </trkpt>
      <trkpt lat="42.8704400" lon="-5.9333140">
        <ele>1456.2</ele>
        <time>2021-10-11T12:20:52Z</time>
      </trkpt>
      <trkpt lat="42.8704270" lon="-5.9333480">
        <ele>1455.6</ele>
        <time>2021-10-11T12:20:54Z</time>
      </trkpt>
      <trkpt lat="42.8704240" lon="-5.9333540">
        <ele>1455.0</ele>
        <time>2021-10-11T12:20:57Z</time>
      </trkpt>
      <trkpt lat="42.8702980" lon="-5.9340020">
        <ele>1457.6</ele>
        <time>2021-10-11T12:23:52Z</time>
      </trkpt>
      <trkpt lat="42.8702830" lon="-5.9340010">
        <ele>1457.6</ele>
        <time>2021-10-11T12:23:53Z</time>
      </trkpt>
      <trkpt lat="42.8702510" lon="-5.9340030">
        <ele>1457.6</ele>
        <time>2021-10-11T12:23:55Z</time>
      </trkpt>
      <trkpt lat="42.8701900" lon="-5.9340140">
        <ele>1458.2</ele>
        <time>2021-10-11T12:23:59Z</time>
      </trkpt>
      <trkpt lat="42.8701650" lon="-5.9340220">
        <ele>1458.2</ele>
        <time>2021-10-11T12:24:01Z</time>
      </trkpt>
      <trkpt lat="42.8700870" lon="-5.9340520">
        <ele>1458.4</ele>
        <time>2021-10-11T12:24:07Z</time>
      </trkpt>
      <trkpt lat="42.8700630" lon="-5.9340570">
        <ele>1458.6</ele>
        <time>2021-10-11T12:24:09Z</time>
      </trkpt>
      <trkpt lat="42.8699590" lon="-5.9340980">
        <ele>1459.2</ele>
        <time>2021-10-11T12:24:17Z</time>
      </trkpt>
      <trkpt lat="42.8699240" lon="-5.9341000">
        <ele>1459.6</ele>
        <time>2021-10-11T12:24:20Z</time>
      </trkpt>
      <trkpt lat="42.8699100" lon="-5.9341020">
        <ele>1459.6</ele>
        <time>2021-10-11T12:24:21Z</time>
      </trkpt>
      <trkpt lat="42.8698980" lon="-5.9341060">
        <ele>1459.8</ele>
        <time>2021-10-11T12:24:22Z</time>
      </trkpt>
      <trkpt lat="42.8698080" lon="-5.9341130">
        <ele>1460.4</ele>
        <time>2021-10-11T12:24:29Z</time>
      </trkpt>
      <trkpt lat="42.8697780" lon="-5.9341200">
        <ele>1460.6</ele>
        <time>2021-10-11T12:24:32Z</time>
      </trkpt>
      <trkpt lat="42.8697670" lon="-5.9341220">
        <ele>1460.6</ele>
        <time>2021-10-11T12:24:33Z</time>
      </trkpt>
      <trkpt lat="42.8696640" lon="-5.9341210">
        <ele>1461.6</ele>
        <time>2021-10-11T12:24:41Z</time>
      </trkpt>
      <trkpt lat="42.8696500" lon="-5.9341190">
        <ele>1461.6</ele>
        <time>2021-10-11T12:24:42Z</time>
      </trkpt>
      <trkpt lat="42.8695610" lon="-5.9341360">
        <ele>1462.0</ele>
        <time>2021-10-11T12:24:49Z</time>
      </trkpt>
      <trkpt lat="42.8695240" lon="-5.9341700">
        <ele>1462.2</ele>
        <time>2021-10-11T12:24:53Z</time>
      </trkpt>
      <trkpt lat="42.8694810" lon="-5.9342120">
        <ele>1462.6</ele>
        <time>2021-10-11T12:24:58Z</time>
      </trkpt>
      <trkpt lat="42.8694610" lon="-5.9342270">
        <ele>1462.6</ele>
        <time>2021-10-11T12:25:00Z</time>
      </trkpt>
      <trkpt lat="42.8693690" lon="-5.9342700">
        <ele>1463.6</ele>
        <time>2021-10-11T12:25:08Z</time>
      </trkpt>
      <trkpt lat="42.8693300" lon="-5.9342790">
        <ele>1463.8</ele>
        <time>2021-10-11T12:25:11Z</time>
      </trkpt>
      <trkpt lat="42.8692480" lon="-5.9343050">
        <ele>1463.8</ele>
        <time>2021-10-11T12:25:17Z</time>
      </trkpt>
      <trkpt lat="42.8691510" lon="-5.9343640">
        <ele>1463.8</ele>
        <time>2021-10-11T12:25:25Z</time>
      </trkpt>
      <trkpt lat="42.8690450" lon="-5.9343990">
        <ele>1464.0</ele>
        <time>2021-10-11T12:25:33Z</time>
      </trkpt>
      <trkpt lat="42.8690360" lon="-5.9344110">
        <ele>1464.0</ele>
        <time>2021-10-11T12:25:34Z</time>
      </trkpt>
      <trkpt lat="42.8689710" lon="-5.9344530">
        <ele>1464.6</ele>
        <time>2021-10-11T12:25:40Z</time>
      </trkpt>
      <trkpt lat="42.8689420" lon="-5.9344730">
        <ele>1464.8</ele>
        <time>2021-10-11T12:25:43Z</time>
      </trkpt>
      <trkpt lat="42.8689090" lon="-5.9345080">
        <ele>1465.2</ele>
        <time>2021-10-11T12:25:47Z</time>
      </trkpt>
      <trkpt lat="42.8688130" lon="-5.9345990">
        <ele>1466.0</ele>
        <time>2021-10-11T12:25:57Z</time>
      </trkpt>
      <trkpt lat="42.8688000" lon="-5.9346060">
        <ele>1466.0</ele>
        <time>2021-10-11T12:25:58Z</time>
      </trkpt>
      <trkpt lat="42.8687860" lon="-5.9346110">
        <ele>1466.0</ele>
        <time>2021-10-11T12:25:59Z</time>
      </trkpt>
      <trkpt lat="42.8686870" lon="-5.9346330">
        <ele>1466.4</ele>
        <time>2021-10-11T12:26:07Z</time>
      </trkpt>
      <trkpt lat="42.8685890" lon="-5.9346350">
        <ele>1467.0</ele>
        <time>2021-10-11T12:26:15Z</time>
      </trkpt>
      <trkpt lat="42.8685670" lon="-5.9346410">
        <ele>1467.2</ele>
        <time>2021-10-11T12:26:17Z</time>
      </trkpt>
      <trkpt lat="42.8685470" lon="-5.9346480">
        <ele>1467.2</ele>
        <time>2021-10-11T12:26:19Z</time>
      </trkpt>
      <trkpt lat="42.8684700" lon="-5.9346840">
        <ele>1467.6</ele>
        <time>2021-10-11T12:26:25Z</time>
      </trkpt>
      <trkpt lat="42.8683430" lon="-5.9347460">
        <ele>1467.8</ele>
        <time>2021-10-11T12:26:35Z</time>
      </trkpt>
      <trkpt lat="42.8682210" lon="-5.9348620">
        <ele>1468.0</ele>
        <time>2021-10-11T12:26:46Z</time>
      </trkpt>
      <trkpt lat="42.8681740" lon="-5.9349000">
        <ele>1468.0</ele>
        <time>2021-10-11T12:26:50Z</time>
      </trkpt>
      <trkpt lat="42.8681600" lon="-5.9349160">
        <ele>1468.2</ele>
        <time>2021-10-11T12:26:53Z</time>
      </trkpt>
      <trkpt lat="42.8681630" lon="-5.9349250">
        <ele>1468.2</ele>
        <time>2021-10-11T12:26:54Z</time>
      </trkpt>
      <trkpt lat="42.8682050" lon="-5.9350430">
        <ele>1468.4</ele>
        <time>2021-10-11T12:27:03Z</time>
      </trkpt>
      <trkpt lat="42.8682060" lon="-5.9350530">
        <ele>1468.6</ele>
        <time>2021-10-11T12:27:04Z</time>
      </trkpt>
      <trkpt lat="42.8682040" lon="-5.9350630">
        <ele>1468.6</ele>
        <time>2021-10-11T12:27:05Z</time>
      </trkpt>
      <trkpt lat="42.8681990" lon="-5.9350730">
        <ele>1469.0</ele>
        <time>2021-10-11T12:27:08Z</time>
      </trkpt>
      <trkpt lat="42.8681960" lon="-5.9350800">
        <ele>1469.0</ele>
        <time>2021-10-11T12:27:09Z</time>
      </trkpt>
      <trkpt lat="42.8681930" lon="-5.9350910">
        <ele>1469.6</ele>
        <time>2021-10-11T12:27:11Z</time>
      </trkpt>
      <trkpt lat="42.8681870" lon="-5.9351110">
        <ele>1469.8</ele>
        <time>2021-10-11T12:27:13Z</time>
      </trkpt>
      <trkpt lat="42.8681830" lon="-5.9351220">
        <ele>1469.8</ele>
        <time>2021-10-11T12:27:14Z</time>
      </trkpt>
      <trkpt lat="42.8681760" lon="-5.9351420">
        <ele>1469.8</ele>
        <time>2021-10-11T12:27:16Z</time>
      </trkpt>
      <trkpt lat="42.8681700" lon="-5.9351590">
        <ele>1470.0</ele>
        <time>2021-10-11T12:27:18Z</time>
      </trkpt>
      <trkpt lat="42.8681660" lon="-5.9351690">
        <ele>1470.0</ele>
        <time>2021-10-11T12:27:19Z</time>
      </trkpt>
      <trkpt lat="42.8681620" lon="-5.9351800">
        <ele>1470.2</ele>
        <time>2021-10-11T12:27:20Z</time>
      </trkpt>
      <trkpt lat="42.8681560" lon="-5.9351880">
        <ele>1470.2</ele>
        <time>2021-10-11T12:27:21Z</time>
      </trkpt>
      <trkpt lat="42.8681360" lon="-5.9352110">
        <ele>1470.4</ele>
        <time>2021-10-11T12:27:24Z</time>
      </trkpt>
      <trkpt lat="42.8681270" lon="-5.9352170">
        <ele>1470.4</ele>
        <time>2021-10-11T12:27:25Z</time>
      </trkpt>
      <trkpt lat="42.8681050" lon="-5.9352310">
        <ele>1470.6</ele>
        <time>2021-10-11T12:27:27Z</time>
      </trkpt>
      <trkpt lat="42.8680600" lon="-5.9352540">
        <ele>1470.6</ele>
        <time>2021-10-11T12:27:31Z</time>
      </trkpt>
      <trkpt lat="42.8680480" lon="-5.9352590">
        <ele>1470.6</ele>
        <time>2021-10-11T12:27:32Z</time>
      </trkpt>
      <trkpt lat="42.8680210" lon="-5.9352700">
        <ele>1470.4</ele>
        <time>2021-10-11T12:27:34Z</time>
      </trkpt>
      <trkpt lat="42.8680100" lon="-5.9352730">
        <ele>1470.2</ele>
        <time>2021-10-11T12:27:35Z</time>
      </trkpt>
      <trkpt lat="42.8680010" lon="-5.9352760">
        <ele>1470.2</ele>
        <time>2021-10-11T12:27:36Z</time>
      </trkpt>
      <trkpt lat="42.8679910" lon="-5.9352770">
        <ele>1470.0</ele>
        <time>2021-10-11T12:27:37Z</time>
      </trkpt>
      <trkpt lat="42.8679730" lon="-5.9352910">
        <ele>1469.6</ele>
        <time>2021-10-11T12:27:39Z</time>
      </trkpt>
      <trkpt lat="42.8679570" lon="-5.9353030">
        <ele>1469.4</ele>
        <time>2021-10-11T12:27:41Z</time>
      </trkpt>
      <trkpt lat="42.8678900" lon="-5.9353220">
        <ele>1469.4</ele>
        <time>2021-10-11T12:27:47Z</time>
      </trkpt>
      <trkpt lat="42.8678670" lon="-5.9353280">
        <ele>1469.6</ele>
        <time>2021-10-11T12:27:51Z</time>
      </trkpt>
      <trkpt lat="42.8678290" lon="-5.9353290">
        <ele>1469.8</ele>
        <time>2021-10-11T12:27:57Z</time>
      </trkpt>
      <trkpt lat="42.8678080" lon="-5.9353300">
        <ele>1470.0</ele>
        <time>2021-10-11T12:28:00Z</time>
      </trkpt>
      <trkpt lat="42.8677770" lon="-5.9353310">
        <ele>1470.2</ele>
        <time>2021-10-11T12:28:04Z</time>
      </trkpt>
      <trkpt lat="42.8677600" lon="-5.9353170">
        <ele>1470.4</ele>
        <time>2021-10-11T12:28:07Z</time>
      </trkpt>
      <trkpt lat="42.8677390" lon="-5.9353180">
        <ele>1470.6</ele>
        <time>2021-10-11T12:28:11Z</time>
      </trkpt>
      <trkpt lat="42.8677110" lon="-5.9353090">
        <ele>1470.8</ele>
        <time>2021-10-11T12:28:15Z</time>
      </trkpt>
      <trkpt lat="42.8676730" lon="-5.9353050">
        <ele>1471.2</ele>
        <time>2021-10-11T12:28:21Z</time>
      </trkpt>
      <trkpt lat="42.8676470" lon="-5.9353020">
        <ele>1471.2</ele>
        <time>2021-10-11T12:28:24Z</time>
      </trkpt>
      <trkpt lat="42.8675680" lon="-5.9352840">
        <ele>1472.0</ele>
        <time>2021-10-11T12:28:34Z</time>
      </trkpt>
      <trkpt lat="42.8675480" lon="-5.9352700">
        <ele>1472.4</ele>
        <time>2021-10-11T12:28:37Z</time>
      </trkpt>
      <trkpt lat="42.8675050" lon="-5.9352660">
        <ele>1473.0</ele>
        <time>2021-10-11T12:28:42Z</time>
      </trkpt>
      <trkpt lat="42.8674760" lon="-5.9352740">
        <ele>1473.4</ele>
        <time>2021-10-11T12:28:46Z</time>
      </trkpt>
      <trkpt lat="42.8674640" lon="-5.9352740">
        <ele>1473.8</ele>
        <time>2021-10-11T12:28:48Z</time>
      </trkpt>
      <trkpt lat="42.8674580" lon="-5.9352740">
        <ele>1474.0</ele>
        <time>2021-10-11T12:28:49Z</time>
      </trkpt>
      <trkpt lat="42.8674460" lon="-5.9352650">
        <ele>1474.4</ele>
        <time>2021-10-11T12:28:51Z</time>
      </trkpt>
      <trkpt lat="42.8674270" lon="-5.9352650">
        <ele>1474.6</ele>
        <time>2021-10-11T12:28:53Z</time>
      </trkpt>
      <trkpt lat="42.8674090" lon="-5.9352610">
        <ele>1474.8</ele>
        <time>2021-10-11T12:28:55Z</time>
      </trkpt>
      <trkpt lat="42.8674010" lon="-5.9352550">
        <ele>1475.0</ele>
        <time>2021-10-11T12:28:56Z</time>
      </trkpt>
      <trkpt lat="42.8673740" lon="-5.9352160">
        <ele>1475.6</ele>
        <time>2021-10-11T12:29:00Z</time>
      </trkpt>
      <trkpt lat="42.8673670" lon="-5.9352050">
        <ele>1475.6</ele>
        <time>2021-10-11T12:29:01Z</time>
      </trkpt>
      <trkpt lat="42.8673550" lon="-5.9351840">
        <ele>1476.0</ele>
        <time>2021-10-11T12:29:03Z</time>
      </trkpt>
      <trkpt lat="42.8673280" lon="-5.9351240">
        <ele>1476.6</ele>
        <time>2021-10-11T12:29:08Z</time>
      </trkpt>
      <trkpt lat="42.8673120" lon="-5.9351140">
        <ele>1476.8</ele>
        <time>2021-10-11T12:29:10Z</time>
      </trkpt>
      <trkpt lat="42.8673020" lon="-5.9351100">
        <ele>1477.2</ele>
        <time>2021-10-11T12:29:13Z</time>
      </trkpt>
      <trkpt lat="42.8649840" lon="-5.9356930">
        <ele>1500.2</ele>
        <time>2021-10-11T12:34:59Z</time>
      </trkpt>
      <trkpt lat="42.8649740" lon="-5.9357010">
        <ele>1500.2</ele>
        <time>2021-10-11T12:35:00Z</time>
      </trkpt>
      <trkpt lat="42.8648890" lon="-5.9357720">
        <ele>1500.6</ele>
        <time>2021-10-11T12:35:09Z</time>
      </trkpt>
      <trkpt lat="42.8648400" lon="-5.9358390">
        <ele>1501.2</ele>
        <time>2021-10-11T12:35:17Z</time>
      </trkpt>
      <trkpt lat="42.8648280" lon="-5.9358480">
        <ele>1501.6</ele>
        <time>2021-10-11T12:35:19Z</time>
      </trkpt>
      <trkpt lat="42.8647850" lon="-5.9358680">
        <ele>1502.6</ele>
        <time>2021-10-11T12:35:24Z</time>
      </trkpt>
      <trkpt lat="42.8647750" lon="-5.9358830">
        <ele>1503.0</ele>
        <time>2021-10-11T12:35:26Z</time>
      </trkpt>
      <trkpt lat="42.8647690" lon="-5.9358910">
        <ele>1503.6</ele>
        <time>2021-10-11T12:35:30Z</time>
      </trkpt>
      <trkpt lat="42.8623380" lon="-5.9359770">
        <ele>1522.0</ele>
        <time>2021-10-11T12:41:54Z</time>
      </trkpt>
      <trkpt lat="42.8623370" lon="-5.9359580">
        <ele>1522.0</ele>
        <time>2021-10-11T12:41:55Z</time>
      </trkpt>
      <trkpt lat="42.8623350" lon="-5.9358870">
        <ele>1522.0</ele>
        <time>2021-10-11T12:41:58Z</time>
      </trkpt>
      <trkpt lat="42.8623060" lon="-5.9358220">
        <ele>1521.6</ele>
        <time>2021-10-11T12:42:02Z</time>
      </trkpt>
      <trkpt lat="42.8622860" lon="-5.9358060">
        <ele>1521.0</ele>
        <time>2021-10-11T12:42:04Z</time>
      </trkpt>
      <trkpt lat="42.8622750" lon="-5.9357990">
        <ele>1521.0</ele>
        <time>2021-10-11T12:42:05Z</time>
      </trkpt>
      <trkpt lat="42.8622590" lon="-5.9357970">
        <ele>1520.8</ele>
        <time>2021-10-11T12:42:07Z</time>
      </trkpt>
      <trkpt lat="42.8622350" lon="-5.9358040">
        <ele>1520.4</ele>
        <time>2021-10-11T12:42:10Z</time>
      </trkpt>
      <trkpt lat="42.8622180" lon="-5.9358040">
        <ele>1520.0</ele>
        <time>2021-10-11T12:42:13Z</time>
      </trkpt>
      <trkpt lat="42.8622030" lon="-5.9358060">
        <ele>1519.4</ele>
        <time>2021-10-11T12:42:17Z</time>
      </trkpt>
      <trkpt lat="42.8621830" lon="-5.9358050">
        <ele>1519.0</ele>
        <time>2021-10-11T12:42:21Z</time>
      </trkpt>
      <trkpt lat="42.8618180" lon="-5.9364040">
        <ele>1513.4</ele>
        <time>2021-10-11T12:43:24Z</time>
      </trkpt>
      <trkpt lat="42.8618070" lon="-5.9364190">
        <ele>1513.4</ele>
        <time>2021-10-11T12:43:25Z</time>
      </trkpt>
      <trkpt lat="42.8617240" lon="-5.9365120">
        <ele>1512.6</ele>
        <time>2021-10-11T12:43:33Z</time>
      </trkpt>
      <trkpt lat="42.8617080" lon="-5.9365390">
        <ele>1512.4</ele>
        <time>2021-10-11T12:43:35Z</time>
      </trkpt>
      <trkpt lat="42.8616520" lon="-5.9365840">
        <ele>1511.2</ele>
        <time>2021-10-11T12:43:40Z</time>
      </trkpt>
      <trkpt lat="42.8616440" lon="-5.9365890">
        <ele>1511.0</ele>
        <time>2021-10-11T12:43:41Z</time>
      </trkpt>
      <trkpt lat="42.8616100" lon="-5.9366100">
        <ele>1510.2</ele>
        <time>2021-10-11T12:43:44Z</time>
      </trkpt>
      <trkpt lat="42.8615720" lon="-5.9366390">
        <ele>1510.0</ele>
        <time>2021-10-11T12:43:48Z</time>
      </trkpt>
      <trkpt lat="42.8615680" lon="-5.9366410">
        <ele>1509.8</ele>
        <time>2021-10-11T12:43:49Z</time>
      </trkpt>
      <trkpt lat="42.8615650" lon="-5.9366420">
        <ele>1509.2</ele>
        <time>2021-10-11T12:43:53Z</time>
      </trkpt>
      <trkpt lat="42.8615350" lon="-5.9366720">
        <ele>1508.8</ele>
        <time>2021-10-11T12:45:12Z</time>
      </trkpt>
      <trkpt lat="42.8614240" lon="-5.9367430">
        <ele>1508.2</ele>
        <time>2021-10-11T12:45:19Z</time>
      </trkpt>
      <trkpt lat="42.8613950" lon="-5.9367610">
        <ele>1508.0</ele>
        <time>2021-10-11T12:45:21Z</time>
      </trkpt>
      <trkpt lat="42.8613080" lon="-5.9368060">
        <ele>1506.8</ele>
        <time>2021-10-11T12:45:27Z</time>
      </trkpt>
      <trkpt lat="42.8612510" lon="-5.9368570">
        <ele>1506.0</ele>
        <time>2021-10-11T12:45:31Z</time>
      </trkpt>
      <trkpt lat="42.8612400" lon="-5.9368650">
        <ele>1505.6</ele>
        <time>2021-10-11T12:45:32Z</time>
      </trkpt>
      <trkpt lat="42.8612300" lon="-5.9368770">
        <ele>1505.4</ele>
        <time>2021-10-11T12:45:33Z</time>
      </trkpt>
      <trkpt lat="42.8611610" lon="-5.9369370">
        <ele>1504.6</ele>
        <time>2021-10-11T12:45:40Z</time>
      </trkpt>
      <trkpt lat="42.8611610" lon="-5.9369370">
        <ele>1504.4</ele>
        <time>2021-10-11T12:45:41Z</time>
      </trkpt>
      <trkpt lat="42.8611160" lon="-5.9369770">
        <ele>1503.6</ele>
        <time>2021-10-11T12:45:46Z</time>
      </trkpt>
      <trkpt lat="42.8610970" lon="-5.9369920">
        <ele>1503.4</ele>
        <time>2021-10-11T12:45:48Z</time>
      </trkpt>
      <trkpt lat="42.8610970" lon="-5.9369960">
        <ele>1503.4</ele>
        <time>2021-10-11T12:45:49Z</time>
      </trkpt>
      <trkpt lat="42.8610970" lon="-5.9369960">
        <ele>1503.2</ele>
        <time>2021-10-11T12:45:50Z</time>
      </trkpt>
      <trkpt lat="42.8610600" lon="-5.9370190">
        <ele>1502.0</ele>
        <time>2021-10-11T12:48:39Z</time>
      </trkpt>
      <trkpt lat="42.8610470" lon="-5.9370350">
        <ele>1502.0</ele>
        <time>2021-10-11T12:48:40Z</time>
      </trkpt>
      <trkpt lat="42.8610150" lon="-5.9370730">
        <ele>1501.8</ele>
        <time>2021-10-11T12:48:42Z</time>
      </trkpt>
      <trkpt lat="42.8609760" lon="-5.9371010">
        <ele>1501.4</ele>
        <time>2021-10-11T12:48:44Z</time>
      </trkpt>
      <trkpt lat="42.8609090" lon="-5.9371130">
        <ele>1501.0</ele>
        <time>2021-10-11T12:48:47Z</time>
      </trkpt>
      <trkpt lat="42.8608920" lon="-5.9371220">
        <ele>1500.8</ele>
        <time>2021-10-11T12:48:48Z</time>
      </trkpt>
      <trkpt lat="42.8608760" lon="-5.9371390">
        <ele>1500.6</ele>
        <time>2021-10-11T12:48:49Z</time>
      </trkpt>
      <trkpt lat="42.8608120" lon="-5.9372010">
        <ele>1499.6</ele>
        <time>2021-10-11T12:48:53Z</time>
      </trkpt>
      <trkpt lat="42.8607950" lon="-5.9372140">
        <ele>1499.4</ele>
        <time>2021-10-11T12:48:54Z</time>
      </trkpt>
      <trkpt lat="42.8607330" lon="-5.9372530">
        <ele>1498.6</ele>
        <time>2021-10-11T12:48:58Z</time>
      </trkpt>
      <trkpt lat="42.8606920" lon="-5.9372870">
        <ele>1498.2</ele>
        <time>2021-10-11T12:49:01Z</time>
      </trkpt>
      <trkpt lat="42.8606620" lon="-5.9373160">
        <ele>1497.4</ele>
        <time>2021-10-11T12:49:04Z</time>
      </trkpt>
      <trkpt lat="42.8606080" lon="-5.9373540">
        <ele>1496.6</ele>
        <time>2021-10-11T12:49:08Z</time>
      </trkpt>
      <trkpt lat="42.8605970" lon="-5.9373650">
        <ele>1496.4</ele>
        <time>2021-10-11T12:49:09Z</time>
      </trkpt>
      <trkpt lat="42.8605910" lon="-5.9373740">
        <ele>1495.4</ele>
        <time>2021-10-11T12:49:12Z</time>
      </trkpt>
      <trkpt lat="42.8599590" lon="-5.9399680">
        <ele>1480.8</ele>
        <time>2021-10-11T12:53:06Z</time>
      </trkpt>
      <trkpt lat="42.8599560" lon="-5.9399820">
        <ele>1480.6</ele>
        <time>2021-10-11T12:53:07Z</time>
      </trkpt>
      <trkpt lat="42.8599510" lon="-5.9399960">
        <ele>1480.6</ele>
        <time>2021-10-11T12:53:08Z</time>
      </trkpt>
      <trkpt lat="42.8599320" lon="-5.9400110">
        <ele>1480.4</ele>
        <time>2021-10-11T12:53:10Z</time>
      </trkpt>
      <trkpt lat="42.8599140" lon="-5.9400340">
        <ele>1480.2</ele>
        <time>2021-10-11T12:53:12Z</time>
      </trkpt>
      <trkpt lat="42.8599010" lon="-5.9400660">
        <ele>1480.0</ele>
        <time>2021-10-11T12:53:14Z</time>
      </trkpt>
      <trkpt lat="42.8598720" lon="-5.9401140">
        <ele>1479.8</ele>
        <time>2021-10-11T12:53:18Z</time>
      </trkpt>
      <trkpt lat="42.8598680" lon="-5.9401250">
        <ele>1479.8</ele>
        <time>2021-10-11T12:53:20Z</time>
      </trkpt>
      <trkpt lat="42.8598630" lon="-5.9401360">
        <ele>1479.6</ele>
        <time>2021-10-11T12:53:21Z</time>
      </trkpt>
      <trkpt lat="42.8598600" lon="-5.9401530">
        <ele>1479.6</ele>
        <time>2021-10-11T12:53:23Z</time>
      </trkpt>
      <trkpt lat="42.8598370" lon="-5.9402450">
        <ele>1479.4</ele>
        <time>2021-10-11T12:53:28Z</time>
      </trkpt>
      <trkpt lat="42.8598270" lon="-5.9402800">
        <ele>1479.4</ele>
        <time>2021-10-11T12:53:30Z</time>
      </trkpt>
      <trkpt lat="42.8598150" lon="-5.9403150">
        <ele>1479.2</ele>
        <time>2021-10-11T12:53:33Z</time>
      </trkpt>
      <trkpt lat="42.8598070" lon="-5.9403440">
        <ele>1479.2</ele>
        <time>2021-10-11T12:53:37Z</time>
      </trkpt>
      <trkpt lat="42.8598070" lon="-5.9403440">
        <ele>1479.0</ele>
        <time>2021-10-11T12:53:38Z</time>
      </trkpt>
      <trkpt lat="42.8597930" lon="-5.9404300">
        <ele>1479.0</ele>
        <time>2021-10-11T12:53:53Z</time>
      </trkpt>
      <trkpt lat="42.8597820" lon="-5.9404550">
        <ele>1479.0</ele>
        <time>2021-10-11T12:53:54Z</time>
      </trkpt>
      <trkpt lat="42.8597700" lon="-5.9405060">
        <ele>1478.8</ele>
        <time>2021-10-11T12:53:56Z</time>
      </trkpt>
      <trkpt lat="42.8597570" lon="-5.9405700">
        <ele>1478.8</ele>
        <time>2021-10-11T12:53:59Z</time>
      </trkpt>
      <trkpt lat="42.8597390" lon="-5.9406170">
        <ele>1478.8</ele>
        <time>2021-10-11T12:54:01Z</time>
      </trkpt>
      <trkpt lat="42.8597260" lon="-5.9406560">
        <ele>1478.6</ele>
        <time>2021-10-11T12:54:03Z</time>
      </trkpt>
      <trkpt lat="42.8597040" lon="-5.9407170">
        <ele>1478.6</ele>
        <time>2021-10-11T12:54:06Z</time>
      </trkpt>
      <trkpt lat="42.8596420" lon="-5.9408270">
        <ele>1478.2</ele>
        <time>2021-10-11T12:54:12Z</time>
      </trkpt>
      <trkpt lat="42.8596350" lon="-5.9408670">
        <ele>1478.0</ele>
        <time>2021-10-11T12:54:13Z</time>
      </trkpt>
      <trkpt lat="42.8596320" lon="-5.9409820">
        <ele>1477.8</ele>
        <time>2021-10-11T12:54:16Z</time>
      </trkpt>
      <trkpt lat="42.8596290" lon="-5.9410780">
        <ele>1477.8</ele>
        <time>2021-10-11T12:54:19Z</time>
      </trkpt>
      <trkpt lat="42.8596230" lon="-5.9411070">
        <ele>1477.6</ele>
        <time>2021-10-11T12:54:20Z</time>
      </trkpt>
      <trkpt lat="42.8596160" lon="-5.9411410">
        <ele>1477.6</ele>
        <time>2021-10-11T12:54:21Z</time>
      </trkpt>
      <trkpt lat="42.8595930" lon="-5.9412410">
        <ele>1477.6</ele>
        <time>2021-10-11T12:54:24Z</time>
      </trkpt>
      <trkpt lat="42.8595850" lon="-5.9412780">
        <ele>1477.6</ele>
        <time>2021-10-11T12:54:25Z</time>
      </trkpt>
      <trkpt lat="42.8595750" lon="-5.9413340">
        <ele>1477.6</ele>
        <time>2021-10-11T12:54:26Z</time>
      </trkpt>
      <trkpt lat="42.8595660" lon="-5.9414780">
        <ele>1477.8</ele>
        <time>2021-10-11T12:54:30Z</time>
      </trkpt>
      <trkpt lat="42.8595550" lon="-5.9415630">
        <ele>1477.8</ele>
        <time>2021-10-11T12:54:32Z</time>
      </trkpt>
      <trkpt lat="42.8595490" lon="-5.9416120">
        <ele>1477.8</ele>
        <time>2021-10-11T12:54:34Z</time>
      </trkpt>
      <trkpt lat="42.8595480" lon="-5.9416650">
        <ele>1477.8</ele>
        <time>2021-10-11T12:54:36Z</time>
      </trkpt>
      <trkpt lat="42.8595390" lon="-5.9416900">
        <ele>1477.8</ele>
        <time>2021-10-11T12:54:37Z</time>
      </trkpt>
      <trkpt lat="42.8595240" lon="-5.9417360">
        <ele>1477.8</ele>
        <time>2021-10-11T12:54:42Z</time>
      </trkpt>
      <trkpt lat="42.8595200" lon="-5.9417460">
        <ele>1477.6</ele>
        <time>2021-10-11T12:54:45Z</time>
      </trkpt>
      <trkpt lat="42.8595100" lon="-5.9417900">
        <ele>1477.6</ele>
        <time>2021-10-11T12:54:48Z</time>
      </trkpt>
      <trkpt lat="42.8594960" lon="-5.9418240">
        <ele>1477.4</ele>
        <time>2021-10-11T12:54:55Z</time>
      </trkpt>
      <trkpt lat="42.8594930" lon="-5.9418400">
        <ele>1477.4</ele>
        <time>2021-10-11T12:54:56Z</time>
      </trkpt>
      <trkpt lat="42.8594890" lon="-5.9418780">
        <ele>1477.4</ele>
        <time>2021-10-11T12:55:02Z</time>
      </trkpt>
      <trkpt lat="42.8589780" lon="-5.9425090">
        <ele>1473.6</ele>
        <time>2021-10-11T12:56:25Z</time>
      </trkpt>
      <trkpt lat="42.8589620" lon="-5.9425120">
        <ele>1473.6</ele>
        <time>2021-10-11T12:56:26Z</time>
      </trkpt>
      <trkpt lat="42.8588960" lon="-5.9425160">
        <ele>1473.4</ele>
        <time>2021-10-11T12:56:31Z</time>
      </trkpt>
      <trkpt lat="42.8588840" lon="-5.9425280">
        <ele>1473.4</ele>
        <time>2021-10-11T12:56:33Z</time>
      </trkpt>
      <trkpt lat="42.8588460" lon="-5.9425370">
        <ele>1473.2</ele>
        <time>2021-10-11T12:56:38Z</time>
      </trkpt>
      <trkpt lat="42.8587910" lon="-5.9425170">
        <ele>1473.0</ele>
        <time>2021-10-11T12:56:44Z</time>
      </trkpt>
      <trkpt lat="42.8587670" lon="-5.9424950">
        <ele>1473.6</ele>
        <time>2021-10-11T12:56:50Z</time>
      </trkpt>
      <trkpt lat="42.8587630" lon="-5.9424890">
        <ele>1473.8</ele>
        <time>2021-10-11T12:56:51Z</time>
      </trkpt>
      <trkpt lat="42.8587430" lon="-5.9424690">
        <ele>1473.8</ele>
        <time>2021-10-11T12:56:53Z</time>
      </trkpt>
      <trkpt lat="42.8587210" lon="-5.9424450">
        <ele>1473.8</ele>
        <time>2021-10-11T12:56:55Z</time>
      </trkpt>
      <trkpt lat="42.8587010" lon="-5.9424150">
        <ele>1474.0</ele>
        <time>2021-10-11T12:56:57Z</time>
      </trkpt>
      <trkpt lat="42.8586920" lon="-5.9424010">
        <ele>1474.0</ele>
        <time>2021-10-11T12:56:58Z</time>
      </trkpt>
      <trkpt lat="42.8586630" lon="-5.9423790">
        <ele>1474.0</ele>
        <time>2021-10-11T12:57:00Z</time>
      </trkpt>
      <trkpt lat="42.8586490" lon="-5.9423690">
        <ele>1474.0</ele>
        <time>2021-10-11T12:57:02Z</time>
      </trkpt>
      <trkpt lat="42.8586090" lon="-5.9423400">
        <ele>1474.2</ele>
        <time>2021-10-11T12:57:05Z</time>
      </trkpt>
      <trkpt lat="42.8585820" lon="-5.9423240">
        <ele>1474.6</ele>
        <time>2021-10-11T12:57:08Z</time>
      </trkpt>
      <trkpt lat="42.8585750" lon="-5.9423150">
        <ele>1474.6</ele>
        <time>2021-10-11T12:57:10Z</time>
      </trkpt>
      <trkpt lat="42.8585750" lon="-5.9423150">
        <ele>1474.8</ele>
        <time>2021-10-11T12:57:13Z</time>
      </trkpt>
      <trkpt lat="42.8585750" lon="-5.9423150">
        <ele>1474.8</ele>
        <time>2021-10-11T12:57:14Z</time>
      </trkpt>
      <trkpt lat="42.8580880" lon="-5.9416470">
        <ele>1475.8</ele>
        <time>2021-10-11T12:58:23Z</time>
      </trkpt>
      <trkpt lat="42.8580590" lon="-5.9415940">
        <ele>1476.0</ele>
        <time>2021-10-11T12:58:26Z</time>
      </trkpt>
      <trkpt lat="42.8580350" lon="-5.9415440">
        <ele>1476.0</ele>
        <time>2021-10-11T12:58:29Z</time>
      </trkpt>
      <trkpt lat="42.8579990" lon="-5.9414940">
        <ele>1476.0</ele>
        <time>2021-10-11T12:58:32Z</time>
      </trkpt>
      <trkpt lat="42.8579790" lon="-5.9414370">
        <ele>1476.0</ele>
        <time>2021-10-11T12:58:35Z</time>
      </trkpt>
      <trkpt lat="42.8579690" lon="-5.9413970">
        <ele>1476.0</ele>
        <time>2021-10-11T12:58:38Z</time>
      </trkpt>
      <trkpt lat="42.8579440" lon="-5.9413670">
        <ele>1476.0</ele>
        <time>2021-10-11T12:58:41Z</time>
      </trkpt>
      <trkpt lat="42.8579310" lon="-5.9413360">
        <ele>1476.0</ele>
        <time>2021-10-11T12:58:44Z</time>
      </trkpt>
      <trkpt lat="42.8579200" lon="-5.9413230">
        <ele>1476.2</ele>
        <time>2021-10-11T12:58:48Z</time>
      </trkpt>
      <trkpt lat="42.8572460" lon="-5.9401190">
        <ele>1478.2</ele>
        <time>2021-10-11T13:00:30Z</time>
      </trkpt>
      <trkpt lat="42.8572330" lon="-5.9400990">
        <ele>1478.2</ele>
        <time>2021-10-11T13:00:31Z</time>
      </trkpt>
      <trkpt lat="42.8572300" lon="-5.9400820">
        <ele>1478.2</ele>
        <time>2021-10-11T13:00:32Z</time>
      </trkpt>
      <trkpt lat="42.8571470" lon="-5.9400020">
        <ele>1478.2</ele>
        <time>2021-10-11T13:00:40Z</time>
      </trkpt>
      <trkpt lat="42.8571320" lon="-5.9399960">
        <ele>1478.2</ele>
        <time>2021-10-11T13:00:41Z</time>
      </trkpt>
      <trkpt lat="42.8570490" lon="-5.9398960">
        <ele>1478.4</ele>
        <time>2021-10-11T13:00:49Z</time>
      </trkpt>
      <trkpt lat="42.8569710" lon="-5.9398140">
        <ele>1478.8</ele>
        <time>2021-10-11T13:00:57Z</time>
      </trkpt>
      <trkpt lat="42.8569340" lon="-5.9397570">
        <ele>1479.0</ele>
        <time>2021-10-11T13:01:02Z</time>
      </trkpt>
      <trkpt lat="42.8569000" lon="-5.9397280">
        <ele>1479.0</ele>
        <time>2021-10-11T13:01:05Z</time>
      </trkpt>
      <trkpt lat="42.8568350" lon="-5.9396790">
        <ele>1479.2</ele>
        <time>2021-10-11T13:01:12Z</time>
      </trkpt>
      <trkpt lat="42.8568280" lon="-5.9396750">
        <ele>1479.2</ele>
        <time>2021-10-11T13:01:13Z</time>
      </trkpt>
      <trkpt lat="42.8568050" lon="-5.9396560">
        <ele>1479.2</ele>
        <time>2021-10-11T13:01:18Z</time>
      </trkpt>
      <trkpt lat="42.8567780" lon="-5.9396480">
        <ele>1479.4</ele>
        <time>2021-10-11T13:01:21Z</time>
      </trkpt>
      <trkpt lat="42.8567730" lon="-5.9396430">
        <ele>1479.6</ele>
        <time>2021-10-11T13:01:25Z</time>
      </trkpt>
      <trkpt lat="42.8567730" lon="-5.9396430">
        <ele>1479.6</ele>
        <time>2021-10-11T13:01:26Z</time>
      </trkpt>
      <trkpt lat="42.8567620" lon="-5.9396320">
        <ele>1480.0</ele>
        <time>2021-10-11T13:01:29Z</time>
      </trkpt>
      <trkpt lat="42.8567510" lon="-5.9396240">
        <ele>1479.8</ele>
        <time>2021-10-11T13:01:30Z</time>
      </trkpt>
      <trkpt lat="42.8567480" lon="-5.9396210">
        <ele>1479.8</ele>
        <time>2021-10-11T13:01:31Z</time>
      </trkpt>
      <trkpt lat="42.8567380" lon="-5.9396160">
        <ele>1480.0</ele>
        <time>2021-10-11T13:01:32Z</time>
      </trkpt>
      <trkpt lat="42.8566870" lon="-5.9395900">
        <ele>1480.2</ele>
        <time>2021-10-11T13:01:35Z</time>
      </trkpt>
      <trkpt lat="42.8566630" lon="-5.9395870">
        <ele>1480.2</ele>
        <time>2021-10-11T13:01:37Z</time>
      </trkpt>
      <trkpt lat="42.8566290" lon="-5.9395880">
        <ele>1480.4</ele>
        <time>2021-10-11T13:01:39Z</time>
      </trkpt>
      <trkpt lat="42.8565950" lon="-5.9395840">
        <ele>1480.6</ele>
        <time>2021-10-11T13:01:41Z</time>
      </trkpt>
      <trkpt lat="42.8565120" lon="-5.9395540">
        <ele>1481.0</ele>
        <time>2021-10-11T13:01:48Z</time>
      </trkpt>
      <trkpt lat="42.8564680" lon="-5.9395340">
        <ele>1481.4</ele>
        <time>2021-10-11T13:01:52Z</time>
      </trkpt>
      <trkpt lat="42.8564570" lon="-5.9395280">
        <ele>1481.4</ele>
        <time>2021-10-11T13:01:53Z</time>
      </trkpt>
      <trkpt lat="42.8564400" lon="-5.9395140">
        <ele>1481.6</ele>
        <time>2021-10-11T13:01:55Z</time>
      </trkpt>
      <trkpt lat="42.8564280" lon="-5.9394850">
        <ele>1482.0</ele>
        <time>2021-10-11T13:01:58Z</time>
      </trkpt>
      <trkpt lat="42.8564240" lon="-5.9394820">
        <ele>1482.2</ele>
        <time>2021-10-11T13:02:00Z</time>
      </trkpt>
      <trkpt lat="42.8564130" lon="-5.9394720">
        <ele>1482.6</ele>
        <time>2021-10-11T13:02:03Z</time>
      </trkpt>
      <trkpt lat="42.8563730" lon="-5.9394530">
        <ele>1483.4</ele>
        <time>2021-10-11T13:02:08Z</time>
      </trkpt>
      <trkpt lat="42.8563660" lon="-5.9394500">
        <ele>1483.6</ele>
        <time>2021-10-11T13:02:09Z</time>
      </trkpt>
      <trkpt lat="42.8563210" lon="-5.9394330">
        <ele>1484.4</ele>
        <time>2021-10-11T13:02:14Z</time>
      </trkpt>
      <trkpt lat="42.8563110" lon="-5.9394280">
        <ele>1484.6</ele>
        <time>2021-10-11T13:02:15Z</time>
      </trkpt>
      <trkpt lat="42.8563020" lon="-5.9394230">
        <ele>1484.6</ele>
        <time>2021-10-11T13:02:16Z</time>
      </trkpt>
      <trkpt lat="42.8562450" lon="-5.9393780">
        <ele>1485.4</ele>
        <time>2021-10-11T13:02:25Z</time>
      </trkpt>
      <trkpt lat="42.8562220" lon="-5.9393660">
        <ele>1485.6</ele>
        <time>2021-10-11T13:02:27Z</time>
      </trkpt>
      <trkpt lat="42.8561930" lon="-5.9393620">
        <ele>1486.2</ele>
        <time>2021-10-11T13:02:31Z</time>
      </trkpt>
      <trkpt lat="42.8561830" lon="-5.9393560">
        <ele>1486.4</ele>
        <time>2021-10-11T13:02:32Z</time>
      </trkpt>
      <trkpt lat="42.8561400" lon="-5.9393350">
        <ele>1486.6</ele>
        <time>2021-10-11T13:02:37Z</time>
      </trkpt>
      <trkpt lat="42.8561300" lon="-5.9393290">
        <ele>1486.6</ele>
        <time>2021-10-11T13:02:40Z</time>
      </trkpt>
      <trkpt lat="42.8561060" lon="-5.9393270">
        <ele>1486.4</ele>
        <time>2021-10-11T13:02:42Z</time>
      </trkpt>
      <trkpt lat="42.8560890" lon="-5.9393230">
        <ele>1486.2</ele>
        <time>2021-10-11T13:02:43Z</time>
      </trkpt>
      <trkpt lat="42.8560350" lon="-5.9393170">
        <ele>1486.0</ele>
        <time>2021-10-11T13:02:47Z</time>
      </trkpt>
      <trkpt lat="42.8559960" lon="-5.9393190">
        <ele>1485.8</ele>
        <time>2021-10-11T13:02:50Z</time>
      </trkpt>
      <trkpt lat="42.8559410" lon="-5.9393430">
        <ele>1485.8</ele>
        <time>2021-10-11T13:02:55Z</time>
      </trkpt>
      <trkpt lat="42.8559220" lon="-5.9393570">
        <ele>1486.0</ele>
        <time>2021-10-11T13:02:57Z</time>
      </trkpt>
      <trkpt lat="42.8558720" lon="-5.9393840">
        <ele>1486.2</ele>
        <time>2021-10-11T13:03:04Z</time>
      </trkpt>
      <trkpt lat="42.8557980" lon="-5.9394400">
        <ele>1486.0</ele>
        <time>2021-10-11T13:03:12Z</time>
      </trkpt>
      <trkpt lat="42.8557500" lon="-5.9394530">
        <ele>1486.0</ele>
        <time>2021-10-11T13:03:16Z</time>
      </trkpt>
      <trkpt lat="42.8557290" lon="-5.9394570">
        <ele>1485.8</ele>
        <time>2021-10-11T13:03:18Z</time>
      </trkpt>
      <trkpt lat="42.8557200" lon="-5.9394630">
        <ele>1485.6</ele>
        <time>2021-10-11T13:03:19Z</time>
      </trkpt>
      <trkpt lat="42.8556880" lon="-5.9394840">
        <ele>1485.6</ele>
        <time>2021-10-11T13:03:22Z</time>
      </trkpt>
      <trkpt lat="42.8556360" lon="-5.9394980">
        <ele>1485.4</ele>
        <time>2021-10-11T13:03:27Z</time>
      </trkpt>
      <trkpt lat="42.8556310" lon="-5.9395010">
        <ele>1485.4</ele>
        <time>2021-10-11T13:03:28Z</time>
      </trkpt>
      <trkpt lat="42.8556300" lon="-5.9395030">
        <ele>1485.4</ele>
        <time>2021-10-11T13:03:30Z</time>
      </trkpt>
      <trkpt lat="42.8555770" lon="-5.9395420">
        <ele>1485.0</ele>
        <time>2021-10-11T13:03:37Z</time>
      </trkpt>
      <trkpt lat="42.8555590" lon="-5.9395590">
        <ele>1485.0</ele>
        <time>2021-10-11T13:03:38Z</time>
      </trkpt>
      <trkpt lat="42.8555140" lon="-5.9395990">
        <ele>1485.0</ele>
        <time>2021-10-11T13:03:41Z</time>
      </trkpt>
      <trkpt lat="42.8554560" lon="-5.9396450">
        <ele>1484.6</ele>
        <time>2021-10-11T13:03:44Z</time>
      </trkpt>
      <trkpt lat="42.8554350" lon="-5.9396700">
        <ele>1484.6</ele>
        <time>2021-10-11T13:03:45Z</time>
      </trkpt>
      <trkpt lat="42.8554190" lon="-5.9396890">
        <ele>1484.6</ele>
        <time>2021-10-11T13:03:46Z</time>
      </trkpt>
      <trkpt lat="42.8554020" lon="-5.9397080">
        <ele>1484.6</ele>
        <time>2021-10-11T13:03:47Z</time>
      </trkpt>
      <trkpt lat="42.8553720" lon="-5.9397410">
        <ele>1484.6</ele>
        <time>2021-10-11T13:03:49Z</time>
      </trkpt>
      <trkpt lat="42.8553210" lon="-5.9397870">
        <ele>1484.4</ele>
        <time>2021-10-11T13:03:52Z</time>
      </trkpt>
      <trkpt lat="42.8552880" lon="-5.9398190">
        <ele>1484.6</ele>
        <time>2021-10-11T13:03:54Z</time>
      </trkpt>
      <trkpt lat="42.8552690" lon="-5.9398340">
        <ele>1484.8</ele>
        <time>2021-10-11T13:03:55Z</time>
      </trkpt>
      <trkpt lat="42.8552340" lon="-5.9398610">
        <ele>1484.8</ele>
        <time>2021-10-11T13:03:57Z</time>
      </trkpt>
      <trkpt lat="42.8552000" lon="-5.9398870">
        <ele>1485.0</ele>
        <time>2021-10-11T13:03:59Z</time>
      </trkpt>
      <trkpt lat="42.8551420" lon="-5.9399090">
        <ele>1485.0</ele>
        <time>2021-10-11T13:04:02Z</time>
      </trkpt>
      <trkpt lat="42.8551250" lon="-5.9399210">
        <ele>1485.0</ele>
        <time>2021-10-11T13:04:03Z</time>
      </trkpt>
      <trkpt lat="42.8550500" lon="-5.9399780">
        <ele>1485.0</ele>
        <time>2021-10-11T13:04:07Z</time>
      </trkpt>
      <trkpt lat="42.8550180" lon="-5.9400040">
        <ele>1485.0</ele>
        <time>2021-10-11T13:04:09Z</time>
      </trkpt>
      <trkpt lat="42.8550030" lon="-5.9400170">
        <ele>1485.0</ele>
        <time>2021-10-11T13:04:10Z</time>
      </trkpt>
      <trkpt lat="42.8549440" lon="-5.9400730">
        <ele>1485.4</ele>
        <time>2021-10-11T13:04:14Z</time>
      </trkpt>
      <trkpt lat="42.8549200" lon="-5.9401010">
        <ele>1485.8</ele>
        <time>2021-10-11T13:04:16Z</time>
      </trkpt>
      <trkpt lat="42.8548970" lon="-5.9401270">
        <ele>1486.0</ele>
        <time>2021-10-11T13:04:18Z</time>
      </trkpt>
      <trkpt lat="42.8548840" lon="-5.9401380">
        <ele>1486.2</ele>
        <time>2021-10-11T13:04:19Z</time>
      </trkpt>
      <trkpt lat="42.8548700" lon="-5.9401480">
        <ele>1486.2</ele>
        <time>2021-10-11T13:04:20Z</time>
      </trkpt>
      <trkpt lat="42.8548010" lon="-5.9401950">
        <ele>1486.6</ele>
        <time>2021-10-11T13:04:25Z</time>
      </trkpt>
      <trkpt lat="42.8547830" lon="-5.9402040">
        <ele>1486.6</ele>
        <time>2021-10-11T13:04:26Z</time>
      </trkpt>
      <trkpt lat="42.8547560" lon="-5.9402130">
        <ele>1486.8</ele>
        <time>2021-10-11T13:04:28Z</time>
      </trkpt>
      <trkpt lat="42.8546920" lon="-5.9402380">
        <ele>1486.8</ele>
        <time>2021-10-11T13:04:32Z</time>
      </trkpt>
      <trkpt lat="42.8546650" lon="-5.9402540">
        <ele>1487.0</ele>
        <time>2021-10-11T13:04:34Z</time>
      </trkpt>
      <trkpt lat="42.8546320" lon="-5.9402760">
        <ele>1487.0</ele>
        <time>2021-10-11T13:04:36Z</time>
      </trkpt>
      <trkpt lat="42.8546050" lon="-5.9403020">
        <ele>1487.0</ele>
        <time>2021-10-11T13:04:38Z</time>
      </trkpt>
      <trkpt lat="42.8545840" lon="-5.9403240">
        <ele>1487.2</ele>
        <time>2021-10-11T13:04:40Z</time>
      </trkpt>
      <trkpt lat="42.8545350" lon="-5.9403890">
        <ele>1487.4</ele>
        <time>2021-10-11T13:04:44Z</time>
      </trkpt>
      <trkpt lat="42.8544900" lon="-5.9404540">
        <ele>1488.0</ele>
        <time>2021-10-11T13:04:48Z</time>
      </trkpt>
      <trkpt lat="42.8544780" lon="-5.9404680">
        <ele>1488.0</ele>
        <time>2021-10-11T13:04:49Z</time>
      </trkpt>
      <trkpt lat="42.8544480" lon="-5.9405230">
        <ele>1488.4</ele>
        <time>2021-10-11T13:04:52Z</time>
      </trkpt>
      <trkpt lat="42.8543920" lon="-5.9406370">
        <ele>1488.8</ele>
        <time>2021-10-11T13:04:59Z</time>
      </trkpt>
      <trkpt lat="42.8543700" lon="-5.9406770">
        <ele>1488.8</ele>
        <time>2021-10-11T13:05:02Z</time>
      </trkpt>
      <trkpt lat="42.8543600" lon="-5.9406950">
        <ele>1489.0</ele>
        <time>2021-10-11T13:05:03Z</time>
      </trkpt>
      <trkpt lat="42.8543530" lon="-5.9407060">
        <ele>1489.0</ele>
        <time>2021-10-11T13:05:04Z</time>
      </trkpt>
      <trkpt lat="42.8543400" lon="-5.9407220">
        <ele>1489.2</ele>
        <time>2021-10-11T13:05:05Z</time>
      </trkpt>
      <trkpt lat="42.8543310" lon="-5.9407330">
        <ele>1489.2</ele>
        <time>2021-10-11T13:05:06Z</time>
      </trkpt>
      <trkpt lat="42.8542920" lon="-5.9407750">
        <ele>1489.4</ele>
        <time>2021-10-11T13:05:09Z</time>
      </trkpt>
      <trkpt lat="42.8542430" lon="-5.9408350">
        <ele>1489.8</ele>
        <time>2021-10-11T13:05:13Z</time>
      </trkpt>
      <trkpt lat="42.8542190" lon="-5.9408660">
        <ele>1490.0</ele>
        <time>2021-10-11T13:05:15Z</time>
      </trkpt>
      <trkpt lat="42.8542070" lon="-5.9408780">
        <ele>1490.0</ele>
        <time>2021-10-11T13:05:16Z</time>
      </trkpt>
      <trkpt lat="42.8541890" lon="-5.9408960">
        <ele>1490.2</ele>
        <time>2021-10-11T13:05:17Z</time>
      </trkpt>
      <trkpt lat="42.8541780" lon="-5.9409070">
        <ele>1490.2</ele>
        <time>2021-10-11T13:05:18Z</time>
      </trkpt>
      <trkpt lat="42.8541470" lon="-5.9409330">
        <ele>1490.4</ele>
        <time>2021-10-11T13:05:20Z</time>
      </trkpt>
      <trkpt lat="42.8541200" lon="-5.9409510">
        <ele>1490.6</ele>
        <time>2021-10-11T13:05:22Z</time>
      </trkpt>
      <trkpt lat="42.8540720" lon="-5.9409770">
        <ele>1491.0</ele>
        <time>2021-10-11T13:05:25Z</time>
      </trkpt>
      <trkpt lat="42.8540600" lon="-5.9409840">
        <ele>1491.0</ele>
        <time>2021-10-11T13:05:26Z</time>
      </trkpt>
      <trkpt lat="42.8540390" lon="-5.9410040">
        <ele>1491.2</ele>
        <time>2021-10-11T13:05:28Z</time>
      </trkpt>
      <trkpt lat="42.8540180" lon="-5.9410380">
        <ele>1491.4</ele>
        <time>2021-10-11T13:05:30Z</time>
      </trkpt>
      <trkpt lat="42.8540090" lon="-5.9410540">
        <ele>1491.4</ele>
        <time>2021-10-11T13:05:31Z</time>
      </trkpt>
      <trkpt lat="42.8539870" lon="-5.9410900">
        <ele>1491.8</ele>
        <time>2021-10-11T13:05:33Z</time>
      </trkpt>
      <trkpt lat="42.8539630" lon="-5.9411300">
        <ele>1492.0</ele>
        <time>2021-10-11T13:05:35Z</time>
      </trkpt>
      <trkpt lat="42.8539530" lon="-5.9411480">
        <ele>1492.0</ele>
        <time>2021-10-11T13:05:36Z</time>
      </trkpt>
      <trkpt lat="42.8539330" lon="-5.9411850">
        <ele>1492.2</ele>
        <time>2021-10-11T13:05:38Z</time>
      </trkpt>
      <trkpt lat="42.8538960" lon="-5.9412400">
        <ele>1492.2</ele>
        <time>2021-10-11T13:05:41Z</time>
      </trkpt>
      <trkpt lat="42.8538820" lon="-5.9412610">
        <ele>1492.2</ele>
        <time>2021-10-11T13:05:42Z</time>
      </trkpt>
      <trkpt lat="42.8538070" lon="-5.9413820">
        <ele>1492.4</ele>
        <time>2021-10-11T13:05:48Z</time>
      </trkpt>
      <trkpt lat="42.8537310" lon="-5.9415120">
        <ele>1492.6</ele>
        <time>2021-10-11T13:05:56Z</time>
      </trkpt>
      <trkpt lat="42.8537290" lon="-5.9415130">
        <ele>1492.6</ele>
        <time>2021-10-11T13:05:59Z</time>
      </trkpt>
      <trkpt lat="42.8536840" lon="-5.9415370">
        <ele>1493.0</ele>
        <time>2021-10-11T13:09:04Z</time>
      </trkpt>
      <trkpt lat="42.8536660" lon="-5.9415500">
        <ele>1493.0</ele>
        <time>2021-10-11T13:09:05Z</time>
      </trkpt>
      <trkpt lat="42.8535990" lon="-5.9416220">
        <ele>1493.0</ele>
        <time>2021-10-11T13:09:09Z</time>
      </trkpt>
      <trkpt lat="42.8535500" lon="-5.9416810">
        <ele>1493.0</ele>
        <time>2021-10-11T13:09:12Z</time>
      </trkpt>
      <trkpt lat="42.8534580" lon="-5.9417680">
        <ele>1492.6</ele>
        <time>2021-10-11T13:09:16Z</time>
      </trkpt>
      <trkpt lat="42.8534030" lon="-5.9418190">
        <ele>1492.6</ele>
        <time>2021-10-11T13:09:18Z</time>
      </trkpt>
      <trkpt lat="42.8532240" lon="-5.9419790">
        <ele>1491.8</ele>
        <time>2021-10-11T13:09:24Z</time>
      </trkpt>
      <trkpt lat="42.8531180" lon="-5.9420620">
        <ele>1491.4</ele>
        <time>2021-10-11T13:09:27Z</time>
      </trkpt>
      <trkpt lat="42.8530140" lon="-5.9421900">
        <ele>1490.8</ele>
        <time>2021-10-11T13:09:30Z</time>
      </trkpt>
      <trkpt lat="42.8529430" lon="-5.9422610">
        <ele>1490.2</ele>
        <time>2021-10-11T13:09:32Z</time>
      </trkpt>
      <trkpt lat="42.8529060" lon="-5.9422950">
        <ele>1490.0</ele>
        <time>2021-10-11T13:09:33Z</time>
      </trkpt>
      <trkpt lat="42.8528330" lon="-5.9423690">
        <ele>1489.8</ele>
        <time>2021-10-11T13:09:35Z</time>
      </trkpt>
      <trkpt lat="42.8528020" lon="-5.9423880">
        <ele>1489.8</ele>
        <time>2021-10-11T13:09:36Z</time>
      </trkpt>
      <trkpt lat="42.8527640" lon="-5.9424070">
        <ele>1489.6</ele>
        <time>2021-10-11T13:09:37Z</time>
      </trkpt>
      <trkpt lat="42.8526330" lon="-5.9424900">
        <ele>1488.2</ele>
        <time>2021-10-11T13:09:41Z</time>
      </trkpt>
      <trkpt lat="42.8525870" lon="-5.9425610">
        <ele>1488.0</ele>
        <time>2021-10-11T13:09:43Z</time>
      </trkpt>
      <trkpt lat="42.8525080" lon="-5.9426530">
        <ele>1487.8</ele>
        <time>2021-10-11T13:09:46Z</time>
      </trkpt>
      <trkpt lat="42.8524450" lon="-5.9426970">
        <ele>1488.2</ele>
        <time>2021-10-11T13:09:48Z</time>
      </trkpt>
      <trkpt lat="42.8522990" lon="-5.9427900">
        <ele>1488.0</ele>
        <time>2021-10-11T13:09:53Z</time>
      </trkpt>
      <trkpt lat="42.8521740" lon="-5.9428830">
        <ele>1488.2</ele>
        <time>2021-10-11T13:09:57Z</time>
      </trkpt>
      <trkpt lat="42.8520380" lon="-5.9429960">
        <ele>1488.2</ele>
        <time>2021-10-11T13:10:02Z</time>
      </trkpt>
      <trkpt lat="42.8518830" lon="-5.9431310">
        <ele>1488.8</ele>
        <time>2021-10-11T13:10:08Z</time>
      </trkpt>
      <trkpt lat="42.8518370" lon="-5.9431640">
        <ele>1489.2</ele>
        <time>2021-10-11T13:10:10Z</time>
      </trkpt>
      <trkpt lat="42.8517900" lon="-5.9432040">
        <ele>1489.4</ele>
        <time>2021-10-11T13:10:12Z</time>
      </trkpt>
      <trkpt lat="42.8516890" lon="-5.9432910">
        <ele>1490.4</ele>
        <time>2021-10-11T13:10:16Z</time>
      </trkpt>
      <trkpt lat="42.8516530" lon="-5.9433200">
        <ele>1490.6</ele>
        <time>2021-10-11T13:10:17Z</time>
      </trkpt>
      <trkpt lat="42.8516290" lon="-5.9433400">
        <ele>1490.6</ele>
        <time>2021-10-11T13:10:18Z</time>
      </trkpt>
      <trkpt lat="42.8515920" lon="-5.9433730">
        <ele>1490.8</ele>
        <time>2021-10-11T13:10:19Z</time>
      </trkpt>
      <trkpt lat="42.8514510" lon="-5.9434690">
        <ele>1490.8</ele>
        <time>2021-10-11T13:10:24Z</time>
      </trkpt>
      <trkpt lat="42.8513900" lon="-5.9435230">
        <ele>1490.8</ele>
        <time>2021-10-11T13:10:26Z</time>
      </trkpt>
      <trkpt lat="42.8512740" lon="-5.9436060">
        <ele>1490.8</ele>
        <time>2021-10-11T13:10:29Z</time>
      </trkpt>
      <trkpt lat="42.8509860" lon="-5.9437730">
        <ele>1490.4</ele>
        <time>2021-10-11T13:10:35Z</time>
      </trkpt>
      <trkpt lat="42.8508760" lon="-5.9438410">
        <ele>1490.4</ele>
        <time>2021-10-11T13:10:37Z</time>
      </trkpt>
      <trkpt lat="42.8508250" lon="-5.9438700">
        <ele>1490.2</ele>
        <time>2021-10-11T13:10:38Z</time>
      </trkpt>
      <trkpt lat="42.8507820" lon="-5.9438910">
        <ele>1490.0</ele>
        <time>2021-10-11T13:10:39Z</time>
      </trkpt>
      <trkpt lat="42.8507280" lon="-5.9439160">
        <ele>1490.0</ele>
        <time>2021-10-11T13:10:40Z</time>
      </trkpt>
      <trkpt lat="42.8505660" lon="-5.9439880">
        <ele>1489.8</ele>
        <time>2021-10-11T13:10:43Z</time>
      </trkpt>
      <trkpt lat="42.8503960" lon="-5.9440450">
        <ele>1489.6</ele>
        <time>2021-10-11T13:10:46Z</time>
      </trkpt>
      <trkpt lat="42.8503410" lon="-5.9440590">
        <ele>1489.2</ele>
        <time>2021-10-11T13:10:47Z</time>
      </trkpt>
      <trkpt lat="42.8502350" lon="-5.9440940">
        <ele>1488.8</ele>
        <time>2021-10-11T13:10:49Z</time>
      </trkpt>
      <trkpt lat="42.8500710" lon="-5.9441620">
        <ele>1488.2</ele>
        <time>2021-10-11T13:10:52Z</time>
      </trkpt>
      <trkpt lat="42.8499580" lon="-5.9442030">
        <ele>1487.6</ele>
        <time>2021-10-11T13:10:54Z</time>
      </trkpt>
      <trkpt lat="42.8498470" lon="-5.9442150">
        <ele>1487.2</ele>
        <time>2021-10-11T13:10:56Z</time>
      </trkpt>
      <trkpt lat="42.8497940" lon="-5.9442180">
        <ele>1487.0</ele>
        <time>2021-10-11T13:10:57Z</time>
      </trkpt>
      <trkpt lat="42.8495940" lon="-5.9442280">
        <ele>1487.0</ele>
        <time>2021-10-11T13:11:01Z</time>
      </trkpt>
      <trkpt lat="42.8494520" lon="-5.9442180">
        <ele>1486.8</ele>
        <time>2021-10-11T13:11:04Z</time>
      </trkpt>
      <trkpt lat="42.8494060" lon="-5.9442130">
        <ele>1486.8</ele>
        <time>2021-10-11T13:11:05Z</time>
      </trkpt>
      <trkpt lat="42.8492600" lon="-5.9442000">
        <ele>1486.2</ele>
        <time>2021-10-11T13:11:08Z</time>
      </trkpt>
      <trkpt lat="42.8492070" lon="-5.9441880">
        <ele>1486.2</ele>
        <time>2021-10-11T13:11:09Z</time>
      </trkpt>
      <trkpt lat="42.8491560" lon="-5.9441700">
        <ele>1486.0</ele>
        <time>2021-10-11T13:11:10Z</time>
      </trkpt>
      <trkpt lat="42.8490950" lon="-5.9441450">
        <ele>1486.0</ele>
        <time>2021-10-11T13:11:11Z</time>
      </trkpt>
      <trkpt lat="42.8490090" lon="-5.9440920">
        <ele>1485.6</ele>
        <time>2021-10-11T13:11:13Z</time>
      </trkpt>
      <trkpt lat="42.8489140" lon="-5.9440260">
        <ele>1485.2</ele>
        <time>2021-10-11T13:11:15Z</time>
      </trkpt>
      <trkpt lat="42.8488640" lon="-5.9439740">
        <ele>1485.2</ele>
        <time>2021-10-11T13:11:16Z</time>
      </trkpt>
      <trkpt lat="42.8487820" lon="-5.9438870">
        <ele>1485.0</ele>
        <time>2021-10-11T13:11:18Z</time>
      </trkpt>
      <trkpt lat="42.8486130" lon="-5.9437700">
        <ele>1484.4</ele>
        <time>2021-10-11T13:11:22Z</time>
      </trkpt>
      <trkpt lat="42.8485580" lon="-5.9437370">
        <ele>1484.2</ele>
        <time>2021-10-11T13:11:23Z</time>
      </trkpt>
      <trkpt lat="42.8484250" lon="-5.9436520">
        <ele>1483.8</ele>
        <time>2021-10-11T13:11:26Z</time>
      </trkpt>
      <trkpt lat="42.8483610" lon="-5.9436190">
        <ele>1483.8</ele>
        <time>2021-10-11T13:11:27Z</time>
      </trkpt>
      <trkpt lat="42.8482650" lon="-5.9435760">
        <ele>1483.8</ele>
        <time>2021-10-11T13:11:29Z</time>
      </trkpt>
      <trkpt lat="42.8481630" lon="-5.9435320">
        <ele>1483.8</ele>
        <time>2021-10-11T13:11:31Z</time>
      </trkpt>
      <trkpt lat="42.8479770" lon="-5.9434680">
        <ele>1484.0</ele>
        <time>2021-10-11T13:11:35Z</time>
      </trkpt>
      <trkpt lat="42.8478850" lon="-5.9434610">
        <ele>1484.4</ele>
        <time>2021-10-11T13:11:37Z</time>
      </trkpt>
      <trkpt lat="42.8477750" lon="-5.9434770">
        <ele>1484.8</ele>
        <time>2021-10-11T13:11:40Z</time>
      </trkpt>
      <trkpt lat="42.8476890" lon="-5.9434960">
        <ele>1485.2</ele>
        <time>2021-10-11T13:11:42Z</time>
      </trkpt>
      <trkpt lat="42.8476130" lon="-5.9435140">
        <ele>1485.6</ele>
        <time>2021-10-11T13:11:44Z</time>
      </trkpt>
      <trkpt lat="42.8472850" lon="-5.9435690">
        <ele>1486.2</ele>
        <time>2021-10-11T13:11:51Z</time>
      </trkpt>
      <trkpt lat="42.8472020" lon="-5.9435830">
        <ele>1486.2</ele>
        <time>2021-10-11T13:11:53Z</time>
      </trkpt>
      <trkpt lat="42.8471100" lon="-5.9435980">
        <ele>1486.0</ele>
        <time>2021-10-11T13:11:55Z</time>
      </trkpt>
      <trkpt lat="42.8469370" lon="-5.9436570">
        <ele>1486.0</ele>
        <time>2021-10-11T13:11:59Z</time>
      </trkpt>
      <trkpt lat="42.8466420" lon="-5.9437490">
        <ele>1485.4</ele>
        <time>2021-10-11T13:12:05Z</time>
      </trkpt>
      <trkpt lat="42.8465470" lon="-5.9437780">
        <ele>1485.2</ele>
        <time>2021-10-11T13:12:07Z</time>
      </trkpt>
      <trkpt lat="42.8465070" lon="-5.9437880">
        <ele>1485.0</ele>
        <time>2021-10-11T13:12:08Z</time>
      </trkpt>
      <trkpt lat="42.8462830" lon="-5.9438280">
        <ele>1484.6</ele>
        <time>2021-10-11T13:12:12Z</time>
      </trkpt>
      <trkpt lat="42.8461250" lon="-5.9438360">
        <ele>1484.4</ele>
        <time>2021-10-11T13:12:15Z</time>
      </trkpt>
      <trkpt lat="42.8460730" lon="-5.9438370">
        <ele>1484.4</ele>
        <time>2021-10-11T13:12:16Z</time>
      </trkpt>
      <trkpt lat="42.8458230" lon="-5.9438450">
        <ele>1484.2</ele>
        <time>2021-10-11T13:12:21Z</time>
      </trkpt>
      <trkpt lat="42.8455000" lon="-5.9438500">
        <ele>1484.0</ele>
        <time>2021-10-11T13:12:27Z</time>
      </trkpt>
      <trkpt lat="42.8453470" lon="-5.9438680">
        <ele>1484.0</ele>
        <time>2021-10-11T13:12:30Z</time>
      </trkpt>
      <trkpt lat="42.8451070" lon="-5.9438560">
        <ele>1483.8</ele>
        <time>2021-10-11T13:12:34Z</time>
      </trkpt>
      <trkpt lat="42.8450030" lon="-5.9438540">
        <ele>1483.6</ele>
        <time>2021-10-11T13:12:36Z</time>
      </trkpt>
      <trkpt lat="42.8449320" lon="-5.9438580">
        <ele>1483.6</ele>
        <time>2021-10-11T13:12:37Z</time>
      </trkpt>
      <trkpt lat="42.8448710" lon="-5.9438600">
        <ele>1483.0</ele>
        <time>2021-10-11T13:12:38Z</time>
      </trkpt>
      <trkpt lat="42.8446850" lon="-5.9438410">
        <ele>1482.0</ele>
        <time>2021-10-11T13:12:41Z</time>
      </trkpt>
      <trkpt lat="42.8445270" lon="-5.9438050">
        <ele>1481.4</ele>
        <time>2021-10-11T13:12:43Z</time>
      </trkpt>
      <trkpt lat="42.8444560" lon="-5.9437870">
        <ele>1481.0</ele>
        <time>2021-10-11T13:12:44Z</time>
      </trkpt>
      <trkpt lat="42.8443280" lon="-5.9437680">
        <ele>1479.6</ele>
        <time>2021-10-11T13:12:46Z</time>
      </trkpt>
      <trkpt lat="42.8441160" lon="-5.9437440">
        <ele>1479.0</ele>
        <time>2021-10-11T13:12:49Z</time>
      </trkpt>
      <trkpt lat="42.8440440" lon="-5.9437410">
        <ele>1478.4</ele>
        <time>2021-10-11T13:12:50Z</time>
      </trkpt>
      <trkpt lat="42.8438980" lon="-5.9437260">
        <ele>1477.8</ele>
        <time>2021-10-11T13:12:52Z</time>
      </trkpt>
      <trkpt lat="42.8438330" lon="-5.9437140">
        <ele>1477.6</ele>
        <time>2021-10-11T13:12:53Z</time>
      </trkpt>
      <trkpt lat="42.8437700" lon="-5.9437000">
        <ele>1477.4</ele>
        <time>2021-10-11T13:12:54Z</time>
      </trkpt>
      <trkpt lat="42.8437220" lon="-5.9436990">
        <ele>1477.2</ele>
        <time>2021-10-11T13:12:55Z</time>
      </trkpt>
      <trkpt lat="42.8436600" lon="-5.9437040">
        <ele>1477.2</ele>
        <time>2021-10-11T13:12:56Z</time>
      </trkpt>
      <trkpt lat="42.8434720" lon="-5.9437460">
        <ele>1476.8</ele>
        <time>2021-10-11T13:12:59Z</time>
      </trkpt>
      <trkpt lat="42.8433700" lon="-5.9437870">
        <ele>1476.6</ele>
        <time>2021-10-11T13:13:01Z</time>
      </trkpt>
      <trkpt lat="42.8433140" lon="-5.9438140">
        <ele>1476.6</ele>
        <time>2021-10-11T13:13:02Z</time>
      </trkpt>
      <trkpt lat="42.8430030" lon="-5.9439670">
        <ele>1475.8</ele>
        <time>2021-10-11T13:13:08Z</time>
      </trkpt>
      <trkpt lat="42.8429410" lon="-5.9439870">
        <ele>1475.6</ele>
        <time>2021-10-11T13:13:09Z</time>
      </trkpt>
      <trkpt lat="42.8429010" lon="-5.9439980">
        <ele>1475.4</ele>
        <time>2021-10-11T13:13:10Z</time>
      </trkpt>
      <trkpt lat="42.8427040" lon="-5.9440510">
        <ele>1475.0</ele>
        <time>2021-10-11T13:13:14Z</time>
      </trkpt>
      <trkpt lat="42.8426090" lon="-5.9440640">
        <ele>1474.6</ele>
        <time>2021-10-11T13:13:16Z</time>
      </trkpt>
      <trkpt lat="42.8425240" lon="-5.9440890">
        <ele>1474.4</ele>
        <time>2021-10-11T13:13:18Z</time>
      </trkpt>
      <trkpt lat="42.8424730" lon="-5.9441050">
        <ele>1474.4</ele>
        <time>2021-10-11T13:13:19Z</time>
      </trkpt>
      <trkpt lat="42.8423950" lon="-5.9441310">
        <ele>1474.0</ele>
        <time>2021-10-11T13:13:21Z</time>
      </trkpt>
      <trkpt lat="42.8423640" lon="-5.9441450">
        <ele>1474.0</ele>
        <time>2021-10-11T13:13:22Z</time>
      </trkpt>
      <trkpt lat="42.8422690" lon="-5.9441800">
        <ele>1473.6</ele>
        <time>2021-10-11T13:13:24Z</time>
      </trkpt>
      <trkpt lat="42.8422230" lon="-5.9441870">
        <ele>1473.2</ele>
        <time>2021-10-11T13:13:25Z</time>
      </trkpt>
      <trkpt lat="42.8421430" lon="-5.9442030">
        <ele>1472.8</ele>
        <time>2021-10-11T13:13:27Z</time>
      </trkpt>
      <trkpt lat="42.8420020" lon="-5.9442290">
        <ele>1471.6</ele>
        <time>2021-10-11T13:13:30Z</time>
      </trkpt>
      <trkpt lat="42.8417990" lon="-5.9442400">
        <ele>1470.2</ele>
        <time>2021-10-11T13:13:34Z</time>
      </trkpt>
      <trkpt lat="42.8416890" lon="-5.9442310">
        <ele>1469.2</ele>
        <time>2021-10-11T13:13:36Z</time>
      </trkpt>
      <trkpt lat="42.8416440" lon="-5.9442330">
        <ele>1469.0</ele>
        <time>2021-10-11T13:13:37Z</time>
      </trkpt>
      <trkpt lat="42.8415720" lon="-5.9442440">
        <ele>1468.6</ele>
        <time>2021-10-11T13:13:38Z</time>
      </trkpt>
      <trkpt lat="42.8415240" lon="-5.9442560">
        <ele>1468.0</ele>
        <time>2021-10-11T13:13:39Z</time>
      </trkpt>
      <trkpt lat="42.8413930" lon="-5.9442970">
        <ele>1466.4</ele>
        <time>2021-10-11T13:13:41Z</time>
      </trkpt>
      <trkpt lat="42.8412770" lon="-5.9443400">
        <ele>1465.0</ele>
        <time>2021-10-11T13:13:43Z</time>
      </trkpt>
      <trkpt lat="42.8411970" lon="-5.9443690">
        <ele>1464.4</ele>
        <time>2021-10-11T13:13:44Z</time>
      </trkpt>
      <trkpt lat="42.8411320" lon="-5.9443880">
        <ele>1463.2</ele>
        <time>2021-10-11T13:13:45Z</time>
      </trkpt>
      <trkpt lat="42.8410110" lon="-5.9444090">
        <ele>1461.4</ele>
        <time>2021-10-11T13:13:47Z</time>
      </trkpt>
      <trkpt lat="42.8408650" lon="-5.9444240">
        <ele>1460.0</ele>
        <time>2021-10-11T13:13:49Z</time>
      </trkpt>
      <trkpt lat="42.8407430" lon="-5.9444540">
        <ele>1458.4</ele>
        <time>2021-10-11T13:13:51Z</time>
      </trkpt>
      <trkpt lat="42.8406120" lon="-5.9444820">
        <ele>1457.8</ele>
        <time>2021-10-11T13:13:53Z</time>
      </trkpt>
      <trkpt lat="42.8405350" lon="-5.9444890">
        <ele>1457.2</ele>
        <time>2021-10-11T13:13:54Z</time>
      </trkpt>
      <trkpt lat="42.8404720" lon="-5.9444960">
        <ele>1456.8</ele>
        <time>2021-10-11T13:13:55Z</time>
      </trkpt>
      <trkpt lat="42.8404200" lon="-5.9445020">
        <ele>1456.2</ele>
        <time>2021-10-11T13:13:56Z</time>
      </trkpt>
      <trkpt lat="42.8403540" lon="-5.9445120">
        <ele>1456.0</ele>
        <time>2021-10-11T13:13:57Z</time>
      </trkpt>
      <trkpt lat="42.8401320" lon="-5.9445740">
        <ele>1454.8</ele>
        <time>2021-10-11T13:14:00Z</time>
      </trkpt>
      <trkpt lat="42.8400050" lon="-5.9446220">
        <ele>1454.2</ele>
        <time>2021-10-11T13:14:02Z</time>
      </trkpt>
      <trkpt lat="42.8398550" lon="-5.9446810">
        <ele>1453.8</ele>
        <time>2021-10-11T13:14:04Z</time>
      </trkpt>
      <trkpt lat="42.8397350" lon="-5.9447240">
        <ele>1453.4</ele>
        <time>2021-10-11T13:14:06Z</time>
      </trkpt>
      <trkpt lat="42.8396010" lon="-5.9447890">
        <ele>1453.0</ele>
        <time>2021-10-11T13:14:08Z</time>
      </trkpt>
      <trkpt lat="42.8394920" lon="-5.9448620">
        <ele>1452.8</ele>
        <time>2021-10-11T13:14:10Z</time>
      </trkpt>
      <trkpt lat="42.8393990" lon="-5.9449270">
        <ele>1452.4</ele>
        <time>2021-10-11T13:14:12Z</time>
      </trkpt>
      <trkpt lat="42.8393410" lon="-5.9449760">
        <ele>1452.2</ele>
        <time>2021-10-11T13:14:13Z</time>
      </trkpt>
      <trkpt lat="42.8392480" lon="-5.9450530">
        <ele>1451.8</ele>
        <time>2021-10-11T13:14:15Z</time>
      </trkpt>
      <trkpt lat="42.8392090" lon="-5.9450770">
        <ele>1451.2</ele>
        <time>2021-10-11T13:14:16Z</time>
      </trkpt>
      <trkpt lat="42.8390620" lon="-5.9451830">
        <ele>1450.4</ele>
        <time>2021-10-11T13:14:19Z</time>
      </trkpt>
      <trkpt lat="42.8390170" lon="-5.9452100">
        <ele>1450.2</ele>
        <time>2021-10-11T13:14:20Z</time>
      </trkpt>
      <trkpt lat="42.8389350" lon="-5.9452410">
        <ele>1450.0</ele>
        <time>2021-10-11T13:14:22Z</time>
      </trkpt>
      <trkpt lat="42.8388330" lon="-5.9452690">
        <ele>1449.6</ele>
        <time>2021-10-11T13:14:24Z</time>
      </trkpt>
      <trkpt lat="42.8386350" lon="-5.9452820">
        <ele>1449.4</ele>
        <time>2021-10-11T13:14:28Z</time>
      </trkpt>
      <trkpt lat="42.8385490" lon="-5.9452780">
        <ele>1449.2</ele>
        <time>2021-10-11T13:14:30Z</time>
      </trkpt>
      <trkpt lat="42.8385020" lon="-5.9452730">
        <ele>1449.2</ele>
        <time>2021-10-11T13:14:31Z</time>
      </trkpt>
      <trkpt lat="42.8384030" lon="-5.9452700">
        <ele>1449.2</ele>
        <time>2021-10-11T13:14:33Z</time>
      </trkpt>
      <trkpt lat="42.8382370" lon="-5.9452470">
        <ele>1449.2</ele>
        <time>2021-10-11T13:14:37Z</time>
      </trkpt>
      <trkpt lat="42.8379490" lon="-5.9451840">
        <ele>1448.2</ele>
        <time>2021-10-11T13:14:43Z</time>
      </trkpt>
      <trkpt lat="42.8379020" lon="-5.9451730">
        <ele>1448.0</ele>
        <time>2021-10-11T13:14:44Z</time>
      </trkpt>
      <trkpt lat="42.8377240" lon="-5.9450930">
        <ele>1447.0</ele>
        <time>2021-10-11T13:14:48Z</time>
      </trkpt>
      <trkpt lat="42.8375910" lon="-5.9450210">
        <ele>1446.0</ele>
        <time>2021-10-11T13:14:51Z</time>
      </trkpt>
      <trkpt lat="42.8375430" lon="-5.9449920">
        <ele>1445.8</ele>
        <time>2021-10-11T13:14:52Z</time>
      </trkpt>
      <trkpt lat="42.8374400" lon="-5.9449310">
        <ele>1445.0</ele>
        <time>2021-10-11T13:14:54Z</time>
      </trkpt>
      <trkpt lat="42.8372100" lon="-5.9448070">
        <ele>1444.4</ele>
        <time>2021-10-11T13:14:59Z</time>
      </trkpt>
      <trkpt lat="42.8371420" lon="-5.9447650">
        <ele>1444.0</ele>
        <time>2021-10-11T13:15:01Z</time>
      </trkpt>
      <trkpt lat="42.8370570" lon="-5.9447040">
        <ele>1443.4</ele>
        <time>2021-10-11T13:15:03Z</time>
      </trkpt>
      <trkpt lat="42.8370190" lon="-5.9446690">
        <ele>1442.8</ele>
        <time>2021-10-11T13:15:04Z</time>
      </trkpt>
      <trkpt lat="42.8368980" lon="-5.9445700">
        <ele>1441.8</ele>
        <time>2021-10-11T13:15:07Z</time>
      </trkpt>
      <trkpt lat="42.8366400" lon="-5.9442660">
        <ele>1440.6</ele>
        <time>2021-10-11T13:15:14Z</time>
      </trkpt>
      <trkpt lat="42.8366110" lon="-5.9442240">
        <ele>1440.6</ele>
        <time>2021-10-11T13:15:15Z</time>
      </trkpt>
      <trkpt lat="42.8365350" lon="-5.9440230">
        <ele>1439.4</ele>
        <time>2021-10-11T13:15:18Z</time>
      </trkpt>
      <trkpt lat="42.8365180" lon="-5.9439550">
        <ele>1439.0</ele>
        <time>2021-10-11T13:15:19Z</time>
      </trkpt>
      <trkpt lat="42.8364980" lon="-5.9437210">
        <ele>1438.0</ele>
        <time>2021-10-11T13:15:22Z</time>
      </trkpt>
      <trkpt lat="42.8364830" lon="-5.9434920">
        <ele>1436.6</ele>
        <time>2021-10-11T13:15:25Z</time>
      </trkpt>
      <trkpt lat="42.8364450" lon="-5.9432320">
        <ele>1435.2</ele>
        <time>2021-10-11T13:15:29Z</time>
      </trkpt>
      <trkpt lat="42.8364630" lon="-5.9430930">
        <ele>1433.8</ele>
        <time>2021-10-11T13:15:31Z</time>
      </trkpt>
      <trkpt lat="42.8364730" lon="-5.9430070">
        <ele>1433.4</ele>
        <time>2021-10-11T13:15:32Z</time>
      </trkpt>
      <trkpt lat="42.8364730" lon="-5.9429180">
        <ele>1432.8</ele>
        <time>2021-10-11T13:15:33Z</time>
      </trkpt>
      <trkpt lat="42.8364630" lon="-5.9428310">
        <ele>1432.4</ele>
        <time>2021-10-11T13:15:34Z</time>
      </trkpt>
      <trkpt lat="42.8364480" lon="-5.9427460">
        <ele>1431.6</ele>
        <time>2021-10-11T13:15:35Z</time>
      </trkpt>
      <trkpt lat="42.8364040" lon="-5.9426070">
        <ele>1430.2</ele>
        <time>2021-10-11T13:15:37Z</time>
      </trkpt>
      <trkpt lat="42.8363120" lon="-5.9424130">
        <ele>1429.0</ele>
        <time>2021-10-11T13:15:40Z</time>
      </trkpt>
      <trkpt lat="42.8362420" lon="-5.9422870">
        <ele>1428.4</ele>
        <time>2021-10-11T13:15:42Z</time>
      </trkpt>
      <trkpt lat="42.8362010" lon="-5.9422370">
        <ele>1428.2</ele>
        <time>2021-10-11T13:15:43Z</time>
      </trkpt>
      <trkpt lat="42.8361190" lon="-5.9421380">
        <ele>1427.8</ele>
        <time>2021-10-11T13:15:45Z</time>
      </trkpt>
      <trkpt lat="42.8360500" lon="-5.9420090">
        <ele>1426.0</ele>
        <time>2021-10-11T13:15:47Z</time>
      </trkpt>
      <trkpt lat="42.8360080" lon="-5.9419420">
        <ele>1425.6</ele>
        <time>2021-10-11T13:15:48Z</time>
      </trkpt>
      <trkpt lat="42.8359600" lon="-5.9418800">
        <ele>1424.8</ele>
        <time>2021-10-11T13:15:49Z</time>
      </trkpt>
      <trkpt lat="42.8358620" lon="-5.9417540">
        <ele>1423.0</ele>
        <time>2021-10-11T13:15:51Z</time>
      </trkpt>
      <trkpt lat="42.8358210" lon="-5.9416900">
        <ele>1422.4</ele>
        <time>2021-10-11T13:15:52Z</time>
      </trkpt>
      <trkpt lat="42.8357870" lon="-5.9416250">
        <ele>1421.4</ele>
        <time>2021-10-11T13:15:53Z</time>
      </trkpt>
      <trkpt lat="42.8357220" lon="-5.9414960">
        <ele>1420.2</ele>
        <time>2021-10-11T13:15:55Z</time>
      </trkpt>
      <trkpt lat="42.8356140" lon="-5.9412890">
        <ele>1418.8</ele>
        <time>2021-10-11T13:15:58Z</time>
      </trkpt>
      <trkpt lat="42.8355680" lon="-5.9412260">
        <ele>1418.8</ele>
        <time>2021-10-11T13:15:59Z</time>
      </trkpt>
      <trkpt lat="42.8355180" lon="-5.9411670">
        <ele>1418.2</ele>
        <time>2021-10-11T13:16:00Z</time>
      </trkpt>
      <trkpt lat="42.8354690" lon="-5.9411050">
        <ele>1417.8</ele>
        <time>2021-10-11T13:16:01Z</time>
      </trkpt>
      <trkpt lat="42.8354260" lon="-5.9410450">
        <ele>1416.6</ele>
        <time>2021-10-11T13:16:02Z</time>
      </trkpt>
      <trkpt lat="42.8353490" lon="-5.9409190">
        <ele>1415.0</ele>
        <time>2021-10-11T13:16:04Z</time>
      </trkpt>
      <trkpt lat="42.8353100" lon="-5.9408520">
        <ele>1414.6</ele>
        <time>2021-10-11T13:16:05Z</time>
      </trkpt>
      <trkpt lat="42.8352710" lon="-5.9407870">
        <ele>1414.0</ele>
        <time>2021-10-11T13:16:06Z</time>
      </trkpt>
      <trkpt lat="42.8351580" lon="-5.9405860">
        <ele>1412.4</ele>
        <time>2021-10-11T13:16:09Z</time>
      </trkpt>
      <trkpt lat="42.8350950" lon="-5.9404590">
        <ele>1411.2</ele>
        <time>2021-10-11T13:16:11Z</time>
      </trkpt>
      <trkpt lat="42.8350690" lon="-5.9403960">
        <ele>1410.8</ele>
        <time>2021-10-11T13:16:12Z</time>
      </trkpt>
      <trkpt lat="42.8350460" lon="-5.9403340">
        <ele>1410.0</ele>
        <time>2021-10-11T13:16:13Z</time>
      </trkpt>
      <trkpt lat="42.8349910" lon="-5.9402400">
        <ele>1408.6</ele>
        <time>2021-10-11T13:16:15Z</time>
      </trkpt>
      <trkpt lat="42.8349600" lon="-5.9402070">
        <ele>1408.4</ele>
        <time>2021-10-11T13:16:16Z</time>
      </trkpt>
      <trkpt lat="42.8349270" lon="-5.9401860">
        <ele>1407.2</ele>
        <time>2021-10-11T13:16:17Z</time>
      </trkpt>
      <trkpt lat="42.8348910" lon="-5.9401790">
        <ele>1406.2</ele>
        <time>2021-10-11T13:16:18Z</time>
      </trkpt>
      <trkpt lat="42.8348580" lon="-5.9401910">
        <ele>1405.8</ele>
        <time>2021-10-11T13:16:19Z</time>
      </trkpt>
      <trkpt lat="42.8347940" lon="-5.9402510">
        <ele>1405.2</ele>
        <time>2021-10-11T13:16:21Z</time>
      </trkpt>
      <trkpt lat="42.8347220" lon="-5.9403110">
        <ele>1404.0</ele>
        <time>2021-10-11T13:16:23Z</time>
      </trkpt>
      <trkpt lat="42.8346810" lon="-5.9403260">
        <ele>1403.0</ele>
        <time>2021-10-11T13:16:24Z</time>
      </trkpt>
      <trkpt lat="42.8346350" lon="-5.9403290">
        <ele>1402.8</ele>
        <time>2021-10-11T13:16:25Z</time>
      </trkpt>
      <trkpt lat="42.8345860" lon="-5.9403250">
        <ele>1402.4</ele>
        <time>2021-10-11T13:16:26Z</time>
      </trkpt>
      <trkpt lat="42.8344750" lon="-5.9402800">
        <ele>1401.4</ele>
        <time>2021-10-11T13:16:28Z</time>
      </trkpt>
      <trkpt lat="42.8342980" lon="-5.9401900">
        <ele>1400.2</ele>
        <time>2021-10-11T13:16:31Z</time>
      </trkpt>
      <trkpt lat="42.8341640" lon="-5.9401230">
        <ele>1399.2</ele>
        <time>2021-10-11T13:16:33Z</time>
      </trkpt>
      <trkpt lat="42.8341020" lon="-5.9400850">
        <ele>1399.0</ele>
        <time>2021-10-11T13:16:34Z</time>
      </trkpt>
      <trkpt lat="42.8340410" lon="-5.9400460">
        <ele>1397.6</ele>
        <time>2021-10-11T13:16:35Z</time>
      </trkpt>
      <trkpt lat="42.8338530" lon="-5.9399340">
        <ele>1396.2</ele>
        <time>2021-10-11T13:16:38Z</time>
      </trkpt>
      <trkpt lat="42.8337980" lon="-5.9398970">
        <ele>1395.8</ele>
        <time>2021-10-11T13:16:39Z</time>
      </trkpt>
      <trkpt lat="42.8337170" lon="-5.9398070">
        <ele>1395.0</ele>
        <time>2021-10-11T13:16:41Z</time>
      </trkpt>
      <trkpt lat="42.8336810" lon="-5.9397630">
        <ele>1394.8</ele>
        <time>2021-10-11T13:16:42Z</time>
      </trkpt>
      <trkpt lat="42.8336050" lon="-5.9397120">
        <ele>1393.4</ele>
        <time>2021-10-11T13:16:44Z</time>
      </trkpt>
      <trkpt lat="42.8335250" lon="-5.9397050">
        <ele>1392.4</ele>
        <time>2021-10-11T13:16:46Z</time>
      </trkpt>
      <trkpt lat="42.8334030" lon="-5.9397700">
        <ele>1391.2</ele>
        <time>2021-10-11T13:16:49Z</time>
      </trkpt>
      <trkpt lat="42.8333580" lon="-5.9397830">
        <ele>1390.8</ele>
        <time>2021-10-11T13:16:50Z</time>
      </trkpt>
      <trkpt lat="42.8332640" lon="-5.9397900">
        <ele>1390.2</ele>
        <time>2021-10-11T13:16:52Z</time>
      </trkpt>
      <trkpt lat="42.8331690" lon="-5.9397810">
        <ele>1389.0</ele>
        <time>2021-10-11T13:16:54Z</time>
      </trkpt>
      <trkpt lat="42.8330780" lon="-5.9397760">
        <ele>1387.8</ele>
        <time>2021-10-11T13:16:56Z</time>
      </trkpt>
      <trkpt lat="42.8329860" lon="-5.9397830">
        <ele>1386.4</ele>
        <time>2021-10-11T13:16:58Z</time>
      </trkpt>
      <trkpt lat="42.8328980" lon="-5.9398140">
        <ele>1385.4</ele>
        <time>2021-10-11T13:17:00Z</time>
      </trkpt>
      <trkpt lat="42.8328550" lon="-5.9398310">
        <ele>1385.0</ele>
        <time>2021-10-11T13:17:01Z</time>
      </trkpt>
      <trkpt lat="42.8327620" lon="-5.9398820">
        <ele>1384.0</ele>
        <time>2021-10-11T13:17:03Z</time>
      </trkpt>
      <trkpt lat="42.8326610" lon="-5.9399410">
        <ele>1382.6</ele>
        <time>2021-10-11T13:17:05Z</time>
      </trkpt>
      <trkpt lat="42.8326110" lon="-5.9399660">
        <ele>1381.4</ele>
        <time>2021-10-11T13:17:07Z</time>
      </trkpt>
      <trkpt lat="42.8325160" lon="-5.9400140">
        <ele>1380.2</ele>
        <time>2021-10-11T13:17:09Z</time>
      </trkpt>
      <trkpt lat="42.8324680" lon="-5.9400320">
        <ele>1379.4</ele>
        <time>2021-10-11T13:17:10Z</time>
      </trkpt>
      <trkpt lat="42.8324180" lon="-5.9400470">
        <ele>1379.2</ele>
        <time>2021-10-11T13:17:11Z</time>
      </trkpt>
      <trkpt lat="42.8323680" lon="-5.9400550">
        <ele>1378.6</ele>
        <time>2021-10-11T13:17:12Z</time>
      </trkpt>
      <trkpt lat="42.8323180" lon="-5.9400490">
        <ele>1378.0</ele>
        <time>2021-10-11T13:17:13Z</time>
      </trkpt>
      <trkpt lat="42.8322720" lon="-5.9400300">
        <ele>1377.2</ele>
        <time>2021-10-11T13:17:14Z</time>
      </trkpt>
      <trkpt lat="42.8322290" lon="-5.9400010">
        <ele>1376.8</ele>
        <time>2021-10-11T13:17:15Z</time>
      </trkpt>
      <trkpt lat="42.8321440" lon="-5.9399350">
        <ele>1375.6</ele>
        <time>2021-10-11T13:17:17Z</time>
      </trkpt>
      <trkpt lat="42.8320550" lon="-5.9398700">
        <ele>1374.4</ele>
        <time>2021-10-11T13:17:19Z</time>
      </trkpt>
      <trkpt lat="42.8319570" lon="-5.9397960">
        <ele>1372.8</ele>
        <time>2021-10-11T13:17:21Z</time>
      </trkpt>
      <trkpt lat="42.8318540" lon="-5.9397150">
        <ele>1371.8</ele>
        <time>2021-10-11T13:17:23Z</time>
      </trkpt>
      <trkpt lat="42.8317700" lon="-5.9396250">
        <ele>1370.8</ele>
        <time>2021-10-11T13:17:25Z</time>
      </trkpt>
      <trkpt lat="42.8317420" lon="-5.9395870">
        <ele>1370.0</ele>
        <time>2021-10-11T13:17:26Z</time>
      </trkpt>
      <trkpt lat="42.8317220" lon="-5.9395520">
        <ele>1369.0</ele>
        <time>2021-10-11T13:17:27Z</time>
      </trkpt>
      <trkpt lat="42.8317020" lon="-5.9395080">
        <ele>1367.6</ele>
        <time>2021-10-11T13:17:29Z</time>
      </trkpt>
      <trkpt lat="42.8316960" lon="-5.9395010">
        <ele>1367.2</ele>
        <time>2021-10-11T13:17:30Z</time>
      </trkpt>
      <trkpt lat="42.8316960" lon="-5.9395010">
        <ele>1366.8</ele>
        <time>2021-10-11T13:17:32Z</time>
      </trkpt>
      <trkpt lat="42.8316720" lon="-5.9394470">
        <ele>1366.0</ele>
        <time>2021-10-11T13:17:40Z</time>
      </trkpt>
      <trkpt lat="42.8316650" lon="-5.9394170">
        <ele>1366.0</ele>
        <time>2021-10-11T13:17:41Z</time>
      </trkpt>
      <trkpt lat="42.8316060" lon="-5.9392420">
        <ele>1365.6</ele>
        <time>2021-10-11T13:17:45Z</time>
      </trkpt>
      <trkpt lat="42.8315370" lon="-5.9389970">
        <ele>1364.6</ele>
        <time>2021-10-11T13:17:49Z</time>
      </trkpt>
      <trkpt lat="42.8315090" lon="-5.9388830">
        <ele>1363.8</ele>
        <time>2021-10-11T13:17:51Z</time>
      </trkpt>
      <trkpt lat="42.8314930" lon="-5.9388230">
        <ele>1363.4</ele>
        <time>2021-10-11T13:17:52Z</time>
      </trkpt>
      <trkpt lat="42.8314370" lon="-5.9385940">
        <ele>1362.4</ele>
        <time>2021-10-11T13:17:56Z</time>
      </trkpt>
      <trkpt lat="42.8314150" lon="-5.9385040">
        <ele>1361.4</ele>
        <time>2021-10-11T13:17:58Z</time>
      </trkpt>
      <trkpt lat="42.8314030" lon="-5.9384590">
        <ele>1361.0</ele>
        <time>2021-10-11T13:17:59Z</time>
      </trkpt>
      <trkpt lat="42.8313700" lon="-5.9383680">
        <ele>1360.0</ele>
        <time>2021-10-11T13:18:01Z</time>
      </trkpt>
      <trkpt lat="42.8313190" lon="-5.9383160">
        <ele>1359.6</ele>
        <time>2021-10-11T13:18:03Z</time>
      </trkpt>
      <trkpt lat="42.8312430" lon="-5.9382880">
        <ele>1358.8</ele>
        <time>2021-10-11T13:18:05Z</time>
      </trkpt>
      <trkpt lat="42.8311480" lon="-5.9382530">
        <ele>1357.4</ele>
        <time>2021-10-11T13:18:07Z</time>
      </trkpt>
      <trkpt lat="42.8311120" lon="-5.9382440">
        <ele>1357.0</ele>
        <time>2021-10-11T13:18:08Z</time>
      </trkpt>
      <trkpt lat="42.8310150" lon="-5.9382650">
        <ele>1355.8</ele>
        <time>2021-10-11T13:18:10Z</time>
      </trkpt>
      <trkpt lat="42.8309080" lon="-5.9383280">
        <ele>1354.4</ele>
        <time>2021-10-11T13:18:12Z</time>
      </trkpt>
      <trkpt lat="42.8308320" lon="-5.9384000">
        <ele>1353.2</ele>
        <time>2021-10-11T13:18:14Z</time>
      </trkpt>
      <trkpt lat="42.8307870" lon="-5.9384460">
        <ele>1352.8</ele>
        <time>2021-10-11T13:18:15Z</time>
      </trkpt>
      <trkpt lat="42.8306500" lon="-5.9385850">
        <ele>1351.4</ele>
        <time>2021-10-11T13:18:18Z</time>
      </trkpt>
      <trkpt lat="42.8305590" lon="-5.9386720">
        <ele>1350.4</ele>
        <time>2021-10-11T13:18:20Z</time>
      </trkpt>
      <trkpt lat="42.8305180" lon="-5.9387320">
        <ele>1350.4</ele>
        <time>2021-10-11T13:18:21Z</time>
      </trkpt>
      <trkpt lat="42.8304340" lon="-5.9388550">
        <ele>1349.4</ele>
        <time>2021-10-11T13:18:23Z</time>
      </trkpt>
      <trkpt lat="42.8303430" lon="-5.9389780">
        <ele>1348.6</ele>
        <time>2021-10-11T13:18:25Z</time>
      </trkpt>
      <trkpt lat="42.8302310" lon="-5.9391140">
        <ele>1348.2</ele>
        <time>2021-10-11T13:18:27Z</time>
      </trkpt>
      <trkpt lat="42.8301480" lon="-5.9392260">
        <ele>1347.6</ele>
        <time>2021-10-11T13:18:29Z</time>
      </trkpt>
      <trkpt lat="42.8301080" lon="-5.9393020">
        <ele>1347.2</ele>
        <time>2021-10-11T13:18:30Z</time>
      </trkpt>
      <trkpt lat="42.8299530" lon="-5.9395800">
        <ele>1345.8</ele>
        <time>2021-10-11T13:18:34Z</time>
      </trkpt>
      <trkpt lat="42.8299000" lon="-5.9396320">
        <ele>1345.4</ele>
        <time>2021-10-11T13:18:35Z</time>
      </trkpt>
      <trkpt lat="42.8298530" lon="-5.9396680">
        <ele>1344.6</ele>
        <time>2021-10-11T13:18:36Z</time>
      </trkpt>
      <trkpt lat="42.8298020" lon="-5.9397010">
        <ele>1344.4</ele>
        <time>2021-10-11T13:18:37Z</time>
      </trkpt>
      <trkpt lat="42.8296910" lon="-5.9397330">
        <ele>1343.8</ele>
        <time>2021-10-11T13:18:39Z</time>
      </trkpt>
      <trkpt lat="42.8296360" lon="-5.9397360">
        <ele>1343.2</ele>
        <time>2021-10-11T13:18:40Z</time>
      </trkpt>
      <trkpt lat="42.8295780" lon="-5.9397370">
        <ele>1342.8</ele>
        <time>2021-10-11T13:18:41Z</time>
      </trkpt>
      <trkpt lat="42.8295180" lon="-5.9397330">
        <ele>1342.2</ele>
        <time>2021-10-11T13:18:42Z</time>
      </trkpt>
      <trkpt lat="42.8293930" lon="-5.9397100">
        <ele>1340.8</ele>
        <time>2021-10-11T13:18:44Z</time>
      </trkpt>
      <trkpt lat="42.8293290" lon="-5.9396850">
        <ele>1339.8</ele>
        <time>2021-10-11T13:18:45Z</time>
      </trkpt>
      <trkpt lat="42.8292630" lon="-5.9396630">
        <ele>1339.2</ele>
        <time>2021-10-11T13:18:46Z</time>
      </trkpt>
      <trkpt lat="42.8291960" lon="-5.9396490">
        <ele>1338.6</ele>
        <time>2021-10-11T13:18:47Z</time>
      </trkpt>
      <trkpt lat="42.8289900" lon="-5.9396250">
        <ele>1337.4</ele>
        <time>2021-10-11T13:18:50Z</time>
      </trkpt>
      <trkpt lat="42.8287870" lon="-5.9396100">
        <ele>1336.4</ele>
        <time>2021-10-11T13:18:53Z</time>
      </trkpt>
      <trkpt lat="42.8285110" lon="-5.9395730">
        <ele>1336.0</ele>
        <time>2021-10-11T13:18:57Z</time>
      </trkpt>
      <trkpt lat="42.8283760" lon="-5.9395480">
        <ele>1335.4</ele>
        <time>2021-10-11T13:18:59Z</time>
      </trkpt>
      <trkpt lat="42.8281800" lon="-5.9395570">
        <ele>1334.0</ele>
        <time>2021-10-11T13:19:02Z</time>
      </trkpt>
      <trkpt lat="42.8279690" lon="-5.9395590">
        <ele>1332.8</ele>
        <time>2021-10-11T13:19:05Z</time>
      </trkpt>
      <trkpt lat="42.8276990" lon="-5.9395290">
        <ele>1332.0</ele>
        <time>2021-10-11T13:19:09Z</time>
      </trkpt>
      <trkpt lat="42.8275560" lon="-5.9395210">
        <ele>1331.6</ele>
        <time>2021-10-11T13:19:11Z</time>
      </trkpt>
      <trkpt lat="42.8273390" lon="-5.9394900">
        <ele>1330.6</ele>
        <time>2021-10-11T13:19:14Z</time>
      </trkpt>
      <trkpt lat="42.8272670" lon="-5.9394760">
        <ele>1330.0</ele>
        <time>2021-10-11T13:19:15Z</time>
      </trkpt>
      <trkpt lat="42.8271940" lon="-5.9394650">
        <ele>1329.0</ele>
        <time>2021-10-11T13:19:16Z</time>
      </trkpt>
      <trkpt lat="42.8271230" lon="-5.9394590">
        <ele>1328.8</ele>
        <time>2021-10-11T13:19:17Z</time>
      </trkpt>
      <trkpt lat="42.8268500" lon="-5.9394700">
        <ele>1327.8</ele>
        <time>2021-10-11T13:19:21Z</time>
      </trkpt>
      <trkpt lat="42.8267890" lon="-5.9394880">
        <ele>1327.4</ele>
        <time>2021-10-11T13:19:22Z</time>
      </trkpt>
      <trkpt lat="42.8263880" lon="-5.9396230">
        <ele>1327.0</ele>
        <time>2021-10-11T13:19:29Z</time>
      </trkpt>
      <trkpt lat="42.8260140" lon="-5.9396660">
        <ele>1326.6</ele>
        <time>2021-10-11T13:19:36Z</time>
      </trkpt>
      <trkpt lat="42.8259080" lon="-5.9396740">
        <ele>1326.6</ele>
        <time>2021-10-11T13:19:38Z</time>
      </trkpt>
      <trkpt lat="42.8258040" lon="-5.9396780">
        <ele>1326.6</ele>
        <time>2021-10-11T13:19:40Z</time>
      </trkpt>
      <trkpt lat="42.8257040" lon="-5.9396970">
        <ele>1326.4</ele>
        <time>2021-10-11T13:19:42Z</time>
      </trkpt>
      <trkpt lat="42.8253870" lon="-5.9398100">
        <ele>1326.6</ele>
        <time>2021-10-11T13:19:49Z</time>
      </trkpt>
      <trkpt lat="42.8253450" lon="-5.9398290">
        <ele>1326.8</ele>
        <time>2021-10-11T13:19:50Z</time>
      </trkpt>
      <trkpt lat="42.8252260" lon="-5.9398520">
        <ele>1326.6</ele>
        <time>2021-10-11T13:19:53Z</time>
      </trkpt>
      <trkpt lat="42.8251170" lon="-5.9398690">
        <ele>1326.8</ele>
        <time>2021-10-11T13:19:56Z</time>
      </trkpt>
      <trkpt lat="42.8249540" lon="-5.9399220">
        <ele>1327.0</ele>
        <time>2021-10-11T13:20:00Z</time>
      </trkpt>
      <trkpt lat="42.8246340" lon="-5.9400770">
        <ele>1327.8</ele>
        <time>2021-10-11T13:20:08Z</time>
      </trkpt>
      <trkpt lat="42.8245170" lon="-5.9401690">
        <ele>1328.0</ele>
        <time>2021-10-11T13:20:11Z</time>
      </trkpt>
      <trkpt lat="42.8244070" lon="-5.9402900">
        <ele>1328.2</ele>
        <time>2021-10-11T13:20:14Z</time>
      </trkpt>
      <trkpt lat="42.8241790" lon="-5.9406050">
        <ele>1328.8</ele>
        <time>2021-10-11T13:20:22Z</time>
      </trkpt>
      <trkpt lat="42.8241250" lon="-5.9406970">
        <ele>1329.0</ele>
        <time>2021-10-11T13:20:24Z</time>
      </trkpt>
      <trkpt lat="42.8240560" lon="-5.9408850">
        <ele>1329.4</ele>
        <time>2021-10-11T13:20:28Z</time>
      </trkpt>
      <trkpt lat="42.8240330" lon="-5.9410710">
        <ele>1329.8</ele>
        <time>2021-10-11T13:20:33Z</time>
      </trkpt>
      <trkpt lat="42.8240220" lon="-5.9411160">
        <ele>1330.4</ele>
        <time>2021-10-11T13:20:35Z</time>
      </trkpt>
      <trkpt lat="42.8239730" lon="-5.9412300">
        <ele>1331.2</ele>
        <time>2021-10-11T13:20:40Z</time>
      </trkpt>
      <trkpt lat="42.8239610" lon="-5.9412550">
        <ele>1331.4</ele>
        <time>2021-10-11T13:20:41Z</time>
      </trkpt>
      <trkpt lat="42.8238850" lon="-5.9413830">
        <ele>1332.6</ele>
        <time>2021-10-11T13:20:47Z</time>
      </trkpt>
      <trkpt lat="42.8238690" lon="-5.9414230">
        <ele>1333.0</ele>
        <time>2021-10-11T13:20:49Z</time>
      </trkpt>
      <trkpt lat="42.8238280" lon="-5.9415510">
        <ele>1333.8</ele>
        <time>2021-10-11T13:20:55Z</time>
      </trkpt>
      <trkpt lat="42.8238160" lon="-5.9415910">
        <ele>1334.2</ele>
        <time>2021-10-11T13:20:57Z</time>
      </trkpt>
      <trkpt lat="42.8237900" lon="-5.9416670">
        <ele>1334.8</ele>
        <time>2021-10-11T13:21:00Z</time>
      </trkpt>
      <trkpt lat="42.8237540" lon="-5.9417720">
        <ele>1335.4</ele>
        <time>2021-10-11T13:21:05Z</time>
      </trkpt>
      <trkpt lat="42.8237200" lon="-5.9418490">
        <ele>1335.8</ele>
        <time>2021-10-11T13:21:09Z</time>
      </trkpt>
      <trkpt lat="42.8236700" lon="-5.9419350">
        <ele>1336.4</ele>
        <time>2021-10-11T13:21:13Z</time>
      </trkpt>
      <trkpt lat="42.8235690" lon="-5.9420260">
        <ele>1337.0</ele>
        <time>2021-10-11T13:21:18Z</time>
      </trkpt>
      <trkpt lat="42.8235420" lon="-5.9420360">
        <ele>1337.0</ele>
        <time>2021-10-11T13:21:19Z</time>
      </trkpt>
      <trkpt lat="42.8235130" lon="-5.9420430">
        <ele>1337.0</ele>
        <time>2021-10-11T13:21:20Z</time>
      </trkpt>
      <trkpt lat="42.8233400" lon="-5.9421180">
        <ele>1337.0</ele>
        <time>2021-10-11T13:21:25Z</time>
      </trkpt>
      <trkpt lat="42.8232470" lon="-5.9422060">
        <ele>1336.6</ele>
        <time>2021-10-11T13:21:29Z</time>
      </trkpt>
      <trkpt lat="42.8232300" lon="-5.9422320">
        <ele>1336.4</ele>
        <time>2021-10-11T13:21:30Z</time>
      </trkpt>
      <trkpt lat="42.8232120" lon="-5.9422560">
        <ele>1336.0</ele>
        <time>2021-10-11T13:21:31Z</time>
      </trkpt>
      <trkpt lat="42.8231960" lon="-5.9422790">
        <ele>1335.8</ele>
        <time>2021-10-11T13:21:32Z</time>
      </trkpt>
      <trkpt lat="42.8231600" lon="-5.9423400">
        <ele>1335.4</ele>
        <time>2021-10-11T13:21:34Z</time>
      </trkpt>
      <trkpt lat="42.8231390" lon="-5.9423710">
        <ele>1335.2</ele>
        <time>2021-10-11T13:21:35Z</time>
      </trkpt>
      <trkpt lat="42.8231150" lon="-5.9424030">
        <ele>1335.0</ele>
        <time>2021-10-11T13:21:36Z</time>
      </trkpt>
      <trkpt lat="42.8230890" lon="-5.9424350">
        <ele>1334.8</ele>
        <time>2021-10-11T13:21:37Z</time>
      </trkpt>
      <trkpt lat="42.8229930" lon="-5.9425640">
        <ele>1334.2</ele>
        <time>2021-10-11T13:21:40Z</time>
      </trkpt>
      <trkpt lat="42.8229610" lon="-5.9426150">
        <ele>1334.0</ele>
        <time>2021-10-11T13:21:41Z</time>
      </trkpt>
      <trkpt lat="42.8229340" lon="-5.9426650">
        <ele>1333.6</ele>
        <time>2021-10-11T13:21:42Z</time>
      </trkpt>
      <trkpt lat="42.8229110" lon="-5.9427120">
        <ele>1333.2</ele>
        <time>2021-10-11T13:21:43Z</time>
      </trkpt>
      <trkpt lat="42.8228690" lon="-5.9427910">
        <ele>1332.6</ele>
        <time>2021-10-11T13:21:45Z</time>
      </trkpt>
      <trkpt lat="42.8228500" lon="-5.9428360">
        <ele>1332.0</ele>
        <time>2021-10-11T13:21:46Z</time>
      </trkpt>
      <trkpt lat="42.8228290" lon="-5.9428840">
        <ele>1331.6</ele>
        <time>2021-10-11T13:21:47Z</time>
      </trkpt>
      <trkpt lat="42.8228040" lon="-5.9429320">
        <ele>1331.2</ele>
        <time>2021-10-11T13:21:48Z</time>
      </trkpt>
      <trkpt lat="42.8227510" lon="-5.9430180">
        <ele>1330.6</ele>
        <time>2021-10-11T13:21:50Z</time>
      </trkpt>
      <trkpt lat="42.8227200" lon="-5.9430560">
        <ele>1330.0</ele>
        <time>2021-10-11T13:21:51Z</time>
      </trkpt>
      <trkpt lat="42.8226830" lon="-5.9430930">
        <ele>1329.6</ele>
        <time>2021-10-11T13:21:52Z</time>
      </trkpt>
      <trkpt lat="42.8226400" lon="-5.9431320">
        <ele>1329.2</ele>
        <time>2021-10-11T13:21:53Z</time>
      </trkpt>
      <trkpt lat="42.8225420" lon="-5.9432300">
        <ele>1328.2</ele>
        <time>2021-10-11T13:21:55Z</time>
      </trkpt>
      <trkpt lat="42.8224960" lon="-5.9432810">
        <ele>1328.0</ele>
        <time>2021-10-11T13:21:56Z</time>
      </trkpt>
      <trkpt lat="42.8223120" lon="-5.9434750">
        <ele>1326.8</ele>
        <time>2021-10-11T13:22:00Z</time>
      </trkpt>
      <trkpt lat="42.8222700" lon="-5.9435100">
        <ele>1326.6</ele>
        <time>2021-10-11T13:22:01Z</time>
      </trkpt>
      <trkpt lat="42.8221640" lon="-5.9435920">
        <ele>1325.8</ele>
        <time>2021-10-11T13:22:03Z</time>
      </trkpt>
      <trkpt lat="42.8221090" lon="-5.9436280">
        <ele>1325.2</ele>
        <time>2021-10-11T13:22:04Z</time>
      </trkpt>
      <trkpt lat="42.8219920" lon="-5.9436970">
        <ele>1324.0</ele>
        <time>2021-10-11T13:22:06Z</time>
      </trkpt>
      <trkpt lat="42.8219240" lon="-5.9437450">
        <ele>1323.4</ele>
        <time>2021-10-11T13:22:07Z</time>
      </trkpt>
      <trkpt lat="42.8218740" lon="-5.9437790">
        <ele>1322.8</ele>
        <time>2021-10-11T13:22:08Z</time>
      </trkpt>
      <trkpt lat="42.8217010" lon="-5.9439150">
        <ele>1321.8</ele>
        <time>2021-10-11T13:22:11Z</time>
      </trkpt>
      <trkpt lat="42.8215000" lon="-5.9441110">
        <ele>1320.4</ele>
        <time>2021-10-11T13:22:15Z</time>
      </trkpt>
      <trkpt lat="42.8213720" lon="-5.9442760">
        <ele>1320.0</ele>
        <time>2021-10-11T13:22:18Z</time>
      </trkpt>
      <trkpt lat="42.8212480" lon="-5.9444730">
        <ele>1319.6</ele>
        <time>2021-10-11T13:22:21Z</time>
      </trkpt>
      <trkpt lat="42.8212090" lon="-5.9445480">
        <ele>1319.4</ele>
        <time>2021-10-11T13:22:22Z</time>
      </trkpt>
      <trkpt lat="42.8211360" lon="-5.9447010">
        <ele>1319.0</ele>
        <time>2021-10-11T13:22:24Z</time>
      </trkpt>
      <trkpt lat="42.8210490" lon="-5.9449290">
        <ele>1318.4</ele>
        <time>2021-10-11T13:22:27Z</time>
      </trkpt>
      <trkpt lat="42.8209310" lon="-5.9452210">
        <ele>1317.2</ele>
        <time>2021-10-11T13:22:31Z</time>
      </trkpt>
      <trkpt lat="42.8209030" lon="-5.9452780">
        <ele>1317.0</ele>
        <time>2021-10-11T13:22:32Z</time>
      </trkpt>
      <trkpt lat="42.8208300" lon="-5.9454610">
        <ele>1316.8</ele>
        <time>2021-10-11T13:22:35Z</time>
      </trkpt>
      <trkpt lat="42.8207930" lon="-5.9455590">
        <ele>1316.6</ele>
        <time>2021-10-11T13:22:37Z</time>
      </trkpt>
      <trkpt lat="42.8207480" lon="-5.9456790">
        <ele>1316.0</ele>
        <time>2021-10-11T13:22:39Z</time>
      </trkpt>
      <trkpt lat="42.8207080" lon="-5.9457850">
        <ele>1315.4</ele>
        <time>2021-10-11T13:22:41Z</time>
      </trkpt>
      <trkpt lat="42.8206810" lon="-5.9458460">
        <ele>1315.2</ele>
        <time>2021-10-11T13:22:42Z</time>
      </trkpt>
      <trkpt lat="42.8205860" lon="-5.9461030">
        <ele>1314.2</ele>
        <time>2021-10-11T13:22:46Z</time>
      </trkpt>
      <trkpt lat="42.8205310" lon="-5.9462260">
        <ele>1313.8</ele>
        <time>2021-10-11T13:22:48Z</time>
      </trkpt>
      <trkpt lat="42.8204470" lon="-5.9464320">
        <ele>1312.6</ele>
        <time>2021-10-11T13:22:51Z</time>
      </trkpt>
      <trkpt lat="42.8203670" lon="-5.9466640">
        <ele>1311.8</ele>
        <time>2021-10-11T13:22:54Z</time>
      </trkpt>
      <trkpt lat="42.8203460" lon="-5.9467450">
        <ele>1311.2</ele>
        <time>2021-10-11T13:22:55Z</time>
      </trkpt>
      <trkpt lat="42.8202780" lon="-5.9469870">
        <ele>1310.0</ele>
        <time>2021-10-11T13:22:58Z</time>
      </trkpt>
      <trkpt lat="42.8202060" lon="-5.9472020">
        <ele>1309.0</ele>
        <time>2021-10-11T13:23:01Z</time>
      </trkpt>
      <trkpt lat="42.8201750" lon="-5.9472690">
        <ele>1308.8</ele>
        <time>2021-10-11T13:23:02Z</time>
      </trkpt>
      <trkpt lat="42.8201110" lon="-5.9473950">
        <ele>1308.2</ele>
        <time>2021-10-11T13:23:04Z</time>
      </trkpt>
      <trkpt lat="42.8200530" lon="-5.9475190">
        <ele>1307.8</ele>
        <time>2021-10-11T13:23:06Z</time>
      </trkpt>
      <trkpt lat="42.8200300" lon="-5.9475860">
        <ele>1307.6</ele>
        <time>2021-10-11T13:23:07Z</time>
      </trkpt>
      <trkpt lat="42.8199630" lon="-5.9477710">
        <ele>1306.6</ele>
        <time>2021-10-11T13:23:10Z</time>
      </trkpt>
      <trkpt lat="42.8199070" lon="-5.9478790">
        <ele>1306.4</ele>
        <time>2021-10-11T13:23:12Z</time>
      </trkpt>
      <trkpt lat="42.8198780" lon="-5.9479320">
        <ele>1305.8</ele>
        <time>2021-10-11T13:23:13Z</time>
      </trkpt>
      <trkpt lat="42.8198310" lon="-5.9480380">
        <ele>1305.0</ele>
        <time>2021-10-11T13:23:15Z</time>
      </trkpt>
      <trkpt lat="42.8198130" lon="-5.9480970">
        <ele>1304.8</ele>
        <time>2021-10-11T13:23:16Z</time>
      </trkpt>
      <trkpt lat="42.8197650" lon="-5.9482300">
        <ele>1304.0</ele>
        <time>2021-10-11T13:23:18Z</time>
      </trkpt>
      <trkpt lat="42.8197420" lon="-5.9482880">
        <ele>1303.4</ele>
        <time>2021-10-11T13:23:19Z</time>
      </trkpt>
      <trkpt lat="42.8196570" lon="-5.9485520">
        <ele>1302.4</ele>
        <time>2021-10-11T13:23:23Z</time>
      </trkpt>
      <trkpt lat="42.8196330" lon="-5.9486430">
        <ele>1301.6</ele>
        <time>2021-10-11T13:23:24Z</time>
      </trkpt>
      <trkpt lat="42.8196120" lon="-5.9487160">
        <ele>1301.2</ele>
        <time>2021-10-11T13:23:25Z</time>
      </trkpt>
      <trkpt lat="42.8195830" lon="-5.9488490">
        <ele>1300.6</ele>
        <time>2021-10-11T13:23:27Z</time>
      </trkpt>
      <trkpt lat="42.8195640" lon="-5.9489210">
        <ele>1300.2</ele>
        <time>2021-10-11T13:23:28Z</time>
      </trkpt>
      <trkpt lat="42.8195490" lon="-5.9489920">
        <ele>1299.8</ele>
        <time>2021-10-11T13:23:29Z</time>
      </trkpt>
      <trkpt lat="42.8195310" lon="-5.9490760">
        <ele>1298.8</ele>
        <time>2021-10-11T13:23:30Z</time>
      </trkpt>
      <trkpt lat="42.8194760" lon="-5.9492700">
        <ele>1297.8</ele>
        <time>2021-10-11T13:23:33Z</time>
      </trkpt>
      <trkpt lat="42.8194490" lon="-5.9493790">
        <ele>1296.8</ele>
        <time>2021-10-11T13:23:35Z</time>
      </trkpt>
      <trkpt lat="42.8194140" lon="-5.9494870">
        <ele>1295.4</ele>
        <time>2021-10-11T13:23:37Z</time>
      </trkpt>
      <trkpt lat="42.8193400" lon="-5.9496470">
        <ele>1294.2</ele>
        <time>2021-10-11T13:23:40Z</time>
      </trkpt>
      <trkpt lat="42.8193120" lon="-5.9497040">
        <ele>1293.6</ele>
        <time>2021-10-11T13:23:41Z</time>
      </trkpt>
      <trkpt lat="42.8192770" lon="-5.9497740">
        <ele>1293.4</ele>
        <time>2021-10-11T13:23:42Z</time>
      </trkpt>
      <trkpt lat="42.8192550" lon="-5.9498220">
        <ele>1292.6</ele>
        <time>2021-10-11T13:23:43Z</time>
      </trkpt>
      <trkpt lat="42.8192290" lon="-5.9498840">
        <ele>1292.0</ele>
        <time>2021-10-11T13:23:44Z</time>
      </trkpt>
      <trkpt lat="42.8191880" lon="-5.9499980">
        <ele>1291.4</ele>
        <time>2021-10-11T13:23:46Z</time>
      </trkpt>
      <trkpt lat="42.8191660" lon="-5.9500670">
        <ele>1291.0</ele>
        <time>2021-10-11T13:23:47Z</time>
      </trkpt>
      <trkpt lat="42.8191350" lon="-5.9501750">
        <ele>1290.6</ele>
        <time>2021-10-11T13:23:49Z</time>
      </trkpt>
      <trkpt lat="42.8191220" lon="-5.9502380">
        <ele>1290.0</ele>
        <time>2021-10-11T13:23:50Z</time>
      </trkpt>
      <trkpt lat="42.8190810" lon="-5.9504450">
        <ele>1288.4</ele>
        <time>2021-10-11T13:23:53Z</time>
      </trkpt>
      <trkpt lat="42.8190440" lon="-5.9505690">
        <ele>1287.4</ele>
        <time>2021-10-11T13:23:55Z</time>
      </trkpt>
      <trkpt lat="42.8189920" lon="-5.9507230">
        <ele>1285.6</ele>
        <time>2021-10-11T13:23:57Z</time>
      </trkpt>
      <trkpt lat="42.8189420" lon="-5.9508590">
        <ele>1284.8</ele>
        <time>2021-10-11T13:23:59Z</time>
      </trkpt>
      <trkpt lat="42.8188960" lon="-5.9510080">
        <ele>1283.6</ele>
        <time>2021-10-11T13:24:01Z</time>
      </trkpt>
      <trkpt lat="42.8188610" lon="-5.9511350">
        <ele>1281.4</ele>
        <time>2021-10-11T13:24:03Z</time>
      </trkpt>
      <trkpt lat="42.8188490" lon="-5.9511990">
        <ele>1280.6</ele>
        <time>2021-10-11T13:24:04Z</time>
      </trkpt>
      <trkpt lat="42.8188380" lon="-5.9512650">
        <ele>1280.2</ele>
        <time>2021-10-11T13:24:05Z</time>
      </trkpt>
      <trkpt lat="42.8188090" lon="-5.9514230">
        <ele>1278.8</ele>
        <time>2021-10-11T13:24:07Z</time>
      </trkpt>
      <trkpt lat="42.8187680" lon="-5.9516260">
        <ele>1276.8</ele>
        <time>2021-10-11T13:24:10Z</time>
      </trkpt>
      <trkpt lat="42.8187470" lon="-5.9516950">
        <ele>1276.6</ele>
        <time>2021-10-11T13:24:11Z</time>
      </trkpt>
      <trkpt lat="42.8187200" lon="-5.9517550">
        <ele>1275.6</ele>
        <time>2021-10-11T13:24:12Z</time>
      </trkpt>
      <trkpt lat="42.8186650" lon="-5.9518470">
        <ele>1273.8</ele>
        <time>2021-10-11T13:24:14Z</time>
      </trkpt>
      <trkpt lat="42.8186360" lon="-5.9518890">
        <ele>1273.0</ele>
        <time>2021-10-11T13:24:15Z</time>
      </trkpt>
      <trkpt lat="42.8186020" lon="-5.9519370">
        <ele>1272.4</ele>
        <time>2021-10-11T13:24:16Z</time>
      </trkpt>
      <trkpt lat="42.8185350" lon="-5.9520540">
        <ele>1270.8</ele>
        <time>2021-10-11T13:24:19Z</time>
      </trkpt>
      <trkpt lat="42.8185160" lon="-5.9520960">
        <ele>1268.8</ele>
        <time>2021-10-11T13:24:21Z</time>
      </trkpt>
      <trkpt lat="42.8185090" lon="-5.9520960">
        <ele>1267.4</ele>
        <time>2021-10-11T13:24:23Z</time>
      </trkpt>
      <trkpt lat="42.8184940" lon="-5.9520940">
        <ele>1267.0</ele>
        <time>2021-10-11T13:24:24Z</time>
      </trkpt>
      <trkpt lat="42.8184740" lon="-5.9520810">
        <ele>1266.2</ele>
        <time>2021-10-11T13:24:25Z</time>
      </trkpt>
      <trkpt lat="42.8184030" lon="-5.9519420">
        <ele>1265.6</ele>
        <time>2021-10-11T13:24:30Z</time>
      </trkpt>
      <trkpt lat="42.8182650" lon="-5.9518780">
        <ele>1265.6</ele>
        <time>2021-10-11T13:24:35Z</time>
      </trkpt>
      <trkpt lat="42.8181670" lon="-5.9517880">
        <ele>1265.6</ele>
        <time>2021-10-11T13:24:39Z</time>
      </trkpt>
      <trkpt lat="42.8181250" lon="-5.9517220">
        <ele>1265.6</ele>
        <time>2021-10-11T13:24:41Z</time>
      </trkpt>
      <trkpt lat="42.8180720" lon="-5.9516360">
        <ele>1265.4</ele>
        <time>2021-10-11T13:24:44Z</time>
      </trkpt>
      <trkpt lat="42.8180140" lon="-5.9515830">
        <ele>1265.2</ele>
        <time>2021-10-11T13:24:47Z</time>
      </trkpt>
      <trkpt lat="42.8179640" lon="-5.9516200">
        <ele>1265.0</ele>
        <time>2021-10-11T13:24:50Z</time>
      </trkpt>
      <trkpt lat="42.8179290" lon="-5.9517040">
        <ele>1264.4</ele>
        <time>2021-10-11T13:24:53Z</time>
      </trkpt>
      <trkpt lat="42.8179320" lon="-5.9517540">
        <ele>1264.2</ele>
        <time>2021-10-11T13:24:54Z</time>
      </trkpt>
      <trkpt lat="42.8179190" lon="-5.9519400">
        <ele>1263.4</ele>
        <time>2021-10-11T13:24:57Z</time>
      </trkpt>
      <trkpt lat="42.8179000" lon="-5.9520200">
        <ele>1263.2</ele>
        <time>2021-10-11T13:24:58Z</time>
      </trkpt>
      <trkpt lat="42.8178760" lon="-5.9520820">
        <ele>1262.6</ele>
        <time>2021-10-11T13:24:59Z</time>
      </trkpt>
      <trkpt lat="42.8178180" lon="-5.9521760">
        <ele>1261.8</ele>
        <time>2021-10-11T13:25:01Z</time>
      </trkpt>
      <trkpt lat="42.8177830" lon="-5.9522190">
        <ele>1261.4</ele>
        <time>2021-10-11T13:25:02Z</time>
      </trkpt>
      <trkpt lat="42.8177460" lon="-5.9522630">
        <ele>1260.6</ele>
        <time>2021-10-11T13:25:03Z</time>
      </trkpt>
      <trkpt lat="42.8176770" lon="-5.9523400">
        <ele>1259.2</ele>
        <time>2021-10-11T13:25:06Z</time>
      </trkpt>
      <trkpt lat="42.8176420" lon="-5.9523760">
        <ele>1257.2</ele>
        <time>2021-10-11T13:25:08Z</time>
      </trkpt>
      <trkpt lat="42.8176360" lon="-5.9523820">
        <ele>1255.8</ele>
        <time>2021-10-11T13:25:10Z</time>
      </trkpt>
      <trkpt lat="42.8176100" lon="-5.9523850">
        <ele>1253.6</ele>
        <time>2021-10-11T13:25:52Z</time>
      </trkpt>
      <trkpt lat="42.8175780" lon="-5.9523900">
        <ele>1253.6</ele>
        <time>2021-10-11T13:25:53Z</time>
      </trkpt>
      <trkpt lat="42.8175350" lon="-5.9523910">
        <ele>1253.6</ele>
        <time>2021-10-11T13:25:54Z</time>
      </trkpt>
      <trkpt lat="42.8173770" lon="-5.9523360">
        <ele>1253.2</ele>
        <time>2021-10-11T13:25:58Z</time>
      </trkpt>
      <trkpt lat="42.8173240" lon="-5.9523140">
        <ele>1253.0</ele>
        <time>2021-10-11T13:25:59Z</time>
      </trkpt>
      <trkpt lat="42.8172440" lon="-5.9522880">
        <ele>1252.2</ele>
        <time>2021-10-11T13:26:01Z</time>
      </trkpt>
      <trkpt lat="42.8172020" lon="-5.9522720">
        <ele>1252.2</ele>
        <time>2021-10-11T13:26:02Z</time>
      </trkpt>
      <trkpt lat="42.8171090" lon="-5.9522440">
        <ele>1251.4</ele>
        <time>2021-10-11T13:26:04Z</time>
      </trkpt>
      <trkpt lat="42.8170650" lon="-5.9522440">
        <ele>1250.8</ele>
        <time>2021-10-11T13:26:05Z</time>
      </trkpt>
      <trkpt lat="42.8169900" lon="-5.9522560">
        <ele>1250.0</ele>
        <time>2021-10-11T13:26:07Z</time>
      </trkpt>
      <trkpt lat="42.8169120" lon="-5.9522700">
        <ele>1248.8</ele>
        <time>2021-10-11T13:26:10Z</time>
      </trkpt>
      <trkpt lat="42.8168980" lon="-5.9522680">
        <ele>1247.6</ele>
        <time>2021-10-11T13:26:13Z</time>
      </trkpt>
      <trkpt lat="42.8168980" lon="-5.9522680">
        <ele>1247.0</ele>
        <time>2021-10-11T13:26:14Z</time>
      </trkpt>
      <trkpt lat="42.8168330" lon="-5.9522390">
        <ele>1246.0</ele>
        <time>2021-10-11T13:26:18Z</time>
      </trkpt>
      <trkpt lat="42.8167700" lon="-5.9522040">
        <ele>1245.8</ele>
        <time>2021-10-11T13:26:20Z</time>
      </trkpt>
      <trkpt lat="42.8165460" lon="-5.9521180">
        <ele>1244.6</ele>
        <time>2021-10-11T13:26:26Z</time>
      </trkpt>
      <trkpt lat="42.8165070" lon="-5.9521060">
        <ele>1243.8</ele>
        <time>2021-10-11T13:26:27Z</time>
      </trkpt>
      <trkpt lat="42.8164220" lon="-5.9520890">
        <ele>1243.0</ele>
        <time>2021-10-11T13:26:29Z</time>
      </trkpt>
      <trkpt lat="42.8163430" lon="-5.9520590">
        <ele>1242.0</ele>
        <time>2021-10-11T13:26:31Z</time>
      </trkpt>
      <trkpt lat="42.8162930" lon="-5.9520250">
        <ele>1241.2</ele>
        <time>2021-10-11T13:26:32Z</time>
      </trkpt>
      <trkpt lat="42.8162490" lon="-5.9519900">
        <ele>1240.6</ele>
        <time>2021-10-11T13:26:33Z</time>
      </trkpt>
      <trkpt lat="42.8161650" lon="-5.9519360">
        <ele>1239.8</ele>
        <time>2021-10-11T13:26:35Z</time>
      </trkpt>
      <trkpt lat="42.8161030" lon="-5.9519020">
        <ele>1238.8</ele>
        <time>2021-10-11T13:26:36Z</time>
      </trkpt>
      <trkpt lat="42.8160500" lon="-5.9518590">
        <ele>1238.2</ele>
        <time>2021-10-11T13:26:37Z</time>
      </trkpt>
      <trkpt lat="42.8159990" lon="-5.9518050">
        <ele>1237.2</ele>
        <time>2021-10-11T13:26:38Z</time>
      </trkpt>
      <trkpt lat="42.8159630" lon="-5.9517530">
        <ele>1236.8</ele>
        <time>2021-10-11T13:26:39Z</time>
      </trkpt>
      <trkpt lat="42.8158820" lon="-5.9515870">
        <ele>1235.8</ele>
        <time>2021-10-11T13:26:41Z</time>
      </trkpt>
      <trkpt lat="42.8158430" lon="-5.9514350">
        <ele>1234.8</ele>
        <time>2021-10-11T13:26:43Z</time>
      </trkpt>
      <trkpt lat="42.8158220" lon="-5.9513340">
        <ele>1234.8</ele>
        <time>2021-10-11T13:26:44Z</time>
      </trkpt>
      <trkpt lat="42.8157640" lon="-5.9510460">
        <ele>1234.0</ele>
        <time>2021-10-11T13:26:48Z</time>
      </trkpt>
      <trkpt lat="42.8157540" lon="-5.9509940">
        <ele>1234.0</ele>
        <time>2021-10-11T13:26:49Z</time>
      </trkpt>
      <trkpt lat="42.8157170" lon="-5.9508060">
        <ele>1233.6</ele>
        <time>2021-10-11T13:26:52Z</time>
      </trkpt>
      <trkpt lat="42.8156890" lon="-5.9506680">
        <ele>1233.6</ele>
        <time>2021-10-11T13:26:54Z</time>
      </trkpt>
      <trkpt lat="42.8156110" lon="-5.9503080">
        <ele>1233.4</ele>
        <time>2021-10-11T13:26:59Z</time>
      </trkpt>
      <trkpt lat="42.8155670" lon="-5.9501760">
        <ele>1233.4</ele>
        <time>2021-10-11T13:27:01Z</time>
      </trkpt>
      <trkpt lat="42.8155000" lon="-5.9500760">
        <ele>1233.4</ele>
        <time>2021-10-11T13:27:03Z</time>
      </trkpt>
      <trkpt lat="42.8153960" lon="-5.9499680">
        <ele>1233.2</ele>
        <time>2021-10-11T13:27:05Z</time>
      </trkpt>
      <trkpt lat="42.8151950" lon="-5.9497660">
        <ele>1232.8</ele>
        <time>2021-10-11T13:27:09Z</time>
      </trkpt>
      <trkpt lat="42.8151430" lon="-5.9497140">
        <ele>1232.8</ele>
        <time>2021-10-11T13:27:10Z</time>
      </trkpt>
      <trkpt lat="42.8149800" lon="-5.9495480">
        <ele>1232.0</ele>
        <time>2021-10-11T13:27:13Z</time>
      </trkpt>
      <trkpt lat="42.8149360" lon="-5.9494810">
        <ele>1231.6</ele>
        <time>2021-10-11T13:27:14Z</time>
      </trkpt>
      <trkpt lat="42.8149020" lon="-5.9494100">
        <ele>1231.6</ele>
        <time>2021-10-11T13:27:15Z</time>
      </trkpt>
      <trkpt lat="42.8148560" lon="-5.9492060">
        <ele>1230.4</ele>
        <time>2021-10-11T13:27:18Z</time>
      </trkpt>
      <trkpt lat="42.8148460" lon="-5.9491250">
        <ele>1230.2</ele>
        <time>2021-10-11T13:27:19Z</time>
      </trkpt>
      <trkpt lat="42.8148380" lon="-5.9488680">
        <ele>1229.4</ele>
        <time>2021-10-11T13:27:22Z</time>
      </trkpt>
      <trkpt lat="42.8148280" lon="-5.9486630">
        <ele>1228.6</ele>
        <time>2021-10-11T13:27:24Z</time>
      </trkpt>
      <trkpt lat="42.8148170" lon="-5.9485890">
        <ele>1228.2</ele>
        <time>2021-10-11T13:27:25Z</time>
      </trkpt>
      <trkpt lat="42.8147660" lon="-5.9483930">
        <ele>1227.8</ele>
        <time>2021-10-11T13:27:27Z</time>
      </trkpt>
      <trkpt lat="42.8146720" lon="-5.9482640">
        <ele>1227.2</ele>
        <time>2021-10-11T13:27:29Z</time>
      </trkpt>
      <trkpt lat="42.8145680" lon="-5.9481990">
        <ele>1226.4</ele>
        <time>2021-10-11T13:27:31Z</time>
      </trkpt>
      <trkpt lat="42.8145090" lon="-5.9481910">
        <ele>1226.4</ele>
        <time>2021-10-11T13:27:32Z</time>
      </trkpt>
      <trkpt lat="42.8144380" lon="-5.9482000">
        <ele>1226.2</ele>
        <time>2021-10-11T13:27:33Z</time>
      </trkpt>
      <trkpt lat="42.8143940" lon="-5.9482180">
        <ele>1226.2</ele>
        <time>2021-10-11T13:27:34Z</time>
      </trkpt>
      <trkpt lat="42.8142740" lon="-5.9482620">
        <ele>1226.0</ele>
        <time>2021-10-11T13:27:36Z</time>
      </trkpt>
      <trkpt lat="42.8139280" lon="-5.9483420">
        <ele>1226.0</ele>
        <time>2021-10-11T13:27:42Z</time>
      </trkpt>
      <trkpt lat="42.8138860" lon="-5.9483390">
        <ele>1226.0</ele>
        <time>2021-10-11T13:27:43Z</time>
      </trkpt>
      <trkpt lat="42.8135990" lon="-5.9482820">
        <ele>1227.0</ele>
        <time>2021-10-11T13:27:49Z</time>
      </trkpt>
      <trkpt lat="42.8135140" lon="-5.9482520">
        <ele>1227.2</ele>
        <time>2021-10-11T13:27:51Z</time>
      </trkpt>
      <trkpt lat="42.8133410" lon="-5.9482360">
        <ele>1228.2</ele>
        <time>2021-10-11T13:27:55Z</time>
      </trkpt>
      <trkpt lat="42.8132890" lon="-5.9482430">
        <ele>1228.6</ele>
        <time>2021-10-11T13:27:56Z</time>
      </trkpt>
      <trkpt lat="42.8131410" lon="-5.9483110">
        <ele>1229.0</ele>
        <time>2021-10-11T13:28:00Z</time>
      </trkpt>
      <trkpt lat="42.8130790" lon="-5.9483550">
        <ele>1229.6</ele>
        <time>2021-10-11T13:28:02Z</time>
      </trkpt>
      <trkpt lat="42.8129690" lon="-5.9484220">
        <ele>1230.0</ele>
        <time>2021-10-11T13:28:05Z</time>
      </trkpt>
      <trkpt lat="42.8128780" lon="-5.9484850">
        <ele>1230.2</ele>
        <time>2021-10-11T13:28:08Z</time>
      </trkpt>
      <trkpt lat="42.8128130" lon="-5.9485350">
        <ele>1230.6</ele>
        <time>2021-10-11T13:28:10Z</time>
      </trkpt>
      <trkpt lat="42.8127810" lon="-5.9485580">
        <ele>1230.6</ele>
        <time>2021-10-11T13:28:11Z</time>
      </trkpt>
      <trkpt lat="42.8126800" lon="-5.9486110">
        <ele>1231.0</ele>
        <time>2021-10-11T13:28:14Z</time>
      </trkpt>
      <trkpt lat="42.8126320" lon="-5.9486350">
        <ele>1231.0</ele>
        <time>2021-10-11T13:28:15Z</time>
      </trkpt>
      <trkpt lat="42.8125860" lon="-5.9486480">
        <ele>1231.0</ele>
        <time>2021-10-11T13:28:16Z</time>
      </trkpt>
      <trkpt lat="42.8125360" lon="-5.9486520">
        <ele>1231.0</ele>
        <time>2021-10-11T13:28:17Z</time>
      </trkpt>
      <trkpt lat="42.8124950" lon="-5.9486500">
        <ele>1230.8</ele>
        <time>2021-10-11T13:28:18Z</time>
      </trkpt>
      <trkpt lat="42.8124400" lon="-5.9486450">
        <ele>1230.8</ele>
        <time>2021-10-11T13:28:19Z</time>
      </trkpt>
      <trkpt lat="42.8123170" lon="-5.9485980">
        <ele>1230.8</ele>
        <time>2021-10-11T13:28:21Z</time>
      </trkpt>
      <trkpt lat="42.8122610" lon="-5.9485560">
        <ele>1230.6</ele>
        <time>2021-10-11T13:28:22Z</time>
      </trkpt>
      <trkpt lat="42.8121670" lon="-5.9484490">
        <ele>1230.0</ele>
        <time>2021-10-11T13:28:24Z</time>
      </trkpt>
      <trkpt lat="42.8121210" lon="-5.9483770">
        <ele>1229.8</ele>
        <time>2021-10-11T13:28:25Z</time>
      </trkpt>
      <trkpt lat="42.8120750" lon="-5.9482780">
        <ele>1229.6</ele>
        <time>2021-10-11T13:28:26Z</time>
      </trkpt>
      <trkpt lat="42.8120400" lon="-5.9481850">
        <ele>1229.0</ele>
        <time>2021-10-11T13:28:27Z</time>
      </trkpt>
      <trkpt lat="42.8120110" lon="-5.9480880">
        <ele>1228.6</ele>
        <time>2021-10-11T13:28:28Z</time>
      </trkpt>
      <trkpt lat="42.8119220" lon="-5.9477940">
        <ele>1227.0</ele>
        <time>2021-10-11T13:28:31Z</time>
      </trkpt>
      <trkpt lat="42.8118460" lon="-5.9475090">
        <ele>1226.0</ele>
        <time>2021-10-11T13:28:34Z</time>
      </trkpt>
      <trkpt lat="42.8117870" lon="-5.9472870">
        <ele>1224.6</ele>
        <time>2021-10-11T13:28:36Z</time>
      </trkpt>
      <trkpt lat="42.8117250" lon="-5.9470920">
        <ele>1223.0</ele>
        <time>2021-10-11T13:28:38Z</time>
      </trkpt>
      <trkpt lat="42.8117010" lon="-5.9470170">
        <ele>1222.6</ele>
        <time>2021-10-11T13:28:39Z</time>
      </trkpt>
      <trkpt lat="42.8116400" lon="-5.9468070">
        <ele>1222.0</ele>
        <time>2021-10-11T13:28:41Z</time>
      </trkpt>
      <trkpt lat="42.8115680" lon="-5.9465280">
        <ele>1221.0</ele>
        <time>2021-10-11T13:28:44Z</time>
      </trkpt>
      <trkpt lat="42.8115400" lon="-5.9464290">
        <ele>1220.8</ele>
        <time>2021-10-11T13:28:45Z</time>
      </trkpt>
      <trkpt lat="42.8115040" lon="-5.9463130">
        <ele>1220.6</ele>
        <time>2021-10-11T13:28:46Z</time>
      </trkpt>
      <trkpt lat="42.8113730" lon="-5.9459550">
        <ele>1220.0</ele>
        <time>2021-10-11T13:28:50Z</time>
      </trkpt>
      <trkpt lat="42.8113360" lon="-5.9458430">
        <ele>1219.6</ele>
        <time>2021-10-11T13:28:51Z</time>
      </trkpt>
      <trkpt lat="42.8112800" lon="-5.9456600">
        <ele>1219.4</ele>
        <time>2021-10-11T13:28:53Z</time>
      </trkpt>
      <trkpt lat="42.8112600" lon="-5.9455900">
        <ele>1219.4</ele>
        <time>2021-10-11T13:28:54Z</time>
      </trkpt>
      <trkpt lat="42.8111880" lon="-5.9453140">
        <ele>1219.2</ele>
        <time>2021-10-11T13:28:57Z</time>
      </trkpt>
      <trkpt lat="42.8111230" lon="-5.9450790">
        <ele>1219.2</ele>
        <time>2021-10-11T13:29:00Z</time>
      </trkpt>
      <trkpt lat="42.8110510" lon="-5.9448210">
        <ele>1219.2</ele>
        <time>2021-10-11T13:29:03Z</time>
      </trkpt>
      <trkpt lat="42.8109510" lon="-5.9445230">
        <ele>1219.2</ele>
        <time>2021-10-11T13:29:07Z</time>
      </trkpt>
      <trkpt lat="42.8108940" lon="-5.9443920">
        <ele>1219.0</ele>
        <time>2021-10-11T13:29:09Z</time>
      </trkpt>
      <trkpt lat="42.8108560" lon="-5.9443260">
        <ele>1219.0</ele>
        <time>2021-10-11T13:29:10Z</time>
      </trkpt>
      <trkpt lat="42.8107510" lon="-5.9441960">
        <ele>1218.8</ele>
        <time>2021-10-11T13:29:12Z</time>
      </trkpt>
      <trkpt lat="42.8105930" lon="-5.9441000">
        <ele>1218.8</ele>
        <time>2021-10-11T13:29:15Z</time>
      </trkpt>
      <trkpt lat="42.8105240" lon="-5.9440780">
        <ele>1218.8</ele>
        <time>2021-10-11T13:29:16Z</time>
      </trkpt>
      <trkpt lat="42.8102350" lon="-5.9440350">
        <ele>1218.6</ele>
        <time>2021-10-11T13:29:21Z</time>
      </trkpt>
      <trkpt lat="42.8101260" lon="-5.9440230">
        <ele>1218.6</ele>
        <time>2021-10-11T13:29:23Z</time>
      </trkpt>
      <trkpt lat="42.8099950" lon="-5.9440040">
        <ele>1218.4</ele>
        <time>2021-10-11T13:29:25Z</time>
      </trkpt>
      <trkpt lat="42.8097780" lon="-5.9439780">
        <ele>1218.6</ele>
        <time>2021-10-11T13:29:29Z</time>
      </trkpt>
      <trkpt lat="42.8096230" lon="-5.9439610">
        <ele>1218.8</ele>
        <time>2021-10-11T13:29:32Z</time>
      </trkpt>
      <trkpt lat="42.8094740" lon="-5.9439360">
        <ele>1218.8</ele>
        <time>2021-10-11T13:29:35Z</time>
      </trkpt>
      <trkpt lat="42.8094010" lon="-5.9439260">
        <ele>1219.2</ele>
        <time>2021-10-11T13:29:37Z</time>
      </trkpt>
      <trkpt lat="42.8093650" lon="-5.9439200">
        <ele>1219.4</ele>
        <time>2021-10-11T13:29:38Z</time>
      </trkpt>
      <trkpt lat="42.8092880" lon="-5.9439080">
        <ele>1219.6</ele>
        <time>2021-10-11T13:29:40Z</time>
      </trkpt>
      <trkpt lat="42.8092310" lon="-5.9439030">
        <ele>1220.0</ele>
        <time>2021-10-11T13:29:42Z</time>
      </trkpt>
      <trkpt lat="42.8091600" lon="-5.9438950">
        <ele>1220.4</ele>
        <time>2021-10-11T13:29:44Z</time>
      </trkpt>
      <trkpt lat="42.8090400" lon="-5.9438800">
        <ele>1221.0</ele>
        <time>2021-10-11T13:29:48Z</time>
      </trkpt>
      <trkpt lat="42.8089550" lon="-5.9438700">
        <ele>1221.2</ele>
        <time>2021-10-11T13:29:51Z</time>
      </trkpt>
      <trkpt lat="42.8088360" lon="-5.9438560">
        <ele>1222.0</ele>
        <time>2021-10-11T13:29:55Z</time>
      </trkpt>
      <trkpt lat="42.8087770" lon="-5.9438500">
        <ele>1222.4</ele>
        <time>2021-10-11T13:29:57Z</time>
      </trkpt>
      <trkpt lat="42.8086570" lon="-5.9438320">
        <ele>1222.8</ele>
        <time>2021-10-11T13:30:01Z</time>
      </trkpt>
      <trkpt lat="42.8085980" lon="-5.9438250">
        <ele>1223.2</ele>
        <time>2021-10-11T13:30:03Z</time>
      </trkpt>
      <trkpt lat="42.8084890" lon="-5.9438040">
        <ele>1223.8</ele>
        <time>2021-10-11T13:30:07Z</time>
      </trkpt>
      <trkpt lat="42.8084290" lon="-5.9437980">
        <ele>1224.2</ele>
        <time>2021-10-11T13:30:09Z</time>
      </trkpt>
      <trkpt lat="42.8083810" lon="-5.9437890">
        <ele>1224.4</ele>
        <time>2021-10-11T13:30:11Z</time>
      </trkpt>
      <trkpt lat="42.8082930" lon="-5.9437730">
        <ele>1224.6</ele>
        <time>2021-10-11T13:30:14Z</time>
      </trkpt>
      <trkpt lat="42.8082710" lon="-5.9437700">
        <ele>1224.8</ele>
        <time>2021-10-11T13:30:15Z</time>
      </trkpt>
      <trkpt lat="42.8082090" lon="-5.9437620">
        <ele>1225.0</ele>
        <time>2021-10-11T13:30:17Z</time>
      </trkpt>
      <trkpt lat="42.8081530" lon="-5.9437500">
        <ele>1225.2</ele>
        <time>2021-10-11T13:30:19Z</time>
      </trkpt>
      <trkpt lat="42.8081310" lon="-5.9437460">
        <ele>1225.4</ele>
        <time>2021-10-11T13:30:20Z</time>
      </trkpt>
      <trkpt lat="42.8079930" lon="-5.9437270">
        <ele>1226.0</ele>
        <time>2021-10-11T13:30:25Z</time>
      </trkpt>
      <trkpt lat="42.8079300" lon="-5.9437150">
        <ele>1226.2</ele>
        <time>2021-10-11T13:30:27Z</time>
      </trkpt>
      <trkpt lat="42.8078780" lon="-5.9437050">
        <ele>1226.6</ele>
        <time>2021-10-11T13:30:29Z</time>
      </trkpt>
      <trkpt lat="42.8078190" lon="-5.9436950">
        <ele>1226.8</ele>
        <time>2021-10-11T13:30:31Z</time>
      </trkpt>
      <trkpt lat="42.8077530" lon="-5.9436890">
        <ele>1227.0</ele>
        <time>2021-10-11T13:30:33Z</time>
      </trkpt>
      <trkpt lat="42.8077190" lon="-5.9436850">
        <ele>1227.0</ele>
        <time>2021-10-11T13:30:34Z</time>
      </trkpt>
      <trkpt lat="42.8074140" lon="-5.9436350">
        <ele>1227.2</ele>
        <time>2021-10-11T13:30:43Z</time>
      </trkpt>
      <trkpt lat="42.8071720" lon="-5.9435620">
        <ele>1227.2</ele>
        <time>2021-10-11T13:30:49Z</time>
      </trkpt>
      <trkpt lat="42.8071300" lon="-5.9435430">
        <ele>1227.2</ele>
        <time>2021-10-11T13:30:50Z</time>
      </trkpt>
      <trkpt lat="42.8070240" lon="-5.9434650">
        <ele>1227.2</ele>
        <time>2021-10-11T13:30:53Z</time>
      </trkpt>
      <trkpt lat="42.8069790" lon="-5.9434280">
        <ele>1227.2</ele>
        <time>2021-10-11T13:30:54Z</time>
      </trkpt>
      <trkpt lat="42.8069440" lon="-5.9433960">
        <ele>1227.2</ele>
        <time>2021-10-11T13:30:55Z</time>
      </trkpt>
      <trkpt lat="42.8068870" lon="-5.9433390">
        <ele>1227.4</ele>
        <time>2021-10-11T13:30:57Z</time>
      </trkpt>
      <trkpt lat="42.8067570" lon="-5.9432020">
        <ele>1227.4</ele>
        <time>2021-10-11T13:31:01Z</time>
      </trkpt>
      <trkpt lat="42.8065710" lon="-5.9430160">
        <ele>1227.6</ele>
        <time>2021-10-11T13:31:07Z</time>
      </trkpt>
      <trkpt lat="42.8065320" lon="-5.9429780">
        <ele>1227.6</ele>
        <time>2021-10-11T13:31:08Z</time>
      </trkpt>
      <trkpt lat="42.8063650" lon="-5.9428090">
        <ele>1227.4</ele>
        <time>2021-10-11T13:31:13Z</time>
      </trkpt>
      <trkpt lat="42.8062630" lon="-5.9427100">
        <ele>1227.4</ele>
        <time>2021-10-11T13:31:16Z</time>
      </trkpt>
      <trkpt lat="42.8059790" lon="-5.9424740">
        <ele>1227.2</ele>
        <time>2021-10-11T13:31:23Z</time>
      </trkpt>
      <trkpt lat="42.8059400" lon="-5.9424450">
        <ele>1227.2</ele>
        <time>2021-10-11T13:31:24Z</time>
      </trkpt>
      <trkpt lat="42.8058550" lon="-5.9423860">
        <ele>1227.0</ele>
        <time>2021-10-11T13:31:26Z</time>
      </trkpt>
      <trkpt lat="42.8058120" lon="-5.9423580">
        <ele>1227.0</ele>
        <time>2021-10-11T13:31:27Z</time>
      </trkpt>
      <trkpt lat="42.8056390" lon="-5.9422450">
        <ele>1227.0</ele>
        <time>2021-10-11T13:31:31Z</time>
      </trkpt>
      <trkpt lat="42.8055540" lon="-5.9421940">
        <ele>1227.0</ele>
        <time>2021-10-11T13:31:33Z</time>
      </trkpt>
      <trkpt lat="42.8055180" lon="-5.9421730">
        <ele>1227.0</ele>
        <time>2021-10-11T13:31:34Z</time>
      </trkpt>
      <trkpt lat="42.8054130" lon="-5.9421210">
        <ele>1226.8</ele>
        <time>2021-10-11T13:31:36Z</time>
      </trkpt>
      <trkpt lat="42.8050820" lon="-5.9419400">
        <ele>1226.0</ele>
        <time>2021-10-11T13:31:42Z</time>
      </trkpt>
      <trkpt lat="42.8050320" lon="-5.9419110">
        <ele>1225.8</ele>
        <time>2021-10-11T13:31:43Z</time>
      </trkpt>
      <trkpt lat="42.8048180" lon="-5.9417960">
        <ele>1225.2</ele>
        <time>2021-10-11T13:31:46Z</time>
      </trkpt>
      <trkpt lat="42.8046910" lon="-5.9417280">
        <ele>1224.6</ele>
        <time>2021-10-11T13:31:48Z</time>
      </trkpt>
      <trkpt lat="42.8045260" lon="-5.9416350">
        <ele>1224.0</ele>
        <time>2021-10-11T13:31:50Z</time>
      </trkpt>
      <trkpt lat="42.8043840" lon="-5.9415530">
        <ele>1223.2</ele>
        <time>2021-10-11T13:31:52Z</time>
      </trkpt>
      <trkpt lat="42.8042230" lon="-5.9414620">
        <ele>1222.0</ele>
        <time>2021-10-11T13:31:54Z</time>
      </trkpt>
      <trkpt lat="42.8040420" lon="-5.9413570">
        <ele>1221.0</ele>
        <time>2021-10-11T13:31:56Z</time>
      </trkpt>
      <trkpt lat="42.8038920" lon="-5.9412740">
        <ele>1219.6</ele>
        <time>2021-10-11T13:31:58Z</time>
      </trkpt>
      <trkpt lat="42.8035600" lon="-5.9410920">
        <ele>1218.0</ele>
        <time>2021-10-11T13:32:02Z</time>
      </trkpt>
      <trkpt lat="42.8033770" lon="-5.9409860">
        <ele>1217.0</ele>
        <time>2021-10-11T13:32:04Z</time>
      </trkpt>
      <trkpt lat="42.8032230" lon="-5.9408980">
        <ele>1216.0</ele>
        <time>2021-10-11T13:32:06Z</time>
      </trkpt>
      <trkpt lat="42.8030290" lon="-5.9407880">
        <ele>1214.8</ele>
        <time>2021-10-11T13:32:08Z</time>
      </trkpt>
      <trkpt lat="42.8028490" lon="-5.9406810">
        <ele>1213.6</ele>
        <time>2021-10-11T13:32:10Z</time>
      </trkpt>
      <trkpt lat="42.8027750" lon="-5.9406380">
        <ele>1213.6</ele>
        <time>2021-10-11T13:32:11Z</time>
      </trkpt>
      <trkpt lat="42.8025700" lon="-5.9405240">
        <ele>1212.0</ele>
        <time>2021-10-11T13:32:13Z</time>
      </trkpt>
      <trkpt lat="42.8023030" lon="-5.9404300">
        <ele>1210.6</ele>
        <time>2021-10-11T13:32:16Z</time>
      </trkpt>
      <trkpt lat="42.8020880" lon="-5.9404400">
        <ele>1209.6</ele>
        <time>2021-10-11T13:32:18Z</time>
      </trkpt>
      <trkpt lat="42.8019910" lon="-5.9404750">
        <ele>1208.8</ele>
        <time>2021-10-11T13:32:19Z</time>
      </trkpt>
      <trkpt lat="42.8019170" lon="-5.9405170">
        <ele>1208.6</ele>
        <time>2021-10-11T13:32:20Z</time>
      </trkpt>
      <trkpt lat="42.8018270" lon="-5.9405820">
        <ele>1207.8</ele>
        <time>2021-10-11T13:32:21Z</time>
      </trkpt>
      <trkpt lat="42.8016380" lon="-5.9407420">
        <ele>1206.6</ele>
        <time>2021-10-11T13:32:23Z</time>
      </trkpt>
      <trkpt lat="42.8014820" lon="-5.9408800">
        <ele>1205.4</ele>
        <time>2021-10-11T13:32:25Z</time>
      </trkpt>
      <trkpt lat="42.8012040" lon="-5.9411280">
        <ele>1204.0</ele>
        <time>2021-10-11T13:32:28Z</time>
      </trkpt>
      <trkpt lat="42.8010510" lon="-5.9412560">
        <ele>1202.6</ele>
        <time>2021-10-11T13:32:30Z</time>
      </trkpt>
      <trkpt lat="42.8009500" lon="-5.9413240">
        <ele>1202.2</ele>
        <time>2021-10-11T13:32:31Z</time>
      </trkpt>
      <trkpt lat="42.8008680" lon="-5.9413640">
        <ele>1201.4</ele>
        <time>2021-10-11T13:32:32Z</time>
      </trkpt>
      <trkpt lat="42.8007210" lon="-5.9414130">
        <ele>1200.2</ele>
        <time>2021-10-11T13:32:34Z</time>
      </trkpt>
      <trkpt lat="42.8006390" lon="-5.9414350">
        <ele>1199.4</ele>
        <time>2021-10-11T13:32:35Z</time>
      </trkpt>
      <trkpt lat="42.8005400" lon="-5.9414600">
        <ele>1199.2</ele>
        <time>2021-10-11T13:32:36Z</time>
      </trkpt>
      <trkpt lat="42.8003700" lon="-5.9414970">
        <ele>1197.8</ele>
        <time>2021-10-11T13:32:38Z</time>
      </trkpt>
      <trkpt lat="42.8001090" lon="-5.9415590">
        <ele>1196.2</ele>
        <time>2021-10-11T13:32:41Z</time>
      </trkpt>
      <trkpt lat="42.8000270" lon="-5.9415990">
        <ele>1195.8</ele>
        <time>2021-10-11T13:32:42Z</time>
      </trkpt>
      <trkpt lat="42.7999650" lon="-5.9416500">
        <ele>1195.2</ele>
        <time>2021-10-11T13:32:43Z</time>
      </trkpt>
      <trkpt lat="42.7998890" lon="-5.9417250">
        <ele>1194.4</ele>
        <time>2021-10-11T13:32:44Z</time>
      </trkpt>
      <trkpt lat="42.7998040" lon="-5.9418270">
        <ele>1194.0</ele>
        <time>2021-10-11T13:32:45Z</time>
      </trkpt>
      <trkpt lat="42.7997370" lon="-5.9419210">
        <ele>1193.2</ele>
        <time>2021-10-11T13:32:46Z</time>
      </trkpt>
      <trkpt lat="42.7996190" lon="-5.9420980">
        <ele>1192.0</ele>
        <time>2021-10-11T13:32:48Z</time>
      </trkpt>
      <trkpt lat="42.7995520" lon="-5.9421970">
        <ele>1191.6</ele>
        <time>2021-10-11T13:32:49Z</time>
      </trkpt>
      <trkpt lat="42.7994680" lon="-5.9423170">
        <ele>1190.8</ele>
        <time>2021-10-11T13:32:50Z</time>
      </trkpt>
      <trkpt lat="42.7993240" lon="-5.9425200">
        <ele>1189.4</ele>
        <time>2021-10-11T13:32:52Z</time>
      </trkpt>
      <trkpt lat="42.7991110" lon="-5.9428220">
        <ele>1187.6</ele>
        <time>2021-10-11T13:32:55Z</time>
      </trkpt>
      <trkpt lat="42.7990390" lon="-5.9429110">
        <ele>1187.2</ele>
        <time>2021-10-11T13:32:56Z</time>
      </trkpt>
      <trkpt lat="42.7989770" lon="-5.9429740">
        <ele>1186.2</ele>
        <time>2021-10-11T13:32:57Z</time>
      </trkpt>
      <trkpt lat="42.7988900" lon="-5.9430370">
        <ele>1185.8</ele>
        <time>2021-10-11T13:32:58Z</time>
      </trkpt>
      <trkpt lat="42.7987770" lon="-5.9430890">
        <ele>1184.8</ele>
        <time>2021-10-11T13:32:59Z</time>
      </trkpt>
      <trkpt lat="42.7986770" lon="-5.9431110">
        <ele>1184.2</ele>
        <time>2021-10-11T13:33:00Z</time>
      </trkpt>
      <trkpt lat="42.7985730" lon="-5.9431190">
        <ele>1183.2</ele>
        <time>2021-10-11T13:33:01Z</time>
      </trkpt>
      <trkpt lat="42.7984920" lon="-5.9431140">
        <ele>1183.0</ele>
        <time>2021-10-11T13:33:02Z</time>
      </trkpt>
      <trkpt lat="42.7983870" lon="-5.9431060">
        <ele>1182.2</ele>
        <time>2021-10-11T13:33:03Z</time>
      </trkpt>
      <trkpt lat="42.7982670" lon="-5.9431170">
        <ele>1182.0</ele>
        <time>2021-10-11T13:33:04Z</time>
      </trkpt>
      <trkpt lat="42.7981750" lon="-5.9431580">
        <ele>1181.2</ele>
        <time>2021-10-11T13:33:05Z</time>
      </trkpt>
      <trkpt lat="42.7980910" lon="-5.9432240">
        <ele>1180.2</ele>
        <time>2021-10-11T13:33:06Z</time>
      </trkpt>
      <trkpt lat="42.7980390" lon="-5.9433020">
        <ele>1179.6</ele>
        <time>2021-10-11T13:33:07Z</time>
      </trkpt>
      <trkpt lat="42.7979820" lon="-5.9434120">
        <ele>1178.4</ele>
        <time>2021-10-11T13:33:08Z</time>
      </trkpt>
      <trkpt lat="42.7978540" lon="-5.9436630">
        <ele>1177.4</ele>
        <time>2021-10-11T13:33:10Z</time>
      </trkpt>
      <trkpt lat="42.7977970" lon="-5.9437490">
        <ele>1177.0</ele>
        <time>2021-10-11T13:33:11Z</time>
      </trkpt>
      <trkpt lat="42.7977180" lon="-5.9438500">
        <ele>1176.2</ele>
        <time>2021-10-11T13:33:12Z</time>
      </trkpt>
      <trkpt lat="42.7975230" lon="-5.9440420">
        <ele>1175.0</ele>
        <time>2021-10-11T13:33:14Z</time>
      </trkpt>
      <trkpt lat="42.7974300" lon="-5.9441150">
        <ele>1174.0</ele>
        <time>2021-10-11T13:33:15Z</time>
      </trkpt>
      <trkpt lat="42.7972760" lon="-5.9442400">
        <ele>1172.6</ele>
        <time>2021-10-11T13:33:17Z</time>
      </trkpt>
      <trkpt lat="42.7972000" lon="-5.9443140">
        <ele>1172.2</ele>
        <time>2021-10-11T13:33:18Z</time>
      </trkpt>
      <trkpt lat="42.7971230" lon="-5.9444170">
        <ele>1171.6</ele>
        <time>2021-10-11T13:33:19Z</time>
      </trkpt>
      <trkpt lat="42.7970840" lon="-5.9444930">
        <ele>1171.2</ele>
        <time>2021-10-11T13:33:20Z</time>
      </trkpt>
      <trkpt lat="42.7970490" lon="-5.9446000">
        <ele>1170.0</ele>
        <time>2021-10-11T13:33:21Z</time>
      </trkpt>
      <trkpt lat="42.7970370" lon="-5.9447180">
        <ele>1169.6</ele>
        <time>2021-10-11T13:33:22Z</time>
      </trkpt>
      <trkpt lat="42.7970360" lon="-5.9448690">
        <ele>1168.4</ele>
        <time>2021-10-11T13:33:23Z</time>
      </trkpt>
      <trkpt lat="42.7970210" lon="-5.9451170">
        <ele>1167.2</ele>
        <time>2021-10-11T13:33:25Z</time>
      </trkpt>
      <trkpt lat="42.7970080" lon="-5.9452140">
        <ele>1166.0</ele>
        <time>2021-10-11T13:33:26Z</time>
      </trkpt>
      <trkpt lat="42.7969830" lon="-5.9453300">
        <ele>1165.6</ele>
        <time>2021-10-11T13:33:27Z</time>
      </trkpt>
      <trkpt lat="42.7969400" lon="-5.9454660">
        <ele>1164.4</ele>
        <time>2021-10-11T13:33:28Z</time>
      </trkpt>
      <trkpt lat="42.7968480" lon="-5.9456910">
        <ele>1163.2</ele>
        <time>2021-10-11T13:33:30Z</time>
      </trkpt>
      <trkpt lat="42.7968100" lon="-5.9457820">
        <ele>1162.8</ele>
        <time>2021-10-11T13:33:31Z</time>
      </trkpt>
      <trkpt lat="42.7967500" lon="-5.9459170">
        <ele>1162.0</ele>
        <time>2021-10-11T13:33:32Z</time>
      </trkpt>
      <trkpt lat="42.7966220" lon="-5.9461100">
        <ele>1161.0</ele>
        <time>2021-10-11T13:33:34Z</time>
      </trkpt>
      <trkpt lat="42.7965640" lon="-5.9461720">
        <ele>1160.4</ele>
        <time>2021-10-11T13:33:35Z</time>
      </trkpt>
      <trkpt lat="42.7964880" lon="-5.9462410">
        <ele>1159.4</ele>
        <time>2021-10-11T13:33:36Z</time>
      </trkpt>
      <trkpt lat="42.7963900" lon="-5.9463090">
        <ele>1158.6</ele>
        <time>2021-10-11T13:33:37Z</time>
      </trkpt>
      <trkpt lat="42.7963040" lon="-5.9463470">
        <ele>1158.0</ele>
        <time>2021-10-11T13:33:38Z</time>
      </trkpt>
      <trkpt lat="42.7962130" lon="-5.9463610">
        <ele>1157.2</ele>
        <time>2021-10-11T13:33:39Z</time>
      </trkpt>
      <trkpt lat="42.7961400" lon="-5.9463600">
        <ele>1156.8</ele>
        <time>2021-10-11T13:33:40Z</time>
      </trkpt>
      <trkpt lat="42.7960490" lon="-5.9463450">
        <ele>1156.4</ele>
        <time>2021-10-11T13:33:41Z</time>
      </trkpt>
      <trkpt lat="42.7958470" lon="-5.9462850">
        <ele>1155.0</ele>
        <time>2021-10-11T13:33:43Z</time>
      </trkpt>
      <trkpt lat="42.7955650" lon="-5.9461510">
        <ele>1153.4</ele>
        <time>2021-10-11T13:33:46Z</time>
      </trkpt>
      <trkpt lat="42.7953820" lon="-5.9460080">
        <ele>1152.0</ele>
        <time>2021-10-11T13:33:48Z</time>
      </trkpt>
      <trkpt lat="42.7952330" lon="-5.9458540">
        <ele>1150.2</ele>
        <time>2021-10-11T13:33:50Z</time>
      </trkpt>
      <trkpt lat="42.7950550" lon="-5.9457010">
        <ele>1149.2</ele>
        <time>2021-10-11T13:33:52Z</time>
      </trkpt>
      <trkpt lat="42.7949630" lon="-5.9456720">
        <ele>1148.6</ele>
        <time>2021-10-11T13:33:53Z</time>
      </trkpt>
      <trkpt lat="42.7948880" lon="-5.9456790">
        <ele>1147.8</ele>
        <time>2021-10-11T13:33:54Z</time>
      </trkpt>
      <trkpt lat="42.7947830" lon="-5.9457230">
        <ele>1147.4</ele>
        <time>2021-10-11T13:33:55Z</time>
      </trkpt>
      <trkpt lat="42.7947040" lon="-5.9457920">
        <ele>1146.4</ele>
        <time>2021-10-11T13:33:56Z</time>
      </trkpt>
      <trkpt lat="42.7946260" lon="-5.9458700">
        <ele>1145.2</ele>
        <time>2021-10-11T13:33:57Z</time>
      </trkpt>
      <trkpt lat="42.7944820" lon="-5.9460000">
        <ele>1144.0</ele>
        <time>2021-10-11T13:33:59Z</time>
      </trkpt>
      <trkpt lat="42.7943870" lon="-5.9460720">
        <ele>1143.6</ele>
        <time>2021-10-11T13:34:00Z</time>
      </trkpt>
      <trkpt lat="42.7943080" lon="-5.9461120">
        <ele>1142.8</ele>
        <time>2021-10-11T13:34:01Z</time>
      </trkpt>
      <trkpt lat="42.7942310" lon="-5.9461240">
        <ele>1142.4</ele>
        <time>2021-10-11T13:34:02Z</time>
      </trkpt>
      <trkpt lat="42.7941710" lon="-5.9461070">
        <ele>1141.6</ele>
        <time>2021-10-11T13:34:03Z</time>
      </trkpt>
      <trkpt lat="42.7941010" lon="-5.9460560">
        <ele>1141.0</ele>
        <time>2021-10-11T13:34:04Z</time>
      </trkpt>
      <trkpt lat="42.7940310" lon="-5.9459570">
        <ele>1140.0</ele>
        <time>2021-10-11T13:34:05Z</time>
      </trkpt>
      <trkpt lat="42.7939240" lon="-5.9457850">
        <ele>1138.8</ele>
        <time>2021-10-11T13:34:07Z</time>
      </trkpt>
      <trkpt lat="42.7937970" lon="-5.9457030">
        <ele>1137.8</ele>
        <time>2021-10-11T13:34:09Z</time>
      </trkpt>
      <trkpt lat="42.7936200" lon="-5.9457180">
        <ele>1136.6</ele>
        <time>2021-10-11T13:34:11Z</time>
      </trkpt>
      <trkpt lat="42.7935400" lon="-5.9457340">
        <ele>1136.0</ele>
        <time>2021-10-11T13:34:12Z</time>
      </trkpt>
      <trkpt lat="42.7934820" lon="-5.9457300">
        <ele>1135.4</ele>
        <time>2021-10-11T13:34:13Z</time>
      </trkpt>
      <trkpt lat="42.7934160" lon="-5.9457010">
        <ele>1134.6</ele>
        <time>2021-10-11T13:34:14Z</time>
      </trkpt>
      <trkpt lat="42.7933550" lon="-5.9456330">
        <ele>1134.0</ele>
        <time>2021-10-11T13:34:15Z</time>
      </trkpt>
      <trkpt lat="42.7933190" lon="-5.9455550">
        <ele>1133.2</ele>
        <time>2021-10-11T13:34:16Z</time>
      </trkpt>
      <trkpt lat="42.7932990" lon="-5.9454770">
        <ele>1132.6</ele>
        <time>2021-10-11T13:34:17Z</time>
      </trkpt>
      <trkpt lat="42.7932760" lon="-5.9453730">
        <ele>1132.2</ele>
        <time>2021-10-11T13:34:18Z</time>
      </trkpt>
      <trkpt lat="42.7932270" lon="-5.9452510">
        <ele>1131.4</ele>
        <time>2021-10-11T13:34:19Z</time>
      </trkpt>
      <trkpt lat="42.7931630" lon="-5.9451850">
        <ele>1131.2</ele>
        <time>2021-10-11T13:34:20Z</time>
      </trkpt>
      <trkpt lat="42.7930920" lon="-5.9451550">
        <ele>1130.2</ele>
        <time>2021-10-11T13:34:21Z</time>
      </trkpt>
      <trkpt lat="42.7930330" lon="-5.9451610">
        <ele>1129.6</ele>
        <time>2021-10-11T13:34:22Z</time>
      </trkpt>
      <trkpt lat="42.7929580" lon="-5.9451920">
        <ele>1129.0</ele>
        <time>2021-10-11T13:34:23Z</time>
      </trkpt>
      <trkpt lat="42.7928680" lon="-5.9452580">
        <ele>1128.8</ele>
        <time>2021-10-11T13:34:24Z</time>
      </trkpt>
      <trkpt lat="42.7927150" lon="-5.9454250">
        <ele>1128.0</ele>
        <time>2021-10-11T13:34:26Z</time>
      </trkpt>
      <trkpt lat="42.7926520" lon="-5.9455000">
        <ele>1127.4</ele>
        <time>2021-10-11T13:34:27Z</time>
      </trkpt>
      <trkpt lat="42.7924800" lon="-5.9457030">
        <ele>1126.6</ele>
        <time>2021-10-11T13:34:29Z</time>
      </trkpt>
      <trkpt lat="42.7923970" lon="-5.9457840">
        <ele>1126.0</ele>
        <time>2021-10-11T13:34:30Z</time>
      </trkpt>
      <trkpt lat="42.7923260" lon="-5.9458360">
        <ele>1125.6</ele>
        <time>2021-10-11T13:34:31Z</time>
      </trkpt>
      <trkpt lat="42.7922320" lon="-5.9458850">
        <ele>1124.8</ele>
        <time>2021-10-11T13:34:32Z</time>
      </trkpt>
      <trkpt lat="42.7921110" lon="-5.9459140">
        <ele>1124.2</ele>
        <time>2021-10-11T13:34:33Z</time>
      </trkpt>
      <trkpt lat="42.7920070" lon="-5.9459210">
        <ele>1123.4</ele>
        <time>2021-10-11T13:34:34Z</time>
      </trkpt>
      <trkpt lat="42.7919010" lon="-5.9459160">
        <ele>1123.0</ele>
        <time>2021-10-11T13:34:35Z</time>
      </trkpt>
      <trkpt lat="42.7918150" lon="-5.9459030">
        <ele>1121.8</ele>
        <time>2021-10-11T13:34:36Z</time>
      </trkpt>
      <trkpt lat="42.7917070" lon="-5.9458830">
        <ele>1120.8</ele>
        <time>2021-10-11T13:34:37Z</time>
      </trkpt>
      <trkpt lat="42.7914660" lon="-5.9458130">
        <ele>1119.4</ele>
        <time>2021-10-11T13:34:39Z</time>
      </trkpt>
      <trkpt lat="42.7912690" lon="-5.9457500">
        <ele>1118.0</ele>
        <time>2021-10-11T13:34:41Z</time>
      </trkpt>
      <trkpt lat="42.7910380" lon="-5.9456700">
        <ele>1117.0</ele>
        <time>2021-10-11T13:34:43Z</time>
      </trkpt>
      <trkpt lat="42.7908500" lon="-5.9456080">
        <ele>1115.4</ele>
        <time>2021-10-11T13:34:45Z</time>
      </trkpt>
      <trkpt lat="42.7907560" lon="-5.9455760">
        <ele>1115.0</ele>
        <time>2021-10-11T13:34:46Z</time>
      </trkpt>
      <trkpt lat="42.7906480" lon="-5.9455290">
        <ele>1113.8</ele>
        <time>2021-10-11T13:34:47Z</time>
      </trkpt>
      <trkpt lat="42.7905620" lon="-5.9454840">
        <ele>1112.2</ele>
        <time>2021-10-11T13:34:48Z</time>
      </trkpt>
      <trkpt lat="42.7904170" lon="-5.9453700">
        <ele>1111.0</ele>
        <time>2021-10-11T13:34:50Z</time>
      </trkpt>
      <trkpt lat="42.7902590" lon="-5.9451860">
        <ele>1110.2</ele>
        <time>2021-10-11T13:34:52Z</time>
      </trkpt>
      <trkpt lat="42.7901490" lon="-5.9450030">
        <ele>1108.6</ele>
        <time>2021-10-11T13:34:54Z</time>
      </trkpt>
      <trkpt lat="42.7900450" lon="-5.9447770">
        <ele>1107.4</ele>
        <time>2021-10-11T13:34:56Z</time>
      </trkpt>
      <trkpt lat="42.7899530" lon="-5.9445490">
        <ele>1105.8</ele>
        <time>2021-10-11T13:34:58Z</time>
      </trkpt>
      <trkpt lat="42.7899130" lon="-5.9444380">
        <ele>1105.0</ele>
        <time>2021-10-11T13:34:59Z</time>
      </trkpt>
      <trkpt lat="42.7898700" lon="-5.9443280">
        <ele>1104.8</ele>
        <time>2021-10-11T13:35:00Z</time>
      </trkpt>
      <trkpt lat="42.7898190" lon="-5.9442280">
        <ele>1104.0</ele>
        <time>2021-10-11T13:35:01Z</time>
      </trkpt>
      <trkpt lat="42.7897560" lon="-5.9441430">
        <ele>1103.4</ele>
        <time>2021-10-11T13:35:02Z</time>
      </trkpt>
      <trkpt lat="42.7896820" lon="-5.9440720">
        <ele>1102.6</ele>
        <time>2021-10-11T13:35:03Z</time>
      </trkpt>
      <trkpt lat="42.7895980" lon="-5.9440250">
        <ele>1102.0</ele>
        <time>2021-10-11T13:35:04Z</time>
      </trkpt>
      <trkpt lat="42.7894030" lon="-5.9439550">
        <ele>1100.6</ele>
        <time>2021-10-11T13:35:06Z</time>
      </trkpt>
      <trkpt lat="42.7893130" lon="-5.9439150">
        <ele>1099.6</ele>
        <time>2021-10-11T13:35:07Z</time>
      </trkpt>
      <trkpt lat="42.7892240" lon="-5.9438610">
        <ele>1099.0</ele>
        <time>2021-10-11T13:35:08Z</time>
      </trkpt>
      <trkpt lat="42.7891590" lon="-5.9438100">
        <ele>1098.6</ele>
        <time>2021-10-11T13:35:09Z</time>
      </trkpt>
      <trkpt lat="42.7889840" lon="-5.9436620">
        <ele>1098.0</ele>
        <time>2021-10-11T13:35:11Z</time>
      </trkpt>
      <trkpt lat="42.7888250" lon="-5.9435190">
        <ele>1096.6</ele>
        <time>2021-10-11T13:35:13Z</time>
      </trkpt>
      <trkpt lat="42.7886790" lon="-5.9433960">
        <ele>1095.4</ele>
        <time>2021-10-11T13:35:15Z</time>
      </trkpt>
      <trkpt lat="42.7885980" lon="-5.9433270">
        <ele>1094.8</ele>
        <time>2021-10-11T13:35:16Z</time>
      </trkpt>
      <trkpt lat="42.7884330" lon="-5.9432010">
        <ele>1093.4</ele>
        <time>2021-10-11T13:35:18Z</time>
      </trkpt>
      <trkpt lat="42.7883450" lon="-5.9431410">
        <ele>1092.4</ele>
        <time>2021-10-11T13:35:19Z</time>
      </trkpt>
      <trkpt lat="42.7881480" lon="-5.9430130">
        <ele>1091.0</ele>
        <time>2021-10-11T13:35:21Z</time>
      </trkpt>
      <trkpt lat="42.7880550" lon="-5.9429580">
        <ele>1090.6</ele>
        <time>2021-10-11T13:35:22Z</time>
      </trkpt>
      <trkpt lat="42.7879830" lon="-5.9429160">
        <ele>1089.8</ele>
        <time>2021-10-11T13:35:23Z</time>
      </trkpt>
      <trkpt lat="42.7876920" lon="-5.9427480">
        <ele>1088.4</ele>
        <time>2021-10-11T13:35:26Z</time>
      </trkpt>
      <trkpt lat="42.7875260" lon="-5.9426830">
        <ele>1086.6</ele>
        <time>2021-10-11T13:35:28Z</time>
      </trkpt>
      <trkpt lat="42.7873370" lon="-5.9426410">
        <ele>1085.2</ele>
        <time>2021-10-11T13:35:30Z</time>
      </trkpt>
      <trkpt lat="42.7871360" lon="-5.9426220">
        <ele>1084.0</ele>
        <time>2021-10-11T13:35:32Z</time>
      </trkpt>
      <trkpt lat="42.7870690" lon="-5.9426260">
        <ele>1083.6</ele>
        <time>2021-10-11T13:35:33Z</time>
      </trkpt>
      <trkpt lat="42.7869970" lon="-5.9426400">
        <ele>1083.0</ele>
        <time>2021-10-11T13:35:34Z</time>
      </trkpt>
      <trkpt lat="42.7868730" lon="-5.9427400">
        <ele>1082.2</ele>
        <time>2021-10-11T13:35:36Z</time>
      </trkpt>
      <trkpt lat="42.7868180" lon="-5.9428630">
        <ele>1081.4</ele>
        <time>2021-10-11T13:35:38Z</time>
      </trkpt>
      <trkpt lat="42.7867780" lon="-5.9429400">
        <ele>1081.2</ele>
        <time>2021-10-11T13:35:39Z</time>
      </trkpt>
      <trkpt lat="42.7867400" lon="-5.9429870">
        <ele>1081.0</ele>
        <time>2021-10-11T13:35:40Z</time>
      </trkpt>
      <trkpt lat="42.7867040" lon="-5.9430100">
        <ele>1081.0</ele>
        <time>2021-10-11T13:35:41Z</time>
      </trkpt>
      <trkpt lat="42.7866070" lon="-5.9430370">
        <ele>1080.8</ele>
        <time>2021-10-11T13:35:43Z</time>
      </trkpt>
      <trkpt lat="42.7863130" lon="-5.9429470">
        <ele>1081.0</ele>
        <time>2021-10-11T13:35:49Z</time>
      </trkpt>
      <trkpt lat="42.7857960" lon="-5.9428630">
        <ele>1081.4</ele>
        <time>2021-10-11T13:35:59Z</time>
      </trkpt>
      <trkpt lat="42.7855090" lon="-5.9427860">
        <ele>1081.4</ele>
        <time>2021-10-11T13:36:04Z</time>
      </trkpt>
      <trkpt lat="42.7853490" lon="-5.9427490">
        <ele>1081.2</ele>
        <time>2021-10-11T13:36:07Z</time>
      </trkpt>
      <trkpt lat="42.7849450" lon="-5.9425790">
        <ele>1080.8</ele>
        <time>2021-10-11T13:36:14Z</time>
      </trkpt>
      <trkpt lat="42.7845670" lon="-5.9422950">
        <ele>1080.0</ele>
        <time>2021-10-11T13:36:21Z</time>
      </trkpt>
      <trkpt lat="42.7843310" lon="-5.9421280">
        <ele>1079.4</ele>
        <time>2021-10-11T13:36:25Z</time>
      </trkpt>
      <trkpt lat="42.7840730" lon="-5.9420150">
        <ele>1079.0</ele>
        <time>2021-10-11T13:36:29Z</time>
      </trkpt>
      <trkpt lat="42.7838720" lon="-5.9419810">
        <ele>1078.4</ele>
        <time>2021-10-11T13:36:32Z</time>
      </trkpt>
      <trkpt lat="42.7835990" lon="-5.9419460">
        <ele>1077.6</ele>
        <time>2021-10-11T13:36:36Z</time>
      </trkpt>
      <trkpt lat="42.7833260" lon="-5.9418670">
        <ele>1077.4</ele>
        <time>2021-10-11T13:36:40Z</time>
      </trkpt>
      <trkpt lat="42.7828540" lon="-5.9417270">
        <ele>1077.0</ele>
        <time>2021-10-11T13:36:47Z</time>
      </trkpt>
      <trkpt lat="42.7824740" lon="-5.9415970">
        <ele>1076.6</ele>
        <time>2021-10-11T13:36:53Z</time>
      </trkpt>
      <trkpt lat="42.7822850" lon="-5.9415350">
        <ele>1076.4</ele>
        <time>2021-10-11T13:36:56Z</time>
      </trkpt>
      <trkpt lat="42.7818980" lon="-5.9414220">
        <ele>1075.4</ele>
        <time>2021-10-11T13:37:02Z</time>
      </trkpt>
      <trkpt lat="42.7817680" lon="-5.9413750">
        <ele>1075.4</ele>
        <time>2021-10-11T13:37:04Z</time>
      </trkpt>
      <trkpt lat="42.7816440" lon="-5.9413360">
        <ele>1075.2</ele>
        <time>2021-10-11T13:37:06Z</time>
      </trkpt>
      <trkpt lat="42.7812060" lon="-5.9412400">
        <ele>1074.8</ele>
        <time>2021-10-11T13:37:13Z</time>
      </trkpt>
      <trkpt lat="42.7811450" lon="-5.9412360">
        <ele>1074.6</ele>
        <time>2021-10-11T13:37:14Z</time>
      </trkpt>
      <trkpt lat="42.7808300" lon="-5.9412430">
        <ele>1074.0</ele>
        <time>2021-10-11T13:37:19Z</time>
      </trkpt>
      <trkpt lat="42.7806360" lon="-5.9412380">
        <ele>1073.6</ele>
        <time>2021-10-11T13:37:22Z</time>
      </trkpt>
      <trkpt lat="42.7805100" lon="-5.9412280">
        <ele>1073.4</ele>
        <time>2021-10-11T13:37:24Z</time>
      </trkpt>
      <trkpt lat="42.7802690" lon="-5.9411990">
        <ele>1073.2</ele>
        <time>2021-10-11T13:37:28Z</time>
      </trkpt>
      <trkpt lat="42.7801500" lon="-5.9411830">
        <ele>1073.2</ele>
        <time>2021-10-11T13:37:30Z</time>
      </trkpt>
      <trkpt lat="42.7796770" lon="-5.9411300">
        <ele>1073.0</ele>
        <time>2021-10-11T13:37:38Z</time>
      </trkpt>
      <trkpt lat="42.7796180" lon="-5.9411280">
        <ele>1073.0</ele>
        <time>2021-10-11T13:37:39Z</time>
      </trkpt>
      <trkpt lat="42.7794900" lon="-5.9411260">
        <ele>1072.8</ele>
        <time>2021-10-11T13:37:41Z</time>
      </trkpt>
      <trkpt lat="42.7793840" lon="-5.9411340">
        <ele>1073.0</ele>
        <time>2021-10-11T13:37:43Z</time>
      </trkpt>
      <trkpt lat="42.7791970" lon="-5.9411740">
        <ele>1073.0</ele>
        <time>2021-10-11T13:37:46Z</time>
      </trkpt>
      <trkpt lat="42.7788240" lon="-5.9412850">
        <ele>1073.0</ele>
        <time>2021-10-11T13:37:53Z</time>
      </trkpt>
      <trkpt lat="42.7786810" lon="-5.9413270">
        <ele>1073.2</ele>
        <time>2021-10-11T13:37:56Z</time>
      </trkpt>
      <trkpt lat="42.7785710" lon="-5.9413810">
        <ele>1073.0</ele>
        <time>2021-10-11T13:38:00Z</time>
      </trkpt>
      <trkpt lat="42.7784240" lon="-5.9414140">
        <ele>1073.0</ele>
        <time>2021-10-11T13:38:04Z</time>
      </trkpt>
      <trkpt lat="42.7783830" lon="-5.9414250">
        <ele>1072.8</ele>
        <time>2021-10-11T13:38:05Z</time>
      </trkpt>
      <trkpt lat="42.7780980" lon="-5.9414840">
        <ele>1072.6</ele>
        <time>2021-10-11T13:38:11Z</time>
      </trkpt>
      <trkpt lat="42.7777580" lon="-5.9415800">
        <ele>1072.4</ele>
        <time>2021-10-11T13:38:17Z</time>
      </trkpt>
      <trkpt lat="42.7775370" lon="-5.9416600">
        <ele>1072.4</ele>
        <time>2021-10-11T13:38:21Z</time>
      </trkpt>
      <trkpt lat="42.7774130" lon="-5.9417150">
        <ele>1072.2</ele>
        <time>2021-10-11T13:38:23Z</time>
      </trkpt>
      <trkpt lat="42.7773570" lon="-5.9417420">
        <ele>1072.2</ele>
        <time>2021-10-11T13:38:24Z</time>
      </trkpt>
      <trkpt lat="42.7770860" lon="-5.9418630">
        <ele>1071.8</ele>
        <time>2021-10-11T13:38:29Z</time>
      </trkpt>
      <trkpt lat="42.7769220" lon="-5.9419490">
        <ele>1071.6</ele>
        <time>2021-10-11T13:38:32Z</time>
      </trkpt>
      <trkpt lat="42.7768660" lon="-5.9419770">
        <ele>1071.4</ele>
        <time>2021-10-11T13:38:33Z</time>
      </trkpt>
      <trkpt lat="42.7767620" lon="-5.9420240">
        <ele>1071.2</ele>
        <time>2021-10-11T13:38:35Z</time>
      </trkpt>
      <trkpt lat="42.7766270" lon="-5.9420840">
        <ele>1071.0</ele>
        <time>2021-10-11T13:38:37Z</time>
      </trkpt>
      <trkpt lat="42.7764550" lon="-5.9421670">
        <ele>1070.8</ele>
        <time>2021-10-11T13:38:40Z</time>
      </trkpt>
      <trkpt lat="42.7763210" lon="-5.9422310">
        <ele>1070.6</ele>
        <time>2021-10-11T13:38:42Z</time>
      </trkpt>
      <trkpt lat="42.7760110" lon="-5.9423710">
        <ele>1069.8</ele>
        <time>2021-10-11T13:38:47Z</time>
      </trkpt>
      <trkpt lat="42.7758400" lon="-5.9424780">
        <ele>1069.4</ele>
        <time>2021-10-11T13:38:50Z</time>
      </trkpt>
      <trkpt lat="42.7757830" lon="-5.9425180">
        <ele>1069.2</ele>
        <time>2021-10-11T13:38:51Z</time>
      </trkpt>
      <trkpt lat="42.7755010" lon="-5.9427170">
        <ele>1068.6</ele>
        <time>2021-10-11T13:38:56Z</time>
      </trkpt>
      <trkpt lat="42.7753420" lon="-5.9428270">
        <ele>1068.4</ele>
        <time>2021-10-11T13:38:59Z</time>
      </trkpt>
      <trkpt lat="42.7751100" lon="-5.9429770">
        <ele>1068.2</ele>
        <time>2021-10-11T13:39:03Z</time>
      </trkpt>
      <trkpt lat="42.7748280" lon="-5.9431530">
        <ele>1067.8</ele>
        <time>2021-10-11T13:39:08Z</time>
      </trkpt>
      <trkpt lat="42.7747740" lon="-5.9431850">
        <ele>1067.6</ele>
        <time>2021-10-11T13:39:09Z</time>
      </trkpt>
      <trkpt lat="42.7746160" lon="-5.9432710">
        <ele>1067.4</ele>
        <time>2021-10-11T13:39:12Z</time>
      </trkpt>
      <trkpt lat="42.7744500" lon="-5.9433560">
        <ele>1067.0</ele>
        <time>2021-10-11T13:39:15Z</time>
      </trkpt>
      <trkpt lat="42.7742150" lon="-5.9434620">
        <ele>1066.8</ele>
        <time>2021-10-11T13:39:20Z</time>
      </trkpt>
      <trkpt lat="42.7740710" lon="-5.9435370">
        <ele>1066.6</ele>
        <time>2021-10-11T13:39:23Z</time>
      </trkpt>
      <trkpt lat="42.7738800" lon="-5.9436270">
        <ele>1065.6</ele>
        <time>2021-10-11T13:39:28Z</time>
      </trkpt>
      <trkpt lat="42.7738570" lon="-5.9436440">
        <ele>1065.4</ele>
        <time>2021-10-11T13:39:29Z</time>
      </trkpt>
      <trkpt lat="42.7738000" lon="-5.9437210">
        <ele>1065.2</ele>
        <time>2021-10-11T13:39:34Z</time>
      </trkpt>
      <trkpt lat="42.7738000" lon="-5.9437210">
        <ele>1064.8</ele>
        <time>2021-10-11T13:39:36Z</time>
      </trkpt>
      <trkpt lat="42.7737530" lon="-5.9437730">
        <ele>1064.8</ele>
        <time>2021-10-11T13:39:43Z</time>
      </trkpt>
      <trkpt lat="42.7737240" lon="-5.9437980">
        <ele>1064.8</ele>
        <time>2021-10-11T13:39:44Z</time>
      </trkpt>
      <trkpt lat="42.7736210" lon="-5.9439490">
        <ele>1064.8</ele>
        <time>2021-10-11T13:39:48Z</time>
      </trkpt>
      <trkpt lat="42.7734990" lon="-5.9442790">
        <ele>1065.0</ele>
        <time>2021-10-11T13:39:55Z</time>
      </trkpt>
      <trkpt lat="42.7734790" lon="-5.9443320">
        <ele>1065.0</ele>
        <time>2021-10-11T13:39:56Z</time>
      </trkpt>
      <trkpt lat="42.7734370" lon="-5.9444890">
        <ele>1065.2</ele>
        <time>2021-10-11T13:40:00Z</time>
      </trkpt>
      <trkpt lat="42.7734220" lon="-5.9445290">
        <ele>1065.2</ele>
        <time>2021-10-11T13:40:01Z</time>
      </trkpt>
      <trkpt lat="42.7733880" lon="-5.9446170">
        <ele>1065.4</ele>
        <time>2021-10-11T13:40:04Z</time>
      </trkpt>
      <trkpt lat="42.7733570" lon="-5.9446480">
        <ele>1065.4</ele>
        <time>2021-10-11T13:40:06Z</time>
      </trkpt>
      <trkpt lat="42.7733400" lon="-5.9446820">
        <ele>1065.4</ele>
        <time>2021-10-11T13:40:08Z</time>
      </trkpt>
      <trkpt lat="42.7733330" lon="-5.9446980">
        <ele>1065.4</ele>
        <time>2021-10-11T13:40:11Z</time>
      </trkpt>
      <trkpt lat="42.7733330" lon="-5.9446980">
        <ele>1065.4</ele>
        <time>2021-10-11T13:40:12Z</time>
      </trkpt>
      <trkpt lat="42.7732250" lon="-5.9448290">
        <ele>1064.2</ele>
        <time>2021-10-11T13:45:10Z</time>
      </trkpt>
      <trkpt lat="42.7732050" lon="-5.9448950">
        <ele>1064.0</ele>
        <time>2021-10-11T13:45:12Z</time>
      </trkpt>
      <trkpt lat="42.7731480" lon="-5.9450350">
        <ele>1063.8</ele>
        <time>2021-10-11T13:45:16Z</time>
      </trkpt>
      <trkpt lat="42.7731160" lon="-5.9451030">
        <ele>1063.6</ele>
        <time>2021-10-11T13:45:18Z</time>
      </trkpt>
      <trkpt lat="42.7731010" lon="-5.9451400">
        <ele>1063.2</ele>
        <time>2021-10-11T13:45:19Z</time>
      </trkpt>
      <trkpt lat="42.7730230" lon="-5.9452860">
        <ele>1062.0</ele>
        <time>2021-10-11T13:45:23Z</time>
      </trkpt>
      <trkpt lat="42.7730040" lon="-5.9453170">
        <ele>1061.6</ele>
        <time>2021-10-11T13:45:24Z</time>
      </trkpt>
      <trkpt lat="42.7729630" lon="-5.9453730">
        <ele>1061.0</ele>
        <time>2021-10-11T13:45:26Z</time>
      </trkpt>
      <trkpt lat="42.7729130" lon="-5.9454180">
        <ele>1059.8</ele>
        <time>2021-10-11T13:45:30Z</time>
      </trkpt>
      <trkpt lat="42.7729130" lon="-5.9454180">
        <ele>1059.6</ele>
        <time>2021-10-11T13:45:31Z</time>
      </trkpt>
      <trkpt lat="42.7729390" lon="-5.9453740">
        <ele>1058.2</ele>
        <time>2021-10-11T13:45:46Z</time>
      </trkpt>
      <trkpt lat="42.7729630" lon="-5.9453280">
        <ele>1058.2</ele>
        <time>2021-10-11T13:45:49Z</time>
      </trkpt>
      <trkpt lat="42.7729930" lon="-5.9452420">
        <ele>1058.8</ele>
        <time>2021-10-11T13:45:54Z</time>
      </trkpt>
      <trkpt lat="42.7730060" lon="-5.9452100">
        <ele>1059.0</ele>
        <time>2021-10-11T13:45:56Z</time>
      </trkpt>
      <trkpt lat="42.7730180" lon="-5.9451820">
        <ele>1059.6</ele>
        <time>2021-10-11T13:45:58Z</time>
      </trkpt>
      <trkpt lat="42.7730240" lon="-5.9451690">
        <ele>1059.8</ele>
        <time>2021-10-11T13:45:59Z</time>
      </trkpt>
      <trkpt lat="42.7730430" lon="-5.9451110">
        <ele>1060.4</ele>
        <time>2021-10-11T13:46:03Z</time>
      </trkpt>
      <trkpt lat="42.7730540" lon="-5.9450880">
        <ele>1060.6</ele>
        <time>2021-10-11T13:46:05Z</time>
      </trkpt>
      <trkpt lat="42.7730740" lon="-5.9450650">
        <ele>1060.8</ele>
        <time>2021-10-11T13:46:08Z</time>
      </trkpt>
      <trkpt lat="42.7731090" lon="-5.9450170">
        <ele>1061.8</ele>
        <time>2021-10-11T13:46:13Z</time>
      </trkpt>
      <trkpt lat="42.7731380" lon="-5.9449770">
        <ele>1062.4</ele>
        <time>2021-10-11T13:46:17Z</time>
      </trkpt>
      <trkpt lat="42.7731530" lon="-5.9449570">
        <ele>1062.8</ele>
        <time>2021-10-11T13:46:19Z</time>
      </trkpt>
      <trkpt lat="42.7731660" lon="-5.9448990">
        <ele>1063.6</ele>
        <time>2021-10-11T13:46:24Z</time>
      </trkpt>
      <trkpt lat="42.7731640" lon="-5.9448940">
        <ele>1064.0</ele>
        <time>2021-10-11T13:46:25Z</time>
      </trkpt>
      <trkpt lat="42.7731640" lon="-5.9448940">
        <ele>1064.0</ele>
        <time>2021-10-11T13:46:26Z</time>
      </trkpt>
      <trkpt lat="42.7731490" lon="-5.9449320">
        <ele>1064.6</ele>
        <time>2021-10-11T13:48:06Z</time>
      </trkpt>
      <trkpt lat="42.7731330" lon="-5.9449760">
        <ele>1064.6</ele>
        <time>2021-10-11T13:48:07Z</time>
      </trkpt>
      <trkpt lat="42.7730540" lon="-5.9451800">
        <ele>1064.4</ele>
        <time>2021-10-11T13:48:10Z</time>
      </trkpt>
      <trkpt lat="42.7730210" lon="-5.9452450">
        <ele>1064.2</ele>
        <time>2021-10-11T13:48:11Z</time>
      </trkpt>
      <trkpt lat="42.7729590" lon="-5.9453350">
        <ele>1064.2</ele>
        <time>2021-10-11T13:48:12Z</time>
      </trkpt>
      <trkpt lat="42.7728920" lon="-5.9454060">
        <ele>1063.8</ele>
        <time>2021-10-11T13:48:13Z</time>
      </trkpt>
      <trkpt lat="42.7728190" lon="-5.9454710">
        <ele>1063.2</ele>
        <time>2021-10-11T13:48:14Z</time>
      </trkpt>
      <trkpt lat="42.7726850" lon="-5.9455890">
        <ele>1062.0</ele>
        <time>2021-10-11T13:48:16Z</time>
      </trkpt>
      <trkpt lat="42.7725240" lon="-5.9457500">
        <ele>1060.8</ele>
        <time>2021-10-11T13:48:18Z</time>
      </trkpt>
      <trkpt lat="42.7723860" lon="-5.9458960">
        <ele>1059.6</ele>
        <time>2021-10-11T13:48:20Z</time>
      </trkpt>
      <trkpt lat="42.7722120" lon="-5.9460900">
        <ele>1058.0</ele>
        <time>2021-10-11T13:48:23Z</time>
      </trkpt>
      <trkpt lat="42.7721260" lon="-5.9461830">
        <ele>1056.4</ele>
        <time>2021-10-11T13:48:25Z</time>
      </trkpt>
      <trkpt lat="42.7720500" lon="-5.9462580">
        <ele>1055.4</ele>
        <time>2021-10-11T13:48:27Z</time>
      </trkpt>
      <trkpt lat="42.7719810" lon="-5.9463290">
        <ele>1054.4</ele>
        <time>2021-10-11T13:48:29Z</time>
      </trkpt>
      <trkpt lat="42.7718300" lon="-5.9465090">
        <ele>1053.2</ele>
        <time>2021-10-11T13:48:33Z</time>
      </trkpt>
      <trkpt lat="42.7717620" lon="-5.9465830">
        <ele>1053.0</ele>
        <time>2021-10-11T13:48:35Z</time>
      </trkpt>
      <trkpt lat="42.7716650" lon="-5.9466810">
        <ele>1052.8</ele>
        <time>2021-10-11T13:48:38Z</time>
      </trkpt>
      <trkpt lat="42.7714410" lon="-5.9468910">
        <ele>1052.8</ele>
        <time>2021-10-11T13:48:44Z</time>
      </trkpt>
      <trkpt lat="42.7713610" lon="-5.9469570">
        <ele>1052.8</ele>
        <time>2021-10-11T13:48:46Z</time>
      </trkpt>
      <trkpt lat="42.7712270" lon="-5.9470280">
        <ele>1053.0</ele>
        <time>2021-10-11T13:48:49Z</time>
      </trkpt>
      <trkpt lat="42.7711850" lon="-5.9470400">
        <ele>1053.0</ele>
        <time>2021-10-11T13:48:50Z</time>
      </trkpt>
      <trkpt lat="42.7710570" lon="-5.9470360">
        <ele>1053.4</ele>
        <time>2021-10-11T13:48:54Z</time>
      </trkpt>
      <trkpt lat="42.7709760" lon="-5.9470080">
        <ele>1053.8</ele>
        <time>2021-10-11T13:48:57Z</time>
      </trkpt>
      <trkpt lat="42.7708850" lon="-5.9469770">
        <ele>1054.4</ele>
        <time>2021-10-11T13:49:01Z</time>
      </trkpt>
      <trkpt lat="42.7708630" lon="-5.9469780">
        <ele>1054.6</ele>
        <time>2021-10-11T13:49:02Z</time>
      </trkpt>
      <trkpt lat="42.7707730" lon="-5.9469740">
        <ele>1055.4</ele>
        <time>2021-10-11T13:49:06Z</time>
      </trkpt>
      <trkpt lat="42.7706920" lon="-5.9470210">
        <ele>1056.0</ele>
        <time>2021-10-11T13:49:10Z</time>
      </trkpt>
      <trkpt lat="42.7706610" lon="-5.9470510">
        <ele>1056.4</ele>
        <time>2021-10-11T13:49:12Z</time>
      </trkpt>
      <trkpt lat="42.7706300" lon="-5.9470920">
        <ele>1056.8</ele>
        <time>2021-10-11T13:49:14Z</time>
      </trkpt>
      <trkpt lat="42.7705920" lon="-5.9471340">
        <ele>1057.4</ele>
        <time>2021-10-11T13:49:17Z</time>
      </trkpt>
      <trkpt lat="42.7705800" lon="-5.9471480">
        <ele>1057.8</ele>
        <time>2021-10-11T13:49:18Z</time>
      </trkpt>
      <trkpt lat="42.7705570" lon="-5.9471770">
        <ele>1058.0</ele>
        <time>2021-10-11T13:49:20Z</time>
      </trkpt>
      <trkpt lat="42.7705230" lon="-5.9472180">
        <ele>1058.6</ele>
        <time>2021-10-11T13:49:23Z</time>
      </trkpt>
      <trkpt lat="42.7704920" lon="-5.9472580">
        <ele>1059.2</ele>
        <time>2021-10-11T13:49:26Z</time>
      </trkpt>
      <trkpt lat="42.7704800" lon="-5.9472710">
        <ele>1059.6</ele>
        <time>2021-10-11T13:49:27Z</time>
      </trkpt>
      <trkpt lat="42.7704670" lon="-5.9472810">
        <ele>1059.8</ele>
        <time>2021-10-11T13:49:28Z</time>
      </trkpt>
      <trkpt lat="42.7704170" lon="-5.9473090">
        <ele>1060.6</ele>
        <time>2021-10-11T13:49:32Z</time>
      </trkpt>
      <trkpt lat="42.7703850" lon="-5.9473090">
        <ele>1061.0</ele>
        <time>2021-10-11T13:49:34Z</time>
      </trkpt>
      <trkpt lat="42.7703690" lon="-5.9473070">
        <ele>1061.0</ele>
        <time>2021-10-11T13:49:35Z</time>
      </trkpt>
      <trkpt lat="42.7703200" lon="-5.9472520">
        <ele>1062.0</ele>
        <time>2021-10-11T13:49:39Z</time>
      </trkpt>
      <trkpt lat="42.7703090" lon="-5.9472360">
        <ele>1062.0</ele>
        <time>2021-10-11T13:49:40Z</time>
      </trkpt>
      <trkpt lat="42.7702990" lon="-5.9472210">
        <ele>1062.2</ele>
        <time>2021-10-11T13:49:41Z</time>
      </trkpt>
      <trkpt lat="42.7702880" lon="-5.9472060">
        <ele>1062.4</ele>
        <time>2021-10-11T13:49:42Z</time>
      </trkpt>
      <trkpt lat="42.7702650" lon="-5.9471600">
        <ele>1062.8</ele>
        <time>2021-10-11T13:49:45Z</time>
      </trkpt>
      <trkpt lat="42.7702480" lon="-5.9471270">
        <ele>1063.2</ele>
        <time>2021-10-11T13:49:47Z</time>
      </trkpt>
      <trkpt lat="42.7702270" lon="-5.9470760">
        <ele>1063.6</ele>
        <time>2021-10-11T13:49:50Z</time>
      </trkpt>
      <trkpt lat="42.7701840" lon="-5.9470030">
        <ele>1064.4</ele>
        <time>2021-10-11T13:49:55Z</time>
      </trkpt>
      <trkpt lat="42.7701680" lon="-5.9469720">
        <ele>1064.8</ele>
        <time>2021-10-11T13:49:57Z</time>
      </trkpt>
      <trkpt lat="42.7701580" lon="-5.9469580">
        <ele>1065.0</ele>
        <time>2021-10-11T13:49:58Z</time>
      </trkpt>
      <trkpt lat="42.7701370" lon="-5.9469310">
        <ele>1065.4</ele>
        <time>2021-10-11T13:50:00Z</time>
      </trkpt>
      <trkpt lat="42.7701270" lon="-5.9469190">
        <ele>1065.6</ele>
        <time>2021-10-11T13:50:01Z</time>
      </trkpt>
      <trkpt lat="42.7701020" lon="-5.9468820">
        <ele>1066.0</ele>
        <time>2021-10-11T13:50:04Z</time>
      </trkpt>
      <trkpt lat="42.7700810" lon="-5.9468610">
        <ele>1066.4</ele>
        <time>2021-10-11T13:50:06Z</time>
      </trkpt>
      <trkpt lat="42.7700680" lon="-5.9468520">
        <ele>1066.8</ele>
        <time>2021-10-11T13:50:07Z</time>
      </trkpt>
      <trkpt lat="42.7699890" lon="-5.9468050">
        <ele>1068.0</ele>
        <time>2021-10-11T13:50:15Z</time>
      </trkpt>
      <trkpt lat="42.7699540" lon="-5.9467970">
        <ele>1069.0</ele>
        <time>2021-10-11T13:50:18Z</time>
      </trkpt>
      <trkpt lat="42.7699280" lon="-5.9468030">
        <ele>1069.4</ele>
        <time>2021-10-11T13:50:20Z</time>
      </trkpt>
      <trkpt lat="42.7699140" lon="-5.9468020">
        <ele>1069.4</ele>
        <time>2021-10-11T13:50:21Z</time>
      </trkpt>
      <trkpt lat="42.7698910" lon="-5.9468020">
        <ele>1069.6</ele>
        <time>2021-10-11T13:50:23Z</time>
      </trkpt>
      <trkpt lat="42.7698830" lon="-5.9468030">
        <ele>1069.8</ele>
        <time>2021-10-11T13:50:24Z</time>
      </trkpt>
      <trkpt lat="42.7698580" lon="-5.9468090">
        <ele>1070.0</ele>
        <time>2021-10-11T13:50:26Z</time>
      </trkpt>
      <trkpt lat="42.7698240" lon="-5.9468230">
        <ele>1070.4</ele>
        <time>2021-10-11T13:50:29Z</time>
      </trkpt>
      <trkpt lat="42.7698010" lon="-5.9468360">
        <ele>1070.6</ele>
        <time>2021-10-11T13:50:31Z</time>
      </trkpt>
      <trkpt lat="42.7697080" lon="-5.9468580">
        <ele>1071.4</ele>
        <time>2021-10-11T13:50:39Z</time>
      </trkpt>
      <trkpt lat="42.7696960" lon="-5.9468600">
        <ele>1071.6</ele>
        <time>2021-10-11T13:50:40Z</time>
      </trkpt>
      <trkpt lat="42.7696360" lon="-5.9468670">
        <ele>1072.4</ele>
        <time>2021-10-11T13:50:45Z</time>
      </trkpt>
      <trkpt lat="42.7696010" lon="-5.9468700">
        <ele>1072.8</ele>
        <time>2021-10-11T13:50:48Z</time>
      </trkpt>
      <trkpt lat="42.7695450" lon="-5.9468660">
        <ele>1073.4</ele>
        <time>2021-10-11T13:50:52Z</time>
      </trkpt>
      <trkpt lat="42.7695210" lon="-5.9468500">
        <ele>1073.6</ele>
        <time>2021-10-11T13:50:54Z</time>
      </trkpt>
      <trkpt lat="42.7694810" lon="-5.9468220">
        <ele>1074.0</ele>
        <time>2021-10-11T13:50:57Z</time>
      </trkpt>
      <trkpt lat="42.7694270" lon="-5.9467590">
        <ele>1074.2</ele>
        <time>2021-10-11T13:51:02Z</time>
      </trkpt>
      <trkpt lat="42.7693670" lon="-5.9466870">
        <ele>1075.0</ele>
        <time>2021-10-11T13:51:08Z</time>
      </trkpt>
      <trkpt lat="42.7693280" lon="-5.9466200">
        <ele>1075.6</ele>
        <time>2021-10-11T13:51:13Z</time>
      </trkpt>
      <trkpt lat="42.7692950" lon="-5.9465590">
        <ele>1076.2</ele>
        <time>2021-10-11T13:51:17Z</time>
      </trkpt>
      <trkpt lat="42.7692780" lon="-5.9465150">
        <ele>1076.4</ele>
        <time>2021-10-11T13:51:20Z</time>
      </trkpt>
      <trkpt lat="42.7692440" lon="-5.9464410">
        <ele>1077.2</ele>
        <time>2021-10-11T13:51:25Z</time>
      </trkpt>
      <trkpt lat="42.7692300" lon="-5.9464160">
        <ele>1077.6</ele>
        <time>2021-10-11T13:51:27Z</time>
      </trkpt>
      <trkpt lat="42.7692070" lon="-5.9463630">
        <ele>1078.2</ele>
        <time>2021-10-11T13:51:30Z</time>
      </trkpt>
      <trkpt lat="42.7691920" lon="-5.9463150">
        <ele>1078.8</ele>
        <time>2021-10-11T13:51:33Z</time>
      </trkpt>
      <trkpt lat="42.7691670" lon="-5.9462230">
        <ele>1079.6</ele>
        <time>2021-10-11T13:51:39Z</time>
      </trkpt>
      <trkpt lat="42.7691610" lon="-5.9462070">
        <ele>1079.6</ele>
        <time>2021-10-11T13:51:40Z</time>
      </trkpt>
      <trkpt lat="42.7691040" lon="-5.9460790">
        <ele>1080.6</ele>
        <time>2021-10-11T13:51:49Z</time>
      </trkpt>
      <trkpt lat="42.7690450" lon="-5.9459940">
        <ele>1081.6</ele>
        <time>2021-10-11T13:51:57Z</time>
      </trkpt>
      <trkpt lat="42.7690230" lon="-5.9459890">
        <ele>1082.0</ele>
        <time>2021-10-11T13:51:59Z</time>
      </trkpt>
      <trkpt lat="42.7689920" lon="-5.9459850">
        <ele>1082.2</ele>
        <time>2021-10-11T13:52:01Z</time>
      </trkpt>
      <trkpt lat="42.7689600" lon="-5.9460020">
        <ele>1082.8</ele>
        <time>2021-10-11T13:52:04Z</time>
      </trkpt>
      <trkpt lat="42.7689490" lon="-5.9460140">
        <ele>1083.0</ele>
        <time>2021-10-11T13:52:05Z</time>
      </trkpt>
      <trkpt lat="42.7689250" lon="-5.9461400">
        <ele>1083.8</ele>
        <time>2021-10-11T13:52:12Z</time>
      </trkpt>
      <trkpt lat="42.7689270" lon="-5.9461570">
        <ele>1084.0</ele>
        <time>2021-10-11T13:52:13Z</time>
      </trkpt>
      <trkpt lat="42.7689310" lon="-5.9462960">
        <ele>1084.6</ele>
        <time>2021-10-11T13:52:21Z</time>
      </trkpt>
      <trkpt lat="42.7689310" lon="-5.9463440">
        <ele>1085.0</ele>
        <time>2021-10-11T13:52:24Z</time>
      </trkpt>
      <trkpt lat="42.7689250" lon="-5.9464000">
        <ele>1085.4</ele>
        <time>2021-10-11T13:52:27Z</time>
      </trkpt>
      <trkpt lat="42.7689180" lon="-5.9464360">
        <ele>1085.8</ele>
        <time>2021-10-11T13:52:29Z</time>
      </trkpt>
      <trkpt lat="42.7689200" lon="-5.9464750">
        <ele>1086.0</ele>
        <time>2021-10-11T13:52:31Z</time>
      </trkpt>
      <trkpt lat="42.7689150" lon="-5.9465460">
        <ele>1087.4</ele>
        <time>2021-10-11T13:52:35Z</time>
      </trkpt>
      <trkpt lat="42.7689150" lon="-5.9465610">
        <ele>1087.8</ele>
        <time>2021-10-11T13:52:36Z</time>
      </trkpt>
      <trkpt lat="42.7689130" lon="-5.9465950">
        <ele>1088.2</ele>
        <time>2021-10-11T13:52:38Z</time>
      </trkpt>
      <trkpt lat="42.7689090" lon="-5.9466150">
        <ele>1088.4</ele>
        <time>2021-10-11T13:52:39Z</time>
      </trkpt>
      <trkpt lat="42.7689010" lon="-5.9466640">
        <ele>1088.8</ele>
        <time>2021-10-11T13:52:42Z</time>
      </trkpt>
      <trkpt lat="42.7688970" lon="-5.9466940">
        <ele>1089.0</ele>
        <time>2021-10-11T13:52:44Z</time>
      </trkpt>
      <trkpt lat="42.7688930" lon="-5.9467560">
        <ele>1089.2</ele>
        <time>2021-10-11T13:52:47Z</time>
      </trkpt>
      <trkpt lat="42.7688860" lon="-5.9468270">
        <ele>1089.6</ele>
        <time>2021-10-11T13:52:51Z</time>
      </trkpt>
      <trkpt lat="42.7688880" lon="-5.9468400">
        <ele>1089.8</ele>
        <time>2021-10-11T13:52:52Z</time>
      </trkpt>
      <trkpt lat="42.7688810" lon="-5.9468960">
        <ele>1090.2</ele>
        <time>2021-10-11T13:52:56Z</time>
      </trkpt>
      <trkpt lat="42.7688800" lon="-5.9469410">
        <ele>1090.4</ele>
        <time>2021-10-11T13:52:59Z</time>
      </trkpt>
      <trkpt lat="42.7688780" lon="-5.9469720">
        <ele>1090.8</ele>
        <time>2021-10-11T13:53:01Z</time>
      </trkpt>
      <trkpt lat="42.7688860" lon="-5.9471040">
        <ele>1092.0</ele>
        <time>2021-10-11T13:53:09Z</time>
      </trkpt>
      <trkpt lat="42.7689060" lon="-5.9472480">
        <ele>1093.0</ele>
        <time>2021-10-11T13:53:17Z</time>
      </trkpt>
      <trkpt lat="42.7689290" lon="-5.9472990">
        <ele>1093.4</ele>
        <time>2021-10-11T13:53:21Z</time>
      </trkpt>
      <trkpt lat="42.7689630" lon="-5.9473730">
        <ele>1094.6</ele>
        <time>2021-10-11T13:53:26Z</time>
      </trkpt>
      <trkpt lat="42.7689880" lon="-5.9474170">
        <ele>1095.0</ele>
        <time>2021-10-11T13:53:29Z</time>
      </trkpt>
      <trkpt lat="42.7690010" lon="-5.9474630">
        <ele>1095.6</ele>
        <time>2021-10-11T13:53:32Z</time>
      </trkpt>
      <trkpt lat="42.7690110" lon="-5.9475250">
        <ele>1096.4</ele>
        <time>2021-10-11T13:53:36Z</time>
      </trkpt>
      <trkpt lat="42.7690220" lon="-5.9475710">
        <ele>1096.6</ele>
        <time>2021-10-11T13:53:39Z</time>
      </trkpt>
      <trkpt lat="42.7690250" lon="-5.9476180">
        <ele>1097.0</ele>
        <time>2021-10-11T13:53:42Z</time>
      </trkpt>
      <trkpt lat="42.7690290" lon="-5.9476280">
        <ele>1097.2</ele>
        <time>2021-10-11T13:53:43Z</time>
      </trkpt>
      <trkpt lat="42.7690400" lon="-5.9476890">
        <ele>1097.8</ele>
        <time>2021-10-11T13:53:47Z</time>
      </trkpt>
      <trkpt lat="42.7690410" lon="-5.9477450">
        <ele>1098.4</ele>
        <time>2021-10-11T13:53:51Z</time>
      </trkpt>
      <trkpt lat="42.7690430" lon="-5.9477740">
        <ele>1098.8</ele>
        <time>2021-10-11T13:53:53Z</time>
      </trkpt>
      <trkpt lat="42.7690530" lon="-5.9478600">
        <ele>1099.8</ele>
        <time>2021-10-11T13:53:59Z</time>
      </trkpt>
      <trkpt lat="42.7690520" lon="-5.9478770">
        <ele>1099.8</ele>
        <time>2021-10-11T13:54:00Z</time>
      </trkpt>
      <trkpt lat="42.7690500" lon="-5.9479580">
        <ele>1100.6</ele>
        <time>2021-10-11T13:54:05Z</time>
      </trkpt>
      <trkpt lat="42.7690520" lon="-5.9479700">
        <ele>1100.8</ele>
        <time>2021-10-11T13:54:06Z</time>
      </trkpt>
      <trkpt lat="42.7690510" lon="-5.9479970">
        <ele>1101.0</ele>
        <time>2021-10-11T13:54:08Z</time>
      </trkpt>
      <trkpt lat="42.7690650" lon="-5.9481020">
        <ele>1102.0</ele>
        <time>2021-10-11T13:54:15Z</time>
      </trkpt>
      <trkpt lat="42.7690640" lon="-5.9481170">
        <ele>1102.2</ele>
        <time>2021-10-11T13:54:16Z</time>
      </trkpt>
      <trkpt lat="42.7690550" lon="-5.9481930">
        <ele>1103.0</ele>
        <time>2021-10-11T13:54:21Z</time>
      </trkpt>
      <trkpt lat="42.7690530" lon="-5.9482220">
        <ele>1103.2</ele>
        <time>2021-10-11T13:54:23Z</time>
      </trkpt>
      <trkpt lat="42.7690510" lon="-5.9482420">
        <ele>1103.2</ele>
        <time>2021-10-11T13:54:24Z</time>
      </trkpt>
      <trkpt lat="42.7690500" lon="-5.9483240">
        <ele>1104.0</ele>
        <time>2021-10-11T13:54:29Z</time>
      </trkpt>
      <trkpt lat="42.7690480" lon="-5.9483400">
        <ele>1104.2</ele>
        <time>2021-10-11T13:54:30Z</time>
      </trkpt>
      <trkpt lat="42.7690250" lon="-5.9484550">
        <ele>1105.0</ele>
        <time>2021-10-11T13:54:37Z</time>
      </trkpt>
      <trkpt lat="42.7690140" lon="-5.9484930">
        <ele>1105.4</ele>
        <time>2021-10-11T13:54:39Z</time>
      </trkpt>
      <trkpt lat="42.7689890" lon="-5.9485840">
        <ele>1106.6</ele>
        <time>2021-10-11T13:54:45Z</time>
      </trkpt>
      <trkpt lat="42.7689830" lon="-5.9485960">
        <ele>1106.8</ele>
        <time>2021-10-11T13:54:46Z</time>
      </trkpt>
      <trkpt lat="42.7689540" lon="-5.9486820">
        <ele>1107.6</ele>
        <time>2021-10-11T13:54:52Z</time>
      </trkpt>
      <trkpt lat="42.7689370" lon="-5.9487460">
        <ele>1108.2</ele>
        <time>2021-10-11T13:54:56Z</time>
      </trkpt>
      <trkpt lat="42.7689200" lon="-5.9488090">
        <ele>1108.6</ele>
        <time>2021-10-11T13:55:00Z</time>
      </trkpt>
      <trkpt lat="42.7689160" lon="-5.9488180">
        <ele>1108.8</ele>
        <time>2021-10-11T13:55:01Z</time>
      </trkpt>
      <trkpt lat="42.7689070" lon="-5.9488490">
        <ele>1109.0</ele>
        <time>2021-10-11T13:55:03Z</time>
      </trkpt>
      <trkpt lat="42.7688890" lon="-5.9489290">
        <ele>1109.8</ele>
        <time>2021-10-11T13:55:08Z</time>
      </trkpt>
      <trkpt lat="42.7688710" lon="-5.9490060">
        <ele>1110.4</ele>
        <time>2021-10-11T13:55:13Z</time>
      </trkpt>
      <trkpt lat="42.7688590" lon="-5.9490490">
        <ele>1110.6</ele>
        <time>2021-10-11T13:55:16Z</time>
      </trkpt>
      <trkpt lat="42.7688420" lon="-5.9490970">
        <ele>1111.0</ele>
        <time>2021-10-11T13:55:19Z</time>
      </trkpt>
      <trkpt lat="42.7688390" lon="-5.9491260">
        <ele>1111.0</ele>
        <time>2021-10-11T13:55:21Z</time>
      </trkpt>
      <trkpt lat="42.7688170" lon="-5.9492570">
        <ele>1112.0</ele>
        <time>2021-10-11T13:55:30Z</time>
      </trkpt>
      <trkpt lat="42.7688150" lon="-5.9492740">
        <ele>1112.2</ele>
        <time>2021-10-11T13:55:31Z</time>
      </trkpt>
      <trkpt lat="42.7687830" lon="-5.9493920">
        <ele>1113.4</ele>
        <time>2021-10-11T13:55:39Z</time>
      </trkpt>
      <trkpt lat="42.7687810" lon="-5.9494190">
        <ele>1113.8</ele>
        <time>2021-10-11T13:55:41Z</time>
      </trkpt>
      <trkpt lat="42.7687710" lon="-5.9494770">
        <ele>1114.4</ele>
        <time>2021-10-11T13:55:45Z</time>
      </trkpt>
      <trkpt lat="42.7687640" lon="-5.9495660">
        <ele>1115.2</ele>
        <time>2021-10-11T13:55:50Z</time>
      </trkpt>
      <trkpt lat="42.7687620" lon="-5.9496000">
        <ele>1115.6</ele>
        <time>2021-10-11T13:55:52Z</time>
      </trkpt>
      <trkpt lat="42.7687510" lon="-5.9497000">
        <ele>1116.2</ele>
        <time>2021-10-11T13:55:59Z</time>
      </trkpt>
      <trkpt lat="42.7687460" lon="-5.9497820">
        <ele>1116.6</ele>
        <time>2021-10-11T13:56:04Z</time>
      </trkpt>
      <trkpt lat="42.7687400" lon="-5.9498360">
        <ele>1117.2</ele>
        <time>2021-10-11T13:56:07Z</time>
      </trkpt>
      <trkpt lat="42.7687420" lon="-5.9499090">
        <ele>1117.6</ele>
        <time>2021-10-11T13:56:11Z</time>
      </trkpt>
      <trkpt lat="42.7687350" lon="-5.9500050">
        <ele>1118.4</ele>
        <time>2021-10-11T13:56:17Z</time>
      </trkpt>
      <trkpt lat="42.7687360" lon="-5.9500590">
        <ele>1118.8</ele>
        <time>2021-10-11T13:56:20Z</time>
      </trkpt>
      <trkpt lat="42.7687310" lon="-5.9501620">
        <ele>1119.4</ele>
        <time>2021-10-11T13:56:26Z</time>
      </trkpt>
      <trkpt lat="42.7687260" lon="-5.9502340">
        <ele>1119.8</ele>
        <time>2021-10-11T13:56:30Z</time>
      </trkpt>
      <trkpt lat="42.7687150" lon="-5.9503240">
        <ele>1120.2</ele>
        <time>2021-10-11T13:56:35Z</time>
      </trkpt>
      <trkpt lat="42.7687230" lon="-5.9504340">
        <ele>1120.8</ele>
        <time>2021-10-11T13:56:41Z</time>
      </trkpt>
      <trkpt lat="42.7687230" lon="-5.9504520">
        <ele>1121.0</ele>
        <time>2021-10-11T13:56:42Z</time>
      </trkpt>
      <trkpt lat="42.7687260" lon="-5.9506000">
        <ele>1122.0</ele>
        <time>2021-10-11T13:56:50Z</time>
      </trkpt>
      <trkpt lat="42.7687330" lon="-5.9507080">
        <ele>1122.8</ele>
        <time>2021-10-11T13:56:56Z</time>
      </trkpt>
      <trkpt lat="42.7687440" lon="-5.9507450">
        <ele>1123.0</ele>
        <time>2021-10-11T13:56:58Z</time>
      </trkpt>
      <trkpt lat="42.7687510" lon="-5.9507630">
        <ele>1123.2</ele>
        <time>2021-10-11T13:56:59Z</time>
      </trkpt>
      <trkpt lat="42.7688260" lon="-5.9508640">
        <ele>1124.2</ele>
        <time>2021-10-11T13:57:07Z</time>
      </trkpt>
      <trkpt lat="42.7688390" lon="-5.9508630">
        <ele>1124.2</ele>
        <time>2021-10-11T13:57:08Z</time>
      </trkpt>
      <trkpt lat="42.7689470" lon="-5.9508560">
        <ele>1124.8</ele>
        <time>2021-10-11T13:57:15Z</time>
      </trkpt>
      <trkpt lat="42.7689960" lon="-5.9508390">
        <ele>1125.2</ele>
        <time>2021-10-11T13:57:18Z</time>
      </trkpt>
      <trkpt lat="42.7691050" lon="-5.9508350">
        <ele>1125.4</ele>
        <time>2021-10-11T13:57:25Z</time>
      </trkpt>
      <trkpt lat="42.7691900" lon="-5.9508990">
        <ele>1126.0</ele>
        <time>2021-10-11T13:57:31Z</time>
      </trkpt>
      <trkpt lat="42.7692020" lon="-5.9509140">
        <ele>1126.2</ele>
        <time>2021-10-11T13:57:32Z</time>
      </trkpt>
      <trkpt lat="42.7692670" lon="-5.9510220">
        <ele>1126.8</ele>
        <time>2021-10-11T13:57:38Z</time>
      </trkpt>
      <trkpt lat="42.7692930" lon="-5.9511250">
        <ele>1127.2</ele>
        <time>2021-10-11T13:57:43Z</time>
      </trkpt>
      <trkpt lat="42.7693080" lon="-5.9511820">
        <ele>1127.4</ele>
        <time>2021-10-11T13:57:46Z</time>
      </trkpt>
      <trkpt lat="42.7693130" lon="-5.9511980">
        <ele>1127.6</ele>
        <time>2021-10-11T13:57:47Z</time>
      </trkpt>
      <trkpt lat="42.7693210" lon="-5.9512100">
        <ele>1127.6</ele>
        <time>2021-10-11T13:57:48Z</time>
      </trkpt>
      <trkpt lat="42.7693440" lon="-5.9512430">
        <ele>1128.0</ele>
        <time>2021-10-11T13:57:51Z</time>
      </trkpt>
      <trkpt lat="42.7693450" lon="-5.9512470">
        <ele>1128.0</ele>
        <time>2021-10-11T13:57:52Z</time>
      </trkpt>
      <trkpt lat="42.7693450" lon="-5.9512470">
        <ele>1128.0</ele>
        <time>2021-10-11T13:57:53Z</time>
      </trkpt>
      <trkpt lat="42.7693310" lon="-5.9512680">
        <ele>1128.4</ele>
        <time>2021-10-11T14:00:17Z</time>
      </trkpt>
      <trkpt lat="42.7693150" lon="-5.9512860">
        <ele>1128.4</ele>
        <time>2021-10-11T14:00:18Z</time>
      </trkpt>
      <trkpt lat="42.7692820" lon="-5.9513190">
        <ele>1128.4</ele>
        <time>2021-10-11T14:00:20Z</time>
      </trkpt>
      <trkpt lat="42.7692130" lon="-5.9513960">
        <ele>1128.8</ele>
        <time>2021-10-11T14:00:24Z</time>
      </trkpt>
      <trkpt lat="42.7691660" lon="-5.9514480">
        <ele>1129.0</ele>
        <time>2021-10-11T14:00:27Z</time>
      </trkpt>
      <trkpt lat="42.7691240" lon="-5.9515010">
        <ele>1129.4</ele>
        <time>2021-10-11T14:00:30Z</time>
      </trkpt>
      <trkpt lat="42.7690850" lon="-5.9515550">
        <ele>1129.8</ele>
        <time>2021-10-11T14:00:33Z</time>
      </trkpt>
      <trkpt lat="42.7690690" lon="-5.9515730">
        <ele>1129.8</ele>
        <time>2021-10-11T14:00:34Z</time>
      </trkpt>
      <trkpt lat="42.7690370" lon="-5.9516090">
        <ele>1130.0</ele>
        <time>2021-10-11T14:00:36Z</time>
      </trkpt>
      <trkpt lat="42.7689850" lon="-5.9516600">
        <ele>1130.4</ele>
        <time>2021-10-11T14:00:39Z</time>
      </trkpt>
      <trkpt lat="42.7689670" lon="-5.9516780">
        <ele>1130.6</ele>
        <time>2021-10-11T14:00:40Z</time>
      </trkpt>
      <trkpt lat="42.7689130" lon="-5.9517280">
        <ele>1131.2</ele>
        <time>2021-10-11T14:00:43Z</time>
      </trkpt>
      <trkpt lat="42.7688080" lon="-5.9518330">
        <ele>1131.6</ele>
        <time>2021-10-11T14:00:49Z</time>
      </trkpt>
      <trkpt lat="42.7687450" lon="-5.9518840">
        <ele>1132.2</ele>
        <time>2021-10-11T14:00:52Z</time>
      </trkpt>
      <trkpt lat="42.7685960" lon="-5.9519960">
        <ele>1132.8</ele>
        <time>2021-10-11T14:00:59Z</time>
      </trkpt>
      <trkpt lat="42.7685080" lon="-5.9520490">
        <ele>1133.4</ele>
        <time>2021-10-11T14:01:03Z</time>
      </trkpt>
      <trkpt lat="42.7684080" lon="-5.9521040">
        <ele>1133.6</ele>
        <time>2021-10-11T14:01:07Z</time>
      </trkpt>
      <trkpt lat="42.7683830" lon="-5.9521140">
        <ele>1133.8</ele>
        <time>2021-10-11T14:01:08Z</time>
      </trkpt>
      <trkpt lat="42.7682920" lon="-5.9521590">
        <ele>1134.4</ele>
        <time>2021-10-11T14:01:12Z</time>
      </trkpt>
      <trkpt lat="42.7682180" lon="-5.9521980">
        <ele>1134.6</ele>
        <time>2021-10-11T14:01:15Z</time>
      </trkpt>
      <trkpt lat="42.7679700" lon="-5.9522690">
        <ele>1135.0</ele>
        <time>2021-10-11T14:01:23Z</time>
      </trkpt>
      <trkpt lat="42.7677290" lon="-5.9522550">
        <ele>1135.4</ele>
        <time>2021-10-11T14:01:30Z</time>
      </trkpt>
      <trkpt lat="42.7676620" lon="-5.9522140">
        <ele>1135.6</ele>
        <time>2021-10-11T14:01:32Z</time>
      </trkpt>
      <trkpt lat="42.7675330" lon="-5.9520980">
        <ele>1135.8</ele>
        <time>2021-10-11T14:01:36Z</time>
      </trkpt>
      <trkpt lat="42.7675050" lon="-5.9520660">
        <ele>1135.8</ele>
        <time>2021-10-11T14:01:37Z</time>
      </trkpt>
      <trkpt lat="42.7674750" lon="-5.9520360">
        <ele>1136.0</ele>
        <time>2021-10-11T14:01:38Z</time>
      </trkpt>
      <trkpt lat="42.7673800" lon="-5.9519450">
        <ele>1136.2</ele>
        <time>2021-10-11T14:01:41Z</time>
      </trkpt>
      <trkpt lat="42.7672390" lon="-5.9518480">
        <ele>1136.4</ele>
        <time>2021-10-11T14:01:45Z</time>
      </trkpt>
      <trkpt lat="42.7670200" lon="-5.9517570">
        <ele>1136.4</ele>
        <time>2021-10-11T14:01:50Z</time>
      </trkpt>
      <trkpt lat="42.7668860" lon="-5.9516870">
        <ele>1136.2</ele>
        <time>2021-10-11T14:01:53Z</time>
      </trkpt>
      <trkpt lat="42.7666880" lon="-5.9515440">
        <ele>1135.8</ele>
        <time>2021-10-11T14:01:57Z</time>
      </trkpt>
      <trkpt lat="42.7666310" lon="-5.9515080">
        <ele>1135.6</ele>
        <time>2021-10-11T14:01:58Z</time>
      </trkpt>
      <trkpt lat="42.7665620" lon="-5.9514720">
        <ele>1135.4</ele>
        <time>2021-10-11T14:01:59Z</time>
      </trkpt>
      <trkpt lat="42.7663980" lon="-5.9514410">
        <ele>1134.8</ele>
        <time>2021-10-11T14:02:02Z</time>
      </trkpt>
      <trkpt lat="42.7662800" lon="-5.9514610">
        <ele>1134.6</ele>
        <time>2021-10-11T14:02:04Z</time>
      </trkpt>
      <trkpt lat="42.7661900" lon="-5.9515160">
        <ele>1134.2</ele>
        <time>2021-10-11T14:02:06Z</time>
      </trkpt>
      <trkpt lat="42.7660970" lon="-5.9516080">
        <ele>1134.0</ele>
        <time>2021-10-11T14:02:08Z</time>
      </trkpt>
      <trkpt lat="42.7658530" lon="-5.9519740">
        <ele>1133.4</ele>
        <time>2021-10-11T14:02:14Z</time>
      </trkpt>
      <trkpt lat="42.7657560" lon="-5.9521030">
        <ele>1133.2</ele>
        <time>2021-10-11T14:02:16Z</time>
      </trkpt>
      <trkpt lat="42.7655560" lon="-5.9523820">
        <ele>1132.4</ele>
        <time>2021-10-11T14:02:20Z</time>
      </trkpt>
      <trkpt lat="42.7655070" lon="-5.9524580">
        <ele>1132.0</ele>
        <time>2021-10-11T14:02:21Z</time>
      </trkpt>
      <trkpt lat="42.7654630" lon="-5.9525400">
        <ele>1131.8</ele>
        <time>2021-10-11T14:02:22Z</time>
      </trkpt>
      <trkpt lat="42.7654260" lon="-5.9526220">
        <ele>1131.4</ele>
        <time>2021-10-11T14:02:23Z</time>
      </trkpt>
      <trkpt lat="42.7653520" lon="-5.9527880">
        <ele>1130.6</ele>
        <time>2021-10-11T14:02:25Z</time>
      </trkpt>
      <trkpt lat="42.7652990" lon="-5.9528490">
        <ele>1130.2</ele>
        <time>2021-10-11T14:02:26Z</time>
      </trkpt>
      <trkpt lat="42.7650990" lon="-5.9529970">
        <ele>1129.0</ele>
        <time>2021-10-11T14:02:29Z</time>
      </trkpt>
      <trkpt lat="42.7648900" lon="-5.9531320">
        <ele>1127.6</ele>
        <time>2021-10-11T14:02:32Z</time>
      </trkpt>
      <trkpt lat="42.7648220" lon="-5.9531620">
        <ele>1127.4</ele>
        <time>2021-10-11T14:02:33Z</time>
      </trkpt>
      <trkpt lat="42.7646700" lon="-5.9531520">
        <ele>1126.4</ele>
        <time>2021-10-11T14:02:35Z</time>
      </trkpt>
      <trkpt lat="42.7645450" lon="-5.9530300">
        <ele>1125.0</ele>
        <time>2021-10-11T14:02:37Z</time>
      </trkpt>
      <trkpt lat="42.7645010" lon="-5.9529640">
        <ele>1124.0</ele>
        <time>2021-10-11T14:02:38Z</time>
      </trkpt>
      <trkpt lat="42.7644490" lon="-5.9528760">
        <ele>1123.6</ele>
        <time>2021-10-11T14:02:39Z</time>
      </trkpt>
      <trkpt lat="42.7643990" lon="-5.9527920">
        <ele>1122.8</ele>
        <time>2021-10-11T14:02:40Z</time>
      </trkpt>
      <trkpt lat="42.7643440" lon="-5.9527240">
        <ele>1121.8</ele>
        <time>2021-10-11T14:02:41Z</time>
      </trkpt>
      <trkpt lat="42.7642850" lon="-5.9526810">
        <ele>1121.6</ele>
        <time>2021-10-11T14:02:42Z</time>
      </trkpt>
      <trkpt lat="42.7642240" lon="-5.9526750">
        <ele>1120.4</ele>
        <time>2021-10-11T14:02:43Z</time>
      </trkpt>
      <trkpt lat="42.7641580" lon="-5.9526930">
        <ele>1120.0</ele>
        <time>2021-10-11T14:02:44Z</time>
      </trkpt>
      <trkpt lat="42.7640990" lon="-5.9527330">
        <ele>1119.2</ele>
        <time>2021-10-11T14:02:45Z</time>
      </trkpt>
      <trkpt lat="42.7640540" lon="-5.9527980">
        <ele>1119.2</ele>
        <time>2021-10-11T14:02:46Z</time>
      </trkpt>
      <trkpt lat="42.7640210" lon="-5.9528750">
        <ele>1118.6</ele>
        <time>2021-10-11T14:02:47Z</time>
      </trkpt>
      <trkpt lat="42.7639930" lon="-5.9529560">
        <ele>1118.2</ele>
        <time>2021-10-11T14:02:48Z</time>
      </trkpt>
      <trkpt lat="42.7639420" lon="-5.9531160">
        <ele>1117.6</ele>
        <time>2021-10-11T14:02:50Z</time>
      </trkpt>
      <trkpt lat="42.7639120" lon="-5.9531930">
        <ele>1117.2</ele>
        <time>2021-10-11T14:02:51Z</time>
      </trkpt>
      <trkpt lat="42.7638810" lon="-5.9532660">
        <ele>1117.0</ele>
        <time>2021-10-11T14:02:52Z</time>
      </trkpt>
      <trkpt lat="42.7638150" lon="-5.9534090">
        <ele>1116.6</ele>
        <time>2021-10-11T14:02:54Z</time>
      </trkpt>
      <trkpt lat="42.7637270" lon="-5.9535470">
        <ele>1116.0</ele>
        <time>2021-10-11T14:02:56Z</time>
      </trkpt>
      <trkpt lat="42.7636780" lon="-5.9536090">
        <ele>1115.8</ele>
        <time>2021-10-11T14:02:57Z</time>
      </trkpt>
      <trkpt lat="42.7636290" lon="-5.9536660">
        <ele>1115.2</ele>
        <time>2021-10-11T14:02:58Z</time>
      </trkpt>
      <trkpt lat="42.7635860" lon="-5.9537220">
        <ele>1114.8</ele>
        <time>2021-10-11T14:02:59Z</time>
      </trkpt>
      <trkpt lat="42.7635510" lon="-5.9538540">
        <ele>1113.4</ele>
        <time>2021-10-11T14:03:01Z</time>
      </trkpt>
      <trkpt lat="42.7636070" lon="-5.9539730">
        <ele>1112.2</ele>
        <time>2021-10-11T14:03:03Z</time>
      </trkpt>
      <trkpt lat="42.7636640" lon="-5.9540110">
        <ele>1111.8</ele>
        <time>2021-10-11T14:03:04Z</time>
      </trkpt>
      <trkpt lat="42.7637360" lon="-5.9540220">
        <ele>1110.8</ele>
        <time>2021-10-11T14:03:05Z</time>
      </trkpt>
      <trkpt lat="42.7638860" lon="-5.9540100">
        <ele>1110.0</ele>
        <time>2021-10-11T14:03:07Z</time>
      </trkpt>
      <trkpt lat="42.7639590" lon="-5.9539780">
        <ele>1109.4</ele>
        <time>2021-10-11T14:03:08Z</time>
      </trkpt>
      <trkpt lat="42.7640780" lon="-5.9538960">
        <ele>1108.2</ele>
        <time>2021-10-11T14:03:10Z</time>
      </trkpt>
      <trkpt lat="42.7641270" lon="-5.9538700">
        <ele>1107.2</ele>
        <time>2021-10-11T14:03:11Z</time>
      </trkpt>
      <trkpt lat="42.7641730" lon="-5.9538620">
        <ele>1106.4</ele>
        <time>2021-10-11T14:03:12Z</time>
      </trkpt>
      <trkpt lat="42.7642090" lon="-5.9538780">
        <ele>1106.2</ele>
        <time>2021-10-11T14:03:13Z</time>
      </trkpt>
      <trkpt lat="42.7642240" lon="-5.9539280">
        <ele>1105.2</ele>
        <time>2021-10-11T14:03:14Z</time>
      </trkpt>
      <trkpt lat="42.7642110" lon="-5.9539920">
        <ele>1104.8</ele>
        <time>2021-10-11T14:03:15Z</time>
      </trkpt>
      <trkpt lat="42.7641830" lon="-5.9540550">
        <ele>1104.0</ele>
        <time>2021-10-11T14:03:16Z</time>
      </trkpt>
      <trkpt lat="42.7640560" lon="-5.9542580">
        <ele>1102.8</ele>
        <time>2021-10-11T14:03:19Z</time>
      </trkpt>
      <trkpt lat="42.7639690" lon="-5.9543990">
        <ele>1102.0</ele>
        <time>2021-10-11T14:03:21Z</time>
      </trkpt>
      <trkpt lat="42.7639190" lon="-5.9544610">
        <ele>1101.6</ele>
        <time>2021-10-11T14:03:22Z</time>
      </trkpt>
      <trkpt lat="42.7638610" lon="-5.9545150">
        <ele>1101.0</ele>
        <time>2021-10-11T14:03:23Z</time>
      </trkpt>
      <trkpt lat="42.7637930" lon="-5.9545600">
        <ele>1100.6</ele>
        <time>2021-10-11T14:03:24Z</time>
      </trkpt>
      <trkpt lat="42.7637070" lon="-5.9546100">
        <ele>1100.2</ele>
        <time>2021-10-11T14:03:25Z</time>
      </trkpt>
      <trkpt lat="42.7634080" lon="-5.9547670">
        <ele>1099.2</ele>
        <time>2021-10-11T14:03:29Z</time>
      </trkpt>
      <trkpt lat="42.7631480" lon="-5.9547860">
        <ele>1097.8</ele>
        <time>2021-10-11T14:03:32Z</time>
      </trkpt>
      <trkpt lat="42.7630670" lon="-5.9548140">
        <ele>1097.2</ele>
        <time>2021-10-11T14:03:33Z</time>
      </trkpt>
      <trkpt lat="42.7629930" lon="-5.9548610">
        <ele>1096.0</ele>
        <time>2021-10-11T14:03:34Z</time>
      </trkpt>
      <trkpt lat="42.7628540" lon="-5.9549570">
        <ele>1094.0</ele>
        <time>2021-10-11T14:03:36Z</time>
      </trkpt>
      <trkpt lat="42.7627010" lon="-5.9549650">
        <ele>1092.0</ele>
        <time>2021-10-11T14:03:38Z</time>
      </trkpt>
      <trkpt lat="42.7626260" lon="-5.9549360">
        <ele>1091.4</ele>
        <time>2021-10-11T14:03:39Z</time>
      </trkpt>
      <trkpt lat="42.7625540" lon="-5.9548820">
        <ele>1090.2</ele>
        <time>2021-10-11T14:03:40Z</time>
      </trkpt>
      <trkpt lat="42.7624110" lon="-5.9547390">
        <ele>1088.6</ele>
        <time>2021-10-11T14:03:42Z</time>
      </trkpt>
      <trkpt lat="42.7622730" lon="-5.9545670">
        <ele>1087.2</ele>
        <time>2021-10-11T14:03:44Z</time>
      </trkpt>
      <trkpt lat="42.7622060" lon="-5.9544810">
        <ele>1086.2</ele>
        <time>2021-10-11T14:03:45Z</time>
      </trkpt>
      <trkpt lat="42.7620810" lon="-5.9543150">
        <ele>1084.8</ele>
        <time>2021-10-11T14:03:47Z</time>
      </trkpt>
      <trkpt lat="42.7620280" lon="-5.9542490">
        <ele>1084.2</ele>
        <time>2021-10-11T14:03:48Z</time>
      </trkpt>
      <trkpt lat="42.7619710" lon="-5.9542010">
        <ele>1083.2</ele>
        <time>2021-10-11T14:03:49Z</time>
      </trkpt>
      <trkpt lat="42.7619120" lon="-5.9541720">
        <ele>1082.8</ele>
        <time>2021-10-11T14:03:50Z</time>
      </trkpt>
      <trkpt lat="42.7618520" lon="-5.9541730">
        <ele>1082.0</ele>
        <time>2021-10-11T14:03:51Z</time>
      </trkpt>
      <trkpt lat="42.7617930" lon="-5.9542160">
        <ele>1081.8</ele>
        <time>2021-10-11T14:03:52Z</time>
      </trkpt>
      <trkpt lat="42.7617420" lon="-5.9542870">
        <ele>1081.0</ele>
        <time>2021-10-11T14:03:53Z</time>
      </trkpt>
      <trkpt lat="42.7617200" lon="-5.9543790">
        <ele>1080.4</ele>
        <time>2021-10-11T14:03:54Z</time>
      </trkpt>
      <trkpt lat="42.7617350" lon="-5.9545880">
        <ele>1079.6</ele>
        <time>2021-10-11T14:03:56Z</time>
      </trkpt>
      <trkpt lat="42.7617580" lon="-5.9547130">
        <ele>1079.4</ele>
        <time>2021-10-11T14:03:57Z</time>
      </trkpt>
      <trkpt lat="42.7618070" lon="-5.9549010">
        <ele>1078.2</ele>
        <time>2021-10-11T14:03:59Z</time>
      </trkpt>
      <trkpt lat="42.7618570" lon="-5.9551090">
        <ele>1077.4</ele>
        <time>2021-10-11T14:04:01Z</time>
      </trkpt>
      <trkpt lat="42.7618640" lon="-5.9552210">
        <ele>1077.0</ele>
        <time>2021-10-11T14:04:02Z</time>
      </trkpt>
      <trkpt lat="42.7618630" lon="-5.9553380">
        <ele>1076.4</ele>
        <time>2021-10-11T14:04:03Z</time>
      </trkpt>
      <trkpt lat="42.7618390" lon="-5.9555860">
        <ele>1075.4</ele>
        <time>2021-10-11T14:04:05Z</time>
      </trkpt>
      <trkpt lat="42.7618250" lon="-5.9557190">
        <ele>1074.8</ele>
        <time>2021-10-11T14:04:06Z</time>
      </trkpt>
      <trkpt lat="42.7618120" lon="-5.9558870">
        <ele>1073.8</ele>
        <time>2021-10-11T14:04:07Z</time>
      </trkpt>
      <trkpt lat="42.7618030" lon="-5.9561460">
        <ele>1072.6</ele>
        <time>2021-10-11T14:04:09Z</time>
      </trkpt>
      <trkpt lat="42.7618010" lon="-5.9562890">
        <ele>1072.2</ele>
        <time>2021-10-11T14:04:10Z</time>
      </trkpt>
      <trkpt lat="42.7618020" lon="-5.9564330">
        <ele>1071.2</ele>
        <time>2021-10-11T14:04:11Z</time>
      </trkpt>
      <trkpt lat="42.7618160" lon="-5.9567160">
        <ele>1069.4</ele>
        <time>2021-10-11T14:04:13Z</time>
      </trkpt>
      <trkpt lat="42.7618320" lon="-5.9569750">
        <ele>1068.0</ele>
        <time>2021-10-11T14:04:15Z</time>
      </trkpt>
      <trkpt lat="42.7618270" lon="-5.9571160">
        <ele>1067.0</ele>
        <time>2021-10-11T14:04:16Z</time>
      </trkpt>
      <trkpt lat="42.7618150" lon="-5.9572070">
        <ele>1066.6</ele>
        <time>2021-10-11T14:04:17Z</time>
      </trkpt>
      <trkpt lat="42.7617880" lon="-5.9573210">
        <ele>1065.4</ele>
        <time>2021-10-11T14:04:18Z</time>
      </trkpt>
      <trkpt lat="42.7616850" lon="-5.9575680">
        <ele>1064.2</ele>
        <time>2021-10-11T14:04:20Z</time>
      </trkpt>
      <trkpt lat="42.7615790" lon="-5.9577660">
        <ele>1063.2</ele>
        <time>2021-10-11T14:04:22Z</time>
      </trkpt>
      <trkpt lat="42.7615130" lon="-5.9578690">
        <ele>1062.2</ele>
        <time>2021-10-11T14:04:23Z</time>
      </trkpt>
      <trkpt lat="42.7614390" lon="-5.9579620">
        <ele>1061.6</ele>
        <time>2021-10-11T14:04:24Z</time>
      </trkpt>
      <trkpt lat="42.7613540" lon="-5.9580350">
        <ele>1059.8</ele>
        <time>2021-10-11T14:04:25Z</time>
      </trkpt>
      <trkpt lat="42.7611610" lon="-5.9581200">
        <ele>1057.4</ele>
        <time>2021-10-11T14:04:27Z</time>
      </trkpt>
      <trkpt lat="42.7610550" lon="-5.9581460">
        <ele>1056.8</ele>
        <time>2021-10-11T14:04:28Z</time>
      </trkpt>
      <trkpt lat="42.7609460" lon="-5.9581820">
        <ele>1055.2</ele>
        <time>2021-10-11T14:04:29Z</time>
      </trkpt>
      <trkpt lat="42.7608370" lon="-5.9582340">
        <ele>1054.2</ele>
        <time>2021-10-11T14:04:30Z</time>
      </trkpt>
      <trkpt lat="42.7607300" lon="-5.9582990">
        <ele>1053.0</ele>
        <time>2021-10-11T14:04:31Z</time>
      </trkpt>
      <trkpt lat="42.7605190" lon="-5.9584340">
        <ele>1050.8</ele>
        <time>2021-10-11T14:04:33Z</time>
      </trkpt>
      <trkpt lat="42.7604120" lon="-5.9584920">
        <ele>1049.6</ele>
        <time>2021-10-11T14:04:34Z</time>
      </trkpt>
      <trkpt lat="42.7602790" lon="-5.9585430">
        <ele>1048.8</ele>
        <time>2021-10-11T14:04:35Z</time>
      </trkpt>
      <trkpt lat="42.7601650" lon="-5.9585720">
        <ele>1047.8</ele>
        <time>2021-10-11T14:04:36Z</time>
      </trkpt>
      <trkpt lat="42.7599610" lon="-5.9585970">
        <ele>1046.2</ele>
        <time>2021-10-11T14:04:38Z</time>
      </trkpt>
      <trkpt lat="42.7598510" lon="-5.9586110">
        <ele>1045.4</ele>
        <time>2021-10-11T14:04:39Z</time>
      </trkpt>
      <trkpt lat="42.7597480" lon="-5.9586440">
        <ele>1044.2</ele>
        <time>2021-10-11T14:04:40Z</time>
      </trkpt>
      <trkpt lat="42.7596480" lon="-5.9586960">
        <ele>1043.6</ele>
        <time>2021-10-11T14:04:41Z</time>
      </trkpt>
      <trkpt lat="42.7595540" lon="-5.9587600">
        <ele>1042.8</ele>
        <time>2021-10-11T14:04:42Z</time>
      </trkpt>
      <trkpt lat="42.7593700" lon="-5.9588930">
        <ele>1041.4</ele>
        <time>2021-10-11T14:04:44Z</time>
      </trkpt>
      <trkpt lat="42.7591840" lon="-5.9590150">
        <ele>1040.2</ele>
        <time>2021-10-11T14:04:46Z</time>
      </trkpt>
      <trkpt lat="42.7589940" lon="-5.9591210">
        <ele>1039.0</ele>
        <time>2021-10-11T14:04:48Z</time>
      </trkpt>
      <trkpt lat="42.7588960" lon="-5.9591550">
        <ele>1038.2</ele>
        <time>2021-10-11T14:04:49Z</time>
      </trkpt>
      <trkpt lat="42.7586830" lon="-5.9592000">
        <ele>1037.4</ele>
        <time>2021-10-11T14:04:51Z</time>
      </trkpt>
      <trkpt lat="42.7584980" lon="-5.9592320">
        <ele>1036.2</ele>
        <time>2021-10-11T14:04:53Z</time>
      </trkpt>
      <trkpt lat="42.7584270" lon="-5.9592430">
        <ele>1035.4</ele>
        <time>2021-10-11T14:04:54Z</time>
      </trkpt>
      <trkpt lat="42.7582560" lon="-5.9592820">
        <ele>1034.8</ele>
        <time>2021-10-11T14:04:56Z</time>
      </trkpt>
      <trkpt lat="42.7581000" lon="-5.9593580">
        <ele>1034.2</ele>
        <time>2021-10-11T14:04:58Z</time>
      </trkpt>
      <trkpt lat="42.7579700" lon="-5.9594730">
        <ele>1033.8</ele>
        <time>2021-10-11T14:05:00Z</time>
      </trkpt>
      <trkpt lat="42.7579140" lon="-5.9595360">
        <ele>1033.4</ele>
        <time>2021-10-11T14:05:01Z</time>
      </trkpt>
      <trkpt lat="42.7578560" lon="-5.9595920">
        <ele>1033.2</ele>
        <time>2021-10-11T14:05:02Z</time>
      </trkpt>
      <trkpt lat="42.7577310" lon="-5.9596540">
        <ele>1033.0</ele>
        <time>2021-10-11T14:05:04Z</time>
      </trkpt>
      <trkpt lat="42.7574850" lon="-5.9596890">
        <ele>1032.8</ele>
        <time>2021-10-11T14:05:08Z</time>
      </trkpt>
      <trkpt lat="42.7574430" lon="-5.9596940">
        <ele>1032.6</ele>
        <time>2021-10-11T14:05:09Z</time>
      </trkpt>
      <trkpt lat="42.7571760" lon="-5.9597150">
        <ele>1032.0</ele>
        <time>2021-10-11T14:05:15Z</time>
      </trkpt>
      <trkpt lat="42.7571090" lon="-5.9597000">
        <ele>1031.8</ele>
        <time>2021-10-11T14:05:17Z</time>
      </trkpt>
      <trkpt lat="42.7570540" lon="-5.9596630">
        <ele>1031.8</ele>
        <time>2021-10-11T14:05:19Z</time>
      </trkpt>
      <trkpt lat="42.7570360" lon="-5.9596410">
        <ele>1031.8</ele>
        <time>2021-10-11T14:05:20Z</time>
      </trkpt>
      <trkpt lat="42.7570260" lon="-5.9595800">
        <ele>1031.4</ele>
        <time>2021-10-11T14:05:24Z</time>
      </trkpt>
      <trkpt lat="42.7570260" lon="-5.9595800">
        <ele>1031.4</ele>
        <time>2021-10-11T14:05:25Z</time>
      </trkpt>
      <trkpt lat="42.7570410" lon="-5.9595170">
        <ele>1031.0</ele>
        <time>2021-10-11T14:06:06Z</time>
      </trkpt>
      <trkpt lat="42.7570560" lon="-5.9594410">
        <ele>1031.0</ele>
        <time>2021-10-11T14:06:08Z</time>
      </trkpt>
      <trkpt lat="42.7570700" lon="-5.9592850">
        <ele>1031.0</ele>
        <time>2021-10-11T14:06:11Z</time>
      </trkpt>
      <trkpt lat="42.7570690" lon="-5.9592430">
        <ele>1031.0</ele>
        <time>2021-10-11T14:06:12Z</time>
      </trkpt>
      <trkpt lat="42.7570670" lon="-5.9591930">
        <ele>1031.0</ele>
        <time>2021-10-11T14:06:13Z</time>
      </trkpt>
      <trkpt lat="42.7570540" lon="-5.9590840">
        <ele>1031.0</ele>
        <time>2021-10-11T14:06:15Z</time>
      </trkpt>
      <trkpt lat="42.7570180" lon="-5.9588900">
        <ele>1031.2</ele>
        <time>2021-10-11T14:06:19Z</time>
      </trkpt>
      <trkpt lat="42.7569870" lon="-5.9587830">
        <ele>1031.4</ele>
        <time>2021-10-11T14:06:21Z</time>
      </trkpt>
      <trkpt lat="42.7568130" lon="-5.9583470">
        <ele>1032.0</ele>
        <time>2021-10-11T14:06:31Z</time>
      </trkpt>
      <trkpt lat="42.7566250" lon="-5.9580600">
        <ele>1033.0</ele>
        <time>2021-10-11T14:06:39Z</time>
      </trkpt>
      <trkpt lat="42.7565940" lon="-5.9580280">
        <ele>1033.0</ele>
        <time>2021-10-11T14:06:40Z</time>
      </trkpt>
      <trkpt lat="42.7565540" lon="-5.9579950">
        <ele>1033.0</ele>
        <time>2021-10-11T14:06:41Z</time>
      </trkpt>
      <trkpt lat="42.7565270" lon="-5.9579720">
        <ele>1033.2</ele>
        <time>2021-10-11T14:06:42Z</time>
      </trkpt>
      <trkpt lat="42.7564170" lon="-5.9578860">
        <ele>1033.2</ele>
        <time>2021-10-11T14:06:45Z</time>
      </trkpt>
      <trkpt lat="42.7563720" lon="-5.9578510">
        <ele>1033.2</ele>
        <time>2021-10-11T14:06:46Z</time>
      </trkpt>
      <trkpt lat="42.7562970" lon="-5.9577940">
        <ele>1033.2</ele>
        <time>2021-10-11T14:06:48Z</time>
      </trkpt>
      <trkpt lat="42.7562280" lon="-5.9577470">
        <ele>1033.4</ele>
        <time>2021-10-11T14:06:50Z</time>
      </trkpt>
      <trkpt lat="42.7561450" lon="-5.9576890">
        <ele>1033.4</ele>
        <time>2021-10-11T14:06:52Z</time>
      </trkpt>
      <trkpt lat="42.7561170" lon="-5.9576650">
        <ele>1033.4</ele>
        <time>2021-10-11T14:06:53Z</time>
      </trkpt>
      <trkpt lat="42.7560490" lon="-5.9575940">
        <ele>1033.4</ele>
        <time>2021-10-11T14:06:55Z</time>
      </trkpt>
      <trkpt lat="42.7559200" lon="-5.9574250">
        <ele>1033.4</ele>
        <time>2021-10-11T14:06:59Z</time>
      </trkpt>
      <trkpt lat="42.7558120" lon="-5.9572260">
        <ele>1033.6</ele>
        <time>2021-10-11T14:07:03Z</time>
      </trkpt>
      <trkpt lat="42.7557720" lon="-5.9571400">
        <ele>1033.6</ele>
        <time>2021-10-11T14:07:05Z</time>
      </trkpt>
      <trkpt lat="42.7557470" lon="-5.9570830">
        <ele>1033.6</ele>
        <time>2021-10-11T14:07:06Z</time>
      </trkpt>
      <trkpt lat="42.7557270" lon="-5.9570370">
        <ele>1033.8</ele>
        <time>2021-10-11T14:07:07Z</time>
      </trkpt>
      <trkpt lat="42.7557130" lon="-5.9569990">
        <ele>1033.8</ele>
        <time>2021-10-11T14:07:08Z</time>
      </trkpt>
      <trkpt lat="42.7556810" lon="-5.9569030">
        <ele>1033.8</ele>
        <time>2021-10-11T14:07:10Z</time>
      </trkpt>
      <trkpt lat="42.7556640" lon="-5.9568640">
        <ele>1034.0</ele>
        <time>2021-10-11T14:07:11Z</time>
      </trkpt>
      <trkpt lat="42.7556340" lon="-5.9567910">
        <ele>1034.2</ele>
        <time>2021-10-11T14:07:13Z</time>
      </trkpt>
      <trkpt lat="42.7555700" lon="-5.9566240">
        <ele>1034.8</ele>
        <time>2021-10-11T14:07:17Z</time>
      </trkpt>
      <trkpt lat="42.7555560" lon="-5.9565900">
        <ele>1035.0</ele>
        <time>2021-10-11T14:07:18Z</time>
      </trkpt>
      <trkpt lat="42.7555390" lon="-5.9565510">
        <ele>1035.2</ele>
        <time>2021-10-11T14:07:19Z</time>
      </trkpt>
      <trkpt lat="42.7555000" lon="-5.9564620">
        <ele>1035.4</ele>
        <time>2021-10-11T14:07:21Z</time>
      </trkpt>
      <trkpt lat="42.7554560" lon="-5.9563970">
        <ele>1035.4</ele>
        <time>2021-10-11T14:07:23Z</time>
      </trkpt>
      <trkpt lat="42.7554010" lon="-5.9563240">
        <ele>1035.6</ele>
        <time>2021-10-11T14:07:25Z</time>
      </trkpt>
      <trkpt lat="42.7552650" lon="-5.9561420">
        <ele>1036.0</ele>
        <time>2021-10-11T14:07:30Z</time>
      </trkpt>
      <trkpt lat="42.7551990" lon="-5.9560720">
        <ele>1036.2</ele>
        <time>2021-10-11T14:07:32Z</time>
      </trkpt>
      <trkpt lat="42.7551330" lon="-5.9560000">
        <ele>1036.2</ele>
        <time>2021-10-11T14:07:34Z</time>
      </trkpt>
      <trkpt lat="42.7550580" lon="-5.9559330">
        <ele>1036.2</ele>
        <time>2021-10-11T14:07:36Z</time>
      </trkpt>
      <trkpt lat="42.7549580" lon="-5.9558570">
        <ele>1036.2</ele>
        <time>2021-10-11T14:07:39Z</time>
      </trkpt>
      <trkpt lat="42.7549230" lon="-5.9558330">
        <ele>1036.2</ele>
        <time>2021-10-11T14:07:40Z</time>
      </trkpt>
      <trkpt lat="42.7547810" lon="-5.9557230">
        <ele>1036.2</ele>
        <time>2021-10-11T14:07:44Z</time>
      </trkpt>
      <trkpt lat="42.7546720" lon="-5.9556560">
        <ele>1036.2</ele>
        <time>2021-10-11T14:07:47Z</time>
      </trkpt>
      <trkpt lat="42.7546320" lon="-5.9556420">
        <ele>1036.4</ele>
        <time>2021-10-11T14:07:48Z</time>
      </trkpt>
      <trkpt lat="42.7545000" lon="-5.9556260">
        <ele>1036.4</ele>
        <time>2021-10-11T14:07:51Z</time>
      </trkpt>
      <trkpt lat="42.7544550" lon="-5.9556310">
        <ele>1036.4</ele>
        <time>2021-10-11T14:07:52Z</time>
      </trkpt>
      <trkpt lat="42.7543720" lon="-5.9556500">
        <ele>1036.4</ele>
        <time>2021-10-11T14:07:54Z</time>
      </trkpt>
      <trkpt lat="42.7543220" lon="-5.9556620">
        <ele>1036.4</ele>
        <time>2021-10-11T14:07:55Z</time>
      </trkpt>
      <trkpt lat="42.7540610" lon="-5.9556960">
        <ele>1036.2</ele>
        <time>2021-10-11T14:08:00Z</time>
      </trkpt>
      <trkpt lat="42.7539940" lon="-5.9556920">
        <ele>1036.2</ele>
        <time>2021-10-11T14:08:01Z</time>
      </trkpt>
      <trkpt lat="42.7538340" lon="-5.9556570">
        <ele>1035.4</ele>
        <time>2021-10-11T14:08:04Z</time>
      </trkpt>
      <trkpt lat="42.7537210" lon="-5.9556200">
        <ele>1035.2</ele>
        <time>2021-10-11T14:08:06Z</time>
      </trkpt>
      <trkpt lat="42.7536630" lon="-5.9555990">
        <ele>1035.0</ele>
        <time>2021-10-11T14:08:07Z</time>
      </trkpt>
      <trkpt lat="42.7536050" lon="-5.9555730">
        <ele>1035.0</ele>
        <time>2021-10-11T14:08:08Z</time>
      </trkpt>
      <trkpt lat="42.7534890" lon="-5.9555170">
        <ele>1034.8</ele>
        <time>2021-10-11T14:08:10Z</time>
      </trkpt>
      <trkpt lat="42.7531550" lon="-5.9553290">
        <ele>1034.4</ele>
        <time>2021-10-11T14:08:16Z</time>
      </trkpt>
      <trkpt lat="42.7528950" lon="-5.9551410">
        <ele>1034.2</ele>
        <time>2021-10-11T14:08:20Z</time>
      </trkpt>
      <trkpt lat="42.7527390" lon="-5.9550080">
        <ele>1034.0</ele>
        <time>2021-10-11T14:08:24Z</time>
      </trkpt>
      <trkpt lat="42.7525270" lon="-5.9548170">
        <ele>1034.0</ele>
        <time>2021-10-11T14:08:27Z</time>
      </trkpt>
      <trkpt lat="42.7524180" lon="-5.9547210">
        <ele>1033.8</ele>
        <time>2021-10-11T14:08:29Z</time>
      </trkpt>
      <trkpt lat="42.7522530" lon="-5.9545720">
        <ele>1033.6</ele>
        <time>2021-10-11T14:08:32Z</time>
      </trkpt>
      <trkpt lat="42.7521440" lon="-5.9544720">
        <ele>1033.0</ele>
        <time>2021-10-11T14:08:34Z</time>
      </trkpt>
      <trkpt lat="42.7518170" lon="-5.9541900">
        <ele>1032.4</ele>
        <time>2021-10-11T14:08:40Z</time>
      </trkpt>
      <trkpt lat="42.7517050" lon="-5.9540960">
        <ele>1032.0</ele>
        <time>2021-10-11T14:08:42Z</time>
      </trkpt>
      <trkpt lat="42.7515850" lon="-5.9539960">
        <ele>1032.0</ele>
        <time>2021-10-11T14:08:44Z</time>
      </trkpt>
      <trkpt lat="42.7514890" lon="-5.9539140">
        <ele>1031.8</ele>
        <time>2021-10-11T14:08:46Z</time>
      </trkpt>
      <trkpt lat="42.7513850" lon="-5.9538140">
        <ele>1031.8</ele>
        <time>2021-10-11T14:08:48Z</time>
      </trkpt>
      <trkpt lat="42.7512400" lon="-5.9536410">
        <ele>1031.6</ele>
        <time>2021-10-11T14:08:51Z</time>
      </trkpt>
      <trkpt lat="42.7511400" lon="-5.9535090">
        <ele>1031.6</ele>
        <time>2021-10-11T14:08:53Z</time>
      </trkpt>
      <trkpt lat="42.7509440" lon="-5.9531720">
        <ele>1031.2</ele>
        <time>2021-10-11T14:08:58Z</time>
      </trkpt>
      <trkpt lat="42.7509170" lon="-5.9531170">
        <ele>1031.2</ele>
        <time>2021-10-11T14:08:59Z</time>
      </trkpt>
      <trkpt lat="42.7507740" lon="-5.9528370">
        <ele>1031.0</ele>
        <time>2021-10-11T14:09:03Z</time>
      </trkpt>
      <trkpt lat="42.7505030" lon="-5.9524650">
        <ele>1030.6</ele>
        <time>2021-10-11T14:09:09Z</time>
      </trkpt>
      <trkpt lat="42.7504520" lon="-5.9524130">
        <ele>1030.4</ele>
        <time>2021-10-11T14:09:10Z</time>
      </trkpt>
      <trkpt lat="42.7503560" lon="-5.9523100">
        <ele>1030.0</ele>
        <time>2021-10-11T14:09:12Z</time>
      </trkpt>
      <trkpt lat="42.7502040" lon="-5.9521600">
        <ele>1029.4</ele>
        <time>2021-10-11T14:09:15Z</time>
      </trkpt>
      <trkpt lat="42.7500410" lon="-5.9519860">
        <ele>1029.2</ele>
        <time>2021-10-11T14:09:18Z</time>
      </trkpt>
      <trkpt lat="42.7500010" lon="-5.9519400">
        <ele>1029.2</ele>
        <time>2021-10-11T14:09:19Z</time>
      </trkpt>
      <trkpt lat="42.7498480" lon="-5.9517650">
        <ele>1028.8</ele>
        <time>2021-10-11T14:09:22Z</time>
      </trkpt>
      <trkpt lat="42.7496520" lon="-5.9515050">
        <ele>1028.2</ele>
        <time>2021-10-11T14:09:26Z</time>
      </trkpt>
      <trkpt lat="42.7496170" lon="-5.9514500">
        <ele>1028.0</ele>
        <time>2021-10-11T14:09:27Z</time>
      </trkpt>
      <trkpt lat="42.7495310" lon="-5.9513140">
        <ele>1027.6</ele>
        <time>2021-10-11T14:09:29Z</time>
      </trkpt>
      <trkpt lat="42.7493640" lon="-5.9510350">
        <ele>1026.8</ele>
        <time>2021-10-11T14:09:33Z</time>
      </trkpt>
      <trkpt lat="42.7492860" lon="-5.9508650">
        <ele>1026.6</ele>
        <time>2021-10-11T14:09:35Z</time>
      </trkpt>
      <trkpt lat="42.7492500" lon="-5.9507890">
        <ele>1026.4</ele>
        <time>2021-10-11T14:09:36Z</time>
      </trkpt>
      <trkpt lat="42.7491230" lon="-5.9504850">
        <ele>1025.6</ele>
        <time>2021-10-11T14:09:40Z</time>
      </trkpt>
      <trkpt lat="42.7490040" lon="-5.9501050">
        <ele>1025.0</ele>
        <time>2021-10-11T14:09:45Z</time>
      </trkpt>
      <trkpt lat="42.7489020" lon="-5.9494770">
        <ele>1024.8</ele>
        <time>2021-10-11T14:09:53Z</time>
      </trkpt>
      <trkpt lat="42.7488980" lon="-5.9494060">
        <ele>1024.8</ele>
        <time>2021-10-11T14:09:54Z</time>
      </trkpt>
      <trkpt lat="42.7488870" lon="-5.9491250">
        <ele>1024.8</ele>
        <time>2021-10-11T14:09:58Z</time>
      </trkpt>
      <trkpt lat="42.7488900" lon="-5.9488780">
        <ele>1024.8</ele>
        <time>2021-10-11T14:10:02Z</time>
      </trkpt>
      <trkpt lat="42.7488990" lon="-5.9484270">
        <ele>1025.0</ele>
        <time>2021-10-11T14:10:09Z</time>
      </trkpt>
      <trkpt lat="42.7489020" lon="-5.9482960">
        <ele>1025.2</ele>
        <time>2021-10-11T14:10:11Z</time>
      </trkpt>
      <trkpt lat="42.7489000" lon="-5.9481490">
        <ele>1025.2</ele>
        <time>2021-10-11T14:10:13Z</time>
      </trkpt>
      <trkpt lat="42.7488860" lon="-5.9478960">
        <ele>1025.6</ele>
        <time>2021-10-11T14:10:17Z</time>
      </trkpt>
      <trkpt lat="42.7488420" lon="-5.9474350">
        <ele>1025.8</ele>
        <time>2021-10-11T14:10:24Z</time>
      </trkpt>
      <trkpt lat="42.7488280" lon="-5.9473100">
        <ele>1026.2</ele>
        <time>2021-10-11T14:10:26Z</time>
      </trkpt>
      <trkpt lat="42.7488080" lon="-5.9471890">
        <ele>1026.2</ele>
        <time>2021-10-11T14:10:28Z</time>
      </trkpt>
      <trkpt lat="42.7487950" lon="-5.9471230">
        <ele>1026.4</ele>
        <time>2021-10-11T14:10:29Z</time>
      </trkpt>
      <trkpt lat="42.7487800" lon="-5.9470660">
        <ele>1026.4</ele>
        <time>2021-10-11T14:10:30Z</time>
      </trkpt>
      <trkpt lat="42.7487680" lon="-5.9470090">
        <ele>1026.4</ele>
        <time>2021-10-11T14:10:31Z</time>
      </trkpt>
      <trkpt lat="42.7487490" lon="-5.9468990">
        <ele>1026.6</ele>
        <time>2021-10-11T14:10:33Z</time>
      </trkpt>
      <trkpt lat="42.7487190" lon="-5.9467530">
        <ele>1027.0</ele>
        <time>2021-10-11T14:10:36Z</time>
      </trkpt>
      <trkpt lat="42.7486990" lon="-5.9466560">
        <ele>1027.8</ele>
        <time>2021-10-11T14:10:38Z</time>
      </trkpt>
      <trkpt lat="42.7486370" lon="-5.9463910">
        <ele>1028.4</ele>
        <time>2021-10-11T14:10:42Z</time>
      </trkpt>
      <trkpt lat="42.7486180" lon="-5.9463210">
        <ele>1028.4</ele>
        <time>2021-10-11T14:10:43Z</time>
      </trkpt>
      <trkpt lat="42.7485380" lon="-5.9460700">
        <ele>1028.6</ele>
        <time>2021-10-11T14:10:47Z</time>
      </trkpt>
      <trkpt lat="42.7484670" lon="-5.9459390">
        <ele>1028.4</ele>
        <time>2021-10-11T14:10:49Z</time>
      </trkpt>
      <trkpt lat="42.7484250" lon="-5.9458860">
        <ele>1028.4</ele>
        <time>2021-10-11T14:10:50Z</time>
      </trkpt>
      <trkpt lat="42.7483870" lon="-5.9458490">
        <ele>1028.0</ele>
        <time>2021-10-11T14:10:51Z</time>
      </trkpt>
      <trkpt lat="42.7482150" lon="-5.9457260">
        <ele>1027.8</ele>
        <time>2021-10-11T14:10:54Z</time>
      </trkpt>
      <trkpt lat="42.7481720" lon="-5.9456970">
        <ele>1027.8</ele>
        <time>2021-10-11T14:10:55Z</time>
      </trkpt>
      <trkpt lat="42.7480650" lon="-5.9456290">
        <ele>1027.6</ele>
        <time>2021-10-11T14:10:57Z</time>
      </trkpt>
      <trkpt lat="42.7479100" lon="-5.9455160">
        <ele>1027.2</ele>
        <time>2021-10-11T14:11:00Z</time>
      </trkpt>
      <trkpt lat="42.7478580" lon="-5.9454770">
        <ele>1027.0</ele>
        <time>2021-10-11T14:11:01Z</time>
      </trkpt>
      <trkpt lat="42.7477490" lon="-5.9453980">
        <ele>1026.6</ele>
        <time>2021-10-11T14:11:03Z</time>
      </trkpt>
      <trkpt lat="42.7475840" lon="-5.9452670">
        <ele>1025.8</ele>
        <time>2021-10-11T14:11:06Z</time>
      </trkpt>
      <trkpt lat="42.7473610" lon="-5.9450910">
        <ele>1025.0</ele>
        <time>2021-10-11T14:11:10Z</time>
      </trkpt>
      <trkpt lat="42.7473030" lon="-5.9450460">
        <ele>1024.8</ele>
        <time>2021-10-11T14:11:11Z</time>
      </trkpt>
      <trkpt lat="42.7471870" lon="-5.9449570">
        <ele>1024.4</ele>
        <time>2021-10-11T14:11:13Z</time>
      </trkpt>
      <trkpt lat="42.7471190" lon="-5.9449050">
        <ele>1024.4</ele>
        <time>2021-10-11T14:11:14Z</time>
      </trkpt>
      <trkpt lat="42.7469700" lon="-5.9447670">
        <ele>1023.8</ele>
        <time>2021-10-11T14:11:17Z</time>
      </trkpt>
      <trkpt lat="42.7468740" lon="-5.9446660">
        <ele>1023.4</ele>
        <time>2021-10-11T14:11:19Z</time>
      </trkpt>
      <trkpt lat="42.7466680" lon="-5.9444010">
        <ele>1022.6</ele>
        <time>2021-10-11T14:11:24Z</time>
      </trkpt>
      <trkpt lat="42.7466300" lon="-5.9443520">
        <ele>1022.6</ele>
        <time>2021-10-11T14:11:25Z</time>
      </trkpt>
      <trkpt lat="42.7465510" lon="-5.9442650">
        <ele>1022.4</ele>
        <time>2021-10-11T14:11:27Z</time>
      </trkpt>
      <trkpt lat="42.7464280" lon="-5.9441760">
        <ele>1022.0</ele>
        <time>2021-10-11T14:11:30Z</time>
      </trkpt>
      <trkpt lat="42.7463350" lon="-5.9441400">
        <ele>1021.8</ele>
        <time>2021-10-11T14:11:32Z</time>
      </trkpt>
      <trkpt lat="42.7462410" lon="-5.9441260">
        <ele>1021.6</ele>
        <time>2021-10-11T14:11:34Z</time>
      </trkpt>
      <trkpt lat="42.7461940" lon="-5.9441240">
        <ele>1021.6</ele>
        <time>2021-10-11T14:11:35Z</time>
      </trkpt>
      <trkpt lat="42.7459290" lon="-5.9441140">
        <ele>1021.0</ele>
        <time>2021-10-11T14:11:41Z</time>
      </trkpt>
      <trkpt lat="42.7458430" lon="-5.9441110">
        <ele>1020.8</ele>
        <time>2021-10-11T14:11:43Z</time>
      </trkpt>
      <trkpt lat="42.7458010" lon="-5.9441020">
        <ele>1020.6</ele>
        <time>2021-10-11T14:11:44Z</time>
      </trkpt>
      <trkpt lat="42.7457590" lon="-5.9440930">
        <ele>1020.6</ele>
        <time>2021-10-11T14:11:45Z</time>
      </trkpt>
      <trkpt lat="42.7456320" lon="-5.9440390">
        <ele>1020.2</ele>
        <time>2021-10-11T14:11:48Z</time>
      </trkpt>
      <trkpt lat="42.7455910" lon="-5.9440150">
        <ele>1020.2</ele>
        <time>2021-10-11T14:11:49Z</time>
      </trkpt>
      <trkpt lat="42.7454750" lon="-5.9439300">
        <ele>1019.8</ele>
        <time>2021-10-11T14:11:52Z</time>
      </trkpt>
      <trkpt lat="42.7454020" lon="-5.9438760">
        <ele>1019.6</ele>
        <time>2021-10-11T14:11:54Z</time>
      </trkpt>
      <trkpt lat="42.7453290" lon="-5.9438260">
        <ele>1019.4</ele>
        <time>2021-10-11T14:11:56Z</time>
      </trkpt>
      <trkpt lat="42.7452950" lon="-5.9438070">
        <ele>1019.4</ele>
        <time>2021-10-11T14:11:57Z</time>
      </trkpt>
      <trkpt lat="42.7452260" lon="-5.9437820">
        <ele>1019.2</ele>
        <time>2021-10-11T14:11:59Z</time>
      </trkpt>
      <trkpt lat="42.7451730" lon="-5.9437870">
        <ele>1019.0</ele>
        <time>2021-10-11T14:12:01Z</time>
      </trkpt>
      <trkpt lat="42.7451230" lon="-5.9437710">
        <ele>1018.8</ele>
        <time>2021-10-11T14:12:04Z</time>
      </trkpt>
      <trkpt lat="42.7450520" lon="-5.9437150">
        <ele>1018.6</ele>
        <time>2021-10-11T14:12:07Z</time>
      </trkpt>
      <trkpt lat="42.7448840" lon="-5.9435690">
        <ele>1018.6</ele>
        <time>2021-10-11T14:12:13Z</time>
      </trkpt>
      <trkpt lat="42.7448290" lon="-5.9435350">
        <ele>1018.6</ele>
        <time>2021-10-11T14:12:15Z</time>
      </trkpt>
      <trkpt lat="42.7448070" lon="-5.9435340">
        <ele>1018.4</ele>
        <time>2021-10-11T14:12:16Z</time>
      </trkpt>
      <trkpt lat="42.7447940" lon="-5.9435200">
        <ele>1018.4</ele>
        <time>2021-10-11T14:12:17Z</time>
      </trkpt>
      <trkpt lat="42.7448000" lon="-5.9434840">
        <ele>1018.6</ele>
        <time>2021-10-11T14:12:19Z</time>
      </trkpt>
      <trkpt lat="42.7448410" lon="-5.9434900">
        <ele>1018.6</ele>
        <time>2021-10-11T14:12:21Z</time>
      </trkpt>
      <trkpt lat="42.7448790" lon="-5.9435230">
        <ele>1018.6</ele>
        <time>2021-10-11T14:12:23Z</time>
      </trkpt>
      <trkpt lat="42.7449390" lon="-5.9435590">
        <ele>1018.6</ele>
        <time>2021-10-11T14:12:29Z</time>
      </trkpt>
      <trkpt lat="42.7449390" lon="-5.9435590">
        <ele>1018.6</ele>
        <time>2021-10-11T14:12:31Z</time>
      </trkpt>
      <trkpt lat="42.7448770" lon="-5.9434990">
        <ele>1018.8</ele>
        <time>2021-10-11T14:15:38Z</time>
      </trkpt>
      <trkpt lat="42.7448490" lon="-5.9434780">
        <ele>1018.8</ele>
        <time>2021-10-11T14:15:39Z</time>
      </trkpt>
      <trkpt lat="42.7446890" lon="-5.9432810">
        <ele>1018.8</ele>
        <time>2021-10-11T14:15:44Z</time>
      </trkpt>
      <trkpt lat="42.7446000" lon="-5.9431210">
        <ele>1018.6</ele>
        <time>2021-10-11T14:15:47Z</time>
      </trkpt>
      <trkpt lat="42.7445430" lon="-5.9430130">
        <ele>1018.6</ele>
        <time>2021-10-11T14:15:49Z</time>
      </trkpt>
      <trkpt lat="42.7444890" lon="-5.9428950">
        <ele>1018.4</ele>
        <time>2021-10-11T14:15:51Z</time>
      </trkpt>
      <trkpt lat="42.7444660" lon="-5.9428340">
        <ele>1018.4</ele>
        <time>2021-10-11T14:15:52Z</time>
      </trkpt>
      <trkpt lat="42.7443270" lon="-5.9423900">
        <ele>1018.0</ele>
        <time>2021-10-11T14:15:59Z</time>
      </trkpt>
      <trkpt lat="42.7442770" lon="-5.9418760">
        <ele>1017.8</ele>
        <time>2021-10-11T14:16:07Z</time>
      </trkpt>
      <trkpt lat="42.7442670" lon="-5.9418150">
        <ele>1017.8</ele>
        <time>2021-10-11T14:16:08Z</time>
      </trkpt>
      <trkpt lat="42.7442300" lon="-5.9417060">
        <ele>1017.8</ele>
        <time>2021-10-11T14:16:10Z</time>
      </trkpt>
      <trkpt lat="42.7442030" lon="-5.9416600">
        <ele>1017.8</ele>
        <time>2021-10-11T14:16:11Z</time>
      </trkpt>
      <trkpt lat="42.7441390" lon="-5.9415720">
        <ele>1018.0</ele>
        <time>2021-10-11T14:16:13Z</time>
      </trkpt>
      <trkpt lat="42.7440120" lon="-5.9414650">
        <ele>1018.0</ele>
        <time>2021-10-11T14:16:16Z</time>
      </trkpt>
      <trkpt lat="42.7439070" lon="-5.9414200">
        <ele>1018.0</ele>
        <time>2021-10-11T14:16:18Z</time>
      </trkpt>
      <trkpt lat="42.7438540" lon="-5.9413990">
        <ele>1018.0</ele>
        <time>2021-10-11T14:16:19Z</time>
      </trkpt>
      <trkpt lat="42.7437460" lon="-5.9413340">
        <ele>1018.0</ele>
        <time>2021-10-11T14:16:21Z</time>
      </trkpt>
      <trkpt lat="42.7436400" lon="-5.9412510">
        <ele>1017.8</ele>
        <time>2021-10-11T14:16:23Z</time>
      </trkpt>
      <trkpt lat="42.7435400" lon="-5.9411700">
        <ele>1017.4</ele>
        <time>2021-10-11T14:16:25Z</time>
      </trkpt>
      <trkpt lat="42.7434430" lon="-5.9410980">
        <ele>1017.0</ele>
        <time>2021-10-11T14:16:27Z</time>
      </trkpt>
      <trkpt lat="42.7433470" lon="-5.9410280">
        <ele>1016.8</ele>
        <time>2021-10-11T14:16:29Z</time>
      </trkpt>
      <trkpt lat="42.7432970" lon="-5.9409950">
        <ele>1016.6</ele>
        <time>2021-10-11T14:16:30Z</time>
      </trkpt>
      <trkpt lat="42.7430950" lon="-5.9408560">
        <ele>1016.2</ele>
        <time>2021-10-11T14:16:34Z</time>
      </trkpt>
      <trkpt lat="42.7430120" lon="-5.9407870">
        <ele>1016.2</ele>
        <time>2021-10-11T14:16:36Z</time>
      </trkpt>
      <trkpt lat="42.7428750" lon="-5.9406820">
        <ele>1016.0</ele>
        <time>2021-10-11T14:16:39Z</time>
      </trkpt>
      <trkpt lat="42.7424700" lon="-5.9403350">
        <ele>1016.0</ele>
        <time>2021-10-11T14:16:48Z</time>
      </trkpt>
      <trkpt lat="42.7423340" lon="-5.9401710">
        <ele>1016.0</ele>
        <time>2021-10-11T14:16:53Z</time>
      </trkpt>
      <trkpt lat="42.7421840" lon="-5.9399470">
        <ele>1016.0</ele>
        <time>2021-10-11T14:16:57Z</time>
      </trkpt>
      <trkpt lat="42.7421390" lon="-5.9398520">
        <ele>1016.0</ele>
        <time>2021-10-11T14:16:59Z</time>
      </trkpt>
      <trkpt lat="42.7420930" lon="-5.9397500">
        <ele>1016.0</ele>
        <time>2021-10-11T14:17:01Z</time>
      </trkpt>
      <trkpt lat="42.7419950" lon="-5.9394840">
        <ele>1016.0</ele>
        <time>2021-10-11T14:17:06Z</time>
      </trkpt>
      <trkpt lat="42.7419500" lon="-5.9393810">
        <ele>1016.2</ele>
        <time>2021-10-11T14:17:08Z</time>
      </trkpt>
      <trkpt lat="42.7419230" lon="-5.9393320">
        <ele>1016.2</ele>
        <time>2021-10-11T14:17:09Z</time>
      </trkpt>
      <trkpt lat="42.7418680" lon="-5.9392460">
        <ele>1016.2</ele>
        <time>2021-10-11T14:17:11Z</time>
      </trkpt>
      <trkpt lat="42.7418430" lon="-5.9392110">
        <ele>1016.4</ele>
        <time>2021-10-11T14:17:12Z</time>
      </trkpt>
      <trkpt lat="42.7418000" lon="-5.9391490">
        <ele>1016.4</ele>
        <time>2021-10-11T14:17:14Z</time>
      </trkpt>
      <trkpt lat="42.7417560" lon="-5.9390850">
        <ele>1016.6</ele>
        <time>2021-10-11T14:17:17Z</time>
      </trkpt>
      <trkpt lat="42.7417380" lon="-5.9390710">
        <ele>1016.6</ele>
        <time>2021-10-11T14:17:18Z</time>
      </trkpt>
      <trkpt lat="42.7416890" lon="-5.9390420">
        <ele>1016.8</ele>
        <time>2021-10-11T14:17:23Z</time>
      </trkpt>
      <trkpt lat="42.7416600" lon="-5.9390710">
        <ele>1016.8</ele>
        <time>2021-10-11T14:18:50Z</time>
      </trkpt>
      <trkpt lat="42.7416470" lon="-5.9390920">
        <ele>1017.0</ele>
        <time>2021-10-11T14:18:51Z</time>
      </trkpt>
      <trkpt lat="42.7416170" lon="-5.9391410">
        <ele>1017.2</ele>
        <time>2021-10-11T14:18:53Z</time>
      </trkpt>
      <trkpt lat="42.7415130" lon="-5.9393530">
        <ele>1017.0</ele>
        <time>2021-10-11T14:18:59Z</time>
      </trkpt>
      <trkpt lat="42.7414620" lon="-5.9394440">
        <ele>1017.0</ele>
        <time>2021-10-11T14:19:01Z</time>
      </trkpt>
      <trkpt lat="42.7413540" lon="-5.9396340">
        <ele>1017.0</ele>
        <time>2021-10-11T14:19:05Z</time>
      </trkpt>
      <trkpt lat="42.7413240" lon="-5.9396840">
        <ele>1017.0</ele>
        <time>2021-10-11T14:19:06Z</time>
      </trkpt>
      <trkpt lat="42.7411830" lon="-5.9399440">
        <ele>1017.2</ele>
        <time>2021-10-11T14:19:11Z</time>
      </trkpt>
      <trkpt lat="42.7411290" lon="-5.9400580">
        <ele>1017.2</ele>
        <time>2021-10-11T14:19:13Z</time>
      </trkpt>
      <trkpt lat="42.7410650" lon="-5.9401680">
        <ele>1017.4</ele>
        <time>2021-10-11T14:19:15Z</time>
      </trkpt>
      <trkpt lat="42.7409970" lon="-5.9402760">
        <ele>1017.6</ele>
        <time>2021-10-11T14:19:17Z</time>
      </trkpt>
      <trkpt lat="42.7409570" lon="-5.9403250">
        <ele>1017.6</ele>
        <time>2021-10-11T14:19:18Z</time>
      </trkpt>
      <trkpt lat="42.7408730" lon="-5.9404280">
        <ele>1017.6</ele>
        <time>2021-10-11T14:19:20Z</time>
      </trkpt>
      <trkpt lat="42.7407830" lon="-5.9405250">
        <ele>1017.6</ele>
        <time>2021-10-11T14:19:22Z</time>
      </trkpt>
      <trkpt lat="42.7406370" lon="-5.9406510">
        <ele>1017.8</ele>
        <time>2021-10-11T14:19:25Z</time>
      </trkpt>
      <trkpt lat="42.7404660" lon="-5.9407530">
        <ele>1017.6</ele>
        <time>2021-10-11T14:19:28Z</time>
      </trkpt>
      <trkpt lat="42.7404070" lon="-5.9407870">
        <ele>1017.6</ele>
        <time>2021-10-11T14:19:29Z</time>
      </trkpt>
      <trkpt lat="42.7402350" lon="-5.9409000">
        <ele>1017.4</ele>
        <time>2021-10-11T14:19:32Z</time>
      </trkpt>
      <trkpt lat="42.7400710" lon="-5.9410170">
        <ele>1017.2</ele>
        <time>2021-10-11T14:19:35Z</time>
      </trkpt>
      <trkpt lat="42.7398420" lon="-5.9411160">
        <ele>1017.0</ele>
        <time>2021-10-11T14:19:39Z</time>
      </trkpt>
      <trkpt lat="42.7397270" lon="-5.9411380">
        <ele>1016.8</ele>
        <time>2021-10-11T14:19:41Z</time>
      </trkpt>
      <trkpt lat="42.7394510" lon="-5.9411110">
        <ele>1016.4</ele>
        <time>2021-10-11T14:19:46Z</time>
      </trkpt>
      <trkpt lat="42.7391400" lon="-5.9409560">
        <ele>1016.2</ele>
        <time>2021-10-11T14:19:52Z</time>
      </trkpt>
      <trkpt lat="42.7389550" lon="-5.9407860">
        <ele>1016.0</ele>
        <time>2021-10-11T14:19:56Z</time>
      </trkpt>
      <trkpt lat="42.7388430" lon="-5.9406200">
        <ele>1016.0</ele>
        <time>2021-10-11T14:19:59Z</time>
      </trkpt>
      <trkpt lat="42.7387500" lon="-5.9404420">
        <ele>1016.0</ele>
        <time>2021-10-11T14:20:02Z</time>
      </trkpt>
      <trkpt lat="42.7386470" lon="-5.9401820">
        <ele>1016.2</ele>
        <time>2021-10-11T14:20:06Z</time>
      </trkpt>
      <trkpt lat="42.7384170" lon="-5.9395110">
        <ele>1015.8</ele>
        <time>2021-10-11T14:20:16Z</time>
      </trkpt>
      <trkpt lat="42.7383690" lon="-5.9393650">
        <ele>1015.8</ele>
        <time>2021-10-11T14:20:18Z</time>
      </trkpt>
      <trkpt lat="42.7383270" lon="-5.9392490">
        <ele>1015.8</ele>
        <time>2021-10-11T14:20:20Z</time>
      </trkpt>
      <trkpt lat="42.7383040" lon="-5.9391840">
        <ele>1015.8</ele>
        <time>2021-10-11T14:20:21Z</time>
      </trkpt>
      <trkpt lat="42.7382170" lon="-5.9389230">
        <ele>1015.8</ele>
        <time>2021-10-11T14:20:25Z</time>
      </trkpt>
      <trkpt lat="42.7381460" lon="-5.9387180">
        <ele>1015.8</ele>
        <time>2021-10-11T14:20:28Z</time>
      </trkpt>
      <trkpt lat="42.7380560" lon="-5.9384660">
        <ele>1016.0</ele>
        <time>2021-10-11T14:20:32Z</time>
      </trkpt>
      <trkpt lat="42.7379690" lon="-5.9382280">
        <ele>1016.0</ele>
        <time>2021-10-11T14:20:36Z</time>
      </trkpt>
      <trkpt lat="42.7377310" lon="-5.9375720">
        <ele>1015.6</ele>
        <time>2021-10-11T14:20:46Z</time>
      </trkpt>
      <trkpt lat="42.7375610" lon="-5.9372130">
        <ele>1015.4</ele>
        <time>2021-10-11T14:20:52Z</time>
      </trkpt>
      <trkpt lat="42.7374970" lon="-5.9370910">
        <ele>1015.4</ele>
        <time>2021-10-11T14:20:54Z</time>
      </trkpt>
      <trkpt lat="42.7373990" lon="-5.9369010">
        <ele>1015.2</ele>
        <time>2021-10-11T14:20:57Z</time>
      </trkpt>
      <trkpt lat="42.7372020" lon="-5.9365090">
        <ele>1015.0</ele>
        <time>2021-10-11T14:21:03Z</time>
      </trkpt>
      <trkpt lat="42.7371740" lon="-5.9364560">
        <ele>1014.8</ele>
        <time>2021-10-11T14:21:04Z</time>
      </trkpt>
      <trkpt lat="42.7370990" lon="-5.9363060">
        <ele>1014.6</ele>
        <time>2021-10-11T14:21:06Z</time>
      </trkpt>
      <trkpt lat="42.7369660" lon="-5.9360410">
        <ele>1014.4</ele>
        <time>2021-10-11T14:21:10Z</time>
      </trkpt>
      <trkpt lat="42.7369310" lon="-5.9359710">
        <ele>1014.2</ele>
        <time>2021-10-11T14:21:11Z</time>
      </trkpt>
      <trkpt lat="42.7368630" lon="-5.9358250">
        <ele>1014.2</ele>
        <time>2021-10-11T14:21:13Z</time>
      </trkpt>
      <trkpt lat="42.7368010" lon="-5.9356870">
        <ele>1014.2</ele>
        <time>2021-10-11T14:21:15Z</time>
      </trkpt>
      <trkpt lat="42.7366250" lon="-5.9353590">
        <ele>1013.8</ele>
        <time>2021-10-11T14:21:20Z</time>
      </trkpt>
      <trkpt lat="42.7365520" lon="-5.9352310">
        <ele>1013.8</ele>
        <time>2021-10-11T14:21:22Z</time>
      </trkpt>
      <trkpt lat="42.7365150" lon="-5.9351710">
        <ele>1013.8</ele>
        <time>2021-10-11T14:21:23Z</time>
      </trkpt>
      <trkpt lat="42.7363780" lon="-5.9349990">
        <ele>1013.6</ele>
        <time>2021-10-11T14:21:26Z</time>
      </trkpt>
      <trkpt lat="42.7362870" lon="-5.9349050">
        <ele>1013.6</ele>
        <time>2021-10-11T14:21:28Z</time>
      </trkpt>
      <trkpt lat="42.7362410" lon="-5.9348680">
        <ele>1013.6</ele>
        <time>2021-10-11T14:21:29Z</time>
      </trkpt>
      <trkpt lat="42.7360460" lon="-5.9347610">
        <ele>1013.6</ele>
        <time>2021-10-11T14:21:33Z</time>
      </trkpt>
      <trkpt lat="42.7359960" lon="-5.9347460">
        <ele>1013.6</ele>
        <time>2021-10-11T14:21:34Z</time>
      </trkpt>
      <trkpt lat="42.7358540" lon="-5.9347120">
        <ele>1013.6</ele>
        <time>2021-10-11T14:21:37Z</time>
      </trkpt>
      <trkpt lat="42.7357530" lon="-5.9346920">
        <ele>1013.6</ele>
        <time>2021-10-11T14:21:39Z</time>
      </trkpt>
      <trkpt lat="42.7356980" lon="-5.9346850">
        <ele>1013.6</ele>
        <time>2021-10-11T14:21:40Z</time>
      </trkpt>
      <trkpt lat="42.7355880" lon="-5.9346880">
        <ele>1013.6</ele>
        <time>2021-10-11T14:21:42Z</time>
      </trkpt>
      <trkpt lat="42.7352700" lon="-5.9347790">
        <ele>1013.8</ele>
        <time>2021-10-11T14:21:49Z</time>
      </trkpt>
      <trkpt lat="42.7351790" lon="-5.9348270">
        <ele>1013.8</ele>
        <time>2021-10-11T14:21:51Z</time>
      </trkpt>
      <trkpt lat="42.7350060" lon="-5.9349490">
        <ele>1014.2</ele>
        <time>2021-10-11T14:21:55Z</time>
      </trkpt>
      <trkpt lat="42.7349210" lon="-5.9350200">
        <ele>1014.4</ele>
        <time>2021-10-11T14:21:57Z</time>
      </trkpt>
      <trkpt lat="42.7346650" lon="-5.9352770">
        <ele>1014.4</ele>
        <time>2021-10-11T14:22:03Z</time>
      </trkpt>
      <trkpt lat="42.7345810" lon="-5.9353680">
        <ele>1014.4</ele>
        <time>2021-10-11T14:22:05Z</time>
      </trkpt>
      <trkpt lat="42.7344560" lon="-5.9355190">
        <ele>1014.4</ele>
        <time>2021-10-11T14:22:08Z</time>
      </trkpt>
      <trkpt lat="42.7344140" lon="-5.9355740">
        <ele>1014.4</ele>
        <time>2021-10-11T14:22:10Z</time>
      </trkpt>
      <trkpt lat="42.7343240" lon="-5.9356810">
        <ele>1014.4</ele>
        <time>2021-10-11T14:22:11Z</time>
      </trkpt>
      <trkpt lat="42.7342290" lon="-5.9357850">
        <ele>1014.4</ele>
        <time>2021-10-11T14:22:13Z</time>
      </trkpt>
      <trkpt lat="42.7341340" lon="-5.9358940">
        <ele>1014.2</ele>
        <time>2021-10-11T14:22:15Z</time>
      </trkpt>
      <trkpt lat="42.7339870" lon="-5.9360400">
        <ele>1014.0</ele>
        <time>2021-10-11T14:22:18Z</time>
      </trkpt>
      <trkpt lat="42.7338920" lon="-5.9361380">
        <ele>1013.8</ele>
        <time>2021-10-11T14:22:20Z</time>
      </trkpt>
      <trkpt lat="42.7336390" lon="-5.9363930">
        <ele>1013.4</ele>
        <time>2021-10-11T14:22:25Z</time>
      </trkpt>
      <trkpt lat="42.7335880" lon="-5.9364530">
        <ele>1013.2</ele>
        <time>2021-10-11T14:22:26Z</time>
      </trkpt>
      <trkpt lat="42.7335350" lon="-5.9365080">
        <ele>1013.0</ele>
        <time>2021-10-11T14:22:27Z</time>
      </trkpt>
      <trkpt lat="42.7334820" lon="-5.9365620">
        <ele>1012.8</ele>
        <time>2021-10-11T14:22:28Z</time>
      </trkpt>
      <trkpt lat="42.7333260" lon="-5.9367280">
        <ele>1012.2</ele>
        <time>2021-10-11T14:22:31Z</time>
      </trkpt>
      <trkpt lat="42.7332180" lon="-5.9368240">
        <ele>1012.0</ele>
        <time>2021-10-11T14:22:33Z</time>
      </trkpt>
      <trkpt lat="42.7331640" lon="-5.9368700">
        <ele>1012.0</ele>
        <time>2021-10-11T14:22:34Z</time>
      </trkpt>
      <trkpt lat="42.7330510" lon="-5.9369520">
        <ele>1011.8</ele>
        <time>2021-10-11T14:22:36Z</time>
      </trkpt>
      <trkpt lat="42.7329390" lon="-5.9370190">
        <ele>1011.8</ele>
        <time>2021-10-11T14:22:38Z</time>
      </trkpt>
      <trkpt lat="42.7328790" lon="-5.9370380">
        <ele>1011.6</ele>
        <time>2021-10-11T14:22:39Z</time>
      </trkpt>
      <trkpt lat="42.7328190" lon="-5.9370590">
        <ele>1011.6</ele>
        <time>2021-10-11T14:22:40Z</time>
      </trkpt>
      <trkpt lat="42.7326430" lon="-5.9371100">
        <ele>1011.4</ele>
        <time>2021-10-11T14:22:43Z</time>
      </trkpt>
      <trkpt lat="42.7325700" lon="-5.9371270">
        <ele>1011.4</ele>
        <time>2021-10-11T14:22:44Z</time>
      </trkpt>
      <trkpt lat="42.7324620" lon="-5.9371370">
        <ele>1011.4</ele>
        <time>2021-10-11T14:22:46Z</time>
      </trkpt>
      <trkpt lat="42.7322160" lon="-5.9371400">
        <ele>1011.2</ele>
        <time>2021-10-11T14:22:50Z</time>
      </trkpt>
      <trkpt lat="42.7321130" lon="-5.9371360">
        <ele>1011.2</ele>
        <time>2021-10-11T14:22:52Z</time>
      </trkpt>
      <trkpt lat="42.7320470" lon="-5.9371380">
        <ele>1011.2</ele>
        <time>2021-10-11T14:22:53Z</time>
      </trkpt>
      <trkpt lat="42.7319940" lon="-5.9371310">
        <ele>1011.2</ele>
        <time>2021-10-11T14:22:54Z</time>
      </trkpt>
      <trkpt lat="42.7317890" lon="-5.9371130">
        <ele>1011.0</ele>
        <time>2021-10-11T14:22:59Z</time>
      </trkpt>
      <trkpt lat="42.7317290" lon="-5.9371510">
        <ele>1010.8</ele>
        <time>2021-10-11T14:23:03Z</time>
      </trkpt>
      <trkpt lat="42.7316840" lon="-5.9371860">
        <ele>1010.6</ele>
        <time>2021-10-11T14:23:05Z</time>
      </trkpt>
      <trkpt lat="42.7316280" lon="-5.9372140">
        <ele>1010.4</ele>
        <time>2021-10-11T14:23:07Z</time>
      </trkpt>
      <trkpt lat="42.7315940" lon="-5.9372250">
        <ele>1010.4</ele>
        <time>2021-10-11T14:23:08Z</time>
      </trkpt>
      <trkpt lat="42.7314630" lon="-5.9372320">
        <ele>1010.2</ele>
        <time>2021-10-11T14:23:11Z</time>
      </trkpt>
      <trkpt lat="42.7314280" lon="-5.9372340">
        <ele>1010.2</ele>
        <time>2021-10-11T14:23:12Z</time>
      </trkpt>
      <trkpt lat="42.7313850" lon="-5.9372400">
        <ele>1010.0</ele>
        <time>2021-10-11T14:23:13Z</time>
      </trkpt>
      <trkpt lat="42.7310560" lon="-5.9372740">
        <ele>1009.6</ele>
        <time>2021-10-11T14:23:20Z</time>
      </trkpt>
      <trkpt lat="42.7309160" lon="-5.9372940">
        <ele>1009.4</ele>
        <time>2021-10-11T14:23:23Z</time>
      </trkpt>
      <trkpt lat="42.7308210" lon="-5.9373020">
        <ele>1009.4</ele>
        <time>2021-10-11T14:23:25Z</time>
      </trkpt>
      <trkpt lat="42.7306930" lon="-5.9372920">
        <ele>1009.4</ele>
        <time>2021-10-11T14:23:28Z</time>
      </trkpt>
      <trkpt lat="42.7305980" lon="-5.9372700">
        <ele>1009.2</ele>
        <time>2021-10-11T14:23:30Z</time>
      </trkpt>
      <trkpt lat="42.7303640" lon="-5.9371920">
        <ele>1008.4</ele>
        <time>2021-10-11T14:23:36Z</time>
      </trkpt>
      <trkpt lat="42.7302820" lon="-5.9371180">
        <ele>1008.2</ele>
        <time>2021-10-11T14:23:40Z</time>
      </trkpt>
      <trkpt lat="42.7302730" lon="-5.9371060">
        <ele>1008.2</ele>
        <time>2021-10-11T14:23:41Z</time>
      </trkpt>
      <trkpt lat="42.7302630" lon="-5.9371000">
        <ele>1008.0</ele>
        <time>2021-10-11T14:23:44Z</time>
      </trkpt>
      <trkpt lat="42.7303810" lon="-5.9371620">
        <ele>1007.8</ele>
        <time>2021-10-11T14:23:55Z</time>
      </trkpt>
      <trkpt lat="42.7304300" lon="-5.9371910">
        <ele>1008.0</ele>
        <time>2021-10-11T14:23:57Z</time>
      </trkpt>
      <trkpt lat="42.7304990" lon="-5.9372160">
        <ele>1008.0</ele>
        <time>2021-10-11T14:24:00Z</time>
      </trkpt>
      <trkpt lat="42.7305890" lon="-5.9372400">
        <ele>1008.2</ele>
        <time>2021-10-11T14:24:03Z</time>
      </trkpt>
      <trkpt lat="42.7307130" lon="-5.9372760">
        <ele>1008.4</ele>
        <time>2021-10-11T14:24:08Z</time>
      </trkpt>
      <trkpt lat="42.7307610" lon="-5.9372770">
        <ele>1008.6</ele>
        <time>2021-10-11T14:24:10Z</time>
      </trkpt>
      <trkpt lat="42.7309240" lon="-5.9372580">
        <ele>1008.6</ele>
        <time>2021-10-11T14:24:15Z</time>
      </trkpt>
      <trkpt lat="42.7310340" lon="-5.9372490">
        <ele>1008.6</ele>
        <time>2021-10-11T14:24:18Z</time>
      </trkpt>
      <trkpt lat="42.7311280" lon="-5.9372370">
        <ele>1008.6</ele>
        <time>2021-10-11T14:24:21Z</time>
      </trkpt>
      <trkpt lat="42.7312540" lon="-5.9372370">
        <ele>1008.8</ele>
        <time>2021-10-11T14:24:26Z</time>
      </trkpt>
      <trkpt lat="42.7312750" lon="-5.9372350">
        <ele>1009.0</ele>
        <time>2021-10-11T14:24:29Z</time>
      </trkpt>
      <trkpt lat="42.7313080" lon="-5.9372340">
        <ele>1009.2</ele>
        <time>2021-10-11T14:27:10Z</time>
      </trkpt>
      <trkpt lat="42.7314290" lon="-5.9372070">
        <ele>1009.4</ele>
        <time>2021-10-11T14:27:15Z</time>
      </trkpt>
      <trkpt lat="42.7315190" lon="-5.9371830">
        <ele>1009.4</ele>
        <time>2021-10-11T14:27:18Z</time>
      </trkpt>
      <trkpt lat="42.7315750" lon="-5.9371810">
        <ele>1009.2</ele>
        <time>2021-10-11T14:27:20Z</time>
      </trkpt>
      <trkpt lat="42.7316330" lon="-5.9371780">
        <ele>1009.2</ele>
        <time>2021-10-11T14:27:22Z</time>
      </trkpt>
      <trkpt lat="42.7316910" lon="-5.9371610">
        <ele>1009.4</ele>
        <time>2021-10-11T14:27:24Z</time>
      </trkpt>
      <trkpt lat="42.7317190" lon="-5.9371140">
        <ele>1009.4</ele>
        <time>2021-10-11T14:27:26Z</time>
      </trkpt>
      <trkpt lat="42.7316910" lon="-5.9370620">
        <ele>1009.6</ele>
        <time>2021-10-11T14:27:28Z</time>
      </trkpt>
      <trkpt lat="42.7316580" lon="-5.9370440">
        <ele>1009.6</ele>
        <time>2021-10-11T14:27:29Z</time>
      </trkpt>
      <trkpt lat="42.7313650" lon="-5.9369510">
        <ele>1010.0</ele>
        <time>2021-10-11T14:27:37Z</time>
      </trkpt>
      <trkpt lat="42.7311210" lon="-5.9368160">
        <ele>1010.0</ele>
        <time>2021-10-11T14:27:43Z</time>
      </trkpt>
      <trkpt lat="42.7310430" lon="-5.9367630">
        <ele>1010.0</ele>
        <time>2021-10-11T14:27:45Z</time>
      </trkpt>
      <trkpt lat="42.7306350" lon="-5.9364480">
        <ele>1010.0</ele>
        <time>2021-10-11T14:27:55Z</time>
      </trkpt>
      <trkpt lat="42.7305570" lon="-5.9363700">
        <ele>1010.0</ele>
        <time>2021-10-11T14:27:57Z</time>
      </trkpt>
      <trkpt lat="42.7304810" lon="-5.9362890">
        <ele>1009.8</ele>
        <time>2021-10-11T14:27:59Z</time>
      </trkpt>
      <trkpt lat="42.7304100" lon="-5.9362020">
        <ele>1009.8</ele>
        <time>2021-10-11T14:28:01Z</time>
      </trkpt>
      <trkpt lat="42.7303080" lon="-5.9360700">
        <ele>1009.8</ele>
        <time>2021-10-11T14:28:04Z</time>
      </trkpt>
      <trkpt lat="42.7302410" lon="-5.9359780">
        <ele>1009.8</ele>
        <time>2021-10-11T14:28:06Z</time>
      </trkpt>
      <trkpt lat="42.7300760" lon="-5.9357120">
        <ele>1009.6</ele>
        <time>2021-10-11T14:28:11Z</time>
      </trkpt>
      <trkpt lat="42.7299840" lon="-5.9355390">
        <ele>1009.6</ele>
        <time>2021-10-11T14:28:14Z</time>
      </trkpt>
      <trkpt lat="42.7296770" lon="-5.9349080">
        <ele>1009.4</ele>
        <time>2021-10-11T14:28:24Z</time>
      </trkpt>
      <trkpt lat="42.7295530" lon="-5.9346430">
        <ele>1009.2</ele>
        <time>2021-10-11T14:28:28Z</time>
      </trkpt>
      <trkpt lat="42.7293970" lon="-5.9343150">
        <ele>1009.0</ele>
        <time>2021-10-11T14:28:33Z</time>
      </trkpt>
      <trkpt lat="42.7293320" lon="-5.9341860">
        <ele>1009.0</ele>
        <time>2021-10-11T14:28:35Z</time>
      </trkpt>
      <trkpt lat="42.7291820" lon="-5.9338730">
        <ele>1008.8</ele>
        <time>2021-10-11T14:28:40Z</time>
      </trkpt>
      <trkpt lat="42.7291230" lon="-5.9337470">
        <ele>1008.6</ele>
        <time>2021-10-11T14:28:42Z</time>
      </trkpt>
      <trkpt lat="42.7290640" lon="-5.9336260">
        <ele>1008.6</ele>
        <time>2021-10-11T14:28:44Z</time>
      </trkpt>
      <trkpt lat="42.7290010" lon="-5.9335070">
        <ele>1008.4</ele>
        <time>2021-10-11T14:28:46Z</time>
      </trkpt>
      <trkpt lat="42.7289670" lon="-5.9334480">
        <ele>1008.4</ele>
        <time>2021-10-11T14:28:47Z</time>
      </trkpt>
      <trkpt lat="42.7288520" lon="-5.9332730">
        <ele>1008.4</ele>
        <time>2021-10-11T14:28:50Z</time>
      </trkpt>
      <trkpt lat="42.7287680" lon="-5.9331620">
        <ele>1008.4</ele>
        <time>2021-10-11T14:28:52Z</time>
      </trkpt>
      <trkpt lat="42.7287230" lon="-5.9331080">
        <ele>1008.4</ele>
        <time>2021-10-11T14:28:53Z</time>
      </trkpt>
      <trkpt lat="42.7286770" lon="-5.9330550">
        <ele>1008.4</ele>
        <time>2021-10-11T14:28:54Z</time>
      </trkpt>
      <trkpt lat="42.7284840" lon="-5.9328590">
        <ele>1008.4</ele>
        <time>2021-10-11T14:28:58Z</time>
      </trkpt>
      <trkpt lat="42.7283800" lon="-5.9327770">
        <ele>1008.4</ele>
        <time>2021-10-11T14:29:00Z</time>
      </trkpt>
      <trkpt lat="42.7283260" lon="-5.9327360">
        <ele>1008.4</ele>
        <time>2021-10-11T14:29:01Z</time>
      </trkpt>
      <trkpt lat="42.7279830" lon="-5.9325430">
        <ele>1008.4</ele>
        <time>2021-10-11T14:29:07Z</time>
      </trkpt>
      <trkpt lat="42.7279240" lon="-5.9325190">
        <ele>1008.4</ele>
        <time>2021-10-11T14:29:08Z</time>
      </trkpt>
      <trkpt lat="42.7274950" lon="-5.9324360">
        <ele>1008.2</ele>
        <time>2021-10-11T14:29:15Z</time>
      </trkpt>
      <trkpt lat="42.7270750" lon="-5.9324840">
        <ele>1008.4</ele>
        <time>2021-10-11T14:29:22Z</time>
      </trkpt>
      <trkpt lat="42.7267170" lon="-5.9325740">
        <ele>1008.4</ele>
        <time>2021-10-11T14:29:28Z</time>
      </trkpt>
      <trkpt lat="42.7265990" lon="-5.9326050">
        <ele>1008.4</ele>
        <time>2021-10-11T14:29:30Z</time>
      </trkpt>
      <trkpt lat="42.7264810" lon="-5.9326330">
        <ele>1008.4</ele>
        <time>2021-10-11T14:29:32Z</time>
      </trkpt>
      <trkpt lat="42.7263580" lon="-5.9326600">
        <ele>1008.2</ele>
        <time>2021-10-11T14:29:34Z</time>
      </trkpt>
      <trkpt lat="42.7261110" lon="-5.9326760">
        <ele>1008.0</ele>
        <time>2021-10-11T14:29:38Z</time>
      </trkpt>
      <trkpt lat="42.7260470" lon="-5.9326710">
        <ele>1008.0</ele>
        <time>2021-10-11T14:29:39Z</time>
      </trkpt>
      <trkpt lat="42.7257930" lon="-5.9326220">
        <ele>1007.6</ele>
        <time>2021-10-11T14:29:43Z</time>
      </trkpt>
      <trkpt lat="42.7257310" lon="-5.9326030">
        <ele>1007.6</ele>
        <time>2021-10-11T14:29:44Z</time>
      </trkpt>
      <trkpt lat="42.7256060" lon="-5.9325570">
        <ele>1007.2</ele>
        <time>2021-10-11T14:29:46Z</time>
      </trkpt>
      <trkpt lat="42.7254820" lon="-5.9325070">
        <ele>1006.8</ele>
        <time>2021-10-11T14:29:48Z</time>
      </trkpt>
      <trkpt lat="42.7253590" lon="-5.9324480">
        <ele>1006.4</ele>
        <time>2021-10-11T14:29:50Z</time>
      </trkpt>
      <trkpt lat="42.7252300" lon="-5.9323840">
        <ele>1006.2</ele>
        <time>2021-10-11T14:29:52Z</time>
      </trkpt>
      <trkpt lat="42.7251010" lon="-5.9323150">
        <ele>1006.2</ele>
        <time>2021-10-11T14:29:54Z</time>
      </trkpt>
      <trkpt lat="42.7249890" lon="-5.9322330">
        <ele>1006.2</ele>
        <time>2021-10-11T14:29:56Z</time>
      </trkpt>
      <trkpt lat="42.7248280" lon="-5.9321000">
        <ele>1006.0</ele>
        <time>2021-10-11T14:29:59Z</time>
      </trkpt>
      <trkpt lat="42.7246150" lon="-5.9319090">
        <ele>1005.6</ele>
        <time>2021-10-11T14:30:03Z</time>
      </trkpt>
      <trkpt lat="42.7245210" lon="-5.9318010">
        <ele>1005.6</ele>
        <time>2021-10-11T14:30:05Z</time>
      </trkpt>
      <trkpt lat="42.7244770" lon="-5.9317490">
        <ele>1005.4</ele>
        <time>2021-10-11T14:30:06Z</time>
      </trkpt>
      <trkpt lat="42.7243280" lon="-5.9315530">
        <ele>1005.0</ele>
        <time>2021-10-11T14:30:10Z</time>
      </trkpt>
      <trkpt lat="42.7241490" lon="-5.9312960">
        <ele>1004.8</ele>
        <time>2021-10-11T14:30:16Z</time>
      </trkpt>
      <trkpt lat="42.7241230" lon="-5.9312520">
        <ele>1004.8</ele>
        <time>2021-10-11T14:30:17Z</time>
      </trkpt>
      <trkpt lat="42.7240630" lon="-5.9311750">
        <ele>1004.6</ele>
        <time>2021-10-11T14:30:19Z</time>
      </trkpt>
      <trkpt lat="42.7240300" lon="-5.9311390">
        <ele>1004.6</ele>
        <time>2021-10-11T14:30:20Z</time>
      </trkpt>
      <trkpt lat="42.7239400" lon="-5.9310660">
        <ele>1004.6</ele>
        <time>2021-10-11T14:30:23Z</time>
      </trkpt>
      <trkpt lat="42.7238930" lon="-5.9310450">
        <ele>1004.6</ele>
        <time>2021-10-11T14:30:25Z</time>
      </trkpt>
      <trkpt lat="42.7238460" lon="-5.9310490">
        <ele>1004.6</ele>
        <time>2021-10-11T14:30:27Z</time>
      </trkpt>
      <trkpt lat="42.7238230" lon="-5.9310590">
        <ele>1004.6</ele>
        <time>2021-10-11T14:30:28Z</time>
      </trkpt>
      <trkpt lat="42.7236700" lon="-5.9312330">
        <ele>1005.0</ele>
        <time>2021-10-11T14:30:35Z</time>
      </trkpt>
      <trkpt lat="42.7235830" lon="-5.9313820">
        <ele>1005.2</ele>
        <time>2021-10-11T14:30:39Z</time>
      </trkpt>
      <trkpt lat="42.7235030" lon="-5.9315070">
        <ele>1005.2</ele>
        <time>2021-10-11T14:30:42Z</time>
      </trkpt>
      <trkpt lat="42.7234470" lon="-5.9315940">
        <ele>1005.2</ele>
        <time>2021-10-11T14:30:44Z</time>
      </trkpt>
      <trkpt lat="42.7233680" lon="-5.9317190">
        <ele>1005.6</ele>
        <time>2021-10-11T14:30:47Z</time>
      </trkpt>
      <trkpt lat="42.7233070" lon="-5.9318090">
        <ele>1005.6</ele>
        <time>2021-10-11T14:30:49Z</time>
      </trkpt>
      <trkpt lat="42.7230910" lon="-5.9321220">
        <ele>1006.2</ele>
        <time>2021-10-11T14:30:56Z</time>
      </trkpt>
      <trkpt lat="42.7230250" lon="-5.9322120">
        <ele>1006.4</ele>
        <time>2021-10-11T14:30:58Z</time>
      </trkpt>
      <trkpt lat="42.7229580" lon="-5.9322970">
        <ele>1006.4</ele>
        <time>2021-10-11T14:31:00Z</time>
      </trkpt>
      <trkpt lat="42.7229010" lon="-5.9323830">
        <ele>1006.6</ele>
        <time>2021-10-11T14:31:02Z</time>
      </trkpt>
      <trkpt lat="42.7228280" lon="-5.9325040">
        <ele>1006.4</ele>
        <time>2021-10-11T14:31:05Z</time>
      </trkpt>
      <trkpt lat="42.7227990" lon="-5.9325400">
        <ele>1006.4</ele>
        <time>2021-10-11T14:31:06Z</time>
      </trkpt>
      <trkpt lat="42.7225170" lon="-5.9327840">
        <ele>1006.4</ele>
        <time>2021-10-11T14:31:14Z</time>
      </trkpt>
      <trkpt lat="42.7224770" lon="-5.9327950">
        <ele>1006.4</ele>
        <time>2021-10-11T14:31:15Z</time>
      </trkpt>
      <trkpt lat="42.7223910" lon="-5.9328050">
        <ele>1006.4</ele>
        <time>2021-10-11T14:31:17Z</time>
      </trkpt>
      <trkpt lat="42.7223070" lon="-5.9327990">
        <ele>1006.4</ele>
        <time>2021-10-11T14:31:19Z</time>
      </trkpt>
      <trkpt lat="42.7221750" lon="-5.9327750">
        <ele>1006.4</ele>
        <time>2021-10-11T14:31:22Z</time>
      </trkpt>
      <trkpt lat="42.7220840" lon="-5.9327510">
        <ele>1006.4</ele>
        <time>2021-10-11T14:31:24Z</time>
      </trkpt>
      <trkpt lat="42.7218080" lon="-5.9326920">
        <ele>1006.2</ele>
        <time>2021-10-11T14:31:30Z</time>
      </trkpt>
      <trkpt lat="42.7214800" lon="-5.9327290">
        <ele>1006.0</ele>
        <time>2021-10-11T14:31:38Z</time>
      </trkpt>
      <trkpt lat="42.7212940" lon="-5.9328220">
        <ele>1006.6</ele>
        <time>2021-10-11T14:31:44Z</time>
      </trkpt>
      <trkpt lat="42.7212350" lon="-5.9328470">
        <ele>1006.8</ele>
        <time>2021-10-11T14:31:46Z</time>
      </trkpt>
      <trkpt lat="42.7211700" lon="-5.9328370">
        <ele>1007.0</ele>
        <time>2021-10-11T14:31:48Z</time>
      </trkpt>
      <trkpt lat="42.7209980" lon="-5.9327000">
        <ele>1007.4</ele>
        <time>2021-10-11T14:31:53Z</time>
      </trkpt>
      <trkpt lat="42.7209660" lon="-5.9326590">
        <ele>1007.4</ele>
        <time>2021-10-11T14:31:54Z</time>
      </trkpt>
      <trkpt lat="42.7207540" lon="-5.9324320">
        <ele>1007.2</ele>
        <time>2021-10-11T14:32:00Z</time>
      </trkpt>
      <trkpt lat="42.7206830" lon="-5.9323690">
        <ele>1007.2</ele>
        <time>2021-10-11T14:32:02Z</time>
      </trkpt>
      <trkpt lat="42.7204830" lon="-5.9321850">
        <ele>1007.2</ele>
        <time>2021-10-11T14:32:07Z</time>
      </trkpt>
      <trkpt lat="42.7203660" lon="-5.9320650">
        <ele>1007.0</ele>
        <time>2021-10-11T14:32:10Z</time>
      </trkpt>
      <trkpt lat="42.7203290" lon="-5.9320360">
        <ele>1007.0</ele>
        <time>2021-10-11T14:32:11Z</time>
      </trkpt>
      <trkpt lat="42.7201750" lon="-5.9319630">
        <ele>1007.0</ele>
        <time>2021-10-11T14:32:15Z</time>
      </trkpt>
      <trkpt lat="42.7200660" lon="-5.9317960">
        <ele>1007.2</ele>
        <time>2021-10-11T14:32:20Z</time>
      </trkpt>
      <trkpt lat="42.7200070" lon="-5.9315550">
        <ele>1007.2</ele>
        <time>2021-10-11T14:32:24Z</time>
      </trkpt>
      <trkpt lat="42.7199930" lon="-5.9314850">
        <ele>1007.2</ele>
        <time>2021-10-11T14:32:25Z</time>
      </trkpt>
      <trkpt lat="42.7199720" lon="-5.9314100">
        <ele>1007.0</ele>
        <time>2021-10-11T14:32:26Z</time>
      </trkpt>
      <trkpt lat="42.7199230" lon="-5.9312570">
        <ele>1006.6</ele>
        <time>2021-10-11T14:32:28Z</time>
      </trkpt>
      <trkpt lat="42.7198740" lon="-5.9311530">
        <ele>1006.2</ele>
        <time>2021-10-11T14:32:30Z</time>
      </trkpt>
      <trkpt lat="42.7198350" lon="-5.9310990">
        <ele>1005.8</ele>
        <time>2021-10-11T14:32:31Z</time>
      </trkpt>
      <trkpt lat="42.7197840" lon="-5.9310530">
        <ele>1005.4</ele>
        <time>2021-10-11T14:32:32Z</time>
      </trkpt>
      <trkpt lat="42.7197290" lon="-5.9310240">
        <ele>1005.2</ele>
        <time>2021-10-11T14:32:33Z</time>
      </trkpt>
      <trkpt lat="42.7196760" lon="-5.9310160">
        <ele>1005.0</ele>
        <time>2021-10-11T14:32:34Z</time>
      </trkpt>
      <trkpt lat="42.7195680" lon="-5.9310370">
        <ele>1004.8</ele>
        <time>2021-10-11T14:32:36Z</time>
      </trkpt>
      <trkpt lat="42.7195140" lon="-5.9310550">
        <ele>1004.8</ele>
        <time>2021-10-11T14:32:37Z</time>
      </trkpt>
      <trkpt lat="42.7193570" lon="-5.9310820">
        <ele>1004.4</ele>
        <time>2021-10-11T14:32:40Z</time>
      </trkpt>
      <trkpt lat="42.7193060" lon="-5.9310780">
        <ele>1004.4</ele>
        <time>2021-10-11T14:32:41Z</time>
      </trkpt>
      <trkpt lat="42.7191960" lon="-5.9310570">
        <ele>1004.2</ele>
        <time>2021-10-11T14:32:43Z</time>
      </trkpt>
      <trkpt lat="42.7190270" lon="-5.9310190">
        <ele>1004.2</ele>
        <time>2021-10-11T14:32:46Z</time>
      </trkpt>
      <trkpt lat="42.7187530" lon="-5.9309630">
        <ele>1004.0</ele>
        <time>2021-10-11T14:32:51Z</time>
      </trkpt>
      <trkpt lat="42.7187000" lon="-5.9309400">
        <ele>1004.2</ele>
        <time>2021-10-11T14:32:52Z</time>
      </trkpt>
      <trkpt lat="42.7186000" lon="-5.9308810">
        <ele>1004.4</ele>
        <time>2021-10-11T14:32:54Z</time>
      </trkpt>
      <trkpt lat="42.7184620" lon="-5.9307720">
        <ele>1004.4</ele>
        <time>2021-10-11T14:32:57Z</time>
      </trkpt>
      <trkpt lat="42.7184180" lon="-5.9307250">
        <ele>1004.4</ele>
        <time>2021-10-11T14:32:58Z</time>
      </trkpt>
      <trkpt lat="42.7181580" lon="-5.9303850">
        <ele>1004.6</ele>
        <time>2021-10-11T14:33:05Z</time>
      </trkpt>
      <trkpt lat="42.7179350" lon="-5.9301820">
        <ele>1005.0</ele>
        <time>2021-10-11T14:33:11Z</time>
      </trkpt>
      <trkpt lat="42.7176440" lon="-5.9299880">
        <ele>1005.8</ele>
        <time>2021-10-11T14:33:19Z</time>
      </trkpt>
      <trkpt lat="42.7176230" lon="-5.9299600">
        <ele>1006.0</ele>
        <time>2021-10-11T14:33:20Z</time>
      </trkpt>
      <trkpt lat="42.7176100" lon="-5.9299250">
        <ele>1006.0</ele>
        <time>2021-10-11T14:33:21Z</time>
      </trkpt>
      <trkpt lat="42.7175890" lon="-5.9298330">
        <ele>1006.4</ele>
        <time>2021-10-11T14:33:23Z</time>
      </trkpt>
      <trkpt lat="42.7175800" lon="-5.9296860">
        <ele>1007.2</ele>
        <time>2021-10-11T14:33:26Z</time>
      </trkpt>
      <trkpt lat="42.7175770" lon="-5.9295250">
        <ele>1007.8</ele>
        <time>2021-10-11T14:33:29Z</time>
      </trkpt>
      <trkpt lat="42.7175780" lon="-5.9294690">
        <ele>1007.8</ele>
        <time>2021-10-11T14:33:30Z</time>
      </trkpt>
      <trkpt lat="42.7175840" lon="-5.9293520">
        <ele>1008.0</ele>
        <time>2021-10-11T14:33:32Z</time>
      </trkpt>
      <trkpt lat="42.7175870" lon="-5.9292910">
        <ele>1008.0</ele>
        <time>2021-10-11T14:33:33Z</time>
      </trkpt>
      <trkpt lat="42.7175910" lon="-5.9292330">
        <ele>1008.2</ele>
        <time>2021-10-11T14:33:34Z</time>
      </trkpt>
      <trkpt lat="42.7175970" lon="-5.9291730">
        <ele>1008.2</ele>
        <time>2021-10-11T14:33:35Z</time>
      </trkpt>
      <trkpt lat="42.7176040" lon="-5.9290510">
        <ele>1008.2</ele>
        <time>2021-10-11T14:33:37Z</time>
      </trkpt>
      <trkpt lat="42.7176130" lon="-5.9289870">
        <ele>1008.2</ele>
        <time>2021-10-11T14:33:38Z</time>
      </trkpt>
      <trkpt lat="42.7176230" lon="-5.9288460">
        <ele>1008.2</ele>
        <time>2021-10-11T14:33:40Z</time>
      </trkpt>
      <trkpt lat="42.7176000" lon="-5.9285460">
        <ele>1008.0</ele>
        <time>2021-10-11T14:33:45Z</time>
      </trkpt>
      <trkpt lat="42.7175810" lon="-5.9284550">
        <ele>1008.0</ele>
        <time>2021-10-11T14:33:47Z</time>
      </trkpt>
      <trkpt lat="42.7175410" lon="-5.9282890">
        <ele>1008.0</ele>
        <time>2021-10-11T14:33:51Z</time>
      </trkpt>
      <trkpt lat="42.7174770" lon="-5.9280410">
        <ele>1008.2</ele>
        <time>2021-10-11T14:33:58Z</time>
      </trkpt>
      <trkpt lat="42.7174620" lon="-5.9279920">
        <ele>1008.2</ele>
        <time>2021-10-11T14:34:00Z</time>
      </trkpt>
      <trkpt lat="42.7174540" lon="-5.9279480">
        <ele>1008.2</ele>
        <time>2021-10-11T14:34:02Z</time>
      </trkpt>
      <trkpt lat="42.7174470" lon="-5.9279280">
        <ele>1008.2</ele>
        <time>2021-10-11T14:34:03Z</time>
      </trkpt>
      <trkpt lat="42.7174370" lon="-5.9279090">
        <ele>1008.2</ele>
        <time>2021-10-11T14:34:04Z</time>
      </trkpt>
      <trkpt lat="42.7174300" lon="-5.9278840">
        <ele>1008.2</ele>
        <time>2021-10-11T14:34:08Z</time>
      </trkpt>
      <trkpt lat="42.7173870" lon="-5.9278210">
        <ele>1008.4</ele>
        <time>2021-10-11T14:34:57Z</time>
      </trkpt>
      <trkpt lat="42.7173710" lon="-5.9278000">
        <ele>1008.4</ele>
        <time>2021-10-11T14:34:58Z</time>
      </trkpt>
      <trkpt lat="42.7172600" lon="-5.9276650">
        <ele>1008.4</ele>
        <time>2021-10-11T14:35:03Z</time>
      </trkpt>
      <trkpt lat="42.7172210" lon="-5.9276160">
        <ele>1008.4</ele>
        <time>2021-10-11T14:35:05Z</time>
      </trkpt>
      <trkpt lat="42.7171990" lon="-5.9275910">
        <ele>1008.4</ele>
        <time>2021-10-11T14:35:06Z</time>
      </trkpt>
      <trkpt lat="42.7171810" lon="-5.9275670">
        <ele>1008.6</ele>
        <time>2021-10-11T14:35:07Z</time>
      </trkpt>
      <trkpt lat="42.7171610" lon="-5.9275430">
        <ele>1008.8</ele>
        <time>2021-10-11T14:35:08Z</time>
      </trkpt>
      <trkpt lat="42.7171420" lon="-5.9275180">
        <ele>1008.8</ele>
        <time>2021-10-11T14:35:09Z</time>
      </trkpt>
      <trkpt lat="42.7170520" lon="-5.9274100">
        <ele>1009.2</ele>
        <time>2021-10-11T14:35:13Z</time>
      </trkpt>
      <trkpt lat="42.7170040" lon="-5.9273590">
        <ele>1009.4</ele>
        <time>2021-10-11T14:35:15Z</time>
      </trkpt>
      <trkpt lat="42.7169140" lon="-5.9272530">
        <ele>1009.8</ele>
        <time>2021-10-11T14:35:19Z</time>
      </trkpt>
      <trkpt lat="42.7168690" lon="-5.9272070">
        <ele>1010.2</ele>
        <time>2021-10-11T14:35:21Z</time>
      </trkpt>
      <trkpt lat="42.7168400" lon="-5.9271490">
        <ele>1010.4</ele>
        <time>2021-10-11T14:35:23Z</time>
      </trkpt>
      <trkpt lat="42.7167720" lon="-5.9270830">
        <ele>1011.0</ele>
        <time>2021-10-11T14:35:26Z</time>
      </trkpt>
      <trkpt lat="42.7167320" lon="-5.9270410">
        <ele>1011.2</ele>
        <time>2021-10-11T14:35:28Z</time>
      </trkpt>
      <trkpt lat="42.7166670" lon="-5.9269830">
        <ele>1011.6</ele>
        <time>2021-10-11T14:35:31Z</time>
      </trkpt>
      <trkpt lat="42.7166050" lon="-5.9269040">
        <ele>1012.0</ele>
        <time>2021-10-11T14:35:34Z</time>
      </trkpt>
      <trkpt lat="42.7165820" lon="-5.9268810">
        <ele>1012.2</ele>
        <time>2021-10-11T14:35:35Z</time>
      </trkpt>
      <trkpt lat="42.7165150" lon="-5.9268150">
        <ele>1012.8</ele>
        <time>2021-10-11T14:35:38Z</time>
      </trkpt>
      <trkpt lat="42.7164970" lon="-5.9267920">
        <ele>1012.8</ele>
        <time>2021-10-11T14:35:39Z</time>
      </trkpt>
      <trkpt lat="42.7164430" lon="-5.9267210">
        <ele>1013.2</ele>
        <time>2021-10-11T14:35:42Z</time>
      </trkpt>
      <trkpt lat="42.7163690" lon="-5.9266270">
        <ele>1014.0</ele>
        <time>2021-10-11T14:35:46Z</time>
      </trkpt>
      <trkpt lat="42.7163330" lon="-5.9265830">
        <ele>1014.4</ele>
        <time>2021-10-11T14:35:48Z</time>
      </trkpt>
      <trkpt lat="42.7162560" lon="-5.9264930">
        <ele>1014.8</ele>
        <time>2021-10-11T14:35:52Z</time>
      </trkpt>
      <trkpt lat="42.7162220" lon="-5.9264540">
        <ele>1015.0</ele>
        <time>2021-10-11T14:35:54Z</time>
      </trkpt>
      <trkpt lat="42.7161850" lon="-5.9264160">
        <ele>1015.4</ele>
        <time>2021-10-11T14:35:56Z</time>
      </trkpt>
      <trkpt lat="42.7161200" lon="-5.9263430">
        <ele>1016.2</ele>
        <time>2021-10-11T14:36:00Z</time>
      </trkpt>
      <trkpt lat="42.7161030" lon="-5.9263270">
        <ele>1016.4</ele>
        <time>2021-10-11T14:36:01Z</time>
      </trkpt>
      <trkpt lat="42.7160860" lon="-5.9263090">
        <ele>1016.6</ele>
        <time>2021-10-11T14:36:02Z</time>
      </trkpt>
      <trkpt lat="42.7160220" lon="-5.9262250">
        <ele>1017.2</ele>
        <time>2021-10-11T14:36:06Z</time>
      </trkpt>
      <trkpt lat="42.7159840" lon="-5.9261840">
        <ele>1017.4</ele>
        <time>2021-10-11T14:36:08Z</time>
      </trkpt>
      <trkpt lat="42.7159350" lon="-5.9261310">
        <ele>1018.0</ele>
        <time>2021-10-11T14:36:11Z</time>
      </trkpt>
      <trkpt lat="42.7159180" lon="-5.9261110">
        <ele>1018.2</ele>
        <time>2021-10-11T14:36:12Z</time>
      </trkpt>
      <trkpt lat="42.7158990" lon="-5.9260930">
        <ele>1018.4</ele>
        <time>2021-10-11T14:36:13Z</time>
      </trkpt>
      <trkpt lat="42.7158500" lon="-5.9260420">
        <ele>1018.8</ele>
        <time>2021-10-11T14:36:16Z</time>
      </trkpt>
      <trkpt lat="42.7158070" lon="-5.9259900">
        <ele>1019.4</ele>
        <time>2021-10-11T14:36:19Z</time>
      </trkpt>
      <trkpt lat="42.7157910" lon="-5.9259730">
        <ele>1019.6</ele>
        <time>2021-10-11T14:36:20Z</time>
      </trkpt>
      <trkpt lat="42.7157280" lon="-5.9259180">
        <ele>1020.0</ele>
        <time>2021-10-11T14:36:24Z</time>
      </trkpt>
      <trkpt lat="42.7156860" lon="-5.9258820">
        <ele>1020.4</ele>
        <time>2021-10-11T14:36:27Z</time>
      </trkpt>
      <trkpt lat="42.7156740" lon="-5.9258690">
        <ele>1020.8</ele>
        <time>2021-10-11T14:36:28Z</time>
      </trkpt>
      <trkpt lat="42.7156510" lon="-5.9258470">
        <ele>1021.4</ele>
        <time>2021-10-11T14:36:30Z</time>
      </trkpt>
      <trkpt lat="42.7156220" lon="-5.9258250">
        <ele>1021.6</ele>
        <time>2021-10-11T14:36:32Z</time>
      </trkpt>
      <trkpt lat="42.7156120" lon="-5.9258150">
        <ele>1022.0</ele>
        <time>2021-10-11T14:36:33Z</time>
      </trkpt>
      <trkpt lat="42.7155730" lon="-5.9257800">
        <ele>1022.6</ele>
        <time>2021-10-11T14:36:36Z</time>
      </trkpt>
      <trkpt lat="42.7155470" lon="-5.9257580">
        <ele>1023.0</ele>
        <time>2021-10-11T14:36:38Z</time>
      </trkpt>
      <trkpt lat="42.7154500" lon="-5.9256980">
        <ele>1024.0</ele>
        <time>2021-10-11T14:36:45Z</time>
      </trkpt>
      <trkpt lat="42.7154290" lon="-5.9256850">
        <ele>1024.0</ele>
        <time>2021-10-11T14:36:46Z</time>
      </trkpt>
      <trkpt lat="42.7153030" lon="-5.9255910">
        <ele>1025.0</ele>
        <time>2021-10-11T14:36:55Z</time>
      </trkpt>
      <trkpt lat="42.7152710" lon="-5.9255700">
        <ele>1025.2</ele>
        <time>2021-10-11T14:36:57Z</time>
      </trkpt>
      <trkpt lat="42.7151350" lon="-5.9254870">
        <ele>1026.2</ele>
        <time>2021-10-11T14:37:06Z</time>
      </trkpt>
      <trkpt lat="42.7150410" lon="-5.9254170">
        <ele>1027.0</ele>
        <time>2021-10-11T14:37:13Z</time>
      </trkpt>
      <trkpt lat="42.7150300" lon="-5.9254100">
        <ele>1027.2</ele>
        <time>2021-10-11T14:37:14Z</time>
      </trkpt>
      <trkpt lat="42.7149960" lon="-5.9253910">
        <ele>1027.6</ele>
        <time>2021-10-11T14:37:16Z</time>
      </trkpt>
      <trkpt lat="42.7149810" lon="-5.9253860">
        <ele>1028.0</ele>
        <time>2021-10-11T14:37:17Z</time>
      </trkpt>
      <trkpt lat="42.7149680" lon="-5.9253810">
        <ele>1028.2</ele>
        <time>2021-10-11T14:37:18Z</time>
      </trkpt>
      <trkpt lat="42.7149340" lon="-5.9253740">
        <ele>1028.6</ele>
        <time>2021-10-11T14:37:20Z</time>
      </trkpt>
      <trkpt lat="42.7149150" lon="-5.9253700">
        <ele>1028.8</ele>
        <time>2021-10-11T14:37:21Z</time>
      </trkpt>
      <trkpt lat="42.7148600" lon="-5.9253660">
        <ele>1029.2</ele>
        <time>2021-10-11T14:37:25Z</time>
      </trkpt>
      <trkpt lat="42.7148300" lon="-5.9253670">
        <ele>1029.4</ele>
        <time>2021-10-11T14:37:27Z</time>
      </trkpt>
      <trkpt lat="42.7147870" lon="-5.9253810">
        <ele>1029.8</ele>
        <time>2021-10-11T14:37:30Z</time>
      </trkpt>
      <trkpt lat="42.7147750" lon="-5.9253880">
        <ele>1029.8</ele>
        <time>2021-10-11T14:37:31Z</time>
      </trkpt>
      <trkpt lat="42.7147600" lon="-5.9253940">
        <ele>1030.0</ele>
        <time>2021-10-11T14:37:32Z</time>
      </trkpt>
      <trkpt lat="42.7147120" lon="-5.9254040">
        <ele>1030.4</ele>
        <time>2021-10-11T14:37:35Z</time>
      </trkpt>
      <trkpt lat="42.7146970" lon="-5.9254090">
        <ele>1030.6</ele>
        <time>2021-10-11T14:37:36Z</time>
      </trkpt>
      <trkpt lat="42.7146590" lon="-5.9254360">
        <ele>1031.2</ele>
        <time>2021-10-11T14:37:39Z</time>
      </trkpt>
      <trkpt lat="42.7146330" lon="-5.9254540">
        <ele>1031.6</ele>
        <time>2021-10-11T14:37:41Z</time>
      </trkpt>
      <trkpt lat="42.7145980" lon="-5.9254890">
        <ele>1032.2</ele>
        <time>2021-10-11T14:37:44Z</time>
      </trkpt>
      <trkpt lat="42.7145740" lon="-5.9255160">
        <ele>1032.2</ele>
        <time>2021-10-11T14:37:46Z</time>
      </trkpt>
      <trkpt lat="42.7145570" lon="-5.9255520">
        <ele>1032.4</ele>
        <time>2021-10-11T14:37:48Z</time>
      </trkpt>
      <trkpt lat="42.7145310" lon="-5.9256060">
        <ele>1032.6</ele>
        <time>2021-10-11T14:37:51Z</time>
      </trkpt>
      <trkpt lat="42.7145200" lon="-5.9256560">
        <ele>1032.8</ele>
        <time>2021-10-11T14:37:53Z</time>
      </trkpt>
      <trkpt lat="42.7144950" lon="-5.9259000">
        <ele>1033.8</ele>
        <time>2021-10-11T14:38:04Z</time>
      </trkpt>
      <trkpt lat="42.7144990" lon="-5.9259410">
        <ele>1034.0</ele>
        <time>2021-10-11T14:38:06Z</time>
      </trkpt>
      <trkpt lat="42.7145110" lon="-5.9260370">
        <ele>1034.6</ele>
        <time>2021-10-11T14:38:11Z</time>
      </trkpt>
      <trkpt lat="42.7145150" lon="-5.9260570">
        <ele>1034.8</ele>
        <time>2021-10-11T14:38:12Z</time>
      </trkpt>
      <trkpt lat="42.7145300" lon="-5.9261290">
        <ele>1035.8</ele>
        <time>2021-10-11T14:38:16Z</time>
      </trkpt>
      <trkpt lat="42.7145460" lon="-5.9262030">
        <ele>1036.2</ele>
        <time>2021-10-11T14:38:20Z</time>
      </trkpt>
      <trkpt lat="42.7145960" lon="-5.9263520">
        <ele>1036.8</ele>
        <time>2021-10-11T14:38:28Z</time>
      </trkpt>
      <trkpt lat="42.7146020" lon="-5.9263700">
        <ele>1036.8</ele>
        <time>2021-10-11T14:38:29Z</time>
      </trkpt>
      <trkpt lat="42.7146130" lon="-5.9264090">
        <ele>1037.4</ele>
        <time>2021-10-11T14:38:31Z</time>
      </trkpt>
      <trkpt lat="42.7146420" lon="-5.9264840">
        <ele>1037.8</ele>
        <time>2021-10-11T14:38:35Z</time>
      </trkpt>
      <trkpt lat="42.7146620" lon="-5.9265360">
        <ele>1038.0</ele>
        <time>2021-10-11T14:38:38Z</time>
      </trkpt>
      <trkpt lat="42.7146690" lon="-5.9265540">
        <ele>1038.2</ele>
        <time>2021-10-11T14:38:39Z</time>
      </trkpt>
      <trkpt lat="42.7147100" lon="-5.9266490">
        <ele>1038.8</ele>
        <time>2021-10-11T14:38:44Z</time>
      </trkpt>
      <trkpt lat="42.7147230" lon="-5.9266720">
        <ele>1039.0</ele>
        <time>2021-10-11T14:38:45Z</time>
      </trkpt>
      <trkpt lat="42.7147320" lon="-5.9266950">
        <ele>1039.2</ele>
        <time>2021-10-11T14:38:46Z</time>
      </trkpt>
      <trkpt lat="42.7147390" lon="-5.9267180">
        <ele>1039.4</ele>
        <time>2021-10-11T14:38:47Z</time>
      </trkpt>
      <trkpt lat="42.7147600" lon="-5.9267990">
        <ele>1040.0</ele>
        <time>2021-10-11T14:38:51Z</time>
      </trkpt>
      <trkpt lat="42.7147680" lon="-5.9268160">
        <ele>1040.2</ele>
        <time>2021-10-11T14:38:52Z</time>
      </trkpt>
      <trkpt lat="42.7147740" lon="-5.9268360">
        <ele>1040.2</ele>
        <time>2021-10-11T14:38:53Z</time>
      </trkpt>
      <trkpt lat="42.7147830" lon="-5.9268740">
        <ele>1040.6</ele>
        <time>2021-10-11T14:38:55Z</time>
      </trkpt>
      <trkpt lat="42.7147920" lon="-5.9269150">
        <ele>1041.0</ele>
        <time>2021-10-11T14:38:58Z</time>
      </trkpt>
      <trkpt lat="42.7148120" lon="-5.9269760">
        <ele>1041.4</ele>
        <time>2021-10-11T14:39:00Z</time>
      </trkpt>
      <trkpt lat="42.7148410" lon="-5.9270470">
        <ele>1042.0</ele>
        <time>2021-10-11T14:39:04Z</time>
      </trkpt>
      <trkpt lat="42.7148540" lon="-5.9271240">
        <ele>1042.4</ele>
        <time>2021-10-11T14:39:08Z</time>
      </trkpt>
      <trkpt lat="42.7148610" lon="-5.9271620">
        <ele>1042.6</ele>
        <time>2021-10-11T14:39:10Z</time>
      </trkpt>
      <trkpt lat="42.7148800" lon="-5.9272220">
        <ele>1043.0</ele>
        <time>2021-10-11T14:39:13Z</time>
      </trkpt>
      <trkpt lat="42.7148990" lon="-5.9272990">
        <ele>1043.4</ele>
        <time>2021-10-11T14:39:17Z</time>
      </trkpt>
      <trkpt lat="42.7149040" lon="-5.9273220">
        <ele>1043.6</ele>
        <time>2021-10-11T14:39:18Z</time>
      </trkpt>
      <trkpt lat="42.7149230" lon="-5.9274050">
        <ele>1044.0</ele>
        <time>2021-10-11T14:39:22Z</time>
      </trkpt>
      <trkpt lat="42.7149460" lon="-5.9275060">
        <ele>1044.6</ele>
        <time>2021-10-11T14:39:27Z</time>
      </trkpt>
      <trkpt lat="42.7149650" lon="-5.9276140">
        <ele>1045.4</ele>
        <time>2021-10-11T14:39:32Z</time>
      </trkpt>
      <trkpt lat="42.7149780" lon="-5.9276810">
        <ele>1045.6</ele>
        <time>2021-10-11T14:39:35Z</time>
      </trkpt>
      <trkpt lat="42.7150030" lon="-5.9278600">
        <ele>1046.6</ele>
        <time>2021-10-11T14:39:43Z</time>
      </trkpt>
      <trkpt lat="42.7150020" lon="-5.9280150">
        <ele>1047.4</ele>
        <time>2021-10-11T14:39:50Z</time>
      </trkpt>
      <trkpt lat="42.7149980" lon="-5.9281240">
        <ele>1048.0</ele>
        <time>2021-10-11T14:39:55Z</time>
      </trkpt>
      <trkpt lat="42.7149890" lon="-5.9282760">
        <ele>1048.6</ele>
        <time>2021-10-11T14:40:02Z</time>
      </trkpt>
      <trkpt lat="42.7149930" lon="-5.9283630">
        <ele>1049.0</ele>
        <time>2021-10-11T14:40:06Z</time>
      </trkpt>
      <trkpt lat="42.7149690" lon="-5.9284670">
        <ele>1049.4</ele>
        <time>2021-10-11T14:40:11Z</time>
      </trkpt>
      <trkpt lat="42.7149470" lon="-5.9285960">
        <ele>1050.0</ele>
        <time>2021-10-11T14:40:17Z</time>
      </trkpt>
      <trkpt lat="42.7149430" lon="-5.9286190">
        <ele>1050.0</ele>
        <time>2021-10-11T14:40:18Z</time>
      </trkpt>
      <trkpt lat="42.7149370" lon="-5.9286410">
        <ele>1050.2</ele>
        <time>2021-10-11T14:40:19Z</time>
      </trkpt>
      <trkpt lat="42.7149260" lon="-5.9286870">
        <ele>1050.2</ele>
        <time>2021-10-11T14:40:21Z</time>
      </trkpt>
      <trkpt lat="42.7149170" lon="-5.9287340">
        <ele>1050.4</ele>
        <time>2021-10-11T14:40:23Z</time>
      </trkpt>
      <trkpt lat="42.7149120" lon="-5.9287550">
        <ele>1050.6</ele>
        <time>2021-10-11T14:40:24Z</time>
      </trkpt>
      <trkpt lat="42.7149050" lon="-5.9288010">
        <ele>1050.8</ele>
        <time>2021-10-11T14:40:26Z</time>
      </trkpt>
      <trkpt lat="42.7149010" lon="-5.9288230">
        <ele>1050.8</ele>
        <time>2021-10-11T14:40:27Z</time>
      </trkpt>
      <trkpt lat="42.7148940" lon="-5.9288640">
        <ele>1051.0</ele>
        <time>2021-10-11T14:40:29Z</time>
      </trkpt>
      <trkpt lat="42.7148720" lon="-5.9289320">
        <ele>1051.4</ele>
        <time>2021-10-11T14:40:32Z</time>
      </trkpt>
      <trkpt lat="42.7148350" lon="-5.9290480">
        <ele>1052.0</ele>
        <time>2021-10-11T14:40:37Z</time>
      </trkpt>
      <trkpt lat="42.7148190" lon="-5.9290890">
        <ele>1052.2</ele>
        <time>2021-10-11T14:40:39Z</time>
      </trkpt>
      <trkpt lat="42.7147750" lon="-5.9291770">
        <ele>1052.6</ele>
        <time>2021-10-11T14:40:44Z</time>
      </trkpt>
      <trkpt lat="42.7147120" lon="-5.9293010">
        <ele>1053.0</ele>
        <time>2021-10-11T14:40:50Z</time>
      </trkpt>
      <trkpt lat="42.7146940" lon="-5.9293200">
        <ele>1053.2</ele>
        <time>2021-10-11T14:40:51Z</time>
      </trkpt>
      <trkpt lat="42.7146290" lon="-5.9294360">
        <ele>1053.6</ele>
        <time>2021-10-11T14:40:56Z</time>
      </trkpt>
      <trkpt lat="42.7145440" lon="-5.9295550">
        <ele>1054.0</ele>
        <time>2021-10-11T14:41:02Z</time>
      </trkpt>
      <trkpt lat="42.7145150" lon="-5.9295970">
        <ele>1054.2</ele>
        <time>2021-10-11T14:41:04Z</time>
      </trkpt>
      <trkpt lat="42.7145020" lon="-5.9296100">
        <ele>1054.2</ele>
        <time>2021-10-11T14:41:05Z</time>
      </trkpt>
      <trkpt lat="42.7143800" lon="-5.9297470">
        <ele>1054.8</ele>
        <time>2021-10-11T14:41:13Z</time>
      </trkpt>
      <trkpt lat="42.7142950" lon="-5.9298260">
        <ele>1055.2</ele>
        <time>2021-10-11T14:41:18Z</time>
      </trkpt>
      <trkpt lat="42.7142120" lon="-5.9298880">
        <ele>1055.8</ele>
        <time>2021-10-11T14:41:22Z</time>
      </trkpt>
      <trkpt lat="42.7140400" lon="-5.9299910">
        <ele>1056.4</ele>
        <time>2021-10-11T14:41:30Z</time>
      </trkpt>
      <trkpt lat="42.7139730" lon="-5.9300230">
        <ele>1056.8</ele>
        <time>2021-10-11T14:41:33Z</time>
      </trkpt>
      <trkpt lat="42.7138070" lon="-5.9300910">
        <ele>1057.4</ele>
        <time>2021-10-11T14:41:40Z</time>
      </trkpt>
      <trkpt lat="42.7137570" lon="-5.9301080">
        <ele>1057.4</ele>
        <time>2021-10-11T14:41:42Z</time>
      </trkpt>
      <trkpt lat="42.7137010" lon="-5.9301230">
        <ele>1057.6</ele>
        <time>2021-10-11T14:41:44Z</time>
      </trkpt>
      <trkpt lat="42.7136520" lon="-5.9301340">
        <ele>1058.0</ele>
        <time>2021-10-11T14:41:46Z</time>
      </trkpt>
      <trkpt lat="42.7135970" lon="-5.9301470">
        <ele>1058.2</ele>
        <time>2021-10-11T14:41:48Z</time>
      </trkpt>
      <trkpt lat="42.7135420" lon="-5.9301570">
        <ele>1058.2</ele>
        <time>2021-10-11T14:41:50Z</time>
      </trkpt>
      <trkpt lat="42.7134870" lon="-5.9301680">
        <ele>1058.4</ele>
        <time>2021-10-11T14:41:52Z</time>
      </trkpt>
      <trkpt lat="42.7133480" lon="-5.9301890">
        <ele>1058.6</ele>
        <time>2021-10-11T14:41:57Z</time>
      </trkpt>
      <trkpt lat="42.7132680" lon="-5.9302090">
        <ele>1058.6</ele>
        <time>2021-10-11T14:42:00Z</time>
      </trkpt>
      <trkpt lat="42.7130310" lon="-5.9302480">
        <ele>1059.6</ele>
        <time>2021-10-11T14:42:09Z</time>
      </trkpt>
      <trkpt lat="42.7130050" lon="-5.9302560">
        <ele>1059.8</ele>
        <time>2021-10-11T14:42:10Z</time>
      </trkpt>
      <trkpt lat="42.7127600" lon="-5.9303060">
        <ele>1060.4</ele>
        <time>2021-10-11T14:42:19Z</time>
      </trkpt>
      <trkpt lat="42.7126080" lon="-5.9303340">
        <ele>1060.8</ele>
        <time>2021-10-11T14:42:25Z</time>
      </trkpt>
      <trkpt lat="42.7125000" lon="-5.9303560">
        <ele>1061.2</ele>
        <time>2021-10-11T14:42:29Z</time>
      </trkpt>
      <trkpt lat="42.7123280" lon="-5.9303930">
        <ele>1061.6</ele>
        <time>2021-10-11T14:42:36Z</time>
      </trkpt>
      <trkpt lat="42.7121630" lon="-5.9304260">
        <ele>1062.0</ele>
        <time>2021-10-11T14:42:42Z</time>
      </trkpt>
      <trkpt lat="42.7120310" lon="-5.9304520">
        <ele>1062.2</ele>
        <time>2021-10-11T14:42:47Z</time>
      </trkpt>
      <trkpt lat="42.7117890" lon="-5.9304840">
        <ele>1062.4</ele>
        <time>2021-10-11T14:42:56Z</time>
      </trkpt>
      <trkpt lat="42.7115750" lon="-5.9305220">
        <ele>1062.6</ele>
        <time>2021-10-11T14:43:04Z</time>
      </trkpt>
      <trkpt lat="42.7114080" lon="-5.9305650">
        <ele>1063.2</ele>
        <time>2021-10-11T14:43:10Z</time>
      </trkpt>
      <trkpt lat="42.7113810" lon="-5.9305700">
        <ele>1063.2</ele>
        <time>2021-10-11T14:43:11Z</time>
      </trkpt>
      <trkpt lat="42.7111290" lon="-5.9306250">
        <ele>1064.2</ele>
        <time>2021-10-11T14:43:20Z</time>
      </trkpt>
      <trkpt lat="42.7111010" lon="-5.9306280">
        <ele>1064.2</ele>
        <time>2021-10-11T14:43:21Z</time>
      </trkpt>
      <trkpt lat="42.7110120" lon="-5.9306410">
        <ele>1064.4</ele>
        <time>2021-10-11T14:43:24Z</time>
      </trkpt>
      <trkpt lat="42.7109850" lon="-5.9306510">
        <ele>1064.6</ele>
        <time>2021-10-11T14:43:25Z</time>
      </trkpt>
      <trkpt lat="42.7108520" lon="-5.9306850">
        <ele>1064.8</ele>
        <time>2021-10-11T14:43:30Z</time>
      </trkpt>
      <trkpt lat="42.7107980" lon="-5.9306940">
        <ele>1065.0</ele>
        <time>2021-10-11T14:43:32Z</time>
      </trkpt>
      <trkpt lat="42.7107450" lon="-5.9306950">
        <ele>1065.4</ele>
        <time>2021-10-11T14:43:34Z</time>
      </trkpt>
      <trkpt lat="42.7105660" lon="-5.9306500">
        <ele>1065.8</ele>
        <time>2021-10-11T14:43:41Z</time>
      </trkpt>
      <trkpt lat="42.7104010" lon="-5.9305250">
        <ele>1066.4</ele>
        <time>2021-10-11T14:43:48Z</time>
      </trkpt>
      <trkpt lat="42.7103830" lon="-5.9304980">
        <ele>1066.4</ele>
        <time>2021-10-11T14:43:49Z</time>
      </trkpt>
      <trkpt lat="42.7102900" lon="-5.9303280">
        <ele>1067.2</ele>
        <time>2021-10-11T14:43:55Z</time>
      </trkpt>
      <trkpt lat="42.7102660" lon="-5.9302400">
        <ele>1067.4</ele>
        <time>2021-10-11T14:43:58Z</time>
      </trkpt>
      <trkpt lat="42.7102490" lon="-5.9300910">
        <ele>1067.8</ele>
        <time>2021-10-11T14:44:02Z</time>
      </trkpt>
      <trkpt lat="42.7102670" lon="-5.9298420">
        <ele>1068.4</ele>
        <time>2021-10-11T14:44:09Z</time>
      </trkpt>
      <trkpt lat="42.7102750" lon="-5.9297700">
        <ele>1068.6</ele>
        <time>2021-10-11T14:44:11Z</time>
      </trkpt>
      <trkpt lat="42.7102780" lon="-5.9296640">
        <ele>1069.2</ele>
        <time>2021-10-11T14:44:14Z</time>
      </trkpt>
      <trkpt lat="42.7102760" lon="-5.9295630">
        <ele>1069.4</ele>
        <time>2021-10-11T14:44:17Z</time>
      </trkpt>
      <trkpt lat="42.7102740" lon="-5.9295300">
        <ele>1069.6</ele>
        <time>2021-10-11T14:44:18Z</time>
      </trkpt>
      <trkpt lat="42.7102560" lon="-5.9294400">
        <ele>1069.8</ele>
        <time>2021-10-11T14:44:21Z</time>
      </trkpt>
      <trkpt lat="42.7102390" lon="-5.9293830">
        <ele>1070.0</ele>
        <time>2021-10-11T14:44:23Z</time>
      </trkpt>
      <trkpt lat="42.7102050" lon="-5.9293090">
        <ele>1070.6</ele>
        <time>2021-10-11T14:44:26Z</time>
      </trkpt>
      <trkpt lat="42.7101920" lon="-5.9292860">
        <ele>1070.8</ele>
        <time>2021-10-11T14:44:27Z</time>
      </trkpt>
      <trkpt lat="42.7101460" lon="-5.9292310">
        <ele>1071.2</ele>
        <time>2021-10-11T14:44:30Z</time>
      </trkpt>
      <trkpt lat="42.7100490" lon="-5.9291440">
        <ele>1072.0</ele>
        <time>2021-10-11T14:44:36Z</time>
      </trkpt>
      <trkpt lat="42.7100120" lon="-5.9291160">
        <ele>1072.4</ele>
        <time>2021-10-11T14:44:38Z</time>
      </trkpt>
      <trkpt lat="42.7098930" lon="-5.9290080">
        <ele>1073.2</ele>
        <time>2021-10-11T14:44:45Z</time>
      </trkpt>
      <trkpt lat="42.7098610" lon="-5.9289700">
        <ele>1073.4</ele>
        <time>2021-10-11T14:44:47Z</time>
      </trkpt>
      <trkpt lat="42.7097970" lon="-5.9288500">
        <ele>1074.2</ele>
        <time>2021-10-11T14:44:52Z</time>
      </trkpt>
      <trkpt lat="42.7097760" lon="-5.9287650">
        <ele>1074.4</ele>
        <time>2021-10-11T14:44:55Z</time>
      </trkpt>
      <trkpt lat="42.7097900" lon="-5.9285320">
        <ele>1075.2</ele>
        <time>2021-10-11T14:45:02Z</time>
      </trkpt>
      <trkpt lat="42.7097930" lon="-5.9284980">
        <ele>1075.4</ele>
        <time>2021-10-11T14:45:03Z</time>
      </trkpt>
      <trkpt lat="42.7098370" lon="-5.9281910">
        <ele>1075.6</ele>
        <time>2021-10-11T14:45:12Z</time>
      </trkpt>
      <trkpt lat="42.7098280" lon="-5.9279060">
        <ele>1076.2</ele>
        <time>2021-10-11T14:45:20Z</time>
      </trkpt>
      <trkpt lat="42.7098090" lon="-5.9278350">
        <ele>1076.2</ele>
        <time>2021-10-11T14:45:22Z</time>
      </trkpt>
      <trkpt lat="42.7097310" lon="-5.9276810">
        <ele>1076.6</ele>
        <time>2021-10-11T14:45:27Z</time>
      </trkpt>
      <trkpt lat="42.7095920" lon="-5.9275670">
        <ele>1077.2</ele>
        <time>2021-10-11T14:45:33Z</time>
      </trkpt>
      <trkpt lat="42.7095640" lon="-5.9275490">
        <ele>1077.4</ele>
        <time>2021-10-11T14:45:34Z</time>
      </trkpt>
      <trkpt lat="42.7093440" lon="-5.9274540">
        <ele>1078.0</ele>
        <time>2021-10-11T14:45:43Z</time>
      </trkpt>
      <trkpt lat="42.7092440" lon="-5.9274190">
        <ele>1078.4</ele>
        <time>2021-10-11T14:45:47Z</time>
      </trkpt>
      <trkpt lat="42.7091200" lon="-5.9273790">
        <ele>1078.8</ele>
        <time>2021-10-11T14:45:52Z</time>
      </trkpt>
      <trkpt lat="42.7089460" lon="-5.9273170">
        <ele>1079.2</ele>
        <time>2021-10-11T14:45:59Z</time>
      </trkpt>
      <trkpt lat="42.7088780" lon="-5.9273000">
        <ele>1079.4</ele>
        <time>2021-10-11T14:46:02Z</time>
      </trkpt>
      <trkpt lat="42.7087430" lon="-5.9272740">
        <ele>1080.0</ele>
        <time>2021-10-11T14:46:08Z</time>
      </trkpt>
      <trkpt lat="42.7086760" lon="-5.9272630">
        <ele>1080.4</ele>
        <time>2021-10-11T14:46:11Z</time>
      </trkpt>
      <trkpt lat="42.7085240" lon="-5.9272530">
        <ele>1081.4</ele>
        <time>2021-10-11T14:46:18Z</time>
      </trkpt>
      <trkpt lat="42.7084620" lon="-5.9272560">
        <ele>1081.6</ele>
        <time>2021-10-11T14:46:21Z</time>
      </trkpt>
      <trkpt lat="42.7083020" lon="-5.9272810">
        <ele>1082.2</ele>
        <time>2021-10-11T14:46:28Z</time>
      </trkpt>
      <trkpt lat="42.7082200" lon="-5.9273050">
        <ele>1082.6</ele>
        <time>2021-10-11T14:46:32Z</time>
      </trkpt>
      <trkpt lat="42.7080520" lon="-5.9273790">
        <ele>1083.2</ele>
        <time>2021-10-11T14:46:41Z</time>
      </trkpt>
      <trkpt lat="42.7079540" lon="-5.9274350">
        <ele>1083.6</ele>
        <time>2021-10-11T14:46:46Z</time>
      </trkpt>
      <trkpt lat="42.7078780" lon="-5.9274710">
        <ele>1084.0</ele>
        <time>2021-10-11T14:46:50Z</time>
      </trkpt>
      <trkpt lat="42.7077830" lon="-5.9275210">
        <ele>1084.6</ele>
        <time>2021-10-11T14:46:56Z</time>
      </trkpt>
      <trkpt lat="42.7077420" lon="-5.9275360">
        <ele>1084.8</ele>
        <time>2021-10-11T14:46:58Z</time>
      </trkpt>
      <trkpt lat="42.7076640" lon="-5.9275680">
        <ele>1085.8</ele>
        <time>2021-10-11T14:47:02Z</time>
      </trkpt>
      <trkpt lat="42.7076420" lon="-5.9275770">
        <ele>1086.0</ele>
        <time>2021-10-11T14:47:03Z</time>
      </trkpt>
      <trkpt lat="42.7076230" lon="-5.9275840">
        <ele>1086.0</ele>
        <time>2021-10-11T14:47:04Z</time>
      </trkpt>
      <trkpt lat="42.7075820" lon="-5.9275970">
        <ele>1086.4</ele>
        <time>2021-10-11T14:47:06Z</time>
      </trkpt>
      <trkpt lat="42.7074800" lon="-5.9276400">
        <ele>1086.8</ele>
        <time>2021-10-11T14:47:11Z</time>
      </trkpt>
      <trkpt lat="42.7074610" lon="-5.9276490">
        <ele>1086.8</ele>
        <time>2021-10-11T14:47:12Z</time>
      </trkpt>
      <trkpt lat="42.7074410" lon="-5.9276590">
        <ele>1087.0</ele>
        <time>2021-10-11T14:47:13Z</time>
      </trkpt>
      <trkpt lat="42.7074060" lon="-5.9276790">
        <ele>1087.2</ele>
        <time>2021-10-11T14:47:15Z</time>
      </trkpt>
      <trkpt lat="42.7072950" lon="-5.9277300">
        <ele>1087.8</ele>
        <time>2021-10-11T14:47:21Z</time>
      </trkpt>
      <trkpt lat="42.7072760" lon="-5.9277350">
        <ele>1088.0</ele>
        <time>2021-10-11T14:47:22Z</time>
      </trkpt>
      <trkpt lat="42.7072410" lon="-5.9277530">
        <ele>1088.2</ele>
        <time>2021-10-11T14:47:24Z</time>
      </trkpt>
      <trkpt lat="42.7071790" lon="-5.9277740">
        <ele>1088.6</ele>
        <time>2021-10-11T14:47:27Z</time>
      </trkpt>
      <trkpt lat="42.7071100" lon="-5.9277980">
        <ele>1089.2</ele>
        <time>2021-10-11T14:47:31Z</time>
      </trkpt>
      <trkpt lat="42.7070740" lon="-5.9278060">
        <ele>1090.0</ele>
        <time>2021-10-11T14:47:33Z</time>
      </trkpt>
      <trkpt lat="42.7070560" lon="-5.9278100">
        <ele>1090.2</ele>
        <time>2021-10-11T14:47:34Z</time>
      </trkpt>
      <trkpt lat="42.7070400" lon="-5.9278170">
        <ele>1090.4</ele>
        <time>2021-10-11T14:47:35Z</time>
      </trkpt>
      <trkpt lat="42.7070210" lon="-5.9278210">
        <ele>1090.4</ele>
        <time>2021-10-11T14:47:36Z</time>
      </trkpt>
      <trkpt lat="42.7070060" lon="-5.9278240">
        <ele>1090.6</ele>
        <time>2021-10-11T14:47:37Z</time>
      </trkpt>
      <trkpt lat="42.7069610" lon="-5.9278290">
        <ele>1090.8</ele>
        <time>2021-10-11T14:47:39Z</time>
      </trkpt>
      <trkpt lat="42.7069280" lon="-5.9278300">
        <ele>1091.0</ele>
        <time>2021-10-11T14:47:41Z</time>
      </trkpt>
      <trkpt lat="42.7068910" lon="-5.9278290">
        <ele>1091.0</ele>
        <time>2021-10-11T14:47:43Z</time>
      </trkpt>
      <trkpt lat="42.7068300" lon="-5.9278150">
        <ele>1091.6</ele>
        <time>2021-10-11T14:47:46Z</time>
      </trkpt>
      <trkpt lat="42.7068150" lon="-5.9278060">
        <ele>1091.8</ele>
        <time>2021-10-11T14:47:47Z</time>
      </trkpt>
      <trkpt lat="42.7067960" lon="-5.9277940">
        <ele>1091.8</ele>
        <time>2021-10-11T14:47:48Z</time>
      </trkpt>
      <trkpt lat="42.7067700" lon="-5.9277790">
        <ele>1092.0</ele>
        <time>2021-10-11T14:47:49Z</time>
      </trkpt>
      <trkpt lat="42.7067510" lon="-5.9277690">
        <ele>1092.2</ele>
        <time>2021-10-11T14:47:50Z</time>
      </trkpt>
      <trkpt lat="42.7066470" lon="-5.9276730">
        <ele>1093.0</ele>
        <time>2021-10-11T14:47:57Z</time>
      </trkpt>
      <trkpt lat="42.7066370" lon="-5.9276550">
        <ele>1093.2</ele>
        <time>2021-10-11T14:47:58Z</time>
      </trkpt>
      <trkpt lat="42.7066180" lon="-5.9275990">
        <ele>1093.8</ele>
        <time>2021-10-11T14:48:01Z</time>
      </trkpt>
      <trkpt lat="42.7066090" lon="-5.9275270">
        <ele>1094.6</ele>
        <time>2021-10-11T14:48:04Z</time>
      </trkpt>
      <trkpt lat="42.7065990" lon="-5.9273450">
        <ele>1095.6</ele>
        <time>2021-10-11T14:48:11Z</time>
      </trkpt>
      <trkpt lat="42.7066030" lon="-5.9272280">
        <ele>1096.4</ele>
        <time>2021-10-11T14:48:16Z</time>
      </trkpt>
      <trkpt lat="42.7066050" lon="-5.9271820">
        <ele>1096.8</ele>
        <time>2021-10-11T14:48:18Z</time>
      </trkpt>
      <trkpt lat="42.7066070" lon="-5.9271340">
        <ele>1097.0</ele>
        <time>2021-10-11T14:48:20Z</time>
      </trkpt>
      <trkpt lat="42.7066100" lon="-5.9270890">
        <ele>1097.0</ele>
        <time>2021-10-11T14:48:22Z</time>
      </trkpt>
      <trkpt lat="42.7066090" lon="-5.9269510">
        <ele>1097.6</ele>
        <time>2021-10-11T14:48:28Z</time>
      </trkpt>
      <trkpt lat="42.7066090" lon="-5.9269300">
        <ele>1097.8</ele>
        <time>2021-10-11T14:48:29Z</time>
      </trkpt>
      <trkpt lat="42.7066150" lon="-5.9267960">
        <ele>1098.2</ele>
        <time>2021-10-11T14:48:35Z</time>
      </trkpt>
      <trkpt lat="42.7066220" lon="-5.9266740">
        <ele>1099.0</ele>
        <time>2021-10-11T14:48:40Z</time>
      </trkpt>
      <trkpt lat="42.7066250" lon="-5.9266090">
        <ele>1099.2</ele>
        <time>2021-10-11T14:48:43Z</time>
      </trkpt>
      <trkpt lat="42.7066280" lon="-5.9265400">
        <ele>1100.0</ele>
        <time>2021-10-11T14:48:46Z</time>
      </trkpt>
      <trkpt lat="42.7066460" lon="-5.9264480">
        <ele>1100.6</ele>
        <time>2021-10-11T14:48:50Z</time>
      </trkpt>
      <trkpt lat="42.7066580" lon="-5.9263370">
        <ele>1101.2</ele>
        <time>2021-10-11T14:48:55Z</time>
      </trkpt>
      <trkpt lat="42.7066600" lon="-5.9262940">
        <ele>1101.4</ele>
        <time>2021-10-11T14:48:57Z</time>
      </trkpt>
      <trkpt lat="42.7066570" lon="-5.9261430">
        <ele>1102.2</ele>
        <time>2021-10-11T14:49:05Z</time>
      </trkpt>
      <trkpt lat="42.7066550" lon="-5.9261040">
        <ele>1102.8</ele>
        <time>2021-10-11T14:49:07Z</time>
      </trkpt>
      <trkpt lat="42.7066440" lon="-5.9260360">
        <ele>1103.4</ele>
        <time>2021-10-11T14:49:10Z</time>
      </trkpt>
      <trkpt lat="42.7066210" lon="-5.9259250">
        <ele>1104.0</ele>
        <time>2021-10-11T14:49:15Z</time>
      </trkpt>
      <trkpt lat="42.7066140" lon="-5.9259040">
        <ele>1104.2</ele>
        <time>2021-10-11T14:49:16Z</time>
      </trkpt>
      <trkpt lat="42.7066080" lon="-5.9258830">
        <ele>1104.4</ele>
        <time>2021-10-11T14:49:17Z</time>
      </trkpt>
      <trkpt lat="42.7065710" lon="-5.9257870">
        <ele>1105.4</ele>
        <time>2021-10-11T14:49:22Z</time>
      </trkpt>
      <trkpt lat="42.7065600" lon="-5.9257600">
        <ele>1105.4</ele>
        <time>2021-10-11T14:49:23Z</time>
      </trkpt>
      <trkpt lat="42.7065530" lon="-5.9257440">
        <ele>1105.8</ele>
        <time>2021-10-11T14:49:24Z</time>
      </trkpt>
      <trkpt lat="42.7065160" lon="-5.9256900">
        <ele>1106.0</ele>
        <time>2021-10-11T14:49:27Z</time>
      </trkpt>
      <trkpt lat="42.7064140" lon="-5.9255470">
        <ele>1106.8</ele>
        <time>2021-10-11T14:49:35Z</time>
      </trkpt>
      <trkpt lat="42.7064010" lon="-5.9255350">
        <ele>1107.0</ele>
        <time>2021-10-11T14:49:36Z</time>
      </trkpt>
      <trkpt lat="42.7062830" lon="-5.9254590">
        <ele>1107.6</ele>
        <time>2021-10-11T14:49:43Z</time>
      </trkpt>
      <trkpt lat="42.7062350" lon="-5.9254390">
        <ele>1108.0</ele>
        <time>2021-10-11T14:49:46Z</time>
      </trkpt>
      <trkpt lat="42.7061470" lon="-5.9254280">
        <ele>1108.6</ele>
        <time>2021-10-11T14:49:51Z</time>
      </trkpt>
      <trkpt lat="42.7061070" lon="-5.9254220">
        <ele>1108.8</ele>
        <time>2021-10-11T14:49:53Z</time>
      </trkpt>
      <trkpt lat="42.7060540" lon="-5.9254280">
        <ele>1109.0</ele>
        <time>2021-10-11T14:49:56Z</time>
      </trkpt>
      <trkpt lat="42.7059950" lon="-5.9254370">
        <ele>1109.2</ele>
        <time>2021-10-11T14:49:59Z</time>
      </trkpt>
      <trkpt lat="42.7059450" lon="-5.9254450">
        <ele>1109.4</ele>
        <time>2021-10-11T14:50:02Z</time>
      </trkpt>
      <trkpt lat="42.7057910" lon="-5.9255110">
        <ele>1109.4</ele>
        <time>2021-10-11T14:50:10Z</time>
      </trkpt>
      <trkpt lat="42.7057710" lon="-5.9255130">
        <ele>1109.4</ele>
        <time>2021-10-11T14:50:11Z</time>
      </trkpt>
      <trkpt lat="42.7056040" lon="-5.9255560">
        <ele>1109.8</ele>
        <time>2021-10-11T14:50:20Z</time>
      </trkpt>
      <trkpt lat="42.7055090" lon="-5.9255570">
        <ele>1110.2</ele>
        <time>2021-10-11T14:50:24Z</time>
      </trkpt>
      <trkpt lat="42.7054050" lon="-5.9255190">
        <ele>1110.6</ele>
        <time>2021-10-11T14:50:28Z</time>
      </trkpt>
      <trkpt lat="42.7052470" lon="-5.9253840">
        <ele>1111.0</ele>
        <time>2021-10-11T14:50:35Z</time>
      </trkpt>
      <trkpt lat="42.7052120" lon="-5.9253460">
        <ele>1111.2</ele>
        <time>2021-10-11T14:50:37Z</time>
      </trkpt>
      <trkpt lat="42.7051530" lon="-5.9252160">
        <ele>1111.4</ele>
        <time>2021-10-11T14:50:41Z</time>
      </trkpt>
      <trkpt lat="42.7051310" lon="-5.9251060">
        <ele>1111.4</ele>
        <time>2021-10-11T14:50:44Z</time>
      </trkpt>
      <trkpt lat="42.7051310" lon="-5.9250640">
        <ele>1111.4</ele>
        <time>2021-10-11T14:50:45Z</time>
      </trkpt>
      <trkpt lat="42.7051300" lon="-5.9250230">
        <ele>1111.8</ele>
        <time>2021-10-11T14:50:46Z</time>
      </trkpt>
      <trkpt lat="42.7051260" lon="-5.9249430">
        <ele>1112.0</ele>
        <time>2021-10-11T14:50:48Z</time>
      </trkpt>
      <trkpt lat="42.7051260" lon="-5.9248640">
        <ele>1112.2</ele>
        <time>2021-10-11T14:50:50Z</time>
      </trkpt>
      <trkpt lat="42.7050990" lon="-5.9246360">
        <ele>1113.2</ele>
        <time>2021-10-11T14:50:56Z</time>
      </trkpt>
      <trkpt lat="42.7050910" lon="-5.9246010">
        <ele>1113.2</ele>
        <time>2021-10-11T14:50:57Z</time>
      </trkpt>
      <trkpt lat="42.7050760" lon="-5.9245020">
        <ele>1113.8</ele>
        <time>2021-10-11T14:51:00Z</time>
      </trkpt>
      <trkpt lat="42.7050710" lon="-5.9244720">
        <ele>1113.8</ele>
        <time>2021-10-11T14:51:01Z</time>
      </trkpt>
      <trkpt lat="42.7050640" lon="-5.9244430">
        <ele>1114.0</ele>
        <time>2021-10-11T14:51:02Z</time>
      </trkpt>
      <trkpt lat="42.7050500" lon="-5.9243930">
        <ele>1114.2</ele>
        <time>2021-10-11T14:51:04Z</time>
      </trkpt>
      <trkpt lat="42.7050440" lon="-5.9243640">
        <ele>1114.4</ele>
        <time>2021-10-11T14:51:05Z</time>
      </trkpt>
      <trkpt lat="42.7050230" lon="-5.9242800">
        <ele>1114.8</ele>
        <time>2021-10-11T14:51:08Z</time>
      </trkpt>
      <trkpt lat="42.7049910" lon="-5.9241940">
        <ele>1115.2</ele>
        <time>2021-10-11T14:51:11Z</time>
      </trkpt>
      <trkpt lat="42.7049810" lon="-5.9241680">
        <ele>1115.4</ele>
        <time>2021-10-11T14:51:12Z</time>
      </trkpt>
      <trkpt lat="42.7049220" lon="-5.9240190">
        <ele>1116.4</ele>
        <time>2021-10-11T14:51:18Z</time>
      </trkpt>
      <trkpt lat="42.7049000" lon="-5.9239860">
        <ele>1116.8</ele>
        <time>2021-10-11T14:51:20Z</time>
      </trkpt>
      <trkpt lat="42.7048550" lon="-5.9239030">
        <ele>1117.6</ele>
        <time>2021-10-11T14:51:24Z</time>
      </trkpt>
      <trkpt lat="42.7047970" lon="-5.9238270">
        <ele>1118.2</ele>
        <time>2021-10-11T14:51:29Z</time>
      </trkpt>
      <trkpt lat="42.7047730" lon="-5.9237960">
        <ele>1118.6</ele>
        <time>2021-10-11T14:51:31Z</time>
      </trkpt>
      <trkpt lat="42.7047600" lon="-5.9237800">
        <ele>1118.6</ele>
        <time>2021-10-11T14:51:32Z</time>
      </trkpt>
      <trkpt lat="42.7047410" lon="-5.9237650">
        <ele>1119.0</ele>
        <time>2021-10-11T14:51:33Z</time>
      </trkpt>
      <trkpt lat="42.7047110" lon="-5.9237410">
        <ele>1119.2</ele>
        <time>2021-10-11T14:51:35Z</time>
      </trkpt>
      <trkpt lat="42.7046670" lon="-5.9237120">
        <ele>1119.6</ele>
        <time>2021-10-11T14:51:38Z</time>
      </trkpt>
      <trkpt lat="42.7046520" lon="-5.9237010">
        <ele>1119.6</ele>
        <time>2021-10-11T14:51:39Z</time>
      </trkpt>
      <trkpt lat="42.7046110" lon="-5.9236680">
        <ele>1120.0</ele>
        <time>2021-10-11T14:51:42Z</time>
      </trkpt>
      <trkpt lat="42.7045810" lon="-5.9236520">
        <ele>1120.2</ele>
        <time>2021-10-11T14:51:44Z</time>
      </trkpt>
      <trkpt lat="42.7045660" lon="-5.9236420">
        <ele>1120.2</ele>
        <time>2021-10-11T14:51:45Z</time>
      </trkpt>
      <trkpt lat="42.7044930" lon="-5.9235910">
        <ele>1120.8</ele>
        <time>2021-10-11T14:51:50Z</time>
      </trkpt>
      <trkpt lat="42.7044780" lon="-5.9235840">
        <ele>1120.8</ele>
        <time>2021-10-11T14:51:51Z</time>
      </trkpt>
      <trkpt lat="42.7044600" lon="-5.9235770">
        <ele>1121.0</ele>
        <time>2021-10-11T14:51:52Z</time>
      </trkpt>
      <trkpt lat="42.7044440" lon="-5.9235700">
        <ele>1121.2</ele>
        <time>2021-10-11T14:51:53Z</time>
      </trkpt>
      <trkpt lat="42.7044290" lon="-5.9235620">
        <ele>1121.4</ele>
        <time>2021-10-11T14:51:54Z</time>
      </trkpt>
      <trkpt lat="42.7043980" lon="-5.9235500">
        <ele>1121.6</ele>
        <time>2021-10-11T14:51:56Z</time>
      </trkpt>
      <trkpt lat="42.7043830" lon="-5.9235440">
        <ele>1121.8</ele>
        <time>2021-10-11T14:51:57Z</time>
      </trkpt>
      <trkpt lat="42.7043580" lon="-5.9235300">
        <ele>1122.0</ele>
        <time>2021-10-11T14:51:59Z</time>
      </trkpt>
      <trkpt lat="42.7043180" lon="-5.9235210">
        <ele>1122.2</ele>
        <time>2021-10-11T14:52:02Z</time>
      </trkpt>
      <trkpt lat="42.7042880" lon="-5.9235110">
        <ele>1122.2</ele>
        <time>2021-10-11T14:52:04Z</time>
      </trkpt>
      <trkpt lat="42.7042730" lon="-5.9235050">
        <ele>1122.2</ele>
        <time>2021-10-11T14:52:05Z</time>
      </trkpt>
      <trkpt lat="42.7042440" lon="-5.9235000">
        <ele>1122.4</ele>
        <time>2021-10-11T14:52:07Z</time>
      </trkpt>
      <trkpt lat="42.7042160" lon="-5.9234960">
        <ele>1122.4</ele>
        <time>2021-10-11T14:52:09Z</time>
      </trkpt>
      <trkpt lat="42.7041900" lon="-5.9234980">
        <ele>1122.6</ele>
        <time>2021-10-11T14:52:11Z</time>
      </trkpt>
      <trkpt lat="42.7041440" lon="-5.9235060">
        <ele>1122.8</ele>
        <time>2021-10-11T14:52:14Z</time>
      </trkpt>
      <trkpt lat="42.7040860" lon="-5.9235040">
        <ele>1123.4</ele>
        <time>2021-10-11T14:52:18Z</time>
      </trkpt>
      <trkpt lat="42.7040560" lon="-5.9235010">
        <ele>1123.8</ele>
        <time>2021-10-11T14:52:20Z</time>
      </trkpt>
      <trkpt lat="42.7040430" lon="-5.9235000">
        <ele>1124.0</ele>
        <time>2021-10-11T14:52:21Z</time>
      </trkpt>
      <trkpt lat="42.7039980" lon="-5.9235060">
        <ele>1124.2</ele>
        <time>2021-10-11T14:52:24Z</time>
      </trkpt>
      <trkpt lat="42.7039830" lon="-5.9235090">
        <ele>1124.4</ele>
        <time>2021-10-11T14:52:25Z</time>
      </trkpt>
      <trkpt lat="42.7039680" lon="-5.9235140">
        <ele>1124.4</ele>
        <time>2021-10-11T14:52:26Z</time>
      </trkpt>
      <trkpt lat="42.7039360" lon="-5.9235280">
        <ele>1124.6</ele>
        <time>2021-10-11T14:52:28Z</time>
      </trkpt>
      <trkpt lat="42.7039090" lon="-5.9235380">
        <ele>1125.0</ele>
        <time>2021-10-11T14:52:30Z</time>
      </trkpt>
      <trkpt lat="42.7038650" lon="-5.9235520">
        <ele>1125.4</ele>
        <time>2021-10-11T14:52:33Z</time>
      </trkpt>
      <trkpt lat="42.7038380" lon="-5.9235630">
        <ele>1125.6</ele>
        <time>2021-10-11T14:52:35Z</time>
      </trkpt>
      <trkpt lat="42.7037960" lon="-5.9235810">
        <ele>1126.2</ele>
        <time>2021-10-11T14:52:38Z</time>
      </trkpt>
      <trkpt lat="42.7037220" lon="-5.9236140">
        <ele>1127.2</ele>
        <time>2021-10-11T14:52:43Z</time>
      </trkpt>
      <trkpt lat="42.7036820" lon="-5.9236380">
        <ele>1127.2</ele>
        <time>2021-10-11T14:52:46Z</time>
      </trkpt>
      <trkpt lat="42.7036700" lon="-5.9236460">
        <ele>1127.2</ele>
        <time>2021-10-11T14:52:47Z</time>
      </trkpt>
      <trkpt lat="42.7036260" lon="-5.9236610">
        <ele>1127.4</ele>
        <time>2021-10-11T14:52:50Z</time>
      </trkpt>
      <trkpt lat="42.7034910" lon="-5.9236840">
        <ele>1128.2</ele>
        <time>2021-10-11T14:52:58Z</time>
      </trkpt>
      <trkpt lat="42.7034750" lon="-5.9236860">
        <ele>1128.4</ele>
        <time>2021-10-11T14:52:59Z</time>
      </trkpt>
      <trkpt lat="42.7034560" lon="-5.9236870">
        <ele>1128.4</ele>
        <time>2021-10-11T14:53:00Z</time>
      </trkpt>
      <trkpt lat="42.7034190" lon="-5.9236920">
        <ele>1128.4</ele>
        <time>2021-10-11T14:53:02Z</time>
      </trkpt>
      <trkpt lat="42.7034020" lon="-5.9236900">
        <ele>1128.6</ele>
        <time>2021-10-11T14:53:03Z</time>
      </trkpt>
      <trkpt lat="42.7033660" lon="-5.9236710">
        <ele>1128.6</ele>
        <time>2021-10-11T14:53:05Z</time>
      </trkpt>
      <trkpt lat="42.7033200" lon="-5.9236460">
        <ele>1129.0</ele>
        <time>2021-10-11T14:53:08Z</time>
      </trkpt>
      <trkpt lat="42.7033030" lon="-5.9236290">
        <ele>1129.2</ele>
        <time>2021-10-11T14:53:09Z</time>
      </trkpt>
      <trkpt lat="42.7032690" lon="-5.9235880">
        <ele>1129.6</ele>
        <time>2021-10-11T14:53:11Z</time>
      </trkpt>
      <trkpt lat="42.7032150" lon="-5.9235200">
        <ele>1130.2</ele>
        <time>2021-10-11T14:53:15Z</time>
      </trkpt>
      <trkpt lat="42.7031820" lon="-5.9234770">
        <ele>1130.4</ele>
        <time>2021-10-11T14:53:18Z</time>
      </trkpt>
      <trkpt lat="42.7031350" lon="-5.9232810">
        <ele>1131.0</ele>
        <time>2021-10-11T14:53:25Z</time>
      </trkpt>
      <trkpt lat="42.7031320" lon="-5.9231890">
        <ele>1131.2</ele>
        <time>2021-10-11T14:53:28Z</time>
      </trkpt>
      <trkpt lat="42.7031430" lon="-5.9230440">
        <ele>1131.6</ele>
        <time>2021-10-11T14:53:33Z</time>
      </trkpt>
      <trkpt lat="42.7031600" lon="-5.9228670">
        <ele>1132.2</ele>
        <time>2021-10-11T14:53:39Z</time>
      </trkpt>
      <trkpt lat="42.7031630" lon="-5.9228370">
        <ele>1132.4</ele>
        <time>2021-10-11T14:53:40Z</time>
      </trkpt>
      <trkpt lat="42.7031780" lon="-5.9226060">
        <ele>1133.2</ele>
        <time>2021-10-11T14:53:48Z</time>
      </trkpt>
      <trkpt lat="42.7031800" lon="-5.9225500">
        <ele>1133.4</ele>
        <time>2021-10-11T14:53:50Z</time>
      </trkpt>
      <trkpt lat="42.7031820" lon="-5.9225250">
        <ele>1133.4</ele>
        <time>2021-10-11T14:53:51Z</time>
      </trkpt>
      <trkpt lat="42.7031870" lon="-5.9224230">
        <ele>1133.8</ele>
        <time>2021-10-11T14:53:55Z</time>
      </trkpt>
      <trkpt lat="42.7031910" lon="-5.9223660">
        <ele>1134.2</ele>
        <time>2021-10-11T14:53:57Z</time>
      </trkpt>
      <trkpt lat="42.7031910" lon="-5.9222860">
        <ele>1134.4</ele>
        <time>2021-10-11T14:54:00Z</time>
      </trkpt>
      <trkpt lat="42.7031880" lon="-5.9222610">
        <ele>1134.6</ele>
        <time>2021-10-11T14:54:01Z</time>
      </trkpt>
      <trkpt lat="42.7031630" lon="-5.9221580">
        <ele>1135.0</ele>
        <time>2021-10-11T14:54:05Z</time>
      </trkpt>
      <trkpt lat="42.7031020" lon="-5.9220170">
        <ele>1135.6</ele>
        <time>2021-10-11T14:54:11Z</time>
      </trkpt>
      <trkpt lat="42.7030790" lon="-5.9219760">
        <ele>1136.0</ele>
        <time>2021-10-11T14:54:13Z</time>
      </trkpt>
      <trkpt lat="42.7030650" lon="-5.9219570">
        <ele>1136.0</ele>
        <time>2021-10-11T14:54:14Z</time>
      </trkpt>
      <trkpt lat="42.7030340" lon="-5.9219270">
        <ele>1136.4</ele>
        <time>2021-10-11T14:54:16Z</time>
      </trkpt>
      <trkpt lat="42.7029900" lon="-5.9218930">
        <ele>1136.8</ele>
        <time>2021-10-11T14:54:19Z</time>
      </trkpt>
      <trkpt lat="42.7029550" lon="-5.9218800">
        <ele>1137.0</ele>
        <time>2021-10-11T14:54:21Z</time>
      </trkpt>
      <trkpt lat="42.7029230" lon="-5.9218660">
        <ele>1137.2</ele>
        <time>2021-10-11T14:54:23Z</time>
      </trkpt>
      <trkpt lat="42.7028720" lon="-5.9218490">
        <ele>1137.6</ele>
        <time>2021-10-11T14:54:26Z</time>
      </trkpt>
      <trkpt lat="42.7028540" lon="-5.9218480">
        <ele>1137.8</ele>
        <time>2021-10-11T14:54:27Z</time>
      </trkpt>
      <trkpt lat="42.7028050" lon="-5.9218440">
        <ele>1138.2</ele>
        <time>2021-10-11T14:54:30Z</time>
      </trkpt>
      <trkpt lat="42.7027050" lon="-5.9218380">
        <ele>1138.8</ele>
        <time>2021-10-11T14:54:37Z</time>
      </trkpt>
      <trkpt lat="42.7026920" lon="-5.9218310">
        <ele>1138.8</ele>
        <time>2021-10-11T14:54:38Z</time>
      </trkpt>
      <trkpt lat="42.7026780" lon="-5.9218270">
        <ele>1139.0</ele>
        <time>2021-10-11T14:54:39Z</time>
      </trkpt>
      <trkpt lat="42.7026240" lon="-5.9218080">
        <ele>1139.6</ele>
        <time>2021-10-11T14:54:43Z</time>
      </trkpt>
      <trkpt lat="42.7025990" lon="-5.9217920">
        <ele>1139.8</ele>
        <time>2021-10-11T14:54:45Z</time>
      </trkpt>
      <trkpt lat="42.7025860" lon="-5.9217840">
        <ele>1140.0</ele>
        <time>2021-10-11T14:54:46Z</time>
      </trkpt>
      <trkpt lat="42.7025400" lon="-5.9217460">
        <ele>1140.6</ele>
        <time>2021-10-11T14:54:50Z</time>
      </trkpt>
      <trkpt lat="42.7025300" lon="-5.9217330">
        <ele>1140.6</ele>
        <time>2021-10-11T14:54:51Z</time>
      </trkpt>
      <trkpt lat="42.7025100" lon="-5.9217050">
        <ele>1140.8</ele>
        <time>2021-10-11T14:54:53Z</time>
      </trkpt>
      <trkpt lat="42.7025000" lon="-5.9216890">
        <ele>1141.0</ele>
        <time>2021-10-11T14:54:54Z</time>
      </trkpt>
      <trkpt lat="42.7024910" lon="-5.9216690">
        <ele>1141.2</ele>
        <time>2021-10-11T14:54:55Z</time>
      </trkpt>
      <trkpt lat="42.7024780" lon="-5.9216500">
        <ele>1141.4</ele>
        <time>2021-10-11T14:54:56Z</time>
      </trkpt>
      <trkpt lat="42.7024590" lon="-5.9216100">
        <ele>1141.6</ele>
        <time>2021-10-11T14:54:58Z</time>
      </trkpt>
      <trkpt lat="42.7024440" lon="-5.9215470">
        <ele>1141.8</ele>
        <time>2021-10-11T14:55:01Z</time>
      </trkpt>
      <trkpt lat="42.7024390" lon="-5.9215280">
        <ele>1141.8</ele>
        <time>2021-10-11T14:55:02Z</time>
      </trkpt>
      <trkpt lat="42.7024330" lon="-5.9214680">
        <ele>1142.0</ele>
        <time>2021-10-11T14:55:05Z</time>
      </trkpt>
      <trkpt lat="42.7024090" lon="-5.9213330">
        <ele>1142.8</ele>
        <time>2021-10-11T14:55:12Z</time>
      </trkpt>
      <trkpt lat="42.7024040" lon="-5.9212970">
        <ele>1143.2</ele>
        <time>2021-10-11T14:55:14Z</time>
      </trkpt>
      <trkpt lat="42.7023940" lon="-5.9212160">
        <ele>1143.4</ele>
        <time>2021-10-11T14:55:18Z</time>
      </trkpt>
      <trkpt lat="42.7023900" lon="-5.9211530">
        <ele>1143.6</ele>
        <time>2021-10-11T14:55:21Z</time>
      </trkpt>
      <trkpt lat="42.7023840" lon="-5.9210950">
        <ele>1144.0</ele>
        <time>2021-10-11T14:55:24Z</time>
      </trkpt>
      <trkpt lat="42.7023730" lon="-5.9209750">
        <ele>1145.2</ele>
        <time>2021-10-11T14:55:30Z</time>
      </trkpt>
      <trkpt lat="42.7023690" lon="-5.9209370">
        <ele>1145.4</ele>
        <time>2021-10-11T14:55:32Z</time>
      </trkpt>
      <trkpt lat="42.7023560" lon="-5.9208750">
        <ele>1145.8</ele>
        <time>2021-10-11T14:55:35Z</time>
      </trkpt>
      <trkpt lat="42.7023470" lon="-5.9208350">
        <ele>1146.0</ele>
        <time>2021-10-11T14:55:37Z</time>
      </trkpt>
      <trkpt lat="42.7023450" lon="-5.9208220">
        <ele>1146.4</ele>
        <time>2021-10-11T14:55:38Z</time>
      </trkpt>
      <trkpt lat="42.7023390" lon="-5.9207860">
        <ele>1146.6</ele>
        <time>2021-10-11T14:55:40Z</time>
      </trkpt>
      <trkpt lat="42.7023350" lon="-5.9207670">
        <ele>1146.8</ele>
        <time>2021-10-11T14:55:41Z</time>
      </trkpt>
      <trkpt lat="42.7023280" lon="-5.9207250">
        <ele>1147.0</ele>
        <time>2021-10-11T14:55:43Z</time>
      </trkpt>
      <trkpt lat="42.7023150" lon="-5.9206650">
        <ele>1147.4</ele>
        <time>2021-10-11T14:55:46Z</time>
      </trkpt>
      <trkpt lat="42.7023150" lon="-5.9206650">
        <ele>1147.6</ele>
        <time>2021-10-11T14:55:47Z</time>
      </trkpt>
      <trkpt lat="42.7022970" lon="-5.9206120">
        <ele>1147.8</ele>
        <time>2021-10-11T14:55:49Z</time>
      </trkpt>
      <trkpt lat="42.7022290" lon="-5.9204920">
        <ele>1148.6</ele>
        <time>2021-10-11T14:55:57Z</time>
      </trkpt>
      <trkpt lat="42.7022170" lon="-5.9204830">
        <ele>1149.0</ele>
        <time>2021-10-11T14:55:58Z</time>
      </trkpt>
      <trkpt lat="42.7021970" lon="-5.9204640">
        <ele>1149.4</ele>
        <time>2021-10-11T14:56:00Z</time>
      </trkpt>
      <trkpt lat="42.7021870" lon="-5.9204550">
        <ele>1149.6</ele>
        <time>2021-10-11T14:56:01Z</time>
      </trkpt>
      <trkpt lat="42.7021380" lon="-5.9204140">
        <ele>1150.4</ele>
        <time>2021-10-11T14:56:05Z</time>
      </trkpt>
      <trkpt lat="42.7021250" lon="-5.9204070">
        <ele>1150.6</ele>
        <time>2021-10-11T14:56:06Z</time>
      </trkpt>
      <trkpt lat="42.7021100" lon="-5.9204010">
        <ele>1150.8</ele>
        <time>2021-10-11T14:56:07Z</time>
      </trkpt>
      <trkpt lat="42.7020700" lon="-5.9203880">
        <ele>1151.2</ele>
        <time>2021-10-11T14:56:10Z</time>
      </trkpt>
      <trkpt lat="42.7020600" lon="-5.9203870">
        <ele>1151.6</ele>
        <time>2021-10-11T14:56:12Z</time>
      </trkpt>
      <trkpt lat="42.7020190" lon="-5.9203770">
        <ele>1151.8</ele>
        <time>2021-10-11T14:56:14Z</time>
      </trkpt>
      <trkpt lat="42.7019960" lon="-5.9203690">
        <ele>1152.0</ele>
        <time>2021-10-11T14:56:16Z</time>
      </trkpt>
      <trkpt lat="42.7019570" lon="-5.9203630">
        <ele>1152.6</ele>
        <time>2021-10-11T14:56:19Z</time>
      </trkpt>
      <trkpt lat="42.7019440" lon="-5.9203630">
        <ele>1152.8</ele>
        <time>2021-10-11T14:56:20Z</time>
      </trkpt>
      <trkpt lat="42.7019030" lon="-5.9203550">
        <ele>1152.8</ele>
        <time>2021-10-11T14:56:23Z</time>
      </trkpt>
      <trkpt lat="42.7018450" lon="-5.9203400">
        <ele>1152.8</ele>
        <time>2021-10-11T14:56:27Z</time>
      </trkpt>
      <trkpt lat="42.7017940" lon="-5.9203430">
        <ele>1153.4</ele>
        <time>2021-10-11T14:56:31Z</time>
      </trkpt>
      <trkpt lat="42.7017110" lon="-5.9203360">
        <ele>1154.0</ele>
        <time>2021-10-11T14:56:37Z</time>
      </trkpt>
      <trkpt lat="42.7016960" lon="-5.9203350">
        <ele>1154.2</ele>
        <time>2021-10-11T14:56:38Z</time>
      </trkpt>
      <trkpt lat="42.7016680" lon="-5.9203280">
        <ele>1154.4</ele>
        <time>2021-10-11T14:56:40Z</time>
      </trkpt>
      <trkpt lat="42.7016530" lon="-5.9203280">
        <ele>1154.4</ele>
        <time>2021-10-11T14:56:41Z</time>
      </trkpt>
      <trkpt lat="42.7016230" lon="-5.9203250">
        <ele>1154.4</ele>
        <time>2021-10-11T14:56:43Z</time>
      </trkpt>
      <trkpt lat="42.7015650" lon="-5.9203270">
        <ele>1154.8</ele>
        <time>2021-10-11T14:56:47Z</time>
      </trkpt>
      <trkpt lat="42.7015510" lon="-5.9203270">
        <ele>1155.0</ele>
        <time>2021-10-11T14:56:48Z</time>
      </trkpt>
      <trkpt lat="42.7014930" lon="-5.9203280">
        <ele>1155.2</ele>
        <time>2021-10-11T14:56:52Z</time>
      </trkpt>
      <trkpt lat="42.7014480" lon="-5.9203170">
        <ele>1155.4</ele>
        <time>2021-10-11T14:56:55Z</time>
      </trkpt>
      <trkpt lat="42.7013270" lon="-5.9203190">
        <ele>1156.2</ele>
        <time>2021-10-11T14:57:03Z</time>
      </trkpt>
      <trkpt lat="42.7013110" lon="-5.9203220">
        <ele>1156.2</ele>
        <time>2021-10-11T14:57:04Z</time>
      </trkpt>
      <trkpt lat="42.7013000" lon="-5.9203220">
        <ele>1156.4</ele>
        <time>2021-10-11T14:57:05Z</time>
      </trkpt>
      <trkpt lat="42.7012750" lon="-5.9203290">
        <ele>1156.8</ele>
        <time>2021-10-11T14:57:07Z</time>
      </trkpt>
      <trkpt lat="42.7012460" lon="-5.9203450">
        <ele>1157.0</ele>
        <time>2021-10-11T14:57:09Z</time>
      </trkpt>
      <trkpt lat="42.7012110" lon="-5.9203670">
        <ele>1157.4</ele>
        <time>2021-10-11T14:57:12Z</time>
      </trkpt>
      <trkpt lat="42.7011340" lon="-5.9203880">
        <ele>1157.8</ele>
        <time>2021-10-11T14:57:17Z</time>
      </trkpt>
      <trkpt lat="42.7011210" lon="-5.9204020">
        <ele>1157.8</ele>
        <time>2021-10-11T14:57:18Z</time>
      </trkpt>
      <trkpt lat="42.7011080" lon="-5.9204190">
        <ele>1158.0</ele>
        <time>2021-10-11T14:57:19Z</time>
      </trkpt>
      <trkpt lat="42.7010500" lon="-5.9204740">
        <ele>1158.4</ele>
        <time>2021-10-11T14:57:24Z</time>
      </trkpt>
      <trkpt lat="42.7010080" lon="-5.9204980">
        <ele>1158.8</ele>
        <time>2021-10-11T14:57:27Z</time>
      </trkpt>
      <trkpt lat="42.7009500" lon="-5.9205260">
        <ele>1159.2</ele>
        <time>2021-10-11T14:57:31Z</time>
      </trkpt>
      <trkpt lat="42.7009030" lon="-5.9205380">
        <ele>1159.6</ele>
        <time>2021-10-11T14:57:34Z</time>
      </trkpt>
      <trkpt lat="42.7008460" lon="-5.9205490">
        <ele>1160.0</ele>
        <time>2021-10-11T14:57:38Z</time>
      </trkpt>
      <trkpt lat="42.7007810" lon="-5.9205600">
        <ele>1160.6</ele>
        <time>2021-10-11T14:57:42Z</time>
      </trkpt>
      <trkpt lat="42.7007090" lon="-5.9205240">
        <ele>1160.8</ele>
        <time>2021-10-11T14:57:46Z</time>
      </trkpt>
      <trkpt lat="42.7005400" lon="-5.9204000">
        <ele>1161.0</ele>
        <time>2021-10-11T14:57:55Z</time>
      </trkpt>
      <trkpt lat="42.7004350" lon="-5.9203190">
        <ele>1161.4</ele>
        <time>2021-10-11T14:58:00Z</time>
      </trkpt>
      <trkpt lat="42.7003920" lon="-5.9202900">
        <ele>1161.4</ele>
        <time>2021-10-11T14:58:02Z</time>
      </trkpt>
      <trkpt lat="42.7003520" lon="-5.9202610">
        <ele>1161.4</ele>
        <time>2021-10-11T14:58:04Z</time>
      </trkpt>
      <trkpt lat="42.7003300" lon="-5.9202470">
        <ele>1161.6</ele>
        <time>2021-10-11T14:58:05Z</time>
      </trkpt>
      <trkpt lat="42.7002250" lon="-5.9201690">
        <ele>1161.8</ele>
        <time>2021-10-11T14:58:10Z</time>
      </trkpt>
      <trkpt lat="42.7001840" lon="-5.9201400">
        <ele>1162.0</ele>
        <time>2021-10-11T14:58:12Z</time>
      </trkpt>
      <trkpt lat="42.7001350" lon="-5.9201080">
        <ele>1162.2</ele>
        <time>2021-10-11T14:58:14Z</time>
      </trkpt>
      <trkpt lat="42.7001170" lon="-5.9200930">
        <ele>1162.4</ele>
        <time>2021-10-11T14:58:15Z</time>
      </trkpt>
      <trkpt lat="42.7000130" lon="-5.9199950">
        <ele>1162.6</ele>
        <time>2021-10-11T14:58:20Z</time>
      </trkpt>
      <trkpt lat="42.6999140" lon="-5.9198840">
        <ele>1163.0</ele>
        <time>2021-10-11T14:58:25Z</time>
      </trkpt>
      <trkpt lat="42.6998160" lon="-5.9196960">
        <ele>1163.2</ele>
        <time>2021-10-11T14:58:32Z</time>
      </trkpt>
      <trkpt lat="42.6998000" lon="-5.9196420">
        <ele>1163.6</ele>
        <time>2021-10-11T14:58:34Z</time>
      </trkpt>
      <trkpt lat="42.6997770" lon="-5.9194460">
        <ele>1164.2</ele>
        <time>2021-10-11T14:58:40Z</time>
      </trkpt>
      <trkpt lat="42.6998190" lon="-5.9190980">
        <ele>1164.6</ele>
        <time>2021-10-11T14:58:50Z</time>
      </trkpt>
      <trkpt lat="42.6998370" lon="-5.9189920">
        <ele>1164.6</ele>
        <time>2021-10-11T14:58:53Z</time>
      </trkpt>
      <trkpt lat="42.6998500" lon="-5.9188920">
        <ele>1164.8</ele>
        <time>2021-10-11T14:58:56Z</time>
      </trkpt>
      <trkpt lat="42.6998510" lon="-5.9188570">
        <ele>1165.0</ele>
        <time>2021-10-11T14:58:57Z</time>
      </trkpt>
      <trkpt lat="42.6998510" lon="-5.9188240">
        <ele>1165.2</ele>
        <time>2021-10-11T14:58:58Z</time>
      </trkpt>
      <trkpt lat="42.6998530" lon="-5.9187930">
        <ele>1165.2</ele>
        <time>2021-10-11T14:58:59Z</time>
      </trkpt>
      <trkpt lat="42.6998470" lon="-5.9187300">
        <ele>1165.4</ele>
        <time>2021-10-11T14:59:01Z</time>
      </trkpt>
      <trkpt lat="42.6998360" lon="-5.9186660">
        <ele>1165.6</ele>
        <time>2021-10-11T14:59:03Z</time>
      </trkpt>
      <trkpt lat="42.6998320" lon="-5.9186330">
        <ele>1165.8</ele>
        <time>2021-10-11T14:59:04Z</time>
      </trkpt>
      <trkpt lat="42.6998070" lon="-5.9185430">
        <ele>1166.2</ele>
        <time>2021-10-11T14:59:07Z</time>
      </trkpt>
      <trkpt lat="42.6997900" lon="-5.9184900">
        <ele>1166.4</ele>
        <time>2021-10-11T14:59:09Z</time>
      </trkpt>
      <trkpt lat="42.6997390" lon="-5.9183860">
        <ele>1166.8</ele>
        <time>2021-10-11T14:59:13Z</time>
      </trkpt>
      <trkpt lat="42.6996950" lon="-5.9183160">
        <ele>1167.0</ele>
        <time>2021-10-11T14:59:16Z</time>
      </trkpt>
      <trkpt lat="42.6996800" lon="-5.9182930">
        <ele>1167.2</ele>
        <time>2021-10-11T14:59:17Z</time>
      </trkpt>
      <trkpt lat="42.6996640" lon="-5.9182730">
        <ele>1167.4</ele>
        <time>2021-10-11T14:59:18Z</time>
      </trkpt>
      <trkpt lat="42.6995700" lon="-5.9181820">
        <ele>1167.8</ele>
        <time>2021-10-11T14:59:23Z</time>
      </trkpt>
      <trkpt lat="42.6995470" lon="-5.9181640">
        <ele>1167.8</ele>
        <time>2021-10-11T14:59:24Z</time>
      </trkpt>
      <trkpt lat="42.6994880" lon="-5.9181210">
        <ele>1168.0</ele>
        <time>2021-10-11T14:59:27Z</time>
      </trkpt>
      <trkpt lat="42.6994650" lon="-5.9181060">
        <ele>1168.2</ele>
        <time>2021-10-11T14:59:28Z</time>
      </trkpt>
      <trkpt lat="42.6993610" lon="-5.9180510">
        <ele>1168.8</ele>
        <time>2021-10-11T14:59:33Z</time>
      </trkpt>
      <trkpt lat="42.6992770" lon="-5.9180110">
        <ele>1169.6</ele>
        <time>2021-10-11T14:59:37Z</time>
      </trkpt>
      <trkpt lat="42.6992540" lon="-5.9180030">
        <ele>1169.8</ele>
        <time>2021-10-11T14:59:38Z</time>
      </trkpt>
      <trkpt lat="42.6992300" lon="-5.9179990">
        <ele>1170.0</ele>
        <time>2021-10-11T14:59:39Z</time>
      </trkpt>
      <trkpt lat="42.6992050" lon="-5.9179930">
        <ele>1170.2</ele>
        <time>2021-10-11T14:59:41Z</time>
      </trkpt>
      <trkpt lat="42.6991270" lon="-5.9179810">
        <ele>1170.4</ele>
        <time>2021-10-11T14:59:43Z</time>
      </trkpt>
      <trkpt lat="42.6991030" lon="-5.9179790">
        <ele>1170.4</ele>
        <time>2021-10-11T14:59:44Z</time>
      </trkpt>
      <trkpt lat="42.6990770" lon="-5.9179770">
        <ele>1170.4</ele>
        <time>2021-10-11T14:59:45Z</time>
      </trkpt>
      <trkpt lat="42.6989290" lon="-5.9179660">
        <ele>1170.6</ele>
        <time>2021-10-11T14:59:51Z</time>
      </trkpt>
      <trkpt lat="42.6988830" lon="-5.9179630">
        <ele>1170.8</ele>
        <time>2021-10-11T14:59:53Z</time>
      </trkpt>
      <trkpt lat="42.6988570" lon="-5.9179620">
        <ele>1171.0</ele>
        <time>2021-10-11T14:59:54Z</time>
      </trkpt>
      <trkpt lat="42.6986990" lon="-5.9179920">
        <ele>1172.0</ele>
        <time>2021-10-11T15:00:00Z</time>
      </trkpt>
      <trkpt lat="42.6986730" lon="-5.9179980">
        <ele>1172.2</ele>
        <time>2021-10-11T15:00:01Z</time>
      </trkpt>
      <trkpt lat="42.6986460" lon="-5.9180050">
        <ele>1172.2</ele>
        <time>2021-10-11T15:00:02Z</time>
      </trkpt>
      <trkpt lat="42.6985920" lon="-5.9180200">
        <ele>1172.4</ele>
        <time>2021-10-11T15:00:04Z</time>
      </trkpt>
      <trkpt lat="42.6985670" lon="-5.9180320">
        <ele>1172.6</ele>
        <time>2021-10-11T15:00:06Z</time>
      </trkpt>
      <trkpt lat="42.6984850" lon="-5.9180750">
        <ele>1172.8</ele>
        <time>2021-10-11T15:00:08Z</time>
      </trkpt>
      <trkpt lat="42.6984310" lon="-5.9181070">
        <ele>1173.2</ele>
        <time>2021-10-11T15:00:10Z</time>
      </trkpt>
      <trkpt lat="42.6984030" lon="-5.9181210">
        <ele>1173.2</ele>
        <time>2021-10-11T15:00:11Z</time>
      </trkpt>
      <trkpt lat="42.6983410" lon="-5.9181550">
        <ele>1173.4</ele>
        <time>2021-10-11T15:00:13Z</time>
      </trkpt>
      <trkpt lat="42.6980840" lon="-5.9182830">
        <ele>1173.0</ele>
        <time>2021-10-11T15:00:22Z</time>
      </trkpt>
      <trkpt lat="42.6979910" lon="-5.9182720">
        <ele>1173.0</ele>
        <time>2021-10-11T15:00:27Z</time>
      </trkpt>
      <trkpt lat="42.6979870" lon="-5.9182690">
        <ele>1172.8</ele>
        <time>2021-10-11T15:00:30Z</time>
      </trkpt>
      <trkpt lat="42.6980000" lon="-5.9181850">
        <ele>1171.8</ele>
        <time>2021-10-11T15:00:46Z</time>
      </trkpt>
      <trkpt lat="42.6980020" lon="-5.9181800">
        <ele>1171.8</ele>
        <time>2021-10-11T15:00:47Z</time>
      </trkpt>
      <trkpt lat="42.6980020" lon="-5.9181800">
        <ele>1171.6</ele>
        <time>2021-10-11T15:00:49Z</time>
      </trkpt>
      <trkpt lat="42.6979920" lon="-5.9181130">
        <ele>1173.6</ele>
        <time>2021-10-11T15:19:26Z</time>
      </trkpt>
      <trkpt lat="42.6979910" lon="-5.9180790">
        <ele>1173.6</ele>
        <time>2021-10-11T15:19:27Z</time>
      </trkpt>
      <trkpt lat="42.6979850" lon="-5.9179170">
        <ele>1173.4</ele>
        <time>2021-10-11T15:19:31Z</time>
      </trkpt>
      <trkpt lat="42.6979710" lon="-5.9178300">
        <ele>1173.4</ele>
        <time>2021-10-11T15:19:33Z</time>
      </trkpt>
      <trkpt lat="42.6979520" lon="-5.9176690">
        <ele>1172.6</ele>
        <time>2021-10-11T15:19:36Z</time>
      </trkpt>
      <trkpt lat="42.6979290" lon="-5.9174960">
        <ele>1172.2</ele>
        <time>2021-10-11T15:19:39Z</time>
      </trkpt>
      <trkpt lat="42.6979130" lon="-5.9173860">
        <ele>1172.0</ele>
        <time>2021-10-11T15:19:41Z</time>
      </trkpt>
      <trkpt lat="42.6978730" lon="-5.9171730">
        <ele>1171.6</ele>
        <time>2021-10-11T15:19:45Z</time>
      </trkpt>
      <trkpt lat="42.6978550" lon="-5.9170650">
        <ele>1171.4</ele>
        <time>2021-10-11T15:19:47Z</time>
      </trkpt>
      <trkpt lat="42.6978300" lon="-5.9168970">
        <ele>1170.8</ele>
        <time>2021-10-11T15:19:50Z</time>
      </trkpt>
      <trkpt lat="42.6977750" lon="-5.9165970">
        <ele>1170.6</ele>
        <time>2021-10-11T15:19:55Z</time>
      </trkpt>
      <trkpt lat="42.6977620" lon="-5.9165400">
        <ele>1170.6</ele>
        <time>2021-10-11T15:19:56Z</time>
      </trkpt>
      <trkpt lat="42.6977120" lon="-5.9163060">
        <ele>1170.0</ele>
        <time>2021-10-11T15:20:00Z</time>
      </trkpt>
      <trkpt lat="42.6976830" lon="-5.9161880">
        <ele>1169.4</ele>
        <time>2021-10-11T15:20:02Z</time>
      </trkpt>
      <trkpt lat="42.6976440" lon="-5.9160120">
        <ele>1168.8</ele>
        <time>2021-10-11T15:20:05Z</time>
      </trkpt>
      <trkpt lat="42.6975890" lon="-5.9157620">
        <ele>1168.4</ele>
        <time>2021-10-11T15:20:09Z</time>
      </trkpt>
      <trkpt lat="42.6975310" lon="-5.9155050">
        <ele>1168.0</ele>
        <time>2021-10-11T15:20:13Z</time>
      </trkpt>
      <trkpt lat="42.6974970" lon="-5.9153160">
        <ele>1167.2</ele>
        <time>2021-10-11T15:20:16Z</time>
      </trkpt>
      <trkpt lat="42.6974860" lon="-5.9152530">
        <ele>1167.0</ele>
        <time>2021-10-11T15:20:17Z</time>
      </trkpt>
      <trkpt lat="42.6974660" lon="-5.9151250">
        <ele>1166.8</ele>
        <time>2021-10-11T15:20:19Z</time>
      </trkpt>
      <trkpt lat="42.6974250" lon="-5.9148630">
        <ele>1166.2</ele>
        <time>2021-10-11T15:20:23Z</time>
      </trkpt>
      <trkpt lat="42.6973750" lon="-5.9146430">
        <ele>1165.0</ele>
        <time>2021-10-11T15:20:26Z</time>
      </trkpt>
      <trkpt lat="42.6973520" lon="-5.9145740">
        <ele>1164.6</ele>
        <time>2021-10-11T15:20:27Z</time>
      </trkpt>
      <trkpt lat="42.6973290" lon="-5.9145060">
        <ele>1164.0</ele>
        <time>2021-10-11T15:20:28Z</time>
      </trkpt>
      <trkpt lat="42.6972650" lon="-5.9143100">
        <ele>1163.2</ele>
        <time>2021-10-11T15:20:31Z</time>
      </trkpt>
      <trkpt lat="42.6972280" lon="-5.9141890">
        <ele>1162.8</ele>
        <time>2021-10-11T15:20:33Z</time>
      </trkpt>
      <trkpt lat="42.6972120" lon="-5.9141420">
        <ele>1162.8</ele>
        <time>2021-10-11T15:20:34Z</time>
      </trkpt>
      <trkpt lat="42.6970620" lon="-5.9137830">
        <ele>1162.8</ele>
        <time>2021-10-11T15:20:41Z</time>
      </trkpt>
      <trkpt lat="42.6969870" lon="-5.9136090">
        <ele>1162.8</ele>
        <time>2021-10-11T15:20:45Z</time>
      </trkpt>
      <trkpt lat="42.6969310" lon="-5.9134900">
        <ele>1162.8</ele>
        <time>2021-10-11T15:20:48Z</time>
      </trkpt>
      <trkpt lat="42.6968410" lon="-5.9133270">
        <ele>1162.8</ele>
        <time>2021-10-11T15:20:52Z</time>
      </trkpt>
      <trkpt lat="42.6967910" lon="-5.9132470">
        <ele>1162.8</ele>
        <time>2021-10-11T15:20:54Z</time>
      </trkpt>
      <trkpt lat="42.6967270" lon="-5.9131560">
        <ele>1162.8</ele>
        <time>2021-10-11T15:20:57Z</time>
      </trkpt>
      <trkpt lat="42.6966330" lon="-5.9130080">
        <ele>1162.0</ele>
        <time>2021-10-11T15:21:01Z</time>
      </trkpt>
      <trkpt lat="42.6965710" lon="-5.9129180">
        <ele>1162.0</ele>
        <time>2021-10-11T15:21:03Z</time>
      </trkpt>
      <trkpt lat="42.6965420" lon="-5.9128750">
        <ele>1162.0</ele>
        <time>2021-10-11T15:21:04Z</time>
      </trkpt>
      <trkpt lat="42.6964380" lon="-5.9127100">
        <ele>1161.8</ele>
        <time>2021-10-11T15:21:08Z</time>
      </trkpt>
      <trkpt lat="42.6963750" lon="-5.9126130">
        <ele>1161.8</ele>
        <time>2021-10-11T15:21:11Z</time>
      </trkpt>
      <trkpt lat="42.6963220" lon="-5.9125300">
        <ele>1161.2</ele>
        <time>2021-10-11T15:21:15Z</time>
      </trkpt>
      <trkpt lat="42.6963220" lon="-5.9125300">
        <ele>1161.2</ele>
        <time>2021-10-11T15:21:16Z</time>
      </trkpt>
      <trkpt lat="42.6962850" lon="-5.9124500">
        <ele>1160.8</ele>
        <time>2021-10-11T15:21:25Z</time>
      </trkpt>
      <trkpt lat="42.6962700" lon="-5.9124230">
        <ele>1160.8</ele>
        <time>2021-10-11T15:21:26Z</time>
      </trkpt>
      <trkpt lat="42.6962450" lon="-5.9123840">
        <ele>1160.8</ele>
        <time>2021-10-11T15:21:27Z</time>
      </trkpt>
      <trkpt lat="42.6961090" lon="-5.9121680">
        <ele>1160.8</ele>
        <time>2021-10-11T15:21:32Z</time>
      </trkpt>
      <trkpt lat="42.6959200" lon="-5.9118850">
        <ele>1160.8</ele>
        <time>2021-10-11T15:21:38Z</time>
      </trkpt>
      <trkpt lat="42.6958540" lon="-5.9117860">
        <ele>1160.6</ele>
        <time>2021-10-11T15:21:40Z</time>
      </trkpt>
      <trkpt lat="42.6955470" lon="-5.9113270">
        <ele>1160.2</ele>
        <time>2021-10-11T15:21:49Z</time>
      </trkpt>
      <trkpt lat="42.6954820" lon="-5.9112320">
        <ele>1160.2</ele>
        <time>2021-10-11T15:21:51Z</time>
      </trkpt>
      <trkpt lat="42.6954200" lon="-5.9111390">
        <ele>1160.2</ele>
        <time>2021-10-11T15:21:53Z</time>
      </trkpt>
      <trkpt lat="42.6953030" lon="-5.9109620">
        <ele>1160.4</ele>
        <time>2021-10-11T15:21:57Z</time>
      </trkpt>
      <trkpt lat="42.6951030" lon="-5.9107130">
        <ele>1160.2</ele>
        <time>2021-10-11T15:22:03Z</time>
      </trkpt>
      <trkpt lat="42.6950380" lon="-5.9106390">
        <ele>1160.0</ele>
        <time>2021-10-11T15:22:05Z</time>
      </trkpt>
      <trkpt lat="42.6950040" lon="-5.9106030">
        <ele>1160.0</ele>
        <time>2021-10-11T15:22:06Z</time>
      </trkpt>
      <trkpt lat="42.6949720" lon="-5.9105650">
        <ele>1160.0</ele>
        <time>2021-10-11T15:22:07Z</time>
      </trkpt>
      <trkpt lat="42.6949370" lon="-5.9105280">
        <ele>1160.0</ele>
        <time>2021-10-11T15:22:08Z</time>
      </trkpt>
      <trkpt lat="42.6948300" lon="-5.9104120">
        <ele>1160.0</ele>
        <time>2021-10-11T15:22:11Z</time>
      </trkpt>
      <trkpt lat="42.6947140" lon="-5.9102850">
        <ele>1159.8</ele>
        <time>2021-10-11T15:22:14Z</time>
      </trkpt>
      <trkpt lat="42.6946360" lon="-5.9102010">
        <ele>1159.8</ele>
        <time>2021-10-11T15:22:16Z</time>
      </trkpt>
      <trkpt lat="42.6943600" lon="-5.9098860">
        <ele>1159.4</ele>
        <time>2021-10-11T15:22:23Z</time>
      </trkpt>
      <trkpt lat="42.6942480" lon="-5.9097510">
        <ele>1158.8</ele>
        <time>2021-10-11T15:22:26Z</time>
      </trkpt>
      <trkpt lat="42.6940690" lon="-5.9095320">
        <ele>1158.2</ele>
        <time>2021-10-11T15:22:31Z</time>
      </trkpt>
      <trkpt lat="42.6940320" lon="-5.9094900">
        <ele>1158.0</ele>
        <time>2021-10-11T15:22:32Z</time>
      </trkpt>
      <trkpt lat="42.6938350" lon="-5.9092720">
        <ele>1157.6</ele>
        <time>2021-10-11T15:22:37Z</time>
      </trkpt>
      <trkpt lat="42.6937180" lon="-5.9091310">
        <ele>1157.4</ele>
        <time>2021-10-11T15:22:40Z</time>
      </trkpt>
      <trkpt lat="42.6936450" lon="-5.9090460">
        <ele>1157.2</ele>
        <time>2021-10-11T15:22:42Z</time>
      </trkpt>
      <trkpt lat="42.6935490" lon="-5.9089290">
        <ele>1157.0</ele>
        <time>2021-10-11T15:22:45Z</time>
      </trkpt>
      <trkpt lat="42.6934820" lon="-5.9088500">
        <ele>1156.6</ele>
        <time>2021-10-11T15:22:47Z</time>
      </trkpt>
      <trkpt lat="42.6934490" lon="-5.9088120">
        <ele>1156.4</ele>
        <time>2021-10-11T15:22:48Z</time>
      </trkpt>
      <trkpt lat="42.6933430" lon="-5.9086940">
        <ele>1156.4</ele>
        <time>2021-10-11T15:22:51Z</time>
      </trkpt>
      <trkpt lat="42.6932440" lon="-5.9085870">
        <ele>1155.8</ele>
        <time>2021-10-11T15:22:54Z</time>
      </trkpt>
      <trkpt lat="42.6932040" lon="-5.9085430">
        <ele>1155.8</ele>
        <time>2021-10-11T15:22:55Z</time>
      </trkpt>
      <trkpt lat="42.6930300" lon="-5.9083480">
        <ele>1155.8</ele>
        <time>2021-10-11T15:23:00Z</time>
      </trkpt>
      <trkpt lat="42.6929650" lon="-5.9082800">
        <ele>1155.8</ele>
        <time>2021-10-11T15:23:02Z</time>
      </trkpt>
      <trkpt lat="42.6929390" lon="-5.9082530">
        <ele>1155.8</ele>
        <time>2021-10-11T15:23:03Z</time>
      </trkpt>
      <trkpt lat="42.6928280" lon="-5.9081400">
        <ele>1155.6</ele>
        <time>2021-10-11T15:23:06Z</time>
      </trkpt>
      <trkpt lat="42.6927920" lon="-5.9080990">
        <ele>1155.6</ele>
        <time>2021-10-11T15:23:07Z</time>
      </trkpt>
      <trkpt lat="42.6927610" lon="-5.9080650">
        <ele>1155.2</ele>
        <time>2021-10-11T15:23:08Z</time>
      </trkpt>
      <trkpt lat="42.6925990" lon="-5.9078720">
        <ele>1154.6</ele>
        <time>2021-10-11T15:23:12Z</time>
      </trkpt>
      <trkpt lat="42.6924810" lon="-5.9077220">
        <ele>1154.2</ele>
        <time>2021-10-11T15:23:15Z</time>
      </trkpt>
      <trkpt lat="42.6923660" lon="-5.9075590">
        <ele>1153.4</ele>
        <time>2021-10-11T15:23:18Z</time>
      </trkpt>
      <trkpt lat="42.6923300" lon="-5.9075060">
        <ele>1153.2</ele>
        <time>2021-10-11T15:23:19Z</time>
      </trkpt>
      <trkpt lat="42.6922940" lon="-5.9074550">
        <ele>1153.2</ele>
        <time>2021-10-11T15:23:20Z</time>
      </trkpt>
      <trkpt lat="42.6921990" lon="-5.9073090">
        <ele>1153.0</ele>
        <time>2021-10-11T15:23:23Z</time>
      </trkpt>
      <trkpt lat="42.6921690" lon="-5.9072640">
        <ele>1153.0</ele>
        <time>2021-10-11T15:23:24Z</time>
      </trkpt>
      <trkpt lat="42.6921140" lon="-5.9071830">
        <ele>1152.8</ele>
        <time>2021-10-11T15:23:26Z</time>
      </trkpt>
      <trkpt lat="42.6920420" lon="-5.9070780">
        <ele>1152.6</ele>
        <time>2021-10-11T15:23:31Z</time>
      </trkpt>
      <trkpt lat="42.6920400" lon="-5.9070740">
        <ele>1152.4</ele>
        <time>2021-10-11T15:23:33Z</time>
      </trkpt>
      <trkpt lat="42.6920070" lon="-5.9070220">
        <ele>1151.4</ele>
        <time>2021-10-11T15:24:30Z</time>
      </trkpt>
      <trkpt lat="42.6919880" lon="-5.9069910">
        <ele>1151.4</ele>
        <time>2021-10-11T15:24:31Z</time>
      </trkpt>
      <trkpt lat="42.6918740" lon="-5.9068160">
        <ele>1151.4</ele>
        <time>2021-10-11T15:24:35Z</time>
      </trkpt>
      <trkpt lat="42.6917450" lon="-5.9066080">
        <ele>1150.8</ele>
        <time>2021-10-11T15:24:39Z</time>
      </trkpt>
      <trkpt lat="42.6916600" lon="-5.9064810">
        <ele>1150.6</ele>
        <time>2021-10-11T15:24:41Z</time>
      </trkpt>
      <trkpt lat="42.6915910" lon="-5.9063740">
        <ele>1150.4</ele>
        <time>2021-10-11T15:24:43Z</time>
      </trkpt>
      <trkpt lat="42.6915530" lon="-5.9063120">
        <ele>1150.2</ele>
        <time>2021-10-11T15:24:44Z</time>
      </trkpt>
      <trkpt lat="42.6914370" lon="-5.9061160">
        <ele>1149.6</ele>
        <time>2021-10-11T15:24:47Z</time>
      </trkpt>
      <trkpt lat="42.6913680" lon="-5.9060070">
        <ele>1149.2</ele>
        <time>2021-10-11T15:24:49Z</time>
      </trkpt>
      <trkpt lat="42.6912810" lon="-5.9058680">
        <ele>1149.0</ele>
        <time>2021-10-11T15:24:51Z</time>
      </trkpt>
      <trkpt lat="42.6910850" lon="-5.9055680">
        <ele>1148.6</ele>
        <time>2021-10-11T15:24:56Z</time>
      </trkpt>
      <trkpt lat="42.6909450" lon="-5.9053460">
        <ele>1148.0</ele>
        <time>2021-10-11T15:25:00Z</time>
      </trkpt>
      <trkpt lat="42.6908650" lon="-5.9052200">
        <ele>1147.6</ele>
        <time>2021-10-11T15:25:03Z</time>
      </trkpt>
      <trkpt lat="42.6907160" lon="-5.9049970">
        <ele>1147.4</ele>
        <time>2021-10-11T15:25:08Z</time>
      </trkpt>
      <trkpt lat="42.6906240" lon="-5.9048720">
        <ele>1147.4</ele>
        <time>2021-10-11T15:25:11Z</time>
      </trkpt>
      <trkpt lat="42.6904560" lon="-5.9046950">
        <ele>1147.4</ele>
        <time>2021-10-11T15:25:15Z</time>
      </trkpt>
      <trkpt lat="42.6903800" lon="-5.9046160">
        <ele>1147.2</ele>
        <time>2021-10-11T15:25:17Z</time>
      </trkpt>
      <trkpt lat="42.6903260" lon="-5.9045630">
        <ele>1147.2</ele>
        <time>2021-10-11T15:25:18Z</time>
      </trkpt>
      <trkpt lat="42.6901940" lon="-5.9044320">
        <ele>1145.8</ele>
        <time>2021-10-11T15:25:21Z</time>
      </trkpt>
      <trkpt lat="42.6900300" lon="-5.9042700">
        <ele>1145.2</ele>
        <time>2021-10-11T15:25:24Z</time>
      </trkpt>
      <trkpt lat="42.6899360" lon="-5.9041770">
        <ele>1144.6</ele>
        <time>2021-10-11T15:25:26Z</time>
      </trkpt>
      <trkpt lat="42.6897210" lon="-5.9039700">
        <ele>1143.4</ele>
        <time>2021-10-11T15:25:30Z</time>
      </trkpt>
      <trkpt lat="42.6896060" lon="-5.9038630">
        <ele>1142.2</ele>
        <time>2021-10-11T15:25:32Z</time>
      </trkpt>
      <trkpt lat="42.6894510" lon="-5.9037160">
        <ele>1141.2</ele>
        <time>2021-10-11T15:25:35Z</time>
      </trkpt>
      <trkpt lat="42.6893940" lon="-5.9036610">
        <ele>1140.8</ele>
        <time>2021-10-11T15:25:36Z</time>
      </trkpt>
      <trkpt lat="42.6892320" lon="-5.9035050">
        <ele>1140.0</ele>
        <time>2021-10-11T15:25:39Z</time>
      </trkpt>
      <trkpt lat="42.6891830" lon="-5.9034580">
        <ele>1139.8</ele>
        <time>2021-10-11T15:25:40Z</time>
      </trkpt>
      <trkpt lat="42.6890200" lon="-5.9033040">
        <ele>1138.8</ele>
        <time>2021-10-11T15:25:43Z</time>
      </trkpt>
      <trkpt lat="42.6888300" lon="-5.9031450">
        <ele>1138.0</ele>
        <time>2021-10-11T15:25:47Z</time>
      </trkpt>
      <trkpt lat="42.6887360" lon="-5.9030570">
        <ele>1137.6</ele>
        <time>2021-10-11T15:25:49Z</time>
      </trkpt>
      <trkpt lat="42.6884330" lon="-5.9027770">
        <ele>1136.8</ele>
        <time>2021-10-11T15:25:55Z</time>
      </trkpt>
      <trkpt lat="42.6883230" lon="-5.9026720">
        <ele>1136.6</ele>
        <time>2021-10-11T15:25:57Z</time>
      </trkpt>
      <trkpt lat="42.6880410" lon="-5.9024150">
        <ele>1135.6</ele>
        <time>2021-10-11T15:26:03Z</time>
      </trkpt>
      <trkpt lat="42.6879940" lon="-5.9023730">
        <ele>1135.4</ele>
        <time>2021-10-11T15:26:04Z</time>
      </trkpt>
      <trkpt lat="42.6876960" lon="-5.9021050">
        <ele>1134.4</ele>
        <time>2021-10-11T15:26:10Z</time>
      </trkpt>
      <trkpt lat="42.6875880" lon="-5.9020060">
        <ele>1134.0</ele>
        <time>2021-10-11T15:26:12Z</time>
      </trkpt>
      <trkpt lat="42.6874160" lon="-5.9018410">
        <ele>1133.2</ele>
        <time>2021-10-11T15:26:16Z</time>
      </trkpt>
      <trkpt lat="42.6872920" lon="-5.9017400">
        <ele>1132.6</ele>
        <time>2021-10-11T15:26:19Z</time>
      </trkpt>
      <trkpt lat="42.6872220" lon="-5.9016940">
        <ele>1132.4</ele>
        <time>2021-10-11T15:26:21Z</time>
      </trkpt>
      <trkpt lat="42.6871720" lon="-5.9016620">
        <ele>1132.2</ele>
        <time>2021-10-11T15:26:23Z</time>
      </trkpt>
      <trkpt lat="42.6871570" lon="-5.9016550">
        <ele>1132.2</ele>
        <time>2021-10-11T15:26:24Z</time>
      </trkpt>
      <trkpt lat="42.6871440" lon="-5.9016560">
        <ele>1132.0</ele>
        <time>2021-10-11T15:26:27Z</time>
      </trkpt>
      <trkpt lat="42.6871080" lon="-5.9016300">
        <ele>1131.2</ele>
        <time>2021-10-11T15:26:50Z</time>
      </trkpt>
      <trkpt lat="42.6870830" lon="-5.9016060">
        <ele>1131.2</ele>
        <time>2021-10-11T15:26:51Z</time>
      </trkpt>
      <trkpt lat="42.6870110" lon="-5.9015370">
        <ele>1131.2</ele>
        <time>2021-10-11T15:26:54Z</time>
      </trkpt>
      <trkpt lat="42.6869810" lon="-5.9015150">
        <ele>1131.0</ele>
        <time>2021-10-11T15:26:55Z</time>
      </trkpt>
      <trkpt lat="42.6869160" lon="-5.9014660">
        <ele>1131.0</ele>
        <time>2021-10-11T15:26:57Z</time>
      </trkpt>
      <trkpt lat="42.6868440" lon="-5.9014030">
        <ele>1131.2</ele>
        <time>2021-10-11T15:26:59Z</time>
      </trkpt>
      <trkpt lat="42.6867740" lon="-5.9013480">
        <ele>1131.2</ele>
        <time>2021-10-11T15:27:01Z</time>
      </trkpt>
      <trkpt lat="42.6864740" lon="-5.9011280">
        <ele>1131.0</ele>
        <time>2021-10-11T15:27:09Z</time>
      </trkpt>
      <trkpt lat="42.6861620" lon="-5.9008910">
        <ele>1130.6</ele>
        <time>2021-10-11T15:27:16Z</time>
      </trkpt>
      <trkpt lat="42.6860060" lon="-5.9007750">
        <ele>1130.2</ele>
        <time>2021-10-11T15:27:19Z</time>
      </trkpt>
      <trkpt lat="42.6857660" lon="-5.9005910">
        <ele>1129.2</ele>
        <time>2021-10-11T15:27:24Z</time>
      </trkpt>
      <trkpt lat="42.6857210" lon="-5.9005550">
        <ele>1129.0</ele>
        <time>2021-10-11T15:27:25Z</time>
      </trkpt>
      <trkpt lat="42.6854940" lon="-5.9003870">
        <ele>1128.2</ele>
        <time>2021-10-11T15:27:30Z</time>
      </trkpt>
      <trkpt lat="42.6852710" lon="-5.9002170">
        <ele>1127.6</ele>
        <time>2021-10-11T15:27:35Z</time>
      </trkpt>
      <trkpt lat="42.6850490" lon="-5.9000490">
        <ele>1126.8</ele>
        <time>2021-10-11T15:27:40Z</time>
      </trkpt>
      <trkpt lat="42.6848920" lon="-5.8999290">
        <ele>1126.2</ele>
        <time>2021-10-11T15:27:43Z</time>
      </trkpt>
      <trkpt lat="42.6848010" lon="-5.8998580">
        <ele>1125.8</ele>
        <time>2021-10-11T15:27:45Z</time>
      </trkpt>
      <trkpt lat="42.6844900" lon="-5.8996280">
        <ele>1125.0</ele>
        <time>2021-10-11T15:27:51Z</time>
      </trkpt>
      <trkpt lat="42.6843910" lon="-5.8995530">
        <ele>1124.8</ele>
        <time>2021-10-11T15:27:53Z</time>
      </trkpt>
      <trkpt lat="42.6841550" lon="-5.8993660">
        <ele>1124.4</ele>
        <time>2021-10-11T15:27:58Z</time>
      </trkpt>
      <trkpt lat="42.6841160" lon="-5.8993380">
        <ele>1124.4</ele>
        <time>2021-10-11T15:27:59Z</time>
      </trkpt>
      <trkpt lat="42.6840680" lon="-5.8993000">
        <ele>1124.2</ele>
        <time>2021-10-11T15:28:00Z</time>
      </trkpt>
      <trkpt lat="42.6839150" lon="-5.8991820">
        <ele>1123.6</ele>
        <time>2021-10-11T15:28:03Z</time>
      </trkpt>
      <trkpt lat="42.6834440" lon="-5.8988300">
        <ele>1122.8</ele>
        <time>2021-10-11T15:28:13Z</time>
      </trkpt>
      <trkpt lat="42.6833470" lon="-5.8987550">
        <ele>1122.6</ele>
        <time>2021-10-11T15:28:15Z</time>
      </trkpt>
      <trkpt lat="42.6830500" lon="-5.8985350">
        <ele>1122.0</ele>
        <time>2021-10-11T15:28:21Z</time>
      </trkpt>
      <trkpt lat="42.6827610" lon="-5.8983270">
        <ele>1121.8</ele>
        <time>2021-10-11T15:28:27Z</time>
      </trkpt>
      <trkpt lat="42.6825640" lon="-5.8981910">
        <ele>1121.6</ele>
        <time>2021-10-11T15:28:31Z</time>
      </trkpt>
      <trkpt lat="42.6823660" lon="-5.8980430">
        <ele>1121.6</ele>
        <time>2021-10-11T15:28:35Z</time>
      </trkpt>
      <trkpt lat="42.6821180" lon="-5.8978590">
        <ele>1121.0</ele>
        <time>2021-10-11T15:28:40Z</time>
      </trkpt>
      <trkpt lat="42.6819630" lon="-5.8977530">
        <ele>1120.6</ele>
        <time>2021-10-11T15:28:43Z</time>
      </trkpt>
      <trkpt lat="42.6818030" lon="-5.8976460">
        <ele>1120.0</ele>
        <time>2021-10-11T15:28:46Z</time>
      </trkpt>
      <trkpt lat="42.6816450" lon="-5.8975360">
        <ele>1119.4</ele>
        <time>2021-10-11T15:28:49Z</time>
      </trkpt>
      <trkpt lat="42.6814890" lon="-5.8974340">
        <ele>1119.2</ele>
        <time>2021-10-11T15:28:52Z</time>
      </trkpt>
      <trkpt lat="42.6810700" lon="-5.8971350">
        <ele>1118.6</ele>
        <time>2021-10-11T15:29:01Z</time>
      </trkpt>
      <trkpt lat="42.6809320" lon="-5.8970400">
        <ele>1118.4</ele>
        <time>2021-10-11T15:29:04Z</time>
      </trkpt>
      <trkpt lat="42.6808730" lon="-5.8970010">
        <ele>1118.4</ele>
        <time>2021-10-11T15:29:05Z</time>
      </trkpt>
      <trkpt lat="42.6806920" lon="-5.8968570">
        <ele>1117.8</ele>
        <time>2021-10-11T15:29:09Z</time>
      </trkpt>
      <trkpt lat="42.6806070" lon="-5.8967820">
        <ele>1117.2</ele>
        <time>2021-10-11T15:29:12Z</time>
      </trkpt>
      <trkpt lat="42.6805790" lon="-5.8967620">
        <ele>1117.2</ele>
        <time>2021-10-11T15:29:13Z</time>
      </trkpt>
      <trkpt lat="42.6805410" lon="-5.8967490">
        <ele>1117.0</ele>
        <time>2021-10-11T15:29:14Z</time>
      </trkpt>
      <trkpt lat="42.6804870" lon="-5.8967950">
        <ele>1116.6</ele>
        <time>2021-10-11T15:29:16Z</time>
      </trkpt>
      <trkpt lat="42.6804560" lon="-5.8969400">
        <ele>1116.2</ele>
        <time>2021-10-11T15:29:19Z</time>
      </trkpt>
      <trkpt lat="42.6804430" lon="-5.8969940">
        <ele>1116.0</ele>
        <time>2021-10-11T15:29:20Z</time>
      </trkpt>
      <trkpt lat="42.6803980" lon="-5.8973050">
        <ele>1115.4</ele>
        <time>2021-10-11T15:29:25Z</time>
      </trkpt>
      <trkpt lat="42.6803920" lon="-5.8973560">
        <ele>1115.4</ele>
        <time>2021-10-11T15:29:26Z</time>
      </trkpt>
      <trkpt lat="42.6803760" lon="-5.8974860">
        <ele>1115.2</ele>
        <time>2021-10-11T15:29:28Z</time>
      </trkpt>
      <trkpt lat="42.6803410" lon="-5.8977560">
        <ele>1115.2</ele>
        <time>2021-10-11T15:29:32Z</time>
      </trkpt>
      <trkpt lat="42.6802890" lon="-5.8981080">
        <ele>1115.2</ele>
        <time>2021-10-11T15:29:37Z</time>
      </trkpt>
      <trkpt lat="42.6802800" lon="-5.8981780">
        <ele>1115.2</ele>
        <time>2021-10-11T15:29:38Z</time>
      </trkpt>
      <trkpt lat="42.6802700" lon="-5.8982470">
        <ele>1115.2</ele>
        <time>2021-10-11T15:29:39Z</time>
      </trkpt>
      <trkpt lat="42.6802590" lon="-5.8983160">
        <ele>1115.2</ele>
        <time>2021-10-11T15:29:40Z</time>
      </trkpt>
      <trkpt lat="42.6802290" lon="-5.8985310">
        <ele>1115.2</ele>
        <time>2021-10-11T15:29:43Z</time>
      </trkpt>
      <trkpt lat="42.6801690" lon="-5.8989810">
        <ele>1114.8</ele>
        <time>2021-10-11T15:29:50Z</time>
      </trkpt>
      <trkpt lat="42.6801490" lon="-5.8991120">
        <ele>1114.8</ele>
        <time>2021-10-11T15:29:52Z</time>
      </trkpt>
      <trkpt lat="42.6801190" lon="-5.8993090">
        <ele>1115.2</ele>
        <time>2021-10-11T15:29:55Z</time>
      </trkpt>
      <trkpt lat="42.6801020" lon="-5.8994430">
        <ele>1115.2</ele>
        <time>2021-10-11T15:29:57Z</time>
      </trkpt>
      <trkpt lat="42.6800650" lon="-5.8997290">
        <ele>1115.4</ele>
        <time>2021-10-11T15:30:01Z</time>
      </trkpt>
      <trkpt lat="42.6800310" lon="-5.8999580">
        <ele>1115.2</ele>
        <time>2021-10-11T15:30:04Z</time>
      </trkpt>
      <trkpt lat="42.6800140" lon="-5.9001300">
        <ele>1115.2</ele>
        <time>2021-10-11T15:30:06Z</time>
      </trkpt>
      <trkpt lat="42.6800040" lon="-5.9002210">
        <ele>1114.6</ele>
        <time>2021-10-11T15:30:08Z</time>
      </trkpt>
      <trkpt lat="42.6799810" lon="-5.9003880">
        <ele>1114.2</ele>
        <time>2021-10-11T15:30:09Z</time>
      </trkpt>
      <trkpt lat="42.6799680" lon="-5.9004650">
        <ele>1114.0</ele>
        <time>2021-10-11T15:30:10Z</time>
      </trkpt>
      <trkpt lat="42.6799550" lon="-5.9005370">
        <ele>1113.8</ele>
        <time>2021-10-11T15:30:11Z</time>
      </trkpt>
      <trkpt lat="42.6799190" lon="-5.9007580">
        <ele>1113.2</ele>
        <time>2021-10-11T15:30:14Z</time>
      </trkpt>
      <trkpt lat="42.6798650" lon="-5.9011030">
        <ele>1113.2</ele>
        <time>2021-10-11T15:30:19Z</time>
      </trkpt>
      <trkpt lat="42.6798550" lon="-5.9011720">
        <ele>1113.2</ele>
        <time>2021-10-11T15:30:20Z</time>
      </trkpt>
      <trkpt lat="42.6797730" lon="-5.9017670">
        <ele>1114.0</ele>
        <time>2021-10-11T15:30:29Z</time>
      </trkpt>
      <trkpt lat="42.6797400" lon="-5.9019710">
        <ele>1114.2</ele>
        <time>2021-10-11T15:30:32Z</time>
      </trkpt>
      <trkpt lat="42.6796660" lon="-5.9024600">
        <ele>1114.2</ele>
        <time>2021-10-11T15:30:39Z</time>
      </trkpt>
      <trkpt lat="42.6796330" lon="-5.9027500">
        <ele>1114.2</ele>
        <time>2021-10-11T15:30:43Z</time>
      </trkpt>
      <trkpt lat="42.6796050" lon="-5.9029690">
        <ele>1114.2</ele>
        <time>2021-10-11T15:30:46Z</time>
      </trkpt>
      <trkpt lat="42.6795860" lon="-5.9031160">
        <ele>1114.2</ele>
        <time>2021-10-11T15:30:48Z</time>
      </trkpt>
      <trkpt lat="42.6795660" lon="-5.9032640">
        <ele>1114.2</ele>
        <time>2021-10-11T15:30:50Z</time>
      </trkpt>
      <trkpt lat="42.6794850" lon="-5.9038720">
        <ele>1114.0</ele>
        <time>2021-10-11T15:30:58Z</time>
      </trkpt>
      <trkpt lat="42.6794640" lon="-5.9040220">
        <ele>1113.8</ele>
        <time>2021-10-11T15:31:00Z</time>
      </trkpt>
      <trkpt lat="42.6794310" lon="-5.9042520">
        <ele>1113.8</ele>
        <time>2021-10-11T15:31:03Z</time>
      </trkpt>
      <trkpt lat="42.6794000" lon="-5.9044770">
        <ele>1113.6</ele>
        <time>2021-10-11T15:31:06Z</time>
      </trkpt>
      <trkpt lat="42.6793670" lon="-5.9047070">
        <ele>1113.4</ele>
        <time>2021-10-11T15:31:09Z</time>
      </trkpt>
      <trkpt lat="42.6793460" lon="-5.9048650">
        <ele>1113.4</ele>
        <time>2021-10-11T15:31:11Z</time>
      </trkpt>
      <trkpt lat="42.6793220" lon="-5.9050280">
        <ele>1113.4</ele>
        <time>2021-10-11T15:31:13Z</time>
      </trkpt>
      <trkpt lat="42.6793010" lon="-5.9051950">
        <ele>1113.2</ele>
        <time>2021-10-11T15:31:15Z</time>
      </trkpt>
      <trkpt lat="42.6792560" lon="-5.9055170">
        <ele>1113.0</ele>
        <time>2021-10-11T15:31:19Z</time>
      </trkpt>
      <trkpt lat="42.6791940" lon="-5.9059650">
        <ele>1112.2</ele>
        <time>2021-10-11T15:31:25Z</time>
      </trkpt>
      <trkpt lat="42.6791830" lon="-5.9061070">
        <ele>1112.2</ele>
        <time>2021-10-11T15:31:27Z</time>
      </trkpt>
      <trkpt lat="42.6791790" lon="-5.9061770">
        <ele>1112.2</ele>
        <time>2021-10-11T15:31:28Z</time>
      </trkpt>
      <trkpt lat="42.6791620" lon="-5.9063950">
        <ele>1112.0</ele>
        <time>2021-10-11T15:31:31Z</time>
      </trkpt>
      <trkpt lat="42.6791480" lon="-5.9065370">
        <ele>1112.0</ele>
        <time>2021-10-11T15:31:33Z</time>
      </trkpt>
      <trkpt lat="42.6791230" lon="-5.9066780">
        <ele>1112.0</ele>
        <time>2021-10-11T15:31:35Z</time>
      </trkpt>
      <trkpt lat="42.6791080" lon="-5.9067460">
        <ele>1112.0</ele>
        <time>2021-10-11T15:31:36Z</time>
      </trkpt>
      <trkpt lat="42.6790750" lon="-5.9068930">
        <ele>1112.0</ele>
        <time>2021-10-11T15:31:38Z</time>
      </trkpt>
      <trkpt lat="42.6790390" lon="-5.9070800">
        <ele>1112.0</ele>
        <time>2021-10-11T15:31:41Z</time>
      </trkpt>
      <trkpt lat="42.6789870" lon="-5.9074160">
        <ele>1112.4</ele>
        <time>2021-10-11T15:31:46Z</time>
      </trkpt>
      <trkpt lat="42.6789250" lon="-5.9078250">
        <ele>1112.8</ele>
        <time>2021-10-11T15:31:52Z</time>
      </trkpt>
      <trkpt lat="42.6788970" lon="-5.9080190">
        <ele>1113.0</ele>
        <time>2021-10-11T15:31:55Z</time>
      </trkpt>
      <trkpt lat="42.6788510" lon="-5.9083390">
        <ele>1113.4</ele>
        <time>2021-10-11T15:32:00Z</time>
      </trkpt>
      <trkpt lat="42.6788330" lon="-5.9084670">
        <ele>1113.4</ele>
        <time>2021-10-11T15:32:02Z</time>
      </trkpt>
      <trkpt lat="42.6787340" lon="-5.9091800">
        <ele>1113.2</ele>
        <time>2021-10-11T15:32:12Z</time>
      </trkpt>
      <trkpt lat="42.6786310" lon="-5.9099220">
        <ele>1112.8</ele>
        <time>2021-10-11T15:32:23Z</time>
      </trkpt>
      <trkpt lat="42.6785970" lon="-5.9101510">
        <ele>1112.6</ele>
        <time>2021-10-11T15:32:26Z</time>
      </trkpt>
      <trkpt lat="42.6785770" lon="-5.9102790">
        <ele>1112.2</ele>
        <time>2021-10-11T15:32:28Z</time>
      </trkpt>
      <trkpt lat="42.6785500" lon="-5.9104360">
        <ele>1112.2</ele>
        <time>2021-10-11T15:32:30Z</time>
      </trkpt>
      <trkpt lat="42.6785300" lon="-5.9105670">
        <ele>1112.0</ele>
        <time>2021-10-11T15:32:32Z</time>
      </trkpt>
      <trkpt lat="42.6784850" lon="-5.9108820">
        <ele>1111.6</ele>
        <time>2021-10-11T15:32:36Z</time>
      </trkpt>
      <trkpt lat="42.6784070" lon="-5.9114220">
        <ele>1111.2</ele>
        <time>2021-10-11T15:32:43Z</time>
      </trkpt>
      <trkpt lat="42.6783960" lon="-5.9115200">
        <ele>1111.0</ele>
        <time>2021-10-11T15:32:44Z</time>
      </trkpt>
      <trkpt lat="42.6783860" lon="-5.9116020">
        <ele>1110.8</ele>
        <time>2021-10-11T15:32:45Z</time>
      </trkpt>
      <trkpt lat="42.6783620" lon="-5.9118120">
        <ele>1110.0</ele>
        <time>2021-10-11T15:32:48Z</time>
      </trkpt>
      <trkpt lat="42.6783520" lon="-5.9119500">
        <ele>1109.4</ele>
        <time>2021-10-11T15:32:50Z</time>
      </trkpt>
      <trkpt lat="42.6783490" lon="-5.9119990">
        <ele>1109.0</ele>
        <time>2021-10-11T15:32:51Z</time>
      </trkpt>
      <trkpt lat="42.6783500" lon="-5.9121100">
        <ele>1108.0</ele>
        <time>2021-10-11T15:32:54Z</time>
      </trkpt>
      <trkpt lat="42.6783560" lon="-5.9121250">
        <ele>1107.4</ele>
        <time>2021-10-11T15:32:55Z</time>
      </trkpt>
      <trkpt lat="42.6783580" lon="-5.9121310">
        <ele>1106.4</ele>
        <time>2021-10-11T15:32:58Z</time>
      </trkpt>
      <trkpt lat="42.6783980" lon="-5.9121950">
        <ele>1105.0</ele>
        <time>2021-10-11T15:33:08Z</time>
      </trkpt>
      <trkpt lat="42.6784250" lon="-5.9121950">
        <ele>1105.0</ele>
        <time>2021-10-11T15:33:09Z</time>
      </trkpt>
      <trkpt lat="42.6784430" lon="-5.9121860">
        <ele>1105.0</ele>
        <time>2021-10-11T15:33:10Z</time>
      </trkpt>
      <trkpt lat="42.6784520" lon="-5.9121770">
        <ele>1104.8</ele>
        <time>2021-10-11T15:33:11Z</time>
      </trkpt>
      <trkpt lat="42.6784550" lon="-5.9121730">
        <ele>1104.8</ele>
        <time>2021-10-11T15:33:13Z</time>
      </trkpt>
      <trkpt lat="42.6783620" lon="-5.9121970">
        <ele>1104.6</ele>
        <time>2021-10-11T15:34:10Z</time>
      </trkpt>
      <trkpt lat="42.6783280" lon="-5.9122110">
        <ele>1104.6</ele>
        <time>2021-10-11T15:34:11Z</time>
      </trkpt>
      <trkpt lat="42.6782950" lon="-5.9122200">
        <ele>1104.6</ele>
        <time>2021-10-11T15:34:12Z</time>
      </trkpt>
      <trkpt lat="42.6781900" lon="-5.9122410">
        <ele>1104.4</ele>
        <time>2021-10-11T15:34:15Z</time>
      </trkpt>
      <trkpt lat="42.6781130" lon="-5.9122690">
        <ele>1104.4</ele>
        <time>2021-10-11T15:34:17Z</time>
      </trkpt>
      <trkpt lat="42.6780740" lon="-5.9122750">
        <ele>1104.4</ele>
        <time>2021-10-11T15:34:18Z</time>
      </trkpt>
      <trkpt lat="42.6779930" lon="-5.9122880">
        <ele>1104.4</ele>
        <time>2021-10-11T15:34:20Z</time>
      </trkpt>
      <trkpt lat="42.6778080" lon="-5.9123530">
        <ele>1104.4</ele>
        <time>2021-10-11T15:34:25Z</time>
      </trkpt>
      <trkpt lat="42.6776230" lon="-5.9124090">
        <ele>1104.4</ele>
        <time>2021-10-11T15:34:29Z</time>
      </trkpt>
      <trkpt lat="42.6774800" lon="-5.9124400">
        <ele>1104.4</ele>
        <time>2021-10-11T15:34:32Z</time>
      </trkpt>
      <trkpt lat="42.6772220" lon="-5.9124730">
        <ele>1104.4</ele>
        <time>2021-10-11T15:34:39Z</time>
      </trkpt>
      <trkpt lat="42.6771540" lon="-5.9124940">
        <ele>1104.4</ele>
        <time>2021-10-11T15:34:41Z</time>
      </trkpt>
      <trkpt lat="42.6769070" lon="-5.9125450">
        <ele>1104.4</ele>
        <time>2021-10-11T15:34:47Z</time>
      </trkpt>
      <trkpt lat="42.6767320" lon="-5.9125740">
        <ele>1104.0</ele>
        <time>2021-10-11T15:34:51Z</time>
      </trkpt>
      <trkpt lat="42.6765980" lon="-5.9126040">
        <ele>1103.0</ele>
        <time>2021-10-11T15:34:54Z</time>
      </trkpt>
      <trkpt lat="42.6765490" lon="-5.9126050">
        <ele>1102.4</ele>
        <time>2021-10-11T15:34:55Z</time>
      </trkpt>
      <trkpt lat="42.6764640" lon="-5.9126190">
        <ele>1102.0</ele>
        <time>2021-10-11T15:34:57Z</time>
      </trkpt>
      <trkpt lat="42.6764040" lon="-5.9126500">
        <ele>1101.0</ele>
        <time>2021-10-11T15:34:59Z</time>
      </trkpt>
      <trkpt lat="42.6763620" lon="-5.9126750">
        <ele>1099.8</ele>
        <time>2021-10-11T15:35:01Z</time>
      </trkpt>
      <trkpt lat="42.6763310" lon="-5.9126940">
        <ele>1099.2</ele>
        <time>2021-10-11T15:35:03Z</time>
      </trkpt>
      <trkpt lat="42.6763080" lon="-5.9127120">
        <ele>1098.6</ele>
        <time>2021-10-11T15:35:06Z</time>
      </trkpt>
      <trkpt lat="42.6763080" lon="-5.9127120">
        <ele>1098.4</ele>
        <time>2021-10-11T15:35:07Z</time>
      </trkpt>
      <trkpt lat="42.6762640" lon="-5.9127300">
        <ele>1097.8</ele>
        <time>2021-10-11T15:35:18Z</time>
      </trkpt>
      <trkpt lat="42.6762520" lon="-5.9127400">
        <ele>1097.8</ele>
        <time>2021-10-11T15:35:19Z</time>
      </trkpt>
      <trkpt lat="42.6762030" lon="-5.9127850">
        <ele>1097.6</ele>
        <time>2021-10-11T15:35:22Z</time>
      </trkpt>
      <trkpt lat="42.6761400" lon="-5.9128300">
        <ele>1096.8</ele>
        <time>2021-10-11T15:35:25Z</time>
      </trkpt>
      <trkpt lat="42.6760880" lon="-5.9128670">
        <ele>1096.2</ele>
        <time>2021-10-11T15:35:27Z</time>
      </trkpt>
      <trkpt lat="42.6760520" lon="-5.9128940">
        <ele>1095.8</ele>
        <time>2021-10-11T15:35:28Z</time>
      </trkpt>
      <trkpt lat="42.6759820" lon="-5.9129430">
        <ele>1094.6</ele>
        <time>2021-10-11T15:35:30Z</time>
      </trkpt>
      <trkpt lat="42.6759450" lon="-5.9129710">
        <ele>1094.2</ele>
        <time>2021-10-11T15:35:31Z</time>
      </trkpt>
      <trkpt lat="42.6758450" lon="-5.9130390">
        <ele>1093.2</ele>
        <time>2021-10-11T15:35:34Z</time>
      </trkpt>
      <trkpt lat="42.6757790" lon="-5.9130800">
        <ele>1092.8</ele>
        <time>2021-10-11T15:35:36Z</time>
      </trkpt>
      <trkpt lat="42.6756960" lon="-5.9131270">
        <ele>1092.2</ele>
        <time>2021-10-11T15:35:39Z</time>
      </trkpt>
      <trkpt lat="42.6755850" lon="-5.9131840">
        <ele>1091.8</ele>
        <time>2021-10-11T15:35:43Z</time>
      </trkpt>
      <trkpt lat="42.6753600" lon="-5.9132170">
        <ele>1092.6</ele>
        <time>2021-10-11T15:35:50Z</time>
      </trkpt>
      <trkpt lat="42.6753040" lon="-5.9132340">
        <ele>1093.0</ele>
        <time>2021-10-11T15:35:52Z</time>
      </trkpt>
      <trkpt lat="42.6752740" lon="-5.9132410">
        <ele>1093.0</ele>
        <time>2021-10-11T15:35:53Z</time>
      </trkpt>
      <trkpt lat="42.6752410" lon="-5.9132450">
        <ele>1093.2</ele>
        <time>2021-10-11T15:35:54Z</time>
      </trkpt>
      <trkpt lat="42.6751550" lon="-5.9132600">
        <ele>1093.8</ele>
        <time>2021-10-11T15:35:57Z</time>
      </trkpt>
      <trkpt lat="42.6750890" lon="-5.9132750">
        <ele>1094.2</ele>
        <time>2021-10-11T15:35:59Z</time>
      </trkpt>
      <trkpt lat="42.6750580" lon="-5.9132800">
        <ele>1094.4</ele>
        <time>2021-10-11T15:36:00Z</time>
      </trkpt>
      <trkpt lat="42.6749640" lon="-5.9132960">
        <ele>1094.4</ele>
        <time>2021-10-11T15:36:03Z</time>
      </trkpt>
      <trkpt lat="42.6748920" lon="-5.9133090">
        <ele>1094.6</ele>
        <time>2021-10-11T15:36:05Z</time>
      </trkpt>
      <trkpt lat="42.6748120" lon="-5.9133250">
        <ele>1094.8</ele>
        <time>2021-10-11T15:36:10Z</time>
      </trkpt>
      <trkpt lat="42.6748120" lon="-5.9133250">
        <ele>1094.8</ele>
        <time>2021-10-11T15:36:11Z</time>
      </trkpt>
      <trkpt lat="42.6747880" lon="-5.9134230">
        <ele>1096.6</ele>
        <time>2021-10-11T15:37:38Z</time>
      </trkpt>
      <trkpt lat="42.6747800" lon="-5.9134420">
        <ele>1096.6</ele>
        <time>2021-10-11T15:37:39Z</time>
      </trkpt>
      <trkpt lat="42.6747640" lon="-5.9134900">
        <ele>1096.6</ele>
        <time>2021-10-11T15:37:41Z</time>
      </trkpt>
      <trkpt lat="42.6747170" lon="-5.9136420">
        <ele>1096.8</ele>
        <time>2021-10-11T15:37:46Z</time>
      </trkpt>
      <trkpt lat="42.6747090" lon="-5.9136780">
        <ele>1096.8</ele>
        <time>2021-10-11T15:37:47Z</time>
      </trkpt>
      <trkpt lat="42.6746600" lon="-5.9138680">
        <ele>1097.4</ele>
        <time>2021-10-11T15:37:52Z</time>
      </trkpt>
      <trkpt lat="42.6746480" lon="-5.9139540">
        <ele>1097.6</ele>
        <time>2021-10-11T15:37:54Z</time>
      </trkpt>
      <trkpt lat="42.6746120" lon="-5.9140920">
        <ele>1098.2</ele>
        <time>2021-10-11T15:37:58Z</time>
      </trkpt>
      <trkpt lat="42.6745900" lon="-5.9141810">
        <ele>1098.6</ele>
        <time>2021-10-11T15:38:01Z</time>
      </trkpt>
      <trkpt lat="42.6745780" lon="-5.9142140">
        <ele>1098.8</ele>
        <time>2021-10-11T15:38:02Z</time>
      </trkpt>
      <trkpt lat="42.6745240" lon="-5.9143460">
        <ele>1099.4</ele>
        <time>2021-10-11T15:38:06Z</time>
      </trkpt>
      <trkpt lat="42.6745150" lon="-5.9143690">
        <ele>1099.8</ele>
        <time>2021-10-11T15:38:07Z</time>
      </trkpt>
      <trkpt lat="42.6745090" lon="-5.9143940">
        <ele>1100.0</ele>
        <time>2021-10-11T15:38:08Z</time>
      </trkpt>
      <trkpt lat="42.6744750" lon="-5.9145130">
        <ele>1100.6</ele>
        <time>2021-10-11T15:38:12Z</time>
      </trkpt>
      <trkpt lat="42.6744530" lon="-5.9145730">
        <ele>1100.8</ele>
        <time>2021-10-11T15:38:14Z</time>
      </trkpt>
      <trkpt lat="42.6744180" lon="-5.9146920">
        <ele>1101.4</ele>
        <time>2021-10-11T15:38:18Z</time>
      </trkpt>
      <trkpt lat="42.6743770" lon="-5.9148140">
        <ele>1101.8</ele>
        <time>2021-10-11T15:38:22Z</time>
      </trkpt>
      <trkpt lat="42.6743560" lon="-5.9148840">
        <ele>1101.8</ele>
        <time>2021-10-11T15:38:24Z</time>
      </trkpt>
      <trkpt lat="42.6742790" lon="-5.9151280">
        <ele>1102.4</ele>
        <time>2021-10-11T15:38:31Z</time>
      </trkpt>
      <trkpt lat="42.6741940" lon="-5.9154620">
        <ele>1102.6</ele>
        <time>2021-10-11T15:38:38Z</time>
      </trkpt>
      <trkpt lat="42.6741490" lon="-5.9156100">
        <ele>1102.6</ele>
        <time>2021-10-11T15:38:41Z</time>
      </trkpt>
      <trkpt lat="42.6741180" lon="-5.9157150">
        <ele>1102.8</ele>
        <time>2021-10-11T15:38:43Z</time>
      </trkpt>
      <trkpt lat="42.6741010" lon="-5.9157690">
        <ele>1102.8</ele>
        <time>2021-10-11T15:38:44Z</time>
      </trkpt>
      <trkpt lat="42.6740780" lon="-5.9158780">
        <ele>1102.8</ele>
        <time>2021-10-11T15:38:46Z</time>
      </trkpt>
      <trkpt lat="42.6740480" lon="-5.9159790">
        <ele>1102.8</ele>
        <time>2021-10-11T15:38:48Z</time>
      </trkpt>
      <trkpt lat="42.6740210" lon="-5.9160830">
        <ele>1102.4</ele>
        <time>2021-10-11T15:38:50Z</time>
      </trkpt>
      <trkpt lat="42.6739750" lon="-5.9162370">
        <ele>1101.2</ele>
        <time>2021-10-11T15:38:54Z</time>
      </trkpt>
      <trkpt lat="42.6739710" lon="-5.9162740">
        <ele>1101.0</ele>
        <time>2021-10-11T15:38:55Z</time>
      </trkpt>
      <trkpt lat="42.6739540" lon="-5.9163560">
        <ele>1100.8</ele>
        <time>2021-10-11T15:38:57Z</time>
      </trkpt>
      <trkpt lat="42.6739230" lon="-5.9165090">
        <ele>1099.8</ele>
        <time>2021-10-11T15:39:01Z</time>
      </trkpt>
      <trkpt lat="42.6739150" lon="-5.9165390">
        <ele>1099.6</ele>
        <time>2021-10-11T15:39:02Z</time>
      </trkpt>
      <trkpt lat="42.6739030" lon="-5.9165880">
        <ele>1099.2</ele>
        <time>2021-10-11T15:39:04Z</time>
      </trkpt>
      <trkpt lat="42.6738850" lon="-5.9166600">
        <ele>1098.4</ele>
        <time>2021-10-11T15:39:07Z</time>
      </trkpt>
      <trkpt lat="42.6738400" lon="-5.9168630">
        <ele>1097.4</ele>
        <time>2021-10-11T15:39:13Z</time>
      </trkpt>
      <trkpt lat="42.6738360" lon="-5.9169020">
        <ele>1097.4</ele>
        <time>2021-10-11T15:39:14Z</time>
      </trkpt>
      <trkpt lat="42.6738270" lon="-5.9169630">
        <ele>1096.0</ele>
        <time>2021-10-11T15:39:16Z</time>
      </trkpt>
      <trkpt lat="42.6738080" lon="-5.9170250">
        <ele>1095.4</ele>
        <time>2021-10-11T15:39:19Z</time>
      </trkpt>
      <trkpt lat="42.6737990" lon="-5.9170430">
        <ele>1094.8</ele>
        <time>2021-10-11T15:39:20Z</time>
      </trkpt>
      <trkpt lat="42.6737900" lon="-5.9170660">
        <ele>1094.4</ele>
        <time>2021-10-11T15:39:21Z</time>
      </trkpt>
      <trkpt lat="42.6737590" lon="-5.9171430">
        <ele>1092.8</ele>
        <time>2021-10-11T15:39:24Z</time>
      </trkpt>
      <trkpt lat="42.6737140" lon="-5.9172920">
        <ele>1091.4</ele>
        <time>2021-10-11T15:39:27Z</time>
      </trkpt>
      <trkpt lat="42.6736920" lon="-5.9173550">
        <ele>1091.2</ele>
        <time>2021-10-11T15:39:28Z</time>
      </trkpt>
      <trkpt lat="42.6736550" lon="-5.9174820">
        <ele>1090.0</ele>
        <time>2021-10-11T15:39:31Z</time>
      </trkpt>
      <trkpt lat="42.6736360" lon="-5.9175560">
        <ele>1089.8</ele>
        <time>2021-10-11T15:39:33Z</time>
      </trkpt>
      <trkpt lat="42.6736090" lon="-5.9176280">
        <ele>1089.8</ele>
        <time>2021-10-11T15:39:35Z</time>
      </trkpt>
      <trkpt lat="42.6735430" lon="-5.9177650">
        <ele>1089.8</ele>
        <time>2021-10-11T15:39:38Z</time>
      </trkpt>
      <trkpt lat="42.6735090" lon="-5.9178800">
        <ele>1089.6</ele>
        <time>2021-10-11T15:39:41Z</time>
      </trkpt>
      <trkpt lat="42.6734980" lon="-5.9179410">
        <ele>1088.8</ele>
        <time>2021-10-11T15:39:44Z</time>
      </trkpt>
      <trkpt lat="42.6734810" lon="-5.9179730">
        <ele>1088.4</ele>
        <time>2021-10-11T15:39:46Z</time>
      </trkpt>
      <trkpt lat="42.6734680" lon="-5.9180060">
        <ele>1087.8</ele>
        <time>2021-10-11T15:39:48Z</time>
      </trkpt>
      <trkpt lat="42.6734470" lon="-5.9180850">
        <ele>1087.0</ele>
        <time>2021-10-11T15:39:52Z</time>
      </trkpt>
      <trkpt lat="42.6734360" lon="-5.9181020">
        <ele>1086.4</ele>
        <time>2021-10-11T15:39:53Z</time>
      </trkpt>
      <trkpt lat="42.6734270" lon="-5.9181260">
        <ele>1086.2</ele>
        <time>2021-10-11T15:39:54Z</time>
      </trkpt>
      <trkpt lat="42.6734170" lon="-5.9181540">
        <ele>1085.6</ele>
        <time>2021-10-11T15:39:55Z</time>
      </trkpt>
      <trkpt lat="42.6733760" lon="-5.9182650">
        <ele>1084.2</ele>
        <time>2021-10-11T15:39:58Z</time>
      </trkpt>
      <trkpt lat="42.6733620" lon="-5.9183190">
        <ele>1083.6</ele>
        <time>2021-10-11T15:39:59Z</time>
      </trkpt>
      <trkpt lat="42.6733510" lon="-5.9183740">
        <ele>1082.6</ele>
        <time>2021-10-11T15:40:00Z</time>
      </trkpt>
      <trkpt lat="42.6733250" lon="-5.9184830">
        <ele>1081.2</ele>
        <time>2021-10-11T15:40:03Z</time>
      </trkpt>
      <trkpt lat="42.6733170" lon="-5.9185130">
        <ele>1080.2</ele>
        <time>2021-10-11T15:40:05Z</time>
      </trkpt>
      <trkpt lat="42.6733140" lon="-5.9185230">
        <ele>1079.4</ele>
        <time>2021-10-11T15:40:07Z</time>
      </trkpt>
      <trkpt lat="42.6732770" lon="-5.9185930">
        <ele>1079.2</ele>
        <time>2021-10-11T15:40:14Z</time>
      </trkpt>
      <trkpt lat="42.6732650" lon="-5.9186460">
        <ele>1079.4</ele>
        <time>2021-10-11T15:40:17Z</time>
      </trkpt>
      <trkpt lat="42.6732620" lon="-5.9186500">
        <ele>1079.6</ele>
        <time>2021-10-11T15:40:19Z</time>
      </trkpt>
      <trkpt lat="42.6725860" lon="-5.9211030">
        <ele>1102.0</ele>
        <time>2021-10-11T15:45:09Z</time>
      </trkpt>
      <trkpt lat="42.6727290" lon="-5.9212470">
        <ele>1101.8</ele>
        <time>2021-10-11T15:45:16Z</time>
      </trkpt>
      <trkpt lat="42.6728010" lon="-5.9213120">
        <ele>1101.8</ele>
        <time>2021-10-11T15:45:19Z</time>
      </trkpt>
      <trkpt lat="42.6729010" lon="-5.9213890">
        <ele>1102.0</ele>
        <time>2021-10-11T15:45:23Z</time>
      </trkpt>
      <trkpt lat="42.6730570" lon="-5.9215030">
        <ele>1102.6</ele>
        <time>2021-10-11T15:45:29Z</time>
      </trkpt>
      <trkpt lat="42.6731510" lon="-5.9215760">
        <ele>1102.8</ele>
        <time>2021-10-11T15:45:33Z</time>
      </trkpt>
      <trkpt lat="42.6732050" lon="-5.9216100">
        <ele>1102.8</ele>
        <time>2021-10-11T15:45:35Z</time>
      </trkpt>
      <trkpt lat="42.6732860" lon="-5.9216580">
        <ele>1103.0</ele>
        <time>2021-10-11T15:45:38Z</time>
      </trkpt>
      <trkpt lat="42.6734400" lon="-5.9217730">
        <ele>1103.6</ele>
        <time>2021-10-11T15:45:43Z</time>
      </trkpt>
      <trkpt lat="42.6737080" lon="-5.9219430">
        <ele>1103.8</ele>
        <time>2021-10-11T15:45:51Z</time>
      </trkpt>
      <trkpt lat="42.6738780" lon="-5.9220650">
        <ele>1104.0</ele>
        <time>2021-10-11T15:45:56Z</time>
      </trkpt>
      <trkpt lat="42.6739860" lon="-5.9221320">
        <ele>1104.4</ele>
        <time>2021-10-11T15:45:59Z</time>
      </trkpt>
      <trkpt lat="42.6742690" lon="-5.9223300">
        <ele>1104.8</ele>
        <time>2021-10-11T15:46:08Z</time>
      </trkpt>
      <trkpt lat="42.6745090" lon="-5.9224830">
        <ele>1105.2</ele>
        <time>2021-10-11T15:46:16Z</time>
      </trkpt>
      <trkpt lat="42.6745730" lon="-5.9225310">
        <ele>1105.4</ele>
        <time>2021-10-11T15:46:18Z</time>
      </trkpt>
      <trkpt lat="42.6746340" lon="-5.9225810">
        <ele>1105.6</ele>
        <time>2021-10-11T15:46:20Z</time>
      </trkpt>
      <trkpt lat="42.6746850" lon="-5.9226350">
        <ele>1105.8</ele>
        <time>2021-10-11T15:46:22Z</time>
      </trkpt>
      <trkpt lat="42.6746990" lon="-5.9226780">
        <ele>1105.8</ele>
        <time>2021-10-11T15:46:23Z</time>
      </trkpt>
      <trkpt lat="42.6747020" lon="-5.9227670">
        <ele>1106.0</ele>
        <time>2021-10-11T15:46:25Z</time>
      </trkpt>
      <trkpt lat="42.6746830" lon="-5.9228630">
        <ele>1106.0</ele>
        <time>2021-10-11T15:46:27Z</time>
      </trkpt>
      <trkpt lat="42.6746580" lon="-5.9229560">
        <ele>1106.0</ele>
        <time>2021-10-11T15:46:29Z</time>
      </trkpt>
      <trkpt lat="42.6746010" lon="-5.9232040">
        <ele>1106.0</ele>
        <time>2021-10-11T15:46:34Z</time>
      </trkpt>
      <trkpt lat="42.6745510" lon="-5.9234140">
        <ele>1105.8</ele>
        <time>2021-10-11T15:46:38Z</time>
      </trkpt>
      <trkpt lat="42.6745000" lon="-5.9236200">
        <ele>1105.6</ele>
        <time>2021-10-11T15:46:42Z</time>
      </trkpt>
      <trkpt lat="42.6743980" lon="-5.9240070">
        <ele>1104.4</ele>
        <time>2021-10-11T15:46:49Z</time>
      </trkpt>
      <trkpt lat="42.6743700" lon="-5.9241240">
        <ele>1104.4</ele>
        <time>2021-10-11T15:46:51Z</time>
      </trkpt>
      <trkpt lat="42.6743310" lon="-5.9242240">
        <ele>1104.2</ele>
        <time>2021-10-11T15:46:53Z</time>
      </trkpt>
      <trkpt lat="42.6742700" lon="-5.9243560">
        <ele>1103.6</ele>
        <time>2021-10-11T15:46:56Z</time>
      </trkpt>
      <trkpt lat="42.6742510" lon="-5.9244380">
        <ele>1103.6</ele>
        <time>2021-10-11T15:46:58Z</time>
      </trkpt>
      <trkpt lat="42.6742360" lon="-5.9245700">
        <ele>1103.2</ele>
        <time>2021-10-11T15:47:01Z</time>
      </trkpt>
      <trkpt lat="42.6742260" lon="-5.9246170">
        <ele>1103.0</ele>
        <time>2021-10-11T15:47:02Z</time>
      </trkpt>
      <trkpt lat="42.6742020" lon="-5.9247150">
        <ele>1102.2</ele>
        <time>2021-10-11T15:47:05Z</time>
      </trkpt>
      <trkpt lat="42.6742000" lon="-5.9247300">
        <ele>1102.2</ele>
        <time>2021-10-11T15:47:06Z</time>
      </trkpt>
      <trkpt lat="42.6742010" lon="-5.9247450">
        <ele>1101.8</ele>
        <time>2021-10-11T15:47:07Z</time>
      </trkpt>
      <trkpt lat="42.6742000" lon="-5.9247970">
        <ele>1101.4</ele>
        <time>2021-10-11T15:47:13Z</time>
      </trkpt>
      <trkpt lat="42.6741810" lon="-5.9248190">
        <ele>1101.4</ele>
        <time>2021-10-11T15:47:19Z</time>
      </trkpt>
      <trkpt lat="42.6741630" lon="-5.9248380">
        <ele>1101.4</ele>
        <time>2021-10-11T15:47:23Z</time>
      </trkpt>
      <trkpt lat="42.6741640" lon="-5.9248570">
        <ele>1101.4</ele>
        <time>2021-10-11T15:47:25Z</time>
      </trkpt>
      <trkpt lat="42.6741540" lon="-5.9248740">
        <ele>1101.2</ele>
        <time>2021-10-11T15:47:27Z</time>
      </trkpt>
      <trkpt lat="42.6741290" lon="-5.9249370">
        <ele>1101.2</ele>
        <time>2021-10-11T15:47:32Z</time>
      </trkpt>
      <trkpt lat="42.6741280" lon="-5.9249600">
        <ele>1101.0</ele>
        <time>2021-10-11T15:47:34Z</time>
      </trkpt>
      <trkpt lat="42.6741080" lon="-5.9249980">
        <ele>1101.0</ele>
        <time>2021-10-11T15:47:36Z</time>
      </trkpt>
      <trkpt lat="42.6741030" lon="-5.9250180">
        <ele>1101.2</ele>
        <time>2021-10-11T15:47:37Z</time>
      </trkpt>
      <trkpt lat="42.6740990" lon="-5.9250320">
        <ele>1101.2</ele>
        <time>2021-10-11T15:47:38Z</time>
      </trkpt>
      <trkpt lat="42.6740960" lon="-5.9250430">
        <ele>1101.2</ele>
        <time>2021-10-11T15:47:39Z</time>
      </trkpt>
      <trkpt lat="42.6740990" lon="-5.9250620">
        <ele>1101.0</ele>
        <time>2021-10-11T15:47:42Z</time>
      </trkpt>
      <trkpt lat="42.6740980" lon="-5.9250680">
        <ele>1101.2</ele>
        <time>2021-10-11T15:47:43Z</time>
      </trkpt>
      <trkpt lat="42.6740890" lon="-5.9252350">
        <ele>1101.2</ele>
        <time>2021-10-11T15:48:26Z</time>
      </trkpt>
      <trkpt lat="42.6740850" lon="-5.9252750">
        <ele>1101.2</ele>
        <time>2021-10-11T15:48:27Z</time>
      </trkpt>
      <trkpt lat="42.6740790" lon="-5.9253200">
        <ele>1101.2</ele>
        <time>2021-10-11T15:48:28Z</time>
      </trkpt>
      <trkpt lat="42.6740380" lon="-5.9254830">
        <ele>1101.2</ele>
        <time>2021-10-11T15:48:31Z</time>
      </trkpt>
      <trkpt lat="42.6740140" lon="-5.9255840">
        <ele>1101.2</ele>
        <time>2021-10-11T15:48:33Z</time>
      </trkpt>
      <trkpt lat="42.6739540" lon="-5.9258120">
        <ele>1101.6</ele>
        <time>2021-10-11T15:48:37Z</time>
      </trkpt>
      <trkpt lat="42.6739190" lon="-5.9259300">
        <ele>1101.8</ele>
        <time>2021-10-11T15:48:39Z</time>
      </trkpt>
      <trkpt lat="42.6738270" lon="-5.9262120">
        <ele>1102.2</ele>
        <time>2021-10-11T15:48:44Z</time>
      </trkpt>
      <trkpt lat="42.6737900" lon="-5.9263040">
        <ele>1102.2</ele>
        <time>2021-10-11T15:48:46Z</time>
      </trkpt>
      <trkpt lat="42.6737430" lon="-5.9264620">
        <ele>1102.4</ele>
        <time>2021-10-11T15:48:49Z</time>
      </trkpt>
      <trkpt lat="42.6736940" lon="-5.9266930">
        <ele>1102.6</ele>
        <time>2021-10-11T15:48:53Z</time>
      </trkpt>
      <trkpt lat="42.6736180" lon="-5.9269350">
        <ele>1103.0</ele>
        <time>2021-10-11T15:48:58Z</time>
      </trkpt>
      <trkpt lat="42.6735960" lon="-5.9270340">
        <ele>1103.0</ele>
        <time>2021-10-11T15:49:00Z</time>
      </trkpt>
      <trkpt lat="42.6735270" lon="-5.9273560">
        <ele>1102.8</ele>
        <time>2021-10-11T15:49:06Z</time>
      </trkpt>
      <trkpt lat="42.6734460" lon="-5.9276960">
        <ele>1102.2</ele>
        <time>2021-10-11T15:49:13Z</time>
      </trkpt>
      <trkpt lat="42.6734200" lon="-5.9278080">
        <ele>1102.0</ele>
        <time>2021-10-11T15:49:15Z</time>
      </trkpt>
      <trkpt lat="42.6734070" lon="-5.9278660">
        <ele>1101.8</ele>
        <time>2021-10-11T15:49:16Z</time>
      </trkpt>
      <trkpt lat="42.6733960" lon="-5.9279280">
        <ele>1101.8</ele>
        <time>2021-10-11T15:49:17Z</time>
      </trkpt>
      <trkpt lat="42.6733750" lon="-5.9280410">
        <ele>1101.4</ele>
        <time>2021-10-11T15:49:19Z</time>
      </trkpt>
      <trkpt lat="42.6733630" lon="-5.9281190">
        <ele>1101.4</ele>
        <time>2021-10-11T15:49:20Z</time>
      </trkpt>
      <trkpt lat="42.6733520" lon="-5.9281840">
        <ele>1101.2</ele>
        <time>2021-10-11T15:49:21Z</time>
      </trkpt>
      <trkpt lat="42.6733220" lon="-5.9282850">
        <ele>1100.6</ele>
        <time>2021-10-11T15:49:23Z</time>
      </trkpt>
      <trkpt lat="42.6733030" lon="-5.9283300">
        <ele>1100.4</ele>
        <time>2021-10-11T15:49:24Z</time>
      </trkpt>
      <trkpt lat="42.6732470" lon="-5.9284420">
        <ele>1098.8</ele>
        <time>2021-10-11T15:49:27Z</time>
      </trkpt>
      <trkpt lat="42.6732180" lon="-5.9284890">
        <ele>1098.2</ele>
        <time>2021-10-11T15:49:29Z</time>
      </trkpt>
      <trkpt lat="42.6731930" lon="-5.9285250">
        <ele>1097.6</ele>
        <time>2021-10-11T15:49:31Z</time>
      </trkpt>
      <trkpt lat="42.6731850" lon="-5.9285380">
        <ele>1097.4</ele>
        <time>2021-10-11T15:49:34Z</time>
      </trkpt>
      <trkpt lat="42.6731280" lon="-5.9284510">
        <ele>1097.2</ele>
        <time>2021-10-11T15:50:21Z</time>
      </trkpt>
      <trkpt lat="42.6731020" lon="-5.9284580">
        <ele>1097.2</ele>
        <time>2021-10-11T15:50:22Z</time>
      </trkpt>
      <trkpt lat="42.6730750" lon="-5.9284620">
        <ele>1097.4</ele>
        <time>2021-10-11T15:50:23Z</time>
      </trkpt>
      <trkpt lat="42.6730460" lon="-5.9284660">
        <ele>1097.2</ele>
        <time>2021-10-11T15:50:24Z</time>
      </trkpt>
      <trkpt lat="42.6729480" lon="-5.9284870">
        <ele>1097.4</ele>
        <time>2021-10-11T15:50:27Z</time>
      </trkpt>
      <trkpt lat="42.6729200" lon="-5.9284910">
        <ele>1097.4</ele>
        <time>2021-10-11T15:50:28Z</time>
      </trkpt>
      <trkpt lat="42.6728140" lon="-5.9285010">
        <ele>1097.2</ele>
        <time>2021-10-11T15:50:31Z</time>
      </trkpt>
      <trkpt lat="42.6725940" lon="-5.9285100">
        <ele>1097.6</ele>
        <time>2021-10-11T15:50:37Z</time>
      </trkpt>
      <trkpt lat="42.6723040" lon="-5.9285180">
        <ele>1097.4</ele>
        <time>2021-10-11T15:50:44Z</time>
      </trkpt>
      <trkpt lat="42.6721690" lon="-5.9285160">
        <ele>1097.2</ele>
        <time>2021-10-11T15:50:47Z</time>
      </trkpt>
      <trkpt lat="42.6720890" lon="-5.9285120">
        <ele>1097.0</ele>
        <time>2021-10-11T15:50:49Z</time>
      </trkpt>
      <trkpt lat="42.6719600" lon="-5.9285270">
        <ele>1096.8</ele>
        <time>2021-10-11T15:50:52Z</time>
      </trkpt>
      <trkpt lat="42.6718100" lon="-5.9285390">
        <ele>1096.4</ele>
        <time>2021-10-11T15:50:55Z</time>
      </trkpt>
      <trkpt lat="42.6716130" lon="-5.9285420">
        <ele>1096.0</ele>
        <time>2021-10-11T15:50:59Z</time>
      </trkpt>
      <trkpt lat="42.6715570" lon="-5.9285390">
        <ele>1096.0</ele>
        <time>2021-10-11T15:51:00Z</time>
      </trkpt>
      <trkpt lat="42.6714600" lon="-5.9285540">
        <ele>1095.8</ele>
        <time>2021-10-11T15:51:02Z</time>
      </trkpt>
      <trkpt lat="42.6713280" lon="-5.9285400">
        <ele>1095.6</ele>
        <time>2021-10-11T15:51:04Z</time>
      </trkpt>
      <trkpt lat="42.6710640" lon="-5.9285520">
        <ele>1095.2</ele>
        <time>2021-10-11T15:51:09Z</time>
      </trkpt>
      <trkpt lat="42.6709370" lon="-5.9285660">
        <ele>1095.2</ele>
        <time>2021-10-11T15:51:12Z</time>
      </trkpt>
      <trkpt lat="42.6708410" lon="-5.9285780">
        <ele>1095.2</ele>
        <time>2021-10-11T15:51:14Z</time>
      </trkpt>
      <trkpt lat="42.6706370" lon="-5.9285840">
        <ele>1094.8</ele>
        <time>2021-10-11T15:51:19Z</time>
      </trkpt>
      <trkpt lat="42.6706080" lon="-5.9285860">
        <ele>1094.8</ele>
        <time>2021-10-11T15:51:20Z</time>
      </trkpt>
      <trkpt lat="42.6705710" lon="-5.9285890">
        <ele>1094.8</ele>
        <time>2021-10-11T15:51:21Z</time>
      </trkpt>
      <trkpt lat="42.6704300" lon="-5.9286030">
        <ele>1094.4</ele>
        <time>2021-10-11T15:51:24Z</time>
      </trkpt>
      <trkpt lat="42.6701470" lon="-5.9286530">
        <ele>1093.8</ele>
        <time>2021-10-11T15:51:31Z</time>
      </trkpt>
      <trkpt lat="42.6701090" lon="-5.9286650">
        <ele>1093.8</ele>
        <time>2021-10-11T15:51:32Z</time>
      </trkpt>
      <trkpt lat="42.6699020" lon="-5.9287190">
        <ele>1093.2</ele>
        <time>2021-10-11T15:51:37Z</time>
      </trkpt>
      <trkpt lat="42.6697750" lon="-5.9287510">
        <ele>1092.8</ele>
        <time>2021-10-11T15:51:40Z</time>
      </trkpt>
      <trkpt lat="42.6697280" lon="-5.9287650">
        <ele>1092.6</ele>
        <time>2021-10-11T15:51:41Z</time>
      </trkpt>
      <trkpt lat="42.6696810" lon="-5.9287800">
        <ele>1092.6</ele>
        <time>2021-10-11T15:51:42Z</time>
      </trkpt>
      <trkpt lat="42.6696330" lon="-5.9287980">
        <ele>1092.4</ele>
        <time>2021-10-11T15:51:43Z</time>
      </trkpt>
      <trkpt lat="42.6695930" lon="-5.9288110">
        <ele>1092.2</ele>
        <time>2021-10-11T15:51:44Z</time>
      </trkpt>
      <trkpt lat="42.6694840" lon="-5.9288420">
        <ele>1092.0</ele>
        <time>2021-10-11T15:51:46Z</time>
      </trkpt>
      <trkpt lat="42.6693880" lon="-5.9288860">
        <ele>1091.6</ele>
        <time>2021-10-11T15:51:48Z</time>
      </trkpt>
      <trkpt lat="42.6693010" lon="-5.9289380">
        <ele>1091.4</ele>
        <time>2021-10-11T15:51:50Z</time>
      </trkpt>
      <trkpt lat="42.6690850" lon="-5.9290510">
        <ele>1091.0</ele>
        <time>2021-10-11T15:51:54Z</time>
      </trkpt>
      <trkpt lat="42.6690340" lon="-5.9290790">
        <ele>1090.8</ele>
        <time>2021-10-11T15:51:55Z</time>
      </trkpt>
      <trkpt lat="42.6689310" lon="-5.9291420">
        <ele>1090.6</ele>
        <time>2021-10-11T15:51:57Z</time>
      </trkpt>
      <trkpt lat="42.6688410" lon="-5.9292010">
        <ele>1090.6</ele>
        <time>2021-10-11T15:51:59Z</time>
      </trkpt>
      <trkpt lat="42.6687300" lon="-5.9292730">
        <ele>1090.4</ele>
        <time>2021-10-11T15:52:01Z</time>
      </trkpt>
      <trkpt lat="42.6686000" lon="-5.9293710">
        <ele>1090.4</ele>
        <time>2021-10-11T15:52:04Z</time>
      </trkpt>
      <trkpt lat="42.6685530" lon="-5.9294020">
        <ele>1090.4</ele>
        <time>2021-10-11T15:52:05Z</time>
      </trkpt>
      <trkpt lat="42.6684030" lon="-5.9294860">
        <ele>1090.4</ele>
        <time>2021-10-11T15:52:08Z</time>
      </trkpt>
      <trkpt lat="42.6682320" lon="-5.9295560">
        <ele>1090.2</ele>
        <time>2021-10-11T15:52:11Z</time>
      </trkpt>
      <trkpt lat="42.6681770" lon="-5.9295780">
        <ele>1090.2</ele>
        <time>2021-10-11T15:52:12Z</time>
      </trkpt>
      <trkpt lat="42.6677440" lon="-5.9296960">
        <ele>1089.6</ele>
        <time>2021-10-11T15:52:20Z</time>
      </trkpt>
      <trkpt lat="42.6677030" lon="-5.9297040">
        <ele>1089.4</ele>
        <time>2021-10-11T15:52:21Z</time>
      </trkpt>
      <trkpt lat="42.6674540" lon="-5.9297800">
        <ele>1089.2</ele>
        <time>2021-10-11T15:52:26Z</time>
      </trkpt>
      <trkpt lat="42.6673510" lon="-5.9298130">
        <ele>1089.0</ele>
        <time>2021-10-11T15:52:28Z</time>
      </trkpt>
      <trkpt lat="42.6672490" lon="-5.9298440">
        <ele>1088.8</ele>
        <time>2021-10-11T15:52:30Z</time>
      </trkpt>
      <trkpt lat="42.6672080" lon="-5.9298530">
        <ele>1088.6</ele>
        <time>2021-10-11T15:52:31Z</time>
      </trkpt>
      <trkpt lat="42.6671180" lon="-5.9298720">
        <ele>1088.4</ele>
        <time>2021-10-11T15:52:33Z</time>
      </trkpt>
      <trkpt lat="42.6670830" lon="-5.9298790">
        <ele>1088.4</ele>
        <time>2021-10-11T15:52:34Z</time>
      </trkpt>
      <trkpt lat="42.6670260" lon="-5.9298880">
        <ele>1088.4</ele>
        <time>2021-10-11T15:52:36Z</time>
      </trkpt>
      <trkpt lat="42.6669610" lon="-5.9298990">
        <ele>1088.2</ele>
        <time>2021-10-11T15:52:38Z</time>
      </trkpt>
      <trkpt lat="42.6669090" lon="-5.9298970">
        <ele>1088.2</ele>
        <time>2021-10-11T15:52:40Z</time>
      </trkpt>
      <trkpt lat="42.6668770" lon="-5.9298920">
        <ele>1088.0</ele>
        <time>2021-10-11T15:52:41Z</time>
      </trkpt>
      <trkpt lat="42.6668350" lon="-5.9298870">
        <ele>1087.8</ele>
        <time>2021-10-11T15:52:42Z</time>
      </trkpt>
      <trkpt lat="42.6667670" lon="-5.9298540">
        <ele>1087.4</ele>
        <time>2021-10-11T15:52:44Z</time>
      </trkpt>
      <trkpt lat="42.6667420" lon="-5.9298390">
        <ele>1087.4</ele>
        <time>2021-10-11T15:52:45Z</time>
      </trkpt>
      <trkpt lat="42.6666290" lon="-5.9297910">
        <ele>1087.0</ele>
        <time>2021-10-11T15:52:48Z</time>
      </trkpt>
      <trkpt lat="42.6664300" lon="-5.9297030">
        <ele>1087.2</ele>
        <time>2021-10-11T15:52:53Z</time>
      </trkpt>
      <trkpt lat="42.6661630" lon="-5.9296020">
        <ele>1087.2</ele>
        <time>2021-10-11T15:52:59Z</time>
      </trkpt>
      <trkpt lat="42.6661160" lon="-5.9295880">
        <ele>1087.2</ele>
        <time>2021-10-11T15:53:00Z</time>
      </trkpt>
      <trkpt lat="42.6659180" lon="-5.9295260">
        <ele>1086.6</ele>
        <time>2021-10-11T15:53:04Z</time>
      </trkpt>
      <trkpt lat="42.6658210" lon="-5.9294970">
        <ele>1086.4</ele>
        <time>2021-10-11T15:53:06Z</time>
      </trkpt>
      <trkpt lat="42.6657340" lon="-5.9294570">
        <ele>1086.2</ele>
        <time>2021-10-11T15:53:08Z</time>
      </trkpt>
      <trkpt lat="42.6655150" lon="-5.9293860">
        <ele>1086.0</ele>
        <time>2021-10-11T15:53:12Z</time>
      </trkpt>
      <trkpt lat="42.6654080" lon="-5.9293570">
        <ele>1086.0</ele>
        <time>2021-10-11T15:53:14Z</time>
      </trkpt>
      <trkpt lat="42.6652760" lon="-5.9293280">
        <ele>1085.8</ele>
        <time>2021-10-11T15:53:16Z</time>
      </trkpt>
      <trkpt lat="42.6651010" lon="-5.9293220">
        <ele>1085.6</ele>
        <time>2021-10-11T15:53:19Z</time>
      </trkpt>
      <trkpt lat="42.6647120" lon="-5.9292990">
        <ele>1084.6</ele>
        <time>2021-10-11T15:53:25Z</time>
      </trkpt>
      <trkpt lat="42.6646450" lon="-5.9293030">
        <ele>1084.4</ele>
        <time>2021-10-11T15:53:26Z</time>
      </trkpt>
      <trkpt lat="42.6644430" lon="-5.9293180">
        <ele>1083.8</ele>
        <time>2021-10-11T15:53:30Z</time>
      </trkpt>
      <trkpt lat="42.6643100" lon="-5.9293240">
        <ele>1083.8</ele>
        <time>2021-10-11T15:53:33Z</time>
      </trkpt>
      <trkpt lat="42.6641070" lon="-5.9293320">
        <ele>1084.0</ele>
        <time>2021-10-11T15:53:37Z</time>
      </trkpt>
      <trkpt lat="42.6639370" lon="-5.9293380">
        <ele>1084.2</ele>
        <time>2021-10-11T15:53:40Z</time>
      </trkpt>
      <trkpt lat="42.6636550" lon="-5.9293340">
        <ele>1084.2</ele>
        <time>2021-10-11T15:53:45Z</time>
      </trkpt>
      <trkpt lat="42.6632270" lon="-5.9293330">
        <ele>1083.2</ele>
        <time>2021-10-11T15:53:53Z</time>
      </trkpt>
      <trkpt lat="42.6631760" lon="-5.9293300">
        <ele>1083.2</ele>
        <time>2021-10-11T15:53:54Z</time>
      </trkpt>
      <trkpt lat="42.6629220" lon="-5.9292640">
        <ele>1083.0</ele>
        <time>2021-10-11T15:53:59Z</time>
      </trkpt>
      <trkpt lat="42.6628500" lon="-5.9292570">
        <ele>1083.0</ele>
        <time>2021-10-11T15:54:01Z</time>
      </trkpt>
      <trkpt lat="42.6626890" lon="-5.9292680">
        <ele>1082.6</ele>
        <time>2021-10-11T15:54:04Z</time>
      </trkpt>
      <trkpt lat="42.6626450" lon="-5.9292710">
        <ele>1082.6</ele>
        <time>2021-10-11T15:54:05Z</time>
      </trkpt>
      <trkpt lat="42.6624250" lon="-5.9292620">
        <ele>1082.2</ele>
        <time>2021-10-11T15:54:09Z</time>
      </trkpt>
      <trkpt lat="42.6623340" lon="-5.9292610">
        <ele>1082.0</ele>
        <time>2021-10-11T15:54:11Z</time>
      </trkpt>
      <trkpt lat="42.6622270" lon="-5.9292670">
        <ele>1081.8</ele>
        <time>2021-10-11T15:54:13Z</time>
      </trkpt>
      <trkpt lat="42.6621880" lon="-5.9292680">
        <ele>1081.8</ele>
        <time>2021-10-11T15:54:14Z</time>
      </trkpt>
      <trkpt lat="42.6620910" lon="-5.9292800">
        <ele>1081.8</ele>
        <time>2021-10-11T15:54:16Z</time>
      </trkpt>
      <trkpt lat="42.6620020" lon="-5.9292890">
        <ele>1081.6</ele>
        <time>2021-10-11T15:54:18Z</time>
      </trkpt>
      <trkpt lat="42.6619570" lon="-5.9292920">
        <ele>1081.4</ele>
        <time>2021-10-11T15:54:19Z</time>
      </trkpt>
      <trkpt lat="42.6618700" lon="-5.9292880">
        <ele>1081.4</ele>
        <time>2021-10-11T15:54:21Z</time>
      </trkpt>
      <trkpt lat="42.6615640" lon="-5.9292570">
        <ele>1081.6</ele>
        <time>2021-10-11T15:54:28Z</time>
      </trkpt>
      <trkpt lat="42.6614150" lon="-5.9292350">
        <ele>1081.6</ele>
        <time>2021-10-11T15:54:32Z</time>
      </trkpt>
      <trkpt lat="42.6613140" lon="-5.9292120">
        <ele>1081.4</ele>
        <time>2021-10-11T15:54:35Z</time>
      </trkpt>
      <trkpt lat="42.6610140" lon="-5.9291650">
        <ele>1081.4</ele>
        <time>2021-10-11T15:54:42Z</time>
      </trkpt>
      <trkpt lat="42.6609750" lon="-5.9291600">
        <ele>1081.4</ele>
        <time>2021-10-11T15:54:43Z</time>
      </trkpt>
      <trkpt lat="42.6608640" lon="-5.9291460">
        <ele>1081.2</ele>
        <time>2021-10-11T15:54:45Z</time>
      </trkpt>
      <trkpt lat="42.6607380" lon="-5.9291260">
        <ele>1081.4</ele>
        <time>2021-10-11T15:54:48Z</time>
      </trkpt>
      <trkpt lat="42.6606930" lon="-5.9291160">
        <ele>1081.4</ele>
        <time>2021-10-11T15:54:49Z</time>
      </trkpt>
      <trkpt lat="42.6605950" lon="-5.9290900">
        <ele>1081.4</ele>
        <time>2021-10-11T15:54:51Z</time>
      </trkpt>
      <trkpt lat="42.6605120" lon="-5.9290660">
        <ele>1081.2</ele>
        <time>2021-10-11T15:54:53Z</time>
      </trkpt>
      <trkpt lat="42.6603240" lon="-5.9290160">
        <ele>1081.2</ele>
        <time>2021-10-11T15:54:57Z</time>
      </trkpt>
      <trkpt lat="42.6602760" lon="-5.9290030">
        <ele>1081.2</ele>
        <time>2021-10-11T15:54:58Z</time>
      </trkpt>
      <trkpt lat="42.6601160" lon="-5.9289500">
        <ele>1081.0</ele>
        <time>2021-10-11T15:55:01Z</time>
      </trkpt>
      <trkpt lat="42.6600240" lon="-5.9289200">
        <ele>1081.0</ele>
        <time>2021-10-11T15:55:03Z</time>
      </trkpt>
      <trkpt lat="42.6599730" lon="-5.9289010">
        <ele>1081.0</ele>
        <time>2021-10-11T15:55:04Z</time>
      </trkpt>
      <trkpt lat="42.6599120" lon="-5.9288800">
        <ele>1081.0</ele>
        <time>2021-10-11T15:55:05Z</time>
      </trkpt>
      <trkpt lat="42.6597690" lon="-5.9288300">
        <ele>1081.0</ele>
        <time>2021-10-11T15:55:08Z</time>
      </trkpt>
      <trkpt lat="42.6594430" lon="-5.9287230">
        <ele>1080.4</ele>
        <time>2021-10-11T15:55:14Z</time>
      </trkpt>
      <trkpt lat="42.6592710" lon="-5.9286730">
        <ele>1080.2</ele>
        <time>2021-10-11T15:55:17Z</time>
      </trkpt>
      <trkpt lat="42.6590990" lon="-5.9286340">
        <ele>1080.0</ele>
        <time>2021-10-11T15:55:20Z</time>
      </trkpt>
      <trkpt lat="42.6587760" lon="-5.9285490">
        <ele>1079.4</ele>
        <time>2021-10-11T15:55:26Z</time>
      </trkpt>
      <trkpt lat="42.6585640" lon="-5.9284750">
        <ele>1079.0</ele>
        <time>2021-10-11T15:55:30Z</time>
      </trkpt>
      <trkpt lat="42.6584610" lon="-5.9284380">
        <ele>1078.6</ele>
        <time>2021-10-11T15:55:32Z</time>
      </trkpt>
      <trkpt lat="42.6583640" lon="-5.9284060">
        <ele>1078.2</ele>
        <time>2021-10-11T15:55:34Z</time>
      </trkpt>
      <trkpt lat="42.6582660" lon="-5.9283700">
        <ele>1078.2</ele>
        <time>2021-10-11T15:55:36Z</time>
      </trkpt>
      <trkpt lat="42.6581700" lon="-5.9283370">
        <ele>1078.0</ele>
        <time>2021-10-11T15:55:38Z</time>
      </trkpt>
      <trkpt lat="42.6581250" lon="-5.9283190">
        <ele>1078.0</ele>
        <time>2021-10-11T15:55:39Z</time>
      </trkpt>
      <trkpt lat="42.6576960" lon="-5.9281680">
        <ele>1078.4</ele>
        <time>2021-10-11T15:55:48Z</time>
      </trkpt>
      <trkpt lat="42.6575540" lon="-5.9281190">
        <ele>1078.4</ele>
        <time>2021-10-11T15:55:51Z</time>
      </trkpt>
      <trkpt lat="42.6573050" lon="-5.9280320">
        <ele>1078.8</ele>
        <time>2021-10-11T15:55:56Z</time>
      </trkpt>
      <trkpt lat="42.6572120" lon="-5.9279960">
        <ele>1078.6</ele>
        <time>2021-10-11T15:55:58Z</time>
      </trkpt>
      <trkpt lat="42.6569130" lon="-5.9278930">
        <ele>1078.0</ele>
        <time>2021-10-11T15:56:04Z</time>
      </trkpt>
      <trkpt lat="42.6568470" lon="-5.9278690">
        <ele>1077.8</ele>
        <time>2021-10-11T15:56:05Z</time>
      </trkpt>
      <trkpt lat="42.6566800" lon="-5.9278080">
        <ele>1077.4</ele>
        <time>2021-10-11T15:56:08Z</time>
      </trkpt>
      <trkpt lat="42.6566250" lon="-5.9277870">
        <ele>1077.2</ele>
        <time>2021-10-11T15:56:09Z</time>
      </trkpt>
      <trkpt lat="42.6564010" lon="-5.9277030">
        <ele>1077.0</ele>
        <time>2021-10-11T15:56:13Z</time>
      </trkpt>
      <trkpt lat="42.6561080" lon="-5.9276150">
        <ele>1076.4</ele>
        <time>2021-10-11T15:56:18Z</time>
      </trkpt>
      <trkpt lat="42.6560500" lon="-5.9276010">
        <ele>1076.4</ele>
        <time>2021-10-11T15:56:19Z</time>
      </trkpt>
      <trkpt lat="42.6558770" lon="-5.9275740">
        <ele>1076.0</ele>
        <time>2021-10-11T15:56:22Z</time>
      </trkpt>
      <trkpt lat="42.6557600" lon="-5.9275570">
        <ele>1075.8</ele>
        <time>2021-10-11T15:56:24Z</time>
      </trkpt>
      <trkpt lat="42.6555890" lon="-5.9275210">
        <ele>1075.4</ele>
        <time>2021-10-11T15:56:27Z</time>
      </trkpt>
      <trkpt lat="42.6554740" lon="-5.9274940">
        <ele>1075.2</ele>
        <time>2021-10-11T15:56:29Z</time>
      </trkpt>
      <trkpt lat="42.6553570" lon="-5.9274790">
        <ele>1075.0</ele>
        <time>2021-10-11T15:56:31Z</time>
      </trkpt>
      <trkpt lat="42.6552370" lon="-5.9274690">
        <ele>1074.8</ele>
        <time>2021-10-11T15:56:33Z</time>
      </trkpt>
      <trkpt lat="42.6551200" lon="-5.9274590">
        <ele>1074.4</ele>
        <time>2021-10-11T15:56:35Z</time>
      </trkpt>
      <trkpt lat="42.6550040" lon="-5.9274460">
        <ele>1074.4</ele>
        <time>2021-10-11T15:56:37Z</time>
      </trkpt>
      <trkpt lat="42.6546450" lon="-5.9274170">
        <ele>1073.8</ele>
        <time>2021-10-11T15:56:43Z</time>
      </trkpt>
      <trkpt lat="42.6545880" lon="-5.9274120">
        <ele>1073.8</ele>
        <time>2021-10-11T15:56:44Z</time>
      </trkpt>
      <trkpt lat="42.6544670" lon="-5.9274190">
        <ele>1073.6</ele>
        <time>2021-10-11T15:56:46Z</time>
      </trkpt>
      <trkpt lat="42.6542870" lon="-5.9274490">
        <ele>1073.4</ele>
        <time>2021-10-11T15:56:49Z</time>
      </trkpt>
      <trkpt lat="42.6541640" lon="-5.9274760">
        <ele>1073.2</ele>
        <time>2021-10-11T15:56:51Z</time>
      </trkpt>
      <trkpt lat="42.6540420" lon="-5.9275090">
        <ele>1073.2</ele>
        <time>2021-10-11T15:56:53Z</time>
      </trkpt>
      <trkpt lat="42.6539830" lon="-5.9275230">
        <ele>1073.2</ele>
        <time>2021-10-11T15:56:54Z</time>
      </trkpt>
      <trkpt lat="42.6538630" lon="-5.9275470">
        <ele>1073.0</ele>
        <time>2021-10-11T15:56:56Z</time>
      </trkpt>
      <trkpt lat="42.6538030" lon="-5.9275570">
        <ele>1073.0</ele>
        <time>2021-10-11T15:56:57Z</time>
      </trkpt>
      <trkpt lat="42.6537420" lon="-5.9275690">
        <ele>1073.0</ele>
        <time>2021-10-11T15:56:58Z</time>
      </trkpt>
      <trkpt lat="42.6536300" lon="-5.9275900">
        <ele>1073.0</ele>
        <time>2021-10-11T15:57:00Z</time>
      </trkpt>
      <trkpt lat="42.6532970" lon="-5.9276600">
        <ele>1072.8</ele>
        <time>2021-10-11T15:57:06Z</time>
      </trkpt>
      <trkpt lat="42.6531720" lon="-5.9276860">
        <ele>1072.8</ele>
        <time>2021-10-11T15:57:08Z</time>
      </trkpt>
      <trkpt lat="42.6529220" lon="-5.9277390">
        <ele>1072.4</ele>
        <time>2021-10-11T15:57:12Z</time>
      </trkpt>
      <trkpt lat="42.6527430" lon="-5.9277620">
        <ele>1072.2</ele>
        <time>2021-10-11T15:57:15Z</time>
      </trkpt>
      <trkpt lat="42.6525190" lon="-5.9278050">
        <ele>1071.6</ele>
        <time>2021-10-11T15:57:19Z</time>
      </trkpt>
      <trkpt lat="42.6524650" lon="-5.9278140">
        <ele>1071.4</ele>
        <time>2021-10-11T15:57:20Z</time>
      </trkpt>
      <trkpt lat="42.6524110" lon="-5.9278180">
        <ele>1071.2</ele>
        <time>2021-10-11T15:57:21Z</time>
      </trkpt>
      <trkpt lat="42.6522130" lon="-5.9278710">
        <ele>1071.0</ele>
        <time>2021-10-11T15:57:25Z</time>
      </trkpt>
      <trkpt lat="42.6521620" lon="-5.9278800">
        <ele>1071.0</ele>
        <time>2021-10-11T15:57:26Z</time>
      </trkpt>
      <trkpt lat="42.6521090" lon="-5.9278890">
        <ele>1070.8</ele>
        <time>2021-10-11T15:57:27Z</time>
      </trkpt>
      <trkpt lat="42.6520060" lon="-5.9279150">
        <ele>1070.8</ele>
        <time>2021-10-11T15:57:29Z</time>
      </trkpt>
      <trkpt lat="42.6517930" lon="-5.9279830">
        <ele>1070.2</ele>
        <time>2021-10-11T15:57:33Z</time>
      </trkpt>
      <trkpt lat="42.6517410" lon="-5.9280060">
        <ele>1070.2</ele>
        <time>2021-10-11T15:57:34Z</time>
      </trkpt>
      <trkpt lat="42.6515300" lon="-5.9280810">
        <ele>1069.8</ele>
        <time>2021-10-11T15:57:38Z</time>
      </trkpt>
      <trkpt lat="42.6514000" lon="-5.9281270">
        <ele>1069.2</ele>
        <time>2021-10-11T15:57:41Z</time>
      </trkpt>
      <trkpt lat="42.6513330" lon="-5.9281480">
        <ele>1068.0</ele>
        <time>2021-10-11T15:57:43Z</time>
      </trkpt>
      <trkpt lat="42.6512660" lon="-5.9282030">
        <ele>1067.2</ele>
        <time>2021-10-11T15:57:46Z</time>
      </trkpt>
      <trkpt lat="42.6512470" lon="-5.9282240">
        <ele>1067.0</ele>
        <time>2021-10-11T15:57:47Z</time>
      </trkpt>
      <trkpt lat="42.6512400" lon="-5.9282290">
        <ele>1066.2</ele>
        <time>2021-10-11T15:57:50Z</time>
      </trkpt>
      <trkpt lat="42.6511830" lon="-5.9282440">
        <ele>1065.2</ele>
        <time>2021-10-11T15:57:55Z</time>
      </trkpt>
      <trkpt lat="42.6511110" lon="-5.9282500">
        <ele>1065.0</ele>
        <time>2021-10-11T15:57:57Z</time>
      </trkpt>
      <trkpt lat="42.6509280" lon="-5.9282360">
        <ele>1064.4</ele>
        <time>2021-10-11T15:58:01Z</time>
      </trkpt>
      <trkpt lat="42.6508800" lon="-5.9282330">
        <ele>1064.2</ele>
        <time>2021-10-11T15:58:02Z</time>
      </trkpt>
      <trkpt lat="42.6508340" lon="-5.9282300">
        <ele>1063.6</ele>
        <time>2021-10-11T15:58:03Z</time>
      </trkpt>
      <trkpt lat="42.6507390" lon="-5.9282260">
        <ele>1062.4</ele>
        <time>2021-10-11T15:58:05Z</time>
      </trkpt>
      <trkpt lat="42.6506340" lon="-5.9282190">
        <ele>1061.4</ele>
        <time>2021-10-11T15:58:07Z</time>
      </trkpt>
      <trkpt lat="42.6504850" lon="-5.9281900">
        <ele>1060.6</ele>
        <time>2021-10-11T15:58:10Z</time>
      </trkpt>
      <trkpt lat="42.6504400" lon="-5.9281730">
        <ele>1060.0</ele>
        <time>2021-10-11T15:58:11Z</time>
      </trkpt>
      <trkpt lat="42.6503100" lon="-5.9281540">
        <ele>1058.0</ele>
        <time>2021-10-11T15:58:14Z</time>
      </trkpt>
      <trkpt lat="42.6502220" lon="-5.9281550">
        <ele>1057.0</ele>
        <time>2021-10-11T15:58:16Z</time>
      </trkpt>
      <trkpt lat="42.6500840" lon="-5.9281680">
        <ele>1056.2</ele>
        <time>2021-10-11T15:58:19Z</time>
      </trkpt>
      <trkpt lat="42.6500240" lon="-5.9281650">
        <ele>1056.0</ele>
        <time>2021-10-11T15:58:20Z</time>
      </trkpt>
      <trkpt lat="42.6499250" lon="-5.9281440">
        <ele>1054.0</ele>
        <time>2021-10-11T15:58:22Z</time>
      </trkpt>
      <trkpt lat="42.6498760" lon="-5.9281240">
        <ele>1053.4</ele>
        <time>2021-10-11T15:58:23Z</time>
      </trkpt>
      <trkpt lat="42.6498240" lon="-5.9281070">
        <ele>1052.8</ele>
        <time>2021-10-11T15:58:24Z</time>
      </trkpt>
      <trkpt lat="42.6496640" lon="-5.9280800">
        <ele>1051.6</ele>
        <time>2021-10-11T15:58:27Z</time>
      </trkpt>
      <trkpt lat="42.6495480" lon="-5.9280690">
        <ele>1051.2</ele>
        <time>2021-10-11T15:58:29Z</time>
      </trkpt>
      <trkpt lat="42.6493230" lon="-5.9280410">
        <ele>1050.4</ele>
        <time>2021-10-11T15:58:33Z</time>
      </trkpt>
      <trkpt lat="42.6490570" lon="-5.9280040">
        <ele>1049.4</ele>
        <time>2021-10-11T15:58:38Z</time>
      </trkpt>
      <trkpt lat="42.6488720" lon="-5.9279910">
        <ele>1049.4</ele>
        <time>2021-10-11T15:58:42Z</time>
      </trkpt>
      <trkpt lat="42.6487920" lon="-5.9279760">
        <ele>1049.4</ele>
        <time>2021-10-11T15:58:44Z</time>
      </trkpt>
      <trkpt lat="42.6485450" lon="-5.9279480">
        <ele>1050.6</ele>
        <time>2021-10-11T15:58:51Z</time>
      </trkpt>
      <trkpt lat="42.6484120" lon="-5.9279280">
        <ele>1051.2</ele>
        <time>2021-10-11T15:58:55Z</time>
      </trkpt>
      <trkpt lat="42.6483190" lon="-5.9279410">
        <ele>1051.6</ele>
        <time>2021-10-11T15:58:58Z</time>
      </trkpt>
      <trkpt lat="42.6482880" lon="-5.9279400">
        <ele>1051.8</ele>
        <time>2021-10-11T15:58:59Z</time>
      </trkpt>
      <trkpt lat="42.6480920" lon="-5.9279280">
        <ele>1052.6</ele>
        <time>2021-10-11T15:59:05Z</time>
      </trkpt>
      <trkpt lat="42.6479900" lon="-5.9279170">
        <ele>1053.0</ele>
        <time>2021-10-11T15:59:08Z</time>
      </trkpt>
      <trkpt lat="42.6478760" lon="-5.9279160">
        <ele>1053.4</ele>
        <time>2021-10-11T15:59:11Z</time>
      </trkpt>
      <trkpt lat="42.6478340" lon="-5.9279140">
        <ele>1053.4</ele>
        <time>2021-10-11T15:59:12Z</time>
      </trkpt>
      <trkpt lat="42.6477910" lon="-5.9279130">
        <ele>1053.4</ele>
        <time>2021-10-11T15:59:13Z</time>
      </trkpt>
      <trkpt lat="42.6477040" lon="-5.9279210">
        <ele>1053.4</ele>
        <time>2021-10-11T15:59:15Z</time>
      </trkpt>
      <trkpt lat="42.6476570" lon="-5.9279260">
        <ele>1053.2</ele>
        <time>2021-10-11T15:59:16Z</time>
      </trkpt>
      <trkpt lat="42.6476110" lon="-5.9279340">
        <ele>1053.2</ele>
        <time>2021-10-11T15:59:17Z</time>
      </trkpt>
      <trkpt lat="42.6475590" lon="-5.9279430">
        <ele>1053.2</ele>
        <time>2021-10-11T15:59:18Z</time>
      </trkpt>
      <trkpt lat="42.6474550" lon="-5.9279670">
        <ele>1052.8</ele>
        <time>2021-10-11T15:59:20Z</time>
      </trkpt>
      <trkpt lat="42.6473540" lon="-5.9280070">
        <ele>1052.4</ele>
        <time>2021-10-11T15:59:22Z</time>
      </trkpt>
      <trkpt lat="42.6472740" lon="-5.9280570">
        <ele>1051.8</ele>
        <time>2021-10-11T15:59:24Z</time>
      </trkpt>
      <trkpt lat="42.6472460" lon="-5.9280810">
        <ele>1051.6</ele>
        <time>2021-10-11T15:59:25Z</time>
      </trkpt>
      <trkpt lat="42.6471910" lon="-5.9281370">
        <ele>1050.8</ele>
        <time>2021-10-11T15:59:27Z</time>
      </trkpt>
      <trkpt lat="42.6471380" lon="-5.9281830">
        <ele>1050.2</ele>
        <time>2021-10-11T15:59:29Z</time>
      </trkpt>
      <trkpt lat="42.6470560" lon="-5.9282530">
        <ele>1049.4</ele>
        <time>2021-10-11T15:59:32Z</time>
      </trkpt>
      <trkpt lat="42.6470240" lon="-5.9282740">
        <ele>1049.0</ele>
        <time>2021-10-11T15:59:33Z</time>
      </trkpt>
      <trkpt lat="42.6469540" lon="-5.9283250">
        <ele>1048.6</ele>
        <time>2021-10-11T15:59:36Z</time>
      </trkpt>
      <trkpt lat="42.6469440" lon="-5.9283400">
        <ele>1048.0</ele>
        <time>2021-10-11T15:59:38Z</time>
      </trkpt>
      <trkpt lat="42.6469440" lon="-5.9283400">
        <ele>1047.8</ele>
        <time>2021-10-11T15:59:39Z</time>
      </trkpt>
      <trkpt lat="42.6470060" lon="-5.9282860">
        <ele>1046.8</ele>
        <time>2021-10-11T16:00:03Z</time>
      </trkpt>
      <trkpt lat="42.6470370" lon="-5.9282620">
        <ele>1047.0</ele>
        <time>2021-10-11T16:00:05Z</time>
      </trkpt>
      <trkpt lat="42.6470890" lon="-5.9282230">
        <ele>1047.0</ele>
        <time>2021-10-11T16:00:09Z</time>
      </trkpt>
      <trkpt lat="42.6471100" lon="-5.9282060">
        <ele>1047.2</ele>
        <time>2021-10-11T16:00:11Z</time>
      </trkpt>
      <trkpt lat="42.6471900" lon="-5.9281330">
        <ele>1048.2</ele>
        <time>2021-10-11T16:00:18Z</time>
      </trkpt>
      <trkpt lat="42.6472240" lon="-5.9281030">
        <ele>1048.4</ele>
        <time>2021-10-11T16:00:21Z</time>
      </trkpt>
      <trkpt lat="42.6472590" lon="-5.9280790">
        <ele>1049.0</ele>
        <time>2021-10-11T16:00:25Z</time>
      </trkpt>
      <trkpt lat="42.6472630" lon="-5.9280800">
        <ele>1049.2</ele>
        <time>2021-10-11T16:00:26Z</time>
      </trkpt>
      <trkpt lat="42.6472630" lon="-5.9280800">
        <ele>1049.2</ele>
        <time>2021-10-11T16:00:27Z</time>
      </trkpt>
      <trkpt lat="42.6472870" lon="-5.9291650">
        <ele>1057.2</ele>
        <time>2021-10-11T16:02:38Z</time>
      </trkpt>
      <trkpt lat="42.6472860" lon="-5.9292020">
        <ele>1057.2</ele>
        <time>2021-10-11T16:02:39Z</time>
      </trkpt>
      <trkpt lat="42.6472760" lon="-5.9293980">
        <ele>1057.2</ele>
        <time>2021-10-11T16:02:44Z</time>
      </trkpt>
      <trkpt lat="42.6472700" lon="-5.9294350">
        <ele>1057.0</ele>
        <time>2021-10-11T16:02:45Z</time>
      </trkpt>
      <trkpt lat="42.6472350" lon="-5.9295760">
        <ele>1056.2</ele>
        <time>2021-10-11T16:02:50Z</time>
      </trkpt>
      <trkpt lat="42.6472070" lon="-5.9296510">
        <ele>1055.8</ele>
        <time>2021-10-11T16:02:53Z</time>
      </trkpt>
      <trkpt lat="42.6471840" lon="-5.9296990">
        <ele>1055.0</ele>
        <time>2021-10-11T16:02:55Z</time>
      </trkpt>
      <trkpt lat="42.6471570" lon="-5.9297450">
        <ele>1054.0</ele>
        <time>2021-10-11T16:02:57Z</time>
      </trkpt>
      <trkpt lat="42.6471300" lon="-5.9297840">
        <ele>1052.8</ele>
        <time>2021-10-11T16:02:59Z</time>
      </trkpt>
      <trkpt lat="42.6471010" lon="-5.9298160">
        <ele>1052.2</ele>
        <time>2021-10-11T16:03:01Z</time>
      </trkpt>
      <trkpt lat="42.6470780" lon="-5.9298440">
        <ele>1051.4</ele>
        <time>2021-10-11T16:03:03Z</time>
      </trkpt>
      <trkpt lat="42.6470340" lon="-5.9298900">
        <ele>1050.0</ele>
        <time>2021-10-11T16:03:06Z</time>
      </trkpt>
      <trkpt lat="42.6470310" lon="-5.9298940">
        <ele>1049.8</ele>
        <time>2021-10-11T16:03:07Z</time>
      </trkpt>
      <trkpt lat="42.6470310" lon="-5.9298940">
        <ele>1049.4</ele>
        <time>2021-10-11T16:03:08Z</time>
      </trkpt>
      <trkpt lat="42.6470310" lon="-5.9298940">
        <ele>1049.2</ele>
        <time>2021-10-11T16:03:09Z</time>
      </trkpt>
      <trkpt lat="42.6472540" lon="-5.9302050">
        <ele>1039.0</ele>
        <time>2021-10-11T16:04:03Z</time>
      </trkpt>
      <trkpt lat="42.6472730" lon="-5.9302140">
        <ele>1039.0</ele>
        <time>2021-10-11T16:04:04Z</time>
      </trkpt>
      <trkpt lat="42.6472990" lon="-5.9302230">
        <ele>1039.0</ele>
        <time>2021-10-11T16:04:05Z</time>
      </trkpt>
      <trkpt lat="42.6474380" lon="-5.9303310">
        <ele>1038.2</ele>
        <time>2021-10-11T16:04:09Z</time>
      </trkpt>
      <trkpt lat="42.6474750" lon="-5.9303650">
        <ele>1037.6</ele>
        <time>2021-10-11T16:04:10Z</time>
      </trkpt>
      <trkpt lat="42.6475140" lon="-5.9303980">
        <ele>1037.0</ele>
        <time>2021-10-11T16:04:11Z</time>
      </trkpt>
      <trkpt lat="42.6475440" lon="-5.9304160">
        <ele>1036.2</ele>
        <time>2021-10-11T16:04:12Z</time>
      </trkpt>
      <trkpt lat="42.6476420" lon="-5.9304780">
        <ele>1035.6</ele>
        <time>2021-10-11T16:04:15Z</time>
      </trkpt>
      <trkpt lat="42.6477150" lon="-5.9305440">
        <ele>1035.4</ele>
        <time>2021-10-11T16:04:18Z</time>
      </trkpt>
      <trkpt lat="42.6477590" lon="-5.9306240">
        <ele>1035.2</ele>
        <time>2021-10-11T16:04:20Z</time>
      </trkpt>
      <trkpt lat="42.6477670" lon="-5.9306640">
        <ele>1035.2</ele>
        <time>2021-10-11T16:04:21Z</time>
      </trkpt>
      <trkpt lat="42.6477600" lon="-5.9307810">
        <ele>1035.2</ele>
        <time>2021-10-11T16:04:24Z</time>
      </trkpt>
      <trkpt lat="42.6477610" lon="-5.9310010">
        <ele>1035.2</ele>
        <time>2021-10-11T16:04:30Z</time>
      </trkpt>
      <trkpt lat="42.6477760" lon="-5.9311200">
        <ele>1035.6</ele>
        <time>2021-10-11T16:04:35Z</time>
      </trkpt>
      <trkpt lat="42.6477090" lon="-5.9312830">
        <ele>1036.0</ele>
        <time>2021-10-11T16:04:42Z</time>
      </trkpt>
      <trkpt lat="42.6476390" lon="-5.9313840">
        <ele>1036.6</ele>
        <time>2021-10-11T16:04:47Z</time>
      </trkpt>
      <trkpt lat="42.6476320" lon="-5.9313980">
        <ele>1036.8</ele>
        <time>2021-10-11T16:04:48Z</time>
      </trkpt>
      <trkpt lat="42.6475550" lon="-5.9315030">
        <ele>1038.0</ele>
        <time>2021-10-11T16:04:54Z</time>
      </trkpt>
      <trkpt lat="42.6475390" lon="-5.9315240">
        <ele>1038.2</ele>
        <time>2021-10-11T16:04:55Z</time>
      </trkpt>
      <trkpt lat="42.6475280" lon="-5.9315420">
        <ele>1038.4</ele>
        <time>2021-10-11T16:04:56Z</time>
      </trkpt>
      <trkpt lat="42.6474710" lon="-5.9316230">
        <ele>1039.0</ele>
        <time>2021-10-11T16:05:02Z</time>
      </trkpt>
      <trkpt lat="42.6474510" lon="-5.9316520">
        <ele>1039.2</ele>
        <time>2021-10-11T16:05:03Z</time>
      </trkpt>
      <trkpt lat="42.6473950" lon="-5.9317340">
        <ele>1040.0</ele>
        <time>2021-10-11T16:05:08Z</time>
      </trkpt>
      <trkpt lat="42.6473670" lon="-5.9317700">
        <ele>1040.2</ele>
        <time>2021-10-11T16:05:10Z</time>
      </trkpt>
      <trkpt lat="42.6473010" lon="-5.9318610">
        <ele>1040.6</ele>
        <time>2021-10-11T16:05:14Z</time>
      </trkpt>
      <trkpt lat="42.6472820" lon="-5.9318910">
        <ele>1041.2</ele>
        <time>2021-10-11T16:05:20Z</time>
      </trkpt>
      <trkpt lat="42.6472640" lon="-5.9319220">
        <ele>1041.4</ele>
        <time>2021-10-11T16:05:22Z</time>
      </trkpt>
      <trkpt lat="42.6472450" lon="-5.9319520">
        <ele>1041.6</ele>
        <time>2021-10-11T16:05:23Z</time>
      </trkpt>
      <trkpt lat="42.6472260" lon="-5.9319830">
        <ele>1041.6</ele>
        <time>2021-10-11T16:05:24Z</time>
      </trkpt>
      <trkpt lat="42.6472170" lon="-5.9320010">
        <ele>1042.0</ele>
        <time>2021-10-11T16:05:25Z</time>
      </trkpt>
      <trkpt lat="42.6471950" lon="-5.9320550">
        <ele>1042.2</ele>
        <time>2021-10-11T16:05:28Z</time>
      </trkpt>
      <trkpt lat="42.6471670" lon="-5.9321100">
        <ele>1042.6</ele>
        <time>2021-10-11T16:05:32Z</time>
      </trkpt>
      <trkpt lat="42.6471590" lon="-5.9321270">
        <ele>1042.6</ele>
        <time>2021-10-11T16:05:33Z</time>
      </trkpt>
      <trkpt lat="42.6471450" lon="-5.9321600">
        <ele>1043.0</ele>
        <time>2021-10-11T16:05:35Z</time>
      </trkpt>
      <trkpt lat="42.6471230" lon="-5.9322080">
        <ele>1043.2</ele>
        <time>2021-10-11T16:05:38Z</time>
      </trkpt>
      <trkpt lat="42.6471160" lon="-5.9322270">
        <ele>1043.4</ele>
        <time>2021-10-11T16:05:39Z</time>
      </trkpt>
      <trkpt lat="42.6470830" lon="-5.9322770">
        <ele>1044.0</ele>
        <time>2021-10-11T16:05:45Z</time>
      </trkpt>
      <trkpt lat="42.6470830" lon="-5.9322770">
        <ele>1044.0</ele>
        <time>2021-10-11T16:05:46Z</time>
      </trkpt>
      <trkpt lat="42.6461970" lon="-5.9331770">
        <ele>1052.6</ele>
        <time>2021-10-11T16:08:18Z</time>
      </trkpt>
      <trkpt lat="42.6461830" lon="-5.9332000">
        <ele>1052.6</ele>
        <time>2021-10-11T16:08:19Z</time>
      </trkpt>
      <trkpt lat="42.6461660" lon="-5.9332240">
        <ele>1052.8</ele>
        <time>2021-10-11T16:08:20Z</time>
      </trkpt>
      <trkpt lat="42.6460430" lon="-5.9333480">
        <ele>1052.8</ele>
        <time>2021-10-11T16:08:26Z</time>
      </trkpt>
      <trkpt lat="42.6459840" lon="-5.9333930">
        <ele>1052.8</ele>
        <time>2021-10-11T16:08:29Z</time>
      </trkpt>
      <trkpt lat="42.6458450" lon="-5.9334680">
        <ele>1053.0</ele>
        <time>2021-10-11T16:08:36Z</time>
      </trkpt>
      <trkpt lat="42.6457630" lon="-5.9335220">
        <ele>1053.4</ele>
        <time>2021-10-11T16:08:41Z</time>
      </trkpt>
      <trkpt lat="42.6456840" lon="-5.9335720">
        <ele>1053.8</ele>
        <time>2021-10-11T16:08:44Z</time>
      </trkpt>
      <trkpt lat="42.6456520" lon="-5.9335990">
        <ele>1054.0</ele>
        <time>2021-10-11T16:08:46Z</time>
      </trkpt>
      <trkpt lat="42.6456370" lon="-5.9336140">
        <ele>1054.2</ele>
        <time>2021-10-11T16:08:47Z</time>
      </trkpt>
      <trkpt lat="42.6456200" lon="-5.9336290">
        <ele>1054.4</ele>
        <time>2021-10-11T16:08:48Z</time>
      </trkpt>
      <trkpt lat="42.6456010" lon="-5.9336440">
        <ele>1054.6</ele>
        <time>2021-10-11T16:08:49Z</time>
      </trkpt>
      <trkpt lat="42.6455820" lon="-5.9336540">
        <ele>1054.8</ele>
        <time>2021-10-11T16:08:50Z</time>
      </trkpt>
      <trkpt lat="42.6455620" lon="-5.9336660">
        <ele>1055.0</ele>
        <time>2021-10-11T16:08:51Z</time>
      </trkpt>
      <trkpt lat="42.6455490" lon="-5.9336770">
        <ele>1055.0</ele>
        <time>2021-10-11T16:08:52Z</time>
      </trkpt>
      <trkpt lat="42.6455360" lon="-5.9336890">
        <ele>1055.2</ele>
        <time>2021-10-11T16:08:53Z</time>
      </trkpt>
      <trkpt lat="42.6455220" lon="-5.9337030">
        <ele>1055.2</ele>
        <time>2021-10-11T16:08:54Z</time>
      </trkpt>
      <trkpt lat="42.6455080" lon="-5.9337160">
        <ele>1055.4</ele>
        <time>2021-10-11T16:08:55Z</time>
      </trkpt>
      <trkpt lat="42.6454660" lon="-5.9337670">
        <ele>1056.0</ele>
        <time>2021-10-11T16:08:58Z</time>
      </trkpt>
      <trkpt lat="42.6454400" lon="-5.9338050">
        <ele>1056.4</ele>
        <time>2021-10-11T16:09:01Z</time>
      </trkpt>
      <trkpt lat="42.6454100" lon="-5.9338400">
        <ele>1056.6</ele>
        <time>2021-10-11T16:09:02Z</time>
      </trkpt>
      <trkpt lat="42.6453540" lon="-5.9339380">
        <ele>1057.2</ele>
        <time>2021-10-11T16:09:07Z</time>
      </trkpt>
      <trkpt lat="42.6453430" lon="-5.9339580">
        <ele>1057.2</ele>
        <time>2021-10-11T16:09:08Z</time>
      </trkpt>
      <trkpt lat="42.6453340" lon="-5.9339790">
        <ele>1057.2</ele>
        <time>2021-10-11T16:09:10Z</time>
      </trkpt>
      <trkpt lat="42.6453030" lon="-5.9340420">
        <ele>1057.6</ele>
        <time>2021-10-11T16:09:12Z</time>
      </trkpt>
      <trkpt lat="42.6452800" lon="-5.9340810">
        <ele>1057.8</ele>
        <time>2021-10-11T16:09:14Z</time>
      </trkpt>
      <trkpt lat="42.6452520" lon="-5.9341230">
        <ele>1057.8</ele>
        <time>2021-10-11T16:09:16Z</time>
      </trkpt>
      <trkpt lat="42.6452210" lon="-5.9341720">
        <ele>1058.0</ele>
        <time>2021-10-11T16:09:18Z</time>
      </trkpt>
      <trkpt lat="42.6451810" lon="-5.9342320">
        <ele>1058.2</ele>
        <time>2021-10-11T16:09:20Z</time>
      </trkpt>
      <trkpt lat="42.6451590" lon="-5.9342640">
        <ele>1058.2</ele>
        <time>2021-10-11T16:09:21Z</time>
      </trkpt>
      <trkpt lat="42.6450770" lon="-5.9343590">
        <ele>1058.2</ele>
        <time>2021-10-11T16:09:24Z</time>
      </trkpt>
      <trkpt lat="42.6449740" lon="-5.9345120">
        <ele>1057.8</ele>
        <time>2021-10-11T16:09:28Z</time>
      </trkpt>
      <trkpt lat="42.6448960" lon="-5.9347140">
        <ele>1057.0</ele>
        <time>2021-10-11T16:09:33Z</time>
      </trkpt>
      <trkpt lat="42.6448720" lon="-5.9348030">
        <ele>1056.6</ele>
        <time>2021-10-11T16:09:35Z</time>
      </trkpt>
      <trkpt lat="42.6448590" lon="-5.9348440">
        <ele>1055.8</ele>
        <time>2021-10-11T16:09:36Z</time>
      </trkpt>
      <trkpt lat="42.6448510" lon="-5.9348780">
        <ele>1055.4</ele>
        <time>2021-10-11T16:09:37Z</time>
      </trkpt>
      <trkpt lat="42.6448230" lon="-5.9349720">
        <ele>1054.8</ele>
        <time>2021-10-11T16:09:39Z</time>
      </trkpt>
      <trkpt lat="42.6447720" lon="-5.9350870">
        <ele>1053.2</ele>
        <time>2021-10-11T16:09:42Z</time>
      </trkpt>
      <trkpt lat="42.6447600" lon="-5.9351170">
        <ele>1053.0</ele>
        <time>2021-10-11T16:09:43Z</time>
      </trkpt>
      <trkpt lat="42.6447280" lon="-5.9351930">
        <ele>1051.8</ele>
        <time>2021-10-11T16:09:46Z</time>
      </trkpt>
      <trkpt lat="42.6447190" lon="-5.9352140">
        <ele>1051.6</ele>
        <time>2021-10-11T16:09:47Z</time>
      </trkpt>
      <trkpt lat="42.6446990" lon="-5.9352560">
        <ele>1051.4</ele>
        <time>2021-10-11T16:09:49Z</time>
      </trkpt>
      <trkpt lat="42.6446810" lon="-5.9353020">
        <ele>1051.2</ele>
        <time>2021-10-11T16:09:51Z</time>
      </trkpt>
      <trkpt lat="42.6446720" lon="-5.9353220">
        <ele>1051.2</ele>
        <time>2021-10-11T16:09:52Z</time>
      </trkpt>
      <trkpt lat="42.6446500" lon="-5.9353660">
        <ele>1051.0</ele>
        <time>2021-10-11T16:09:54Z</time>
      </trkpt>
      <trkpt lat="42.6446390" lon="-5.9353890">
        <ele>1050.8</ele>
        <time>2021-10-11T16:09:55Z</time>
      </trkpt>
      <trkpt lat="42.6445670" lon="-5.9355330">
        <ele>1049.8</ele>
        <time>2021-10-11T16:10:02Z</time>
      </trkpt>
      <trkpt lat="42.6445580" lon="-5.9355490">
        <ele>1049.6</ele>
        <time>2021-10-11T16:10:03Z</time>
      </trkpt>
      <trkpt lat="42.6445170" lon="-5.9356390">
        <ele>1048.6</ele>
        <time>2021-10-11T16:10:09Z</time>
      </trkpt>
      <trkpt lat="42.6444730" lon="-5.9357430">
        <ele>1047.6</ele>
        <time>2021-10-11T16:10:15Z</time>
      </trkpt>
      <trkpt lat="42.6444630" lon="-5.9357610">
        <ele>1047.6</ele>
        <time>2021-10-11T16:10:16Z</time>
      </trkpt>
      <trkpt lat="42.6443920" lon="-5.9358710">
        <ele>1046.4</ele>
        <time>2021-10-11T16:10:21Z</time>
      </trkpt>
      <trkpt lat="42.6443580" lon="-5.9359240">
        <ele>1046.2</ele>
        <time>2021-10-11T16:10:23Z</time>
      </trkpt>
      <trkpt lat="42.6443190" lon="-5.9359720">
        <ele>1045.6</ele>
        <time>2021-10-11T16:10:25Z</time>
      </trkpt>
      <trkpt lat="42.6442980" lon="-5.9359980">
        <ele>1045.2</ele>
        <time>2021-10-11T16:10:26Z</time>
      </trkpt>
      <trkpt lat="42.6442560" lon="-5.9360660">
        <ele>1044.2</ele>
        <time>2021-10-11T16:10:29Z</time>
      </trkpt>
      <trkpt lat="42.6442430" lon="-5.9360830">
        <ele>1044.2</ele>
        <time>2021-10-11T16:10:30Z</time>
      </trkpt>
      <trkpt lat="42.6441740" lon="-5.9362190">
        <ele>1042.8</ele>
        <time>2021-10-11T16:10:35Z</time>
      </trkpt>
      <trkpt lat="42.6441440" lon="-5.9362770">
        <ele>1042.4</ele>
        <time>2021-10-11T16:10:37Z</time>
      </trkpt>
      <trkpt lat="42.6441150" lon="-5.9363360">
        <ele>1041.8</ele>
        <time>2021-10-11T16:10:39Z</time>
      </trkpt>
      <trkpt lat="42.6441000" lon="-5.9363620">
        <ele>1041.6</ele>
        <time>2021-10-11T16:10:40Z</time>
      </trkpt>
      <trkpt lat="42.6440650" lon="-5.9364580">
        <ele>1040.8</ele>
        <time>2021-10-11T16:10:43Z</time>
      </trkpt>
      <trkpt lat="42.6440520" lon="-5.9365120">
        <ele>1040.4</ele>
        <time>2021-10-11T16:10:44Z</time>
      </trkpt>
      <trkpt lat="42.6440240" lon="-5.9366830">
        <ele>1039.6</ele>
        <time>2021-10-11T16:10:47Z</time>
      </trkpt>
      <trkpt lat="42.6440050" lon="-5.9367480">
        <ele>1039.4</ele>
        <time>2021-10-11T16:10:48Z</time>
      </trkpt>
      <trkpt lat="42.6439820" lon="-5.9368150">
        <ele>1039.0</ele>
        <time>2021-10-11T16:10:49Z</time>
      </trkpt>
      <trkpt lat="42.6439200" lon="-5.9369410">
        <ele>1038.6</ele>
        <time>2021-10-11T16:10:51Z</time>
      </trkpt>
      <trkpt lat="42.6438770" lon="-5.9370290">
        <ele>1038.0</ele>
        <time>2021-10-11T16:10:53Z</time>
      </trkpt>
      <trkpt lat="42.6438480" lon="-5.9370900">
        <ele>1037.8</ele>
        <time>2021-10-11T16:10:55Z</time>
      </trkpt>
      <trkpt lat="42.6437620" lon="-5.9372090">
        <ele>1038.0</ele>
        <time>2021-10-11T16:11:01Z</time>
      </trkpt>
      <trkpt lat="42.6437290" lon="-5.9372420">
        <ele>1038.2</ele>
        <time>2021-10-11T16:11:03Z</time>
      </trkpt>
      <trkpt lat="42.6436990" lon="-5.9372740">
        <ele>1038.8</ele>
        <time>2021-10-11T16:11:05Z</time>
      </trkpt>
      <trkpt lat="42.6436850" lon="-5.9372910">
        <ele>1039.2</ele>
        <time>2021-10-11T16:11:06Z</time>
      </trkpt>
      <trkpt lat="42.6436530" lon="-5.9373130">
        <ele>1039.4</ele>
        <time>2021-10-11T16:11:08Z</time>
      </trkpt>
      <trkpt lat="42.6436380" lon="-5.9373270">
        <ele>1039.6</ele>
        <time>2021-10-11T16:11:09Z</time>
      </trkpt>
      <trkpt lat="42.6436040" lon="-5.9373580">
        <ele>1040.0</ele>
        <time>2021-10-11T16:11:11Z</time>
      </trkpt>
      <trkpt lat="42.6435800" lon="-5.9373700">
        <ele>1040.2</ele>
        <time>2021-10-11T16:11:13Z</time>
      </trkpt>
      <trkpt lat="42.6435550" lon="-5.9373950">
        <ele>1040.4</ele>
        <time>2021-10-11T16:11:15Z</time>
      </trkpt>
      <trkpt lat="42.6435350" lon="-5.9374120">
        <ele>1040.4</ele>
        <time>2021-10-11T16:11:16Z</time>
      </trkpt>
      <trkpt lat="42.6434720" lon="-5.9374580">
        <ele>1041.0</ele>
        <time>2021-10-11T16:11:20Z</time>
      </trkpt>
      <trkpt lat="42.6434350" lon="-5.9374790">
        <ele>1041.4</ele>
        <time>2021-10-11T16:11:22Z</time>
      </trkpt>
      <trkpt lat="42.6433770" lon="-5.9375140">
        <ele>1041.8</ele>
        <time>2021-10-11T16:11:25Z</time>
      </trkpt>
      <trkpt lat="42.6433600" lon="-5.9375280">
        <ele>1041.8</ele>
        <time>2021-10-11T16:11:26Z</time>
      </trkpt>
      <trkpt lat="42.6433180" lon="-5.9375580">
        <ele>1042.0</ele>
        <time>2021-10-11T16:11:28Z</time>
      </trkpt>
      <trkpt lat="42.6433000" lon="-5.9375770">
        <ele>1042.2</ele>
        <time>2021-10-11T16:11:29Z</time>
      </trkpt>
      <trkpt lat="42.6432680" lon="-5.9376120">
        <ele>1042.4</ele>
        <time>2021-10-11T16:11:31Z</time>
      </trkpt>
      <trkpt lat="42.6432560" lon="-5.9376290">
        <ele>1042.4</ele>
        <time>2021-10-11T16:11:32Z</time>
      </trkpt>
      <trkpt lat="42.6432410" lon="-5.9376430">
        <ele>1042.6</ele>
        <time>2021-10-11T16:11:33Z</time>
      </trkpt>
      <trkpt lat="42.6432020" lon="-5.9376960">
        <ele>1042.8</ele>
        <time>2021-10-11T16:11:36Z</time>
      </trkpt>
      <trkpt lat="42.6431670" lon="-5.9377570">
        <ele>1043.2</ele>
        <time>2021-10-11T16:11:39Z</time>
      </trkpt>
      <trkpt lat="42.6431560" lon="-5.9377770">
        <ele>1043.4</ele>
        <time>2021-10-11T16:11:40Z</time>
      </trkpt>
      <trkpt lat="42.6431400" lon="-5.9378150">
        <ele>1043.8</ele>
        <time>2021-10-11T16:11:42Z</time>
      </trkpt>
      <trkpt lat="42.6431330" lon="-5.9378300">
        <ele>1043.8</ele>
        <time>2021-10-11T16:11:43Z</time>
      </trkpt>
      <trkpt lat="42.6430890" lon="-5.9379150">
        <ele>1044.6</ele>
        <time>2021-10-11T16:11:47Z</time>
      </trkpt>
      <trkpt lat="42.6430790" lon="-5.9379360">
        <ele>1044.8</ele>
        <time>2021-10-11T16:11:48Z</time>
      </trkpt>
      <trkpt lat="42.6430690" lon="-5.9379560">
        <ele>1044.8</ele>
        <time>2021-10-11T16:11:49Z</time>
      </trkpt>
      <trkpt lat="42.6430410" lon="-5.9380020">
        <ele>1045.0</ele>
        <time>2021-10-11T16:11:51Z</time>
      </trkpt>
      <trkpt lat="42.6430150" lon="-5.9380440">
        <ele>1045.0</ele>
        <time>2021-10-11T16:11:53Z</time>
      </trkpt>
      <trkpt lat="42.6429890" lon="-5.9380920">
        <ele>1045.2</ele>
        <time>2021-10-11T16:11:55Z</time>
      </trkpt>
      <trkpt lat="42.6429660" lon="-5.9381350">
        <ele>1045.4</ele>
        <time>2021-10-11T16:11:57Z</time>
      </trkpt>
      <trkpt lat="42.6429090" lon="-5.9382280">
        <ele>1045.6</ele>
        <time>2021-10-11T16:12:01Z</time>
      </trkpt>
      <trkpt lat="42.6428970" lon="-5.9382510">
        <ele>1045.8</ele>
        <time>2021-10-11T16:12:02Z</time>
      </trkpt>
      <trkpt lat="42.6428850" lon="-5.9382740">
        <ele>1045.8</ele>
        <time>2021-10-11T16:12:03Z</time>
      </trkpt>
      <trkpt lat="42.6428610" lon="-5.9383160">
        <ele>1046.0</ele>
        <time>2021-10-11T16:12:05Z</time>
      </trkpt>
      <trkpt lat="42.6428360" lon="-5.9383570">
        <ele>1046.2</ele>
        <time>2021-10-11T16:12:07Z</time>
      </trkpt>
      <trkpt lat="42.6428090" lon="-5.9383960">
        <ele>1046.4</ele>
        <time>2021-10-11T16:12:09Z</time>
      </trkpt>
      <trkpt lat="42.6427690" lon="-5.9384530">
        <ele>1046.6</ele>
        <time>2021-10-11T16:12:12Z</time>
      </trkpt>
      <trkpt lat="42.6427480" lon="-5.9384920">
        <ele>1047.0</ele>
        <time>2021-10-11T16:12:14Z</time>
      </trkpt>
      <trkpt lat="42.6427360" lon="-5.9385130">
        <ele>1047.0</ele>
        <time>2021-10-11T16:12:15Z</time>
      </trkpt>
      <trkpt lat="42.6427250" lon="-5.9385340">
        <ele>1047.2</ele>
        <time>2021-10-11T16:12:16Z</time>
      </trkpt>
      <trkpt lat="42.6427140" lon="-5.9385530">
        <ele>1047.2</ele>
        <time>2021-10-11T16:12:17Z</time>
      </trkpt>
      <trkpt lat="42.6426730" lon="-5.9386340">
        <ele>1047.4</ele>
        <time>2021-10-11T16:12:21Z</time>
      </trkpt>
      <trkpt lat="42.6426530" lon="-5.9386650">
        <ele>1047.6</ele>
        <time>2021-10-11T16:12:23Z</time>
      </trkpt>
      <trkpt lat="42.6426450" lon="-5.9386860">
        <ele>1047.8</ele>
        <time>2021-10-11T16:12:26Z</time>
      </trkpt>
      <trkpt lat="42.6426440" lon="-5.9386910">
        <ele>1047.8</ele>
        <time>2021-10-11T16:12:27Z</time>
      </trkpt>
      <trkpt lat="42.6424830" lon="-5.9390160">
        <ele>1049.4</ele>
        <time>2021-10-11T16:12:54Z</time>
      </trkpt>
      <trkpt lat="42.6424520" lon="-5.9390710">
        <ele>1049.4</ele>
        <time>2021-10-11T16:12:58Z</time>
      </trkpt>
      <trkpt lat="42.6424070" lon="-5.9391920">
        <ele>1049.8</ele>
        <time>2021-10-11T16:13:06Z</time>
      </trkpt>
      <trkpt lat="42.6423760" lon="-5.9392490">
        <ele>1050.2</ele>
        <time>2021-10-11T16:13:10Z</time>
      </trkpt>
      <trkpt lat="42.6423670" lon="-5.9392610">
        <ele>1050.4</ele>
        <time>2021-10-11T16:13:11Z</time>
      </trkpt>
      <trkpt lat="42.6423170" lon="-5.9393280">
        <ele>1050.4</ele>
        <time>2021-10-11T16:13:16Z</time>
      </trkpt>
      <trkpt lat="42.6422410" lon="-5.9394960">
        <ele>1051.2</ele>
        <time>2021-10-11T16:13:27Z</time>
      </trkpt>
      <trkpt lat="42.6422250" lon="-5.9396010">
        <ele>1051.2</ele>
        <time>2021-10-11T16:13:34Z</time>
      </trkpt>
      <trkpt lat="42.6422220" lon="-5.9396160">
        <ele>1051.4</ele>
        <time>2021-10-11T16:13:38Z</time>
      </trkpt>
      <trkpt lat="42.6422050" lon="-5.9396850">
        <ele>1051.6</ele>
        <time>2021-10-11T16:20:04Z</time>
      </trkpt>
      <trkpt lat="42.6421490" lon="-5.9399100">
        <ele>1051.6</ele>
        <time>2021-10-11T16:20:11Z</time>
      </trkpt>
      <trkpt lat="42.6420930" lon="-5.9400900">
        <ele>1050.8</ele>
        <time>2021-10-11T16:20:15Z</time>
      </trkpt>
      <trkpt lat="42.6420420" lon="-5.9401950">
        <ele>1050.4</ele>
        <time>2021-10-11T16:20:17Z</time>
      </trkpt>
      <trkpt lat="42.6420030" lon="-5.9403480">
        <ele>1049.8</ele>
        <time>2021-10-11T16:20:20Z</time>
      </trkpt>
      <trkpt lat="42.6419290" lon="-5.9405910">
        <ele>1049.2</ele>
        <time>2021-10-11T16:20:24Z</time>
      </trkpt>
      <trkpt lat="42.6418990" lon="-5.9406670">
        <ele>1049.2</ele>
        <time>2021-10-11T16:20:25Z</time>
      </trkpt>
      <trkpt lat="42.6418380" lon="-5.9407760">
        <ele>1048.8</ele>
        <time>2021-10-11T16:20:27Z</time>
      </trkpt>
      <trkpt lat="42.6418030" lon="-5.9408280">
        <ele>1048.6</ele>
        <time>2021-10-11T16:20:28Z</time>
      </trkpt>
      <trkpt lat="42.6417280" lon="-5.9409240">
        <ele>1047.6</ele>
        <time>2021-10-11T16:20:30Z</time>
      </trkpt>
      <trkpt lat="42.6416890" lon="-5.9409630">
        <ele>1047.0</ele>
        <time>2021-10-11T16:20:31Z</time>
      </trkpt>
      <trkpt lat="42.6416140" lon="-5.9410280">
        <ele>1046.4</ele>
        <time>2021-10-11T16:20:33Z</time>
      </trkpt>
      <trkpt lat="42.6415140" lon="-5.9411540">
        <ele>1046.0</ele>
        <time>2021-10-11T16:20:36Z</time>
      </trkpt>
      <trkpt lat="42.6414780" lon="-5.9412120">
        <ele>1046.0</ele>
        <time>2021-10-11T16:20:37Z</time>
      </trkpt>
      <trkpt lat="42.6414560" lon="-5.9412530">
        <ele>1045.8</ele>
        <time>2021-10-11T16:20:38Z</time>
      </trkpt>
      <trkpt lat="42.6412530" lon="-5.9416120">
        <ele>1045.2</ele>
        <time>2021-10-11T16:20:46Z</time>
      </trkpt>
      <trkpt lat="42.6412020" lon="-5.9416810">
        <ele>1045.0</ele>
        <time>2021-10-11T16:20:49Z</time>
      </trkpt>
      <trkpt lat="42.6411610" lon="-5.9416980">
        <ele>1045.0</ele>
        <time>2021-10-11T16:20:50Z</time>
      </trkpt>
      <trkpt lat="42.6411190" lon="-5.9417080">
        <ele>1045.0</ele>
        <time>2021-10-11T16:20:51Z</time>
      </trkpt>
      <trkpt lat="42.6410800" lon="-5.9417130">
        <ele>1045.0</ele>
        <time>2021-10-11T16:20:52Z</time>
      </trkpt>
      <trkpt lat="42.6409210" lon="-5.9417000">
        <ele>1045.0</ele>
        <time>2021-10-11T16:20:55Z</time>
      </trkpt>
      <trkpt lat="42.6407140" lon="-5.9416650">
        <ele>1044.0</ele>
        <time>2021-10-11T16:20:59Z</time>
      </trkpt>
      <trkpt lat="42.6406510" lon="-5.9416640">
        <ele>1043.6</ele>
        <time>2021-10-11T16:21:00Z</time>
      </trkpt>
      <trkpt lat="42.6406020" lon="-5.9416700">
        <ele>1043.4</ele>
        <time>2021-10-11T16:21:01Z</time>
      </trkpt>
      <trkpt lat="42.6405220" lon="-5.9417060">
        <ele>1043.0</ele>
        <time>2021-10-11T16:21:03Z</time>
      </trkpt>
      <trkpt lat="42.6404400" lon="-5.9417910">
        <ele>1042.8</ele>
        <time>2021-10-11T16:21:05Z</time>
      </trkpt>
      <trkpt lat="42.6403770" lon="-5.9419120">
        <ele>1042.4</ele>
        <time>2021-10-11T16:21:07Z</time>
      </trkpt>
      <trkpt lat="42.6403520" lon="-5.9419780">
        <ele>1042.2</ele>
        <time>2021-10-11T16:21:08Z</time>
      </trkpt>
      <trkpt lat="42.6403130" lon="-5.9421140">
        <ele>1041.2</ele>
        <time>2021-10-11T16:21:10Z</time>
      </trkpt>
      <trkpt lat="42.6402990" lon="-5.9421820">
        <ele>1040.2</ele>
        <time>2021-10-11T16:21:11Z</time>
      </trkpt>
      <trkpt lat="42.6402880" lon="-5.9422500">
        <ele>1039.8</ele>
        <time>2021-10-11T16:21:12Z</time>
      </trkpt>
      <trkpt lat="42.6402700" lon="-5.9423820">
        <ele>1038.8</ele>
        <time>2021-10-11T16:21:14Z</time>
      </trkpt>
      <trkpt lat="42.6402700" lon="-5.9424490">
        <ele>1038.6</ele>
        <time>2021-10-11T16:21:15Z</time>
      </trkpt>
      <trkpt lat="42.6402870" lon="-5.9425880">
        <ele>1038.2</ele>
        <time>2021-10-11T16:21:17Z</time>
      </trkpt>
      <trkpt lat="42.6403060" lon="-5.9426560">
        <ele>1037.4</ele>
        <time>2021-10-11T16:21:18Z</time>
      </trkpt>
      <trkpt lat="42.6403310" lon="-5.9427290">
        <ele>1037.4</ele>
        <time>2021-10-11T16:21:19Z</time>
      </trkpt>
      <trkpt lat="42.6403800" lon="-5.9428830">
        <ele>1036.6</ele>
        <time>2021-10-11T16:21:21Z</time>
      </trkpt>
      <trkpt lat="42.6403970" lon="-5.9429610">
        <ele>1036.4</ele>
        <time>2021-10-11T16:21:22Z</time>
      </trkpt>
      <trkpt lat="42.6404110" lon="-5.9430360">
        <ele>1036.2</ele>
        <time>2021-10-11T16:21:23Z</time>
      </trkpt>
      <trkpt lat="42.6404230" lon="-5.9431130">
        <ele>1034.6</ele>
        <time>2021-10-11T16:21:24Z</time>
      </trkpt>
      <trkpt lat="42.6404330" lon="-5.9432830">
        <ele>1033.4</ele>
        <time>2021-10-11T16:21:26Z</time>
      </trkpt>
      <trkpt lat="42.6404220" lon="-5.9433650">
        <ele>1032.8</ele>
        <time>2021-10-11T16:21:27Z</time>
      </trkpt>
      <trkpt lat="42.6403910" lon="-5.9435170">
        <ele>1031.6</ele>
        <time>2021-10-11T16:21:29Z</time>
      </trkpt>
      <trkpt lat="42.6403650" lon="-5.9436490">
        <ele>1030.2</ele>
        <time>2021-10-11T16:21:31Z</time>
      </trkpt>
      <trkpt lat="42.6403610" lon="-5.9437740">
        <ele>1028.4</ele>
        <time>2021-10-11T16:21:33Z</time>
      </trkpt>
      <trkpt lat="42.6403720" lon="-5.9438980">
        <ele>1027.2</ele>
        <time>2021-10-11T16:21:35Z</time>
      </trkpt>
      <trkpt lat="42.6403760" lon="-5.9439580">
        <ele>1026.0</ele>
        <time>2021-10-11T16:21:36Z</time>
      </trkpt>
      <trkpt lat="42.6403720" lon="-5.9440850">
        <ele>1024.8</ele>
        <time>2021-10-11T16:21:38Z</time>
      </trkpt>
      <trkpt lat="42.6403510" lon="-5.9442150">
        <ele>1024.2</ele>
        <time>2021-10-11T16:21:40Z</time>
      </trkpt>
      <trkpt lat="42.6403210" lon="-5.9443480">
        <ele>1023.4</ele>
        <time>2021-10-11T16:21:42Z</time>
      </trkpt>
      <trkpt lat="42.6403000" lon="-5.9444810">
        <ele>1021.6</ele>
        <time>2021-10-11T16:21:44Z</time>
      </trkpt>
      <trkpt lat="42.6402970" lon="-5.9445520">
        <ele>1020.0</ele>
        <time>2021-10-11T16:21:45Z</time>
      </trkpt>
      <trkpt lat="42.6403030" lon="-5.9446160">
        <ele>1019.6</ele>
        <time>2021-10-11T16:21:46Z</time>
      </trkpt>
      <trkpt lat="42.6403110" lon="-5.9446740">
        <ele>1018.6</ele>
        <time>2021-10-11T16:21:47Z</time>
      </trkpt>
      <trkpt lat="42.6403220" lon="-5.9447290">
        <ele>1018.0</ele>
        <time>2021-10-11T16:21:48Z</time>
      </trkpt>
      <trkpt lat="42.6403370" lon="-5.9447820">
        <ele>1017.4</ele>
        <time>2021-10-11T16:21:49Z</time>
      </trkpt>
      <trkpt lat="42.6403570" lon="-5.9448280">
        <ele>1017.2</ele>
        <time>2021-10-11T16:21:50Z</time>
      </trkpt>
      <trkpt lat="42.6404050" lon="-5.9449010">
        <ele>1016.4</ele>
        <time>2021-10-11T16:21:52Z</time>
      </trkpt>
      <trkpt lat="42.6404500" lon="-5.9449650">
        <ele>1015.8</ele>
        <time>2021-10-11T16:21:54Z</time>
      </trkpt>
      <trkpt lat="42.6405030" lon="-5.9450280">
        <ele>1015.4</ele>
        <time>2021-10-11T16:21:56Z</time>
      </trkpt>
      <trkpt lat="42.6405310" lon="-5.9450640">
        <ele>1015.2</ele>
        <time>2021-10-11T16:21:57Z</time>
      </trkpt>
      <trkpt lat="42.6406090" lon="-5.9451620">
        <ele>1015.0</ele>
        <time>2021-10-11T16:22:00Z</time>
      </trkpt>
      <trkpt lat="42.6406940" lon="-5.9452700">
        <ele>1015.0</ele>
        <time>2021-10-11T16:22:04Z</time>
      </trkpt>
      <trkpt lat="42.6407840" lon="-5.9453560">
        <ele>1015.0</ele>
        <time>2021-10-11T16:22:07Z</time>
      </trkpt>
      <trkpt lat="42.6408600" lon="-5.9454210">
        <ele>1015.2</ele>
        <time>2021-10-11T16:22:09Z</time>
      </trkpt>
      <trkpt lat="42.6410000" lon="-5.9455350">
        <ele>1015.2</ele>
        <time>2021-10-11T16:22:13Z</time>
      </trkpt>
      <trkpt lat="42.6410880" lon="-5.9455870">
        <ele>1015.0</ele>
        <time>2021-10-11T16:22:16Z</time>
      </trkpt>
      <trkpt lat="42.6411650" lon="-5.9456520">
        <ele>1015.2</ele>
        <time>2021-10-11T16:22:19Z</time>
      </trkpt>
      <trkpt lat="42.6411860" lon="-5.9456780">
        <ele>1015.2</ele>
        <time>2021-10-11T16:22:20Z</time>
      </trkpt>
      <trkpt lat="42.6412150" lon="-5.9457710">
        <ele>1015.0</ele>
        <time>2021-10-11T16:22:23Z</time>
      </trkpt>
      <trkpt lat="42.6412310" lon="-5.9460420">
        <ele>1014.4</ele>
        <time>2021-10-11T16:22:29Z</time>
      </trkpt>
      <trkpt lat="42.6412310" lon="-5.9460800">
        <ele>1014.0</ele>
        <time>2021-10-11T16:22:30Z</time>
      </trkpt>
      <trkpt lat="42.6412290" lon="-5.9461340">
        <ele>1013.0</ele>
        <time>2021-10-11T16:22:32Z</time>
      </trkpt>
      <trkpt lat="42.6412300" lon="-5.9461680">
        <ele>1012.2</ele>
        <time>2021-10-11T16:22:34Z</time>
      </trkpt>
      <trkpt lat="42.6412290" lon="-5.9461890">
        <ele>1011.6</ele>
        <time>2021-10-11T16:22:35Z</time>
      </trkpt>
      <trkpt lat="42.6412250" lon="-5.9462160">
        <ele>1011.2</ele>
        <time>2021-10-11T16:22:36Z</time>
      </trkpt>
      <trkpt lat="42.6411880" lon="-5.9462490">
        <ele>1010.6</ele>
        <time>2021-10-11T16:22:38Z</time>
      </trkpt>
      <trkpt lat="42.6411630" lon="-5.9462410">
        <ele>1010.0</ele>
        <time>2021-10-11T16:22:40Z</time>
      </trkpt>
      <trkpt lat="42.6411590" lon="-5.9462350">
        <ele>1009.4</ele>
        <time>2021-10-11T16:22:42Z</time>
      </trkpt>
      <trkpt lat="42.6411590" lon="-5.9462350">
        <ele>1009.2</ele>
        <time>2021-10-11T16:22:43Z</time>
      </trkpt>
      <trkpt lat="42.6411870" lon="-5.9462890">
        <ele>1008.6</ele>
        <time>2021-10-11T16:22:58Z</time>
      </trkpt>
      <trkpt lat="42.6412000" lon="-5.9463130">
        <ele>1008.4</ele>
        <time>2021-10-11T16:22:59Z</time>
      </trkpt>
      <trkpt lat="42.6412110" lon="-5.9463340">
        <ele>1008.4</ele>
        <time>2021-10-11T16:23:00Z</time>
      </trkpt>
      <trkpt lat="42.6412320" lon="-5.9463840">
        <ele>1008.4</ele>
        <time>2021-10-11T16:23:03Z</time>
      </trkpt>
      <trkpt lat="42.6412360" lon="-5.9463950">
        <ele>1008.2</ele>
        <time>2021-10-11T16:23:05Z</time>
      </trkpt>
      <trkpt lat="42.6412190" lon="-5.9464510">
        <ele>1007.8</ele>
        <time>2021-10-11T16:23:10Z</time>
      </trkpt>
      <trkpt lat="42.6412080" lon="-5.9464910">
        <ele>1007.4</ele>
        <time>2021-10-11T16:23:15Z</time>
      </trkpt>
      <trkpt lat="42.6412080" lon="-5.9464910">
        <ele>1007.4</ele>
        <time>2021-10-11T16:23:18Z</time>
      </trkpt>
      <trkpt lat="42.6412340" lon="-5.9466220">
        <ele>1006.6</ele>
        <time>2021-10-11T16:25:15Z</time>
      </trkpt>
      <trkpt lat="42.6412440" lon="-5.9466630">
        <ele>1006.6</ele>
        <time>2021-10-11T16:25:16Z</time>
      </trkpt>
      <trkpt lat="42.6412580" lon="-5.9467080">
        <ele>1006.4</ele>
        <time>2021-10-11T16:25:17Z</time>
      </trkpt>
      <trkpt lat="42.6412890" lon="-5.9468190">
        <ele>1006.4</ele>
        <time>2021-10-11T16:25:19Z</time>
      </trkpt>
      <trkpt lat="42.6413170" lon="-5.9469530">
        <ele>1006.2</ele>
        <time>2021-10-11T16:25:21Z</time>
      </trkpt>
      <trkpt lat="42.6413220" lon="-5.9471070">
        <ele>1006.2</ele>
        <time>2021-10-11T16:25:23Z</time>
      </trkpt>
      <trkpt lat="42.6413070" lon="-5.9472740">
        <ele>1005.8</ele>
        <time>2021-10-11T16:25:25Z</time>
      </trkpt>
      <trkpt lat="42.6412900" lon="-5.9474530">
        <ele>1005.2</ele>
        <time>2021-10-11T16:25:27Z</time>
      </trkpt>
      <trkpt lat="42.6412700" lon="-5.9477400">
        <ele>1004.2</ele>
        <time>2021-10-11T16:25:30Z</time>
      </trkpt>
      <trkpt lat="42.6412530" lon="-5.9479340">
        <ele>1003.6</ele>
        <time>2021-10-11T16:25:32Z</time>
      </trkpt>
      <trkpt lat="42.6412520" lon="-5.9480300">
        <ele>1003.2</ele>
        <time>2021-10-11T16:25:33Z</time>
      </trkpt>
      <trkpt lat="42.6412730" lon="-5.9482920">
        <ele>1002.6</ele>
        <time>2021-10-11T16:25:36Z</time>
      </trkpt>
      <trkpt lat="42.6412850" lon="-5.9483820">
        <ele>1002.4</ele>
        <time>2021-10-11T16:25:37Z</time>
      </trkpt>
      <trkpt lat="42.6413080" lon="-5.9485610">
        <ele>1002.0</ele>
        <time>2021-10-11T16:25:39Z</time>
      </trkpt>
      <trkpt lat="42.6413170" lon="-5.9486460">
        <ele>1002.0</ele>
        <time>2021-10-11T16:25:40Z</time>
      </trkpt>
      <trkpt lat="42.6413030" lon="-5.9488190">
        <ele>1001.8</ele>
        <time>2021-10-11T16:25:42Z</time>
      </trkpt>
      <trkpt lat="42.6412320" lon="-5.9489780">
        <ele>1001.8</ele>
        <time>2021-10-11T16:25:45Z</time>
      </trkpt>
      <trkpt lat="42.6412070" lon="-5.9490330">
        <ele>1001.8</ele>
        <time>2021-10-11T16:25:46Z</time>
      </trkpt>
      <trkpt lat="42.6411770" lon="-5.9490870">
        <ele>1001.8</ele>
        <time>2021-10-11T16:25:47Z</time>
      </trkpt>
      <trkpt lat="42.6410580" lon="-5.9492520">
        <ele>1002.0</ele>
        <time>2021-10-11T16:25:51Z</time>
      </trkpt>
      <trkpt lat="42.6409040" lon="-5.9494160">
        <ele>1002.4</ele>
        <time>2021-10-11T16:25:57Z</time>
      </trkpt>
      <trkpt lat="42.6407460" lon="-5.9496050">
        <ele>1003.0</ele>
        <time>2021-10-11T16:26:03Z</time>
      </trkpt>
      <trkpt lat="42.6407240" lon="-5.9496360">
        <ele>1003.2</ele>
        <time>2021-10-11T16:26:04Z</time>
      </trkpt>
      <trkpt lat="42.6406660" lon="-5.9497450">
        <ele>1003.4</ele>
        <time>2021-10-11T16:26:07Z</time>
      </trkpt>
      <trkpt lat="42.6405890" lon="-5.9498660">
        <ele>1004.4</ele>
        <time>2021-10-11T16:26:11Z</time>
      </trkpt>
      <trkpt lat="42.6405720" lon="-5.9498910">
        <ele>1004.4</ele>
        <time>2021-10-11T16:26:12Z</time>
      </trkpt>
      <trkpt lat="42.6404890" lon="-5.9499600">
        <ele>1005.2</ele>
        <time>2021-10-11T16:26:16Z</time>
      </trkpt>
      <trkpt lat="42.6404620" lon="-5.9499650">
        <ele>1005.6</ele>
        <time>2021-10-11T16:26:17Z</time>
      </trkpt>
      <trkpt lat="42.6403500" lon="-5.9499670">
        <ele>1006.2</ele>
        <time>2021-10-11T16:26:21Z</time>
      </trkpt>
      <trkpt lat="42.6403250" lon="-5.9499640">
        <ele>1006.6</ele>
        <time>2021-10-11T16:26:22Z</time>
      </trkpt>
      <trkpt lat="42.6402600" lon="-5.9499640">
        <ele>1007.6</ele>
        <time>2021-10-11T16:26:25Z</time>
      </trkpt>
      <trkpt lat="42.6402500" lon="-5.9499550">
        <ele>1007.8</ele>
        <time>2021-10-11T16:26:26Z</time>
      </trkpt>
      <trkpt lat="42.6401960" lon="-5.9499370">
        <ele>1008.2</ele>
        <time>2021-10-11T16:26:29Z</time>
      </trkpt>
      <trkpt lat="42.6401690" lon="-5.9499300">
        <ele>1008.2</ele>
        <time>2021-10-11T16:26:30Z</time>
      </trkpt>
      <trkpt lat="42.6401130" lon="-5.9499220">
        <ele>1008.8</ele>
        <time>2021-10-11T16:26:32Z</time>
      </trkpt>
      <trkpt lat="42.6400880" lon="-5.9499250">
        <ele>1009.0</ele>
        <time>2021-10-11T16:26:33Z</time>
      </trkpt>
      <trkpt lat="42.6400380" lon="-5.9499380">
        <ele>1009.2</ele>
        <time>2021-10-11T16:26:35Z</time>
      </trkpt>
      <trkpt lat="42.6399930" lon="-5.9499470">
        <ele>1009.2</ele>
        <time>2021-10-11T16:26:37Z</time>
      </trkpt>
      <trkpt lat="42.6399190" lon="-5.9499610">
        <ele>1009.4</ele>
        <time>2021-10-11T16:26:40Z</time>
      </trkpt>
      <trkpt lat="42.6398560" lon="-5.9499800">
        <ele>1009.4</ele>
        <time>2021-10-11T16:26:43Z</time>
      </trkpt>
      <trkpt lat="42.6398470" lon="-5.9499840">
        <ele>1009.4</ele>
        <time>2021-10-11T16:26:44Z</time>
      </trkpt>
      <trkpt lat="42.6398350" lon="-5.9499870">
        <ele>1009.4</ele>
        <time>2021-10-11T16:26:45Z</time>
      </trkpt>
      <trkpt lat="42.6397990" lon="-5.9500060">
        <ele>1009.4</ele>
        <time>2021-10-11T16:26:47Z</time>
      </trkpt>
      <trkpt lat="42.6397890" lon="-5.9500230">
        <ele>1009.6</ele>
        <time>2021-10-11T16:26:48Z</time>
      </trkpt>
      <trkpt lat="42.6397720" lon="-5.9500870">
        <ele>1009.6</ele>
        <time>2021-10-11T16:26:52Z</time>
      </trkpt>
      <trkpt lat="42.6397600" lon="-5.9500880">
        <ele>1009.6</ele>
        <time>2021-10-11T16:26:54Z</time>
      </trkpt>
      <trkpt lat="42.6397360" lon="-5.9500860">
        <ele>1009.8</ele>
        <time>2021-10-11T16:26:58Z</time>
      </trkpt>
      <trkpt lat="42.6396730" lon="-5.9501000">
        <ele>1010.0</ele>
        <time>2021-10-11T16:27:20Z</time>
      </trkpt>
      <trkpt lat="42.6396310" lon="-5.9501200">
        <ele>1010.0</ele>
        <time>2021-10-11T16:27:22Z</time>
      </trkpt>
      <trkpt lat="42.6395250" lon="-5.9501560">
        <ele>1010.0</ele>
        <time>2021-10-11T16:27:26Z</time>
      </trkpt>
      <trkpt lat="42.6394960" lon="-5.9501680">
        <ele>1010.2</ele>
        <time>2021-10-11T16:27:27Z</time>
      </trkpt>
      <trkpt lat="42.6393440" lon="-5.9501860">
        <ele>1010.6</ele>
        <time>2021-10-11T16:27:32Z</time>
      </trkpt>
      <trkpt lat="42.6391170" lon="-5.9502180">
        <ele>1010.8</ele>
        <time>2021-10-11T16:27:39Z</time>
      </trkpt>
      <trkpt lat="42.6390820" lon="-5.9502190">
        <ele>1011.0</ele>
        <time>2021-10-11T16:27:40Z</time>
      </trkpt>
      <trkpt lat="42.6388540" lon="-5.9502340">
        <ele>1011.4</ele>
        <time>2021-10-11T16:27:47Z</time>
      </trkpt>
      <trkpt lat="42.6388220" lon="-5.9502330">
        <ele>1011.4</ele>
        <time>2021-10-11T16:27:48Z</time>
      </trkpt>
      <trkpt lat="42.6386310" lon="-5.9502620">
        <ele>1012.0</ele>
        <time>2021-10-11T16:27:54Z</time>
      </trkpt>
      <trkpt lat="42.6384110" lon="-5.9503100">
        <ele>1012.8</ele>
        <time>2021-10-11T16:28:01Z</time>
      </trkpt>
      <trkpt lat="42.6383450" lon="-5.9503220">
        <ele>1013.0</ele>
        <time>2021-10-11T16:28:03Z</time>
      </trkpt>
      <trkpt lat="42.6383140" lon="-5.9503290">
        <ele>1013.0</ele>
        <time>2021-10-11T16:28:04Z</time>
      </trkpt>
      <trkpt lat="42.6382540" lon="-5.9503520">
        <ele>1013.0</ele>
        <time>2021-10-11T16:28:06Z</time>
      </trkpt>
      <trkpt lat="42.6382240" lon="-5.9503640">
        <ele>1013.0</ele>
        <time>2021-10-11T16:28:07Z</time>
      </trkpt>
      <trkpt lat="42.6381660" lon="-5.9503930">
        <ele>1013.2</ele>
        <time>2021-10-11T16:28:09Z</time>
      </trkpt>
      <trkpt lat="42.6380770" lon="-5.9504430">
        <ele>1013.6</ele>
        <time>2021-10-11T16:28:12Z</time>
      </trkpt>
      <trkpt lat="42.6380200" lon="-5.9504650">
        <ele>1013.8</ele>
        <time>2021-10-11T16:28:14Z</time>
      </trkpt>
      <trkpt lat="42.6379610" lon="-5.9504900">
        <ele>1014.0</ele>
        <time>2021-10-11T16:28:16Z</time>
      </trkpt>
      <trkpt lat="42.6378520" lon="-5.9505440">
        <ele>1014.2</ele>
        <time>2021-10-11T16:28:20Z</time>
      </trkpt>
      <trkpt lat="42.6377230" lon="-5.9505990">
        <ele>1015.0</ele>
        <time>2021-10-11T16:28:25Z</time>
      </trkpt>
      <trkpt lat="42.6376200" lon="-5.9506570">
        <ele>1015.8</ele>
        <time>2021-10-11T16:28:29Z</time>
      </trkpt>
      <trkpt lat="42.6375980" lon="-5.9506740">
        <ele>1016.0</ele>
        <time>2021-10-11T16:28:30Z</time>
      </trkpt>
      <trkpt lat="42.6374210" lon="-5.9507800">
        <ele>1016.8</ele>
        <time>2021-10-11T16:28:37Z</time>
      </trkpt>
      <trkpt lat="42.6373700" lon="-5.9508190">
        <ele>1017.0</ele>
        <time>2021-10-11T16:28:39Z</time>
      </trkpt>
      <trkpt lat="42.6371760" lon="-5.9509110">
        <ele>1018.0</ele>
        <time>2021-10-11T16:28:46Z</time>
      </trkpt>
      <trkpt lat="42.6370050" lon="-5.9509760">
        <ele>1018.4</ele>
        <time>2021-10-11T16:28:52Z</time>
      </trkpt>
      <trkpt lat="42.6369390" lon="-5.9510050">
        <ele>1018.4</ele>
        <time>2021-10-11T16:28:54Z</time>
      </trkpt>
      <trkpt lat="42.6366770" lon="-5.9511460">
        <ele>1018.2</ele>
        <time>2021-10-11T16:29:03Z</time>
      </trkpt>
      <trkpt lat="42.6364540" lon="-5.9513250">
        <ele>1018.2</ele>
        <time>2021-10-11T16:29:10Z</time>
      </trkpt>
      <trkpt lat="42.6361910" lon="-5.9516440">
        <ele>1017.8</ele>
        <time>2021-10-11T16:29:18Z</time>
      </trkpt>
      <trkpt lat="42.6360540" lon="-5.9518950">
        <ele>1017.8</ele>
        <time>2021-10-11T16:29:23Z</time>
      </trkpt>
      <trkpt lat="42.6360010" lon="-5.9519880">
        <ele>1017.6</ele>
        <time>2021-10-11T16:29:25Z</time>
      </trkpt>
      <trkpt lat="42.6359420" lon="-5.9520810">
        <ele>1017.4</ele>
        <time>2021-10-11T16:29:27Z</time>
      </trkpt>
      <trkpt lat="42.6358620" lon="-5.9522160">
        <ele>1017.4</ele>
        <time>2021-10-11T16:29:30Z</time>
      </trkpt>
      <trkpt lat="42.6358270" lon="-5.9522510">
        <ele>1017.2</ele>
        <time>2021-10-11T16:29:31Z</time>
      </trkpt>
      <trkpt lat="42.6357870" lon="-5.9522810">
        <ele>1017.2</ele>
        <time>2021-10-11T16:29:32Z</time>
      </trkpt>
      <trkpt lat="42.6357430" lon="-5.9523040">
        <ele>1017.2</ele>
        <time>2021-10-11T16:29:33Z</time>
      </trkpt>
      <trkpt lat="42.6355000" lon="-5.9523500">
        <ele>1017.2</ele>
        <time>2021-10-11T16:29:39Z</time>
      </trkpt>
      <trkpt lat="42.6353530" lon="-5.9523620">
        <ele>1017.6</ele>
        <time>2021-10-11T16:29:44Z</time>
      </trkpt>
      <trkpt lat="42.6352750" lon="-5.9523560">
        <ele>1018.4</ele>
        <time>2021-10-11T16:29:47Z</time>
      </trkpt>
      <trkpt lat="42.6352260" lon="-5.9523330">
        <ele>1018.6</ele>
        <time>2021-10-11T16:29:49Z</time>
      </trkpt>
      <trkpt lat="42.6351160" lon="-5.9523130">
        <ele>1019.4</ele>
        <time>2021-10-11T16:29:54Z</time>
      </trkpt>
      <trkpt lat="42.6350560" lon="-5.9523040">
        <ele>1020.0</ele>
        <time>2021-10-11T16:29:57Z</time>
      </trkpt>
      <trkpt lat="42.6350380" lon="-5.9523020">
        <ele>1020.2</ele>
        <time>2021-10-11T16:29:58Z</time>
      </trkpt>
      <trkpt lat="42.6349990" lon="-5.9523040">
        <ele>1020.4</ele>
        <time>2021-10-11T16:30:00Z</time>
      </trkpt>
      <trkpt lat="42.6349090" lon="-5.9523290">
        <ele>1021.4</ele>
        <time>2021-10-11T16:30:05Z</time>
      </trkpt>
      <trkpt lat="42.6348940" lon="-5.9523350">
        <ele>1021.6</ele>
        <time>2021-10-11T16:30:06Z</time>
      </trkpt>
      <trkpt lat="42.6348650" lon="-5.9523450">
        <ele>1022.0</ele>
        <time>2021-10-11T16:30:08Z</time>
      </trkpt>
      <trkpt lat="42.6348120" lon="-5.9523690">
        <ele>1022.8</ele>
        <time>2021-10-11T16:30:12Z</time>
      </trkpt>
      <trkpt lat="42.6347990" lon="-5.9523720">
        <ele>1022.8</ele>
        <time>2021-10-11T16:30:13Z</time>
      </trkpt>
      <trkpt lat="42.6347530" lon="-5.9523830">
        <ele>1023.4</ele>
        <time>2021-10-11T16:30:16Z</time>
      </trkpt>
      <trkpt lat="42.6347280" lon="-5.9523920">
        <ele>1023.8</ele>
        <time>2021-10-11T16:30:18Z</time>
      </trkpt>
      <trkpt lat="42.6347060" lon="-5.9524000">
        <ele>1024.2</ele>
        <time>2021-10-11T16:30:20Z</time>
      </trkpt>
      <trkpt lat="42.6346230" lon="-5.9524250">
        <ele>1024.8</ele>
        <time>2021-10-11T16:30:26Z</time>
      </trkpt>
      <trkpt lat="42.6345810" lon="-5.9524330">
        <ele>1025.4</ele>
        <time>2021-10-11T16:30:29Z</time>
      </trkpt>
      <trkpt lat="42.6345680" lon="-5.9524370">
        <ele>1025.6</ele>
        <time>2021-10-11T16:30:30Z</time>
      </trkpt>
      <trkpt lat="42.6345390" lon="-5.9524460">
        <ele>1026.0</ele>
        <time>2021-10-11T16:30:32Z</time>
      </trkpt>
      <trkpt lat="42.6345050" lon="-5.9524590">
        <ele>1026.6</ele>
        <time>2021-10-11T16:30:35Z</time>
      </trkpt>
      <trkpt lat="42.6344640" lon="-5.9524710">
        <ele>1027.0</ele>
        <time>2021-10-11T16:30:38Z</time>
      </trkpt>
      <trkpt lat="42.6344540" lon="-5.9524730">
        <ele>1027.2</ele>
        <time>2021-10-11T16:30:39Z</time>
      </trkpt>
      <trkpt lat="42.6344410" lon="-5.9524730">
        <ele>1027.4</ele>
        <time>2021-10-11T16:30:40Z</time>
      </trkpt>
      <trkpt lat="42.6344130" lon="-5.9524750">
        <ele>1027.6</ele>
        <time>2021-10-11T16:30:42Z</time>
      </trkpt>
      <trkpt lat="42.6343680" lon="-5.9524880">
        <ele>1028.0</ele>
        <time>2021-10-11T16:30:45Z</time>
      </trkpt>
      <trkpt lat="42.6343410" lon="-5.9524990">
        <ele>1028.4</ele>
        <time>2021-10-11T16:30:47Z</time>
      </trkpt>
      <trkpt lat="42.6343140" lon="-5.9525010">
        <ele>1028.6</ele>
        <time>2021-10-11T16:30:49Z</time>
      </trkpt>
      <trkpt lat="42.6343030" lon="-5.9525030">
        <ele>1028.8</ele>
        <time>2021-10-11T16:30:50Z</time>
      </trkpt>
      <trkpt lat="42.6342910" lon="-5.9525050">
        <ele>1028.8</ele>
        <time>2021-10-11T16:30:51Z</time>
      </trkpt>
      <trkpt lat="42.6342690" lon="-5.9525090">
        <ele>1029.0</ele>
        <time>2021-10-11T16:30:53Z</time>
      </trkpt>
      <trkpt lat="42.6342440" lon="-5.9525060">
        <ele>1029.6</ele>
        <time>2021-10-11T16:30:55Z</time>
      </trkpt>
      <trkpt lat="42.6342130" lon="-5.9525050">
        <ele>1030.4</ele>
        <time>2021-10-11T16:30:58Z</time>
      </trkpt>
      <trkpt lat="42.6342030" lon="-5.9525030">
        <ele>1030.6</ele>
        <time>2021-10-11T16:30:59Z</time>
      </trkpt>
      <trkpt lat="42.6341950" lon="-5.9525010">
        <ele>1030.6</ele>
        <time>2021-10-11T16:31:00Z</time>
      </trkpt>
      <trkpt lat="42.6341640" lon="-5.9525040">
        <ele>1031.0</ele>
        <time>2021-10-11T16:31:03Z</time>
      </trkpt>
      <trkpt lat="42.6341530" lon="-5.9525040">
        <ele>1031.2</ele>
        <time>2021-10-11T16:31:04Z</time>
      </trkpt>
      <trkpt lat="42.6341410" lon="-5.9525060">
        <ele>1031.4</ele>
        <time>2021-10-11T16:31:05Z</time>
      </trkpt>
      <trkpt lat="42.6341180" lon="-5.9525050">
        <ele>1031.8</ele>
        <time>2021-10-11T16:31:07Z</time>
      </trkpt>
      <trkpt lat="42.6340910" lon="-5.9525040">
        <ele>1032.0</ele>
        <time>2021-10-11T16:31:09Z</time>
      </trkpt>
      <trkpt lat="42.6340690" lon="-5.9525080">
        <ele>1032.2</ele>
        <time>2021-10-11T16:31:11Z</time>
      </trkpt>
      <trkpt lat="42.6340480" lon="-5.9525120">
        <ele>1032.6</ele>
        <time>2021-10-11T16:31:13Z</time>
      </trkpt>
      <trkpt lat="42.6340250" lon="-5.9525150">
        <ele>1032.8</ele>
        <time>2021-10-11T16:31:15Z</time>
      </trkpt>
      <trkpt lat="42.6340150" lon="-5.9525150">
        <ele>1032.8</ele>
        <time>2021-10-11T16:31:16Z</time>
      </trkpt>
      <trkpt lat="42.6340040" lon="-5.9525160">
        <ele>1033.0</ele>
        <time>2021-10-11T16:31:17Z</time>
      </trkpt>
      <trkpt lat="42.6339450" lon="-5.9525210">
        <ele>1033.4</ele>
        <time>2021-10-11T16:31:22Z</time>
      </trkpt>
      <trkpt lat="42.6339110" lon="-5.9525210">
        <ele>1033.8</ele>
        <time>2021-10-11T16:31:25Z</time>
      </trkpt>
      <trkpt lat="42.6338670" lon="-5.9525280">
        <ele>1034.2</ele>
        <time>2021-10-11T16:31:29Z</time>
      </trkpt>
      <trkpt lat="42.6338540" lon="-5.9525290">
        <ele>1034.4</ele>
        <time>2021-10-11T16:31:30Z</time>
      </trkpt>
      <trkpt lat="42.6338430" lon="-5.9525290">
        <ele>1034.4</ele>
        <time>2021-10-11T16:31:31Z</time>
      </trkpt>
      <trkpt lat="42.6338290" lon="-5.9525290">
        <ele>1034.8</ele>
        <time>2021-10-11T16:31:32Z</time>
      </trkpt>
      <trkpt lat="42.6338080" lon="-5.9525280">
        <ele>1035.2</ele>
        <time>2021-10-11T16:31:34Z</time>
      </trkpt>
      <trkpt lat="42.6337320" lon="-5.9525250">
        <ele>1035.4</ele>
        <time>2021-10-11T16:31:40Z</time>
      </trkpt>
      <trkpt lat="42.6336770" lon="-5.9525140">
        <ele>1035.8</ele>
        <time>2021-10-11T16:31:45Z</time>
      </trkpt>
      <trkpt lat="42.6336320" lon="-5.9525080">
        <ele>1036.0</ele>
        <time>2021-10-11T16:31:48Z</time>
      </trkpt>
      <trkpt lat="42.6335490" lon="-5.9524950">
        <ele>1036.6</ele>
        <time>2021-10-11T16:31:55Z</time>
      </trkpt>
      <trkpt lat="42.6335090" lon="-5.9524910">
        <ele>1037.0</ele>
        <time>2021-10-11T16:31:58Z</time>
      </trkpt>
      <trkpt lat="42.6334350" lon="-5.9524740">
        <ele>1037.4</ele>
        <time>2021-10-11T16:32:03Z</time>
      </trkpt>
      <trkpt lat="42.6333510" lon="-5.9524660">
        <ele>1038.0</ele>
        <time>2021-10-11T16:32:09Z</time>
      </trkpt>
      <trkpt lat="42.6333410" lon="-5.9524660">
        <ele>1038.2</ele>
        <time>2021-10-11T16:32:10Z</time>
      </trkpt>
      <trkpt lat="42.6332820" lon="-5.9524760">
        <ele>1038.8</ele>
        <time>2021-10-11T16:32:15Z</time>
      </trkpt>
      <trkpt lat="42.6332490" lon="-5.9524850">
        <ele>1039.0</ele>
        <time>2021-10-11T16:32:17Z</time>
      </trkpt>
      <trkpt lat="42.6331600" lon="-5.9525360">
        <ele>1039.6</ele>
        <time>2021-10-11T16:32:24Z</time>
      </trkpt>
      <trkpt lat="42.6330990" lon="-5.9525990">
        <ele>1040.2</ele>
        <time>2021-10-11T16:32:29Z</time>
      </trkpt>
      <trkpt lat="42.6330530" lon="-5.9526600">
        <ele>1040.4</ele>
        <time>2021-10-11T16:32:33Z</time>
      </trkpt>
      <trkpt lat="42.6329760" lon="-5.9527710">
        <ele>1041.2</ele>
        <time>2021-10-11T16:32:41Z</time>
      </trkpt>
      <trkpt lat="42.6329650" lon="-5.9527800">
        <ele>1041.4</ele>
        <time>2021-10-11T16:32:42Z</time>
      </trkpt>
      <trkpt lat="42.6329130" lon="-5.9528730">
        <ele>1042.2</ele>
        <time>2021-10-11T16:32:49Z</time>
      </trkpt>
      <trkpt lat="42.6328330" lon="-5.9530030">
        <ele>1043.6</ele>
        <time>2021-10-11T16:32:58Z</time>
      </trkpt>
      <trkpt lat="42.6328230" lon="-5.9530160">
        <ele>1043.8</ele>
        <time>2021-10-11T16:32:59Z</time>
      </trkpt>
      <trkpt lat="42.6328100" lon="-5.9530450">
        <ele>1044.0</ele>
        <time>2021-10-11T16:33:01Z</time>
      </trkpt>
      <trkpt lat="42.6328050" lon="-5.9530630">
        <ele>1044.2</ele>
        <time>2021-10-11T16:33:02Z</time>
      </trkpt>
      <trkpt lat="42.6328010" lon="-5.9531000">
        <ele>1044.2</ele>
        <time>2021-10-11T16:33:04Z</time>
      </trkpt>
      <trkpt lat="42.6328040" lon="-5.9531330">
        <ele>1044.4</ele>
        <time>2021-10-11T16:33:06Z</time>
      </trkpt>
      <trkpt lat="42.6328090" lon="-5.9531700">
        <ele>1044.8</ele>
        <time>2021-10-11T16:33:08Z</time>
      </trkpt>
      <trkpt lat="42.6328150" lon="-5.9532710">
        <ele>1045.6</ele>
        <time>2021-10-11T16:33:14Z</time>
      </trkpt>
      <trkpt lat="42.6328190" lon="-5.9533440">
        <ele>1046.0</ele>
        <time>2021-10-11T16:33:18Z</time>
      </trkpt>
      <trkpt lat="42.6328120" lon="-5.9533840">
        <ele>1046.2</ele>
        <time>2021-10-11T16:33:20Z</time>
      </trkpt>
      <trkpt lat="42.6328130" lon="-5.9534200">
        <ele>1046.4</ele>
        <time>2021-10-11T16:33:22Z</time>
      </trkpt>
      <trkpt lat="42.6328130" lon="-5.9534380">
        <ele>1046.6</ele>
        <time>2021-10-11T16:33:23Z</time>
      </trkpt>
      <trkpt lat="42.6328130" lon="-5.9534560">
        <ele>1046.6</ele>
        <time>2021-10-11T16:33:24Z</time>
      </trkpt>
      <trkpt lat="42.6328080" lon="-5.9535110">
        <ele>1046.8</ele>
        <time>2021-10-11T16:33:27Z</time>
      </trkpt>
      <trkpt lat="42.6328050" lon="-5.9535470">
        <ele>1047.0</ele>
        <time>2021-10-11T16:33:29Z</time>
      </trkpt>
      <trkpt lat="42.6328050" lon="-5.9535820">
        <ele>1047.2</ele>
        <time>2021-10-11T16:33:31Z</time>
      </trkpt>
      <trkpt lat="42.6328080" lon="-5.9537120">
        <ele>1048.2</ele>
        <time>2021-10-11T16:33:38Z</time>
      </trkpt>
      <trkpt lat="42.6328020" lon="-5.9537480">
        <ele>1048.4</ele>
        <time>2021-10-11T16:33:40Z</time>
      </trkpt>
      <trkpt lat="42.6327970" lon="-5.9537660">
        <ele>1048.4</ele>
        <time>2021-10-11T16:33:41Z</time>
      </trkpt>
      <trkpt lat="42.6327780" lon="-5.9538360">
        <ele>1049.2</ele>
        <time>2021-10-11T16:33:45Z</time>
      </trkpt>
      <trkpt lat="42.6327640" lon="-5.9538670">
        <ele>1049.4</ele>
        <time>2021-10-11T16:33:47Z</time>
      </trkpt>
      <trkpt lat="42.6327500" lon="-5.9538980">
        <ele>1050.0</ele>
        <time>2021-10-11T16:33:49Z</time>
      </trkpt>
      <trkpt lat="42.6327420" lon="-5.9539130">
        <ele>1050.2</ele>
        <time>2021-10-11T16:33:50Z</time>
      </trkpt>
      <trkpt lat="42.6327360" lon="-5.9539280">
        <ele>1050.4</ele>
        <time>2021-10-11T16:33:51Z</time>
      </trkpt>
      <trkpt lat="42.6327280" lon="-5.9539440">
        <ele>1050.6</ele>
        <time>2021-10-11T16:33:52Z</time>
      </trkpt>
      <trkpt lat="42.6327190" lon="-5.9539590">
        <ele>1051.0</ele>
        <time>2021-10-11T16:33:53Z</time>
      </trkpt>
      <trkpt lat="42.6327040" lon="-5.9539850">
        <ele>1051.6</ele>
        <time>2021-10-11T16:33:55Z</time>
      </trkpt>
      <trkpt lat="42.6326910" lon="-5.9540290">
        <ele>1052.2</ele>
        <time>2021-10-11T16:33:58Z</time>
      </trkpt>
      <trkpt lat="42.6326510" lon="-5.9540920">
        <ele>1052.6</ele>
        <time>2021-10-11T16:34:03Z</time>
      </trkpt>
      <trkpt lat="42.6326410" lon="-5.9541000">
        <ele>1052.8</ele>
        <time>2021-10-11T16:34:04Z</time>
      </trkpt>
      <trkpt lat="42.6326180" lon="-5.9541220">
        <ele>1053.0</ele>
        <time>2021-10-11T16:34:06Z</time>
      </trkpt>
      <trkpt lat="42.6326020" lon="-5.9541470">
        <ele>1053.2</ele>
        <time>2021-10-11T16:34:08Z</time>
      </trkpt>
      <trkpt lat="42.6325860" lon="-5.9541720">
        <ele>1053.4</ele>
        <time>2021-10-11T16:34:10Z</time>
      </trkpt>
      <trkpt lat="42.6325630" lon="-5.9542140">
        <ele>1053.6</ele>
        <time>2021-10-11T16:34:13Z</time>
      </trkpt>
      <trkpt lat="42.6325350" lon="-5.9542670">
        <ele>1054.2</ele>
        <time>2021-10-11T16:34:17Z</time>
      </trkpt>
      <trkpt lat="42.6324990" lon="-5.9543210">
        <ele>1054.6</ele>
        <time>2021-10-11T16:34:21Z</time>
      </trkpt>
      <trkpt lat="42.6324370" lon="-5.9544130">
        <ele>1055.4</ele>
        <time>2021-10-11T16:34:28Z</time>
      </trkpt>
      <trkpt lat="42.6324230" lon="-5.9544380">
        <ele>1055.8</ele>
        <time>2021-10-11T16:34:30Z</time>
      </trkpt>
      <trkpt lat="42.6323720" lon="-5.9545180">
        <ele>1056.6</ele>
        <time>2021-10-11T16:34:36Z</time>
      </trkpt>
      <trkpt lat="42.6323640" lon="-5.9545310">
        <ele>1056.8</ele>
        <time>2021-10-11T16:34:37Z</time>
      </trkpt>
      <trkpt lat="42.6323140" lon="-5.9546060">
        <ele>1057.6</ele>
        <time>2021-10-11T16:34:44Z</time>
      </trkpt>
      <trkpt lat="42.6323060" lon="-5.9546200">
        <ele>1057.8</ele>
        <time>2021-10-11T16:34:45Z</time>
      </trkpt>
      <trkpt lat="42.6322990" lon="-5.9546300">
        <ele>1058.0</ele>
        <time>2021-10-11T16:34:46Z</time>
      </trkpt>
      <trkpt lat="42.6322410" lon="-5.9546770">
        <ele>1058.8</ele>
        <time>2021-10-11T16:34:51Z</time>
      </trkpt>
      <trkpt lat="42.6322300" lon="-5.9546850">
        <ele>1059.0</ele>
        <time>2021-10-11T16:34:52Z</time>
      </trkpt>
      <trkpt lat="42.6322190" lon="-5.9546950">
        <ele>1059.2</ele>
        <time>2021-10-11T16:34:53Z</time>
      </trkpt>
      <trkpt lat="42.6322090" lon="-5.9547040">
        <ele>1059.4</ele>
        <time>2021-10-11T16:34:54Z</time>
      </trkpt>
      <trkpt lat="42.6321850" lon="-5.9547230">
        <ele>1059.6</ele>
        <time>2021-10-11T16:34:56Z</time>
      </trkpt>
      <trkpt lat="42.6321600" lon="-5.9547420">
        <ele>1059.8</ele>
        <time>2021-10-11T16:34:58Z</time>
      </trkpt>
      <trkpt lat="42.6321460" lon="-5.9547530">
        <ele>1059.8</ele>
        <time>2021-10-11T16:34:59Z</time>
      </trkpt>
      <trkpt lat="42.6321240" lon="-5.9547770">
        <ele>1060.0</ele>
        <time>2021-10-11T16:35:01Z</time>
      </trkpt>
      <trkpt lat="42.6321130" lon="-5.9547890">
        <ele>1060.0</ele>
        <time>2021-10-11T16:35:02Z</time>
      </trkpt>
      <trkpt lat="42.6320850" lon="-5.9548030">
        <ele>1060.2</ele>
        <time>2021-10-11T16:35:04Z</time>
      </trkpt>
      <trkpt lat="42.6320560" lon="-5.9548260">
        <ele>1060.4</ele>
        <time>2021-10-11T16:35:06Z</time>
      </trkpt>
      <trkpt lat="42.6320410" lon="-5.9548370">
        <ele>1060.6</ele>
        <time>2021-10-11T16:35:07Z</time>
      </trkpt>
      <trkpt lat="42.6320160" lon="-5.9548580">
        <ele>1060.8</ele>
        <time>2021-10-11T16:35:09Z</time>
      </trkpt>
      <trkpt lat="42.6319820" lon="-5.9548890">
        <ele>1060.8</ele>
        <time>2021-10-11T16:35:12Z</time>
      </trkpt>
      <trkpt lat="42.6318860" lon="-5.9549480">
        <ele>1061.2</ele>
        <time>2021-10-11T16:35:18Z</time>
      </trkpt>
      <trkpt lat="42.6317160" lon="-5.9550550">
        <ele>1061.2</ele>
        <time>2021-10-11T16:35:27Z</time>
      </trkpt>
      <trkpt lat="42.6315330" lon="-5.9551650">
        <ele>1061.8</ele>
        <time>2021-10-11T16:35:36Z</time>
      </trkpt>
      <trkpt lat="42.6314010" lon="-5.9552320">
        <ele>1061.8</ele>
        <time>2021-10-11T16:35:43Z</time>
      </trkpt>
      <trkpt lat="42.6313480" lon="-5.9552660">
        <ele>1061.8</ele>
        <time>2021-10-11T16:35:45Z</time>
      </trkpt>
      <trkpt lat="42.6312020" lon="-5.9553300">
        <ele>1061.8</ele>
        <time>2021-10-11T16:35:50Z</time>
      </trkpt>
      <trkpt lat="42.6310460" lon="-5.9554080">
        <ele>1061.8</ele>
        <time>2021-10-11T16:35:55Z</time>
      </trkpt>
      <trkpt lat="42.6308320" lon="-5.9555220">
        <ele>1061.8</ele>
        <time>2021-10-11T16:36:02Z</time>
      </trkpt>
      <trkpt lat="42.6307680" lon="-5.9555510">
        <ele>1061.8</ele>
        <time>2021-10-11T16:36:04Z</time>
      </trkpt>
      <trkpt lat="42.6305410" lon="-5.9556640">
        <ele>1062.0</ele>
        <time>2021-10-11T16:36:11Z</time>
      </trkpt>
      <trkpt lat="42.6302640" lon="-5.9557950">
        <ele>1062.0</ele>
        <time>2021-10-11T16:36:20Z</time>
      </trkpt>
      <trkpt lat="42.6300130" lon="-5.9559840">
        <ele>1062.0</ele>
        <time>2021-10-11T16:36:28Z</time>
      </trkpt>
      <trkpt lat="42.6298310" lon="-5.9562930">
        <ele>1061.6</ele>
        <time>2021-10-11T16:36:36Z</time>
      </trkpt>
      <trkpt lat="42.6296480" lon="-5.9565780">
        <ele>1061.8</ele>
        <time>2021-10-11T16:36:43Z</time>
      </trkpt>
      <trkpt lat="42.6295320" lon="-5.9567490">
        <ele>1061.8</ele>
        <time>2021-10-11T16:36:47Z</time>
      </trkpt>
      <trkpt lat="42.6294430" lon="-5.9568840">
        <ele>1061.4</ele>
        <time>2021-10-11T16:36:50Z</time>
      </trkpt>
      <trkpt lat="42.6293360" lon="-5.9570800">
        <ele>1061.2</ele>
        <time>2021-10-11T16:36:54Z</time>
      </trkpt>
      <trkpt lat="42.6292930" lon="-5.9571750">
        <ele>1061.2</ele>
        <time>2021-10-11T16:36:56Z</time>
      </trkpt>
      <trkpt lat="42.6292490" lon="-5.9572680">
        <ele>1061.0</ele>
        <time>2021-10-11T16:36:58Z</time>
      </trkpt>
      <trkpt lat="42.6292270" lon="-5.9573200">
        <ele>1061.0</ele>
        <time>2021-10-11T16:36:59Z</time>
      </trkpt>
      <trkpt lat="42.6291440" lon="-5.9575220">
        <ele>1061.2</ele>
        <time>2021-10-11T16:37:04Z</time>
      </trkpt>
      <trkpt lat="42.6291400" lon="-5.9575340">
        <ele>1061.0</ele>
        <time>2021-10-11T16:37:07Z</time>
      </trkpt>
      <trkpt lat="42.6291310" lon="-5.9575560">
        <ele>1060.8</ele>
        <time>2021-10-11T16:37:38Z</time>
      </trkpt>
      <trkpt lat="42.6291210" lon="-5.9575860">
        <ele>1061.2</ele>
        <time>2021-10-11T16:37:39Z</time>
      </trkpt>
      <trkpt lat="42.6291080" lon="-5.9576220">
        <ele>1061.2</ele>
        <time>2021-10-11T16:37:40Z</time>
      </trkpt>
      <trkpt lat="42.6290070" lon="-5.9578730">
        <ele>1061.4</ele>
        <time>2021-10-11T16:37:45Z</time>
      </trkpt>
      <trkpt lat="42.6289690" lon="-5.9579800">
        <ele>1061.8</ele>
        <time>2021-10-11T16:37:47Z</time>
      </trkpt>
      <trkpt lat="42.6289500" lon="-5.9580330">
        <ele>1061.4</ele>
        <time>2021-10-11T16:37:48Z</time>
      </trkpt>
      <trkpt lat="42.6289080" lon="-5.9581430">
        <ele>1061.4</ele>
        <time>2021-10-11T16:37:50Z</time>
      </trkpt>
      <trkpt lat="42.6288830" lon="-5.9582000">
        <ele>1061.4</ele>
        <time>2021-10-11T16:37:51Z</time>
      </trkpt>
      <trkpt lat="42.6288080" lon="-5.9583820">
        <ele>1061.2</ele>
        <time>2021-10-11T16:37:54Z</time>
      </trkpt>
      <trkpt lat="42.6286720" lon="-5.9586940">
        <ele>1060.8</ele>
        <time>2021-10-11T16:37:59Z</time>
      </trkpt>
      <trkpt lat="42.6284710" lon="-5.9591420">
        <ele>1060.6</ele>
        <time>2021-10-11T16:38:06Z</time>
      </trkpt>
      <trkpt lat="42.6283170" lon="-5.9594630">
        <ele>1060.6</ele>
        <time>2021-10-11T16:38:11Z</time>
      </trkpt>
      <trkpt lat="42.6282230" lon="-5.9596490">
        <ele>1060.2</ele>
        <time>2021-10-11T16:38:14Z</time>
      </trkpt>
      <trkpt lat="42.6281590" lon="-5.9597730">
        <ele>1060.2</ele>
        <time>2021-10-11T16:38:16Z</time>
      </trkpt>
      <trkpt lat="42.6280950" lon="-5.9598950">
        <ele>1060.2</ele>
        <time>2021-10-11T16:38:18Z</time>
      </trkpt>
      <trkpt lat="42.6280330" lon="-5.9600160">
        <ele>1060.2</ele>
        <time>2021-10-11T16:38:20Z</time>
      </trkpt>
      <trkpt lat="42.6278580" lon="-5.9603730">
        <ele>1060.0</ele>
        <time>2021-10-11T16:38:26Z</time>
      </trkpt>
      <trkpt lat="42.6277940" lon="-5.9604890">
        <ele>1060.0</ele>
        <time>2021-10-11T16:38:28Z</time>
      </trkpt>
      <trkpt lat="42.6277290" lon="-5.9606020">
        <ele>1060.0</ele>
        <time>2021-10-11T16:38:30Z</time>
      </trkpt>
      <trkpt lat="42.6275890" lon="-5.9607840">
        <ele>1059.8</ele>
        <time>2021-10-11T16:38:34Z</time>
      </trkpt>
      <trkpt lat="42.6275480" lon="-5.9608170">
        <ele>1059.8</ele>
        <time>2021-10-11T16:38:35Z</time>
      </trkpt>
      <trkpt lat="42.6275060" lon="-5.9608480">
        <ele>1059.8</ele>
        <time>2021-10-11T16:38:36Z</time>
      </trkpt>
      <trkpt lat="42.6273740" lon="-5.9609230">
        <ele>1059.8</ele>
        <time>2021-10-11T16:38:39Z</time>
      </trkpt>
      <trkpt lat="42.6273300" lon="-5.9609460">
        <ele>1059.8</ele>
        <time>2021-10-11T16:38:40Z</time>
      </trkpt>
      <trkpt lat="42.6271640" lon="-5.9610680">
        <ele>1059.6</ele>
        <time>2021-10-11T16:38:44Z</time>
      </trkpt>
      <trkpt lat="42.6271320" lon="-5.9611080">
        <ele>1059.6</ele>
        <time>2021-10-11T16:38:45Z</time>
      </trkpt>
      <trkpt lat="42.6269140" lon="-5.9614650">
        <ele>1058.8</ele>
        <time>2021-10-11T16:38:52Z</time>
      </trkpt>
      <trkpt lat="42.6268390" lon="-5.9615870">
        <ele>1058.2</ele>
        <time>2021-10-11T16:38:54Z</time>
      </trkpt>
      <trkpt lat="42.6267980" lon="-5.9616510">
        <ele>1058.0</ele>
        <time>2021-10-11T16:38:55Z</time>
      </trkpt>
      <trkpt lat="42.6267540" lon="-5.9617140">
        <ele>1057.6</ele>
        <time>2021-10-11T16:38:56Z</time>
      </trkpt>
      <trkpt lat="42.6266590" lon="-5.9618300">
        <ele>1057.0</ele>
        <time>2021-10-11T16:38:58Z</time>
      </trkpt>
      <trkpt lat="42.6265540" lon="-5.9619390">
        <ele>1056.2</ele>
        <time>2021-10-11T16:39:00Z</time>
      </trkpt>
      <trkpt lat="42.6264380" lon="-5.9620310">
        <ele>1055.0</ele>
        <time>2021-10-11T16:39:02Z</time>
      </trkpt>
      <trkpt lat="42.6263760" lon="-5.9620680">
        <ele>1054.2</ele>
        <time>2021-10-11T16:39:03Z</time>
      </trkpt>
      <trkpt lat="42.6262450" lon="-5.9621300">
        <ele>1052.8</ele>
        <time>2021-10-11T16:39:05Z</time>
      </trkpt>
      <trkpt lat="42.6261810" lon="-5.9621640">
        <ele>1052.2</ele>
        <time>2021-10-11T16:39:06Z</time>
      </trkpt>
      <trkpt lat="42.6261230" lon="-5.9622090">
        <ele>1051.6</ele>
        <time>2021-10-11T16:39:07Z</time>
      </trkpt>
      <trkpt lat="42.6260710" lon="-5.9622610">
        <ele>1051.0</ele>
        <time>2021-10-11T16:39:08Z</time>
      </trkpt>
      <trkpt lat="42.6260200" lon="-5.9623160">
        <ele>1050.2</ele>
        <time>2021-10-11T16:39:09Z</time>
      </trkpt>
      <trkpt lat="42.6259740" lon="-5.9623650">
        <ele>1049.6</ele>
        <time>2021-10-11T16:39:10Z</time>
      </trkpt>
      <trkpt lat="42.6259230" lon="-5.9624020">
        <ele>1049.0</ele>
        <time>2021-10-11T16:39:11Z</time>
      </trkpt>
      <trkpt lat="42.6258710" lon="-5.9624320">
        <ele>1048.0</ele>
        <time>2021-10-11T16:39:12Z</time>
      </trkpt>
      <trkpt lat="42.6258200" lon="-5.9624590">
        <ele>1047.6</ele>
        <time>2021-10-11T16:39:13Z</time>
      </trkpt>
      <trkpt lat="42.6257180" lon="-5.9625150">
        <ele>1046.4</ele>
        <time>2021-10-11T16:39:15Z</time>
      </trkpt>
      <trkpt lat="42.6256710" lon="-5.9625470">
        <ele>1045.4</ele>
        <time>2021-10-11T16:39:16Z</time>
      </trkpt>
      <trkpt lat="42.6256300" lon="-5.9625870">
        <ele>1045.2</ele>
        <time>2021-10-11T16:39:17Z</time>
      </trkpt>
      <trkpt lat="42.6255560" lon="-5.9626750">
        <ele>1044.6</ele>
        <time>2021-10-11T16:39:19Z</time>
      </trkpt>
      <trkpt lat="42.6254980" lon="-5.9627870">
        <ele>1043.6</ele>
        <time>2021-10-11T16:39:21Z</time>
      </trkpt>
      <trkpt lat="42.6254770" lon="-5.9628530">
        <ele>1043.4</ele>
        <time>2021-10-11T16:39:22Z</time>
      </trkpt>
      <trkpt lat="42.6254440" lon="-5.9629930">
        <ele>1042.6</ele>
        <time>2021-10-11T16:39:24Z</time>
      </trkpt>
      <trkpt lat="42.6254050" lon="-5.9631220">
        <ele>1042.0</ele>
        <time>2021-10-11T16:39:26Z</time>
      </trkpt>
      <trkpt lat="42.6253520" lon="-5.9632400">
        <ele>1041.4</ele>
        <time>2021-10-11T16:39:28Z</time>
      </trkpt>
      <trkpt lat="42.6253250" lon="-5.9632990">
        <ele>1040.6</ele>
        <time>2021-10-11T16:39:29Z</time>
      </trkpt>
      <trkpt lat="42.6252920" lon="-5.9633560">
        <ele>1040.4</ele>
        <time>2021-10-11T16:39:30Z</time>
      </trkpt>
      <trkpt lat="42.6252260" lon="-5.9634750">
        <ele>1039.2</ele>
        <time>2021-10-11T16:39:32Z</time>
      </trkpt>
      <trkpt lat="42.6251230" lon="-5.9636730">
        <ele>1038.0</ele>
        <time>2021-10-11T16:39:35Z</time>
      </trkpt>
      <trkpt lat="42.6250910" lon="-5.9637370">
        <ele>1037.4</ele>
        <time>2021-10-11T16:39:36Z</time>
      </trkpt>
      <trkpt lat="42.6250570" lon="-5.9638060">
        <ele>1036.8</ele>
        <time>2021-10-11T16:39:37Z</time>
      </trkpt>
      <trkpt lat="42.6249810" lon="-5.9639430">
        <ele>1035.8</ele>
        <time>2021-10-11T16:39:39Z</time>
      </trkpt>
      <trkpt lat="42.6248990" lon="-5.9640890">
        <ele>1034.6</ele>
        <time>2021-10-11T16:39:41Z</time>
      </trkpt>
      <trkpt lat="42.6247710" lon="-5.9643070">
        <ele>1033.6</ele>
        <time>2021-10-11T16:39:44Z</time>
      </trkpt>
      <trkpt lat="42.6247330" lon="-5.9643810">
        <ele>1033.4</ele>
        <time>2021-10-11T16:39:45Z</time>
      </trkpt>
      <trkpt lat="42.6246330" lon="-5.9646150">
        <ele>1032.6</ele>
        <time>2021-10-11T16:39:48Z</time>
      </trkpt>
      <trkpt lat="42.6246030" lon="-5.9646930">
        <ele>1032.2</ele>
        <time>2021-10-11T16:39:49Z</time>
      </trkpt>
      <trkpt lat="42.6245030" lon="-5.9649180">
        <ele>1031.0</ele>
        <time>2021-10-11T16:39:52Z</time>
      </trkpt>
      <trkpt lat="42.6243880" lon="-5.9651160">
        <ele>1030.4</ele>
        <time>2021-10-11T16:39:55Z</time>
      </trkpt>
      <trkpt lat="42.6242640" lon="-5.9652860">
        <ele>1029.8</ele>
        <time>2021-10-11T16:39:58Z</time>
      </trkpt>
      <trkpt lat="42.6241710" lon="-5.9653720">
        <ele>1029.6</ele>
        <time>2021-10-11T16:40:00Z</time>
      </trkpt>
      <trkpt lat="42.6240760" lon="-5.9654440">
        <ele>1029.6</ele>
        <time>2021-10-11T16:40:02Z</time>
      </trkpt>
      <trkpt lat="42.6239310" lon="-5.9655450">
        <ele>1029.2</ele>
        <time>2021-10-11T16:40:05Z</time>
      </trkpt>
      <trkpt lat="42.6238830" lon="-5.9655780">
        <ele>1029.2</ele>
        <time>2021-10-11T16:40:06Z</time>
      </trkpt>
      <trkpt lat="42.6238340" lon="-5.9656090">
        <ele>1029.2</ele>
        <time>2021-10-11T16:40:07Z</time>
      </trkpt>
      <trkpt lat="42.6237330" lon="-5.9656550">
        <ele>1028.8</ele>
        <time>2021-10-11T16:40:09Z</time>
      </trkpt>
      <trkpt lat="42.6236830" lon="-5.9656700">
        <ele>1028.8</ele>
        <time>2021-10-11T16:40:10Z</time>
      </trkpt>
      <trkpt lat="42.6235380" lon="-5.9657050">
        <ele>1028.4</ele>
        <time>2021-10-11T16:40:13Z</time>
      </trkpt>
      <trkpt lat="42.6233940" lon="-5.9657160">
        <ele>1028.2</ele>
        <time>2021-10-11T16:40:16Z</time>
      </trkpt>
      <trkpt lat="42.6232480" lon="-5.9657020">
        <ele>1028.0</ele>
        <time>2021-10-11T16:40:19Z</time>
      </trkpt>
      <trkpt lat="42.6231440" lon="-5.9656920">
        <ele>1027.8</ele>
        <time>2021-10-11T16:40:21Z</time>
      </trkpt>
      <trkpt lat="42.6230920" lon="-5.9656880">
        <ele>1027.8</ele>
        <time>2021-10-11T16:40:22Z</time>
      </trkpt>
      <trkpt lat="42.6229890" lon="-5.9656870">
        <ele>1027.8</ele>
        <time>2021-10-11T16:40:24Z</time>
      </trkpt>
      <trkpt lat="42.6228340" lon="-5.9656840">
        <ele>1027.6</ele>
        <time>2021-10-11T16:40:27Z</time>
      </trkpt>
      <trkpt lat="42.6226770" lon="-5.9656870">
        <ele>1027.2</ele>
        <time>2021-10-11T16:40:30Z</time>
      </trkpt>
      <trkpt lat="42.6225230" lon="-5.9657060">
        <ele>1026.6</ele>
        <time>2021-10-11T16:40:33Z</time>
      </trkpt>
      <trkpt lat="42.6224790" lon="-5.9657190">
        <ele>1026.2</ele>
        <time>2021-10-11T16:40:34Z</time>
      </trkpt>
      <trkpt lat="42.6223480" lon="-5.9657730">
        <ele>1026.0</ele>
        <time>2021-10-11T16:40:37Z</time>
      </trkpt>
      <trkpt lat="42.6221480" lon="-5.9658930">
        <ele>1025.6</ele>
        <time>2021-10-11T16:40:42Z</time>
      </trkpt>
      <trkpt lat="42.6221100" lon="-5.9659230">
        <ele>1025.6</ele>
        <time>2021-10-11T16:40:43Z</time>
      </trkpt>
      <trkpt lat="42.6220260" lon="-5.9659800">
        <ele>1025.0</ele>
        <time>2021-10-11T16:40:45Z</time>
      </trkpt>
      <trkpt lat="42.6219830" lon="-5.9660090">
        <ele>1024.8</ele>
        <time>2021-10-11T16:40:46Z</time>
      </trkpt>
      <trkpt lat="42.6219370" lon="-5.9660360">
        <ele>1024.4</ele>
        <time>2021-10-11T16:40:47Z</time>
      </trkpt>
      <trkpt lat="42.6218390" lon="-5.9660720">
        <ele>1023.6</ele>
        <time>2021-10-11T16:40:49Z</time>
      </trkpt>
      <trkpt lat="42.6217860" lon="-5.9660800">
        <ele>1023.4</ele>
        <time>2021-10-11T16:40:50Z</time>
      </trkpt>
      <trkpt lat="42.6216070" lon="-5.9660740">
        <ele>1022.2</ele>
        <time>2021-10-11T16:40:53Z</time>
      </trkpt>
      <trkpt lat="42.6214850" lon="-5.9660640">
        <ele>1021.4</ele>
        <time>2021-10-11T16:40:55Z</time>
      </trkpt>
      <trkpt lat="42.6214230" lon="-5.9660650">
        <ele>1019.8</ele>
        <time>2021-10-11T16:40:56Z</time>
      </trkpt>
      <trkpt lat="42.6213080" lon="-5.9661010">
        <ele>1018.8</ele>
        <time>2021-10-11T16:40:58Z</time>
      </trkpt>
      <trkpt lat="42.6212570" lon="-5.9661370">
        <ele>1018.8</ele>
        <time>2021-10-11T16:40:59Z</time>
      </trkpt>
      <trkpt lat="42.6211600" lon="-5.9662180">
        <ele>1018.2</ele>
        <time>2021-10-11T16:41:01Z</time>
      </trkpt>
      <trkpt lat="42.6210550" lon="-5.9662630">
        <ele>1017.6</ele>
        <time>2021-10-11T16:41:03Z</time>
      </trkpt>
      <trkpt lat="42.6209980" lon="-5.9662770">
        <ele>1017.2</ele>
        <time>2021-10-11T16:41:04Z</time>
      </trkpt>
      <trkpt lat="42.6209380" lon="-5.9662860">
        <ele>1016.8</ele>
        <time>2021-10-11T16:41:05Z</time>
      </trkpt>
      <trkpt lat="42.6208100" lon="-5.9662920">
        <ele>1016.2</ele>
        <time>2021-10-11T16:41:07Z</time>
      </trkpt>
      <trkpt lat="42.6206670" lon="-5.9663100">
        <ele>1015.8</ele>
        <time>2021-10-11T16:41:09Z</time>
      </trkpt>
      <trkpt lat="42.6203850" lon="-5.9663640">
        <ele>1015.0</ele>
        <time>2021-10-11T16:41:13Z</time>
      </trkpt>
      <trkpt lat="42.6202520" lon="-5.9663970">
        <ele>1013.4</ele>
        <time>2021-10-11T16:41:15Z</time>
      </trkpt>
      <trkpt lat="42.6201910" lon="-5.9664230">
        <ele>1012.8</ele>
        <time>2021-10-11T16:41:16Z</time>
      </trkpt>
      <trkpt lat="42.6200750" lon="-5.9664930">
        <ele>1012.0</ele>
        <time>2021-10-11T16:41:18Z</time>
      </trkpt>
      <trkpt lat="42.6200230" lon="-5.9665370">
        <ele>1011.8</ele>
        <time>2021-10-11T16:41:19Z</time>
      </trkpt>
      <trkpt lat="42.6199300" lon="-5.9666330">
        <ele>1010.8</ele>
        <time>2021-10-11T16:41:21Z</time>
      </trkpt>
      <trkpt lat="42.6198510" lon="-5.9667390">
        <ele>1009.6</ele>
        <time>2021-10-11T16:41:23Z</time>
      </trkpt>
      <trkpt lat="42.6197770" lon="-5.9668480">
        <ele>1008.0</ele>
        <time>2021-10-11T16:41:25Z</time>
      </trkpt>
      <trkpt lat="42.6196910" lon="-5.9669440">
        <ele>1007.2</ele>
        <time>2021-10-11T16:41:27Z</time>
      </trkpt>
      <trkpt lat="42.6196570" lon="-5.9669970">
        <ele>1007.0</ele>
        <time>2021-10-11T16:41:28Z</time>
      </trkpt>
      <trkpt lat="42.6196290" lon="-5.9670530">
        <ele>1006.4</ele>
        <time>2021-10-11T16:41:29Z</time>
      </trkpt>
      <trkpt lat="42.6195750" lon="-5.9672330">
        <ele>1005.8</ele>
        <time>2021-10-11T16:41:32Z</time>
      </trkpt>
      <trkpt lat="42.6195680" lon="-5.9672920">
        <ele>1005.0</ele>
        <time>2021-10-11T16:41:33Z</time>
      </trkpt>
      <trkpt lat="42.6195630" lon="-5.9674130">
        <ele>1003.8</ele>
        <time>2021-10-11T16:41:35Z</time>
      </trkpt>
      <trkpt lat="42.6195290" lon="-5.9675330">
        <ele>1002.4</ele>
        <time>2021-10-11T16:41:37Z</time>
      </trkpt>
      <trkpt lat="42.6194570" lon="-5.9676280">
        <ele>1001.8</ele>
        <time>2021-10-11T16:41:39Z</time>
      </trkpt>
      <trkpt lat="42.6194100" lon="-5.9676640">
        <ele>1000.8</ele>
        <time>2021-10-11T16:41:40Z</time>
      </trkpt>
      <trkpt lat="42.6193580" lon="-5.9676880">
        <ele>1000.4</ele>
        <time>2021-10-11T16:41:41Z</time>
      </trkpt>
      <trkpt lat="42.6192510" lon="-5.9676900">
        <ele>999.8</ele>
        <time>2021-10-11T16:41:43Z</time>
      </trkpt>
      <trkpt lat="42.6191420" lon="-5.9676680">
        <ele>998.6</ele>
        <time>2021-10-11T16:41:45Z</time>
      </trkpt>
      <trkpt lat="42.6190810" lon="-5.9676660">
        <ele>998.0</ele>
        <time>2021-10-11T16:41:46Z</time>
      </trkpt>
      <trkpt lat="42.6190240" lon="-5.9676820">
        <ele>997.4</ele>
        <time>2021-10-11T16:41:47Z</time>
      </trkpt>
      <trkpt lat="42.6189710" lon="-5.9677200">
        <ele>997.2</ele>
        <time>2021-10-11T16:41:48Z</time>
      </trkpt>
      <trkpt lat="42.6188960" lon="-5.9678270">
        <ele>996.4</ele>
        <time>2021-10-11T16:41:50Z</time>
      </trkpt>
      <trkpt lat="42.6188610" lon="-5.9678910">
        <ele>996.0</ele>
        <time>2021-10-11T16:41:51Z</time>
      </trkpt>
      <trkpt lat="42.6188240" lon="-5.9679550">
        <ele>995.8</ele>
        <time>2021-10-11T16:41:52Z</time>
      </trkpt>
      <trkpt lat="42.6187440" lon="-5.9680780">
        <ele>995.0</ele>
        <time>2021-10-11T16:41:54Z</time>
      </trkpt>
      <trkpt lat="42.6186110" lon="-5.9682530">
        <ele>993.2</ele>
        <time>2021-10-11T16:41:57Z</time>
      </trkpt>
      <trkpt lat="42.6184750" lon="-5.9684270">
        <ele>992.0</ele>
        <time>2021-10-11T16:42:00Z</time>
      </trkpt>
      <trkpt lat="42.6184420" lon="-5.9684840">
        <ele>991.8</ele>
        <time>2021-10-11T16:42:01Z</time>
      </trkpt>
      <trkpt lat="42.6183700" lon="-5.9686320">
        <ele>991.4</ele>
        <time>2021-10-11T16:42:04Z</time>
      </trkpt>
      <trkpt lat="42.6183170" lon="-5.9686870">
        <ele>991.0</ele>
        <time>2021-10-11T16:42:07Z</time>
      </trkpt>
      <trkpt lat="42.6182880" lon="-5.9686960">
        <ele>991.0</ele>
        <time>2021-10-11T16:42:08Z</time>
      </trkpt>
      <trkpt lat="42.6181210" lon="-5.9687720">
        <ele>990.8</ele>
        <time>2021-10-11T16:42:14Z</time>
      </trkpt>
      <trkpt lat="42.6178950" lon="-5.9689040">
        <ele>990.8</ele>
        <time>2021-10-11T16:42:21Z</time>
      </trkpt>
      <trkpt lat="42.6176260" lon="-5.9689640">
        <ele>991.2</ele>
        <time>2021-10-11T16:42:28Z</time>
      </trkpt>
      <trkpt lat="42.6174080" lon="-5.9689260">
        <ele>991.4</ele>
        <time>2021-10-11T16:42:34Z</time>
      </trkpt>
      <trkpt lat="42.6173710" lon="-5.9689140">
        <ele>991.4</ele>
        <time>2021-10-11T16:42:35Z</time>
      </trkpt>
      <trkpt lat="42.6171470" lon="-5.9688390">
        <ele>991.4</ele>
        <time>2021-10-11T16:42:41Z</time>
      </trkpt>
      <trkpt lat="42.6171110" lon="-5.9688230">
        <ele>991.4</ele>
        <time>2021-10-11T16:42:42Z</time>
      </trkpt>
      <trkpt lat="42.6170420" lon="-5.9687910">
        <ele>991.2</ele>
        <time>2021-10-11T16:42:44Z</time>
      </trkpt>
      <trkpt lat="42.6169690" lon="-5.9687610">
        <ele>991.2</ele>
        <time>2021-10-11T16:42:46Z</time>
      </trkpt>
      <trkpt lat="42.6169000" lon="-5.9687260">
        <ele>991.0</ele>
        <time>2021-10-11T16:42:48Z</time>
      </trkpt>
      <trkpt lat="42.6168360" lon="-5.9686890">
        <ele>991.0</ele>
        <time>2021-10-11T16:42:50Z</time>
      </trkpt>
      <trkpt lat="42.6167760" lon="-5.9686590">
        <ele>990.8</ele>
        <time>2021-10-11T16:42:52Z</time>
      </trkpt>
      <trkpt lat="42.6167450" lon="-5.9686450">
        <ele>990.8</ele>
        <time>2021-10-11T16:42:53Z</time>
      </trkpt>
      <trkpt lat="42.6166470" lon="-5.9686150">
        <ele>990.8</ele>
        <time>2021-10-11T16:42:56Z</time>
      </trkpt>
      <trkpt lat="42.6165410" lon="-5.9685590">
        <ele>990.8</ele>
        <time>2021-10-11T16:42:59Z</time>
      </trkpt>
      <trkpt lat="42.6163260" lon="-5.9684220">
        <ele>990.6</ele>
        <time>2021-10-11T16:43:05Z</time>
      </trkpt>
      <trkpt lat="42.6161470" lon="-5.9683020">
        <ele>989.8</ele>
        <time>2021-10-11T16:43:10Z</time>
      </trkpt>
      <trkpt lat="42.6159840" lon="-5.9681790">
        <ele>989.0</ele>
        <time>2021-10-11T16:43:14Z</time>
      </trkpt>
      <trkpt lat="42.6158640" lon="-5.9680840">
        <ele>988.0</ele>
        <time>2021-10-11T16:43:17Z</time>
      </trkpt>
      <trkpt lat="42.6157930" lon="-5.9680230">
        <ele>987.8</ele>
        <time>2021-10-11T16:43:19Z</time>
      </trkpt>
      <trkpt lat="42.6157000" lon="-5.9679410">
        <ele>987.8</ele>
        <time>2021-10-11T16:43:22Z</time>
      </trkpt>
      <trkpt lat="42.6155590" lon="-5.9678590">
        <ele>987.6</ele>
        <time>2021-10-11T16:43:26Z</time>
      </trkpt>
      <trkpt lat="42.6154820" lon="-5.9678290">
        <ele>987.4</ele>
        <time>2021-10-11T16:43:28Z</time>
      </trkpt>
      <trkpt lat="42.6154390" lon="-5.9678170">
        <ele>987.2</ele>
        <time>2021-10-11T16:43:29Z</time>
      </trkpt>
      <trkpt lat="42.6153940" lon="-5.9678080">
        <ele>987.2</ele>
        <time>2021-10-11T16:43:30Z</time>
      </trkpt>
      <trkpt lat="42.6151610" lon="-5.9677470">
        <ele>987.4</ele>
        <time>2021-10-11T16:43:35Z</time>
      </trkpt>
      <trkpt lat="42.6150280" lon="-5.9676900">
        <ele>987.2</ele>
        <time>2021-10-11T16:43:38Z</time>
      </trkpt>
      <trkpt lat="42.6148990" lon="-5.9676250">
        <ele>987.2</ele>
        <time>2021-10-11T16:43:41Z</time>
      </trkpt>
      <trkpt lat="42.6148570" lon="-5.9675990">
        <ele>987.2</ele>
        <time>2021-10-11T16:43:42Z</time>
      </trkpt>
      <trkpt lat="42.6147670" lon="-5.9675610">
        <ele>986.8</ele>
        <time>2021-10-11T16:43:44Z</time>
      </trkpt>
      <trkpt lat="42.6144830" lon="-5.9674920">
        <ele>986.4</ele>
        <time>2021-10-11T16:43:50Z</time>
      </trkpt>
      <trkpt lat="42.6140720" lon="-5.9674580">
        <ele>986.0</ele>
        <time>2021-10-11T16:43:58Z</time>
      </trkpt>
      <trkpt lat="42.6140200" lon="-5.9674510">
        <ele>986.0</ele>
        <time>2021-10-11T16:43:59Z</time>
      </trkpt>
      <trkpt lat="42.6138600" lon="-5.9674160">
        <ele>985.8</ele>
        <time>2021-10-11T16:44:02Z</time>
      </trkpt>
      <trkpt lat="42.6137450" lon="-5.9674090">
        <ele>985.8</ele>
        <time>2021-10-11T16:44:04Z</time>
      </trkpt>
      <trkpt lat="42.6134540" lon="-5.9674500">
        <ele>985.4</ele>
        <time>2021-10-11T16:44:09Z</time>
      </trkpt>
      <trkpt lat="42.6133980" lon="-5.9674760">
        <ele>985.4</ele>
        <time>2021-10-11T16:44:10Z</time>
      </trkpt>
      <trkpt lat="42.6132250" lon="-5.9675530">
        <ele>985.0</ele>
        <time>2021-10-11T16:44:13Z</time>
      </trkpt>
      <trkpt lat="42.6131150" lon="-5.9676010">
        <ele>984.8</ele>
        <time>2021-10-11T16:44:15Z</time>
      </trkpt>
      <trkpt lat="42.6129020" lon="-5.9676640">
        <ele>984.4</ele>
        <time>2021-10-11T16:44:19Z</time>
      </trkpt>
      <trkpt lat="42.6127000" lon="-5.9677320">
        <ele>984.0</ele>
        <time>2021-10-11T16:44:23Z</time>
      </trkpt>
      <trkpt lat="42.6125580" lon="-5.9678140">
        <ele>984.0</ele>
        <time>2021-10-11T16:44:26Z</time>
      </trkpt>
      <trkpt lat="42.6124180" lon="-5.9678800">
        <ele>983.8</ele>
        <time>2021-10-11T16:44:29Z</time>
      </trkpt>
      <trkpt lat="42.6122640" lon="-5.9679140">
        <ele>983.8</ele>
        <time>2021-10-11T16:44:32Z</time>
      </trkpt>
      <trkpt lat="42.6122140" lon="-5.9679180">
        <ele>983.8</ele>
        <time>2021-10-11T16:44:33Z</time>
      </trkpt>
      <trkpt lat="42.6119590" lon="-5.9679330">
        <ele>983.8</ele>
        <time>2021-10-11T16:44:38Z</time>
      </trkpt>
      <trkpt lat="42.6116800" lon="-5.9679780">
        <ele>983.6</ele>
        <time>2021-10-11T16:44:43Z</time>
      </trkpt>
      <trkpt lat="42.6115140" lon="-5.9680060">
        <ele>983.6</ele>
        <time>2021-10-11T16:44:46Z</time>
      </trkpt>
      <trkpt lat="42.6113490" lon="-5.9680490">
        <ele>983.6</ele>
        <time>2021-10-11T16:44:49Z</time>
      </trkpt>
      <trkpt lat="42.6111840" lon="-5.9680370">
        <ele>983.4</ele>
        <time>2021-10-11T16:44:52Z</time>
      </trkpt>
      <trkpt lat="42.6110190" lon="-5.9679910">
        <ele>983.2</ele>
        <time>2021-10-11T16:44:55Z</time>
      </trkpt>
      <trkpt lat="42.6109150" lon="-5.9679880">
        <ele>983.0</ele>
        <time>2021-10-11T16:44:57Z</time>
      </trkpt>
      <trkpt lat="42.6108650" lon="-5.9679750">
        <ele>982.8</ele>
        <time>2021-10-11T16:44:58Z</time>
      </trkpt>
      <trkpt lat="42.6107600" lon="-5.9679320">
        <ele>982.6</ele>
        <time>2021-10-11T16:45:00Z</time>
      </trkpt>
      <trkpt lat="42.6107070" lon="-5.9679190">
        <ele>982.6</ele>
        <time>2021-10-11T16:45:01Z</time>
      </trkpt>
      <trkpt lat="42.6105930" lon="-5.9679260">
        <ele>982.6</ele>
        <time>2021-10-11T16:45:03Z</time>
      </trkpt>
      <trkpt lat="42.6104220" lon="-5.9679540">
        <ele>982.2</ele>
        <time>2021-10-11T16:45:06Z</time>
      </trkpt>
      <trkpt lat="42.6101360" lon="-5.9680300">
        <ele>981.8</ele>
        <time>2021-10-11T16:45:11Z</time>
      </trkpt>
      <trkpt lat="42.6100230" lon="-5.9680700">
        <ele>981.6</ele>
        <time>2021-10-11T16:45:13Z</time>
      </trkpt>
      <trkpt lat="42.6095690" lon="-5.9682350">
        <ele>981.0</ele>
        <time>2021-10-11T16:45:21Z</time>
      </trkpt>
      <trkpt lat="42.6091380" lon="-5.9684800">
        <ele>980.8</ele>
        <time>2021-10-11T16:45:29Z</time>
      </trkpt>
      <trkpt lat="42.6090250" lon="-5.9685070">
        <ele>980.8</ele>
        <time>2021-10-11T16:45:31Z</time>
      </trkpt>
      <trkpt lat="42.6089100" lon="-5.9685070">
        <ele>980.6</ele>
        <time>2021-10-11T16:45:33Z</time>
      </trkpt>
      <trkpt lat="42.6087950" lon="-5.9684940">
        <ele>980.4</ele>
        <time>2021-10-11T16:45:35Z</time>
      </trkpt>
      <trkpt lat="42.6085670" lon="-5.9684210">
        <ele>980.0</ele>
        <time>2021-10-11T16:45:39Z</time>
      </trkpt>
      <trkpt lat="42.6084610" lon="-5.9683750">
        <ele>979.8</ele>
        <time>2021-10-11T16:45:41Z</time>
      </trkpt>
      <trkpt lat="42.6083570" lon="-5.9683680">
        <ele>979.8</ele>
        <time>2021-10-11T16:45:43Z</time>
      </trkpt>
      <trkpt lat="42.6082520" lon="-5.9683700">
        <ele>979.4</ele>
        <time>2021-10-11T16:45:45Z</time>
      </trkpt>
      <trkpt lat="42.6081470" lon="-5.9683650">
        <ele>979.4</ele>
        <time>2021-10-11T16:45:47Z</time>
      </trkpt>
      <trkpt lat="42.6080940" lon="-5.9683480">
        <ele>979.2</ele>
        <time>2021-10-11T16:45:48Z</time>
      </trkpt>
      <trkpt lat="42.6080410" lon="-5.9683340">
        <ele>979.0</ele>
        <time>2021-10-11T16:45:49Z</time>
      </trkpt>
      <trkpt lat="42.6078110" lon="-5.9683340">
        <ele>978.8</ele>
        <time>2021-10-11T16:45:53Z</time>
      </trkpt>
      <trkpt lat="42.6077510" lon="-5.9683330">
        <ele>978.6</ele>
        <time>2021-10-11T16:45:54Z</time>
      </trkpt>
      <trkpt lat="42.6076930" lon="-5.9683270">
        <ele>978.6</ele>
        <time>2021-10-11T16:45:55Z</time>
      </trkpt>
      <trkpt lat="42.6075780" lon="-5.9683050">
        <ele>978.6</ele>
        <time>2021-10-11T16:45:57Z</time>
      </trkpt>
      <trkpt lat="42.6075170" lon="-5.9683050">
        <ele>978.6</ele>
        <time>2021-10-11T16:45:58Z</time>
      </trkpt>
      <trkpt lat="42.6074570" lon="-5.9683180">
        <ele>978.6</ele>
        <time>2021-10-11T16:45:59Z</time>
      </trkpt>
      <trkpt lat="42.6073440" lon="-5.9683560">
        <ele>978.6</ele>
        <time>2021-10-11T16:46:01Z</time>
      </trkpt>
      <trkpt lat="42.6072290" lon="-5.9683810">
        <ele>978.6</ele>
        <time>2021-10-11T16:46:03Z</time>
      </trkpt>
      <trkpt lat="42.6071180" lon="-5.9683860">
        <ele>978.6</ele>
        <time>2021-10-11T16:46:05Z</time>
      </trkpt>
      <trkpt lat="42.6069080" lon="-5.9683730">
        <ele>978.4</ele>
        <time>2021-10-11T16:46:09Z</time>
      </trkpt>
      <trkpt lat="42.6067510" lon="-5.9683660">
        <ele>978.2</ele>
        <time>2021-10-11T16:46:12Z</time>
      </trkpt>
      <trkpt lat="42.6067010" lon="-5.9683570">
        <ele>978.2</ele>
        <time>2021-10-11T16:46:13Z</time>
      </trkpt>
      <trkpt lat="42.6065960" lon="-5.9683600">
        <ele>978.2</ele>
        <time>2021-10-11T16:46:15Z</time>
      </trkpt>
      <trkpt lat="42.6063760" lon="-5.9684140">
        <ele>978.0</ele>
        <time>2021-10-11T16:46:19Z</time>
      </trkpt>
      <trkpt lat="42.6062680" lon="-5.9684090">
        <ele>977.8</ele>
        <time>2021-10-11T16:46:21Z</time>
      </trkpt>
      <trkpt lat="42.6061530" lon="-5.9683960">
        <ele>977.8</ele>
        <time>2021-10-11T16:46:23Z</time>
      </trkpt>
      <trkpt lat="42.6060410" lon="-5.9684020">
        <ele>977.6</ele>
        <time>2021-10-11T16:46:25Z</time>
      </trkpt>
      <trkpt lat="42.6059280" lon="-5.9684220">
        <ele>977.6</ele>
        <time>2021-10-11T16:46:27Z</time>
      </trkpt>
      <trkpt lat="42.6058160" lon="-5.9684490">
        <ele>977.6</ele>
        <time>2021-10-11T16:46:29Z</time>
      </trkpt>
      <trkpt lat="42.6056550" lon="-5.9684850">
        <ele>977.4</ele>
        <time>2021-10-11T16:46:32Z</time>
      </trkpt>
      <trkpt lat="42.6055560" lon="-5.9684980">
        <ele>977.2</ele>
        <time>2021-10-11T16:46:34Z</time>
      </trkpt>
      <trkpt lat="42.6054560" lon="-5.9684960">
        <ele>977.2</ele>
        <time>2021-10-11T16:46:36Z</time>
      </trkpt>
      <trkpt lat="42.6052490" lon="-5.9684580">
        <ele>977.0</ele>
        <time>2021-10-11T16:46:40Z</time>
      </trkpt>
      <trkpt lat="42.6050230" lon="-5.9684210">
        <ele>976.8</ele>
        <time>2021-10-11T16:46:44Z</time>
      </trkpt>
      <trkpt lat="42.6049630" lon="-5.9684030">
        <ele>976.6</ele>
        <time>2021-10-11T16:46:45Z</time>
      </trkpt>
      <trkpt lat="42.6049050" lon="-5.9683820">
        <ele>976.6</ele>
        <time>2021-10-11T16:46:46Z</time>
      </trkpt>
      <trkpt lat="42.6048460" lon="-5.9683660">
        <ele>976.4</ele>
        <time>2021-10-11T16:46:47Z</time>
      </trkpt>
      <trkpt lat="42.6047340" lon="-5.9683710">
        <ele>976.2</ele>
        <time>2021-10-11T16:46:49Z</time>
      </trkpt>
      <trkpt lat="42.6046750" lon="-5.9683830">
        <ele>976.0</ele>
        <time>2021-10-11T16:46:50Z</time>
      </trkpt>
      <trkpt lat="42.6045620" lon="-5.9684070">
        <ele>975.6</ele>
        <time>2021-10-11T16:46:52Z</time>
      </trkpt>
      <trkpt lat="42.6042270" lon="-5.9684670">
        <ele>974.8</ele>
        <time>2021-10-11T16:46:58Z</time>
      </trkpt>
      <trkpt lat="42.6041230" lon="-5.9685140">
        <ele>974.6</ele>
        <time>2021-10-11T16:47:00Z</time>
      </trkpt>
      <trkpt lat="42.6039140" lon="-5.9686490">
        <ele>974.2</ele>
        <time>2021-10-11T16:47:04Z</time>
      </trkpt>
      <trkpt lat="42.6036160" lon="-5.9687890">
        <ele>973.4</ele>
        <time>2021-10-11T16:47:09Z</time>
      </trkpt>
      <trkpt lat="42.6033070" lon="-5.9690180">
        <ele>972.4</ele>
        <time>2021-10-11T16:47:15Z</time>
      </trkpt>
      <trkpt lat="42.6031680" lon="-5.9691650">
        <ele>972.2</ele>
        <time>2021-10-11T16:47:18Z</time>
      </trkpt>
      <trkpt lat="42.6030220" lon="-5.9692940">
        <ele>972.0</ele>
        <time>2021-10-11T16:47:21Z</time>
      </trkpt>
      <trkpt lat="42.6029270" lon="-5.9693590">
        <ele>972.0</ele>
        <time>2021-10-11T16:47:23Z</time>
      </trkpt>
      <trkpt lat="42.6026360" lon="-5.9695680">
        <ele>971.8</ele>
        <time>2021-10-11T16:47:29Z</time>
      </trkpt>
      <trkpt lat="42.6025330" lon="-5.9696340">
        <ele>971.8</ele>
        <time>2021-10-11T16:47:31Z</time>
      </trkpt>
      <trkpt lat="42.6024270" lon="-5.9696750">
        <ele>971.6</ele>
        <time>2021-10-11T16:47:33Z</time>
      </trkpt>
      <trkpt lat="42.6023720" lon="-5.9696790">
        <ele>971.4</ele>
        <time>2021-10-11T16:47:34Z</time>
      </trkpt>
      <trkpt lat="42.6023170" lon="-5.9696710">
        <ele>971.4</ele>
        <time>2021-10-11T16:47:35Z</time>
      </trkpt>
      <trkpt lat="42.6021010" lon="-5.9696100">
        <ele>971.4</ele>
        <time>2021-10-11T16:47:39Z</time>
      </trkpt>
      <trkpt lat="42.6019940" lon="-5.9695980">
        <ele>971.2</ele>
        <time>2021-10-11T16:47:41Z</time>
      </trkpt>
      <trkpt lat="42.6018240" lon="-5.9696310">
        <ele>971.2</ele>
        <time>2021-10-11T16:47:44Z</time>
      </trkpt>
      <trkpt lat="42.6017010" lon="-5.9696530">
        <ele>971.2</ele>
        <time>2021-10-11T16:47:46Z</time>
      </trkpt>
      <trkpt lat="42.6015230" lon="-5.9696270">
        <ele>970.6</ele>
        <time>2021-10-11T16:47:49Z</time>
      </trkpt>
      <trkpt lat="42.6014150" lon="-5.9696080">
        <ele>970.0</ele>
        <time>2021-10-11T16:47:51Z</time>
      </trkpt>
      <trkpt lat="42.6013630" lon="-5.9695950">
        <ele>969.8</ele>
        <time>2021-10-11T16:47:52Z</time>
      </trkpt>
      <trkpt lat="42.6012040" lon="-5.9695890">
        <ele>969.6</ele>
        <time>2021-10-11T16:47:55Z</time>
      </trkpt>
      <trkpt lat="42.6010480" lon="-5.9695930">
        <ele>969.6</ele>
        <time>2021-10-11T16:47:58Z</time>
      </trkpt>
      <trkpt lat="42.6008400" lon="-5.9695850">
        <ele>969.2</ele>
        <time>2021-10-11T16:48:02Z</time>
      </trkpt>
      <trkpt lat="42.6007350" lon="-5.9695740">
        <ele>969.2</ele>
        <time>2021-10-11T16:48:04Z</time>
      </trkpt>
      <trkpt lat="42.6005780" lon="-5.9695360">
        <ele>969.0</ele>
        <time>2021-10-11T16:48:07Z</time>
      </trkpt>
      <trkpt lat="42.6005260" lon="-5.9695260">
        <ele>969.0</ele>
        <time>2021-10-11T16:48:08Z</time>
      </trkpt>
      <trkpt lat="42.6003230" lon="-5.9695100">
        <ele>969.0</ele>
        <time>2021-10-11T16:48:12Z</time>
      </trkpt>
      <trkpt lat="42.6001730" lon="-5.9695110">
        <ele>969.0</ele>
        <time>2021-10-11T16:48:15Z</time>
      </trkpt>
      <trkpt lat="42.6001220" lon="-5.9695140">
        <ele>968.8</ele>
        <time>2021-10-11T16:48:16Z</time>
      </trkpt>
      <trkpt lat="42.5997030" lon="-5.9695630">
        <ele>968.4</ele>
        <time>2021-10-11T16:48:24Z</time>
      </trkpt>
      <trkpt lat="42.5995950" lon="-5.9695710">
        <ele>968.0</ele>
        <time>2021-10-11T16:48:26Z</time>
      </trkpt>
      <trkpt lat="42.5992760" lon="-5.9695920">
        <ele>967.6</ele>
        <time>2021-10-11T16:48:32Z</time>
      </trkpt>
      <trkpt lat="42.5990700" lon="-5.9696100">
        <ele>967.6</ele>
        <time>2021-10-11T16:48:36Z</time>
      </trkpt>
      <trkpt lat="42.5989130" lon="-5.9696290">
        <ele>967.2</ele>
        <time>2021-10-11T16:48:39Z</time>
      </trkpt>
      <trkpt lat="42.5988630" lon="-5.9696410">
        <ele>967.2</ele>
        <time>2021-10-11T16:48:40Z</time>
      </trkpt>
      <trkpt lat="42.5987170" lon="-5.9696880">
        <ele>967.0</ele>
        <time>2021-10-11T16:48:43Z</time>
      </trkpt>
      <trkpt lat="42.5986680" lon="-5.9696960">
        <ele>967.0</ele>
        <time>2021-10-11T16:48:44Z</time>
      </trkpt>
      <trkpt lat="42.5983970" lon="-5.9697030">
        <ele>966.6</ele>
        <time>2021-10-11T16:48:50Z</time>
      </trkpt>
      <trkpt lat="42.5980680" lon="-5.9697240">
        <ele>966.6</ele>
        <time>2021-10-11T16:48:59Z</time>
      </trkpt>
      <trkpt lat="42.5979150" lon="-5.9697220">
        <ele>966.6</ele>
        <time>2021-10-11T16:49:03Z</time>
      </trkpt>
      <trkpt lat="42.5978470" lon="-5.9697290">
        <ele>966.6</ele>
        <time>2021-10-11T16:49:05Z</time>
      </trkpt>
      <trkpt lat="42.5977680" lon="-5.9697660">
        <ele>966.6</ele>
        <time>2021-10-11T16:49:08Z</time>
      </trkpt>
      <trkpt lat="42.5977540" lon="-5.9697920">
        <ele>966.6</ele>
        <time>2021-10-11T16:49:09Z</time>
      </trkpt>
      <trkpt lat="42.5977480" lon="-5.9698220">
        <ele>966.6</ele>
        <time>2021-10-11T16:49:10Z</time>
      </trkpt>
      <trkpt lat="42.5977630" lon="-5.9699280">
        <ele>966.8</ele>
        <time>2021-10-11T16:49:13Z</time>
      </trkpt>
      <trkpt lat="42.5977710" lon="-5.9700100">
        <ele>967.0</ele>
        <time>2021-10-11T16:49:15Z</time>
      </trkpt>
      <trkpt lat="42.5977880" lon="-5.9700990">
        <ele>967.0</ele>
        <time>2021-10-11T16:49:17Z</time>
      </trkpt>
      <trkpt lat="42.5978160" lon="-5.9702910">
        <ele>967.0</ele>
        <time>2021-10-11T16:49:21Z</time>
      </trkpt>
      <trkpt lat="42.5978490" lon="-5.9705290">
        <ele>967.2</ele>
        <time>2021-10-11T16:49:26Z</time>
      </trkpt>
      <trkpt lat="42.5978750" lon="-5.9706880">
        <ele>967.4</ele>
        <time>2021-10-11T16:49:29Z</time>
      </trkpt>
      <trkpt lat="42.5978800" lon="-5.9707380">
        <ele>967.4</ele>
        <time>2021-10-11T16:49:30Z</time>
      </trkpt>
      <trkpt lat="42.5979370" lon="-5.9711420">
        <ele>968.2</ele>
        <time>2021-10-11T16:49:38Z</time>
      </trkpt>
      <trkpt lat="42.5979500" lon="-5.9712450">
        <ele>968.2</ele>
        <time>2021-10-11T16:49:40Z</time>
      </trkpt>
      <trkpt lat="42.5980110" lon="-5.9716630">
        <ele>968.6</ele>
        <time>2021-10-11T16:49:48Z</time>
      </trkpt>
      <trkpt lat="42.5980190" lon="-5.9717170">
        <ele>968.6</ele>
        <time>2021-10-11T16:49:49Z</time>
      </trkpt>
      <trkpt lat="42.5980280" lon="-5.9717690">
        <ele>968.6</ele>
        <time>2021-10-11T16:49:50Z</time>
      </trkpt>
      <trkpt lat="42.5980370" lon="-5.9718190">
        <ele>968.6</ele>
        <time>2021-10-11T16:49:51Z</time>
      </trkpt>
      <trkpt lat="42.5980570" lon="-5.9719730">
        <ele>968.8</ele>
        <time>2021-10-11T16:49:54Z</time>
      </trkpt>
      <trkpt lat="42.5980810" lon="-5.9721700">
        <ele>969.0</ele>
        <time>2021-10-11T16:49:58Z</time>
      </trkpt>
      <trkpt lat="42.5981170" lon="-5.9723760">
        <ele>969.2</ele>
        <time>2021-10-11T16:50:02Z</time>
      </trkpt>
      <trkpt lat="42.5981660" lon="-5.9727540">
        <ele>969.4</ele>
        <time>2021-10-11T16:50:10Z</time>
      </trkpt>
      <trkpt lat="42.5982170" lon="-5.9731390">
        <ele>969.8</ele>
        <time>2021-10-11T16:50:20Z</time>
      </trkpt>
      <trkpt lat="42.5982340" lon="-5.9732760">
        <ele>970.0</ele>
        <time>2021-10-11T16:50:25Z</time>
      </trkpt>
      <trkpt lat="42.5982260" lon="-5.9732990">
        <ele>970.2</ele>
        <time>2021-10-11T16:50:26Z</time>
      </trkpt>
      <trkpt lat="42.5981670" lon="-5.9733310">
        <ele>970.2</ele>
        <time>2021-10-11T16:50:29Z</time>
      </trkpt>
      <trkpt lat="42.5981290" lon="-5.9733210">
        <ele>970.4</ele>
        <time>2021-10-11T16:50:31Z</time>
      </trkpt>
      <trkpt lat="42.5980970" lon="-5.9733010">
        <ele>970.4</ele>
        <time>2021-10-11T16:50:33Z</time>
      </trkpt>
      <trkpt lat="42.5980640" lon="-5.9732780">
        <ele>970.4</ele>
        <time>2021-10-11T16:50:35Z</time>
      </trkpt>
      <trkpt lat="42.5979860" lon="-5.9732350">
        <ele>971.2</ele>
        <time>2021-10-11T16:50:40Z</time>
      </trkpt>
      <trkpt lat="42.5979070" lon="-5.9731840">
        <ele>972.4</ele>
        <time>2021-10-11T16:50:46Z</time>
      </trkpt>
      <trkpt lat="42.5978780" lon="-5.9731740">
        <ele>972.8</ele>
        <time>2021-10-11T16:50:48Z</time>
      </trkpt>
      <trkpt lat="42.5978380" lon="-5.9731630">
        <ele>973.6</ele>
        <time>2021-10-11T16:50:51Z</time>
      </trkpt>
      <trkpt lat="42.5977860" lon="-5.9731500">
        <ele>974.6</ele>
        <time>2021-10-11T16:50:55Z</time>
      </trkpt>
      <trkpt lat="42.5977290" lon="-5.9731400">
        <ele>975.8</ele>
        <time>2021-10-11T16:51:00Z</time>
      </trkpt>
      <trkpt lat="42.5976970" lon="-5.9731350">
        <ele>976.4</ele>
        <time>2021-10-11T16:51:03Z</time>
      </trkpt>
      <trkpt lat="42.5976730" lon="-5.9731350">
        <ele>976.8</ele>
        <time>2021-10-11T16:51:05Z</time>
      </trkpt>
      <trkpt lat="42.5976620" lon="-5.9731340">
        <ele>977.0</ele>
        <time>2021-10-11T16:51:06Z</time>
      </trkpt>
      <trkpt lat="42.5975530" lon="-5.9731230">
        <ele>977.8</ele>
        <time>2021-10-11T16:51:15Z</time>
      </trkpt>
      <trkpt lat="42.5975410" lon="-5.9731210">
        <ele>977.8</ele>
        <time>2021-10-11T16:51:16Z</time>
      </trkpt>
      <trkpt lat="42.5975260" lon="-5.9731220">
        <ele>978.0</ele>
        <time>2021-10-11T16:51:17Z</time>
      </trkpt>
      <trkpt lat="42.5974970" lon="-5.9731240">
        <ele>978.0</ele>
        <time>2021-10-11T16:51:19Z</time>
      </trkpt>
      <trkpt lat="42.5974830" lon="-5.9731270">
        <ele>978.2</ele>
        <time>2021-10-11T16:51:20Z</time>
      </trkpt>
      <trkpt lat="42.5974570" lon="-5.9731410">
        <ele>978.4</ele>
        <time>2021-10-11T16:51:22Z</time>
      </trkpt>
      <trkpt lat="42.5974430" lon="-5.9731420">
        <ele>978.6</ele>
        <time>2021-10-11T16:51:23Z</time>
      </trkpt>
      <trkpt lat="42.5974310" lon="-5.9731410">
        <ele>978.8</ele>
        <time>2021-10-11T16:51:24Z</time>
      </trkpt>
      <trkpt lat="42.5974060" lon="-5.9731420">
        <ele>979.0</ele>
        <time>2021-10-11T16:51:26Z</time>
      </trkpt>
      <trkpt lat="42.5973760" lon="-5.9731370">
        <ele>979.2</ele>
        <time>2021-10-11T16:51:28Z</time>
      </trkpt>
      <trkpt lat="42.5973360" lon="-5.9731340">
        <ele>979.6</ele>
        <time>2021-10-11T16:51:31Z</time>
      </trkpt>
      <trkpt lat="42.5973230" lon="-5.9731310">
        <ele>979.8</ele>
        <time>2021-10-11T16:51:32Z</time>
      </trkpt>
      <trkpt lat="42.5973090" lon="-5.9731310">
        <ele>979.8</ele>
        <time>2021-10-11T16:51:33Z</time>
      </trkpt>
      <trkpt lat="42.5972960" lon="-5.9731310">
        <ele>980.0</ele>
        <time>2021-10-11T16:51:34Z</time>
      </trkpt>
      <trkpt lat="42.5972830" lon="-5.9731310">
        <ele>980.2</ele>
        <time>2021-10-11T16:51:35Z</time>
      </trkpt>
      <trkpt lat="42.5972740" lon="-5.9731330">
        <ele>980.2</ele>
        <time>2021-10-11T16:51:36Z</time>
      </trkpt>
      <trkpt lat="42.5972630" lon="-5.9731290">
        <ele>980.4</ele>
        <time>2021-10-11T16:51:37Z</time>
      </trkpt>
      <trkpt lat="42.5972230" lon="-5.9731270">
        <ele>981.0</ele>
        <time>2021-10-11T16:51:40Z</time>
      </trkpt>
      <trkpt lat="42.5972130" lon="-5.9731270">
        <ele>981.0</ele>
        <time>2021-10-11T16:51:41Z</time>
      </trkpt>
      <trkpt lat="42.5972020" lon="-5.9731280">
        <ele>981.2</ele>
        <time>2021-10-11T16:51:42Z</time>
      </trkpt>
      <trkpt lat="42.5971780" lon="-5.9731290">
        <ele>981.4</ele>
        <time>2021-10-11T16:51:44Z</time>
      </trkpt>
      <trkpt lat="42.5970960" lon="-5.9731240">
        <ele>982.2</ele>
        <time>2021-10-11T16:51:50Z</time>
      </trkpt>
      <trkpt lat="42.5970820" lon="-5.9731230">
        <ele>982.2</ele>
        <time>2021-10-11T16:51:51Z</time>
      </trkpt>
      <trkpt lat="42.5970690" lon="-5.9731270">
        <ele>982.4</ele>
        <time>2021-10-11T16:51:52Z</time>
      </trkpt>
      <trkpt lat="42.5970430" lon="-5.9731280">
        <ele>982.6</ele>
        <time>2021-10-11T16:51:54Z</time>
      </trkpt>
      <trkpt lat="42.5969990" lon="-5.9731230">
        <ele>982.8</ele>
        <time>2021-10-11T16:51:57Z</time>
      </trkpt>
      <trkpt lat="42.5969200" lon="-5.9731200">
        <ele>983.4</ele>
        <time>2021-10-11T16:52:03Z</time>
      </trkpt>
      <trkpt lat="42.5969060" lon="-5.9731210">
        <ele>983.6</ele>
        <time>2021-10-11T16:52:04Z</time>
      </trkpt>
      <trkpt lat="42.5968950" lon="-5.9731220">
        <ele>983.6</ele>
        <time>2021-10-11T16:52:05Z</time>
      </trkpt>
      <trkpt lat="42.5968440" lon="-5.9731190">
        <ele>984.2</ele>
        <time>2021-10-11T16:52:09Z</time>
      </trkpt>
      <trkpt lat="42.5968180" lon="-5.9731210">
        <ele>984.6</ele>
        <time>2021-10-11T16:52:11Z</time>
      </trkpt>
      <trkpt lat="42.5967390" lon="-5.9731160">
        <ele>986.0</ele>
        <time>2021-10-11T16:52:17Z</time>
      </trkpt>
      <trkpt lat="42.5966950" lon="-5.9730950">
        <ele>986.8</ele>
        <time>2021-10-11T16:52:21Z</time>
      </trkpt>
      <trkpt lat="42.5966830" lon="-5.9730920">
        <ele>987.0</ele>
        <time>2021-10-11T16:52:22Z</time>
      </trkpt>
      <trkpt lat="42.5966630" lon="-5.9730910">
        <ele>987.4</ele>
        <time>2021-10-11T16:52:24Z</time>
      </trkpt>
      <trkpt lat="42.5965950" lon="-5.9730960">
        <ele>988.0</ele>
        <time>2021-10-11T16:52:30Z</time>
      </trkpt>
      <trkpt lat="42.5965720" lon="-5.9730970">
        <ele>988.2</ele>
        <time>2021-10-11T16:52:32Z</time>
      </trkpt>
      <trkpt lat="42.5965610" lon="-5.9730950">
        <ele>988.4</ele>
        <time>2021-10-11T16:52:33Z</time>
      </trkpt>
      <trkpt lat="42.5965490" lon="-5.9730930">
        <ele>988.6</ele>
        <time>2021-10-11T16:52:34Z</time>
      </trkpt>
      <trkpt lat="42.5965370" lon="-5.9730930">
        <ele>988.8</ele>
        <time>2021-10-11T16:52:35Z</time>
      </trkpt>
      <trkpt lat="42.5965130" lon="-5.9730950">
        <ele>989.0</ele>
        <time>2021-10-11T16:52:37Z</time>
      </trkpt>
      <trkpt lat="42.5965000" lon="-5.9730970">
        <ele>989.0</ele>
        <time>2021-10-11T16:52:38Z</time>
      </trkpt>
      <trkpt lat="42.5964680" lon="-5.9731000">
        <ele>989.2</ele>
        <time>2021-10-11T16:52:41Z</time>
      </trkpt>
      <trkpt lat="42.5964570" lon="-5.9731060">
        <ele>989.2</ele>
        <time>2021-10-11T16:52:42Z</time>
      </trkpt>
      <trkpt lat="42.5964330" lon="-5.9731190">
        <ele>989.4</ele>
        <time>2021-10-11T16:52:44Z</time>
      </trkpt>
      <trkpt lat="42.5963220" lon="-5.9731270">
        <ele>989.8</ele>
        <time>2021-10-11T16:52:53Z</time>
      </trkpt>
      <trkpt lat="42.5962870" lon="-5.9731320">
        <ele>989.8</ele>
        <time>2021-10-11T16:52:56Z</time>
      </trkpt>
      <trkpt lat="42.5962850" lon="-5.9731350">
        <ele>990.0</ele>
        <time>2021-10-11T16:52:58Z</time>
      </trkpt>
      <trkpt lat="42.5944210" lon="-5.9745080">
        <ele>1022.4</ele>
        <time>2021-10-11T16:57:45Z</time>
      </trkpt>
      <trkpt lat="42.5943050" lon="-5.9745360">
        <ele>1023.2</ele>
        <time>2021-10-11T16:57:55Z</time>
      </trkpt>
      <trkpt lat="42.5942550" lon="-5.9745510">
        <ele>1023.4</ele>
        <time>2021-10-11T16:57:59Z</time>
      </trkpt>
      <trkpt lat="42.5941990" lon="-5.9745550">
        <ele>1024.2</ele>
        <time>2021-10-11T16:58:06Z</time>
      </trkpt>
      <trkpt lat="42.5941990" lon="-5.9745550">
        <ele>1024.2</ele>
        <time>2021-10-11T16:58:08Z</time>
      </trkpt>
      <trkpt lat="42.5941390" lon="-5.9745740">
        <ele>1024.6</ele>
        <time>2021-10-11T16:58:13Z</time>
      </trkpt>
      <trkpt lat="42.5941040" lon="-5.9745900">
        <ele>1024.6</ele>
        <time>2021-10-11T16:58:15Z</time>
      </trkpt>
      <trkpt lat="42.5940010" lon="-5.9746670">
        <ele>1024.8</ele>
        <time>2021-10-11T16:58:21Z</time>
      </trkpt>
      <trkpt lat="42.5939830" lon="-5.9746880">
        <ele>1024.8</ele>
        <time>2021-10-11T16:58:22Z</time>
      </trkpt>
      <trkpt lat="42.5939670" lon="-5.9747080">
        <ele>1024.8</ele>
        <time>2021-10-11T16:58:23Z</time>
      </trkpt>
      <trkpt lat="42.5939360" lon="-5.9747510">
        <ele>1025.0</ele>
        <time>2021-10-11T16:58:25Z</time>
      </trkpt>
      <trkpt lat="42.5939100" lon="-5.9748230">
        <ele>1025.4</ele>
        <time>2021-10-11T16:58:28Z</time>
      </trkpt>
      <trkpt lat="42.5939020" lon="-5.9748730">
        <ele>1025.4</ele>
        <time>2021-10-11T16:58:30Z</time>
      </trkpt>
      <trkpt lat="42.5938960" lon="-5.9749280">
        <ele>1025.6</ele>
        <time>2021-10-11T16:58:33Z</time>
      </trkpt>
      <trkpt lat="42.5938950" lon="-5.9749600">
        <ele>1025.8</ele>
        <time>2021-10-11T16:58:35Z</time>
      </trkpt>
      <trkpt lat="42.5938980" lon="-5.9749750">
        <ele>1025.8</ele>
        <time>2021-10-11T16:58:38Z</time>
      </trkpt>
      <trkpt lat="42.5938980" lon="-5.9749750">
        <ele>1025.8</ele>
        <time>2021-10-11T16:58:39Z</time>
      </trkpt>
      <trkpt lat="42.5938530" lon="-5.9750050">
        <ele>1026.6</ele>
        <time>2021-10-11T17:01:06Z</time>
      </trkpt>
      <trkpt lat="42.5938310" lon="-5.9750110">
        <ele>1026.6</ele>
        <time>2021-10-11T17:01:07Z</time>
      </trkpt>
      <trkpt lat="42.5937590" lon="-5.9750470">
        <ele>1026.8</ele>
        <time>2021-10-11T17:01:10Z</time>
      </trkpt>
      <trkpt lat="42.5937140" lon="-5.9750740">
        <ele>1026.6</ele>
        <time>2021-10-11T17:01:12Z</time>
      </trkpt>
      <trkpt lat="42.5934800" lon="-5.9752250">
        <ele>1026.6</ele>
        <time>2021-10-11T17:01:22Z</time>
      </trkpt>
      <trkpt lat="42.5934350" lon="-5.9752440">
        <ele>1026.6</ele>
        <time>2021-10-11T17:01:24Z</time>
      </trkpt>
      <trkpt lat="42.5933270" lon="-5.9753090">
        <ele>1026.8</ele>
        <time>2021-10-11T17:01:28Z</time>
      </trkpt>
      <trkpt lat="42.5932390" lon="-5.9753590">
        <ele>1026.8</ele>
        <time>2021-10-11T17:01:31Z</time>
      </trkpt>
      <trkpt lat="42.5931580" lon="-5.9754170">
        <ele>1027.0</ele>
        <time>2021-10-11T17:01:34Z</time>
      </trkpt>
      <trkpt lat="42.5930970" lon="-5.9754600">
        <ele>1027.2</ele>
        <time>2021-10-11T17:01:36Z</time>
      </trkpt>
      <trkpt lat="42.5928790" lon="-5.9756040">
        <ele>1027.8</ele>
        <time>2021-10-11T17:01:42Z</time>
      </trkpt>
      <trkpt lat="42.5926000" lon="-5.9758800">
        <ele>1027.6</ele>
        <time>2021-10-11T17:01:50Z</time>
      </trkpt>
      <trkpt lat="42.5924190" lon="-5.9760590">
        <ele>1027.4</ele>
        <time>2021-10-11T17:01:55Z</time>
      </trkpt>
      <trkpt lat="42.5922980" lon="-5.9761210">
        <ele>1027.2</ele>
        <time>2021-10-11T17:01:58Z</time>
      </trkpt>
      <trkpt lat="42.5921300" lon="-5.9761960">
        <ele>1027.4</ele>
        <time>2021-10-11T17:02:02Z</time>
      </trkpt>
      <trkpt lat="42.5920970" lon="-5.9762130">
        <ele>1027.4</ele>
        <time>2021-10-11T17:02:03Z</time>
      </trkpt>
      <trkpt lat="42.5920570" lon="-5.9762350">
        <ele>1027.4</ele>
        <time>2021-10-11T17:02:04Z</time>
      </trkpt>
      <trkpt lat="42.5919710" lon="-5.9762880">
        <ele>1027.2</ele>
        <time>2021-10-11T17:02:06Z</time>
      </trkpt>
      <trkpt lat="42.5918970" lon="-5.9763490">
        <ele>1027.4</ele>
        <time>2021-10-11T17:02:08Z</time>
      </trkpt>
      <trkpt lat="42.5918300" lon="-5.9764210">
        <ele>1027.4</ele>
        <time>2021-10-11T17:02:10Z</time>
      </trkpt>
      <trkpt lat="42.5917720" lon="-5.9764940">
        <ele>1027.2</ele>
        <time>2021-10-11T17:02:12Z</time>
      </trkpt>
      <trkpt lat="42.5917170" lon="-5.9765760">
        <ele>1027.2</ele>
        <time>2021-10-11T17:02:14Z</time>
      </trkpt>
      <trkpt lat="42.5915580" lon="-5.9767680">
        <ele>1027.0</ele>
        <time>2021-10-11T17:02:19Z</time>
      </trkpt>
      <trkpt lat="42.5912730" lon="-5.9770810">
        <ele>1027.0</ele>
        <time>2021-10-11T17:02:28Z</time>
      </trkpt>
      <trkpt lat="42.5912360" lon="-5.9771120">
        <ele>1027.0</ele>
        <time>2021-10-11T17:02:29Z</time>
      </trkpt>
      <trkpt lat="42.5911980" lon="-5.9771440">
        <ele>1027.0</ele>
        <time>2021-10-11T17:02:30Z</time>
      </trkpt>
      <trkpt lat="42.5911250" lon="-5.9772020">
        <ele>1027.2</ele>
        <time>2021-10-11T17:02:32Z</time>
      </trkpt>
      <trkpt lat="42.5909850" lon="-5.9773220">
        <ele>1027.2</ele>
        <time>2021-10-11T17:02:36Z</time>
      </trkpt>
      <trkpt lat="42.5909110" lon="-5.9773810">
        <ele>1027.2</ele>
        <time>2021-10-11T17:02:38Z</time>
      </trkpt>
      <trkpt lat="42.5907540" lon="-5.9774760">
        <ele>1027.0</ele>
        <time>2021-10-11T17:02:42Z</time>
      </trkpt>
      <trkpt lat="42.5906740" lon="-5.9775190">
        <ele>1026.8</ele>
        <time>2021-10-11T17:02:44Z</time>
      </trkpt>
      <trkpt lat="42.5905930" lon="-5.9775620">
        <ele>1026.8</ele>
        <time>2021-10-11T17:02:46Z</time>
      </trkpt>
      <trkpt lat="42.5905150" lon="-5.9776040">
        <ele>1026.6</ele>
        <time>2021-10-11T17:02:48Z</time>
      </trkpt>
      <trkpt lat="42.5902640" lon="-5.9776790">
        <ele>1026.8</ele>
        <time>2021-10-11T17:02:54Z</time>
      </trkpt>
      <trkpt lat="42.5898400" lon="-5.9778220">
        <ele>1027.2</ele>
        <time>2021-10-11T17:03:04Z</time>
      </trkpt>
      <trkpt lat="42.5897500" lon="-5.9778440">
        <ele>1027.0</ele>
        <time>2021-10-11T17:03:06Z</time>
      </trkpt>
      <trkpt lat="42.5895270" lon="-5.9779410">
        <ele>1026.8</ele>
        <time>2021-10-11T17:03:11Z</time>
      </trkpt>
      <trkpt lat="42.5892460" lon="-5.9781350">
        <ele>1026.4</ele>
        <time>2021-10-11T17:03:18Z</time>
      </trkpt>
      <trkpt lat="42.5892050" lon="-5.9781570">
        <ele>1026.4</ele>
        <time>2021-10-11T17:03:19Z</time>
      </trkpt>
      <trkpt lat="42.5889100" lon="-5.9783160">
        <ele>1026.4</ele>
        <time>2021-10-11T17:03:26Z</time>
      </trkpt>
      <trkpt lat="42.5887140" lon="-5.9784870">
        <ele>1026.0</ele>
        <time>2021-10-11T17:03:31Z</time>
      </trkpt>
      <trkpt lat="42.5886420" lon="-5.9785600">
        <ele>1025.8</ele>
        <time>2021-10-11T17:03:33Z</time>
      </trkpt>
      <trkpt lat="42.5883760" lon="-5.9788210">
        <ele>1025.6</ele>
        <time>2021-10-11T17:03:41Z</time>
      </trkpt>
      <trkpt lat="42.5882750" lon="-5.9789210">
        <ele>1025.4</ele>
        <time>2021-10-11T17:03:44Z</time>
      </trkpt>
      <trkpt lat="42.5882120" lon="-5.9789940">
        <ele>1025.4</ele>
        <time>2021-10-11T17:03:46Z</time>
      </trkpt>
      <trkpt lat="42.5881810" lon="-5.9790310">
        <ele>1025.2</ele>
        <time>2021-10-11T17:03:47Z</time>
      </trkpt>
      <trkpt lat="42.5881150" lon="-5.9791100">
        <ele>1025.2</ele>
        <time>2021-10-11T17:03:49Z</time>
      </trkpt>
      <trkpt lat="42.5880820" lon="-5.9791490">
        <ele>1025.2</ele>
        <time>2021-10-11T17:03:50Z</time>
      </trkpt>
      <trkpt lat="42.5879240" lon="-5.9793480">
        <ele>1025.0</ele>
        <time>2021-10-11T17:03:55Z</time>
      </trkpt>
      <trkpt lat="42.5878590" lon="-5.9794270">
        <ele>1025.0</ele>
        <time>2021-10-11T17:03:57Z</time>
      </trkpt>
      <trkpt lat="42.5878270" lon="-5.9794710">
        <ele>1025.0</ele>
        <time>2021-10-11T17:03:58Z</time>
      </trkpt>
      <trkpt lat="42.5877610" lon="-5.9795470">
        <ele>1025.0</ele>
        <time>2021-10-11T17:04:00Z</time>
      </trkpt>
      <trkpt lat="42.5876980" lon="-5.9796200">
        <ele>1025.0</ele>
        <time>2021-10-11T17:04:02Z</time>
      </trkpt>
      <trkpt lat="42.5876350" lon="-5.9796950">
        <ele>1025.0</ele>
        <time>2021-10-11T17:04:04Z</time>
      </trkpt>
      <trkpt lat="42.5873040" lon="-5.9800700">
        <ele>1024.6</ele>
        <time>2021-10-11T17:04:14Z</time>
      </trkpt>
      <trkpt lat="42.5869600" lon="-5.9804620">
        <ele>1024.0</ele>
        <time>2021-10-11T17:04:24Z</time>
      </trkpt>
      <trkpt lat="42.5869240" lon="-5.9805010">
        <ele>1023.8</ele>
        <time>2021-10-11T17:04:25Z</time>
      </trkpt>
      <trkpt lat="42.5866450" lon="-5.9808220">
        <ele>1023.6</ele>
        <time>2021-10-11T17:04:33Z</time>
      </trkpt>
      <trkpt lat="42.5863200" lon="-5.9811730">
        <ele>1023.6</ele>
        <time>2021-10-11T17:04:42Z</time>
      </trkpt>
      <trkpt lat="42.5860360" lon="-5.9814810">
        <ele>1023.2</ele>
        <time>2021-10-11T17:04:50Z</time>
      </trkpt>
      <trkpt lat="42.5859710" lon="-5.9815630">
        <ele>1023.0</ele>
        <time>2021-10-11T17:04:52Z</time>
      </trkpt>
      <trkpt lat="42.5857780" lon="-5.9817930">
        <ele>1022.8</ele>
        <time>2021-10-11T17:04:58Z</time>
      </trkpt>
      <trkpt lat="42.5857020" lon="-5.9818800">
        <ele>1022.8</ele>
        <time>2021-10-11T17:05:00Z</time>
      </trkpt>
      <trkpt lat="42.5856380" lon="-5.9819580">
        <ele>1022.8</ele>
        <time>2021-10-11T17:05:02Z</time>
      </trkpt>
      <trkpt lat="42.5854990" lon="-5.9821080">
        <ele>1022.8</ele>
        <time>2021-10-11T17:05:06Z</time>
      </trkpt>
      <trkpt lat="42.5854310" lon="-5.9821790">
        <ele>1022.8</ele>
        <time>2021-10-11T17:05:08Z</time>
      </trkpt>
      <trkpt lat="42.5853340" lon="-5.9822970">
        <ele>1022.8</ele>
        <time>2021-10-11T17:05:11Z</time>
      </trkpt>
      <trkpt lat="42.5852410" lon="-5.9824110">
        <ele>1022.6</ele>
        <time>2021-10-11T17:05:14Z</time>
      </trkpt>
      <trkpt lat="42.5850110" lon="-5.9826890">
        <ele>1022.6</ele>
        <time>2021-10-11T17:05:21Z</time>
      </trkpt>
      <trkpt lat="42.5847930" lon="-5.9829390">
        <ele>1022.2</ele>
        <time>2021-10-11T17:05:27Z</time>
      </trkpt>
      <trkpt lat="42.5846930" lon="-5.9830680">
        <ele>1021.8</ele>
        <time>2021-10-11T17:05:30Z</time>
      </trkpt>
      <trkpt lat="42.5846210" lon="-5.9831470">
        <ele>1021.6</ele>
        <time>2021-10-11T17:05:32Z</time>
      </trkpt>
      <trkpt lat="42.5842980" lon="-5.9835200">
        <ele>1020.8</ele>
        <time>2021-10-11T17:05:41Z</time>
      </trkpt>
      <trkpt lat="42.5840690" lon="-5.9837950">
        <ele>1020.4</ele>
        <time>2021-10-11T17:05:48Z</time>
      </trkpt>
      <trkpt lat="42.5839460" lon="-5.9839440">
        <ele>1020.2</ele>
        <time>2021-10-11T17:05:52Z</time>
      </trkpt>
      <trkpt lat="42.5838270" lon="-5.9840920">
        <ele>1020.0</ele>
        <time>2021-10-11T17:05:56Z</time>
      </trkpt>
      <trkpt lat="42.5836980" lon="-5.9842480">
        <ele>1020.0</ele>
        <time>2021-10-11T17:06:00Z</time>
      </trkpt>
      <trkpt lat="42.5836320" lon="-5.9843240">
        <ele>1020.0</ele>
        <time>2021-10-11T17:06:02Z</time>
      </trkpt>
      <trkpt lat="42.5835100" lon="-5.9844730">
        <ele>1019.8</ele>
        <time>2021-10-11T17:06:06Z</time>
      </trkpt>
      <trkpt lat="42.5832280" lon="-5.9847980">
        <ele>1019.6</ele>
        <time>2021-10-11T17:06:15Z</time>
      </trkpt>
      <trkpt lat="42.5830720" lon="-5.9849470">
        <ele>1019.8</ele>
        <time>2021-10-11T17:06:21Z</time>
      </trkpt>
      <trkpt lat="42.5830340" lon="-5.9850130">
        <ele>1019.6</ele>
        <time>2021-10-11T17:06:23Z</time>
      </trkpt>
      <trkpt lat="42.5830280" lon="-5.9850510">
        <ele>1019.6</ele>
        <time>2021-10-11T17:06:24Z</time>
      </trkpt>
      <trkpt lat="42.5829980" lon="-5.9852190">
        <ele>1019.8</ele>
        <time>2021-10-11T17:06:28Z</time>
      </trkpt>
      <trkpt lat="42.5829900" lon="-5.9852620">
        <ele>1019.8</ele>
        <time>2021-10-11T17:06:29Z</time>
      </trkpt>
      <trkpt lat="42.5829760" lon="-5.9853420">
        <ele>1019.8</ele>
        <time>2021-10-11T17:06:31Z</time>
      </trkpt>
      <trkpt lat="42.5829460" lon="-5.9855400">
        <ele>1019.8</ele>
        <time>2021-10-11T17:06:35Z</time>
      </trkpt>
      <trkpt lat="42.5828700" lon="-5.9860130">
        <ele>1020.0</ele>
        <time>2021-10-11T17:06:44Z</time>
      </trkpt>
      <trkpt lat="42.5828240" lon="-5.9862910">
        <ele>1020.2</ele>
        <time>2021-10-11T17:06:49Z</time>
      </trkpt>
      <trkpt lat="42.5827890" lon="-5.9865180">
        <ele>1020.2</ele>
        <time>2021-10-11T17:06:53Z</time>
      </trkpt>
      <trkpt lat="42.5827680" lon="-5.9866320">
        <ele>1020.4</ele>
        <time>2021-10-11T17:06:55Z</time>
      </trkpt>
      <trkpt lat="42.5827610" lon="-5.9866890">
        <ele>1020.2</ele>
        <time>2021-10-11T17:06:56Z</time>
      </trkpt>
      <trkpt lat="42.5827340" lon="-5.9868670">
        <ele>1020.2</ele>
        <time>2021-10-11T17:06:59Z</time>
      </trkpt>
      <trkpt lat="42.5827160" lon="-5.9869880">
        <ele>1020.2</ele>
        <time>2021-10-11T17:07:01Z</time>
      </trkpt>
      <trkpt lat="42.5826970" lon="-5.9871080">
        <ele>1020.2</ele>
        <time>2021-10-11T17:07:03Z</time>
      </trkpt>
      <trkpt lat="42.5826490" lon="-5.9874080">
        <ele>1020.0</ele>
        <time>2021-10-11T17:07:08Z</time>
      </trkpt>
      <trkpt lat="42.5826020" lon="-5.9877050">
        <ele>1020.0</ele>
        <time>2021-10-11T17:07:13Z</time>
      </trkpt>
      <trkpt lat="42.5825750" lon="-5.9878890">
        <ele>1020.0</ele>
        <time>2021-10-11T17:07:16Z</time>
      </trkpt>
      <trkpt lat="42.5825650" lon="-5.9879500">
        <ele>1020.0</ele>
        <time>2021-10-11T17:07:17Z</time>
      </trkpt>
      <trkpt lat="42.5825150" lon="-5.9882610">
        <ele>1020.0</ele>
        <time>2021-10-11T17:07:22Z</time>
      </trkpt>
      <trkpt lat="42.5824570" lon="-5.9886350">
        <ele>1019.8</ele>
        <time>2021-10-11T17:07:28Z</time>
      </trkpt>
      <trkpt lat="42.5824260" lon="-5.9888270">
        <ele>1019.8</ele>
        <time>2021-10-11T17:07:31Z</time>
      </trkpt>
      <trkpt lat="42.5823870" lon="-5.9890810">
        <ele>1019.8</ele>
        <time>2021-10-11T17:07:35Z</time>
      </trkpt>
      <trkpt lat="42.5823050" lon="-5.9896660">
        <ele>1019.2</ele>
        <time>2021-10-11T17:07:44Z</time>
      </trkpt>
      <trkpt lat="42.5822810" lon="-5.9897890">
        <ele>1019.4</ele>
        <time>2021-10-11T17:07:46Z</time>
      </trkpt>
      <trkpt lat="42.5822620" lon="-5.9899140">
        <ele>1019.4</ele>
        <time>2021-10-11T17:07:48Z</time>
      </trkpt>
      <trkpt lat="42.5822460" lon="-5.9900400">
        <ele>1019.4</ele>
        <time>2021-10-11T17:07:50Z</time>
      </trkpt>
      <trkpt lat="42.5822370" lon="-5.9901010">
        <ele>1019.4</ele>
        <time>2021-10-11T17:07:51Z</time>
      </trkpt>
      <trkpt lat="42.5822190" lon="-5.9902240">
        <ele>1019.4</ele>
        <time>2021-10-11T17:07:53Z</time>
      </trkpt>
      <trkpt lat="42.5822090" lon="-5.9902860">
        <ele>1019.4</ele>
        <time>2021-10-11T17:07:54Z</time>
      </trkpt>
      <trkpt lat="42.5821780" lon="-5.9904680">
        <ele>1019.4</ele>
        <time>2021-10-11T17:07:57Z</time>
      </trkpt>
      <trkpt lat="42.5821660" lon="-5.9905270">
        <ele>1019.4</ele>
        <time>2021-10-11T17:07:58Z</time>
      </trkpt>
      <trkpt lat="42.5821450" lon="-5.9906470">
        <ele>1019.2</ele>
        <time>2021-10-11T17:08:00Z</time>
      </trkpt>
      <trkpt lat="42.5821250" lon="-5.9907650">
        <ele>1019.2</ele>
        <time>2021-10-11T17:08:02Z</time>
      </trkpt>
      <trkpt lat="42.5821140" lon="-5.9908240">
        <ele>1019.2</ele>
        <time>2021-10-11T17:08:03Z</time>
      </trkpt>
      <trkpt lat="42.5820970" lon="-5.9909410">
        <ele>1019.2</ele>
        <time>2021-10-11T17:08:05Z</time>
      </trkpt>
      <trkpt lat="42.5820780" lon="-5.9910590">
        <ele>1019.2</ele>
        <time>2021-10-11T17:08:07Z</time>
      </trkpt>
      <trkpt lat="42.5820590" lon="-5.9911770">
        <ele>1019.2</ele>
        <time>2021-10-11T17:08:09Z</time>
      </trkpt>
      <trkpt lat="42.5820380" lon="-5.9912930">
        <ele>1019.4</ele>
        <time>2021-10-11T17:08:11Z</time>
      </trkpt>
      <trkpt lat="42.5820200" lon="-5.9914080">
        <ele>1019.6</ele>
        <time>2021-10-11T17:08:13Z</time>
      </trkpt>
      <trkpt lat="42.5819770" lon="-5.9916350">
        <ele>1019.8</ele>
        <time>2021-10-11T17:08:17Z</time>
      </trkpt>
      <trkpt lat="42.5819510" lon="-5.9918090">
        <ele>1019.6</ele>
        <time>2021-10-11T17:08:20Z</time>
      </trkpt>
      <trkpt lat="42.5819210" lon="-5.9919870">
        <ele>1019.6</ele>
        <time>2021-10-11T17:08:23Z</time>
      </trkpt>
      <trkpt lat="42.5819000" lon="-5.9921060">
        <ele>1019.6</ele>
        <time>2021-10-11T17:08:25Z</time>
      </trkpt>
      <trkpt lat="42.5818390" lon="-5.9925150">
        <ele>1019.2</ele>
        <time>2021-10-11T17:08:32Z</time>
      </trkpt>
      <trkpt lat="42.5818210" lon="-5.9926330">
        <ele>1019.2</ele>
        <time>2021-10-11T17:08:34Z</time>
      </trkpt>
      <trkpt lat="42.5818110" lon="-5.9926910">
        <ele>1019.2</ele>
        <time>2021-10-11T17:08:35Z</time>
      </trkpt>
      <trkpt lat="42.5817930" lon="-5.9928070">
        <ele>1019.2</ele>
        <time>2021-10-11T17:08:37Z</time>
      </trkpt>
      <trkpt lat="42.5817670" lon="-5.9929220">
        <ele>1019.0</ele>
        <time>2021-10-11T17:08:39Z</time>
      </trkpt>
      <trkpt lat="42.5817480" lon="-5.9930260">
        <ele>1018.8</ele>
        <time>2021-10-11T17:08:41Z</time>
      </trkpt>
      <trkpt lat="42.5817100" lon="-5.9932650">
        <ele>1018.8</ele>
        <time>2021-10-11T17:08:45Z</time>
      </trkpt>
      <trkpt lat="42.5816900" lon="-5.9933800">
        <ele>1018.8</ele>
        <time>2021-10-11T17:08:47Z</time>
      </trkpt>
      <trkpt lat="42.5816810" lon="-5.9934350">
        <ele>1018.8</ele>
        <time>2021-10-11T17:08:48Z</time>
      </trkpt>
      <trkpt lat="42.5816500" lon="-5.9936040">
        <ele>1019.0</ele>
        <time>2021-10-11T17:08:51Z</time>
      </trkpt>
      <trkpt lat="42.5816390" lon="-5.9936620">
        <ele>1019.2</ele>
        <time>2021-10-11T17:08:52Z</time>
      </trkpt>
      <trkpt lat="42.5816220" lon="-5.9937770">
        <ele>1019.2</ele>
        <time>2021-10-11T17:08:54Z</time>
      </trkpt>
      <trkpt lat="42.5816110" lon="-5.9938950">
        <ele>1019.0</ele>
        <time>2021-10-11T17:08:56Z</time>
      </trkpt>
      <trkpt lat="42.5815910" lon="-5.9940110">
        <ele>1018.8</ele>
        <time>2021-10-11T17:08:58Z</time>
      </trkpt>
      <trkpt lat="42.5815590" lon="-5.9942470">
        <ele>1018.8</ele>
        <time>2021-10-11T17:09:02Z</time>
      </trkpt>
      <trkpt lat="42.5815510" lon="-5.9943060">
        <ele>1018.6</ele>
        <time>2021-10-11T17:09:03Z</time>
      </trkpt>
      <trkpt lat="42.5815040" lon="-5.9946020">
        <ele>1018.6</ele>
        <time>2021-10-11T17:09:08Z</time>
      </trkpt>
      <trkpt lat="42.5814550" lon="-5.9949010">
        <ele>1019.0</ele>
        <time>2021-10-11T17:09:13Z</time>
      </trkpt>
      <trkpt lat="42.5814330" lon="-5.9950200">
        <ele>1019.0</ele>
        <time>2021-10-11T17:09:15Z</time>
      </trkpt>
      <trkpt lat="42.5813770" lon="-5.9953640">
        <ele>1019.0</ele>
        <time>2021-10-11T17:09:21Z</time>
      </trkpt>
      <trkpt lat="42.5813580" lon="-5.9954720">
        <ele>1019.0</ele>
        <time>2021-10-11T17:09:23Z</time>
      </trkpt>
      <trkpt lat="42.5812920" lon="-5.9957350">
        <ele>1019.0</ele>
        <time>2021-10-11T17:09:29Z</time>
      </trkpt>
      <trkpt lat="42.5812250" lon="-5.9957650">
        <ele>1019.0</ele>
        <time>2021-10-11T17:09:31Z</time>
      </trkpt>
      <trkpt lat="42.5811850" lon="-5.9957690">
        <ele>1019.0</ele>
        <time>2021-10-11T17:09:32Z</time>
      </trkpt>
      <trkpt lat="42.5811420" lon="-5.9957750">
        <ele>1019.0</ele>
        <time>2021-10-11T17:09:33Z</time>
      </trkpt>
      <trkpt lat="42.5810530" lon="-5.9957930">
        <ele>1019.0</ele>
        <time>2021-10-11T17:09:35Z</time>
      </trkpt>
      <trkpt lat="42.5808290" lon="-5.9958330">
        <ele>1018.8</ele>
        <time>2021-10-11T17:09:40Z</time>
      </trkpt>
      <trkpt lat="42.5807380" lon="-5.9958460">
        <ele>1018.8</ele>
        <time>2021-10-11T17:09:42Z</time>
      </trkpt>
      <trkpt lat="42.5805530" lon="-5.9958760">
        <ele>1019.0</ele>
        <time>2021-10-11T17:09:46Z</time>
      </trkpt>
      <trkpt lat="42.5803610" lon="-5.9959100">
        <ele>1018.8</ele>
        <time>2021-10-11T17:09:50Z</time>
      </trkpt>
      <trkpt lat="42.5802610" lon="-5.9959260">
        <ele>1018.4</ele>
        <time>2021-10-11T17:09:52Z</time>
      </trkpt>
      <trkpt lat="42.5801630" lon="-5.9959440">
        <ele>1018.6</ele>
        <time>2021-10-11T17:09:54Z</time>
      </trkpt>
      <trkpt lat="42.5800630" lon="-5.9959620">
        <ele>1018.4</ele>
        <time>2021-10-11T17:09:56Z</time>
      </trkpt>
      <trkpt lat="42.5799610" lon="-5.9959800">
        <ele>1018.4</ele>
        <time>2021-10-11T17:09:58Z</time>
      </trkpt>
      <trkpt lat="42.5796640" lon="-5.9960350">
        <ele>1018.0</ele>
        <time>2021-10-11T17:10:04Z</time>
      </trkpt>
      <trkpt lat="42.5795120" lon="-5.9960620">
        <ele>1018.0</ele>
        <time>2021-10-11T17:10:07Z</time>
      </trkpt>
      <trkpt lat="42.5792120" lon="-5.9961260">
        <ele>1017.8</ele>
        <time>2021-10-11T17:10:13Z</time>
      </trkpt>
      <trkpt lat="42.5791610" lon="-5.9961350">
        <ele>1017.6</ele>
        <time>2021-10-11T17:10:14Z</time>
      </trkpt>
      <trkpt lat="42.5789160" lon="-5.9961850">
        <ele>1017.4</ele>
        <time>2021-10-11T17:10:19Z</time>
      </trkpt>
      <trkpt lat="42.5787160" lon="-5.9962230">
        <ele>1017.2</ele>
        <time>2021-10-11T17:10:23Z</time>
      </trkpt>
      <trkpt lat="42.5783080" lon="-5.9962880">
        <ele>1016.8</ele>
        <time>2021-10-11T17:10:31Z</time>
      </trkpt>
      <trkpt lat="42.5782570" lon="-5.9962960">
        <ele>1016.8</ele>
        <time>2021-10-11T17:10:32Z</time>
      </trkpt>
      <trkpt lat="42.5778960" lon="-5.9963600">
        <ele>1016.4</ele>
        <time>2021-10-11T17:10:39Z</time>
      </trkpt>
      <trkpt lat="42.5774930" lon="-5.9964340">
        <ele>1016.2</ele>
        <time>2021-10-11T17:10:47Z</time>
      </trkpt>
      <trkpt lat="42.5773960" lon="-5.9964520">
        <ele>1016.2</ele>
        <time>2021-10-11T17:10:49Z</time>
      </trkpt>
      <trkpt lat="42.5771060" lon="-5.9965020">
        <ele>1015.6</ele>
        <time>2021-10-11T17:10:55Z</time>
      </trkpt>
      <trkpt lat="42.5770090" lon="-5.9965170">
        <ele>1015.6</ele>
        <time>2021-10-11T17:10:57Z</time>
      </trkpt>
      <trkpt lat="42.5769140" lon="-5.9965330">
        <ele>1015.2</ele>
        <time>2021-10-11T17:10:59Z</time>
      </trkpt>
      <trkpt lat="42.5765230" lon="-5.9966140">
        <ele>1015.0</ele>
        <time>2021-10-11T17:11:07Z</time>
      </trkpt>
      <trkpt lat="42.5764220" lon="-5.9966330">
        <ele>1015.0</ele>
        <time>2021-10-11T17:11:09Z</time>
      </trkpt>
      <trkpt lat="42.5760620" lon="-5.9967010">
        <ele>1014.6</ele>
        <time>2021-10-11T17:11:16Z</time>
      </trkpt>
      <trkpt lat="42.5758500" lon="-5.9967400">
        <ele>1014.4</ele>
        <time>2021-10-11T17:11:20Z</time>
      </trkpt>
      <trkpt lat="42.5756330" lon="-5.9967740">
        <ele>1014.2</ele>
        <time>2021-10-11T17:11:24Z</time>
      </trkpt>
      <trkpt lat="42.5755780" lon="-5.9967830">
        <ele>1014.2</ele>
        <time>2021-10-11T17:11:25Z</time>
      </trkpt>
      <trkpt lat="42.5755220" lon="-5.9967930">
        <ele>1014.0</ele>
        <time>2021-10-11T17:11:26Z</time>
      </trkpt>
      <trkpt lat="42.5753600" lon="-5.9968320">
        <ele>1013.8</ele>
        <time>2021-10-11T17:11:29Z</time>
      </trkpt>
      <trkpt lat="42.5753050" lon="-5.9968420">
        <ele>1013.8</ele>
        <time>2021-10-11T17:11:30Z</time>
      </trkpt>
      <trkpt lat="42.5751920" lon="-5.9968610">
        <ele>1013.6</ele>
        <time>2021-10-11T17:11:32Z</time>
      </trkpt>
      <trkpt lat="42.5751390" lon="-5.9968710">
        <ele>1013.4</ele>
        <time>2021-10-11T17:11:33Z</time>
      </trkpt>
      <trkpt lat="42.5749310" lon="-5.9969180">
        <ele>1013.2</ele>
        <time>2021-10-11T17:11:37Z</time>
      </trkpt>
      <trkpt lat="42.5748850" lon="-5.9969450">
        <ele>1013.2</ele>
        <time>2021-10-11T17:11:38Z</time>
      </trkpt>
      <trkpt lat="42.5748460" lon="-5.9969810">
        <ele>1013.2</ele>
        <time>2021-10-11T17:11:39Z</time>
      </trkpt>
      <trkpt lat="42.5747920" lon="-5.9970790">
        <ele>1013.2</ele>
        <time>2021-10-11T17:11:41Z</time>
      </trkpt>
      <trkpt lat="42.5746500" lon="-5.9974130">
        <ele>1012.8</ele>
        <time>2021-10-11T17:11:47Z</time>
      </trkpt>
      <trkpt lat="42.5745670" lon="-5.9974780">
        <ele>1012.6</ele>
        <time>2021-10-11T17:11:49Z</time>
      </trkpt>
      <trkpt lat="42.5744710" lon="-5.9975130">
        <ele>1012.8</ele>
        <time>2021-10-11T17:11:51Z</time>
      </trkpt>
      <trkpt lat="42.5742750" lon="-5.9975410">
        <ele>1012.8</ele>
        <time>2021-10-11T17:11:55Z</time>
      </trkpt>
      <trkpt lat="42.5742250" lon="-5.9975440">
        <ele>1013.0</ele>
        <time>2021-10-11T17:11:56Z</time>
      </trkpt>
      <trkpt lat="42.5741760" lon="-5.9975490">
        <ele>1013.0</ele>
        <time>2021-10-11T17:11:57Z</time>
      </trkpt>
      <trkpt lat="42.5739820" lon="-5.9975590">
        <ele>1013.0</ele>
        <time>2021-10-11T17:12:01Z</time>
      </trkpt>
      <trkpt lat="42.5739340" lon="-5.9975640">
        <ele>1013.0</ele>
        <time>2021-10-11T17:12:02Z</time>
      </trkpt>
      <trkpt lat="42.5735880" lon="-5.9975870">
        <ele>1012.8</ele>
        <time>2021-10-11T17:12:09Z</time>
      </trkpt>
      <trkpt lat="42.5734850" lon="-5.9975920">
        <ele>1012.6</ele>
        <time>2021-10-11T17:12:11Z</time>
      </trkpt>
      <trkpt lat="42.5733840" lon="-5.9976000">
        <ele>1012.4</ele>
        <time>2021-10-11T17:12:13Z</time>
      </trkpt>
      <trkpt lat="42.5733330" lon="-5.9976040">
        <ele>1012.4</ele>
        <time>2021-10-11T17:12:14Z</time>
      </trkpt>
      <trkpt lat="42.5732810" lon="-5.9976040">
        <ele>1012.4</ele>
        <time>2021-10-11T17:12:15Z</time>
      </trkpt>
      <trkpt lat="42.5732310" lon="-5.9976020">
        <ele>1012.4</ele>
        <time>2021-10-11T17:12:16Z</time>
      </trkpt>
      <trkpt lat="42.5729820" lon="-5.9975900">
        <ele>1012.4</ele>
        <time>2021-10-11T17:12:21Z</time>
      </trkpt>
      <trkpt lat="42.5727890" lon="-5.9975680">
        <ele>1012.2</ele>
        <time>2021-10-11T17:12:25Z</time>
      </trkpt>
      <trkpt lat="42.5726940" lon="-5.9975570">
        <ele>1012.2</ele>
        <time>2021-10-11T17:12:27Z</time>
      </trkpt>
      <trkpt lat="42.5724570" lon="-5.9975400">
        <ele>1012.2</ele>
        <time>2021-10-11T17:12:32Z</time>
      </trkpt>
      <trkpt lat="42.5723110" lon="-5.9975250">
        <ele>1012.0</ele>
        <time>2021-10-11T17:12:35Z</time>
      </trkpt>
      <trkpt lat="42.5722640" lon="-5.9975190">
        <ele>1012.0</ele>
        <time>2021-10-11T17:12:36Z</time>
      </trkpt>
      <trkpt lat="42.5719150" lon="-5.9974760">
        <ele>1011.8</ele>
        <time>2021-10-11T17:12:43Z</time>
      </trkpt>
      <trkpt lat="42.5718150" lon="-5.9974660">
        <ele>1011.6</ele>
        <time>2021-10-11T17:12:45Z</time>
      </trkpt>
      <trkpt lat="42.5716230" lon="-5.9974530">
        <ele>1011.4</ele>
        <time>2021-10-11T17:12:49Z</time>
      </trkpt>
      <trkpt lat="42.5714790" lon="-5.9974480">
        <ele>1011.4</ele>
        <time>2021-10-11T17:12:52Z</time>
      </trkpt>
      <trkpt lat="42.5710400" lon="-5.9974200">
        <ele>1011.0</ele>
        <time>2021-10-11T17:13:01Z</time>
      </trkpt>
      <trkpt lat="42.5709910" lon="-5.9974180">
        <ele>1010.8</ele>
        <time>2021-10-11T17:13:02Z</time>
      </trkpt>
      <trkpt lat="42.5708920" lon="-5.9974160">
        <ele>1010.6</ele>
        <time>2021-10-11T17:13:04Z</time>
      </trkpt>
      <trkpt lat="42.5707950" lon="-5.9974090">
        <ele>1010.6</ele>
        <time>2021-10-11T17:13:06Z</time>
      </trkpt>
      <trkpt lat="42.5706440" lon="-5.9973950">
        <ele>1010.6</ele>
        <time>2021-10-11T17:13:09Z</time>
      </trkpt>
      <trkpt lat="42.5704930" lon="-5.9973800">
        <ele>1010.6</ele>
        <time>2021-10-11T17:13:12Z</time>
      </trkpt>
      <trkpt lat="42.5703470" lon="-5.9973690">
        <ele>1010.4</ele>
        <time>2021-10-11T17:13:15Z</time>
      </trkpt>
      <trkpt lat="42.5702610" lon="-5.9973700">
        <ele>1010.6</ele>
        <time>2021-10-11T17:13:17Z</time>
      </trkpt>
      <trkpt lat="42.5701580" lon="-5.9973620">
        <ele>1010.4</ele>
        <time>2021-10-11T17:13:19Z</time>
      </trkpt>
      <trkpt lat="42.5698340" lon="-5.9973430">
        <ele>1010.6</ele>
        <time>2021-10-11T17:13:26Z</time>
      </trkpt>
      <trkpt lat="42.5694800" lon="-5.9973200">
        <ele>1010.6</ele>
        <time>2021-10-11T17:13:33Z</time>
      </trkpt>
      <trkpt lat="42.5693790" lon="-5.9973060">
        <ele>1010.6</ele>
        <time>2021-10-11T17:13:35Z</time>
      </trkpt>
      <trkpt lat="42.5691780" lon="-5.9972840">
        <ele>1010.4</ele>
        <time>2021-10-11T17:13:39Z</time>
      </trkpt>
      <trkpt lat="42.5689760" lon="-5.9972690">
        <ele>1010.2</ele>
        <time>2021-10-11T17:13:43Z</time>
      </trkpt>
      <trkpt lat="42.5688230" lon="-5.9972750">
        <ele>1010.0</ele>
        <time>2021-10-11T17:13:46Z</time>
      </trkpt>
      <trkpt lat="42.5683130" lon="-5.9973530">
        <ele>1009.8</ele>
        <time>2021-10-11T17:13:56Z</time>
      </trkpt>
      <trkpt lat="42.5682120" lon="-5.9973710">
        <ele>1009.6</ele>
        <time>2021-10-11T17:13:58Z</time>
      </trkpt>
      <trkpt lat="42.5678460" lon="-5.9974250">
        <ele>1009.6</ele>
        <time>2021-10-11T17:14:05Z</time>
      </trkpt>
      <trkpt lat="42.5677960" lon="-5.9974360">
        <ele>1009.6</ele>
        <time>2021-10-11T17:14:06Z</time>
      </trkpt>
      <trkpt lat="42.5675470" lon="-5.9974950">
        <ele>1009.6</ele>
        <time>2021-10-11T17:14:11Z</time>
      </trkpt>
      <trkpt lat="42.5674570" lon="-5.9975180">
        <ele>1009.4</ele>
        <time>2021-10-11T17:14:13Z</time>
      </trkpt>
      <trkpt lat="42.5673960" lon="-5.9975340">
        <ele>1009.4</ele>
        <time>2021-10-11T17:14:14Z</time>
      </trkpt>
      <trkpt lat="42.5669300" lon="-5.9976280">
        <ele>1009.4</ele>
        <time>2021-10-11T17:14:23Z</time>
      </trkpt>
      <trkpt lat="42.5668740" lon="-5.9976320">
        <ele>1009.4</ele>
        <time>2021-10-11T17:14:24Z</time>
      </trkpt>
      <trkpt lat="42.5667650" lon="-5.9976550">
        <ele>1009.2</ele>
        <time>2021-10-11T17:14:26Z</time>
      </trkpt>
      <trkpt lat="42.5666080" lon="-5.9977250">
        <ele>1009.2</ele>
        <time>2021-10-11T17:14:29Z</time>
      </trkpt>
      <trkpt lat="42.5663640" lon="-5.9978860">
        <ele>1008.6</ele>
        <time>2021-10-11T17:14:34Z</time>
      </trkpt>
      <trkpt lat="42.5662670" lon="-5.9979490">
        <ele>1008.6</ele>
        <time>2021-10-11T17:14:36Z</time>
      </trkpt>
      <trkpt lat="42.5661210" lon="-5.9980490">
        <ele>1008.4</ele>
        <time>2021-10-11T17:14:39Z</time>
      </trkpt>
      <trkpt lat="42.5658320" lon="-5.9982460">
        <ele>1008.2</ele>
        <time>2021-10-11T17:14:45Z</time>
      </trkpt>
      <trkpt lat="42.5656360" lon="-5.9983760">
        <ele>1008.0</ele>
        <time>2021-10-11T17:14:49Z</time>
      </trkpt>
      <trkpt lat="42.5654330" lon="-5.9985000">
        <ele>1007.6</ele>
        <time>2021-10-11T17:14:53Z</time>
      </trkpt>
      <trkpt lat="42.5653810" lon="-5.9985320">
        <ele>1007.6</ele>
        <time>2021-10-11T17:14:54Z</time>
      </trkpt>
      <trkpt lat="42.5651760" lon="-5.9986550">
        <ele>1007.4</ele>
        <time>2021-10-11T17:14:58Z</time>
      </trkpt>
      <trkpt lat="42.5651240" lon="-5.9986830">
        <ele>1007.6</ele>
        <time>2021-10-11T17:14:59Z</time>
      </trkpt>
      <trkpt lat="42.5649250" lon="-5.9987850">
        <ele>1007.8</ele>
        <time>2021-10-11T17:15:03Z</time>
      </trkpt>
      <trkpt lat="42.5647750" lon="-5.9988520">
        <ele>1007.4</ele>
        <time>2021-10-11T17:15:06Z</time>
      </trkpt>
      <trkpt lat="42.5646720" lon="-5.9988940">
        <ele>1007.0</ele>
        <time>2021-10-11T17:15:08Z</time>
      </trkpt>
      <trkpt lat="42.5645150" lon="-5.9989650">
        <ele>1006.6</ele>
        <time>2021-10-11T17:15:11Z</time>
      </trkpt>
      <trkpt lat="42.5644650" lon="-5.9989890">
        <ele>1006.6</ele>
        <time>2021-10-11T17:15:12Z</time>
      </trkpt>
      <trkpt lat="42.5643630" lon="-5.9990310">
        <ele>1006.6</ele>
        <time>2021-10-11T17:15:14Z</time>
      </trkpt>
      <trkpt lat="42.5641550" lon="-5.9990950">
        <ele>1006.0</ele>
        <time>2021-10-11T17:15:18Z</time>
      </trkpt>
      <trkpt lat="42.5640460" lon="-5.9991110">
        <ele>1005.8</ele>
        <time>2021-10-11T17:15:20Z</time>
      </trkpt>
      <trkpt lat="42.5639360" lon="-5.9991190">
        <ele>1005.4</ele>
        <time>2021-10-11T17:15:22Z</time>
      </trkpt>
      <trkpt lat="42.5638240" lon="-5.9991270">
        <ele>1005.2</ele>
        <time>2021-10-11T17:15:24Z</time>
      </trkpt>
      <trkpt lat="42.5637660" lon="-5.9991280">
        <ele>1005.0</ele>
        <time>2021-10-11T17:15:25Z</time>
      </trkpt>
      <trkpt lat="42.5636500" lon="-5.9991360">
        <ele>1004.8</ele>
        <time>2021-10-11T17:15:27Z</time>
      </trkpt>
      <trkpt lat="42.5635370" lon="-5.9991430">
        <ele>1004.2</ele>
        <time>2021-10-11T17:15:29Z</time>
      </trkpt>
      <trkpt lat="42.5633680" lon="-5.9991430">
        <ele>1003.8</ele>
        <time>2021-10-11T17:15:32Z</time>
      </trkpt>
      <trkpt lat="42.5633120" lon="-5.9991410">
        <ele>1003.6</ele>
        <time>2021-10-11T17:15:33Z</time>
      </trkpt>
      <trkpt lat="42.5632590" lon="-5.9991380">
        <ele>1003.6</ele>
        <time>2021-10-11T17:15:34Z</time>
      </trkpt>
      <trkpt lat="42.5631540" lon="-5.9991240">
        <ele>1003.2</ele>
        <time>2021-10-11T17:15:36Z</time>
      </trkpt>
      <trkpt lat="42.5629770" lon="-5.9991210">
        <ele>1002.6</ele>
        <time>2021-10-11T17:15:39Z</time>
      </trkpt>
      <trkpt lat="42.5629040" lon="-5.9991330">
        <ele>1002.2</ele>
        <time>2021-10-11T17:15:40Z</time>
      </trkpt>
      <trkpt lat="42.5628280" lon="-5.9991560">
        <ele>1002.0</ele>
        <time>2021-10-11T17:15:41Z</time>
      </trkpt>
      <trkpt lat="42.5627530" lon="-5.9991910">
        <ele>1001.2</ele>
        <time>2021-10-11T17:15:42Z</time>
      </trkpt>
      <trkpt lat="42.5626860" lon="-5.9992400">
        <ele>1000.4</ele>
        <time>2021-10-11T17:15:43Z</time>
      </trkpt>
      <trkpt lat="42.5625180" lon="-5.9994190">
        <ele>999.6</ele>
        <time>2021-10-11T17:15:46Z</time>
      </trkpt>
      <trkpt lat="42.5624670" lon="-5.9994780">
        <ele>999.2</ele>
        <time>2021-10-11T17:15:47Z</time>
      </trkpt>
      <trkpt lat="42.5624210" lon="-5.9995380">
        <ele>998.8</ele>
        <time>2021-10-11T17:15:48Z</time>
      </trkpt>
      <trkpt lat="42.5623880" lon="-5.9996030">
        <ele>998.0</ele>
        <time>2021-10-11T17:15:49Z</time>
      </trkpt>
      <trkpt lat="42.5623620" lon="-5.9996640">
        <ele>997.6</ele>
        <time>2021-10-11T17:15:50Z</time>
      </trkpt>
      <trkpt lat="42.5623410" lon="-5.9997530">
        <ele>997.0</ele>
        <time>2021-10-11T17:15:52Z</time>
      </trkpt>
      <trkpt lat="42.5623310" lon="-5.9997790">
        <ele>996.8</ele>
        <time>2021-10-11T17:15:53Z</time>
      </trkpt>
      <trkpt lat="42.5622960" lon="-5.9997880">
        <ele>996.8</ele>
        <time>2021-10-11T17:15:55Z</time>
      </trkpt>
      <trkpt lat="42.5622500" lon="-5.9997770">
        <ele>996.8</ele>
        <time>2021-10-11T17:15:57Z</time>
      </trkpt>
      <trkpt lat="42.5621940" lon="-5.9997730">
        <ele>996.8</ele>
        <time>2021-10-11T17:15:59Z</time>
      </trkpt>
      <trkpt lat="42.5620500" lon="-5.9997520">
        <ele>996.8</ele>
        <time>2021-10-11T17:16:03Z</time>
      </trkpt>
      <trkpt lat="42.5619430" lon="-5.9997610">
        <ele>997.0</ele>
        <time>2021-10-11T17:16:06Z</time>
      </trkpt>
      <trkpt lat="42.5618200" lon="-5.9997930">
        <ele>997.2</ele>
        <time>2021-10-11T17:16:10Z</time>
      </trkpt>
      <trkpt lat="42.5615800" lon="-5.9998730">
        <ele>998.2</ele>
        <time>2021-10-11T17:16:18Z</time>
      </trkpt>
      <trkpt lat="42.5613960" lon="-5.9999310">
        <ele>998.8</ele>
        <time>2021-10-11T17:16:24Z</time>
      </trkpt>
      <trkpt lat="42.5613020" lon="-5.9999570">
        <ele>998.8</ele>
        <time>2021-10-11T17:16:27Z</time>
      </trkpt>
      <trkpt lat="42.5611820" lon="-6.0000080">
        <ele>999.0</ele>
        <time>2021-10-11T17:16:31Z</time>
      </trkpt>
      <trkpt lat="42.5610980" lon="-6.0000540">
        <ele>999.2</ele>
        <time>2021-10-11T17:16:34Z</time>
      </trkpt>
      <trkpt lat="42.5610010" lon="-6.0001410">
        <ele>999.4</ele>
        <time>2021-10-11T17:16:38Z</time>
      </trkpt>
      <trkpt lat="42.5608880" lon="-6.0002680">
        <ele>999.8</ele>
        <time>2021-10-11T17:16:44Z</time>
      </trkpt>
      <trkpt lat="42.5608830" lon="-6.0002750">
        <ele>1000.0</ele>
        <time>2021-10-11T17:16:47Z</time>
      </trkpt>
      <trkpt lat="42.5608460" lon="-6.0002980">
        <ele>999.8</ele>
        <time>2021-10-11T17:18:21Z</time>
      </trkpt>
      <trkpt lat="42.5608260" lon="-6.0003160">
        <ele>999.8</ele>
        <time>2021-10-11T17:18:22Z</time>
      </trkpt>
      <trkpt lat="42.5607260" lon="-6.0003850">
        <ele>1000.0</ele>
        <time>2021-10-11T17:18:26Z</time>
      </trkpt>
      <trkpt lat="42.5606980" lon="-6.0004030">
        <ele>1000.0</ele>
        <time>2021-10-11T17:18:27Z</time>
      </trkpt>
      <trkpt lat="42.5606670" lon="-6.0004190">
        <ele>1000.0</ele>
        <time>2021-10-11T17:18:28Z</time>
      </trkpt>
      <trkpt lat="42.5606100" lon="-6.0004590">
        <ele>1000.0</ele>
        <time>2021-10-11T17:18:30Z</time>
      </trkpt>
      <trkpt lat="42.5604880" lon="-6.0005410">
        <ele>1000.4</ele>
        <time>2021-10-11T17:18:34Z</time>
      </trkpt>
      <trkpt lat="42.5604580" lon="-6.0005630">
        <ele>1000.4</ele>
        <time>2021-10-11T17:18:35Z</time>
      </trkpt>
      <trkpt lat="42.5602270" lon="-6.0006960">
        <ele>1000.4</ele>
        <time>2021-10-11T17:18:42Z</time>
      </trkpt>
      <trkpt lat="42.5600400" lon="-6.0007870">
        <ele>1000.4</ele>
        <time>2021-10-11T17:18:47Z</time>
      </trkpt>
      <trkpt lat="42.5599610" lon="-6.0008300">
        <ele>1000.4</ele>
        <time>2021-10-11T17:18:49Z</time>
      </trkpt>
      <trkpt lat="42.5599230" lon="-6.0008550">
        <ele>1000.4</ele>
        <time>2021-10-11T17:18:50Z</time>
      </trkpt>
      <trkpt lat="42.5598510" lon="-6.0009100">
        <ele>1000.4</ele>
        <time>2021-10-11T17:18:52Z</time>
      </trkpt>
      <trkpt lat="42.5598180" lon="-6.0009380">
        <ele>1000.4</ele>
        <time>2021-10-11T17:18:53Z</time>
      </trkpt>
      <trkpt lat="42.5597080" lon="-6.0010240">
        <ele>1000.4</ele>
        <time>2021-10-11T17:18:56Z</time>
      </trkpt>
      <trkpt lat="42.5596290" lon="-6.0010810">
        <ele>1000.4</ele>
        <time>2021-10-11T17:18:58Z</time>
      </trkpt>
      <trkpt lat="42.5594170" lon="-6.0012140">
        <ele>1000.4</ele>
        <time>2021-10-11T17:19:03Z</time>
      </trkpt>
      <trkpt lat="42.5591990" lon="-6.0013330">
        <ele>1000.4</ele>
        <time>2021-10-11T17:19:08Z</time>
      </trkpt>
      <trkpt lat="42.5589980" lon="-6.0014720">
        <ele>1000.4</ele>
        <time>2021-10-11T17:19:13Z</time>
      </trkpt>
      <trkpt lat="42.5588700" lon="-6.0015560">
        <ele>1000.4</ele>
        <time>2021-10-11T17:19:16Z</time>
      </trkpt>
      <trkpt lat="42.5587060" lon="-6.0016630">
        <ele>1000.0</ele>
        <time>2021-10-11T17:19:20Z</time>
      </trkpt>
      <trkpt lat="42.5585320" lon="-6.0017610">
        <ele>999.8</ele>
        <time>2021-10-11T17:19:24Z</time>
      </trkpt>
      <trkpt lat="42.5583610" lon="-6.0018650">
        <ele>999.8</ele>
        <time>2021-10-11T17:19:28Z</time>
      </trkpt>
      <trkpt lat="42.5582030" lon="-6.0019820">
        <ele>999.8</ele>
        <time>2021-10-11T17:19:32Z</time>
      </trkpt>
      <trkpt lat="42.5579430" lon="-6.0022050">
        <ele>999.8</ele>
        <time>2021-10-11T17:19:39Z</time>
      </trkpt>
      <trkpt lat="42.5578610" lon="-6.0022730">
        <ele>999.6</ele>
        <time>2021-10-11T17:19:41Z</time>
      </trkpt>
      <trkpt lat="42.5577380" lon="-6.0023680">
        <ele>999.8</ele>
        <time>2021-10-11T17:19:44Z</time>
      </trkpt>
      <trkpt lat="42.5575760" lon="-6.0024920">
        <ele>1000.0</ele>
        <time>2021-10-11T17:19:48Z</time>
      </trkpt>
      <trkpt lat="42.5575350" lon="-6.0025210">
        <ele>1000.0</ele>
        <time>2021-10-11T17:19:49Z</time>
      </trkpt>
      <trkpt lat="42.5574920" lon="-6.0025460">
        <ele>1000.0</ele>
        <time>2021-10-11T17:19:50Z</time>
      </trkpt>
      <trkpt lat="42.5574130" lon="-6.0026010">
        <ele>999.8</ele>
        <time>2021-10-11T17:19:52Z</time>
      </trkpt>
      <trkpt lat="42.5572180" lon="-6.0027420">
        <ele>999.6</ele>
        <time>2021-10-11T17:19:57Z</time>
      </trkpt>
      <trkpt lat="42.5571390" lon="-6.0028000">
        <ele>999.4</ele>
        <time>2021-10-11T17:19:59Z</time>
      </trkpt>
      <trkpt lat="42.5570560" lon="-6.0028560">
        <ele>999.0</ele>
        <time>2021-10-11T17:20:01Z</time>
      </trkpt>
      <trkpt lat="42.5567600" lon="-6.0030070">
        <ele>998.4</ele>
        <time>2021-10-11T17:20:08Z</time>
      </trkpt>
      <trkpt lat="42.5565730" lon="-6.0030670">
        <ele>998.0</ele>
        <time>2021-10-11T17:20:12Z</time>
      </trkpt>
      <trkpt lat="42.5564300" lon="-6.0031010">
        <ele>998.4</ele>
        <time>2021-10-11T17:20:15Z</time>
      </trkpt>
      <trkpt lat="42.5563860" lon="-6.0031130">
        <ele>998.4</ele>
        <time>2021-10-11T17:20:16Z</time>
      </trkpt>
      <trkpt lat="42.5562960" lon="-6.0031390">
        <ele>998.4</ele>
        <time>2021-10-11T17:20:18Z</time>
      </trkpt>
      <trkpt lat="42.5562050" lon="-6.0031610">
        <ele>998.4</ele>
        <time>2021-10-11T17:20:20Z</time>
      </trkpt>
      <trkpt lat="42.5561130" lon="-6.0031670">
        <ele>998.4</ele>
        <time>2021-10-11T17:20:22Z</time>
      </trkpt>
      <trkpt lat="42.5560670" lon="-6.0031710">
        <ele>998.4</ele>
        <time>2021-10-11T17:20:23Z</time>
      </trkpt>
      <trkpt lat="42.5560210" lon="-6.0031730">
        <ele>998.4</ele>
        <time>2021-10-11T17:20:24Z</time>
      </trkpt>
      <trkpt lat="42.5557370" lon="-6.0031550">
        <ele>998.0</ele>
        <time>2021-10-11T17:20:30Z</time>
      </trkpt>
      <trkpt lat="42.5556900" lon="-6.0031580">
        <ele>997.8</ele>
        <time>2021-10-11T17:20:31Z</time>
      </trkpt>
      <trkpt lat="42.5556460" lon="-6.0031610">
        <ele>997.8</ele>
        <time>2021-10-11T17:20:32Z</time>
      </trkpt>
      <trkpt lat="42.5555590" lon="-6.0031590">
        <ele>997.6</ele>
        <time>2021-10-11T17:20:34Z</time>
      </trkpt>
      <trkpt lat="42.5554710" lon="-6.0031820">
        <ele>997.6</ele>
        <time>2021-10-11T17:20:36Z</time>
      </trkpt>
      <trkpt lat="42.5553410" lon="-6.0032240">
        <ele>997.2</ele>
        <time>2021-10-11T17:20:39Z</time>
      </trkpt>
      <trkpt lat="42.5552100" lon="-6.0032610">
        <ele>997.2</ele>
        <time>2021-10-11T17:20:42Z</time>
      </trkpt>
      <trkpt lat="42.5551290" lon="-6.0032900">
        <ele>997.2</ele>
        <time>2021-10-11T17:20:44Z</time>
      </trkpt>
      <trkpt lat="42.5550880" lon="-6.0033050">
        <ele>997.2</ele>
        <time>2021-10-11T17:20:45Z</time>
      </trkpt>
      <trkpt lat="42.5548690" lon="-6.0033550">
        <ele>997.2</ele>
        <time>2021-10-11T17:20:50Z</time>
      </trkpt>
      <trkpt lat="42.5546920" lon="-6.0034210">
        <ele>997.0</ele>
        <time>2021-10-11T17:20:54Z</time>
      </trkpt>
      <trkpt lat="42.5546020" lon="-6.0034550">
        <ele>997.0</ele>
        <time>2021-10-11T17:20:56Z</time>
      </trkpt>
      <trkpt lat="42.5545600" lon="-6.0034750">
        <ele>997.0</ele>
        <time>2021-10-11T17:20:57Z</time>
      </trkpt>
      <trkpt lat="42.5545130" lon="-6.0034930">
        <ele>997.0</ele>
        <time>2021-10-11T17:20:58Z</time>
      </trkpt>
      <trkpt lat="42.5544690" lon="-6.0035120">
        <ele>996.8</ele>
        <time>2021-10-11T17:20:59Z</time>
      </trkpt>
      <trkpt lat="42.5543810" lon="-6.0035480">
        <ele>996.8</ele>
        <time>2021-10-11T17:21:01Z</time>
      </trkpt>
      <trkpt lat="42.5542890" lon="-6.0035780">
        <ele>996.6</ele>
        <time>2021-10-11T17:21:03Z</time>
      </trkpt>
      <trkpt lat="42.5540630" lon="-6.0036350">
        <ele>996.6</ele>
        <time>2021-10-11T17:21:08Z</time>
      </trkpt>
      <trkpt lat="42.5538790" lon="-6.0036780">
        <ele>996.4</ele>
        <time>2021-10-11T17:21:12Z</time>
      </trkpt>
      <trkpt lat="42.5537830" lon="-6.0036930">
        <ele>996.4</ele>
        <time>2021-10-11T17:21:14Z</time>
      </trkpt>
      <trkpt lat="42.5536880" lon="-6.0037140">
        <ele>996.4</ele>
        <time>2021-10-11T17:21:16Z</time>
      </trkpt>
      <trkpt lat="42.5535870" lon="-6.0037350">
        <ele>996.2</ele>
        <time>2021-10-11T17:21:18Z</time>
      </trkpt>
      <trkpt lat="42.5534950" lon="-6.0037570">
        <ele>996.2</ele>
        <time>2021-10-11T17:21:20Z</time>
      </trkpt>
      <trkpt lat="42.5533060" lon="-6.0038040">
        <ele>995.8</ele>
        <time>2021-10-11T17:21:24Z</time>
      </trkpt>
      <trkpt lat="42.5532110" lon="-6.0038290">
        <ele>995.8</ele>
        <time>2021-10-11T17:21:26Z</time>
      </trkpt>
      <trkpt lat="42.5531640" lon="-6.0038420">
        <ele>995.6</ele>
        <time>2021-10-11T17:21:27Z</time>
      </trkpt>
      <trkpt lat="42.5529240" lon="-6.0038990">
        <ele>995.2</ele>
        <time>2021-10-11T17:21:32Z</time>
      </trkpt>
      <trkpt lat="42.5526660" lon="-6.0039510">
        <ele>994.6</ele>
        <time>2021-10-11T17:21:37Z</time>
      </trkpt>
      <trkpt lat="42.5525630" lon="-6.0039710">
        <ele>994.6</ele>
        <time>2021-10-11T17:21:39Z</time>
      </trkpt>
      <trkpt lat="42.5525120" lon="-6.0039790">
        <ele>994.4</ele>
        <time>2021-10-11T17:21:40Z</time>
      </trkpt>
      <trkpt lat="42.5524110" lon="-6.0039950">
        <ele>994.4</ele>
        <time>2021-10-11T17:21:42Z</time>
      </trkpt>
      <trkpt lat="42.5523610" lon="-6.0040040">
        <ele>994.4</ele>
        <time>2021-10-11T17:21:43Z</time>
      </trkpt>
      <trkpt lat="42.5521670" lon="-6.0040390">
        <ele>994.2</ele>
        <time>2021-10-11T17:21:47Z</time>
      </trkpt>
      <trkpt lat="42.5521180" lon="-6.0040460">
        <ele>994.2</ele>
        <time>2021-10-11T17:21:48Z</time>
      </trkpt>
      <trkpt lat="42.5520230" lon="-6.0040620">
        <ele>994.2</ele>
        <time>2021-10-11T17:21:50Z</time>
      </trkpt>
      <trkpt lat="42.5519280" lon="-6.0040880">
        <ele>994.2</ele>
        <time>2021-10-11T17:21:52Z</time>
      </trkpt>
      <trkpt lat="42.5518450" lon="-6.0041360">
        <ele>994.2</ele>
        <time>2021-10-11T17:21:54Z</time>
      </trkpt>
      <trkpt lat="42.5517720" lon="-6.0042050">
        <ele>994.2</ele>
        <time>2021-10-11T17:21:56Z</time>
      </trkpt>
      <trkpt lat="42.5517340" lon="-6.0042370">
        <ele>994.2</ele>
        <time>2021-10-11T17:21:57Z</time>
      </trkpt>
      <trkpt lat="42.5516910" lon="-6.0042580">
        <ele>994.2</ele>
        <time>2021-10-11T17:21:58Z</time>
      </trkpt>
      <trkpt lat="42.5516480" lon="-6.0042710">
        <ele>994.2</ele>
        <time>2021-10-11T17:21:59Z</time>
      </trkpt>
      <trkpt lat="42.5516050" lon="-6.0042810">
        <ele>994.0</ele>
        <time>2021-10-11T17:22:00Z</time>
      </trkpt>
      <trkpt lat="42.5515140" lon="-6.0043040">
        <ele>993.8</ele>
        <time>2021-10-11T17:22:02Z</time>
      </trkpt>
      <trkpt lat="42.5513780" lon="-6.0043450">
        <ele>993.8</ele>
        <time>2021-10-11T17:22:05Z</time>
      </trkpt>
      <trkpt lat="42.5511040" lon="-6.0044030">
        <ele>993.8</ele>
        <time>2021-10-11T17:22:11Z</time>
      </trkpt>
      <trkpt lat="42.5510130" lon="-6.0044190">
        <ele>993.8</ele>
        <time>2021-10-11T17:22:13Z</time>
      </trkpt>
      <trkpt lat="42.5508750" lon="-6.0044460">
        <ele>993.6</ele>
        <time>2021-10-11T17:22:16Z</time>
      </trkpt>
      <trkpt lat="42.5507310" lon="-6.0044700">
        <ele>993.0</ele>
        <time>2021-10-11T17:22:19Z</time>
      </trkpt>
      <trkpt lat="42.5506840" lon="-6.0044800">
        <ele>993.0</ele>
        <time>2021-10-11T17:22:20Z</time>
      </trkpt>
      <trkpt lat="42.5505430" lon="-6.0045090">
        <ele>992.8</ele>
        <time>2021-10-11T17:22:23Z</time>
      </trkpt>
      <trkpt lat="42.5503550" lon="-6.0045480">
        <ele>992.8</ele>
        <time>2021-10-11T17:22:27Z</time>
      </trkpt>
      <trkpt lat="42.5502600" lon="-6.0045710">
        <ele>992.8</ele>
        <time>2021-10-11T17:22:29Z</time>
      </trkpt>
      <trkpt lat="42.5499120" lon="-6.0046390">
        <ele>992.8</ele>
        <time>2021-10-11T17:22:36Z</time>
      </trkpt>
      <trkpt lat="42.5496610" lon="-6.0046880">
        <ele>992.8</ele>
        <time>2021-10-11T17:22:41Z</time>
      </trkpt>
      <trkpt lat="42.5494620" lon="-6.0047350">
        <ele>992.8</ele>
        <time>2021-10-11T17:22:45Z</time>
      </trkpt>
      <trkpt lat="42.5493080" lon="-6.0047620">
        <ele>992.8</ele>
        <time>2021-10-11T17:22:48Z</time>
      </trkpt>
      <trkpt lat="42.5491490" lon="-6.0047910">
        <ele>992.4</ele>
        <time>2021-10-11T17:22:51Z</time>
      </trkpt>
      <trkpt lat="42.5489390" lon="-6.0048300">
        <ele>992.4</ele>
        <time>2021-10-11T17:22:55Z</time>
      </trkpt>
      <trkpt lat="42.5487270" lon="-6.0048720">
        <ele>992.2</ele>
        <time>2021-10-11T17:22:59Z</time>
      </trkpt>
      <trkpt lat="42.5486200" lon="-6.0048920">
        <ele>991.8</ele>
        <time>2021-10-11T17:23:01Z</time>
      </trkpt>
      <trkpt lat="42.5484040" lon="-6.0049340">
        <ele>991.8</ele>
        <time>2021-10-11T17:23:05Z</time>
      </trkpt>
      <trkpt lat="42.5483490" lon="-6.0049350">
        <ele>991.6</ele>
        <time>2021-10-11T17:23:06Z</time>
      </trkpt>
      <trkpt lat="42.5480780" lon="-6.0048860">
        <ele>991.4</ele>
        <time>2021-10-11T17:23:11Z</time>
      </trkpt>
      <trkpt lat="42.5479270" lon="-6.0048360">
        <ele>991.4</ele>
        <time>2021-10-11T17:23:14Z</time>
      </trkpt>
      <trkpt lat="42.5477710" lon="-6.0047840">
        <ele>991.2</ele>
        <time>2021-10-11T17:23:17Z</time>
      </trkpt>
      <trkpt lat="42.5476130" lon="-6.0047280">
        <ele>991.2</ele>
        <time>2021-10-11T17:23:20Z</time>
      </trkpt>
      <trkpt lat="42.5472970" lon="-6.0046240">
        <ele>990.8</ele>
        <time>2021-10-11T17:23:26Z</time>
      </trkpt>
      <trkpt lat="42.5472410" lon="-6.0046200">
        <ele>990.8</ele>
        <time>2021-10-11T17:23:27Z</time>
      </trkpt>
      <trkpt lat="42.5471880" lon="-6.0046260">
        <ele>990.8</ele>
        <time>2021-10-11T17:23:28Z</time>
      </trkpt>
      <trkpt lat="42.5471400" lon="-6.0046480">
        <ele>990.8</ele>
        <time>2021-10-11T17:23:29Z</time>
      </trkpt>
      <trkpt lat="42.5470990" lon="-6.0046800">
        <ele>990.6</ele>
        <time>2021-10-11T17:23:30Z</time>
      </trkpt>
      <trkpt lat="42.5470600" lon="-6.0047160">
        <ele>990.6</ele>
        <time>2021-10-11T17:23:31Z</time>
      </trkpt>
      <trkpt lat="42.5470220" lon="-6.0047540">
        <ele>990.6</ele>
        <time>2021-10-11T17:23:32Z</time>
      </trkpt>
      <trkpt lat="42.5469110" lon="-6.0048800">
        <ele>990.6</ele>
        <time>2021-10-11T17:23:35Z</time>
      </trkpt>
      <trkpt lat="42.5468290" lon="-6.0049620">
        <ele>990.6</ele>
        <time>2021-10-11T17:23:37Z</time>
      </trkpt>
      <trkpt lat="42.5467020" lon="-6.0050910">
        <ele>990.6</ele>
        <time>2021-10-11T17:23:40Z</time>
      </trkpt>
      <trkpt lat="42.5466600" lon="-6.0051330">
        <ele>990.6</ele>
        <time>2021-10-11T17:23:41Z</time>
      </trkpt>
      <trkpt lat="42.5465740" lon="-6.0052190">
        <ele>990.4</ele>
        <time>2021-10-11T17:23:43Z</time>
      </trkpt>
      <trkpt lat="42.5463210" lon="-6.0054890">
        <ele>990.2</ele>
        <time>2021-10-11T17:23:49Z</time>
      </trkpt>
      <trkpt lat="42.5462450" lon="-6.0055680">
        <ele>989.8</ele>
        <time>2021-10-11T17:23:51Z</time>
      </trkpt>
      <trkpt lat="42.5461680" lon="-6.0056420">
        <ele>989.6</ele>
        <time>2021-10-11T17:23:53Z</time>
      </trkpt>
      <trkpt lat="42.5460800" lon="-6.0056600">
        <ele>989.4</ele>
        <time>2021-10-11T17:23:55Z</time>
      </trkpt>
      <trkpt lat="42.5460020" lon="-6.0055990">
        <ele>989.4</ele>
        <time>2021-10-11T17:23:57Z</time>
      </trkpt>
      <trkpt lat="42.5459690" lon="-6.0055540">
        <ele>989.4</ele>
        <time>2021-10-11T17:23:58Z</time>
      </trkpt>
      <trkpt lat="42.5459070" lon="-6.0054530">
        <ele>989.2</ele>
        <time>2021-10-11T17:24:00Z</time>
      </trkpt>
      <trkpt lat="42.5457660" lon="-6.0051870">
        <ele>989.0</ele>
        <time>2021-10-11T17:24:05Z</time>
      </trkpt>
      <trkpt lat="42.5456170" lon="-6.0049150">
        <ele>989.0</ele>
        <time>2021-10-11T17:24:10Z</time>
      </trkpt>
      <trkpt lat="42.5455310" lon="-6.0047550">
        <ele>989.0</ele>
        <time>2021-10-11T17:24:13Z</time>
      </trkpt>
      <trkpt lat="42.5455020" lon="-6.0047030">
        <ele>989.0</ele>
        <time>2021-10-11T17:24:14Z</time>
      </trkpt>
      <trkpt lat="42.5453950" lon="-6.0044840">
        <ele>988.8</ele>
        <time>2021-10-11T17:24:18Z</time>
      </trkpt>
      <trkpt lat="42.5453150" lon="-6.0043160">
        <ele>988.8</ele>
        <time>2021-10-11T17:24:21Z</time>
      </trkpt>
      <trkpt lat="42.5452850" lon="-6.0042600">
        <ele>988.8</ele>
        <time>2021-10-11T17:24:22Z</time>
      </trkpt>
      <trkpt lat="42.5451930" lon="-6.0040990">
        <ele>989.0</ele>
        <time>2021-10-11T17:24:25Z</time>
      </trkpt>
      <trkpt lat="42.5450330" lon="-6.0038240">
        <ele>989.4</ele>
        <time>2021-10-11T17:24:30Z</time>
      </trkpt>
      <trkpt lat="42.5449120" lon="-6.0035990">
        <ele>989.4</ele>
        <time>2021-10-11T17:24:34Z</time>
      </trkpt>
      <trkpt lat="42.5447840" lon="-6.0033680">
        <ele>989.2</ele>
        <time>2021-10-11T17:24:38Z</time>
      </trkpt>
      <trkpt lat="42.5447510" lon="-6.0033130">
        <ele>989.2</ele>
        <time>2021-10-11T17:24:39Z</time>
      </trkpt>
      <trkpt lat="42.5447190" lon="-6.0032570">
        <ele>989.0</ele>
        <time>2021-10-11T17:24:40Z</time>
      </trkpt>
      <trkpt lat="42.5446890" lon="-6.0032000">
        <ele>989.0</ele>
        <time>2021-10-11T17:24:41Z</time>
      </trkpt>
      <trkpt lat="42.5446580" lon="-6.0031420">
        <ele>989.0</ele>
        <time>2021-10-11T17:24:42Z</time>
      </trkpt>
      <trkpt lat="42.5445970" lon="-6.0030330">
        <ele>988.8</ele>
        <time>2021-10-11T17:24:44Z</time>
      </trkpt>
      <trkpt lat="42.5444120" lon="-6.0027010">
        <ele>988.6</ele>
        <time>2021-10-11T17:24:50Z</time>
      </trkpt>
      <trkpt lat="42.5443800" lon="-6.0026430">
        <ele>988.6</ele>
        <time>2021-10-11T17:24:51Z</time>
      </trkpt>
      <trkpt lat="42.5443140" lon="-6.0025300">
        <ele>988.6</ele>
        <time>2021-10-11T17:24:53Z</time>
      </trkpt>
      <trkpt lat="42.5441550" lon="-6.0022370">
        <ele>988.4</ele>
        <time>2021-10-11T17:24:58Z</time>
      </trkpt>
      <trkpt lat="42.5440970" lon="-6.0021290">
        <ele>988.4</ele>
        <time>2021-10-11T17:25:00Z</time>
      </trkpt>
      <trkpt lat="42.5440410" lon="-6.0020220">
        <ele>988.2</ele>
        <time>2021-10-11T17:25:02Z</time>
      </trkpt>
      <trkpt lat="42.5440100" lon="-6.0019750">
        <ele>988.2</ele>
        <time>2021-10-11T17:25:03Z</time>
      </trkpt>
      <trkpt lat="42.5439280" lon="-6.0019130">
        <ele>988.2</ele>
        <time>2021-10-11T17:25:05Z</time>
      </trkpt>
      <trkpt lat="42.5438330" lon="-6.0019170">
        <ele>988.0</ele>
        <time>2021-10-11T17:25:07Z</time>
      </trkpt>
      <trkpt lat="42.5437900" lon="-6.0019500">
        <ele>987.8</ele>
        <time>2021-10-11T17:25:08Z</time>
      </trkpt>
      <trkpt lat="42.5436360" lon="-6.0021180">
        <ele>987.8</ele>
        <time>2021-10-11T17:25:12Z</time>
      </trkpt>
      <trkpt lat="42.5434770" lon="-6.0022890">
        <ele>987.8</ele>
        <time>2021-10-11T17:25:16Z</time>
      </trkpt>
      <trkpt lat="42.5432380" lon="-6.0025470">
        <ele>987.6</ele>
        <time>2021-10-11T17:25:22Z</time>
      </trkpt>
      <trkpt lat="42.5430750" lon="-6.0027140">
        <ele>987.6</ele>
        <time>2021-10-11T17:25:26Z</time>
      </trkpt>
      <trkpt lat="42.5429990" lon="-6.0027870">
        <ele>987.6</ele>
        <time>2021-10-11T17:25:28Z</time>
      </trkpt>
      <trkpt lat="42.5427750" lon="-6.0030190">
        <ele>987.6</ele>
        <time>2021-10-11T17:25:33Z</time>
      </trkpt>
      <trkpt lat="42.5425880" lon="-6.0032130">
        <ele>987.0</ele>
        <time>2021-10-11T17:25:37Z</time>
      </trkpt>
      <trkpt lat="42.5424360" lon="-6.0033800">
        <ele>986.8</ele>
        <time>2021-10-11T17:25:40Z</time>
      </trkpt>
      <trkpt lat="42.5420930" lon="-6.0037330">
        <ele>985.4</ele>
        <time>2021-10-11T17:25:46Z</time>
      </trkpt>
      <trkpt lat="42.5419090" lon="-6.0039170">
        <ele>984.2</ele>
        <time>2021-10-11T17:25:50Z</time>
      </trkpt>
      <trkpt lat="42.5418270" lon="-6.0040070">
        <ele>984.2</ele>
        <time>2021-10-11T17:25:52Z</time>
      </trkpt>
      <trkpt lat="42.5415940" lon="-6.0042420">
        <ele>984.8</ele>
        <time>2021-10-11T17:25:58Z</time>
      </trkpt>
      <trkpt lat="42.5414890" lon="-6.0043430">
        <ele>985.4</ele>
        <time>2021-10-11T17:26:01Z</time>
      </trkpt>
      <trkpt lat="42.5414450" lon="-6.0043880">
        <ele>985.4</ele>
        <time>2021-10-11T17:26:02Z</time>
      </trkpt>
      <trkpt lat="42.5413750" lon="-6.0044660">
        <ele>985.6</ele>
        <time>2021-10-11T17:26:04Z</time>
      </trkpt>
      <trkpt lat="42.5411980" lon="-6.0046510">
        <ele>985.8</ele>
        <time>2021-10-11T17:26:09Z</time>
      </trkpt>
      <trkpt lat="42.5410490" lon="-6.0047960">
        <ele>986.0</ele>
        <time>2021-10-11T17:26:13Z</time>
      </trkpt>
      <trkpt lat="42.5408220" lon="-6.0050380">
        <ele>986.2</ele>
        <time>2021-10-11T17:26:19Z</time>
      </trkpt>
      <trkpt lat="42.5407420" lon="-6.0051190">
        <ele>986.2</ele>
        <time>2021-10-11T17:26:21Z</time>
      </trkpt>
      <trkpt lat="42.5407020" lon="-6.0051580">
        <ele>986.2</ele>
        <time>2021-10-11T17:26:22Z</time>
      </trkpt>
      <trkpt lat="42.5406720" lon="-6.0051910">
        <ele>986.4</ele>
        <time>2021-10-11T17:26:23Z</time>
      </trkpt>
      <trkpt lat="42.5405850" lon="-6.0052790">
        <ele>986.4</ele>
        <time>2021-10-11T17:26:25Z</time>
      </trkpt>
      <trkpt lat="42.5405070" lon="-6.0053560">
        <ele>986.2</ele>
        <time>2021-10-11T17:26:27Z</time>
      </trkpt>
      <trkpt lat="42.5404380" lon="-6.0054300">
        <ele>986.2</ele>
        <time>2021-10-11T17:26:29Z</time>
      </trkpt>
      <trkpt lat="42.5404000" lon="-6.0054720">
        <ele>986.2</ele>
        <time>2021-10-11T17:26:30Z</time>
      </trkpt>
      <trkpt lat="42.5402420" lon="-6.0056350">
        <ele>986.2</ele>
        <time>2021-10-11T17:26:34Z</time>
      </trkpt>
      <trkpt lat="42.5401200" lon="-6.0057570">
        <ele>986.2</ele>
        <time>2021-10-11T17:26:37Z</time>
      </trkpt>
      <trkpt lat="42.5400380" lon="-6.0058420">
        <ele>986.2</ele>
        <time>2021-10-11T17:26:39Z</time>
      </trkpt>
      <trkpt lat="42.5399090" lon="-6.0059690">
        <ele>986.2</ele>
        <time>2021-10-11T17:26:42Z</time>
      </trkpt>
      <trkpt lat="42.5398690" lon="-6.0060110">
        <ele>986.0</ele>
        <time>2021-10-11T17:26:43Z</time>
      </trkpt>
      <trkpt lat="42.5398270" lon="-6.0060540">
        <ele>986.0</ele>
        <time>2021-10-11T17:26:44Z</time>
      </trkpt>
      <trkpt lat="42.5397380" lon="-6.0061420">
        <ele>986.0</ele>
        <time>2021-10-11T17:26:46Z</time>
      </trkpt>
      <trkpt lat="42.5397050" lon="-6.0061760">
        <ele>986.0</ele>
        <time>2021-10-11T17:26:47Z</time>
      </trkpt>
      <trkpt lat="42.5396660" lon="-6.0062180">
        <ele>986.0</ele>
        <time>2021-10-11T17:26:48Z</time>
      </trkpt>
      <trkpt lat="42.5395870" lon="-6.0062990">
        <ele>986.0</ele>
        <time>2021-10-11T17:26:50Z</time>
      </trkpt>
      <trkpt lat="42.5394670" lon="-6.0064210">
        <ele>985.8</ele>
        <time>2021-10-11T17:26:53Z</time>
      </trkpt>
      <trkpt lat="42.5392650" lon="-6.0066250">
        <ele>985.8</ele>
        <time>2021-10-11T17:26:58Z</time>
      </trkpt>
      <trkpt lat="42.5392230" lon="-6.0066680">
        <ele>985.8</ele>
        <time>2021-10-11T17:26:59Z</time>
      </trkpt>
      <trkpt lat="42.5391380" lon="-6.0067520">
        <ele>985.6</ele>
        <time>2021-10-11T17:27:01Z</time>
      </trkpt>
      <trkpt lat="42.5389520" lon="-6.0069430">
        <ele>985.4</ele>
        <time>2021-10-11T17:27:05Z</time>
      </trkpt>
      <trkpt lat="42.5388650" lon="-6.0070260">
        <ele>985.2</ele>
        <time>2021-10-11T17:27:07Z</time>
      </trkpt>
      <trkpt lat="42.5385500" lon="-6.0073410">
        <ele>984.2</ele>
        <time>2021-10-11T17:27:14Z</time>
      </trkpt>
      <trkpt lat="42.5384760" lon="-6.0074250">
        <ele>984.0</ele>
        <time>2021-10-11T17:27:16Z</time>
      </trkpt>
      <trkpt lat="42.5382980" lon="-6.0075950">
        <ele>983.6</ele>
        <time>2021-10-11T17:27:21Z</time>
      </trkpt>
      <trkpt lat="42.5382650" lon="-6.0076250">
        <ele>983.6</ele>
        <time>2021-10-11T17:27:22Z</time>
      </trkpt>
      <trkpt lat="42.5382300" lon="-6.0076560">
        <ele>983.6</ele>
        <time>2021-10-11T17:27:23Z</time>
      </trkpt>
      <trkpt lat="42.5381750" lon="-6.0077290">
        <ele>983.6</ele>
        <time>2021-10-11T17:27:25Z</time>
      </trkpt>
      <trkpt lat="42.5381530" lon="-6.0077710">
        <ele>983.6</ele>
        <time>2021-10-11T17:27:26Z</time>
      </trkpt>
      <trkpt lat="42.5380760" lon="-6.0079240">
        <ele>983.6</ele>
        <time>2021-10-11T17:27:31Z</time>
      </trkpt>
      <trkpt lat="42.5379910" lon="-6.0079450">
        <ele>984.2</ele>
        <time>2021-10-11T17:27:36Z</time>
      </trkpt>
      <trkpt lat="42.5379410" lon="-6.0079200">
        <ele>984.2</ele>
        <time>2021-10-11T17:27:39Z</time>
      </trkpt>
      <trkpt lat="42.5379040" lon="-6.0079100">
        <ele>984.4</ele>
        <time>2021-10-11T17:27:41Z</time>
      </trkpt>
      <trkpt lat="42.5378830" lon="-6.0079100">
        <ele>984.4</ele>
        <time>2021-10-11T17:27:42Z</time>
      </trkpt>
      <trkpt lat="42.5378580" lon="-6.0079160">
        <ele>984.6</ele>
        <time>2021-10-11T17:27:43Z</time>
      </trkpt>
      <trkpt lat="42.5376780" lon="-6.0078860">
        <ele>984.8</ele>
        <time>2021-10-11T17:27:48Z</time>
      </trkpt>
      <trkpt lat="42.5375980" lon="-6.0078650">
        <ele>984.8</ele>
        <time>2021-10-11T17:27:50Z</time>
      </trkpt>
      <trkpt lat="42.5374300" lon="-6.0078160">
        <ele>984.8</ele>
        <time>2021-10-11T17:27:54Z</time>
      </trkpt>
      <trkpt lat="42.5373910" lon="-6.0078010">
        <ele>984.8</ele>
        <time>2021-10-11T17:27:55Z</time>
      </trkpt>
      <trkpt lat="42.5373520" lon="-6.0077880">
        <ele>985.0</ele>
        <time>2021-10-11T17:27:56Z</time>
      </trkpt>
      <trkpt lat="42.5372740" lon="-6.0077650">
        <ele>985.0</ele>
        <time>2021-10-11T17:27:58Z</time>
      </trkpt>
      <trkpt lat="42.5371850" lon="-6.0077700">
        <ele>985.0</ele>
        <time>2021-10-11T17:28:00Z</time>
      </trkpt>
      <trkpt lat="42.5371460" lon="-6.0077900">
        <ele>985.2</ele>
        <time>2021-10-11T17:28:01Z</time>
      </trkpt>
      <trkpt lat="42.5371110" lon="-6.0078230">
        <ele>985.2</ele>
        <time>2021-10-11T17:28:02Z</time>
      </trkpt>
      <trkpt lat="42.5370770" lon="-6.0078580">
        <ele>985.2</ele>
        <time>2021-10-11T17:28:03Z</time>
      </trkpt>
      <trkpt lat="42.5370430" lon="-6.0078910">
        <ele>985.4</ele>
        <time>2021-10-11T17:28:04Z</time>
      </trkpt>
      <trkpt lat="42.5369700" lon="-6.0079440">
        <ele>985.6</ele>
        <time>2021-10-11T17:28:06Z</time>
      </trkpt>
      <trkpt lat="42.5368900" lon="-6.0079650">
        <ele>985.6</ele>
        <time>2021-10-11T17:28:08Z</time>
      </trkpt>
      <trkpt lat="42.5367710" lon="-6.0079870">
        <ele>986.0</ele>
        <time>2021-10-11T17:28:11Z</time>
      </trkpt>
      <trkpt lat="42.5366550" lon="-6.0080050">
        <ele>986.4</ele>
        <time>2021-10-11T17:28:14Z</time>
      </trkpt>
      <trkpt lat="42.5365180" lon="-6.0080330">
        <ele>986.6</ele>
        <time>2021-10-11T17:28:18Z</time>
      </trkpt>
      <trkpt lat="42.5363700" lon="-6.0080590">
        <ele>986.8</ele>
        <time>2021-10-11T17:28:23Z</time>
      </trkpt>
      <trkpt lat="42.5363170" lon="-6.0080720">
        <ele>987.0</ele>
        <time>2021-10-11T17:28:25Z</time>
      </trkpt>
      <trkpt lat="42.5362060" lon="-6.0080910">
        <ele>987.6</ele>
        <time>2021-10-11T17:28:29Z</time>
      </trkpt>
      <trkpt lat="42.5361270" lon="-6.0081070">
        <ele>988.2</ele>
        <time>2021-10-11T17:28:32Z</time>
      </trkpt>
      <trkpt lat="42.5360300" lon="-6.0081180">
        <ele>988.8</ele>
        <time>2021-10-11T17:28:36Z</time>
      </trkpt>
      <trkpt lat="42.5359340" lon="-6.0081400">
        <ele>989.0</ele>
        <time>2021-10-11T17:28:40Z</time>
      </trkpt>
      <trkpt lat="42.5358600" lon="-6.0081510">
        <ele>989.4</ele>
        <time>2021-10-11T17:28:43Z</time>
      </trkpt>
      <trkpt lat="42.5357430" lon="-6.0081720">
        <ele>989.8</ele>
        <time>2021-10-11T17:28:48Z</time>
      </trkpt>
      <trkpt lat="42.5355420" lon="-6.0081980">
        <ele>991.0</ele>
        <time>2021-10-11T17:28:57Z</time>
      </trkpt>
      <trkpt lat="42.5355210" lon="-6.0082030">
        <ele>991.4</ele>
        <time>2021-10-11T17:28:58Z</time>
      </trkpt>
      <trkpt lat="42.5354110" lon="-6.0082190">
        <ele>992.0</ele>
        <time>2021-10-11T17:29:03Z</time>
      </trkpt>
      <trkpt lat="42.5353470" lon="-6.0082360">
        <ele>992.0</ele>
        <time>2021-10-11T17:29:06Z</time>
      </trkpt>
      <trkpt lat="42.5352570" lon="-6.0082580">
        <ele>992.0</ele>
        <time>2021-10-11T17:29:10Z</time>
      </trkpt>
      <trkpt lat="42.5351870" lon="-6.0082700">
        <ele>992.4</ele>
        <time>2021-10-11T17:29:13Z</time>
      </trkpt>
      <trkpt lat="42.5350120" lon="-6.0082980">
        <ele>993.6</ele>
        <time>2021-10-11T17:29:21Z</time>
      </trkpt>
      <trkpt lat="42.5349920" lon="-6.0083000">
        <ele>993.6</ele>
        <time>2021-10-11T17:29:22Z</time>
      </trkpt>
      <trkpt lat="42.5347900" lon="-6.0083320">
        <ele>994.4</ele>
        <time>2021-10-11T17:29:31Z</time>
      </trkpt>
      <trkpt lat="42.5347690" lon="-6.0083370">
        <ele>994.6</ele>
        <time>2021-10-11T17:29:32Z</time>
      </trkpt>
      <trkpt lat="42.5345780" lon="-6.0083770">
        <ele>995.6</ele>
        <time>2021-10-11T17:29:41Z</time>
      </trkpt>
      <trkpt lat="42.5345550" lon="-6.0083820">
        <ele>995.6</ele>
        <time>2021-10-11T17:29:42Z</time>
      </trkpt>
      <trkpt lat="42.5345300" lon="-6.0083860">
        <ele>995.8</ele>
        <time>2021-10-11T17:29:43Z</time>
      </trkpt>
      <trkpt lat="42.5344400" lon="-6.0083980">
        <ele>996.2</ele>
        <time>2021-10-11T17:29:47Z</time>
      </trkpt>
      <trkpt lat="42.5343920" lon="-6.0084070">
        <ele>996.4</ele>
        <time>2021-10-11T17:29:49Z</time>
      </trkpt>
      <trkpt lat="42.5342400" lon="-6.0084700">
        <ele>996.8</ele>
        <time>2021-10-11T17:29:56Z</time>
      </trkpt>
      <trkpt lat="42.5341730" lon="-6.0085030">
        <ele>997.0</ele>
        <time>2021-10-11T17:29:59Z</time>
      </trkpt>
      <trkpt lat="42.5340870" lon="-6.0085570">
        <ele>997.2</ele>
        <time>2021-10-11T17:30:03Z</time>
      </trkpt>
      <trkpt lat="42.5340440" lon="-6.0085830">
        <ele>997.4</ele>
        <time>2021-10-11T17:30:05Z</time>
      </trkpt>
      <trkpt lat="42.5339540" lon="-6.0086460">
        <ele>997.6</ele>
        <time>2021-10-11T17:30:09Z</time>
      </trkpt>
      <trkpt lat="42.5338840" lon="-6.0086790">
        <ele>997.8</ele>
        <time>2021-10-11T17:30:12Z</time>
      </trkpt>
      <trkpt lat="42.5338420" lon="-6.0087070">
        <ele>998.0</ele>
        <time>2021-10-11T17:30:14Z</time>
      </trkpt>
      <trkpt lat="42.5338210" lon="-6.0087220">
        <ele>998.0</ele>
        <time>2021-10-11T17:30:15Z</time>
      </trkpt>
      <trkpt lat="42.5336700" lon="-6.0088270">
        <ele>998.4</ele>
        <time>2021-10-11T17:30:22Z</time>
      </trkpt>
      <trkpt lat="42.5336240" lon="-6.0088570">
        <ele>998.6</ele>
        <time>2021-10-11T17:30:24Z</time>
      </trkpt>
      <trkpt lat="42.5335350" lon="-6.0089220">
        <ele>998.8</ele>
        <time>2021-10-11T17:30:28Z</time>
      </trkpt>
      <trkpt lat="42.5334410" lon="-6.0089860">
        <ele>999.0</ele>
        <time>2021-10-11T17:30:32Z</time>
      </trkpt>
      <trkpt lat="42.5333680" lon="-6.0090310">
        <ele>999.2</ele>
        <time>2021-10-11T17:30:35Z</time>
      </trkpt>
      <trkpt lat="42.5332570" lon="-6.0091030">
        <ele>999.4</ele>
        <time>2021-10-11T17:30:40Z</time>
      </trkpt>
      <trkpt lat="42.5331150" lon="-6.0092010">
        <ele>999.8</ele>
        <time>2021-10-11T17:30:46Z</time>
      </trkpt>
      <trkpt lat="42.5330910" lon="-6.0092180">
        <ele>1000.0</ele>
        <time>2021-10-11T17:30:47Z</time>
      </trkpt>
      <trkpt lat="42.5330670" lon="-6.0092340">
        <ele>1000.0</ele>
        <time>2021-10-11T17:30:48Z</time>
      </trkpt>
      <trkpt lat="42.5330180" lon="-6.0092610">
        <ele>1000.0</ele>
        <time>2021-10-11T17:30:50Z</time>
      </trkpt>
      <trkpt lat="42.5328220" lon="-6.0093850">
        <ele>1000.0</ele>
        <time>2021-10-11T17:30:57Z</time>
      </trkpt>
      <trkpt lat="42.5327640" lon="-6.0094240">
        <ele>1000.0</ele>
        <time>2021-10-11T17:30:59Z</time>
      </trkpt>
      <trkpt lat="42.5327320" lon="-6.0094420">
        <ele>1000.0</ele>
        <time>2021-10-11T17:31:00Z</time>
      </trkpt>
      <trkpt lat="42.5327010" lon="-6.0094620">
        <ele>1000.2</ele>
        <time>2021-10-11T17:31:01Z</time>
      </trkpt>
      <trkpt lat="42.5326450" lon="-6.0094990">
        <ele>1000.2</ele>
        <time>2021-10-11T17:31:03Z</time>
      </trkpt>
      <trkpt lat="42.5326150" lon="-6.0095200">
        <ele>1000.2</ele>
        <time>2021-10-11T17:31:04Z</time>
      </trkpt>
      <trkpt lat="42.5325570" lon="-6.0095590">
        <ele>1000.2</ele>
        <time>2021-10-11T17:31:06Z</time>
      </trkpt>
      <trkpt lat="42.5324450" lon="-6.0096320">
        <ele>1000.2</ele>
        <time>2021-10-11T17:31:10Z</time>
      </trkpt>
      <trkpt lat="42.5324170" lon="-6.0096480">
        <ele>1000.2</ele>
        <time>2021-10-11T17:31:11Z</time>
      </trkpt>
      <trkpt lat="42.5323270" lon="-6.0097100">
        <ele>1000.2</ele>
        <time>2021-10-11T17:31:14Z</time>
      </trkpt>
      <trkpt lat="42.5322960" lon="-6.0097300">
        <ele>1000.2</ele>
        <time>2021-10-11T17:31:15Z</time>
      </trkpt>
      <trkpt lat="42.5322300" lon="-6.0097690">
        <ele>1000.2</ele>
        <time>2021-10-11T17:31:17Z</time>
      </trkpt>
      <trkpt lat="42.5321720" lon="-6.0098090">
        <ele>1000.2</ele>
        <time>2021-10-11T17:31:19Z</time>
      </trkpt>
      <trkpt lat="42.5320860" lon="-6.0098740">
        <ele>1000.4</ele>
        <time>2021-10-11T17:31:22Z</time>
      </trkpt>
      <trkpt lat="42.5320140" lon="-6.0099140">
        <ele>1000.4</ele>
        <time>2021-10-11T17:31:24Z</time>
      </trkpt>
      <trkpt lat="42.5319410" lon="-6.0099520">
        <ele>1000.6</ele>
        <time>2021-10-11T17:31:26Z</time>
      </trkpt>
      <trkpt lat="42.5318660" lon="-6.0100020">
        <ele>1000.6</ele>
        <time>2021-10-11T17:31:28Z</time>
      </trkpt>
      <trkpt lat="42.5318280" lon="-6.0100270">
        <ele>1000.6</ele>
        <time>2021-10-11T17:31:29Z</time>
      </trkpt>
      <trkpt lat="42.5316740" lon="-6.0101280">
        <ele>1000.8</ele>
        <time>2021-10-11T17:31:33Z</time>
      </trkpt>
      <trkpt lat="42.5315910" lon="-6.0101750">
        <ele>1000.8</ele>
        <time>2021-10-11T17:31:35Z</time>
      </trkpt>
      <trkpt lat="42.5315520" lon="-6.0102030">
        <ele>1000.8</ele>
        <time>2021-10-11T17:31:36Z</time>
      </trkpt>
      <trkpt lat="42.5313190" lon="-6.0103650">
        <ele>1001.0</ele>
        <time>2021-10-11T17:31:42Z</time>
      </trkpt>
      <trkpt lat="42.5312030" lon="-6.0104460">
        <ele>1001.0</ele>
        <time>2021-10-11T17:31:45Z</time>
      </trkpt>
      <trkpt lat="42.5310450" lon="-6.0105570">
        <ele>1001.0</ele>
        <time>2021-10-11T17:31:49Z</time>
      </trkpt>
      <trkpt lat="42.5310080" lon="-6.0105840">
        <ele>1001.0</ele>
        <time>2021-10-11T17:31:50Z</time>
      </trkpt>
      <trkpt lat="42.5308500" lon="-6.0106840">
        <ele>1001.0</ele>
        <time>2021-10-11T17:31:54Z</time>
      </trkpt>
      <trkpt lat="42.5308130" lon="-6.0107110">
        <ele>1001.0</ele>
        <time>2021-10-11T17:31:55Z</time>
      </trkpt>
      <trkpt lat="42.5307750" lon="-6.0107380">
        <ele>1001.0</ele>
        <time>2021-10-11T17:31:56Z</time>
      </trkpt>
      <trkpt lat="42.5305020" lon="-6.0109090">
        <ele>1001.0</ele>
        <time>2021-10-11T17:32:03Z</time>
      </trkpt>
      <trkpt lat="42.5304620" lon="-6.0109290">
        <ele>1001.0</ele>
        <time>2021-10-11T17:32:04Z</time>
      </trkpt>
      <trkpt lat="42.5304230" lon="-6.0109510">
        <ele>1001.0</ele>
        <time>2021-10-11T17:32:05Z</time>
      </trkpt>
      <trkpt lat="42.5302240" lon="-6.0110790">
        <ele>1001.0</ele>
        <time>2021-10-11T17:32:10Z</time>
      </trkpt>
      <trkpt lat="42.5299450" lon="-6.0112690">
        <ele>1001.0</ele>
        <time>2021-10-11T17:32:17Z</time>
      </trkpt>
      <trkpt lat="42.5298610" lon="-6.0113240">
        <ele>1001.0</ele>
        <time>2021-10-11T17:32:19Z</time>
      </trkpt>
      <trkpt lat="42.5298200" lon="-6.0113520">
        <ele>1001.0</ele>
        <time>2021-10-11T17:32:20Z</time>
      </trkpt>
      <trkpt lat="42.5296910" lon="-6.0114380">
        <ele>1000.8</ele>
        <time>2021-10-11T17:32:23Z</time>
      </trkpt>
      <trkpt lat="42.5296030" lon="-6.0114960">
        <ele>1000.8</ele>
        <time>2021-10-11T17:32:25Z</time>
      </trkpt>
      <trkpt lat="42.5294710" lon="-6.0115800">
        <ele>1000.8</ele>
        <time>2021-10-11T17:32:28Z</time>
      </trkpt>
      <trkpt lat="42.5293390" lon="-6.0116660">
        <ele>1001.0</ele>
        <time>2021-10-11T17:32:31Z</time>
      </trkpt>
      <trkpt lat="42.5291610" lon="-6.0117790">
        <ele>1001.0</ele>
        <time>2021-10-11T17:32:35Z</time>
      </trkpt>
      <trkpt lat="42.5290690" lon="-6.0118300">
        <ele>1000.8</ele>
        <time>2021-10-11T17:32:37Z</time>
      </trkpt>
      <trkpt lat="42.5287560" lon="-6.0120530">
        <ele>1000.6</ele>
        <time>2021-10-11T17:32:44Z</time>
      </trkpt>
      <trkpt lat="42.5286650" lon="-6.0121120">
        <ele>1000.6</ele>
        <time>2021-10-11T17:32:46Z</time>
      </trkpt>
      <trkpt lat="42.5286180" lon="-6.0121350">
        <ele>1000.6</ele>
        <time>2021-10-11T17:32:47Z</time>
      </trkpt>
      <trkpt lat="42.5285700" lon="-6.0121610">
        <ele>1000.6</ele>
        <time>2021-10-11T17:32:48Z</time>
      </trkpt>
      <trkpt lat="42.5284380" lon="-6.0122500">
        <ele>1000.4</ele>
        <time>2021-10-11T17:32:51Z</time>
      </trkpt>
      <trkpt lat="42.5283500" lon="-6.0123060">
        <ele>1000.4</ele>
        <time>2021-10-11T17:32:53Z</time>
      </trkpt>
      <trkpt lat="42.5281290" lon="-6.0124470">
        <ele>1000.6</ele>
        <time>2021-10-11T17:32:58Z</time>
      </trkpt>
      <trkpt lat="42.5279520" lon="-6.0125650">
        <ele>1000.8</ele>
        <time>2021-10-11T17:33:02Z</time>
      </trkpt>
      <trkpt lat="42.5279080" lon="-6.0125950">
        <ele>1000.6</ele>
        <time>2021-10-11T17:33:03Z</time>
      </trkpt>
      <trkpt lat="42.5276420" lon="-6.0127840">
        <ele>1000.6</ele>
        <time>2021-10-11T17:33:09Z</time>
      </trkpt>
      <trkpt lat="42.5274470" lon="-6.0129080">
        <ele>1000.6</ele>
        <time>2021-10-11T17:33:13Z</time>
      </trkpt>
      <trkpt lat="42.5271950" lon="-6.0130690">
        <ele>999.8</ele>
        <time>2021-10-11T17:33:18Z</time>
      </trkpt>
      <trkpt lat="42.5270520" lon="-6.0131670">
        <ele>999.6</ele>
        <time>2021-10-11T17:33:21Z</time>
      </trkpt>
      <trkpt lat="42.5267380" lon="-6.0133720">
        <ele>999.6</ele>
        <time>2021-10-11T17:33:27Z</time>
      </trkpt>
      <trkpt lat="42.5265300" lon="-6.0135100">
        <ele>999.4</ele>
        <time>2021-10-11T17:33:31Z</time>
      </trkpt>
      <trkpt lat="42.5261170" lon="-6.0137790">
        <ele>998.8</ele>
        <time>2021-10-11T17:33:39Z</time>
      </trkpt>
      <trkpt lat="42.5260670" lon="-6.0138130">
        <ele>998.8</ele>
        <time>2021-10-11T17:33:40Z</time>
      </trkpt>
      <trkpt lat="42.5256130" lon="-6.0141220">
        <ele>998.2</ele>
        <time>2021-10-11T17:33:49Z</time>
      </trkpt>
      <trkpt lat="42.5254090" lon="-6.0142530">
        <ele>998.0</ele>
        <time>2021-10-11T17:33:53Z</time>
      </trkpt>
      <trkpt lat="42.5253070" lon="-6.0143190">
        <ele>997.8</ele>
        <time>2021-10-11T17:33:55Z</time>
      </trkpt>
      <trkpt lat="42.5252560" lon="-6.0143500">
        <ele>997.8</ele>
        <time>2021-10-11T17:33:56Z</time>
      </trkpt>
      <trkpt lat="42.5248870" lon="-6.0145840">
        <ele>997.6</ele>
        <time>2021-10-11T17:34:03Z</time>
      </trkpt>
      <trkpt lat="42.5243770" lon="-6.0149370">
        <ele>997.4</ele>
        <time>2021-10-11T17:34:13Z</time>
      </trkpt>
      <trkpt lat="42.5239440" lon="-6.0152270">
        <ele>997.4</ele>
        <time>2021-10-11T17:34:22Z</time>
      </trkpt>
      <trkpt lat="42.5237910" lon="-6.0153180">
        <ele>997.2</ele>
        <time>2021-10-11T17:34:25Z</time>
      </trkpt>
      <trkpt lat="42.5235330" lon="-6.0154800">
        <ele>997.0</ele>
        <time>2021-10-11T17:34:30Z</time>
      </trkpt>
      <trkpt lat="42.5233840" lon="-6.0155790">
        <ele>996.8</ele>
        <time>2021-10-11T17:34:33Z</time>
      </trkpt>
      <trkpt lat="42.5232270" lon="-6.0156790">
        <ele>996.6</ele>
        <time>2021-10-11T17:34:36Z</time>
      </trkpt>
      <trkpt lat="42.5229640" lon="-6.0158510">
        <ele>996.4</ele>
        <time>2021-10-11T17:34:41Z</time>
      </trkpt>
      <trkpt lat="42.5224370" lon="-6.0162010">
        <ele>995.6</ele>
        <time>2021-10-11T17:34:51Z</time>
      </trkpt>
      <trkpt lat="42.5223850" lon="-6.0162340">
        <ele>995.6</ele>
        <time>2021-10-11T17:34:52Z</time>
      </trkpt>
      <trkpt lat="42.5223320" lon="-6.0162650">
        <ele>995.6</ele>
        <time>2021-10-11T17:34:53Z</time>
      </trkpt>
      <trkpt lat="42.5219610" lon="-6.0164690">
        <ele>995.4</ele>
        <time>2021-10-11T17:35:00Z</time>
      </trkpt>
      <trkpt lat="42.5214230" lon="-6.0167480">
        <ele>995.4</ele>
        <time>2021-10-11T17:35:10Z</time>
      </trkpt>
      <trkpt lat="42.5213120" lon="-6.0168020">
        <ele>995.2</ele>
        <time>2021-10-11T17:35:12Z</time>
      </trkpt>
      <trkpt lat="42.5208040" lon="-6.0170530">
        <ele>994.8</ele>
        <time>2021-10-11T17:35:21Z</time>
      </trkpt>
      <trkpt lat="42.5207480" lon="-6.0170830">
        <ele>994.8</ele>
        <time>2021-10-11T17:35:22Z</time>
      </trkpt>
      <trkpt lat="42.5205820" lon="-6.0171680">
        <ele>994.6</ele>
        <time>2021-10-11T17:35:25Z</time>
      </trkpt>
      <trkpt lat="42.5204170" lon="-6.0172440">
        <ele>994.4</ele>
        <time>2021-10-11T17:35:28Z</time>
      </trkpt>
      <trkpt lat="42.5201440" lon="-6.0173830">
        <ele>993.8</ele>
        <time>2021-10-11T17:35:33Z</time>
      </trkpt>
      <trkpt lat="42.5199850" lon="-6.0174610">
        <ele>993.4</ele>
        <time>2021-10-11T17:35:36Z</time>
      </trkpt>
      <trkpt lat="42.5198800" lon="-6.0175150">
        <ele>993.4</ele>
        <time>2021-10-11T17:35:38Z</time>
      </trkpt>
      <trkpt lat="42.5193430" lon="-6.0177890">
        <ele>993.4</ele>
        <time>2021-10-11T17:35:48Z</time>
      </trkpt>
      <trkpt lat="42.5190840" lon="-6.0179260">
        <ele>992.6</ele>
        <time>2021-10-11T17:35:53Z</time>
      </trkpt>
      <trkpt lat="42.5190310" lon="-6.0179520">
        <ele>992.4</ele>
        <time>2021-10-11T17:35:54Z</time>
      </trkpt>
      <trkpt lat="42.5189800" lon="-6.0179770">
        <ele>992.2</ele>
        <time>2021-10-11T17:35:55Z</time>
      </trkpt>
      <trkpt lat="42.5187210" lon="-6.0180960">
        <ele>991.6</ele>
        <time>2021-10-11T17:36:00Z</time>
      </trkpt>
      <trkpt lat="42.5186690" lon="-6.0181150">
        <ele>991.6</ele>
        <time>2021-10-11T17:36:01Z</time>
      </trkpt>
      <trkpt lat="42.5185640" lon="-6.0181520">
        <ele>991.6</ele>
        <time>2021-10-11T17:36:03Z</time>
      </trkpt>
      <trkpt lat="42.5183110" lon="-6.0182550">
        <ele>991.6</ele>
        <time>2021-10-11T17:36:08Z</time>
      </trkpt>
      <trkpt lat="42.5181640" lon="-6.0183070">
        <ele>991.4</ele>
        <time>2021-10-11T17:36:11Z</time>
      </trkpt>
      <trkpt lat="42.5177750" lon="-6.0184570">
        <ele>991.6</ele>
        <time>2021-10-11T17:36:19Z</time>
      </trkpt>
      <trkpt lat="42.5176790" lon="-6.0184900">
        <ele>991.6</ele>
        <time>2021-10-11T17:36:21Z</time>
      </trkpt>
      <trkpt lat="42.5173240" lon="-6.0186270">
        <ele>991.0</ele>
        <time>2021-10-11T17:36:28Z</time>
      </trkpt>
      <trkpt lat="42.5172740" lon="-6.0186500">
        <ele>991.0</ele>
        <time>2021-10-11T17:36:29Z</time>
      </trkpt>
      <trkpt lat="42.5172250" lon="-6.0186750">
        <ele>991.0</ele>
        <time>2021-10-11T17:36:30Z</time>
      </trkpt>
      <trkpt lat="42.5170390" lon="-6.0188180">
        <ele>991.0</ele>
        <time>2021-10-11T17:36:34Z</time>
      </trkpt>
      <trkpt lat="42.5168130" lon="-6.0190350">
        <ele>990.6</ele>
        <time>2021-10-11T17:36:39Z</time>
      </trkpt>
      <trkpt lat="42.5167280" lon="-6.0191260">
        <ele>990.6</ele>
        <time>2021-10-11T17:36:41Z</time>
      </trkpt>
      <trkpt lat="42.5166830" lon="-6.0191630">
        <ele>990.4</ele>
        <time>2021-10-11T17:36:42Z</time>
      </trkpt>
      <trkpt lat="42.5164080" lon="-6.0194150">
        <ele>990.4</ele>
        <time>2021-10-11T17:36:48Z</time>
      </trkpt>
      <trkpt lat="42.5163180" lon="-6.0195000">
        <ele>990.4</ele>
        <time>2021-10-11T17:36:50Z</time>
      </trkpt>
      <trkpt lat="42.5162720" lon="-6.0195410">
        <ele>990.4</ele>
        <time>2021-10-11T17:36:51Z</time>
      </trkpt>
      <trkpt lat="42.5161830" lon="-6.0196210">
        <ele>990.4</ele>
        <time>2021-10-11T17:36:53Z</time>
      </trkpt>
      <trkpt lat="42.5158300" lon="-6.0199500">
        <ele>990.0</ele>
        <time>2021-10-11T17:37:01Z</time>
      </trkpt>
      <trkpt lat="42.5157410" lon="-6.0200280">
        <ele>990.0</ele>
        <time>2021-10-11T17:37:03Z</time>
      </trkpt>
      <trkpt lat="42.5156960" lon="-6.0200690">
        <ele>990.0</ele>
        <time>2021-10-11T17:37:04Z</time>
      </trkpt>
      <trkpt lat="42.5154650" lon="-6.0202800">
        <ele>989.8</ele>
        <time>2021-10-11T17:37:09Z</time>
      </trkpt>
      <trkpt lat="42.5154170" lon="-6.0203220">
        <ele>989.8</ele>
        <time>2021-10-11T17:37:10Z</time>
      </trkpt>
      <trkpt lat="42.5152310" lon="-6.0204890">
        <ele>989.6</ele>
        <time>2021-10-11T17:37:14Z</time>
      </trkpt>
      <trkpt lat="42.5150430" lon="-6.0206570">
        <ele>989.6</ele>
        <time>2021-10-11T17:37:18Z</time>
      </trkpt>
      <trkpt lat="42.5146080" lon="-6.0209880">
        <ele>989.0</ele>
        <time>2021-10-11T17:37:27Z</time>
      </trkpt>
      <trkpt lat="42.5144110" lon="-6.0211280">
        <ele>988.6</ele>
        <time>2021-10-11T17:37:31Z</time>
      </trkpt>
      <trkpt lat="42.5143110" lon="-6.0211950">
        <ele>988.6</ele>
        <time>2021-10-11T17:37:33Z</time>
      </trkpt>
      <trkpt lat="42.5140180" lon="-6.0214140">
        <ele>988.6</ele>
        <time>2021-10-11T17:37:39Z</time>
      </trkpt>
      <trkpt lat="42.5139170" lon="-6.0214860">
        <ele>988.4</ele>
        <time>2021-10-11T17:37:41Z</time>
      </trkpt>
      <trkpt lat="42.5134380" lon="-6.0218020">
        <ele>987.8</ele>
        <time>2021-10-11T17:37:50Z</time>
      </trkpt>
      <trkpt lat="42.5133830" lon="-6.0218310">
        <ele>987.4</ele>
        <time>2021-10-11T17:37:51Z</time>
      </trkpt>
      <trkpt lat="42.5129080" lon="-6.0220800">
        <ele>986.2</ele>
        <time>2021-10-11T17:37:59Z</time>
      </trkpt>
      <trkpt lat="42.5128490" lon="-6.0221110">
        <ele>986.2</ele>
        <time>2021-10-11T17:38:00Z</time>
      </trkpt>
      <trkpt lat="42.5125720" lon="-6.0222530">
        <ele>985.2</ele>
        <time>2021-10-11T17:38:05Z</time>
      </trkpt>
      <trkpt lat="42.5122720" lon="-6.0224140">
        <ele>984.8</ele>
        <time>2021-10-11T17:38:11Z</time>
      </trkpt>
      <trkpt lat="42.5118410" lon="-6.0226580">
        <ele>985.2</ele>
        <time>2021-10-11T17:38:20Z</time>
      </trkpt>
      <trkpt lat="42.5116140" lon="-6.0227720">
        <ele>985.2</ele>
        <time>2021-10-11T17:38:25Z</time>
      </trkpt>
      <trkpt lat="42.5115250" lon="-6.0228210">
        <ele>985.2</ele>
        <time>2021-10-11T17:38:27Z</time>
      </trkpt>
      <trkpt lat="42.5114380" lon="-6.0228720">
        <ele>985.2</ele>
        <time>2021-10-11T17:38:29Z</time>
      </trkpt>
      <trkpt lat="42.5113450" lon="-6.0229110">
        <ele>985.2</ele>
        <time>2021-10-11T17:38:31Z</time>
      </trkpt>
      <trkpt lat="42.5111580" lon="-6.0229880">
        <ele>985.6</ele>
        <time>2021-10-11T17:38:35Z</time>
      </trkpt>
      <trkpt lat="42.5110190" lon="-6.0230590">
        <ele>985.6</ele>
        <time>2021-10-11T17:38:38Z</time>
      </trkpt>
      <trkpt lat="42.5107870" lon="-6.0231940">
        <ele>985.4</ele>
        <time>2021-10-11T17:38:43Z</time>
      </trkpt>
      <trkpt lat="42.5102950" lon="-6.0234620">
        <ele>985.0</ele>
        <time>2021-10-11T17:38:53Z</time>
      </trkpt>
      <trkpt lat="42.5102070" lon="-6.0235130">
        <ele>985.0</ele>
        <time>2021-10-11T17:38:55Z</time>
      </trkpt>
      <trkpt lat="42.5101180" lon="-6.0235690">
        <ele>984.8</ele>
        <time>2021-10-11T17:38:57Z</time>
      </trkpt>
      <trkpt lat="42.5100260" lon="-6.0236230">
        <ele>984.8</ele>
        <time>2021-10-11T17:38:59Z</time>
      </trkpt>
      <trkpt lat="42.5099390" lon="-6.0236830">
        <ele>984.6</ele>
        <time>2021-10-11T17:39:01Z</time>
      </trkpt>
      <trkpt lat="42.5098930" lon="-6.0237130">
        <ele>984.6</ele>
        <time>2021-10-11T17:39:02Z</time>
      </trkpt>
      <trkpt lat="42.5098480" lon="-6.0237460">
        <ele>984.6</ele>
        <time>2021-10-11T17:39:03Z</time>
      </trkpt>
      <trkpt lat="42.5098020" lon="-6.0237790">
        <ele>984.6</ele>
        <time>2021-10-11T17:39:04Z</time>
      </trkpt>
      <trkpt lat="42.5097100" lon="-6.0238460">
        <ele>984.4</ele>
        <time>2021-10-11T17:39:06Z</time>
      </trkpt>
      <trkpt lat="42.5095690" lon="-6.0239460">
        <ele>984.2</ele>
        <time>2021-10-11T17:39:09Z</time>
      </trkpt>
      <trkpt lat="42.5095220" lon="-6.0239810">
        <ele>984.2</ele>
        <time>2021-10-11T17:39:10Z</time>
      </trkpt>
      <trkpt lat="42.5090960" lon="-6.0243000">
        <ele>984.0</ele>
        <time>2021-10-11T17:39:19Z</time>
      </trkpt>
      <trkpt lat="42.5090030" lon="-6.0243650">
        <ele>984.0</ele>
        <time>2021-10-11T17:39:21Z</time>
      </trkpt>
      <trkpt lat="42.5089050" lon="-6.0244280">
        <ele>983.8</ele>
        <time>2021-10-11T17:39:23Z</time>
      </trkpt>
      <trkpt lat="42.5087660" lon="-6.0245240">
        <ele>983.8</ele>
        <time>2021-10-11T17:39:26Z</time>
      </trkpt>
      <trkpt lat="42.5087200" lon="-6.0245530">
        <ele>983.8</ele>
        <time>2021-10-11T17:39:27Z</time>
      </trkpt>
      <trkpt lat="42.5084430" lon="-6.0247280">
        <ele>983.6</ele>
        <time>2021-10-11T17:39:33Z</time>
      </trkpt>
      <trkpt lat="42.5083130" lon="-6.0248130">
        <ele>983.6</ele>
        <time>2021-10-11T17:39:36Z</time>
      </trkpt>
      <trkpt lat="42.5080860" lon="-6.0249610">
        <ele>983.6</ele>
        <time>2021-10-11T17:39:41Z</time>
      </trkpt>
      <trkpt lat="42.5078130" lon="-6.0251450">
        <ele>983.6</ele>
        <time>2021-10-11T17:39:47Z</time>
      </trkpt>
      <trkpt lat="42.5073890" lon="-6.0253930">
        <ele>983.4</ele>
        <time>2021-10-11T17:39:56Z</time>
      </trkpt>
      <trkpt lat="42.5073380" lon="-6.0254190">
        <ele>983.4</ele>
        <time>2021-10-11T17:39:57Z</time>
      </trkpt>
      <trkpt lat="42.5072350" lon="-6.0254700">
        <ele>983.0</ele>
        <time>2021-10-11T17:39:59Z</time>
      </trkpt>
      <trkpt lat="42.5069750" lon="-6.0255970">
        <ele>982.6</ele>
        <time>2021-10-11T17:40:04Z</time>
      </trkpt>
      <trkpt lat="42.5068190" lon="-6.0256600">
        <ele>982.4</ele>
        <time>2021-10-11T17:40:07Z</time>
      </trkpt>
      <trkpt lat="42.5064240" lon="-6.0258130">
        <ele>981.8</ele>
        <time>2021-10-11T17:40:15Z</time>
      </trkpt>
      <trkpt lat="42.5063240" lon="-6.0258470">
        <ele>981.8</ele>
        <time>2021-10-11T17:40:17Z</time>
      </trkpt>
      <trkpt lat="42.5059340" lon="-6.0259700">
        <ele>981.8</ele>
        <time>2021-10-11T17:40:25Z</time>
      </trkpt>
      <trkpt lat="42.5056790" lon="-6.0260280">
        <ele>981.4</ele>
        <time>2021-10-11T17:40:30Z</time>
      </trkpt>
      <trkpt lat="42.5056250" lon="-6.0260320">
        <ele>981.4</ele>
        <time>2021-10-11T17:40:31Z</time>
      </trkpt>
      <trkpt lat="42.5054670" lon="-6.0260560">
        <ele>981.2</ele>
        <time>2021-10-11T17:40:34Z</time>
      </trkpt>
      <trkpt lat="42.5054150" lon="-6.0260630">
        <ele>981.2</ele>
        <time>2021-10-11T17:40:35Z</time>
      </trkpt>
      <trkpt lat="42.5053630" lon="-6.0260690">
        <ele>981.2</ele>
        <time>2021-10-11T17:40:36Z</time>
      </trkpt>
      <trkpt lat="42.5052590" lon="-6.0260810">
        <ele>981.2</ele>
        <time>2021-10-11T17:40:38Z</time>
      </trkpt>
      <trkpt lat="42.5050980" lon="-6.0260770">
        <ele>980.8</ele>
        <time>2021-10-11T17:40:41Z</time>
      </trkpt>
      <trkpt lat="42.5049890" lon="-6.0260530">
        <ele>980.8</ele>
        <time>2021-10-11T17:40:43Z</time>
      </trkpt>
      <trkpt lat="42.5049350" lon="-6.0260340">
        <ele>980.6</ele>
        <time>2021-10-11T17:40:44Z</time>
      </trkpt>
      <trkpt lat="42.5047340" lon="-6.0259310">
        <ele>980.4</ele>
        <time>2021-10-11T17:40:48Z</time>
      </trkpt>
      <trkpt lat="42.5046850" lon="-6.0259030">
        <ele>980.2</ele>
        <time>2021-10-11T17:40:49Z</time>
      </trkpt>
      <trkpt lat="42.5045820" lon="-6.0258460">
        <ele>980.0</ele>
        <time>2021-10-11T17:40:51Z</time>
      </trkpt>
      <trkpt lat="42.5043830" lon="-6.0257350">
        <ele>979.4</ele>
        <time>2021-10-11T17:40:55Z</time>
      </trkpt>
      <trkpt lat="42.5043370" lon="-6.0257110">
        <ele>979.4</ele>
        <time>2021-10-11T17:40:56Z</time>
      </trkpt>
      <trkpt lat="42.5042460" lon="-6.0256750">
        <ele>979.2</ele>
        <time>2021-10-11T17:40:58Z</time>
      </trkpt>
      <trkpt lat="42.5040260" lon="-6.0255980">
        <ele>979.2</ele>
        <time>2021-10-11T17:41:03Z</time>
      </trkpt>
      <trkpt lat="42.5039380" lon="-6.0255770">
        <ele>979.4</ele>
        <time>2021-10-11T17:41:05Z</time>
      </trkpt>
      <trkpt lat="42.5037170" lon="-6.0255010">
        <ele>979.4</ele>
        <time>2021-10-11T17:41:10Z</time>
      </trkpt>
      <trkpt lat="42.5035340" lon="-6.0254410">
        <ele>979.8</ele>
        <time>2021-10-11T17:41:14Z</time>
      </trkpt>
      <trkpt lat="42.5032690" lon="-6.0253280">
        <ele>979.8</ele>
        <time>2021-10-11T17:41:20Z</time>
      </trkpt>
      <trkpt lat="42.5032260" lon="-6.0253100">
        <ele>979.8</ele>
        <time>2021-10-11T17:41:21Z</time>
      </trkpt>
      <trkpt lat="42.5029300" lon="-6.0252110">
        <ele>979.8</ele>
        <time>2021-10-11T17:41:28Z</time>
      </trkpt>
      <trkpt lat="42.5025030" lon="-6.0250510">
        <ele>979.2</ele>
        <time>2021-10-11T17:41:38Z</time>
      </trkpt>
      <trkpt lat="42.5024600" lon="-6.0250310">
        <ele>979.2</ele>
        <time>2021-10-11T17:41:39Z</time>
      </trkpt>
      <trkpt lat="42.5024170" lon="-6.0250090">
        <ele>979.0</ele>
        <time>2021-10-11T17:41:40Z</time>
      </trkpt>
      <trkpt lat="42.5022100" lon="-6.0249090">
        <ele>979.0</ele>
        <time>2021-10-11T17:41:45Z</time>
      </trkpt>
      <trkpt lat="42.5021670" lon="-6.0248900">
        <ele>979.0</ele>
        <time>2021-10-11T17:41:46Z</time>
      </trkpt>
      <trkpt lat="42.5019580" lon="-6.0247830">
        <ele>979.0</ele>
        <time>2021-10-11T17:41:51Z</time>
      </trkpt>
      <trkpt lat="42.5018720" lon="-6.0247430">
        <ele>979.0</ele>
        <time>2021-10-11T17:41:53Z</time>
      </trkpt>
      <trkpt lat="42.5017420" lon="-6.0246810">
        <ele>978.8</ele>
        <time>2021-10-11T17:41:56Z</time>
      </trkpt>
      <trkpt lat="42.5016100" lon="-6.0246260">
        <ele>978.8</ele>
        <time>2021-10-11T17:41:59Z</time>
      </trkpt>
      <trkpt lat="42.5015210" lon="-6.0245880">
        <ele>978.6</ele>
        <time>2021-10-11T17:42:01Z</time>
      </trkpt>
      <trkpt lat="42.5013370" lon="-6.0245240">
        <ele>978.6</ele>
        <time>2021-10-11T17:42:05Z</time>
      </trkpt>
      <trkpt lat="42.5012900" lon="-6.0245120">
        <ele>978.6</ele>
        <time>2021-10-11T17:42:06Z</time>
      </trkpt>
      <trkpt lat="42.5011060" lon="-6.0244860">
        <ele>978.4</ele>
        <time>2021-10-11T17:42:10Z</time>
      </trkpt>
      <trkpt lat="42.5010120" lon="-6.0245020">
        <ele>978.4</ele>
        <time>2021-10-11T17:42:12Z</time>
      </trkpt>
      <trkpt lat="42.5009660" lon="-6.0245170">
        <ele>978.4</ele>
        <time>2021-10-11T17:42:13Z</time>
      </trkpt>
      <trkpt lat="42.5008770" lon="-6.0245750">
        <ele>978.2</ele>
        <time>2021-10-11T17:42:15Z</time>
      </trkpt>
      <trkpt lat="42.5008400" lon="-6.0246170">
        <ele>978.2</ele>
        <time>2021-10-11T17:42:16Z</time>
      </trkpt>
      <trkpt lat="42.5008070" lon="-6.0246680">
        <ele>978.2</ele>
        <time>2021-10-11T17:42:17Z</time>
      </trkpt>
      <trkpt lat="42.5007070" lon="-6.0248870">
        <ele>978.2</ele>
        <time>2021-10-11T17:42:21Z</time>
      </trkpt>
      <trkpt lat="42.5006540" lon="-6.0249890">
        <ele>978.0</ele>
        <time>2021-10-11T17:42:23Z</time>
      </trkpt>
      <trkpt lat="42.5005850" lon="-6.0250770">
        <ele>977.8</ele>
        <time>2021-10-11T17:42:25Z</time>
      </trkpt>
      <trkpt lat="42.5005470" lon="-6.0251170">
        <ele>977.4</ele>
        <time>2021-10-11T17:42:26Z</time>
      </trkpt>
      <trkpt lat="42.5004160" lon="-6.0252220">
        <ele>977.0</ele>
        <time>2021-10-11T17:42:29Z</time>
      </trkpt>
      <trkpt lat="42.5002830" lon="-6.0253400">
        <ele>976.6</ele>
        <time>2021-10-11T17:42:32Z</time>
      </trkpt>
      <trkpt lat="42.5002390" lon="-6.0253860">
        <ele>976.4</ele>
        <time>2021-10-11T17:42:33Z</time>
      </trkpt>
      <trkpt lat="42.5001950" lon="-6.0254400">
        <ele>976.2</ele>
        <time>2021-10-11T17:42:34Z</time>
      </trkpt>
      <trkpt lat="42.5000730" lon="-6.0256350">
        <ele>975.8</ele>
        <time>2021-10-11T17:42:37Z</time>
      </trkpt>
      <trkpt lat="42.5000390" lon="-6.0257050">
        <ele>975.6</ele>
        <time>2021-10-11T17:42:38Z</time>
      </trkpt>
      <trkpt lat="42.4999810" lon="-6.0258550">
        <ele>974.6</ele>
        <time>2021-10-11T17:42:40Z</time>
      </trkpt>
      <trkpt lat="42.4999540" lon="-6.0259330">
        <ele>974.4</ele>
        <time>2021-10-11T17:42:41Z</time>
      </trkpt>
      <trkpt lat="42.4999120" lon="-6.0260950">
        <ele>973.4</ele>
        <time>2021-10-11T17:42:43Z</time>
      </trkpt>
      <trkpt lat="42.4998740" lon="-6.0262570">
        <ele>972.2</ele>
        <time>2021-10-11T17:42:45Z</time>
      </trkpt>
      <trkpt lat="42.4998350" lon="-6.0264170">
        <ele>971.2</ele>
        <time>2021-10-11T17:42:47Z</time>
      </trkpt>
      <trkpt lat="42.4998030" lon="-6.0265770">
        <ele>970.2</ele>
        <time>2021-10-11T17:42:49Z</time>
      </trkpt>
      <trkpt lat="42.4997750" lon="-6.0267400">
        <ele>968.8</ele>
        <time>2021-10-11T17:42:51Z</time>
      </trkpt>
      <trkpt lat="42.4997640" lon="-6.0268260">
        <ele>968.4</ele>
        <time>2021-10-11T17:42:52Z</time>
      </trkpt>
      <trkpt lat="42.4997520" lon="-6.0269080">
        <ele>967.6</ele>
        <time>2021-10-11T17:42:53Z</time>
      </trkpt>
      <trkpt lat="42.4997150" lon="-6.0271760">
        <ele>966.4</ele>
        <time>2021-10-11T17:42:56Z</time>
      </trkpt>
      <trkpt lat="42.4996930" lon="-6.0273680">
        <ele>965.6</ele>
        <time>2021-10-11T17:42:58Z</time>
      </trkpt>
      <trkpt lat="42.4996860" lon="-6.0274650">
        <ele>965.4</ele>
        <time>2021-10-11T17:42:59Z</time>
      </trkpt>
      <trkpt lat="42.4996750" lon="-6.0275630">
        <ele>964.2</ele>
        <time>2021-10-11T17:43:00Z</time>
      </trkpt>
      <trkpt lat="42.4996530" lon="-6.0277700">
        <ele>962.4</ele>
        <time>2021-10-11T17:43:02Z</time>
      </trkpt>
      <trkpt lat="42.4996260" lon="-6.0279840">
        <ele>961.4</ele>
        <time>2021-10-11T17:43:04Z</time>
      </trkpt>
      <trkpt lat="42.4995960" lon="-6.0281970">
        <ele>959.8</ele>
        <time>2021-10-11T17:43:06Z</time>
      </trkpt>
      <trkpt lat="42.4995670" lon="-6.0284060">
        <ele>958.6</ele>
        <time>2021-10-11T17:43:08Z</time>
      </trkpt>
      <trkpt lat="42.4995250" lon="-6.0287120">
        <ele>957.0</ele>
        <time>2021-10-11T17:43:11Z</time>
      </trkpt>
      <trkpt lat="42.4995010" lon="-6.0289090">
        <ele>955.6</ele>
        <time>2021-10-11T17:43:13Z</time>
      </trkpt>
      <trkpt lat="42.4994750" lon="-6.0290990">
        <ele>953.4</ele>
        <time>2021-10-11T17:43:15Z</time>
      </trkpt>
      <trkpt lat="42.4994530" lon="-6.0292830">
        <ele>952.0</ele>
        <time>2021-10-11T17:43:17Z</time>
      </trkpt>
      <trkpt lat="42.4994420" lon="-6.0293720">
        <ele>951.8</ele>
        <time>2021-10-11T17:43:18Z</time>
      </trkpt>
      <trkpt lat="42.4994110" lon="-6.0296230">
        <ele>950.4</ele>
        <time>2021-10-11T17:43:21Z</time>
      </trkpt>
      <trkpt lat="42.4993810" lon="-6.0298760">
        <ele>949.8</ele>
        <time>2021-10-11T17:43:24Z</time>
      </trkpt>
      <trkpt lat="42.4993570" lon="-6.0300440">
        <ele>949.4</ele>
        <time>2021-10-11T17:43:26Z</time>
      </trkpt>
      <trkpt lat="42.4993440" lon="-6.0301290">
        <ele>949.2</ele>
        <time>2021-10-11T17:43:27Z</time>
      </trkpt>
      <trkpt lat="42.4993120" lon="-6.0303730">
        <ele>948.2</ele>
        <time>2021-10-11T17:43:30Z</time>
      </trkpt>
      <trkpt lat="42.4992790" lon="-6.0306100">
        <ele>947.4</ele>
        <time>2021-10-11T17:43:33Z</time>
      </trkpt>
      <trkpt lat="42.4992330" lon="-6.0307340">
        <ele>947.0</ele>
        <time>2021-10-11T17:43:35Z</time>
      </trkpt>
      <trkpt lat="42.4990910" lon="-6.0309400">
        <ele>945.6</ele>
        <time>2021-10-11T17:43:39Z</time>
      </trkpt>
      <trkpt lat="42.4990020" lon="-6.0310330">
        <ele>945.0</ele>
        <time>2021-10-11T17:43:41Z</time>
      </trkpt>
      <trkpt lat="42.4989540" lon="-6.0310820">
        <ele>944.4</ele>
        <time>2021-10-11T17:43:42Z</time>
      </trkpt>
      <trkpt lat="42.4987600" lon="-6.0312780">
        <ele>943.2</ele>
        <time>2021-10-11T17:43:46Z</time>
      </trkpt>
      <trkpt lat="42.4987210" lon="-6.0313160">
        <ele>942.6</ele>
        <time>2021-10-11T17:43:47Z</time>
      </trkpt>
      <trkpt lat="42.4986670" lon="-6.0313700">
        <ele>942.0</ele>
        <time>2021-10-11T17:43:49Z</time>
      </trkpt>
      <trkpt lat="42.4986380" lon="-6.0313950">
        <ele>941.2</ele>
        <time>2021-10-11T17:43:51Z</time>
      </trkpt>
      <trkpt lat="42.4986270" lon="-6.0314070">
        <ele>940.6</ele>
        <time>2021-10-11T17:43:52Z</time>
      </trkpt>
      <trkpt lat="42.4985410" lon="-6.0315000">
        <ele>939.4</ele>
        <time>2021-10-11T17:43:56Z</time>
      </trkpt>
      <trkpt lat="42.4983250" lon="-6.0317200">
        <ele>939.0</ele>
        <time>2021-10-11T17:44:02Z</time>
      </trkpt>
      <trkpt lat="42.4981500" lon="-6.0318900">
        <ele>938.4</ele>
        <time>2021-10-11T17:44:06Z</time>
      </trkpt>
      <trkpt lat="42.4980070" lon="-6.0320340">
        <ele>937.6</ele>
        <time>2021-10-11T17:44:09Z</time>
      </trkpt>
      <trkpt lat="42.4979570" lon="-6.0320840">
        <ele>937.0</ele>
        <time>2021-10-11T17:44:10Z</time>
      </trkpt>
      <trkpt lat="42.4977500" lon="-6.0322890">
        <ele>936.2</ele>
        <time>2021-10-11T17:44:14Z</time>
      </trkpt>
      <trkpt lat="42.4975860" lon="-6.0324530">
        <ele>935.8</ele>
        <time>2021-10-11T17:44:17Z</time>
      </trkpt>
      <trkpt lat="42.4974200" lon="-6.0326140">
        <ele>935.0</ele>
        <time>2021-10-11T17:44:20Z</time>
      </trkpt>
      <trkpt lat="42.4972530" lon="-6.0327800">
        <ele>934.0</ele>
        <time>2021-10-11T17:44:23Z</time>
      </trkpt>
      <trkpt lat="42.4971960" lon="-6.0328350">
        <ele>933.8</ele>
        <time>2021-10-11T17:44:24Z</time>
      </trkpt>
      <trkpt lat="42.4970780" lon="-6.0329460">
        <ele>932.8</ele>
        <time>2021-10-11T17:44:26Z</time>
      </trkpt>
      <trkpt lat="42.4968480" lon="-6.0331800">
        <ele>931.6</ele>
        <time>2021-10-11T17:44:30Z</time>
      </trkpt>
      <trkpt lat="42.4967290" lon="-6.0332980">
        <ele>931.0</ele>
        <time>2021-10-11T17:44:32Z</time>
      </trkpt>
      <trkpt lat="42.4966130" lon="-6.0334150">
        <ele>930.4</ele>
        <time>2021-10-11T17:44:34Z</time>
      </trkpt>
      <trkpt lat="42.4964400" lon="-6.0335930">
        <ele>929.2</ele>
        <time>2021-10-11T17:44:37Z</time>
      </trkpt>
      <trkpt lat="42.4962080" lon="-6.0338220">
        <ele>928.0</ele>
        <time>2021-10-11T17:44:41Z</time>
      </trkpt>
      <trkpt lat="42.4959910" lon="-6.0340400">
        <ele>926.8</ele>
        <time>2021-10-11T17:44:45Z</time>
      </trkpt>
      <trkpt lat="42.4957810" lon="-6.0342470">
        <ele>926.2</ele>
        <time>2021-10-11T17:44:49Z</time>
      </trkpt>
      <trkpt lat="42.4956380" lon="-6.0343930">
        <ele>925.6</ele>
        <time>2021-10-11T17:44:52Z</time>
      </trkpt>
      <trkpt lat="42.4955040" lon="-6.0345240">
        <ele>925.2</ele>
        <time>2021-10-11T17:44:55Z</time>
      </trkpt>
      <trkpt lat="42.4954190" lon="-6.0346100">
        <ele>924.6</ele>
        <time>2021-10-11T17:44:57Z</time>
      </trkpt>
      <trkpt lat="42.4952430" lon="-6.0347890">
        <ele>924.2</ele>
        <time>2021-10-11T17:45:01Z</time>
      </trkpt>
      <trkpt lat="42.4948350" lon="-6.0352320">
        <ele>924.0</ele>
        <time>2021-10-11T17:45:11Z</time>
      </trkpt>
      <trkpt lat="42.4945120" lon="-6.0356340">
        <ele>923.8</ele>
        <time>2021-10-11T17:45:19Z</time>
      </trkpt>
      <trkpt lat="42.4944360" lon="-6.0357320">
        <ele>923.8</ele>
        <time>2021-10-11T17:45:21Z</time>
      </trkpt>
      <trkpt lat="42.4943560" lon="-6.0358170">
        <ele>923.6</ele>
        <time>2021-10-11T17:45:23Z</time>
      </trkpt>
      <trkpt lat="42.4942450" lon="-6.0359630">
        <ele>923.2</ele>
        <time>2021-10-11T17:45:26Z</time>
      </trkpt>
      <trkpt lat="42.4940110" lon="-6.0362520">
        <ele>922.6</ele>
        <time>2021-10-11T17:45:32Z</time>
      </trkpt>
      <trkpt lat="42.4939330" lon="-6.0363450">
        <ele>922.4</ele>
        <time>2021-10-11T17:45:34Z</time>
      </trkpt>
      <trkpt lat="42.4935220" lon="-6.0368250">
        <ele>922.0</ele>
        <time>2021-10-11T17:45:45Z</time>
      </trkpt>
      <trkpt lat="42.4934030" lon="-6.0369680">
        <ele>921.2</ele>
        <time>2021-10-11T17:45:48Z</time>
      </trkpt>
      <trkpt lat="42.4933160" lon="-6.0370690">
        <ele>920.0</ele>
        <time>2021-10-11T17:45:50Z</time>
      </trkpt>
      <trkpt lat="42.4931450" lon="-6.0372820">
        <ele>918.8</ele>
        <time>2021-10-11T17:45:54Z</time>
      </trkpt>
      <trkpt lat="42.4929620" lon="-6.0374980">
        <ele>917.6</ele>
        <time>2021-10-11T17:45:58Z</time>
      </trkpt>
      <trkpt lat="42.4927370" lon="-6.0377510">
        <ele>916.6</ele>
        <time>2021-10-11T17:46:03Z</time>
      </trkpt>
      <trkpt lat="42.4926930" lon="-6.0377960">
        <ele>916.6</ele>
        <time>2021-10-11T17:46:04Z</time>
      </trkpt>
      <trkpt lat="42.4925190" lon="-6.0379640">
        <ele>915.6</ele>
        <time>2021-10-11T17:46:08Z</time>
      </trkpt>
      <trkpt lat="42.4923940" lon="-6.0380820">
        <ele>915.4</ele>
        <time>2021-10-11T17:46:11Z</time>
      </trkpt>
      <trkpt lat="42.4919780" lon="-6.0384600">
        <ele>914.4</ele>
        <time>2021-10-11T17:46:20Z</time>
      </trkpt>
      <trkpt lat="42.4916380" lon="-6.0387850">
        <ele>913.4</ele>
        <time>2021-10-11T17:46:28Z</time>
      </trkpt>
      <trkpt lat="42.4915970" lon="-6.0388260">
        <ele>913.4</ele>
        <time>2021-10-11T17:46:29Z</time>
      </trkpt>
      <trkpt lat="42.4913470" lon="-6.0390600">
        <ele>912.6</ele>
        <time>2021-10-11T17:46:35Z</time>
      </trkpt>
      <trkpt lat="42.4912280" lon="-6.0391760">
        <ele>912.2</ele>
        <time>2021-10-11T17:46:38Z</time>
      </trkpt>
      <trkpt lat="42.4908860" lon="-6.0395200">
        <ele>911.2</ele>
        <time>2021-10-11T17:46:47Z</time>
      </trkpt>
      <trkpt lat="42.4906160" lon="-6.0397650">
        <ele>910.2</ele>
        <time>2021-10-11T17:46:54Z</time>
      </trkpt>
      <trkpt lat="42.4902130" lon="-6.0400730">
        <ele>909.2</ele>
        <time>2021-10-11T17:47:03Z</time>
      </trkpt>
      <trkpt lat="42.4901060" lon="-6.0401260">
        <ele>909.0</ele>
        <time>2021-10-11T17:47:05Z</time>
      </trkpt>
      <trkpt lat="42.4899180" lon="-6.0402120">
        <ele>908.6</ele>
        <time>2021-10-11T17:47:08Z</time>
      </trkpt>
      <trkpt lat="42.4897010" lon="-6.0403090">
        <ele>907.4</ele>
        <time>2021-10-11T17:47:11Z</time>
      </trkpt>
      <trkpt lat="42.4895430" lon="-6.0403840">
        <ele>906.2</ele>
        <time>2021-10-11T17:47:13Z</time>
      </trkpt>
      <trkpt lat="42.4893820" lon="-6.0404870">
        <ele>905.0</ele>
        <time>2021-10-11T17:47:15Z</time>
      </trkpt>
      <trkpt lat="42.4892290" lon="-6.0406140">
        <ele>904.0</ele>
        <time>2021-10-11T17:47:17Z</time>
      </trkpt>
      <trkpt lat="42.4891560" lon="-6.0406800">
        <ele>903.2</ele>
        <time>2021-10-11T17:47:18Z</time>
      </trkpt>
      <trkpt lat="42.4890010" lon="-6.0408070">
        <ele>901.2</ele>
        <time>2021-10-11T17:47:20Z</time>
      </trkpt>
      <trkpt lat="42.4888330" lon="-6.0409220">
        <ele>900.2</ele>
        <time>2021-10-11T17:47:22Z</time>
      </trkpt>
      <trkpt lat="42.4887480" lon="-6.0409800">
        <ele>899.8</ele>
        <time>2021-10-11T17:47:23Z</time>
      </trkpt>
      <trkpt lat="42.4885780" lon="-6.0410950">
        <ele>899.0</ele>
        <time>2021-10-11T17:47:25Z</time>
      </trkpt>
      <trkpt lat="42.4884260" lon="-6.0412090">
        <ele>897.6</ele>
        <time>2021-10-11T17:47:27Z</time>
      </trkpt>
      <trkpt lat="42.4882880" lon="-6.0413090">
        <ele>896.0</ele>
        <time>2021-10-11T17:47:29Z</time>
      </trkpt>
      <trkpt lat="42.4880320" lon="-6.0414880">
        <ele>894.8</ele>
        <time>2021-10-11T17:47:33Z</time>
      </trkpt>
      <trkpt lat="42.4879100" lon="-6.0415920">
        <ele>894.4</ele>
        <time>2021-10-11T17:47:35Z</time>
      </trkpt>
      <trkpt lat="42.4877270" lon="-6.0417420">
        <ele>893.6</ele>
        <time>2021-10-11T17:47:38Z</time>
      </trkpt>
      <trkpt lat="42.4876730" lon="-6.0417810">
        <ele>893.2</ele>
        <time>2021-10-11T17:47:39Z</time>
      </trkpt>
      <trkpt lat="42.4875800" lon="-6.0418330">
        <ele>892.6</ele>
        <time>2021-10-11T17:47:41Z</time>
      </trkpt>
      <trkpt lat="42.4875400" lon="-6.0418550">
        <ele>892.2</ele>
        <time>2021-10-11T17:47:42Z</time>
      </trkpt>
      <trkpt lat="42.4874830" lon="-6.0418700">
        <ele>891.4</ele>
        <time>2021-10-11T17:47:44Z</time>
      </trkpt>
      <trkpt lat="42.4874530" lon="-6.0418680">
        <ele>891.2</ele>
        <time>2021-10-11T17:47:45Z</time>
      </trkpt>
      <trkpt lat="42.4873330" lon="-6.0419200">
        <ele>890.4</ele>
        <time>2021-10-11T17:47:49Z</time>
      </trkpt>
      <trkpt lat="42.4872150" lon="-6.0420500">
        <ele>890.0</ele>
        <time>2021-10-11T17:47:53Z</time>
      </trkpt>
      <trkpt lat="42.4870980" lon="-6.0421870">
        <ele>889.4</ele>
        <time>2021-10-11T17:47:57Z</time>
      </trkpt>
      <trkpt lat="42.4870170" lon="-6.0422500">
        <ele>888.8</ele>
        <time>2021-10-11T17:48:00Z</time>
      </trkpt>
      <trkpt lat="42.4870030" lon="-6.0422680">
        <ele>888.6</ele>
        <time>2021-10-11T17:48:01Z</time>
      </trkpt>
      <trkpt lat="42.4869900" lon="-6.0423030">
        <ele>888.4</ele>
        <time>2021-10-11T17:48:06Z</time>
      </trkpt>
      <trkpt lat="42.4869760" lon="-6.0423210">
        <ele>887.8</ele>
        <time>2021-10-11T17:50:09Z</time>
      </trkpt>
      <trkpt lat="42.4869600" lon="-6.0423330">
        <ele>887.8</ele>
        <time>2021-10-11T17:50:10Z</time>
      </trkpt>
      <trkpt lat="42.4869150" lon="-6.0423720">
        <ele>887.8</ele>
        <time>2021-10-11T17:50:12Z</time>
      </trkpt>
      <trkpt lat="42.4867290" lon="-6.0425370">
        <ele>887.6</ele>
        <time>2021-10-11T17:50:18Z</time>
      </trkpt>
      <trkpt lat="42.4865510" lon="-6.0427110">
        <ele>887.2</ele>
        <time>2021-10-11T17:50:24Z</time>
      </trkpt>
      <trkpt lat="42.4865210" lon="-6.0427420">
        <ele>887.2</ele>
        <time>2021-10-11T17:50:25Z</time>
      </trkpt>
      <trkpt lat="42.4864320" lon="-6.0428320">
        <ele>887.0</ele>
        <time>2021-10-11T17:50:28Z</time>
      </trkpt>
      <trkpt lat="42.4863710" lon="-6.0428880">
        <ele>887.0</ele>
        <time>2021-10-11T17:50:30Z</time>
      </trkpt>
      <trkpt lat="42.4862500" lon="-6.0429900">
        <ele>886.8</ele>
        <time>2021-10-11T17:50:34Z</time>
      </trkpt>
      <trkpt lat="42.4862260" lon="-6.0430200">
        <ele>886.8</ele>
        <time>2021-10-11T17:50:35Z</time>
      </trkpt>
      <trkpt lat="42.4861490" lon="-6.0431960">
        <ele>886.4</ele>
        <time>2021-10-11T17:50:39Z</time>
      </trkpt>
      <trkpt lat="42.4860160" lon="-6.0434850">
        <ele>886.4</ele>
        <time>2021-10-11T17:50:45Z</time>
      </trkpt>
      <trkpt lat="42.4859820" lon="-6.0435340">
        <ele>886.4</ele>
        <time>2021-10-11T17:50:46Z</time>
      </trkpt>
      <trkpt lat="42.4858280" lon="-6.0439250">
        <ele>886.4</ele>
        <time>2021-10-11T17:50:53Z</time>
      </trkpt>
      <trkpt lat="42.4857550" lon="-6.0440910">
        <ele>886.4</ele>
        <time>2021-10-11T17:50:56Z</time>
      </trkpt>
      <trkpt lat="42.4856380" lon="-6.0443090">
        <ele>886.4</ele>
        <time>2021-10-11T17:51:00Z</time>
      </trkpt>
      <trkpt lat="42.4856130" lon="-6.0443570">
        <ele>886.4</ele>
        <time>2021-10-11T17:51:01Z</time>
      </trkpt>
      <trkpt lat="42.4854680" lon="-6.0446690">
        <ele>886.6</ele>
        <time>2021-10-11T17:51:08Z</time>
      </trkpt>
      <trkpt lat="42.4854540" lon="-6.0447080">
        <ele>886.4</ele>
        <time>2021-10-11T17:51:09Z</time>
      </trkpt>
      <trkpt lat="42.4854400" lon="-6.0447470">
        <ele>886.4</ele>
        <time>2021-10-11T17:51:10Z</time>
      </trkpt>
      <trkpt lat="42.4854160" lon="-6.0448410">
        <ele>886.2</ele>
        <time>2021-10-11T17:51:13Z</time>
      </trkpt>
      <trkpt lat="42.4854010" lon="-6.0448960">
        <ele>886.2</ele>
        <time>2021-10-11T17:51:18Z</time>
      </trkpt>
      <trkpt lat="42.4854150" lon="-6.0449840">
        <ele>886.0</ele>
        <time>2021-10-11T17:51:45Z</time>
      </trkpt>
      <trkpt lat="42.4854640" lon="-6.0449890">
        <ele>886.0</ele>
        <time>2021-10-11T17:51:47Z</time>
      </trkpt>
      <trkpt lat="42.4856220" lon="-6.0450050">
        <ele>886.2</ele>
        <time>2021-10-11T17:51:53Z</time>
      </trkpt>
      <trkpt lat="42.4858000" lon="-6.0449910">
        <ele>886.4</ele>
        <time>2021-10-11T17:52:00Z</time>
      </trkpt>
      <trkpt lat="42.4858750" lon="-6.0449890">
        <ele>886.4</ele>
        <time>2021-10-11T17:52:02Z</time>
      </trkpt>
      <trkpt lat="42.4860220" lon="-6.0450170">
        <ele>886.4</ele>
        <time>2021-10-11T17:52:06Z</time>
      </trkpt>
      <trkpt lat="42.4860970" lon="-6.0450220">
        <ele>886.6</ele>
        <time>2021-10-11T17:52:08Z</time>
      </trkpt>
      <trkpt lat="42.4862550" lon="-6.0450580">
        <ele>886.8</ele>
        <time>2021-10-11T17:52:12Z</time>
      </trkpt>
      <trkpt lat="42.4864020" lon="-6.0451190">
        <ele>887.2</ele>
        <time>2021-10-11T17:52:16Z</time>
      </trkpt>
      <trkpt lat="42.4864900" lon="-6.0451510">
        <ele>887.2</ele>
        <time>2021-10-11T17:52:19Z</time>
      </trkpt>
      <trkpt lat="42.4865260" lon="-6.0451760">
        <ele>887.2</ele>
        <time>2021-10-11T17:52:23Z</time>
      </trkpt>
      <trkpt lat="42.4866070" lon="-6.0452130">
        <ele>887.4</ele>
        <time>2021-10-11T17:52:35Z</time>
      </trkpt>
      <trkpt lat="42.4866280" lon="-6.0452180">
        <ele>887.4</ele>
        <time>2021-10-11T17:52:36Z</time>
      </trkpt>
      <trkpt lat="42.4866570" lon="-6.0452210">
        <ele>887.4</ele>
        <time>2021-10-11T17:52:38Z</time>
      </trkpt>
      <trkpt lat="42.4868090" lon="-6.0452510">
        <ele>887.6</ele>
        <time>2021-10-11T17:52:44Z</time>
      </trkpt>
      <trkpt lat="42.4870430" lon="-6.0453180">
        <ele>887.4</ele>
        <time>2021-10-11T17:52:50Z</time>
      </trkpt>
      <trkpt lat="42.4871700" lon="-6.0453530">
        <ele>887.4</ele>
        <time>2021-10-11T17:52:53Z</time>
      </trkpt>
      <trkpt lat="42.4872910" lon="-6.0453640">
        <ele>887.4</ele>
        <time>2021-10-11T17:52:56Z</time>
      </trkpt>
      <trkpt lat="42.4873720" lon="-6.0453790">
        <ele>887.4</ele>
        <time>2021-10-11T17:52:58Z</time>
      </trkpt>
      <trkpt lat="42.4875650" lon="-6.0454010">
        <ele>887.6</ele>
        <time>2021-10-11T17:53:03Z</time>
      </trkpt>
      <trkpt lat="42.4877160" lon="-6.0453960">
        <ele>887.8</ele>
        <time>2021-10-11T17:53:07Z</time>
      </trkpt>
      <trkpt lat="42.4877900" lon="-6.0454240">
        <ele>887.8</ele>
        <time>2021-10-11T17:53:09Z</time>
      </trkpt>
      <trkpt lat="42.4878330" lon="-6.0455630">
        <ele>887.8</ele>
        <time>2021-10-11T17:53:12Z</time>
      </trkpt>
      <trkpt lat="42.4878690" lon="-6.0457610">
        <ele>887.8</ele>
        <time>2021-10-11T17:53:16Z</time>
      </trkpt>
      <trkpt lat="42.4878820" lon="-6.0458610">
        <ele>887.8</ele>
        <time>2021-10-11T17:53:18Z</time>
      </trkpt>
      <trkpt lat="42.4878740" lon="-6.0459060">
        <ele>887.8</ele>
        <time>2021-10-11T17:53:19Z</time>
      </trkpt>
      <trkpt lat="42.4877470" lon="-6.0460260">
        <ele>887.8</ele>
        <time>2021-10-11T17:53:23Z</time>
      </trkpt>
      <trkpt lat="42.4875980" lon="-6.0461650">
        <ele>888.2</ele>
        <time>2021-10-11T17:53:28Z</time>
      </trkpt>
      <trkpt lat="42.4875770" lon="-6.0462010">
        <ele>888.2</ele>
        <time>2021-10-11T17:53:29Z</time>
      </trkpt>
      <trkpt lat="42.4875130" lon="-6.0463240">
        <ele>888.8</ele>
        <time>2021-10-11T17:53:32Z</time>
      </trkpt>
      <trkpt lat="42.4874380" lon="-6.0464680">
        <ele>889.2</ele>
        <time>2021-10-11T17:53:35Z</time>
      </trkpt>
      <trkpt lat="42.4873880" lon="-6.0465650">
        <ele>889.4</ele>
        <time>2021-10-11T17:53:37Z</time>
      </trkpt>
      <trkpt lat="42.4872290" lon="-6.0469400">
        <ele>889.4</ele>
        <time>2021-10-11T17:53:44Z</time>
      </trkpt>
      <trkpt lat="42.4871470" lon="-6.0471360">
        <ele>889.0</ele>
        <time>2021-10-11T17:53:47Z</time>
      </trkpt>
      <trkpt lat="42.4869950" lon="-6.0475430">
        <ele>888.2</ele>
        <time>2021-10-11T17:53:54Z</time>
      </trkpt>
      <trkpt lat="42.4869400" lon="-6.0476760">
        <ele>888.2</ele>
        <time>2021-10-11T17:53:57Z</time>
      </trkpt>
      <trkpt lat="42.4869130" lon="-6.0477450">
        <ele>888.2</ele>
        <time>2021-10-11T17:53:59Z</time>
      </trkpt>
      <trkpt lat="42.4869000" lon="-6.0477730">
        <ele>888.2</ele>
        <time>2021-10-11T17:54:00Z</time>
      </trkpt>
      <trkpt lat="42.4868710" lon="-6.0478310">
        <ele>888.2</ele>
        <time>2021-10-11T17:54:03Z</time>
      </trkpt>
      <trkpt lat="42.4868490" lon="-6.0478400">
        <ele>888.4</ele>
        <time>2021-10-11T17:54:05Z</time>
      </trkpt>
      <trkpt lat="42.4868430" lon="-6.0478430">
        <ele>888.6</ele>
        <time>2021-10-11T17:54:08Z</time>
      </trkpt>
      <trkpt lat="42.4868110" lon="-6.0478730">
        <ele>888.6</ele>
        <time>2021-10-11T17:55:58Z</time>
      </trkpt>
      <trkpt lat="42.4867860" lon="-6.0478810">
        <ele>888.6</ele>
        <time>2021-10-11T17:55:59Z</time>
      </trkpt>
      <trkpt lat="42.4867050" lon="-6.0478760">
        <ele>888.4</ele>
        <time>2021-10-11T17:56:02Z</time>
      </trkpt>
      <trkpt lat="42.4865930" lon="-6.0478520">
        <ele>888.4</ele>
        <time>2021-10-11T17:56:05Z</time>
      </trkpt>
      <trkpt lat="42.4865560" lon="-6.0478410">
        <ele>888.2</ele>
        <time>2021-10-11T17:56:07Z</time>
      </trkpt>
      <trkpt lat="42.4862590" lon="-6.0477690">
        <ele>888.2</ele>
        <time>2021-10-11T17:56:14Z</time>
      </trkpt>
      <trkpt lat="42.4860680" lon="-6.0477210">
        <ele>888.2</ele>
        <time>2021-10-11T17:56:17Z</time>
      </trkpt>
      <trkpt lat="42.4859160" lon="-6.0476840">
        <ele>888.2</ele>
        <time>2021-10-11T17:56:20Z</time>
      </trkpt>
      <trkpt lat="42.4857600" lon="-6.0476440">
        <ele>888.2</ele>
        <time>2021-10-11T17:56:23Z</time>
      </trkpt>
      <trkpt lat="42.4855980" lon="-6.0475970">
        <ele>888.4</ele>
        <time>2021-10-11T17:56:26Z</time>
      </trkpt>
      <trkpt lat="42.4855170" lon="-6.0475740">
        <ele>888.2</ele>
        <time>2021-10-11T17:56:27Z</time>
      </trkpt>
      <trkpt lat="42.4854360" lon="-6.0475510">
        <ele>888.2</ele>
        <time>2021-10-11T17:56:29Z</time>
      </trkpt>
      <trkpt lat="42.4852700" lon="-6.0475080">
        <ele>888.0</ele>
        <time>2021-10-11T17:56:32Z</time>
      </trkpt>
      <trkpt lat="42.4851550" lon="-6.0474790">
        <ele>888.0</ele>
        <time>2021-10-11T17:56:34Z</time>
      </trkpt>
      <trkpt lat="42.4846180" lon="-6.0473300">
        <ele>887.8</ele>
        <time>2021-10-11T17:56:43Z</time>
      </trkpt>
      <trkpt lat="42.4845560" lon="-6.0473130">
        <ele>887.8</ele>
        <time>2021-10-11T17:56:44Z</time>
      </trkpt>
      <trkpt lat="42.4840520" lon="-6.0471720">
        <ele>887.6</ele>
        <time>2021-10-11T17:56:52Z</time>
      </trkpt>
      <trkpt lat="42.4839260" lon="-6.0471370">
        <ele>887.4</ele>
        <time>2021-10-11T17:56:54Z</time>
      </trkpt>
      <trkpt lat="42.4835420" lon="-6.0470370">
        <ele>887.2</ele>
        <time>2021-10-11T17:57:01Z</time>
      </trkpt>
      <trkpt lat="42.4832210" lon="-6.0469440">
        <ele>887.2</ele>
        <time>2021-10-11T17:57:05Z</time>
      </trkpt>
      <trkpt lat="42.4830290" lon="-6.0468910">
        <ele>887.0</ele>
        <time>2021-10-11T17:57:09Z</time>
      </trkpt>
      <trkpt lat="42.4828480" lon="-6.0468390">
        <ele>887.0</ele>
        <time>2021-10-11T17:57:11Z</time>
      </trkpt>
      <trkpt lat="42.4825690" lon="-6.0467730">
        <ele>886.8</ele>
        <time>2021-10-11T17:57:16Z</time>
      </trkpt>
      <trkpt lat="42.4824020" lon="-6.0467650">
        <ele>886.6</ele>
        <time>2021-10-11T17:57:19Z</time>
      </trkpt>
      <trkpt lat="42.4821670" lon="-6.0467840">
        <ele>886.6</ele>
        <time>2021-10-11T17:57:23Z</time>
      </trkpt>
      <trkpt lat="42.4816630" lon="-6.0468280">
        <ele>886.8</ele>
        <time>2021-10-11T17:57:32Z</time>
      </trkpt>
      <trkpt lat="42.4811010" lon="-6.0468780">
        <ele>886.6</ele>
        <time>2021-10-11T17:57:40Z</time>
      </trkpt>
      <trkpt lat="42.4811010" lon="-6.0468780">
        <ele>886.6</ele>
        <time>2021-10-11T17:57:41Z</time>
      </trkpt>
      <trkpt lat="42.4806450" lon="-6.0469190">
        <ele>886.2</ele>
        <time>2021-10-11T17:57:47Z</time>
      </trkpt>
      <trkpt lat="42.4805130" lon="-6.0469300">
        <ele>886.0</ele>
        <time>2021-10-11T17:57:50Z</time>
      </trkpt>
      <trkpt lat="42.4799730" lon="-6.0469810">
        <ele>885.6</ele>
        <time>2021-10-11T17:57:57Z</time>
      </trkpt>
      <trkpt lat="42.4793820" lon="-6.0470380">
        <ele>885.4</ele>
        <time>2021-10-11T17:58:06Z</time>
      </trkpt>
      <trkpt lat="42.4792510" lon="-6.0470510">
        <ele>885.2</ele>
        <time>2021-10-11T17:58:08Z</time>
      </trkpt>
      <trkpt lat="42.4787340" lon="-6.0470960">
        <ele>885.2</ele>
        <time>2021-10-11T17:58:16Z</time>
      </trkpt>
      <trkpt lat="42.4786700" lon="-6.0471010">
        <ele>885.2</ele>
        <time>2021-10-11T17:58:17Z</time>
      </trkpt>
      <trkpt lat="42.4786070" lon="-6.0471070">
        <ele>885.2</ele>
        <time>2021-10-11T17:58:18Z</time>
      </trkpt>
      <trkpt lat="42.4784150" lon="-6.0471250">
        <ele>885.0</ele>
        <time>2021-10-11T17:58:21Z</time>
      </trkpt>
      <trkpt lat="42.4780940" lon="-6.0471500">
        <ele>884.8</ele>
        <time>2021-10-11T17:58:26Z</time>
      </trkpt>
      <trkpt lat="42.4779670" lon="-6.0471630">
        <ele>884.6</ele>
        <time>2021-10-11T17:58:28Z</time>
      </trkpt>
      <trkpt lat="42.4776740" lon="-6.0471880">
        <ele>884.6</ele>
        <time>2021-10-11T17:58:33Z</time>
      </trkpt>
      <trkpt lat="42.4775120" lon="-6.0472030">
        <ele>884.4</ele>
        <time>2021-10-11T17:58:36Z</time>
      </trkpt>
      <trkpt lat="42.4773990" lon="-6.0472120">
        <ele>884.4</ele>
        <time>2021-10-11T17:58:38Z</time>
      </trkpt>
      <trkpt lat="42.4772270" lon="-6.0472130">
        <ele>884.2</ele>
        <time>2021-10-11T17:58:41Z</time>
      </trkpt>
      <trkpt lat="42.4771150" lon="-6.0472130">
        <ele>884.2</ele>
        <time>2021-10-11T17:58:43Z</time>
      </trkpt>
      <trkpt lat="42.4770600" lon="-6.0472200">
        <ele>884.0</ele>
        <time>2021-10-11T17:58:44Z</time>
      </trkpt>
      <trkpt lat="42.4769590" lon="-6.0472320">
        <ele>884.0</ele>
        <time>2021-10-11T17:58:46Z</time>
      </trkpt>
      <trkpt lat="42.4768660" lon="-6.0472480">
        <ele>883.8</ele>
        <time>2021-10-11T17:58:48Z</time>
      </trkpt>
      <trkpt lat="42.4767960" lon="-6.0473160">
        <ele>883.8</ele>
        <time>2021-10-11T17:58:51Z</time>
      </trkpt>
      <trkpt lat="42.4767870" lon="-6.0473810">
        <ele>883.6</ele>
        <time>2021-10-11T17:58:54Z</time>
      </trkpt>
      <trkpt lat="42.4767800" lon="-6.0473930">
        <ele>883.6</ele>
        <time>2021-10-11T17:58:55Z</time>
      </trkpt>
      <trkpt lat="42.4766970" lon="-6.0474490">
        <ele>883.6</ele>
        <time>2021-10-11T17:59:00Z</time>
      </trkpt>
      <trkpt lat="42.4766770" lon="-6.0474610">
        <ele>883.4</ele>
        <time>2021-10-11T17:59:01Z</time>
      </trkpt>
      <trkpt lat="42.4766350" lon="-6.0474990">
        <ele>883.4</ele>
        <time>2021-10-11T17:59:04Z</time>
      </trkpt>
      <trkpt lat="42.4765590" lon="-6.0475480">
        <ele>883.6</ele>
        <time>2021-10-11T17:59:06Z</time>
      </trkpt>
      <trkpt lat="42.4765020" lon="-6.0475780">
        <ele>883.8</ele>
        <time>2021-10-11T17:59:08Z</time>
      </trkpt>
      <trkpt lat="42.4764740" lon="-6.0475910">
        <ele>883.8</ele>
        <time>2021-10-11T17:59:09Z</time>
      </trkpt>
      <trkpt lat="42.4764280" lon="-6.0476220">
        <ele>883.8</ele>
        <time>2021-10-11T17:59:11Z</time>
      </trkpt>
      <trkpt lat="42.4763950" lon="-6.0476720">
        <ele>883.8</ele>
        <time>2021-10-11T17:59:13Z</time>
      </trkpt>
      <trkpt lat="42.4763880" lon="-6.0477110">
        <ele>883.8</ele>
        <time>2021-10-11T17:59:14Z</time>
      </trkpt>
      <trkpt lat="42.4763410" lon="-6.0479860">
        <ele>883.8</ele>
        <time>2021-10-11T17:59:20Z</time>
      </trkpt>
      <trkpt lat="42.4763080" lon="-6.0482650">
        <ele>883.6</ele>
        <time>2021-10-11T17:59:26Z</time>
      </trkpt>
      <trkpt lat="42.4763030" lon="-6.0482920">
        <ele>883.8</ele>
        <time>2021-10-11T17:59:27Z</time>
      </trkpt>
      <trkpt lat="42.4763010" lon="-6.0483240">
        <ele>883.6</ele>
        <time>2021-10-11T17:59:29Z</time>
      </trkpt>
      <trkpt lat="42.4762930" lon="-6.0483850">
        <ele>883.8</ele>
        <time>2021-10-11T17:59:32Z</time>
      </trkpt>
      <trkpt lat="42.4763440" lon="-6.0485110">
        <ele>884.0</ele>
        <time>2021-10-11T17:59:37Z</time>
      </trkpt>
      <trkpt lat="42.4764480" lon="-6.0487250">
        <ele>884.2</ele>
        <time>2021-10-11T17:59:42Z</time>
      </trkpt>
      <trkpt lat="42.4764730" lon="-6.0487760">
        <ele>884.2</ele>
        <time>2021-10-11T17:59:43Z</time>
      </trkpt>
      <trkpt lat="42.4765900" lon="-6.0489960">
        <ele>884.2</ele>
        <time>2021-10-11T17:59:48Z</time>
      </trkpt>
      <trkpt lat="42.4766020" lon="-6.0490380">
        <ele>884.2</ele>
        <time>2021-10-11T17:59:49Z</time>
      </trkpt>
      <trkpt lat="42.4765900" lon="-6.0491310">
        <ele>884.2</ele>
        <time>2021-10-11T17:59:51Z</time>
      </trkpt>
      <trkpt lat="42.4764620" lon="-6.0494130">
        <ele>884.2</ele>
        <time>2021-10-11T17:59:57Z</time>
      </trkpt>
      <trkpt lat="42.4762890" lon="-6.0497720">
        <ele>884.6</ele>
        <time>2021-10-11T18:00:04Z</time>
      </trkpt>
      <trkpt lat="42.4762620" lon="-6.0498270">
        <ele>884.6</ele>
        <time>2021-10-11T18:00:05Z</time>
      </trkpt>
      <trkpt lat="42.4761590" lon="-6.0500560">
        <ele>884.6</ele>
        <time>2021-10-11T18:00:09Z</time>
      </trkpt>
      <trkpt lat="42.4761020" lon="-6.0501910">
        <ele>884.6</ele>
        <time>2021-10-11T18:00:11Z</time>
      </trkpt>
      <trkpt lat="42.4760370" lon="-6.0503720">
        <ele>884.6</ele>
        <time>2021-10-11T18:00:15Z</time>
      </trkpt>
      <trkpt lat="42.4760110" lon="-6.0505030">
        <ele>884.6</ele>
        <time>2021-10-11T18:00:16Z</time>
      </trkpt>
      <trkpt lat="42.4760050" lon="-6.0505670">
        <ele>884.6</ele>
        <time>2021-10-11T18:00:17Z</time>
      </trkpt>
      <trkpt lat="42.4759970" lon="-6.0506810">
        <ele>884.6</ele>
        <time>2021-10-11T18:00:19Z</time>
      </trkpt>
      <trkpt lat="42.4760000" lon="-6.0508130">
        <ele>884.6</ele>
        <time>2021-10-11T18:00:21Z</time>
      </trkpt>
      <trkpt lat="42.4760210" lon="-6.0509720">
        <ele>884.6</ele>
        <time>2021-10-11T18:00:24Z</time>
      </trkpt>
      <trkpt lat="42.4760290" lon="-6.0510370">
        <ele>884.6</ele>
        <time>2021-10-11T18:00:25Z</time>
      </trkpt>
      <trkpt lat="42.4760300" lon="-6.0510900">
        <ele>884.6</ele>
        <time>2021-10-11T18:00:26Z</time>
      </trkpt>
      <trkpt lat="42.4760260" lon="-6.0511410">
        <ele>884.6</ele>
        <time>2021-10-11T18:00:27Z</time>
      </trkpt>
      <trkpt lat="42.4760240" lon="-6.0511850">
        <ele>884.6</ele>
        <time>2021-10-11T18:00:29Z</time>
      </trkpt>
      <trkpt lat="42.4759720" lon="-6.0513420">
        <ele>884.6</ele>
        <time>2021-10-11T18:00:31Z</time>
      </trkpt>
      <trkpt lat="42.4759260" lon="-6.0514790">
        <ele>884.6</ele>
        <time>2021-10-11T18:00:34Z</time>
      </trkpt>
      <trkpt lat="42.4758130" lon="-6.0517090">
        <ele>885.0</ele>
        <time>2021-10-11T18:00:40Z</time>
      </trkpt>
      <trkpt lat="42.4757600" lon="-6.0518000">
        <ele>885.4</ele>
        <time>2021-10-11T18:00:43Z</time>
      </trkpt>
      <trkpt lat="42.4757170" lon="-6.0518720">
        <ele>885.6</ele>
        <time>2021-10-11T18:00:45Z</time>
      </trkpt>
      <trkpt lat="42.4756970" lon="-6.0519130">
        <ele>885.8</ele>
        <time>2021-10-11T18:00:46Z</time>
      </trkpt>
      <trkpt lat="42.4756790" lon="-6.0520110">
        <ele>886.0</ele>
        <time>2021-10-11T18:00:49Z</time>
      </trkpt>
      <trkpt lat="42.4757200" lon="-6.0522610">
        <ele>886.2</ele>
        <time>2021-10-11T18:00:53Z</time>
      </trkpt>
      <trkpt lat="42.4758330" lon="-6.0524990">
        <ele>886.0</ele>
        <time>2021-10-11T18:00:58Z</time>
      </trkpt>
      <trkpt lat="42.4758610" lon="-6.0525520">
        <ele>886.0</ele>
        <time>2021-10-11T18:00:59Z</time>
      </trkpt>
      <trkpt lat="42.4759780" lon="-6.0527150">
        <ele>886.2</ele>
        <time>2021-10-11T18:01:04Z</time>
      </trkpt>
      <trkpt lat="42.4760000" lon="-6.0527410">
        <ele>886.2</ele>
        <time>2021-10-11T18:01:05Z</time>
      </trkpt>
      <trkpt lat="42.4760660" lon="-6.0528420">
        <ele>886.4</ele>
        <time>2021-10-11T18:01:08Z</time>
      </trkpt>
      <trkpt lat="42.4760880" lon="-6.0528800">
        <ele>886.4</ele>
        <time>2021-10-11T18:01:09Z</time>
      </trkpt>
      <trkpt lat="42.4761480" lon="-6.0530100">
        <ele>886.6</ele>
        <time>2021-10-11T18:01:12Z</time>
      </trkpt>
      <trkpt lat="42.4762780" lon="-6.0534210">
        <ele>886.8</ele>
        <time>2021-10-11T18:01:20Z</time>
      </trkpt>
      <trkpt lat="42.4763140" lon="-6.0535820">
        <ele>886.8</ele>
        <time>2021-10-11T18:01:23Z</time>
      </trkpt>
      <trkpt lat="42.4763700" lon="-6.0538470">
        <ele>887.4</ele>
        <time>2021-10-11T18:01:28Z</time>
      </trkpt>
      <trkpt lat="42.4764620" lon="-6.0542250">
        <ele>888.4</ele>
        <time>2021-10-11T18:01:36Z</time>
      </trkpt>
      <trkpt lat="42.4764830" lon="-6.0543100">
        <ele>888.6</ele>
        <time>2021-10-11T18:01:38Z</time>
      </trkpt>
      <trkpt lat="42.4765150" lon="-6.0544660">
        <ele>889.0</ele>
        <time>2021-10-11T18:01:42Z</time>
      </trkpt>
      <trkpt lat="42.4765500" lon="-6.0546100">
        <ele>889.6</ele>
        <time>2021-10-11T18:01:46Z</time>
      </trkpt>
      <trkpt lat="42.4765910" lon="-6.0547530">
        <ele>890.4</ele>
        <time>2021-10-11T18:01:50Z</time>
      </trkpt>
      <trkpt lat="42.4766090" lon="-6.0548210">
        <ele>891.0</ele>
        <time>2021-10-11T18:01:52Z</time>
      </trkpt>
      <trkpt lat="42.4766660" lon="-6.0550050">
        <ele>891.6</ele>
        <time>2021-10-11T18:01:58Z</time>
      </trkpt>
      <trkpt lat="42.4766850" lon="-6.0550680">
        <ele>891.8</ele>
        <time>2021-10-11T18:02:00Z</time>
      </trkpt>
      <trkpt lat="42.4767070" lon="-6.0551810">
        <ele>892.2</ele>
        <time>2021-10-11T18:02:04Z</time>
      </trkpt>
      <trkpt lat="42.4767220" lon="-6.0553170">
        <ele>893.0</ele>
        <time>2021-10-11T18:02:09Z</time>
      </trkpt>
      <trkpt lat="42.4767190" lon="-6.0554040">
        <ele>893.6</ele>
        <time>2021-10-11T18:02:12Z</time>
      </trkpt>
      <trkpt lat="42.4767160" lon="-6.0555010">
        <ele>894.2</ele>
        <time>2021-10-11T18:02:16Z</time>
      </trkpt>
      <trkpt lat="42.4767120" lon="-6.0555750">
        <ele>895.0</ele>
        <time>2021-10-11T18:02:20Z</time>
      </trkpt>
      <trkpt lat="42.4767100" lon="-6.0556410">
        <ele>895.4</ele>
        <time>2021-10-11T18:02:22Z</time>
      </trkpt>
      <trkpt lat="42.4766770" lon="-6.0557250">
        <ele>895.8</ele>
        <time>2021-10-11T18:02:26Z</time>
      </trkpt>
      <trkpt lat="42.4766540" lon="-6.0557890">
        <ele>896.4</ele>
        <time>2021-10-11T18:02:29Z</time>
      </trkpt>
      <trkpt lat="42.4766470" lon="-6.0558280">
        <ele>896.6</ele>
        <time>2021-10-11T18:02:31Z</time>
      </trkpt>
      <trkpt lat="42.4766340" lon="-6.0558590">
        <ele>896.8</ele>
        <time>2021-10-11T18:02:33Z</time>
      </trkpt>
      <trkpt lat="42.4766280" lon="-6.0558940">
        <ele>897.2</ele>
        <time>2021-10-11T18:02:35Z</time>
      </trkpt>
      <trkpt lat="42.4766230" lon="-6.0559110">
        <ele>897.4</ele>
        <time>2021-10-11T18:02:36Z</time>
      </trkpt>
      <trkpt lat="42.4766030" lon="-6.0559600">
        <ele>897.8</ele>
        <time>2021-10-11T18:02:39Z</time>
      </trkpt>
      <trkpt lat="42.4765530" lon="-6.0560840">
        <ele>898.6</ele>
        <time>2021-10-11T18:02:46Z</time>
      </trkpt>
      <trkpt lat="42.4765220" lon="-6.0561480">
        <ele>899.0</ele>
        <time>2021-10-11T18:02:50Z</time>
      </trkpt>
      <trkpt lat="42.4764770" lon="-6.0562320">
        <ele>899.8</ele>
        <time>2021-10-11T18:02:55Z</time>
      </trkpt>
      <trkpt lat="42.4764130" lon="-6.0563270">
        <ele>900.4</ele>
        <time>2021-10-11T18:03:01Z</time>
      </trkpt>
      <trkpt lat="42.4763920" lon="-6.0563860">
        <ele>901.0</ele>
        <time>2021-10-11T18:03:04Z</time>
      </trkpt>
      <trkpt lat="42.4763400" lon="-6.0564600">
        <ele>901.8</ele>
        <time>2021-10-11T18:03:09Z</time>
      </trkpt>
      <trkpt lat="42.4762860" lon="-6.0565150">
        <ele>902.2</ele>
        <time>2021-10-11T18:03:13Z</time>
      </trkpt>
      <trkpt lat="42.4762350" lon="-6.0565710">
        <ele>902.6</ele>
        <time>2021-10-11T18:03:17Z</time>
      </trkpt>
      <trkpt lat="42.4761570" lon="-6.0566220">
        <ele>902.8</ele>
        <time>2021-10-11T18:03:22Z</time>
      </trkpt>
      <trkpt lat="42.4761280" lon="-6.0566410">
        <ele>903.2</ele>
        <time>2021-10-11T18:03:24Z</time>
      </trkpt>
      <trkpt lat="42.4760970" lon="-6.0566570">
        <ele>903.4</ele>
        <time>2021-10-11T18:03:26Z</time>
      </trkpt>
      <trkpt lat="42.4759620" lon="-6.0566990">
        <ele>904.2</ele>
        <time>2021-10-11T18:03:35Z</time>
      </trkpt>
      <trkpt lat="42.4759310" lon="-6.0567040">
        <ele>904.4</ele>
        <time>2021-10-11T18:03:37Z</time>
      </trkpt>
      <trkpt lat="42.4758990" lon="-6.0567030">
        <ele>904.6</ele>
        <time>2021-10-11T18:03:39Z</time>
      </trkpt>
      <trkpt lat="42.4758680" lon="-6.0567090">
        <ele>904.8</ele>
        <time>2021-10-11T18:03:41Z</time>
      </trkpt>
      <trkpt lat="42.4758530" lon="-6.0567100">
        <ele>905.0</ele>
        <time>2021-10-11T18:03:42Z</time>
      </trkpt>
      <trkpt lat="42.4758090" lon="-6.0567050">
        <ele>905.2</ele>
        <time>2021-10-11T18:03:45Z</time>
      </trkpt>
      <trkpt lat="42.4757320" lon="-6.0566940">
        <ele>906.0</ele>
        <time>2021-10-11T18:03:50Z</time>
      </trkpt>
      <trkpt lat="42.4757020" lon="-6.0566960">
        <ele>906.2</ele>
        <time>2021-10-11T18:03:52Z</time>
      </trkpt>
      <trkpt lat="42.4756860" lon="-6.0566960">
        <ele>906.4</ele>
        <time>2021-10-11T18:03:53Z</time>
      </trkpt>
      <trkpt lat="42.4756250" lon="-6.0566940">
        <ele>906.8</ele>
        <time>2021-10-11T18:03:57Z</time>
      </trkpt>
      <trkpt lat="42.4756090" lon="-6.0566960">
        <ele>906.8</ele>
        <time>2021-10-11T18:03:58Z</time>
      </trkpt>
      <trkpt lat="42.4755610" lon="-6.0566930">
        <ele>907.4</ele>
        <time>2021-10-11T18:04:01Z</time>
      </trkpt>
      <trkpt lat="42.4755300" lon="-6.0566850">
        <ele>907.6</ele>
        <time>2021-10-11T18:04:03Z</time>
      </trkpt>
      <trkpt lat="42.4754990" lon="-6.0566780">
        <ele>908.0</ele>
        <time>2021-10-11T18:04:05Z</time>
      </trkpt>
      <trkpt lat="42.4754360" lon="-6.0566640">
        <ele>908.4</ele>
        <time>2021-10-11T18:04:09Z</time>
      </trkpt>
      <trkpt lat="42.4754200" lon="-6.0566600">
        <ele>908.8</ele>
        <time>2021-10-11T18:04:10Z</time>
      </trkpt>
      <trkpt lat="42.4753880" lon="-6.0566560">
        <ele>909.0</ele>
        <time>2021-10-11T18:04:12Z</time>
      </trkpt>
      <trkpt lat="42.4752560" lon="-6.0566340">
        <ele>909.8</ele>
        <time>2021-10-11T18:04:20Z</time>
      </trkpt>
      <trkpt lat="42.4752400" lon="-6.0566280">
        <ele>910.0</ele>
        <time>2021-10-11T18:04:22Z</time>
      </trkpt>
      <trkpt lat="42.4751960" lon="-6.0566250">
        <ele>910.2</ele>
        <time>2021-10-11T18:04:24Z</time>
      </trkpt>
      <trkpt lat="42.4751600" lon="-6.0566220">
        <ele>910.4</ele>
        <time>2021-10-11T18:04:26Z</time>
      </trkpt>
      <trkpt lat="42.4751260" lon="-6.0566130">
        <ele>910.8</ele>
        <time>2021-10-11T18:04:28Z</time>
      </trkpt>
      <trkpt lat="42.4750930" lon="-6.0566070">
        <ele>911.0</ele>
        <time>2021-10-11T18:04:30Z</time>
      </trkpt>
      <trkpt lat="42.4750580" lon="-6.0566010">
        <ele>911.2</ele>
        <time>2021-10-11T18:04:32Z</time>
      </trkpt>
      <trkpt lat="42.4750070" lon="-6.0565950">
        <ele>911.4</ele>
        <time>2021-10-11T18:04:35Z</time>
      </trkpt>
      <trkpt lat="42.4749550" lon="-6.0565960">
        <ele>911.6</ele>
        <time>2021-10-11T18:04:38Z</time>
      </trkpt>
      <trkpt lat="42.4749390" lon="-6.0565910">
        <ele>911.8</ele>
        <time>2021-10-11T18:04:39Z</time>
      </trkpt>
      <trkpt lat="42.4748360" lon="-6.0565630">
        <ele>912.6</ele>
        <time>2021-10-11T18:04:45Z</time>
      </trkpt>
      <trkpt lat="42.4748040" lon="-6.0565520">
        <ele>912.8</ele>
        <time>2021-10-11T18:04:47Z</time>
      </trkpt>
      <trkpt lat="42.4747860" lon="-6.0565470">
        <ele>913.0</ele>
        <time>2021-10-11T18:04:48Z</time>
      </trkpt>
      <trkpt lat="42.4746830" lon="-6.0565500">
        <ele>913.4</ele>
        <time>2021-10-11T18:04:54Z</time>
      </trkpt>
      <trkpt lat="42.4746000" lon="-6.0565670">
        <ele>914.0</ele>
        <time>2021-10-11T18:04:59Z</time>
      </trkpt>
      <trkpt lat="42.4745320" lon="-6.0566020">
        <ele>914.4</ele>
        <time>2021-10-11T18:05:03Z</time>
      </trkpt>
      <trkpt lat="42.4744870" lon="-6.0566060">
        <ele>914.8</ele>
        <time>2021-10-11T18:05:06Z</time>
      </trkpt>
      <trkpt lat="42.4744780" lon="-6.0565960">
        <ele>915.0</ele>
        <time>2021-10-11T18:05:07Z</time>
      </trkpt>
      <trkpt lat="42.4744720" lon="-6.0565860">
        <ele>915.2</ele>
        <time>2021-10-11T18:05:08Z</time>
      </trkpt>
      <trkpt lat="42.4744660" lon="-6.0565750">
        <ele>915.2</ele>
        <time>2021-10-11T18:05:12Z</time>
      </trkpt>
      <trkpt lat="42.4744220" lon="-6.0565630">
        <ele>915.2</ele>
        <time>2021-10-11T18:09:34Z</time>
      </trkpt>
      <trkpt lat="42.4743960" lon="-6.0565520">
        <ele>915.2</ele>
        <time>2021-10-11T18:09:35Z</time>
      </trkpt>
      <trkpt lat="42.4743080" lon="-6.0565240">
        <ele>915.0</ele>
        <time>2021-10-11T18:09:38Z</time>
      </trkpt>
      <trkpt lat="42.4741870" lon="-6.0564810">
        <ele>914.6</ele>
        <time>2021-10-11T18:09:42Z</time>
      </trkpt>
      <trkpt lat="42.4739580" lon="-6.0563790">
        <ele>914.4</ele>
        <time>2021-10-11T18:09:49Z</time>
      </trkpt>
      <trkpt lat="42.4738150" lon="-6.0563210">
        <ele>914.4</ele>
        <time>2021-10-11T18:09:53Z</time>
      </trkpt>
      <trkpt lat="42.4737410" lon="-6.0562970">
        <ele>914.2</ele>
        <time>2021-10-11T18:09:55Z</time>
      </trkpt>
      <trkpt lat="42.4737050" lon="-6.0562770">
        <ele>914.2</ele>
        <time>2021-10-11T18:09:56Z</time>
      </trkpt>
      <trkpt lat="42.4735000" lon="-6.0561790">
        <ele>913.8</ele>
        <time>2021-10-11T18:10:01Z</time>
      </trkpt>
      <trkpt lat="42.4734080" lon="-6.0561350">
        <ele>913.6</ele>
        <time>2021-10-11T18:10:03Z</time>
      </trkpt>
      <trkpt lat="42.4732510" lon="-6.0560570">
        <ele>913.2</ele>
        <time>2021-10-11T18:10:07Z</time>
      </trkpt>
      <trkpt lat="42.4732240" lon="-6.0560380">
        <ele>913.2</ele>
        <time>2021-10-11T18:10:08Z</time>
      </trkpt>
      <trkpt lat="42.4731190" lon="-6.0559440">
        <ele>912.6</ele>
        <time>2021-10-11T18:10:12Z</time>
      </trkpt>
      <trkpt lat="42.4730600" lon="-6.0558910">
        <ele>912.2</ele>
        <time>2021-10-11T18:10:15Z</time>
      </trkpt>
      <trkpt lat="42.4730450" lon="-6.0558800">
        <ele>912.2</ele>
        <time>2021-10-11T18:10:16Z</time>
      </trkpt>
      <trkpt lat="42.4729990" lon="-6.0558560">
        <ele>911.8</ele>
        <time>2021-10-11T18:10:21Z</time>
      </trkpt>
      <trkpt lat="42.4729990" lon="-6.0558560">
        <ele>911.8</ele>
        <time>2021-10-11T18:10:22Z</time>
      </trkpt>
      <trkpt lat="42.4729760" lon="-6.0558430">
        <ele>911.2</ele>
        <time>2021-10-11T18:11:21Z</time>
      </trkpt>
      <trkpt lat="42.4729490" lon="-6.0558290">
        <ele>911.2</ele>
        <time>2021-10-11T18:11:22Z</time>
      </trkpt>
      <trkpt lat="42.4729180" lon="-6.0558090">
        <ele>911.2</ele>
        <time>2021-10-11T18:11:23Z</time>
      </trkpt>
      <trkpt lat="42.4728490" lon="-6.0557490">
        <ele>911.0</ele>
        <time>2021-10-11T18:11:25Z</time>
      </trkpt>
      <trkpt lat="42.4727410" lon="-6.0556240">
        <ele>911.0</ele>
        <time>2021-10-11T18:11:28Z</time>
      </trkpt>
      <trkpt lat="42.4725330" lon="-6.0553370">
        <ele>910.0</ele>
        <time>2021-10-11T18:11:34Z</time>
      </trkpt>
      <trkpt lat="42.4725010" lon="-6.0552850">
        <ele>909.8</ele>
        <time>2021-10-11T18:11:35Z</time>
      </trkpt>
      <trkpt lat="42.4724340" lon="-6.0551850">
        <ele>909.6</ele>
        <time>2021-10-11T18:11:37Z</time>
      </trkpt>
      <trkpt lat="42.4723200" lon="-6.0550430">
        <ele>908.8</ele>
        <time>2021-10-11T18:11:40Z</time>
      </trkpt>
      <trkpt lat="42.4722780" lon="-6.0550010">
        <ele>908.8</ele>
        <time>2021-10-11T18:11:41Z</time>
      </trkpt>
      <trkpt lat="42.4720430" lon="-6.0548380">
        <ele>908.0</ele>
        <time>2021-10-11T18:11:46Z</time>
      </trkpt>
      <trkpt lat="42.4719420" lon="-6.0547780">
        <ele>907.6</ele>
        <time>2021-10-11T18:11:48Z</time>
      </trkpt>
      <trkpt lat="42.4715900" lon="-6.0545710">
        <ele>906.6</ele>
        <time>2021-10-11T18:11:55Z</time>
      </trkpt>
      <trkpt lat="42.4714310" lon="-6.0544990">
        <ele>906.0</ele>
        <time>2021-10-11T18:11:58Z</time>
      </trkpt>
      <trkpt lat="42.4713350" lon="-6.0544610">
        <ele>905.6</ele>
        <time>2021-10-11T18:12:00Z</time>
      </trkpt>
      <trkpt lat="42.4710150" lon="-6.0543160">
        <ele>904.4</ele>
        <time>2021-10-11T18:12:06Z</time>
      </trkpt>
      <trkpt lat="42.4709200" lon="-6.0542740">
        <ele>904.2</ele>
        <time>2021-10-11T18:12:08Z</time>
      </trkpt>
      <trkpt lat="42.4706740" lon="-6.0541630">
        <ele>903.4</ele>
        <time>2021-10-11T18:12:13Z</time>
      </trkpt>
      <trkpt lat="42.4705120" lon="-6.0540970">
        <ele>903.2</ele>
        <time>2021-10-11T18:12:16Z</time>
      </trkpt>
      <trkpt lat="42.4700430" lon="-6.0539500">
        <ele>902.2</ele>
        <time>2021-10-11T18:12:24Z</time>
      </trkpt>
      <trkpt lat="42.4699820" lon="-6.0539340">
        <ele>902.2</ele>
        <time>2021-10-11T18:12:25Z</time>
      </trkpt>
      <trkpt lat="42.4697350" lon="-6.0538650">
        <ele>901.8</ele>
        <time>2021-10-11T18:12:29Z</time>
      </trkpt>
      <trkpt lat="42.4694310" lon="-6.0537870">
        <ele>901.4</ele>
        <time>2021-10-11T18:12:34Z</time>
      </trkpt>
      <trkpt lat="42.4693730" lon="-6.0537740">
        <ele>901.4</ele>
        <time>2021-10-11T18:12:35Z</time>
      </trkpt>
      <trkpt lat="42.4692610" lon="-6.0537520">
        <ele>901.0</ele>
        <time>2021-10-11T18:12:37Z</time>
      </trkpt>
      <trkpt lat="42.4691050" lon="-6.0537310">
        <ele>901.0</ele>
        <time>2021-10-11T18:12:40Z</time>
      </trkpt>
      <trkpt lat="42.4686850" lon="-6.0536560">
        <ele>900.6</ele>
        <time>2021-10-11T18:12:48Z</time>
      </trkpt>
      <trkpt lat="42.4684060" lon="-6.0536180">
        <ele>900.6</ele>
        <time>2021-10-11T18:12:53Z</time>
      </trkpt>
      <trkpt lat="42.4683500" lon="-6.0536110">
        <ele>900.4</ele>
        <time>2021-10-11T18:12:54Z</time>
      </trkpt>
      <trkpt lat="42.4681900" lon="-6.0535880">
        <ele>900.4</ele>
        <time>2021-10-11T18:12:57Z</time>
      </trkpt>
      <trkpt lat="42.4681390" lon="-6.0535810">
        <ele>900.4</ele>
        <time>2021-10-11T18:12:58Z</time>
      </trkpt>
      <trkpt lat="42.4679450" lon="-6.0535600">
        <ele>900.2</ele>
        <time>2021-10-11T18:13:02Z</time>
      </trkpt>
      <trkpt lat="42.4678170" lon="-6.0535330">
        <ele>900.2</ele>
        <time>2021-10-11T18:13:05Z</time>
      </trkpt>
      <trkpt lat="42.4677770" lon="-6.0535170">
        <ele>900.0</ele>
        <time>2021-10-11T18:13:06Z</time>
      </trkpt>
      <trkpt lat="42.4675510" lon="-6.0534320">
        <ele>899.4</ele>
        <time>2021-10-11T18:13:12Z</time>
      </trkpt>
      <trkpt lat="42.4674230" lon="-6.0534670">
        <ele>898.6</ele>
        <time>2021-10-11T18:13:15Z</time>
      </trkpt>
      <trkpt lat="42.4672420" lon="-6.0535090">
        <ele>897.6</ele>
        <time>2021-10-11T18:13:19Z</time>
      </trkpt>
      <trkpt lat="42.4671940" lon="-6.0535220">
        <ele>897.2</ele>
        <time>2021-10-11T18:13:20Z</time>
      </trkpt>
      <trkpt lat="42.4671470" lon="-6.0535400">
        <ele>896.8</ele>
        <time>2021-10-11T18:13:21Z</time>
      </trkpt>
      <trkpt lat="42.4670280" lon="-6.0535950">
        <ele>895.0</ele>
        <time>2021-10-11T18:13:24Z</time>
      </trkpt>
      <trkpt lat="42.4669970" lon="-6.0536130">
        <ele>894.8</ele>
        <time>2021-10-11T18:13:25Z</time>
      </trkpt>
      <trkpt lat="42.4669660" lon="-6.0536320">
        <ele>894.0</ele>
        <time>2021-10-11T18:13:26Z</time>
      </trkpt>
      <trkpt lat="42.4669010" lon="-6.0536710">
        <ele>892.8</ele>
        <time>2021-10-11T18:13:28Z</time>
      </trkpt>
      <trkpt lat="42.4667780" lon="-6.0537020">
        <ele>891.6</ele>
        <time>2021-10-11T18:13:31Z</time>
      </trkpt>
      <trkpt lat="42.4666970" lon="-6.0537200">
        <ele>890.4</ele>
        <time>2021-10-11T18:13:33Z</time>
      </trkpt>
      <trkpt lat="42.4666220" lon="-6.0537370">
        <ele>889.2</ele>
        <time>2021-10-11T18:13:35Z</time>
      </trkpt>
      <trkpt lat="42.4665390" lon="-6.0537620">
        <ele>888.0</ele>
        <time>2021-10-11T18:13:37Z</time>
      </trkpt>
      <trkpt lat="42.4664930" lon="-6.0537760">
        <ele>887.6</ele>
        <time>2021-10-11T18:13:38Z</time>
      </trkpt>
      <trkpt lat="42.4664480" lon="-6.0537900">
        <ele>887.0</ele>
        <time>2021-10-11T18:13:39Z</time>
      </trkpt>
      <trkpt lat="42.4664010" lon="-6.0538010">
        <ele>887.0</ele>
        <time>2021-10-11T18:13:40Z</time>
      </trkpt>
      <trkpt lat="42.4662080" lon="-6.0538440">
        <ele>885.6</ele>
        <time>2021-10-11T18:13:44Z</time>
      </trkpt>
      <trkpt lat="42.4661140" lon="-6.0538630">
        <ele>884.6</ele>
        <time>2021-10-11T18:13:46Z</time>
      </trkpt>
      <trkpt lat="42.4660700" lon="-6.0538660">
        <ele>884.2</ele>
        <time>2021-10-11T18:13:47Z</time>
      </trkpt>
      <trkpt lat="42.4660350" lon="-6.0538630">
        <ele>883.4</ele>
        <time>2021-10-11T18:13:48Z</time>
      </trkpt>
      <trkpt lat="42.4660110" lon="-6.0538570">
        <ele>883.2</ele>
        <time>2021-10-11T18:13:49Z</time>
      </trkpt>
      <trkpt lat="42.4659800" lon="-6.0538540">
        <ele>882.6</ele>
        <time>2021-10-11T18:13:53Z</time>
      </trkpt>
      <trkpt lat="42.4659090" lon="-6.0538840">
        <ele>882.2</ele>
        <time>2021-10-11T18:14:04Z</time>
      </trkpt>
      <trkpt lat="42.4658850" lon="-6.0538990">
        <ele>882.2</ele>
        <time>2021-10-11T18:14:05Z</time>
      </trkpt>
      <trkpt lat="42.4658580" lon="-6.0539150">
        <ele>882.2</ele>
        <time>2021-10-11T18:14:06Z</time>
      </trkpt>
      <trkpt lat="42.4657100" lon="-6.0539540">
        <ele>882.0</ele>
        <time>2021-10-11T18:14:11Z</time>
      </trkpt>
      <trkpt lat="42.4654930" lon="-6.0540130">
        <ele>882.6</ele>
        <time>2021-10-11T18:14:18Z</time>
      </trkpt>
      <trkpt lat="42.4653220" lon="-6.0540910">
        <ele>883.4</ele>
        <time>2021-10-11T18:14:25Z</time>
      </trkpt>
      <trkpt lat="42.4652160" lon="-6.0541370">
        <ele>884.6</ele>
        <time>2021-10-11T18:14:31Z</time>
      </trkpt>
      <trkpt lat="42.4651350" lon="-6.0541770">
        <ele>885.6</ele>
        <time>2021-10-11T18:14:36Z</time>
      </trkpt>
      <trkpt lat="42.4650870" lon="-6.0541980">
        <ele>886.2</ele>
        <time>2021-10-11T18:14:39Z</time>
      </trkpt>
      <trkpt lat="42.4650730" lon="-6.0542050">
        <ele>886.4</ele>
        <time>2021-10-11T18:14:40Z</time>
      </trkpt>
      <trkpt lat="42.4650570" lon="-6.0542120">
        <ele>886.8</ele>
        <time>2021-10-11T18:14:41Z</time>
      </trkpt>
      <trkpt lat="42.4650230" lon="-6.0542180">
        <ele>887.2</ele>
        <time>2021-10-11T18:14:43Z</time>
      </trkpt>
      <trkpt lat="42.4649590" lon="-6.0542330">
        <ele>888.0</ele>
        <time>2021-10-11T18:14:47Z</time>
      </trkpt>
      <trkpt lat="42.4648950" lon="-6.0542510">
        <ele>888.8</ele>
        <time>2021-10-11T18:14:51Z</time>
      </trkpt>
      <trkpt lat="42.4648800" lon="-6.0542550">
        <ele>889.2</ele>
        <time>2021-10-11T18:14:52Z</time>
      </trkpt>
      <trkpt lat="42.4648270" lon="-6.0542670">
        <ele>890.0</ele>
        <time>2021-10-11T18:14:56Z</time>
      </trkpt>
      <trkpt lat="42.4647830" lon="-6.0542780">
        <ele>890.6</ele>
        <time>2021-10-11T18:14:59Z</time>
      </trkpt>
      <trkpt lat="42.4647570" lon="-6.0542950">
        <ele>891.0</ele>
        <time>2021-10-11T18:15:01Z</time>
      </trkpt>
      <trkpt lat="42.4647040" lon="-6.0543410">
        <ele>892.0</ele>
        <time>2021-10-11T18:15:06Z</time>
      </trkpt>
      <trkpt lat="42.4646960" lon="-6.0543520">
        <ele>892.2</ele>
        <time>2021-10-11T18:15:07Z</time>
      </trkpt>
      <trkpt lat="42.4646470" lon="-6.0544410">
        <ele>893.0</ele>
        <time>2021-10-11T18:15:13Z</time>
      </trkpt>
      <trkpt lat="42.4646290" lon="-6.0544630">
        <ele>893.2</ele>
        <time>2021-10-11T18:15:15Z</time>
      </trkpt>
      <trkpt lat="42.4645980" lon="-6.0544910">
        <ele>894.2</ele>
        <time>2021-10-11T18:15:18Z</time>
      </trkpt>
      <trkpt lat="42.4645890" lon="-6.0545040">
        <ele>894.4</ele>
        <time>2021-10-11T18:15:19Z</time>
      </trkpt>
      <trkpt lat="42.4645630" lon="-6.0545390">
        <ele>895.0</ele>
        <time>2021-10-11T18:15:22Z</time>
      </trkpt>
      <trkpt lat="42.4645520" lon="-6.0545460">
        <ele>895.2</ele>
        <time>2021-10-11T18:15:23Z</time>
      </trkpt>
      <trkpt lat="42.4644860" lon="-6.0545640">
        <ele>896.4</ele>
        <time>2021-10-11T18:15:28Z</time>
      </trkpt>
      <trkpt lat="42.4644740" lon="-6.0545670">
        <ele>896.6</ele>
        <time>2021-10-11T18:15:29Z</time>
      </trkpt>
      <trkpt lat="42.4644200" lon="-6.0545480">
        <ele>897.4</ele>
        <time>2021-10-11T18:15:34Z</time>
      </trkpt>
      <trkpt lat="42.4643950" lon="-6.0545310">
        <ele>897.6</ele>
        <time>2021-10-11T18:15:36Z</time>
      </trkpt>
      <trkpt lat="42.4643810" lon="-6.0545240">
        <ele>897.6</ele>
        <time>2021-10-11T18:15:37Z</time>
      </trkpt>
      <trkpt lat="42.4643430" lon="-6.0545080">
        <ele>897.8</ele>
        <time>2021-10-11T18:15:40Z</time>
      </trkpt>
      <trkpt lat="42.4642780" lon="-6.0544910">
        <ele>898.2</ele>
        <time>2021-10-11T18:15:45Z</time>
      </trkpt>
      <trkpt lat="42.4642640" lon="-6.0544910">
        <ele>898.2</ele>
        <time>2021-10-11T18:15:46Z</time>
      </trkpt>
      <trkpt lat="42.4641590" lon="-6.0544620">
        <ele>898.4</ele>
        <time>2021-10-11T18:15:53Z</time>
      </trkpt>
      <trkpt lat="42.4641430" lon="-6.0544520">
        <ele>898.4</ele>
        <time>2021-10-11T18:15:54Z</time>
      </trkpt>
      <trkpt lat="42.4640230" lon="-6.0543850">
        <ele>898.6</ele>
        <time>2021-10-11T18:16:01Z</time>
      </trkpt>
      <trkpt lat="42.4640080" lon="-6.0543760">
        <ele>898.6</ele>
        <time>2021-10-11T18:16:02Z</time>
      </trkpt>
      <trkpt lat="42.4639400" lon="-6.0543370">
        <ele>898.6</ele>
        <time>2021-10-11T18:16:06Z</time>
      </trkpt>
      <trkpt lat="42.4638680" lon="-6.0543150">
        <ele>898.6</ele>
        <time>2021-10-11T18:16:10Z</time>
      </trkpt>
      <trkpt lat="42.4638230" lon="-6.0542960">
        <ele>898.6</ele>
        <time>2021-10-11T18:16:12Z</time>
      </trkpt>
      <trkpt lat="42.4638000" lon="-6.0542850">
        <ele>898.6</ele>
        <time>2021-10-11T18:16:13Z</time>
      </trkpt>
      <trkpt lat="42.4637080" lon="-6.0542370">
        <ele>898.4</ele>
        <time>2021-10-11T18:16:17Z</time>
      </trkpt>
      <trkpt lat="42.4636490" lon="-6.0542110">
        <ele>898.4</ele>
        <time>2021-10-11T18:16:20Z</time>
      </trkpt>
      <trkpt lat="42.4635800" lon="-6.0541800">
        <ele>898.0</ele>
        <time>2021-10-11T18:16:23Z</time>
      </trkpt>
      <trkpt lat="42.4635180" lon="-6.0541480">
        <ele>898.0</ele>
        <time>2021-10-11T18:16:25Z</time>
      </trkpt>
      <trkpt lat="42.4634900" lon="-6.0541350">
        <ele>898.0</ele>
        <time>2021-10-11T18:16:26Z</time>
      </trkpt>
      <trkpt lat="42.4634430" lon="-6.0541170">
        <ele>898.0</ele>
        <time>2021-10-11T18:16:28Z</time>
      </trkpt>
      <trkpt lat="42.4633880" lon="-6.0540910">
        <ele>898.0</ele>
        <time>2021-10-11T18:16:30Z</time>
      </trkpt>
      <trkpt lat="42.4633240" lon="-6.0540540">
        <ele>898.0</ele>
        <time>2021-10-11T18:16:33Z</time>
      </trkpt>
      <trkpt lat="42.4632400" lon="-6.0540290">
        <ele>898.0</ele>
        <time>2021-10-11T18:16:36Z</time>
      </trkpt>
      <trkpt lat="42.4631860" lon="-6.0540110">
        <ele>898.0</ele>
        <time>2021-10-11T18:16:38Z</time>
      </trkpt>
      <trkpt lat="42.4631280" lon="-6.0539950">
        <ele>898.0</ele>
        <time>2021-10-11T18:16:40Z</time>
      </trkpt>
      <trkpt lat="42.4629850" lon="-6.0539730">
        <ele>898.0</ele>
        <time>2021-10-11T18:16:45Z</time>
      </trkpt>
      <trkpt lat="42.4628530" lon="-6.0539510">
        <ele>898.0</ele>
        <time>2021-10-11T18:16:50Z</time>
      </trkpt>
      <trkpt lat="42.4628280" lon="-6.0539450">
        <ele>898.0</ele>
        <time>2021-10-11T18:16:51Z</time>
      </trkpt>
      <trkpt lat="42.4627800" lon="-6.0539300">
        <ele>897.8</ele>
        <time>2021-10-11T18:16:53Z</time>
      </trkpt>
      <trkpt lat="42.4627540" lon="-6.0539240">
        <ele>897.8</ele>
        <time>2021-10-11T18:16:54Z</time>
      </trkpt>
      <trkpt lat="42.4627290" lon="-6.0539180">
        <ele>897.8</ele>
        <time>2021-10-11T18:16:55Z</time>
      </trkpt>
      <trkpt lat="42.4625830" lon="-6.0538910">
        <ele>897.6</ele>
        <time>2021-10-11T18:17:00Z</time>
      </trkpt>
      <trkpt lat="42.4625120" lon="-6.0538640">
        <ele>897.6</ele>
        <time>2021-10-11T18:17:02Z</time>
      </trkpt>
      <trkpt lat="42.4623400" lon="-6.0537510">
        <ele>897.4</ele>
        <time>2021-10-11T18:17:07Z</time>
      </trkpt>
      <trkpt lat="42.4623060" lon="-6.0537240">
        <ele>897.4</ele>
        <time>2021-10-11T18:17:08Z</time>
      </trkpt>
      <trkpt lat="42.4621510" lon="-6.0536150">
        <ele>897.4</ele>
        <time>2021-10-11T18:17:12Z</time>
      </trkpt>
      <trkpt lat="42.4620010" lon="-6.0535090">
        <ele>897.4</ele>
        <time>2021-10-11T18:17:16Z</time>
      </trkpt>
      <trkpt lat="42.4619640" lon="-6.0534810">
        <ele>897.4</ele>
        <time>2021-10-11T18:17:17Z</time>
      </trkpt>
      <trkpt lat="42.4618920" lon="-6.0534240">
        <ele>897.4</ele>
        <time>2021-10-11T18:17:19Z</time>
      </trkpt>
      <trkpt lat="42.4616940" lon="-6.0532780">
        <ele>897.2</ele>
        <time>2021-10-11T18:17:25Z</time>
      </trkpt>
      <trkpt lat="42.4614710" lon="-6.0531480">
        <ele>897.0</ele>
        <time>2021-10-11T18:17:32Z</time>
      </trkpt>
      <trkpt lat="42.4611730" lon="-6.0530520">
        <ele>896.8</ele>
        <time>2021-10-11T18:17:40Z</time>
      </trkpt>
      <trkpt lat="42.4608700" lon="-6.0530010">
        <ele>896.6</ele>
        <time>2021-10-11T18:17:48Z</time>
      </trkpt>
      <trkpt lat="42.4608310" lon="-6.0529970">
        <ele>896.6</ele>
        <time>2021-10-11T18:17:49Z</time>
      </trkpt>
      <trkpt lat="42.4607170" lon="-6.0529760">
        <ele>896.4</ele>
        <time>2021-10-11T18:17:52Z</time>
      </trkpt>
      <trkpt lat="42.4606000" lon="-6.0529590">
        <ele>896.4</ele>
        <time>2021-10-11T18:17:55Z</time>
      </trkpt>
      <trkpt lat="42.4604550" lon="-6.0529300">
        <ele>896.2</ele>
        <time>2021-10-11T18:17:59Z</time>
      </trkpt>
      <trkpt lat="42.4603520" lon="-6.0529050">
        <ele>896.2</ele>
        <time>2021-10-11T18:18:02Z</time>
      </trkpt>
      <trkpt lat="42.4601360" lon="-6.0528320">
        <ele>895.8</ele>
        <time>2021-10-11T18:18:08Z</time>
      </trkpt>
      <trkpt lat="42.4600870" lon="-6.0527960">
        <ele>895.6</ele>
        <time>2021-10-11T18:18:10Z</time>
      </trkpt>
      <trkpt lat="42.4600530" lon="-6.0527590">
        <ele>895.4</ele>
        <time>2021-10-11T18:18:12Z</time>
      </trkpt>
      <trkpt lat="42.4600090" lon="-6.0526600">
        <ele>895.0</ele>
        <time>2021-10-11T18:18:18Z</time>
      </trkpt>
      <trkpt lat="42.4600090" lon="-6.0526600">
        <ele>894.8</ele>
        <time>2021-10-11T18:18:20Z</time>
      </trkpt>
      <trkpt lat="42.4599850" lon="-6.0526430">
        <ele>894.4</ele>
        <time>2021-10-11T18:19:07Z</time>
      </trkpt>
      <trkpt lat="42.4599820" lon="-6.0526150">
        <ele>894.4</ele>
        <time>2021-10-11T18:19:08Z</time>
      </trkpt>
      <trkpt lat="42.4599720" lon="-6.0525090">
        <ele>894.4</ele>
        <time>2021-10-11T18:19:12Z</time>
      </trkpt>
      <trkpt lat="42.4599560" lon="-6.0524770">
        <ele>894.4</ele>
        <time>2021-10-11T18:19:13Z</time>
      </trkpt>
      <trkpt lat="42.4599450" lon="-6.0524460">
        <ele>894.4</ele>
        <time>2021-10-11T18:19:14Z</time>
      </trkpt>
      <trkpt lat="42.4599090" lon="-6.0523790">
        <ele>894.2</ele>
        <time>2021-10-11T18:19:16Z</time>
      </trkpt>
      <trkpt lat="42.4598420" lon="-6.0522570">
        <ele>893.0</ele>
        <time>2021-10-11T18:19:19Z</time>
      </trkpt>
      <trkpt lat="42.4597740" lon="-6.0521260">
        <ele>892.2</ele>
        <time>2021-10-11T18:19:22Z</time>
      </trkpt>
      <trkpt lat="42.4597570" lon="-6.0520860">
        <ele>891.6</ele>
        <time>2021-10-11T18:19:23Z</time>
      </trkpt>
      <trkpt lat="42.4596900" lon="-6.0519690">
        <ele>890.8</ele>
        <time>2021-10-11T18:19:26Z</time>
      </trkpt>
      <trkpt lat="42.4596620" lon="-6.0519290">
        <ele>890.2</ele>
        <time>2021-10-11T18:19:27Z</time>
      </trkpt>
      <trkpt lat="42.4595770" lon="-6.0518130">
        <ele>889.0</ele>
        <time>2021-10-11T18:19:30Z</time>
      </trkpt>
      <trkpt lat="42.4595280" lon="-6.0517380">
        <ele>888.2</ele>
        <time>2021-10-11T18:19:33Z</time>
      </trkpt>
      <trkpt lat="42.4595180" lon="-6.0517210">
        <ele>887.6</ele>
        <time>2021-10-11T18:19:34Z</time>
      </trkpt>
      <trkpt lat="42.4594770" lon="-6.0516260">
        <ele>886.6</ele>
        <time>2021-10-11T18:19:37Z</time>
      </trkpt>
      <trkpt lat="42.4594570" lon="-6.0515780">
        <ele>886.2</ele>
        <time>2021-10-11T18:19:38Z</time>
      </trkpt>
      <trkpt lat="42.4593780" lon="-6.0513980">
        <ele>885.4</ele>
        <time>2021-10-11T18:19:41Z</time>
      </trkpt>
      <trkpt lat="42.4593350" lon="-6.0512840">
        <ele>885.0</ele>
        <time>2021-10-11T18:19:43Z</time>
      </trkpt>
      <trkpt lat="42.4592860" lon="-6.0511900">
        <ele>884.4</ele>
        <time>2021-10-11T18:19:45Z</time>
      </trkpt>
      <trkpt lat="42.4592250" lon="-6.0510960">
        <ele>883.4</ele>
        <time>2021-10-11T18:19:48Z</time>
      </trkpt>
      <trkpt lat="42.4591820" lon="-6.0510480">
        <ele>882.6</ele>
        <time>2021-10-11T18:19:50Z</time>
      </trkpt>
      <trkpt lat="42.4590980" lon="-6.0510520">
        <ele>882.0</ele>
        <time>2021-10-11T18:19:52Z</time>
      </trkpt>
      <trkpt lat="42.4589530" lon="-6.0510790">
        <ele>881.2</ele>
        <time>2021-10-11T18:19:55Z</time>
      </trkpt>
      <trkpt lat="42.4588970" lon="-6.0510940">
        <ele>881.0</ele>
        <time>2021-10-11T18:19:56Z</time>
      </trkpt>
      <trkpt lat="42.4588450" lon="-6.0511040">
        <ele>880.8</ele>
        <time>2021-10-11T18:19:57Z</time>
      </trkpt>
      <trkpt lat="42.4587510" lon="-6.0511220">
        <ele>880.2</ele>
        <time>2021-10-11T18:19:59Z</time>
      </trkpt>
      <trkpt lat="42.4586890" lon="-6.0511490">
        <ele>879.8</ele>
        <time>2021-10-11T18:20:01Z</time>
      </trkpt>
      <trkpt lat="42.4586230" lon="-6.0512480">
        <ele>879.2</ele>
        <time>2021-10-11T18:20:05Z</time>
      </trkpt>
      <trkpt lat="42.4584900" lon="-6.0513760">
        <ele>878.8</ele>
        <time>2021-10-11T18:20:10Z</time>
      </trkpt>
      <trkpt lat="42.4582760" lon="-6.0514970">
        <ele>878.8</ele>
        <time>2021-10-11T18:20:17Z</time>
      </trkpt>
      <trkpt lat="42.4580790" lon="-6.0516130">
        <ele>878.8</ele>
        <time>2021-10-11T18:20:23Z</time>
      </trkpt>
      <trkpt lat="42.4579410" lon="-6.0517490">
        <ele>878.8</ele>
        <time>2021-10-11T18:20:28Z</time>
      </trkpt>
      <trkpt lat="42.4578520" lon="-6.0518200">
        <ele>878.8</ele>
        <time>2021-10-11T18:20:31Z</time>
      </trkpt>
      <trkpt lat="42.4575520" lon="-6.0519960">
        <ele>879.4</ele>
        <time>2021-10-11T18:20:41Z</time>
      </trkpt>
      <trkpt lat="42.4574870" lon="-6.0520260">
        <ele>879.8</ele>
        <time>2021-10-11T18:20:44Z</time>
      </trkpt>
      <trkpt lat="42.4574760" lon="-6.0520330">
        <ele>879.8</ele>
        <time>2021-10-11T18:20:45Z</time>
      </trkpt>
      <trkpt lat="42.4574400" lon="-6.0520410">
        <ele>879.8</ele>
        <time>2021-10-11T18:20:46Z</time>
      </trkpt>
      <trkpt lat="42.4573380" lon="-6.0520450">
        <ele>880.4</ele>
        <time>2021-10-11T18:20:49Z</time>
      </trkpt>
      <trkpt lat="42.4572980" lon="-6.0520170">
        <ele>880.8</ele>
        <time>2021-10-11T18:20:51Z</time>
      </trkpt>
      <trkpt lat="42.4572770" lon="-6.0520010">
        <ele>881.0</ele>
        <time>2021-10-11T18:20:52Z</time>
      </trkpt>
      <trkpt lat="42.4572430" lon="-6.0519930">
        <ele>881.2</ele>
        <time>2021-10-11T18:20:54Z</time>
      </trkpt>
      <trkpt lat="42.4572160" lon="-6.0520150">
        <ele>881.2</ele>
        <time>2021-10-11T18:20:56Z</time>
      </trkpt>
      <trkpt lat="42.4571690" lon="-6.0520920">
        <ele>881.6</ele>
        <time>2021-10-11T18:21:00Z</time>
      </trkpt>
      <trkpt lat="42.4571530" lon="-6.0521110">
        <ele>881.8</ele>
        <time>2021-10-11T18:21:01Z</time>
      </trkpt>
      <trkpt lat="42.4571370" lon="-6.0521310">
        <ele>882.0</ele>
        <time>2021-10-11T18:21:02Z</time>
      </trkpt>
      <trkpt lat="42.4570790" lon="-6.0521960">
        <ele>883.0</ele>
        <time>2021-10-11T18:21:06Z</time>
      </trkpt>
      <trkpt lat="42.4569970" lon="-6.0523000">
        <ele>884.0</ele>
        <time>2021-10-11T18:21:12Z</time>
      </trkpt>
      <trkpt lat="42.4569760" lon="-6.0523340">
        <ele>884.4</ele>
        <time>2021-10-11T18:21:14Z</time>
      </trkpt>
      <trkpt lat="42.4569530" lon="-6.0523730">
        <ele>884.8</ele>
        <time>2021-10-11T18:21:17Z</time>
      </trkpt>
      <trkpt lat="42.4569480" lon="-6.0523910">
        <ele>885.2</ele>
        <time>2021-10-11T18:21:18Z</time>
      </trkpt>
      <trkpt lat="42.4569340" lon="-6.0524250">
        <ele>885.8</ele>
        <time>2021-10-11T18:21:20Z</time>
      </trkpt>
      <trkpt lat="42.4569230" lon="-6.0524530">
        <ele>886.2</ele>
        <time>2021-10-11T18:21:22Z</time>
      </trkpt>
      <trkpt lat="42.4569200" lon="-6.0524690">
        <ele>886.2</ele>
        <time>2021-10-11T18:21:23Z</time>
      </trkpt>
      <trkpt lat="42.4568760" lon="-6.0525320">
        <ele>886.8</ele>
        <time>2021-10-11T18:21:26Z</time>
      </trkpt>
      <trkpt lat="42.4568650" lon="-6.0525750">
        <ele>887.4</ele>
        <time>2021-10-11T18:21:29Z</time>
      </trkpt>
      <trkpt lat="42.4568670" lon="-6.0525780">
        <ele>887.6</ele>
        <time>2021-10-11T18:21:30Z</time>
      </trkpt>
      <trkpt lat="42.4568670" lon="-6.0525780">
        <ele>887.6</ele>
        <time>2021-10-11T18:21:31Z</time>
      </trkpt>
      <trkpt lat="42.4568310" lon="-6.0525580">
        <ele>887.8</ele>
        <time>2021-10-11T18:22:22Z</time>
      </trkpt>
      <trkpt lat="42.4568100" lon="-6.0525490">
        <ele>887.8</ele>
        <time>2021-10-11T18:22:23Z</time>
      </trkpt>
      <trkpt lat="42.4567800" lon="-6.0525300">
        <ele>887.8</ele>
        <time>2021-10-11T18:22:25Z</time>
      </trkpt>
      <trkpt lat="42.4567700" lon="-6.0525220">
        <ele>887.8</ele>
        <time>2021-10-11T18:22:26Z</time>
      </trkpt>
      <trkpt lat="42.4567570" lon="-6.0525070">
        <ele>887.8</ele>
        <time>2021-10-11T18:22:29Z</time>
      </trkpt>
      <trkpt lat="42.4567620" lon="-6.0524910">
        <ele>888.0</ele>
        <time>2021-10-11T18:22:31Z</time>
      </trkpt>
      <trkpt lat="42.4567710" lon="-6.0524650">
        <ele>888.0</ele>
        <time>2021-10-11T18:22:34Z</time>
      </trkpt>
      <trkpt lat="42.4567700" lon="-6.0524560">
        <ele>887.8</ele>
        <time>2021-10-11T18:22:36Z</time>
      </trkpt>
      <trkpt lat="42.4567700" lon="-6.0524560">
        <ele>887.8</ele>
        <time>2021-10-11T18:22:37Z</time>
      </trkpt>
      <trkpt lat="42.4567470" lon="-6.0530840">
        <ele>890.8</ele>
        <time>2021-10-11T18:25:04Z</time>
      </trkpt>
      <trkpt lat="42.4567430" lon="-6.0530860">
        <ele>891.0</ele>
        <time>2021-10-11T18:25:05Z</time>
      </trkpt>
      <trkpt lat="42.4566930" lon="-6.0530960">
        <ele>891.4</ele>
        <time>2021-10-11T18:25:12Z</time>
      </trkpt>
      <trkpt lat="42.4566880" lon="-6.0531070">
        <ele>891.6</ele>
        <time>2021-10-11T18:25:14Z</time>
      </trkpt>
      <trkpt lat="42.4566750" lon="-6.0531250">
        <ele>891.8</ele>
        <time>2021-10-11T18:25:17Z</time>
      </trkpt>
      <trkpt lat="42.4566670" lon="-6.0531210">
        <ele>892.0</ele>
        <time>2021-10-11T18:25:18Z</time>
      </trkpt>
      <trkpt lat="42.4566680" lon="-6.0531240">
        <ele>892.2</ele>
        <time>2021-10-11T18:25:21Z</time>
      </trkpt>
      <trkpt lat="42.4566270" lon="-6.0532900">
        <ele>892.8</ele>
        <time>2021-10-11T18:25:32Z</time>
      </trkpt>
      <trkpt lat="42.4566230" lon="-6.0533140">
        <ele>893.0</ele>
        <time>2021-10-11T18:25:33Z</time>
      </trkpt>
      <trkpt lat="42.4566220" lon="-6.0533410">
        <ele>893.0</ele>
        <time>2021-10-11T18:25:34Z</time>
      </trkpt>
      <trkpt lat="42.4566180" lon="-6.0533650">
        <ele>893.0</ele>
        <time>2021-10-11T18:25:35Z</time>
      </trkpt>
      <trkpt lat="42.4566180" lon="-6.0533860">
        <ele>893.4</ele>
        <time>2021-10-11T18:25:36Z</time>
      </trkpt>
      <trkpt lat="42.4566140" lon="-6.0534130">
        <ele>893.6</ele>
        <time>2021-10-11T18:25:38Z</time>
      </trkpt>
      <trkpt lat="42.4565440" lon="-6.0534630">
        <ele>894.0</ele>
        <time>2021-10-11T18:25:41Z</time>
      </trkpt>
      <trkpt lat="42.4565210" lon="-6.0534590">
        <ele>894.0</ele>
        <time>2021-10-11T18:25:42Z</time>
      </trkpt>
      <trkpt lat="42.4564080" lon="-6.0534320">
        <ele>894.4</ele>
        <time>2021-10-11T18:25:47Z</time>
      </trkpt>
      <trkpt lat="42.4562460" lon="-6.0534430">
        <ele>894.6</ele>
        <time>2021-10-11T18:25:53Z</time>
      </trkpt>
      <trkpt lat="42.4561280" lon="-6.0533980">
        <ele>894.6</ele>
        <time>2021-10-11T18:25:57Z</time>
      </trkpt>
      <trkpt lat="42.4560940" lon="-6.0533840">
        <ele>894.6</ele>
        <time>2021-10-11T18:25:58Z</time>
      </trkpt>
      <trkpt lat="42.4560430" lon="-6.0533440">
        <ele>894.6</ele>
        <time>2021-10-11T18:26:00Z</time>
      </trkpt>
      <trkpt lat="42.4559920" lon="-6.0533020">
        <ele>894.6</ele>
        <time>2021-10-11T18:26:02Z</time>
      </trkpt>
      <trkpt lat="42.4559690" lon="-6.0532550">
        <ele>894.8</ele>
        <time>2021-10-11T18:26:04Z</time>
      </trkpt>
      <trkpt lat="42.4559160" lon="-6.0531960">
        <ele>895.0</ele>
        <time>2021-10-11T18:26:06Z</time>
      </trkpt>
      <trkpt lat="42.4558990" lon="-6.0531550">
        <ele>895.0</ele>
        <time>2021-10-11T18:26:07Z</time>
      </trkpt>
      <trkpt lat="42.4558550" lon="-6.0531230">
        <ele>895.0</ele>
        <time>2021-10-11T18:26:09Z</time>
      </trkpt>
      <trkpt lat="42.4557620" lon="-6.0530750">
        <ele>895.2</ele>
        <time>2021-10-11T18:26:12Z</time>
      </trkpt>
      <trkpt lat="42.4557120" lon="-6.0530610">
        <ele>895.0</ele>
        <time>2021-10-11T18:26:14Z</time>
      </trkpt>
      <trkpt lat="42.4556630" lon="-6.0530720">
        <ele>895.0</ele>
        <time>2021-10-11T18:26:16Z</time>
      </trkpt>
      <trkpt lat="42.4556450" lon="-6.0530610">
        <ele>895.0</ele>
        <time>2021-10-11T18:26:17Z</time>
      </trkpt>
      <trkpt lat="42.4556360" lon="-6.0529980">
        <ele>895.0</ele>
        <time>2021-10-11T18:26:20Z</time>
      </trkpt>
      <trkpt lat="42.4555460" lon="-6.0528550">
        <ele>895.0</ele>
        <time>2021-10-11T18:26:24Z</time>
      </trkpt>
      <trkpt lat="42.4554490" lon="-6.0528030">
        <ele>895.0</ele>
        <time>2021-10-11T18:26:27Z</time>
      </trkpt>
      <trkpt lat="42.4553680" lon="-6.0527610">
        <ele>895.0</ele>
        <time>2021-10-11T18:26:30Z</time>
      </trkpt>
      <trkpt lat="42.4553350" lon="-6.0527290">
        <ele>895.0</ele>
        <time>2021-10-11T18:26:31Z</time>
      </trkpt>
      <trkpt lat="42.4551300" lon="-6.0525250">
        <ele>894.8</ele>
        <time>2021-10-11T18:26:39Z</time>
      </trkpt>
      <trkpt lat="42.4550980" lon="-6.0524480">
        <ele>894.6</ele>
        <time>2021-10-11T18:26:42Z</time>
      </trkpt>
      <trkpt lat="42.4550800" lon="-6.0524290">
        <ele>894.6</ele>
        <time>2021-10-11T18:26:43Z</time>
      </trkpt>
      <trkpt lat="42.4550420" lon="-6.0523990">
        <ele>894.6</ele>
        <time>2021-10-11T18:26:45Z</time>
      </trkpt>
      <trkpt lat="42.4550110" lon="-6.0523800">
        <ele>894.6</ele>
        <time>2021-10-11T18:26:47Z</time>
      </trkpt>
      <trkpt lat="42.4549980" lon="-6.0523710">
        <ele>894.6</ele>
        <time>2021-10-11T18:26:48Z</time>
      </trkpt>
      <trkpt lat="42.4549690" lon="-6.0523450">
        <ele>894.4</ele>
        <time>2021-10-11T18:26:50Z</time>
      </trkpt>
      <trkpt lat="42.4548770" lon="-6.0522920">
        <ele>894.4</ele>
        <time>2021-10-11T18:26:53Z</time>
      </trkpt>
      <trkpt lat="42.4548540" lon="-6.0522690">
        <ele>894.2</ele>
        <time>2021-10-11T18:26:54Z</time>
      </trkpt>
      <trkpt lat="42.4548370" lon="-6.0521530">
        <ele>894.0</ele>
        <time>2021-10-11T18:26:59Z</time>
      </trkpt>
      <trkpt lat="42.4546790" lon="-6.0520220">
        <ele>894.0</ele>
        <time>2021-10-11T18:27:08Z</time>
      </trkpt>
      <trkpt lat="42.4545140" lon="-6.0519740">
        <ele>894.4</ele>
        <time>2021-10-11T18:27:14Z</time>
      </trkpt>
      <trkpt lat="42.4544930" lon="-6.0519720">
        <ele>894.4</ele>
        <time>2021-10-11T18:27:15Z</time>
      </trkpt>
      <trkpt lat="42.4544610" lon="-6.0519110">
        <ele>894.8</ele>
        <time>2021-10-11T18:27:18Z</time>
      </trkpt>
      <trkpt lat="42.4544380" lon="-6.0518920">
        <ele>894.8</ele>
        <time>2021-10-11T18:27:19Z</time>
      </trkpt>
      <trkpt lat="42.4543450" lon="-6.0519660">
        <ele>894.8</ele>
        <time>2021-10-11T18:27:22Z</time>
      </trkpt>
      <trkpt lat="42.4543250" lon="-6.0520280">
        <ele>894.8</ele>
        <time>2021-10-11T18:27:23Z</time>
      </trkpt>
      <trkpt lat="42.4542260" lon="-6.0522700">
        <ele>894.6</ele>
        <time>2021-10-11T18:27:30Z</time>
      </trkpt>
      <trkpt lat="42.4541930" lon="-6.0523270">
        <ele>894.4</ele>
        <time>2021-10-11T18:27:32Z</time>
      </trkpt>
      <trkpt lat="42.4541350" lon="-6.0523450">
        <ele>894.4</ele>
        <time>2021-10-11T18:27:34Z</time>
      </trkpt>
      <trkpt lat="42.4540690" lon="-6.0523200">
        <ele>894.4</ele>
        <time>2021-10-11T18:27:36Z</time>
      </trkpt>
      <trkpt lat="42.4540110" lon="-6.0522570">
        <ele>894.4</ele>
        <time>2021-10-11T18:27:39Z</time>
      </trkpt>
      <trkpt lat="42.4539200" lon="-6.0521670">
        <ele>894.4</ele>
        <time>2021-10-11T18:27:43Z</time>
      </trkpt>
      <trkpt lat="42.4538790" lon="-6.0521140">
        <ele>894.2</ele>
        <time>2021-10-11T18:27:46Z</time>
      </trkpt>
      <trkpt lat="42.4538530" lon="-6.0520840">
        <ele>894.2</ele>
        <time>2021-10-11T18:27:48Z</time>
      </trkpt>
      <trkpt lat="42.4538410" lon="-6.0520800">
        <ele>894.2</ele>
        <time>2021-10-11T18:27:50Z</time>
      </trkpt>
      <trkpt lat="42.4538410" lon="-6.0520800">
        <ele>894.2</ele>
        <time>2021-10-11T18:27:51Z</time>
      </trkpt>
      <trkpt lat="42.4537860" lon="-6.0520330">
        <ele>894.0</ele>
        <time>2021-10-11T18:27:57Z</time>
      </trkpt>
      <trkpt lat="42.4537390" lon="-6.0519800">
        <ele>894.0</ele>
        <time>2021-10-11T18:27:59Z</time>
      </trkpt>
      <trkpt lat="42.4536060" lon="-6.0518450">
        <ele>893.8</ele>
        <time>2021-10-11T18:28:05Z</time>
      </trkpt>
      <trkpt lat="42.4535350" lon="-6.0517780">
        <ele>893.8</ele>
        <time>2021-10-11T18:28:08Z</time>
      </trkpt>
      <trkpt lat="42.4534250" lon="-6.0516740">
        <ele>893.6</ele>
        <time>2021-10-11T18:28:12Z</time>
      </trkpt>
      <trkpt lat="42.4532530" lon="-6.0515020">
        <ele>893.2</ele>
        <time>2021-10-11T18:28:18Z</time>
      </trkpt>
      <trkpt lat="42.4531850" lon="-6.0514690">
        <ele>893.0</ele>
        <time>2021-10-11T18:28:20Z</time>
      </trkpt>
      <trkpt lat="42.4530940" lon="-6.0513850">
        <ele>892.6</ele>
        <time>2021-10-11T18:28:24Z</time>
      </trkpt>
      <trkpt lat="42.4530680" lon="-6.0513680">
        <ele>892.4</ele>
        <time>2021-10-11T18:28:26Z</time>
      </trkpt>
      <trkpt lat="42.4530510" lon="-6.0513600">
        <ele>892.2</ele>
        <time>2021-10-11T18:28:29Z</time>
      </trkpt>
      <trkpt lat="42.4530510" lon="-6.0513600">
        <ele>892.0</ele>
        <time>2021-10-11T18:28:31Z</time>
      </trkpt>
      <trkpt lat="42.4531250" lon="-6.0515990">
        <ele>861.8</ele>
        <time>2021-10-12T07:26:56Z</time>
      </trkpt>
      <trkpt lat="42.4531250" lon="-6.0515970">
        <ele>866.2</ele>
        <time>2021-10-12T07:26:57Z</time>
      </trkpt>
      <trkpt lat="42.4530550" lon="-6.0515800">
        <ele>867.0</ele>
        <time>2021-10-12T07:29:49Z</time>
      </trkpt>
      <trkpt lat="42.4530500" lon="-6.0515950">
        <ele>867.0</ele>
        <time>2021-10-12T07:29:50Z</time>
      </trkpt>
      <trkpt lat="42.4530480" lon="-6.0516050">
        <ele>867.0</ele>
        <time>2021-10-12T07:29:51Z</time>
      </trkpt>
      <trkpt lat="42.4530470" lon="-6.0516100">
        <ele>866.8</ele>
        <time>2021-10-12T07:29:53Z</time>
      </trkpt>
      <trkpt lat="42.4530470" lon="-6.0516100">
        <ele>866.6</ele>
        <time>2021-10-12T07:29:59Z</time>
      </trkpt>
      <trkpt lat="42.4530470" lon="-6.0516100">
        <ele>866.6</ele>
        <time>2021-10-12T07:30:00Z</time>
      </trkpt>
      <trkpt lat="42.4530430" lon="-6.0516450">
        <ele>866.4</ele>
        <time>2021-10-12T07:30:04Z</time>
      </trkpt>
      <trkpt lat="42.4530490" lon="-6.0516850">
        <ele>866.4</ele>
        <time>2021-10-12T07:30:05Z</time>
      </trkpt>
      <trkpt lat="42.4531460" lon="-6.0518390">
        <ele>866.8</ele>
        <time>2021-10-12T07:30:11Z</time>
      </trkpt>
      <trkpt lat="42.4532670" lon="-6.0519850">
        <ele>867.2</ele>
        <time>2021-10-12T07:30:17Z</time>
      </trkpt>
      <trkpt lat="42.4532890" lon="-6.0520080">
        <ele>867.2</ele>
        <time>2021-10-12T07:30:18Z</time>
      </trkpt>
      <trkpt lat="42.4533300" lon="-6.0520460">
        <ele>867.4</ele>
        <time>2021-10-12T07:30:20Z</time>
      </trkpt>
      <trkpt lat="42.4533510" lon="-6.0520760">
        <ele>867.6</ele>
        <time>2021-10-12T07:30:21Z</time>
      </trkpt>
      <trkpt lat="42.4534320" lon="-6.0521700">
        <ele>867.8</ele>
        <time>2021-10-12T07:30:25Z</time>
      </trkpt>
      <trkpt lat="42.4534490" lon="-6.0521940">
        <ele>867.8</ele>
        <time>2021-10-12T07:30:26Z</time>
      </trkpt>
      <trkpt lat="42.4534990" lon="-6.0522720">
        <ele>868.0</ele>
        <time>2021-10-12T07:30:29Z</time>
      </trkpt>
      <trkpt lat="42.4535380" lon="-6.0523450">
        <ele>868.2</ele>
        <time>2021-10-12T07:30:32Z</time>
      </trkpt>
      <trkpt lat="42.4534760" lon="-6.0524540">
        <ele>868.2</ele>
        <time>2021-10-12T07:30:36Z</time>
      </trkpt>
      <trkpt lat="42.4533580" lon="-6.0526240">
        <ele>868.2</ele>
        <time>2021-10-12T07:30:41Z</time>
      </trkpt>
      <trkpt lat="42.4532690" lon="-6.0527340">
        <ele>868.0</ele>
        <time>2021-10-12T07:30:44Z</time>
      </trkpt>
      <trkpt lat="42.4532190" lon="-6.0528400">
        <ele>867.8</ele>
        <time>2021-10-12T07:30:47Z</time>
      </trkpt>
      <trkpt lat="42.4532090" lon="-6.0528910">
        <ele>867.6</ele>
        <time>2021-10-12T07:30:48Z</time>
      </trkpt>
      <trkpt lat="42.4532320" lon="-6.0530430">
        <ele>866.8</ele>
        <time>2021-10-12T07:30:52Z</time>
      </trkpt>
      <trkpt lat="42.4532820" lon="-6.0531560">
        <ele>866.4</ele>
        <time>2021-10-12T07:30:55Z</time>
      </trkpt>
      <trkpt lat="42.4533210" lon="-6.0532120">
        <ele>866.2</ele>
        <time>2021-10-12T07:30:57Z</time>
      </trkpt>
      <trkpt lat="42.4533850" lon="-6.0532820">
        <ele>866.0</ele>
        <time>2021-10-12T07:31:01Z</time>
      </trkpt>
      <trkpt lat="42.4533840" lon="-6.0533020">
        <ele>866.0</ele>
        <time>2021-10-12T07:31:02Z</time>
      </trkpt>
      <trkpt lat="42.4533280" lon="-6.0533730">
        <ele>865.8</ele>
        <time>2021-10-12T07:31:04Z</time>
      </trkpt>
      <trkpt lat="42.4532370" lon="-6.0534100">
        <ele>865.2</ele>
        <time>2021-10-12T07:31:07Z</time>
      </trkpt>
      <trkpt lat="42.4531470" lon="-6.0534540">
        <ele>864.8</ele>
        <time>2021-10-12T07:31:09Z</time>
      </trkpt>
      <trkpt lat="42.4530440" lon="-6.0534980">
        <ele>864.0</ele>
        <time>2021-10-12T07:31:12Z</time>
      </trkpt>
      <trkpt lat="42.4529960" lon="-6.0535220">
        <ele>863.2</ele>
        <time>2021-10-12T07:31:14Z</time>
      </trkpt>
      <trkpt lat="42.4529630" lon="-6.0535150">
        <ele>862.8</ele>
        <time>2021-10-12T07:31:15Z</time>
      </trkpt>
      <trkpt lat="42.4529500" lon="-6.0534950">
        <ele>862.4</ele>
        <time>2021-10-12T07:31:16Z</time>
      </trkpt>
      <trkpt lat="42.4529320" lon="-6.0534580">
        <ele>862.0</ele>
        <time>2021-10-12T07:31:17Z</time>
      </trkpt>
      <trkpt lat="42.4528910" lon="-6.0533780">
        <ele>861.4</ele>
        <time>2021-10-12T07:31:19Z</time>
      </trkpt>
      <trkpt lat="42.4528380" lon="-6.0532720">
        <ele>861.0</ele>
        <time>2021-10-12T07:31:21Z</time>
      </trkpt>
      <trkpt lat="42.4528060" lon="-6.0531990">
        <ele>860.4</ele>
        <time>2021-10-12T07:31:23Z</time>
      </trkpt>
      <trkpt lat="42.4528110" lon="-6.0532180">
        <ele>860.2</ele>
        <time>2021-10-12T07:31:24Z</time>
      </trkpt>
      <trkpt lat="42.4528180" lon="-6.0532490">
        <ele>859.4</ele>
        <time>2021-10-12T07:31:25Z</time>
      </trkpt>
      <trkpt lat="42.4528260" lon="-6.0532810">
        <ele>858.8</ele>
        <time>2021-10-12T07:31:26Z</time>
      </trkpt>
      <trkpt lat="42.4528330" lon="-6.0533130">
        <ele>857.0</ele>
        <time>2021-10-12T07:31:36Z</time>
      </trkpt>
      <trkpt lat="42.4528410" lon="-6.0533440">
        <ele>857.2</ele>
        <time>2021-10-12T07:31:38Z</time>
      </trkpt>
      <trkpt lat="42.4528480" lon="-6.0533760">
        <ele>857.2</ele>
        <time>2021-10-12T07:31:39Z</time>
      </trkpt>
      <trkpt lat="42.4528560" lon="-6.0534080">
        <ele>857.6</ele>
        <time>2021-10-12T07:31:43Z</time>
      </trkpt>
      <trkpt lat="42.4528630" lon="-6.0534400">
        <ele>857.8</ele>
        <time>2021-10-12T07:31:44Z</time>
      </trkpt>
      <trkpt lat="42.4528710" lon="-6.0534710">
        <ele>858.0</ele>
        <time>2021-10-12T07:31:45Z</time>
      </trkpt>
      <trkpt lat="42.4528780" lon="-6.0535030">
        <ele>858.2</ele>
        <time>2021-10-12T07:31:47Z</time>
      </trkpt>
      <trkpt lat="42.4528860" lon="-6.0535350">
        <ele>858.4</ele>
        <time>2021-10-12T07:31:49Z</time>
      </trkpt>
      <trkpt lat="42.4528930" lon="-6.0535660">
        <ele>860.2</ele>
        <time>2021-10-12T07:32:48Z</time>
      </trkpt>
      <trkpt lat="42.4529010" lon="-6.0535980">
        <ele>860.0</ele>
        <time>2021-10-12T07:32:49Z</time>
      </trkpt>
      <trkpt lat="42.4528030" lon="-6.0537130">
        <ele>860.0</ele>
        <time>2021-10-12T07:32:52Z</time>
      </trkpt>
      <trkpt lat="42.4527720" lon="-6.0537520">
        <ele>859.8</ele>
        <time>2021-10-12T07:32:53Z</time>
      </trkpt>
      <trkpt lat="42.4526830" lon="-6.0538840">
        <ele>859.0</ele>
        <time>2021-10-12T07:32:56Z</time>
      </trkpt>
      <trkpt lat="42.4526200" lon="-6.0539820">
        <ele>858.2</ele>
        <time>2021-10-12T07:32:58Z</time>
      </trkpt>
      <trkpt lat="42.4525860" lon="-6.0540360">
        <ele>858.0</ele>
        <time>2021-10-12T07:32:59Z</time>
      </trkpt>
      <trkpt lat="42.4524710" lon="-6.0542210">
        <ele>857.0</ele>
        <time>2021-10-12T07:33:02Z</time>
      </trkpt>
      <trkpt lat="42.4523980" lon="-6.0543480">
        <ele>856.2</ele>
        <time>2021-10-12T07:33:04Z</time>
      </trkpt>
      <trkpt lat="42.4523630" lon="-6.0543990">
        <ele>856.0</ele>
        <time>2021-10-12T07:33:05Z</time>
      </trkpt>
      <trkpt lat="42.4522910" lon="-6.0544960">
        <ele>854.8</ele>
        <time>2021-10-12T07:33:07Z</time>
      </trkpt>
      <trkpt lat="42.4521880" lon="-6.0546460">
        <ele>853.6</ele>
        <time>2021-10-12T07:33:10Z</time>
      </trkpt>
      <trkpt lat="42.4521620" lon="-6.0546920">
        <ele>853.0</ele>
        <time>2021-10-12T07:33:11Z</time>
      </trkpt>
      <trkpt lat="42.4521270" lon="-6.0548010">
        <ele>852.2</ele>
        <time>2021-10-12T07:33:13Z</time>
      </trkpt>
      <trkpt lat="42.4521190" lon="-6.0548630">
        <ele>852.0</ele>
        <time>2021-10-12T07:33:14Z</time>
      </trkpt>
      <trkpt lat="42.4521160" lon="-6.0549300">
        <ele>851.6</ele>
        <time>2021-10-12T07:33:15Z</time>
      </trkpt>
      <trkpt lat="42.4521350" lon="-6.0550660">
        <ele>851.0</ele>
        <time>2021-10-12T07:33:17Z</time>
      </trkpt>
      <trkpt lat="42.4521460" lon="-6.0551330">
        <ele>850.4</ele>
        <time>2021-10-12T07:33:18Z</time>
      </trkpt>
      <trkpt lat="42.4521390" lon="-6.0552670">
        <ele>850.0</ele>
        <time>2021-10-12T07:33:20Z</time>
      </trkpt>
      <trkpt lat="42.4521190" lon="-6.0553270">
        <ele>849.8</ele>
        <time>2021-10-12T07:33:21Z</time>
      </trkpt>
      <trkpt lat="42.4520880" lon="-6.0553770">
        <ele>849.4</ele>
        <time>2021-10-12T07:33:22Z</time>
      </trkpt>
      <trkpt lat="42.4519990" lon="-6.0554320">
        <ele>849.2</ele>
        <time>2021-10-12T07:33:24Z</time>
      </trkpt>
      <trkpt lat="42.4519030" lon="-6.0554090">
        <ele>849.0</ele>
        <time>2021-10-12T07:33:26Z</time>
      </trkpt>
      <trkpt lat="42.4518610" lon="-6.0553700">
        <ele>849.0</ele>
        <time>2021-10-12T07:33:27Z</time>
      </trkpt>
      <trkpt lat="42.4518240" lon="-6.0553190">
        <ele>848.8</ele>
        <time>2021-10-12T07:33:28Z</time>
      </trkpt>
      <trkpt lat="42.4517920" lon="-6.0551920">
        <ele>848.6</ele>
        <time>2021-10-12T07:33:30Z</time>
      </trkpt>
      <trkpt lat="42.4517900" lon="-6.0550120">
        <ele>848.4</ele>
        <time>2021-10-12T07:33:33Z</time>
      </trkpt>
      <trkpt lat="42.4517800" lon="-6.0549640">
        <ele>848.4</ele>
        <time>2021-10-12T07:33:34Z</time>
      </trkpt>
      <trkpt lat="42.4516600" lon="-6.0547770">
        <ele>848.2</ele>
        <time>2021-10-12T07:33:39Z</time>
      </trkpt>
      <trkpt lat="42.4515360" lon="-6.0545840">
        <ele>848.0</ele>
        <time>2021-10-12T07:33:44Z</time>
      </trkpt>
      <trkpt lat="42.4514850" lon="-6.0545080">
        <ele>848.0</ele>
        <time>2021-10-12T07:33:46Z</time>
      </trkpt>
      <trkpt lat="42.4514090" lon="-6.0543940">
        <ele>847.8</ele>
        <time>2021-10-12T07:33:49Z</time>
      </trkpt>
      <trkpt lat="42.4513130" lon="-6.0542570">
        <ele>847.6</ele>
        <time>2021-10-12T07:33:53Z</time>
      </trkpt>
      <trkpt lat="42.4512680" lon="-6.0541870">
        <ele>847.4</ele>
        <time>2021-10-12T07:33:55Z</time>
      </trkpt>
      <trkpt lat="42.4511320" lon="-6.0540010">
        <ele>847.4</ele>
        <time>2021-10-12T07:34:01Z</time>
      </trkpt>
      <trkpt lat="42.4511090" lon="-6.0539740">
        <ele>847.4</ele>
        <time>2021-10-12T07:34:02Z</time>
      </trkpt>
      <trkpt lat="42.4510230" lon="-6.0538690">
        <ele>847.2</ele>
        <time>2021-10-12T07:34:06Z</time>
      </trkpt>
      <trkpt lat="42.4509880" lon="-6.0538290">
        <ele>847.2</ele>
        <time>2021-10-12T07:34:08Z</time>
      </trkpt>
      <trkpt lat="42.4509220" lon="-6.0537510">
        <ele>847.2</ele>
        <time>2021-10-12T07:34:12Z</time>
      </trkpt>
      <trkpt lat="42.4508830" lon="-6.0536930">
        <ele>847.0</ele>
        <time>2021-10-12T07:34:15Z</time>
      </trkpt>
      <trkpt lat="42.4508620" lon="-6.0536330">
        <ele>846.8</ele>
        <time>2021-10-12T07:34:17Z</time>
      </trkpt>
      <trkpt lat="42.4508670" lon="-6.0535930">
        <ele>846.8</ele>
        <time>2021-10-12T07:34:18Z</time>
      </trkpt>
      <trkpt lat="42.4508770" lon="-6.0535540">
        <ele>846.8</ele>
        <time>2021-10-12T07:34:19Z</time>
      </trkpt>
      <trkpt lat="42.4509460" lon="-6.0533200">
        <ele>846.4</ele>
        <time>2021-10-12T07:34:26Z</time>
      </trkpt>
      <trkpt lat="42.4509390" lon="-6.0532860">
        <ele>846.4</ele>
        <time>2021-10-12T07:34:27Z</time>
      </trkpt>
      <trkpt lat="42.4509020" lon="-6.0532450">
        <ele>846.4</ele>
        <time>2021-10-12T07:34:29Z</time>
      </trkpt>
      <trkpt lat="42.4508370" lon="-6.0532130">
        <ele>846.2</ele>
        <time>2021-10-12T07:34:35Z</time>
      </trkpt>
      <trkpt lat="42.4508020" lon="-6.0532030">
        <ele>845.6</ele>
        <time>2021-10-12T07:34:51Z</time>
      </trkpt>
      <trkpt lat="42.4507440" lon="-6.0531680">
        <ele>845.6</ele>
        <time>2021-10-12T07:34:54Z</time>
      </trkpt>
      <trkpt lat="42.4506350" lon="-6.0531150">
        <ele>845.6</ele>
        <time>2021-10-12T07:34:59Z</time>
      </trkpt>
      <trkpt lat="42.4504990" lon="-6.0530020">
        <ele>845.6</ele>
        <time>2021-10-12T07:35:04Z</time>
      </trkpt>
      <trkpt lat="42.4503330" lon="-6.0527760">
        <ele>845.8</ele>
        <time>2021-10-12T07:35:11Z</time>
      </trkpt>
      <trkpt lat="42.4501460" lon="-6.0525120">
        <ele>846.2</ele>
        <time>2021-10-12T07:35:21Z</time>
      </trkpt>
      <trkpt lat="42.4499950" lon="-6.0522990">
        <ele>846.8</ele>
        <time>2021-10-12T07:35:28Z</time>
      </trkpt>
      <trkpt lat="42.4499490" lon="-6.0522370">
        <ele>847.0</ele>
        <time>2021-10-12T07:35:30Z</time>
      </trkpt>
      <trkpt lat="42.4497280" lon="-6.0519330">
        <ele>847.2</ele>
        <time>2021-10-12T07:35:39Z</time>
      </trkpt>
      <trkpt lat="42.4494960" lon="-6.0515980">
        <ele>847.6</ele>
        <time>2021-10-12T07:35:48Z</time>
      </trkpt>
      <trkpt lat="42.4492730" lon="-6.0512620">
        <ele>847.2</ele>
        <time>2021-10-12T07:35:56Z</time>
      </trkpt>
      <trkpt lat="42.4490550" lon="-6.0509440">
        <ele>847.0</ele>
        <time>2021-10-12T07:36:03Z</time>
      </trkpt>
      <trkpt lat="42.4489870" lon="-6.0508500">
        <ele>846.8</ele>
        <time>2021-10-12T07:36:05Z</time>
      </trkpt>
      <trkpt lat="42.4485960" lon="-6.0502810">
        <ele>846.0</ele>
        <time>2021-10-12T07:36:17Z</time>
      </trkpt>
      <trkpt lat="42.4485640" lon="-6.0502300">
        <ele>845.8</ele>
        <time>2021-10-12T07:36:18Z</time>
      </trkpt>
      <trkpt lat="42.4482980" lon="-6.0498410">
        <ele>845.0</ele>
        <time>2021-10-12T07:36:26Z</time>
      </trkpt>
      <trkpt lat="42.4481980" lon="-6.0497020">
        <ele>845.0</ele>
        <time>2021-10-12T07:36:29Z</time>
      </trkpt>
      <trkpt lat="42.4478850" lon="-6.0492390">
        <ele>844.4</ele>
        <time>2021-10-12T07:36:39Z</time>
      </trkpt>
      <trkpt lat="42.4475750" lon="-6.0488020">
        <ele>844.2</ele>
        <time>2021-10-12T07:36:49Z</time>
      </trkpt>
      <trkpt lat="42.4472200" lon="-6.0482730">
        <ele>844.0</ele>
        <time>2021-10-12T07:37:01Z</time>
      </trkpt>
      <trkpt lat="42.4471900" lon="-6.0482330">
        <ele>844.0</ele>
        <time>2021-10-12T07:37:02Z</time>
      </trkpt>
      <trkpt lat="42.4469290" lon="-6.0478630">
        <ele>843.8</ele>
        <time>2021-10-12T07:37:11Z</time>
      </trkpt>
      <trkpt lat="42.4468210" lon="-6.0477170">
        <ele>843.6</ele>
        <time>2021-10-12T07:37:15Z</time>
      </trkpt>
      <trkpt lat="42.4467600" lon="-6.0476590">
        <ele>843.6</ele>
        <time>2021-10-12T07:37:17Z</time>
      </trkpt>
      <trkpt lat="42.4465090" lon="-6.0475150">
        <ele>843.4</ele>
        <time>2021-10-12T07:37:24Z</time>
      </trkpt>
      <trkpt lat="42.4462720" lon="-6.0473180">
        <ele>843.4</ele>
        <time>2021-10-12T07:37:31Z</time>
      </trkpt>
      <trkpt lat="42.4459700" lon="-6.0471030">
        <ele>843.2</ele>
        <time>2021-10-12T07:37:40Z</time>
      </trkpt>
      <trkpt lat="42.4457330" lon="-6.0469710">
        <ele>843.2</ele>
        <time>2021-10-12T07:37:47Z</time>
      </trkpt>
      <trkpt lat="42.4456590" lon="-6.0469390">
        <ele>843.2</ele>
        <time>2021-10-12T07:37:49Z</time>
      </trkpt>
      <trkpt lat="42.4453630" lon="-6.0467500">
        <ele>843.4</ele>
        <time>2021-10-12T07:37:58Z</time>
      </trkpt>
      <trkpt lat="42.4450300" lon="-6.0465950">
        <ele>843.2</ele>
        <time>2021-10-12T07:38:08Z</time>
      </trkpt>
      <trkpt lat="42.4447680" lon="-6.0464540">
        <ele>843.2</ele>
        <time>2021-10-12T07:38:16Z</time>
      </trkpt>
      <trkpt lat="42.4444970" lon="-6.0464150">
        <ele>843.6</ele>
        <time>2021-10-12T07:38:24Z</time>
      </trkpt>
      <trkpt lat="42.4441440" lon="-6.0464250">
        <ele>843.6</ele>
        <time>2021-10-12T07:38:34Z</time>
      </trkpt>
      <trkpt lat="42.4439490" lon="-6.0463470">
        <ele>843.6</ele>
        <time>2021-10-12T07:38:40Z</time>
      </trkpt>
      <trkpt lat="42.4437060" lon="-6.0461280">
        <ele>843.6</ele>
        <time>2021-10-12T07:38:48Z</time>
      </trkpt>
      <trkpt lat="42.4434240" lon="-6.0459470">
        <ele>843.8</ele>
        <time>2021-10-12T07:38:57Z</time>
      </trkpt>
      <trkpt lat="42.4432620" lon="-6.0458910">
        <ele>844.4</ele>
        <time>2021-10-12T07:39:04Z</time>
      </trkpt>
      <trkpt lat="42.4431230" lon="-6.0458640">
        <ele>845.4</ele>
        <time>2021-10-12T07:39:11Z</time>
      </trkpt>
      <trkpt lat="42.4430900" lon="-6.0458580">
        <ele>845.4</ele>
        <time>2021-10-12T07:39:13Z</time>
      </trkpt>
      <trkpt lat="42.4429670" lon="-6.0458340">
        <ele>846.6</ele>
        <time>2021-10-12T07:39:20Z</time>
      </trkpt>
      <trkpt lat="42.4429470" lon="-6.0458300">
        <ele>846.6</ele>
        <time>2021-10-12T07:39:21Z</time>
      </trkpt>
      <trkpt lat="42.4428480" lon="-6.0458200">
        <ele>847.6</ele>
        <time>2021-10-12T07:39:27Z</time>
      </trkpt>
      <trkpt lat="42.4428120" lon="-6.0458120">
        <ele>848.0</ele>
        <time>2021-10-12T07:39:29Z</time>
      </trkpt>
      <trkpt lat="42.4427300" lon="-6.0457990">
        <ele>848.8</ele>
        <time>2021-10-12T07:39:34Z</time>
      </trkpt>
      <trkpt lat="42.4426210" lon="-6.0457670">
        <ele>849.8</ele>
        <time>2021-10-12T07:39:41Z</time>
      </trkpt>
      <trkpt lat="42.4426040" lon="-6.0457660">
        <ele>850.0</ele>
        <time>2021-10-12T07:39:42Z</time>
      </trkpt>
      <trkpt lat="42.4424920" lon="-6.0457410">
        <ele>851.0</ele>
        <time>2021-10-12T07:39:49Z</time>
      </trkpt>
      <trkpt lat="42.4424770" lon="-6.0457350">
        <ele>851.2</ele>
        <time>2021-10-12T07:39:50Z</time>
      </trkpt>
      <trkpt lat="42.4423570" lon="-6.0456960">
        <ele>852.2</ele>
        <time>2021-10-12T07:39:57Z</time>
      </trkpt>
      <trkpt lat="42.4423390" lon="-6.0456940">
        <ele>852.2</ele>
        <time>2021-10-12T07:39:58Z</time>
      </trkpt>
      <trkpt lat="42.4422670" lon="-6.0456860">
        <ele>852.6</ele>
        <time>2021-10-12T07:40:02Z</time>
      </trkpt>
      <trkpt lat="42.4421850" lon="-6.0456840">
        <ele>853.2</ele>
        <time>2021-10-12T07:40:07Z</time>
      </trkpt>
      <trkpt lat="42.4421540" lon="-6.0456810">
        <ele>853.6</ele>
        <time>2021-10-12T07:40:09Z</time>
      </trkpt>
      <trkpt lat="42.4420910" lon="-6.0456930">
        <ele>854.0</ele>
        <time>2021-10-12T07:40:13Z</time>
      </trkpt>
      <trkpt lat="42.4420600" lon="-6.0457000">
        <ele>854.4</ele>
        <time>2021-10-12T07:40:15Z</time>
      </trkpt>
      <trkpt lat="42.4419790" lon="-6.0457350">
        <ele>855.0</ele>
        <time>2021-10-12T07:40:20Z</time>
      </trkpt>
      <trkpt lat="42.4419450" lon="-6.0457490">
        <ele>855.4</ele>
        <time>2021-10-12T07:40:22Z</time>
      </trkpt>
      <trkpt lat="42.4418610" lon="-6.0458120">
        <ele>856.2</ele>
        <time>2021-10-12T07:40:28Z</time>
      </trkpt>
      <trkpt lat="42.4418320" lon="-6.0458310">
        <ele>856.4</ele>
        <time>2021-10-12T07:40:30Z</time>
      </trkpt>
      <trkpt lat="42.4418190" lon="-6.0458420">
        <ele>856.6</ele>
        <time>2021-10-12T07:40:31Z</time>
      </trkpt>
      <trkpt lat="42.4417550" lon="-6.0459030">
        <ele>857.0</ele>
        <time>2021-10-12T07:40:36Z</time>
      </trkpt>
      <trkpt lat="42.4416890" lon="-6.0459760">
        <ele>857.6</ele>
        <time>2021-10-12T07:40:41Z</time>
      </trkpt>
      <trkpt lat="42.4416360" lon="-6.0460250">
        <ele>858.2</ele>
        <time>2021-10-12T07:40:45Z</time>
      </trkpt>
      <trkpt lat="42.4415600" lon="-6.0460850">
        <ele>858.8</ele>
        <time>2021-10-12T07:40:50Z</time>
      </trkpt>
      <trkpt lat="42.4414960" lon="-6.0461330">
        <ele>859.2</ele>
        <time>2021-10-12T07:40:54Z</time>
      </trkpt>
      <trkpt lat="42.4414370" lon="-6.0461760">
        <ele>859.2</ele>
        <time>2021-10-12T07:40:58Z</time>
      </trkpt>
      <trkpt lat="42.4414060" lon="-6.0461860">
        <ele>859.6</ele>
        <time>2021-10-12T07:41:00Z</time>
      </trkpt>
      <trkpt lat="42.4413820" lon="-6.0461900">
        <ele>859.6</ele>
        <time>2021-10-12T07:41:02Z</time>
      </trkpt>
      <trkpt lat="42.4413780" lon="-6.0461890">
        <ele>859.6</ele>
        <time>2021-10-12T07:41:05Z</time>
      </trkpt>
      <trkpt lat="42.4413260" lon="-6.0461870">
        <ele>859.2</ele>
        <time>2021-10-12T07:42:05Z</time>
      </trkpt>
      <trkpt lat="42.4413140" lon="-6.0461900">
        <ele>859.2</ele>
        <time>2021-10-12T07:42:06Z</time>
      </trkpt>
      <trkpt lat="42.4413040" lon="-6.0461930">
        <ele>859.0</ele>
        <time>2021-10-12T07:42:09Z</time>
      </trkpt>
      <trkpt lat="42.4412640" lon="-6.0461720">
        <ele>859.8</ele>
        <time>2021-10-12T07:43:41Z</time>
      </trkpt>
      <trkpt lat="42.4412450" lon="-6.0461600">
        <ele>859.8</ele>
        <time>2021-10-12T07:43:42Z</time>
      </trkpt>
      <trkpt lat="42.4411070" lon="-6.0460470">
        <ele>859.8</ele>
        <time>2021-10-12T07:43:49Z</time>
      </trkpt>
      <trkpt lat="42.4409370" lon="-6.0458230">
        <ele>859.8</ele>
        <time>2021-10-12T07:43:59Z</time>
      </trkpt>
      <trkpt lat="42.4407910" lon="-6.0456180">
        <ele>859.6</ele>
        <time>2021-10-12T07:44:08Z</time>
      </trkpt>
      <trkpt lat="42.4406540" lon="-6.0454430">
        <ele>859.4</ele>
        <time>2021-10-12T07:44:14Z</time>
      </trkpt>
      <trkpt lat="42.4404770" lon="-6.0453500">
        <ele>859.4</ele>
        <time>2021-10-12T07:44:20Z</time>
      </trkpt>
      <trkpt lat="42.4401780" lon="-6.0453770">
        <ele>859.2</ele>
        <time>2021-10-12T07:44:28Z</time>
      </trkpt>
      <trkpt lat="42.4400840" lon="-6.0453550">
        <ele>859.0</ele>
        <time>2021-10-12T07:44:30Z</time>
      </trkpt>
      <trkpt lat="42.4399850" lon="-6.0452920">
        <ele>858.8</ele>
        <time>2021-10-12T07:44:32Z</time>
      </trkpt>
      <trkpt lat="42.4399030" lon="-6.0451780">
        <ele>858.6</ele>
        <time>2021-10-12T07:44:34Z</time>
      </trkpt>
      <trkpt lat="42.4398680" lon="-6.0451080">
        <ele>858.6</ele>
        <time>2021-10-12T07:44:35Z</time>
      </trkpt>
      <trkpt lat="42.4398000" lon="-6.0449640">
        <ele>858.0</ele>
        <time>2021-10-12T07:44:37Z</time>
      </trkpt>
      <trkpt lat="42.4397080" lon="-6.0447590">
        <ele>857.0</ele>
        <time>2021-10-12T07:44:40Z</time>
      </trkpt>
      <trkpt lat="42.4396750" lon="-6.0447000">
        <ele>856.8</ele>
        <time>2021-10-12T07:44:41Z</time>
      </trkpt>
      <trkpt lat="42.4396380" lon="-6.0446500">
        <ele>856.8</ele>
        <time>2021-10-12T07:44:42Z</time>
      </trkpt>
      <trkpt lat="42.4394100" lon="-6.0444190">
        <ele>856.2</ele>
        <time>2021-10-12T07:44:48Z</time>
      </trkpt>
      <trkpt lat="42.4393730" lon="-6.0443920">
        <ele>856.2</ele>
        <time>2021-10-12T07:44:49Z</time>
      </trkpt>
      <trkpt lat="42.4392150" lon="-6.0443120">
        <ele>856.0</ele>
        <time>2021-10-12T07:44:53Z</time>
      </trkpt>
      <trkpt lat="42.4391730" lon="-6.0443050">
        <ele>856.0</ele>
        <time>2021-10-12T07:44:54Z</time>
      </trkpt>
      <trkpt lat="42.4391290" lon="-6.0443000">
        <ele>856.0</ele>
        <time>2021-10-12T07:44:55Z</time>
      </trkpt>
      <trkpt lat="42.4390870" lon="-6.0442930">
        <ele>856.0</ele>
        <time>2021-10-12T07:44:56Z</time>
      </trkpt>
      <trkpt lat="42.4388340" lon="-6.0442740">
        <ele>856.0</ele>
        <time>2021-10-12T07:45:02Z</time>
      </trkpt>
      <trkpt lat="42.4386730" lon="-6.0442530">
        <ele>856.0</ele>
        <time>2021-10-12T07:45:06Z</time>
      </trkpt>
      <trkpt lat="42.4385660" lon="-6.0442490">
        <ele>856.2</ele>
        <time>2021-10-12T07:45:09Z</time>
      </trkpt>
      <trkpt lat="42.4385440" lon="-6.0442520">
        <ele>856.2</ele>
        <time>2021-10-12T07:45:10Z</time>
      </trkpt>
      <trkpt lat="42.4384300" lon="-6.0442380">
        <ele>856.2</ele>
        <time>2021-10-12T07:45:13Z</time>
      </trkpt>
      <trkpt lat="42.4381490" lon="-6.0441240">
        <ele>856.6</ele>
        <time>2021-10-12T07:45:21Z</time>
      </trkpt>
      <trkpt lat="42.4380410" lon="-6.0440250">
        <ele>857.2</ele>
        <time>2021-10-12T07:45:25Z</time>
      </trkpt>
      <trkpt lat="42.4379980" lon="-6.0439570">
        <ele>857.4</ele>
        <time>2021-10-12T07:45:27Z</time>
      </trkpt>
      <trkpt lat="42.4378850" lon="-6.0437670">
        <ele>858.2</ele>
        <time>2021-10-12T07:45:33Z</time>
      </trkpt>
      <trkpt lat="42.4378700" lon="-6.0437380">
        <ele>858.4</ele>
        <time>2021-10-12T07:45:34Z</time>
      </trkpt>
      <trkpt lat="42.4377940" lon="-6.0435800">
        <ele>859.4</ele>
        <time>2021-10-12T07:45:40Z</time>
      </trkpt>
      <trkpt lat="42.4376600" lon="-6.0434590">
        <ele>860.2</ele>
        <time>2021-10-12T07:45:47Z</time>
      </trkpt>
      <trkpt lat="42.4376460" lon="-6.0434470">
        <ele>860.4</ele>
        <time>2021-10-12T07:45:48Z</time>
      </trkpt>
      <trkpt lat="42.4375520" lon="-6.0433970">
        <ele>861.0</ele>
        <time>2021-10-12T07:45:53Z</time>
      </trkpt>
      <trkpt lat="42.4374720" lon="-6.0433690">
        <ele>861.6</ele>
        <time>2021-10-12T07:45:57Z</time>
      </trkpt>
      <trkpt lat="42.4373670" lon="-6.0433450">
        <ele>862.4</ele>
        <time>2021-10-12T07:46:02Z</time>
      </trkpt>
      <trkpt lat="42.4373320" lon="-6.0433380">
        <ele>862.6</ele>
        <time>2021-10-12T07:46:04Z</time>
      </trkpt>
      <trkpt lat="42.4372010" lon="-6.0433200">
        <ele>863.4</ele>
        <time>2021-10-12T07:46:10Z</time>
      </trkpt>
      <trkpt lat="42.4371600" lon="-6.0433200">
        <ele>863.6</ele>
        <time>2021-10-12T07:46:12Z</time>
      </trkpt>
      <trkpt lat="42.4370790" lon="-6.0433150">
        <ele>864.4</ele>
        <time>2021-10-12T07:46:16Z</time>
      </trkpt>
      <trkpt lat="42.4370570" lon="-6.0433130">
        <ele>864.6</ele>
        <time>2021-10-12T07:46:17Z</time>
      </trkpt>
      <trkpt lat="42.4370350" lon="-6.0433080">
        <ele>864.6</ele>
        <time>2021-10-12T07:46:18Z</time>
      </trkpt>
      <trkpt lat="42.4369950" lon="-6.0433080">
        <ele>865.0</ele>
        <time>2021-10-12T07:46:20Z</time>
      </trkpt>
      <trkpt lat="42.4369340" lon="-6.0433090">
        <ele>865.2</ele>
        <time>2021-10-12T07:46:23Z</time>
      </trkpt>
      <trkpt lat="42.4368730" lon="-6.0433050">
        <ele>865.6</ele>
        <time>2021-10-12T07:46:26Z</time>
      </trkpt>
      <trkpt lat="42.4368250" lon="-6.0433040">
        <ele>865.6</ele>
        <time>2021-10-12T07:46:28Z</time>
      </trkpt>
      <trkpt lat="42.4367470" lon="-6.0432800">
        <ele>865.8</ele>
        <time>2021-10-12T07:46:31Z</time>
      </trkpt>
      <trkpt lat="42.4367040" lon="-6.0432610">
        <ele>865.8</ele>
        <time>2021-10-12T07:46:33Z</time>
      </trkpt>
      <trkpt lat="42.4364990" lon="-6.0431750">
        <ele>865.6</ele>
        <time>2021-10-12T07:46:40Z</time>
      </trkpt>
      <trkpt lat="42.4362570" lon="-6.0430550">
        <ele>865.0</ele>
        <time>2021-10-12T07:46:45Z</time>
      </trkpt>
      <trkpt lat="42.4362010" lon="-6.0430210">
        <ele>864.6</ele>
        <time>2021-10-12T07:46:46Z</time>
      </trkpt>
      <trkpt lat="42.4359610" lon="-6.0428790">
        <ele>863.8</ele>
        <time>2021-10-12T07:46:50Z</time>
      </trkpt>
      <trkpt lat="42.4359010" lon="-6.0428400">
        <ele>862.8</ele>
        <time>2021-10-12T07:46:51Z</time>
      </trkpt>
      <trkpt lat="42.4358400" lon="-6.0427990">
        <ele>862.2</ele>
        <time>2021-10-12T07:46:52Z</time>
      </trkpt>
      <trkpt lat="42.4357810" lon="-6.0427580">
        <ele>861.6</ele>
        <time>2021-10-12T07:46:53Z</time>
      </trkpt>
      <trkpt lat="42.4356040" lon="-6.0426450">
        <ele>860.4</ele>
        <time>2021-10-12T07:46:56Z</time>
      </trkpt>
      <trkpt lat="42.4354380" lon="-6.0425370">
        <ele>859.0</ele>
        <time>2021-10-12T07:46:59Z</time>
      </trkpt>
      <trkpt lat="42.4353240" lon="-6.0424630">
        <ele>858.4</ele>
        <time>2021-10-12T07:47:01Z</time>
      </trkpt>
      <trkpt lat="42.4352110" lon="-6.0423900">
        <ele>857.4</ele>
        <time>2021-10-12T07:47:03Z</time>
      </trkpt>
      <trkpt lat="42.4349740" lon="-6.0422480">
        <ele>856.2</ele>
        <time>2021-10-12T07:47:07Z</time>
      </trkpt>
      <trkpt lat="42.4348510" lon="-6.0421880">
        <ele>855.0</ele>
        <time>2021-10-12T07:47:09Z</time>
      </trkpt>
      <trkpt lat="42.4347880" lon="-6.0421580">
        <ele>854.6</ele>
        <time>2021-10-12T07:47:10Z</time>
      </trkpt>
      <trkpt lat="42.4346620" lon="-6.0421010">
        <ele>853.6</ele>
        <time>2021-10-12T07:47:12Z</time>
      </trkpt>
      <trkpt lat="42.4344200" lon="-6.0420040">
        <ele>853.0</ele>
        <time>2021-10-12T07:47:16Z</time>
      </trkpt>
      <trkpt lat="42.4343640" lon="-6.0419790">
        <ele>852.6</ele>
        <time>2021-10-12T07:47:17Z</time>
      </trkpt>
      <trkpt lat="42.4342580" lon="-6.0419360">
        <ele>852.0</ele>
        <time>2021-10-12T07:47:19Z</time>
      </trkpt>
      <trkpt lat="42.4339830" lon="-6.0418200">
        <ele>851.4</ele>
        <time>2021-10-12T07:47:25Z</time>
      </trkpt>
      <trkpt lat="42.4337280" lon="-6.0416980">
        <ele>851.6</ele>
        <time>2021-10-12T07:47:32Z</time>
      </trkpt>
      <trkpt lat="42.4335630" lon="-6.0416310">
        <ele>851.6</ele>
        <time>2021-10-12T07:47:37Z</time>
      </trkpt>
      <trkpt lat="42.4333300" lon="-6.0415260">
        <ele>851.8</ele>
        <time>2021-10-12T07:47:44Z</time>
      </trkpt>
      <trkpt lat="42.4330950" lon="-6.0414210">
        <ele>852.6</ele>
        <time>2021-10-12T07:47:52Z</time>
      </trkpt>
      <trkpt lat="42.4328890" lon="-6.0413320">
        <ele>853.6</ele>
        <time>2021-10-12T07:47:59Z</time>
      </trkpt>
      <trkpt lat="42.4328050" lon="-6.0412920">
        <ele>853.8</ele>
        <time>2021-10-12T07:48:02Z</time>
      </trkpt>
      <trkpt lat="42.4326190" lon="-6.0412050">
        <ele>854.6</ele>
        <time>2021-10-12T07:48:09Z</time>
      </trkpt>
      <trkpt lat="42.4325900" lon="-6.0411930">
        <ele>855.0</ele>
        <time>2021-10-12T07:48:10Z</time>
      </trkpt>
      <trkpt lat="42.4325610" lon="-6.0411800">
        <ele>855.0</ele>
        <time>2021-10-12T07:48:11Z</time>
      </trkpt>
      <trkpt lat="42.4322960" lon="-6.0410610">
        <ele>855.6</ele>
        <time>2021-10-12T07:48:20Z</time>
      </trkpt>
      <trkpt lat="42.4322150" lon="-6.0410040">
        <ele>855.8</ele>
        <time>2021-10-12T07:48:23Z</time>
      </trkpt>
      <trkpt lat="42.4321240" lon="-6.0409010">
        <ele>856.2</ele>
        <time>2021-10-12T07:48:27Z</time>
      </trkpt>
      <trkpt lat="42.4319950" lon="-6.0406760">
        <ele>856.8</ele>
        <time>2021-10-12T07:48:35Z</time>
      </trkpt>
      <trkpt lat="42.4319830" lon="-6.0406520">
        <ele>857.0</ele>
        <time>2021-10-12T07:48:36Z</time>
      </trkpt>
      <trkpt lat="42.4319250" lon="-6.0405180">
        <ele>858.2</ele>
        <time>2021-10-12T07:48:42Z</time>
      </trkpt>
      <trkpt lat="42.4319090" lon="-6.0404720">
        <ele>858.6</ele>
        <time>2021-10-12T07:48:44Z</time>
      </trkpt>
      <trkpt lat="42.4318800" lon="-6.0404070">
        <ele>859.2</ele>
        <time>2021-10-12T07:48:47Z</time>
      </trkpt>
      <trkpt lat="42.4318480" lon="-6.0403230">
        <ele>860.0</ele>
        <time>2021-10-12T07:48:51Z</time>
      </trkpt>
      <trkpt lat="42.4318370" lon="-6.0403040">
        <ele>860.4</ele>
        <time>2021-10-12T07:48:52Z</time>
      </trkpt>
      <trkpt lat="42.4318010" lon="-6.0402240">
        <ele>861.4</ele>
        <time>2021-10-12T07:48:56Z</time>
      </trkpt>
      <trkpt lat="42.4317700" lon="-6.0401430">
        <ele>862.0</ele>
        <time>2021-10-12T07:49:00Z</time>
      </trkpt>
      <trkpt lat="42.4317430" lon="-6.0400550">
        <ele>862.4</ele>
        <time>2021-10-12T07:49:04Z</time>
      </trkpt>
      <trkpt lat="42.4316900" lon="-6.0399120">
        <ele>863.0</ele>
        <time>2021-10-12T07:49:10Z</time>
      </trkpt>
      <trkpt lat="42.4316230" lon="-6.0397710">
        <ele>863.4</ele>
        <time>2021-10-12T07:49:16Z</time>
      </trkpt>
      <trkpt lat="42.4316110" lon="-6.0397460">
        <ele>863.4</ele>
        <time>2021-10-12T07:49:17Z</time>
      </trkpt>
      <trkpt lat="42.4315750" lon="-6.0396710">
        <ele>863.6</ele>
        <time>2021-10-12T07:49:20Z</time>
      </trkpt>
      <trkpt lat="42.4315620" lon="-6.0396480">
        <ele>863.6</ele>
        <time>2021-10-12T07:49:21Z</time>
      </trkpt>
      <trkpt lat="42.4314710" lon="-6.0394510">
        <ele>864.0</ele>
        <time>2021-10-12T07:49:29Z</time>
      </trkpt>
      <trkpt lat="42.4313980" lon="-6.0392960">
        <ele>864.6</ele>
        <time>2021-10-12T07:49:35Z</time>
      </trkpt>
      <trkpt lat="42.4313360" lon="-6.0391590">
        <ele>865.0</ele>
        <time>2021-10-12T07:49:40Z</time>
      </trkpt>
      <trkpt lat="42.4313210" lon="-6.0391310">
        <ele>865.0</ele>
        <time>2021-10-12T07:49:41Z</time>
      </trkpt>
      <trkpt lat="42.4311960" lon="-6.0388630">
        <ele>865.0</ele>
        <time>2021-10-12T07:49:50Z</time>
      </trkpt>
      <trkpt lat="42.4311620" lon="-6.0387910">
        <ele>865.0</ele>
        <time>2021-10-12T07:49:52Z</time>
      </trkpt>
      <trkpt lat="42.4310240" lon="-6.0385130">
        <ele>864.8</ele>
        <time>2021-10-12T07:49:58Z</time>
      </trkpt>
      <trkpt lat="42.4309650" lon="-6.0383870">
        <ele>864.8</ele>
        <time>2021-10-12T07:50:00Z</time>
      </trkpt>
      <trkpt lat="42.4309340" lon="-6.0383190">
        <ele>864.8</ele>
        <time>2021-10-12T07:50:01Z</time>
      </trkpt>
      <trkpt lat="42.4308380" lon="-6.0381290">
        <ele>863.6</ele>
        <time>2021-10-12T07:50:04Z</time>
      </trkpt>
      <trkpt lat="42.4308080" lon="-6.0380690">
        <ele>863.4</ele>
        <time>2021-10-12T07:50:05Z</time>
      </trkpt>
      <trkpt lat="42.4306920" lon="-6.0378320">
        <ele>862.8</ele>
        <time>2021-10-12T07:50:09Z</time>
      </trkpt>
      <trkpt lat="42.4306330" lon="-6.0377050">
        <ele>862.2</ele>
        <time>2021-10-12T07:50:11Z</time>
      </trkpt>
      <trkpt lat="42.4306040" lon="-6.0376430">
        <ele>862.2</ele>
        <time>2021-10-12T07:50:12Z</time>
      </trkpt>
      <trkpt lat="42.4304290" lon="-6.0372300">
        <ele>861.2</ele>
        <time>2021-10-12T07:50:18Z</time>
      </trkpt>
      <trkpt lat="42.4304040" lon="-6.0371550">
        <ele>861.0</ele>
        <time>2021-10-12T07:50:19Z</time>
      </trkpt>
      <trkpt lat="42.4303350" lon="-6.0369310">
        <ele>859.8</ele>
        <time>2021-10-12T07:50:22Z</time>
      </trkpt>
      <trkpt lat="42.4302910" lon="-6.0367110">
        <ele>859.2</ele>
        <time>2021-10-12T07:50:25Z</time>
      </trkpt>
      <trkpt lat="42.4302710" lon="-6.0365760">
        <ele>858.8</ele>
        <time>2021-10-12T07:50:27Z</time>
      </trkpt>
      <trkpt lat="42.4302570" lon="-6.0365140">
        <ele>858.6</ele>
        <time>2021-10-12T07:50:28Z</time>
      </trkpt>
      <trkpt lat="42.4302200" lon="-6.0363980">
        <ele>858.2</ele>
        <time>2021-10-12T07:50:30Z</time>
      </trkpt>
      <trkpt lat="42.4301980" lon="-6.0363430">
        <ele>858.2</ele>
        <time>2021-10-12T07:50:31Z</time>
      </trkpt>
      <trkpt lat="42.4301150" lon="-6.0361860">
        <ele>858.0</ele>
        <time>2021-10-12T07:50:34Z</time>
      </trkpt>
      <trkpt lat="42.4300530" lon="-6.0360860">
        <ele>858.0</ele>
        <time>2021-10-12T07:50:36Z</time>
      </trkpt>
      <trkpt lat="42.4299330" lon="-6.0358790">
        <ele>857.8</ele>
        <time>2021-10-12T07:50:40Z</time>
      </trkpt>
      <trkpt lat="42.4299040" lon="-6.0358270">
        <ele>857.6</ele>
        <time>2021-10-12T07:50:41Z</time>
      </trkpt>
      <trkpt lat="42.4298460" lon="-6.0357210">
        <ele>857.4</ele>
        <time>2021-10-12T07:50:43Z</time>
      </trkpt>
      <trkpt lat="42.4296150" lon="-6.0353430">
        <ele>856.6</ele>
        <time>2021-10-12T07:50:50Z</time>
      </trkpt>
      <trkpt lat="42.4295820" lon="-6.0352830">
        <ele>856.6</ele>
        <time>2021-10-12T07:50:51Z</time>
      </trkpt>
      <trkpt lat="42.4295140" lon="-6.0351620">
        <ele>855.6</ele>
        <time>2021-10-12T07:50:53Z</time>
      </trkpt>
      <trkpt lat="42.4294440" lon="-6.0350320">
        <ele>854.6</ele>
        <time>2021-10-12T07:50:55Z</time>
      </trkpt>
      <trkpt lat="42.4293400" lon="-6.0348390">
        <ele>853.4</ele>
        <time>2021-10-12T07:50:58Z</time>
      </trkpt>
      <trkpt lat="42.4292740" lon="-6.0347010">
        <ele>853.0</ele>
        <time>2021-10-12T07:51:00Z</time>
      </trkpt>
      <trkpt lat="42.4292160" lon="-6.0345590">
        <ele>852.4</ele>
        <time>2021-10-12T07:51:02Z</time>
      </trkpt>
      <trkpt lat="42.4291620" lon="-6.0344150">
        <ele>851.4</ele>
        <time>2021-10-12T07:51:04Z</time>
      </trkpt>
      <trkpt lat="42.4291140" lon="-6.0342740">
        <ele>850.2</ele>
        <time>2021-10-12T07:51:06Z</time>
      </trkpt>
      <trkpt lat="42.4290750" lon="-6.0341420">
        <ele>848.8</ele>
        <time>2021-10-12T07:51:08Z</time>
      </trkpt>
      <trkpt lat="42.4290260" lon="-6.0339980">
        <ele>848.2</ele>
        <time>2021-10-12T07:51:10Z</time>
      </trkpt>
      <trkpt lat="42.4289770" lon="-6.0338530">
        <ele>847.8</ele>
        <time>2021-10-12T07:51:12Z</time>
      </trkpt>
      <trkpt lat="42.4288810" lon="-6.0336460">
        <ele>846.6</ele>
        <time>2021-10-12T07:51:15Z</time>
      </trkpt>
      <trkpt lat="42.4288450" lon="-6.0335980">
        <ele>846.2</ele>
        <time>2021-10-12T07:51:16Z</time>
      </trkpt>
      <trkpt lat="42.4288030" lon="-6.0335600">
        <ele>845.8</ele>
        <time>2021-10-12T07:51:17Z</time>
      </trkpt>
      <trkpt lat="42.4287540" lon="-6.0335330">
        <ele>845.4</ele>
        <time>2021-10-12T07:51:18Z</time>
      </trkpt>
      <trkpt lat="42.4287000" lon="-6.0335160">
        <ele>845.2</ele>
        <time>2021-10-12T07:51:19Z</time>
      </trkpt>
      <trkpt lat="42.4285350" lon="-6.0335100">
        <ele>844.4</ele>
        <time>2021-10-12T07:51:22Z</time>
      </trkpt>
      <trkpt lat="42.4284290" lon="-6.0335150">
        <ele>844.2</ele>
        <time>2021-10-12T07:51:24Z</time>
      </trkpt>
      <trkpt lat="42.4282440" lon="-6.0335160">
        <ele>843.6</ele>
        <time>2021-10-12T07:51:28Z</time>
      </trkpt>
      <trkpt lat="42.4282080" lon="-6.0334990">
        <ele>843.4</ele>
        <time>2021-10-12T07:51:29Z</time>
      </trkpt>
      <trkpt lat="42.4281230" lon="-6.0333510">
        <ele>843.0</ele>
        <time>2021-10-12T07:51:33Z</time>
      </trkpt>
      <trkpt lat="42.4281080" lon="-6.0330850">
        <ele>843.0</ele>
        <time>2021-10-12T07:51:38Z</time>
      </trkpt>
      <trkpt lat="42.4281060" lon="-6.0325580">
        <ele>843.8</ele>
        <time>2021-10-12T07:51:47Z</time>
      </trkpt>
      <trkpt lat="42.4281230" lon="-6.0320620">
        <ele>844.6</ele>
        <time>2021-10-12T07:51:56Z</time>
      </trkpt>
      <trkpt lat="42.4281310" lon="-6.0317760">
        <ele>845.4</ele>
        <time>2021-10-12T07:52:02Z</time>
      </trkpt>
      <trkpt lat="42.4281300" lon="-6.0317330">
        <ele>845.8</ele>
        <time>2021-10-12T07:52:03Z</time>
      </trkpt>
      <trkpt lat="42.4281310" lon="-6.0316120">
        <ele>846.8</ele>
        <time>2021-10-12T07:52:06Z</time>
      </trkpt>
      <trkpt lat="42.4281310" lon="-6.0315720">
        <ele>847.2</ele>
        <time>2021-10-12T07:52:07Z</time>
      </trkpt>
      <trkpt lat="42.4281290" lon="-6.0315340">
        <ele>847.4</ele>
        <time>2021-10-12T07:52:08Z</time>
      </trkpt>
      <trkpt lat="42.4281250" lon="-6.0315010">
        <ele>848.0</ele>
        <time>2021-10-12T07:52:09Z</time>
      </trkpt>
      <trkpt lat="42.4281180" lon="-6.0314710">
        <ele>848.2</ele>
        <time>2021-10-12T07:52:10Z</time>
      </trkpt>
      <trkpt lat="42.4280960" lon="-6.0313780">
        <ele>848.6</ele>
        <time>2021-10-12T07:52:13Z</time>
      </trkpt>
      <trkpt lat="42.4280910" lon="-6.0313470">
        <ele>848.6</ele>
        <time>2021-10-12T07:52:14Z</time>
      </trkpt>
      <trkpt lat="42.4280840" lon="-6.0312430">
        <ele>848.6</ele>
        <time>2021-10-12T07:52:17Z</time>
      </trkpt>
      <trkpt lat="42.4280570" lon="-6.0311620">
        <ele>848.8</ele>
        <time>2021-10-12T07:52:20Z</time>
      </trkpt>
      <trkpt lat="42.4280340" lon="-6.0311550">
        <ele>848.6</ele>
        <time>2021-10-12T07:52:21Z</time>
      </trkpt>
      <trkpt lat="42.4279180" lon="-6.0311940">
        <ele>849.0</ele>
        <time>2021-10-12T07:52:26Z</time>
      </trkpt>
      <trkpt lat="42.4278950" lon="-6.0311950">
        <ele>849.0</ele>
        <time>2021-10-12T07:52:27Z</time>
      </trkpt>
      <trkpt lat="42.4278480" lon="-6.0311860">
        <ele>849.0</ele>
        <time>2021-10-12T07:52:29Z</time>
      </trkpt>
      <trkpt lat="42.4278230" lon="-6.0311760">
        <ele>849.0</ele>
        <time>2021-10-12T07:52:30Z</time>
      </trkpt>
      <trkpt lat="42.4277760" lon="-6.0311460">
        <ele>849.0</ele>
        <time>2021-10-12T07:52:32Z</time>
      </trkpt>
      <trkpt lat="42.4277300" lon="-6.0311170">
        <ele>849.0</ele>
        <time>2021-10-12T07:52:34Z</time>
      </trkpt>
      <trkpt lat="42.4276400" lon="-6.0310500">
        <ele>849.0</ele>
        <time>2021-10-12T07:52:38Z</time>
      </trkpt>
      <trkpt lat="42.4274960" lon="-6.0309420">
        <ele>848.8</ele>
        <time>2021-10-12T07:52:44Z</time>
      </trkpt>
      <trkpt lat="42.4273380" lon="-6.0308180">
        <ele>848.6</ele>
        <time>2021-10-12T07:52:51Z</time>
      </trkpt>
      <trkpt lat="42.4272800" lon="-6.0308050">
        <ele>848.4</ele>
        <time>2021-10-12T07:52:53Z</time>
      </trkpt>
      <trkpt lat="42.4270990" lon="-6.0307890">
        <ele>848.0</ele>
        <time>2021-10-12T07:52:59Z</time>
      </trkpt>
      <trkpt lat="42.4270690" lon="-6.0307850">
        <ele>848.0</ele>
        <time>2021-10-12T07:53:00Z</time>
      </trkpt>
      <trkpt lat="42.4269030" lon="-6.0307580">
        <ele>847.8</ele>
        <time>2021-10-12T07:53:06Z</time>
      </trkpt>
      <trkpt lat="42.4268610" lon="-6.0307180">
        <ele>847.8</ele>
        <time>2021-10-12T07:53:08Z</time>
      </trkpt>
      <trkpt lat="42.4268240" lon="-6.0306090">
        <ele>847.6</ele>
        <time>2021-10-12T07:53:11Z</time>
      </trkpt>
      <trkpt lat="42.4268150" lon="-6.0305160">
        <ele>847.6</ele>
        <time>2021-10-12T07:53:13Z</time>
      </trkpt>
      <trkpt lat="42.4268020" lon="-6.0303010">
        <ele>847.0</ele>
        <time>2021-10-12T07:53:18Z</time>
      </trkpt>
      <trkpt lat="42.4267870" lon="-6.0302410">
        <ele>846.8</ele>
        <time>2021-10-12T07:53:20Z</time>
      </trkpt>
      <trkpt lat="42.4267230" lon="-6.0301720">
        <ele>846.4</ele>
        <time>2021-10-12T07:53:24Z</time>
      </trkpt>
      <trkpt lat="42.4266890" lon="-6.0301600">
        <ele>846.4</ele>
        <time>2021-10-12T07:53:26Z</time>
      </trkpt>
      <trkpt lat="42.4265800" lon="-6.0301410">
        <ele>846.2</ele>
        <time>2021-10-12T07:53:31Z</time>
      </trkpt>
      <trkpt lat="42.4264930" lon="-6.0301550">
        <ele>846.2</ele>
        <time>2021-10-12T07:53:34Z</time>
      </trkpt>
      <trkpt lat="42.4263050" lon="-6.0302330">
        <ele>846.0</ele>
        <time>2021-10-12T07:53:39Z</time>
      </trkpt>
      <trkpt lat="42.4262780" lon="-6.0302470">
        <ele>846.0</ele>
        <time>2021-10-12T07:53:40Z</time>
      </trkpt>
      <trkpt lat="42.4259580" lon="-6.0303270">
        <ele>845.8</ele>
        <time>2021-10-12T07:53:48Z</time>
      </trkpt>
      <trkpt lat="42.4256430" lon="-6.0303400">
        <ele>845.4</ele>
        <time>2021-10-12T07:53:56Z</time>
      </trkpt>
      <trkpt lat="42.4253040" lon="-6.0303160">
        <ele>845.2</ele>
        <time>2021-10-12T07:54:05Z</time>
      </trkpt>
      <trkpt lat="42.4250270" lon="-6.0303640">
        <ele>845.2</ele>
        <time>2021-10-12T07:54:13Z</time>
      </trkpt>
      <trkpt lat="42.4248540" lon="-6.0304840">
        <ele>845.4</ele>
        <time>2021-10-12T07:54:19Z</time>
      </trkpt>
      <trkpt lat="42.4246710" lon="-6.0306950">
        <ele>845.6</ele>
        <time>2021-10-12T07:54:26Z</time>
      </trkpt>
      <trkpt lat="42.4245470" lon="-6.0308600">
        <ele>845.8</ele>
        <time>2021-10-12T07:54:31Z</time>
      </trkpt>
      <trkpt lat="42.4245210" lon="-6.0308900">
        <ele>845.8</ele>
        <time>2021-10-12T07:54:32Z</time>
      </trkpt>
      <trkpt lat="42.4244360" lon="-6.0309710">
        <ele>845.8</ele>
        <time>2021-10-12T07:54:35Z</time>
      </trkpt>
      <trkpt lat="42.4241640" lon="-6.0311700">
        <ele>846.4</ele>
        <time>2021-10-12T07:54:44Z</time>
      </trkpt>
      <trkpt lat="42.4238710" lon="-6.0313760">
        <ele>846.8</ele>
        <time>2021-10-12T07:54:54Z</time>
      </trkpt>
      <trkpt lat="42.4237610" lon="-6.0314860">
        <ele>847.0</ele>
        <time>2021-10-12T07:54:58Z</time>
      </trkpt>
      <trkpt lat="42.4236820" lon="-6.0315580">
        <ele>847.2</ele>
        <time>2021-10-12T07:55:01Z</time>
      </trkpt>
      <trkpt lat="42.4234480" lon="-6.0318060">
        <ele>847.4</ele>
        <time>2021-10-12T07:55:10Z</time>
      </trkpt>
      <trkpt lat="42.4232940" lon="-6.0319750">
        <ele>847.4</ele>
        <time>2021-10-12T07:55:16Z</time>
      </trkpt>
      <trkpt lat="42.4232280" lon="-6.0320600">
        <ele>847.8</ele>
        <time>2021-10-12T07:55:19Z</time>
      </trkpt>
      <trkpt lat="42.4231320" lon="-6.0321720">
        <ele>848.0</ele>
        <time>2021-10-12T07:55:23Z</time>
      </trkpt>
      <trkpt lat="42.4229860" lon="-6.0323380">
        <ele>848.4</ele>
        <time>2021-10-12T07:55:29Z</time>
      </trkpt>
      <trkpt lat="42.4228460" lon="-6.0325090">
        <ele>848.2</ele>
        <time>2021-10-12T07:55:36Z</time>
      </trkpt>
      <trkpt lat="42.4228300" lon="-6.0325210">
        <ele>848.2</ele>
        <time>2021-10-12T07:55:37Z</time>
      </trkpt>
      <trkpt lat="42.4227810" lon="-6.0325340">
        <ele>848.0</ele>
        <time>2021-10-12T07:55:39Z</time>
      </trkpt>
      <trkpt lat="42.4227320" lon="-6.0325080">
        <ele>847.6</ele>
        <time>2021-10-12T07:55:41Z</time>
      </trkpt>
      <trkpt lat="42.4226880" lon="-6.0324650">
        <ele>847.6</ele>
        <time>2021-10-12T07:55:43Z</time>
      </trkpt>
      <trkpt lat="42.4226660" lon="-6.0323710">
        <ele>847.4</ele>
        <time>2021-10-12T07:55:46Z</time>
      </trkpt>
      <trkpt lat="42.4226230" lon="-6.0321880">
        <ele>848.2</ele>
        <time>2021-10-12T07:55:52Z</time>
      </trkpt>
      <trkpt lat="42.4225730" lon="-6.0320850">
        <ele>849.0</ele>
        <time>2021-10-12T07:55:56Z</time>
      </trkpt>
      <trkpt lat="42.4224790" lon="-6.0320120">
        <ele>849.8</ele>
        <time>2021-10-12T07:56:01Z</time>
      </trkpt>
      <trkpt lat="42.4223880" lon="-6.0320150">
        <ele>850.2</ele>
        <time>2021-10-12T07:56:05Z</time>
      </trkpt>
      <trkpt lat="42.4223270" lon="-6.0320170">
        <ele>850.6</ele>
        <time>2021-10-12T07:56:08Z</time>
      </trkpt>
      <trkpt lat="42.4222450" lon="-6.0320320">
        <ele>851.2</ele>
        <time>2021-10-12T07:56:12Z</time>
      </trkpt>
      <trkpt lat="42.4221660" lon="-6.0320300">
        <ele>852.0</ele>
        <time>2021-10-12T07:56:16Z</time>
      </trkpt>
      <trkpt lat="42.4221290" lon="-6.0320240">
        <ele>852.6</ele>
        <time>2021-10-12T07:56:18Z</time>
      </trkpt>
      <trkpt lat="42.4220690" lon="-6.0320060">
        <ele>852.8</ele>
        <time>2021-10-12T07:56:21Z</time>
      </trkpt>
      <trkpt lat="42.4220490" lon="-6.0319970">
        <ele>853.0</ele>
        <time>2021-10-12T07:56:22Z</time>
      </trkpt>
      <trkpt lat="42.4219960" lon="-6.0319550">
        <ele>853.6</ele>
        <time>2021-10-12T07:56:25Z</time>
      </trkpt>
      <trkpt lat="42.4219500" lon="-6.0318950">
        <ele>854.0</ele>
        <time>2021-10-12T07:56:28Z</time>
      </trkpt>
      <trkpt lat="42.4218780" lon="-6.0317280">
        <ele>854.4</ele>
        <time>2021-10-12T07:56:34Z</time>
      </trkpt>
      <trkpt lat="42.4218410" lon="-6.0316460">
        <ele>854.4</ele>
        <time>2021-10-12T07:56:37Z</time>
      </trkpt>
      <trkpt lat="42.4218310" lon="-6.0316180">
        <ele>854.4</ele>
        <time>2021-10-12T07:56:38Z</time>
      </trkpt>
      <trkpt lat="42.4218130" lon="-6.0315600">
        <ele>854.6</ele>
        <time>2021-10-12T07:56:40Z</time>
      </trkpt>
      <trkpt lat="42.4217870" lon="-6.0314420">
        <ele>854.6</ele>
        <time>2021-10-12T07:56:44Z</time>
      </trkpt>
      <trkpt lat="42.4217720" lon="-6.0313530">
        <ele>854.8</ele>
        <time>2021-10-12T07:56:47Z</time>
      </trkpt>
      <trkpt lat="42.4217620" lon="-6.0312650">
        <ele>855.0</ele>
        <time>2021-10-12T07:56:50Z</time>
      </trkpt>
      <trkpt lat="42.4217240" lon="-6.0310330">
        <ele>853.6</ele>
        <time>2021-10-12T07:56:58Z</time>
      </trkpt>
      <trkpt lat="42.4217180" lon="-6.0310030">
        <ele>856.0</ele>
        <time>2021-10-12T07:56:59Z</time>
      </trkpt>
      <trkpt lat="42.4216490" lon="-6.0307400">
        <ele>856.8</ele>
        <time>2021-10-12T07:57:08Z</time>
      </trkpt>
      <trkpt lat="42.4216330" lon="-6.0306890">
        <ele>857.0</ele>
        <time>2021-10-12T07:57:10Z</time>
      </trkpt>
      <trkpt lat="42.4215840" lon="-6.0304870">
        <ele>857.8</ele>
        <time>2021-10-12T07:57:17Z</time>
      </trkpt>
      <trkpt lat="42.4215750" lon="-6.0304500">
        <ele>858.0</ele>
        <time>2021-10-12T07:57:18Z</time>
      </trkpt>
      <trkpt lat="42.4215680" lon="-6.0303940">
        <ele>858.2</ele>
        <time>2021-10-12T07:57:20Z</time>
      </trkpt>
      <trkpt lat="42.4215370" lon="-6.0301710">
        <ele>859.2</ele>
        <time>2021-10-12T07:57:27Z</time>
      </trkpt>
      <trkpt lat="42.4214840" lon="-6.0299250">
        <ele>860.4</ele>
        <time>2021-10-12T07:57:35Z</time>
      </trkpt>
      <trkpt lat="42.4214670" lon="-6.0298610">
        <ele>860.6</ele>
        <time>2021-10-12T07:57:37Z</time>
      </trkpt>
      <trkpt lat="42.4214140" lon="-6.0296210">
        <ele>861.2</ele>
        <time>2021-10-12T07:57:46Z</time>
      </trkpt>
      <trkpt lat="42.4214050" lon="-6.0295710">
        <ele>861.4</ele>
        <time>2021-10-12T07:57:48Z</time>
      </trkpt>
      <trkpt lat="42.4213930" lon="-6.0294780">
        <ele>861.4</ele>
        <time>2021-10-12T07:57:51Z</time>
      </trkpt>
      <trkpt lat="42.4213890" lon="-6.0294260">
        <ele>861.4</ele>
        <time>2021-10-12T07:57:53Z</time>
      </trkpt>
      <trkpt lat="42.4213750" lon="-6.0293660">
        <ele>861.2</ele>
        <time>2021-10-12T07:57:55Z</time>
      </trkpt>
      <trkpt lat="42.4213590" lon="-6.0293190">
        <ele>861.0</ele>
        <time>2021-10-12T07:58:00Z</time>
      </trkpt>
      <trkpt lat="42.4213590" lon="-6.0293190">
        <ele>860.8</ele>
        <time>2021-10-12T07:58:01Z</time>
      </trkpt>
      <trkpt lat="42.4213630" lon="-6.0292620">
        <ele>861.0</ele>
        <time>2021-10-12T07:59:44Z</time>
      </trkpt>
      <trkpt lat="42.4213660" lon="-6.0292290">
        <ele>861.0</ele>
        <time>2021-10-12T07:59:45Z</time>
      </trkpt>
      <trkpt lat="42.4213620" lon="-6.0291910">
        <ele>861.0</ele>
        <time>2021-10-12T07:59:46Z</time>
      </trkpt>
      <trkpt lat="42.4213320" lon="-6.0289580">
        <ele>860.8</ele>
        <time>2021-10-12T07:59:52Z</time>
      </trkpt>
      <trkpt lat="42.4213040" lon="-6.0288110">
        <ele>860.6</ele>
        <time>2021-10-12T07:59:55Z</time>
      </trkpt>
      <trkpt lat="42.4212840" lon="-6.0287130">
        <ele>860.4</ele>
        <time>2021-10-12T07:59:57Z</time>
      </trkpt>
      <trkpt lat="42.4212660" lon="-6.0285810">
        <ele>860.2</ele>
        <time>2021-10-12T07:59:59Z</time>
      </trkpt>
      <trkpt lat="42.4212690" lon="-6.0283940">
        <ele>859.8</ele>
        <time>2021-10-12T08:00:02Z</time>
      </trkpt>
      <trkpt lat="42.4212710" lon="-6.0283110">
        <ele>859.4</ele>
        <time>2021-10-12T08:00:03Z</time>
      </trkpt>
      <trkpt lat="42.4212730" lon="-6.0279190">
        <ele>858.2</ele>
        <time>2021-10-12T08:00:08Z</time>
      </trkpt>
      <trkpt lat="42.4212720" lon="-6.0276030">
        <ele>857.2</ele>
        <time>2021-10-12T08:00:12Z</time>
      </trkpt>
      <trkpt lat="42.4212690" lon="-6.0274650">
        <ele>856.8</ele>
        <time>2021-10-12T08:00:14Z</time>
      </trkpt>
      <trkpt lat="42.4212370" lon="-6.0270450">
        <ele>856.6</ele>
        <time>2021-10-12T08:00:21Z</time>
      </trkpt>
      <trkpt lat="42.4211900" lon="-6.0269500">
        <ele>856.6</ele>
        <time>2021-10-12T08:00:23Z</time>
      </trkpt>
      <trkpt lat="42.4211290" lon="-6.0268780">
        <ele>856.6</ele>
        <time>2021-10-12T08:00:25Z</time>
      </trkpt>
      <trkpt lat="42.4207730" lon="-6.0265540">
        <ele>856.4</ele>
        <time>2021-10-12T08:00:33Z</time>
      </trkpt>
      <trkpt lat="42.4206780" lon="-6.0264660">
        <ele>856.0</ele>
        <time>2021-10-12T08:00:35Z</time>
      </trkpt>
      <trkpt lat="42.4204670" lon="-6.0262600">
        <ele>855.0</ele>
        <time>2021-10-12T08:00:39Z</time>
      </trkpt>
      <trkpt lat="42.4203990" lon="-6.0262010">
        <ele>854.4</ele>
        <time>2021-10-12T08:00:40Z</time>
      </trkpt>
      <trkpt lat="42.4202450" lon="-6.0260680">
        <ele>853.8</ele>
        <time>2021-10-12T08:00:43Z</time>
      </trkpt>
      <trkpt lat="42.4201010" lon="-6.0259370">
        <ele>853.2</ele>
        <time>2021-10-12T08:00:46Z</time>
      </trkpt>
      <trkpt lat="42.4200330" lon="-6.0258770">
        <ele>852.8</ele>
        <time>2021-10-12T08:00:48Z</time>
      </trkpt>
      <trkpt lat="42.4198860" lon="-6.0257560">
        <ele>852.2</ele>
        <time>2021-10-12T08:00:52Z</time>
      </trkpt>
      <trkpt lat="42.4196040" lon="-6.0255770">
        <ele>851.6</ele>
        <time>2021-10-12T08:00:59Z</time>
      </trkpt>
      <trkpt lat="42.4194750" lon="-6.0254900">
        <ele>850.4</ele>
        <time>2021-10-12T08:01:02Z</time>
      </trkpt>
      <trkpt lat="42.4193920" lon="-6.0254100">
        <ele>850.0</ele>
        <time>2021-10-12T08:01:04Z</time>
      </trkpt>
      <trkpt lat="42.4193580" lon="-6.0253680">
        <ele>849.8</ele>
        <time>2021-10-12T08:01:05Z</time>
      </trkpt>
      <trkpt lat="42.4193220" lon="-6.0253280">
        <ele>849.6</ele>
        <time>2021-10-12T08:01:06Z</time>
      </trkpt>
      <trkpt lat="42.4191470" lon="-6.0252030">
        <ele>849.4</ele>
        <time>2021-10-12T08:01:10Z</time>
      </trkpt>
      <trkpt lat="42.4191010" lon="-6.0251770">
        <ele>849.4</ele>
        <time>2021-10-12T08:01:11Z</time>
      </trkpt>
      <trkpt lat="42.4187910" lon="-6.0249960">
        <ele>849.0</ele>
        <time>2021-10-12T08:01:18Z</time>
      </trkpt>
      <trkpt lat="42.4186170" lon="-6.0248360">
        <ele>848.0</ele>
        <time>2021-10-12T08:01:22Z</time>
      </trkpt>
      <trkpt lat="42.4184700" lon="-6.0247050">
        <ele>847.6</ele>
        <time>2021-10-12T08:01:26Z</time>
      </trkpt>
      <trkpt lat="42.4183540" lon="-6.0245940">
        <ele>847.0</ele>
        <time>2021-10-12T08:01:30Z</time>
      </trkpt>
      <trkpt lat="42.4182970" lon="-6.0245290">
        <ele>847.0</ele>
        <time>2021-10-12T08:01:32Z</time>
      </trkpt>
      <trkpt lat="42.4181580" lon="-6.0243090">
        <ele>847.2</ele>
        <time>2021-10-12T08:01:38Z</time>
      </trkpt>
      <trkpt lat="42.4181420" lon="-6.0242730">
        <ele>847.2</ele>
        <time>2021-10-12T08:01:39Z</time>
      </trkpt>
      <trkpt lat="42.4179420" lon="-6.0238470">
        <ele>847.2</ele>
        <time>2021-10-12T08:01:48Z</time>
      </trkpt>
      <trkpt lat="42.4179150" lon="-6.0238070">
        <ele>847.2</ele>
        <time>2021-10-12T08:01:49Z</time>
      </trkpt>
      <trkpt lat="42.4178940" lon="-6.0237740">
        <ele>847.0</ele>
        <time>2021-10-12T08:01:50Z</time>
      </trkpt>
      <trkpt lat="42.4177000" lon="-6.0235110">
        <ele>846.4</ele>
        <time>2021-10-12T08:01:56Z</time>
      </trkpt>
      <trkpt lat="42.4176290" lon="-6.0234270">
        <ele>846.2</ele>
        <time>2021-10-12T08:01:58Z</time>
      </trkpt>
      <trkpt lat="42.4175920" lon="-6.0233320">
        <ele>846.0</ele>
        <time>2021-10-12T08:02:00Z</time>
      </trkpt>
      <trkpt lat="42.4174840" lon="-6.0230530">
        <ele>845.2</ele>
        <time>2021-10-12T08:02:05Z</time>
      </trkpt>
      <trkpt lat="42.4173980" lon="-6.0228600">
        <ele>844.8</ele>
        <time>2021-10-12T08:02:08Z</time>
      </trkpt>
      <trkpt lat="42.4172740" lon="-6.0225640">
        <ele>843.8</ele>
        <time>2021-10-12T08:02:12Z</time>
      </trkpt>
      <trkpt lat="42.4172480" lon="-6.0224820">
        <ele>843.8</ele>
        <time>2021-10-12T08:02:13Z</time>
      </trkpt>
      <trkpt lat="42.4171870" lon="-6.0223120">
        <ele>843.2</ele>
        <time>2021-10-12T08:02:15Z</time>
      </trkpt>
      <trkpt lat="42.4171270" lon="-6.0221930">
        <ele>842.2</ele>
        <time>2021-10-12T08:02:17Z</time>
      </trkpt>
      <trkpt lat="42.4170840" lon="-6.0221230">
        <ele>842.0</ele>
        <time>2021-10-12T08:02:18Z</time>
      </trkpt>
      <trkpt lat="42.4170300" lon="-6.0220190">
        <ele>841.6</ele>
        <time>2021-10-12T08:02:20Z</time>
      </trkpt>
      <trkpt lat="42.4169710" lon="-6.0218500">
        <ele>841.0</ele>
        <time>2021-10-12T08:02:23Z</time>
      </trkpt>
      <trkpt lat="42.4169540" lon="-6.0217880">
        <ele>841.0</ele>
        <time>2021-10-12T08:02:24Z</time>
      </trkpt>
      <trkpt lat="42.4168870" lon="-6.0216300">
        <ele>841.0</ele>
        <time>2021-10-12T08:02:28Z</time>
      </trkpt>
      <trkpt lat="42.4166890" lon="-6.0213060">
        <ele>840.8</ele>
        <time>2021-10-12T08:02:35Z</time>
      </trkpt>
      <trkpt lat="42.4166210" lon="-6.0212160">
        <ele>840.2</ele>
        <time>2021-10-12T08:02:37Z</time>
      </trkpt>
      <trkpt lat="42.4165520" lon="-6.0211060">
        <ele>840.0</ele>
        <time>2021-10-12T08:02:39Z</time>
      </trkpt>
      <trkpt lat="42.4165260" lon="-6.0210600">
        <ele>839.8</ele>
        <time>2021-10-12T08:02:40Z</time>
      </trkpt>
      <trkpt lat="42.4164350" lon="-6.0208710">
        <ele>839.6</ele>
        <time>2021-10-12T08:02:45Z</time>
      </trkpt>
      <trkpt lat="42.4163450" lon="-6.0206680">
        <ele>839.8</ele>
        <time>2021-10-12T08:02:51Z</time>
      </trkpt>
      <trkpt lat="42.4162180" lon="-6.0205010">
        <ele>840.0</ele>
        <time>2021-10-12T08:02:56Z</time>
      </trkpt>
      <trkpt lat="42.4161780" lon="-6.0204520">
        <ele>840.0</ele>
        <time>2021-10-12T08:02:57Z</time>
      </trkpt>
      <trkpt lat="42.4160180" lon="-6.0202550">
        <ele>840.0</ele>
        <time>2021-10-12T08:03:02Z</time>
      </trkpt>
      <trkpt lat="42.4158520" lon="-6.0201560">
        <ele>839.6</ele>
        <time>2021-10-12T08:03:06Z</time>
      </trkpt>
      <trkpt lat="42.4157330" lon="-6.0201160">
        <ele>839.2</ele>
        <time>2021-10-12T08:03:08Z</time>
      </trkpt>
      <trkpt lat="42.4156870" lon="-6.0201060">
        <ele>838.8</ele>
        <time>2021-10-12T08:03:09Z</time>
      </trkpt>
      <trkpt lat="42.4155710" lon="-6.0200920">
        <ele>838.4</ele>
        <time>2021-10-12T08:03:11Z</time>
      </trkpt>
      <trkpt lat="42.4155180" lon="-6.0200890">
        <ele>838.0</ele>
        <time>2021-10-12T08:03:13Z</time>
      </trkpt>
      <trkpt lat="42.4155130" lon="-6.0200890">
        <ele>837.6</ele>
        <time>2021-10-12T08:03:14Z</time>
      </trkpt>
      <trkpt lat="42.4155130" lon="-6.0200890">
        <ele>837.4</ele>
        <time>2021-10-12T08:03:16Z</time>
      </trkpt>
      <trkpt lat="42.4154530" lon="-6.0200980">
        <ele>837.0</ele>
        <time>2021-10-12T08:03:26Z</time>
      </trkpt>
      <trkpt lat="42.4154110" lon="-6.0201160">
        <ele>837.0</ele>
        <time>2021-10-12T08:03:28Z</time>
      </trkpt>
      <trkpt lat="42.4152640" lon="-6.0201660">
        <ele>836.8</ele>
        <time>2021-10-12T08:03:33Z</time>
      </trkpt>
      <trkpt lat="42.4152320" lon="-6.0201710">
        <ele>836.8</ele>
        <time>2021-10-12T08:03:34Z</time>
      </trkpt>
      <trkpt lat="42.4151550" lon="-6.0201660">
        <ele>836.6</ele>
        <time>2021-10-12T08:03:36Z</time>
      </trkpt>
      <trkpt lat="42.4150250" lon="-6.0201250">
        <ele>836.6</ele>
        <time>2021-10-12T08:03:40Z</time>
      </trkpt>
      <trkpt lat="42.4149550" lon="-6.0200700">
        <ele>836.4</ele>
        <time>2021-10-12T08:03:42Z</time>
      </trkpt>
      <trkpt lat="42.4148830" lon="-6.0199790">
        <ele>835.8</ele>
        <time>2021-10-12T08:03:44Z</time>
      </trkpt>
      <trkpt lat="42.4148500" lon="-6.0199370">
        <ele>835.4</ele>
        <time>2021-10-12T08:03:45Z</time>
      </trkpt>
      <trkpt lat="42.4146700" lon="-6.0196790">
        <ele>834.2</ele>
        <time>2021-10-12T08:03:51Z</time>
      </trkpt>
      <trkpt lat="42.4146130" lon="-6.0195960">
        <ele>834.0</ele>
        <time>2021-10-12T08:03:53Z</time>
      </trkpt>
      <trkpt lat="42.4142580" lon="-6.0190760">
        <ele>833.0</ele>
        <time>2021-10-12T08:04:03Z</time>
      </trkpt>
      <trkpt lat="42.4140730" lon="-6.0187870">
        <ele>832.2</ele>
        <time>2021-10-12T08:04:08Z</time>
      </trkpt>
      <trkpt lat="42.4140350" lon="-6.0187270">
        <ele>832.0</ele>
        <time>2021-10-12T08:04:09Z</time>
      </trkpt>
      <trkpt lat="42.4139630" lon="-6.0186160">
        <ele>831.6</ele>
        <time>2021-10-12T08:04:11Z</time>
      </trkpt>
      <trkpt lat="42.4137870" lon="-6.0183460">
        <ele>831.0</ele>
        <time>2021-10-12T08:04:15Z</time>
      </trkpt>
      <trkpt lat="42.4136570" lon="-6.0181710">
        <ele>830.2</ele>
        <time>2021-10-12T08:04:18Z</time>
      </trkpt>
      <trkpt lat="42.4135780" lon="-6.0180600">
        <ele>830.0</ele>
        <time>2021-10-12T08:04:20Z</time>
      </trkpt>
      <trkpt lat="42.4134330" lon="-6.0178810">
        <ele>829.8</ele>
        <time>2021-10-12T08:04:24Z</time>
      </trkpt>
      <trkpt lat="42.4132750" lon="-6.0176780">
        <ele>829.6</ele>
        <time>2021-10-12T08:04:30Z</time>
      </trkpt>
      <trkpt lat="42.4132420" lon="-6.0176430">
        <ele>829.6</ele>
        <time>2021-10-12T08:04:34Z</time>
      </trkpt>
      <trkpt lat="42.4132420" lon="-6.0176430">
        <ele>829.6</ele>
        <time>2021-10-12T08:04:35Z</time>
      </trkpt>
      <trkpt lat="42.4132770" lon="-6.0176900">
        <ele>829.8</ele>
        <time>2021-10-12T08:05:00Z</time>
      </trkpt>
      <trkpt lat="42.4133240" lon="-6.0177420">
        <ele>829.8</ele>
        <time>2021-10-12T08:05:02Z</time>
      </trkpt>
      <trkpt lat="42.4134550" lon="-6.0179060">
        <ele>829.8</ele>
        <time>2021-10-12T08:05:08Z</time>
      </trkpt>
      <trkpt lat="42.4136550" lon="-6.0181680">
        <ele>829.6</ele>
        <time>2021-10-12T08:05:16Z</time>
      </trkpt>
      <trkpt lat="42.4137970" lon="-6.0183570">
        <ele>829.4</ele>
        <time>2021-10-12T08:05:22Z</time>
      </trkpt>
      <trkpt lat="42.4138630" lon="-6.0184560">
        <ele>829.6</ele>
        <time>2021-10-12T08:05:25Z</time>
      </trkpt>
      <trkpt lat="42.4139980" lon="-6.0186590">
        <ele>829.8</ele>
        <time>2021-10-12T08:05:32Z</time>
      </trkpt>
      <trkpt lat="42.4141190" lon="-6.0188460">
        <ele>830.4</ele>
        <time>2021-10-12T08:05:39Z</time>
      </trkpt>
      <trkpt lat="42.4141390" lon="-6.0188770">
        <ele>830.6</ele>
        <time>2021-10-12T08:05:40Z</time>
      </trkpt>
      <trkpt lat="42.4142220" lon="-6.0190040">
        <ele>831.0</ele>
        <time>2021-10-12T08:05:45Z</time>
      </trkpt>
      <trkpt lat="42.4142680" lon="-6.0190870">
        <ele>831.2</ele>
        <time>2021-10-12T08:05:48Z</time>
      </trkpt>
      <trkpt lat="42.4144030" lon="-6.0192830">
        <ele>831.8</ele>
        <time>2021-10-12T08:05:56Z</time>
      </trkpt>
      <trkpt lat="42.4144550" lon="-6.0193620">
        <ele>832.0</ele>
        <time>2021-10-12T08:05:59Z</time>
      </trkpt>
      <trkpt lat="42.4145820" lon="-6.0195440">
        <ele>832.6</ele>
        <time>2021-10-12T08:06:06Z</time>
      </trkpt>
      <trkpt lat="42.4146580" lon="-6.0196490">
        <ele>833.2</ele>
        <time>2021-10-12T08:06:10Z</time>
      </trkpt>
      <trkpt lat="42.4147100" lon="-6.0197370">
        <ele>833.4</ele>
        <time>2021-10-12T08:06:13Z</time>
      </trkpt>
      <trkpt lat="42.4148440" lon="-6.0199370">
        <ele>833.8</ele>
        <time>2021-10-12T08:06:20Z</time>
      </trkpt>
      <trkpt lat="42.4148640" lon="-6.0199630">
        <ele>833.8</ele>
        <time>2021-10-12T08:06:21Z</time>
      </trkpt>
      <trkpt lat="42.4149010" lon="-6.0200120">
        <ele>834.0</ele>
        <time>2021-10-12T08:06:23Z</time>
      </trkpt>
      <trkpt lat="42.4149890" lon="-6.0201050">
        <ele>834.2</ele>
        <time>2021-10-12T08:06:27Z</time>
      </trkpt>
      <trkpt lat="42.4150730" lon="-6.0201590">
        <ele>834.4</ele>
        <time>2021-10-12T08:06:31Z</time>
      </trkpt>
      <trkpt lat="42.4151890" lon="-6.0201700">
        <ele>835.2</ele>
        <time>2021-10-12T08:06:36Z</time>
      </trkpt>
      <trkpt lat="42.4152140" lon="-6.0201710">
        <ele>835.4</ele>
        <time>2021-10-12T08:06:37Z</time>
      </trkpt>
      <trkpt lat="42.4152560" lon="-6.0201770">
        <ele>835.8</ele>
        <time>2021-10-12T08:06:39Z</time>
      </trkpt>
      <trkpt lat="42.4152830" lon="-6.0201700">
        <ele>836.0</ele>
        <time>2021-10-12T08:06:40Z</time>
      </trkpt>
      <trkpt lat="42.4153330" lon="-6.0201510">
        <ele>836.2</ele>
        <time>2021-10-12T08:06:42Z</time>
      </trkpt>
      <trkpt lat="42.4153560" lon="-6.0201400">
        <ele>836.4</ele>
        <time>2021-10-12T08:06:43Z</time>
      </trkpt>
      <trkpt lat="42.4155180" lon="-6.0200530">
        <ele>836.6</ele>
        <time>2021-10-12T08:06:50Z</time>
      </trkpt>
      <trkpt lat="42.4154870" lon="-6.0199930">
        <ele>836.6</ele>
        <time>2021-10-12T08:06:53Z</time>
      </trkpt>
      <trkpt lat="42.4154730" lon="-6.0199820">
        <ele>836.6</ele>
        <time>2021-10-12T08:06:54Z</time>
      </trkpt>
      <trkpt lat="42.4154570" lon="-6.0199690">
        <ele>836.4</ele>
        <time>2021-10-12T08:06:55Z</time>
      </trkpt>
      <trkpt lat="42.4154140" lon="-6.0199280">
        <ele>836.2</ele>
        <time>2021-10-12T08:06:58Z</time>
      </trkpt>
      <trkpt lat="42.4153990" lon="-6.0199100">
        <ele>836.2</ele>
        <time>2021-10-12T08:06:59Z</time>
      </trkpt>
      <trkpt lat="42.4153830" lon="-6.0198910">
        <ele>836.2</ele>
        <time>2021-10-12T08:07:00Z</time>
      </trkpt>
      <trkpt lat="42.4153660" lon="-6.0198750">
        <ele>836.2</ele>
        <time>2021-10-12T08:07:01Z</time>
      </trkpt>
      <trkpt lat="42.4153070" lon="-6.0198250">
        <ele>835.8</ele>
        <time>2021-10-12T08:07:04Z</time>
      </trkpt>
      <trkpt lat="42.4152610" lon="-6.0197600">
        <ele>835.8</ele>
        <time>2021-10-12T08:07:07Z</time>
      </trkpt>
      <trkpt lat="42.4152230" lon="-6.0197080">
        <ele>835.8</ele>
        <time>2021-10-12T08:07:10Z</time>
      </trkpt>
      <trkpt lat="42.4151920" lon="-6.0196690">
        <ele>835.8</ele>
        <time>2021-10-12T08:07:12Z</time>
      </trkpt>
      <trkpt lat="42.4151670" lon="-6.0196490">
        <ele>835.8</ele>
        <time>2021-10-12T08:07:13Z</time>
      </trkpt>
      <trkpt lat="42.4150320" lon="-6.0193980">
        <ele>835.6</ele>
        <time>2021-10-12T08:07:21Z</time>
      </trkpt>
      <trkpt lat="42.4150160" lon="-6.0193600">
        <ele>835.6</ele>
        <time>2021-10-12T08:07:22Z</time>
      </trkpt>
      <trkpt lat="42.4149570" lon="-6.0192470">
        <ele>835.4</ele>
        <time>2021-10-12T08:07:25Z</time>
      </trkpt>
      <trkpt lat="42.4148620" lon="-6.0190710">
        <ele>835.4</ele>
        <time>2021-10-12T08:07:30Z</time>
      </trkpt>
      <trkpt lat="42.4147680" lon="-6.0188860">
        <ele>835.2</ele>
        <time>2021-10-12T08:07:35Z</time>
      </trkpt>
      <trkpt lat="42.4146790" lon="-6.0187220">
        <ele>834.8</ele>
        <time>2021-10-12T08:07:39Z</time>
      </trkpt>
      <trkpt lat="42.4146080" lon="-6.0185800">
        <ele>834.6</ele>
        <time>2021-10-12T08:07:42Z</time>
      </trkpt>
      <trkpt lat="42.4145520" lon="-6.0184250">
        <ele>834.4</ele>
        <time>2021-10-12T08:07:45Z</time>
      </trkpt>
      <trkpt lat="42.4145060" lon="-6.0182730">
        <ele>834.2</ele>
        <time>2021-10-12T08:07:48Z</time>
      </trkpt>
      <trkpt lat="42.4144910" lon="-6.0182060">
        <ele>834.0</ele>
        <time>2021-10-12T08:07:49Z</time>
      </trkpt>
      <trkpt lat="42.4144730" lon="-6.0180920">
        <ele>833.6</ele>
        <time>2021-10-12T08:07:51Z</time>
      </trkpt>
      <trkpt lat="42.4144600" lon="-6.0180350">
        <ele>833.4</ele>
        <time>2021-10-12T08:07:52Z</time>
      </trkpt>
      <trkpt lat="42.4144470" lon="-6.0179930">
        <ele>833.0</ele>
        <time>2021-10-12T08:07:53Z</time>
      </trkpt>
      <trkpt lat="42.4144320" lon="-6.0179400">
        <ele>833.0</ele>
        <time>2021-10-12T08:07:54Z</time>
      </trkpt>
      <trkpt lat="42.4144080" lon="-6.0178180">
        <ele>832.8</ele>
        <time>2021-10-12T08:07:56Z</time>
      </trkpt>
      <trkpt lat="42.4143890" lon="-6.0177220">
        <ele>832.6</ele>
        <time>2021-10-12T08:07:58Z</time>
      </trkpt>
      <trkpt lat="42.4143430" lon="-6.0175220">
        <ele>832.2</ele>
        <time>2021-10-12T08:08:02Z</time>
      </trkpt>
      <trkpt lat="42.4143210" lon="-6.0174510">
        <ele>831.8</ele>
        <time>2021-10-12T08:08:04Z</time>
      </trkpt>
      <trkpt lat="42.4142880" lon="-6.0173430">
        <ele>831.8</ele>
        <time>2021-10-12T08:08:07Z</time>
      </trkpt>
      <trkpt lat="42.4142490" lon="-6.0171300">
        <ele>831.6</ele>
        <time>2021-10-12T08:08:13Z</time>
      </trkpt>
      <trkpt lat="42.4142100" lon="-6.0169560">
        <ele>831.6</ele>
        <time>2021-10-12T08:08:19Z</time>
      </trkpt>
      <trkpt lat="42.4141980" lon="-6.0166840">
        <ele>832.6</ele>
        <time>2021-10-12T08:08:27Z</time>
      </trkpt>
      <trkpt lat="42.4141860" lon="-6.0164250">
        <ele>832.4</ele>
        <time>2021-10-12T08:08:33Z</time>
      </trkpt>
      <trkpt lat="42.4141750" lon="-6.0161140">
        <ele>831.2</ele>
        <time>2021-10-12T08:08:39Z</time>
      </trkpt>
      <trkpt lat="42.4141890" lon="-6.0158210">
        <ele>830.8</ele>
        <time>2021-10-12T08:08:44Z</time>
      </trkpt>
      <trkpt lat="42.4142010" lon="-6.0156520">
        <ele>830.2</ele>
        <time>2021-10-12T08:08:47Z</time>
      </trkpt>
      <trkpt lat="42.4142020" lon="-6.0155900">
        <ele>830.2</ele>
        <time>2021-10-12T08:08:48Z</time>
      </trkpt>
      <trkpt lat="42.4142050" lon="-6.0153220">
        <ele>829.8</ele>
        <time>2021-10-12T08:08:52Z</time>
      </trkpt>
      <trkpt lat="42.4142000" lon="-6.0152560">
        <ele>829.4</ele>
        <time>2021-10-12T08:08:53Z</time>
      </trkpt>
      <trkpt lat="42.4141880" lon="-6.0151790">
        <ele>829.4</ele>
        <time>2021-10-12T08:08:54Z</time>
      </trkpt>
      <trkpt lat="42.4141380" lon="-6.0150520">
        <ele>829.0</ele>
        <time>2021-10-12T08:08:57Z</time>
      </trkpt>
      <trkpt lat="42.4140460" lon="-6.0149710">
        <ele>828.8</ele>
        <time>2021-10-12T08:09:02Z</time>
      </trkpt>
      <trkpt lat="42.4139970" lon="-6.0149490">
        <ele>829.0</ele>
        <time>2021-10-12T08:09:06Z</time>
      </trkpt>
      <trkpt lat="42.4139940" lon="-6.0149480">
        <ele>829.0</ele>
        <time>2021-10-12T08:09:07Z</time>
      </trkpt>
      <trkpt lat="42.4139940" lon="-6.0149480">
        <ele>829.0</ele>
        <time>2021-10-12T08:09:08Z</time>
      </trkpt>
      <trkpt lat="42.4139600" lon="-6.0149280">
        <ele>829.2</ele>
        <time>2021-10-12T08:09:26Z</time>
      </trkpt>
      <trkpt lat="42.4139450" lon="-6.0149190">
        <ele>829.2</ele>
        <time>2021-10-12T08:09:27Z</time>
      </trkpt>
      <trkpt lat="42.4139250" lon="-6.0149040">
        <ele>829.2</ele>
        <time>2021-10-12T08:09:29Z</time>
      </trkpt>
      <trkpt lat="42.4139190" lon="-6.0149000">
        <ele>829.0</ele>
        <time>2021-10-12T08:09:31Z</time>
      </trkpt>
      <trkpt lat="42.4138680" lon="-6.0148670">
        <ele>828.6</ele>
        <time>2021-10-12T08:09:40Z</time>
      </trkpt>
      <trkpt lat="42.4138520" lon="-6.0148570">
        <ele>828.6</ele>
        <time>2021-10-12T08:09:41Z</time>
      </trkpt>
      <trkpt lat="42.4138280" lon="-6.0148390">
        <ele>828.2</ele>
        <time>2021-10-12T08:09:45Z</time>
      </trkpt>
      <trkpt lat="42.4137710" lon="-6.0147940">
        <ele>827.6</ele>
        <time>2021-10-12T08:10:23Z</time>
      </trkpt>
      <trkpt lat="42.4136800" lon="-6.0147070">
        <ele>827.2</ele>
        <time>2021-10-12T08:10:27Z</time>
      </trkpt>
      <trkpt lat="42.4136730" lon="-6.0146840">
        <ele>826.4</ele>
        <time>2021-10-12T08:10:31Z</time>
      </trkpt>
      <trkpt lat="42.4136730" lon="-6.0146840">
        <ele>826.2</ele>
        <time>2021-10-12T08:10:34Z</time>
      </trkpt>
      <trkpt lat="42.4136370" lon="-6.0146500">
        <ele>826.0</ele>
        <time>2021-10-12T08:11:17Z</time>
      </trkpt>
      <trkpt lat="42.4136370" lon="-6.0146500">
        <ele>826.0</ele>
        <time>2021-10-12T08:11:18Z</time>
      </trkpt>
      <trkpt lat="42.4134670" lon="-6.0144690">
        <ele>826.0</ele>
        <time>2021-10-12T08:11:26Z</time>
      </trkpt>
      <trkpt lat="42.4133180" lon="-6.0143080">
        <ele>826.2</ele>
        <time>2021-10-12T08:11:34Z</time>
      </trkpt>
      <trkpt lat="42.4131070" lon="-6.0140930">
        <ele>826.4</ele>
        <time>2021-10-12T08:11:44Z</time>
      </trkpt>
      <trkpt lat="42.4129520" lon="-6.0140220">
        <ele>826.6</ele>
        <time>2021-10-12T08:11:50Z</time>
      </trkpt>
      <trkpt lat="42.4127650" lon="-6.0138750">
        <ele>827.0</ele>
        <time>2021-10-12T08:11:58Z</time>
      </trkpt>
      <trkpt lat="42.4126040" lon="-6.0136860">
        <ele>827.4</ele>
        <time>2021-10-12T08:12:06Z</time>
      </trkpt>
      <trkpt lat="42.4125670" lon="-6.0136310">
        <ele>827.4</ele>
        <time>2021-10-12T08:12:08Z</time>
      </trkpt>
      <trkpt lat="42.4125410" lon="-6.0135990">
        <ele>827.4</ele>
        <time>2021-10-12T08:12:09Z</time>
      </trkpt>
      <trkpt lat="42.4125210" lon="-6.0135720">
        <ele>827.4</ele>
        <time>2021-10-12T08:12:10Z</time>
      </trkpt>
      <trkpt lat="42.4124060" lon="-6.0134250">
        <ele>828.0</ele>
        <time>2021-10-12T08:12:16Z</time>
      </trkpt>
      <trkpt lat="42.4123380" lon="-6.0133460">
        <ele>828.6</ele>
        <time>2021-10-12T08:12:19Z</time>
      </trkpt>
      <trkpt lat="42.4122200" lon="-6.0132540">
        <ele>829.0</ele>
        <time>2021-10-12T08:12:24Z</time>
      </trkpt>
      <trkpt lat="42.4121290" lon="-6.0131750">
        <ele>829.8</ele>
        <time>2021-10-12T08:12:28Z</time>
      </trkpt>
      <trkpt lat="42.4121060" lon="-6.0131550">
        <ele>829.8</ele>
        <time>2021-10-12T08:12:29Z</time>
      </trkpt>
      <trkpt lat="42.4120390" lon="-6.0130950">
        <ele>830.0</ele>
        <time>2021-10-12T08:12:32Z</time>
      </trkpt>
      <trkpt lat="42.4118840" lon="-6.0129050">
        <ele>830.4</ele>
        <time>2021-10-12T08:12:40Z</time>
      </trkpt>
      <trkpt lat="42.4118470" lon="-6.0128580">
        <ele>830.6</ele>
        <time>2021-10-12T08:12:42Z</time>
      </trkpt>
      <trkpt lat="42.4117420" lon="-6.0126880">
        <ele>831.8</ele>
        <time>2021-10-12T08:12:50Z</time>
      </trkpt>
      <trkpt lat="42.4116140" lon="-6.0125780">
        <ele>832.8</ele>
        <time>2021-10-12T08:12:56Z</time>
      </trkpt>
      <trkpt lat="42.4115970" lon="-6.0125670">
        <ele>832.6</ele>
        <time>2021-10-12T08:12:57Z</time>
      </trkpt>
      <trkpt lat="42.4114400" lon="-6.0124430">
        <ele>833.4</ele>
        <time>2021-10-12T08:13:06Z</time>
      </trkpt>
      <trkpt lat="42.4113790" lon="-6.0123780">
        <ele>833.8</ele>
        <time>2021-10-12T08:13:10Z</time>
      </trkpt>
      <trkpt lat="42.4113240" lon="-6.0122720">
        <ele>834.4</ele>
        <time>2021-10-12T08:13:15Z</time>
      </trkpt>
      <trkpt lat="42.4112810" lon="-6.0121740">
        <ele>835.0</ele>
        <time>2021-10-12T08:13:19Z</time>
      </trkpt>
      <trkpt lat="42.4112230" lon="-6.0120540">
        <ele>835.6</ele>
        <time>2021-10-12T08:13:24Z</time>
      </trkpt>
      <trkpt lat="42.4111930" lon="-6.0120130">
        <ele>836.2</ele>
        <time>2021-10-12T08:13:26Z</time>
      </trkpt>
      <trkpt lat="42.4111750" lon="-6.0119930">
        <ele>836.2</ele>
        <time>2021-10-12T08:13:27Z</time>
      </trkpt>
      <trkpt lat="42.4110720" lon="-6.0119120">
        <ele>836.4</ele>
        <time>2021-10-12T08:13:32Z</time>
      </trkpt>
      <trkpt lat="42.4110030" lon="-6.0118640">
        <ele>836.6</ele>
        <time>2021-10-12T08:13:35Z</time>
      </trkpt>
      <trkpt lat="42.4109480" lon="-6.0118290">
        <ele>836.6</ele>
        <time>2021-10-12T08:13:38Z</time>
      </trkpt>
      <trkpt lat="42.4109300" lon="-6.0118180">
        <ele>836.8</ele>
        <time>2021-10-12T08:13:39Z</time>
      </trkpt>
      <trkpt lat="42.4108670" lon="-6.0117790">
        <ele>836.8</ele>
        <time>2021-10-12T08:13:42Z</time>
      </trkpt>
      <trkpt lat="42.4108280" lon="-6.0117530">
        <ele>836.8</ele>
        <time>2021-10-12T08:13:44Z</time>
      </trkpt>
      <trkpt lat="42.4107880" lon="-6.0117060">
        <ele>837.0</ele>
        <time>2021-10-12T08:13:47Z</time>
      </trkpt>
      <trkpt lat="42.4107730" lon="-6.0116850">
        <ele>837.0</ele>
        <time>2021-10-12T08:13:52Z</time>
      </trkpt>
      <trkpt lat="42.4107730" lon="-6.0116850">
        <ele>837.0</ele>
        <time>2021-10-12T08:13:53Z</time>
      </trkpt>
      <trkpt lat="42.4107550" lon="-6.0116410">
        <ele>837.0</ele>
        <time>2021-10-12T08:14:36Z</time>
      </trkpt>
      <trkpt lat="42.4107140" lon="-6.0115590">
        <ele>837.0</ele>
        <time>2021-10-12T08:14:39Z</time>
      </trkpt>
      <trkpt lat="42.4106540" lon="-6.0114340">
        <ele>836.8</ele>
        <time>2021-10-12T08:14:43Z</time>
      </trkpt>
      <trkpt lat="42.4106070" lon="-6.0113490">
        <ele>836.8</ele>
        <time>2021-10-12T08:14:46Z</time>
      </trkpt>
      <trkpt lat="42.4105530" lon="-6.0112430">
        <ele>836.6</ele>
        <time>2021-10-12T08:14:49Z</time>
      </trkpt>
      <trkpt lat="42.4104580" lon="-6.0110740">
        <ele>836.6</ele>
        <time>2021-10-12T08:14:54Z</time>
      </trkpt>
      <trkpt lat="42.4104260" lon="-6.0110160">
        <ele>836.6</ele>
        <time>2021-10-12T08:14:56Z</time>
      </trkpt>
      <trkpt lat="42.4103220" lon="-6.0107950">
        <ele>836.6</ele>
        <time>2021-10-12T08:15:02Z</time>
      </trkpt>
      <trkpt lat="42.4102640" lon="-6.0106660">
        <ele>836.6</ele>
        <time>2021-10-12T08:15:05Z</time>
      </trkpt>
      <trkpt lat="42.4100840" lon="-6.0103150">
        <ele>836.6</ele>
        <time>2021-10-12T08:15:13Z</time>
      </trkpt>
      <trkpt lat="42.4098690" lon="-6.0099700">
        <ele>836.6</ele>
        <time>2021-10-12T08:15:21Z</time>
      </trkpt>
      <trkpt lat="42.4098050" lon="-6.0098900">
        <ele>836.6</ele>
        <time>2021-10-12T08:15:23Z</time>
      </trkpt>
      <trkpt lat="42.4095630" lon="-6.0096000">
        <ele>836.4</ele>
        <time>2021-10-12T08:15:31Z</time>
      </trkpt>
      <trkpt lat="42.4095340" lon="-6.0095610">
        <ele>836.4</ele>
        <time>2021-10-12T08:15:32Z</time>
      </trkpt>
      <trkpt lat="42.4092540" lon="-6.0092000">
        <ele>836.6</ele>
        <time>2021-10-12T08:15:42Z</time>
      </trkpt>
      <trkpt lat="42.4091070" lon="-6.0090250">
        <ele>836.6</ele>
        <time>2021-10-12T08:15:48Z</time>
      </trkpt>
      <trkpt lat="42.4090370" lon="-6.0089430">
        <ele>836.6</ele>
        <time>2021-10-12T08:15:49Z</time>
      </trkpt>
      <trkpt lat="42.4089110" lon="-6.0087520">
        <ele>836.4</ele>
        <time>2021-10-12T08:15:54Z</time>
      </trkpt>
      <trkpt lat="42.4087780" lon="-6.0086290">
        <ele>836.4</ele>
        <time>2021-10-12T08:15:59Z</time>
      </trkpt>
      <trkpt lat="42.4086630" lon="-6.0087040">
        <ele>836.4</ele>
        <time>2021-10-12T08:16:03Z</time>
      </trkpt>
      <trkpt lat="42.4084730" lon="-6.0089040">
        <ele>836.6</ele>
        <time>2021-10-12T08:16:10Z</time>
      </trkpt>
      <trkpt lat="42.4083910" lon="-6.0089870">
        <ele>837.4</ele>
        <time>2021-10-12T08:16:13Z</time>
      </trkpt>
      <trkpt lat="42.4082580" lon="-6.0091420">
        <ele>837.6</ele>
        <time>2021-10-12T08:16:18Z</time>
      </trkpt>
      <trkpt lat="42.4080840" lon="-6.0093360">
        <ele>838.4</ele>
        <time>2021-10-12T08:16:25Z</time>
      </trkpt>
      <trkpt lat="42.4080330" lon="-6.0093880">
        <ele>838.8</ele>
        <time>2021-10-12T08:16:27Z</time>
      </trkpt>
      <trkpt lat="42.4078630" lon="-6.0095670">
        <ele>839.2</ele>
        <time>2021-10-12T08:16:34Z</time>
      </trkpt>
      <trkpt lat="42.4077760" lon="-6.0096780">
        <ele>839.8</ele>
        <time>2021-10-12T08:16:39Z</time>
      </trkpt>
      <trkpt lat="42.4077590" lon="-6.0097010">
        <ele>840.0</ele>
        <time>2021-10-12T08:16:40Z</time>
      </trkpt>
      <trkpt lat="42.4076540" lon="-6.0097570">
        <ele>840.4</ele>
        <time>2021-10-12T08:16:45Z</time>
      </trkpt>
      <trkpt lat="42.4074940" lon="-6.0096490">
        <ele>840.6</ele>
        <time>2021-10-12T08:16:50Z</time>
      </trkpt>
      <trkpt lat="42.4074280" lon="-6.0095800">
        <ele>840.6</ele>
        <time>2021-10-12T08:16:52Z</time>
      </trkpt>
      <trkpt lat="42.4072180" lon="-6.0093610">
        <ele>839.8</ele>
        <time>2021-10-12T08:16:57Z</time>
      </trkpt>
      <trkpt lat="42.4070090" lon="-6.0091430">
        <ele>839.4</ele>
        <time>2021-10-12T08:17:02Z</time>
      </trkpt>
      <trkpt lat="42.4068220" lon="-6.0089420">
        <ele>839.0</ele>
        <time>2021-10-12T08:17:06Z</time>
      </trkpt>
      <trkpt lat="42.4067330" lon="-6.0088480">
        <ele>838.8</ele>
        <time>2021-10-12T08:17:08Z</time>
      </trkpt>
      <trkpt lat="42.4064390" lon="-6.0085340">
        <ele>838.2</ele>
        <time>2021-10-12T08:17:15Z</time>
      </trkpt>
      <trkpt lat="42.4064060" lon="-6.0085020">
        <ele>838.0</ele>
        <time>2021-10-12T08:17:17Z</time>
      </trkpt>
      <trkpt lat="42.4061990" lon="-6.0083470">
        <ele>837.8</ele>
        <time>2021-10-12T08:17:21Z</time>
      </trkpt>
      <trkpt lat="42.4061520" lon="-6.0083270">
        <ele>837.6</ele>
        <time>2021-10-12T08:17:22Z</time>
      </trkpt>
      <trkpt lat="42.4061130" lon="-6.0083150">
        <ele>837.4</ele>
        <time>2021-10-12T08:17:23Z</time>
      </trkpt>
      <trkpt lat="42.4060100" lon="-6.0083180">
        <ele>837.2</ele>
        <time>2021-10-12T08:17:26Z</time>
      </trkpt>
      <trkpt lat="42.4059790" lon="-6.0083250">
        <ele>837.0</ele>
        <time>2021-10-12T08:17:27Z</time>
      </trkpt>
      <trkpt lat="42.4058480" lon="-6.0084040">
        <ele>836.8</ele>
        <time>2021-10-12T08:17:32Z</time>
      </trkpt>
      <trkpt lat="42.4058250" lon="-6.0084250">
        <ele>836.8</ele>
        <time>2021-10-12T08:17:33Z</time>
      </trkpt>
      <trkpt lat="42.4058050" lon="-6.0084320">
        <ele>836.8</ele>
        <time>2021-10-12T08:17:34Z</time>
      </trkpt>
      <trkpt lat="42.4057300" lon="-6.0083980">
        <ele>836.8</ele>
        <time>2021-10-12T08:17:37Z</time>
      </trkpt>
      <trkpt lat="42.4056560" lon="-6.0081770">
        <ele>836.8</ele>
        <time>2021-10-12T08:17:42Z</time>
      </trkpt>
      <trkpt lat="42.4056440" lon="-6.0080750">
        <ele>836.8</ele>
        <time>2021-10-12T08:17:45Z</time>
      </trkpt>
      <trkpt lat="42.4056040" lon="-6.0079630">
        <ele>836.6</ele>
        <time>2021-10-12T08:17:46Z</time>
      </trkpt>
      <trkpt lat="42.4055720" lon="-6.0079250">
        <ele>836.6</ele>
        <time>2021-10-12T08:17:47Z</time>
      </trkpt>
      <trkpt lat="42.4055360" lon="-6.0078930">
        <ele>836.4</ele>
        <time>2021-10-12T08:17:48Z</time>
      </trkpt>
      <trkpt lat="42.4053760" lon="-6.0077920">
        <ele>836.0</ele>
        <time>2021-10-12T08:17:52Z</time>
      </trkpt>
      <trkpt lat="42.4052590" lon="-6.0077230">
        <ele>835.4</ele>
        <time>2021-10-12T08:17:55Z</time>
      </trkpt>
      <trkpt lat="42.4051420" lon="-6.0076680">
        <ele>835.0</ele>
        <time>2021-10-12T08:17:59Z</time>
      </trkpt>
      <trkpt lat="42.4050670" lon="-6.0076280">
        <ele>834.8</ele>
        <time>2021-10-12T08:18:00Z</time>
      </trkpt>
      <trkpt lat="42.4049920" lon="-6.0075690">
        <ele>834.6</ele>
        <time>2021-10-12T08:18:03Z</time>
      </trkpt>
      <trkpt lat="42.4048780" lon="-6.0073750">
        <ele>834.6</ele>
        <time>2021-10-12T08:18:09Z</time>
      </trkpt>
      <trkpt lat="42.4048350" lon="-6.0073060">
        <ele>834.4</ele>
        <time>2021-10-12T08:18:11Z</time>
      </trkpt>
      <trkpt lat="42.4047020" lon="-6.0071130">
        <ele>834.2</ele>
        <time>2021-10-12T08:18:17Z</time>
      </trkpt>
      <trkpt lat="42.4045800" lon="-6.0069650">
        <ele>834.0</ele>
        <time>2021-10-12T08:18:22Z</time>
      </trkpt>
      <trkpt lat="42.4044650" lon="-6.0068800">
        <ele>833.8</ele>
        <time>2021-10-12T08:18:26Z</time>
      </trkpt>
      <trkpt lat="42.4044080" lon="-6.0068280">
        <ele>833.4</ele>
        <time>2021-10-12T08:18:28Z</time>
      </trkpt>
      <trkpt lat="42.4043810" lon="-6.0068060">
        <ele>833.4</ele>
        <time>2021-10-12T08:18:29Z</time>
      </trkpt>
      <trkpt lat="42.4042240" lon="-6.0067090">
        <ele>833.2</ele>
        <time>2021-10-12T08:18:34Z</time>
      </trkpt>
      <trkpt lat="42.4041960" lon="-6.0066960">
        <ele>833.2</ele>
        <time>2021-10-12T08:18:35Z</time>
      </trkpt>
      <trkpt lat="42.4040010" lon="-6.0065770">
        <ele>833.2</ele>
        <time>2021-10-12T08:18:41Z</time>
      </trkpt>
      <trkpt lat="42.4039310" lon="-6.0065220">
        <ele>833.2</ele>
        <time>2021-10-12T08:18:43Z</time>
      </trkpt>
      <trkpt lat="42.4036420" lon="-6.0062640">
        <ele>833.0</ele>
        <time>2021-10-12T08:18:52Z</time>
      </trkpt>
      <trkpt lat="42.4034560" lon="-6.0061140">
        <ele>832.8</ele>
        <time>2021-10-12T08:18:58Z</time>
      </trkpt>
      <trkpt lat="42.4033380" lon="-6.0060200">
        <ele>832.6</ele>
        <time>2021-10-12T08:19:02Z</time>
      </trkpt>
      <trkpt lat="42.4032570" lon="-6.0059580">
        <ele>832.4</ele>
        <time>2021-10-12T08:19:05Z</time>
      </trkpt>
      <trkpt lat="42.4031930" lon="-6.0059300">
        <ele>832.4</ele>
        <time>2021-10-12T08:19:08Z</time>
      </trkpt>
      <trkpt lat="42.4031410" lon="-6.0058990">
        <ele>832.4</ele>
        <time>2021-10-12T08:19:14Z</time>
      </trkpt>
      <trkpt lat="42.4031620" lon="-6.0059490">
        <ele>832.2</ele>
        <time>2021-10-12T08:19:22Z</time>
      </trkpt>
      <trkpt lat="42.4031760" lon="-6.0059980">
        <ele>832.4</ele>
        <time>2021-10-12T08:19:24Z</time>
      </trkpt>
      <trkpt lat="42.4031730" lon="-6.0060230">
        <ele>832.4</ele>
        <time>2021-10-12T08:19:25Z</time>
      </trkpt>
      <trkpt lat="42.4031290" lon="-6.0060920">
        <ele>832.6</ele>
        <time>2021-10-12T08:19:28Z</time>
      </trkpt>
      <trkpt lat="42.4030290" lon="-6.0062690">
        <ele>832.8</ele>
        <time>2021-10-12T08:19:34Z</time>
      </trkpt>
      <trkpt lat="42.4029180" lon="-6.0066060">
        <ele>832.6</ele>
        <time>2021-10-12T08:19:43Z</time>
      </trkpt>
      <trkpt lat="42.4028900" lon="-6.0067080">
        <ele>832.6</ele>
        <time>2021-10-12T08:19:46Z</time>
      </trkpt>
      <trkpt lat="42.4028430" lon="-6.0068620">
        <ele>832.8</ele>
        <time>2021-10-12T08:19:51Z</time>
      </trkpt>
      <trkpt lat="42.4027700" lon="-6.0070550">
        <ele>833.0</ele>
        <time>2021-10-12T08:19:57Z</time>
      </trkpt>
      <trkpt lat="42.4026540" lon="-6.0074020">
        <ele>833.2</ele>
        <time>2021-10-12T08:20:06Z</time>
      </trkpt>
      <trkpt lat="42.4026240" lon="-6.0074740">
        <ele>833.2</ele>
        <time>2021-10-12T08:20:08Z</time>
      </trkpt>
      <trkpt lat="42.4025960" lon="-6.0075420">
        <ele>833.0</ele>
        <time>2021-10-12T08:20:11Z</time>
      </trkpt>
      <trkpt lat="42.4025960" lon="-6.0075420">
        <ele>832.8</ele>
        <time>2021-10-12T08:20:20Z</time>
      </trkpt>
      <trkpt lat="42.4024090" lon="-6.0079940">
        <ele>832.8</ele>
        <time>2021-10-12T08:20:23Z</time>
      </trkpt>
      <trkpt lat="42.4023570" lon="-6.0079960">
        <ele>832.8</ele>
        <time>2021-10-12T08:20:25Z</time>
      </trkpt>
      <trkpt lat="42.4022650" lon="-6.0079550">
        <ele>833.4</ele>
        <time>2021-10-12T08:20:29Z</time>
      </trkpt>
      <trkpt lat="42.4022410" lon="-6.0079350">
        <ele>833.6</ele>
        <time>2021-10-12T08:20:30Z</time>
      </trkpt>
      <trkpt lat="42.4021810" lon="-6.0078750">
        <ele>833.8</ele>
        <time>2021-10-12T08:20:33Z</time>
      </trkpt>
      <trkpt lat="42.4021010" lon="-6.0078130">
        <ele>834.0</ele>
        <time>2021-10-12T08:20:36Z</time>
      </trkpt>
      <trkpt lat="42.4020190" lon="-6.0077420">
        <ele>834.0</ele>
        <time>2021-10-12T08:20:39Z</time>
      </trkpt>
      <trkpt lat="42.4017090" lon="-6.0074810">
        <ele>834.4</ele>
        <time>2021-10-12T08:20:51Z</time>
      </trkpt>
      <trkpt lat="42.4015210" lon="-6.0073510">
        <ele>835.2</ele>
        <time>2021-10-12T08:21:00Z</time>
      </trkpt>
      <trkpt lat="42.4014970" lon="-6.0073360">
        <ele>835.4</ele>
        <time>2021-10-12T08:21:02Z</time>
      </trkpt>
      <trkpt lat="42.4014720" lon="-6.0073210">
        <ele>835.6</ele>
        <time>2021-10-12T08:22:16Z</time>
      </trkpt>
      <trkpt lat="42.4014480" lon="-6.0073060">
        <ele>835.6</ele>
        <time>2021-10-12T08:22:17Z</time>
      </trkpt>
      <trkpt lat="42.4013040" lon="-6.0072090">
        <ele>835.6</ele>
        <time>2021-10-12T08:22:21Z</time>
      </trkpt>
      <trkpt lat="42.4012640" lon="-6.0071820">
        <ele>835.4</ele>
        <time>2021-10-12T08:22:22Z</time>
      </trkpt>
      <trkpt lat="42.4009480" lon="-6.0069810">
        <ele>834.4</ele>
        <time>2021-10-12T08:22:29Z</time>
      </trkpt>
      <trkpt lat="42.4006120" lon="-6.0067640">
        <ele>833.6</ele>
        <time>2021-10-12T08:22:36Z</time>
      </trkpt>
      <trkpt lat="42.4005690" lon="-6.0067300">
        <ele>833.4</ele>
        <time>2021-10-12T08:22:37Z</time>
      </trkpt>
      <trkpt lat="42.4005320" lon="-6.0067050">
        <ele>833.4</ele>
        <time>2021-10-12T08:22:38Z</time>
      </trkpt>
      <trkpt lat="42.4001820" lon="-6.0064810">
        <ele>833.2</ele>
        <time>2021-10-12T08:22:45Z</time>
      </trkpt>
      <trkpt lat="42.3996730" lon="-6.0061560">
        <ele>833.4</ele>
        <time>2021-10-12T08:22:55Z</time>
      </trkpt>
      <trkpt lat="42.3995170" lon="-6.0060660">
        <ele>833.2</ele>
        <time>2021-10-12T08:22:58Z</time>
      </trkpt>
      <trkpt lat="42.3993620" lon="-6.0059610">
        <ele>833.2</ele>
        <time>2021-10-12T08:23:01Z</time>
      </trkpt>
      <trkpt lat="42.3989460" lon="-6.0056760">
        <ele>832.8</ele>
        <time>2021-10-12T08:23:09Z</time>
      </trkpt>
      <trkpt lat="42.3984710" lon="-6.0053840">
        <ele>832.6</ele>
        <time>2021-10-12T08:23:18Z</time>
      </trkpt>
      <trkpt lat="42.3979520" lon="-6.0050270">
        <ele>832.4</ele>
        <time>2021-10-12T08:23:28Z</time>
      </trkpt>
      <trkpt lat="42.3975940" lon="-6.0048420">
        <ele>832.0</ele>
        <time>2021-10-12T08:23:35Z</time>
      </trkpt>
      <trkpt lat="42.3970860" lon="-6.0046340">
        <ele>831.6</ele>
        <time>2021-10-12T08:23:44Z</time>
      </trkpt>
      <trkpt lat="42.3967430" lon="-6.0045040">
        <ele>831.4</ele>
        <time>2021-10-12T08:23:50Z</time>
      </trkpt>
      <trkpt lat="42.3964750" lon="-6.0043900">
        <ele>831.2</ele>
        <time>2021-10-12T08:23:55Z</time>
      </trkpt>
      <trkpt lat="42.3960930" lon="-6.0042400">
        <ele>831.0</ele>
        <time>2021-10-12T08:24:02Z</time>
      </trkpt>
      <trkpt lat="42.3960460" lon="-6.0042300">
        <ele>831.0</ele>
        <time>2021-10-12T08:24:03Z</time>
      </trkpt>
      <trkpt lat="42.3958280" lon="-6.0041630">
        <ele>830.8</ele>
        <time>2021-10-12T08:24:07Z</time>
      </trkpt>
      <trkpt lat="42.3957170" lon="-6.0041160">
        <ele>830.4</ele>
        <time>2021-10-12T08:24:09Z</time>
      </trkpt>
      <trkpt lat="42.3956690" lon="-6.0040930">
        <ele>830.4</ele>
        <time>2021-10-12T08:24:10Z</time>
      </trkpt>
      <trkpt lat="42.3955780" lon="-6.0040640">
        <ele>830.2</ele>
        <time>2021-10-12T08:24:12Z</time>
      </trkpt>
      <trkpt lat="42.3955170" lon="-6.0040400">
        <ele>830.2</ele>
        <time>2021-10-12T08:24:13Z</time>
      </trkpt>
      <trkpt lat="42.3951180" lon="-6.0038770">
        <ele>830.0</ele>
        <time>2021-10-12T08:24:21Z</time>
      </trkpt>
      <trkpt lat="42.3945690" lon="-6.0036540">
        <ele>830.2</ele>
        <time>2021-10-12T08:24:32Z</time>
      </trkpt>
      <trkpt lat="42.3943720" lon="-6.0035700">
        <ele>830.2</ele>
        <time>2021-10-12T08:24:36Z</time>
      </trkpt>
      <trkpt lat="42.3942760" lon="-6.0035290">
        <ele>830.2</ele>
        <time>2021-10-12T08:24:38Z</time>
      </trkpt>
      <trkpt lat="42.3942290" lon="-6.0035140">
        <ele>830.2</ele>
        <time>2021-10-12T08:24:39Z</time>
      </trkpt>
      <trkpt lat="42.3941830" lon="-6.0034920">
        <ele>830.2</ele>
        <time>2021-10-12T08:24:40Z</time>
      </trkpt>
      <trkpt lat="42.3940450" lon="-6.0034110">
        <ele>830.0</ele>
        <time>2021-10-12T08:24:43Z</time>
      </trkpt>
      <trkpt lat="42.3939450" lon="-6.0033740">
        <ele>829.8</ele>
        <time>2021-10-12T08:24:45Z</time>
      </trkpt>
      <trkpt lat="42.3934000" lon="-6.0031520">
        <ele>829.8</ele>
        <time>2021-10-12T08:24:56Z</time>
      </trkpt>
      <trkpt lat="42.3933460" lon="-6.0031340">
        <ele>829.8</ele>
        <time>2021-10-12T08:24:57Z</time>
      </trkpt>
      <trkpt lat="42.3930920" lon="-6.0030600">
        <ele>829.8</ele>
        <time>2021-10-12T08:25:02Z</time>
      </trkpt>
      <trkpt lat="42.3929950" lon="-6.0030110">
        <ele>829.6</ele>
        <time>2021-10-12T08:25:04Z</time>
      </trkpt>
      <trkpt lat="42.3929480" lon="-6.0029890">
        <ele>829.6</ele>
        <time>2021-10-12T08:25:05Z</time>
      </trkpt>
      <trkpt lat="42.3927060" lon="-6.0028950">
        <ele>829.6</ele>
        <time>2021-10-12T08:25:10Z</time>
      </trkpt>
      <trkpt lat="42.3923540" lon="-6.0027270">
        <ele>829.8</ele>
        <time>2021-10-12T08:25:18Z</time>
      </trkpt>
      <trkpt lat="42.3920740" lon="-6.0026050">
        <ele>829.8</ele>
        <time>2021-10-12T08:25:24Z</time>
      </trkpt>
      <trkpt lat="42.3919320" lon="-6.0025480">
        <ele>829.4</ele>
        <time>2021-10-12T08:25:27Z</time>
      </trkpt>
      <trkpt lat="42.3918860" lon="-6.0025270">
        <ele>829.4</ele>
        <time>2021-10-12T08:25:28Z</time>
      </trkpt>
      <trkpt lat="42.3914960" lon="-6.0023630">
        <ele>829.4</ele>
        <time>2021-10-12T08:25:36Z</time>
      </trkpt>
      <trkpt lat="42.3913520" lon="-6.0023050">
        <ele>829.4</ele>
        <time>2021-10-12T08:25:39Z</time>
      </trkpt>
      <trkpt lat="42.3908740" lon="-6.0021140">
        <ele>829.0</ele>
        <time>2021-10-12T08:25:49Z</time>
      </trkpt>
      <trkpt lat="42.3905220" lon="-6.0019830">
        <ele>828.4</ele>
        <time>2021-10-12T08:25:56Z</time>
      </trkpt>
      <trkpt lat="42.3904720" lon="-6.0019610">
        <ele>828.2</ele>
        <time>2021-10-12T08:25:57Z</time>
      </trkpt>
      <trkpt lat="42.3900310" lon="-6.0017790">
        <ele>827.6</ele>
        <time>2021-10-12T08:26:06Z</time>
      </trkpt>
      <trkpt lat="42.3897460" lon="-6.0016570">
        <ele>827.4</ele>
        <time>2021-10-12T08:26:12Z</time>
      </trkpt>
      <trkpt lat="42.3896100" lon="-6.0015970">
        <ele>827.4</ele>
        <time>2021-10-12T08:26:15Z</time>
      </trkpt>
      <trkpt lat="42.3894350" lon="-6.0015180">
        <ele>827.4</ele>
        <time>2021-10-12T08:26:19Z</time>
      </trkpt>
      <trkpt lat="42.3892690" lon="-6.0014000">
        <ele>827.4</ele>
        <time>2021-10-12T08:26:23Z</time>
      </trkpt>
      <trkpt lat="42.3891400" lon="-6.0013040">
        <ele>827.4</ele>
        <time>2021-10-12T08:26:26Z</time>
      </trkpt>
      <trkpt lat="42.3890950" lon="-6.0012800">
        <ele>827.2</ele>
        <time>2021-10-12T08:26:27Z</time>
      </trkpt>
      <trkpt lat="42.3890000" lon="-6.0012400">
        <ele>827.2</ele>
        <time>2021-10-12T08:26:29Z</time>
      </trkpt>
      <trkpt lat="42.3888650" lon="-6.0011940">
        <ele>827.0</ele>
        <time>2021-10-12T08:26:32Z</time>
      </trkpt>
      <trkpt lat="42.3887220" lon="-6.0011260">
        <ele>827.0</ele>
        <time>2021-10-12T08:26:35Z</time>
      </trkpt>
      <trkpt lat="42.3883070" lon="-6.0009550">
        <ele>827.0</ele>
        <time>2021-10-12T08:26:44Z</time>
      </trkpt>
      <trkpt lat="42.3882200" lon="-6.0009230">
        <ele>827.0</ele>
        <time>2021-10-12T08:26:46Z</time>
      </trkpt>
      <trkpt lat="42.3880660" lon="-6.0008580">
        <ele>827.0</ele>
        <time>2021-10-12T08:26:49Z</time>
      </trkpt>
      <trkpt lat="42.3879200" lon="-6.0008000">
        <ele>827.0</ele>
        <time>2021-10-12T08:26:52Z</time>
      </trkpt>
      <trkpt lat="42.3876790" lon="-6.0007020">
        <ele>827.0</ele>
        <time>2021-10-12T08:26:57Z</time>
      </trkpt>
      <trkpt lat="42.3873880" lon="-6.0005890">
        <ele>826.8</ele>
        <time>2021-10-12T08:27:03Z</time>
      </trkpt>
      <trkpt lat="42.3870500" lon="-6.0004450">
        <ele>826.2</ele>
        <time>2021-10-12T08:27:10Z</time>
      </trkpt>
      <trkpt lat="42.3869070" lon="-6.0003940">
        <ele>826.2</ele>
        <time>2021-10-12T08:27:13Z</time>
      </trkpt>
      <trkpt lat="42.3868610" lon="-6.0003750">
        <ele>826.2</ele>
        <time>2021-10-12T08:27:14Z</time>
      </trkpt>
      <trkpt lat="42.3868170" lon="-6.0003590">
        <ele>826.2</ele>
        <time>2021-10-12T08:27:15Z</time>
      </trkpt>
      <trkpt lat="42.3866900" lon="-6.0003270">
        <ele>826.0</ele>
        <time>2021-10-12T08:27:18Z</time>
      </trkpt>
      <trkpt lat="42.3864710" lon="-6.0002340">
        <ele>826.0</ele>
        <time>2021-10-12T08:27:24Z</time>
      </trkpt>
      <trkpt lat="42.3863630" lon="-6.0002050">
        <ele>826.0</ele>
        <time>2021-10-12T08:27:27Z</time>
      </trkpt>
      <trkpt lat="42.3862190" lon="-6.0001370">
        <ele>826.2</ele>
        <time>2021-10-12T08:27:31Z</time>
      </trkpt>
      <trkpt lat="42.3860750" lon="-6.0000760">
        <ele>826.2</ele>
        <time>2021-10-12T08:27:35Z</time>
      </trkpt>
      <trkpt lat="42.3860090" lon="-6.0000440">
        <ele>826.4</ele>
        <time>2021-10-12T08:27:37Z</time>
      </trkpt>
      <trkpt lat="42.3858060" lon="-5.9999570">
        <ele>826.2</ele>
        <time>2021-10-12T08:27:43Z</time>
      </trkpt>
      <trkpt lat="42.3855110" lon="-5.9998480">
        <ele>826.2</ele>
        <time>2021-10-12T08:27:50Z</time>
      </trkpt>
      <trkpt lat="42.3850820" lon="-5.9996820">
        <ele>826.6</ele>
        <time>2021-10-12T08:27:59Z</time>
      </trkpt>
      <trkpt lat="42.3849840" lon="-5.9996470">
        <ele>826.6</ele>
        <time>2021-10-12T08:28:01Z</time>
      </trkpt>
      <trkpt lat="42.3847400" lon="-5.9995460">
        <ele>826.2</ele>
        <time>2021-10-12T08:28:06Z</time>
      </trkpt>
      <trkpt lat="42.3843440" lon="-5.9994080">
        <ele>826.0</ele>
        <time>2021-10-12T08:28:14Z</time>
      </trkpt>
      <trkpt lat="42.3839780" lon="-5.9992490">
        <ele>825.8</ele>
        <time>2021-10-12T08:28:22Z</time>
      </trkpt>
      <trkpt lat="42.3839290" lon="-5.9992320">
        <ele>825.8</ele>
        <time>2021-10-12T08:28:23Z</time>
      </trkpt>
      <trkpt lat="42.3836210" lon="-5.9991050">
        <ele>825.6</ele>
        <time>2021-10-12T08:28:30Z</time>
      </trkpt>
      <trkpt lat="42.3832460" lon="-5.9989610">
        <ele>825.6</ele>
        <time>2021-10-12T08:28:38Z</time>
      </trkpt>
      <trkpt lat="42.3827980" lon="-5.9987770">
        <ele>825.4</ele>
        <time>2021-10-12T08:28:47Z</time>
      </trkpt>
      <trkpt lat="42.3827470" lon="-5.9987570">
        <ele>825.4</ele>
        <time>2021-10-12T08:28:48Z</time>
      </trkpt>
      <trkpt lat="42.3825980" lon="-5.9987010">
        <ele>825.4</ele>
        <time>2021-10-12T08:28:51Z</time>
      </trkpt>
      <trkpt lat="42.3824460" lon="-5.9986440">
        <ele>825.4</ele>
        <time>2021-10-12T08:28:54Z</time>
      </trkpt>
      <trkpt lat="42.3820320" lon="-5.9984750">
        <ele>825.2</ele>
        <time>2021-10-12T08:29:02Z</time>
      </trkpt>
      <trkpt lat="42.3815620" lon="-5.9982970">
        <ele>825.2</ele>
        <time>2021-10-12T08:29:11Z</time>
      </trkpt>
      <trkpt lat="42.3811530" lon="-5.9981330">
        <ele>824.2</ele>
        <time>2021-10-12T08:29:19Z</time>
      </trkpt>
      <trkpt lat="42.3809880" lon="-5.9980700">
        <ele>824.0</ele>
        <time>2021-10-12T08:29:22Z</time>
      </trkpt>
      <trkpt lat="42.3807220" lon="-5.9979830">
        <ele>823.2</ele>
        <time>2021-10-12T08:29:27Z</time>
      </trkpt>
      <trkpt lat="42.3806650" lon="-5.9979600">
        <ele>823.0</ele>
        <time>2021-10-12T08:29:28Z</time>
      </trkpt>
      <trkpt lat="42.3805510" lon="-5.9979080">
        <ele>822.6</ele>
        <time>2021-10-12T08:29:30Z</time>
      </trkpt>
      <trkpt lat="42.3804940" lon="-5.9978820">
        <ele>822.8</ele>
        <time>2021-10-12T08:29:31Z</time>
      </trkpt>
      <trkpt lat="42.3803810" lon="-5.9978270">
        <ele>822.6</ele>
        <time>2021-10-12T08:29:33Z</time>
      </trkpt>
      <trkpt lat="42.3802570" lon="-5.9977930">
        <ele>822.2</ele>
        <time>2021-10-12T08:29:35Z</time>
      </trkpt>
      <trkpt lat="42.3801960" lon="-5.9977750">
        <ele>821.8</ele>
        <time>2021-10-12T08:29:36Z</time>
      </trkpt>
      <trkpt lat="42.3800150" lon="-5.9977090">
        <ele>820.8</ele>
        <time>2021-10-12T08:29:39Z</time>
      </trkpt>
      <trkpt lat="42.3797650" lon="-5.9976230">
        <ele>820.0</ele>
        <time>2021-10-12T08:29:43Z</time>
      </trkpt>
      <trkpt lat="42.3794570" lon="-5.9975190">
        <ele>820.2</ele>
        <time>2021-10-12T08:29:49Z</time>
      </trkpt>
      <trkpt lat="42.3792850" lon="-5.9974620">
        <ele>821.8</ele>
        <time>2021-10-12T08:29:54Z</time>
      </trkpt>
      <trkpt lat="42.3792530" lon="-5.9974550">
        <ele>822.0</ele>
        <time>2021-10-12T08:29:55Z</time>
      </trkpt>
      <trkpt lat="42.3792220" lon="-5.9974440">
        <ele>822.4</ele>
        <time>2021-10-12T08:29:56Z</time>
      </trkpt>
      <trkpt lat="42.3791940" lon="-5.9974310">
        <ele>822.6</ele>
        <time>2021-10-12T08:29:57Z</time>
      </trkpt>
      <trkpt lat="42.3791020" lon="-5.9973980">
        <ele>822.8</ele>
        <time>2021-10-12T08:30:00Z</time>
      </trkpt>
      <trkpt lat="42.3790420" lon="-5.9973690">
        <ele>823.0</ele>
        <time>2021-10-12T08:30:02Z</time>
      </trkpt>
      <trkpt lat="42.3790110" lon="-5.9973580">
        <ele>823.2</ele>
        <time>2021-10-12T08:30:03Z</time>
      </trkpt>
      <trkpt lat="42.3788170" lon="-5.9972540">
        <ele>823.4</ele>
        <time>2021-10-12T08:30:09Z</time>
      </trkpt>
      <trkpt lat="42.3785770" lon="-5.9971340">
        <ele>823.6</ele>
        <time>2021-10-12T08:30:16Z</time>
      </trkpt>
      <trkpt lat="42.3784660" lon="-5.9970920">
        <ele>823.8</ele>
        <time>2021-10-12T08:30:19Z</time>
      </trkpt>
      <trkpt lat="42.3784310" lon="-5.9970750">
        <ele>823.8</ele>
        <time>2021-10-12T08:30:20Z</time>
      </trkpt>
      <trkpt lat="42.3783970" lon="-5.9970580">
        <ele>823.8</ele>
        <time>2021-10-12T08:30:21Z</time>
      </trkpt>
      <trkpt lat="42.3782610" lon="-5.9970130">
        <ele>823.8</ele>
        <time>2021-10-12T08:30:25Z</time>
      </trkpt>
      <trkpt lat="42.3780370" lon="-5.9969550">
        <ele>823.8</ele>
        <time>2021-10-12T08:30:31Z</time>
      </trkpt>
      <trkpt lat="42.3777500" lon="-5.9968570">
        <ele>823.8</ele>
        <time>2021-10-12T08:30:38Z</time>
      </trkpt>
      <trkpt lat="42.3776610" lon="-5.9968280">
        <ele>823.6</ele>
        <time>2021-10-12T08:30:40Z</time>
      </trkpt>
      <trkpt lat="42.3775350" lon="-5.9967820">
        <ele>823.6</ele>
        <time>2021-10-12T08:30:43Z</time>
      </trkpt>
      <trkpt lat="42.3774040" lon="-5.9967310">
        <ele>823.6</ele>
        <time>2021-10-12T08:30:46Z</time>
      </trkpt>
      <trkpt lat="42.3772770" lon="-5.9966750">
        <ele>823.4</ele>
        <time>2021-10-12T08:30:49Z</time>
      </trkpt>
      <trkpt lat="42.3771040" lon="-5.9966070">
        <ele>823.4</ele>
        <time>2021-10-12T08:30:53Z</time>
      </trkpt>
      <trkpt lat="42.3769300" lon="-5.9965240">
        <ele>823.6</ele>
        <time>2021-10-12T08:30:57Z</time>
      </trkpt>
      <trkpt lat="42.3767220" lon="-5.9964430">
        <ele>823.2</ele>
        <time>2021-10-12T08:31:02Z</time>
      </trkpt>
      <trkpt lat="42.3765390" lon="-5.9963650">
        <ele>823.2</ele>
        <time>2021-10-12T08:31:07Z</time>
      </trkpt>
      <trkpt lat="42.3764210" lon="-5.9963150">
        <ele>823.2</ele>
        <time>2021-10-12T08:31:10Z</time>
      </trkpt>
      <trkpt lat="42.3761880" lon="-5.9962110">
        <ele>822.8</ele>
        <time>2021-10-12T08:31:17Z</time>
      </trkpt>
      <trkpt lat="42.3761610" lon="-5.9961980">
        <ele>822.8</ele>
        <time>2021-10-12T08:31:18Z</time>
      </trkpt>
      <trkpt lat="42.3760820" lon="-5.9961750">
        <ele>822.6</ele>
        <time>2021-10-12T08:31:23Z</time>
      </trkpt>
      <trkpt lat="42.3760820" lon="-5.9961750">
        <ele>822.6</ele>
        <time>2021-10-12T08:31:24Z</time>
      </trkpt>
      <trkpt lat="42.3760630" lon="-5.9961580">
        <ele>822.2</ele>
        <time>2021-10-12T08:32:04Z</time>
      </trkpt>
      <trkpt lat="42.3760090" lon="-5.9961100">
        <ele>822.2</ele>
        <time>2021-10-12T08:32:06Z</time>
      </trkpt>
      <trkpt lat="42.3758080" lon="-5.9960580">
        <ele>822.0</ele>
        <time>2021-10-12T08:32:11Z</time>
      </trkpt>
      <trkpt lat="42.3757140" lon="-5.9960280">
        <ele>821.8</ele>
        <time>2021-10-12T08:32:13Z</time>
      </trkpt>
      <trkpt lat="42.3754820" lon="-5.9959410">
        <ele>821.0</ele>
        <time>2021-10-12T08:32:18Z</time>
      </trkpt>
      <trkpt lat="42.3753580" lon="-5.9958880">
        <ele>820.8</ele>
        <time>2021-10-12T08:32:20Z</time>
      </trkpt>
      <trkpt lat="42.3751180" lon="-5.9957960">
        <ele>819.8</ele>
        <time>2021-10-12T08:32:24Z</time>
      </trkpt>
      <trkpt lat="42.3749980" lon="-5.9957430">
        <ele>819.4</ele>
        <time>2021-10-12T08:32:26Z</time>
      </trkpt>
      <trkpt lat="42.3747050" lon="-5.9956270">
        <ele>818.4</ele>
        <time>2021-10-12T08:32:31Z</time>
      </trkpt>
      <trkpt lat="42.3745950" lon="-5.9955820">
        <ele>818.2</ele>
        <time>2021-10-12T08:32:33Z</time>
      </trkpt>
      <trkpt lat="42.3742510" lon="-5.9954400">
        <ele>817.6</ele>
        <time>2021-10-12T08:32:40Z</time>
      </trkpt>
      <trkpt lat="42.3738770" lon="-5.9952960">
        <ele>817.6</ele>
        <time>2021-10-12T08:32:48Z</time>
      </trkpt>
      <trkpt lat="42.3734850" lon="-5.9951300">
        <ele>818.0</ele>
        <time>2021-10-12T08:32:57Z</time>
      </trkpt>
      <trkpt lat="42.3732060" lon="-5.9950230">
        <ele>818.6</ele>
        <time>2021-10-12T08:33:04Z</time>
      </trkpt>
      <trkpt lat="42.3730300" lon="-5.9949430">
        <ele>819.2</ele>
        <time>2021-10-12T08:33:09Z</time>
      </trkpt>
      <trkpt lat="42.3729130" lon="-5.9948880">
        <ele>819.6</ele>
        <time>2021-10-12T08:33:12Z</time>
      </trkpt>
      <trkpt lat="42.3728770" lon="-5.9948710">
        <ele>819.6</ele>
        <time>2021-10-12T08:33:13Z</time>
      </trkpt>
      <trkpt lat="42.3725680" lon="-5.9947470">
        <ele>820.6</ele>
        <time>2021-10-12T08:33:21Z</time>
      </trkpt>
      <trkpt lat="42.3725280" lon="-5.9947350">
        <ele>820.8</ele>
        <time>2021-10-12T08:33:22Z</time>
      </trkpt>
      <trkpt lat="42.3723700" lon="-5.9946690">
        <ele>821.0</ele>
        <time>2021-10-12T08:33:26Z</time>
      </trkpt>
      <trkpt lat="42.3722490" lon="-5.9946170">
        <ele>821.2</ele>
        <time>2021-10-12T08:33:29Z</time>
      </trkpt>
      <trkpt lat="42.3721670" lon="-5.9945870">
        <ele>821.2</ele>
        <time>2021-10-12T08:33:31Z</time>
      </trkpt>
      <trkpt lat="42.3721280" lon="-5.9945690">
        <ele>821.2</ele>
        <time>2021-10-12T08:33:32Z</time>
      </trkpt>
      <trkpt lat="42.3719640" lon="-5.9945000">
        <ele>821.4</ele>
        <time>2021-10-12T08:33:36Z</time>
      </trkpt>
      <trkpt lat="42.3718440" lon="-5.9944510">
        <ele>821.4</ele>
        <time>2021-10-12T08:33:39Z</time>
      </trkpt>
      <trkpt lat="42.3717210" lon="-5.9944030">
        <ele>821.4</ele>
        <time>2021-10-12T08:33:42Z</time>
      </trkpt>
      <trkpt lat="42.3713200" lon="-5.9942240">
        <ele>821.6</ele>
        <time>2021-10-12T08:33:52Z</time>
      </trkpt>
      <trkpt lat="42.3710690" lon="-5.9941120">
        <ele>821.6</ele>
        <time>2021-10-12T08:33:58Z</time>
      </trkpt>
      <trkpt lat="42.3709910" lon="-5.9940680">
        <ele>821.8</ele>
        <time>2021-10-12T08:34:00Z</time>
      </trkpt>
      <trkpt lat="42.3708760" lon="-5.9939770">
        <ele>821.8</ele>
        <time>2021-10-12T08:34:03Z</time>
      </trkpt>
      <trkpt lat="42.3708400" lon="-5.9939440">
        <ele>821.8</ele>
        <time>2021-10-12T08:34:04Z</time>
      </trkpt>
      <trkpt lat="42.3707480" lon="-5.9938300">
        <ele>821.8</ele>
        <time>2021-10-12T08:34:07Z</time>
      </trkpt>
      <trkpt lat="42.3705190" lon="-5.9935770">
        <ele>821.6</ele>
        <time>2021-10-12T08:34:14Z</time>
      </trkpt>
      <trkpt lat="42.3704900" lon="-5.9935300">
        <ele>821.4</ele>
        <time>2021-10-12T08:34:15Z</time>
      </trkpt>
      <trkpt lat="42.3704600" lon="-5.9934880">
        <ele>821.4</ele>
        <time>2021-10-12T08:34:16Z</time>
      </trkpt>
      <trkpt lat="42.3703520" lon="-5.9933790">
        <ele>821.2</ele>
        <time>2021-10-12T08:34:19Z</time>
      </trkpt>
      <trkpt lat="42.3703150" lon="-5.9933460">
        <ele>821.2</ele>
        <time>2021-10-12T08:34:20Z</time>
      </trkpt>
      <trkpt lat="42.3702790" lon="-5.9933110">
        <ele>821.2</ele>
        <time>2021-10-12T08:34:21Z</time>
      </trkpt>
      <trkpt lat="42.3700830" lon="-5.9930860">
        <ele>821.0</ele>
        <time>2021-10-12T08:34:27Z</time>
      </trkpt>
      <trkpt lat="42.3698700" lon="-5.9928390">
        <ele>821.2</ele>
        <time>2021-10-12T08:34:34Z</time>
      </trkpt>
      <trkpt lat="42.3697360" lon="-5.9927110">
        <ele>821.4</ele>
        <time>2021-10-12T08:34:38Z</time>
      </trkpt>
      <trkpt lat="42.3696420" lon="-5.9925950">
        <ele>821.6</ele>
        <time>2021-10-12T08:34:41Z</time>
      </trkpt>
      <trkpt lat="42.3693830" lon="-5.9922940">
        <ele>821.8</ele>
        <time>2021-10-12T08:34:49Z</time>
      </trkpt>
      <trkpt lat="42.3693150" lon="-5.9922210">
        <ele>821.8</ele>
        <time>2021-10-12T08:34:51Z</time>
      </trkpt>
      <trkpt lat="42.3690340" lon="-5.9919030">
        <ele>821.8</ele>
        <time>2021-10-12T08:34:59Z</time>
      </trkpt>
      <trkpt lat="42.3689580" lon="-5.9918290">
        <ele>821.8</ele>
        <time>2021-10-12T08:35:01Z</time>
      </trkpt>
      <trkpt lat="42.3688170" lon="-5.9916610">
        <ele>821.4</ele>
        <time>2021-10-12T08:35:05Z</time>
      </trkpt>
      <trkpt lat="42.3687110" lon="-5.9915230">
        <ele>821.4</ele>
        <time>2021-10-12T08:35:08Z</time>
      </trkpt>
      <trkpt lat="42.3683770" lon="-5.9911490">
        <ele>821.4</ele>
        <time>2021-10-12T08:35:17Z</time>
      </trkpt>
      <trkpt lat="42.3683400" lon="-5.9911070">
        <ele>821.4</ele>
        <time>2021-10-12T08:35:18Z</time>
      </trkpt>
      <trkpt lat="42.3682650" lon="-5.9910280">
        <ele>821.4</ele>
        <time>2021-10-12T08:35:20Z</time>
      </trkpt>
      <trkpt lat="42.3680740" lon="-5.9908100">
        <ele>821.2</ele>
        <time>2021-10-12T08:35:25Z</time>
      </trkpt>
      <trkpt lat="42.3677930" lon="-5.9904850">
        <ele>821.0</ele>
        <time>2021-10-12T08:35:32Z</time>
      </trkpt>
      <trkpt lat="42.3676710" lon="-5.9903530">
        <ele>821.0</ele>
        <time>2021-10-12T08:35:35Z</time>
      </trkpt>
      <trkpt lat="42.3674330" lon="-5.9900720">
        <ele>820.8</ele>
        <time>2021-10-12T08:35:41Z</time>
      </trkpt>
      <trkpt lat="42.3673520" lon="-5.9899770">
        <ele>820.6</ele>
        <time>2021-10-12T08:35:43Z</time>
      </trkpt>
      <trkpt lat="42.3670600" lon="-5.9896560">
        <ele>820.6</ele>
        <time>2021-10-12T08:35:50Z</time>
      </trkpt>
      <trkpt lat="42.3667310" lon="-5.9893220">
        <ele>820.8</ele>
        <time>2021-10-12T08:35:58Z</time>
      </trkpt>
      <trkpt lat="42.3666910" lon="-5.9892790">
        <ele>820.8</ele>
        <time>2021-10-12T08:35:59Z</time>
      </trkpt>
      <trkpt lat="42.3662440" lon="-5.9888510">
        <ele>821.2</ele>
        <time>2021-10-12T08:36:10Z</time>
      </trkpt>
      <trkpt lat="42.3662020" lon="-5.9888150">
        <ele>821.2</ele>
        <time>2021-10-12T08:36:11Z</time>
      </trkpt>
      <trkpt lat="42.3659530" lon="-5.9885970">
        <ele>821.4</ele>
        <time>2021-10-12T08:36:17Z</time>
      </trkpt>
      <trkpt lat="42.3658680" lon="-5.9885210">
        <ele>821.4</ele>
        <time>2021-10-12T08:36:19Z</time>
      </trkpt>
      <trkpt lat="42.3654740" lon="-5.9881640">
        <ele>821.2</ele>
        <time>2021-10-12T08:36:28Z</time>
      </trkpt>
      <trkpt lat="42.3653850" lon="-5.9880870">
        <ele>821.2</ele>
        <time>2021-10-12T08:36:30Z</time>
      </trkpt>
      <trkpt lat="42.3652540" lon="-5.9879640">
        <ele>821.2</ele>
        <time>2021-10-12T08:36:33Z</time>
      </trkpt>
      <trkpt lat="42.3651610" lon="-5.9878880">
        <ele>821.2</ele>
        <time>2021-10-12T08:36:35Z</time>
      </trkpt>
      <trkpt lat="42.3648700" lon="-5.9876230">
        <ele>820.8</ele>
        <time>2021-10-12T08:36:42Z</time>
      </trkpt>
      <trkpt lat="42.3647550" lon="-5.9875230">
        <ele>820.8</ele>
        <time>2021-10-12T08:36:45Z</time>
      </trkpt>
      <trkpt lat="42.3645740" lon="-5.9873780">
        <ele>821.0</ele>
        <time>2021-10-12T08:36:49Z</time>
      </trkpt>
      <trkpt lat="42.3642900" lon="-5.9871230">
        <ele>821.2</ele>
        <time>2021-10-12T08:36:56Z</time>
      </trkpt>
      <trkpt lat="42.3639360" lon="-5.9867950">
        <ele>821.4</ele>
        <time>2021-10-12T08:37:05Z</time>
      </trkpt>
      <trkpt lat="42.3637310" lon="-5.9866100">
        <ele>821.4</ele>
        <time>2021-10-12T08:37:10Z</time>
      </trkpt>
      <trkpt lat="42.3635210" lon="-5.9864180">
        <ele>821.4</ele>
        <time>2021-10-12T08:37:15Z</time>
      </trkpt>
      <trkpt lat="42.3634380" lon="-5.9863390">
        <ele>821.2</ele>
        <time>2021-10-12T08:37:17Z</time>
      </trkpt>
      <trkpt lat="42.3631290" lon="-5.9860610">
        <ele>820.8</ele>
        <time>2021-10-12T08:37:24Z</time>
      </trkpt>
      <trkpt lat="42.3628960" lon="-5.9858650">
        <ele>820.4</ele>
        <time>2021-10-12T08:37:29Z</time>
      </trkpt>
      <trkpt lat="42.3627500" lon="-5.9857520">
        <ele>820.2</ele>
        <time>2021-10-12T08:37:32Z</time>
      </trkpt>
      <trkpt lat="42.3625460" lon="-5.9856200">
        <ele>820.0</ele>
        <time>2021-10-12T08:37:36Z</time>
      </trkpt>
      <trkpt lat="42.3624450" lon="-5.9855600">
        <ele>820.0</ele>
        <time>2021-10-12T08:37:38Z</time>
      </trkpt>
      <trkpt lat="42.3623910" lon="-5.9855350">
        <ele>820.0</ele>
        <time>2021-10-12T08:37:39Z</time>
      </trkpt>
      <trkpt lat="42.3623380" lon="-5.9855090">
        <ele>820.0</ele>
        <time>2021-10-12T08:37:40Z</time>
      </trkpt>
      <trkpt lat="42.3620920" lon="-5.9853620">
        <ele>820.0</ele>
        <time>2021-10-12T08:37:45Z</time>
      </trkpt>
      <trkpt lat="42.3617340" lon="-5.9851370">
        <ele>820.2</ele>
        <time>2021-10-12T08:37:53Z</time>
      </trkpt>
      <trkpt lat="42.3614560" lon="-5.9849720">
        <ele>820.2</ele>
        <time>2021-10-12T08:37:59Z</time>
      </trkpt>
      <trkpt lat="42.3613170" lon="-5.9848900">
        <ele>820.6</ele>
        <time>2021-10-12T08:38:02Z</time>
      </trkpt>
      <trkpt lat="42.3610860" lon="-5.9847560">
        <ele>820.6</ele>
        <time>2021-10-12T08:38:07Z</time>
      </trkpt>
      <trkpt lat="42.3606660" lon="-5.9844900">
        <ele>820.4</ele>
        <time>2021-10-12T08:38:16Z</time>
      </trkpt>
      <trkpt lat="42.3604680" lon="-5.9842640">
        <ele>820.4</ele>
        <time>2021-10-12T08:38:21Z</time>
      </trkpt>
      <trkpt lat="42.3603180" lon="-5.9840650">
        <ele>820.0</ele>
        <time>2021-10-12T08:38:25Z</time>
      </trkpt>
      <trkpt lat="42.3602500" lon="-5.9839640">
        <ele>819.8</ele>
        <time>2021-10-12T08:38:27Z</time>
      </trkpt>
      <trkpt lat="42.3601030" lon="-5.9837790">
        <ele>819.8</ele>
        <time>2021-10-12T08:38:31Z</time>
      </trkpt>
      <trkpt lat="42.3597070" lon="-5.9832670">
        <ele>820.0</ele>
        <time>2021-10-12T08:38:42Z</time>
      </trkpt>
      <trkpt lat="42.3594700" lon="-5.9829750">
        <ele>819.8</ele>
        <time>2021-10-12T08:38:48Z</time>
      </trkpt>
      <trkpt lat="42.3594390" lon="-5.9829370">
        <ele>819.8</ele>
        <time>2021-10-12T08:38:49Z</time>
      </trkpt>
      <trkpt lat="42.3593560" lon="-5.9828340">
        <ele>819.6</ele>
        <time>2021-10-12T08:38:51Z</time>
      </trkpt>
      <trkpt lat="42.3592980" lon="-5.9827400">
        <ele>819.4</ele>
        <time>2021-10-12T08:38:53Z</time>
      </trkpt>
      <trkpt lat="42.3592240" lon="-5.9826300">
        <ele>819.4</ele>
        <time>2021-10-12T08:38:55Z</time>
      </trkpt>
      <trkpt lat="42.3591420" lon="-5.9825380">
        <ele>819.4</ele>
        <time>2021-10-12T08:38:57Z</time>
      </trkpt>
      <trkpt lat="42.3589300" lon="-5.9822350">
        <ele>819.2</ele>
        <time>2021-10-12T08:39:03Z</time>
      </trkpt>
      <trkpt lat="42.3588870" lon="-5.9821710">
        <ele>819.2</ele>
        <time>2021-10-12T08:39:04Z</time>
      </trkpt>
      <trkpt lat="42.3588140" lon="-5.9820700">
        <ele>819.2</ele>
        <time>2021-10-12T08:39:06Z</time>
      </trkpt>
      <trkpt lat="42.3586490" lon="-5.9818860">
        <ele>819.4</ele>
        <time>2021-10-12T08:39:10Z</time>
      </trkpt>
      <trkpt lat="42.3584570" lon="-5.9816470">
        <ele>819.4</ele>
        <time>2021-10-12T08:39:15Z</time>
      </trkpt>
      <trkpt lat="42.3583920" lon="-5.9815690">
        <ele>819.4</ele>
        <time>2021-10-12T08:39:17Z</time>
      </trkpt>
      <trkpt lat="42.3582130" lon="-5.9813350">
        <ele>819.4</ele>
        <time>2021-10-12T08:39:22Z</time>
      </trkpt>
      <trkpt lat="42.3581340" lon="-5.9812340">
        <ele>819.4</ele>
        <time>2021-10-12T08:39:24Z</time>
      </trkpt>
      <trkpt lat="42.3580330" lon="-5.9811000">
        <ele>819.6</ele>
        <time>2021-10-12T08:39:27Z</time>
      </trkpt>
      <trkpt lat="42.3579120" lon="-5.9809500">
        <ele>819.4</ele>
        <time>2021-10-12T08:39:30Z</time>
      </trkpt>
      <trkpt lat="42.3576050" lon="-5.9805580">
        <ele>819.4</ele>
        <time>2021-10-12T08:39:38Z</time>
      </trkpt>
      <trkpt lat="42.3575340" lon="-5.9804680">
        <ele>819.4</ele>
        <time>2021-10-12T08:39:40Z</time>
      </trkpt>
      <trkpt lat="42.3573410" lon="-5.9802120">
        <ele>819.2</ele>
        <time>2021-10-12T08:39:45Z</time>
      </trkpt>
      <trkpt lat="42.3571840" lon="-5.9800030">
        <ele>818.6</ele>
        <time>2021-10-12T08:39:49Z</time>
      </trkpt>
      <trkpt lat="42.3571560" lon="-5.9799650">
        <ele>818.6</ele>
        <time>2021-10-12T08:39:50Z</time>
      </trkpt>
      <trkpt lat="42.3567430" lon="-5.9794430">
        <ele>818.0</ele>
        <time>2021-10-12T08:40:01Z</time>
      </trkpt>
      <trkpt lat="42.3565820" lon="-5.9792460">
        <ele>817.8</ele>
        <time>2021-10-12T08:40:05Z</time>
      </trkpt>
      <trkpt lat="42.3562550" lon="-5.9788380">
        <ele>817.6</ele>
        <time>2021-10-12T08:40:13Z</time>
      </trkpt>
      <trkpt lat="42.3561260" lon="-5.9786730">
        <ele>817.4</ele>
        <time>2021-10-12T08:40:16Z</time>
      </trkpt>
      <trkpt lat="42.3559340" lon="-5.9784330">
        <ele>817.0</ele>
        <time>2021-10-12T08:40:21Z</time>
      </trkpt>
      <trkpt lat="42.3558970" lon="-5.9783850">
        <ele>816.8</ele>
        <time>2021-10-12T08:40:23Z</time>
      </trkpt>
      <trkpt lat="42.3557930" lon="-5.9782360">
        <ele>816.6</ele>
        <time>2021-10-12T08:40:25Z</time>
      </trkpt>
      <trkpt lat="42.3556350" lon="-5.9779570">
        <ele>816.2</ele>
        <time>2021-10-12T08:40:30Z</time>
      </trkpt>
      <trkpt lat="42.3554780" lon="-5.9776650">
        <ele>816.2</ele>
        <time>2021-10-12T08:40:35Z</time>
      </trkpt>
      <trkpt lat="42.3553540" lon="-5.9774290">
        <ele>816.0</ele>
        <time>2021-10-12T08:40:39Z</time>
      </trkpt>
      <trkpt lat="42.3552630" lon="-5.9772540">
        <ele>815.8</ele>
        <time>2021-10-12T08:40:42Z</time>
      </trkpt>
      <trkpt lat="42.3551390" lon="-5.9770200">
        <ele>815.4</ele>
        <time>2021-10-12T08:40:46Z</time>
      </trkpt>
      <trkpt lat="42.3550730" lon="-5.9769050">
        <ele>815.0</ele>
        <time>2021-10-12T08:40:48Z</time>
      </trkpt>
      <trkpt lat="42.3549780" lon="-5.9767210">
        <ele>815.0</ele>
        <time>2021-10-12T08:40:51Z</time>
      </trkpt>
      <trkpt lat="42.3548490" lon="-5.9764720">
        <ele>814.6</ele>
        <time>2021-10-12T08:40:55Z</time>
      </trkpt>
      <trkpt lat="42.3547880" lon="-5.9763440">
        <ele>814.8</ele>
        <time>2021-10-12T08:40:57Z</time>
      </trkpt>
      <trkpt lat="42.3547560" lon="-5.9762830">
        <ele>814.4</ele>
        <time>2021-10-12T08:40:58Z</time>
      </trkpt>
      <trkpt lat="42.3545510" lon="-5.9759250">
        <ele>814.2</ele>
        <time>2021-10-12T08:41:04Z</time>
      </trkpt>
      <trkpt lat="42.3544430" lon="-5.9757500">
        <ele>814.0</ele>
        <time>2021-10-12T08:41:07Z</time>
      </trkpt>
      <trkpt lat="42.3541880" lon="-5.9753270">
        <ele>813.6</ele>
        <time>2021-10-12T08:41:14Z</time>
      </trkpt>
      <trkpt lat="42.3540860" lon="-5.9751610">
        <ele>813.4</ele>
        <time>2021-10-12T08:41:17Z</time>
      </trkpt>
      <trkpt lat="42.3539430" lon="-5.9749320">
        <ele>813.2</ele>
        <time>2021-10-12T08:41:21Z</time>
      </trkpt>
      <trkpt lat="42.3538320" lon="-5.9747470">
        <ele>813.2</ele>
        <time>2021-10-12T08:41:24Z</time>
      </trkpt>
      <trkpt lat="42.3536880" lon="-5.9745210">
        <ele>813.2</ele>
        <time>2021-10-12T08:41:28Z</time>
      </trkpt>
      <trkpt lat="42.3534080" lon="-5.9740860">
        <ele>813.0</ele>
        <time>2021-10-12T08:41:36Z</time>
      </trkpt>
      <trkpt lat="42.3532740" lon="-5.9738650">
        <ele>813.0</ele>
        <time>2021-10-12T08:41:40Z</time>
      </trkpt>
      <trkpt lat="42.3530990" lon="-5.9735930">
        <ele>813.0</ele>
        <time>2021-10-12T08:41:45Z</time>
      </trkpt>
      <trkpt lat="42.3528000" lon="-5.9731250">
        <ele>812.6</ele>
        <time>2021-10-12T08:41:53Z</time>
      </trkpt>
      <trkpt lat="42.3527190" lon="-5.9730080">
        <ele>812.4</ele>
        <time>2021-10-12T08:41:55Z</time>
      </trkpt>
      <trkpt lat="42.3525230" lon="-5.9727590">
        <ele>812.0</ele>
        <time>2021-10-12T08:42:00Z</time>
      </trkpt>
      <trkpt lat="42.3523320" lon="-5.9725430">
        <ele>811.8</ele>
        <time>2021-10-12T08:42:05Z</time>
      </trkpt>
      <trkpt lat="42.3522940" lon="-5.9724940">
        <ele>811.8</ele>
        <time>2021-10-12T08:42:06Z</time>
      </trkpt>
      <trkpt lat="42.3521950" lon="-5.9723610">
        <ele>811.6</ele>
        <time>2021-10-12T08:42:09Z</time>
      </trkpt>
      <trkpt lat="42.3520670" lon="-5.9721880">
        <ele>811.8</ele>
        <time>2021-10-12T08:42:13Z</time>
      </trkpt>
      <trkpt lat="42.3520360" lon="-5.9721360">
        <ele>811.8</ele>
        <time>2021-10-12T08:42:14Z</time>
      </trkpt>
      <trkpt lat="42.3518470" lon="-5.9719110">
        <ele>812.0</ele>
        <time>2021-10-12T08:42:20Z</time>
      </trkpt>
      <trkpt lat="42.3516600" lon="-5.9717180">
        <ele>812.2</ele>
        <time>2021-10-12T08:42:25Z</time>
      </trkpt>
      <trkpt lat="42.3516240" lon="-5.9716710">
        <ele>812.2</ele>
        <time>2021-10-12T08:42:26Z</time>
      </trkpt>
      <trkpt lat="42.3515540" lon="-5.9715710">
        <ele>812.2</ele>
        <time>2021-10-12T08:42:28Z</time>
      </trkpt>
      <trkpt lat="42.3515150" lon="-5.9715280">
        <ele>812.2</ele>
        <time>2021-10-12T08:42:29Z</time>
      </trkpt>
      <trkpt lat="42.3512190" lon="-5.9712050">
        <ele>812.2</ele>
        <time>2021-10-12T08:42:37Z</time>
      </trkpt>
      <trkpt lat="42.3511110" lon="-5.9710640">
        <ele>812.4</ele>
        <time>2021-10-12T08:42:40Z</time>
      </trkpt>
      <trkpt lat="42.3509690" lon="-5.9708750">
        <ele>812.4</ele>
        <time>2021-10-12T08:42:44Z</time>
      </trkpt>
      <trkpt lat="42.3509060" lon="-5.9707880">
        <ele>812.4</ele>
        <time>2021-10-12T08:42:46Z</time>
      </trkpt>
      <trkpt lat="42.3506860" lon="-5.9704800">
        <ele>812.2</ele>
        <time>2021-10-12T08:42:52Z</time>
      </trkpt>
      <trkpt lat="42.3506160" lon="-5.9703800">
        <ele>812.2</ele>
        <time>2021-10-12T08:42:54Z</time>
      </trkpt>
      <trkpt lat="42.3503670" lon="-5.9700270">
        <ele>811.6</ele>
        <time>2021-10-12T08:43:01Z</time>
      </trkpt>
      <trkpt lat="42.3502890" lon="-5.9699410">
        <ele>811.4</ele>
        <time>2021-10-12T08:43:03Z</time>
      </trkpt>
      <trkpt lat="42.3501040" lon="-5.9697030">
        <ele>811.2</ele>
        <time>2021-10-12T08:43:08Z</time>
      </trkpt>
      <trkpt lat="42.3499100" lon="-5.9694130">
        <ele>811.0</ele>
        <time>2021-10-12T08:43:14Z</time>
      </trkpt>
      <trkpt lat="42.3497180" lon="-5.9691130">
        <ele>810.8</ele>
        <time>2021-10-12T08:43:20Z</time>
      </trkpt>
      <trkpt lat="42.3496850" lon="-5.9690700">
        <ele>810.8</ele>
        <time>2021-10-12T08:43:21Z</time>
      </trkpt>
      <trkpt lat="42.3495180" lon="-5.9688570">
        <ele>811.0</ele>
        <time>2021-10-12T08:43:26Z</time>
      </trkpt>
      <trkpt lat="42.3492640" lon="-5.9684920">
        <ele>810.8</ele>
        <time>2021-10-12T08:43:34Z</time>
      </trkpt>
      <trkpt lat="42.3491570" lon="-5.9683550">
        <ele>810.8</ele>
        <time>2021-10-12T08:43:38Z</time>
      </trkpt>
      <trkpt lat="42.3491170" lon="-5.9683070">
        <ele>810.8</ele>
        <time>2021-10-12T08:43:40Z</time>
      </trkpt>
      <trkpt lat="42.3490700" lon="-5.9682400">
        <ele>810.6</ele>
        <time>2021-10-12T08:43:43Z</time>
      </trkpt>
      <trkpt lat="42.3490430" lon="-5.9682000">
        <ele>810.6</ele>
        <time>2021-10-12T08:43:45Z</time>
      </trkpt>
      <trkpt lat="42.3490370" lon="-5.9681730">
        <ele>810.6</ele>
        <time>2021-10-12T08:43:46Z</time>
      </trkpt>
      <trkpt lat="42.3489670" lon="-5.9680730">
        <ele>810.6</ele>
        <time>2021-10-12T08:43:51Z</time>
      </trkpt>
      <trkpt lat="42.3488700" lon="-5.9679740">
        <ele>810.4</ele>
        <time>2021-10-12T08:43:55Z</time>
      </trkpt>
      <trkpt lat="42.3488460" lon="-5.9679460">
        <ele>810.4</ele>
        <time>2021-10-12T08:43:56Z</time>
      </trkpt>
      <trkpt lat="42.3486610" lon="-5.9677550">
        <ele>810.2</ele>
        <time>2021-10-12T08:44:02Z</time>
      </trkpt>
      <trkpt lat="42.3485310" lon="-5.9675930">
        <ele>809.8</ele>
        <time>2021-10-12T08:44:06Z</time>
      </trkpt>
      <trkpt lat="42.3484230" lon="-5.9674830">
        <ele>809.6</ele>
        <time>2021-10-12T08:44:09Z</time>
      </trkpt>
      <trkpt lat="42.3483480" lon="-5.9674090">
        <ele>809.4</ele>
        <time>2021-10-12T08:44:11Z</time>
      </trkpt>
      <trkpt lat="42.3481600" lon="-5.9671990">
        <ele>809.0</ele>
        <time>2021-10-12T08:44:16Z</time>
      </trkpt>
      <trkpt lat="42.3481210" lon="-5.9671620">
        <ele>808.8</ele>
        <time>2021-10-12T08:44:17Z</time>
      </trkpt>
      <trkpt lat="42.3479340" lon="-5.9669530">
        <ele>808.6</ele>
        <time>2021-10-12T08:44:22Z</time>
      </trkpt>
      <trkpt lat="42.3478970" lon="-5.9669080">
        <ele>808.6</ele>
        <time>2021-10-12T08:44:23Z</time>
      </trkpt>
      <trkpt lat="42.3476600" lon="-5.9666610">
        <ele>808.4</ele>
        <time>2021-10-12T08:44:29Z</time>
      </trkpt>
      <trkpt lat="42.3475920" lon="-5.9665720">
        <ele>808.4</ele>
        <time>2021-10-12T08:44:31Z</time>
      </trkpt>
      <trkpt lat="42.3472120" lon="-5.9661290">
        <ele>807.6</ele>
        <time>2021-10-12T08:44:41Z</time>
      </trkpt>
      <trkpt lat="42.3471240" lon="-5.9660490">
        <ele>807.2</ele>
        <time>2021-10-12T08:44:43Z</time>
      </trkpt>
      <trkpt lat="42.3469760" lon="-5.9658690">
        <ele>806.4</ele>
        <time>2021-10-12T08:44:47Z</time>
      </trkpt>
      <trkpt lat="42.3469450" lon="-5.9658230">
        <ele>806.2</ele>
        <time>2021-10-12T08:44:48Z</time>
      </trkpt>
      <trkpt lat="42.3468250" lon="-5.9656670">
        <ele>806.0</ele>
        <time>2021-10-12T08:44:52Z</time>
      </trkpt>
      <trkpt lat="42.3465280" lon="-5.9652700">
        <ele>806.6</ele>
        <time>2021-10-12T08:45:02Z</time>
      </trkpt>
      <trkpt lat="42.3462520" lon="-5.9649190">
        <ele>807.2</ele>
        <time>2021-10-12T08:45:11Z</time>
      </trkpt>
      <trkpt lat="42.3462200" lon="-5.9648830">
        <ele>807.2</ele>
        <time>2021-10-12T08:45:12Z</time>
      </trkpt>
      <trkpt lat="42.3459940" lon="-5.9645980">
        <ele>807.2</ele>
        <time>2021-10-12T08:45:19Z</time>
      </trkpt>
      <trkpt lat="42.3458950" lon="-5.9644700">
        <ele>807.2</ele>
        <time>2021-10-12T08:45:22Z</time>
      </trkpt>
      <trkpt lat="42.3455870" lon="-5.9640680">
        <ele>806.8</ele>
        <time>2021-10-12T08:45:31Z</time>
      </trkpt>
      <trkpt lat="42.3455500" lon="-5.9640210">
        <ele>806.8</ele>
        <time>2021-10-12T08:45:32Z</time>
      </trkpt>
      <trkpt lat="42.3454480" lon="-5.9638710">
        <ele>806.8</ele>
        <time>2021-10-12T08:45:35Z</time>
      </trkpt>
      <trkpt lat="42.3452280" lon="-5.9635880">
        <ele>806.6</ele>
        <time>2021-10-12T08:45:41Z</time>
      </trkpt>
      <trkpt lat="42.3449500" lon="-5.9632140">
        <ele>806.6</ele>
        <time>2021-10-12T08:45:49Z</time>
      </trkpt>
      <trkpt lat="42.3445940" lon="-5.9627410">
        <ele>806.2</ele>
        <time>2021-10-12T08:45:59Z</time>
      </trkpt>
      <trkpt lat="42.3443440" lon="-5.9624170">
        <ele>806.0</ele>
        <time>2021-10-12T08:46:06Z</time>
      </trkpt>
      <trkpt lat="42.3441460" lon="-5.9621370">
        <ele>806.0</ele>
        <time>2021-10-12T08:46:12Z</time>
      </trkpt>
      <trkpt lat="42.3440540" lon="-5.9620010">
        <ele>806.0</ele>
        <time>2021-10-12T08:46:15Z</time>
      </trkpt>
      <trkpt lat="42.3439660" lon="-5.9618580">
        <ele>805.8</ele>
        <time>2021-10-12T08:46:18Z</time>
      </trkpt>
      <trkpt lat="42.3438550" lon="-5.9616540">
        <ele>805.8</ele>
        <time>2021-10-12T08:46:22Z</time>
      </trkpt>
      <trkpt lat="42.3437510" lon="-5.9614500">
        <ele>805.6</ele>
        <time>2021-10-12T08:46:26Z</time>
      </trkpt>
      <trkpt lat="42.3436460" lon="-5.9612160">
        <ele>805.2</ele>
        <time>2021-10-12T08:46:30Z</time>
      </trkpt>
      <trkpt lat="42.3435860" lon="-5.9610930">
        <ele>804.8</ele>
        <time>2021-10-12T08:46:32Z</time>
      </trkpt>
      <trkpt lat="42.3435240" lon="-5.9609750">
        <ele>804.2</ele>
        <time>2021-10-12T08:46:34Z</time>
      </trkpt>
      <trkpt lat="42.3434910" lon="-5.9609150">
        <ele>804.0</ele>
        <time>2021-10-12T08:46:35Z</time>
      </trkpt>
      <trkpt lat="42.3433830" lon="-5.9607200">
        <ele>803.0</ele>
        <time>2021-10-12T08:46:38Z</time>
      </trkpt>
      <trkpt lat="42.3433430" lon="-5.9606540">
        <ele>802.8</ele>
        <time>2021-10-12T08:46:39Z</time>
      </trkpt>
      <trkpt lat="42.3432660" lon="-5.9605260">
        <ele>802.2</ele>
        <time>2021-10-12T08:46:41Z</time>
      </trkpt>
      <trkpt lat="42.3431930" lon="-5.9604170">
        <ele>801.4</ele>
        <time>2021-10-12T08:46:43Z</time>
      </trkpt>
      <trkpt lat="42.3430960" lon="-5.9601940">
        <ele>800.8</ele>
        <time>2021-10-12T08:46:47Z</time>
      </trkpt>
      <trkpt lat="42.3430720" lon="-5.9601490">
        <ele>800.8</ele>
        <time>2021-10-12T08:46:48Z</time>
      </trkpt>
      <trkpt lat="42.3430020" lon="-5.9600260">
        <ele>800.6</ele>
        <time>2021-10-12T08:46:51Z</time>
      </trkpt>
      <trkpt lat="42.3429310" lon="-5.9599070">
        <ele>800.6</ele>
        <time>2021-10-12T08:46:54Z</time>
      </trkpt>
      <trkpt lat="42.3428540" lon="-5.9597100">
        <ele>800.6</ele>
        <time>2021-10-12T08:46:59Z</time>
      </trkpt>
      <trkpt lat="42.3427710" lon="-5.9595510">
        <ele>800.6</ele>
        <time>2021-10-12T08:47:04Z</time>
      </trkpt>
      <trkpt lat="42.3426700" lon="-5.9594180">
        <ele>800.6</ele>
        <time>2021-10-12T08:47:10Z</time>
      </trkpt>
      <trkpt lat="42.3425950" lon="-5.9592840">
        <ele>801.2</ele>
        <time>2021-10-12T08:47:16Z</time>
      </trkpt>
      <trkpt lat="42.3425160" lon="-5.9591250">
        <ele>802.0</ele>
        <time>2021-10-12T08:47:23Z</time>
      </trkpt>
      <trkpt lat="42.3424810" lon="-5.9590630">
        <ele>802.2</ele>
        <time>2021-10-12T08:47:26Z</time>
      </trkpt>
      <trkpt lat="42.3424660" lon="-5.9590470">
        <ele>802.4</ele>
        <time>2021-10-12T08:47:27Z</time>
      </trkpt>
      <trkpt lat="42.3424490" lon="-5.9590320">
        <ele>802.4</ele>
        <time>2021-10-12T08:47:28Z</time>
      </trkpt>
      <trkpt lat="42.3423270" lon="-5.9589190">
        <ele>803.4</ele>
        <time>2021-10-12T08:47:36Z</time>
      </trkpt>
      <trkpt lat="42.3422930" lon="-5.9589080">
        <ele>803.6</ele>
        <time>2021-10-12T08:47:38Z</time>
      </trkpt>
      <trkpt lat="42.3422480" lon="-5.9588750">
        <ele>804.0</ele>
        <time>2021-10-12T08:47:41Z</time>
      </trkpt>
      <trkpt lat="42.3422340" lon="-5.9588630">
        <ele>804.0</ele>
        <time>2021-10-12T08:47:42Z</time>
      </trkpt>
      <trkpt lat="42.3421780" lon="-5.9588110">
        <ele>804.0</ele>
        <time>2021-10-12T08:47:48Z</time>
      </trkpt>
      <trkpt lat="42.3421780" lon="-5.9588110">
        <ele>804.0</ele>
        <time>2021-10-12T08:47:49Z</time>
      </trkpt>
      <trkpt lat="42.3421090" lon="-5.9587180">
        <ele>805.2</ele>
        <time>2021-10-12T08:54:53Z</time>
      </trkpt>
      <trkpt lat="42.3420880" lon="-5.9587000">
        <ele>805.2</ele>
        <time>2021-10-12T08:54:54Z</time>
      </trkpt>
      <trkpt lat="42.3420650" lon="-5.9586800">
        <ele>805.4</ele>
        <time>2021-10-12T08:54:55Z</time>
      </trkpt>
      <trkpt lat="42.3419240" lon="-5.9585800">
        <ele>805.2</ele>
        <time>2021-10-12T08:55:00Z</time>
      </trkpt>
      <trkpt lat="42.3418690" lon="-5.9585280">
        <ele>805.2</ele>
        <time>2021-10-12T08:55:02Z</time>
      </trkpt>
      <trkpt lat="42.3417260" lon="-5.9584050">
        <ele>805.0</ele>
        <time>2021-10-12T08:55:07Z</time>
      </trkpt>
      <trkpt lat="42.3416640" lon="-5.9583490">
        <ele>805.0</ele>
        <time>2021-10-12T08:55:09Z</time>
      </trkpt>
      <trkpt lat="42.3414770" lon="-5.9581890">
        <ele>804.8</ele>
        <time>2021-10-12T08:55:15Z</time>
      </trkpt>
      <trkpt lat="42.3413470" lon="-5.9580670">
        <ele>804.8</ele>
        <time>2021-10-12T08:55:19Z</time>
      </trkpt>
      <trkpt lat="42.3410860" lon="-5.9578780">
        <ele>804.8</ele>
        <time>2021-10-12T08:55:25Z</time>
      </trkpt>
      <trkpt lat="42.3409600" lon="-5.9577760">
        <ele>804.8</ele>
        <time>2021-10-12T08:55:28Z</time>
      </trkpt>
      <trkpt lat="42.3408420" lon="-5.9576630">
        <ele>804.4</ele>
        <time>2021-10-12T08:55:31Z</time>
      </trkpt>
      <trkpt lat="42.3408000" lon="-5.9576280">
        <ele>804.4</ele>
        <time>2021-10-12T08:55:32Z</time>
      </trkpt>
      <trkpt lat="42.3407160" lon="-5.9575560">
        <ele>804.4</ele>
        <time>2021-10-12T08:55:34Z</time>
      </trkpt>
      <trkpt lat="42.3406020" lon="-5.9574290">
        <ele>804.2</ele>
        <time>2021-10-12T08:55:37Z</time>
      </trkpt>
      <trkpt lat="42.3405220" lon="-5.9573500">
        <ele>804.0</ele>
        <time>2021-10-12T08:55:39Z</time>
      </trkpt>
      <trkpt lat="42.3404340" lon="-5.9572940">
        <ele>804.2</ele>
        <time>2021-10-12T08:55:41Z</time>
      </trkpt>
      <trkpt lat="42.3403900" lon="-5.9572630">
        <ele>804.2</ele>
        <time>2021-10-12T08:55:42Z</time>
      </trkpt>
      <trkpt lat="42.3402220" lon="-5.9571430">
        <ele>804.2</ele>
        <time>2021-10-12T08:55:46Z</time>
      </trkpt>
      <trkpt lat="42.3401410" lon="-5.9570760">
        <ele>804.2</ele>
        <time>2021-10-12T08:55:48Z</time>
      </trkpt>
      <trkpt lat="42.3399300" lon="-5.9569120">
        <ele>804.2</ele>
        <time>2021-10-12T08:55:53Z</time>
      </trkpt>
      <trkpt lat="42.3397930" lon="-5.9568330">
        <ele>804.0</ele>
        <time>2021-10-12T08:55:56Z</time>
      </trkpt>
      <trkpt lat="42.3397480" lon="-5.9568130">
        <ele>804.0</ele>
        <time>2021-10-12T08:55:57Z</time>
      </trkpt>
      <trkpt lat="42.3396600" lon="-5.9567900">
        <ele>804.2</ele>
        <time>2021-10-12T08:55:59Z</time>
      </trkpt>
      <trkpt lat="42.3396200" lon="-5.9567730">
        <ele>804.2</ele>
        <time>2021-10-12T08:56:00Z</time>
      </trkpt>
      <trkpt lat="42.3395410" lon="-5.9567270">
        <ele>804.2</ele>
        <time>2021-10-12T08:56:02Z</time>
      </trkpt>
      <trkpt lat="42.3394690" lon="-5.9566550">
        <ele>804.2</ele>
        <time>2021-10-12T08:56:04Z</time>
      </trkpt>
      <trkpt lat="42.3394370" lon="-5.9566120">
        <ele>804.2</ele>
        <time>2021-10-12T08:56:05Z</time>
      </trkpt>
      <trkpt lat="42.3392560" lon="-5.9563410">
        <ele>804.2</ele>
        <time>2021-10-12T08:56:11Z</time>
      </trkpt>
      <trkpt lat="42.3391940" lon="-5.9562600">
        <ele>804.2</ele>
        <time>2021-10-12T08:56:13Z</time>
      </trkpt>
      <trkpt lat="42.3388640" lon="-5.9558770">
        <ele>804.0</ele>
        <time>2021-10-12T08:56:23Z</time>
      </trkpt>
      <trkpt lat="42.3385970" lon="-5.9555830">
        <ele>804.2</ele>
        <time>2021-10-12T08:56:31Z</time>
      </trkpt>
      <trkpt lat="42.3385650" lon="-5.9555460">
        <ele>804.4</ele>
        <time>2021-10-12T08:56:32Z</time>
      </trkpt>
      <trkpt lat="42.3385000" lon="-5.9554740">
        <ele>804.6</ele>
        <time>2021-10-12T08:56:34Z</time>
      </trkpt>
      <trkpt lat="42.3384310" lon="-5.9554130">
        <ele>804.6</ele>
        <time>2021-10-12T08:56:36Z</time>
      </trkpt>
      <trkpt lat="42.3382710" lon="-5.9552240">
        <ele>804.8</ele>
        <time>2021-10-12T08:56:41Z</time>
      </trkpt>
      <trkpt lat="42.3382060" lon="-5.9551580">
        <ele>804.8</ele>
        <time>2021-10-12T08:56:43Z</time>
      </trkpt>
      <trkpt lat="42.3381070" lon="-5.9550600">
        <ele>804.6</ele>
        <time>2021-10-12T08:56:46Z</time>
      </trkpt>
      <trkpt lat="42.3379370" lon="-5.9548940">
        <ele>804.6</ele>
        <time>2021-10-12T08:56:51Z</time>
      </trkpt>
      <trkpt lat="42.3378300" lon="-5.9547900">
        <ele>804.6</ele>
        <time>2021-10-12T08:56:54Z</time>
      </trkpt>
      <trkpt lat="42.3377900" lon="-5.9547630">
        <ele>804.4</ele>
        <time>2021-10-12T08:56:55Z</time>
      </trkpt>
      <trkpt lat="42.3377510" lon="-5.9547360">
        <ele>804.4</ele>
        <time>2021-10-12T08:56:56Z</time>
      </trkpt>
      <trkpt lat="42.3376550" lon="-5.9546250">
        <ele>804.4</ele>
        <time>2021-10-12T08:56:59Z</time>
      </trkpt>
      <trkpt lat="42.3376280" lon="-5.9545810">
        <ele>804.4</ele>
        <time>2021-10-12T08:57:00Z</time>
      </trkpt>
      <trkpt lat="42.3375980" lon="-5.9545390">
        <ele>804.4</ele>
        <time>2021-10-12T08:57:01Z</time>
      </trkpt>
      <trkpt lat="42.3374930" lon="-5.9544330">
        <ele>804.4</ele>
        <time>2021-10-12T08:57:04Z</time>
      </trkpt>
      <trkpt lat="42.3373920" lon="-5.9543310">
        <ele>804.6</ele>
        <time>2021-10-12T08:57:07Z</time>
      </trkpt>
      <trkpt lat="42.3373310" lon="-5.9542570">
        <ele>804.6</ele>
        <time>2021-10-12T08:57:09Z</time>
      </trkpt>
      <trkpt lat="42.3372600" lon="-5.9541970">
        <ele>804.6</ele>
        <time>2021-10-12T08:57:11Z</time>
      </trkpt>
      <trkpt lat="42.3371460" lon="-5.9541140">
        <ele>804.8</ele>
        <time>2021-10-12T08:57:14Z</time>
      </trkpt>
      <trkpt lat="42.3369810" lon="-5.9539320">
        <ele>804.8</ele>
        <time>2021-10-12T08:57:19Z</time>
      </trkpt>
      <trkpt lat="42.3368860" lon="-5.9538280">
        <ele>804.8</ele>
        <time>2021-10-12T08:57:22Z</time>
      </trkpt>
      <trkpt lat="42.3367440" lon="-5.9536920">
        <ele>804.6</ele>
        <time>2021-10-12T08:57:26Z</time>
      </trkpt>
      <trkpt lat="42.3365630" lon="-5.9535370">
        <ele>804.6</ele>
        <time>2021-10-12T08:57:31Z</time>
      </trkpt>
      <trkpt lat="42.3365000" lon="-5.9534570">
        <ele>804.4</ele>
        <time>2021-10-12T08:57:33Z</time>
      </trkpt>
      <trkpt lat="42.3364280" lon="-5.9533040">
        <ele>804.4</ele>
        <time>2021-10-12T08:57:36Z</time>
      </trkpt>
      <trkpt lat="42.3362600" lon="-5.9530130">
        <ele>804.6</ele>
        <time>2021-10-12T08:57:42Z</time>
      </trkpt>
      <trkpt lat="42.3361500" lon="-5.9528140">
        <ele>804.6</ele>
        <time>2021-10-12T08:57:46Z</time>
      </trkpt>
      <trkpt lat="42.3360710" lon="-5.9526550">
        <ele>804.4</ele>
        <time>2021-10-12T08:57:49Z</time>
      </trkpt>
      <trkpt lat="42.3358680" lon="-5.9523160">
        <ele>804.4</ele>
        <time>2021-10-12T08:57:56Z</time>
      </trkpt>
      <trkpt lat="42.3358360" lon="-5.9522700">
        <ele>804.2</ele>
        <time>2021-10-12T08:57:57Z</time>
      </trkpt>
      <trkpt lat="42.3357880" lon="-5.9521630">
        <ele>804.2</ele>
        <time>2021-10-12T08:57:59Z</time>
      </trkpt>
      <trkpt lat="42.3357730" lon="-5.9521030">
        <ele>804.2</ele>
        <time>2021-10-12T08:58:00Z</time>
      </trkpt>
      <trkpt lat="42.3357400" lon="-5.9519800">
        <ele>804.2</ele>
        <time>2021-10-12T08:58:02Z</time>
      </trkpt>
      <trkpt lat="42.3356440" lon="-5.9517550">
        <ele>804.2</ele>
        <time>2021-10-12T08:58:06Z</time>
      </trkpt>
      <trkpt lat="42.3353770" lon="-5.9512740">
        <ele>803.8</ele>
        <time>2021-10-12T08:58:15Z</time>
      </trkpt>
      <trkpt lat="42.3353370" lon="-5.9511660">
        <ele>803.8</ele>
        <time>2021-10-12T08:58:17Z</time>
      </trkpt>
      <trkpt lat="42.3352770" lon="-5.9510460">
        <ele>803.8</ele>
        <time>2021-10-12T08:58:19Z</time>
      </trkpt>
      <trkpt lat="42.3351530" lon="-5.9508450">
        <ele>803.6</ele>
        <time>2021-10-12T08:58:23Z</time>
      </trkpt>
      <trkpt lat="42.3350850" lon="-5.9507560">
        <ele>803.6</ele>
        <time>2021-10-12T08:58:25Z</time>
      </trkpt>
      <trkpt lat="42.3350290" lon="-5.9506680">
        <ele>803.4</ele>
        <time>2021-10-12T08:58:27Z</time>
      </trkpt>
      <trkpt lat="42.3348500" lon="-5.9504390">
        <ele>803.2</ele>
        <time>2021-10-12T08:58:32Z</time>
      </trkpt>
      <trkpt lat="42.3347070" lon="-5.9502630">
        <ele>802.8</ele>
        <time>2021-10-12T08:58:36Z</time>
      </trkpt>
      <trkpt lat="42.3346060" lon="-5.9501190">
        <ele>802.6</ele>
        <time>2021-10-12T08:58:39Z</time>
      </trkpt>
      <trkpt lat="42.3345450" lon="-5.9500170">
        <ele>802.6</ele>
        <time>2021-10-12T08:58:41Z</time>
      </trkpt>
      <trkpt lat="42.3344710" lon="-5.9499330">
        <ele>802.6</ele>
        <time>2021-10-12T08:58:43Z</time>
      </trkpt>
      <trkpt lat="42.3344320" lon="-5.9498970">
        <ele>802.6</ele>
        <time>2021-10-12T08:58:44Z</time>
      </trkpt>
      <trkpt lat="42.3343540" lon="-5.9498210">
        <ele>802.4</ele>
        <time>2021-10-12T08:58:46Z</time>
      </trkpt>
      <trkpt lat="42.3341510" lon="-5.9496530">
        <ele>802.4</ele>
        <time>2021-10-12T08:58:51Z</time>
      </trkpt>
      <trkpt lat="42.3340390" lon="-5.9495300">
        <ele>802.4</ele>
        <time>2021-10-12T08:58:54Z</time>
      </trkpt>
      <trkpt lat="42.3339340" lon="-5.9493870">
        <ele>802.4</ele>
        <time>2021-10-12T08:58:57Z</time>
      </trkpt>
      <trkpt lat="42.3338980" lon="-5.9493390">
        <ele>802.2</ele>
        <time>2021-10-12T08:58:58Z</time>
      </trkpt>
      <trkpt lat="42.3336830" lon="-5.9490520">
        <ele>801.8</ele>
        <time>2021-10-12T08:59:04Z</time>
      </trkpt>
      <trkpt lat="42.3336500" lon="-5.9490100">
        <ele>801.6</ele>
        <time>2021-10-12T08:59:05Z</time>
      </trkpt>
      <trkpt lat="42.3335710" lon="-5.9489150">
        <ele>801.4</ele>
        <time>2021-10-12T08:59:08Z</time>
      </trkpt>
      <trkpt lat="42.3335490" lon="-5.9488940">
        <ele>801.4</ele>
        <time>2021-10-12T08:59:09Z</time>
      </trkpt>
      <trkpt lat="42.3334540" lon="-5.9488250">
        <ele>800.8</ele>
        <time>2021-10-12T08:59:14Z</time>
      </trkpt>
      <trkpt lat="42.3333130" lon="-5.9487500">
        <ele>800.6</ele>
        <time>2021-10-12T08:59:20Z</time>
      </trkpt>
      <trkpt lat="42.3332910" lon="-5.9487270">
        <ele>800.6</ele>
        <time>2021-10-12T08:59:21Z</time>
      </trkpt>
      <trkpt lat="42.3331840" lon="-5.9486370">
        <ele>800.4</ele>
        <time>2021-10-12T08:59:26Z</time>
      </trkpt>
      <trkpt lat="42.3331040" lon="-5.9485670">
        <ele>800.4</ele>
        <time>2021-10-12T08:59:29Z</time>
      </trkpt>
      <trkpt lat="42.3328500" lon="-5.9484100">
        <ele>800.8</ele>
        <time>2021-10-12T08:59:38Z</time>
      </trkpt>
      <trkpt lat="42.3325300" lon="-5.9481280">
        <ele>801.2</ele>
        <time>2021-10-12T08:59:49Z</time>
      </trkpt>
      <trkpt lat="42.3324260" lon="-5.9480130">
        <ele>801.4</ele>
        <time>2021-10-12T08:59:53Z</time>
      </trkpt>
      <trkpt lat="42.3323350" lon="-5.9479340">
        <ele>801.4</ele>
        <time>2021-10-12T08:59:56Z</time>
      </trkpt>
      <trkpt lat="42.3321250" lon="-5.9477810">
        <ele>801.6</ele>
        <time>2021-10-12T09:00:04Z</time>
      </trkpt>
      <trkpt lat="42.3319970" lon="-5.9476880">
        <ele>801.6</ele>
        <time>2021-10-12T09:00:09Z</time>
      </trkpt>
      <trkpt lat="42.3319280" lon="-5.9476210">
        <ele>801.6</ele>
        <time>2021-10-12T09:00:12Z</time>
      </trkpt>
      <trkpt lat="42.3317930" lon="-5.9475420">
        <ele>801.6</ele>
        <time>2021-10-12T09:00:16Z</time>
      </trkpt>
      <trkpt lat="42.3316900" lon="-5.9474690">
        <ele>801.4</ele>
        <time>2021-10-12T09:00:19Z</time>
      </trkpt>
      <trkpt lat="42.3314310" lon="-5.9472440">
        <ele>801.0</ele>
        <time>2021-10-12T09:00:27Z</time>
      </trkpt>
      <trkpt lat="42.3312320" lon="-5.9469830">
        <ele>800.4</ele>
        <time>2021-10-12T09:00:34Z</time>
      </trkpt>
      <trkpt lat="42.3310730" lon="-5.9468240">
        <ele>800.2</ele>
        <time>2021-10-12T09:00:39Z</time>
      </trkpt>
      <trkpt lat="42.3310450" lon="-5.9467860">
        <ele>800.2</ele>
        <time>2021-10-12T09:00:40Z</time>
      </trkpt>
      <trkpt lat="42.3309220" lon="-5.9466630">
        <ele>800.2</ele>
        <time>2021-10-12T09:00:44Z</time>
      </trkpt>
      <trkpt lat="42.3307030" lon="-5.9464580">
        <ele>800.4</ele>
        <time>2021-10-12T09:00:51Z</time>
      </trkpt>
      <trkpt lat="42.3304780" lon="-5.9462170">
        <ele>801.0</ele>
        <time>2021-10-12T09:00:59Z</time>
      </trkpt>
      <trkpt lat="42.3303820" lon="-5.9461250">
        <ele>801.0</ele>
        <time>2021-10-12T09:01:02Z</time>
      </trkpt>
      <trkpt lat="42.3303260" lon="-5.9460650">
        <ele>801.2</ele>
        <time>2021-10-12T09:01:04Z</time>
      </trkpt>
      <trkpt lat="42.3300990" lon="-5.9457630">
        <ele>801.2</ele>
        <time>2021-10-12T09:01:12Z</time>
      </trkpt>
      <trkpt lat="42.3300560" lon="-5.9456920">
        <ele>801.2</ele>
        <time>2021-10-12T09:01:14Z</time>
      </trkpt>
      <trkpt lat="42.3300220" lon="-5.9456300">
        <ele>801.2</ele>
        <time>2021-10-12T09:01:16Z</time>
      </trkpt>
      <trkpt lat="42.3299620" lon="-5.9455320">
        <ele>801.0</ele>
        <time>2021-10-12T09:01:19Z</time>
      </trkpt>
      <trkpt lat="42.3299300" lon="-5.9454850">
        <ele>801.0</ele>
        <time>2021-10-12T09:01:21Z</time>
      </trkpt>
      <trkpt lat="42.3298740" lon="-5.9454000">
        <ele>800.8</ele>
        <time>2021-10-12T09:01:24Z</time>
      </trkpt>
      <trkpt lat="42.3297910" lon="-5.9452560">
        <ele>800.8</ele>
        <time>2021-10-12T09:01:29Z</time>
      </trkpt>
      <trkpt lat="42.3296390" lon="-5.9450590">
        <ele>800.6</ele>
        <time>2021-10-12T09:01:36Z</time>
      </trkpt>
      <trkpt lat="42.3295250" lon="-5.9448350">
        <ele>800.6</ele>
        <time>2021-10-12T09:01:41Z</time>
      </trkpt>
      <trkpt lat="42.3294030" lon="-5.9445050">
        <ele>800.0</ele>
        <time>2021-10-12T09:01:48Z</time>
      </trkpt>
      <trkpt lat="42.3293300" lon="-5.9442690">
        <ele>799.8</ele>
        <time>2021-10-12T09:01:53Z</time>
      </trkpt>
      <trkpt lat="42.3293120" lon="-5.9442140">
        <ele>799.8</ele>
        <time>2021-10-12T09:01:54Z</time>
      </trkpt>
      <trkpt lat="42.3291910" lon="-5.9437730">
        <ele>799.6</ele>
        <time>2021-10-12T09:02:03Z</time>
      </trkpt>
      <trkpt lat="42.3291300" lon="-5.9435610">
        <ele>799.2</ele>
        <time>2021-10-12T09:02:07Z</time>
      </trkpt>
      <trkpt lat="42.3290660" lon="-5.9433670">
        <ele>799.0</ele>
        <time>2021-10-12T09:02:11Z</time>
      </trkpt>
      <trkpt lat="42.3290540" lon="-5.9433310">
        <ele>798.8</ele>
        <time>2021-10-12T09:02:12Z</time>
      </trkpt>
      <trkpt lat="42.3289470" lon="-5.9430680">
        <ele>798.8</ele>
        <time>2021-10-12T09:02:18Z</time>
      </trkpt>
      <trkpt lat="42.3287570" lon="-5.9428680">
        <ele>799.0</ele>
        <time>2021-10-12T09:02:24Z</time>
      </trkpt>
      <trkpt lat="42.3285790" lon="-5.9426820">
        <ele>799.6</ele>
        <time>2021-10-12T09:02:31Z</time>
      </trkpt>
      <trkpt lat="42.3284400" lon="-5.9425490">
        <ele>799.8</ele>
        <time>2021-10-12T09:02:36Z</time>
      </trkpt>
      <trkpt lat="42.3284110" lon="-5.9425250">
        <ele>799.8</ele>
        <time>2021-10-12T09:02:37Z</time>
      </trkpt>
      <trkpt lat="42.3282360" lon="-5.9422580">
        <ele>800.0</ele>
        <time>2021-10-12T09:02:44Z</time>
      </trkpt>
      <trkpt lat="42.3281610" lon="-5.9421140">
        <ele>800.0</ele>
        <time>2021-10-12T09:02:47Z</time>
      </trkpt>
      <trkpt lat="42.3281020" lon="-5.9419600">
        <ele>800.0</ele>
        <time>2021-10-12T09:02:50Z</time>
      </trkpt>
      <trkpt lat="42.3280260" lon="-5.9417520">
        <ele>800.0</ele>
        <time>2021-10-12T09:02:54Z</time>
      </trkpt>
      <trkpt lat="42.3279930" lon="-5.9415980">
        <ele>799.8</ele>
        <time>2021-10-12T09:02:57Z</time>
      </trkpt>
      <trkpt lat="42.3279860" lon="-5.9415450">
        <ele>799.8</ele>
        <time>2021-10-12T09:02:58Z</time>
      </trkpt>
      <trkpt lat="42.3279790" lon="-5.9414890">
        <ele>799.6</ele>
        <time>2021-10-12T09:02:59Z</time>
      </trkpt>
      <trkpt lat="42.3279450" lon="-5.9413000">
        <ele>799.6</ele>
        <time>2021-10-12T09:03:03Z</time>
      </trkpt>
      <trkpt lat="42.3279110" lon="-5.9409370">
        <ele>799.4</ele>
        <time>2021-10-12T09:03:10Z</time>
      </trkpt>
      <trkpt lat="42.3279070" lon="-5.9406430">
        <ele>799.4</ele>
        <time>2021-10-12T09:03:16Z</time>
      </trkpt>
      <trkpt lat="42.3278970" lon="-5.9401660">
        <ele>799.4</ele>
        <time>2021-10-12T09:03:25Z</time>
      </trkpt>
      <trkpt lat="42.3278910" lon="-5.9396730">
        <ele>799.4</ele>
        <time>2021-10-12T09:03:34Z</time>
      </trkpt>
      <trkpt lat="42.3278740" lon="-5.9393230">
        <ele>799.4</ele>
        <time>2021-10-12T09:03:40Z</time>
      </trkpt>
      <trkpt lat="42.3278610" lon="-5.9392100">
        <ele>799.4</ele>
        <time>2021-10-12T09:03:42Z</time>
      </trkpt>
      <trkpt lat="42.3278090" lon="-5.9389360">
        <ele>799.4</ele>
        <time>2021-10-12T09:03:47Z</time>
      </trkpt>
      <trkpt lat="42.3277660" lon="-5.9386450">
        <ele>799.0</ele>
        <time>2021-10-12T09:03:52Z</time>
      </trkpt>
      <trkpt lat="42.3277280" lon="-5.9382530">
        <ele>798.8</ele>
        <time>2021-10-12T09:04:00Z</time>
      </trkpt>
      <trkpt lat="42.3277120" lon="-5.9380930">
        <ele>798.8</ele>
        <time>2021-10-12T09:04:03Z</time>
      </trkpt>
      <trkpt lat="42.3276870" lon="-5.9379350">
        <ele>798.8</ele>
        <time>2021-10-12T09:04:06Z</time>
      </trkpt>
      <trkpt lat="42.3276810" lon="-5.9375660">
        <ele>798.6</ele>
        <time>2021-10-12T09:04:13Z</time>
      </trkpt>
      <trkpt lat="42.3276790" lon="-5.9373680">
        <ele>798.4</ele>
        <time>2021-10-12T09:04:17Z</time>
      </trkpt>
      <trkpt lat="42.3276700" lon="-5.9371740">
        <ele>798.4</ele>
        <time>2021-10-12T09:04:21Z</time>
      </trkpt>
      <trkpt lat="42.3276250" lon="-5.9368080">
        <ele>798.4</ele>
        <time>2021-10-12T09:04:28Z</time>
      </trkpt>
      <trkpt lat="42.3276090" lon="-5.9366880">
        <ele>798.2</ele>
        <time>2021-10-12T09:04:30Z</time>
      </trkpt>
      <trkpt lat="42.3276000" lon="-5.9366340">
        <ele>798.0</ele>
        <time>2021-10-12T09:04:31Z</time>
      </trkpt>
      <trkpt lat="42.3275770" lon="-5.9365350">
        <ele>797.8</ele>
        <time>2021-10-12T09:04:33Z</time>
      </trkpt>
      <trkpt lat="42.3275530" lon="-5.9364940">
        <ele>797.8</ele>
        <time>2021-10-12T09:04:34Z</time>
      </trkpt>
      <trkpt lat="42.3274160" lon="-5.9362930">
        <ele>797.2</ele>
        <time>2021-10-12T09:04:40Z</time>
      </trkpt>
      <trkpt lat="42.3273780" lon="-5.9362260">
        <ele>797.0</ele>
        <time>2021-10-12T09:04:42Z</time>
      </trkpt>
      <trkpt lat="42.3273030" lon="-5.9361360">
        <ele>796.8</ele>
        <time>2021-10-12T09:04:46Z</time>
      </trkpt>
      <trkpt lat="42.3272400" lon="-5.9361630">
        <ele>796.4</ele>
        <time>2021-10-12T09:04:49Z</time>
      </trkpt>
      <trkpt lat="42.3272230" lon="-5.9361910">
        <ele>796.2</ele>
        <time>2021-10-12T09:04:50Z</time>
      </trkpt>
      <trkpt lat="42.3272070" lon="-5.9362570">
        <ele>796.0</ele>
        <time>2021-10-12T09:04:52Z</time>
      </trkpt>
      <trkpt lat="42.3272080" lon="-5.9363620">
        <ele>796.0</ele>
        <time>2021-10-12T09:04:55Z</time>
      </trkpt>
      <trkpt lat="42.3271780" lon="-5.9366430">
        <ele>795.6</ele>
        <time>2021-10-12T09:05:02Z</time>
      </trkpt>
      <trkpt lat="42.3271710" lon="-5.9367510">
        <ele>795.6</ele>
        <time>2021-10-12T09:05:05Z</time>
      </trkpt>
      <trkpt lat="42.3271570" lon="-5.9368250">
        <ele>795.4</ele>
        <time>2021-10-12T09:05:08Z</time>
      </trkpt>
      <trkpt lat="42.3271470" lon="-5.9368380">
        <ele>795.4</ele>
        <time>2021-10-12T09:05:09Z</time>
      </trkpt>
      <trkpt lat="42.3270610" lon="-5.9368570">
        <ele>795.2</ele>
        <time>2021-10-12T09:05:13Z</time>
      </trkpt>
      <trkpt lat="42.3270320" lon="-5.9368380">
        <ele>795.2</ele>
        <time>2021-10-12T09:05:14Z</time>
      </trkpt>
      <trkpt lat="42.3269820" lon="-5.9367520">
        <ele>795.0</ele>
        <time>2021-10-12T09:05:17Z</time>
      </trkpt>
      <trkpt lat="42.3269820" lon="-5.9367200">
        <ele>794.6</ele>
        <time>2021-10-12T09:05:18Z</time>
      </trkpt>
      <trkpt lat="42.3269970" lon="-5.9366130">
        <ele>793.6</ele>
        <time>2021-10-12T09:05:21Z</time>
      </trkpt>
      <trkpt lat="42.3270060" lon="-5.9364030">
        <ele>792.8</ele>
        <time>2021-10-12T09:05:26Z</time>
      </trkpt>
      <trkpt lat="42.3269930" lon="-5.9363720">
        <ele>792.6</ele>
        <time>2021-10-12T09:05:27Z</time>
      </trkpt>
      <trkpt lat="42.3269780" lon="-5.9363500">
        <ele>792.6</ele>
        <time>2021-10-12T09:05:28Z</time>
      </trkpt>
      <trkpt lat="42.3269610" lon="-5.9363380">
        <ele>792.4</ele>
        <time>2021-10-12T09:05:29Z</time>
      </trkpt>
      <trkpt lat="42.3269450" lon="-5.9363340">
        <ele>792.4</ele>
        <time>2021-10-12T09:05:30Z</time>
      </trkpt>
      <trkpt lat="42.3269380" lon="-5.9363370">
        <ele>791.8</ele>
        <time>2021-10-12T09:05:33Z</time>
      </trkpt>
      <trkpt lat="42.3269380" lon="-5.9363370">
        <ele>791.8</ele>
        <time>2021-10-12T09:05:34Z</time>
      </trkpt>
      <trkpt lat="42.3268920" lon="-5.9363040">
        <ele>791.4</ele>
        <time>2021-10-12T09:05:49Z</time>
      </trkpt>
      <trkpt lat="42.3268240" lon="-5.9362770">
        <ele>791.2</ele>
        <time>2021-10-12T09:05:51Z</time>
      </trkpt>
      <trkpt lat="42.3265920" lon="-5.9361890">
        <ele>790.4</ele>
        <time>2021-10-12T09:05:57Z</time>
      </trkpt>
      <trkpt lat="42.3265210" lon="-5.9361470">
        <ele>790.2</ele>
        <time>2021-10-12T09:06:00Z</time>
      </trkpt>
      <trkpt lat="42.3265070" lon="-5.9361410">
        <ele>790.0</ele>
        <time>2021-10-12T09:06:01Z</time>
      </trkpt>
      <trkpt lat="42.3265000" lon="-5.9361390">
        <ele>789.6</ele>
        <time>2021-10-12T09:06:04Z</time>
      </trkpt>
      <trkpt lat="42.3264680" lon="-5.9361910">
        <ele>789.0</ele>
        <time>2021-10-12T09:06:14Z</time>
      </trkpt>
      <trkpt lat="42.3264560" lon="-5.9362200">
        <ele>789.0</ele>
        <time>2021-10-12T09:06:15Z</time>
      </trkpt>
      <trkpt lat="42.3264120" lon="-5.9363280">
        <ele>789.0</ele>
        <time>2021-10-12T09:06:18Z</time>
      </trkpt>
      <trkpt lat="42.3263260" lon="-5.9365450">
        <ele>789.0</ele>
        <time>2021-10-12T09:06:23Z</time>
      </trkpt>
      <trkpt lat="42.3262250" lon="-5.9369740">
        <ele>789.0</ele>
        <time>2021-10-12T09:06:32Z</time>
      </trkpt>
      <trkpt lat="42.3261980" lon="-5.9371520">
        <ele>789.0</ele>
        <time>2021-10-12T09:06:36Z</time>
      </trkpt>
      <trkpt lat="42.3261740" lon="-5.9371720">
        <ele>789.2</ele>
        <time>2021-10-12T09:06:37Z</time>
      </trkpt>
      <trkpt lat="42.3261460" lon="-5.9371760">
        <ele>789.2</ele>
        <time>2021-10-12T09:06:38Z</time>
      </trkpt>
      <trkpt lat="42.3260640" lon="-5.9371450">
        <ele>789.0</ele>
        <time>2021-10-12T09:06:41Z</time>
      </trkpt>
      <trkpt lat="42.3258420" lon="-5.9370420">
        <ele>789.0</ele>
        <time>2021-10-12T09:06:47Z</time>
      </trkpt>
      <trkpt lat="42.3258040" lon="-5.9370220">
        <ele>789.0</ele>
        <time>2021-10-12T09:06:48Z</time>
      </trkpt>
      <trkpt lat="42.3255010" lon="-5.9368580">
        <ele>788.8</ele>
        <time>2021-10-12T09:06:56Z</time>
      </trkpt>
      <trkpt lat="42.3252860" lon="-5.9367090">
        <ele>788.6</ele>
        <time>2021-10-12T09:07:02Z</time>
      </trkpt>
      <trkpt lat="42.3250170" lon="-5.9365470">
        <ele>788.4</ele>
        <time>2021-10-12T09:07:09Z</time>
      </trkpt>
      <trkpt lat="42.3249790" lon="-5.9365250">
        <ele>788.4</ele>
        <time>2021-10-12T09:07:10Z</time>
      </trkpt>
      <trkpt lat="42.3245840" lon="-5.9362870">
        <ele>788.6</ele>
        <time>2021-10-12T09:07:20Z</time>
      </trkpt>
      <trkpt lat="42.3244300" lon="-5.9361890">
        <ele>788.6</ele>
        <time>2021-10-12T09:07:24Z</time>
      </trkpt>
      <trkpt lat="42.3242820" lon="-5.9361090">
        <ele>788.2</ele>
        <time>2021-10-12T09:07:28Z</time>
      </trkpt>
      <trkpt lat="42.3242110" lon="-5.9360590">
        <ele>788.2</ele>
        <time>2021-10-12T09:07:30Z</time>
      </trkpt>
      <trkpt lat="42.3240910" lon="-5.9359970">
        <ele>788.4</ele>
        <time>2021-10-12T09:07:33Z</time>
      </trkpt>
      <trkpt lat="42.3240070" lon="-5.9359460">
        <ele>788.6</ele>
        <time>2021-10-12T09:07:35Z</time>
      </trkpt>
      <trkpt lat="42.3237020" lon="-5.9357590">
        <ele>788.8</ele>
        <time>2021-10-12T09:07:43Z</time>
      </trkpt>
      <trkpt lat="42.3234260" lon="-5.9356330">
        <ele>788.8</ele>
        <time>2021-10-12T09:07:50Z</time>
      </trkpt>
      <trkpt lat="42.3233870" lon="-5.9356150">
        <ele>788.8</ele>
        <time>2021-10-12T09:07:51Z</time>
      </trkpt>
      <trkpt lat="42.3231730" lon="-5.9355050">
        <ele>789.4</ele>
        <time>2021-10-12T09:07:57Z</time>
      </trkpt>
      <trkpt lat="42.3229060" lon="-5.9353990">
        <ele>789.2</ele>
        <time>2021-10-12T09:08:04Z</time>
      </trkpt>
      <trkpt lat="42.3226920" lon="-5.9353270">
        <ele>788.8</ele>
        <time>2021-10-12T09:08:10Z</time>
      </trkpt>
      <trkpt lat="42.3224480" lon="-5.9352050">
        <ele>788.8</ele>
        <time>2021-10-12T09:08:17Z</time>
      </trkpt>
      <trkpt lat="42.3222360" lon="-5.9350710">
        <ele>788.4</ele>
        <time>2021-10-12T09:08:23Z</time>
      </trkpt>
      <trkpt lat="42.3220190" lon="-5.9349320">
        <ele>788.6</ele>
        <time>2021-10-12T09:08:29Z</time>
      </trkpt>
      <trkpt lat="42.3219470" lon="-5.9348810">
        <ele>788.6</ele>
        <time>2021-10-12T09:08:31Z</time>
      </trkpt>
      <trkpt lat="42.3216470" lon="-5.9347350">
        <ele>788.6</ele>
        <time>2021-10-12T09:08:39Z</time>
      </trkpt>
      <trkpt lat="42.3214630" lon="-5.9346160">
        <ele>788.4</ele>
        <time>2021-10-12T09:08:44Z</time>
      </trkpt>
      <trkpt lat="42.3214200" lon="-5.9346070">
        <ele>788.6</ele>
        <time>2021-10-12T09:08:45Z</time>
      </trkpt>
      <trkpt lat="42.3213770" lon="-5.9346010">
        <ele>788.6</ele>
        <time>2021-10-12T09:08:46Z</time>
      </trkpt>
      <trkpt lat="42.3212610" lon="-5.9345210">
        <ele>788.4</ele>
        <time>2021-10-12T09:08:49Z</time>
      </trkpt>
      <trkpt lat="42.3212240" lon="-5.9344930">
        <ele>788.4</ele>
        <time>2021-10-12T09:08:50Z</time>
      </trkpt>
      <trkpt lat="42.3210240" lon="-5.9343860">
        <ele>788.6</ele>
        <time>2021-10-12T09:08:55Z</time>
      </trkpt>
      <trkpt lat="42.3207780" lon="-5.9342130">
        <ele>788.8</ele>
        <time>2021-10-12T09:09:02Z</time>
      </trkpt>
      <trkpt lat="42.3205680" lon="-5.9340460">
        <ele>788.8</ele>
        <time>2021-10-12T09:09:08Z</time>
      </trkpt>
      <trkpt lat="42.3202120" lon="-5.9338100">
        <ele>788.4</ele>
        <time>2021-10-12T09:09:17Z</time>
      </trkpt>
      <trkpt lat="42.3200880" lon="-5.9337160">
        <ele>788.4</ele>
        <time>2021-10-12T09:09:20Z</time>
      </trkpt>
      <trkpt lat="42.3198810" lon="-5.9335630">
        <ele>788.4</ele>
        <time>2021-10-12T09:09:25Z</time>
      </trkpt>
      <trkpt lat="42.3196320" lon="-5.9333770">
        <ele>788.0</ele>
        <time>2021-10-12T09:09:31Z</time>
      </trkpt>
      <trkpt lat="42.3195930" lon="-5.9333520">
        <ele>788.0</ele>
        <time>2021-10-12T09:09:32Z</time>
      </trkpt>
      <trkpt lat="42.3195270" lon="-5.9332960">
        <ele>787.8</ele>
        <time>2021-10-12T09:09:34Z</time>
      </trkpt>
      <trkpt lat="42.3194030" lon="-5.9332120">
        <ele>787.6</ele>
        <time>2021-10-12T09:09:37Z</time>
      </trkpt>
      <trkpt lat="42.3192480" lon="-5.9331130">
        <ele>787.6</ele>
        <time>2021-10-12T09:09:41Z</time>
      </trkpt>
      <trkpt lat="42.3191770" lon="-5.9330830">
        <ele>787.4</ele>
        <time>2021-10-12T09:09:43Z</time>
      </trkpt>
      <trkpt lat="42.3190660" lon="-5.9329970">
        <ele>787.4</ele>
        <time>2021-10-12T09:09:46Z</time>
      </trkpt>
      <trkpt lat="42.3190040" lon="-5.9329480">
        <ele>787.4</ele>
        <time>2021-10-12T09:09:48Z</time>
      </trkpt>
      <trkpt lat="42.3189220" lon="-5.9329140">
        <ele>787.4</ele>
        <time>2021-10-12T09:09:50Z</time>
      </trkpt>
      <trkpt lat="42.3188850" lon="-5.9328930">
        <ele>787.4</ele>
        <time>2021-10-12T09:09:51Z</time>
      </trkpt>
      <trkpt lat="42.3187390" lon="-5.9328050">
        <ele>787.6</ele>
        <time>2021-10-12T09:09:55Z</time>
      </trkpt>
      <trkpt lat="42.3184320" lon="-5.9326280">
        <ele>787.8</ele>
        <time>2021-10-12T09:10:04Z</time>
      </trkpt>
      <trkpt lat="42.3181120" lon="-5.9324440">
        <ele>787.6</ele>
        <time>2021-10-12T09:10:13Z</time>
      </trkpt>
      <trkpt lat="42.3180180" lon="-5.9323800">
        <ele>787.4</ele>
        <time>2021-10-12T09:10:16Z</time>
      </trkpt>
      <trkpt lat="42.3179010" lon="-5.9323160">
        <ele>787.4</ele>
        <time>2021-10-12T09:10:19Z</time>
      </trkpt>
      <trkpt lat="42.3176120" lon="-5.9321560">
        <ele>787.0</ele>
        <time>2021-10-12T09:10:27Z</time>
      </trkpt>
      <trkpt lat="42.3175740" lon="-5.9321350">
        <ele>787.0</ele>
        <time>2021-10-12T09:10:28Z</time>
      </trkpt>
      <trkpt lat="42.3171950" lon="-5.9318960">
        <ele>787.2</ele>
        <time>2021-10-12T09:10:38Z</time>
      </trkpt>
      <trkpt lat="42.3171650" lon="-5.9318710">
        <ele>787.2</ele>
        <time>2021-10-12T09:10:39Z</time>
      </trkpt>
      <trkpt lat="42.3169060" lon="-5.9316910">
        <ele>787.2</ele>
        <time>2021-10-12T09:10:46Z</time>
      </trkpt>
      <trkpt lat="42.3168600" lon="-5.9316600">
        <ele>787.2</ele>
        <time>2021-10-12T09:10:47Z</time>
      </trkpt>
      <trkpt lat="42.3168300" lon="-5.9316410">
        <ele>787.2</ele>
        <time>2021-10-12T09:10:48Z</time>
      </trkpt>
      <trkpt lat="42.3166680" lon="-5.9315540">
        <ele>787.2</ele>
        <time>2021-10-12T09:10:52Z</time>
      </trkpt>
      <trkpt lat="42.3166040" lon="-5.9314960">
        <ele>787.2</ele>
        <time>2021-10-12T09:10:54Z</time>
      </trkpt>
      <trkpt lat="42.3164180" lon="-5.9313910">
        <ele>787.0</ele>
        <time>2021-10-12T09:10:59Z</time>
      </trkpt>
      <trkpt lat="42.3163750" lon="-5.9313640">
        <ele>787.0</ele>
        <time>2021-10-12T09:11:00Z</time>
      </trkpt>
      <trkpt lat="42.3161100" lon="-5.9312000">
        <ele>786.6</ele>
        <time>2021-10-12T09:11:07Z</time>
      </trkpt>
      <trkpt lat="42.3160820" lon="-5.9311770">
        <ele>786.6</ele>
        <time>2021-10-12T09:11:08Z</time>
      </trkpt>
      <trkpt lat="42.3160030" lon="-5.9311290">
        <ele>786.4</ele>
        <time>2021-10-12T09:11:10Z</time>
      </trkpt>
      <trkpt lat="42.3159300" lon="-5.9310900">
        <ele>786.4</ele>
        <time>2021-10-12T09:11:12Z</time>
      </trkpt>
      <trkpt lat="42.3159010" lon="-5.9310790">
        <ele>786.4</ele>
        <time>2021-10-12T09:11:13Z</time>
      </trkpt>
      <trkpt lat="42.3156220" lon="-5.9309970">
        <ele>786.0</ele>
        <time>2021-10-12T09:11:21Z</time>
      </trkpt>
      <trkpt lat="42.3155840" lon="-5.9309870">
        <ele>786.0</ele>
        <time>2021-10-12T09:11:22Z</time>
      </trkpt>
      <trkpt lat="42.3154660" lon="-5.9309570">
        <ele>786.0</ele>
        <time>2021-10-12T09:11:25Z</time>
      </trkpt>
      <trkpt lat="42.3153990" lon="-5.9309410">
        <ele>786.2</ele>
        <time>2021-10-12T09:11:27Z</time>
      </trkpt>
      <trkpt lat="42.3152920" lon="-5.9309110">
        <ele>786.4</ele>
        <time>2021-10-12T09:11:30Z</time>
      </trkpt>
      <trkpt lat="42.3152430" lon="-5.9308830">
        <ele>786.4</ele>
        <time>2021-10-12T09:11:32Z</time>
      </trkpt>
      <trkpt lat="42.3152250" lon="-5.9308530">
        <ele>786.4</ele>
        <time>2021-10-12T09:11:33Z</time>
      </trkpt>
      <trkpt lat="42.3152170" lon="-5.9307710">
        <ele>786.4</ele>
        <time>2021-10-12T09:11:35Z</time>
      </trkpt>
      <trkpt lat="42.3152640" lon="-5.9305060">
        <ele>786.2</ele>
        <time>2021-10-12T09:11:41Z</time>
      </trkpt>
      <trkpt lat="42.3153250" lon="-5.9301840">
        <ele>786.2</ele>
        <time>2021-10-12T09:11:47Z</time>
      </trkpt>
      <trkpt lat="42.3153610" lon="-5.9299590">
        <ele>786.2</ele>
        <time>2021-10-12T09:11:51Z</time>
      </trkpt>
      <trkpt lat="42.3154060" lon="-5.9297350">
        <ele>786.0</ele>
        <time>2021-10-12T09:11:55Z</time>
      </trkpt>
      <trkpt lat="42.3154170" lon="-5.9296810">
        <ele>786.0</ele>
        <time>2021-10-12T09:11:56Z</time>
      </trkpt>
      <trkpt lat="42.3154860" lon="-5.9292690">
        <ele>785.8</ele>
        <time>2021-10-12T09:12:03Z</time>
      </trkpt>
      <trkpt lat="42.3154990" lon="-5.9292230">
        <ele>785.8</ele>
        <time>2021-10-12T09:12:04Z</time>
      </trkpt>
      <trkpt lat="42.3155130" lon="-5.9291660">
        <ele>785.8</ele>
        <time>2021-10-12T09:12:05Z</time>
      </trkpt>
      <trkpt lat="42.3155470" lon="-5.9289670">
        <ele>785.8</ele>
        <time>2021-10-12T09:12:08Z</time>
      </trkpt>
      <trkpt lat="42.3155580" lon="-5.9289190">
        <ele>785.8</ele>
        <time>2021-10-12T09:12:09Z</time>
      </trkpt>
      <trkpt lat="42.3155710" lon="-5.9288610">
        <ele>785.6</ele>
        <time>2021-10-12T09:12:10Z</time>
      </trkpt>
      <trkpt lat="42.3155820" lon="-5.9287900">
        <ele>785.6</ele>
        <time>2021-10-12T09:12:11Z</time>
      </trkpt>
      <trkpt lat="42.3156400" lon="-5.9284160">
        <ele>785.4</ele>
        <time>2021-10-12T09:12:17Z</time>
      </trkpt>
      <trkpt lat="42.3156850" lon="-5.9281440">
        <ele>785.0</ele>
        <time>2021-10-12T09:12:22Z</time>
      </trkpt>
      <trkpt lat="42.3156620" lon="-5.9280620">
        <ele>785.0</ele>
        <time>2021-10-12T09:12:24Z</time>
      </trkpt>
      <trkpt lat="42.3155680" lon="-5.9280230">
        <ele>785.0</ele>
        <time>2021-10-12T09:12:27Z</time>
      </trkpt>
      <trkpt lat="42.3155420" lon="-5.9280230">
        <ele>784.8</ele>
        <time>2021-10-12T09:12:28Z</time>
      </trkpt>
      <trkpt lat="42.3153650" lon="-5.9279830">
        <ele>784.6</ele>
        <time>2021-10-12T09:12:33Z</time>
      </trkpt>
      <trkpt lat="42.3152400" lon="-5.9279720">
        <ele>784.6</ele>
        <time>2021-10-12T09:12:36Z</time>
      </trkpt>
      <trkpt lat="42.3152110" lon="-5.9279600">
        <ele>784.8</ele>
        <time>2021-10-12T09:12:37Z</time>
      </trkpt>
      <trkpt lat="42.3150120" lon="-5.9279180">
        <ele>784.8</ele>
        <time>2021-10-12T09:12:42Z</time>
      </trkpt>
      <trkpt lat="42.3147300" lon="-5.9278300">
        <ele>784.8</ele>
        <time>2021-10-12T09:12:49Z</time>
      </trkpt>
      <trkpt lat="42.3146800" lon="-5.9278120">
        <ele>784.8</ele>
        <time>2021-10-12T09:12:50Z</time>
      </trkpt>
      <trkpt lat="42.3146050" lon="-5.9277960">
        <ele>784.6</ele>
        <time>2021-10-12T09:12:52Z</time>
      </trkpt>
      <trkpt lat="42.3145120" lon="-5.9277900">
        <ele>784.6</ele>
        <time>2021-10-12T09:12:54Z</time>
      </trkpt>
      <trkpt lat="42.3140990" lon="-5.9276940">
        <ele>784.6</ele>
        <time>2021-10-12T09:13:04Z</time>
      </trkpt>
      <trkpt lat="42.3138290" lon="-5.9276410">
        <ele>784.8</ele>
        <time>2021-10-12T09:13:11Z</time>
      </trkpt>
      <trkpt lat="42.3135870" lon="-5.9275680">
        <ele>784.8</ele>
        <time>2021-10-12T09:13:17Z</time>
      </trkpt>
      <trkpt lat="42.3132020" lon="-5.9274670">
        <ele>784.8</ele>
        <time>2021-10-12T09:13:26Z</time>
      </trkpt>
      <trkpt lat="42.3130660" lon="-5.9274340">
        <ele>784.8</ele>
        <time>2021-10-12T09:13:29Z</time>
      </trkpt>
      <trkpt lat="42.3128860" lon="-5.9273910">
        <ele>784.8</ele>
        <time>2021-10-12T09:13:33Z</time>
      </trkpt>
      <trkpt lat="42.3128020" lon="-5.9273730">
        <ele>784.8</ele>
        <time>2021-10-12T09:13:35Z</time>
      </trkpt>
      <trkpt lat="42.3124820" lon="-5.9273000">
        <ele>784.6</ele>
        <time>2021-10-12T09:13:42Z</time>
      </trkpt>
      <trkpt lat="42.3124430" lon="-5.9272960">
        <ele>784.4</ele>
        <time>2021-10-12T09:13:43Z</time>
      </trkpt>
      <trkpt lat="42.3122850" lon="-5.9272560">
        <ele>784.4</ele>
        <time>2021-10-12T09:13:48Z</time>
      </trkpt>
      <trkpt lat="42.3119950" lon="-5.9271600">
        <ele>784.4</ele>
        <time>2021-10-12T09:13:56Z</time>
      </trkpt>
      <trkpt lat="42.3116680" lon="-5.9270930">
        <ele>784.4</ele>
        <time>2021-10-12T09:14:04Z</time>
      </trkpt>
      <trkpt lat="42.3115780" lon="-5.9270800">
        <ele>784.4</ele>
        <time>2021-10-12T09:14:06Z</time>
      </trkpt>
      <trkpt lat="42.3115100" lon="-5.9270500">
        <ele>784.6</ele>
        <time>2021-10-12T09:14:08Z</time>
      </trkpt>
      <trkpt lat="42.3114740" lon="-5.9270280">
        <ele>784.6</ele>
        <time>2021-10-12T09:14:09Z</time>
      </trkpt>
      <trkpt lat="42.3112080" lon="-5.9268340">
        <ele>784.6</ele>
        <time>2021-10-12T09:14:17Z</time>
      </trkpt>
      <trkpt lat="42.3110070" lon="-5.9266530">
        <ele>784.4</ele>
        <time>2021-10-12T09:14:23Z</time>
      </trkpt>
      <trkpt lat="42.3109210" lon="-5.9266210">
        <ele>784.4</ele>
        <time>2021-10-12T09:14:25Z</time>
      </trkpt>
      <trkpt lat="42.3108920" lon="-5.9266280">
        <ele>784.4</ele>
        <time>2021-10-12T09:14:26Z</time>
      </trkpt>
      <trkpt lat="42.3107290" lon="-5.9267040">
        <ele>784.4</ele>
        <time>2021-10-12T09:14:30Z</time>
      </trkpt>
      <trkpt lat="42.3106460" lon="-5.9267480">
        <ele>784.4</ele>
        <time>2021-10-12T09:14:32Z</time>
      </trkpt>
      <trkpt lat="42.3103260" lon="-5.9269170">
        <ele>784.6</ele>
        <time>2021-10-12T09:14:40Z</time>
      </trkpt>
      <trkpt lat="42.3099820" lon="-5.9271110">
        <ele>784.8</ele>
        <time>2021-10-12T09:14:49Z</time>
      </trkpt>
      <trkpt lat="42.3097550" lon="-5.9272320">
        <ele>784.2</ele>
        <time>2021-10-12T09:14:55Z</time>
      </trkpt>
      <trkpt lat="42.3097200" lon="-5.9272460">
        <ele>784.2</ele>
        <time>2021-10-12T09:14:56Z</time>
      </trkpt>
      <trkpt lat="42.3096070" lon="-5.9272380">
        <ele>784.0</ele>
        <time>2021-10-12T09:14:59Z</time>
      </trkpt>
      <trkpt lat="42.3095770" lon="-5.9272100">
        <ele>783.8</ele>
        <time>2021-10-12T09:15:00Z</time>
      </trkpt>
      <trkpt lat="42.3095380" lon="-5.9271280">
        <ele>783.6</ele>
        <time>2021-10-12T09:15:02Z</time>
      </trkpt>
      <trkpt lat="42.3095130" lon="-5.9269090">
        <ele>783.0</ele>
        <time>2021-10-12T09:15:06Z</time>
      </trkpt>
      <trkpt lat="42.3095400" lon="-5.9267080">
        <ele>782.6</ele>
        <time>2021-10-12T09:15:10Z</time>
      </trkpt>
      <trkpt lat="42.3095500" lon="-5.9266120">
        <ele>782.6</ele>
        <time>2021-10-12T09:15:12Z</time>
      </trkpt>
      <trkpt lat="42.3096230" lon="-5.9264980">
        <ele>782.8</ele>
        <time>2021-10-12T09:15:16Z</time>
      </trkpt>
      <trkpt lat="42.3097710" lon="-5.9264180">
        <ele>783.6</ele>
        <time>2021-10-12T09:15:22Z</time>
      </trkpt>
      <trkpt lat="42.3097930" lon="-5.9264060">
        <ele>783.8</ele>
        <time>2021-10-12T09:15:23Z</time>
      </trkpt>
      <trkpt lat="42.3100010" lon="-5.9262970">
        <ele>784.2</ele>
        <time>2021-10-12T09:15:30Z</time>
      </trkpt>
      <trkpt lat="42.3101860" lon="-5.9262090">
        <ele>784.2</ele>
        <time>2021-10-12T09:15:37Z</time>
      </trkpt>
      <trkpt lat="42.3104040" lon="-5.9260720">
        <ele>783.8</ele>
        <time>2021-10-12T09:15:44Z</time>
      </trkpt>
      <trkpt lat="42.3104430" lon="-5.9260060">
        <ele>783.8</ele>
        <time>2021-10-12T09:15:46Z</time>
      </trkpt>
      <trkpt lat="42.3104450" lon="-5.9259730">
        <ele>783.8</ele>
        <time>2021-10-12T09:15:47Z</time>
      </trkpt>
      <trkpt lat="42.3103900" lon="-5.9258570">
        <ele>783.8</ele>
        <time>2021-10-12T09:15:50Z</time>
      </trkpt>
      <trkpt lat="42.3103730" lon="-5.9258280">
        <ele>783.8</ele>
        <time>2021-10-12T09:15:51Z</time>
      </trkpt>
      <trkpt lat="42.3103270" lon="-5.9256270">
        <ele>783.8</ele>
        <time>2021-10-12T09:15:56Z</time>
      </trkpt>
      <trkpt lat="42.3103180" lon="-5.9254350">
        <ele>783.8</ele>
        <time>2021-10-12T09:16:01Z</time>
      </trkpt>
      <trkpt lat="42.3103030" lon="-5.9252590">
        <ele>783.8</ele>
        <time>2021-10-12T09:16:05Z</time>
      </trkpt>
      <trkpt lat="42.3102920" lon="-5.9251160">
        <ele>783.8</ele>
        <time>2021-10-12T09:16:08Z</time>
      </trkpt>
      <trkpt lat="42.3102780" lon="-5.9249540">
        <ele>783.8</ele>
        <time>2021-10-12T09:16:11Z</time>
      </trkpt>
      <trkpt lat="42.3102450" lon="-5.9244930">
        <ele>783.6</ele>
        <time>2021-10-12T09:16:19Z</time>
      </trkpt>
      <trkpt lat="42.3102190" lon="-5.9242150">
        <ele>783.6</ele>
        <time>2021-10-12T09:16:24Z</time>
      </trkpt>
      <trkpt lat="42.3102000" lon="-5.9239870">
        <ele>783.6</ele>
        <time>2021-10-12T09:16:28Z</time>
      </trkpt>
      <trkpt lat="42.3101980" lon="-5.9239460">
        <ele>783.6</ele>
        <time>2021-10-12T09:16:29Z</time>
      </trkpt>
      <trkpt lat="42.3101590" lon="-5.9234480">
        <ele>783.4</ele>
        <time>2021-10-12T09:16:38Z</time>
      </trkpt>
      <trkpt lat="42.3101210" lon="-5.9229820">
        <ele>783.6</ele>
        <time>2021-10-12T09:16:46Z</time>
      </trkpt>
      <trkpt lat="42.3100860" lon="-5.9225370">
        <ele>783.4</ele>
        <time>2021-10-12T09:16:53Z</time>
      </trkpt>
      <trkpt lat="42.3100730" lon="-5.9222990">
        <ele>783.4</ele>
        <time>2021-10-12T09:16:57Z</time>
      </trkpt>
      <trkpt lat="42.3100470" lon="-5.9219880">
        <ele>783.2</ele>
        <time>2021-10-12T09:17:02Z</time>
      </trkpt>
      <trkpt lat="42.3100230" lon="-5.9216830">
        <ele>783.2</ele>
        <time>2021-10-12T09:17:07Z</time>
      </trkpt>
      <trkpt lat="42.3100000" lon="-5.9213570">
        <ele>783.0</ele>
        <time>2021-10-12T09:17:12Z</time>
      </trkpt>
      <trkpt lat="42.3099730" lon="-5.9210660">
        <ele>783.0</ele>
        <time>2021-10-12T09:17:17Z</time>
      </trkpt>
      <trkpt lat="42.3099520" lon="-5.9207030">
        <ele>782.6</ele>
        <time>2021-10-12T09:17:23Z</time>
      </trkpt>
      <trkpt lat="42.3099320" lon="-5.9203900">
        <ele>782.6</ele>
        <time>2021-10-12T09:17:28Z</time>
      </trkpt>
      <trkpt lat="42.3098830" lon="-5.9199400">
        <ele>782.4</ele>
        <time>2021-10-12T09:17:35Z</time>
      </trkpt>
      <trkpt lat="42.3098720" lon="-5.9198170">
        <ele>782.4</ele>
        <time>2021-10-12T09:17:37Z</time>
      </trkpt>
      <trkpt lat="42.3098720" lon="-5.9197570">
        <ele>782.4</ele>
        <time>2021-10-12T09:17:38Z</time>
      </trkpt>
      <trkpt lat="42.3098870" lon="-5.9196450">
        <ele>782.4</ele>
        <time>2021-10-12T09:17:40Z</time>
      </trkpt>
      <trkpt lat="42.3099010" lon="-5.9195940">
        <ele>782.2</ele>
        <time>2021-10-12T09:17:41Z</time>
      </trkpt>
      <trkpt lat="42.3100150" lon="-5.9191840">
        <ele>781.8</ele>
        <time>2021-10-12T09:17:48Z</time>
      </trkpt>
      <trkpt lat="42.3100530" lon="-5.9188870">
        <ele>781.8</ele>
        <time>2021-10-12T09:17:53Z</time>
      </trkpt>
      <trkpt lat="42.3100470" lon="-5.9187910">
        <ele>781.8</ele>
        <time>2021-10-12T09:17:55Z</time>
      </trkpt>
      <trkpt lat="42.3100330" lon="-5.9186060">
        <ele>781.8</ele>
        <time>2021-10-12T09:17:59Z</time>
      </trkpt>
      <trkpt lat="42.3100120" lon="-5.9183790">
        <ele>781.8</ele>
        <time>2021-10-12T09:18:04Z</time>
      </trkpt>
      <trkpt lat="42.3100780" lon="-5.9181600">
        <ele>781.6</ele>
        <time>2021-10-12T09:18:09Z</time>
      </trkpt>
      <trkpt lat="42.3101550" lon="-5.9181210">
        <ele>781.6</ele>
        <time>2021-10-12T09:18:12Z</time>
      </trkpt>
      <trkpt lat="42.3102680" lon="-5.9182000">
        <ele>781.2</ele>
        <time>2021-10-12T09:18:17Z</time>
      </trkpt>
      <trkpt lat="42.3104250" lon="-5.9183780">
        <ele>781.2</ele>
        <time>2021-10-12T09:18:25Z</time>
      </trkpt>
      <trkpt lat="42.3104460" lon="-5.9183800">
        <ele>781.4</ele>
        <time>2021-10-12T09:18:27Z</time>
      </trkpt>
      <trkpt lat="42.3104520" lon="-5.9183710">
        <ele>781.4</ele>
        <time>2021-10-12T09:18:29Z</time>
      </trkpt>
      <trkpt lat="42.3104340" lon="-5.9183600">
        <ele>781.6</ele>
        <time>2021-10-12T09:18:31Z</time>
      </trkpt>
      <trkpt lat="42.3103760" lon="-5.9183160">
        <ele>781.6</ele>
        <time>2021-10-12T09:18:34Z</time>
      </trkpt>
      <trkpt lat="42.3102220" lon="-5.9181620">
        <ele>781.8</ele>
        <time>2021-10-12T09:18:40Z</time>
      </trkpt>
      <trkpt lat="42.3100580" lon="-5.9180060">
        <ele>781.4</ele>
        <time>2021-10-12T09:18:46Z</time>
      </trkpt>
      <trkpt lat="42.3100080" lon="-5.9179530">
        <ele>781.4</ele>
        <time>2021-10-12T09:18:48Z</time>
      </trkpt>
      <trkpt lat="42.3097650" lon="-5.9177100">
        <ele>781.2</ele>
        <time>2021-10-12T09:18:56Z</time>
      </trkpt>
      <trkpt lat="42.3096120" lon="-5.9175470">
        <ele>780.8</ele>
        <time>2021-10-12T09:19:02Z</time>
      </trkpt>
      <trkpt lat="42.3095800" lon="-5.9175010">
        <ele>780.8</ele>
        <time>2021-10-12T09:19:04Z</time>
      </trkpt>
      <trkpt lat="42.3095670" lon="-5.9174680">
        <ele>780.8</ele>
        <time>2021-10-12T09:19:05Z</time>
      </trkpt>
      <trkpt lat="42.3095470" lon="-5.9173770">
        <ele>780.6</ele>
        <time>2021-10-12T09:19:08Z</time>
      </trkpt>
      <trkpt lat="42.3094670" lon="-5.9172660">
        <ele>780.4</ele>
        <time>2021-10-12T09:19:13Z</time>
      </trkpt>
      <trkpt lat="42.3094240" lon="-5.9172130">
        <ele>780.8</ele>
        <time>2021-10-12T09:19:18Z</time>
      </trkpt>
      <trkpt lat="42.3087020" lon="-5.9163380">
        <ele>783.2</ele>
        <time>2021-10-12T09:26:56Z</time>
      </trkpt>
      <trkpt lat="42.3086740" lon="-5.9163240">
        <ele>783.2</ele>
        <time>2021-10-12T09:26:57Z</time>
      </trkpt>
      <trkpt lat="42.3086440" lon="-5.9163040">
        <ele>783.2</ele>
        <time>2021-10-12T09:26:58Z</time>
      </trkpt>
      <trkpt lat="42.3084220" lon="-5.9161640">
        <ele>782.4</ele>
        <time>2021-10-12T09:27:04Z</time>
      </trkpt>
      <trkpt lat="42.3083830" lon="-5.9161540">
        <ele>782.2</ele>
        <time>2021-10-12T09:27:05Z</time>
      </trkpt>
      <trkpt lat="42.3082520" lon="-5.9161380">
        <ele>781.2</ele>
        <time>2021-10-12T09:27:08Z</time>
      </trkpt>
      <trkpt lat="42.3081840" lon="-5.9161100">
        <ele>780.8</ele>
        <time>2021-10-12T09:27:10Z</time>
      </trkpt>
      <trkpt lat="42.3080930" lon="-5.9160100">
        <ele>780.8</ele>
        <time>2021-10-12T09:27:14Z</time>
      </trkpt>
      <trkpt lat="42.3079490" lon="-5.9158580">
        <ele>781.0</ele>
        <time>2021-10-12T09:27:21Z</time>
      </trkpt>
      <trkpt lat="42.3077680" lon="-5.9156860">
        <ele>781.2</ele>
        <time>2021-10-12T09:27:29Z</time>
      </trkpt>
      <trkpt lat="42.3075370" lon="-5.9154320">
        <ele>781.2</ele>
        <time>2021-10-12T09:27:38Z</time>
      </trkpt>
      <trkpt lat="42.3073610" lon="-5.9152490">
        <ele>781.2</ele>
        <time>2021-10-12T09:27:45Z</time>
      </trkpt>
      <trkpt lat="42.3071810" lon="-5.9151920">
        <ele>781.4</ele>
        <time>2021-10-12T09:27:51Z</time>
      </trkpt>
      <trkpt lat="42.3071130" lon="-5.9151750">
        <ele>781.4</ele>
        <time>2021-10-12T09:27:53Z</time>
      </trkpt>
      <trkpt lat="42.3069060" lon="-5.9151340">
        <ele>781.4</ele>
        <time>2021-10-12T09:27:59Z</time>
      </trkpt>
      <trkpt lat="42.3067690" lon="-5.9151060">
        <ele>781.4</ele>
        <time>2021-10-12T09:28:03Z</time>
      </trkpt>
      <trkpt lat="42.3066970" lon="-5.9151120">
        <ele>781.4</ele>
        <time>2021-10-12T09:28:05Z</time>
      </trkpt>
      <trkpt lat="42.3065980" lon="-5.9151380">
        <ele>781.4</ele>
        <time>2021-10-12T09:28:08Z</time>
      </trkpt>
      <trkpt lat="42.3063140" lon="-5.9151220">
        <ele>781.6</ele>
        <time>2021-10-12T09:28:16Z</time>
      </trkpt>
      <trkpt lat="42.3062180" lon="-5.9150960">
        <ele>781.6</ele>
        <time>2021-10-12T09:28:19Z</time>
      </trkpt>
      <trkpt lat="42.3061220" lon="-5.9150780">
        <ele>781.4</ele>
        <time>2021-10-12T09:28:22Z</time>
      </trkpt>
      <trkpt lat="42.3059460" lon="-5.9150180">
        <ele>781.4</ele>
        <time>2021-10-12T09:28:28Z</time>
      </trkpt>
      <trkpt lat="42.3058620" lon="-5.9149820">
        <ele>781.2</ele>
        <time>2021-10-12T09:28:31Z</time>
      </trkpt>
      <trkpt lat="42.3058070" lon="-5.9149600">
        <ele>781.2</ele>
        <time>2021-10-12T09:28:33Z</time>
      </trkpt>
      <trkpt lat="42.3056520" lon="-5.9149130">
        <ele>781.2</ele>
        <time>2021-10-12T09:28:39Z</time>
      </trkpt>
      <trkpt lat="42.3056050" lon="-5.9148890">
        <ele>781.4</ele>
        <time>2021-10-12T09:28:41Z</time>
      </trkpt>
      <trkpt lat="42.3054760" lon="-5.9148870">
        <ele>781.6</ele>
        <time>2021-10-12T09:28:47Z</time>
      </trkpt>
      <trkpt lat="42.3053430" lon="-5.9149410">
        <ele>781.6</ele>
        <time>2021-10-12T09:28:53Z</time>
      </trkpt>
      <trkpt lat="42.3051360" lon="-5.9149070">
        <ele>781.8</ele>
        <time>2021-10-12T09:29:00Z</time>
      </trkpt>
      <trkpt lat="42.3049050" lon="-5.9147890">
        <ele>781.8</ele>
        <time>2021-10-12T09:29:07Z</time>
      </trkpt>
      <trkpt lat="42.3047190" lon="-5.9146620">
        <ele>781.8</ele>
        <time>2021-10-12T09:29:13Z</time>
      </trkpt>
      <trkpt lat="42.3046590" lon="-5.9146250">
        <ele>781.8</ele>
        <time>2021-10-12T09:29:15Z</time>
      </trkpt>
      <trkpt lat="42.3044320" lon="-5.9144590">
        <ele>781.8</ele>
        <time>2021-10-12T09:29:23Z</time>
      </trkpt>
      <trkpt lat="42.3042450" lon="-5.9143620">
        <ele>781.6</ele>
        <time>2021-10-12T09:29:30Z</time>
      </trkpt>
      <trkpt lat="42.3042290" lon="-5.9143440">
        <ele>781.6</ele>
        <time>2021-10-12T09:29:31Z</time>
      </trkpt>
      <trkpt lat="42.3042020" lon="-5.9143140">
        <ele>781.6</ele>
        <time>2021-10-12T09:29:33Z</time>
      </trkpt>
      <trkpt lat="42.3041870" lon="-5.9143030">
        <ele>781.6</ele>
        <time>2021-10-12T09:29:34Z</time>
      </trkpt>
      <trkpt lat="42.3040990" lon="-5.9142260">
        <ele>781.4</ele>
        <time>2021-10-12T09:29:39Z</time>
      </trkpt>
      <trkpt lat="42.3040240" lon="-5.9140420">
        <ele>781.4</ele>
        <time>2021-10-12T09:29:46Z</time>
      </trkpt>
      <trkpt lat="42.3039020" lon="-5.9137130">
        <ele>781.4</ele>
        <time>2021-10-12T09:29:55Z</time>
      </trkpt>
      <trkpt lat="42.3038040" lon="-5.9134820">
        <ele>781.2</ele>
        <time>2021-10-12T09:30:00Z</time>
      </trkpt>
      <trkpt lat="42.3037810" lon="-5.9134380">
        <ele>781.2</ele>
        <time>2021-10-12T09:30:01Z</time>
      </trkpt>
      <trkpt lat="42.3036410" lon="-5.9130970">
        <ele>781.0</ele>
        <time>2021-10-12T09:30:08Z</time>
      </trkpt>
      <trkpt lat="42.3034480" lon="-5.9126120">
        <ele>780.8</ele>
        <time>2021-10-12T09:30:17Z</time>
      </trkpt>
      <trkpt lat="42.3032340" lon="-5.9121180">
        <ele>780.6</ele>
        <time>2021-10-12T09:30:26Z</time>
      </trkpt>
      <trkpt lat="42.3031680" lon="-5.9119580">
        <ele>780.4</ele>
        <time>2021-10-12T09:30:29Z</time>
      </trkpt>
      <trkpt lat="42.3030410" lon="-5.9116520">
        <ele>780.4</ele>
        <time>2021-10-12T09:30:35Z</time>
      </trkpt>
      <trkpt lat="42.3028130" lon="-5.9111370">
        <ele>780.4</ele>
        <time>2021-10-12T09:30:45Z</time>
      </trkpt>
      <trkpt lat="42.3025860" lon="-5.9106430">
        <ele>780.4</ele>
        <time>2021-10-12T09:30:54Z</time>
      </trkpt>
      <trkpt lat="42.3024540" lon="-5.9103580">
        <ele>780.4</ele>
        <time>2021-10-12T09:30:59Z</time>
      </trkpt>
      <trkpt lat="42.3022790" lon="-5.9100130">
        <ele>780.2</ele>
        <time>2021-10-12T09:31:05Z</time>
      </trkpt>
      <trkpt lat="42.3020580" lon="-5.9097370">
        <ele>780.2</ele>
        <time>2021-10-12T09:31:11Z</time>
      </trkpt>
      <trkpt lat="42.3017920" lon="-5.9094330">
        <ele>780.2</ele>
        <time>2021-10-12T09:31:18Z</time>
      </trkpt>
      <trkpt lat="42.3015660" lon="-5.9091940">
        <ele>780.0</ele>
        <time>2021-10-12T09:31:24Z</time>
      </trkpt>
      <trkpt lat="42.3014970" lon="-5.9091090">
        <ele>780.0</ele>
        <time>2021-10-12T09:31:26Z</time>
      </trkpt>
      <trkpt lat="42.3013290" lon="-5.9089090">
        <ele>780.0</ele>
        <time>2021-10-12T09:31:31Z</time>
      </trkpt>
      <trkpt lat="42.3012950" lon="-5.9088100">
        <ele>780.2</ele>
        <time>2021-10-12T09:31:33Z</time>
      </trkpt>
      <trkpt lat="42.3013100" lon="-5.9087100">
        <ele>780.4</ele>
        <time>2021-10-12T09:31:35Z</time>
      </trkpt>
      <trkpt lat="42.3013420" lon="-5.9086200">
        <ele>780.6</ele>
        <time>2021-10-12T09:31:37Z</time>
      </trkpt>
      <trkpt lat="42.3013940" lon="-5.9083530">
        <ele>780.8</ele>
        <time>2021-10-12T09:31:43Z</time>
      </trkpt>
      <trkpt lat="42.3013790" lon="-5.9082970">
        <ele>780.8</ele>
        <time>2021-10-12T09:31:44Z</time>
      </trkpt>
      <trkpt lat="42.3013340" lon="-5.9081880">
        <ele>780.8</ele>
        <time>2021-10-12T09:31:46Z</time>
      </trkpt>
      <trkpt lat="42.3013080" lon="-5.9081370">
        <ele>780.8</ele>
        <time>2021-10-12T09:31:47Z</time>
      </trkpt>
      <trkpt lat="42.3011450" lon="-5.9078450">
        <ele>780.0</ele>
        <time>2021-10-12T09:31:53Z</time>
      </trkpt>
      <trkpt lat="42.3010660" lon="-5.9077070">
        <ele>780.0</ele>
        <time>2021-10-12T09:31:56Z</time>
      </trkpt>
      <trkpt lat="42.3010410" lon="-5.9076630">
        <ele>780.0</ele>
        <time>2021-10-12T09:31:57Z</time>
      </trkpt>
      <trkpt lat="42.3008550" lon="-5.9073250">
        <ele>779.8</ele>
        <time>2021-10-12T09:32:05Z</time>
      </trkpt>
      <trkpt lat="42.3006090" lon="-5.9069200">
        <ele>779.4</ele>
        <time>2021-10-12T09:32:14Z</time>
      </trkpt>
      <trkpt lat="42.3003980" lon="-5.9065870">
        <ele>779.4</ele>
        <time>2021-10-12T09:32:22Z</time>
      </trkpt>
      <trkpt lat="42.3002630" lon="-5.9063550">
        <ele>779.4</ele>
        <time>2021-10-12T09:32:27Z</time>
      </trkpt>
      <trkpt lat="42.3001470" lon="-5.9061650">
        <ele>779.4</ele>
        <time>2021-10-12T09:32:31Z</time>
      </trkpt>
      <trkpt lat="42.3001150" lon="-5.9061220">
        <ele>779.2</ele>
        <time>2021-10-12T09:32:32Z</time>
      </trkpt>
      <trkpt lat="42.3000540" lon="-5.9060320">
        <ele>779.2</ele>
        <time>2021-10-12T09:32:34Z</time>
      </trkpt>
      <trkpt lat="42.2999820" lon="-5.9059430">
        <ele>779.2</ele>
        <time>2021-10-12T09:32:36Z</time>
      </trkpt>
      <trkpt lat="42.2999250" lon="-5.9058660">
        <ele>779.2</ele>
        <time>2021-10-12T09:32:38Z</time>
      </trkpt>
      <trkpt lat="42.2998910" lon="-5.9058250">
        <ele>779.2</ele>
        <time>2021-10-12T09:32:39Z</time>
      </trkpt>
      <trkpt lat="42.2997710" lon="-5.9056810">
        <ele>779.2</ele>
        <time>2021-10-12T09:32:43Z</time>
      </trkpt>
      <trkpt lat="42.2997380" lon="-5.9056480">
        <ele>779.2</ele>
        <time>2021-10-12T09:32:44Z</time>
      </trkpt>
      <trkpt lat="42.2995050" lon="-5.9053570">
        <ele>778.6</ele>
        <time>2021-10-12T09:32:52Z</time>
      </trkpt>
      <trkpt lat="42.2994310" lon="-5.9052340">
        <ele>778.6</ele>
        <time>2021-10-12T09:32:55Z</time>
      </trkpt>
      <trkpt lat="42.2993580" lon="-5.9050620">
        <ele>778.6</ele>
        <time>2021-10-12T09:32:59Z</time>
      </trkpt>
      <trkpt lat="42.2993040" lon="-5.9048820">
        <ele>778.6</ele>
        <time>2021-10-12T09:33:03Z</time>
      </trkpt>
      <trkpt lat="42.2992930" lon="-5.9048210">
        <ele>778.8</ele>
        <time>2021-10-12T09:33:04Z</time>
      </trkpt>
      <trkpt lat="42.2992300" lon="-5.9046070">
        <ele>778.6</ele>
        <time>2021-10-12T09:33:09Z</time>
      </trkpt>
      <trkpt lat="42.2991830" lon="-5.9044010">
        <ele>778.6</ele>
        <time>2021-10-12T09:33:15Z</time>
      </trkpt>
      <trkpt lat="42.2991520" lon="-5.9043780">
        <ele>778.6</ele>
        <time>2021-10-12T09:33:17Z</time>
      </trkpt>
      <trkpt lat="42.2991360" lon="-5.9043710">
        <ele>778.6</ele>
        <time>2021-10-12T09:33:19Z</time>
      </trkpt>
      <trkpt lat="42.2991360" lon="-5.9043710">
        <ele>778.6</ele>
        <time>2021-10-12T09:33:20Z</time>
      </trkpt>
      <trkpt lat="42.2990910" lon="-5.9043910">
        <ele>778.6</ele>
        <time>2021-10-12T09:33:49Z</time>
      </trkpt>
      <trkpt lat="42.2990510" lon="-5.9044020">
        <ele>778.6</ele>
        <time>2021-10-12T09:33:51Z</time>
      </trkpt>
      <trkpt lat="42.2989750" lon="-5.9044660">
        <ele>778.8</ele>
        <time>2021-10-12T09:33:55Z</time>
      </trkpt>
      <trkpt lat="42.2989570" lon="-5.9044720">
        <ele>778.8</ele>
        <time>2021-10-12T09:33:56Z</time>
      </trkpt>
      <trkpt lat="42.2989220" lon="-5.9045040">
        <ele>779.0</ele>
        <time>2021-10-12T09:33:59Z</time>
      </trkpt>
      <trkpt lat="42.2989170" lon="-5.9045040">
        <ele>779.2</ele>
        <time>2021-10-12T09:34:01Z</time>
      </trkpt>
      <trkpt lat="42.2989170" lon="-5.9045040">
        <ele>779.2</ele>
        <time>2021-10-12T09:34:02Z</time>
      </trkpt>
      <trkpt lat="42.2989070" lon="-5.9044330">
        <ele>779.4</ele>
        <time>2021-10-12T09:34:17Z</time>
      </trkpt>
      <trkpt lat="42.2989210" lon="-5.9044070">
        <ele>779.4</ele>
        <time>2021-10-12T09:34:18Z</time>
      </trkpt>
      <trkpt lat="42.2989390" lon="-5.9043830">
        <ele>779.4</ele>
        <time>2021-10-12T09:34:19Z</time>
      </trkpt>
      <trkpt lat="42.2989800" lon="-5.9042780">
        <ele>779.2</ele>
        <time>2021-10-12T09:34:22Z</time>
      </trkpt>
      <trkpt lat="42.2989690" lon="-5.9042440">
        <ele>779.2</ele>
        <time>2021-10-12T09:34:23Z</time>
      </trkpt>
      <trkpt lat="42.2989160" lon="-5.9041000">
        <ele>778.8</ele>
        <time>2021-10-12T09:34:27Z</time>
      </trkpt>
      <trkpt lat="42.2988930" lon="-5.9040290">
        <ele>778.6</ele>
        <time>2021-10-12T09:34:29Z</time>
      </trkpt>
      <trkpt lat="42.2987680" lon="-5.9037730">
        <ele>778.4</ele>
        <time>2021-10-12T09:34:37Z</time>
      </trkpt>
      <trkpt lat="42.2986790" lon="-5.9035430">
        <ele>778.2</ele>
        <time>2021-10-12T09:34:43Z</time>
      </trkpt>
      <trkpt lat="42.2985590" lon="-5.9033710">
        <ele>778.2</ele>
        <time>2021-10-12T09:34:49Z</time>
      </trkpt>
      <trkpt lat="42.2984290" lon="-5.9031810">
        <ele>778.0</ele>
        <time>2021-10-12T09:34:57Z</time>
      </trkpt>
      <trkpt lat="42.2983380" lon="-5.9030350">
        <ele>778.2</ele>
        <time>2021-10-12T09:35:03Z</time>
      </trkpt>
      <trkpt lat="42.2982440" lon="-5.9029030">
        <ele>778.2</ele>
        <time>2021-10-12T09:35:09Z</time>
      </trkpt>
      <trkpt lat="42.2981700" lon="-5.9027670">
        <ele>778.2</ele>
        <time>2021-10-12T09:35:14Z</time>
      </trkpt>
      <trkpt lat="42.2981610" lon="-5.9027190">
        <ele>778.4</ele>
        <time>2021-10-12T09:35:16Z</time>
      </trkpt>
      <trkpt lat="42.2981520" lon="-5.9026940">
        <ele>778.2</ele>
        <time>2021-10-12T09:35:19Z</time>
      </trkpt>
      <trkpt lat="42.2981520" lon="-5.9026940">
        <ele>778.4</ele>
        <time>2021-10-12T09:35:22Z</time>
      </trkpt>
      <trkpt lat="42.2981240" lon="-5.9025990">
        <ele>778.8</ele>
        <time>2021-10-12T09:36:45Z</time>
      </trkpt>
      <trkpt lat="42.2980940" lon="-5.9025720">
        <ele>778.8</ele>
        <time>2021-10-12T09:36:46Z</time>
      </trkpt>
      <trkpt lat="42.2979670" lon="-5.9023760">
        <ele>778.6</ele>
        <time>2021-10-12T09:36:52Z</time>
      </trkpt>
      <trkpt lat="42.2978250" lon="-5.9022560">
        <ele>778.4</ele>
        <time>2021-10-12T09:36:57Z</time>
      </trkpt>
      <trkpt lat="42.2977470" lon="-5.9021730">
        <ele>778.2</ele>
        <time>2021-10-12T09:37:02Z</time>
      </trkpt>
      <trkpt lat="42.2977340" lon="-5.9021540">
        <ele>778.2</ele>
        <time>2021-10-12T09:37:03Z</time>
      </trkpt>
      <trkpt lat="42.2977150" lon="-5.9020910">
        <ele>778.0</ele>
        <time>2021-10-12T09:37:05Z</time>
      </trkpt>
      <trkpt lat="42.2977150" lon="-5.9020540">
        <ele>778.0</ele>
        <time>2021-10-12T09:37:06Z</time>
      </trkpt>
      <trkpt lat="42.2977520" lon="-5.9018900">
        <ele>777.8</ele>
        <time>2021-10-12T09:37:10Z</time>
      </trkpt>
      <trkpt lat="42.2978110" lon="-5.9016180">
        <ele>777.6</ele>
        <time>2021-10-12T09:37:16Z</time>
      </trkpt>
      <trkpt lat="42.2978380" lon="-5.9015200">
        <ele>777.4</ele>
        <time>2021-10-12T09:37:18Z</time>
      </trkpt>
      <trkpt lat="42.2978690" lon="-5.9014510">
        <ele>777.4</ele>
        <time>2021-10-12T09:37:20Z</time>
      </trkpt>
      <trkpt lat="42.2979460" lon="-5.9012770">
        <ele>777.4</ele>
        <time>2021-10-12T09:37:24Z</time>
      </trkpt>
      <trkpt lat="42.2979930" lon="-5.9010560">
        <ele>777.2</ele>
        <time>2021-10-12T09:37:28Z</time>
      </trkpt>
      <trkpt lat="42.2980030" lon="-5.9008120">
        <ele>777.0</ele>
        <time>2021-10-12T09:37:32Z</time>
      </trkpt>
      <trkpt lat="42.2980920" lon="-5.9005880">
        <ele>777.0</ele>
        <time>2021-10-12T09:37:37Z</time>
      </trkpt>
      <trkpt lat="42.2981220" lon="-5.9005630">
        <ele>776.8</ele>
        <time>2021-10-12T09:37:38Z</time>
      </trkpt>
      <trkpt lat="42.2983270" lon="-5.9003390">
        <ele>776.8</ele>
        <time>2021-10-12T09:37:43Z</time>
      </trkpt>
      <trkpt lat="42.2985620" lon="-5.9000800">
        <ele>776.6</ele>
        <time>2021-10-12T09:37:49Z</time>
      </trkpt>
      <trkpt lat="42.2984910" lon="-5.9000050">
        <ele>776.6</ele>
        <time>2021-10-12T09:37:50Z</time>
      </trkpt>
      <trkpt lat="42.2984550" lon="-5.8998390">
        <ele>776.4</ele>
        <time>2021-10-12T09:37:53Z</time>
      </trkpt>
      <trkpt lat="42.2984870" lon="-5.8997130">
        <ele>776.4</ele>
        <time>2021-10-12T09:37:56Z</time>
      </trkpt>
      <trkpt lat="42.2985240" lon="-5.8995870">
        <ele>776.4</ele>
        <time>2021-10-12T09:38:00Z</time>
      </trkpt>
      <trkpt lat="42.2986010" lon="-5.8994430">
        <ele>776.2</ele>
        <time>2021-10-12T09:38:05Z</time>
      </trkpt>
      <trkpt lat="42.2986160" lon="-5.8994190">
        <ele>776.2</ele>
        <time>2021-10-12T09:38:06Z</time>
      </trkpt>
      <trkpt lat="42.2987800" lon="-5.8992070">
        <ele>776.0</ele>
        <time>2021-10-12T09:38:14Z</time>
      </trkpt>
      <trkpt lat="42.2988780" lon="-5.8991210">
        <ele>776.0</ele>
        <time>2021-10-12T09:38:18Z</time>
      </trkpt>
      <trkpt lat="42.2989060" lon="-5.8991340">
        <ele>776.0</ele>
        <time>2021-10-12T09:38:20Z</time>
      </trkpt>
      <trkpt lat="42.2989370" lon="-5.8991220">
        <ele>776.0</ele>
        <time>2021-10-12T09:38:21Z</time>
      </trkpt>
      <trkpt lat="42.2989550" lon="-5.8991040">
        <ele>775.8</ele>
        <time>2021-10-12T09:38:22Z</time>
      </trkpt>
      <trkpt lat="42.2990060" lon="-5.8990530">
        <ele>775.8</ele>
        <time>2021-10-12T09:38:24Z</time>
      </trkpt>
      <trkpt lat="42.2990230" lon="-5.8990190">
        <ele>775.8</ele>
        <time>2021-10-12T09:38:25Z</time>
      </trkpt>
      <trkpt lat="42.2990900" lon="-5.8988800">
        <ele>775.8</ele>
        <time>2021-10-12T09:38:28Z</time>
      </trkpt>
      <trkpt lat="42.2990660" lon="-5.8987590">
        <ele>775.6</ele>
        <time>2021-10-12T09:38:33Z</time>
      </trkpt>
      <trkpt lat="42.2990660" lon="-5.8987590">
        <ele>775.6</ele>
        <time>2021-10-12T09:38:36Z</time>
      </trkpt>
      <trkpt lat="42.2991630" lon="-5.8989980">
        <ele>775.6</ele>
        <time>2021-10-12T09:39:17Z</time>
      </trkpt>
      <trkpt lat="42.2991770" lon="-5.8990310">
        <ele>775.6</ele>
        <time>2021-10-12T09:39:18Z</time>
      </trkpt>
      <trkpt lat="42.2992630" lon="-5.8992200">
        <ele>775.6</ele>
        <time>2021-10-12T09:39:23Z</time>
      </trkpt>
      <trkpt lat="42.2993430" lon="-5.8993630">
        <ele>775.8</ele>
        <time>2021-10-12T09:39:27Z</time>
      </trkpt>
      <trkpt lat="42.2993990" lon="-5.8994950">
        <ele>776.0</ele>
        <time>2021-10-12T09:39:31Z</time>
      </trkpt>
      <trkpt lat="42.2994130" lon="-5.8995180">
        <ele>776.0</ele>
        <time>2021-10-12T09:39:32Z</time>
      </trkpt>
      <trkpt lat="42.2994380" lon="-5.8995380">
        <ele>776.0</ele>
        <time>2021-10-12T09:39:34Z</time>
      </trkpt>
      <trkpt lat="42.2994520" lon="-5.8995400">
        <ele>776.2</ele>
        <time>2021-10-12T09:39:36Z</time>
      </trkpt>
      <trkpt lat="42.2994700" lon="-5.8995500">
        <ele>776.0</ele>
        <time>2021-10-12T09:39:37Z</time>
      </trkpt>
      <trkpt lat="42.2995200" lon="-5.8996180">
        <ele>776.2</ele>
        <time>2021-10-12T09:39:41Z</time>
      </trkpt>
      <trkpt lat="42.2995280" lon="-5.8996290">
        <ele>776.0</ele>
        <time>2021-10-12T09:39:45Z</time>
      </trkpt>
      <trkpt lat="42.2995450" lon="-5.8996630">
        <ele>776.2</ele>
        <time>2021-10-12T09:39:54Z</time>
      </trkpt>
      <trkpt lat="42.2995670" lon="-5.8997360">
        <ele>776.0</ele>
        <time>2021-10-12T09:39:57Z</time>
      </trkpt>
      <trkpt lat="42.2996110" lon="-5.8999190">
        <ele>776.0</ele>
        <time>2021-10-12T09:40:05Z</time>
      </trkpt>
      <trkpt lat="42.2996790" lon="-5.9001320">
        <ele>776.2</ele>
        <time>2021-10-12T09:40:13Z</time>
      </trkpt>
      <trkpt lat="42.2996840" lon="-5.9002550">
        <ele>776.4</ele>
        <time>2021-10-12T09:40:19Z</time>
      </trkpt>
      <trkpt lat="42.2996710" lon="-5.9002640">
        <ele>776.2</ele>
        <time>2021-10-12T09:40:23Z</time>
      </trkpt>
      <trkpt lat="42.2996540" lon="-5.9002610">
        <ele>776.2</ele>
        <time>2021-10-12T09:40:24Z</time>
      </trkpt>
      <trkpt lat="42.2996190" lon="-5.9002690">
        <ele>776.2</ele>
        <time>2021-10-12T09:40:27Z</time>
      </trkpt>
      <trkpt lat="42.2995250" lon="-5.9003690">
        <ele>776.2</ele>
        <time>2021-10-12T09:40:32Z</time>
      </trkpt>
      <trkpt lat="42.2993620" lon="-5.9006130">
        <ele>776.6</ele>
        <time>2021-10-12T09:40:39Z</time>
      </trkpt>
      <trkpt lat="42.2992320" lon="-5.9007740">
        <ele>776.6</ele>
        <time>2021-10-12T09:40:45Z</time>
      </trkpt>
      <trkpt lat="42.2992140" lon="-5.9007910">
        <ele>776.6</ele>
        <time>2021-10-12T09:40:46Z</time>
      </trkpt>
      <trkpt lat="42.2991810" lon="-5.9007920">
        <ele>776.8</ele>
        <time>2021-10-12T09:40:48Z</time>
      </trkpt>
      <trkpt lat="42.2990890" lon="-5.9007490">
        <ele>776.8</ele>
        <time>2021-10-12T09:40:54Z</time>
      </trkpt>
      <trkpt lat="42.2990510" lon="-5.9007280">
        <ele>776.8</ele>
        <time>2021-10-12T09:41:00Z</time>
      </trkpt>
      <trkpt lat="42.2990140" lon="-5.9007010">
        <ele>776.8</ele>
        <time>2021-10-12T09:41:02Z</time>
      </trkpt>
      <trkpt lat="42.2989840" lon="-5.9006900">
        <ele>776.8</ele>
        <time>2021-10-12T09:41:03Z</time>
      </trkpt>
      <trkpt lat="42.2988170" lon="-5.9005750">
        <ele>776.6</ele>
        <time>2021-10-12T09:41:08Z</time>
      </trkpt>
      <trkpt lat="42.2987960" lon="-5.9005310">
        <ele>776.6</ele>
        <time>2021-10-12T09:41:09Z</time>
      </trkpt>
      <trkpt lat="42.2987830" lon="-5.9004460">
        <ele>776.6</ele>
        <time>2021-10-12T09:41:11Z</time>
      </trkpt>
      <trkpt lat="42.2987780" lon="-5.9003190">
        <ele>776.6</ele>
        <time>2021-10-12T09:41:14Z</time>
      </trkpt>
      <trkpt lat="42.2987730" lon="-5.9002720">
        <ele>776.6</ele>
        <time>2021-10-12T09:41:15Z</time>
      </trkpt>
      <trkpt lat="42.2988400" lon="-5.8999990">
        <ele>776.2</ele>
        <time>2021-10-12T09:41:22Z</time>
      </trkpt>
      <trkpt lat="42.2988390" lon="-5.8999790">
        <ele>776.2</ele>
        <time>2021-10-12T09:41:23Z</time>
      </trkpt>
      <trkpt lat="42.2988320" lon="-5.8999270">
        <ele>776.2</ele>
        <time>2021-10-12T09:41:26Z</time>
      </trkpt>
      <trkpt lat="42.2988330" lon="-5.8999240">
        <ele>776.2</ele>
        <time>2021-10-12T09:41:28Z</time>
      </trkpt>
      <trkpt lat="42.2988000" lon="-5.8999690">
        <ele>775.8</ele>
        <time>2021-10-12T09:46:28Z</time>
      </trkpt>
      <trkpt lat="42.2987840" lon="-5.8999990">
        <ele>775.8</ele>
        <time>2021-10-12T09:46:29Z</time>
      </trkpt>
      <trkpt lat="42.2987770" lon="-5.9000280">
        <ele>775.8</ele>
        <time>2021-10-12T09:46:30Z</time>
      </trkpt>
      <trkpt lat="42.2987650" lon="-5.9000990">
        <ele>776.0</ele>
        <time>2021-10-12T09:46:32Z</time>
      </trkpt>
      <trkpt lat="42.2987620" lon="-5.9001280">
        <ele>776.0</ele>
        <time>2021-10-12T09:46:33Z</time>
      </trkpt>
      <trkpt lat="42.2987620" lon="-5.9001390">
        <ele>776.0</ele>
        <time>2021-10-12T09:46:35Z</time>
      </trkpt>
      <trkpt lat="42.2986410" lon="-5.9001420">
        <ele>776.0</ele>
        <time>2021-10-12T09:46:40Z</time>
      </trkpt>
      <trkpt lat="42.2985630" lon="-5.9001470">
        <ele>776.0</ele>
        <time>2021-10-12T09:46:43Z</time>
      </trkpt>
      <trkpt lat="42.2984950" lon="-5.9001400">
        <ele>776.0</ele>
        <time>2021-10-12T09:46:46Z</time>
      </trkpt>
      <trkpt lat="42.2984290" lon="-5.9001190">
        <ele>776.0</ele>
        <time>2021-10-12T09:46:50Z</time>
      </trkpt>
      <trkpt lat="42.2984110" lon="-5.9001170">
        <ele>776.0</ele>
        <time>2021-10-12T09:46:52Z</time>
      </trkpt>
      <trkpt lat="42.2984110" lon="-5.9001140">
        <ele>776.2</ele>
        <time>2021-10-12T09:46:55Z</time>
      </trkpt>
      <trkpt lat="42.2984020" lon="-5.9001110">
        <ele>776.2</ele>
        <time>2021-10-12T09:46:56Z</time>
      </trkpt>
      <trkpt lat="42.2983700" lon="-5.9002240">
        <ele>776.2</ele>
        <time>2021-10-12T09:47:02Z</time>
      </trkpt>
      <trkpt lat="42.2982790" lon="-5.9003940">
        <ele>776.4</ele>
        <time>2021-10-12T09:47:07Z</time>
      </trkpt>
      <trkpt lat="42.2982280" lon="-5.9004550">
        <ele>776.4</ele>
        <time>2021-10-12T09:47:09Z</time>
      </trkpt>
      <trkpt lat="42.2980930" lon="-5.9005790">
        <ele>776.4</ele>
        <time>2021-10-12T09:47:14Z</time>
      </trkpt>
      <trkpt lat="42.2980210" lon="-5.9006660">
        <ele>776.6</ele>
        <time>2021-10-12T09:47:17Z</time>
      </trkpt>
      <trkpt lat="42.2979640" lon="-5.9007800">
        <ele>776.8</ele>
        <time>2021-10-12T09:47:20Z</time>
      </trkpt>
      <trkpt lat="42.2979210" lon="-5.9010530">
        <ele>776.8</ele>
        <time>2021-10-12T09:47:26Z</time>
      </trkpt>
      <trkpt lat="42.2979190" lon="-5.9012920">
        <ele>777.0</ele>
        <time>2021-10-12T09:47:32Z</time>
      </trkpt>
      <trkpt lat="42.2979460" lon="-5.9013950">
        <ele>777.2</ele>
        <time>2021-10-12T09:47:34Z</time>
      </trkpt>
      <trkpt lat="42.2979330" lon="-5.9014570">
        <ele>777.2</ele>
        <time>2021-10-12T09:47:35Z</time>
      </trkpt>
      <trkpt lat="42.2979210" lon="-5.9015050">
        <ele>777.2</ele>
        <time>2021-10-12T09:47:36Z</time>
      </trkpt>
      <trkpt lat="42.2978700" lon="-5.9016340">
        <ele>777.2</ele>
        <time>2021-10-12T09:47:39Z</time>
      </trkpt>
      <trkpt lat="42.2978030" lon="-5.9018570">
        <ele>777.6</ele>
        <time>2021-10-12T09:47:45Z</time>
      </trkpt>
      <trkpt lat="42.2977470" lon="-5.9020970">
        <ele>777.6</ele>
        <time>2021-10-12T09:47:51Z</time>
      </trkpt>
      <trkpt lat="42.2977430" lon="-5.9021840">
        <ele>777.8</ele>
        <time>2021-10-12T09:47:54Z</time>
      </trkpt>
      <trkpt lat="42.2976760" lon="-5.9022790">
        <ele>778.2</ele>
        <time>2021-10-12T09:47:58Z</time>
      </trkpt>
      <trkpt lat="42.2976450" lon="-5.9023270">
        <ele>778.4</ele>
        <time>2021-10-12T09:48:00Z</time>
      </trkpt>
      <trkpt lat="42.2975840" lon="-5.9024540">
        <ele>779.0</ele>
        <time>2021-10-12T09:48:04Z</time>
      </trkpt>
      <trkpt lat="42.2975040" lon="-5.9026370">
        <ele>779.4</ele>
        <time>2021-10-12T09:48:09Z</time>
      </trkpt>
      <trkpt lat="42.2974350" lon="-5.9027790">
        <ele>780.0</ele>
        <time>2021-10-12T09:48:13Z</time>
      </trkpt>
      <trkpt lat="42.2973730" lon="-5.9029240">
        <ele>780.6</ele>
        <time>2021-10-12T09:48:17Z</time>
      </trkpt>
      <trkpt lat="42.2973270" lon="-5.9030220">
        <ele>781.2</ele>
        <time>2021-10-12T09:48:21Z</time>
      </trkpt>
      <trkpt lat="42.2972950" lon="-5.9030860">
        <ele>781.8</ele>
        <time>2021-10-12T09:48:24Z</time>
      </trkpt>
      <trkpt lat="42.2972840" lon="-5.9031250">
        <ele>782.2</ele>
        <time>2021-10-12T09:48:26Z</time>
      </trkpt>
      <trkpt lat="42.2972780" lon="-5.9031440">
        <ele>782.4</ele>
        <time>2021-10-12T09:48:27Z</time>
      </trkpt>
      <trkpt lat="42.2972650" lon="-5.9031800">
        <ele>782.6</ele>
        <time>2021-10-12T09:48:29Z</time>
      </trkpt>
      <trkpt lat="42.2972320" lon="-5.9032260">
        <ele>782.8</ele>
        <time>2021-10-12T09:48:32Z</time>
      </trkpt>
      <trkpt lat="42.2972300" lon="-5.9032330">
        <ele>782.8</ele>
        <time>2021-10-12T09:48:33Z</time>
      </trkpt>
      <trkpt lat="42.2972300" lon="-5.9032330">
        <ele>782.8</ele>
        <time>2021-10-12T09:48:35Z</time>
      </trkpt>
      <trkpt lat="42.2972710" lon="-5.9032230">
        <ele>782.6</ele>
        <time>2021-10-12T09:49:09Z</time>
      </trkpt>
      <trkpt lat="42.2972980" lon="-5.9032240">
        <ele>782.6</ele>
        <time>2021-10-12T09:49:10Z</time>
      </trkpt>
      <trkpt lat="42.2973240" lon="-5.9032300">
        <ele>782.6</ele>
        <time>2021-10-12T09:49:11Z</time>
      </trkpt>
      <trkpt lat="42.2974300" lon="-5.9032760">
        <ele>782.8</ele>
        <time>2021-10-12T09:49:15Z</time>
      </trkpt>
      <trkpt lat="42.2975690" lon="-5.9034000">
        <ele>783.6</ele>
        <time>2021-10-12T09:49:21Z</time>
      </trkpt>
      <trkpt lat="42.2975900" lon="-5.9034160">
        <ele>783.8</ele>
        <time>2021-10-12T09:49:22Z</time>
      </trkpt>
      <trkpt lat="42.2976310" lon="-5.9034630">
        <ele>784.2</ele>
        <time>2021-10-12T09:49:24Z</time>
      </trkpt>
      <trkpt lat="42.2977020" lon="-5.9035300">
        <ele>784.4</ele>
        <time>2021-10-12T09:49:27Z</time>
      </trkpt>
      <trkpt lat="42.2978660" lon="-5.9037200">
        <ele>784.8</ele>
        <time>2021-10-12T09:49:35Z</time>
      </trkpt>
      <trkpt lat="42.2979100" lon="-5.9037580">
        <ele>785.0</ele>
        <time>2021-10-12T09:49:37Z</time>
      </trkpt>
      <trkpt lat="42.2979830" lon="-5.9038210">
        <ele>785.0</ele>
        <time>2021-10-12T09:49:40Z</time>
      </trkpt>
      <trkpt lat="42.2981280" lon="-5.9039840">
        <ele>784.8</ele>
        <time>2021-10-12T09:49:46Z</time>
      </trkpt>
      <trkpt lat="42.2982960" lon="-5.9041810">
        <ele>784.6</ele>
        <time>2021-10-12T09:49:52Z</time>
      </trkpt>
      <trkpt lat="42.2983250" lon="-5.9042210">
        <ele>784.6</ele>
        <time>2021-10-12T09:49:53Z</time>
      </trkpt>
      <trkpt lat="42.2984800" lon="-5.9044490">
        <ele>783.8</ele>
        <time>2021-10-12T09:49:59Z</time>
      </trkpt>
      <trkpt lat="42.2984970" lon="-5.9044880">
        <ele>783.6</ele>
        <time>2021-10-12T09:50:00Z</time>
      </trkpt>
      <trkpt lat="42.2985340" lon="-5.9045780">
        <ele>783.2</ele>
        <time>2021-10-12T09:50:03Z</time>
      </trkpt>
      <trkpt lat="42.2985470" lon="-5.9046110">
        <ele>782.8</ele>
        <time>2021-10-12T09:50:05Z</time>
      </trkpt>
      <trkpt lat="42.2985430" lon="-5.9046700">
        <ele>782.4</ele>
        <time>2021-10-12T09:50:09Z</time>
      </trkpt>
      <trkpt lat="42.2985390" lon="-5.9047110">
        <ele>782.2</ele>
        <time>2021-10-12T09:50:11Z</time>
      </trkpt>
      <trkpt lat="42.2984730" lon="-5.9048500">
        <ele>782.2</ele>
        <time>2021-10-12T09:50:16Z</time>
      </trkpt>
      <trkpt lat="42.2983870" lon="-5.9049350">
        <ele>782.8</ele>
        <time>2021-10-12T09:50:22Z</time>
      </trkpt>
      <trkpt lat="42.2983550" lon="-5.9049610">
        <ele>783.2</ele>
        <time>2021-10-12T09:50:25Z</time>
      </trkpt>
      <trkpt lat="42.2983430" lon="-5.9049630">
        <ele>783.2</ele>
        <time>2021-10-12T09:50:26Z</time>
      </trkpt>
      <trkpt lat="42.2983200" lon="-5.9049500">
        <ele>783.2</ele>
        <time>2021-10-12T09:50:28Z</time>
      </trkpt>
      <trkpt lat="42.2982890" lon="-5.9049130">
        <ele>783.4</ele>
        <time>2021-10-12T09:50:31Z</time>
      </trkpt>
      <trkpt lat="42.2982250" lon="-5.9048390">
        <ele>783.6</ele>
        <time>2021-10-12T09:50:37Z</time>
      </trkpt>
      <trkpt lat="42.2980890" lon="-5.9047060">
        <ele>783.6</ele>
        <time>2021-10-12T09:50:47Z</time>
      </trkpt>
      <trkpt lat="42.2979680" lon="-5.9045880">
        <ele>783.4</ele>
        <time>2021-10-12T09:50:53Z</time>
      </trkpt>
      <trkpt lat="42.2978430" lon="-5.9044660">
        <ele>783.4</ele>
        <time>2021-10-12T09:51:00Z</time>
      </trkpt>
      <trkpt lat="42.2978430" lon="-5.9044660">
        <ele>783.4</ele>
        <time>2021-10-12T09:51:02Z</time>
      </trkpt>
      <trkpt lat="42.2979260" lon="-5.9044750">
        <ele>783.4</ele>
        <time>2021-10-12T09:51:12Z</time>
      </trkpt>
      <trkpt lat="42.2979460" lon="-5.9045000">
        <ele>783.4</ele>
        <time>2021-10-12T09:51:13Z</time>
      </trkpt>
      <trkpt lat="42.2980890" lon="-5.9046460">
        <ele>783.4</ele>
        <time>2021-10-12T09:51:20Z</time>
      </trkpt>
      <trkpt lat="42.2982140" lon="-5.9047570">
        <ele>783.4</ele>
        <time>2021-10-12T09:51:26Z</time>
      </trkpt>
      <trkpt lat="42.2982230" lon="-5.9048140">
        <ele>783.4</ele>
        <time>2021-10-12T09:51:28Z</time>
      </trkpt>
      <trkpt lat="42.2982460" lon="-5.9048770">
        <ele>783.2</ele>
        <time>2021-10-12T09:51:30Z</time>
      </trkpt>
      <trkpt lat="42.2983070" lon="-5.9049400">
        <ele>783.2</ele>
        <time>2021-10-12T09:51:33Z</time>
      </trkpt>
      <trkpt lat="42.2983650" lon="-5.9050020">
        <ele>783.2</ele>
        <time>2021-10-12T09:51:36Z</time>
      </trkpt>
      <trkpt lat="42.2984190" lon="-5.9050400">
        <ele>783.4</ele>
        <time>2021-10-12T09:51:39Z</time>
      </trkpt>
      <trkpt lat="42.2984820" lon="-5.9051620">
        <ele>783.6</ele>
        <time>2021-10-12T09:51:44Z</time>
      </trkpt>
      <trkpt lat="42.2984730" lon="-5.9052420">
        <ele>783.8</ele>
        <time>2021-10-12T09:51:47Z</time>
      </trkpt>
      <trkpt lat="42.2984650" lon="-5.9052720">
        <ele>783.8</ele>
        <time>2021-10-12T09:51:48Z</time>
      </trkpt>
      <trkpt lat="42.2984520" lon="-5.9052980">
        <ele>783.8</ele>
        <time>2021-10-12T09:51:49Z</time>
      </trkpt>
      <trkpt lat="42.2984120" lon="-5.9053620">
        <ele>784.2</ele>
        <time>2021-10-12T09:51:55Z</time>
      </trkpt>
      <trkpt lat="42.2983940" lon="-5.9053400">
        <ele>783.8</ele>
        <time>2021-10-12T09:54:49Z</time>
      </trkpt>
      <trkpt lat="42.2983430" lon="-5.9052900">
        <ele>783.8</ele>
        <time>2021-10-12T09:54:51Z</time>
      </trkpt>
      <trkpt lat="42.2981890" lon="-5.9051210">
        <ele>783.8</ele>
        <time>2021-10-12T09:54:56Z</time>
      </trkpt>
      <trkpt lat="42.2979880" lon="-5.9048820">
        <ele>783.8</ele>
        <time>2021-10-12T09:55:03Z</time>
      </trkpt>
      <trkpt lat="42.2978620" lon="-5.9047620">
        <ele>784.0</ele>
        <time>2021-10-12T09:55:07Z</time>
      </trkpt>
      <trkpt lat="42.2977720" lon="-5.9046830">
        <ele>784.2</ele>
        <time>2021-10-12T09:55:10Z</time>
      </trkpt>
      <trkpt lat="42.2976980" lon="-5.9046180">
        <ele>784.2</ele>
        <time>2021-10-12T09:55:12Z</time>
      </trkpt>
      <trkpt lat="42.2975180" lon="-5.9043460">
        <ele>783.8</ele>
        <time>2021-10-12T09:55:18Z</time>
      </trkpt>
      <trkpt lat="42.2974880" lon="-5.9043110">
        <ele>783.8</ele>
        <time>2021-10-12T09:55:19Z</time>
      </trkpt>
      <trkpt lat="42.2972170" lon="-5.9040040">
        <ele>783.8</ele>
        <time>2021-10-12T09:55:28Z</time>
      </trkpt>
      <trkpt lat="42.2971680" lon="-5.9039410">
        <ele>784.0</ele>
        <time>2021-10-12T09:55:30Z</time>
      </trkpt>
      <trkpt lat="42.2971620" lon="-5.9038680">
        <ele>784.0</ele>
        <time>2021-10-12T09:55:32Z</time>
      </trkpt>
      <trkpt lat="42.2971730" lon="-5.9037880">
        <ele>784.2</ele>
        <time>2021-10-12T09:55:36Z</time>
      </trkpt>
      <trkpt lat="42.2971210" lon="-5.9036970">
        <ele>784.2</ele>
        <time>2021-10-12T09:55:42Z</time>
      </trkpt>
      <trkpt lat="42.2970430" lon="-5.9035660">
        <ele>784.0</ele>
        <time>2021-10-12T09:55:48Z</time>
      </trkpt>
      <trkpt lat="42.2970750" lon="-5.9034090">
        <ele>784.0</ele>
        <time>2021-10-12T09:55:51Z</time>
      </trkpt>
      <trkpt lat="42.2970970" lon="-5.9033570">
        <ele>784.0</ele>
        <time>2021-10-12T09:55:52Z</time>
      </trkpt>
      <trkpt lat="42.2971330" lon="-5.9032580">
        <ele>784.0</ele>
        <time>2021-10-12T09:55:54Z</time>
      </trkpt>
      <trkpt lat="42.2971120" lon="-5.9031660">
        <ele>784.0</ele>
        <time>2021-10-12T09:55:56Z</time>
      </trkpt>
      <trkpt lat="42.2969750" lon="-5.9030450">
        <ele>784.0</ele>
        <time>2021-10-12T09:56:00Z</time>
      </trkpt>
      <trkpt lat="42.2968550" lon="-5.9029110">
        <ele>784.2</ele>
        <time>2021-10-12T09:56:04Z</time>
      </trkpt>
      <trkpt lat="42.2968270" lon="-5.9028780">
        <ele>784.4</ele>
        <time>2021-10-12T09:56:05Z</time>
      </trkpt>
      <trkpt lat="42.2967370" lon="-5.9027970">
        <ele>784.8</ele>
        <time>2021-10-12T09:56:08Z</time>
      </trkpt>
      <trkpt lat="42.2966070" lon="-5.9026590">
        <ele>784.8</ele>
        <time>2021-10-12T09:56:12Z</time>
      </trkpt>
      <trkpt lat="42.2963050" lon="-5.9023610">
        <ele>784.0</ele>
        <time>2021-10-12T09:56:20Z</time>
      </trkpt>
      <trkpt lat="42.2961300" lon="-5.9021790">
        <ele>783.0</ele>
        <time>2021-10-12T09:56:25Z</time>
      </trkpt>
      <trkpt lat="42.2961140" lon="-5.9021600">
        <ele>783.0</ele>
        <time>2021-10-12T09:56:26Z</time>
      </trkpt>
      <trkpt lat="42.2960670" lon="-5.9021210">
        <ele>782.0</ele>
        <time>2021-10-12T09:56:28Z</time>
      </trkpt>
      <trkpt lat="42.2959820" lon="-5.9020300">
        <ele>781.4</ele>
        <time>2021-10-12T09:56:31Z</time>
      </trkpt>
      <trkpt lat="42.2959510" lon="-5.9019950">
        <ele>781.0</ele>
        <time>2021-10-12T09:56:32Z</time>
      </trkpt>
      <trkpt lat="42.2957140" lon="-5.9017370">
        <ele>780.6</ele>
        <time>2021-10-12T09:56:39Z</time>
      </trkpt>
      <trkpt lat="42.2955850" lon="-5.9015980">
        <ele>780.6</ele>
        <time>2021-10-12T09:56:43Z</time>
      </trkpt>
      <trkpt lat="42.2955320" lon="-5.9015270">
        <ele>781.0</ele>
        <time>2021-10-12T09:56:45Z</time>
      </trkpt>
      <trkpt lat="42.2954920" lon="-5.9014070">
        <ele>781.4</ele>
        <time>2021-10-12T09:56:48Z</time>
      </trkpt>
      <trkpt lat="42.2954710" lon="-5.9012710">
        <ele>782.4</ele>
        <time>2021-10-12T09:56:52Z</time>
      </trkpt>
      <trkpt lat="42.2954550" lon="-5.9011710">
        <ele>783.2</ele>
        <time>2021-10-12T09:56:55Z</time>
      </trkpt>
      <trkpt lat="42.2954540" lon="-5.9011350">
        <ele>783.6</ele>
        <time>2021-10-12T09:56:56Z</time>
      </trkpt>
      <trkpt lat="42.2954470" lon="-5.9010030">
        <ele>784.6</ele>
        <time>2021-10-12T09:57:00Z</time>
      </trkpt>
      <trkpt lat="42.2954320" lon="-5.9008740">
        <ele>785.6</ele>
        <time>2021-10-12T09:57:04Z</time>
      </trkpt>
      <trkpt lat="42.2954300" lon="-5.9008440">
        <ele>785.8</ele>
        <time>2021-10-12T09:57:05Z</time>
      </trkpt>
      <trkpt lat="42.2954020" lon="-5.9006370">
        <ele>787.0</ele>
        <time>2021-10-12T09:57:12Z</time>
      </trkpt>
      <trkpt lat="42.2953970" lon="-5.9006100">
        <ele>787.0</ele>
        <time>2021-10-12T09:57:13Z</time>
      </trkpt>
      <trkpt lat="42.2953690" lon="-5.9004540">
        <ele>788.0</ele>
        <time>2021-10-12T09:57:19Z</time>
      </trkpt>
      <trkpt lat="42.2953620" lon="-5.9004250">
        <ele>788.0</ele>
        <time>2021-10-12T09:57:20Z</time>
      </trkpt>
      <trkpt lat="42.2953370" lon="-5.9003120">
        <ele>788.6</ele>
        <time>2021-10-12T09:57:24Z</time>
      </trkpt>
      <trkpt lat="42.2953220" lon="-5.9001800">
        <ele>789.0</ele>
        <time>2021-10-12T09:57:28Z</time>
      </trkpt>
      <trkpt lat="42.2953140" lon="-5.9001150">
        <ele>789.4</ele>
        <time>2021-10-12T09:57:30Z</time>
      </trkpt>
      <trkpt lat="42.2952820" lon="-5.8999490">
        <ele>789.8</ele>
        <time>2021-10-12T09:57:35Z</time>
      </trkpt>
      <trkpt lat="42.2952580" lon="-5.8997790">
        <ele>790.2</ele>
        <time>2021-10-12T09:57:40Z</time>
      </trkpt>
      <trkpt lat="42.2952470" lon="-5.8997070">
        <ele>790.4</ele>
        <time>2021-10-12T09:57:42Z</time>
      </trkpt>
      <trkpt lat="42.2952350" lon="-5.8996370">
        <ele>790.4</ele>
        <time>2021-10-12T09:57:44Z</time>
      </trkpt>
      <trkpt lat="42.2952230" lon="-5.8995670">
        <ele>790.4</ele>
        <time>2021-10-12T09:57:46Z</time>
      </trkpt>
      <trkpt lat="42.2952150" lon="-5.8994980">
        <ele>790.4</ele>
        <time>2021-10-12T09:57:48Z</time>
      </trkpt>
      <trkpt lat="42.2952100" lon="-5.8994660">
        <ele>790.4</ele>
        <time>2021-10-12T09:57:49Z</time>
      </trkpt>
      <trkpt lat="42.2951780" lon="-5.8992870">
        <ele>790.6</ele>
        <time>2021-10-12T09:57:55Z</time>
      </trkpt>
      <trkpt lat="42.2951580" lon="-5.8990110">
        <ele>790.8</ele>
        <time>2021-10-12T09:58:03Z</time>
      </trkpt>
      <trkpt lat="42.2952340" lon="-5.8989200">
        <ele>791.2</ele>
        <time>2021-10-12T09:58:07Z</time>
      </trkpt>
      <trkpt lat="42.2952510" lon="-5.8989010">
        <ele>791.2</ele>
        <time>2021-10-12T09:58:08Z</time>
      </trkpt>
      <trkpt lat="42.2952690" lon="-5.8988860">
        <ele>791.2</ele>
        <time>2021-10-12T09:58:09Z</time>
      </trkpt>
      <trkpt lat="42.2953350" lon="-5.8988250">
        <ele>791.8</ele>
        <time>2021-10-12T09:58:13Z</time>
      </trkpt>
      <trkpt lat="42.2953410" lon="-5.8988070">
        <ele>791.8</ele>
        <time>2021-10-12T09:58:14Z</time>
      </trkpt>
      <trkpt lat="42.2953530" lon="-5.8987680">
        <ele>792.2</ele>
        <time>2021-10-12T09:58:18Z</time>
      </trkpt>
      <trkpt lat="42.2953190" lon="-5.8986660">
        <ele>792.4</ele>
        <time>2021-10-12T09:58:40Z</time>
      </trkpt>
      <trkpt lat="42.2953110" lon="-5.8986360">
        <ele>792.4</ele>
        <time>2021-10-12T09:58:41Z</time>
      </trkpt>
      <trkpt lat="42.2952170" lon="-5.8984050">
        <ele>792.6</ele>
        <time>2021-10-12T09:58:48Z</time>
      </trkpt>
      <trkpt lat="42.2951040" lon="-5.8981600">
        <ele>792.6</ele>
        <time>2021-10-12T09:58:56Z</time>
      </trkpt>
      <trkpt lat="42.2950600" lon="-5.8980480">
        <ele>792.8</ele>
        <time>2021-10-12T09:58:59Z</time>
      </trkpt>
      <trkpt lat="42.2949990" lon="-5.8979260">
        <ele>792.8</ele>
        <time>2021-10-12T09:59:02Z</time>
      </trkpt>
      <trkpt lat="42.2949490" lon="-5.8977970">
        <ele>792.8</ele>
        <time>2021-10-12T09:59:05Z</time>
      </trkpt>
      <trkpt lat="42.2948460" lon="-5.8975400">
        <ele>792.8</ele>
        <time>2021-10-12T09:59:11Z</time>
      </trkpt>
      <trkpt lat="42.2947060" lon="-5.8972010">
        <ele>792.8</ele>
        <time>2021-10-12T09:59:19Z</time>
      </trkpt>
      <trkpt lat="42.2945880" lon="-5.8969290">
        <ele>792.4</ele>
        <time>2021-10-12T09:59:26Z</time>
      </trkpt>
      <trkpt lat="42.2945120" lon="-5.8967350">
        <ele>792.2</ele>
        <time>2021-10-12T09:59:32Z</time>
      </trkpt>
      <trkpt lat="42.2944030" lon="-5.8964690">
        <ele>791.6</ele>
        <time>2021-10-12T09:59:38Z</time>
      </trkpt>
      <trkpt lat="42.2943360" lon="-5.8963100">
        <ele>791.4</ele>
        <time>2021-10-12T09:59:41Z</time>
      </trkpt>
      <trkpt lat="42.2942670" lon="-5.8961270">
        <ele>791.0</ele>
        <time>2021-10-12T09:59:44Z</time>
      </trkpt>
      <trkpt lat="42.2941480" lon="-5.8957990">
        <ele>790.2</ele>
        <time>2021-10-12T09:59:49Z</time>
      </trkpt>
      <trkpt lat="42.2941090" lon="-5.8956720">
        <ele>789.8</ele>
        <time>2021-10-12T09:59:51Z</time>
      </trkpt>
      <trkpt lat="42.2940680" lon="-5.8955460">
        <ele>789.2</ele>
        <time>2021-10-12T09:59:53Z</time>
      </trkpt>
      <trkpt lat="42.2940080" lon="-5.8953700">
        <ele>787.8</ele>
        <time>2021-10-12T09:59:56Z</time>
      </trkpt>
      <trkpt lat="42.2939480" lon="-5.8951520">
        <ele>786.2</ele>
        <time>2021-10-12T10:00:00Z</time>
      </trkpt>
      <trkpt lat="42.2939430" lon="-5.8951000">
        <ele>786.0</ele>
        <time>2021-10-12T10:00:01Z</time>
      </trkpt>
      <trkpt lat="42.2939760" lon="-5.8950170">
        <ele>785.2</ele>
        <time>2021-10-12T10:00:03Z</time>
      </trkpt>
      <trkpt lat="42.2940940" lon="-5.8949520">
        <ele>784.2</ele>
        <time>2021-10-12T10:00:07Z</time>
      </trkpt>
      <trkpt lat="42.2941130" lon="-5.8949120">
        <ele>784.0</ele>
        <time>2021-10-12T10:00:08Z</time>
      </trkpt>
      <trkpt lat="42.2940980" lon="-5.8948230">
        <ele>783.6</ele>
        <time>2021-10-12T10:00:10Z</time>
      </trkpt>
      <trkpt lat="42.2940120" lon="-5.8947350">
        <ele>783.2</ele>
        <time>2021-10-12T10:00:13Z</time>
      </trkpt>
      <trkpt lat="42.2939210" lon="-5.8946560">
        <ele>783.0</ele>
        <time>2021-10-12T10:00:16Z</time>
      </trkpt>
      <trkpt lat="42.2936770" lon="-5.8944700">
        <ele>784.2</ele>
        <time>2021-10-12T10:00:24Z</time>
      </trkpt>
      <trkpt lat="42.2935230" lon="-5.8943490">
        <ele>785.0</ele>
        <time>2021-10-12T10:00:29Z</time>
      </trkpt>
      <trkpt lat="42.2934580" lon="-5.8942980">
        <ele>785.4</ele>
        <time>2021-10-12T10:00:31Z</time>
      </trkpt>
      <trkpt lat="42.2933010" lon="-5.8941870">
        <ele>785.8</ele>
        <time>2021-10-12T10:00:36Z</time>
      </trkpt>
      <trkpt lat="42.2931640" lon="-5.8940810">
        <ele>786.4</ele>
        <time>2021-10-12T10:00:40Z</time>
      </trkpt>
      <trkpt lat="42.2930320" lon="-5.8939820">
        <ele>786.6</ele>
        <time>2021-10-12T10:00:44Z</time>
      </trkpt>
      <trkpt lat="42.2926350" lon="-5.8936670">
        <ele>787.4</ele>
        <time>2021-10-12T10:00:55Z</time>
      </trkpt>
      <trkpt lat="42.2924210" lon="-5.8935060">
        <ele>787.6</ele>
        <time>2021-10-12T10:01:01Z</time>
      </trkpt>
      <trkpt lat="42.2923850" lon="-5.8934790">
        <ele>787.8</ele>
        <time>2021-10-12T10:01:02Z</time>
      </trkpt>
      <trkpt lat="42.2923140" lon="-5.8934410">
        <ele>788.0</ele>
        <time>2021-10-12T10:01:04Z</time>
      </trkpt>
      <trkpt lat="42.2920840" lon="-5.8932840">
        <ele>788.6</ele>
        <time>2021-10-12T10:01:11Z</time>
      </trkpt>
      <trkpt lat="42.2920530" lon="-5.8932660">
        <ele>788.6</ele>
        <time>2021-10-12T10:01:12Z</time>
      </trkpt>
      <trkpt lat="42.2919190" lon="-5.8931720">
        <ele>789.0</ele>
        <time>2021-10-12T10:01:16Z</time>
      </trkpt>
      <trkpt lat="42.2918120" lon="-5.8930960">
        <ele>789.2</ele>
        <time>2021-10-12T10:01:19Z</time>
      </trkpt>
      <trkpt lat="42.2917440" lon="-5.8930400">
        <ele>789.2</ele>
        <time>2021-10-12T10:01:21Z</time>
      </trkpt>
      <trkpt lat="42.2916820" lon="-5.8930120">
        <ele>789.4</ele>
        <time>2021-10-12T10:01:23Z</time>
      </trkpt>
      <trkpt lat="42.2916170" lon="-5.8929760">
        <ele>789.6</ele>
        <time>2021-10-12T10:01:25Z</time>
      </trkpt>
      <trkpt lat="42.2915840" lon="-5.8929560">
        <ele>789.8</ele>
        <time>2021-10-12T10:01:26Z</time>
      </trkpt>
      <trkpt lat="42.2915170" lon="-5.8929190">
        <ele>789.8</ele>
        <time>2021-10-12T10:01:28Z</time>
      </trkpt>
      <trkpt lat="42.2914510" lon="-5.8928730">
        <ele>790.0</ele>
        <time>2021-10-12T10:01:30Z</time>
      </trkpt>
      <trkpt lat="42.2911140" lon="-5.8926570">
        <ele>790.6</ele>
        <time>2021-10-12T10:01:40Z</time>
      </trkpt>
      <trkpt lat="42.2909800" lon="-5.8925610">
        <ele>790.8</ele>
        <time>2021-10-12T10:01:44Z</time>
      </trkpt>
      <trkpt lat="42.2908800" lon="-5.8924830">
        <ele>790.8</ele>
        <time>2021-10-12T10:01:47Z</time>
      </trkpt>
      <trkpt lat="42.2907840" lon="-5.8924130">
        <ele>790.8</ele>
        <time>2021-10-12T10:01:50Z</time>
      </trkpt>
      <trkpt lat="42.2907010" lon="-5.8923530">
        <ele>790.8</ele>
        <time>2021-10-12T10:01:53Z</time>
      </trkpt>
      <trkpt lat="42.2905960" lon="-5.8922900">
        <ele>790.8</ele>
        <time>2021-10-12T10:01:57Z</time>
      </trkpt>
      <trkpt lat="42.2905480" lon="-5.8922720">
        <ele>790.8</ele>
        <time>2021-10-12T10:01:59Z</time>
      </trkpt>
      <trkpt lat="42.2903850" lon="-5.8922640">
        <ele>791.0</ele>
        <time>2021-10-12T10:02:05Z</time>
      </trkpt>
      <trkpt lat="42.2901880" lon="-5.8922770">
        <ele>791.0</ele>
        <time>2021-10-12T10:02:12Z</time>
      </trkpt>
      <trkpt lat="42.2901330" lon="-5.8922750">
        <ele>790.8</ele>
        <time>2021-10-12T10:02:14Z</time>
      </trkpt>
      <trkpt lat="42.2900840" lon="-5.8922760">
        <ele>790.8</ele>
        <time>2021-10-12T10:02:16Z</time>
      </trkpt>
      <trkpt lat="42.2900140" lon="-5.8922560">
        <ele>790.8</ele>
        <time>2021-10-12T10:02:19Z</time>
      </trkpt>
      <trkpt lat="42.2899700" lon="-5.8922770">
        <ele>790.8</ele>
        <time>2021-10-12T10:02:21Z</time>
      </trkpt>
      <trkpt lat="42.2899010" lon="-5.8922930">
        <ele>790.8</ele>
        <time>2021-10-12T10:02:24Z</time>
      </trkpt>
      <trkpt lat="42.2898010" lon="-5.8922840">
        <ele>790.8</ele>
        <time>2021-10-12T10:02:29Z</time>
      </trkpt>
      <trkpt lat="42.2897890" lon="-5.8922710">
        <ele>790.8</ele>
        <time>2021-10-12T10:02:30Z</time>
      </trkpt>
      <trkpt lat="42.2897710" lon="-5.8922430">
        <ele>791.0</ele>
        <time>2021-10-12T10:02:32Z</time>
      </trkpt>
      <trkpt lat="42.2897460" lon="-5.8922230">
        <ele>791.0</ele>
        <time>2021-10-12T10:02:35Z</time>
      </trkpt>
      <trkpt lat="42.2897460" lon="-5.8922230">
        <ele>791.0</ele>
        <time>2021-10-12T10:02:37Z</time>
      </trkpt>
      <trkpt lat="42.2897030" lon="-5.8921900">
        <ele>790.8</ele>
        <time>2021-10-12T10:02:47Z</time>
      </trkpt>
      <trkpt lat="42.2896770" lon="-5.8921740">
        <ele>790.8</ele>
        <time>2021-10-12T10:02:48Z</time>
      </trkpt>
      <trkpt lat="42.2895000" lon="-5.8921520">
        <ele>790.8</ele>
        <time>2021-10-12T10:02:53Z</time>
      </trkpt>
      <trkpt lat="42.2892480" lon="-5.8921300">
        <ele>790.0</ele>
        <time>2021-10-12T10:02:59Z</time>
      </trkpt>
      <trkpt lat="42.2892080" lon="-5.8921160">
        <ele>789.8</ele>
        <time>2021-10-12T10:03:00Z</time>
      </trkpt>
      <trkpt lat="42.2890930" lon="-5.8920590">
        <ele>789.8</ele>
        <time>2021-10-12T10:03:03Z</time>
      </trkpt>
      <trkpt lat="42.2889920" lon="-5.8919790">
        <ele>789.8</ele>
        <time>2021-10-12T10:03:06Z</time>
      </trkpt>
      <trkpt lat="42.2887800" lon="-5.8917470">
        <ele>790.6</ele>
        <time>2021-10-12T10:03:14Z</time>
      </trkpt>
      <trkpt lat="42.2886580" lon="-5.8916190">
        <ele>792.0</ele>
        <time>2021-10-12T10:03:20Z</time>
      </trkpt>
      <trkpt lat="42.2886390" lon="-5.8915980">
        <ele>792.2</ele>
        <time>2021-10-12T10:03:21Z</time>
      </trkpt>
      <trkpt lat="42.2885740" lon="-5.8915490">
        <ele>793.0</ele>
        <time>2021-10-12T10:03:24Z</time>
      </trkpt>
      <trkpt lat="42.2885020" lon="-5.8915170">
        <ele>794.0</ele>
        <time>2021-10-12T10:03:27Z</time>
      </trkpt>
      <trkpt lat="42.2884570" lon="-5.8914960">
        <ele>794.2</ele>
        <time>2021-10-12T10:03:29Z</time>
      </trkpt>
      <trkpt lat="42.2883490" lon="-5.8914850">
        <ele>795.2</ele>
        <time>2021-10-12T10:03:34Z</time>
      </trkpt>
      <trkpt lat="42.2883280" lon="-5.8914840">
        <ele>795.4</ele>
        <time>2021-10-12T10:03:35Z</time>
      </trkpt>
      <trkpt lat="42.2882870" lon="-5.8914870">
        <ele>795.8</ele>
        <time>2021-10-12T10:03:37Z</time>
      </trkpt>
      <trkpt lat="42.2881540" lon="-5.8915070">
        <ele>796.2</ele>
        <time>2021-10-12T10:03:43Z</time>
      </trkpt>
      <trkpt lat="42.2879690" lon="-5.8915650">
        <ele>796.2</ele>
        <time>2021-10-12T10:03:50Z</time>
      </trkpt>
      <trkpt lat="42.2878800" lon="-5.8914960">
        <ele>796.2</ele>
        <time>2021-10-12T10:03:54Z</time>
      </trkpt>
      <trkpt lat="42.2878390" lon="-5.8913750">
        <ele>796.4</ele>
        <time>2021-10-12T10:03:58Z</time>
      </trkpt>
      <trkpt lat="42.2877700" lon="-5.8912260">
        <ele>796.6</ele>
        <time>2021-10-12T10:04:03Z</time>
      </trkpt>
      <trkpt lat="42.2877370" lon="-5.8911240">
        <ele>796.6</ele>
        <time>2021-10-12T10:04:06Z</time>
      </trkpt>
      <trkpt lat="42.2876170" lon="-5.8908560">
        <ele>797.4</ele>
        <time>2021-10-12T10:04:14Z</time>
      </trkpt>
      <trkpt lat="42.2876060" lon="-5.8908170">
        <ele>797.6</ele>
        <time>2021-10-12T10:04:15Z</time>
      </trkpt>
      <trkpt lat="42.2875450" lon="-5.8906370">
        <ele>797.6</ele>
        <time>2021-10-12T10:04:20Z</time>
      </trkpt>
      <trkpt lat="42.2874850" lon="-5.8905080">
        <ele>797.8</ele>
        <time>2021-10-12T10:04:24Z</time>
      </trkpt>
      <trkpt lat="42.2874340" lon="-5.8904170">
        <ele>797.8</ele>
        <time>2021-10-12T10:04:27Z</time>
      </trkpt>
      <trkpt lat="42.2873490" lon="-5.8902180">
        <ele>798.4</ele>
        <time>2021-10-12T10:04:33Z</time>
      </trkpt>
      <trkpt lat="42.2873310" lon="-5.8901860">
        <ele>798.4</ele>
        <time>2021-10-12T10:04:34Z</time>
      </trkpt>
      <trkpt lat="42.2872430" lon="-5.8900450">
        <ele>798.4</ele>
        <time>2021-10-12T10:04:39Z</time>
      </trkpt>
      <trkpt lat="42.2871410" lon="-5.8898830">
        <ele>798.4</ele>
        <time>2021-10-12T10:04:44Z</time>
      </trkpt>
      <trkpt lat="42.2871230" lon="-5.8898440">
        <ele>798.4</ele>
        <time>2021-10-12T10:04:45Z</time>
      </trkpt>
      <trkpt lat="42.2870130" lon="-5.8896110">
        <ele>798.4</ele>
        <time>2021-10-12T10:04:52Z</time>
      </trkpt>
      <trkpt lat="42.2869800" lon="-5.8894900">
        <ele>798.2</ele>
        <time>2021-10-12T10:04:58Z</time>
      </trkpt>
      <trkpt lat="42.2869810" lon="-5.8894880">
        <ele>798.2</ele>
        <time>2021-10-12T10:04:59Z</time>
      </trkpt>
      <trkpt lat="42.2869550" lon="-5.8894430">
        <ele>797.4</ele>
        <time>2021-10-12T10:08:03Z</time>
      </trkpt>
      <trkpt lat="42.2869430" lon="-5.8894090">
        <ele>797.4</ele>
        <time>2021-10-12T10:08:04Z</time>
      </trkpt>
      <trkpt lat="42.2869300" lon="-5.8893750">
        <ele>797.4</ele>
        <time>2021-10-12T10:08:05Z</time>
      </trkpt>
      <trkpt lat="42.2868350" lon="-5.8891450">
        <ele>797.2</ele>
        <time>2021-10-12T10:08:10Z</time>
      </trkpt>
      <trkpt lat="42.2867960" lon="-5.8890510">
        <ele>797.2</ele>
        <time>2021-10-12T10:08:13Z</time>
      </trkpt>
      <trkpt lat="42.2867350" lon="-5.8889230">
        <ele>796.8</ele>
        <time>2021-10-12T10:08:15Z</time>
      </trkpt>
      <trkpt lat="42.2867130" lon="-5.8888780">
        <ele>796.6</ele>
        <time>2021-10-12T10:08:17Z</time>
      </trkpt>
      <trkpt lat="42.2865660" lon="-5.8885420">
        <ele>796.4</ele>
        <time>2021-10-12T10:08:22Z</time>
      </trkpt>
      <trkpt lat="42.2863900" lon="-5.8881950">
        <ele>795.8</ele>
        <time>2021-10-12T10:08:28Z</time>
      </trkpt>
      <trkpt lat="42.2863660" lon="-5.8881330">
        <ele>795.6</ele>
        <time>2021-10-12T10:08:29Z</time>
      </trkpt>
      <trkpt lat="42.2862090" lon="-5.8877770">
        <ele>794.8</ele>
        <time>2021-10-12T10:08:35Z</time>
      </trkpt>
      <trkpt lat="42.2860870" lon="-5.8875240">
        <ele>794.2</ele>
        <time>2021-10-12T10:08:39Z</time>
      </trkpt>
      <trkpt lat="42.2860590" lon="-5.8874540">
        <ele>794.0</ele>
        <time>2021-10-12T10:08:40Z</time>
      </trkpt>
      <trkpt lat="42.2860590" lon="-5.8874540">
        <ele>793.8</ele>
        <time>2021-10-12T10:08:41Z</time>
      </trkpt>
      <trkpt lat="42.2859810" lon="-5.8871670">
        <ele>793.4</ele>
        <time>2021-10-12T10:08:44Z</time>
      </trkpt>
      <trkpt lat="42.2859700" lon="-5.8870970">
        <ele>793.4</ele>
        <time>2021-10-12T10:08:45Z</time>
      </trkpt>
      <trkpt lat="42.2859710" lon="-5.8868420">
        <ele>793.0</ele>
        <time>2021-10-12T10:08:49Z</time>
      </trkpt>
      <trkpt lat="42.2859600" lon="-5.8867240">
        <ele>792.8</ele>
        <time>2021-10-12T10:08:51Z</time>
      </trkpt>
      <trkpt lat="42.2859050" lon="-5.8864610">
        <ele>792.4</ele>
        <time>2021-10-12T10:08:55Z</time>
      </trkpt>
      <trkpt lat="42.2858250" lon="-5.8861120">
        <ele>791.8</ele>
        <time>2021-10-12T10:09:00Z</time>
      </trkpt>
      <trkpt lat="42.2858060" lon="-5.8860390">
        <ele>791.6</ele>
        <time>2021-10-12T10:09:01Z</time>
      </trkpt>
      <trkpt lat="42.2857840" lon="-5.8859660">
        <ele>791.6</ele>
        <time>2021-10-12T10:09:02Z</time>
      </trkpt>
      <trkpt lat="42.2856740" lon="-5.8856410">
        <ele>790.8</ele>
        <time>2021-10-12T10:09:06Z</time>
      </trkpt>
      <trkpt lat="42.2856430" lon="-5.8855540">
        <ele>790.4</ele>
        <time>2021-10-12T10:09:07Z</time>
      </trkpt>
      <trkpt lat="42.2855860" lon="-5.8853770">
        <ele>789.8</ele>
        <time>2021-10-12T10:09:09Z</time>
      </trkpt>
      <trkpt lat="42.2855630" lon="-5.8852150">
        <ele>789.4</ele>
        <time>2021-10-12T10:09:11Z</time>
      </trkpt>
      <trkpt lat="42.2855550" lon="-5.8851530">
        <ele>789.2</ele>
        <time>2021-10-12T10:09:12Z</time>
      </trkpt>
      <trkpt lat="42.2855430" lon="-5.8851030">
        <ele>789.0</ele>
        <time>2021-10-12T10:09:13Z</time>
      </trkpt>
      <trkpt lat="42.2855280" lon="-5.8850570">
        <ele>788.6</ele>
        <time>2021-10-12T10:09:14Z</time>
      </trkpt>
      <trkpt lat="42.2855180" lon="-5.8850140">
        <ele>788.0</ele>
        <time>2021-10-12T10:09:15Z</time>
      </trkpt>
      <trkpt lat="42.2855080" lon="-5.8849160">
        <ele>787.2</ele>
        <time>2021-10-12T10:09:18Z</time>
      </trkpt>
      <trkpt lat="42.2854650" lon="-5.8848750">
        <ele>787.0</ele>
        <time>2021-10-12T10:09:20Z</time>
      </trkpt>
      <trkpt lat="42.2854340" lon="-5.8848570">
        <ele>786.8</ele>
        <time>2021-10-12T10:09:22Z</time>
      </trkpt>
      <trkpt lat="42.2852500" lon="-5.8847740">
        <ele>786.8</ele>
        <time>2021-10-12T10:09:26Z</time>
      </trkpt>
      <trkpt lat="42.2852140" lon="-5.8847500">
        <ele>787.0</ele>
        <time>2021-10-12T10:09:28Z</time>
      </trkpt>
      <trkpt lat="42.2849310" lon="-5.8845320">
        <ele>787.6</ele>
        <time>2021-10-12T10:09:35Z</time>
      </trkpt>
      <trkpt lat="42.2847440" lon="-5.8843680">
        <ele>788.0</ele>
        <time>2021-10-12T10:09:40Z</time>
      </trkpt>
      <trkpt lat="42.2846320" lon="-5.8842660">
        <ele>788.2</ele>
        <time>2021-10-12T10:09:43Z</time>
      </trkpt>
      <trkpt lat="42.2842670" lon="-5.8838860">
        <ele>788.6</ele>
        <time>2021-10-12T10:09:52Z</time>
      </trkpt>
      <trkpt lat="42.2840090" lon="-5.8836190">
        <ele>788.4</ele>
        <time>2021-10-12T10:09:58Z</time>
      </trkpt>
      <trkpt lat="42.2836860" lon="-5.8833190">
        <ele>787.6</ele>
        <time>2021-10-12T10:10:05Z</time>
      </trkpt>
      <trkpt lat="42.2836390" lon="-5.8832750">
        <ele>787.6</ele>
        <time>2021-10-12T10:10:06Z</time>
      </trkpt>
      <trkpt lat="42.2831850" lon="-5.8828200">
        <ele>787.8</ele>
        <time>2021-10-12T10:10:16Z</time>
      </trkpt>
      <trkpt lat="42.2831380" lon="-5.8827750">
        <ele>787.8</ele>
        <time>2021-10-12T10:10:17Z</time>
      </trkpt>
      <trkpt lat="42.2826670" lon="-5.8823500">
        <ele>787.8</ele>
        <time>2021-10-12T10:10:27Z</time>
      </trkpt>
      <trkpt lat="42.2825640" lon="-5.8822700">
        <ele>787.8</ele>
        <time>2021-10-12T10:10:29Z</time>
      </trkpt>
      <trkpt lat="42.2822240" lon="-5.8819440">
        <ele>787.2</ele>
        <time>2021-10-12T10:10:36Z</time>
      </trkpt>
      <trkpt lat="42.2820420" lon="-5.8817540">
        <ele>787.2</ele>
        <time>2021-10-12T10:10:40Z</time>
      </trkpt>
      <trkpt lat="42.2819030" lon="-5.8816300">
        <ele>787.4</ele>
        <time>2021-10-12T10:10:43Z</time>
      </trkpt>
      <trkpt lat="42.2814050" lon="-5.8812180">
        <ele>787.6</ele>
        <time>2021-10-12T10:10:53Z</time>
      </trkpt>
      <trkpt lat="42.2809720" lon="-5.8809300">
        <ele>787.4</ele>
        <time>2021-10-12T10:11:01Z</time>
      </trkpt>
      <trkpt lat="42.2808690" lon="-5.8808420">
        <ele>787.4</ele>
        <time>2021-10-12T10:11:03Z</time>
      </trkpt>
      <trkpt lat="42.2804340" lon="-5.8804630">
        <ele>787.6</ele>
        <time>2021-10-12T10:11:12Z</time>
      </trkpt>
      <trkpt lat="42.2803640" lon="-5.8803710">
        <ele>787.6</ele>
        <time>2021-10-12T10:11:14Z</time>
      </trkpt>
      <trkpt lat="42.2802760" lon="-5.8802070">
        <ele>787.6</ele>
        <time>2021-10-12T10:11:17Z</time>
      </trkpt>
      <trkpt lat="42.2802490" lon="-5.8801470">
        <ele>787.6</ele>
        <time>2021-10-12T10:11:18Z</time>
      </trkpt>
      <trkpt lat="42.2800880" lon="-5.8798170">
        <ele>787.8</ele>
        <time>2021-10-12T10:11:24Z</time>
      </trkpt>
      <trkpt lat="42.2800220" lon="-5.8797410">
        <ele>787.8</ele>
        <time>2021-10-12T10:11:26Z</time>
      </trkpt>
      <trkpt lat="42.2799460" lon="-5.8797040">
        <ele>787.8</ele>
        <time>2021-10-12T10:11:28Z</time>
      </trkpt>
      <trkpt lat="42.2798760" lon="-5.8796950">
        <ele>787.8</ele>
        <time>2021-10-12T10:11:30Z</time>
      </trkpt>
      <trkpt lat="42.2798450" lon="-5.8796860">
        <ele>788.2</ele>
        <time>2021-10-12T10:11:34Z</time>
      </trkpt>
      <trkpt lat="42.2793040" lon="-5.8795100">
        <ele>788.4</ele>
        <time>2021-10-12T10:11:43Z</time>
      </trkpt>
      <trkpt lat="42.2792590" lon="-5.8794970">
        <ele>788.6</ele>
        <time>2021-10-12T10:11:44Z</time>
      </trkpt>
      <trkpt lat="42.2791690" lon="-5.8794520">
        <ele>788.6</ele>
        <time>2021-10-12T10:11:46Z</time>
      </trkpt>
      <trkpt lat="42.2790750" lon="-5.8793940">
        <ele>788.6</ele>
        <time>2021-10-12T10:11:48Z</time>
      </trkpt>
      <trkpt lat="42.2790310" lon="-5.8793610">
        <ele>788.6</ele>
        <time>2021-10-12T10:11:49Z</time>
      </trkpt>
      <trkpt lat="42.2789460" lon="-5.8792970">
        <ele>788.8</ele>
        <time>2021-10-12T10:11:51Z</time>
      </trkpt>
      <trkpt lat="42.2785790" lon="-5.8790320">
        <ele>789.4</ele>
        <time>2021-10-12T10:12:00Z</time>
      </trkpt>
      <trkpt lat="42.2785410" lon="-5.8790040">
        <ele>789.4</ele>
        <time>2021-10-12T10:12:01Z</time>
      </trkpt>
      <trkpt lat="42.2781800" lon="-5.8787780">
        <ele>790.4</ele>
        <time>2021-10-12T10:12:10Z</time>
      </trkpt>
      <trkpt lat="42.2781410" lon="-5.8787490">
        <ele>790.4</ele>
        <time>2021-10-12T10:12:11Z</time>
      </trkpt>
      <trkpt lat="42.2779400" lon="-5.8786060">
        <ele>790.4</ele>
        <time>2021-10-12T10:12:16Z</time>
      </trkpt>
      <trkpt lat="42.2776700" lon="-5.8783860">
        <ele>790.2</ele>
        <time>2021-10-12T10:12:23Z</time>
      </trkpt>
      <trkpt lat="42.2776330" lon="-5.8783470">
        <ele>790.2</ele>
        <time>2021-10-12T10:12:24Z</time>
      </trkpt>
      <trkpt lat="42.2772320" lon="-5.8779400">
        <ele>790.6</ele>
        <time>2021-10-12T10:12:35Z</time>
      </trkpt>
      <trkpt lat="42.2770640" lon="-5.8777620">
        <ele>790.6</ele>
        <time>2021-10-12T10:12:40Z</time>
      </trkpt>
      <trkpt lat="42.2770320" lon="-5.8777310">
        <ele>790.8</ele>
        <time>2021-10-12T10:12:41Z</time>
      </trkpt>
      <trkpt lat="42.2769020" lon="-5.8776170">
        <ele>791.2</ele>
        <time>2021-10-12T10:12:45Z</time>
      </trkpt>
      <trkpt lat="42.2768310" lon="-5.8775610">
        <ele>791.4</ele>
        <time>2021-10-12T10:12:47Z</time>
      </trkpt>
      <trkpt lat="42.2767130" lon="-5.8774970">
        <ele>791.6</ele>
        <time>2021-10-12T10:12:50Z</time>
      </trkpt>
      <trkpt lat="42.2766730" lon="-5.8774790">
        <ele>791.8</ele>
        <time>2021-10-12T10:12:51Z</time>
      </trkpt>
      <trkpt lat="42.2764900" lon="-5.8774150">
        <ele>792.0</ele>
        <time>2021-10-12T10:12:56Z</time>
      </trkpt>
      <trkpt lat="42.2763990" lon="-5.8774120">
        <ele>792.2</ele>
        <time>2021-10-12T10:12:59Z</time>
      </trkpt>
      <trkpt lat="42.2763370" lon="-5.8774130">
        <ele>792.4</ele>
        <time>2021-10-12T10:13:01Z</time>
      </trkpt>
      <trkpt lat="42.2762480" lon="-5.8773430">
        <ele>792.8</ele>
        <time>2021-10-12T10:13:04Z</time>
      </trkpt>
      <trkpt lat="42.2761960" lon="-5.8772680">
        <ele>793.0</ele>
        <time>2021-10-12T10:13:06Z</time>
      </trkpt>
      <trkpt lat="42.2760380" lon="-5.8770620">
        <ele>792.6</ele>
        <time>2021-10-12T10:13:12Z</time>
      </trkpt>
      <trkpt lat="42.2757760" lon="-5.8768420">
        <ele>792.2</ele>
        <time>2021-10-12T10:13:20Z</time>
      </trkpt>
      <trkpt lat="42.2755140" lon="-5.8766940">
        <ele>792.4</ele>
        <time>2021-10-12T10:13:28Z</time>
      </trkpt>
      <trkpt lat="42.2750930" lon="-5.8764590">
        <ele>792.6</ele>
        <time>2021-10-12T10:13:40Z</time>
      </trkpt>
      <trkpt lat="42.2748510" lon="-5.8763520">
        <ele>792.6</ele>
        <time>2021-10-12T10:13:46Z</time>
      </trkpt>
      <trkpt lat="42.2746800" lon="-5.8762850">
        <ele>792.8</ele>
        <time>2021-10-12T10:13:50Z</time>
      </trkpt>
      <trkpt lat="42.2745510" lon="-5.8762310">
        <ele>792.8</ele>
        <time>2021-10-12T10:13:53Z</time>
      </trkpt>
      <trkpt lat="42.2743010" lon="-5.8760880">
        <ele>792.6</ele>
        <time>2021-10-12T10:13:59Z</time>
      </trkpt>
      <trkpt lat="42.2740780" lon="-5.8759020">
        <ele>792.8</ele>
        <time>2021-10-12T10:14:05Z</time>
      </trkpt>
      <trkpt lat="42.2740000" lon="-5.8758490">
        <ele>793.0</ele>
        <time>2021-10-12T10:14:07Z</time>
      </trkpt>
      <trkpt lat="42.2735300" lon="-5.8755390">
        <ele>793.0</ele>
        <time>2021-10-12T10:14:19Z</time>
      </trkpt>
      <trkpt lat="42.2734610" lon="-5.8754780">
        <ele>793.0</ele>
        <time>2021-10-12T10:14:21Z</time>
      </trkpt>
      <trkpt lat="42.2732430" lon="-5.8753240">
        <ele>793.4</ele>
        <time>2021-10-12T10:14:27Z</time>
      </trkpt>
      <trkpt lat="42.2731680" lon="-5.8752800">
        <ele>793.8</ele>
        <time>2021-10-12T10:14:29Z</time>
      </trkpt>
      <trkpt lat="42.2729420" lon="-5.8751550">
        <ele>793.8</ele>
        <time>2021-10-12T10:14:35Z</time>
      </trkpt>
      <trkpt lat="42.2726830" lon="-5.8750230">
        <ele>793.8</ele>
        <time>2021-10-12T10:14:42Z</time>
      </trkpt>
      <trkpt lat="42.2725680" lon="-5.8749750">
        <ele>794.4</ele>
        <time>2021-10-12T10:14:45Z</time>
      </trkpt>
      <trkpt lat="42.2724140" lon="-5.8749170">
        <ele>794.8</ele>
        <time>2021-10-12T10:14:49Z</time>
      </trkpt>
      <trkpt lat="42.2722690" lon="-5.8748600">
        <ele>795.0</ele>
        <time>2021-10-12T10:14:53Z</time>
      </trkpt>
      <trkpt lat="42.2719900" lon="-5.8747340">
        <ele>795.0</ele>
        <time>2021-10-12T10:15:01Z</time>
      </trkpt>
      <trkpt lat="42.2716810" lon="-5.8745890">
        <ele>795.8</ele>
        <time>2021-10-12T10:15:10Z</time>
      </trkpt>
      <trkpt lat="42.2714200" lon="-5.8745060">
        <ele>795.6</ele>
        <time>2021-10-12T10:15:17Z</time>
      </trkpt>
      <trkpt lat="42.2713460" lon="-5.8744870">
        <ele>795.6</ele>
        <time>2021-10-12T10:15:19Z</time>
      </trkpt>
      <trkpt lat="42.2710190" lon="-5.8744080">
        <ele>795.6</ele>
        <time>2021-10-12T10:15:27Z</time>
      </trkpt>
      <trkpt lat="42.2706270" lon="-5.8743250">
        <ele>795.2</ele>
        <time>2021-10-12T10:15:36Z</time>
      </trkpt>
      <trkpt lat="42.2705800" lon="-5.8743150">
        <ele>795.2</ele>
        <time>2021-10-12T10:15:37Z</time>
      </trkpt>
      <trkpt lat="42.2704940" lon="-5.8742840">
        <ele>795.2</ele>
        <time>2021-10-12T10:15:39Z</time>
      </trkpt>
      <trkpt lat="42.2703530" lon="-5.8742140">
        <ele>795.0</ele>
        <time>2021-10-12T10:15:42Z</time>
      </trkpt>
      <trkpt lat="42.2700700" lon="-5.8740240">
        <ele>794.4</ele>
        <time>2021-10-12T10:15:49Z</time>
      </trkpt>
      <trkpt lat="42.2697210" lon="-5.8737820">
        <ele>793.8</ele>
        <time>2021-10-12T10:15:57Z</time>
      </trkpt>
      <trkpt lat="42.2696770" lon="-5.8737530">
        <ele>793.8</ele>
        <time>2021-10-12T10:15:58Z</time>
      </trkpt>
      <trkpt lat="42.2696250" lon="-5.8737180">
        <ele>793.8</ele>
        <time>2021-10-12T10:15:59Z</time>
      </trkpt>
      <trkpt lat="42.2693220" lon="-5.8735080">
        <ele>793.2</ele>
        <time>2021-10-12T10:16:06Z</time>
      </trkpt>
      <trkpt lat="42.2689590" lon="-5.8732690">
        <ele>793.0</ele>
        <time>2021-10-12T10:16:14Z</time>
      </trkpt>
      <trkpt lat="42.2689130" lon="-5.8732370">
        <ele>792.6</ele>
        <time>2021-10-12T10:16:15Z</time>
      </trkpt>
      <trkpt lat="42.2687160" lon="-5.8731000">
        <ele>792.6</ele>
        <time>2021-10-12T10:16:19Z</time>
      </trkpt>
      <trkpt lat="42.2684100" lon="-5.8728880">
        <ele>791.8</ele>
        <time>2021-10-12T10:16:25Z</time>
      </trkpt>
      <trkpt lat="42.2680770" lon="-5.8726650">
        <ele>791.0</ele>
        <time>2021-10-12T10:16:31Z</time>
      </trkpt>
      <trkpt lat="42.2679540" lon="-5.8725810">
        <ele>790.8</ele>
        <time>2021-10-12T10:16:33Z</time>
      </trkpt>
      <trkpt lat="42.2678980" lon="-5.8725440">
        <ele>790.6</ele>
        <time>2021-10-12T10:16:34Z</time>
      </trkpt>
      <trkpt lat="42.2676160" lon="-5.8723620">
        <ele>789.8</ele>
        <time>2021-10-12T10:16:39Z</time>
      </trkpt>
      <trkpt lat="42.2674010" lon="-5.8722090">
        <ele>789.2</ele>
        <time>2021-10-12T10:16:43Z</time>
      </trkpt>
      <trkpt lat="42.2670480" lon="-5.8719700">
        <ele>788.6</ele>
        <time>2021-10-12T10:16:50Z</time>
      </trkpt>
      <trkpt lat="42.2669400" lon="-5.8718990">
        <ele>788.4</ele>
        <time>2021-10-12T10:16:52Z</time>
      </trkpt>
      <trkpt lat="42.2665190" lon="-5.8716180">
        <ele>787.8</ele>
        <time>2021-10-12T10:17:01Z</time>
      </trkpt>
      <trkpt lat="42.2663650" lon="-5.8715230">
        <ele>787.6</ele>
        <time>2021-10-12T10:17:05Z</time>
      </trkpt>
      <trkpt lat="42.2663290" lon="-5.8715000">
        <ele>787.4</ele>
        <time>2021-10-12T10:17:06Z</time>
      </trkpt>
      <trkpt lat="42.2659960" lon="-5.8712740">
        <ele>787.2</ele>
        <time>2021-10-12T10:17:14Z</time>
      </trkpt>
      <trkpt lat="42.2656330" lon="-5.8710290">
        <ele>786.8</ele>
        <time>2021-10-12T10:17:22Z</time>
      </trkpt>
      <trkpt lat="42.2653950" lon="-5.8708660">
        <ele>786.6</ele>
        <time>2021-10-12T10:17:28Z</time>
      </trkpt>
      <trkpt lat="42.2653410" lon="-5.8708280">
        <ele>786.6</ele>
        <time>2021-10-12T10:17:29Z</time>
      </trkpt>
      <trkpt lat="42.2648990" lon="-5.8704990">
        <ele>786.6</ele>
        <time>2021-10-12T10:17:39Z</time>
      </trkpt>
      <trkpt lat="42.2645220" lon="-5.8701740">
        <ele>786.4</ele>
        <time>2021-10-12T10:17:48Z</time>
      </trkpt>
      <trkpt lat="42.2640990" lon="-5.8698010">
        <ele>786.2</ele>
        <time>2021-10-12T10:17:58Z</time>
      </trkpt>
      <trkpt lat="42.2636770" lon="-5.8694350">
        <ele>786.0</ele>
        <time>2021-10-12T10:18:08Z</time>
      </trkpt>
      <trkpt lat="42.2634670" lon="-5.8692450">
        <ele>786.0</ele>
        <time>2021-10-12T10:18:13Z</time>
      </trkpt>
      <trkpt lat="42.2633440" lon="-5.8691340">
        <ele>786.0</ele>
        <time>2021-10-12T10:18:16Z</time>
      </trkpt>
      <trkpt lat="42.2630970" lon="-5.8689210">
        <ele>786.0</ele>
        <time>2021-10-12T10:18:22Z</time>
      </trkpt>
      <trkpt lat="42.2630570" lon="-5.8688840">
        <ele>786.0</ele>
        <time>2021-10-12T10:18:23Z</time>
      </trkpt>
      <trkpt lat="42.2628520" lon="-5.8687050">
        <ele>786.0</ele>
        <time>2021-10-12T10:18:28Z</time>
      </trkpt>
      <trkpt lat="42.2626800" lon="-5.8685760">
        <ele>785.8</ele>
        <time>2021-10-12T10:18:32Z</time>
      </trkpt>
      <trkpt lat="42.2624560" lon="-5.8684450">
        <ele>785.8</ele>
        <time>2021-10-12T10:18:37Z</time>
      </trkpt>
      <trkpt lat="42.2622750" lon="-5.8683390">
        <ele>785.8</ele>
        <time>2021-10-12T10:18:41Z</time>
      </trkpt>
      <trkpt lat="42.2618760" lon="-5.8681010">
        <ele>785.6</ele>
        <time>2021-10-12T10:18:50Z</time>
      </trkpt>
      <trkpt lat="42.2615270" lon="-5.8679220">
        <ele>785.4</ele>
        <time>2021-10-12T10:18:58Z</time>
      </trkpt>
      <trkpt lat="42.2614660" lon="-5.8679240">
        <ele>785.4</ele>
        <time>2021-10-12T10:19:00Z</time>
      </trkpt>
      <trkpt lat="42.2614130" lon="-5.8679330">
        <ele>785.4</ele>
        <time>2021-10-12T10:19:04Z</time>
      </trkpt>
      <trkpt lat="42.2614130" lon="-5.8679330">
        <ele>785.4</ele>
        <time>2021-10-12T10:19:05Z</time>
      </trkpt>
      <trkpt lat="42.2613730" lon="-5.8679090">
        <ele>785.2</ele>
        <time>2021-10-12T10:20:05Z</time>
      </trkpt>
      <trkpt lat="42.2613480" lon="-5.8678960">
        <ele>785.2</ele>
        <time>2021-10-12T10:20:06Z</time>
      </trkpt>
      <trkpt lat="42.2613180" lon="-5.8678840">
        <ele>785.2</ele>
        <time>2021-10-12T10:20:07Z</time>
      </trkpt>
      <trkpt lat="42.2611130" lon="-5.8678050">
        <ele>785.2</ele>
        <time>2021-10-12T10:20:12Z</time>
      </trkpt>
      <trkpt lat="42.2609290" lon="-5.8677480">
        <ele>785.2</ele>
        <time>2021-10-12T10:20:16Z</time>
      </trkpt>
      <trkpt lat="42.2607840" lon="-5.8677040">
        <ele>785.2</ele>
        <time>2021-10-12T10:20:19Z</time>
      </trkpt>
      <trkpt lat="42.2602730" lon="-5.8675420">
        <ele>785.2</ele>
        <time>2021-10-12T10:20:29Z</time>
      </trkpt>
      <trkpt lat="42.2599980" lon="-5.8674340">
        <ele>785.0</ele>
        <time>2021-10-12T10:20:34Z</time>
      </trkpt>
      <trkpt lat="42.2598870" lon="-5.8673970">
        <ele>785.0</ele>
        <time>2021-10-12T10:20:36Z</time>
      </trkpt>
      <trkpt lat="42.2596640" lon="-5.8673220">
        <ele>784.8</ele>
        <time>2021-10-12T10:20:40Z</time>
      </trkpt>
      <trkpt lat="42.2593180" lon="-5.8672120">
        <ele>784.8</ele>
        <time>2021-10-12T10:20:46Z</time>
      </trkpt>
      <trkpt lat="42.2588220" lon="-5.8671180">
        <ele>784.4</ele>
        <time>2021-10-12T10:20:54Z</time>
      </trkpt>
      <trkpt lat="42.2587560" lon="-5.8671080">
        <ele>784.4</ele>
        <time>2021-10-12T10:20:55Z</time>
      </trkpt>
      <trkpt lat="42.2585600" lon="-5.8670850">
        <ele>784.2</ele>
        <time>2021-10-12T10:20:58Z</time>
      </trkpt>
      <trkpt lat="42.2582940" lon="-5.8670500">
        <ele>783.8</ele>
        <time>2021-10-12T10:21:02Z</time>
      </trkpt>
      <trkpt lat="42.2581710" lon="-5.8670310">
        <ele>783.6</ele>
        <time>2021-10-12T10:21:04Z</time>
      </trkpt>
      <trkpt lat="42.2579410" lon="-5.8670080">
        <ele>782.8</ele>
        <time>2021-10-12T10:21:07Z</time>
      </trkpt>
      <trkpt lat="42.2577930" lon="-5.8669860">
        <ele>782.4</ele>
        <time>2021-10-12T10:21:09Z</time>
      </trkpt>
      <trkpt lat="42.2576430" lon="-5.8669630">
        <ele>781.8</ele>
        <time>2021-10-12T10:21:11Z</time>
      </trkpt>
      <trkpt lat="42.2575830" lon="-5.8669550">
        <ele>781.6</ele>
        <time>2021-10-12T10:21:12Z</time>
      </trkpt>
      <trkpt lat="42.2572850" lon="-5.8669230">
        <ele>780.4</ele>
        <time>2021-10-12T10:21:16Z</time>
      </trkpt>
      <trkpt lat="42.2570600" lon="-5.8668810">
        <ele>779.8</ele>
        <time>2021-10-12T10:21:19Z</time>
      </trkpt>
      <trkpt lat="42.2567930" lon="-5.8667950">
        <ele>779.4</ele>
        <time>2021-10-12T10:21:23Z</time>
      </trkpt>
      <trkpt lat="42.2567330" lon="-5.8667690">
        <ele>779.0</ele>
        <time>2021-10-12T10:21:24Z</time>
      </trkpt>
      <trkpt lat="42.2563790" lon="-5.8666000">
        <ele>778.2</ele>
        <time>2021-10-12T10:21:30Z</time>
      </trkpt>
      <trkpt lat="42.2563190" lon="-5.8665730">
        <ele>778.2</ele>
        <time>2021-10-12T10:21:31Z</time>
      </trkpt>
      <trkpt lat="42.2558870" lon="-5.8663870">
        <ele>777.8</ele>
        <time>2021-10-12T10:21:38Z</time>
      </trkpt>
      <trkpt lat="42.2556400" lon="-5.8662770">
        <ele>777.4</ele>
        <time>2021-10-12T10:21:42Z</time>
      </trkpt>
      <trkpt lat="42.2555170" lon="-5.8662170">
        <ele>777.2</ele>
        <time>2021-10-12T10:21:44Z</time>
      </trkpt>
      <trkpt lat="42.2552710" lon="-5.8660980">
        <ele>777.2</ele>
        <time>2021-10-12T10:21:48Z</time>
      </trkpt>
      <trkpt lat="42.2551540" lon="-5.8660400">
        <ele>777.2</ele>
        <time>2021-10-12T10:21:50Z</time>
      </trkpt>
      <trkpt lat="42.2547950" lon="-5.8658510">
        <ele>777.0</ele>
        <time>2021-10-12T10:21:57Z</time>
      </trkpt>
      <trkpt lat="42.2544450" lon="-5.8656870">
        <ele>777.0</ele>
        <time>2021-10-12T10:22:04Z</time>
      </trkpt>
      <trkpt lat="42.2541460" lon="-5.8655590">
        <ele>776.8</ele>
        <time>2021-10-12T10:22:10Z</time>
      </trkpt>
      <trkpt lat="42.2540600" lon="-5.8655150">
        <ele>776.8</ele>
        <time>2021-10-12T10:22:12Z</time>
      </trkpt>
      <trkpt lat="42.2539180" lon="-5.8654390">
        <ele>776.8</ele>
        <time>2021-10-12T10:22:15Z</time>
      </trkpt>
      <trkpt lat="42.2536950" lon="-5.8652620">
        <ele>776.6</ele>
        <time>2021-10-12T10:22:20Z</time>
      </trkpt>
      <trkpt lat="42.2533760" lon="-5.8650570">
        <ele>776.4</ele>
        <time>2021-10-12T10:22:27Z</time>
      </trkpt>
      <trkpt lat="42.2532330" lon="-5.8649900">
        <ele>776.4</ele>
        <time>2021-10-12T10:22:30Z</time>
      </trkpt>
      <trkpt lat="42.2531360" lon="-5.8649130">
        <ele>776.4</ele>
        <time>2021-10-12T10:22:32Z</time>
      </trkpt>
      <trkpt lat="42.2530930" lon="-5.8648700">
        <ele>776.4</ele>
        <time>2021-10-12T10:22:33Z</time>
      </trkpt>
      <trkpt lat="42.2527390" lon="-5.8645830">
        <ele>776.6</ele>
        <time>2021-10-12T10:22:41Z</time>
      </trkpt>
      <trkpt lat="42.2524450" lon="-5.8643490">
        <ele>776.4</ele>
        <time>2021-10-12T10:22:47Z</time>
      </trkpt>
      <trkpt lat="42.2524050" lon="-5.8643260">
        <ele>776.4</ele>
        <time>2021-10-12T10:22:48Z</time>
      </trkpt>
      <trkpt lat="42.2522050" lon="-5.8642180">
        <ele>776.4</ele>
        <time>2021-10-12T10:22:52Z</time>
      </trkpt>
      <trkpt lat="42.2520600" lon="-5.8641230">
        <ele>776.2</ele>
        <time>2021-10-12T10:22:55Z</time>
      </trkpt>
      <trkpt lat="42.2519670" lon="-5.8640580">
        <ele>776.2</ele>
        <time>2021-10-12T10:22:57Z</time>
      </trkpt>
      <trkpt lat="42.2519200" lon="-5.8640250">
        <ele>776.2</ele>
        <time>2021-10-12T10:22:58Z</time>
      </trkpt>
      <trkpt lat="42.2516670" lon="-5.8637820">
        <ele>776.2</ele>
        <time>2021-10-12T10:23:04Z</time>
      </trkpt>
      <trkpt lat="42.2513670" lon="-5.8634630">
        <ele>775.4</ele>
        <time>2021-10-12T10:23:11Z</time>
      </trkpt>
      <trkpt lat="42.2512980" lon="-5.8633780">
        <ele>775.4</ele>
        <time>2021-10-12T10:23:13Z</time>
      </trkpt>
      <trkpt lat="42.2512060" lon="-5.8632380">
        <ele>775.6</ele>
        <time>2021-10-12T10:23:16Z</time>
      </trkpt>
      <trkpt lat="42.2511320" lon="-5.8631910">
        <ele>775.6</ele>
        <time>2021-10-12T10:23:18Z</time>
      </trkpt>
      <trkpt lat="42.2510390" lon="-5.8631500">
        <ele>775.6</ele>
        <time>2021-10-12T10:23:20Z</time>
      </trkpt>
      <trkpt lat="42.2509700" lon="-5.8630920">
        <ele>775.6</ele>
        <time>2021-10-12T10:23:22Z</time>
      </trkpt>
      <trkpt lat="42.2508670" lon="-5.8629510">
        <ele>775.6</ele>
        <time>2021-10-12T10:23:25Z</time>
      </trkpt>
      <trkpt lat="42.2507700" lon="-5.8627900">
        <ele>775.6</ele>
        <time>2021-10-12T10:23:28Z</time>
      </trkpt>
      <trkpt lat="42.2506910" lon="-5.8627070">
        <ele>775.4</ele>
        <time>2021-10-12T10:23:30Z</time>
      </trkpt>
      <trkpt lat="42.2506490" lon="-5.8626840">
        <ele>775.4</ele>
        <time>2021-10-12T10:23:31Z</time>
      </trkpt>
      <trkpt lat="42.2506130" lon="-5.8626720">
        <ele>775.4</ele>
        <time>2021-10-12T10:23:32Z</time>
      </trkpt>
      <trkpt lat="42.2505470" lon="-5.8626480">
        <ele>775.2</ele>
        <time>2021-10-12T10:23:35Z</time>
      </trkpt>
      <trkpt lat="42.2505360" lon="-5.8626350">
        <ele>775.2</ele>
        <time>2021-10-12T10:23:36Z</time>
      </trkpt>
      <trkpt lat="42.2505140" lon="-5.8626190">
        <ele>775.2</ele>
        <time>2021-10-12T10:23:38Z</time>
      </trkpt>
      <trkpt lat="42.2504900" lon="-5.8626250">
        <ele>775.0</ele>
        <time>2021-10-12T10:23:40Z</time>
      </trkpt>
      <trkpt lat="42.2503740" lon="-5.8626850">
        <ele>775.0</ele>
        <time>2021-10-12T10:23:44Z</time>
      </trkpt>
      <trkpt lat="42.2503380" lon="-5.8627290">
        <ele>775.0</ele>
        <time>2021-10-12T10:23:45Z</time>
      </trkpt>
      <trkpt lat="42.2502560" lon="-5.8628350">
        <ele>774.8</ele>
        <time>2021-10-12T10:23:47Z</time>
      </trkpt>
      <trkpt lat="42.2502060" lon="-5.8628870">
        <ele>774.8</ele>
        <time>2021-10-12T10:23:48Z</time>
      </trkpt>
      <trkpt lat="42.2500650" lon="-5.8630080">
        <ele>774.0</ele>
        <time>2021-10-12T10:23:51Z</time>
      </trkpt>
      <trkpt lat="42.2499950" lon="-5.8630760">
        <ele>772.4</ele>
        <time>2021-10-12T10:23:53Z</time>
      </trkpt>
      <trkpt lat="42.2499360" lon="-5.8631580">
        <ele>771.4</ele>
        <time>2021-10-12T10:23:55Z</time>
      </trkpt>
      <trkpt lat="42.2498620" lon="-5.8632050">
        <ele>770.6</ele>
        <time>2021-10-12T10:23:57Z</time>
      </trkpt>
      <trkpt lat="42.2497860" lon="-5.8632220">
        <ele>770.2</ele>
        <time>2021-10-12T10:23:59Z</time>
      </trkpt>
      <trkpt lat="42.2497110" lon="-5.8632250">
        <ele>769.8</ele>
        <time>2021-10-12T10:24:01Z</time>
      </trkpt>
      <trkpt lat="42.2496740" lon="-5.8632250">
        <ele>769.6</ele>
        <time>2021-10-12T10:24:02Z</time>
      </trkpt>
      <trkpt lat="42.2495420" lon="-5.8632240">
        <ele>769.4</ele>
        <time>2021-10-12T10:24:05Z</time>
      </trkpt>
      <trkpt lat="42.2493990" lon="-5.8632670">
        <ele>769.2</ele>
        <time>2021-10-12T10:24:08Z</time>
      </trkpt>
      <trkpt lat="42.2493330" lon="-5.8632830">
        <ele>769.0</ele>
        <time>2021-10-12T10:24:09Z</time>
      </trkpt>
      <trkpt lat="42.2490200" lon="-5.8633770">
        <ele>768.6</ele>
        <time>2021-10-12T10:24:14Z</time>
      </trkpt>
      <trkpt lat="42.2488400" lon="-5.8634260">
        <ele>768.0</ele>
        <time>2021-10-12T10:24:17Z</time>
      </trkpt>
      <trkpt lat="42.2486430" lon="-5.8634750">
        <ele>767.2</ele>
        <time>2021-10-12T10:24:20Z</time>
      </trkpt>
      <trkpt lat="42.2485940" lon="-5.8634850">
        <ele>766.8</ele>
        <time>2021-10-12T10:24:21Z</time>
      </trkpt>
      <trkpt lat="42.2481740" lon="-5.8635250">
        <ele>765.8</ele>
        <time>2021-10-12T10:24:28Z</time>
      </trkpt>
      <trkpt lat="42.2481170" lon="-5.8635310">
        <ele>765.6</ele>
        <time>2021-10-12T10:24:29Z</time>
      </trkpt>
      <trkpt lat="42.2479040" lon="-5.8635540">
        <ele>765.4</ele>
        <time>2021-10-12T10:24:33Z</time>
      </trkpt>
      <trkpt lat="42.2477880" lon="-5.8635990">
        <ele>765.2</ele>
        <time>2021-10-12T10:24:35Z</time>
      </trkpt>
      <trkpt lat="42.2476950" lon="-5.8636600">
        <ele>765.0</ele>
        <time>2021-10-12T10:24:37Z</time>
      </trkpt>
      <trkpt lat="42.2475950" lon="-5.8637410">
        <ele>765.0</ele>
        <time>2021-10-12T10:24:39Z</time>
      </trkpt>
      <trkpt lat="42.2474900" lon="-5.8638120">
        <ele>765.0</ele>
        <time>2021-10-12T10:24:41Z</time>
      </trkpt>
      <trkpt lat="42.2471130" lon="-5.8640580">
        <ele>764.8</ele>
        <time>2021-10-12T10:24:49Z</time>
      </trkpt>
      <trkpt lat="42.2470000" lon="-5.8641150">
        <ele>764.8</ele>
        <time>2021-10-12T10:24:52Z</time>
      </trkpt>
      <trkpt lat="42.2469200" lon="-5.8641640">
        <ele>764.6</ele>
        <time>2021-10-12T10:24:54Z</time>
      </trkpt>
      <trkpt lat="42.2465640" lon="-5.8643870">
        <ele>764.2</ele>
        <time>2021-10-12T10:25:02Z</time>
      </trkpt>
      <trkpt lat="42.2461870" lon="-5.8646460">
        <ele>764.4</ele>
        <time>2021-10-12T10:25:10Z</time>
      </trkpt>
      <trkpt lat="42.2459220" lon="-5.8648200">
        <ele>764.6</ele>
        <time>2021-10-12T10:25:17Z</time>
      </trkpt>
      <trkpt lat="42.2457960" lon="-5.8648980">
        <ele>765.2</ele>
        <time>2021-10-12T10:25:22Z</time>
      </trkpt>
      <trkpt lat="42.2457070" lon="-5.8649840">
        <ele>765.8</ele>
        <time>2021-10-12T10:25:26Z</time>
      </trkpt>
      <trkpt lat="42.2456540" lon="-5.8650270">
        <ele>765.8</ele>
        <time>2021-10-12T10:25:29Z</time>
      </trkpt>
      <trkpt lat="42.2456370" lon="-5.8650330">
        <ele>765.8</ele>
        <time>2021-10-12T10:25:30Z</time>
      </trkpt>
      <trkpt lat="42.2456140" lon="-5.8650350">
        <ele>766.0</ele>
        <time>2021-10-12T10:25:34Z</time>
      </trkpt>
      <trkpt lat="42.2456460" lon="-5.8649810">
        <ele>766.0</ele>
        <time>2021-10-12T10:25:46Z</time>
      </trkpt>
      <trkpt lat="42.2456880" lon="-5.8649660">
        <ele>766.0</ele>
        <time>2021-10-12T10:25:48Z</time>
      </trkpt>
      <trkpt lat="42.2458240" lon="-5.8648660">
        <ele>766.0</ele>
        <time>2021-10-12T10:25:53Z</time>
      </trkpt>
      <trkpt lat="42.2458480" lon="-5.8647940">
        <ele>765.8</ele>
        <time>2021-10-12T10:25:55Z</time>
      </trkpt>
      <trkpt lat="42.2458380" lon="-5.8647580">
        <ele>765.8</ele>
        <time>2021-10-12T10:25:56Z</time>
      </trkpt>
      <trkpt lat="42.2456630" lon="-5.8645350">
        <ele>765.8</ele>
        <time>2021-10-12T10:26:03Z</time>
      </trkpt>
      <trkpt lat="42.2454440" lon="-5.8642380">
        <ele>765.4</ele>
        <time>2021-10-12T10:26:09Z</time>
      </trkpt>
      <trkpt lat="42.2452620" lon="-5.8639820">
        <ele>764.8</ele>
        <time>2021-10-12T10:26:14Z</time>
      </trkpt>
      <trkpt lat="42.2451530" lon="-5.8638340">
        <ele>764.6</ele>
        <time>2021-10-12T10:26:17Z</time>
      </trkpt>
      <trkpt lat="42.2448310" lon="-5.8633760">
        <ele>764.4</ele>
        <time>2021-10-12T10:26:26Z</time>
      </trkpt>
      <trkpt lat="42.2447240" lon="-5.8632270">
        <ele>764.2</ele>
        <time>2021-10-12T10:26:29Z</time>
      </trkpt>
      <trkpt lat="42.2446210" lon="-5.8630700">
        <ele>764.0</ele>
        <time>2021-10-12T10:26:32Z</time>
      </trkpt>
      <trkpt lat="42.2445070" lon="-5.8629150">
        <ele>764.0</ele>
        <time>2021-10-12T10:26:35Z</time>
      </trkpt>
      <trkpt lat="42.2444060" lon="-5.8627760">
        <ele>763.8</ele>
        <time>2021-10-12T10:26:38Z</time>
      </trkpt>
      <trkpt lat="42.2441130" lon="-5.8623610">
        <ele>763.8</ele>
        <time>2021-10-12T10:26:46Z</time>
      </trkpt>
      <trkpt lat="42.2437850" lon="-5.8618960">
        <ele>763.8</ele>
        <time>2021-10-12T10:26:55Z</time>
      </trkpt>
      <trkpt lat="42.2435020" lon="-5.8614850">
        <ele>763.6</ele>
        <time>2021-10-12T10:27:03Z</time>
      </trkpt>
      <trkpt lat="42.2431470" lon="-5.8609740">
        <ele>763.6</ele>
        <time>2021-10-12T10:27:13Z</time>
      </trkpt>
      <trkpt lat="42.2428440" lon="-5.8605240">
        <ele>763.6</ele>
        <time>2021-10-12T10:27:22Z</time>
      </trkpt>
      <trkpt lat="42.2424830" lon="-5.8600100">
        <ele>763.4</ele>
        <time>2021-10-12T10:27:33Z</time>
      </trkpt>
      <trkpt lat="42.2421970" lon="-5.8595990">
        <ele>763.8</ele>
        <time>2021-10-12T10:27:42Z</time>
      </trkpt>
      <trkpt lat="42.2418840" lon="-5.8591170">
        <ele>763.4</ele>
        <time>2021-10-12T10:27:52Z</time>
      </trkpt>
      <trkpt lat="42.2415450" lon="-5.8585190">
        <ele>763.2</ele>
        <time>2021-10-12T10:28:03Z</time>
      </trkpt>
      <trkpt lat="42.2414240" lon="-5.8582870">
        <ele>763.2</ele>
        <time>2021-10-12T10:28:07Z</time>
      </trkpt>
      <trkpt lat="42.2413370" lon="-5.8581340">
        <ele>763.0</ele>
        <time>2021-10-12T10:28:10Z</time>
      </trkpt>
      <trkpt lat="42.2413090" lon="-5.8580810">
        <ele>763.0</ele>
        <time>2021-10-12T10:28:11Z</time>
      </trkpt>
      <trkpt lat="42.2411690" lon="-5.8578280">
        <ele>763.0</ele>
        <time>2021-10-12T10:28:16Z</time>
      </trkpt>
      <trkpt lat="42.2410640" lon="-5.8576300">
        <ele>763.2</ele>
        <time>2021-10-12T10:28:20Z</time>
      </trkpt>
      <trkpt lat="42.2408480" lon="-5.8572360">
        <ele>763.4</ele>
        <time>2021-10-12T10:28:28Z</time>
      </trkpt>
      <trkpt lat="42.2407770" lon="-5.8571110">
        <ele>763.4</ele>
        <time>2021-10-12T10:28:31Z</time>
      </trkpt>
      <trkpt lat="42.2407500" lon="-5.8570780">
        <ele>763.4</ele>
        <time>2021-10-12T10:28:32Z</time>
      </trkpt>
      <trkpt lat="42.2406660" lon="-5.8569870">
        <ele>763.4</ele>
        <time>2021-10-12T10:28:35Z</time>
      </trkpt>
      <trkpt lat="42.2406070" lon="-5.8569330">
        <ele>763.4</ele>
        <time>2021-10-12T10:28:37Z</time>
      </trkpt>
      <trkpt lat="42.2402970" lon="-5.8566070">
        <ele>762.8</ele>
        <time>2021-10-12T10:28:47Z</time>
      </trkpt>
      <trkpt lat="42.2401960" lon="-5.8565050">
        <ele>762.8</ele>
        <time>2021-10-12T10:28:50Z</time>
      </trkpt>
      <trkpt lat="42.2401340" lon="-5.8564250">
        <ele>762.8</ele>
        <time>2021-10-12T10:28:52Z</time>
      </trkpt>
      <trkpt lat="42.2398570" lon="-5.8561280">
        <ele>762.8</ele>
        <time>2021-10-12T10:29:01Z</time>
      </trkpt>
      <trkpt lat="42.2396170" lon="-5.8558670">
        <ele>762.8</ele>
        <time>2021-10-12T10:29:08Z</time>
      </trkpt>
      <trkpt lat="42.2393230" lon="-5.8555660">
        <ele>762.4</ele>
        <time>2021-10-12T10:29:16Z</time>
      </trkpt>
      <trkpt lat="42.2392870" lon="-5.8555280">
        <ele>762.4</ele>
        <time>2021-10-12T10:29:17Z</time>
      </trkpt>
      <trkpt lat="42.2391620" lon="-5.8553850">
        <ele>762.2</ele>
        <time>2021-10-12T10:29:21Z</time>
      </trkpt>
      <trkpt lat="42.2390650" lon="-5.8552890">
        <ele>762.2</ele>
        <time>2021-10-12T10:29:24Z</time>
      </trkpt>
      <trkpt lat="42.2390310" lon="-5.8552560">
        <ele>762.2</ele>
        <time>2021-10-12T10:29:25Z</time>
      </trkpt>
      <trkpt lat="42.2388910" lon="-5.8551180">
        <ele>762.2</ele>
        <time>2021-10-12T10:29:29Z</time>
      </trkpt>
      <trkpt lat="42.2387830" lon="-5.8550250">
        <ele>762.0</ele>
        <time>2021-10-12T10:29:32Z</time>
      </trkpt>
      <trkpt lat="42.2386760" lon="-5.8549240">
        <ele>762.0</ele>
        <time>2021-10-12T10:29:35Z</time>
      </trkpt>
      <trkpt lat="42.2384760" lon="-5.8547980">
        <ele>762.2</ele>
        <time>2021-10-12T10:29:40Z</time>
      </trkpt>
      <trkpt lat="42.2383520" lon="-5.8547180">
        <ele>762.2</ele>
        <time>2021-10-12T10:29:43Z</time>
      </trkpt>
      <trkpt lat="42.2381850" lon="-5.8546060">
        <ele>762.2</ele>
        <time>2021-10-12T10:29:47Z</time>
      </trkpt>
      <trkpt lat="42.2379040" lon="-5.8544250">
        <ele>761.8</ele>
        <time>2021-10-12T10:29:54Z</time>
      </trkpt>
      <trkpt lat="42.2377500" lon="-5.8543360">
        <ele>761.8</ele>
        <time>2021-10-12T10:29:58Z</time>
      </trkpt>
      <trkpt lat="42.2376490" lon="-5.8542720">
        <ele>761.8</ele>
        <time>2021-10-12T10:30:01Z</time>
      </trkpt>
      <trkpt lat="42.2372640" lon="-5.8540360">
        <ele>762.0</ele>
        <time>2021-10-12T10:30:11Z</time>
      </trkpt>
      <trkpt lat="42.2369270" lon="-5.8538300">
        <ele>761.8</ele>
        <time>2021-10-12T10:30:20Z</time>
      </trkpt>
      <trkpt lat="42.2366430" lon="-5.8536600">
        <ele>762.0</ele>
        <time>2021-10-12T10:30:28Z</time>
      </trkpt>
      <trkpt lat="42.2363780" lon="-5.8535020">
        <ele>762.0</ele>
        <time>2021-10-12T10:30:35Z</time>
      </trkpt>
      <trkpt lat="42.2361700" lon="-5.8533740">
        <ele>762.0</ele>
        <time>2021-10-12T10:30:40Z</time>
      </trkpt>
      <trkpt lat="42.2359660" lon="-5.8532580">
        <ele>761.8</ele>
        <time>2021-10-12T10:30:45Z</time>
      </trkpt>
      <trkpt lat="42.2358880" lon="-5.8532030">
        <ele>761.8</ele>
        <time>2021-10-12T10:30:47Z</time>
      </trkpt>
      <trkpt lat="42.2357320" lon="-5.8531030">
        <ele>761.8</ele>
        <time>2021-10-12T10:30:51Z</time>
      </trkpt>
      <trkpt lat="42.2353490" lon="-5.8528660">
        <ele>761.8</ele>
        <time>2021-10-12T10:31:01Z</time>
      </trkpt>
      <trkpt lat="42.2351970" lon="-5.8527700">
        <ele>761.8</ele>
        <time>2021-10-12T10:31:05Z</time>
      </trkpt>
      <trkpt lat="42.2350350" lon="-5.8526460">
        <ele>762.0</ele>
        <time>2021-10-12T10:31:10Z</time>
      </trkpt>
      <trkpt lat="42.2349290" lon="-5.8525860">
        <ele>762.2</ele>
        <time>2021-10-12T10:31:15Z</time>
      </trkpt>
      <trkpt lat="42.2349230" lon="-5.8525820">
        <ele>762.4</ele>
        <time>2021-10-12T10:31:18Z</time>
      </trkpt>
      <trkpt lat="42.2349100" lon="-5.8525670">
        <ele>762.4</ele>
        <time>2021-10-12T10:31:59Z</time>
      </trkpt>
      <trkpt lat="42.2348980" lon="-5.8525570">
        <ele>762.4</ele>
        <time>2021-10-12T10:32:00Z</time>
      </trkpt>
      <trkpt lat="42.2348470" lon="-5.8525430">
        <ele>762.4</ele>
        <time>2021-10-12T10:32:06Z</time>
      </trkpt>
      <trkpt lat="42.2347840" lon="-5.8526720">
        <ele>762.4</ele>
        <time>2021-10-12T10:32:12Z</time>
      </trkpt>
      <trkpt lat="42.2347180" lon="-5.8528240">
        <ele>762.2</ele>
        <time>2021-10-12T10:32:19Z</time>
      </trkpt>
      <trkpt lat="42.2346940" lon="-5.8529190">
        <ele>762.2</ele>
        <time>2021-10-12T10:32:25Z</time>
      </trkpt>
      <trkpt lat="42.2346940" lon="-5.8529190">
        <ele>762.2</ele>
        <time>2021-10-12T10:32:26Z</time>
      </trkpt>
      <trkpt lat="42.2346600" lon="-5.8529500">
        <ele>762.0</ele>
        <time>2021-10-12T10:32:34Z</time>
      </trkpt>
      <trkpt lat="42.2346230" lon="-5.8529940">
        <ele>762.0</ele>
        <time>2021-10-12T10:32:36Z</time>
      </trkpt>
      <trkpt lat="42.2345160" lon="-5.8531380">
        <ele>762.0</ele>
        <time>2021-10-12T10:32:42Z</time>
      </trkpt>
      <trkpt lat="42.2344900" lon="-5.8532240">
        <ele>761.8</ele>
        <time>2021-10-12T10:32:47Z</time>
      </trkpt>
      <trkpt lat="42.2344880" lon="-5.8532250">
        <ele>761.8</ele>
        <time>2021-10-12T10:32:48Z</time>
      </trkpt>
      <trkpt lat="42.2344880" lon="-5.8532250">
        <ele>761.8</ele>
        <time>2021-10-12T10:32:50Z</time>
      </trkpt>
      <trkpt lat="42.2344830" lon="-5.8542130">
        <ele>763.6</ele>
        <time>2021-10-12T11:07:53Z</time>
      </trkpt>
      <trkpt lat="42.2344790" lon="-5.8542780">
        <ele>763.6</ele>
        <time>2021-10-12T11:07:54Z</time>
      </trkpt>
      <trkpt lat="42.2344330" lon="-5.8546340">
        <ele>763.4</ele>
        <time>2021-10-12T11:08:00Z</time>
      </trkpt>
      <trkpt lat="42.2344140" lon="-5.8546890">
        <ele>763.4</ele>
        <time>2021-10-12T11:08:01Z</time>
      </trkpt>
      <trkpt lat="42.2343920" lon="-5.8547410">
        <ele>763.4</ele>
        <time>2021-10-12T11:08:02Z</time>
      </trkpt>
      <trkpt lat="42.2343480" lon="-5.8548300">
        <ele>763.6</ele>
        <time>2021-10-12T11:08:04Z</time>
      </trkpt>
      <trkpt lat="42.2342650" lon="-5.8549520">
        <ele>763.6</ele>
        <time>2021-10-12T11:08:07Z</time>
      </trkpt>
      <trkpt lat="42.2340300" lon="-5.8552490">
        <ele>764.0</ele>
        <time>2021-10-12T11:08:15Z</time>
      </trkpt>
      <trkpt lat="42.2340050" lon="-5.8552940">
        <ele>764.0</ele>
        <time>2021-10-12T11:08:16Z</time>
      </trkpt>
      <trkpt lat="42.2339440" lon="-5.8554460">
        <ele>764.0</ele>
        <time>2021-10-12T11:08:19Z</time>
      </trkpt>
      <trkpt lat="42.2339120" lon="-5.8555460">
        <ele>764.0</ele>
        <time>2021-10-12T11:08:21Z</time>
      </trkpt>
      <trkpt lat="42.2338360" lon="-5.8558850">
        <ele>764.0</ele>
        <time>2021-10-12T11:08:28Z</time>
      </trkpt>
      <trkpt lat="42.2338270" lon="-5.8561740">
        <ele>764.4</ele>
        <time>2021-10-12T11:08:34Z</time>
      </trkpt>
      <trkpt lat="42.2338140" lon="-5.8562640">
        <ele>764.6</ele>
        <time>2021-10-12T11:08:36Z</time>
      </trkpt>
      <trkpt lat="42.2338080" lon="-5.8563070">
        <ele>764.6</ele>
        <time>2021-10-12T11:08:37Z</time>
      </trkpt>
      <trkpt lat="42.2337650" lon="-5.8566030">
        <ele>764.6</ele>
        <time>2021-10-12T11:08:44Z</time>
      </trkpt>
      <trkpt lat="42.2336940" lon="-5.8568270">
        <ele>765.0</ele>
        <time>2021-10-12T11:08:50Z</time>
      </trkpt>
      <trkpt lat="42.2336890" lon="-5.8570780">
        <ele>765.4</ele>
        <time>2021-10-12T11:08:57Z</time>
      </trkpt>
      <trkpt lat="42.2336870" lon="-5.8571380">
        <ele>765.6</ele>
        <time>2021-10-12T11:08:59Z</time>
      </trkpt>
      <trkpt lat="42.2336800" lon="-5.8573210">
        <ele>766.2</ele>
        <time>2021-10-12T11:09:05Z</time>
      </trkpt>
      <trkpt lat="42.2336800" lon="-5.8573890">
        <ele>766.4</ele>
        <time>2021-10-12T11:09:07Z</time>
      </trkpt>
      <trkpt lat="42.2336790" lon="-5.8575390">
        <ele>767.2</ele>
        <time>2021-10-12T11:09:12Z</time>
      </trkpt>
      <trkpt lat="42.2336810" lon="-5.8575640">
        <ele>767.4</ele>
        <time>2021-10-12T11:09:13Z</time>
      </trkpt>
      <trkpt lat="42.2336820" lon="-5.8575870">
        <ele>767.6</ele>
        <time>2021-10-12T11:09:14Z</time>
      </trkpt>
      <trkpt lat="42.2336700" lon="-5.8576660">
        <ele>768.0</ele>
        <time>2021-10-12T11:09:17Z</time>
      </trkpt>
      <trkpt lat="42.2336600" lon="-5.8577130">
        <ele>768.4</ele>
        <time>2021-10-12T11:09:19Z</time>
      </trkpt>
      <trkpt lat="42.2336510" lon="-5.8577350">
        <ele>768.8</ele>
        <time>2021-10-12T11:09:20Z</time>
      </trkpt>
      <trkpt lat="42.2335980" lon="-5.8578300">
        <ele>770.0</ele>
        <time>2021-10-12T11:09:25Z</time>
      </trkpt>
      <trkpt lat="42.2335580" lon="-5.8578720">
        <ele>770.6</ele>
        <time>2021-10-12T11:09:28Z</time>
      </trkpt>
      <trkpt lat="42.2335460" lon="-5.8578890">
        <ele>771.0</ele>
        <time>2021-10-12T11:09:29Z</time>
      </trkpt>
      <trkpt lat="42.2334920" lon="-5.8579460">
        <ele>771.6</ele>
        <time>2021-10-12T11:09:33Z</time>
      </trkpt>
      <trkpt lat="42.2334580" lon="-5.8579940">
        <ele>772.2</ele>
        <time>2021-10-12T11:09:36Z</time>
      </trkpt>
      <trkpt lat="42.2333810" lon="-5.8580910">
        <ele>772.8</ele>
        <time>2021-10-12T11:09:42Z</time>
      </trkpt>
      <trkpt lat="42.2333680" lon="-5.8581050">
        <ele>772.8</ele>
        <time>2021-10-12T11:09:43Z</time>
      </trkpt>
      <trkpt lat="42.2333450" lon="-5.8581390">
        <ele>773.0</ele>
        <time>2021-10-12T11:09:45Z</time>
      </trkpt>
      <trkpt lat="42.2333330" lon="-5.8581560">
        <ele>773.2</ele>
        <time>2021-10-12T11:09:46Z</time>
      </trkpt>
      <trkpt lat="42.2333180" lon="-5.8581730">
        <ele>773.2</ele>
        <time>2021-10-12T11:09:47Z</time>
      </trkpt>
      <trkpt lat="42.2332850" lon="-5.8582300">
        <ele>773.4</ele>
        <time>2021-10-12T11:09:50Z</time>
      </trkpt>
      <trkpt lat="42.2332790" lon="-5.8582530">
        <ele>773.4</ele>
        <time>2021-10-12T11:09:51Z</time>
      </trkpt>
      <trkpt lat="42.2332110" lon="-5.8584630">
        <ele>773.8</ele>
        <time>2021-10-12T11:10:02Z</time>
      </trkpt>
      <trkpt lat="42.2331820" lon="-5.8585450">
        <ele>774.0</ele>
        <time>2021-10-12T11:10:06Z</time>
      </trkpt>
      <trkpt lat="42.2331560" lon="-5.8585710">
        <ele>774.2</ele>
        <time>2021-10-12T11:10:08Z</time>
      </trkpt>
      <trkpt lat="42.2330800" lon="-5.8585670">
        <ele>774.4</ele>
        <time>2021-10-12T11:10:14Z</time>
      </trkpt>
      <trkpt lat="42.2330670" lon="-5.8585650">
        <ele>774.4</ele>
        <time>2021-10-12T11:10:18Z</time>
      </trkpt>
      <trkpt lat="42.2330670" lon="-5.8586120">
        <ele>774.2</ele>
        <time>2021-10-12T11:13:31Z</time>
      </trkpt>
      <trkpt lat="42.2330680" lon="-5.8586450">
        <ele>774.2</ele>
        <time>2021-10-12T11:13:32Z</time>
      </trkpt>
      <trkpt lat="42.2330460" lon="-5.8587470">
        <ele>774.2</ele>
        <time>2021-10-12T11:13:35Z</time>
      </trkpt>
      <trkpt lat="42.2329990" lon="-5.8588870">
        <ele>774.2</ele>
        <time>2021-10-12T11:13:39Z</time>
      </trkpt>
      <trkpt lat="42.2329800" lon="-5.8589940">
        <ele>774.4</ele>
        <time>2021-10-12T11:13:42Z</time>
      </trkpt>
      <trkpt lat="42.2329770" lon="-5.8591550">
        <ele>774.6</ele>
        <time>2021-10-12T11:13:47Z</time>
      </trkpt>
      <trkpt lat="42.2329440" lon="-5.8593420">
        <ele>774.6</ele>
        <time>2021-10-12T11:13:54Z</time>
      </trkpt>
      <trkpt lat="42.2329070" lon="-5.8594860">
        <ele>774.6</ele>
        <time>2021-10-12T11:14:02Z</time>
      </trkpt>
      <trkpt lat="42.2329040" lon="-5.8594890">
        <ele>774.6</ele>
        <time>2021-10-12T11:14:04Z</time>
      </trkpt>
      <trkpt lat="42.2329290" lon="-5.8594180">
        <ele>775.2</ele>
        <time>2021-10-12T11:16:42Z</time>
      </trkpt>
      <trkpt lat="42.2329350" lon="-5.8593950">
        <ele>775.2</ele>
        <time>2021-10-12T11:16:43Z</time>
      </trkpt>
      <trkpt lat="42.2329570" lon="-5.8592980">
        <ele>775.0</ele>
        <time>2021-10-12T11:16:47Z</time>
      </trkpt>
      <trkpt lat="42.2329730" lon="-5.8592150">
        <ele>774.8</ele>
        <time>2021-10-12T11:16:50Z</time>
      </trkpt>
      <trkpt lat="42.2330140" lon="-5.8590230">
        <ele>774.6</ele>
        <time>2021-10-12T11:16:56Z</time>
      </trkpt>
      <trkpt lat="42.2330400" lon="-5.8589280">
        <ele>774.6</ele>
        <time>2021-10-12T11:16:59Z</time>
      </trkpt>
      <trkpt lat="42.2330940" lon="-5.8587300">
        <ele>774.4</ele>
        <time>2021-10-12T11:17:06Z</time>
      </trkpt>
      <trkpt lat="42.2331360" lon="-5.8586180">
        <ele>774.2</ele>
        <time>2021-10-12T11:17:11Z</time>
      </trkpt>
      <trkpt lat="42.2331980" lon="-5.8584380">
        <ele>774.0</ele>
        <time>2021-10-12T11:17:17Z</time>
      </trkpt>
      <trkpt lat="42.2332100" lon="-5.8584070">
        <ele>774.0</ele>
        <time>2021-10-12T11:17:18Z</time>
      </trkpt>
      <trkpt lat="42.2333190" lon="-5.8581530">
        <ele>774.0</ele>
        <time>2021-10-12T11:17:26Z</time>
      </trkpt>
      <trkpt lat="42.2334880" lon="-5.8578880">
        <ele>773.8</ele>
        <time>2021-10-12T11:17:33Z</time>
      </trkpt>
      <trkpt lat="42.2335780" lon="-5.8577490">
        <ele>773.6</ele>
        <time>2021-10-12T11:17:36Z</time>
      </trkpt>
      <trkpt lat="42.2336410" lon="-5.8576290">
        <ele>773.2</ele>
        <time>2021-10-12T11:17:38Z</time>
      </trkpt>
      <trkpt lat="42.2336650" lon="-5.8575570">
        <ele>772.8</ele>
        <time>2021-10-12T11:17:39Z</time>
      </trkpt>
      <trkpt lat="42.2336780" lon="-5.8574770">
        <ele>772.4</ele>
        <time>2021-10-12T11:17:40Z</time>
      </trkpt>
      <trkpt lat="42.2336900" lon="-5.8573090">
        <ele>771.6</ele>
        <time>2021-10-12T11:17:42Z</time>
      </trkpt>
      <trkpt lat="42.2336990" lon="-5.8570470">
        <ele>770.4</ele>
        <time>2021-10-12T11:17:45Z</time>
      </trkpt>
      <trkpt lat="42.2336900" lon="-5.8568830">
        <ele>769.4</ele>
        <time>2021-10-12T11:17:47Z</time>
      </trkpt>
      <trkpt lat="42.2336970" lon="-5.8568050">
        <ele>768.6</ele>
        <time>2021-10-12T11:17:48Z</time>
      </trkpt>
      <trkpt lat="42.2337190" lon="-5.8567300">
        <ele>768.0</ele>
        <time>2021-10-12T11:17:49Z</time>
      </trkpt>
      <trkpt lat="42.2337440" lon="-5.8566560">
        <ele>767.6</ele>
        <time>2021-10-12T11:17:50Z</time>
      </trkpt>
      <trkpt lat="42.2337670" lon="-5.8565810">
        <ele>767.4</ele>
        <time>2021-10-12T11:17:51Z</time>
      </trkpt>
      <trkpt lat="42.2337960" lon="-5.8564250">
        <ele>767.2</ele>
        <time>2021-10-12T11:17:53Z</time>
      </trkpt>
      <trkpt lat="42.2338270" lon="-5.8562750">
        <ele>767.2</ele>
        <time>2021-10-12T11:17:55Z</time>
      </trkpt>
      <trkpt lat="42.2338470" lon="-5.8561370">
        <ele>766.8</ele>
        <time>2021-10-12T11:17:57Z</time>
      </trkpt>
      <trkpt lat="42.2338570" lon="-5.8560720">
        <ele>766.6</ele>
        <time>2021-10-12T11:17:58Z</time>
      </trkpt>
      <trkpt lat="42.2338790" lon="-5.8559450">
        <ele>766.6</ele>
        <time>2021-10-12T11:18:00Z</time>
      </trkpt>
      <trkpt lat="42.2338940" lon="-5.8557450">
        <ele>766.4</ele>
        <time>2021-10-12T11:18:03Z</time>
      </trkpt>
      <trkpt lat="42.2339050" lon="-5.8555440">
        <ele>766.2</ele>
        <time>2021-10-12T11:18:06Z</time>
      </trkpt>
      <trkpt lat="42.2339310" lon="-5.8554710">
        <ele>766.2</ele>
        <time>2021-10-12T11:18:07Z</time>
      </trkpt>
      <trkpt lat="42.2340200" lon="-5.8552750">
        <ele>765.8</ele>
        <time>2021-10-12T11:18:10Z</time>
      </trkpt>
      <trkpt lat="42.2341090" lon="-5.8551270">
        <ele>765.6</ele>
        <time>2021-10-12T11:18:13Z</time>
      </trkpt>
      <trkpt lat="42.2341400" lon="-5.8550830">
        <ele>765.6</ele>
        <time>2021-10-12T11:18:14Z</time>
      </trkpt>
      <trkpt lat="42.2341710" lon="-5.8550420">
        <ele>765.6</ele>
        <time>2021-10-12T11:18:15Z</time>
      </trkpt>
      <trkpt lat="42.2343020" lon="-5.8548770">
        <ele>765.6</ele>
        <time>2021-10-12T11:18:19Z</time>
      </trkpt>
      <trkpt lat="42.2344020" lon="-5.8546660">
        <ele>765.6</ele>
        <time>2021-10-12T11:18:23Z</time>
      </trkpt>
      <trkpt lat="42.2344330" lon="-5.8545480">
        <ele>765.6</ele>
        <time>2021-10-12T11:18:25Z</time>
      </trkpt>
      <trkpt lat="42.2344570" lon="-5.8543690">
        <ele>765.6</ele>
        <time>2021-10-12T11:18:28Z</time>
      </trkpt>
      <trkpt lat="42.2344620" lon="-5.8541780">
        <ele>765.4</ele>
        <time>2021-10-12T11:18:31Z</time>
      </trkpt>
      <trkpt lat="42.2344650" lon="-5.8535880">
        <ele>764.8</ele>
        <time>2021-10-12T11:18:40Z</time>
      </trkpt>
      <trkpt lat="42.2345050" lon="-5.8531750">
        <ele>764.8</ele>
        <time>2021-10-12T11:18:47Z</time>
      </trkpt>
      <trkpt lat="42.2345160" lon="-5.8531250">
        <ele>764.8</ele>
        <time>2021-10-12T11:18:48Z</time>
      </trkpt>
      <trkpt lat="42.2345490" lon="-5.8530320">
        <ele>765.0</ele>
        <time>2021-10-12T11:18:50Z</time>
      </trkpt>
      <trkpt lat="42.2346280" lon="-5.8528750">
        <ele>765.4</ele>
        <time>2021-10-12T11:18:54Z</time>
      </trkpt>
      <trkpt lat="42.2347840" lon="-5.8526280">
        <ele>766.0</ele>
        <time>2021-10-12T11:19:01Z</time>
      </trkpt>
      <trkpt lat="42.2348070" lon="-5.8526000">
        <ele>766.0</ele>
        <time>2021-10-12T11:19:02Z</time>
      </trkpt>
      <trkpt lat="42.2348580" lon="-5.8525100">
        <ele>766.2</ele>
        <time>2021-10-12T11:19:05Z</time>
      </trkpt>
      <trkpt lat="42.2348570" lon="-5.8524800">
        <ele>766.2</ele>
        <time>2021-10-12T11:19:06Z</time>
      </trkpt>
      <trkpt lat="42.2348250" lon="-5.8524270">
        <ele>766.2</ele>
        <time>2021-10-12T11:19:10Z</time>
      </trkpt>
      <trkpt lat="42.2348250" lon="-5.8524270">
        <ele>766.2</ele>
        <time>2021-10-12T11:19:12Z</time>
      </trkpt>
      <trkpt lat="42.2348000" lon="-5.8524160">
        <ele>765.8</ele>
        <time>2021-10-12T11:20:14Z</time>
      </trkpt>
      <trkpt lat="42.2347570" lon="-5.8523920">
        <ele>766.0</ele>
        <time>2021-10-12T11:20:16Z</time>
      </trkpt>
      <trkpt lat="42.2345860" lon="-5.8522940">
        <ele>765.8</ele>
        <time>2021-10-12T11:20:22Z</time>
      </trkpt>
      <trkpt lat="42.2343700" lon="-5.8521430">
        <ele>765.4</ele>
        <time>2021-10-12T11:20:30Z</time>
      </trkpt>
      <trkpt lat="42.2342070" lon="-5.8520120">
        <ele>765.4</ele>
        <time>2021-10-12T11:20:36Z</time>
      </trkpt>
      <trkpt lat="42.2340990" lon="-5.8519290">
        <ele>765.4</ele>
        <time>2021-10-12T11:20:40Z</time>
      </trkpt>
      <trkpt lat="42.2339370" lon="-5.8517920">
        <ele>765.4</ele>
        <time>2021-10-12T11:20:46Z</time>
      </trkpt>
      <trkpt lat="42.2338720" lon="-5.8517440">
        <ele>765.4</ele>
        <time>2021-10-12T11:20:48Z</time>
      </trkpt>
      <trkpt lat="42.2338410" lon="-5.8517210">
        <ele>765.2</ele>
        <time>2021-10-12T11:20:49Z</time>
      </trkpt>
      <trkpt lat="42.2335970" lon="-5.8515420">
        <ele>765.0</ele>
        <time>2021-10-12T11:20:57Z</time>
      </trkpt>
      <trkpt lat="42.2334620" lon="-5.8514430">
        <ele>764.8</ele>
        <time>2021-10-12T11:21:01Z</time>
      </trkpt>
      <trkpt lat="42.2333100" lon="-5.8513170">
        <ele>764.8</ele>
        <time>2021-10-12T11:21:06Z</time>
      </trkpt>
      <trkpt lat="42.2332120" lon="-5.8512300">
        <ele>764.8</ele>
        <time>2021-10-12T11:21:09Z</time>
      </trkpt>
      <trkpt lat="42.2330740" lon="-5.8511210">
        <ele>764.8</ele>
        <time>2021-10-12T11:21:14Z</time>
      </trkpt>
      <trkpt lat="42.2330440" lon="-5.8510970">
        <ele>764.8</ele>
        <time>2021-10-12T11:21:15Z</time>
      </trkpt>
      <trkpt lat="42.2328200" lon="-5.8509430">
        <ele>764.6</ele>
        <time>2021-10-12T11:21:23Z</time>
      </trkpt>
      <trkpt lat="42.2327480" lon="-5.8508870">
        <ele>764.6</ele>
        <time>2021-10-12T11:21:26Z</time>
      </trkpt>
      <trkpt lat="42.2326700" lon="-5.8508320">
        <ele>764.4</ele>
        <time>2021-10-12T11:21:29Z</time>
      </trkpt>
      <trkpt lat="42.2325350" lon="-5.8507280">
        <ele>764.6</ele>
        <time>2021-10-12T11:21:33Z</time>
      </trkpt>
      <trkpt lat="42.2324260" lon="-5.8506360">
        <ele>764.6</ele>
        <time>2021-10-12T11:21:37Z</time>
      </trkpt>
      <trkpt lat="42.2323680" lon="-5.8505890">
        <ele>764.4</ele>
        <time>2021-10-12T11:21:39Z</time>
      </trkpt>
      <trkpt lat="42.2322290" lon="-5.8504700">
        <ele>764.4</ele>
        <time>2021-10-12T11:21:44Z</time>
      </trkpt>
      <trkpt lat="42.2320440" lon="-5.8503070">
        <ele>764.4</ele>
        <time>2021-10-12T11:21:50Z</time>
      </trkpt>
      <trkpt lat="42.2319430" lon="-5.8502250">
        <ele>764.2</ele>
        <time>2021-10-12T11:21:53Z</time>
      </trkpt>
      <trkpt lat="42.2318110" lon="-5.8501190">
        <ele>764.0</ele>
        <time>2021-10-12T11:21:57Z</time>
      </trkpt>
      <trkpt lat="42.2316700" lon="-5.8500080">
        <ele>764.0</ele>
        <time>2021-10-12T11:22:01Z</time>
      </trkpt>
      <trkpt lat="42.2316050" lon="-5.8499610">
        <ele>764.0</ele>
        <time>2021-10-12T11:22:03Z</time>
      </trkpt>
      <trkpt lat="42.2313450" lon="-5.8497450">
        <ele>764.2</ele>
        <time>2021-10-12T11:22:11Z</time>
      </trkpt>
      <trkpt lat="42.2310690" lon="-5.8495280">
        <ele>764.0</ele>
        <time>2021-10-12T11:22:19Z</time>
      </trkpt>
      <trkpt lat="42.2308550" lon="-5.8493750">
        <ele>764.0</ele>
        <time>2021-10-12T11:22:25Z</time>
      </trkpt>
      <trkpt lat="42.2308290" lon="-5.8493490">
        <ele>764.0</ele>
        <time>2021-10-12T11:22:26Z</time>
      </trkpt>
      <trkpt lat="42.2306820" lon="-5.8492320">
        <ele>764.2</ele>
        <time>2021-10-12T11:22:30Z</time>
      </trkpt>
      <trkpt lat="42.2305730" lon="-5.8491450">
        <ele>764.2</ele>
        <time>2021-10-12T11:22:33Z</time>
      </trkpt>
      <trkpt lat="42.2303940" lon="-5.8490030">
        <ele>764.2</ele>
        <time>2021-10-12T11:22:38Z</time>
      </trkpt>
      <trkpt lat="42.2303210" lon="-5.8489400">
        <ele>764.0</ele>
        <time>2021-10-12T11:22:40Z</time>
      </trkpt>
      <trkpt lat="42.2302480" lon="-5.8488800">
        <ele>764.0</ele>
        <time>2021-10-12T11:22:42Z</time>
      </trkpt>
      <trkpt lat="42.2301750" lon="-5.8488160">
        <ele>764.0</ele>
        <time>2021-10-12T11:22:44Z</time>
      </trkpt>
      <trkpt lat="42.2300600" lon="-5.8487240">
        <ele>764.0</ele>
        <time>2021-10-12T11:22:47Z</time>
      </trkpt>
      <trkpt lat="42.2298020" lon="-5.8485130">
        <ele>763.8</ele>
        <time>2021-10-12T11:22:54Z</time>
      </trkpt>
      <trkpt lat="42.2296630" lon="-5.8483900">
        <ele>763.8</ele>
        <time>2021-10-12T11:22:58Z</time>
      </trkpt>
      <trkpt lat="42.2295180" lon="-5.8482780">
        <ele>764.0</ele>
        <time>2021-10-12T11:23:02Z</time>
      </trkpt>
      <trkpt lat="42.2294520" lon="-5.8482260">
        <ele>764.0</ele>
        <time>2021-10-12T11:23:04Z</time>
      </trkpt>
      <trkpt lat="42.2293360" lon="-5.8481430">
        <ele>764.0</ele>
        <time>2021-10-12T11:23:07Z</time>
      </trkpt>
      <trkpt lat="42.2292610" lon="-5.8480860">
        <ele>764.0</ele>
        <time>2021-10-12T11:23:09Z</time>
      </trkpt>
      <trkpt lat="42.2292260" lon="-5.8480570">
        <ele>764.0</ele>
        <time>2021-10-12T11:23:10Z</time>
      </trkpt>
      <trkpt lat="42.2290130" lon="-5.8478780">
        <ele>763.8</ele>
        <time>2021-10-12T11:23:16Z</time>
      </trkpt>
      <trkpt lat="42.2289380" lon="-5.8478210">
        <ele>763.8</ele>
        <time>2021-10-12T11:23:18Z</time>
      </trkpt>
      <trkpt lat="42.2289110" lon="-5.8477960">
        <ele>763.8</ele>
        <time>2021-10-12T11:23:19Z</time>
      </trkpt>
      <trkpt lat="42.2288380" lon="-5.8477330">
        <ele>763.8</ele>
        <time>2021-10-12T11:23:21Z</time>
      </trkpt>
      <trkpt lat="42.2287710" lon="-5.8476860">
        <ele>763.8</ele>
        <time>2021-10-12T11:23:23Z</time>
      </trkpt>
      <trkpt lat="42.2283640" lon="-5.8473790">
        <ele>764.4</ele>
        <time>2021-10-12T11:23:34Z</time>
      </trkpt>
      <trkpt lat="42.2281430" lon="-5.8471930">
        <ele>764.4</ele>
        <time>2021-10-12T11:23:40Z</time>
      </trkpt>
      <trkpt lat="42.2280730" lon="-5.8471280">
        <ele>764.2</ele>
        <time>2021-10-12T11:23:42Z</time>
      </trkpt>
      <trkpt lat="42.2279580" lon="-5.8470450">
        <ele>764.2</ele>
        <time>2021-10-12T11:23:45Z</time>
      </trkpt>
      <trkpt lat="42.2278140" lon="-5.8469230">
        <ele>764.2</ele>
        <time>2021-10-12T11:23:49Z</time>
      </trkpt>
      <trkpt lat="42.2277820" lon="-5.8468860">
        <ele>764.2</ele>
        <time>2021-10-12T11:23:50Z</time>
      </trkpt>
      <trkpt lat="42.2277480" lon="-5.8468510">
        <ele>764.2</ele>
        <time>2021-10-12T11:23:51Z</time>
      </trkpt>
      <trkpt lat="42.2274160" lon="-5.8465920">
        <ele>764.2</ele>
        <time>2021-10-12T11:24:00Z</time>
      </trkpt>
      <trkpt lat="42.2273750" lon="-5.8465680">
        <ele>764.2</ele>
        <time>2021-10-12T11:24:01Z</time>
      </trkpt>
      <trkpt lat="42.2273020" lon="-5.8465220">
        <ele>764.2</ele>
        <time>2021-10-12T11:24:03Z</time>
      </trkpt>
      <trkpt lat="42.2272080" lon="-5.8464330">
        <ele>764.4</ele>
        <time>2021-10-12T11:24:06Z</time>
      </trkpt>
      <trkpt lat="42.2270690" lon="-5.8463270">
        <ele>764.4</ele>
        <time>2021-10-12T11:24:10Z</time>
      </trkpt>
      <trkpt lat="42.2269590" lon="-5.8462450">
        <ele>764.2</ele>
        <time>2021-10-12T11:24:13Z</time>
      </trkpt>
      <trkpt lat="42.2267650" lon="-5.8460940">
        <ele>764.0</ele>
        <time>2021-10-12T11:24:19Z</time>
      </trkpt>
      <trkpt lat="42.2264920" lon="-5.8459120">
        <ele>764.0</ele>
        <time>2021-10-12T11:24:27Z</time>
      </trkpt>
      <trkpt lat="42.2264520" lon="-5.8458960">
        <ele>764.0</ele>
        <time>2021-10-12T11:24:28Z</time>
      </trkpt>
      <trkpt lat="42.2262620" lon="-5.8458850">
        <ele>764.0</ele>
        <time>2021-10-12T11:24:33Z</time>
      </trkpt>
      <trkpt lat="42.2261810" lon="-5.8459020">
        <ele>763.8</ele>
        <time>2021-10-12T11:24:35Z</time>
      </trkpt>
      <trkpt lat="42.2259900" lon="-5.8458960">
        <ele>763.8</ele>
        <time>2021-10-12T11:24:40Z</time>
      </trkpt>
      <trkpt lat="42.2257160" lon="-5.8458890">
        <ele>763.8</ele>
        <time>2021-10-12T11:24:47Z</time>
      </trkpt>
      <trkpt lat="42.2254760" lon="-5.8458910">
        <ele>763.8</ele>
        <time>2021-10-12T11:24:53Z</time>
      </trkpt>
      <trkpt lat="42.2254360" lon="-5.8458910">
        <ele>763.8</ele>
        <time>2021-10-12T11:24:54Z</time>
      </trkpt>
      <trkpt lat="42.2250770" lon="-5.8458770">
        <ele>763.8</ele>
        <time>2021-10-12T11:25:03Z</time>
      </trkpt>
      <trkpt lat="42.2249110" lon="-5.8458740">
        <ele>763.6</ele>
        <time>2021-10-12T11:25:07Z</time>
      </trkpt>
      <trkpt lat="42.2247920" lon="-5.8458670">
        <ele>763.6</ele>
        <time>2021-10-12T11:25:10Z</time>
      </trkpt>
      <trkpt lat="42.2246840" lon="-5.8458720">
        <ele>763.6</ele>
        <time>2021-10-12T11:25:13Z</time>
      </trkpt>
      <trkpt lat="42.2245340" lon="-5.8458730">
        <ele>763.6</ele>
        <time>2021-10-12T11:25:17Z</time>
      </trkpt>
      <trkpt lat="42.2242960" lon="-5.8458700">
        <ele>763.4</ele>
        <time>2021-10-12T11:25:23Z</time>
      </trkpt>
      <trkpt lat="42.2241190" lon="-5.8458630">
        <ele>763.4</ele>
        <time>2021-10-12T11:25:28Z</time>
      </trkpt>
      <trkpt lat="42.2240060" lon="-5.8458480">
        <ele>763.4</ele>
        <time>2021-10-12T11:25:31Z</time>
      </trkpt>
      <trkpt lat="42.2238890" lon="-5.8458440">
        <ele>763.2</ele>
        <time>2021-10-12T11:25:34Z</time>
      </trkpt>
      <trkpt lat="42.2237690" lon="-5.8458410">
        <ele>763.2</ele>
        <time>2021-10-12T11:25:37Z</time>
      </trkpt>
      <trkpt lat="42.2237280" lon="-5.8458380">
        <ele>763.2</ele>
        <time>2021-10-12T11:25:38Z</time>
      </trkpt>
      <trkpt lat="42.2236880" lon="-5.8458380">
        <ele>763.2</ele>
        <time>2021-10-12T11:25:39Z</time>
      </trkpt>
      <trkpt lat="42.2233190" lon="-5.8458240">
        <ele>763.0</ele>
        <time>2021-10-12T11:25:48Z</time>
      </trkpt>
      <trkpt lat="42.2230830" lon="-5.8458150">
        <ele>763.0</ele>
        <time>2021-10-12T11:25:54Z</time>
      </trkpt>
      <trkpt lat="42.2230140" lon="-5.8458200">
        <ele>763.0</ele>
        <time>2021-10-12T11:25:56Z</time>
      </trkpt>
      <trkpt lat="42.2228410" lon="-5.8458140">
        <ele>763.0</ele>
        <time>2021-10-12T11:26:01Z</time>
      </trkpt>
      <trkpt lat="42.2226890" lon="-5.8458160">
        <ele>763.0</ele>
        <time>2021-10-12T11:26:05Z</time>
      </trkpt>
      <trkpt lat="42.2225310" lon="-5.8458160">
        <ele>763.0</ele>
        <time>2021-10-12T11:26:09Z</time>
      </trkpt>
      <trkpt lat="42.2224130" lon="-5.8458140">
        <ele>763.0</ele>
        <time>2021-10-12T11:26:12Z</time>
      </trkpt>
      <trkpt lat="42.2221490" lon="-5.8458100">
        <ele>763.0</ele>
        <time>2021-10-12T11:26:19Z</time>
      </trkpt>
      <trkpt lat="42.2219520" lon="-5.8458100">
        <ele>763.2</ele>
        <time>2021-10-12T11:26:24Z</time>
      </trkpt>
      <trkpt lat="42.2218710" lon="-5.8458080">
        <ele>763.2</ele>
        <time>2021-10-12T11:26:26Z</time>
      </trkpt>
      <trkpt lat="42.2217540" lon="-5.8458080">
        <ele>763.2</ele>
        <time>2021-10-12T11:26:29Z</time>
      </trkpt>
      <trkpt lat="42.2215920" lon="-5.8458030">
        <ele>763.2</ele>
        <time>2021-10-12T11:26:33Z</time>
      </trkpt>
      <trkpt lat="42.2212680" lon="-5.8457950">
        <ele>763.2</ele>
        <time>2021-10-12T11:26:41Z</time>
      </trkpt>
      <trkpt lat="42.2211910" lon="-5.8457940">
        <ele>763.2</ele>
        <time>2021-10-12T11:26:43Z</time>
      </trkpt>
      <trkpt lat="42.2210220" lon="-5.8457890">
        <ele>763.0</ele>
        <time>2021-10-12T11:26:47Z</time>
      </trkpt>
      <trkpt lat="42.2208070" lon="-5.8457830">
        <ele>762.8</ele>
        <time>2021-10-12T11:26:52Z</time>
      </trkpt>
      <trkpt lat="42.2207220" lon="-5.8457760">
        <ele>762.8</ele>
        <time>2021-10-12T11:26:54Z</time>
      </trkpt>
      <trkpt lat="42.2204580" lon="-5.8457660">
        <ele>763.0</ele>
        <time>2021-10-12T11:27:01Z</time>
      </trkpt>
      <trkpt lat="42.2203390" lon="-5.8457610">
        <ele>764.2</ele>
        <time>2021-10-12T11:27:07Z</time>
      </trkpt>
      <trkpt lat="42.2203380" lon="-5.8457620">
        <ele>764.4</ele>
        <time>2021-10-12T11:27:09Z</time>
      </trkpt>
      <trkpt lat="42.2202840" lon="-5.8458000">
        <ele>764.4</ele>
        <time>2021-10-12T11:27:13Z</time>
      </trkpt>
      <trkpt lat="42.2202590" lon="-5.8458080">
        <ele>764.6</ele>
        <time>2021-10-12T11:27:14Z</time>
      </trkpt>
      <trkpt lat="42.2201680" lon="-5.8458570">
        <ele>764.6</ele>
        <time>2021-10-12T11:27:17Z</time>
      </trkpt>
      <trkpt lat="42.2200880" lon="-5.8458950">
        <ele>764.4</ele>
        <time>2021-10-12T11:27:19Z</time>
      </trkpt>
      <trkpt lat="42.2198100" lon="-5.8460080">
        <ele>763.2</ele>
        <time>2021-10-12T11:27:25Z</time>
      </trkpt>
      <trkpt lat="42.2195670" lon="-5.8460910">
        <ele>763.0</ele>
        <time>2021-10-12T11:27:30Z</time>
      </trkpt>
      <trkpt lat="42.2194720" lon="-5.8461220">
        <ele>763.0</ele>
        <time>2021-10-12T11:27:32Z</time>
      </trkpt>
      <trkpt lat="42.2193320" lon="-5.8461680">
        <ele>762.8</ele>
        <time>2021-10-12T11:27:35Z</time>
      </trkpt>
      <trkpt lat="42.2191480" lon="-5.8462300">
        <ele>762.8</ele>
        <time>2021-10-12T11:27:39Z</time>
      </trkpt>
      <trkpt lat="42.2189250" lon="-5.8463000">
        <ele>762.6</ele>
        <time>2021-10-12T11:27:44Z</time>
      </trkpt>
      <trkpt lat="42.2188350" lon="-5.8463280">
        <ele>762.4</ele>
        <time>2021-10-12T11:27:46Z</time>
      </trkpt>
      <trkpt lat="42.2184030" lon="-5.8464780">
        <ele>762.2</ele>
        <time>2021-10-12T11:27:56Z</time>
      </trkpt>
      <trkpt lat="42.2182740" lon="-5.8465250">
        <ele>762.2</ele>
        <time>2021-10-12T11:27:59Z</time>
      </trkpt>
      <trkpt lat="42.2181090" lon="-5.8465940">
        <ele>762.0</ele>
        <time>2021-10-12T11:28:03Z</time>
      </trkpt>
      <trkpt lat="42.2177890" lon="-5.8467040">
        <ele>762.2</ele>
        <time>2021-10-12T11:28:11Z</time>
      </trkpt>
      <trkpt lat="42.2176210" lon="-5.8467620">
        <ele>762.4</ele>
        <time>2021-10-12T11:28:15Z</time>
      </trkpt>
      <trkpt lat="42.2174450" lon="-5.8468190">
        <ele>762.6</ele>
        <time>2021-10-12T11:28:19Z</time>
      </trkpt>
      <trkpt lat="42.2174020" lon="-5.8468360">
        <ele>762.6</ele>
        <time>2021-10-12T11:28:20Z</time>
      </trkpt>
      <trkpt lat="42.2172340" lon="-5.8469210">
        <ele>762.6</ele>
        <time>2021-10-12T11:28:24Z</time>
      </trkpt>
      <trkpt lat="42.2171940" lon="-5.8469460">
        <ele>762.6</ele>
        <time>2021-10-12T11:28:25Z</time>
      </trkpt>
      <trkpt lat="42.2170520" lon="-5.8470800">
        <ele>762.2</ele>
        <time>2021-10-12T11:28:29Z</time>
      </trkpt>
      <trkpt lat="42.2167620" lon="-5.8473670">
        <ele>762.0</ele>
        <time>2021-10-12T11:28:37Z</time>
      </trkpt>
      <trkpt lat="42.2165000" lon="-5.8476230">
        <ele>762.0</ele>
        <time>2021-10-12T11:28:44Z</time>
      </trkpt>
      <trkpt lat="42.2164320" lon="-5.8477000">
        <ele>762.0</ele>
        <time>2021-10-12T11:28:46Z</time>
      </trkpt>
      <trkpt lat="42.2163590" lon="-5.8477710">
        <ele>762.0</ele>
        <time>2021-10-12T11:28:48Z</time>
      </trkpt>
      <trkpt lat="42.2159710" lon="-5.8481190">
        <ele>761.6</ele>
        <time>2021-10-12T11:28:58Z</time>
      </trkpt>
      <trkpt lat="42.2158160" lon="-5.8482580">
        <ele>761.6</ele>
        <time>2021-10-12T11:29:02Z</time>
      </trkpt>
      <trkpt lat="42.2157430" lon="-5.8483340">
        <ele>761.4</ele>
        <time>2021-10-12T11:29:04Z</time>
      </trkpt>
      <trkpt lat="42.2157010" lon="-5.8483700">
        <ele>761.4</ele>
        <time>2021-10-12T11:29:05Z</time>
      </trkpt>
      <trkpt lat="42.2156630" lon="-5.8484090">
        <ele>761.4</ele>
        <time>2021-10-12T11:29:06Z</time>
      </trkpt>
      <trkpt lat="42.2153920" lon="-5.8486680">
        <ele>761.4</ele>
        <time>2021-10-12T11:29:13Z</time>
      </trkpt>
      <trkpt lat="42.2151940" lon="-5.8488540">
        <ele>761.4</ele>
        <time>2021-10-12T11:29:18Z</time>
      </trkpt>
      <trkpt lat="42.2150370" lon="-5.8489950">
        <ele>761.4</ele>
        <time>2021-10-12T11:29:22Z</time>
      </trkpt>
      <trkpt lat="42.2148870" lon="-5.8491420">
        <ele>761.4</ele>
        <time>2021-10-12T11:29:26Z</time>
      </trkpt>
      <trkpt lat="42.2147670" lon="-5.8492500">
        <ele>761.0</ele>
        <time>2021-10-12T11:29:29Z</time>
      </trkpt>
      <trkpt lat="42.2145790" lon="-5.8494310">
        <ele>760.8</ele>
        <time>2021-10-12T11:29:34Z</time>
      </trkpt>
      <trkpt lat="42.2144040" lon="-5.8496010">
        <ele>760.8</ele>
        <time>2021-10-12T11:29:39Z</time>
      </trkpt>
      <trkpt lat="42.2143300" lon="-5.8496670">
        <ele>761.0</ele>
        <time>2021-10-12T11:29:41Z</time>
      </trkpt>
      <trkpt lat="42.2142900" lon="-5.8496970">
        <ele>761.0</ele>
        <time>2021-10-12T11:29:42Z</time>
      </trkpt>
      <trkpt lat="42.2141590" lon="-5.8497720">
        <ele>761.0</ele>
        <time>2021-10-12T11:29:45Z</time>
      </trkpt>
      <trkpt lat="42.2140710" lon="-5.8498050">
        <ele>761.0</ele>
        <time>2021-10-12T11:29:47Z</time>
      </trkpt>
      <trkpt lat="42.2139830" lon="-5.8498260">
        <ele>761.0</ele>
        <time>2021-10-12T11:29:49Z</time>
      </trkpt>
      <trkpt lat="42.2139400" lon="-5.8498370">
        <ele>761.2</ele>
        <time>2021-10-12T11:29:50Z</time>
      </trkpt>
      <trkpt lat="42.2137060" lon="-5.8498800">
        <ele>760.8</ele>
        <time>2021-10-12T11:29:55Z</time>
      </trkpt>
      <trkpt lat="42.2135620" lon="-5.8499010">
        <ele>761.0</ele>
        <time>2021-10-12T11:29:58Z</time>
      </trkpt>
      <trkpt lat="42.2134190" lon="-5.8499250">
        <ele>761.0</ele>
        <time>2021-10-12T11:30:01Z</time>
      </trkpt>
      <trkpt lat="42.2131010" lon="-5.8499770">
        <ele>761.2</ele>
        <time>2021-10-12T11:30:08Z</time>
      </trkpt>
      <trkpt lat="42.2129780" lon="-5.8500020">
        <ele>761.0</ele>
        <time>2021-10-12T11:30:11Z</time>
      </trkpt>
      <trkpt lat="42.2129080" lon="-5.8500160">
        <ele>761.0</ele>
        <time>2021-10-12T11:30:13Z</time>
      </trkpt>
      <trkpt lat="42.2128010" lon="-5.8500360">
        <ele>761.0</ele>
        <time>2021-10-12T11:30:16Z</time>
      </trkpt>
      <trkpt lat="42.2125870" lon="-5.8500690">
        <ele>760.8</ele>
        <time>2021-10-12T11:30:22Z</time>
      </trkpt>
      <trkpt lat="42.2124480" lon="-5.8500650">
        <ele>761.2</ele>
        <time>2021-10-12T11:30:26Z</time>
      </trkpt>
      <trkpt lat="42.2123800" lon="-5.8500710">
        <ele>761.2</ele>
        <time>2021-10-12T11:30:28Z</time>
      </trkpt>
      <trkpt lat="42.2121470" lon="-5.8500870">
        <ele>761.2</ele>
        <time>2021-10-12T11:30:35Z</time>
      </trkpt>
      <trkpt lat="42.2119970" lon="-5.8500650">
        <ele>761.2</ele>
        <time>2021-10-12T11:30:39Z</time>
      </trkpt>
      <trkpt lat="42.2118560" lon="-5.8500460">
        <ele>761.0</ele>
        <time>2021-10-12T11:30:43Z</time>
      </trkpt>
      <trkpt lat="42.2115960" lon="-5.8499940">
        <ele>760.8</ele>
        <time>2021-10-12T11:30:50Z</time>
      </trkpt>
      <trkpt lat="42.2114850" lon="-5.8499810">
        <ele>761.0</ele>
        <time>2021-10-12T11:30:53Z</time>
      </trkpt>
      <trkpt lat="42.2113640" lon="-5.8499630">
        <ele>761.0</ele>
        <time>2021-10-12T11:30:56Z</time>
      </trkpt>
      <trkpt lat="42.2112810" lon="-5.8499440">
        <ele>761.0</ele>
        <time>2021-10-12T11:30:58Z</time>
      </trkpt>
      <trkpt lat="42.2110730" lon="-5.8499070">
        <ele>761.2</ele>
        <time>2021-10-12T11:31:03Z</time>
      </trkpt>
      <trkpt lat="42.2109580" lon="-5.8498880">
        <ele>761.4</ele>
        <time>2021-10-12T11:31:06Z</time>
      </trkpt>
      <trkpt lat="42.2108430" lon="-5.8498600">
        <ele>761.4</ele>
        <time>2021-10-12T11:31:09Z</time>
      </trkpt>
      <trkpt lat="42.2106950" lon="-5.8498300">
        <ele>761.4</ele>
        <time>2021-10-12T11:31:13Z</time>
      </trkpt>
      <trkpt lat="42.2104050" lon="-5.8497650">
        <ele>761.0</ele>
        <time>2021-10-12T11:31:21Z</time>
      </trkpt>
      <trkpt lat="42.2102840" lon="-5.8497330">
        <ele>760.8</ele>
        <time>2021-10-12T11:31:24Z</time>
      </trkpt>
      <trkpt lat="42.2101040" lon="-5.8496890">
        <ele>761.0</ele>
        <time>2021-10-12T11:31:29Z</time>
      </trkpt>
      <trkpt lat="42.2098530" lon="-5.8496430">
        <ele>761.8</ele>
        <time>2021-10-12T11:31:36Z</time>
      </trkpt>
      <trkpt lat="42.2096400" lon="-5.8496100">
        <ele>761.6</ele>
        <time>2021-10-12T11:31:40Z</time>
      </trkpt>
      <trkpt lat="42.2095340" lon="-5.8496050">
        <ele>761.4</ele>
        <time>2021-10-12T11:31:42Z</time>
      </trkpt>
      <trkpt lat="42.2094330" lon="-5.8496130">
        <ele>761.2</ele>
        <time>2021-10-12T11:31:44Z</time>
      </trkpt>
      <trkpt lat="42.2093350" lon="-5.8496280">
        <ele>761.0</ele>
        <time>2021-10-12T11:31:46Z</time>
      </trkpt>
      <trkpt lat="42.2091830" lon="-5.8496670">
        <ele>760.8</ele>
        <time>2021-10-12T11:31:49Z</time>
      </trkpt>
      <trkpt lat="42.2091330" lon="-5.8496820">
        <ele>760.8</ele>
        <time>2021-10-12T11:31:50Z</time>
      </trkpt>
      <trkpt lat="42.2090340" lon="-5.8497000">
        <ele>760.6</ele>
        <time>2021-10-12T11:31:52Z</time>
      </trkpt>
      <trkpt lat="42.2088470" lon="-5.8497300">
        <ele>760.4</ele>
        <time>2021-10-12T11:31:56Z</time>
      </trkpt>
      <trkpt lat="42.2087910" lon="-5.8497440">
        <ele>760.4</ele>
        <time>2021-10-12T11:31:57Z</time>
      </trkpt>
      <trkpt lat="42.2085740" lon="-5.8497990">
        <ele>760.4</ele>
        <time>2021-10-12T11:32:02Z</time>
      </trkpt>
      <trkpt lat="42.2084500" lon="-5.8498320">
        <ele>760.4</ele>
        <time>2021-10-12T11:32:05Z</time>
      </trkpt>
      <trkpt lat="42.2083310" lon="-5.8498710">
        <ele>760.4</ele>
        <time>2021-10-12T11:32:08Z</time>
      </trkpt>
      <trkpt lat="42.2082160" lon="-5.8499050">
        <ele>760.4</ele>
        <time>2021-10-12T11:32:11Z</time>
      </trkpt>
      <trkpt lat="42.2081790" lon="-5.8499250">
        <ele>760.4</ele>
        <time>2021-10-12T11:32:12Z</time>
      </trkpt>
      <trkpt lat="42.2080440" lon="-5.8500050">
        <ele>760.4</ele>
        <time>2021-10-12T11:32:16Z</time>
      </trkpt>
      <trkpt lat="42.2078880" lon="-5.8501080">
        <ele>760.4</ele>
        <time>2021-10-12T11:32:21Z</time>
      </trkpt>
      <trkpt lat="42.2076220" lon="-5.8502730">
        <ele>760.2</ele>
        <time>2021-10-12T11:32:29Z</time>
      </trkpt>
      <trkpt lat="42.2073150" lon="-5.8504380">
        <ele>760.0</ele>
        <time>2021-10-12T11:32:38Z</time>
      </trkpt>
      <trkpt lat="42.2070100" lon="-5.8505990">
        <ele>760.0</ele>
        <time>2021-10-12T11:32:46Z</time>
      </trkpt>
      <trkpt lat="42.2066950" lon="-5.8507540">
        <ele>760.0</ele>
        <time>2021-10-12T11:32:55Z</time>
      </trkpt>
      <trkpt lat="42.2064150" lon="-5.8509030">
        <ele>760.0</ele>
        <time>2021-10-12T11:33:04Z</time>
      </trkpt>
      <trkpt lat="42.2062440" lon="-5.8509810">
        <ele>760.2</ele>
        <time>2021-10-12T11:33:10Z</time>
      </trkpt>
      <trkpt lat="42.2062060" lon="-5.8510050">
        <ele>760.2</ele>
        <time>2021-10-12T11:33:11Z</time>
      </trkpt>
      <trkpt lat="42.2061300" lon="-5.8510320">
        <ele>760.2</ele>
        <time>2021-10-12T11:33:13Z</time>
      </trkpt>
      <trkpt lat="42.2060940" lon="-5.8510330">
        <ele>760.2</ele>
        <time>2021-10-12T11:33:14Z</time>
      </trkpt>
      <trkpt lat="42.2059800" lon="-5.8510660">
        <ele>760.2</ele>
        <time>2021-10-12T11:33:17Z</time>
      </trkpt>
      <trkpt lat="42.2057600" lon="-5.8510610">
        <ele>759.8</ele>
        <time>2021-10-12T11:33:23Z</time>
      </trkpt>
      <trkpt lat="42.2056150" lon="-5.8510280">
        <ele>759.8</ele>
        <time>2021-10-12T11:33:27Z</time>
      </trkpt>
      <trkpt lat="42.2055370" lon="-5.8509970">
        <ele>759.8</ele>
        <time>2021-10-12T11:33:29Z</time>
      </trkpt>
      <trkpt lat="42.2052230" lon="-5.8508660">
        <ele>759.8</ele>
        <time>2021-10-12T11:33:37Z</time>
      </trkpt>
      <trkpt lat="42.2049410" lon="-5.8507510">
        <ele>759.6</ele>
        <time>2021-10-12T11:33:44Z</time>
      </trkpt>
      <trkpt lat="42.2046580" lon="-5.8506250">
        <ele>759.8</ele>
        <time>2021-10-12T11:33:52Z</time>
      </trkpt>
      <trkpt lat="42.2046240" lon="-5.8506110">
        <ele>759.8</ele>
        <time>2021-10-12T11:33:53Z</time>
      </trkpt>
      <trkpt lat="42.2043390" lon="-5.8505410">
        <ele>760.4</ele>
        <time>2021-10-12T11:34:01Z</time>
      </trkpt>
      <trkpt lat="42.2042150" lon="-5.8505140">
        <ele>760.4</ele>
        <time>2021-10-12T11:34:04Z</time>
      </trkpt>
      <trkpt lat="42.2040610" lon="-5.8504890">
        <ele>760.4</ele>
        <time>2021-10-12T11:34:08Z</time>
      </trkpt>
      <trkpt lat="42.2039440" lon="-5.8504600">
        <ele>760.4</ele>
        <time>2021-10-12T11:34:11Z</time>
      </trkpt>
      <trkpt lat="42.2036060" lon="-5.8504500">
        <ele>760.4</ele>
        <time>2021-10-12T11:34:20Z</time>
      </trkpt>
      <trkpt lat="42.2033610" lon="-5.8504670">
        <ele>760.2</ele>
        <time>2021-10-12T11:34:27Z</time>
      </trkpt>
      <trkpt lat="42.2032530" lon="-5.8504690">
        <ele>760.2</ele>
        <time>2021-10-12T11:34:30Z</time>
      </trkpt>
      <trkpt lat="42.2029950" lon="-5.8504850">
        <ele>760.8</ele>
        <time>2021-10-12T11:34:37Z</time>
      </trkpt>
      <trkpt lat="42.2028330" lon="-5.8504940">
        <ele>760.8</ele>
        <time>2021-10-12T11:34:41Z</time>
      </trkpt>
      <trkpt lat="42.2025890" lon="-5.8504770">
        <ele>760.6</ele>
        <time>2021-10-12T11:34:47Z</time>
      </trkpt>
      <trkpt lat="42.2024690" lon="-5.8504760">
        <ele>760.6</ele>
        <time>2021-10-12T11:34:50Z</time>
      </trkpt>
      <trkpt lat="42.2023460" lon="-5.8504820">
        <ele>760.6</ele>
        <time>2021-10-12T11:34:53Z</time>
      </trkpt>
      <trkpt lat="42.2022630" lon="-5.8504900">
        <ele>760.6</ele>
        <time>2021-10-12T11:34:55Z</time>
      </trkpt>
      <trkpt lat="42.2021890" lon="-5.8505120">
        <ele>760.6</ele>
        <time>2021-10-12T11:34:57Z</time>
      </trkpt>
      <trkpt lat="42.2020380" lon="-5.8505840">
        <ele>760.8</ele>
        <time>2021-10-12T11:35:01Z</time>
      </trkpt>
      <trkpt lat="42.2019630" lon="-5.8506250">
        <ele>760.8</ele>
        <time>2021-10-12T11:35:03Z</time>
      </trkpt>
      <trkpt lat="42.2018180" lon="-5.8506980">
        <ele>760.6</ele>
        <time>2021-10-12T11:35:07Z</time>
      </trkpt>
      <trkpt lat="42.2016490" lon="-5.8507780">
        <ele>760.6</ele>
        <time>2021-10-12T11:35:11Z</time>
      </trkpt>
      <trkpt lat="42.2016070" lon="-5.8508000">
        <ele>760.6</ele>
        <time>2021-10-12T11:35:12Z</time>
      </trkpt>
      <trkpt lat="42.2014750" lon="-5.8508570">
        <ele>760.6</ele>
        <time>2021-10-12T11:35:15Z</time>
      </trkpt>
      <trkpt lat="42.2012960" lon="-5.8509400">
        <ele>760.6</ele>
        <time>2021-10-12T11:35:19Z</time>
      </trkpt>
      <trkpt lat="42.2011630" lon="-5.8510030">
        <ele>760.4</ele>
        <time>2021-10-12T11:35:22Z</time>
      </trkpt>
      <trkpt lat="42.2009900" lon="-5.8510950">
        <ele>760.2</ele>
        <time>2021-10-12T11:35:26Z</time>
      </trkpt>
      <trkpt lat="42.2008510" lon="-5.8511540">
        <ele>760.2</ele>
        <time>2021-10-12T11:35:29Z</time>
      </trkpt>
      <trkpt lat="42.2007120" lon="-5.8512200">
        <ele>760.2</ele>
        <time>2021-10-12T11:35:32Z</time>
      </trkpt>
      <trkpt lat="42.2004860" lon="-5.8513370">
        <ele>760.0</ele>
        <time>2021-10-12T11:35:37Z</time>
      </trkpt>
      <trkpt lat="42.2003550" lon="-5.8513950">
        <ele>760.0</ele>
        <time>2021-10-12T11:35:40Z</time>
      </trkpt>
      <trkpt lat="42.2000420" lon="-5.8515300">
        <ele>760.2</ele>
        <time>2021-10-12T11:35:47Z</time>
      </trkpt>
      <trkpt lat="42.1996820" lon="-5.8516400">
        <ele>760.2</ele>
        <time>2021-10-12T11:35:55Z</time>
      </trkpt>
      <trkpt lat="42.1996370" lon="-5.8516410">
        <ele>760.2</ele>
        <time>2021-10-12T11:35:56Z</time>
      </trkpt>
      <trkpt lat="42.1994180" lon="-5.8516010">
        <ele>760.2</ele>
        <time>2021-10-12T11:36:01Z</time>
      </trkpt>
      <trkpt lat="42.1992760" lon="-5.8515620">
        <ele>760.2</ele>
        <time>2021-10-12T11:36:04Z</time>
      </trkpt>
      <trkpt lat="42.1990380" lon="-5.8514900">
        <ele>760.0</ele>
        <time>2021-10-12T11:36:09Z</time>
      </trkpt>
      <trkpt lat="42.1988990" lon="-5.8514500">
        <ele>760.0</ele>
        <time>2021-10-12T11:36:12Z</time>
      </trkpt>
      <trkpt lat="42.1988170" lon="-5.8514220">
        <ele>760.0</ele>
        <time>2021-10-12T11:36:14Z</time>
      </trkpt>
      <trkpt lat="42.1985390" lon="-5.8513190">
        <ele>759.8</ele>
        <time>2021-10-12T11:36:20Z</time>
      </trkpt>
      <trkpt lat="42.1984430" lon="-5.8512820">
        <ele>759.8</ele>
        <time>2021-10-12T11:36:22Z</time>
      </trkpt>
      <trkpt lat="42.1982650" lon="-5.8511980">
        <ele>759.6</ele>
        <time>2021-10-12T11:36:26Z</time>
      </trkpt>
      <trkpt lat="42.1981310" lon="-5.8511440">
        <ele>759.4</ele>
        <time>2021-10-12T11:36:29Z</time>
      </trkpt>
      <trkpt lat="42.1978150" lon="-5.8510180">
        <ele>759.2</ele>
        <time>2021-10-12T11:36:36Z</time>
      </trkpt>
      <trkpt lat="42.1976370" lon="-5.8509500">
        <ele>759.2</ele>
        <time>2021-10-12T11:36:40Z</time>
      </trkpt>
      <trkpt lat="42.1974120" lon="-5.8508730">
        <ele>759.2</ele>
        <time>2021-10-12T11:36:45Z</time>
      </trkpt>
      <trkpt lat="42.1971500" lon="-5.8507660">
        <ele>759.2</ele>
        <time>2021-10-12T11:36:51Z</time>
      </trkpt>
      <trkpt lat="42.1971060" lon="-5.8507490">
        <ele>759.2</ele>
        <time>2021-10-12T11:36:52Z</time>
      </trkpt>
      <trkpt lat="42.1970180" lon="-5.8507120">
        <ele>759.0</ele>
        <time>2021-10-12T11:36:54Z</time>
      </trkpt>
      <trkpt lat="42.1968380" lon="-5.8506500">
        <ele>759.0</ele>
        <time>2021-10-12T11:36:58Z</time>
      </trkpt>
      <trkpt lat="42.1967060" lon="-5.8505980">
        <ele>759.0</ele>
        <time>2021-10-12T11:37:01Z</time>
      </trkpt>
      <trkpt lat="42.1965740" lon="-5.8505530">
        <ele>759.0</ele>
        <time>2021-10-12T11:37:04Z</time>
      </trkpt>
      <trkpt lat="42.1964050" lon="-5.8504870">
        <ele>758.6</ele>
        <time>2021-10-12T11:37:08Z</time>
      </trkpt>
      <trkpt lat="42.1962770" lon="-5.8504310">
        <ele>758.6</ele>
        <time>2021-10-12T11:37:11Z</time>
      </trkpt>
      <trkpt lat="42.1961920" lon="-5.8503970">
        <ele>758.6</ele>
        <time>2021-10-12T11:37:13Z</time>
      </trkpt>
      <trkpt lat="42.1959780" lon="-5.8503120">
        <ele>758.8</ele>
        <time>2021-10-12T11:37:18Z</time>
      </trkpt>
      <trkpt lat="42.1957210" lon="-5.8502040">
        <ele>758.8</ele>
        <time>2021-10-12T11:37:24Z</time>
      </trkpt>
      <trkpt lat="42.1956770" lon="-5.8501850">
        <ele>758.8</ele>
        <time>2021-10-12T11:37:25Z</time>
      </trkpt>
      <trkpt lat="42.1954190" lon="-5.8500760">
        <ele>758.8</ele>
        <time>2021-10-12T11:37:32Z</time>
      </trkpt>
      <trkpt lat="42.1952220" lon="-5.8499580">
        <ele>759.6</ele>
        <time>2021-10-12T11:37:39Z</time>
      </trkpt>
      <trkpt lat="42.1949190" lon="-5.8498650">
        <ele>760.2</ele>
        <time>2021-10-12T11:37:47Z</time>
      </trkpt>
      <trkpt lat="42.1947860" lon="-5.8498180">
        <ele>760.0</ele>
        <time>2021-10-12T11:37:50Z</time>
      </trkpt>
      <trkpt lat="42.1946930" lon="-5.8497850">
        <ele>759.8</ele>
        <time>2021-10-12T11:37:52Z</time>
      </trkpt>
      <trkpt lat="42.1945580" lon="-5.8497410">
        <ele>759.4</ele>
        <time>2021-10-12T11:37:55Z</time>
      </trkpt>
      <trkpt lat="42.1941740" lon="-5.8495980">
        <ele>758.8</ele>
        <time>2021-10-12T11:38:03Z</time>
      </trkpt>
      <trkpt lat="42.1938980" lon="-5.8494940">
        <ele>758.6</ele>
        <time>2021-10-12T11:38:09Z</time>
      </trkpt>
      <trkpt lat="42.1937680" lon="-5.8494410">
        <ele>758.8</ele>
        <time>2021-10-12T11:38:12Z</time>
      </trkpt>
      <trkpt lat="42.1935420" lon="-5.8493450">
        <ele>758.6</ele>
        <time>2021-10-12T11:38:17Z</time>
      </trkpt>
      <trkpt lat="42.1934970" lon="-5.8493260">
        <ele>758.6</ele>
        <time>2021-10-12T11:38:18Z</time>
      </trkpt>
      <trkpt lat="42.1934480" lon="-5.8493030">
        <ele>758.4</ele>
        <time>2021-10-12T11:38:19Z</time>
      </trkpt>
      <trkpt lat="42.1930730" lon="-5.8491660">
        <ele>758.4</ele>
        <time>2021-10-12T11:38:27Z</time>
      </trkpt>
      <trkpt lat="42.1928870" lon="-5.8490930">
        <ele>758.4</ele>
        <time>2021-10-12T11:38:31Z</time>
      </trkpt>
      <trkpt lat="42.1926900" lon="-5.8490210">
        <ele>758.4</ele>
        <time>2021-10-12T11:38:35Z</time>
      </trkpt>
      <trkpt lat="42.1924180" lon="-5.8489110">
        <ele>758.2</ele>
        <time>2021-10-12T11:38:41Z</time>
      </trkpt>
      <trkpt lat="42.1922710" lon="-5.8488510">
        <ele>758.2</ele>
        <time>2021-10-12T11:38:44Z</time>
      </trkpt>
      <trkpt lat="42.1921390" lon="-5.8487990">
        <ele>758.2</ele>
        <time>2021-10-12T11:38:47Z</time>
      </trkpt>
      <trkpt lat="42.1918180" lon="-5.8486670">
        <ele>758.2</ele>
        <time>2021-10-12T11:38:54Z</time>
      </trkpt>
      <trkpt lat="42.1915060" lon="-5.8485280">
        <ele>758.2</ele>
        <time>2021-10-12T11:39:01Z</time>
      </trkpt>
      <trkpt lat="42.1913250" lon="-5.8484560">
        <ele>758.2</ele>
        <time>2021-10-12T11:39:04Z</time>
      </trkpt>
      <trkpt lat="42.1909710" lon="-5.8483130">
        <ele>758.0</ele>
        <time>2021-10-12T11:39:12Z</time>
      </trkpt>
      <trkpt lat="42.1906660" lon="-5.8482050">
        <ele>758.4</ele>
        <time>2021-10-12T11:39:19Z</time>
      </trkpt>
      <trkpt lat="42.1905350" lon="-5.8481460">
        <ele>758.4</ele>
        <time>2021-10-12T11:39:22Z</time>
      </trkpt>
      <trkpt lat="42.1904460" lon="-5.8481090">
        <ele>758.4</ele>
        <time>2021-10-12T11:39:24Z</time>
      </trkpt>
      <trkpt lat="42.1901340" lon="-5.8479990">
        <ele>758.2</ele>
        <time>2021-10-12T11:39:31Z</time>
      </trkpt>
      <trkpt lat="42.1895800" lon="-5.8477730">
        <ele>757.8</ele>
        <time>2021-10-12T11:39:43Z</time>
      </trkpt>
      <trkpt lat="42.1894940" lon="-5.8477390">
        <ele>757.8</ele>
        <time>2021-10-12T11:39:45Z</time>
      </trkpt>
      <trkpt lat="42.1891200" lon="-5.8475920">
        <ele>758.0</ele>
        <time>2021-10-12T11:39:54Z</time>
      </trkpt>
      <trkpt lat="42.1888690" lon="-5.8474920">
        <ele>758.0</ele>
        <time>2021-10-12T11:40:00Z</time>
      </trkpt>
      <trkpt lat="42.1887420" lon="-5.8474440">
        <ele>758.0</ele>
        <time>2021-10-12T11:40:03Z</time>
      </trkpt>
      <trkpt lat="42.1886540" lon="-5.8474210">
        <ele>758.0</ele>
        <time>2021-10-12T11:40:05Z</time>
      </trkpt>
      <trkpt lat="42.1885220" lon="-5.8473880">
        <ele>758.0</ele>
        <time>2021-10-12T11:40:08Z</time>
      </trkpt>
      <trkpt lat="42.1883090" lon="-5.8473420">
        <ele>757.8</ele>
        <time>2021-10-12T11:40:14Z</time>
      </trkpt>
      <trkpt lat="42.1881830" lon="-5.8473110">
        <ele>757.8</ele>
        <time>2021-10-12T11:40:16Z</time>
      </trkpt>
      <trkpt lat="42.1878060" lon="-5.8471620">
        <ele>757.6</ele>
        <time>2021-10-12T11:40:25Z</time>
      </trkpt>
      <trkpt lat="42.1874770" lon="-5.8470330">
        <ele>757.6</ele>
        <time>2021-10-12T11:40:33Z</time>
      </trkpt>
      <trkpt lat="42.1872520" lon="-5.8469300">
        <ele>757.8</ele>
        <time>2021-10-12T11:40:38Z</time>
      </trkpt>
      <trkpt lat="42.1870320" lon="-5.8468410">
        <ele>757.8</ele>
        <time>2021-10-12T11:40:43Z</time>
      </trkpt>
      <trkpt lat="42.1869870" lon="-5.8468160">
        <ele>757.8</ele>
        <time>2021-10-12T11:40:44Z</time>
      </trkpt>
      <trkpt lat="42.1869430" lon="-5.8467960">
        <ele>757.8</ele>
        <time>2021-10-12T11:40:45Z</time>
      </trkpt>
      <trkpt lat="42.1868130" lon="-5.8467430">
        <ele>757.6</ele>
        <time>2021-10-12T11:40:48Z</time>
      </trkpt>
      <trkpt lat="42.1865890" lon="-5.8466570">
        <ele>757.6</ele>
        <time>2021-10-12T11:40:53Z</time>
      </trkpt>
      <trkpt lat="42.1863140" lon="-5.8465480">
        <ele>757.8</ele>
        <time>2021-10-12T11:41:00Z</time>
      </trkpt>
      <trkpt lat="42.1860940" lon="-5.8464620">
        <ele>757.4</ele>
        <time>2021-10-12T11:41:05Z</time>
      </trkpt>
      <trkpt lat="42.1859270" lon="-5.8464050">
        <ele>757.2</ele>
        <time>2021-10-12T11:41:09Z</time>
      </trkpt>
      <trkpt lat="42.1856580" lon="-5.8463030">
        <ele>757.0</ele>
        <time>2021-10-12T11:41:15Z</time>
      </trkpt>
      <trkpt lat="42.1854450" lon="-5.8462240">
        <ele>757.0</ele>
        <time>2021-10-12T11:41:20Z</time>
      </trkpt>
      <trkpt lat="42.1853100" lon="-5.8461690">
        <ele>757.0</ele>
        <time>2021-10-12T11:41:23Z</time>
      </trkpt>
      <trkpt lat="42.1852250" lon="-5.8461390">
        <ele>757.0</ele>
        <time>2021-10-12T11:41:25Z</time>
      </trkpt>
      <trkpt lat="42.1851390" lon="-5.8461050">
        <ele>757.0</ele>
        <time>2021-10-12T11:41:27Z</time>
      </trkpt>
      <trkpt lat="42.1850550" lon="-5.8460750">
        <ele>757.0</ele>
        <time>2021-10-12T11:41:29Z</time>
      </trkpt>
      <trkpt lat="42.1849250" lon="-5.8460360">
        <ele>757.0</ele>
        <time>2021-10-12T11:41:32Z</time>
      </trkpt>
      <trkpt lat="42.1848500" lon="-5.8460110">
        <ele>756.8</ele>
        <time>2021-10-12T11:41:34Z</time>
      </trkpt>
      <trkpt lat="42.1847660" lon="-5.8459950">
        <ele>757.0</ele>
        <time>2021-10-12T11:41:36Z</time>
      </trkpt>
      <trkpt lat="42.1846350" lon="-5.8459250">
        <ele>757.0</ele>
        <time>2021-10-12T11:41:39Z</time>
      </trkpt>
      <trkpt lat="42.1845600" lon="-5.8458970">
        <ele>757.0</ele>
        <time>2021-10-12T11:41:41Z</time>
      </trkpt>
      <trkpt lat="42.1842090" lon="-5.8457440">
        <ele>757.0</ele>
        <time>2021-10-12T11:41:49Z</time>
      </trkpt>
      <trkpt lat="42.1839800" lon="-5.8456220">
        <ele>757.0</ele>
        <time>2021-10-12T11:41:56Z</time>
      </trkpt>
      <trkpt lat="42.1839000" lon="-5.8455860">
        <ele>757.6</ele>
        <time>2021-10-12T11:42:00Z</time>
      </trkpt>
      <trkpt lat="42.1838540" lon="-5.8455860">
        <ele>758.2</ele>
        <time>2021-10-12T11:42:03Z</time>
      </trkpt>
      <trkpt lat="42.1838100" lon="-5.8455690">
        <ele>758.4</ele>
        <time>2021-10-12T11:42:08Z</time>
      </trkpt>
      <trkpt lat="42.1837410" lon="-5.8455540">
        <ele>758.2</ele>
        <time>2021-10-12T11:43:01Z</time>
      </trkpt>
      <trkpt lat="42.1836780" lon="-5.8455380">
        <ele>758.2</ele>
        <time>2021-10-12T11:43:03Z</time>
      </trkpt>
      <trkpt lat="42.1834520" lon="-5.8454980">
        <ele>757.6</ele>
        <time>2021-10-12T11:43:09Z</time>
      </trkpt>
      <trkpt lat="42.1830980" lon="-5.8453870">
        <ele>756.8</ele>
        <time>2021-10-12T11:43:17Z</time>
      </trkpt>
      <trkpt lat="42.1830600" lon="-5.8453760">
        <ele>756.8</ele>
        <time>2021-10-12T11:43:18Z</time>
      </trkpt>
      <trkpt lat="42.1829120" lon="-5.8453260">
        <ele>756.6</ele>
        <time>2021-10-12T11:43:21Z</time>
      </trkpt>
      <trkpt lat="42.1827660" lon="-5.8452770">
        <ele>756.6</ele>
        <time>2021-10-12T11:43:24Z</time>
      </trkpt>
      <trkpt lat="42.1823710" lon="-5.8451570">
        <ele>756.8</ele>
        <time>2021-10-12T11:43:33Z</time>
      </trkpt>
      <trkpt lat="42.1819900" lon="-5.8450650">
        <ele>756.8</ele>
        <time>2021-10-12T11:43:41Z</time>
      </trkpt>
      <trkpt lat="42.1815540" lon="-5.8449360">
        <ele>756.6</ele>
        <time>2021-10-12T11:43:50Z</time>
      </trkpt>
      <trkpt lat="42.1812160" lon="-5.8448390">
        <ele>756.4</ele>
        <time>2021-10-12T11:43:57Z</time>
      </trkpt>
      <trkpt lat="42.1811190" lon="-5.8448080">
        <ele>756.2</ele>
        <time>2021-10-12T11:43:59Z</time>
      </trkpt>
      <trkpt lat="42.1806920" lon="-5.8446700">
        <ele>756.4</ele>
        <time>2021-10-12T11:44:08Z</time>
      </trkpt>
      <trkpt lat="42.1803470" lon="-5.8445720">
        <ele>756.8</ele>
        <time>2021-10-12T11:44:15Z</time>
      </trkpt>
      <trkpt lat="42.1800830" lon="-5.8444870">
        <ele>756.8</ele>
        <time>2021-10-12T11:44:21Z</time>
      </trkpt>
      <trkpt lat="42.1799950" lon="-5.8444660">
        <ele>756.8</ele>
        <time>2021-10-12T11:44:23Z</time>
      </trkpt>
      <trkpt lat="42.1798180" lon="-5.8444190">
        <ele>756.6</ele>
        <time>2021-10-12T11:44:27Z</time>
      </trkpt>
      <trkpt lat="42.1795980" lon="-5.8443500">
        <ele>756.8</ele>
        <time>2021-10-12T11:44:32Z</time>
      </trkpt>
      <trkpt lat="42.1795000" lon="-5.8443170">
        <ele>756.8</ele>
        <time>2021-10-12T11:44:34Z</time>
      </trkpt>
      <trkpt lat="42.1792430" lon="-5.8442230">
        <ele>756.8</ele>
        <time>2021-10-12T11:44:40Z</time>
      </trkpt>
      <trkpt lat="42.1788510" lon="-5.8441040">
        <ele>756.8</ele>
        <time>2021-10-12T11:44:49Z</time>
      </trkpt>
      <trkpt lat="42.1786800" lon="-5.8440580">
        <ele>756.6</ele>
        <time>2021-10-12T11:44:53Z</time>
      </trkpt>
      <trkpt lat="42.1786050" lon="-5.8440390">
        <ele>756.6</ele>
        <time>2021-10-12T11:44:55Z</time>
      </trkpt>
      <trkpt lat="42.1785170" lon="-5.8440020">
        <ele>756.6</ele>
        <time>2021-10-12T11:44:57Z</time>
      </trkpt>
      <trkpt lat="42.1782790" lon="-5.8438560">
        <ele>756.6</ele>
        <time>2021-10-12T11:45:03Z</time>
      </trkpt>
      <trkpt lat="42.1781640" lon="-5.8437870">
        <ele>756.6</ele>
        <time>2021-10-12T11:45:06Z</time>
      </trkpt>
      <trkpt lat="42.1780430" lon="-5.8437100">
        <ele>756.4</ele>
        <time>2021-10-12T11:45:10Z</time>
      </trkpt>
      <trkpt lat="42.1780150" lon="-5.8436900">
        <ele>756.4</ele>
        <time>2021-10-12T11:45:11Z</time>
      </trkpt>
      <trkpt lat="42.1779500" lon="-5.8436530">
        <ele>756.4</ele>
        <time>2021-10-12T11:45:13Z</time>
      </trkpt>
      <trkpt lat="42.1778330" lon="-5.8435700">
        <ele>756.2</ele>
        <time>2021-10-12T11:45:16Z</time>
      </trkpt>
      <trkpt lat="42.1777970" lon="-5.8435470">
        <ele>756.2</ele>
        <time>2021-10-12T11:45:17Z</time>
      </trkpt>
      <trkpt lat="42.1774860" lon="-5.8433550">
        <ele>756.2</ele>
        <time>2021-10-12T11:45:25Z</time>
      </trkpt>
      <trkpt lat="42.1772590" lon="-5.8432070">
        <ele>756.0</ele>
        <time>2021-10-12T11:45:31Z</time>
      </trkpt>
      <trkpt lat="42.1771440" lon="-5.8431260">
        <ele>756.0</ele>
        <time>2021-10-12T11:45:34Z</time>
      </trkpt>
      <trkpt lat="42.1770270" lon="-5.8430440">
        <ele>756.0</ele>
        <time>2021-10-12T11:45:37Z</time>
      </trkpt>
      <trkpt lat="42.1767920" lon="-5.8429140">
        <ele>756.0</ele>
        <time>2021-10-12T11:45:43Z</time>
      </trkpt>
      <trkpt lat="42.1765540" lon="-5.8427800">
        <ele>756.0</ele>
        <time>2021-10-12T11:45:49Z</time>
      </trkpt>
      <trkpt lat="42.1764830" lon="-5.8427360">
        <ele>756.2</ele>
        <time>2021-10-12T11:45:51Z</time>
      </trkpt>
      <trkpt lat="42.1763330" lon="-5.8426430">
        <ele>756.2</ele>
        <time>2021-10-12T11:45:55Z</time>
      </trkpt>
      <trkpt lat="42.1762200" lon="-5.8425520">
        <ele>756.2</ele>
        <time>2021-10-12T11:45:58Z</time>
      </trkpt>
      <trkpt lat="42.1761520" lon="-5.8424960">
        <ele>756.2</ele>
        <time>2021-10-12T11:46:00Z</time>
      </trkpt>
      <trkpt lat="42.1760230" lon="-5.8423330">
        <ele>756.2</ele>
        <time>2021-10-12T11:46:04Z</time>
      </trkpt>
      <trkpt lat="42.1757750" lon="-5.8419670">
        <ele>756.0</ele>
        <time>2021-10-12T11:46:12Z</time>
      </trkpt>
      <trkpt lat="42.1756870" lon="-5.8418210">
        <ele>755.8</ele>
        <time>2021-10-12T11:46:15Z</time>
      </trkpt>
      <trkpt lat="42.1755150" lon="-5.8415130">
        <ele>755.4</ele>
        <time>2021-10-12T11:46:21Z</time>
      </trkpt>
      <trkpt lat="42.1752370" lon="-5.8410070">
        <ele>755.2</ele>
        <time>2021-10-12T11:46:31Z</time>
      </trkpt>
      <trkpt lat="42.1750600" lon="-5.8406900">
        <ele>755.8</ele>
        <time>2021-10-12T11:46:38Z</time>
      </trkpt>
      <trkpt lat="42.1750230" lon="-5.8406300">
        <ele>755.8</ele>
        <time>2021-10-12T11:46:39Z</time>
      </trkpt>
      <trkpt lat="42.1747360" lon="-5.8401250">
        <ele>755.4</ele>
        <time>2021-10-12T11:46:49Z</time>
      </trkpt>
      <trkpt lat="42.1746150" lon="-5.8399270">
        <ele>755.2</ele>
        <time>2021-10-12T11:46:53Z</time>
      </trkpt>
      <trkpt lat="42.1745060" lon="-5.8397330">
        <ele>755.6</ele>
        <time>2021-10-12T11:46:57Z</time>
      </trkpt>
      <trkpt lat="42.1742750" lon="-5.8393340">
        <ele>755.2</ele>
        <time>2021-10-12T11:47:04Z</time>
      </trkpt>
      <trkpt lat="42.1741980" lon="-5.8391910">
        <ele>755.2</ele>
        <time>2021-10-12T11:47:07Z</time>
      </trkpt>
      <trkpt lat="42.1741270" lon="-5.8390490">
        <ele>755.2</ele>
        <time>2021-10-12T11:47:10Z</time>
      </trkpt>
      <trkpt lat="42.1739850" lon="-5.8387740">
        <ele>755.4</ele>
        <time>2021-10-12T11:47:16Z</time>
      </trkpt>
      <trkpt lat="42.1739330" lon="-5.8386780">
        <ele>755.4</ele>
        <time>2021-10-12T11:47:18Z</time>
      </trkpt>
      <trkpt lat="42.1738870" lon="-5.8385930">
        <ele>755.2</ele>
        <time>2021-10-12T11:47:20Z</time>
      </trkpt>
      <trkpt lat="42.1737530" lon="-5.8383450">
        <ele>755.2</ele>
        <time>2021-10-12T11:47:25Z</time>
      </trkpt>
      <trkpt lat="42.1736940" lon="-5.8382330">
        <ele>755.0</ele>
        <time>2021-10-12T11:47:27Z</time>
      </trkpt>
      <trkpt lat="42.1735180" lon="-5.8379380">
        <ele>755.0</ele>
        <time>2021-10-12T11:47:33Z</time>
      </trkpt>
      <trkpt lat="42.1733160" lon="-5.8375330">
        <ele>755.0</ele>
        <time>2021-10-12T11:47:41Z</time>
      </trkpt>
      <trkpt lat="42.1732360" lon="-5.8373720">
        <ele>755.0</ele>
        <time>2021-10-12T11:47:44Z</time>
      </trkpt>
      <trkpt lat="42.1731700" lon="-5.8372230">
        <ele>755.0</ele>
        <time>2021-10-12T11:47:47Z</time>
      </trkpt>
      <trkpt lat="42.1731440" lon="-5.8371590">
        <ele>755.0</ele>
        <time>2021-10-12T11:47:48Z</time>
      </trkpt>
      <trkpt lat="42.1730440" lon="-5.8369100">
        <ele>755.2</ele>
        <time>2021-10-12T11:47:53Z</time>
      </trkpt>
      <trkpt lat="42.1730050" lon="-5.8368020">
        <ele>755.2</ele>
        <time>2021-10-12T11:47:55Z</time>
      </trkpt>
      <trkpt lat="42.1728520" lon="-5.8364820">
        <ele>755.2</ele>
        <time>2021-10-12T11:48:01Z</time>
      </trkpt>
      <trkpt lat="42.1728010" lon="-5.8363770">
        <ele>755.0</ele>
        <time>2021-10-12T11:48:03Z</time>
      </trkpt>
      <trkpt lat="42.1726790" lon="-5.8361150">
        <ele>755.0</ele>
        <time>2021-10-12T11:48:08Z</time>
      </trkpt>
      <trkpt lat="42.1726550" lon="-5.8360580">
        <ele>755.0</ele>
        <time>2021-10-12T11:48:09Z</time>
      </trkpt>
      <trkpt lat="42.1725610" lon="-5.8358470">
        <ele>755.0</ele>
        <time>2021-10-12T11:48:13Z</time>
      </trkpt>
      <trkpt lat="42.1725360" lon="-5.8357910">
        <ele>755.0</ele>
        <time>2021-10-12T11:48:14Z</time>
      </trkpt>
      <trkpt lat="42.1724360" lon="-5.8355770">
        <ele>755.2</ele>
        <time>2021-10-12T11:48:18Z</time>
      </trkpt>
      <trkpt lat="42.1723720" lon="-5.8354120">
        <ele>755.2</ele>
        <time>2021-10-12T11:48:21Z</time>
      </trkpt>
      <trkpt lat="42.1723500" lon="-5.8353640">
        <ele>755.2</ele>
        <time>2021-10-12T11:48:22Z</time>
      </trkpt>
      <trkpt lat="42.1721190" lon="-5.8348800">
        <ele>755.0</ele>
        <time>2021-10-12T11:48:31Z</time>
      </trkpt>
      <trkpt lat="42.1720040" lon="-5.8346310">
        <ele>754.8</ele>
        <time>2021-10-12T11:48:36Z</time>
      </trkpt>
      <trkpt lat="42.1719430" lon="-5.8344930">
        <ele>755.0</ele>
        <time>2021-10-12T11:48:39Z</time>
      </trkpt>
      <trkpt lat="42.1718680" lon="-5.8343380">
        <ele>755.2</ele>
        <time>2021-10-12T11:48:42Z</time>
      </trkpt>
      <trkpt lat="42.1717270" lon="-5.8340450">
        <ele>755.2</ele>
        <time>2021-10-12T11:48:48Z</time>
      </trkpt>
      <trkpt lat="42.1716850" lon="-5.8339480">
        <ele>755.0</ele>
        <time>2021-10-12T11:48:50Z</time>
      </trkpt>
      <trkpt lat="42.1716170" lon="-5.8338030">
        <ele>754.8</ele>
        <time>2021-10-12T11:48:53Z</time>
      </trkpt>
      <trkpt lat="42.1715480" lon="-5.8336450">
        <ele>754.8</ele>
        <time>2021-10-12T11:48:56Z</time>
      </trkpt>
      <trkpt lat="42.1715220" lon="-5.8335940">
        <ele>754.8</ele>
        <time>2021-10-12T11:48:57Z</time>
      </trkpt>
      <trkpt lat="42.1714680" lon="-5.8334930">
        <ele>754.8</ele>
        <time>2021-10-12T11:48:59Z</time>
      </trkpt>
      <trkpt lat="42.1713730" lon="-5.8332900">
        <ele>754.8</ele>
        <time>2021-10-12T11:49:03Z</time>
      </trkpt>
      <trkpt lat="42.1712270" lon="-5.8329810">
        <ele>754.8</ele>
        <time>2021-10-12T11:49:09Z</time>
      </trkpt>
      <trkpt lat="42.1712000" lon="-5.8329280">
        <ele>754.8</ele>
        <time>2021-10-12T11:49:10Z</time>
      </trkpt>
      <trkpt lat="42.1711680" lon="-5.8328770">
        <ele>754.6</ele>
        <time>2021-10-12T11:49:11Z</time>
      </trkpt>
      <trkpt lat="42.1711360" lon="-5.8328270">
        <ele>754.6</ele>
        <time>2021-10-12T11:49:12Z</time>
      </trkpt>
      <trkpt lat="42.1710310" lon="-5.8326310">
        <ele>754.2</ele>
        <time>2021-10-12T11:49:16Z</time>
      </trkpt>
      <trkpt lat="42.1708550" lon="-5.8323530">
        <ele>754.2</ele>
        <time>2021-10-12T11:49:22Z</time>
      </trkpt>
      <trkpt lat="42.1707980" lon="-5.8322460">
        <ele>754.2</ele>
        <time>2021-10-12T11:49:25Z</time>
      </trkpt>
      <trkpt lat="42.1707410" lon="-5.8321570">
        <ele>754.2</ele>
        <time>2021-10-12T11:49:26Z</time>
      </trkpt>
      <trkpt lat="42.1705610" lon="-5.8318950">
        <ele>754.0</ele>
        <time>2021-10-12T11:49:31Z</time>
      </trkpt>
      <trkpt lat="42.1703470" lon="-5.8316430">
        <ele>754.0</ele>
        <time>2021-10-12T11:49:37Z</time>
      </trkpt>
      <trkpt lat="42.1701700" lon="-5.8314570">
        <ele>753.4</ele>
        <time>2021-10-12T11:49:42Z</time>
      </trkpt>
      <trkpt lat="42.1700990" lon="-5.8313840">
        <ele>753.4</ele>
        <time>2021-10-12T11:49:44Z</time>
      </trkpt>
      <trkpt lat="42.1698970" lon="-5.8311250">
        <ele>753.6</ele>
        <time>2021-10-12T11:49:51Z</time>
      </trkpt>
      <trkpt lat="42.1697540" lon="-5.8309650">
        <ele>753.6</ele>
        <time>2021-10-12T11:49:56Z</time>
      </trkpt>
      <trkpt lat="42.1696900" lon="-5.8309000">
        <ele>753.4</ele>
        <time>2021-10-12T11:49:58Z</time>
      </trkpt>
      <trkpt lat="42.1694980" lon="-5.8307090">
        <ele>753.4</ele>
        <time>2021-10-12T11:50:04Z</time>
      </trkpt>
      <trkpt lat="42.1693860" lon="-5.8305480">
        <ele>753.4</ele>
        <time>2021-10-12T11:50:08Z</time>
      </trkpt>
      <trkpt lat="42.1693560" lon="-5.8304410">
        <ele>753.4</ele>
        <time>2021-10-12T11:50:10Z</time>
      </trkpt>
      <trkpt lat="42.1693880" lon="-5.8302610">
        <ele>753.2</ele>
        <time>2021-10-12T11:50:14Z</time>
      </trkpt>
      <trkpt lat="42.1693970" lon="-5.8301060">
        <ele>753.0</ele>
        <time>2021-10-12T11:50:18Z</time>
      </trkpt>
      <trkpt lat="42.1693790" lon="-5.8300680">
        <ele>753.0</ele>
        <time>2021-10-12T11:50:19Z</time>
      </trkpt>
      <trkpt lat="42.1693230" lon="-5.8300170">
        <ele>752.8</ele>
        <time>2021-10-12T11:50:21Z</time>
      </trkpt>
      <trkpt lat="42.1691180" lon="-5.8299720">
        <ele>752.8</ele>
        <time>2021-10-12T11:50:27Z</time>
      </trkpt>
      <trkpt lat="42.1690030" lon="-5.8299540">
        <ele>753.0</ele>
        <time>2021-10-12T11:50:30Z</time>
      </trkpt>
      <trkpt lat="42.1687250" lon="-5.8298840">
        <ele>753.0</ele>
        <time>2021-10-12T11:50:37Z</time>
      </trkpt>
      <trkpt lat="42.1684580" lon="-5.8297730">
        <ele>753.0</ele>
        <time>2021-10-12T11:50:43Z</time>
      </trkpt>
      <trkpt lat="42.1683840" lon="-5.8297380">
        <ele>753.0</ele>
        <time>2021-10-12T11:50:45Z</time>
      </trkpt>
      <trkpt lat="42.1682940" lon="-5.8297010">
        <ele>752.8</ele>
        <time>2021-10-12T11:50:47Z</time>
      </trkpt>
      <trkpt lat="42.1682080" lon="-5.8296750">
        <ele>752.8</ele>
        <time>2021-10-12T11:50:49Z</time>
      </trkpt>
      <trkpt lat="42.1681310" lon="-5.8296480">
        <ele>752.6</ele>
        <time>2021-10-12T11:50:51Z</time>
      </trkpt>
      <trkpt lat="42.1678340" lon="-5.8295590">
        <ele>752.6</ele>
        <time>2021-10-12T11:50:58Z</time>
      </trkpt>
      <trkpt lat="42.1677920" lon="-5.8295470">
        <ele>752.8</ele>
        <time>2021-10-12T11:50:59Z</time>
      </trkpt>
      <trkpt lat="42.1675390" lon="-5.8294640">
        <ele>753.0</ele>
        <time>2021-10-12T11:51:05Z</time>
      </trkpt>
      <trkpt lat="42.1674080" lon="-5.8294100">
        <ele>752.8</ele>
        <time>2021-10-12T11:51:08Z</time>
      </trkpt>
      <trkpt lat="42.1671600" lon="-5.8292960">
        <ele>753.0</ele>
        <time>2021-10-12T11:51:14Z</time>
      </trkpt>
      <trkpt lat="42.1670710" lon="-5.8292570">
        <ele>752.8</ele>
        <time>2021-10-12T11:51:16Z</time>
      </trkpt>
      <trkpt lat="42.1669540" lon="-5.8292350">
        <ele>752.8</ele>
        <time>2021-10-12T11:51:19Z</time>
      </trkpt>
      <trkpt lat="42.1666950" lon="-5.8292100">
        <ele>753.0</ele>
        <time>2021-10-12T11:51:26Z</time>
      </trkpt>
      <trkpt lat="42.1664120" lon="-5.8291880">
        <ele>753.2</ele>
        <time>2021-10-12T11:51:33Z</time>
      </trkpt>
      <trkpt lat="42.1661560" lon="-5.8291270">
        <ele>753.0</ele>
        <time>2021-10-12T11:51:38Z</time>
      </trkpt>
      <trkpt lat="42.1661100" lon="-5.8291090">
        <ele>752.8</ele>
        <time>2021-10-12T11:51:39Z</time>
      </trkpt>
      <trkpt lat="42.1658970" lon="-5.8290180">
        <ele>752.6</ele>
        <time>2021-10-12T11:51:44Z</time>
      </trkpt>
      <trkpt lat="42.1658160" lon="-5.8289780">
        <ele>752.6</ele>
        <time>2021-10-12T11:51:46Z</time>
      </trkpt>
      <trkpt lat="42.1656530" lon="-5.8289090">
        <ele>752.6</ele>
        <time>2021-10-12T11:51:50Z</time>
      </trkpt>
      <trkpt lat="42.1655730" lon="-5.8288720">
        <ele>752.4</ele>
        <time>2021-10-12T11:51:52Z</time>
      </trkpt>
      <trkpt lat="42.1655340" lon="-5.8288550">
        <ele>752.4</ele>
        <time>2021-10-12T11:51:53Z</time>
      </trkpt>
      <trkpt lat="42.1654620" lon="-5.8288270">
        <ele>752.4</ele>
        <time>2021-10-12T11:51:55Z</time>
      </trkpt>
      <trkpt lat="42.1652980" lon="-5.8287520">
        <ele>752.2</ele>
        <time>2021-10-12T11:51:59Z</time>
      </trkpt>
      <trkpt lat="42.1652300" lon="-5.8287210">
        <ele>752.2</ele>
        <time>2021-10-12T11:52:01Z</time>
      </trkpt>
      <trkpt lat="42.1651120" lon="-5.8286780">
        <ele>752.2</ele>
        <time>2021-10-12T11:52:04Z</time>
      </trkpt>
      <trkpt lat="42.1649380" lon="-5.8286250">
        <ele>752.4</ele>
        <time>2021-10-12T11:52:08Z</time>
      </trkpt>
      <trkpt lat="42.1647780" lon="-5.8285530">
        <ele>752.4</ele>
        <time>2021-10-12T11:52:12Z</time>
      </trkpt>
      <trkpt lat="42.1646560" lon="-5.8284690">
        <ele>752.4</ele>
        <time>2021-10-12T11:52:16Z</time>
      </trkpt>
      <trkpt lat="42.1646060" lon="-5.8284320">
        <ele>752.6</ele>
        <time>2021-10-12T11:52:18Z</time>
      </trkpt>
      <trkpt lat="42.1644920" lon="-5.8283520">
        <ele>752.6</ele>
        <time>2021-10-12T11:52:23Z</time>
      </trkpt>
      <trkpt lat="42.1644550" lon="-5.8283320">
        <ele>753.0</ele>
        <time>2021-10-12T11:52:25Z</time>
      </trkpt>
      <trkpt lat="42.1644220" lon="-5.8283410">
        <ele>753.2</ele>
        <time>2021-10-12T11:52:27Z</time>
      </trkpt>
      <trkpt lat="42.1643960" lon="-5.8283960">
        <ele>753.6</ele>
        <time>2021-10-12T11:52:30Z</time>
      </trkpt>
      <trkpt lat="42.1644010" lon="-5.8284460">
        <ele>753.8</ele>
        <time>2021-10-12T11:52:32Z</time>
      </trkpt>
      <trkpt lat="42.1644030" lon="-5.8286400">
        <ele>753.8</ele>
        <time>2021-10-12T11:52:39Z</time>
      </trkpt>
      <trkpt lat="42.1643940" lon="-5.8289740">
        <ele>753.6</ele>
        <time>2021-10-12T11:52:47Z</time>
      </trkpt>
      <trkpt lat="42.1643980" lon="-5.8292600">
        <ele>753.4</ele>
        <time>2021-10-12T11:52:53Z</time>
      </trkpt>
      <trkpt lat="42.1644000" lon="-5.8293230">
        <ele>753.4</ele>
        <time>2021-10-12T11:52:55Z</time>
      </trkpt>
      <trkpt lat="42.1643810" lon="-5.8294050">
        <ele>753.0</ele>
        <time>2021-10-12T11:52:58Z</time>
      </trkpt>
      <trkpt lat="42.1643340" lon="-5.8294410">
        <ele>752.8</ele>
        <time>2021-10-12T11:53:00Z</time>
      </trkpt>
      <trkpt lat="42.1641210" lon="-5.8294130">
        <ele>752.8</ele>
        <time>2021-10-12T11:53:06Z</time>
      </trkpt>
      <trkpt lat="42.1638620" lon="-5.8293330">
        <ele>753.0</ele>
        <time>2021-10-12T11:53:13Z</time>
      </trkpt>
      <trkpt lat="42.1634580" lon="-5.8292830">
        <ele>752.8</ele>
        <time>2021-10-12T11:53:23Z</time>
      </trkpt>
      <trkpt lat="42.1631720" lon="-5.8293630">
        <ele>752.8</ele>
        <time>2021-10-12T11:53:30Z</time>
      </trkpt>
      <trkpt lat="42.1628380" lon="-5.8295260">
        <ele>752.8</ele>
        <time>2021-10-12T11:53:38Z</time>
      </trkpt>
      <trkpt lat="42.1625580" lon="-5.8296540">
        <ele>752.6</ele>
        <time>2021-10-12T11:53:44Z</time>
      </trkpt>
      <trkpt lat="42.1625120" lon="-5.8296780">
        <ele>752.6</ele>
        <time>2021-10-12T11:53:45Z</time>
      </trkpt>
      <trkpt lat="42.1623370" lon="-5.8297740">
        <ele>752.6</ele>
        <time>2021-10-12T11:53:49Z</time>
      </trkpt>
      <trkpt lat="42.1620700" lon="-5.8299160">
        <ele>752.6</ele>
        <time>2021-10-12T11:53:55Z</time>
      </trkpt>
      <trkpt lat="42.1618300" lon="-5.8300380">
        <ele>752.6</ele>
        <time>2021-10-12T11:54:00Z</time>
      </trkpt>
      <trkpt lat="42.1615420" lon="-5.8301880">
        <ele>752.6</ele>
        <time>2021-10-12T11:54:06Z</time>
      </trkpt>
      <trkpt lat="42.1611080" lon="-5.8304120">
        <ele>752.4</ele>
        <time>2021-10-12T11:54:15Z</time>
      </trkpt>
      <trkpt lat="42.1608530" lon="-5.8305400">
        <ele>752.4</ele>
        <time>2021-10-12T11:54:20Z</time>
      </trkpt>
      <trkpt lat="42.1606480" lon="-5.8306480">
        <ele>752.4</ele>
        <time>2021-10-12T11:54:24Z</time>
      </trkpt>
      <trkpt lat="42.1601910" lon="-5.8308850">
        <ele>752.2</ele>
        <time>2021-10-12T11:54:33Z</time>
      </trkpt>
      <trkpt lat="42.1599910" lon="-5.8309960">
        <ele>752.4</ele>
        <time>2021-10-12T11:54:37Z</time>
      </trkpt>
      <trkpt lat="42.1597450" lon="-5.8311260">
        <ele>752.2</ele>
        <time>2021-10-12T11:54:42Z</time>
      </trkpt>
      <trkpt lat="42.1595930" lon="-5.8312000">
        <ele>752.2</ele>
        <time>2021-10-12T11:54:45Z</time>
      </trkpt>
      <trkpt lat="42.1592920" lon="-5.8313570">
        <ele>752.2</ele>
        <time>2021-10-12T11:54:51Z</time>
      </trkpt>
      <trkpt lat="42.1592030" lon="-5.8314010">
        <ele>752.2</ele>
        <time>2021-10-12T11:54:53Z</time>
      </trkpt>
      <trkpt lat="42.1590000" lon="-5.8315030">
        <ele>752.0</ele>
        <time>2021-10-12T11:54:57Z</time>
      </trkpt>
      <trkpt lat="42.1587920" lon="-5.8316090">
        <ele>752.0</ele>
        <time>2021-10-12T11:55:01Z</time>
      </trkpt>
      <trkpt lat="42.1585990" lon="-5.8317120">
        <ele>752.0</ele>
        <time>2021-10-12T11:55:05Z</time>
      </trkpt>
      <trkpt lat="42.1581630" lon="-5.8319480">
        <ele>751.8</ele>
        <time>2021-10-12T11:55:14Z</time>
      </trkpt>
      <trkpt lat="42.1577610" lon="-5.8321510">
        <ele>751.6</ele>
        <time>2021-10-12T11:55:22Z</time>
      </trkpt>
      <trkpt lat="42.1573070" lon="-5.8323930">
        <ele>751.6</ele>
        <time>2021-10-12T11:55:31Z</time>
      </trkpt>
      <trkpt lat="42.1569630" lon="-5.8325720">
        <ele>751.6</ele>
        <time>2021-10-12T11:55:38Z</time>
      </trkpt>
      <trkpt lat="42.1567150" lon="-5.8327050">
        <ele>751.6</ele>
        <time>2021-10-12T11:55:43Z</time>
      </trkpt>
      <trkpt lat="42.1565670" lon="-5.8327820">
        <ele>751.6</ele>
        <time>2021-10-12T11:55:46Z</time>
      </trkpt>
      <trkpt lat="42.1561650" lon="-5.8329850">
        <ele>751.6</ele>
        <time>2021-10-12T11:55:54Z</time>
      </trkpt>
      <trkpt lat="42.1559730" lon="-5.8330840">
        <ele>751.6</ele>
        <time>2021-10-12T11:55:58Z</time>
      </trkpt>
      <trkpt lat="42.1557800" lon="-5.8331830">
        <ele>751.4</ele>
        <time>2021-10-12T11:56:02Z</time>
      </trkpt>
      <trkpt lat="42.1556810" lon="-5.8332320">
        <ele>751.4</ele>
        <time>2021-10-12T11:56:04Z</time>
      </trkpt>
      <trkpt lat="42.1555920" lon="-5.8332770">
        <ele>751.4</ele>
        <time>2021-10-12T11:56:06Z</time>
      </trkpt>
      <trkpt lat="42.1552840" lon="-5.8334330">
        <ele>751.4</ele>
        <time>2021-10-12T11:56:12Z</time>
      </trkpt>
      <trkpt lat="42.1550470" lon="-5.8335510">
        <ele>751.2</ele>
        <time>2021-10-12T11:56:17Z</time>
      </trkpt>
      <trkpt lat="42.1549140" lon="-5.8336260">
        <ele>751.2</ele>
        <time>2021-10-12T11:56:20Z</time>
      </trkpt>
      <trkpt lat="42.1547180" lon="-5.8337250">
        <ele>751.2</ele>
        <time>2021-10-12T11:56:24Z</time>
      </trkpt>
      <trkpt lat="42.1542400" lon="-5.8339740">
        <ele>751.0</ele>
        <time>2021-10-12T11:56:34Z</time>
      </trkpt>
      <trkpt lat="42.1540460" lon="-5.8340730">
        <ele>751.0</ele>
        <time>2021-10-12T11:56:38Z</time>
      </trkpt>
      <trkpt lat="42.1539040" lon="-5.8341410">
        <ele>751.0</ele>
        <time>2021-10-12T11:56:41Z</time>
      </trkpt>
      <trkpt lat="42.1537660" lon="-5.8342130">
        <ele>751.0</ele>
        <time>2021-10-12T11:56:44Z</time>
      </trkpt>
      <trkpt lat="42.1533430" lon="-5.8344370">
        <ele>751.2</ele>
        <time>2021-10-12T11:56:53Z</time>
      </trkpt>
      <trkpt lat="42.1532480" lon="-5.8344820">
        <ele>751.2</ele>
        <time>2021-10-12T11:56:55Z</time>
      </trkpt>
      <trkpt lat="42.1530080" lon="-5.8346080">
        <ele>751.2</ele>
        <time>2021-10-12T11:57:00Z</time>
      </trkpt>
      <trkpt lat="42.1528620" lon="-5.8346840">
        <ele>751.0</ele>
        <time>2021-10-12T11:57:03Z</time>
      </trkpt>
      <trkpt lat="42.1526640" lon="-5.8347880">
        <ele>751.0</ele>
        <time>2021-10-12T11:57:07Z</time>
      </trkpt>
      <trkpt lat="42.1523140" lon="-5.8349670">
        <ele>750.8</ele>
        <time>2021-10-12T11:57:14Z</time>
      </trkpt>
      <trkpt lat="42.1519140" lon="-5.8351680">
        <ele>750.8</ele>
        <time>2021-10-12T11:57:22Z</time>
      </trkpt>
      <trkpt lat="42.1517110" lon="-5.8352760">
        <ele>750.6</ele>
        <time>2021-10-12T11:57:26Z</time>
      </trkpt>
      <trkpt lat="42.1515110" lon="-5.8353800">
        <ele>750.6</ele>
        <time>2021-10-12T11:57:30Z</time>
      </trkpt>
      <trkpt lat="42.1514100" lon="-5.8354340">
        <ele>750.6</ele>
        <time>2021-10-12T11:57:32Z</time>
      </trkpt>
      <trkpt lat="42.1510920" lon="-5.8356060">
        <ele>750.6</ele>
        <time>2021-10-12T11:57:38Z</time>
      </trkpt>
      <trkpt lat="42.1508030" lon="-5.8357520">
        <ele>750.6</ele>
        <time>2021-10-12T11:57:44Z</time>
      </trkpt>
      <trkpt lat="42.1506580" lon="-5.8358280">
        <ele>750.6</ele>
        <time>2021-10-12T11:57:47Z</time>
      </trkpt>
      <trkpt lat="42.1503480" lon="-5.8359920">
        <ele>750.8</ele>
        <time>2021-10-12T11:57:53Z</time>
      </trkpt>
      <trkpt lat="42.1502990" lon="-5.8360190">
        <ele>750.8</ele>
        <time>2021-10-12T11:57:54Z</time>
      </trkpt>
      <trkpt lat="42.1499010" lon="-5.8362370">
        <ele>750.8</ele>
        <time>2021-10-12T11:58:02Z</time>
      </trkpt>
      <trkpt lat="42.1494750" lon="-5.8364660">
        <ele>750.8</ele>
        <time>2021-10-12T11:58:10Z</time>
      </trkpt>
      <trkpt lat="42.1492030" lon="-5.8366040">
        <ele>750.8</ele>
        <time>2021-10-12T11:58:16Z</time>
      </trkpt>
      <trkpt lat="42.1491160" lon="-5.8366480">
        <ele>751.0</ele>
        <time>2021-10-12T11:58:18Z</time>
      </trkpt>
      <trkpt lat="42.1488810" lon="-5.8367690">
        <ele>751.0</ele>
        <time>2021-10-12T11:58:23Z</time>
      </trkpt>
      <trkpt lat="42.1487350" lon="-5.8368450">
        <ele>751.0</ele>
        <time>2021-10-12T11:58:26Z</time>
      </trkpt>
      <trkpt lat="42.1485900" lon="-5.8369170">
        <ele>751.0</ele>
        <time>2021-10-12T11:58:29Z</time>
      </trkpt>
      <trkpt lat="42.1483380" lon="-5.8370460">
        <ele>751.0</ele>
        <time>2021-10-12T11:58:35Z</time>
      </trkpt>
      <trkpt lat="42.1483010" lon="-5.8370660">
        <ele>751.0</ele>
        <time>2021-10-12T11:58:36Z</time>
      </trkpt>
      <trkpt lat="42.1481500" lon="-5.8371460">
        <ele>751.2</ele>
        <time>2021-10-12T11:58:40Z</time>
      </trkpt>
      <trkpt lat="42.1480740" lon="-5.8371770">
        <ele>751.4</ele>
        <time>2021-10-12T11:58:43Z</time>
      </trkpt>
      <trkpt lat="42.1478580" lon="-5.8372500">
        <ele>751.6</ele>
        <time>2021-10-12T11:58:48Z</time>
      </trkpt>
      <trkpt lat="42.1476640" lon="-5.8372290">
        <ele>752.0</ele>
        <time>2021-10-12T11:58:54Z</time>
      </trkpt>
      <trkpt lat="42.1475120" lon="-5.8371970">
        <ele>752.0</ele>
        <time>2021-10-12T11:58:58Z</time>
      </trkpt>
      <trkpt lat="42.1473440" lon="-5.8371780">
        <ele>752.2</ele>
        <time>2021-10-12T11:59:02Z</time>
      </trkpt>
      <trkpt lat="42.1472090" lon="-5.8371410">
        <ele>752.2</ele>
        <time>2021-10-12T11:59:05Z</time>
      </trkpt>
      <trkpt lat="42.1470190" lon="-5.8370910">
        <ele>752.0</ele>
        <time>2021-10-12T11:59:09Z</time>
      </trkpt>
      <trkpt lat="42.1468800" lon="-5.8370590">
        <ele>751.8</ele>
        <time>2021-10-12T11:59:12Z</time>
      </trkpt>
      <trkpt lat="42.1465980" lon="-5.8370100">
        <ele>751.6</ele>
        <time>2021-10-12T11:59:18Z</time>
      </trkpt>
      <trkpt lat="42.1461940" lon="-5.8369290">
        <ele>751.2</ele>
        <time>2021-10-12T11:59:26Z</time>
      </trkpt>
      <trkpt lat="42.1458100" lon="-5.8368520">
        <ele>751.0</ele>
        <time>2021-10-12T11:59:34Z</time>
      </trkpt>
      <trkpt lat="42.1452500" lon="-5.8367290">
        <ele>750.8</ele>
        <time>2021-10-12T11:59:46Z</time>
      </trkpt>
      <trkpt lat="42.1448820" lon="-5.8366610">
        <ele>751.0</ele>
        <time>2021-10-12T11:59:54Z</time>
      </trkpt>
      <trkpt lat="42.1445070" lon="-5.8365830">
        <ele>751.0</ele>
        <time>2021-10-12T12:00:02Z</time>
      </trkpt>
      <trkpt lat="42.1441790" lon="-5.8365090">
        <ele>751.0</ele>
        <time>2021-10-12T12:00:09Z</time>
      </trkpt>
      <trkpt lat="42.1440360" lon="-5.8364770">
        <ele>751.0</ele>
        <time>2021-10-12T12:00:12Z</time>
      </trkpt>
      <trkpt lat="42.1438950" lon="-5.8364480">
        <ele>751.0</ele>
        <time>2021-10-12T12:00:15Z</time>
      </trkpt>
      <trkpt lat="42.1437500" lon="-5.8364200">
        <ele>751.0</ele>
        <time>2021-10-12T12:00:18Z</time>
      </trkpt>
      <trkpt lat="42.1435820" lon="-5.8363790">
        <ele>751.0</ele>
        <time>2021-10-12T12:00:22Z</time>
      </trkpt>
      <trkpt lat="42.1434900" lon="-5.8363610">
        <ele>751.2</ele>
        <time>2021-10-12T12:00:24Z</time>
      </trkpt>
      <trkpt lat="42.1432280" lon="-5.8362970">
        <ele>751.4</ele>
        <time>2021-10-12T12:00:30Z</time>
      </trkpt>
      <trkpt lat="42.1431160" lon="-5.8362680">
        <ele>751.4</ele>
        <time>2021-10-12T12:00:33Z</time>
      </trkpt>
      <trkpt lat="42.1430130" lon="-5.8362380">
        <ele>751.6</ele>
        <time>2021-10-12T12:00:36Z</time>
      </trkpt>
      <trkpt lat="42.1429320" lon="-5.8362060">
        <ele>752.0</ele>
        <time>2021-10-12T12:00:39Z</time>
      </trkpt>
      <trkpt lat="42.1428470" lon="-5.8361640">
        <ele>752.4</ele>
        <time>2021-10-12T12:00:44Z</time>
      </trkpt>
      <trkpt lat="42.1428410" lon="-5.8361630">
        <ele>752.8</ele>
        <time>2021-10-12T12:00:46Z</time>
      </trkpt>
      <trkpt lat="42.1428410" lon="-5.8361630">
        <ele>753.0</ele>
        <time>2021-10-12T12:00:47Z</time>
      </trkpt>
      <trkpt lat="42.1428580" lon="-5.8361160">
        <ele>753.0</ele>
        <time>2021-10-12T12:01:05Z</time>
      </trkpt>
      <trkpt lat="42.1428680" lon="-5.8360980">
        <ele>752.8</ele>
        <time>2021-10-12T12:01:06Z</time>
      </trkpt>
      <trkpt lat="42.1429050" lon="-5.8360220">
        <ele>752.6</ele>
        <time>2021-10-12T12:01:10Z</time>
      </trkpt>
      <trkpt lat="42.1429150" lon="-5.8360020">
        <ele>752.6</ele>
        <time>2021-10-12T12:01:11Z</time>
      </trkpt>
      <trkpt lat="42.1429350" lon="-5.8359420">
        <ele>752.4</ele>
        <time>2021-10-12T12:01:17Z</time>
      </trkpt>
      <trkpt lat="42.1429100" lon="-5.8359860">
        <ele>752.8</ele>
        <time>2021-10-12T12:03:35Z</time>
      </trkpt>
      <trkpt lat="42.1429010" lon="-5.8360090">
        <ele>752.8</ele>
        <time>2021-10-12T12:03:36Z</time>
      </trkpt>
      <trkpt lat="42.1428900" lon="-5.8360280">
        <ele>752.8</ele>
        <time>2021-10-12T12:03:37Z</time>
      </trkpt>
      <trkpt lat="42.1427640" lon="-5.8360710">
        <ele>752.8</ele>
        <time>2021-10-12T12:03:43Z</time>
      </trkpt>
      <trkpt lat="42.1425710" lon="-5.8360070">
        <ele>752.6</ele>
        <time>2021-10-12T12:03:49Z</time>
      </trkpt>
      <trkpt lat="42.1422780" lon="-5.8358760">
        <ele>752.2</ele>
        <time>2021-10-12T12:03:56Z</time>
      </trkpt>
      <trkpt lat="42.1420850" lon="-5.8358100">
        <ele>751.8</ele>
        <time>2021-10-12T12:04:00Z</time>
      </trkpt>
      <trkpt lat="42.1420400" lon="-5.8357910">
        <ele>751.6</ele>
        <time>2021-10-12T12:04:01Z</time>
      </trkpt>
      <trkpt lat="42.1419900" lon="-5.8357730">
        <ele>751.6</ele>
        <time>2021-10-12T12:04:02Z</time>
      </trkpt>
      <trkpt lat="42.1417890" lon="-5.8357020">
        <ele>751.2</ele>
        <time>2021-10-12T12:04:06Z</time>
      </trkpt>
      <trkpt lat="42.1416350" lon="-5.8356480">
        <ele>751.0</ele>
        <time>2021-10-12T12:04:09Z</time>
      </trkpt>
      <trkpt lat="42.1414520" lon="-5.8356070">
        <ele>750.8</ele>
        <time>2021-10-12T12:04:13Z</time>
      </trkpt>
      <trkpt lat="42.1413260" lon="-5.8355940">
        <ele>750.6</ele>
        <time>2021-10-12T12:04:16Z</time>
      </trkpt>
      <trkpt lat="42.1412400" lon="-5.8355670">
        <ele>750.6</ele>
        <time>2021-10-12T12:04:18Z</time>
      </trkpt>
      <trkpt lat="42.1410120" lon="-5.8355040">
        <ele>750.6</ele>
        <time>2021-10-12T12:04:23Z</time>
      </trkpt>
      <trkpt lat="42.1406910" lon="-5.8354270">
        <ele>750.6</ele>
        <time>2021-10-12T12:04:31Z</time>
      </trkpt>
      <trkpt lat="42.1406160" lon="-5.8354100">
        <ele>750.6</ele>
        <time>2021-10-12T12:04:35Z</time>
      </trkpt>
      <trkpt lat="42.1406120" lon="-5.8354110">
        <ele>750.8</ele>
        <time>2021-10-12T12:04:37Z</time>
      </trkpt>
      <trkpt lat="42.1405460" lon="-5.8353780">
        <ele>750.8</ele>
        <time>2021-10-12T12:04:47Z</time>
      </trkpt>
      <trkpt lat="42.1405280" lon="-5.8353690">
        <ele>750.8</ele>
        <time>2021-10-12T12:04:48Z</time>
      </trkpt>
      <trkpt lat="42.1403530" lon="-5.8352850">
        <ele>750.6</ele>
        <time>2021-10-12T12:04:54Z</time>
      </trkpt>
      <trkpt lat="42.1401700" lon="-5.8352080">
        <ele>750.6</ele>
        <time>2021-10-12T12:04:59Z</time>
      </trkpt>
      <trkpt lat="42.1401070" lon="-5.8351880">
        <ele>750.6</ele>
        <time>2021-10-12T12:05:01Z</time>
      </trkpt>
      <trkpt lat="42.1399600" lon="-5.8351270">
        <ele>750.6</ele>
        <time>2021-10-12T12:05:07Z</time>
      </trkpt>
      <trkpt lat="42.1398390" lon="-5.8350800">
        <ele>750.6</ele>
        <time>2021-10-12T12:05:14Z</time>
      </trkpt>
      <trkpt lat="42.1397010" lon="-5.8350310">
        <ele>750.6</ele>
        <time>2021-10-12T12:05:20Z</time>
      </trkpt>
      <trkpt lat="42.1394940" lon="-5.8349820">
        <ele>750.6</ele>
        <time>2021-10-12T12:05:28Z</time>
      </trkpt>
      <trkpt lat="42.1394560" lon="-5.8349660">
        <ele>750.8</ele>
        <time>2021-10-12T12:05:33Z</time>
      </trkpt>
      <trkpt lat="42.1394730" lon="-5.8349580">
        <ele>754.4</ele>
        <time>2021-10-12T12:35:05Z</time>
      </trkpt>
      <trkpt lat="42.1394730" lon="-5.8349580">
        <ele>754.4</ele>
        <time>2021-10-12T12:35:06Z</time>
      </trkpt>
      <trkpt lat="42.1394700" lon="-5.8349560">
        <ele>754.4</ele>
        <time>2021-10-12T12:35:07Z</time>
      </trkpt>
      <trkpt lat="42.1393920" lon="-5.8349400">
        <ele>754.4</ele>
        <time>2021-10-12T12:35:10Z</time>
      </trkpt>
      <trkpt lat="42.1393290" lon="-5.8349420">
        <ele>754.4</ele>
        <time>2021-10-12T12:35:12Z</time>
      </trkpt>
      <trkpt lat="42.1392960" lon="-5.8349380">
        <ele>754.4</ele>
        <time>2021-10-12T12:35:13Z</time>
      </trkpt>
      <trkpt lat="42.1391780" lon="-5.8349200">
        <ele>754.4</ele>
        <time>2021-10-12T12:35:17Z</time>
      </trkpt>
      <trkpt lat="42.1391210" lon="-5.8349030">
        <ele>754.2</ele>
        <time>2021-10-12T12:35:19Z</time>
      </trkpt>
      <trkpt lat="42.1389190" lon="-5.8348730">
        <ele>754.2</ele>
        <time>2021-10-12T12:35:26Z</time>
      </trkpt>
      <trkpt lat="42.1386780" lon="-5.8348750">
        <ele>754.0</ele>
        <time>2021-10-12T12:35:33Z</time>
      </trkpt>
      <trkpt lat="42.1386220" lon="-5.8348850">
        <ele>753.8</ele>
        <time>2021-10-12T12:35:35Z</time>
      </trkpt>
      <trkpt lat="42.1384280" lon="-5.8348570">
        <ele>753.8</ele>
        <time>2021-10-12T12:35:41Z</time>
      </trkpt>
      <trkpt lat="42.1381500" lon="-5.8347270">
        <ele>753.8</ele>
        <time>2021-10-12T12:35:50Z</time>
      </trkpt>
      <trkpt lat="42.1381200" lon="-5.8347060">
        <ele>753.8</ele>
        <time>2021-10-12T12:35:51Z</time>
      </trkpt>
      <trkpt lat="42.1378890" lon="-5.8345590">
        <ele>754.0</ele>
        <time>2021-10-12T12:35:59Z</time>
      </trkpt>
      <trkpt lat="42.1378280" lon="-5.8345210">
        <ele>754.2</ele>
        <time>2021-10-12T12:36:01Z</time>
      </trkpt>
      <trkpt lat="42.1375480" lon="-5.8343710">
        <ele>754.2</ele>
        <time>2021-10-12T12:36:09Z</time>
      </trkpt>
      <trkpt lat="42.1371730" lon="-5.8341810">
        <ele>754.2</ele>
        <time>2021-10-12T12:36:19Z</time>
      </trkpt>
      <trkpt lat="42.1368840" lon="-5.8340260">
        <ele>754.0</ele>
        <time>2021-10-12T12:36:28Z</time>
      </trkpt>
      <trkpt lat="42.1366320" lon="-5.8338780">
        <ele>754.0</ele>
        <time>2021-10-12T12:36:36Z</time>
      </trkpt>
      <trkpt lat="42.1365660" lon="-5.8338450">
        <ele>754.0</ele>
        <time>2021-10-12T12:36:38Z</time>
      </trkpt>
      <trkpt lat="42.1363390" lon="-5.8337260">
        <ele>754.4</ele>
        <time>2021-10-12T12:36:45Z</time>
      </trkpt>
      <trkpt lat="42.1363070" lon="-5.8337070">
        <ele>754.4</ele>
        <time>2021-10-12T12:36:46Z</time>
      </trkpt>
      <trkpt lat="42.1360350" lon="-5.8335550">
        <ele>754.6</ele>
        <time>2021-10-12T12:36:54Z</time>
      </trkpt>
      <trkpt lat="42.1357770" lon="-5.8334100">
        <ele>754.6</ele>
        <time>2021-10-12T12:37:01Z</time>
      </trkpt>
      <trkpt lat="42.1357370" lon="-5.8333870">
        <ele>754.6</ele>
        <time>2021-10-12T12:37:02Z</time>
      </trkpt>
      <trkpt lat="42.1355630" lon="-5.8332920">
        <ele>754.4</ele>
        <time>2021-10-12T12:37:07Z</time>
      </trkpt>
      <trkpt lat="42.1353870" lon="-5.8331960">
        <ele>754.4</ele>
        <time>2021-10-12T12:37:12Z</time>
      </trkpt>
      <trkpt lat="42.1351170" lon="-5.8330290">
        <ele>754.2</ele>
        <time>2021-10-12T12:37:19Z</time>
      </trkpt>
      <trkpt lat="42.1350780" lon="-5.8330110">
        <ele>754.2</ele>
        <time>2021-10-12T12:37:20Z</time>
      </trkpt>
      <trkpt lat="42.1348910" lon="-5.8328920">
        <ele>754.0</ele>
        <time>2021-10-12T12:37:26Z</time>
      </trkpt>
      <trkpt lat="42.1347070" lon="-5.8327660">
        <ele>754.2</ele>
        <time>2021-10-12T12:37:33Z</time>
      </trkpt>
      <trkpt lat="42.1344420" lon="-5.8326150">
        <ele>754.4</ele>
        <time>2021-10-12T12:37:40Z</time>
      </trkpt>
      <trkpt lat="42.1341920" lon="-5.8324630">
        <ele>754.4</ele>
        <time>2021-10-12T12:37:46Z</time>
      </trkpt>
      <trkpt lat="42.1341090" lon="-5.8324110">
        <ele>754.4</ele>
        <time>2021-10-12T12:37:48Z</time>
      </trkpt>
      <trkpt lat="42.1338980" lon="-5.8322690">
        <ele>754.4</ele>
        <time>2021-10-12T12:37:53Z</time>
      </trkpt>
      <trkpt lat="42.1337270" lon="-5.8321510">
        <ele>754.4</ele>
        <time>2021-10-12T12:37:57Z</time>
      </trkpt>
      <trkpt lat="42.1336390" lon="-5.8320990">
        <ele>754.4</ele>
        <time>2021-10-12T12:37:59Z</time>
      </trkpt>
      <trkpt lat="42.1335090" lon="-5.8320110">
        <ele>754.4</ele>
        <time>2021-10-12T12:38:02Z</time>
      </trkpt>
      <trkpt lat="42.1333730" lon="-5.8319210">
        <ele>754.4</ele>
        <time>2021-10-12T12:38:05Z</time>
      </trkpt>
      <trkpt lat="42.1331970" lon="-5.8318000">
        <ele>754.4</ele>
        <time>2021-10-12T12:38:09Z</time>
      </trkpt>
      <trkpt lat="42.1327550" lon="-5.8314650">
        <ele>754.6</ele>
        <time>2021-10-12T12:38:19Z</time>
      </trkpt>
      <trkpt lat="42.1323560" lon="-5.8311590">
        <ele>754.4</ele>
        <time>2021-10-12T12:38:28Z</time>
      </trkpt>
      <trkpt lat="42.1318550" lon="-5.8307820">
        <ele>754.6</ele>
        <time>2021-10-12T12:38:39Z</time>
      </trkpt>
      <trkpt lat="42.1318100" lon="-5.8307460">
        <ele>754.6</ele>
        <time>2021-10-12T12:38:40Z</time>
      </trkpt>
      <trkpt lat="42.1313640" lon="-5.8304000">
        <ele>754.6</ele>
        <time>2021-10-12T12:38:50Z</time>
      </trkpt>
      <trkpt lat="42.1312790" lon="-5.8303360">
        <ele>754.6</ele>
        <time>2021-10-12T12:38:52Z</time>
      </trkpt>
      <trkpt lat="42.1311120" lon="-5.8302080">
        <ele>754.8</ele>
        <time>2021-10-12T12:38:56Z</time>
      </trkpt>
      <trkpt lat="42.1309160" lon="-5.8300580">
        <ele>755.0</ele>
        <time>2021-10-12T12:39:01Z</time>
      </trkpt>
      <trkpt lat="42.1308820" lon="-5.8300320">
        <ele>755.2</ele>
        <time>2021-10-12T12:39:02Z</time>
      </trkpt>
      <trkpt lat="42.1307070" lon="-5.8299120">
        <ele>756.0</ele>
        <time>2021-10-12T12:39:08Z</time>
      </trkpt>
      <trkpt lat="42.1306810" lon="-5.8298950">
        <ele>756.4</ele>
        <time>2021-10-12T12:39:09Z</time>
      </trkpt>
      <trkpt lat="42.1306030" lon="-5.8298350">
        <ele>756.6</ele>
        <time>2021-10-12T12:39:12Z</time>
      </trkpt>
      <trkpt lat="42.1305300" lon="-5.8297730">
        <ele>757.0</ele>
        <time>2021-10-12T12:39:15Z</time>
      </trkpt>
      <trkpt lat="42.1304810" lon="-5.8297290">
        <ele>757.2</ele>
        <time>2021-10-12T12:39:17Z</time>
      </trkpt>
      <trkpt lat="42.1304560" lon="-5.8297050">
        <ele>757.6</ele>
        <time>2021-10-12T12:39:18Z</time>
      </trkpt>
      <trkpt lat="42.1303080" lon="-5.8296020">
        <ele>758.2</ele>
        <time>2021-10-12T12:39:24Z</time>
      </trkpt>
      <trkpt lat="42.1302640" lon="-5.8295640">
        <ele>758.4</ele>
        <time>2021-10-12T12:39:26Z</time>
      </trkpt>
      <trkpt lat="42.1302200" lon="-5.8295260">
        <ele>758.6</ele>
        <time>2021-10-12T12:39:28Z</time>
      </trkpt>
      <trkpt lat="42.1301510" lon="-5.8294700">
        <ele>759.2</ele>
        <time>2021-10-12T12:39:31Z</time>
      </trkpt>
      <trkpt lat="42.1300860" lon="-5.8294220">
        <ele>759.6</ele>
        <time>2021-10-12T12:39:34Z</time>
      </trkpt>
      <trkpt lat="42.1300660" lon="-5.8294010">
        <ele>759.8</ele>
        <time>2021-10-12T12:39:35Z</time>
      </trkpt>
      <trkpt lat="42.1300450" lon="-5.8293840">
        <ele>760.0</ele>
        <time>2021-10-12T12:39:36Z</time>
      </trkpt>
      <trkpt lat="42.1299370" lon="-5.8293060">
        <ele>760.6</ele>
        <time>2021-10-12T12:39:41Z</time>
      </trkpt>
      <trkpt lat="42.1299160" lon="-5.8292880">
        <ele>760.8</ele>
        <time>2021-10-12T12:39:42Z</time>
      </trkpt>
      <trkpt lat="42.1298510" lon="-5.8292370">
        <ele>761.0</ele>
        <time>2021-10-12T12:39:45Z</time>
      </trkpt>
      <trkpt lat="42.1297670" lon="-5.8291690">
        <ele>761.6</ele>
        <time>2021-10-12T12:39:49Z</time>
      </trkpt>
      <trkpt lat="42.1297460" lon="-5.8291520">
        <ele>761.8</ele>
        <time>2021-10-12T12:39:50Z</time>
      </trkpt>
      <trkpt lat="42.1296620" lon="-5.8290870">
        <ele>762.4</ele>
        <time>2021-10-12T12:39:54Z</time>
      </trkpt>
      <trkpt lat="42.1296170" lon="-5.8290580">
        <ele>762.6</ele>
        <time>2021-10-12T12:39:56Z</time>
      </trkpt>
      <trkpt lat="42.1295540" lon="-5.8290020">
        <ele>762.8</ele>
        <time>2021-10-12T12:39:59Z</time>
      </trkpt>
      <trkpt lat="42.1295080" lon="-5.8289720">
        <ele>763.4</ele>
        <time>2021-10-12T12:40:01Z</time>
      </trkpt>
      <trkpt lat="42.1294690" lon="-5.8289380">
        <ele>763.6</ele>
        <time>2021-10-12T12:40:03Z</time>
      </trkpt>
      <trkpt lat="42.1294340" lon="-5.8289060">
        <ele>763.8</ele>
        <time>2021-10-12T12:40:05Z</time>
      </trkpt>
      <trkpt lat="42.1294170" lon="-5.8288890">
        <ele>764.0</ele>
        <time>2021-10-12T12:40:06Z</time>
      </trkpt>
      <trkpt lat="42.1293730" lon="-5.8288580">
        <ele>764.2</ele>
        <time>2021-10-12T12:40:08Z</time>
      </trkpt>
      <trkpt lat="42.1293180" lon="-5.8288280">
        <ele>764.4</ele>
        <time>2021-10-12T12:40:10Z</time>
      </trkpt>
      <trkpt lat="42.1292890" lon="-5.8288120">
        <ele>764.6</ele>
        <time>2021-10-12T12:40:11Z</time>
      </trkpt>
      <trkpt lat="42.1292170" lon="-5.8287460">
        <ele>765.0</ele>
        <time>2021-10-12T12:40:14Z</time>
      </trkpt>
      <trkpt lat="42.1291120" lon="-5.8286630">
        <ele>765.6</ele>
        <time>2021-10-12T12:40:18Z</time>
      </trkpt>
      <trkpt lat="42.1288970" lon="-5.8284930">
        <ele>766.2</ele>
        <time>2021-10-12T12:40:26Z</time>
      </trkpt>
      <trkpt lat="42.1288700" lon="-5.8284730">
        <ele>766.4</ele>
        <time>2021-10-12T12:40:27Z</time>
      </trkpt>
      <trkpt lat="42.1286600" lon="-5.8282790">
        <ele>767.0</ele>
        <time>2021-10-12T12:40:36Z</time>
      </trkpt>
      <trkpt lat="42.1285370" lon="-5.8281480">
        <ele>767.0</ele>
        <time>2021-10-12T12:40:42Z</time>
      </trkpt>
      <trkpt lat="42.1283900" lon="-5.8279970">
        <ele>767.0</ele>
        <time>2021-10-12T12:40:49Z</time>
      </trkpt>
      <trkpt lat="42.1283240" lon="-5.8278990">
        <ele>767.0</ele>
        <time>2021-10-12T12:40:53Z</time>
      </trkpt>
      <trkpt lat="42.1282730" lon="-5.8278260">
        <ele>766.6</ele>
        <time>2021-10-12T12:40:56Z</time>
      </trkpt>
      <trkpt lat="42.1282270" lon="-5.8277390">
        <ele>766.4</ele>
        <time>2021-10-12T12:40:59Z</time>
      </trkpt>
      <trkpt lat="42.1281900" lon="-5.8276730">
        <ele>766.4</ele>
        <time>2021-10-12T12:41:01Z</time>
      </trkpt>
      <trkpt lat="42.1281380" lon="-5.8275640">
        <ele>766.2</ele>
        <time>2021-10-12T12:41:04Z</time>
      </trkpt>
      <trkpt lat="42.1281020" lon="-5.8274920">
        <ele>766.0</ele>
        <time>2021-10-12T12:41:06Z</time>
      </trkpt>
      <trkpt lat="42.1280550" lon="-5.8273710">
        <ele>765.8</ele>
        <time>2021-10-12T12:41:09Z</time>
      </trkpt>
      <trkpt lat="42.1280140" lon="-5.8272360">
        <ele>765.6</ele>
        <time>2021-10-12T12:41:12Z</time>
      </trkpt>
      <trkpt lat="42.1279930" lon="-5.8271280">
        <ele>765.4</ele>
        <time>2021-10-12T12:41:14Z</time>
      </trkpt>
      <trkpt lat="42.1279770" lon="-5.8270690">
        <ele>765.2</ele>
        <time>2021-10-12T12:41:15Z</time>
      </trkpt>
      <trkpt lat="42.1279570" lon="-5.8270100">
        <ele>765.2</ele>
        <time>2021-10-12T12:41:16Z</time>
      </trkpt>
      <trkpt lat="42.1279230" lon="-5.8268820">
        <ele>764.8</ele>
        <time>2021-10-12T12:41:18Z</time>
      </trkpt>
      <trkpt lat="42.1278750" lon="-5.8265100">
        <ele>764.0</ele>
        <time>2021-10-12T12:41:23Z</time>
      </trkpt>
      <trkpt lat="42.1278680" lon="-5.8264310">
        <ele>763.8</ele>
        <time>2021-10-12T12:41:24Z</time>
      </trkpt>
      <trkpt lat="42.1278610" lon="-5.8261850">
        <ele>763.2</ele>
        <time>2021-10-12T12:41:27Z</time>
      </trkpt>
      <trkpt lat="42.1278620" lon="-5.8260150">
        <ele>762.6</ele>
        <time>2021-10-12T12:41:29Z</time>
      </trkpt>
      <trkpt lat="42.1278650" lon="-5.8258410">
        <ele>762.4</ele>
        <time>2021-10-12T12:41:31Z</time>
      </trkpt>
      <trkpt lat="42.1278740" lon="-5.8255730">
        <ele>761.4</ele>
        <time>2021-10-12T12:41:34Z</time>
      </trkpt>
      <trkpt lat="42.1278860" lon="-5.8251980">
        <ele>760.2</ele>
        <time>2021-10-12T12:41:38Z</time>
      </trkpt>
      <trkpt lat="42.1279030" lon="-5.8246060">
        <ele>758.8</ele>
        <time>2021-10-12T12:41:44Z</time>
      </trkpt>
      <trkpt lat="42.1279120" lon="-5.8243040">
        <ele>757.8</ele>
        <time>2021-10-12T12:41:47Z</time>
      </trkpt>
      <trkpt lat="42.1279190" lon="-5.8239170">
        <ele>756.4</ele>
        <time>2021-10-12T12:41:51Z</time>
      </trkpt>
      <trkpt lat="42.1279320" lon="-5.8235410">
        <ele>755.8</ele>
        <time>2021-10-12T12:41:55Z</time>
      </trkpt>
      <trkpt lat="42.1279350" lon="-5.8234480">
        <ele>755.6</ele>
        <time>2021-10-12T12:41:56Z</time>
      </trkpt>
      <trkpt lat="42.1279390" lon="-5.8232650">
        <ele>755.6</ele>
        <time>2021-10-12T12:41:58Z</time>
      </trkpt>
      <trkpt lat="42.1279510" lon="-5.8229270">
        <ele>754.4</ele>
        <time>2021-10-12T12:42:02Z</time>
      </trkpt>
      <trkpt lat="42.1279950" lon="-5.8224590">
        <ele>753.8</ele>
        <time>2021-10-12T12:42:08Z</time>
      </trkpt>
      <trkpt lat="42.1280320" lon="-5.8222330">
        <ele>753.4</ele>
        <time>2021-10-12T12:42:11Z</time>
      </trkpt>
      <trkpt lat="42.1281110" lon="-5.8218620">
        <ele>753.2</ele>
        <time>2021-10-12T12:42:16Z</time>
      </trkpt>
      <trkpt lat="42.1281730" lon="-5.8214960">
        <ele>753.0</ele>
        <time>2021-10-12T12:42:21Z</time>
      </trkpt>
      <trkpt lat="42.1282170" lon="-5.8212100">
        <ele>753.0</ele>
        <time>2021-10-12T12:42:25Z</time>
      </trkpt>
      <trkpt lat="42.1282440" lon="-5.8210680">
        <ele>752.8</ele>
        <time>2021-10-12T12:42:27Z</time>
      </trkpt>
      <trkpt lat="42.1282810" lon="-5.8208580">
        <ele>752.8</ele>
        <time>2021-10-12T12:42:30Z</time>
      </trkpt>
      <trkpt lat="42.1282950" lon="-5.8207890">
        <ele>752.8</ele>
        <time>2021-10-12T12:42:31Z</time>
      </trkpt>
      <trkpt lat="42.1283530" lon="-5.8204560">
        <ele>752.8</ele>
        <time>2021-10-12T12:42:36Z</time>
      </trkpt>
      <trkpt lat="42.1283640" lon="-5.8203870">
        <ele>752.8</ele>
        <time>2021-10-12T12:42:37Z</time>
      </trkpt>
      <trkpt lat="42.1285000" lon="-5.8196340">
        <ele>753.0</ele>
        <time>2021-10-12T12:42:48Z</time>
      </trkpt>
      <trkpt lat="42.1286070" lon="-5.8190090">
        <ele>752.8</ele>
        <time>2021-10-12T12:42:57Z</time>
      </trkpt>
      <trkpt lat="42.1286580" lon="-5.8187270">
        <ele>752.6</ele>
        <time>2021-10-12T12:43:01Z</time>
      </trkpt>
      <trkpt lat="42.1286720" lon="-5.8186580">
        <ele>752.6</ele>
        <time>2021-10-12T12:43:02Z</time>
      </trkpt>
      <trkpt lat="42.1287590" lon="-5.8181800">
        <ele>752.6</ele>
        <time>2021-10-12T12:43:09Z</time>
      </trkpt>
      <trkpt lat="42.1288170" lon="-5.8178300">
        <ele>752.6</ele>
        <time>2021-10-12T12:43:14Z</time>
      </trkpt>
      <trkpt lat="42.1288530" lon="-5.8176180">
        <ele>753.0</ele>
        <time>2021-10-12T12:43:17Z</time>
      </trkpt>
      <trkpt lat="42.1288960" lon="-5.8173490">
        <ele>753.0</ele>
        <time>2021-10-12T12:43:21Z</time>
      </trkpt>
      <trkpt lat="42.1289740" lon="-5.8168910">
        <ele>753.4</ele>
        <time>2021-10-12T12:43:28Z</time>
      </trkpt>
      <trkpt lat="42.1290090" lon="-5.8166980">
        <ele>753.4</ele>
        <time>2021-10-12T12:43:31Z</time>
      </trkpt>
      <trkpt lat="42.1290730" lon="-5.8163730">
        <ele>753.4</ele>
        <time>2021-10-12T12:43:36Z</time>
      </trkpt>
      <trkpt lat="42.1290980" lon="-5.8162420">
        <ele>753.4</ele>
        <time>2021-10-12T12:43:38Z</time>
      </trkpt>
      <trkpt lat="42.1291850" lon="-5.8157880">
        <ele>753.2</ele>
        <time>2021-10-12T12:43:45Z</time>
      </trkpt>
      <trkpt lat="42.1292180" lon="-5.8155990">
        <ele>753.2</ele>
        <time>2021-10-12T12:43:48Z</time>
      </trkpt>
      <trkpt lat="42.1292510" lon="-5.8154040">
        <ele>753.2</ele>
        <time>2021-10-12T12:43:51Z</time>
      </trkpt>
      <trkpt lat="42.1292630" lon="-5.8153380">
        <ele>753.2</ele>
        <time>2021-10-12T12:43:52Z</time>
      </trkpt>
      <trkpt lat="42.1293980" lon="-5.8145980">
        <ele>753.4</ele>
        <time>2021-10-12T12:44:03Z</time>
      </trkpt>
      <trkpt lat="42.1294810" lon="-5.8141290">
        <ele>753.2</ele>
        <time>2021-10-12T12:44:10Z</time>
      </trkpt>
      <trkpt lat="42.1295030" lon="-5.8139960">
        <ele>753.2</ele>
        <time>2021-10-12T12:44:12Z</time>
      </trkpt>
      <trkpt lat="42.1295390" lon="-5.8137960">
        <ele>753.2</ele>
        <time>2021-10-12T12:44:15Z</time>
      </trkpt>
      <trkpt lat="42.1295710" lon="-5.8135990">
        <ele>753.2</ele>
        <time>2021-10-12T12:44:18Z</time>
      </trkpt>
      <trkpt lat="42.1296200" lon="-5.8133310">
        <ele>753.2</ele>
        <time>2021-10-12T12:44:22Z</time>
      </trkpt>
      <trkpt lat="42.1297420" lon="-5.8126550">
        <ele>753.4</ele>
        <time>2021-10-12T12:44:32Z</time>
      </trkpt>
      <trkpt lat="42.1297680" lon="-5.8125170">
        <ele>753.4</ele>
        <time>2021-10-12T12:44:34Z</time>
      </trkpt>
      <trkpt lat="42.1298390" lon="-5.8121100">
        <ele>753.6</ele>
        <time>2021-10-12T12:44:40Z</time>
      </trkpt>
      <trkpt lat="42.1299000" lon="-5.8117590">
        <ele>753.6</ele>
        <time>2021-10-12T12:44:45Z</time>
      </trkpt>
      <trkpt lat="42.1299240" lon="-5.8116360">
        <ele>753.8</ele>
        <time>2021-10-12T12:44:47Z</time>
      </trkpt>
      <trkpt lat="42.1299350" lon="-5.8115670">
        <ele>753.8</ele>
        <time>2021-10-12T12:44:48Z</time>
      </trkpt>
      <trkpt lat="42.1300660" lon="-5.8108170">
        <ele>753.8</ele>
        <time>2021-10-12T12:44:59Z</time>
      </trkpt>
      <trkpt lat="42.1301140" lon="-5.8105270">
        <ele>753.8</ele>
        <time>2021-10-12T12:45:03Z</time>
      </trkpt>
      <trkpt lat="42.1301560" lon="-5.8102670">
        <ele>754.0</ele>
        <time>2021-10-12T12:45:07Z</time>
      </trkpt>
      <trkpt lat="42.1301700" lon="-5.8101880">
        <ele>754.0</ele>
        <time>2021-10-12T12:45:08Z</time>
      </trkpt>
      <trkpt lat="42.1302350" lon="-5.8098540">
        <ele>754.0</ele>
        <time>2021-10-12T12:45:13Z</time>
      </trkpt>
      <trkpt lat="42.1302670" lon="-5.8096690">
        <ele>754.0</ele>
        <time>2021-10-12T12:45:16Z</time>
      </trkpt>
      <trkpt lat="42.1303300" lon="-5.8093280">
        <ele>754.0</ele>
        <time>2021-10-12T12:45:21Z</time>
      </trkpt>
      <trkpt lat="42.1303580" lon="-5.8091840">
        <ele>754.0</ele>
        <time>2021-10-12T12:45:23Z</time>
      </trkpt>
      <trkpt lat="42.1303910" lon="-5.8090030">
        <ele>754.0</ele>
        <time>2021-10-12T12:45:26Z</time>
      </trkpt>
      <trkpt lat="42.1304120" lon="-5.8088900">
        <ele>754.0</ele>
        <time>2021-10-12T12:45:28Z</time>
      </trkpt>
      <trkpt lat="42.1304430" lon="-5.8087380">
        <ele>753.8</ele>
        <time>2021-10-12T12:45:31Z</time>
      </trkpt>
      <trkpt lat="42.1304810" lon="-5.8085340">
        <ele>753.6</ele>
        <time>2021-10-12T12:45:35Z</time>
      </trkpt>
      <trkpt lat="42.1305370" lon="-5.8081840">
        <ele>753.6</ele>
        <time>2021-10-12T12:45:41Z</time>
      </trkpt>
      <trkpt lat="42.1305680" lon="-5.8080230">
        <ele>753.8</ele>
        <time>2021-10-12T12:45:44Z</time>
      </trkpt>
      <trkpt lat="42.1306160" lon="-5.8077410">
        <ele>753.8</ele>
        <time>2021-10-12T12:45:49Z</time>
      </trkpt>
      <trkpt lat="42.1307190" lon="-5.8071490">
        <ele>754.2</ele>
        <time>2021-10-12T12:46:00Z</time>
      </trkpt>
      <trkpt lat="42.1307290" lon="-5.8070670">
        <ele>754.2</ele>
        <time>2021-10-12T12:46:02Z</time>
      </trkpt>
      <trkpt lat="42.1307380" lon="-5.8069520">
        <ele>754.4</ele>
        <time>2021-10-12T12:46:05Z</time>
      </trkpt>
      <trkpt lat="42.1307320" lon="-5.8069080">
        <ele>754.4</ele>
        <time>2021-10-12T12:46:06Z</time>
      </trkpt>
      <trkpt lat="42.1306030" lon="-5.8065460">
        <ele>754.4</ele>
        <time>2021-10-12T12:46:15Z</time>
      </trkpt>
      <trkpt lat="42.1304840" lon="-5.8063060">
        <ele>754.6</ele>
        <time>2021-10-12T12:46:23Z</time>
      </trkpt>
      <trkpt lat="42.1304400" lon="-5.8062110">
        <ele>755.6</ele>
        <time>2021-10-12T12:46:27Z</time>
      </trkpt>
      <trkpt lat="42.1304150" lon="-5.8061570">
        <ele>755.8</ele>
        <time>2021-10-12T12:46:29Z</time>
      </trkpt>
      <trkpt lat="42.1303890" lon="-5.8060890">
        <ele>756.6</ele>
        <time>2021-10-12T12:46:32Z</time>
      </trkpt>
      <trkpt lat="42.1303490" lon="-5.8060150">
        <ele>757.0</ele>
        <time>2021-10-12T12:46:36Z</time>
      </trkpt>
      <trkpt lat="42.1303270" lon="-5.8059770">
        <ele>757.8</ele>
        <time>2021-10-12T12:46:41Z</time>
      </trkpt>
      <trkpt lat="42.1303190" lon="-5.8059300">
        <ele>757.8</ele>
        <time>2021-10-12T12:49:07Z</time>
      </trkpt>
      <trkpt lat="42.1303130" lon="-5.8059020">
        <ele>757.8</ele>
        <time>2021-10-12T12:49:08Z</time>
      </trkpt>
      <trkpt lat="42.1302750" lon="-5.8057860">
        <ele>757.8</ele>
        <time>2021-10-12T12:49:12Z</time>
      </trkpt>
      <trkpt lat="42.1302610" lon="-5.8057540">
        <ele>758.0</ele>
        <time>2021-10-12T12:49:13Z</time>
      </trkpt>
      <trkpt lat="42.1301670" lon="-5.8055440">
        <ele>757.8</ele>
        <time>2021-10-12T12:49:18Z</time>
      </trkpt>
      <trkpt lat="42.1301170" lon="-5.8054260">
        <ele>757.2</ele>
        <time>2021-10-12T12:49:21Z</time>
      </trkpt>
      <trkpt lat="42.1300880" lon="-5.8053690">
        <ele>756.4</ele>
        <time>2021-10-12T12:49:23Z</time>
      </trkpt>
      <trkpt lat="42.1300780" lon="-5.8053460">
        <ele>756.0</ele>
        <time>2021-10-12T12:49:24Z</time>
      </trkpt>
      <trkpt lat="42.1300590" lon="-5.8052980">
        <ele>755.4</ele>
        <time>2021-10-12T12:49:27Z</time>
      </trkpt>
      <trkpt lat="42.1300590" lon="-5.8052930">
        <ele>755.4</ele>
        <time>2021-10-12T12:49:28Z</time>
      </trkpt>
      <trkpt lat="42.1300590" lon="-5.8052930">
        <ele>755.4</ele>
        <time>2021-10-12T12:49:30Z</time>
      </trkpt>
      <trkpt lat="42.1300380" lon="-5.8052540">
        <ele>755.8</ele>
        <time>2021-10-12T12:50:55Z</time>
      </trkpt>
      <trkpt lat="42.1300150" lon="-5.8051990">
        <ele>755.8</ele>
        <time>2021-10-12T12:50:57Z</time>
      </trkpt>
      <trkpt lat="42.1299070" lon="-5.8050060">
        <ele>755.4</ele>
        <time>2021-10-12T12:51:03Z</time>
      </trkpt>
      <trkpt lat="42.1297510" lon="-5.8048170">
        <ele>755.2</ele>
        <time>2021-10-12T12:51:10Z</time>
      </trkpt>
      <trkpt lat="42.1297340" lon="-5.8047910">
        <ele>755.2</ele>
        <time>2021-10-12T12:51:11Z</time>
      </trkpt>
      <trkpt lat="42.1295670" lon="-5.8045760">
        <ele>755.0</ele>
        <time>2021-10-12T12:51:18Z</time>
      </trkpt>
      <trkpt lat="42.1294020" lon="-5.8043540">
        <ele>755.2</ele>
        <time>2021-10-12T12:51:24Z</time>
      </trkpt>
      <trkpt lat="42.1293730" lon="-5.8043170">
        <ele>755.2</ele>
        <time>2021-10-12T12:51:25Z</time>
      </trkpt>
      <trkpt lat="42.1291790" lon="-5.8040410">
        <ele>755.2</ele>
        <time>2021-10-12T12:51:32Z</time>
      </trkpt>
      <trkpt lat="42.1291030" lon="-5.8039050">
        <ele>755.2</ele>
        <time>2021-10-12T12:51:35Z</time>
      </trkpt>
      <trkpt lat="42.1290280" lon="-5.8037580">
        <ele>755.2</ele>
        <time>2021-10-12T12:51:38Z</time>
      </trkpt>
      <trkpt lat="42.1289420" lon="-5.8035470">
        <ele>755.4</ele>
        <time>2021-10-12T12:51:42Z</time>
      </trkpt>
      <trkpt lat="42.1288590" lon="-5.8033500">
        <ele>755.4</ele>
        <time>2021-10-12T12:51:46Z</time>
      </trkpt>
      <trkpt lat="42.1287990" lon="-5.8031990">
        <ele>755.4</ele>
        <time>2021-10-12T12:51:49Z</time>
      </trkpt>
      <trkpt lat="42.1287800" lon="-5.8031470">
        <ele>755.4</ele>
        <time>2021-10-12T12:51:50Z</time>
      </trkpt>
      <trkpt lat="42.1286220" lon="-5.8028040">
        <ele>755.4</ele>
        <time>2021-10-12T12:51:57Z</time>
      </trkpt>
      <trkpt lat="42.1286020" lon="-5.8027560">
        <ele>755.4</ele>
        <time>2021-10-12T12:51:58Z</time>
      </trkpt>
      <trkpt lat="42.1284760" lon="-5.8024640">
        <ele>755.4</ele>
        <time>2021-10-12T12:52:04Z</time>
      </trkpt>
      <trkpt lat="42.1284400" lon="-5.8023660">
        <ele>755.6</ele>
        <time>2021-10-12T12:52:06Z</time>
      </trkpt>
      <trkpt lat="42.1284180" lon="-5.8023200">
        <ele>755.6</ele>
        <time>2021-10-12T12:52:07Z</time>
      </trkpt>
      <trkpt lat="42.1282410" lon="-5.8019030">
        <ele>755.6</ele>
        <time>2021-10-12T12:52:15Z</time>
      </trkpt>
      <trkpt lat="42.1281150" lon="-5.8016430">
        <ele>755.8</ele>
        <time>2021-10-12T12:52:20Z</time>
      </trkpt>
      <trkpt lat="42.1280170" lon="-5.8014370">
        <ele>755.8</ele>
        <time>2021-10-12T12:52:24Z</time>
      </trkpt>
      <trkpt lat="42.1277230" lon="-5.8009350">
        <ele>755.8</ele>
        <time>2021-10-12T12:52:34Z</time>
      </trkpt>
      <trkpt lat="42.1274500" lon="-5.8005100">
        <ele>755.6</ele>
        <time>2021-10-12T12:52:42Z</time>
      </trkpt>
      <trkpt lat="42.1271090" lon="-5.7999750">
        <ele>755.4</ele>
        <time>2021-10-12T12:52:52Z</time>
      </trkpt>
      <trkpt lat="42.1270750" lon="-5.7999220">
        <ele>755.4</ele>
        <time>2021-10-12T12:52:53Z</time>
      </trkpt>
      <trkpt lat="42.1269770" lon="-5.7997630">
        <ele>755.4</ele>
        <time>2021-10-12T12:52:56Z</time>
      </trkpt>
      <trkpt lat="42.1268410" lon="-5.7995510">
        <ele>755.6</ele>
        <time>2021-10-12T12:53:00Z</time>
      </trkpt>
      <trkpt lat="42.1267680" lon="-5.7994530">
        <ele>755.6</ele>
        <time>2021-10-12T12:53:02Z</time>
      </trkpt>
      <trkpt lat="42.1265360" lon="-5.7991710">
        <ele>755.6</ele>
        <time>2021-10-12T12:53:08Z</time>
      </trkpt>
      <trkpt lat="42.1264560" lon="-5.7990780">
        <ele>755.8</ele>
        <time>2021-10-12T12:53:10Z</time>
      </trkpt>
      <trkpt lat="42.1262880" lon="-5.7988660">
        <ele>756.0</ele>
        <time>2021-10-12T12:53:15Z</time>
      </trkpt>
      <trkpt lat="42.1262610" lon="-5.7988340">
        <ele>756.0</ele>
        <time>2021-10-12T12:53:16Z</time>
      </trkpt>
      <trkpt lat="42.1261840" lon="-5.7987640">
        <ele>755.8</ele>
        <time>2021-10-12T12:53:19Z</time>
      </trkpt>
      <trkpt lat="42.1261050" lon="-5.7986870">
        <ele>755.8</ele>
        <time>2021-10-12T12:53:22Z</time>
      </trkpt>
      <trkpt lat="42.1260230" lon="-5.7985910">
        <ele>756.0</ele>
        <time>2021-10-12T12:53:25Z</time>
      </trkpt>
      <trkpt lat="42.1258650" lon="-5.7984180">
        <ele>755.8</ele>
        <time>2021-10-12T12:53:30Z</time>
      </trkpt>
      <trkpt lat="42.1256980" lon="-5.7982360">
        <ele>755.8</ele>
        <time>2021-10-12T12:53:35Z</time>
      </trkpt>
      <trkpt lat="42.1255930" lon="-5.7981220">
        <ele>755.8</ele>
        <time>2021-10-12T12:53:38Z</time>
      </trkpt>
      <trkpt lat="42.1253100" lon="-5.7977950">
        <ele>755.4</ele>
        <time>2021-10-12T12:53:46Z</time>
      </trkpt>
      <trkpt lat="42.1252390" lon="-5.7977110">
        <ele>755.4</ele>
        <time>2021-10-12T12:53:48Z</time>
      </trkpt>
      <trkpt lat="42.1250460" lon="-5.7975050">
        <ele>755.2</ele>
        <time>2021-10-12T12:53:53Z</time>
      </trkpt>
      <trkpt lat="42.1246160" lon="-5.7970220">
        <ele>755.0</ele>
        <time>2021-10-12T12:54:04Z</time>
      </trkpt>
      <trkpt lat="42.1244590" lon="-5.7968460">
        <ele>754.6</ele>
        <time>2021-10-12T12:54:08Z</time>
      </trkpt>
      <trkpt lat="42.1243020" lon="-5.7966790">
        <ele>754.6</ele>
        <time>2021-10-12T12:54:12Z</time>
      </trkpt>
      <trkpt lat="42.1242210" lon="-5.7965970">
        <ele>754.8</ele>
        <time>2021-10-12T12:54:14Z</time>
      </trkpt>
      <trkpt lat="42.1238820" lon="-5.7962200">
        <ele>755.0</ele>
        <time>2021-10-12T12:54:23Z</time>
      </trkpt>
      <trkpt lat="42.1235840" lon="-5.7958820">
        <ele>755.0</ele>
        <time>2021-10-12T12:54:31Z</time>
      </trkpt>
      <trkpt lat="42.1234710" lon="-5.7957600">
        <ele>755.0</ele>
        <time>2021-10-12T12:54:34Z</time>
      </trkpt>
      <trkpt lat="42.1231140" lon="-5.7953560">
        <ele>754.8</ele>
        <time>2021-10-12T12:54:44Z</time>
      </trkpt>
      <trkpt lat="42.1228550" lon="-5.7950910">
        <ele>754.8</ele>
        <time>2021-10-12T12:54:51Z</time>
      </trkpt>
      <trkpt lat="42.1227860" lon="-5.7950160">
        <ele>754.8</ele>
        <time>2021-10-12T12:54:53Z</time>
      </trkpt>
      <trkpt lat="42.1225310" lon="-5.7947260">
        <ele>755.0</ele>
        <time>2021-10-12T12:55:01Z</time>
      </trkpt>
      <trkpt lat="42.1223630" lon="-5.7945510">
        <ele>755.0</ele>
        <time>2021-10-12T12:55:06Z</time>
      </trkpt>
      <trkpt lat="42.1222940" lon="-5.7944790">
        <ele>755.2</ele>
        <time>2021-10-12T12:55:08Z</time>
      </trkpt>
      <trkpt lat="42.1222670" lon="-5.7944370">
        <ele>755.2</ele>
        <time>2021-10-12T12:55:09Z</time>
      </trkpt>
      <trkpt lat="42.1222140" lon="-5.7943580">
        <ele>755.2</ele>
        <time>2021-10-12T12:55:11Z</time>
      </trkpt>
      <trkpt lat="42.1221480" lon="-5.7942980">
        <ele>755.2</ele>
        <time>2021-10-12T12:55:13Z</time>
      </trkpt>
      <trkpt lat="42.1218410" lon="-5.7939780">
        <ele>755.4</ele>
        <time>2021-10-12T12:55:22Z</time>
      </trkpt>
      <trkpt lat="42.1218070" lon="-5.7939370">
        <ele>755.4</ele>
        <time>2021-10-12T12:55:23Z</time>
      </trkpt>
      <trkpt lat="42.1216570" lon="-5.7937770">
        <ele>755.2</ele>
        <time>2021-10-12T12:55:27Z</time>
      </trkpt>
      <trkpt lat="42.1214660" lon="-5.7935770">
        <ele>755.2</ele>
        <time>2021-10-12T12:55:32Z</time>
      </trkpt>
      <trkpt lat="42.1211990" lon="-5.7933350">
        <ele>755.4</ele>
        <time>2021-10-12T12:55:39Z</time>
      </trkpt>
      <trkpt lat="42.1211220" lon="-5.7932670">
        <ele>755.4</ele>
        <time>2021-10-12T12:55:41Z</time>
      </trkpt>
      <trkpt lat="42.1207280" lon="-5.7929410">
        <ele>755.8</ele>
        <time>2021-10-12T12:55:51Z</time>
      </trkpt>
      <trkpt lat="42.1205700" lon="-5.7928120">
        <ele>755.8</ele>
        <time>2021-10-12T12:55:55Z</time>
      </trkpt>
      <trkpt lat="42.1204940" lon="-5.7927440">
        <ele>755.8</ele>
        <time>2021-10-12T12:55:57Z</time>
      </trkpt>
      <trkpt lat="42.1202500" lon="-5.7925460">
        <ele>755.8</ele>
        <time>2021-10-12T12:56:03Z</time>
      </trkpt>
      <trkpt lat="42.1201680" lon="-5.7924820">
        <ele>755.8</ele>
        <time>2021-10-12T12:56:05Z</time>
      </trkpt>
      <trkpt lat="42.1200430" lon="-5.7923880">
        <ele>755.8</ele>
        <time>2021-10-12T12:56:08Z</time>
      </trkpt>
      <trkpt lat="42.1199150" lon="-5.7923060">
        <ele>755.8</ele>
        <time>2021-10-12T12:56:11Z</time>
      </trkpt>
      <trkpt lat="42.1197430" lon="-5.7922000">
        <ele>755.8</ele>
        <time>2021-10-12T12:56:15Z</time>
      </trkpt>
      <trkpt lat="42.1194840" lon="-5.7920420">
        <ele>755.8</ele>
        <time>2021-10-12T12:56:21Z</time>
      </trkpt>
      <trkpt lat="42.1193570" lon="-5.7919640">
        <ele>756.2</ele>
        <time>2021-10-12T12:56:24Z</time>
      </trkpt>
      <trkpt lat="42.1193150" lon="-5.7919430">
        <ele>756.4</ele>
        <time>2021-10-12T12:56:25Z</time>
      </trkpt>
      <trkpt lat="42.1191600" lon="-5.7918370">
        <ele>756.4</ele>
        <time>2021-10-12T12:56:29Z</time>
      </trkpt>
      <trkpt lat="42.1191210" lon="-5.7918120">
        <ele>756.6</ele>
        <time>2021-10-12T12:56:30Z</time>
      </trkpt>
      <trkpt lat="42.1190820" lon="-5.7917890">
        <ele>756.6</ele>
        <time>2021-10-12T12:56:31Z</time>
      </trkpt>
      <trkpt lat="42.1187120" lon="-5.7915570">
        <ele>757.2</ele>
        <time>2021-10-12T12:56:41Z</time>
      </trkpt>
      <trkpt lat="42.1186780" lon="-5.7915320">
        <ele>757.4</ele>
        <time>2021-10-12T12:56:42Z</time>
      </trkpt>
      <trkpt lat="42.1185420" lon="-5.7914400">
        <ele>757.6</ele>
        <time>2021-10-12T12:56:46Z</time>
      </trkpt>
      <trkpt lat="42.1184500" lon="-5.7913610">
        <ele>757.8</ele>
        <time>2021-10-12T12:56:49Z</time>
      </trkpt>
      <trkpt lat="42.1183360" lon="-5.7912480">
        <ele>758.0</ele>
        <time>2021-10-12T12:56:53Z</time>
      </trkpt>
      <trkpt lat="42.1182320" lon="-5.7911130">
        <ele>758.4</ele>
        <time>2021-10-12T12:56:57Z</time>
      </trkpt>
      <trkpt lat="42.1182060" lon="-5.7910800">
        <ele>758.6</ele>
        <time>2021-10-12T12:56:58Z</time>
      </trkpt>
      <trkpt lat="42.1179870" lon="-5.7907960">
        <ele>759.4</ele>
        <time>2021-10-12T12:57:07Z</time>
      </trkpt>
      <trkpt lat="42.1179680" lon="-5.7907640">
        <ele>759.6</ele>
        <time>2021-10-12T12:57:08Z</time>
      </trkpt>
      <trkpt lat="42.1178830" lon="-5.7906500">
        <ele>759.8</ele>
        <time>2021-10-12T12:57:12Z</time>
      </trkpt>
      <trkpt lat="42.1178000" lon="-5.7905450">
        <ele>760.4</ele>
        <time>2021-10-12T12:57:16Z</time>
      </trkpt>
      <trkpt lat="42.1177810" lon="-5.7905210">
        <ele>760.4</ele>
        <time>2021-10-12T12:57:17Z</time>
      </trkpt>
      <trkpt lat="42.1177430" lon="-5.7904660">
        <ele>760.8</ele>
        <time>2021-10-12T12:57:19Z</time>
      </trkpt>
      <trkpt lat="42.1177050" lon="-5.7904080">
        <ele>761.2</ele>
        <time>2021-10-12T12:57:21Z</time>
      </trkpt>
      <trkpt lat="42.1176520" lon="-5.7903250">
        <ele>761.4</ele>
        <time>2021-10-12T12:57:24Z</time>
      </trkpt>
      <trkpt lat="42.1176100" lon="-5.7902700">
        <ele>761.6</ele>
        <time>2021-10-12T12:57:26Z</time>
      </trkpt>
      <trkpt lat="42.1175040" lon="-5.7901270">
        <ele>762.6</ele>
        <time>2021-10-12T12:57:32Z</time>
      </trkpt>
      <trkpt lat="42.1174610" lon="-5.7900670">
        <ele>763.0</ele>
        <time>2021-10-12T12:57:34Z</time>
      </trkpt>
      <trkpt lat="42.1173230" lon="-5.7898890">
        <ele>763.8</ele>
        <time>2021-10-12T12:57:41Z</time>
      </trkpt>
      <trkpt lat="42.1172830" lon="-5.7898350">
        <ele>764.0</ele>
        <time>2021-10-12T12:57:43Z</time>
      </trkpt>
      <trkpt lat="42.1172520" lon="-5.7897780">
        <ele>764.2</ele>
        <time>2021-10-12T12:57:45Z</time>
      </trkpt>
      <trkpt lat="42.1171920" lon="-5.7897010">
        <ele>764.4</ele>
        <time>2021-10-12T12:57:48Z</time>
      </trkpt>
      <trkpt lat="42.1171180" lon="-5.7895930">
        <ele>765.0</ele>
        <time>2021-10-12T12:57:52Z</time>
      </trkpt>
      <trkpt lat="42.1170620" lon="-5.7895160">
        <ele>765.2</ele>
        <time>2021-10-12T12:57:55Z</time>
      </trkpt>
      <trkpt lat="42.1170250" lon="-5.7894710">
        <ele>765.6</ele>
        <time>2021-10-12T12:57:57Z</time>
      </trkpt>
      <trkpt lat="42.1169880" lon="-5.7894230">
        <ele>766.0</ele>
        <time>2021-10-12T12:57:59Z</time>
      </trkpt>
      <trkpt lat="42.1169160" lon="-5.7893120">
        <ele>766.6</ele>
        <time>2021-10-12T12:58:03Z</time>
      </trkpt>
      <trkpt lat="42.1168620" lon="-5.7892290">
        <ele>767.0</ele>
        <time>2021-10-12T12:58:06Z</time>
      </trkpt>
      <trkpt lat="42.1168460" lon="-5.7892040">
        <ele>767.0</ele>
        <time>2021-10-12T12:58:07Z</time>
      </trkpt>
      <trkpt lat="42.1167980" lon="-5.7891330">
        <ele>767.2</ele>
        <time>2021-10-12T12:58:10Z</time>
      </trkpt>
      <trkpt lat="42.1167140" lon="-5.7889920">
        <ele>767.6</ele>
        <time>2021-10-12T12:58:15Z</time>
      </trkpt>
      <trkpt lat="42.1165950" lon="-5.7888470">
        <ele>768.0</ele>
        <time>2021-10-12T12:58:21Z</time>
      </trkpt>
      <trkpt lat="42.1165760" lon="-5.7888190">
        <ele>768.0</ele>
        <time>2021-10-12T12:58:22Z</time>
      </trkpt>
      <trkpt lat="42.1165170" lon="-5.7887170">
        <ele>768.0</ele>
        <time>2021-10-12T12:58:26Z</time>
      </trkpt>
      <trkpt lat="42.1164850" lon="-5.7886640">
        <ele>768.0</ele>
        <time>2021-10-12T12:58:28Z</time>
      </trkpt>
      <trkpt lat="42.1164510" lon="-5.7885930">
        <ele>768.0</ele>
        <time>2021-10-12T12:58:31Z</time>
      </trkpt>
      <trkpt lat="42.1164070" lon="-5.7885210">
        <ele>768.2</ele>
        <time>2021-10-12T12:58:34Z</time>
      </trkpt>
      <trkpt lat="42.1163780" lon="-5.7884620">
        <ele>768.2</ele>
        <time>2021-10-12T12:58:36Z</time>
      </trkpt>
      <trkpt lat="42.1162620" lon="-5.7882590">
        <ele>768.0</ele>
        <time>2021-10-12T12:58:43Z</time>
      </trkpt>
      <trkpt lat="42.1161930" lon="-5.7881160">
        <ele>767.2</ele>
        <time>2021-10-12T12:58:47Z</time>
      </trkpt>
      <trkpt lat="42.1161520" lon="-5.7880440">
        <ele>767.2</ele>
        <time>2021-10-12T12:58:49Z</time>
      </trkpt>
      <trkpt lat="42.1161310" lon="-5.7880050">
        <ele>767.0</ele>
        <time>2021-10-12T12:58:50Z</time>
      </trkpt>
      <trkpt lat="42.1160630" lon="-5.7878830">
        <ele>766.8</ele>
        <time>2021-10-12T12:58:53Z</time>
      </trkpt>
      <trkpt lat="42.1159890" lon="-5.7877450">
        <ele>766.4</ele>
        <time>2021-10-12T12:58:56Z</time>
      </trkpt>
      <trkpt lat="42.1159380" lon="-5.7876450">
        <ele>766.2</ele>
        <time>2021-10-12T12:58:58Z</time>
      </trkpt>
      <trkpt lat="42.1158830" lon="-5.7875400">
        <ele>765.8</ele>
        <time>2021-10-12T12:59:00Z</time>
      </trkpt>
      <trkpt lat="42.1157640" lon="-5.7873170">
        <ele>765.4</ele>
        <time>2021-10-12T12:59:04Z</time>
      </trkpt>
      <trkpt lat="42.1157000" lon="-5.7872010">
        <ele>765.2</ele>
        <time>2021-10-12T12:59:06Z</time>
      </trkpt>
      <trkpt lat="42.1156680" lon="-5.7871420">
        <ele>764.8</ele>
        <time>2021-10-12T12:59:07Z</time>
      </trkpt>
      <trkpt lat="42.1154780" lon="-5.7867840">
        <ele>764.2</ele>
        <time>2021-10-12T12:59:13Z</time>
      </trkpt>
      <trkpt lat="42.1153250" lon="-5.7865000">
        <ele>763.8</ele>
        <time>2021-10-12T12:59:18Z</time>
      </trkpt>
      <trkpt lat="42.1152080" lon="-5.7862880">
        <ele>763.4</ele>
        <time>2021-10-12T12:59:22Z</time>
      </trkpt>
      <trkpt lat="42.1151550" lon="-5.7861940">
        <ele>763.4</ele>
        <time>2021-10-12T12:59:24Z</time>
      </trkpt>
      <trkpt lat="42.1149870" lon="-5.7858780">
        <ele>763.2</ele>
        <time>2021-10-12T12:59:31Z</time>
      </trkpt>
      <trkpt lat="42.1148750" lon="-5.7856650">
        <ele>763.0</ele>
        <time>2021-10-12T12:59:36Z</time>
      </trkpt>
      <trkpt lat="42.1148100" lon="-5.7855490">
        <ele>763.2</ele>
        <time>2021-10-12T12:59:39Z</time>
      </trkpt>
      <trkpt lat="42.1146570" lon="-5.7852470">
        <ele>763.2</ele>
        <time>2021-10-12T12:59:47Z</time>
      </trkpt>
      <trkpt lat="42.1145330" lon="-5.7850370">
        <ele>763.4</ele>
        <time>2021-10-12T12:59:53Z</time>
      </trkpt>
      <trkpt lat="42.1144530" lon="-5.7848460">
        <ele>763.4</ele>
        <time>2021-10-12T12:59:58Z</time>
      </trkpt>
      <trkpt lat="42.1144260" lon="-5.7847790">
        <ele>763.2</ele>
        <time>2021-10-12T13:00:00Z</time>
      </trkpt>
      <trkpt lat="42.1142620" lon="-5.7845240">
        <ele>763.2</ele>
        <time>2021-10-12T13:00:08Z</time>
      </trkpt>
      <trkpt lat="42.1141110" lon="-5.7842510">
        <ele>763.0</ele>
        <time>2021-10-12T13:00:15Z</time>
      </trkpt>
      <trkpt lat="42.1139740" lon="-5.7840070">
        <ele>763.0</ele>
        <time>2021-10-12T13:00:21Z</time>
      </trkpt>
      <trkpt lat="42.1137970" lon="-5.7837410">
        <ele>763.0</ele>
        <time>2021-10-12T13:00:29Z</time>
      </trkpt>
      <trkpt lat="42.1137240" lon="-5.7836330">
        <ele>762.8</ele>
        <time>2021-10-12T13:00:32Z</time>
      </trkpt>
      <trkpt lat="42.1135560" lon="-5.7833940">
        <ele>762.8</ele>
        <time>2021-10-12T13:00:39Z</time>
      </trkpt>
      <trkpt lat="42.1133990" lon="-5.7831740">
        <ele>762.6</ele>
        <time>2021-10-12T13:00:47Z</time>
      </trkpt>
      <trkpt lat="42.1133750" lon="-5.7831470">
        <ele>762.6</ele>
        <time>2021-10-12T13:00:48Z</time>
      </trkpt>
      <trkpt lat="42.1131720" lon="-5.7828430">
        <ele>762.8</ele>
        <time>2021-10-12T13:00:57Z</time>
      </trkpt>
      <trkpt lat="42.1130280" lon="-5.7825920">
        <ele>762.8</ele>
        <time>2021-10-12T13:01:03Z</time>
      </trkpt>
      <trkpt lat="42.1129320" lon="-5.7824440">
        <ele>762.6</ele>
        <time>2021-10-12T13:01:07Z</time>
      </trkpt>
      <trkpt lat="42.1128710" lon="-5.7823250">
        <ele>762.6</ele>
        <time>2021-10-12T13:01:10Z</time>
      </trkpt>
      <trkpt lat="42.1127350" lon="-5.7821070">
        <ele>762.4</ele>
        <time>2021-10-12T13:01:17Z</time>
      </trkpt>
      <trkpt lat="42.1127050" lon="-5.7820510">
        <ele>762.4</ele>
        <time>2021-10-12T13:01:23Z</time>
      </trkpt>
      <trkpt lat="42.1126830" lon="-5.7820070">
        <ele>762.4</ele>
        <time>2021-10-12T13:01:29Z</time>
      </trkpt>
      <trkpt lat="42.1126530" lon="-5.7819550">
        <ele>762.4</ele>
        <time>2021-10-12T13:01:31Z</time>
      </trkpt>
      <trkpt lat="42.1125290" lon="-5.7817510">
        <ele>762.2</ele>
        <time>2021-10-12T13:01:37Z</time>
      </trkpt>
      <trkpt lat="42.1124020" lon="-5.7815320">
        <ele>762.6</ele>
        <time>2021-10-12T13:01:43Z</time>
      </trkpt>
      <trkpt lat="42.1123810" lon="-5.7814930">
        <ele>762.6</ele>
        <time>2021-10-12T13:01:44Z</time>
      </trkpt>
      <trkpt lat="42.1122450" lon="-5.7812460">
        <ele>762.6</ele>
        <time>2021-10-12T13:01:50Z</time>
      </trkpt>
      <trkpt lat="42.1121260" lon="-5.7810200">
        <ele>762.6</ele>
        <time>2021-10-12T13:01:55Z</time>
      </trkpt>
      <trkpt lat="42.1119710" lon="-5.7807430">
        <ele>762.8</ele>
        <time>2021-10-12T13:02:01Z</time>
      </trkpt>
      <trkpt lat="42.1118650" lon="-5.7805580">
        <ele>762.8</ele>
        <time>2021-10-12T13:02:05Z</time>
      </trkpt>
      <trkpt lat="42.1116020" lon="-5.7800950">
        <ele>762.8</ele>
        <time>2021-10-12T13:02:15Z</time>
      </trkpt>
      <trkpt lat="42.1113140" lon="-5.7795760">
        <ele>762.4</ele>
        <time>2021-10-12T13:02:26Z</time>
      </trkpt>
      <trkpt lat="42.1112560" lon="-5.7794720">
        <ele>762.2</ele>
        <time>2021-10-12T13:02:28Z</time>
      </trkpt>
      <trkpt lat="42.1112040" lon="-5.7793790">
        <ele>762.0</ele>
        <time>2021-10-12T13:02:30Z</time>
      </trkpt>
      <trkpt lat="42.1110760" lon="-5.7791600">
        <ele>761.8</ele>
        <time>2021-10-12T13:02:35Z</time>
      </trkpt>
      <trkpt lat="42.1110060" lon="-5.7790280">
        <ele>761.8</ele>
        <time>2021-10-12T13:02:38Z</time>
      </trkpt>
      <trkpt lat="42.1109910" lon="-5.7789200">
        <ele>761.8</ele>
        <time>2021-10-12T13:02:40Z</time>
      </trkpt>
      <trkpt lat="42.1109840" lon="-5.7788680">
        <ele>761.6</ele>
        <time>2021-10-12T13:02:41Z</time>
      </trkpt>
      <trkpt lat="42.1109200" lon="-5.7787430">
        <ele>761.6</ele>
        <time>2021-10-12T13:02:44Z</time>
      </trkpt>
      <trkpt lat="42.1108930" lon="-5.7787000">
        <ele>761.6</ele>
        <time>2021-10-12T13:02:45Z</time>
      </trkpt>
      <trkpt lat="42.1107010" lon="-5.7783600">
        <ele>761.6</ele>
        <time>2021-10-12T13:02:52Z</time>
      </trkpt>
      <trkpt lat="42.1105020" lon="-5.7779310">
        <ele>761.6</ele>
        <time>2021-10-12T13:03:00Z</time>
      </trkpt>
      <trkpt lat="42.1104800" lon="-5.7778770">
        <ele>761.6</ele>
        <time>2021-10-12T13:03:01Z</time>
      </trkpt>
      <trkpt lat="42.1103960" lon="-5.7776520">
        <ele>761.4</ele>
        <time>2021-10-12T13:03:05Z</time>
      </trkpt>
      <trkpt lat="42.1103440" lon="-5.7775390">
        <ele>761.2</ele>
        <time>2021-10-12T13:03:07Z</time>
      </trkpt>
      <trkpt lat="42.1103230" lon="-5.7774910">
        <ele>761.2</ele>
        <time>2021-10-12T13:03:08Z</time>
      </trkpt>
      <trkpt lat="42.1102620" lon="-5.7773630">
        <ele>761.0</ele>
        <time>2021-10-12T13:03:10Z</time>
      </trkpt>
      <trkpt lat="42.1101040" lon="-5.7770610">
        <ele>760.4</ele>
        <time>2021-10-12T13:03:15Z</time>
      </trkpt>
      <trkpt lat="42.1100680" lon="-5.7769930">
        <ele>760.0</ele>
        <time>2021-10-12T13:03:16Z</time>
      </trkpt>
      <trkpt lat="42.1098550" lon="-5.7766280">
        <ele>759.0</ele>
        <time>2021-10-12T13:03:21Z</time>
      </trkpt>
      <trkpt lat="42.1098070" lon="-5.7765510">
        <ele>758.8</ele>
        <time>2021-10-12T13:03:22Z</time>
      </trkpt>
      <trkpt lat="42.1096590" lon="-5.7763050">
        <ele>757.4</ele>
        <time>2021-10-12T13:03:25Z</time>
      </trkpt>
      <trkpt lat="42.1095090" lon="-5.7760420">
        <ele>756.0</ele>
        <time>2021-10-12T13:03:28Z</time>
      </trkpt>
      <trkpt lat="42.1094630" lon="-5.7759500">
        <ele>755.6</ele>
        <time>2021-10-12T13:03:29Z</time>
      </trkpt>
      <trkpt lat="42.1093750" lon="-5.7757590">
        <ele>755.0</ele>
        <time>2021-10-12T13:03:31Z</time>
      </trkpt>
      <trkpt lat="42.1092580" lon="-5.7754660">
        <ele>753.6</ele>
        <time>2021-10-12T13:03:34Z</time>
      </trkpt>
      <trkpt lat="42.1091880" lon="-5.7752830">
        <ele>753.0</ele>
        <time>2021-10-12T13:03:36Z</time>
      </trkpt>
      <trkpt lat="42.1091520" lon="-5.7751960">
        <ele>752.6</ele>
        <time>2021-10-12T13:03:37Z</time>
      </trkpt>
      <trkpt lat="42.1090230" lon="-5.7748970">
        <ele>752.0</ele>
        <time>2021-10-12T13:03:41Z</time>
      </trkpt>
      <trkpt lat="42.1089090" lon="-5.7746600">
        <ele>751.8</ele>
        <time>2021-10-12T13:03:45Z</time>
      </trkpt>
      <trkpt lat="42.1088830" lon="-5.7746010">
        <ele>751.8</ele>
        <time>2021-10-12T13:03:46Z</time>
      </trkpt>
      <trkpt lat="42.1087600" lon="-5.7742780">
        <ele>752.6</ele>
        <time>2021-10-12T13:03:52Z</time>
      </trkpt>
      <trkpt lat="42.1087450" lon="-5.7742320">
        <ele>752.8</ele>
        <time>2021-10-12T13:03:53Z</time>
      </trkpt>
      <trkpt lat="42.1086800" lon="-5.7740810">
        <ele>753.8</ele>
        <time>2021-10-12T13:03:57Z</time>
      </trkpt>
      <trkpt lat="42.1086530" lon="-5.7740130">
        <ele>754.4</ele>
        <time>2021-10-12T13:03:59Z</time>
      </trkpt>
      <trkpt lat="42.1086240" lon="-5.7739550">
        <ele>755.0</ele>
        <time>2021-10-12T13:04:01Z</time>
      </trkpt>
      <trkpt lat="42.1085720" lon="-5.7738360">
        <ele>755.6</ele>
        <time>2021-10-12T13:04:05Z</time>
      </trkpt>
      <trkpt lat="42.1085320" lon="-5.7737440">
        <ele>756.2</ele>
        <time>2021-10-12T13:04:08Z</time>
      </trkpt>
      <trkpt lat="42.1084580" lon="-5.7735820">
        <ele>757.4</ele>
        <time>2021-10-12T13:04:14Z</time>
      </trkpt>
      <trkpt lat="42.1083890" lon="-5.7734380">
        <ele>758.2</ele>
        <time>2021-10-12T13:04:21Z</time>
      </trkpt>
      <trkpt lat="42.1083480" lon="-5.7733610">
        <ele>758.6</ele>
        <time>2021-10-12T13:04:23Z</time>
      </trkpt>
      <trkpt lat="42.1083220" lon="-5.7733040">
        <ele>758.8</ele>
        <time>2021-10-12T13:04:25Z</time>
      </trkpt>
      <trkpt lat="42.1082990" lon="-5.7732530">
        <ele>759.0</ele>
        <time>2021-10-12T13:04:27Z</time>
      </trkpt>
      <trkpt lat="42.1082720" lon="-5.7732020">
        <ele>759.4</ele>
        <time>2021-10-12T13:04:29Z</time>
      </trkpt>
      <trkpt lat="42.1082410" lon="-5.7731480">
        <ele>759.4</ele>
        <time>2021-10-12T13:04:31Z</time>
      </trkpt>
      <trkpt lat="42.1082120" lon="-5.7730950">
        <ele>759.8</ele>
        <time>2021-10-12T13:04:33Z</time>
      </trkpt>
      <trkpt lat="42.1081250" lon="-5.7729340">
        <ele>760.6</ele>
        <time>2021-10-12T13:04:39Z</time>
      </trkpt>
      <trkpt lat="42.1081090" lon="-5.7729070">
        <ele>760.6</ele>
        <time>2021-10-12T13:04:40Z</time>
      </trkpt>
      <trkpt lat="42.1080750" lon="-5.7728490">
        <ele>760.8</ele>
        <time>2021-10-12T13:04:42Z</time>
      </trkpt>
      <trkpt lat="42.1080590" lon="-5.7728190">
        <ele>760.8</ele>
        <time>2021-10-12T13:04:43Z</time>
      </trkpt>
      <trkpt lat="42.1080350" lon="-5.7727610">
        <ele>761.0</ele>
        <time>2021-10-12T13:04:45Z</time>
      </trkpt>
      <trkpt lat="42.1080100" lon="-5.7727070">
        <ele>761.0</ele>
        <time>2021-10-12T13:04:47Z</time>
      </trkpt>
      <trkpt lat="42.1079940" lon="-5.7726710">
        <ele>761.0</ele>
        <time>2021-10-12T13:04:48Z</time>
      </trkpt>
      <trkpt lat="42.1078990" lon="-5.7724990">
        <ele>761.2</ele>
        <time>2021-10-12T13:04:53Z</time>
      </trkpt>
      <trkpt lat="42.1078580" lon="-5.7724190">
        <ele>761.2</ele>
        <time>2021-10-12T13:04:55Z</time>
      </trkpt>
      <trkpt lat="42.1077050" lon="-5.7721310">
        <ele>761.2</ele>
        <time>2021-10-12T13:05:02Z</time>
      </trkpt>
      <trkpt lat="42.1076540" lon="-5.7720340">
        <ele>761.2</ele>
        <time>2021-10-12T13:05:04Z</time>
      </trkpt>
      <trkpt lat="42.1075590" lon="-5.7718540">
        <ele>761.2</ele>
        <time>2021-10-12T13:05:08Z</time>
      </trkpt>
      <trkpt lat="42.1075150" lon="-5.7717730">
        <ele>761.2</ele>
        <time>2021-10-12T13:05:10Z</time>
      </trkpt>
      <trkpt lat="42.1074910" lon="-5.7717240">
        <ele>761.2</ele>
        <time>2021-10-12T13:05:11Z</time>
      </trkpt>
      <trkpt lat="42.1073650" lon="-5.7714800">
        <ele>761.4</ele>
        <time>2021-10-12T13:05:16Z</time>
      </trkpt>
      <trkpt lat="42.1073080" lon="-5.7713730">
        <ele>761.4</ele>
        <time>2021-10-12T13:05:18Z</time>
      </trkpt>
      <trkpt lat="42.1072360" lon="-5.7712300">
        <ele>761.4</ele>
        <time>2021-10-12T13:05:21Z</time>
      </trkpt>
      <trkpt lat="42.1071490" lon="-5.7710630">
        <ele>761.4</ele>
        <time>2021-10-12T13:05:24Z</time>
      </trkpt>
      <trkpt lat="42.1070540" lon="-5.7708730">
        <ele>761.2</ele>
        <time>2021-10-12T13:05:28Z</time>
      </trkpt>
      <trkpt lat="42.1069790" lon="-5.7707210">
        <ele>761.2</ele>
        <time>2021-10-12T13:05:31Z</time>
      </trkpt>
      <trkpt lat="42.1069470" lon="-5.7706610">
        <ele>761.2</ele>
        <time>2021-10-12T13:05:32Z</time>
      </trkpt>
      <trkpt lat="42.1069200" lon="-5.7706100">
        <ele>761.2</ele>
        <time>2021-10-12T13:05:33Z</time>
      </trkpt>
      <trkpt lat="42.1068710" lon="-5.7705160">
        <ele>761.2</ele>
        <time>2021-10-12T13:05:35Z</time>
      </trkpt>
      <trkpt lat="42.1067590" lon="-5.7703090">
        <ele>761.2</ele>
        <time>2021-10-12T13:05:39Z</time>
      </trkpt>
      <trkpt lat="42.1067020" lon="-5.7702020">
        <ele>761.2</ele>
        <time>2021-10-12T13:05:41Z</time>
      </trkpt>
      <trkpt lat="42.1066220" lon="-5.7700820">
        <ele>761.2</ele>
        <time>2021-10-12T13:05:44Z</time>
      </trkpt>
      <trkpt lat="42.1064100" lon="-5.7698120">
        <ele>761.4</ele>
        <time>2021-10-12T13:05:51Z</time>
      </trkpt>
      <trkpt lat="42.1062420" lon="-5.7696240">
        <ele>761.6</ele>
        <time>2021-10-12T13:05:56Z</time>
      </trkpt>
      <trkpt lat="42.1061130" lon="-5.7694770">
        <ele>761.8</ele>
        <time>2021-10-12T13:06:00Z</time>
      </trkpt>
      <trkpt lat="42.1060000" lon="-5.7693510">
        <ele>762.0</ele>
        <time>2021-10-12T13:06:03Z</time>
      </trkpt>
      <trkpt lat="42.1058290" lon="-5.7691720">
        <ele>762.0</ele>
        <time>2021-10-12T13:06:08Z</time>
      </trkpt>
      <trkpt lat="42.1057930" lon="-5.7691300">
        <ele>762.0</ele>
        <time>2021-10-12T13:06:09Z</time>
      </trkpt>
      <trkpt lat="42.1057500" lon="-5.7690800">
        <ele>762.0</ele>
        <time>2021-10-12T13:06:10Z</time>
      </trkpt>
      <trkpt lat="42.1055070" lon="-5.7688130">
        <ele>762.2</ele>
        <time>2021-10-12T13:06:17Z</time>
      </trkpt>
      <trkpt lat="42.1054350" lon="-5.7687350">
        <ele>762.2</ele>
        <time>2021-10-12T13:06:19Z</time>
      </trkpt>
      <trkpt lat="42.1052390" lon="-5.7685150">
        <ele>762.4</ele>
        <time>2021-10-12T13:06:25Z</time>
      </trkpt>
      <trkpt lat="42.1051290" lon="-5.7684010">
        <ele>762.4</ele>
        <time>2021-10-12T13:06:28Z</time>
      </trkpt>
      <trkpt lat="42.1050580" lon="-5.7683230">
        <ele>762.4</ele>
        <time>2021-10-12T13:06:30Z</time>
      </trkpt>
      <trkpt lat="42.1048540" lon="-5.7680930">
        <ele>762.6</ele>
        <time>2021-10-12T13:06:36Z</time>
      </trkpt>
      <trkpt lat="42.1048180" lon="-5.7680520">
        <ele>762.6</ele>
        <time>2021-10-12T13:06:37Z</time>
      </trkpt>
      <trkpt lat="42.1046690" lon="-5.7678930">
        <ele>762.4</ele>
        <time>2021-10-12T13:06:41Z</time>
      </trkpt>
      <trkpt lat="42.1044040" lon="-5.7676020">
        <ele>762.6</ele>
        <time>2021-10-12T13:06:48Z</time>
      </trkpt>
      <trkpt lat="42.1039760" lon="-5.7671190">
        <ele>762.4</ele>
        <time>2021-10-12T13:06:59Z</time>
      </trkpt>
      <trkpt lat="42.1039340" lon="-5.7670740">
        <ele>762.4</ele>
        <time>2021-10-12T13:07:00Z</time>
      </trkpt>
      <trkpt lat="42.1035840" lon="-5.7666830">
        <ele>762.4</ele>
        <time>2021-10-12T13:07:08Z</time>
      </trkpt>
      <trkpt lat="42.1034240" lon="-5.7664990">
        <ele>762.4</ele>
        <time>2021-10-12T13:07:12Z</time>
      </trkpt>
      <trkpt lat="42.1033190" lon="-5.7663820">
        <ele>762.4</ele>
        <time>2021-10-12T13:07:15Z</time>
      </trkpt>
      <trkpt lat="42.1031620" lon="-5.7662120">
        <ele>762.4</ele>
        <time>2021-10-12T13:07:19Z</time>
      </trkpt>
      <trkpt lat="42.1029020" lon="-5.7659180">
        <ele>762.2</ele>
        <time>2021-10-12T13:07:26Z</time>
      </trkpt>
      <trkpt lat="42.1028600" lon="-5.7658720">
        <ele>762.2</ele>
        <time>2021-10-12T13:07:27Z</time>
      </trkpt>
      <trkpt lat="42.1026960" lon="-5.7656850">
        <ele>761.8</ele>
        <time>2021-10-12T13:07:31Z</time>
      </trkpt>
      <trkpt lat="42.1025210" lon="-5.7654960">
        <ele>761.2</ele>
        <time>2021-10-12T13:07:35Z</time>
      </trkpt>
      <trkpt lat="42.1024370" lon="-5.7654050">
        <ele>761.2</ele>
        <time>2021-10-12T13:07:37Z</time>
      </trkpt>
      <trkpt lat="42.1021430" lon="-5.7650840">
        <ele>760.6</ele>
        <time>2021-10-12T13:07:44Z</time>
      </trkpt>
      <trkpt lat="42.1020540" lon="-5.7649860">
        <ele>760.2</ele>
        <time>2021-10-12T13:07:46Z</time>
      </trkpt>
      <trkpt lat="42.1019750" lon="-5.7648950">
        <ele>760.0</ele>
        <time>2021-10-12T13:07:48Z</time>
      </trkpt>
      <trkpt lat="42.1016620" lon="-5.7645470">
        <ele>759.8</ele>
        <time>2021-10-12T13:07:55Z</time>
      </trkpt>
      <trkpt lat="42.1013630" lon="-5.7642230">
        <ele>759.0</ele>
        <time>2021-10-12T13:08:02Z</time>
      </trkpt>
      <trkpt lat="42.1011960" lon="-5.7640500">
        <ele>758.4</ele>
        <time>2021-10-12T13:08:06Z</time>
      </trkpt>
      <trkpt lat="42.1010900" lon="-5.7639340">
        <ele>758.0</ele>
        <time>2021-10-12T13:08:09Z</time>
      </trkpt>
      <trkpt lat="42.1010530" lon="-5.7638870">
        <ele>757.8</ele>
        <time>2021-10-12T13:08:10Z</time>
      </trkpt>
      <trkpt lat="42.1009130" lon="-5.7637350">
        <ele>757.6</ele>
        <time>2021-10-12T13:08:13Z</time>
      </trkpt>
      <trkpt lat="42.1007790" lon="-5.7635760">
        <ele>757.4</ele>
        <time>2021-10-12T13:08:16Z</time>
      </trkpt>
      <trkpt lat="42.1006500" lon="-5.7634310">
        <ele>757.0</ele>
        <time>2021-10-12T13:08:19Z</time>
      </trkpt>
      <trkpt lat="42.1006060" lon="-5.7633740">
        <ele>757.2</ele>
        <time>2021-10-12T13:08:20Z</time>
      </trkpt>
      <trkpt lat="42.1005580" lon="-5.7633060">
        <ele>757.0</ele>
        <time>2021-10-12T13:08:21Z</time>
      </trkpt>
      <trkpt lat="42.1005210" lon="-5.7632460">
        <ele>756.8</ele>
        <time>2021-10-12T13:08:22Z</time>
      </trkpt>
      <trkpt lat="42.1003890" lon="-5.7630170">
        <ele>756.8</ele>
        <time>2021-10-12T13:08:26Z</time>
      </trkpt>
      <trkpt lat="42.1003590" lon="-5.7629580">
        <ele>756.8</ele>
        <time>2021-10-12T13:08:27Z</time>
      </trkpt>
      <trkpt lat="42.1003090" lon="-5.7628490">
        <ele>756.8</ele>
        <time>2021-10-12T13:08:29Z</time>
      </trkpt>
      <trkpt lat="42.1002390" lon="-5.7627190">
        <ele>756.8</ele>
        <time>2021-10-12T13:08:31Z</time>
      </trkpt>
      <trkpt lat="42.1001230" lon="-5.7624860">
        <ele>757.0</ele>
        <time>2021-10-12T13:08:35Z</time>
      </trkpt>
      <trkpt lat="42.1000290" lon="-5.7622910">
        <ele>757.2</ele>
        <time>2021-10-12T13:08:38Z</time>
      </trkpt>
      <trkpt lat="42.0998240" lon="-5.7618530">
        <ele>757.8</ele>
        <time>2021-10-12T13:08:46Z</time>
      </trkpt>
      <trkpt lat="42.0997770" lon="-5.7617600">
        <ele>758.0</ele>
        <time>2021-10-12T13:08:48Z</time>
      </trkpt>
      <trkpt lat="42.0996880" lon="-5.7615890">
        <ele>758.4</ele>
        <time>2021-10-12T13:08:51Z</time>
      </trkpt>
      <trkpt lat="42.0996410" lon="-5.7614940">
        <ele>758.4</ele>
        <time>2021-10-12T13:08:53Z</time>
      </trkpt>
      <trkpt lat="42.0996120" lon="-5.7614300">
        <ele>758.4</ele>
        <time>2021-10-12T13:08:54Z</time>
      </trkpt>
      <trkpt lat="42.0995870" lon="-5.7613770">
        <ele>758.6</ele>
        <time>2021-10-12T13:08:55Z</time>
      </trkpt>
      <trkpt lat="42.0995120" lon="-5.7612310">
        <ele>759.0</ele>
        <time>2021-10-12T13:08:58Z</time>
      </trkpt>
      <trkpt lat="42.0994530" lon="-5.7611260">
        <ele>759.2</ele>
        <time>2021-10-12T13:09:00Z</time>
      </trkpt>
      <trkpt lat="42.0994250" lon="-5.7610830">
        <ele>759.2</ele>
        <time>2021-10-12T13:09:01Z</time>
      </trkpt>
      <trkpt lat="42.0993040" lon="-5.7609060">
        <ele>759.8</ele>
        <time>2021-10-12T13:09:05Z</time>
      </trkpt>
      <trkpt lat="42.0992090" lon="-5.7607940">
        <ele>760.2</ele>
        <time>2021-10-12T13:09:08Z</time>
      </trkpt>
      <trkpt lat="42.0991750" lon="-5.7607570">
        <ele>760.2</ele>
        <time>2021-10-12T13:09:09Z</time>
      </trkpt>
      <trkpt lat="42.0990810" lon="-5.7606610">
        <ele>760.4</ele>
        <time>2021-10-12T13:09:12Z</time>
      </trkpt>
      <trkpt lat="42.0990010" lon="-5.7605950">
        <ele>760.8</ele>
        <time>2021-10-12T13:09:14Z</time>
      </trkpt>
      <trkpt lat="42.0988940" lon="-5.7604930">
        <ele>760.8</ele>
        <time>2021-10-12T13:09:17Z</time>
      </trkpt>
      <trkpt lat="42.0986760" lon="-5.7603040">
        <ele>761.0</ele>
        <time>2021-10-12T13:09:23Z</time>
      </trkpt>
      <trkpt lat="42.0985000" lon="-5.7601360">
        <ele>761.2</ele>
        <time>2021-10-12T13:09:28Z</time>
      </trkpt>
      <trkpt lat="42.0982570" lon="-5.7599130">
        <ele>761.2</ele>
        <time>2021-10-12T13:09:34Z</time>
      </trkpt>
      <trkpt lat="42.0981480" lon="-5.7598130">
        <ele>761.2</ele>
        <time>2021-10-12T13:09:37Z</time>
      </trkpt>
      <trkpt lat="42.0979470" lon="-5.7596530">
        <ele>761.2</ele>
        <time>2021-10-12T13:09:42Z</time>
      </trkpt>
      <trkpt lat="42.0978310" lon="-5.7595610">
        <ele>761.0</ele>
        <time>2021-10-12T13:09:45Z</time>
      </trkpt>
      <trkpt lat="42.0976810" lon="-5.7594450">
        <ele>761.2</ele>
        <time>2021-10-12T13:09:49Z</time>
      </trkpt>
      <trkpt lat="42.0974910" lon="-5.7593130">
        <ele>761.2</ele>
        <time>2021-10-12T13:09:54Z</time>
      </trkpt>
      <trkpt lat="42.0974150" lon="-5.7592550">
        <ele>761.2</ele>
        <time>2021-10-12T13:09:56Z</time>
      </trkpt>
      <trkpt lat="42.0972560" lon="-5.7591510">
        <ele>761.4</ele>
        <time>2021-10-12T13:10:00Z</time>
      </trkpt>
      <trkpt lat="42.0971370" lon="-5.7590570">
        <ele>761.6</ele>
        <time>2021-10-12T13:10:03Z</time>
      </trkpt>
      <trkpt lat="42.0967490" lon="-5.7587750">
        <ele>761.8</ele>
        <time>2021-10-12T13:10:12Z</time>
      </trkpt>
      <trkpt lat="42.0966740" lon="-5.7587190">
        <ele>761.8</ele>
        <time>2021-10-12T13:10:14Z</time>
      </trkpt>
      <trkpt lat="42.0965810" lon="-5.7586490">
        <ele>761.6</ele>
        <time>2021-10-12T13:10:16Z</time>
      </trkpt>
      <trkpt lat="42.0965010" lon="-5.7585750">
        <ele>761.6</ele>
        <time>2021-10-12T13:10:18Z</time>
      </trkpt>
      <trkpt lat="42.0963900" lon="-5.7584570">
        <ele>761.6</ele>
        <time>2021-10-12T13:10:21Z</time>
      </trkpt>
      <trkpt lat="42.0961700" lon="-5.7581870">
        <ele>761.6</ele>
        <time>2021-10-12T13:10:27Z</time>
      </trkpt>
      <trkpt lat="42.0960650" lon="-5.7580390">
        <ele>761.6</ele>
        <time>2021-10-12T13:10:30Z</time>
      </trkpt>
      <trkpt lat="42.0959660" lon="-5.7579000">
        <ele>761.8</ele>
        <time>2021-10-12T13:10:33Z</time>
      </trkpt>
      <trkpt lat="42.0958910" lon="-5.7577880">
        <ele>761.8</ele>
        <time>2021-10-12T13:10:35Z</time>
      </trkpt>
      <trkpt lat="42.0957910" lon="-5.7576370">
        <ele>761.8</ele>
        <time>2021-10-12T13:10:38Z</time>
      </trkpt>
      <trkpt lat="42.0956890" lon="-5.7574870">
        <ele>761.6</ele>
        <time>2021-10-12T13:10:41Z</time>
      </trkpt>
      <trkpt lat="42.0955050" lon="-5.7571960">
        <ele>761.6</ele>
        <time>2021-10-12T13:10:47Z</time>
      </trkpt>
      <trkpt lat="42.0953690" lon="-5.7569930">
        <ele>761.4</ele>
        <time>2021-10-12T13:10:51Z</time>
      </trkpt>
      <trkpt lat="42.0952070" lon="-5.7567520">
        <ele>761.4</ele>
        <time>2021-10-12T13:10:56Z</time>
      </trkpt>
      <trkpt lat="42.0950780" lon="-5.7565630">
        <ele>761.6</ele>
        <time>2021-10-12T13:11:00Z</time>
      </trkpt>
      <trkpt lat="42.0950080" lon="-5.7564620">
        <ele>761.8</ele>
        <time>2021-10-12T13:11:02Z</time>
      </trkpt>
      <trkpt lat="42.0949420" lon="-5.7563600">
        <ele>761.8</ele>
        <time>2021-10-12T13:11:04Z</time>
      </trkpt>
      <trkpt lat="42.0947650" lon="-5.7561130">
        <ele>761.8</ele>
        <time>2021-10-12T13:11:09Z</time>
      </trkpt>
      <trkpt lat="42.0945940" lon="-5.7558720">
        <ele>761.8</ele>
        <time>2021-10-12T13:11:14Z</time>
      </trkpt>
      <trkpt lat="42.0943700" lon="-5.7555350">
        <ele>761.8</ele>
        <time>2021-10-12T13:11:21Z</time>
      </trkpt>
      <trkpt lat="42.0943060" lon="-5.7554370">
        <ele>761.8</ele>
        <time>2021-10-12T13:11:23Z</time>
      </trkpt>
      <trkpt lat="42.0941920" lon="-5.7552230">
        <ele>761.6</ele>
        <time>2021-10-12T13:11:27Z</time>
      </trkpt>
      <trkpt lat="42.0941590" lon="-5.7551250">
        <ele>761.6</ele>
        <time>2021-10-12T13:11:29Z</time>
      </trkpt>
      <trkpt lat="42.0940600" lon="-5.7548440">
        <ele>761.4</ele>
        <time>2021-10-12T13:11:35Z</time>
      </trkpt>
      <trkpt lat="42.0939640" lon="-5.7546860">
        <ele>761.4</ele>
        <time>2021-10-12T13:11:41Z</time>
      </trkpt>
      <trkpt lat="42.0939390" lon="-5.7546600">
        <ele>761.2</ele>
        <time>2021-10-12T13:11:47Z</time>
      </trkpt>
      <trkpt lat="42.0938900" lon="-5.7545980">
        <ele>761.2</ele>
        <time>2021-10-12T13:14:50Z</time>
      </trkpt>
      <trkpt lat="42.0938470" lon="-5.7545440">
        <ele>761.2</ele>
        <time>2021-10-12T13:14:52Z</time>
      </trkpt>
      <trkpt lat="42.0938010" lon="-5.7544860">
        <ele>761.2</ele>
        <time>2021-10-12T13:14:54Z</time>
      </trkpt>
      <trkpt lat="42.0937140" lon="-5.7543800">
        <ele>761.0</ele>
        <time>2021-10-12T13:14:57Z</time>
      </trkpt>
      <trkpt lat="42.0936860" lon="-5.7543450">
        <ele>761.0</ele>
        <time>2021-10-12T13:14:58Z</time>
      </trkpt>
      <trkpt lat="42.0935310" lon="-5.7541440">
        <ele>760.8</ele>
        <time>2021-10-12T13:15:03Z</time>
      </trkpt>
      <trkpt lat="42.0933190" lon="-5.7538820">
        <ele>760.6</ele>
        <time>2021-10-12T13:15:09Z</time>
      </trkpt>
      <trkpt lat="42.0932850" lon="-5.7538340">
        <ele>760.4</ele>
        <time>2021-10-12T13:15:10Z</time>
      </trkpt>
      <trkpt lat="42.0931170" lon="-5.7535890">
        <ele>760.4</ele>
        <time>2021-10-12T13:15:15Z</time>
      </trkpt>
      <trkpt lat="42.0930110" lon="-5.7534490">
        <ele>760.2</ele>
        <time>2021-10-12T13:15:18Z</time>
      </trkpt>
      <trkpt lat="42.0928270" lon="-5.7532040">
        <ele>760.2</ele>
        <time>2021-10-12T13:15:23Z</time>
      </trkpt>
      <trkpt lat="42.0927890" lon="-5.7531560">
        <ele>760.2</ele>
        <time>2021-10-12T13:15:24Z</time>
      </trkpt>
      <trkpt lat="42.0925530" lon="-5.7528770">
        <ele>760.2</ele>
        <time>2021-10-12T13:15:30Z</time>
      </trkpt>
      <trkpt lat="42.0923090" lon="-5.7526180">
        <ele>760.4</ele>
        <time>2021-10-12T13:15:37Z</time>
      </trkpt>
      <trkpt lat="42.0920150" lon="-5.7523610">
        <ele>760.6</ele>
        <time>2021-10-12T13:15:46Z</time>
      </trkpt>
      <trkpt lat="42.0918270" lon="-5.7522400">
        <ele>761.0</ele>
        <time>2021-10-12T13:15:52Z</time>
      </trkpt>
      <trkpt lat="42.0915810" lon="-5.7521160">
        <ele>761.2</ele>
        <time>2021-10-12T13:15:59Z</time>
      </trkpt>
      <trkpt lat="42.0913390" lon="-5.7519460">
        <ele>761.2</ele>
        <time>2021-10-12T13:16:06Z</time>
      </trkpt>
      <trkpt lat="42.0911620" lon="-5.7518150">
        <ele>761.4</ele>
        <time>2021-10-12T13:16:11Z</time>
      </trkpt>
      <trkpt lat="42.0909720" lon="-5.7516800">
        <ele>761.8</ele>
        <time>2021-10-12T13:16:16Z</time>
      </trkpt>
      <trkpt lat="42.0908190" lon="-5.7515680">
        <ele>761.8</ele>
        <time>2021-10-12T13:16:20Z</time>
      </trkpt>
      <trkpt lat="42.0906180" lon="-5.7514260">
        <ele>761.6</ele>
        <time>2021-10-12T13:16:25Z</time>
      </trkpt>
      <trkpt lat="42.0904990" lon="-5.7513350">
        <ele>761.6</ele>
        <time>2021-10-12T13:16:28Z</time>
      </trkpt>
      <trkpt lat="42.0902990" lon="-5.7511940">
        <ele>761.6</ele>
        <time>2021-10-12T13:16:33Z</time>
      </trkpt>
      <trkpt lat="42.0900520" lon="-5.7510130">
        <ele>761.4</ele>
        <time>2021-10-12T13:16:39Z</time>
      </trkpt>
      <trkpt lat="42.0898810" lon="-5.7508880">
        <ele>761.4</ele>
        <time>2021-10-12T13:16:43Z</time>
      </trkpt>
      <trkpt lat="42.0894990" lon="-5.7506100">
        <ele>761.2</ele>
        <time>2021-10-12T13:16:52Z</time>
      </trkpt>
      <trkpt lat="42.0891110" lon="-5.7503370">
        <ele>761.6</ele>
        <time>2021-10-12T13:17:01Z</time>
      </trkpt>
      <trkpt lat="42.0890680" lon="-5.7503060">
        <ele>761.6</ele>
        <time>2021-10-12T13:17:02Z</time>
      </trkpt>
      <trkpt lat="42.0886800" lon="-5.7500340">
        <ele>761.6</ele>
        <time>2021-10-12T13:17:11Z</time>
      </trkpt>
      <trkpt lat="42.0885990" lon="-5.7499740">
        <ele>761.6</ele>
        <time>2021-10-12T13:17:13Z</time>
      </trkpt>
      <trkpt lat="42.0883130" lon="-5.7497670">
        <ele>761.4</ele>
        <time>2021-10-12T13:17:20Z</time>
      </trkpt>
      <trkpt lat="42.0880420" lon="-5.7495070">
        <ele>761.4</ele>
        <time>2021-10-12T13:17:27Z</time>
      </trkpt>
      <trkpt lat="42.0880060" lon="-5.7494650">
        <ele>761.2</ele>
        <time>2021-10-12T13:17:28Z</time>
      </trkpt>
      <trkpt lat="42.0876970" lon="-5.7490540">
        <ele>760.8</ele>
        <time>2021-10-12T13:17:37Z</time>
      </trkpt>
      <trkpt lat="42.0875620" lon="-5.7488760">
        <ele>760.8</ele>
        <time>2021-10-12T13:17:41Z</time>
      </trkpt>
      <trkpt lat="42.0874130" lon="-5.7487070">
        <ele>760.8</ele>
        <time>2021-10-12T13:17:45Z</time>
      </trkpt>
      <trkpt lat="42.0870050" lon="-5.7483470">
        <ele>760.6</ele>
        <time>2021-10-12T13:17:55Z</time>
      </trkpt>
      <trkpt lat="42.0868840" lon="-5.7482460">
        <ele>760.6</ele>
        <time>2021-10-12T13:17:58Z</time>
      </trkpt>
      <trkpt lat="42.0867200" lon="-5.7481020">
        <ele>760.6</ele>
        <time>2021-10-12T13:18:02Z</time>
      </trkpt>
      <trkpt lat="42.0865620" lon="-5.7479670">
        <ele>760.4</ele>
        <time>2021-10-12T13:18:06Z</time>
      </trkpt>
      <trkpt lat="42.0863410" lon="-5.7477800">
        <ele>760.4</ele>
        <time>2021-10-12T13:18:11Z</time>
      </trkpt>
      <trkpt lat="42.0861370" lon="-5.7476000">
        <ele>760.4</ele>
        <time>2021-10-12T13:18:16Z</time>
      </trkpt>
      <trkpt lat="42.0858020" lon="-5.7473080">
        <ele>760.4</ele>
        <time>2021-10-12T13:18:24Z</time>
      </trkpt>
      <trkpt lat="42.0855930" lon="-5.7471340">
        <ele>760.6</ele>
        <time>2021-10-12T13:18:29Z</time>
      </trkpt>
      <trkpt lat="42.0855100" lon="-5.7470660">
        <ele>760.6</ele>
        <time>2021-10-12T13:18:31Z</time>
      </trkpt>
      <trkpt lat="42.0850390" lon="-5.7466580">
        <ele>760.6</ele>
        <time>2021-10-12T13:18:42Z</time>
      </trkpt>
      <trkpt lat="42.0849920" lon="-5.7466140">
        <ele>760.6</ele>
        <time>2021-10-12T13:18:43Z</time>
      </trkpt>
      <trkpt lat="42.0846650" lon="-5.7463260">
        <ele>760.6</ele>
        <time>2021-10-12T13:18:51Z</time>
      </trkpt>
      <trkpt lat="42.0843750" lon="-5.7460840">
        <ele>760.6</ele>
        <time>2021-10-12T13:18:58Z</time>
      </trkpt>
      <trkpt lat="42.0842920" lon="-5.7460110">
        <ele>760.6</ele>
        <time>2021-10-12T13:19:00Z</time>
      </trkpt>
      <trkpt lat="42.0842440" lon="-5.7459700">
        <ele>760.6</ele>
        <time>2021-10-12T13:19:01Z</time>
      </trkpt>
      <trkpt lat="42.0838850" lon="-5.7456590">
        <ele>760.6</ele>
        <time>2021-10-12T13:19:10Z</time>
      </trkpt>
      <trkpt lat="42.0838450" lon="-5.7456250">
        <ele>760.6</ele>
        <time>2021-10-12T13:19:11Z</time>
      </trkpt>
      <trkpt lat="42.0834910" lon="-5.7453250">
        <ele>760.6</ele>
        <time>2021-10-12T13:19:20Z</time>
      </trkpt>
      <trkpt lat="42.0832020" lon="-5.7450760">
        <ele>760.2</ele>
        <time>2021-10-12T13:19:27Z</time>
      </trkpt>
      <trkpt lat="42.0831110" lon="-5.7449950">
        <ele>760.2</ele>
        <time>2021-10-12T13:19:29Z</time>
      </trkpt>
      <trkpt lat="42.0826800" lon="-5.7446150">
        <ele>760.4</ele>
        <time>2021-10-12T13:19:40Z</time>
      </trkpt>
      <trkpt lat="42.0822680" lon="-5.7442590">
        <ele>760.4</ele>
        <time>2021-10-12T13:19:50Z</time>
      </trkpt>
      <trkpt lat="42.0818290" lon="-5.7438870">
        <ele>760.4</ele>
        <time>2021-10-12T13:20:01Z</time>
      </trkpt>
      <trkpt lat="42.0813840" lon="-5.7435060">
        <ele>760.0</ele>
        <time>2021-10-12T13:20:12Z</time>
      </trkpt>
      <trkpt lat="42.0813110" lon="-5.7434370">
        <ele>760.0</ele>
        <time>2021-10-12T13:20:14Z</time>
      </trkpt>
      <trkpt lat="42.0809710" lon="-5.7431440">
        <ele>759.8</ele>
        <time>2021-10-12T13:20:22Z</time>
      </trkpt>
      <trkpt lat="42.0805740" lon="-5.7428510">
        <ele>759.6</ele>
        <time>2021-10-12T13:20:31Z</time>
      </trkpt>
      <trkpt lat="42.0801620" lon="-5.7425900">
        <ele>759.8</ele>
        <time>2021-10-12T13:20:40Z</time>
      </trkpt>
      <trkpt lat="42.0796450" lon="-5.7422800">
        <ele>759.6</ele>
        <time>2021-10-12T13:20:51Z</time>
      </trkpt>
      <trkpt lat="42.0791870" lon="-5.7419930">
        <ele>759.4</ele>
        <time>2021-10-12T13:21:01Z</time>
      </trkpt>
      <trkpt lat="42.0790460" lon="-5.7419020">
        <ele>759.4</ele>
        <time>2021-10-12T13:21:04Z</time>
      </trkpt>
      <trkpt lat="42.0789070" lon="-5.7418150">
        <ele>759.0</ele>
        <time>2021-10-12T13:21:07Z</time>
      </trkpt>
      <trkpt lat="42.0787170" lon="-5.7416950">
        <ele>758.6</ele>
        <time>2021-10-12T13:21:11Z</time>
      </trkpt>
      <trkpt lat="42.0782070" lon="-5.7413730">
        <ele>758.8</ele>
        <time>2021-10-12T13:21:22Z</time>
      </trkpt>
      <trkpt lat="42.0780690" lon="-5.7412860">
        <ele>758.8</ele>
        <time>2021-10-12T13:21:25Z</time>
      </trkpt>
      <trkpt lat="42.0777420" lon="-5.7410760">
        <ele>759.0</ele>
        <time>2021-10-12T13:21:32Z</time>
      </trkpt>
      <trkpt lat="42.0775520" lon="-5.7409620">
        <ele>759.0</ele>
        <time>2021-10-12T13:21:36Z</time>
      </trkpt>
      <trkpt lat="42.0770340" lon="-5.7406290">
        <ele>758.8</ele>
        <time>2021-10-12T13:21:47Z</time>
      </trkpt>
      <trkpt lat="42.0765740" lon="-5.7403500">
        <ele>759.0</ele>
        <time>2021-10-12T13:21:56Z</time>
      </trkpt>
      <trkpt lat="42.0763810" lon="-5.7402340">
        <ele>759.0</ele>
        <time>2021-10-12T13:22:00Z</time>
      </trkpt>
      <trkpt lat="42.0762340" lon="-5.7401400">
        <ele>759.0</ele>
        <time>2021-10-12T13:22:03Z</time>
      </trkpt>
      <trkpt lat="42.0761260" lon="-5.7400660">
        <ele>759.0</ele>
        <time>2021-10-12T13:22:05Z</time>
      </trkpt>
      <trkpt lat="42.0759860" lon="-5.7399860">
        <ele>758.8</ele>
        <time>2021-10-12T13:22:08Z</time>
      </trkpt>
      <trkpt lat="42.0759360" lon="-5.7399570">
        <ele>758.8</ele>
        <time>2021-10-12T13:22:09Z</time>
      </trkpt>
      <trkpt lat="42.0756420" lon="-5.7397730">
        <ele>758.8</ele>
        <time>2021-10-12T13:22:15Z</time>
      </trkpt>
      <trkpt lat="42.0754920" lon="-5.7396790">
        <ele>758.8</ele>
        <time>2021-10-12T13:22:18Z</time>
      </trkpt>
      <trkpt lat="42.0753910" lon="-5.7396180">
        <ele>758.8</ele>
        <time>2021-10-12T13:22:20Z</time>
      </trkpt>
      <trkpt lat="42.0750400" lon="-5.7393760">
        <ele>758.6</ele>
        <time>2021-10-12T13:22:27Z</time>
      </trkpt>
      <trkpt lat="42.0748880" lon="-5.7392730">
        <ele>758.4</ele>
        <time>2021-10-12T13:22:30Z</time>
      </trkpt>
      <trkpt lat="42.0744380" lon="-5.7389580">
        <ele>758.4</ele>
        <time>2021-10-12T13:22:39Z</time>
      </trkpt>
      <trkpt lat="42.0741550" lon="-5.7387570">
        <ele>758.4</ele>
        <time>2021-10-12T13:22:45Z</time>
      </trkpt>
      <trkpt lat="42.0739140" lon="-5.7385870">
        <ele>758.2</ele>
        <time>2021-10-12T13:22:50Z</time>
      </trkpt>
      <trkpt lat="42.0737150" lon="-5.7384430">
        <ele>758.2</ele>
        <time>2021-10-12T13:22:54Z</time>
      </trkpt>
      <trkpt lat="42.0734440" lon="-5.7382530">
        <ele>758.4</ele>
        <time>2021-10-12T13:23:00Z</time>
      </trkpt>
      <trkpt lat="42.0731620" lon="-5.7380580">
        <ele>758.6</ele>
        <time>2021-10-12T13:23:06Z</time>
      </trkpt>
      <trkpt lat="42.0726320" lon="-5.7377010">
        <ele>758.6</ele>
        <time>2021-10-12T13:23:17Z</time>
      </trkpt>
      <trkpt lat="42.0724410" lon="-5.7375730">
        <ele>758.6</ele>
        <time>2021-10-12T13:23:21Z</time>
      </trkpt>
      <trkpt lat="42.0721670" lon="-5.7373750">
        <ele>758.6</ele>
        <time>2021-10-12T13:23:27Z</time>
      </trkpt>
      <trkpt lat="42.0719260" lon="-5.7372120">
        <ele>758.6</ele>
        <time>2021-10-12T13:23:32Z</time>
      </trkpt>
      <trkpt lat="42.0717820" lon="-5.7371130">
        <ele>758.6</ele>
        <time>2021-10-12T13:23:35Z</time>
      </trkpt>
      <trkpt lat="42.0714930" lon="-5.7369040">
        <ele>758.4</ele>
        <time>2021-10-12T13:23:41Z</time>
      </trkpt>
      <trkpt lat="42.0713030" lon="-5.7367520">
        <ele>758.4</ele>
        <time>2021-10-12T13:23:45Z</time>
      </trkpt>
      <trkpt lat="42.0708430" lon="-5.7363630">
        <ele>758.0</ele>
        <time>2021-10-12T13:23:55Z</time>
      </trkpt>
      <trkpt lat="42.0707510" lon="-5.7362880">
        <ele>758.0</ele>
        <time>2021-10-12T13:23:57Z</time>
      </trkpt>
      <trkpt lat="42.0703060" lon="-5.7359100">
        <ele>758.0</ele>
        <time>2021-10-12T13:24:07Z</time>
      </trkpt>
      <trkpt lat="42.0701790" lon="-5.7358020">
        <ele>757.8</ele>
        <time>2021-10-12T13:24:10Z</time>
      </trkpt>
      <trkpt lat="42.0700520" lon="-5.7356930">
        <ele>757.6</ele>
        <time>2021-10-12T13:24:13Z</time>
      </trkpt>
      <trkpt lat="42.0699220" lon="-5.7355810">
        <ele>757.2</ele>
        <time>2021-10-12T13:24:16Z</time>
      </trkpt>
      <trkpt lat="42.0698770" lon="-5.7355400">
        <ele>757.2</ele>
        <time>2021-10-12T13:24:17Z</time>
      </trkpt>
      <trkpt lat="42.0697800" lon="-5.7354610">
        <ele>757.0</ele>
        <time>2021-10-12T13:24:19Z</time>
      </trkpt>
      <trkpt lat="42.0696250" lon="-5.7353320">
        <ele>756.6</ele>
        <time>2021-10-12T13:24:22Z</time>
      </trkpt>
      <trkpt lat="42.0695720" lon="-5.7352870">
        <ele>756.2</ele>
        <time>2021-10-12T13:24:23Z</time>
      </trkpt>
      <trkpt lat="42.0693110" lon="-5.7350720">
        <ele>755.4</ele>
        <time>2021-10-12T13:24:28Z</time>
      </trkpt>
      <trkpt lat="42.0691520" lon="-5.7349460">
        <ele>755.0</ele>
        <time>2021-10-12T13:24:31Z</time>
      </trkpt>
      <trkpt lat="42.0688770" lon="-5.7347470">
        <ele>754.4</ele>
        <time>2021-10-12T13:24:36Z</time>
      </trkpt>
      <trkpt lat="42.0687020" lon="-5.7346280">
        <ele>753.6</ele>
        <time>2021-10-12T13:24:39Z</time>
      </trkpt>
      <trkpt lat="42.0685840" lon="-5.7345450">
        <ele>753.2</ele>
        <time>2021-10-12T13:24:41Z</time>
      </trkpt>
      <trkpt lat="42.0685100" lon="-5.7344960">
        <ele>753.2</ele>
        <time>2021-10-12T13:24:42Z</time>
      </trkpt>
      <trkpt lat="42.0681480" lon="-5.7342660">
        <ele>752.4</ele>
        <time>2021-10-12T13:24:48Z</time>
      </trkpt>
      <trkpt lat="42.0680190" lon="-5.7341820">
        <ele>752.2</ele>
        <time>2021-10-12T13:24:50Z</time>
      </trkpt>
      <trkpt lat="42.0676140" lon="-5.7339300">
        <ele>751.2</ele>
        <time>2021-10-12T13:24:56Z</time>
      </trkpt>
      <trkpt lat="42.0675460" lon="-5.7338860">
        <ele>750.8</ele>
        <time>2021-10-12T13:24:57Z</time>
      </trkpt>
      <trkpt lat="42.0671370" lon="-5.7336350">
        <ele>749.6</ele>
        <time>2021-10-12T13:25:03Z</time>
      </trkpt>
      <trkpt lat="42.0670010" lon="-5.7335520">
        <ele>749.0</ele>
        <time>2021-10-12T13:25:05Z</time>
      </trkpt>
      <trkpt lat="42.0667240" lon="-5.7333780">
        <ele>748.6</ele>
        <time>2021-10-12T13:25:09Z</time>
      </trkpt>
      <trkpt lat="42.0664380" lon="-5.7331970">
        <ele>747.8</ele>
        <time>2021-10-12T13:25:13Z</time>
      </trkpt>
      <trkpt lat="42.0662930" lon="-5.7331060">
        <ele>747.2</ele>
        <time>2021-10-12T13:25:15Z</time>
      </trkpt>
      <trkpt lat="42.0662200" lon="-5.7330590">
        <ele>747.0</ele>
        <time>2021-10-12T13:25:16Z</time>
      </trkpt>
      <trkpt lat="42.0658720" lon="-5.7328660">
        <ele>746.2</ele>
        <time>2021-10-12T13:25:21Z</time>
      </trkpt>
      <trkpt lat="42.0658040" lon="-5.7328420">
        <ele>746.0</ele>
        <time>2021-10-12T13:25:22Z</time>
      </trkpt>
      <trkpt lat="42.0653700" lon="-5.7327300">
        <ele>745.6</ele>
        <time>2021-10-12T13:25:29Z</time>
      </trkpt>
      <trkpt lat="42.0649670" lon="-5.7326310">
        <ele>745.2</ele>
        <time>2021-10-12T13:25:36Z</time>
      </trkpt>
      <trkpt lat="42.0649090" lon="-5.7326210">
        <ele>745.0</ele>
        <time>2021-10-12T13:25:37Z</time>
      </trkpt>
      <trkpt lat="42.0647370" lon="-5.7325820">
        <ele>745.0</ele>
        <time>2021-10-12T13:25:40Z</time>
      </trkpt>
      <trkpt lat="42.0644600" lon="-5.7325200">
        <ele>745.2</ele>
        <time>2021-10-12T13:25:45Z</time>
      </trkpt>
      <trkpt lat="42.0642890" lon="-5.7324790">
        <ele>745.2</ele>
        <time>2021-10-12T13:25:48Z</time>
      </trkpt>
      <trkpt lat="42.0640500" lon="-5.7324290">
        <ele>745.2</ele>
        <time>2021-10-12T13:25:52Z</time>
      </trkpt>
      <trkpt lat="42.0638420" lon="-5.7323750">
        <ele>745.4</ele>
        <time>2021-10-12T13:25:56Z</time>
      </trkpt>
      <trkpt lat="42.0634550" lon="-5.7322860">
        <ele>745.0</ele>
        <time>2021-10-12T13:26:03Z</time>
      </trkpt>
      <trkpt lat="42.0633320" lon="-5.7322550">
        <ele>744.8</ele>
        <time>2021-10-12T13:26:05Z</time>
      </trkpt>
      <trkpt lat="42.0629990" lon="-5.7321760">
        <ele>744.8</ele>
        <time>2021-10-12T13:26:11Z</time>
      </trkpt>
      <trkpt lat="42.0627310" lon="-5.7321190">
        <ele>744.6</ele>
        <time>2021-10-12T13:26:16Z</time>
      </trkpt>
      <trkpt lat="42.0623900" lon="-5.7320350">
        <ele>744.6</ele>
        <time>2021-10-12T13:26:22Z</time>
      </trkpt>
      <trkpt lat="42.0621120" lon="-5.7319640">
        <ele>744.6</ele>
        <time>2021-10-12T13:26:27Z</time>
      </trkpt>
      <trkpt lat="42.0615770" lon="-5.7318250">
        <ele>744.6</ele>
        <time>2021-10-12T13:26:37Z</time>
      </trkpt>
      <trkpt lat="42.0613020" lon="-5.7317590">
        <ele>744.6</ele>
        <time>2021-10-12T13:26:42Z</time>
      </trkpt>
      <trkpt lat="42.0611820" lon="-5.7317350">
        <ele>744.6</ele>
        <time>2021-10-12T13:26:44Z</time>
      </trkpt>
      <trkpt lat="42.0609230" lon="-5.7316710">
        <ele>744.6</ele>
        <time>2021-10-12T13:26:49Z</time>
      </trkpt>
      <trkpt lat="42.0606770" lon="-5.7315760">
        <ele>744.6</ele>
        <time>2021-10-12T13:26:54Z</time>
      </trkpt>
      <trkpt lat="42.0604710" lon="-5.7314670">
        <ele>745.0</ele>
        <time>2021-10-12T13:26:59Z</time>
      </trkpt>
      <trkpt lat="42.0602120" lon="-5.7313250">
        <ele>746.0</ele>
        <time>2021-10-12T13:27:06Z</time>
      </trkpt>
      <trkpt lat="42.0600650" lon="-5.7312270">
        <ele>746.2</ele>
        <time>2021-10-12T13:27:10Z</time>
      </trkpt>
      <trkpt lat="42.0599140" lon="-5.7311230">
        <ele>746.6</ele>
        <time>2021-10-12T13:27:14Z</time>
      </trkpt>
      <trkpt lat="42.0598730" lon="-5.7310950">
        <ele>746.6</ele>
        <time>2021-10-12T13:27:15Z</time>
      </trkpt>
      <trkpt lat="42.0598310" lon="-5.7310680">
        <ele>746.6</ele>
        <time>2021-10-12T13:27:16Z</time>
      </trkpt>
      <trkpt lat="42.0596520" lon="-5.7309650">
        <ele>746.4</ele>
        <time>2021-10-12T13:27:20Z</time>
      </trkpt>
      <trkpt lat="42.0596030" lon="-5.7309430">
        <ele>746.4</ele>
        <time>2021-10-12T13:27:21Z</time>
      </trkpt>
      <trkpt lat="42.0594600" lon="-5.7308520">
        <ele>746.2</ele>
        <time>2021-10-12T13:27:24Z</time>
      </trkpt>
      <trkpt lat="42.0593600" lon="-5.7307900">
        <ele>746.0</ele>
        <time>2021-10-12T13:27:26Z</time>
      </trkpt>
      <trkpt lat="42.0592970" lon="-5.7307550">
        <ele>746.0</ele>
        <time>2021-10-12T13:27:27Z</time>
      </trkpt>
      <trkpt lat="42.0591460" lon="-5.7306850">
        <ele>745.4</ele>
        <time>2021-10-12T13:27:30Z</time>
      </trkpt>
      <trkpt lat="42.0589310" lon="-5.7305850">
        <ele>744.6</ele>
        <time>2021-10-12T13:27:34Z</time>
      </trkpt>
      <trkpt lat="42.0588800" lon="-5.7305600">
        <ele>744.2</ele>
        <time>2021-10-12T13:27:35Z</time>
      </trkpt>
      <trkpt lat="42.0587780" lon="-5.7305200">
        <ele>744.0</ele>
        <time>2021-10-12T13:27:37Z</time>
      </trkpt>
      <trkpt lat="42.0585780" lon="-5.7304610">
        <ele>743.8</ele>
        <time>2021-10-12T13:27:41Z</time>
      </trkpt>
      <trkpt lat="42.0585280" lon="-5.7304540">
        <ele>743.6</ele>
        <time>2021-10-12T13:27:42Z</time>
      </trkpt>
      <trkpt lat="42.0584240" lon="-5.7304540">
        <ele>743.6</ele>
        <time>2021-10-12T13:27:44Z</time>
      </trkpt>
      <trkpt lat="42.0580820" lon="-5.7304750">
        <ele>743.6</ele>
        <time>2021-10-12T13:27:51Z</time>
      </trkpt>
      <trkpt lat="42.0579720" lon="-5.7304930">
        <ele>743.6</ele>
        <time>2021-10-12T13:27:53Z</time>
      </trkpt>
      <trkpt lat="42.0577370" lon="-5.7305390">
        <ele>743.8</ele>
        <time>2021-10-12T13:27:58Z</time>
      </trkpt>
      <trkpt lat="42.0573500" lon="-5.7306260">
        <ele>743.8</ele>
        <time>2021-10-12T13:28:06Z</time>
      </trkpt>
      <trkpt lat="42.0569580" lon="-5.7307230">
        <ele>743.8</ele>
        <time>2021-10-12T13:28:14Z</time>
      </trkpt>
      <trkpt lat="42.0565430" lon="-5.7307800">
        <ele>743.6</ele>
        <time>2021-10-12T13:28:23Z</time>
      </trkpt>
      <trkpt lat="42.0564450" lon="-5.7307770">
        <ele>743.6</ele>
        <time>2021-10-12T13:28:25Z</time>
      </trkpt>
      <trkpt lat="42.0561460" lon="-5.7307070">
        <ele>743.4</ele>
        <time>2021-10-12T13:28:31Z</time>
      </trkpt>
      <trkpt lat="42.0559790" lon="-5.7306620">
        <ele>743.4</ele>
        <time>2021-10-12T13:28:35Z</time>
      </trkpt>
      <trkpt lat="42.0558840" lon="-5.7306290">
        <ele>743.2</ele>
        <time>2021-10-12T13:28:37Z</time>
      </trkpt>
      <trkpt lat="42.0558490" lon="-5.7306190">
        <ele>743.2</ele>
        <time>2021-10-12T13:28:38Z</time>
      </trkpt>
      <trkpt lat="42.0555510" lon="-5.7305070">
        <ele>743.0</ele>
        <time>2021-10-12T13:28:45Z</time>
      </trkpt>
      <trkpt lat="42.0554230" lon="-5.7304560">
        <ele>743.2</ele>
        <time>2021-10-12T13:28:48Z</time>
      </trkpt>
      <trkpt lat="42.0552880" lon="-5.7303830">
        <ele>743.2</ele>
        <time>2021-10-12T13:28:51Z</time>
      </trkpt>
      <trkpt lat="42.0549410" lon="-5.7301520">
        <ele>743.4</ele>
        <time>2021-10-12T13:28:59Z</time>
      </trkpt>
      <trkpt lat="42.0546730" lon="-5.7299750">
        <ele>743.4</ele>
        <time>2021-10-12T13:29:06Z</time>
      </trkpt>
      <trkpt lat="42.0545570" lon="-5.7299430">
        <ele>743.4</ele>
        <time>2021-10-12T13:29:09Z</time>
      </trkpt>
      <trkpt lat="42.0544440" lon="-5.7299260">
        <ele>743.2</ele>
        <time>2021-10-12T13:29:12Z</time>
      </trkpt>
      <trkpt lat="42.0542810" lon="-5.7298100">
        <ele>743.0</ele>
        <time>2021-10-12T13:29:17Z</time>
      </trkpt>
      <trkpt lat="42.0542430" lon="-5.7297870">
        <ele>743.0</ele>
        <time>2021-10-12T13:29:18Z</time>
      </trkpt>
      <trkpt lat="42.0539740" lon="-5.7295350">
        <ele>743.0</ele>
        <time>2021-10-12T13:29:26Z</time>
      </trkpt>
      <trkpt lat="42.0538200" lon="-5.7294000">
        <ele>743.0</ele>
        <time>2021-10-12T13:29:31Z</time>
      </trkpt>
      <trkpt lat="42.0536210" lon="-5.7292360">
        <ele>743.4</ele>
        <time>2021-10-12T13:29:37Z</time>
      </trkpt>
      <trkpt lat="42.0535810" lon="-5.7292160">
        <ele>743.4</ele>
        <time>2021-10-12T13:29:38Z</time>
      </trkpt>
      <trkpt lat="42.0534290" lon="-5.7291410">
        <ele>743.6</ele>
        <time>2021-10-12T13:29:42Z</time>
      </trkpt>
      <trkpt lat="42.0532200" lon="-5.7290350">
        <ele>743.6</ele>
        <time>2021-10-12T13:29:47Z</time>
      </trkpt>
      <trkpt lat="42.0531770" lon="-5.7290200">
        <ele>743.6</ele>
        <time>2021-10-12T13:29:48Z</time>
      </trkpt>
      <trkpt lat="42.0530990" lon="-5.7290040">
        <ele>743.8</ele>
        <time>2021-10-12T13:29:50Z</time>
      </trkpt>
      <trkpt lat="42.0530130" lon="-5.7289660">
        <ele>743.8</ele>
        <time>2021-10-12T13:29:52Z</time>
      </trkpt>
      <trkpt lat="42.0529060" lon="-5.7289060">
        <ele>743.8</ele>
        <time>2021-10-12T13:29:55Z</time>
      </trkpt>
      <trkpt lat="42.0527370" lon="-5.7288640">
        <ele>743.8</ele>
        <time>2021-10-12T13:29:59Z</time>
      </trkpt>
      <trkpt lat="42.0526860" lon="-5.7288560">
        <ele>743.8</ele>
        <time>2021-10-12T13:30:00Z</time>
      </trkpt>
      <trkpt lat="42.0525200" lon="-5.7288480">
        <ele>743.8</ele>
        <time>2021-10-12T13:30:04Z</time>
      </trkpt>
      <trkpt lat="42.0523820" lon="-5.7288230">
        <ele>743.6</ele>
        <time>2021-10-12T13:30:07Z</time>
      </trkpt>
      <trkpt lat="42.0522530" lon="-5.7287920">
        <ele>743.6</ele>
        <time>2021-10-12T13:30:10Z</time>
      </trkpt>
      <trkpt lat="42.0519430" lon="-5.7286880">
        <ele>743.6</ele>
        <time>2021-10-12T13:30:18Z</time>
      </trkpt>
      <trkpt lat="42.0518930" lon="-5.7286670">
        <ele>743.6</ele>
        <time>2021-10-12T13:30:19Z</time>
      </trkpt>
      <trkpt lat="42.0518160" lon="-5.7286140">
        <ele>743.6</ele>
        <time>2021-10-12T13:30:21Z</time>
      </trkpt>
      <trkpt lat="42.0517520" lon="-5.7285570">
        <ele>743.6</ele>
        <time>2021-10-12T13:30:23Z</time>
      </trkpt>
      <trkpt lat="42.0516740" lon="-5.7285000">
        <ele>743.6</ele>
        <time>2021-10-12T13:30:25Z</time>
      </trkpt>
      <trkpt lat="42.0515670" lon="-5.7284590">
        <ele>743.6</ele>
        <time>2021-10-12T13:30:28Z</time>
      </trkpt>
      <trkpt lat="42.0514380" lon="-5.7284050">
        <ele>743.8</ele>
        <time>2021-10-12T13:30:32Z</time>
      </trkpt>
      <trkpt lat="42.0513260" lon="-5.7283680">
        <ele>744.2</ele>
        <time>2021-10-12T13:30:35Z</time>
      </trkpt>
      <trkpt lat="42.0511270" lon="-5.7283230">
        <ele>744.4</ele>
        <time>2021-10-12T13:30:41Z</time>
      </trkpt>
      <trkpt lat="42.0510490" lon="-5.7282980">
        <ele>744.6</ele>
        <time>2021-10-12T13:30:43Z</time>
      </trkpt>
      <trkpt lat="42.0508640" lon="-5.7282480">
        <ele>744.4</ele>
        <time>2021-10-12T13:30:48Z</time>
      </trkpt>
      <trkpt lat="42.0507050" lon="-5.7281980">
        <ele>744.4</ele>
        <time>2021-10-12T13:30:52Z</time>
      </trkpt>
      <trkpt lat="42.0505060" lon="-5.7281280">
        <ele>744.6</ele>
        <time>2021-10-12T13:30:57Z</time>
      </trkpt>
      <trkpt lat="42.0504190" lon="-5.7281000">
        <ele>744.8</ele>
        <time>2021-10-12T13:30:59Z</time>
      </trkpt>
      <trkpt lat="42.0502150" lon="-5.7280240">
        <ele>745.0</ele>
        <time>2021-10-12T13:31:04Z</time>
      </trkpt>
      <trkpt lat="42.0500950" lon="-5.7279870">
        <ele>745.2</ele>
        <time>2021-10-12T13:31:07Z</time>
      </trkpt>
      <trkpt lat="42.0500540" lon="-5.7279750">
        <ele>745.2</ele>
        <time>2021-10-12T13:31:08Z</time>
      </trkpt>
      <trkpt lat="42.0495630" lon="-5.7278300">
        <ele>745.2</ele>
        <time>2021-10-12T13:31:20Z</time>
      </trkpt>
      <trkpt lat="42.0492230" lon="-5.7278150">
        <ele>745.0</ele>
        <time>2021-10-12T13:31:28Z</time>
      </trkpt>
      <trkpt lat="42.0488000" lon="-5.7278500">
        <ele>745.0</ele>
        <time>2021-10-12T13:31:38Z</time>
      </trkpt>
      <trkpt lat="42.0487530" lon="-5.7278450">
        <ele>745.0</ele>
        <time>2021-10-12T13:31:39Z</time>
      </trkpt>
      <trkpt lat="42.0487030" lon="-5.7277850">
        <ele>745.0</ele>
        <time>2021-10-12T13:31:41Z</time>
      </trkpt>
      <trkpt lat="42.0486910" lon="-5.7276800">
        <ele>744.8</ele>
        <time>2021-10-12T13:31:43Z</time>
      </trkpt>
      <trkpt lat="42.0487010" lon="-5.7276130">
        <ele>744.8</ele>
        <time>2021-10-12T13:31:44Z</time>
      </trkpt>
      <trkpt lat="42.0487320" lon="-5.7274600">
        <ele>744.8</ele>
        <time>2021-10-12T13:31:47Z</time>
      </trkpt>
      <trkpt lat="42.0487320" lon="-5.7273320">
        <ele>744.8</ele>
        <time>2021-10-12T13:31:49Z</time>
      </trkpt>
      <trkpt lat="42.0487210" lon="-5.7272760">
        <ele>744.8</ele>
        <time>2021-10-12T13:31:50Z</time>
      </trkpt>
      <trkpt lat="42.0487060" lon="-5.7272360">
        <ele>744.8</ele>
        <time>2021-10-12T13:31:51Z</time>
      </trkpt>
      <trkpt lat="42.0486460" lon="-5.7271440">
        <ele>744.8</ele>
        <time>2021-10-12T13:31:53Z</time>
      </trkpt>
      <trkpt lat="42.0486110" lon="-5.7271130">
        <ele>745.0</ele>
        <time>2021-10-12T13:31:54Z</time>
      </trkpt>
      <trkpt lat="42.0482760" lon="-5.7268940">
        <ele>745.2</ele>
        <time>2021-10-12T13:32:03Z</time>
      </trkpt>
      <trkpt lat="42.0480670" lon="-5.7267520">
        <ele>745.6</ele>
        <time>2021-10-12T13:32:10Z</time>
      </trkpt>
      <trkpt lat="42.0479460" lon="-5.7266700">
        <ele>746.0</ele>
        <time>2021-10-12T13:32:14Z</time>
      </trkpt>
      <trkpt lat="42.0478950" lon="-5.7266350">
        <ele>746.2</ele>
        <time>2021-10-12T13:32:16Z</time>
      </trkpt>
      <trkpt lat="42.0478600" lon="-5.7266070">
        <ele>746.4</ele>
        <time>2021-10-12T13:32:17Z</time>
      </trkpt>
      <trkpt lat="42.0476710" lon="-5.7264590">
        <ele>746.8</ele>
        <time>2021-10-12T13:32:24Z</time>
      </trkpt>
      <trkpt lat="42.0475300" lon="-5.7263640">
        <ele>747.0</ele>
        <time>2021-10-12T13:32:29Z</time>
      </trkpt>
      <trkpt lat="42.0474120" lon="-5.7262850">
        <ele>747.4</ele>
        <time>2021-10-12T13:32:33Z</time>
      </trkpt>
      <trkpt lat="42.0471940" lon="-5.7261270">
        <ele>747.8</ele>
        <time>2021-10-12T13:32:41Z</time>
      </trkpt>
      <trkpt lat="42.0471690" lon="-5.7261040">
        <ele>747.8</ele>
        <time>2021-10-12T13:32:42Z</time>
      </trkpt>
      <trkpt lat="42.0470940" lon="-5.7260430">
        <ele>748.2</ele>
        <time>2021-10-12T13:32:45Z</time>
      </trkpt>
      <trkpt lat="42.0469970" lon="-5.7259810">
        <ele>748.6</ele>
        <time>2021-10-12T13:32:49Z</time>
      </trkpt>
      <trkpt lat="42.0469760" lon="-5.7259650">
        <ele>748.6</ele>
        <time>2021-10-12T13:32:50Z</time>
      </trkpt>
      <trkpt lat="42.0468190" lon="-5.7258570">
        <ele>749.0</ele>
        <time>2021-10-12T13:32:57Z</time>
      </trkpt>
      <trkpt lat="42.0467980" lon="-5.7258440">
        <ele>749.2</ele>
        <time>2021-10-12T13:32:58Z</time>
      </trkpt>
      <trkpt lat="42.0467740" lon="-5.7258260">
        <ele>749.4</ele>
        <time>2021-10-12T13:32:59Z</time>
      </trkpt>
      <trkpt lat="42.0465840" lon="-5.7256880">
        <ele>750.2</ele>
        <time>2021-10-12T13:33:08Z</time>
      </trkpt>
      <trkpt lat="42.0465620" lon="-5.7256720">
        <ele>750.2</ele>
        <time>2021-10-12T13:33:09Z</time>
      </trkpt>
      <trkpt lat="42.0463410" lon="-5.7255050">
        <ele>751.2</ele>
        <time>2021-10-12T13:33:19Z</time>
      </trkpt>
      <trkpt lat="42.0463240" lon="-5.7254920">
        <ele>751.2</ele>
        <time>2021-10-12T13:33:20Z</time>
      </trkpt>
      <trkpt lat="42.0463010" lon="-5.7254770">
        <ele>751.4</ele>
        <time>2021-10-12T13:33:21Z</time>
      </trkpt>
      <trkpt lat="42.0462110" lon="-5.7254150">
        <ele>751.6</ele>
        <time>2021-10-12T13:33:24Z</time>
      </trkpt>
      <trkpt lat="42.0461340" lon="-5.7253690">
        <ele>752.0</ele>
        <time>2021-10-12T13:33:28Z</time>
      </trkpt>
      <trkpt lat="42.0460100" lon="-5.7252910">
        <ele>752.4</ele>
        <time>2021-10-12T13:33:34Z</time>
      </trkpt>
      <trkpt lat="42.0458920" lon="-5.7252140">
        <ele>752.6</ele>
        <time>2021-10-12T13:33:38Z</time>
      </trkpt>
      <trkpt lat="42.0458450" lon="-5.7251740">
        <ele>752.6</ele>
        <time>2021-10-12T13:33:40Z</time>
      </trkpt>
      <trkpt lat="42.0457160" lon="-5.7250800">
        <ele>753.4</ele>
        <time>2021-10-12T13:33:46Z</time>
      </trkpt>
      <trkpt lat="42.0456280" lon="-5.7250160">
        <ele>753.6</ele>
        <time>2021-10-12T13:33:50Z</time>
      </trkpt>
      <trkpt lat="42.0455080" lon="-5.7249260">
        <ele>754.4</ele>
        <time>2021-10-12T13:33:57Z</time>
      </trkpt>
      <trkpt lat="42.0454620" lon="-5.7248910">
        <ele>754.4</ele>
        <time>2021-10-12T13:33:58Z</time>
      </trkpt>
      <trkpt lat="42.0454410" lon="-5.7248740">
        <ele>754.6</ele>
        <time>2021-10-12T13:33:59Z</time>
      </trkpt>
      <trkpt lat="42.0453810" lon="-5.7248270">
        <ele>755.0</ele>
        <time>2021-10-12T13:34:03Z</time>
      </trkpt>
      <trkpt lat="42.0453020" lon="-5.7247610">
        <ele>755.0</ele>
        <time>2021-10-12T13:34:06Z</time>
      </trkpt>
      <trkpt lat="42.0452610" lon="-5.7247330">
        <ele>755.2</ele>
        <time>2021-10-12T13:34:08Z</time>
      </trkpt>
      <trkpt lat="42.0452260" lon="-5.7247280">
        <ele>755.2</ele>
        <time>2021-10-12T13:34:09Z</time>
      </trkpt>
      <trkpt lat="42.0452160" lon="-5.7247190">
        <ele>755.6</ele>
        <time>2021-10-12T13:34:11Z</time>
      </trkpt>
      <trkpt lat="42.0452050" lon="-5.7247110">
        <ele>755.8</ele>
        <time>2021-10-12T13:34:13Z</time>
      </trkpt>
      <trkpt lat="42.0451950" lon="-5.7247020">
        <ele>755.8</ele>
        <time>2021-10-12T13:34:14Z</time>
      </trkpt>
      <trkpt lat="42.0451850" lon="-5.7246940">
        <ele>756.0</ele>
        <time>2021-10-12T13:34:15Z</time>
      </trkpt>
      <trkpt lat="42.0451740" lon="-5.7246850">
        <ele>756.0</ele>
        <time>2021-10-12T13:34:17Z</time>
      </trkpt>
      <trkpt lat="42.0451640" lon="-5.7246770">
        <ele>756.0</ele>
        <time>2021-10-12T13:34:18Z</time>
      </trkpt>
      <trkpt lat="42.0451540" lon="-5.7246680">
        <ele>756.0</ele>
        <time>2021-10-12T13:34:19Z</time>
      </trkpt>
      <trkpt lat="42.0451430" lon="-5.7246600">
        <ele>756.0</ele>
        <time>2021-10-12T13:34:20Z</time>
      </trkpt>
      <trkpt lat="42.0451330" lon="-5.7246510">
        <ele>756.2</ele>
        <time>2021-10-12T13:34:21Z</time>
      </trkpt>
      <trkpt lat="42.0451230" lon="-5.7246420">
        <ele>756.2</ele>
        <time>2021-10-12T13:34:23Z</time>
      </trkpt>
      <trkpt lat="42.0451120" lon="-5.7246340">
        <ele>756.2</ele>
        <time>2021-10-12T13:34:24Z</time>
      </trkpt>
      <trkpt lat="42.0451020" lon="-5.7246250">
        <ele>756.2</ele>
        <time>2021-10-12T13:34:25Z</time>
      </trkpt>
      <trkpt lat="42.0450920" lon="-5.7246170">
        <ele>756.2</ele>
        <time>2021-10-12T13:34:26Z</time>
      </trkpt>
      <trkpt lat="42.0450810" lon="-5.7246080">
        <ele>756.2</ele>
        <time>2021-10-12T13:34:27Z</time>
      </trkpt>
      <trkpt lat="42.0450710" lon="-5.7246000">
        <ele>756.2</ele>
        <time>2021-10-12T13:34:28Z</time>
      </trkpt>
      <trkpt lat="42.0450610" lon="-5.7245910">
        <ele>756.4</ele>
        <time>2021-10-12T13:34:31Z</time>
      </trkpt>
      <trkpt lat="42.0450500" lon="-5.7245830">
        <ele>756.6</ele>
        <time>2021-10-12T13:34:35Z</time>
      </trkpt>
      <trkpt lat="42.0450400" lon="-5.7245740">
        <ele>756.6</ele>
        <time>2021-10-12T13:34:36Z</time>
      </trkpt>
      <trkpt lat="42.0446690" lon="-5.7242670">
        <ele>756.8</ele>
        <time>2021-10-12T13:34:38Z</time>
      </trkpt>
      <trkpt lat="42.0446380" lon="-5.7242730">
        <ele>756.8</ele>
        <time>2021-10-12T13:34:39Z</time>
      </trkpt>
      <trkpt lat="42.0444370" lon="-5.7241470">
        <ele>757.4</ele>
        <time>2021-10-12T13:34:46Z</time>
      </trkpt>
      <trkpt lat="42.0444370" lon="-5.7241470">
        <ele>757.4</ele>
        <time>2021-10-12T13:34:47Z</time>
      </trkpt>
      <trkpt lat="42.0443350" lon="-5.7240700">
        <ele>757.6</ele>
        <time>2021-10-12T13:34:51Z</time>
      </trkpt>
      <trkpt lat="42.0442580" lon="-5.7240160">
        <ele>757.8</ele>
        <time>2021-10-12T13:34:54Z</time>
      </trkpt>
      <trkpt lat="42.0441760" lon="-5.7239660">
        <ele>757.8</ele>
        <time>2021-10-12T13:34:56Z</time>
      </trkpt>
      <trkpt lat="42.0441190" lon="-5.7239370">
        <ele>757.8</ele>
        <time>2021-10-12T13:34:59Z</time>
      </trkpt>
      <trkpt lat="42.0438010" lon="-5.7237130">
        <ele>758.4</ele>
        <time>2021-10-12T13:35:10Z</time>
      </trkpt>
      <trkpt lat="42.0436580" lon="-5.7236130">
        <ele>758.8</ele>
        <time>2021-10-12T13:35:16Z</time>
      </trkpt>
      <trkpt lat="42.0435910" lon="-5.7235650">
        <ele>759.4</ele>
        <time>2021-10-12T13:35:20Z</time>
      </trkpt>
      <trkpt lat="42.0435020" lon="-5.7235050">
        <ele>759.6</ele>
        <time>2021-10-12T13:35:23Z</time>
      </trkpt>
      <trkpt lat="42.0434160" lon="-5.7234440">
        <ele>759.8</ele>
        <time>2021-10-12T13:35:27Z</time>
      </trkpt>
      <trkpt lat="42.0433830" lon="-5.7234030">
        <ele>760.0</ele>
        <time>2021-10-12T13:35:29Z</time>
      </trkpt>
      <trkpt lat="42.0433440" lon="-5.7233650">
        <ele>760.2</ele>
        <time>2021-10-12T13:35:31Z</time>
      </trkpt>
      <trkpt lat="42.0432800" lon="-5.7233180">
        <ele>760.4</ele>
        <time>2021-10-12T13:35:34Z</time>
      </trkpt>
      <trkpt lat="42.0431750" lon="-5.7232470">
        <ele>761.0</ele>
        <time>2021-10-12T13:35:39Z</time>
      </trkpt>
      <trkpt lat="42.0430840" lon="-5.7231950">
        <ele>761.6</ele>
        <time>2021-10-12T13:35:43Z</time>
      </trkpt>
      <trkpt lat="42.0430390" lon="-5.7231670">
        <ele>761.6</ele>
        <time>2021-10-12T13:35:46Z</time>
      </trkpt>
      <trkpt lat="42.0429760" lon="-5.7231350">
        <ele>762.0</ele>
        <time>2021-10-12T13:35:48Z</time>
      </trkpt>
      <trkpt lat="42.0429120" lon="-5.7230920">
        <ele>762.2</ele>
        <time>2021-10-12T13:35:51Z</time>
      </trkpt>
      <trkpt lat="42.0428030" lon="-5.7230150">
        <ele>763.0</ele>
        <time>2021-10-12T13:35:56Z</time>
      </trkpt>
      <trkpt lat="42.0427370" lon="-5.7229530">
        <ele>763.2</ele>
        <time>2021-10-12T13:36:00Z</time>
      </trkpt>
      <trkpt lat="42.0426930" lon="-5.7229130">
        <ele>763.4</ele>
        <time>2021-10-12T13:36:01Z</time>
      </trkpt>
      <trkpt lat="42.0426510" lon="-5.7228770">
        <ele>763.6</ele>
        <time>2021-10-12T13:36:03Z</time>
      </trkpt>
      <trkpt lat="42.0425900" lon="-5.7228200">
        <ele>763.6</ele>
        <time>2021-10-12T13:36:06Z</time>
      </trkpt>
      <trkpt lat="42.0425330" lon="-5.7227660">
        <ele>764.0</ele>
        <time>2021-10-12T13:36:09Z</time>
      </trkpt>
      <trkpt lat="42.0424530" lon="-5.7226930">
        <ele>764.2</ele>
        <time>2021-10-12T13:36:13Z</time>
      </trkpt>
      <trkpt lat="42.0424350" lon="-5.7226780">
        <ele>764.4</ele>
        <time>2021-10-12T13:36:14Z</time>
      </trkpt>
      <trkpt lat="42.0423620" lon="-5.7226170">
        <ele>764.8</ele>
        <time>2021-10-12T13:36:18Z</time>
      </trkpt>
      <trkpt lat="42.0423320" lon="-5.7225860">
        <ele>765.0</ele>
        <time>2021-10-12T13:36:20Z</time>
      </trkpt>
      <trkpt lat="42.0422870" lon="-5.7225470">
        <ele>765.2</ele>
        <time>2021-10-12T13:36:23Z</time>
      </trkpt>
      <trkpt lat="42.0422600" lon="-5.7225150">
        <ele>766.0</ele>
        <time>2021-10-12T13:36:26Z</time>
      </trkpt>
      <trkpt lat="42.0422510" lon="-5.7225050">
        <ele>766.4</ele>
        <time>2021-10-12T13:36:27Z</time>
      </trkpt>
      <trkpt lat="42.0422400" lon="-5.7224990">
        <ele>766.4</ele>
        <time>2021-10-12T13:36:28Z</time>
      </trkpt>
      <trkpt lat="42.0422010" lon="-5.7225170">
        <ele>766.8</ele>
        <time>2021-10-12T13:36:31Z</time>
      </trkpt>
      <trkpt lat="42.0421360" lon="-5.7225470">
        <ele>767.0</ele>
        <time>2021-10-12T13:36:36Z</time>
      </trkpt>
      <trkpt lat="42.0421050" lon="-5.7225530">
        <ele>767.0</ele>
        <time>2021-10-12T13:36:38Z</time>
      </trkpt>
      <trkpt lat="42.0420760" lon="-5.7225580">
        <ele>767.0</ele>
        <time>2021-10-12T13:36:42Z</time>
      </trkpt>
      <trkpt lat="42.0420510" lon="-5.7225610">
        <ele>767.2</ele>
        <time>2021-10-12T13:38:23Z</time>
      </trkpt>
      <trkpt lat="42.0420230" lon="-5.7225620">
        <ele>767.2</ele>
        <time>2021-10-12T13:38:24Z</time>
      </trkpt>
      <trkpt lat="42.0419970" lon="-5.7225610">
        <ele>767.2</ele>
        <time>2021-10-12T13:38:25Z</time>
      </trkpt>
      <trkpt lat="42.0418280" lon="-5.7225480">
        <ele>767.2</ele>
        <time>2021-10-12T13:38:31Z</time>
      </trkpt>
      <trkpt lat="42.0417430" lon="-5.7225370">
        <ele>767.4</ele>
        <time>2021-10-12T13:38:34Z</time>
      </trkpt>
      <trkpt lat="42.0417140" lon="-5.7225300">
        <ele>767.4</ele>
        <time>2021-10-12T13:38:35Z</time>
      </trkpt>
      <trkpt lat="42.0415700" lon="-5.7224980">
        <ele>767.4</ele>
        <time>2021-10-12T13:38:40Z</time>
      </trkpt>
      <trkpt lat="42.0413550" lon="-5.7224580">
        <ele>767.8</ele>
        <time>2021-10-12T13:38:47Z</time>
      </trkpt>
      <trkpt lat="42.0412300" lon="-5.7224350">
        <ele>768.0</ele>
        <time>2021-10-12T13:38:51Z</time>
      </trkpt>
      <trkpt lat="42.0411620" lon="-5.7224200">
        <ele>768.0</ele>
        <time>2021-10-12T13:38:53Z</time>
      </trkpt>
      <trkpt lat="42.0410710" lon="-5.7224010">
        <ele>768.2</ele>
        <time>2021-10-12T13:38:56Z</time>
      </trkpt>
      <trkpt lat="42.0409800" lon="-5.7223640">
        <ele>768.2</ele>
        <time>2021-10-12T13:38:59Z</time>
      </trkpt>
      <trkpt lat="42.0408300" lon="-5.7223050">
        <ele>768.2</ele>
        <time>2021-10-12T13:39:04Z</time>
      </trkpt>
      <trkpt lat="42.0407380" lon="-5.7222720">
        <ele>768.4</ele>
        <time>2021-10-12T13:39:07Z</time>
      </trkpt>
      <trkpt lat="42.0405140" lon="-5.7221610">
        <ele>768.8</ele>
        <time>2021-10-12T13:39:14Z</time>
      </trkpt>
      <trkpt lat="42.0402500" lon="-5.7220090">
        <ele>768.8</ele>
        <time>2021-10-12T13:39:22Z</time>
      </trkpt>
      <trkpt lat="42.0401200" lon="-5.7219270">
        <ele>768.6</ele>
        <time>2021-10-12T13:39:26Z</time>
      </trkpt>
      <trkpt lat="42.0400200" lon="-5.7218570">
        <ele>768.6</ele>
        <time>2021-10-12T13:39:29Z</time>
      </trkpt>
      <trkpt lat="42.0398550" lon="-5.7217330">
        <ele>768.4</ele>
        <time>2021-10-12T13:39:34Z</time>
      </trkpt>
      <trkpt lat="42.0395390" lon="-5.7214620">
        <ele>768.6</ele>
        <time>2021-10-12T13:39:44Z</time>
      </trkpt>
      <trkpt lat="42.0394800" lon="-5.7214100">
        <ele>768.6</ele>
        <time>2021-10-12T13:39:46Z</time>
      </trkpt>
      <trkpt lat="42.0393940" lon="-5.7213220">
        <ele>768.6</ele>
        <time>2021-10-12T13:39:49Z</time>
      </trkpt>
      <trkpt lat="42.0393090" lon="-5.7212280">
        <ele>768.4</ele>
        <time>2021-10-12T13:39:52Z</time>
      </trkpt>
      <trkpt lat="42.0392230" lon="-5.7211300">
        <ele>768.4</ele>
        <time>2021-10-12T13:39:55Z</time>
      </trkpt>
      <trkpt lat="42.0390360" lon="-5.7209000">
        <ele>768.4</ele>
        <time>2021-10-12T13:40:02Z</time>
      </trkpt>
      <trkpt lat="42.0388260" lon="-5.7206100">
        <ele>768.8</ele>
        <time>2021-10-12T13:40:10Z</time>
      </trkpt>
      <trkpt lat="42.0388070" lon="-5.7205820">
        <ele>768.8</ele>
        <time>2021-10-12T13:40:11Z</time>
      </trkpt>
      <trkpt lat="42.0387320" lon="-5.7204680">
        <ele>768.4</ele>
        <time>2021-10-12T13:40:14Z</time>
      </trkpt>
      <trkpt lat="42.0386350" lon="-5.7203080">
        <ele>768.2</ele>
        <time>2021-10-12T13:40:18Z</time>
      </trkpt>
      <trkpt lat="42.0385640" lon="-5.7201870">
        <ele>768.0</ele>
        <time>2021-10-12T13:40:21Z</time>
      </trkpt>
      <trkpt lat="42.0383470" lon="-5.7197890">
        <ele>767.6</ele>
        <time>2021-10-12T13:40:31Z</time>
      </trkpt>
      <trkpt lat="42.0382830" lon="-5.7196600">
        <ele>767.4</ele>
        <time>2021-10-12T13:40:34Z</time>
      </trkpt>
      <trkpt lat="42.0382280" lon="-5.7195530">
        <ele>767.0</ele>
        <time>2021-10-12T13:40:38Z</time>
      </trkpt>
      <trkpt lat="42.0382160" lon="-5.7195290">
        <ele>767.2</ele>
        <time>2021-10-12T13:40:41Z</time>
      </trkpt>
      <trkpt lat="42.0381820" lon="-5.7194540">
        <ele>767.6</ele>
        <time>2021-10-12T13:41:57Z</time>
      </trkpt>
      <trkpt lat="42.0381210" lon="-5.7192650">
        <ele>767.8</ele>
        <time>2021-10-12T13:42:02Z</time>
      </trkpt>
      <trkpt lat="42.0380220" lon="-5.7189940">
        <ele>767.8</ele>
        <time>2021-10-12T13:42:08Z</time>
      </trkpt>
      <trkpt lat="42.0380050" lon="-5.7189370">
        <ele>767.6</ele>
        <time>2021-10-12T13:42:09Z</time>
      </trkpt>
      <trkpt lat="42.0379650" lon="-5.7188090">
        <ele>767.2</ele>
        <time>2021-10-12T13:42:12Z</time>
      </trkpt>
      <trkpt lat="42.0378870" lon="-5.7185510">
        <ele>766.6</ele>
        <time>2021-10-12T13:42:17Z</time>
      </trkpt>
      <trkpt lat="42.0378590" lon="-5.7184380">
        <ele>766.4</ele>
        <time>2021-10-12T13:42:19Z</time>
      </trkpt>
      <trkpt lat="42.0377220" lon="-5.7177840">
        <ele>765.8</ele>
        <time>2021-10-12T13:42:30Z</time>
      </trkpt>
      <trkpt lat="42.0376830" lon="-5.7175210">
        <ele>765.8</ele>
        <time>2021-10-12T13:42:34Z</time>
      </trkpt>
      <trkpt lat="42.0376290" lon="-5.7171460">
        <ele>765.6</ele>
        <time>2021-10-12T13:42:40Z</time>
      </trkpt>
      <trkpt lat="42.0376200" lon="-5.7170810">
        <ele>765.6</ele>
        <time>2021-10-12T13:42:41Z</time>
      </trkpt>
      <trkpt lat="42.0375590" lon="-5.7166830">
        <ele>765.6</ele>
        <time>2021-10-12T13:42:47Z</time>
      </trkpt>
      <trkpt lat="42.0375250" lon="-5.7164280">
        <ele>765.2</ele>
        <time>2021-10-12T13:42:51Z</time>
      </trkpt>
      <trkpt lat="42.0374540" lon="-5.7158750">
        <ele>764.6</ele>
        <time>2021-10-12T13:42:59Z</time>
      </trkpt>
      <trkpt lat="42.0374230" lon="-5.7156570">
        <ele>764.2</ele>
        <time>2021-10-12T13:43:02Z</time>
      </trkpt>
      <trkpt lat="42.0373400" lon="-5.7150730">
        <ele>763.8</ele>
        <time>2021-10-12T13:43:11Z</time>
      </trkpt>
      <trkpt lat="42.0373220" lon="-5.7149390">
        <ele>763.6</ele>
        <time>2021-10-12T13:43:13Z</time>
      </trkpt>
      <trkpt lat="42.0372640" lon="-5.7145440">
        <ele>763.2</ele>
        <time>2021-10-12T13:43:19Z</time>
      </trkpt>
      <trkpt lat="42.0372340" lon="-5.7143460">
        <ele>763.0</ele>
        <time>2021-10-12T13:43:22Z</time>
      </trkpt>
      <trkpt lat="42.0371640" lon="-5.7139610">
        <ele>762.6</ele>
        <time>2021-10-12T13:43:28Z</time>
      </trkpt>
      <trkpt lat="42.0371470" lon="-5.7138840">
        <ele>762.4</ele>
        <time>2021-10-12T13:43:29Z</time>
      </trkpt>
      <trkpt lat="42.0371340" lon="-5.7138320">
        <ele>762.4</ele>
        <time>2021-10-12T13:43:30Z</time>
      </trkpt>
      <trkpt lat="42.0370680" lon="-5.7135810">
        <ele>762.4</ele>
        <time>2021-10-12T13:43:34Z</time>
      </trkpt>
      <trkpt lat="42.0370140" lon="-5.7133940">
        <ele>762.2</ele>
        <time>2021-10-12T13:43:37Z</time>
      </trkpt>
      <trkpt lat="42.0369160" lon="-5.7130780">
        <ele>761.6</ele>
        <time>2021-10-12T13:43:42Z</time>
      </trkpt>
      <trkpt lat="42.0368500" lon="-5.7128890">
        <ele>761.4</ele>
        <time>2021-10-12T13:43:45Z</time>
      </trkpt>
      <trkpt lat="42.0367990" lon="-5.7127660">
        <ele>761.4</ele>
        <time>2021-10-12T13:43:47Z</time>
      </trkpt>
      <trkpt lat="42.0366610" lon="-5.7124620">
        <ele>761.0</ele>
        <time>2021-10-12T13:43:52Z</time>
      </trkpt>
      <trkpt lat="42.0365220" lon="-5.7121830">
        <ele>760.6</ele>
        <time>2021-10-12T13:43:57Z</time>
      </trkpt>
      <trkpt lat="42.0364950" lon="-5.7121280">
        <ele>760.6</ele>
        <time>2021-10-12T13:43:58Z</time>
      </trkpt>
      <trkpt lat="42.0362660" lon="-5.7117510">
        <ele>760.2</ele>
        <time>2021-10-12T13:44:05Z</time>
      </trkpt>
      <trkpt lat="42.0361600" lon="-5.7115900">
        <ele>760.0</ele>
        <time>2021-10-12T13:44:08Z</time>
      </trkpt>
      <trkpt lat="42.0359840" lon="-5.7113450">
        <ele>760.0</ele>
        <time>2021-10-12T13:44:13Z</time>
      </trkpt>
      <trkpt lat="42.0359150" lon="-5.7112630">
        <ele>759.8</ele>
        <time>2021-10-12T13:44:15Z</time>
      </trkpt>
      <trkpt lat="42.0357270" lon="-5.7110350">
        <ele>759.6</ele>
        <time>2021-10-12T13:44:20Z</time>
      </trkpt>
      <trkpt lat="42.0356820" lon="-5.7109840">
        <ele>759.6</ele>
        <time>2021-10-12T13:44:21Z</time>
      </trkpt>
      <trkpt lat="42.0355670" lon="-5.7108610">
        <ele>759.4</ele>
        <time>2021-10-12T13:44:24Z</time>
      </trkpt>
      <trkpt lat="42.0353540" lon="-5.7106530">
        <ele>759.0</ele>
        <time>2021-10-12T13:44:29Z</time>
      </trkpt>
      <trkpt lat="42.0352700" lon="-5.7105810">
        <ele>759.0</ele>
        <time>2021-10-12T13:44:31Z</time>
      </trkpt>
      <trkpt lat="42.0351460" lon="-5.7104760">
        <ele>759.0</ele>
        <time>2021-10-12T13:44:34Z</time>
      </trkpt>
      <trkpt lat="42.0348230" lon="-5.7102430">
        <ele>759.0</ele>
        <time>2021-10-12T13:44:41Z</time>
      </trkpt>
      <trkpt lat="42.0346780" lon="-5.7101540">
        <ele>759.0</ele>
        <time>2021-10-12T13:44:44Z</time>
      </trkpt>
      <trkpt lat="42.0344960" lon="-5.7100530">
        <ele>758.8</ele>
        <time>2021-10-12T13:44:48Z</time>
      </trkpt>
      <trkpt lat="42.0342450" lon="-5.7099310">
        <ele>758.4</ele>
        <time>2021-10-12T13:44:53Z</time>
      </trkpt>
      <trkpt lat="42.0339050" lon="-5.7098080">
        <ele>757.8</ele>
        <time>2021-10-12T13:45:00Z</time>
      </trkpt>
      <trkpt lat="42.0338640" lon="-5.7097960">
        <ele>757.8</ele>
        <time>2021-10-12T13:45:01Z</time>
      </trkpt>
      <trkpt lat="42.0334490" lon="-5.7096680">
        <ele>757.4</ele>
        <time>2021-10-12T13:45:09Z</time>
      </trkpt>
      <trkpt lat="42.0333460" lon="-5.7096410">
        <ele>757.4</ele>
        <time>2021-10-12T13:45:11Z</time>
      </trkpt>
      <trkpt lat="42.0328950" lon="-5.7095050">
        <ele>757.0</ele>
        <time>2021-10-12T13:45:20Z</time>
      </trkpt>
      <trkpt lat="42.0326900" lon="-5.7094470">
        <ele>757.0</ele>
        <time>2021-10-12T13:45:24Z</time>
      </trkpt>
      <trkpt lat="42.0325900" lon="-5.7094160">
        <ele>756.8</ele>
        <time>2021-10-12T13:45:26Z</time>
      </trkpt>
      <trkpt lat="42.0323920" lon="-5.7093530">
        <ele>756.8</ele>
        <time>2021-10-12T13:45:30Z</time>
      </trkpt>
      <trkpt lat="42.0322090" lon="-5.7092990">
        <ele>756.4</ele>
        <time>2021-10-12T13:45:34Z</time>
      </trkpt>
      <trkpt lat="42.0321490" lon="-5.7092840">
        <ele>756.4</ele>
        <time>2021-10-12T13:45:35Z</time>
      </trkpt>
      <trkpt lat="42.0317650" lon="-5.7091680">
        <ele>756.4</ele>
        <time>2021-10-12T13:45:43Z</time>
      </trkpt>
      <trkpt lat="42.0316210" lon="-5.7091220">
        <ele>756.4</ele>
        <time>2021-10-12T13:45:46Z</time>
      </trkpt>
      <trkpt lat="42.0313800" lon="-5.7090470">
        <ele>756.6</ele>
        <time>2021-10-12T13:45:51Z</time>
      </trkpt>
      <trkpt lat="42.0311390" lon="-5.7089800">
        <ele>756.6</ele>
        <time>2021-10-12T13:45:56Z</time>
      </trkpt>
      <trkpt lat="42.0309970" lon="-5.7089390">
        <ele>756.4</ele>
        <time>2021-10-12T13:45:59Z</time>
      </trkpt>
      <trkpt lat="42.0308040" lon="-5.7088800">
        <ele>756.2</ele>
        <time>2021-10-12T13:46:03Z</time>
      </trkpt>
      <trkpt lat="42.0307080" lon="-5.7088490">
        <ele>756.0</ele>
        <time>2021-10-12T13:46:05Z</time>
      </trkpt>
      <trkpt lat="42.0302800" lon="-5.7087200">
        <ele>755.8</ele>
        <time>2021-10-12T13:46:14Z</time>
      </trkpt>
      <trkpt lat="42.0302420" lon="-5.7087070">
        <ele>755.8</ele>
        <time>2021-10-12T13:46:15Z</time>
      </trkpt>
      <trkpt lat="42.0297620" lon="-5.7085690">
        <ele>755.6</ele>
        <time>2021-10-12T13:46:25Z</time>
      </trkpt>
      <trkpt lat="42.0295610" lon="-5.7085000">
        <ele>755.2</ele>
        <time>2021-10-12T13:46:29Z</time>
      </trkpt>
      <trkpt lat="42.0291780" lon="-5.7083650">
        <ele>755.0</ele>
        <time>2021-10-12T13:46:37Z</time>
      </trkpt>
      <trkpt lat="42.0289880" lon="-5.7082910">
        <ele>754.8</ele>
        <time>2021-10-12T13:46:41Z</time>
      </trkpt>
      <trkpt lat="42.0286970" lon="-5.7081380">
        <ele>754.6</ele>
        <time>2021-10-12T13:46:47Z</time>
      </trkpt>
      <trkpt lat="42.0286010" lon="-5.7080830">
        <ele>754.4</ele>
        <time>2021-10-12T13:46:49Z</time>
      </trkpt>
      <trkpt lat="42.0285550" lon="-5.7080540">
        <ele>754.4</ele>
        <time>2021-10-12T13:46:50Z</time>
      </trkpt>
      <trkpt lat="42.0282020" lon="-5.7078050">
        <ele>754.2</ele>
        <time>2021-10-12T13:46:58Z</time>
      </trkpt>
      <trkpt lat="42.0281630" lon="-5.7077740">
        <ele>754.2</ele>
        <time>2021-10-12T13:46:59Z</time>
      </trkpt>
      <trkpt lat="42.0279640" lon="-5.7075890">
        <ele>754.2</ele>
        <time>2021-10-12T13:47:04Z</time>
      </trkpt>
      <trkpt lat="42.0277580" lon="-5.7073950">
        <ele>754.0</ele>
        <time>2021-10-12T13:47:09Z</time>
      </trkpt>
      <trkpt lat="42.0275230" lon="-5.7071420">
        <ele>753.6</ele>
        <time>2021-10-12T13:47:15Z</time>
      </trkpt>
      <trkpt lat="42.0273360" lon="-5.7069090">
        <ele>753.4</ele>
        <time>2021-10-12T13:47:20Z</time>
      </trkpt>
      <trkpt lat="42.0270510" lon="-5.7065220">
        <ele>753.2</ele>
        <time>2021-10-12T13:47:28Z</time>
      </trkpt>
      <trkpt lat="42.0267960" lon="-5.7061730">
        <ele>752.6</ele>
        <time>2021-10-12T13:47:35Z</time>
      </trkpt>
      <trkpt lat="42.0267610" lon="-5.7061230">
        <ele>752.4</ele>
        <time>2021-10-12T13:47:36Z</time>
      </trkpt>
      <trkpt lat="42.0265970" lon="-5.7058940">
        <ele>752.2</ele>
        <time>2021-10-12T13:47:41Z</time>
      </trkpt>
      <trkpt lat="42.0265730" lon="-5.7058600">
        <ele>752.0</ele>
        <time>2021-10-12T13:47:42Z</time>
      </trkpt>
      <trkpt lat="42.0265070" lon="-5.7057680">
        <ele>751.8</ele>
        <time>2021-10-12T13:47:44Z</time>
      </trkpt>
      <trkpt lat="42.0263890" lon="-5.7056090">
        <ele>751.6</ele>
        <time>2021-10-12T13:47:48Z</time>
      </trkpt>
      <trkpt lat="42.0261960" lon="-5.7053420">
        <ele>751.6</ele>
        <time>2021-10-12T13:47:54Z</time>
      </trkpt>
      <trkpt lat="42.0260530" lon="-5.7051740">
        <ele>751.6</ele>
        <time>2021-10-12T13:47:58Z</time>
      </trkpt>
      <trkpt lat="42.0259590" lon="-5.7050370">
        <ele>751.4</ele>
        <time>2021-10-12T13:48:01Z</time>
      </trkpt>
      <trkpt lat="42.0257880" lon="-5.7048100">
        <ele>751.2</ele>
        <time>2021-10-12T13:48:06Z</time>
      </trkpt>
      <trkpt lat="42.0256880" lon="-5.7046670">
        <ele>751.2</ele>
        <time>2021-10-12T13:48:09Z</time>
      </trkpt>
      <trkpt lat="42.0255360" lon="-5.7044720">
        <ele>751.2</ele>
        <time>2021-10-12T13:48:14Z</time>
      </trkpt>
      <trkpt lat="42.0253820" lon="-5.7042610">
        <ele>751.2</ele>
        <time>2021-10-12T13:48:19Z</time>
      </trkpt>
      <trkpt lat="42.0250960" lon="-5.7038610">
        <ele>751.4</ele>
        <time>2021-10-12T13:48:28Z</time>
      </trkpt>
      <trkpt lat="42.0249700" lon="-5.7036840">
        <ele>751.4</ele>
        <time>2021-10-12T13:48:32Z</time>
      </trkpt>
      <trkpt lat="42.0249390" lon="-5.7036390">
        <ele>751.6</ele>
        <time>2021-10-12T13:48:33Z</time>
      </trkpt>
      <trkpt lat="42.0248110" lon="-5.7034750">
        <ele>751.6</ele>
        <time>2021-10-12T13:48:37Z</time>
      </trkpt>
      <trkpt lat="42.0245600" lon="-5.7031500">
        <ele>751.6</ele>
        <time>2021-10-12T13:48:45Z</time>
      </trkpt>
      <trkpt lat="42.0245180" lon="-5.7031050">
        <ele>751.6</ele>
        <time>2021-10-12T13:48:46Z</time>
      </trkpt>
      <trkpt lat="42.0243600" lon="-5.7029250">
        <ele>751.6</ele>
        <time>2021-10-12T13:48:51Z</time>
      </trkpt>
      <trkpt lat="42.0242910" lon="-5.7028550">
        <ele>751.6</ele>
        <time>2021-10-12T13:48:53Z</time>
      </trkpt>
      <trkpt lat="42.0238690" lon="-5.7024520">
        <ele>751.4</ele>
        <time>2021-10-12T13:49:05Z</time>
      </trkpt>
      <trkpt lat="42.0236240" lon="-5.7022600">
        <ele>751.0</ele>
        <time>2021-10-12T13:49:12Z</time>
      </trkpt>
      <trkpt lat="42.0233110" lon="-5.7020610">
        <ele>751.0</ele>
        <time>2021-10-12T13:49:20Z</time>
      </trkpt>
      <trkpt lat="42.0230090" lon="-5.7018960">
        <ele>751.2</ele>
        <time>2021-10-12T13:49:28Z</time>
      </trkpt>
      <trkpt lat="42.0226070" lon="-5.7017310">
        <ele>750.6</ele>
        <time>2021-10-12T13:49:37Z</time>
      </trkpt>
      <trkpt lat="42.0225220" lon="-5.7017070">
        <ele>750.6</ele>
        <time>2021-10-12T13:49:39Z</time>
      </trkpt>
      <trkpt lat="42.0224210" lon="-5.7016830">
        <ele>750.4</ele>
        <time>2021-10-12T13:49:41Z</time>
      </trkpt>
      <trkpt lat="42.0222840" lon="-5.7016520">
        <ele>750.6</ele>
        <time>2021-10-12T13:49:44Z</time>
      </trkpt>
      <trkpt lat="42.0218300" lon="-5.7015660">
        <ele>750.0</ele>
        <time>2021-10-12T13:49:54Z</time>
      </trkpt>
      <trkpt lat="42.0214360" lon="-5.7014960">
        <ele>749.6</ele>
        <time>2021-10-12T13:50:03Z</time>
      </trkpt>
      <trkpt lat="42.0212110" lon="-5.7014580">
        <ele>749.6</ele>
        <time>2021-10-12T13:50:08Z</time>
      </trkpt>
      <trkpt lat="42.0210890" lon="-5.7014380">
        <ele>749.4</ele>
        <time>2021-10-12T13:50:11Z</time>
      </trkpt>
      <trkpt lat="42.0210010" lon="-5.7014220">
        <ele>749.2</ele>
        <time>2021-10-12T13:50:13Z</time>
      </trkpt>
      <trkpt lat="42.0209140" lon="-5.7014020">
        <ele>749.0</ele>
        <time>2021-10-12T13:50:15Z</time>
      </trkpt>
      <trkpt lat="42.0207110" lon="-5.7013830">
        <ele>748.8</ele>
        <time>2021-10-12T13:50:20Z</time>
      </trkpt>
      <trkpt lat="42.0205850" lon="-5.7013670">
        <ele>748.4</ele>
        <time>2021-10-12T13:50:23Z</time>
      </trkpt>
      <trkpt lat="42.0204080" lon="-5.7013470">
        <ele>748.4</ele>
        <time>2021-10-12T13:50:27Z</time>
      </trkpt>
      <trkpt lat="42.0199990" lon="-5.7012710">
        <ele>748.4</ele>
        <time>2021-10-12T13:50:36Z</time>
      </trkpt>
      <trkpt lat="42.0196650" lon="-5.7012100">
        <ele>748.2</ele>
        <time>2021-10-12T13:50:43Z</time>
      </trkpt>
      <trkpt lat="42.0196150" lon="-5.7011980">
        <ele>748.2</ele>
        <time>2021-10-12T13:50:44Z</time>
      </trkpt>
      <trkpt lat="42.0194470" lon="-5.7011610">
        <ele>748.0</ele>
        <time>2021-10-12T13:50:48Z</time>
      </trkpt>
      <trkpt lat="42.0192740" lon="-5.7011270">
        <ele>747.8</ele>
        <time>2021-10-12T13:50:52Z</time>
      </trkpt>
      <trkpt lat="42.0191820" lon="-5.7011090">
        <ele>747.6</ele>
        <time>2021-10-12T13:50:54Z</time>
      </trkpt>
      <trkpt lat="42.0189330" lon="-5.7010520">
        <ele>747.6</ele>
        <time>2021-10-12T13:51:00Z</time>
      </trkpt>
      <trkpt lat="42.0185560" lon="-5.7009320">
        <ele>747.0</ele>
        <time>2021-10-12T13:51:09Z</time>
      </trkpt>
      <trkpt lat="42.0184670" lon="-5.7008990">
        <ele>747.0</ele>
        <time>2021-10-12T13:51:11Z</time>
      </trkpt>
      <trkpt lat="42.0183310" lon="-5.7008530">
        <ele>746.8</ele>
        <time>2021-10-12T13:51:14Z</time>
      </trkpt>
      <trkpt lat="42.0181570" lon="-5.7007810">
        <ele>746.8</ele>
        <time>2021-10-12T13:51:18Z</time>
      </trkpt>
      <trkpt lat="42.0181130" lon="-5.7007610">
        <ele>746.6</ele>
        <time>2021-10-12T13:51:19Z</time>
      </trkpt>
      <trkpt lat="42.0179920" lon="-5.7007010">
        <ele>746.6</ele>
        <time>2021-10-12T13:51:22Z</time>
      </trkpt>
      <trkpt lat="42.0179480" lon="-5.7006810">
        <ele>746.6</ele>
        <time>2021-10-12T13:51:23Z</time>
      </trkpt>
      <trkpt lat="42.0176610" lon="-5.7005420">
        <ele>746.2</ele>
        <time>2021-10-12T13:51:30Z</time>
      </trkpt>
      <trkpt lat="42.0175220" lon="-5.7004700">
        <ele>746.2</ele>
        <time>2021-10-12T13:51:33Z</time>
      </trkpt>
      <trkpt lat="42.0174030" lon="-5.7003930">
        <ele>746.0</ele>
        <time>2021-10-12T13:51:36Z</time>
      </trkpt>
      <trkpt lat="42.0172430" lon="-5.7002980">
        <ele>746.0</ele>
        <time>2021-10-12T13:51:40Z</time>
      </trkpt>
      <trkpt lat="42.0171100" lon="-5.7002120">
        <ele>745.6</ele>
        <time>2021-10-12T13:51:43Z</time>
      </trkpt>
      <trkpt lat="42.0169050" lon="-5.7000650">
        <ele>745.2</ele>
        <time>2021-10-12T13:51:48Z</time>
      </trkpt>
      <trkpt lat="42.0168730" lon="-5.7000390">
        <ele>745.2</ele>
        <time>2021-10-12T13:51:49Z</time>
      </trkpt>
      <trkpt lat="42.0164650" lon="-5.6997180">
        <ele>744.6</ele>
        <time>2021-10-12T13:51:59Z</time>
      </trkpt>
      <trkpt lat="42.0163420" lon="-5.6996150">
        <ele>744.6</ele>
        <time>2021-10-12T13:52:02Z</time>
      </trkpt>
      <trkpt lat="42.0162220" lon="-5.6995130">
        <ele>744.4</ele>
        <time>2021-10-12T13:52:05Z</time>
      </trkpt>
      <trkpt lat="42.0161510" lon="-5.6994450">
        <ele>744.4</ele>
        <time>2021-10-12T13:52:07Z</time>
      </trkpt>
      <trkpt lat="42.0161140" lon="-5.6994160">
        <ele>744.2</ele>
        <time>2021-10-12T13:52:08Z</time>
      </trkpt>
      <trkpt lat="42.0158780" lon="-5.6992260">
        <ele>743.8</ele>
        <time>2021-10-12T13:52:14Z</time>
      </trkpt>
      <trkpt lat="42.0157060" lon="-5.6990900">
        <ele>743.8</ele>
        <time>2021-10-12T13:52:18Z</time>
      </trkpt>
      <trkpt lat="42.0155860" lon="-5.6989940">
        <ele>743.8</ele>
        <time>2021-10-12T13:52:21Z</time>
      </trkpt>
      <trkpt lat="42.0155470" lon="-5.6989620">
        <ele>743.8</ele>
        <time>2021-10-12T13:52:22Z</time>
      </trkpt>
      <trkpt lat="42.0153920" lon="-5.6988400">
        <ele>743.6</ele>
        <time>2021-10-12T13:52:26Z</time>
      </trkpt>
      <trkpt lat="42.0153200" lon="-5.6987850">
        <ele>743.4</ele>
        <time>2021-10-12T13:52:28Z</time>
      </trkpt>
      <trkpt lat="42.0150830" lon="-5.6986000">
        <ele>743.4</ele>
        <time>2021-10-12T13:52:34Z</time>
      </trkpt>
      <trkpt lat="42.0149190" lon="-5.6984710">
        <ele>743.2</ele>
        <time>2021-10-12T13:52:38Z</time>
      </trkpt>
      <trkpt lat="42.0146460" lon="-5.6982520">
        <ele>743.2</ele>
        <time>2021-10-12T13:52:45Z</time>
      </trkpt>
      <trkpt lat="42.0145760" lon="-5.6981990">
        <ele>743.2</ele>
        <time>2021-10-12T13:52:47Z</time>
      </trkpt>
      <trkpt lat="42.0144170" lon="-5.6980810">
        <ele>743.4</ele>
        <time>2021-10-12T13:52:51Z</time>
      </trkpt>
      <trkpt lat="42.0142180" lon="-5.6979170">
        <ele>743.2</ele>
        <time>2021-10-12T13:52:56Z</time>
      </trkpt>
      <trkpt lat="42.0141870" lon="-5.6978920">
        <ele>743.0</ele>
        <time>2021-10-12T13:52:57Z</time>
      </trkpt>
      <trkpt lat="42.0140620" lon="-5.6977930">
        <ele>743.0</ele>
        <time>2021-10-12T13:53:00Z</time>
      </trkpt>
      <trkpt lat="42.0139050" lon="-5.6976700">
        <ele>742.6</ele>
        <time>2021-10-12T13:53:04Z</time>
      </trkpt>
      <trkpt lat="42.0137110" lon="-5.6975110">
        <ele>742.2</ele>
        <time>2021-10-12T13:53:09Z</time>
      </trkpt>
      <trkpt lat="42.0136440" lon="-5.6974550">
        <ele>742.0</ele>
        <time>2021-10-12T13:53:11Z</time>
      </trkpt>
      <trkpt lat="42.0132090" lon="-5.6971140">
        <ele>741.4</ele>
        <time>2021-10-12T13:53:22Z</time>
      </trkpt>
      <trkpt lat="42.0131730" lon="-5.6970820">
        <ele>741.4</ele>
        <time>2021-10-12T13:53:23Z</time>
      </trkpt>
      <trkpt lat="42.0130700" lon="-5.6970010">
        <ele>741.4</ele>
        <time>2021-10-12T13:53:26Z</time>
      </trkpt>
      <trkpt lat="42.0129540" lon="-5.6969110">
        <ele>741.2</ele>
        <time>2021-10-12T13:53:29Z</time>
      </trkpt>
      <trkpt lat="42.0128670" lon="-5.6968440">
        <ele>741.2</ele>
        <time>2021-10-12T13:53:31Z</time>
      </trkpt>
      <trkpt lat="42.0128290" lon="-5.6968130">
        <ele>741.0</ele>
        <time>2021-10-12T13:53:32Z</time>
      </trkpt>
      <trkpt lat="42.0127590" lon="-5.6967580">
        <ele>740.8</ele>
        <time>2021-10-12T13:53:34Z</time>
      </trkpt>
      <trkpt lat="42.0124870" lon="-5.6965460">
        <ele>740.4</ele>
        <time>2021-10-12T13:53:42Z</time>
      </trkpt>
      <trkpt lat="42.0122730" lon="-5.6963770">
        <ele>740.2</ele>
        <time>2021-10-12T13:53:50Z</time>
      </trkpt>
      <trkpt lat="42.0121440" lon="-5.6962750">
        <ele>740.2</ele>
        <time>2021-10-12T13:53:54Z</time>
      </trkpt>
      <trkpt lat="42.0120250" lon="-5.6961880">
        <ele>740.2</ele>
        <time>2021-10-12T13:53:58Z</time>
      </trkpt>
      <trkpt lat="42.0119880" lon="-5.6961680">
        <ele>740.2</ele>
        <time>2021-10-12T13:54:02Z</time>
      </trkpt>
      <trkpt lat="42.0119410" lon="-5.6961310">
        <ele>740.4</ele>
        <time>2021-10-12T13:54:15Z</time>
      </trkpt>
      <trkpt lat="42.0118970" lon="-5.6960900">
        <ele>740.4</ele>
        <time>2021-10-12T13:54:17Z</time>
      </trkpt>
      <trkpt lat="42.0116990" lon="-5.6959360">
        <ele>740.2</ele>
        <time>2021-10-12T13:54:23Z</time>
      </trkpt>
      <trkpt lat="42.0114450" lon="-5.6957250">
        <ele>740.2</ele>
        <time>2021-10-12T13:54:30Z</time>
      </trkpt>
      <trkpt lat="42.0111410" lon="-5.6954850">
        <ele>740.2</ele>
        <time>2021-10-12T13:54:38Z</time>
      </trkpt>
      <trkpt lat="42.0107870" lon="-5.6952100">
        <ele>740.6</ele>
        <time>2021-10-12T13:54:47Z</time>
      </trkpt>
      <trkpt lat="42.0105130" lon="-5.6949880">
        <ele>740.6</ele>
        <time>2021-10-12T13:54:54Z</time>
      </trkpt>
      <trkpt lat="42.0103740" lon="-5.6948850">
        <ele>740.6</ele>
        <time>2021-10-12T13:54:58Z</time>
      </trkpt>
      <trkpt lat="42.0103420" lon="-5.6948550">
        <ele>740.6</ele>
        <time>2021-10-12T13:54:59Z</time>
      </trkpt>
      <trkpt lat="42.0102080" lon="-5.6947510">
        <ele>740.6</ele>
        <time>2021-10-12T13:55:03Z</time>
      </trkpt>
      <trkpt lat="42.0099420" lon="-5.6945520">
        <ele>740.6</ele>
        <time>2021-10-12T13:55:11Z</time>
      </trkpt>
      <trkpt lat="42.0096070" lon="-5.6942810">
        <ele>741.0</ele>
        <time>2021-10-12T13:55:21Z</time>
      </trkpt>
      <trkpt lat="42.0093060" lon="-5.6940440">
        <ele>741.2</ele>
        <time>2021-10-12T13:55:29Z</time>
      </trkpt>
      <trkpt lat="42.0090530" lon="-5.6937950">
        <ele>741.0</ele>
        <time>2021-10-12T13:55:36Z</time>
      </trkpt>
      <trkpt lat="42.0089880" lon="-5.6937150">
        <ele>741.0</ele>
        <time>2021-10-12T13:55:38Z</time>
      </trkpt>
      <trkpt lat="42.0086920" lon="-5.6933600">
        <ele>740.8</ele>
        <time>2021-10-12T13:55:47Z</time>
      </trkpt>
      <trkpt lat="42.0084560" lon="-5.6929860">
        <ele>740.4</ele>
        <time>2021-10-12T13:55:55Z</time>
      </trkpt>
      <trkpt lat="42.0083680" lon="-5.6928570">
        <ele>740.4</ele>
        <time>2021-10-12T13:55:58Z</time>
      </trkpt>
      <trkpt lat="42.0082550" lon="-5.6926790">
        <ele>740.4</ele>
        <time>2021-10-12T13:56:02Z</time>
      </trkpt>
      <trkpt lat="42.0081740" lon="-5.6925310">
        <ele>740.2</ele>
        <time>2021-10-12T13:56:05Z</time>
      </trkpt>
      <trkpt lat="42.0080500" lon="-5.6922950">
        <ele>740.0</ele>
        <time>2021-10-12T13:56:10Z</time>
      </trkpt>
      <trkpt lat="42.0080020" lon="-5.6921780">
        <ele>739.8</ele>
        <time>2021-10-12T13:56:12Z</time>
      </trkpt>
      <trkpt lat="42.0079010" lon="-5.6919240">
        <ele>739.4</ele>
        <time>2021-10-12T13:56:17Z</time>
      </trkpt>
      <trkpt lat="42.0078620" lon="-5.6918180">
        <ele>739.2</ele>
        <time>2021-10-12T13:56:19Z</time>
      </trkpt>
      <trkpt lat="42.0078190" lon="-5.6917120">
        <ele>739.2</ele>
        <time>2021-10-12T13:56:21Z</time>
      </trkpt>
      <trkpt lat="42.0076720" lon="-5.6913460">
        <ele>739.2</ele>
        <time>2021-10-12T13:56:28Z</time>
      </trkpt>
      <trkpt lat="42.0074950" lon="-5.6908590">
        <ele>739.2</ele>
        <time>2021-10-12T13:56:37Z</time>
      </trkpt>
      <trkpt lat="42.0073000" lon="-5.6903800">
        <ele>739.0</ele>
        <time>2021-10-12T13:56:46Z</time>
      </trkpt>
      <trkpt lat="42.0071160" lon="-5.6900000">
        <ele>739.2</ele>
        <time>2021-10-12T13:56:55Z</time>
      </trkpt>
      <trkpt lat="42.0070610" lon="-5.6899080">
        <ele>739.2</ele>
        <time>2021-10-12T13:56:56Z</time>
      </trkpt>
      <trkpt lat="42.0069280" lon="-5.6896890">
        <ele>739.4</ele>
        <time>2021-10-12T13:57:01Z</time>
      </trkpt>
      <trkpt lat="42.0069030" lon="-5.6896430">
        <ele>739.4</ele>
        <time>2021-10-12T13:57:02Z</time>
      </trkpt>
      <trkpt lat="42.0068500" lon="-5.6895560">
        <ele>739.2</ele>
        <time>2021-10-12T13:57:04Z</time>
      </trkpt>
      <trkpt lat="42.0067200" lon="-5.6893320">
        <ele>739.4</ele>
        <time>2021-10-12T13:57:09Z</time>
      </trkpt>
      <trkpt lat="42.0066040" lon="-5.6891630">
        <ele>739.4</ele>
        <time>2021-10-12T13:57:13Z</time>
      </trkpt>
      <trkpt lat="42.0064870" lon="-5.6890170">
        <ele>739.4</ele>
        <time>2021-10-12T13:57:17Z</time>
      </trkpt>
      <trkpt lat="42.0064560" lon="-5.6889810">
        <ele>739.4</ele>
        <time>2021-10-12T13:57:18Z</time>
      </trkpt>
      <trkpt lat="42.0063320" lon="-5.6888260">
        <ele>739.4</ele>
        <time>2021-10-12T13:57:22Z</time>
      </trkpt>
      <trkpt lat="42.0061460" lon="-5.6886290">
        <ele>739.4</ele>
        <time>2021-10-12T13:57:28Z</time>
      </trkpt>
      <trkpt lat="42.0060350" lon="-5.6885100">
        <ele>739.4</ele>
        <time>2021-10-12T13:57:33Z</time>
      </trkpt>
      <trkpt lat="42.0060310" lon="-5.6885050">
        <ele>739.6</ele>
        <time>2021-10-12T13:57:35Z</time>
      </trkpt>
      <trkpt lat="42.0059870" lon="-5.6884750">
        <ele>739.6</ele>
        <time>2021-10-12T13:57:41Z</time>
      </trkpt>
      <trkpt lat="42.0058400" lon="-5.6883640">
        <ele>739.4</ele>
        <time>2021-10-12T13:57:46Z</time>
      </trkpt>
      <trkpt lat="42.0057620" lon="-5.6883130">
        <ele>739.2</ele>
        <time>2021-10-12T13:57:48Z</time>
      </trkpt>
      <trkpt lat="42.0056060" lon="-5.6881780">
        <ele>739.2</ele>
        <time>2021-10-12T13:57:52Z</time>
      </trkpt>
      <trkpt lat="42.0053470" lon="-5.6879950">
        <ele>739.2</ele>
        <time>2021-10-12T13:57:58Z</time>
      </trkpt>
      <trkpt lat="42.0052610" lon="-5.6879390">
        <ele>739.2</ele>
        <time>2021-10-12T13:58:00Z</time>
      </trkpt>
      <trkpt lat="42.0048410" lon="-5.6876940">
        <ele>739.0</ele>
        <time>2021-10-12T13:58:09Z</time>
      </trkpt>
      <trkpt lat="42.0044050" lon="-5.6874510">
        <ele>739.2</ele>
        <time>2021-10-12T13:58:18Z</time>
      </trkpt>
      <trkpt lat="42.0042040" lon="-5.6873030">
        <ele>739.4</ele>
        <time>2021-10-12T13:58:23Z</time>
      </trkpt>
      <trkpt lat="42.0041240" lon="-5.6872470">
        <ele>739.4</ele>
        <time>2021-10-12T13:58:25Z</time>
      </trkpt>
      <trkpt lat="42.0038810" lon="-5.6870440">
        <ele>739.4</ele>
        <time>2021-10-12T13:58:32Z</time>
      </trkpt>
      <trkpt lat="42.0038050" lon="-5.6869820">
        <ele>739.6</ele>
        <time>2021-10-12T13:58:34Z</time>
      </trkpt>
      <trkpt lat="42.0035980" lon="-5.6867800">
        <ele>739.8</ele>
        <time>2021-10-12T13:58:40Z</time>
      </trkpt>
      <trkpt lat="42.0034680" lon="-5.6866430">
        <ele>739.8</ele>
        <time>2021-10-12T13:58:44Z</time>
      </trkpt>
      <trkpt lat="42.0034370" lon="-5.6866120">
        <ele>739.8</ele>
        <time>2021-10-12T13:58:45Z</time>
      </trkpt>
      <trkpt lat="42.0032980" lon="-5.6864550">
        <ele>739.8</ele>
        <time>2021-10-12T13:58:50Z</time>
      </trkpt>
      <trkpt lat="42.0032420" lon="-5.6863930">
        <ele>739.6</ele>
        <time>2021-10-12T13:58:52Z</time>
      </trkpt>
      <trkpt lat="42.0030320" lon="-5.6861230">
        <ele>739.6</ele>
        <time>2021-10-12T13:59:00Z</time>
      </trkpt>
      <trkpt lat="42.0028140" lon="-5.6858680">
        <ele>739.6</ele>
        <time>2021-10-12T13:59:08Z</time>
      </trkpt>
      <trkpt lat="42.0027350" lon="-5.6857850">
        <ele>739.6</ele>
        <time>2021-10-12T13:59:11Z</time>
      </trkpt>
      <trkpt lat="42.0026580" lon="-5.6857110">
        <ele>739.6</ele>
        <time>2021-10-12T13:59:14Z</time>
      </trkpt>
      <trkpt lat="42.0025800" lon="-5.6856360">
        <ele>739.8</ele>
        <time>2021-10-12T13:59:17Z</time>
      </trkpt>
      <trkpt lat="42.0024970" lon="-5.6855640">
        <ele>739.8</ele>
        <time>2021-10-12T13:59:20Z</time>
      </trkpt>
      <trkpt lat="42.0023180" lon="-5.6853950">
        <ele>739.6</ele>
        <time>2021-10-12T13:59:26Z</time>
      </trkpt>
      <trkpt lat="42.0021040" lon="-5.6851650">
        <ele>739.4</ele>
        <time>2021-10-12T13:59:34Z</time>
      </trkpt>
      <trkpt lat="42.0019780" lon="-5.6850360">
        <ele>739.2</ele>
        <time>2021-10-12T13:59:37Z</time>
      </trkpt>
      <trkpt lat="42.0017930" lon="-5.6848510">
        <ele>739.2</ele>
        <time>2021-10-12T13:59:43Z</time>
      </trkpt>
      <trkpt lat="42.0017650" lon="-5.6848220">
        <ele>739.0</ele>
        <time>2021-10-12T13:59:44Z</time>
      </trkpt>
      <trkpt lat="42.0015550" lon="-5.6846050">
        <ele>739.0</ele>
        <time>2021-10-12T13:59:52Z</time>
      </trkpt>
      <trkpt lat="42.0013780" lon="-5.6844270">
        <ele>739.2</ele>
        <time>2021-10-12T14:00:00Z</time>
      </trkpt>
      <trkpt lat="42.0012510" lon="-5.6842800">
        <ele>739.2</ele>
        <time>2021-10-12T14:00:06Z</time>
      </trkpt>
      <trkpt lat="42.0012350" lon="-5.6842540">
        <ele>739.2</ele>
        <time>2021-10-12T14:00:07Z</time>
      </trkpt>
      <trkpt lat="42.0011450" lon="-5.6841240">
        <ele>739.0</ele>
        <time>2021-10-12T14:00:14Z</time>
      </trkpt>
      <trkpt lat="42.0011260" lon="-5.6841010">
        <ele>739.0</ele>
        <time>2021-10-12T14:00:15Z</time>
      </trkpt>
      <trkpt lat="42.0011230" lon="-5.6841000">
        <ele>739.0</ele>
        <time>2021-10-12T14:00:17Z</time>
      </trkpt>
      <trkpt lat="42.0010720" lon="-5.6838170">
        <ele>741.4</ele>
        <time>2021-10-12T14:05:19Z</time>
      </trkpt>
      <trkpt lat="42.0010370" lon="-5.6837860">
        <ele>741.4</ele>
        <time>2021-10-12T14:05:21Z</time>
      </trkpt>
      <trkpt lat="42.0009660" lon="-5.6837350">
        <ele>741.4</ele>
        <time>2021-10-12T14:05:24Z</time>
      </trkpt>
      <trkpt lat="42.0009470" lon="-5.6837220">
        <ele>741.6</ele>
        <time>2021-10-12T14:05:26Z</time>
      </trkpt>
      <trkpt lat="42.0008830" lon="-5.6836850">
        <ele>741.6</ele>
        <time>2021-10-12T14:05:28Z</time>
      </trkpt>
      <trkpt lat="42.0008630" lon="-5.6836710">
        <ele>741.6</ele>
        <time>2021-10-12T14:05:29Z</time>
      </trkpt>
      <trkpt lat="42.0008270" lon="-5.6836470">
        <ele>741.6</ele>
        <time>2021-10-12T14:05:32Z</time>
      </trkpt>
      <trkpt lat="42.0007490" lon="-5.6835820">
        <ele>741.6</ele>
        <time>2021-10-12T14:05:35Z</time>
      </trkpt>
      <trkpt lat="42.0007140" lon="-5.6835510">
        <ele>741.8</ele>
        <time>2021-10-12T14:05:38Z</time>
      </trkpt>
      <trkpt lat="42.0006770" lon="-5.6835290">
        <ele>741.8</ele>
        <time>2021-10-12T14:05:40Z</time>
      </trkpt>
      <trkpt lat="42.0006670" lon="-5.6835230">
        <ele>742.0</ele>
        <time>2021-10-12T14:05:44Z</time>
      </trkpt>
      <trkpt lat="42.0006810" lon="-5.6835130">
        <ele>742.4</ele>
        <time>2021-10-12T14:06:28Z</time>
      </trkpt>
      <trkpt lat="42.0007020" lon="-5.6835080">
        <ele>742.4</ele>
        <time>2021-10-12T14:06:29Z</time>
      </trkpt>
      <trkpt lat="42.0007990" lon="-5.6835610">
        <ele>742.4</ele>
        <time>2021-10-12T14:06:33Z</time>
      </trkpt>
      <trkpt lat="42.0008600" lon="-5.6836010">
        <ele>742.4</ele>
        <time>2021-10-12T14:06:34Z</time>
      </trkpt>
      <trkpt lat="42.0010320" lon="-5.6837250">
        <ele>742.0</ele>
        <time>2021-10-12T14:06:40Z</time>
      </trkpt>
      <trkpt lat="42.0013100" lon="-5.6839700">
        <ele>741.8</ele>
        <time>2021-10-12T14:06:47Z</time>
      </trkpt>
      <trkpt lat="42.0015360" lon="-5.6841780">
        <ele>741.4</ele>
        <time>2021-10-12T14:06:53Z</time>
      </trkpt>
      <trkpt lat="42.0016630" lon="-5.6842640">
        <ele>741.4</ele>
        <time>2021-10-12T14:06:55Z</time>
      </trkpt>
      <trkpt lat="42.0020720" lon="-5.6845900">
        <ele>741.6</ele>
        <time>2021-10-12T14:07:05Z</time>
      </trkpt>
      <trkpt lat="42.0022950" lon="-5.6848180">
        <ele>741.6</ele>
        <time>2021-10-12T14:07:11Z</time>
      </trkpt>
      <trkpt lat="42.0023290" lon="-5.6848600">
        <ele>741.6</ele>
        <time>2021-10-12T14:07:12Z</time>
      </trkpt>
      <trkpt lat="42.0026100" lon="-5.6852080">
        <ele>742.0</ele>
        <time>2021-10-12T14:07:21Z</time>
      </trkpt>
      <trkpt lat="42.0027680" lon="-5.6854290">
        <ele>742.0</ele>
        <time>2021-10-12T14:07:27Z</time>
      </trkpt>
      <trkpt lat="42.0028660" lon="-5.6855720">
        <ele>742.0</ele>
        <time>2021-10-12T14:07:30Z</time>
      </trkpt>
      <trkpt lat="42.0031740" lon="-5.6859980">
        <ele>742.0</ele>
        <time>2021-10-12T14:07:38Z</time>
      </trkpt>
      <trkpt lat="42.0033520" lon="-5.6862140">
        <ele>741.6</ele>
        <time>2021-10-12T14:07:43Z</time>
      </trkpt>
      <trkpt lat="42.0034990" lon="-5.6863910">
        <ele>741.2</ele>
        <time>2021-10-12T14:07:47Z</time>
      </trkpt>
      <trkpt lat="42.0036840" lon="-5.6865810">
        <ele>741.0</ele>
        <time>2021-10-12T14:07:52Z</time>
      </trkpt>
      <trkpt lat="42.0037870" lon="-5.6866770">
        <ele>741.0</ele>
        <time>2021-10-12T14:07:55Z</time>
      </trkpt>
      <trkpt lat="42.0038860" lon="-5.6867570">
        <ele>741.0</ele>
        <time>2021-10-12T14:07:58Z</time>
      </trkpt>
      <trkpt lat="42.0040240" lon="-5.6868380">
        <ele>741.0</ele>
        <time>2021-10-12T14:08:02Z</time>
      </trkpt>
      <trkpt lat="42.0040960" lon="-5.6868440">
        <ele>741.0</ele>
        <time>2021-10-12T14:08:04Z</time>
      </trkpt>
      <trkpt lat="42.0041580" lon="-5.6868160">
        <ele>741.0</ele>
        <time>2021-10-12T14:08:06Z</time>
      </trkpt>
      <trkpt lat="42.0042750" lon="-5.6866500">
        <ele>741.6</ele>
        <time>2021-10-12T14:08:12Z</time>
      </trkpt>
      <trkpt lat="42.0043440" lon="-5.6865080">
        <ele>741.8</ele>
        <time>2021-10-12T14:08:16Z</time>
      </trkpt>
      <trkpt lat="42.0044020" lon="-5.6863970">
        <ele>742.2</ele>
        <time>2021-10-12T14:08:19Z</time>
      </trkpt>
      <trkpt lat="42.0044920" lon="-5.6862160">
        <ele>742.6</ele>
        <time>2021-10-12T14:08:24Z</time>
      </trkpt>
      <trkpt lat="42.0045290" lon="-5.6861440">
        <ele>742.6</ele>
        <time>2021-10-12T14:08:26Z</time>
      </trkpt>
      <trkpt lat="42.0045830" lon="-5.6860390">
        <ele>742.8</ele>
        <time>2021-10-12T14:08:29Z</time>
      </trkpt>
      <trkpt lat="42.0047300" lon="-5.6857550">
        <ele>743.8</ele>
        <time>2021-10-12T14:08:37Z</time>
      </trkpt>
      <trkpt lat="42.0047660" lon="-5.6856850">
        <ele>744.0</ele>
        <time>2021-10-12T14:08:39Z</time>
      </trkpt>
      <trkpt lat="42.0048010" lon="-5.6856160">
        <ele>744.4</ele>
        <time>2021-10-12T14:08:41Z</time>
      </trkpt>
      <trkpt lat="42.0048700" lon="-5.6854790">
        <ele>744.8</ele>
        <time>2021-10-12T14:08:45Z</time>
      </trkpt>
      <trkpt lat="42.0048870" lon="-5.6854470">
        <ele>745.0</ele>
        <time>2021-10-12T14:08:46Z</time>
      </trkpt>
      <trkpt lat="42.0049030" lon="-5.6854150">
        <ele>745.0</ele>
        <time>2021-10-12T14:08:47Z</time>
      </trkpt>
      <trkpt lat="42.0050270" lon="-5.6851700">
        <ele>746.0</ele>
        <time>2021-10-12T14:08:55Z</time>
      </trkpt>
      <trkpt lat="42.0051240" lon="-5.6849280">
        <ele>746.6</ele>
        <time>2021-10-12T14:09:03Z</time>
      </trkpt>
      <trkpt lat="42.0051390" lon="-5.6848620">
        <ele>746.6</ele>
        <time>2021-10-12T14:09:05Z</time>
      </trkpt>
      <trkpt lat="42.0051650" lon="-5.6847650">
        <ele>747.0</ele>
        <time>2021-10-12T14:09:08Z</time>
      </trkpt>
      <trkpt lat="42.0051730" lon="-5.6847330">
        <ele>747.0</ele>
        <time>2021-10-12T14:09:09Z</time>
      </trkpt>
      <trkpt lat="42.0052030" lon="-5.6846030">
        <ele>747.4</ele>
        <time>2021-10-12T14:09:13Z</time>
      </trkpt>
      <trkpt lat="42.0052290" lon="-5.6844440">
        <ele>748.2</ele>
        <time>2021-10-12T14:09:18Z</time>
      </trkpt>
      <trkpt lat="42.0052450" lon="-5.6842840">
        <ele>748.8</ele>
        <time>2021-10-12T14:09:23Z</time>
      </trkpt>
      <trkpt lat="42.0052540" lon="-5.6841880">
        <ele>749.2</ele>
        <time>2021-10-12T14:09:26Z</time>
      </trkpt>
      <trkpt lat="42.0052570" lon="-5.6840950">
        <ele>749.6</ele>
        <time>2021-10-12T14:09:29Z</time>
      </trkpt>
      <trkpt lat="42.0052690" lon="-5.6839750">
        <ele>750.2</ele>
        <time>2021-10-12T14:09:33Z</time>
      </trkpt>
      <trkpt lat="42.0052840" lon="-5.6838620">
        <ele>750.8</ele>
        <time>2021-10-12T14:09:37Z</time>
      </trkpt>
      <trkpt lat="42.0052820" lon="-5.6837510">
        <ele>751.4</ele>
        <time>2021-10-12T14:09:42Z</time>
      </trkpt>
      <trkpt lat="42.0052670" lon="-5.6835580">
        <ele>752.2</ele>
        <time>2021-10-12T14:09:48Z</time>
      </trkpt>
      <trkpt lat="42.0052630" lon="-5.6835020">
        <ele>752.6</ele>
        <time>2021-10-12T14:09:50Z</time>
      </trkpt>
      <trkpt lat="42.0052460" lon="-5.6833970">
        <ele>753.2</ele>
        <time>2021-10-12T14:09:54Z</time>
      </trkpt>
      <trkpt lat="42.0052240" lon="-5.6833200">
        <ele>753.8</ele>
        <time>2021-10-12T14:09:57Z</time>
      </trkpt>
      <trkpt lat="42.0052310" lon="-5.6832920">
        <ele>753.8</ele>
        <time>2021-10-12T14:09:58Z</time>
      </trkpt>
      <trkpt lat="42.0052440" lon="-5.6832730">
        <ele>754.0</ele>
        <time>2021-10-12T14:09:59Z</time>
      </trkpt>
      <trkpt lat="42.0052590" lon="-5.6832630">
        <ele>754.2</ele>
        <time>2021-10-12T14:10:01Z</time>
      </trkpt>
      <trkpt lat="42.0052990" lon="-5.6832590">
        <ele>754.6</ele>
        <time>2021-10-12T14:10:04Z</time>
      </trkpt>
      <trkpt lat="42.0053460" lon="-5.6832700">
        <ele>754.8</ele>
        <time>2021-10-12T14:10:06Z</time>
      </trkpt>
      <trkpt lat="42.0054080" lon="-5.6832930">
        <ele>755.0</ele>
        <time>2021-10-12T14:10:09Z</time>
      </trkpt>
      <trkpt lat="42.0054560" lon="-5.6833110">
        <ele>755.2</ele>
        <time>2021-10-12T14:10:11Z</time>
      </trkpt>
      <trkpt lat="42.0055040" lon="-5.6833280">
        <ele>755.2</ele>
        <time>2021-10-12T14:10:13Z</time>
      </trkpt>
      <trkpt lat="42.0055280" lon="-5.6833420">
        <ele>755.2</ele>
        <time>2021-10-12T14:10:14Z</time>
      </trkpt>
      <trkpt lat="42.0055730" lon="-5.6833660">
        <ele>755.2</ele>
        <time>2021-10-12T14:10:16Z</time>
      </trkpt>
      <trkpt lat="42.0056250" lon="-5.6833860">
        <ele>755.2</ele>
        <time>2021-10-12T14:10:18Z</time>
      </trkpt>
      <trkpt lat="42.0056520" lon="-5.6833970">
        <ele>755.2</ele>
        <time>2021-10-12T14:10:19Z</time>
      </trkpt>
      <trkpt lat="42.0056820" lon="-5.6834080">
        <ele>755.2</ele>
        <time>2021-10-12T14:10:20Z</time>
      </trkpt>
      <trkpt lat="42.0059060" lon="-5.6835000">
        <ele>754.6</ele>
        <time>2021-10-12T14:10:27Z</time>
      </trkpt>
      <trkpt lat="42.0060020" lon="-5.6835460">
        <ele>754.8</ele>
        <time>2021-10-12T14:10:30Z</time>
      </trkpt>
      <trkpt lat="42.0061770" lon="-5.6836170">
        <ele>754.8</ele>
        <time>2021-10-12T14:10:35Z</time>
      </trkpt>
      <trkpt lat="42.0062380" lon="-5.6836450">
        <ele>754.6</ele>
        <time>2021-10-12T14:10:37Z</time>
      </trkpt>
      <trkpt lat="42.0063470" lon="-5.6836860">
        <ele>754.4</ele>
        <time>2021-10-12T14:10:40Z</time>
      </trkpt>
      <trkpt lat="42.0065610" lon="-5.6837770">
        <ele>754.0</ele>
        <time>2021-10-12T14:10:46Z</time>
      </trkpt>
      <trkpt lat="42.0066620" lon="-5.6838280">
        <ele>754.0</ele>
        <time>2021-10-12T14:10:49Z</time>
      </trkpt>
      <trkpt lat="42.0067630" lon="-5.6838830">
        <ele>754.2</ele>
        <time>2021-10-12T14:10:53Z</time>
      </trkpt>
      <trkpt lat="42.0069640" lon="-5.6840040">
        <ele>754.2</ele>
        <time>2021-10-12T14:10:58Z</time>
      </trkpt>
      <trkpt lat="42.0071570" lon="-5.6841950">
        <ele>754.2</ele>
        <time>2021-10-12T14:11:05Z</time>
      </trkpt>
      <trkpt lat="42.0073070" lon="-5.6843630">
        <ele>754.4</ele>
        <time>2021-10-12T14:11:11Z</time>
      </trkpt>
      <trkpt lat="42.0073070" lon="-5.6843630">
        <ele>754.6</ele>
        <time>2021-10-12T14:11:12Z</time>
      </trkpt>
      <trkpt lat="42.0074190" lon="-5.6844890">
        <ele>755.0</ele>
        <time>2021-10-12T14:11:18Z</time>
      </trkpt>
      <trkpt lat="42.0074870" lon="-5.6844620">
        <ele>755.4</ele>
        <time>2021-10-12T14:11:21Z</time>
      </trkpt>
      <trkpt lat="42.0074870" lon="-5.6844620">
        <ele>755.4</ele>
        <time>2021-10-12T14:11:22Z</time>
      </trkpt>
      <trkpt lat="42.0074900" lon="-5.6844420">
        <ele>755.6</ele>
        <time>2021-10-12T14:11:23Z</time>
      </trkpt>
      <trkpt lat="42.0074900" lon="-5.6843970">
        <ele>755.8</ele>
        <time>2021-10-12T14:11:26Z</time>
      </trkpt>
      <trkpt lat="42.0074870" lon="-5.6843960">
        <ele>756.0</ele>
        <time>2021-10-12T14:11:29Z</time>
      </trkpt>
      <trkpt lat="42.0074510" lon="-5.6842940">
        <ele>755.8</ele>
        <time>2021-10-12T14:13:08Z</time>
      </trkpt>
      <trkpt lat="42.0074390" lon="-5.6842630">
        <ele>755.8</ele>
        <time>2021-10-12T14:13:09Z</time>
      </trkpt>
      <trkpt lat="42.0073420" lon="-5.6840560">
        <ele>756.0</ele>
        <time>2021-10-12T14:13:15Z</time>
      </trkpt>
      <trkpt lat="42.0072710" lon="-5.6839120">
        <ele>756.0</ele>
        <time>2021-10-12T14:13:19Z</time>
      </trkpt>
      <trkpt lat="42.0072410" lon="-5.6838400">
        <ele>756.0</ele>
        <time>2021-10-12T14:13:21Z</time>
      </trkpt>
      <trkpt lat="42.0072080" lon="-5.6837670">
        <ele>756.2</ele>
        <time>2021-10-12T14:13:24Z</time>
      </trkpt>
      <trkpt lat="42.0071570" lon="-5.6836610">
        <ele>756.2</ele>
        <time>2021-10-12T14:13:27Z</time>
      </trkpt>
      <trkpt lat="42.0070880" lon="-5.6835140">
        <ele>756.2</ele>
        <time>2021-10-12T14:13:30Z</time>
      </trkpt>
      <trkpt lat="42.0070560" lon="-5.6834490">
        <ele>756.4</ele>
        <time>2021-10-12T14:13:33Z</time>
      </trkpt>
      <trkpt lat="42.0070220" lon="-5.6833610">
        <ele>756.8</ele>
        <time>2021-10-12T14:13:36Z</time>
      </trkpt>
      <trkpt lat="42.0069450" lon="-5.6831940">
        <ele>757.0</ele>
        <time>2021-10-12T14:13:41Z</time>
      </trkpt>
      <trkpt lat="42.0068860" lon="-5.6830620">
        <ele>757.2</ele>
        <time>2021-10-12T14:13:46Z</time>
      </trkpt>
      <trkpt lat="42.0068580" lon="-5.6829740">
        <ele>757.2</ele>
        <time>2021-10-12T14:13:49Z</time>
      </trkpt>
      <trkpt lat="42.0067880" lon="-5.6828740">
        <ele>757.2</ele>
        <time>2021-10-12T14:13:55Z</time>
      </trkpt>
      <trkpt lat="42.0067450" lon="-5.6828020">
        <ele>757.2</ele>
        <time>2021-10-12T14:13:57Z</time>
      </trkpt>
      <trkpt lat="42.0067070" lon="-5.6826240">
        <ele>757.6</ele>
        <time>2021-10-12T14:14:02Z</time>
      </trkpt>
      <trkpt lat="42.0067070" lon="-5.6826240">
        <ele>757.8</ele>
        <time>2021-10-12T14:14:03Z</time>
      </trkpt>
      <trkpt lat="42.0066040" lon="-5.6823140">
        <ele>758.6</ele>
        <time>2021-10-12T14:14:10Z</time>
      </trkpt>
      <trkpt lat="42.0065810" lon="-5.6822480">
        <ele>758.8</ele>
        <time>2021-10-12T14:14:12Z</time>
      </trkpt>
      <trkpt lat="42.0065630" lon="-5.6822250">
        <ele>758.8</ele>
        <time>2021-10-12T14:14:13Z</time>
      </trkpt>
      <trkpt lat="42.0065250" lon="-5.6821930">
        <ele>759.0</ele>
        <time>2021-10-12T14:14:15Z</time>
      </trkpt>
      <trkpt lat="42.0065090" lon="-5.6821780">
        <ele>759.2</ele>
        <time>2021-10-12T14:14:16Z</time>
      </trkpt>
      <trkpt lat="42.0064970" lon="-5.6821650">
        <ele>759.4</ele>
        <time>2021-10-12T14:14:17Z</time>
      </trkpt>
      <trkpt lat="42.0064760" lon="-5.6821650">
        <ele>759.8</ele>
        <time>2021-10-12T14:14:19Z</time>
      </trkpt>
      <trkpt lat="42.0064640" lon="-5.6821580">
        <ele>760.0</ele>
        <time>2021-10-12T14:14:22Z</time>
      </trkpt>
      <trkpt lat="42.0064640" lon="-5.6821580">
        <ele>760.0</ele>
        <time>2021-10-12T14:14:23Z</time>
      </trkpt>
      <trkpt lat="42.0065100" lon="-5.6821230">
        <ele>760.4</ele>
        <time>2021-10-12T14:15:06Z</time>
      </trkpt>
      <trkpt lat="42.0065310" lon="-5.6820900">
        <ele>760.4</ele>
        <time>2021-10-12T14:15:07Z</time>
      </trkpt>
      <trkpt lat="42.0065480" lon="-5.6820150">
        <ele>760.4</ele>
        <time>2021-10-12T14:15:09Z</time>
      </trkpt>
      <trkpt lat="42.0065300" lon="-5.6818270">
        <ele>760.6</ele>
        <time>2021-10-12T14:15:15Z</time>
      </trkpt>
      <trkpt lat="42.0065250" lon="-5.6818010">
        <ele>760.6</ele>
        <time>2021-10-12T14:15:16Z</time>
      </trkpt>
      <trkpt lat="42.0065030" lon="-5.6816800">
        <ele>760.8</ele>
        <time>2021-10-12T14:15:20Z</time>
      </trkpt>
      <trkpt lat="42.0064740" lon="-5.6815720">
        <ele>761.6</ele>
        <time>2021-10-12T14:15:24Z</time>
      </trkpt>
      <trkpt lat="42.0064690" lon="-5.6815450">
        <ele>761.8</ele>
        <time>2021-10-12T14:15:25Z</time>
      </trkpt>
      <trkpt lat="42.0064510" lon="-5.6814400">
        <ele>762.6</ele>
        <time>2021-10-12T14:15:29Z</time>
      </trkpt>
      <trkpt lat="42.0064350" lon="-5.6813930">
        <ele>762.8</ele>
        <time>2021-10-12T14:15:31Z</time>
      </trkpt>
      <trkpt lat="42.0064340" lon="-5.6813680">
        <ele>763.0</ele>
        <time>2021-10-12T14:15:32Z</time>
      </trkpt>
      <trkpt lat="42.0064200" lon="-5.6812650">
        <ele>763.4</ele>
        <time>2021-10-12T14:15:36Z</time>
      </trkpt>
      <trkpt lat="42.0064090" lon="-5.6811970">
        <ele>764.0</ele>
        <time>2021-10-12T14:15:39Z</time>
      </trkpt>
      <trkpt lat="42.0063990" lon="-5.6811310">
        <ele>764.6</ele>
        <time>2021-10-12T14:15:42Z</time>
      </trkpt>
      <trkpt lat="42.0063910" lon="-5.6810900">
        <ele>765.2</ele>
        <time>2021-10-12T14:15:44Z</time>
      </trkpt>
      <trkpt lat="42.0063890" lon="-5.6810290">
        <ele>765.6</ele>
        <time>2021-10-12T14:15:47Z</time>
      </trkpt>
      <trkpt lat="42.0063870" lon="-5.6809760">
        <ele>765.8</ele>
        <time>2021-10-12T14:15:49Z</time>
      </trkpt>
      <trkpt lat="42.0063740" lon="-5.6809110">
        <ele>766.0</ele>
        <time>2021-10-12T14:15:51Z</time>
      </trkpt>
      <trkpt lat="42.0063650" lon="-5.6808820">
        <ele>766.2</ele>
        <time>2021-10-12T14:15:52Z</time>
      </trkpt>
      <trkpt lat="42.0063440" lon="-5.6807960">
        <ele>766.6</ele>
        <time>2021-10-12T14:15:55Z</time>
      </trkpt>
      <trkpt lat="42.0063230" lon="-5.6806840">
        <ele>767.0</ele>
        <time>2021-10-12T14:15:59Z</time>
      </trkpt>
      <trkpt lat="42.0063030" lon="-5.6806100">
        <ele>767.2</ele>
        <time>2021-10-12T14:16:02Z</time>
      </trkpt>
      <trkpt lat="42.0062910" lon="-5.6805620">
        <ele>767.4</ele>
        <time>2021-10-12T14:16:04Z</time>
      </trkpt>
      <trkpt lat="42.0062500" lon="-5.6804540">
        <ele>768.0</ele>
        <time>2021-10-12T14:16:09Z</time>
      </trkpt>
      <trkpt lat="42.0062460" lon="-5.6804310">
        <ele>768.4</ele>
        <time>2021-10-12T14:16:10Z</time>
      </trkpt>
      <trkpt lat="42.0062310" lon="-5.6803320">
        <ele>769.0</ele>
        <time>2021-10-12T14:16:14Z</time>
      </trkpt>
      <trkpt lat="42.0062340" lon="-5.6802570">
        <ele>769.4</ele>
        <time>2021-10-12T14:16:17Z</time>
      </trkpt>
      <trkpt lat="42.0062320" lon="-5.6802200">
        <ele>769.6</ele>
        <time>2021-10-12T14:16:19Z</time>
      </trkpt>
      <trkpt lat="42.0062330" lon="-5.6801760">
        <ele>770.0</ele>
        <time>2021-10-12T14:16:21Z</time>
      </trkpt>
      <trkpt lat="42.0062280" lon="-5.6801370">
        <ele>770.2</ele>
        <time>2021-10-12T14:16:23Z</time>
      </trkpt>
      <trkpt lat="42.0062190" lon="-5.6801000">
        <ele>770.6</ele>
        <time>2021-10-12T14:16:25Z</time>
      </trkpt>
      <trkpt lat="42.0062110" lon="-5.6800570">
        <ele>770.8</ele>
        <time>2021-10-12T14:16:27Z</time>
      </trkpt>
      <trkpt lat="42.0061960" lon="-5.6800140">
        <ele>771.2</ele>
        <time>2021-10-12T14:16:29Z</time>
      </trkpt>
      <trkpt lat="42.0061810" lon="-5.6799700">
        <ele>771.6</ele>
        <time>2021-10-12T14:16:31Z</time>
      </trkpt>
      <trkpt lat="42.0061750" lon="-5.6799290">
        <ele>771.8</ele>
        <time>2021-10-12T14:16:33Z</time>
      </trkpt>
      <trkpt lat="42.0061570" lon="-5.6798490">
        <ele>772.4</ele>
        <time>2021-10-12T14:16:37Z</time>
      </trkpt>
      <trkpt lat="42.0061380" lon="-5.6798100">
        <ele>772.6</ele>
        <time>2021-10-12T14:16:39Z</time>
      </trkpt>
      <trkpt lat="42.0061320" lon="-5.6797930">
        <ele>772.8</ele>
        <time>2021-10-12T14:16:40Z</time>
      </trkpt>
      <trkpt lat="42.0061060" lon="-5.6797120">
        <ele>773.4</ele>
        <time>2021-10-12T14:16:45Z</time>
      </trkpt>
      <trkpt lat="42.0060880" lon="-5.6796900">
        <ele>773.6</ele>
        <time>2021-10-12T14:16:47Z</time>
      </trkpt>
      <trkpt lat="42.0060770" lon="-5.6796740">
        <ele>773.6</ele>
        <time>2021-10-12T14:16:48Z</time>
      </trkpt>
      <trkpt lat="42.0060640" lon="-5.6796590">
        <ele>773.8</ele>
        <time>2021-10-12T14:16:49Z</time>
      </trkpt>
      <trkpt lat="42.0060010" lon="-5.6796110">
        <ele>774.2</ele>
        <time>2021-10-12T14:16:52Z</time>
      </trkpt>
      <trkpt lat="42.0059640" lon="-5.6795520">
        <ele>774.6</ele>
        <time>2021-10-12T14:16:55Z</time>
      </trkpt>
      <trkpt lat="42.0059440" lon="-5.6795090">
        <ele>774.6</ele>
        <time>2021-10-12T14:16:57Z</time>
      </trkpt>
      <trkpt lat="42.0059340" lon="-5.6794900">
        <ele>774.6</ele>
        <time>2021-10-12T14:16:58Z</time>
      </trkpt>
      <trkpt lat="42.0059240" lon="-5.6794600">
        <ele>774.6</ele>
        <time>2021-10-12T14:16:59Z</time>
      </trkpt>
      <trkpt lat="42.0059150" lon="-5.6794090">
        <ele>774.8</ele>
        <time>2021-10-12T14:17:01Z</time>
      </trkpt>
      <trkpt lat="42.0059090" lon="-5.6793360">
        <ele>774.8</ele>
        <time>2021-10-12T14:17:03Z</time>
      </trkpt>
      <trkpt lat="42.0058700" lon="-5.6791990">
        <ele>775.2</ele>
        <time>2021-10-12T14:17:08Z</time>
      </trkpt>
      <trkpt lat="42.0057810" lon="-5.6789800">
        <ele>775.6</ele>
        <time>2021-10-12T14:17:16Z</time>
      </trkpt>
      <trkpt lat="42.0057530" lon="-5.6789180">
        <ele>775.6</ele>
        <time>2021-10-12T14:17:18Z</time>
      </trkpt>
      <trkpt lat="42.0057270" lon="-5.6788620">
        <ele>775.6</ele>
        <time>2021-10-12T14:17:20Z</time>
      </trkpt>
      <trkpt lat="42.0056930" lon="-5.6788110">
        <ele>775.6</ele>
        <time>2021-10-12T14:17:22Z</time>
      </trkpt>
      <trkpt lat="42.0056540" lon="-5.6787220">
        <ele>775.6</ele>
        <time>2021-10-12T14:17:25Z</time>
      </trkpt>
      <trkpt lat="42.0056420" lon="-5.6786930">
        <ele>775.6</ele>
        <time>2021-10-12T14:17:26Z</time>
      </trkpt>
      <trkpt lat="42.0056310" lon="-5.6786640">
        <ele>775.6</ele>
        <time>2021-10-12T14:17:27Z</time>
      </trkpt>
      <trkpt lat="42.0056190" lon="-5.6786380">
        <ele>775.8</ele>
        <time>2021-10-12T14:17:28Z</time>
      </trkpt>
      <trkpt lat="42.0056030" lon="-5.6785800">
        <ele>775.8</ele>
        <time>2021-10-12T14:17:30Z</time>
      </trkpt>
      <trkpt lat="42.0055540" lon="-5.6784700">
        <ele>775.8</ele>
        <time>2021-10-12T14:17:34Z</time>
      </trkpt>
      <trkpt lat="42.0053790" lon="-5.6783830">
        <ele>776.0</ele>
        <time>2021-10-12T14:17:42Z</time>
      </trkpt>
      <trkpt lat="42.0053540" lon="-5.6783740">
        <ele>776.0</ele>
        <time>2021-10-12T14:17:44Z</time>
      </trkpt>
      <trkpt lat="42.0053180" lon="-5.6783510">
        <ele>776.0</ele>
        <time>2021-10-12T14:17:47Z</time>
      </trkpt>
      <trkpt lat="42.0052640" lon="-5.6782960">
        <ele>776.0</ele>
        <time>2021-10-12T14:17:50Z</time>
      </trkpt>
      <trkpt lat="42.0052060" lon="-5.6782490">
        <ele>776.0</ele>
        <time>2021-10-12T14:17:53Z</time>
      </trkpt>
      <trkpt lat="42.0051630" lon="-5.6781100">
        <ele>776.0</ele>
        <time>2021-10-12T14:17:58Z</time>
      </trkpt>
      <trkpt lat="42.0051490" lon="-5.6779710">
        <ele>776.0</ele>
        <time>2021-10-12T14:18:03Z</time>
      </trkpt>
      <trkpt lat="42.0051430" lon="-5.6779180">
        <ele>775.8</ele>
        <time>2021-10-12T14:18:05Z</time>
      </trkpt>
      <trkpt lat="42.0051380" lon="-5.6778460">
        <ele>775.8</ele>
        <time>2021-10-12T14:18:08Z</time>
      </trkpt>
      <trkpt lat="42.0051340" lon="-5.6778110">
        <ele>775.8</ele>
        <time>2021-10-12T14:18:10Z</time>
      </trkpt>
      <trkpt lat="42.0051160" lon="-5.6777420">
        <ele>775.8</ele>
        <time>2021-10-12T14:18:13Z</time>
      </trkpt>
      <trkpt lat="42.0051230" lon="-5.6777180">
        <ele>775.8</ele>
        <time>2021-10-12T14:18:14Z</time>
      </trkpt>
      <trkpt lat="42.0051350" lon="-5.6777010">
        <ele>776.0</ele>
        <time>2021-10-12T14:18:15Z</time>
      </trkpt>
      <trkpt lat="42.0051520" lon="-5.6776580">
        <ele>776.0</ele>
        <time>2021-10-12T14:18:18Z</time>
      </trkpt>
      <trkpt lat="42.0051730" lon="-5.6776120">
        <ele>776.0</ele>
        <time>2021-10-12T14:18:20Z</time>
      </trkpt>
      <trkpt lat="42.0052400" lon="-5.6775220">
        <ele>776.0</ele>
        <time>2021-10-12T14:18:23Z</time>
      </trkpt>
      <trkpt lat="42.0053700" lon="-5.6774260">
        <ele>775.6</ele>
        <time>2021-10-12T14:18:28Z</time>
      </trkpt>
      <trkpt lat="42.0055110" lon="-5.6773560">
        <ele>775.4</ele>
        <time>2021-10-12T14:18:34Z</time>
      </trkpt>
      <trkpt lat="42.0056480" lon="-5.6773020">
        <ele>775.6</ele>
        <time>2021-10-12T14:18:39Z</time>
      </trkpt>
      <trkpt lat="42.0057330" lon="-5.6772630">
        <ele>775.8</ele>
        <time>2021-10-12T14:18:42Z</time>
      </trkpt>
      <trkpt lat="42.0059700" lon="-5.6771760">
        <ele>776.2</ele>
        <time>2021-10-12T14:18:50Z</time>
      </trkpt>
      <trkpt lat="42.0062070" lon="-5.6770810">
        <ele>776.0</ele>
        <time>2021-10-12T14:18:58Z</time>
      </trkpt>
      <trkpt lat="42.0063610" lon="-5.6770010">
        <ele>775.8</ele>
        <time>2021-10-12T14:19:04Z</time>
      </trkpt>
      <trkpt lat="42.0064910" lon="-5.6769220">
        <ele>775.8</ele>
        <time>2021-10-12T14:19:09Z</time>
      </trkpt>
      <trkpt lat="42.0067140" lon="-5.6768040">
        <ele>775.4</ele>
        <time>2021-10-12T14:19:17Z</time>
      </trkpt>
      <trkpt lat="42.0069320" lon="-5.6767450">
        <ele>775.4</ele>
        <time>2021-10-12T14:19:24Z</time>
      </trkpt>
      <trkpt lat="42.0070780" lon="-5.6767110">
        <ele>775.4</ele>
        <time>2021-10-12T14:19:29Z</time>
      </trkpt>
      <trkpt lat="42.0071630" lon="-5.6766760">
        <ele>775.2</ele>
        <time>2021-10-12T14:19:32Z</time>
      </trkpt>
      <trkpt lat="42.0073870" lon="-5.6765830">
        <ele>775.2</ele>
        <time>2021-10-12T14:19:41Z</time>
      </trkpt>
      <trkpt lat="42.0074890" lon="-5.6765530">
        <ele>775.8</ele>
        <time>2021-10-12T14:19:47Z</time>
      </trkpt>
      <trkpt lat="42.0075210" lon="-5.6765600">
        <ele>775.8</ele>
        <time>2021-10-12T14:19:49Z</time>
      </trkpt>
      <trkpt lat="42.0075500" lon="-5.6766150">
        <ele>775.8</ele>
        <time>2021-10-12T14:19:51Z</time>
      </trkpt>
      <trkpt lat="42.0075880" lon="-5.6768040">
        <ele>775.6</ele>
        <time>2021-10-12T14:19:57Z</time>
      </trkpt>
      <trkpt lat="42.0075970" lon="-5.6768630">
        <ele>775.4</ele>
        <time>2021-10-12T14:20:00Z</time>
      </trkpt>
      <trkpt lat="42.0076010" lon="-5.6768800">
        <ele>775.4</ele>
        <time>2021-10-12T14:20:03Z</time>
      </trkpt>
      <trkpt lat="42.0076010" lon="-5.6768800">
        <ele>775.2</ele>
        <time>2021-10-12T14:20:04Z</time>
      </trkpt>
      <trkpt lat="42.0076540" lon="-5.6770540">
        <ele>753.4</ele>
        <time>2021-10-13T07:18:34Z</time>
      </trkpt>
      <trkpt lat="42.0076500" lon="-5.6770480">
        <ele>742.6</ele>
        <time>2021-10-13T07:18:35Z</time>
      </trkpt>
      <trkpt lat="42.0076450" lon="-5.6770010">
        <ele>742.0</ele>
        <time>2021-10-13T07:19:56Z</time>
      </trkpt>
      <trkpt lat="42.0076360" lon="-5.6769630">
        <ele>742.0</ele>
        <time>2021-10-13T07:19:57Z</time>
      </trkpt>
      <trkpt lat="42.0076270" lon="-5.6769290">
        <ele>742.0</ele>
        <time>2021-10-13T07:19:58Z</time>
      </trkpt>
      <trkpt lat="42.0075860" lon="-5.6767130">
        <ele>742.2</ele>
        <time>2021-10-13T07:20:03Z</time>
      </trkpt>
      <trkpt lat="42.0075120" lon="-5.6767030">
        <ele>742.4</ele>
        <time>2021-10-13T07:20:07Z</time>
      </trkpt>
      <trkpt lat="42.0074940" lon="-5.6766980">
        <ele>742.4</ele>
        <time>2021-10-13T07:20:08Z</time>
      </trkpt>
      <trkpt lat="42.0074040" lon="-5.6767080">
        <ele>742.4</ele>
        <time>2021-10-13T07:20:11Z</time>
      </trkpt>
      <trkpt lat="42.0073440" lon="-5.6767210">
        <ele>742.6</ele>
        <time>2021-10-13T07:20:13Z</time>
      </trkpt>
      <trkpt lat="42.0071530" lon="-5.6767810">
        <ele>742.6</ele>
        <time>2021-10-13T07:20:19Z</time>
      </trkpt>
      <trkpt lat="42.0069900" lon="-5.6768340">
        <ele>742.8</ele>
        <time>2021-10-13T07:20:24Z</time>
      </trkpt>
      <trkpt lat="42.0069550" lon="-5.6768580">
        <ele>742.8</ele>
        <time>2021-10-13T07:20:25Z</time>
      </trkpt>
      <trkpt lat="42.0068900" lon="-5.6769170">
        <ele>742.8</ele>
        <time>2021-10-13T07:20:27Z</time>
      </trkpt>
      <trkpt lat="42.0068210" lon="-5.6769440">
        <ele>742.8</ele>
        <time>2021-10-13T07:20:29Z</time>
      </trkpt>
      <trkpt lat="42.0067060" lon="-5.6769830">
        <ele>742.8</ele>
        <time>2021-10-13T07:20:32Z</time>
      </trkpt>
      <trkpt lat="42.0066710" lon="-5.6769950">
        <ele>742.8</ele>
        <time>2021-10-13T07:20:33Z</time>
      </trkpt>
      <trkpt lat="42.0065800" lon="-5.6770300">
        <ele>743.0</ele>
        <time>2021-10-13T07:20:36Z</time>
      </trkpt>
      <trkpt lat="42.0064210" lon="-5.6770990">
        <ele>743.2</ele>
        <time>2021-10-13T07:20:41Z</time>
      </trkpt>
      <trkpt lat="42.0062570" lon="-5.6771740">
        <ele>743.4</ele>
        <time>2021-10-13T07:20:46Z</time>
      </trkpt>
      <trkpt lat="42.0062260" lon="-5.6771900">
        <ele>743.6</ele>
        <time>2021-10-13T07:20:47Z</time>
      </trkpt>
      <trkpt lat="42.0061730" lon="-5.6772150">
        <ele>743.6</ele>
        <time>2021-10-13T07:20:49Z</time>
      </trkpt>
      <trkpt lat="42.0060010" lon="-5.6772540">
        <ele>743.6</ele>
        <time>2021-10-13T07:20:54Z</time>
      </trkpt>
      <trkpt lat="42.0059210" lon="-5.6772590">
        <ele>743.8</ele>
        <time>2021-10-13T07:20:56Z</time>
      </trkpt>
      <trkpt lat="42.0058360" lon="-5.6772810">
        <ele>744.0</ele>
        <time>2021-10-13T07:20:58Z</time>
      </trkpt>
      <trkpt lat="42.0056770" lon="-5.6773170">
        <ele>744.0</ele>
        <time>2021-10-13T07:21:03Z</time>
      </trkpt>
      <trkpt lat="42.0056380" lon="-5.6773250">
        <ele>744.0</ele>
        <time>2021-10-13T07:21:04Z</time>
      </trkpt>
      <trkpt lat="42.0054510" lon="-5.6773940">
        <ele>744.0</ele>
        <time>2021-10-13T07:21:10Z</time>
      </trkpt>
      <trkpt lat="42.0053460" lon="-5.6774790">
        <ele>743.8</ele>
        <time>2021-10-13T07:21:14Z</time>
      </trkpt>
      <trkpt lat="42.0052920" lon="-5.6775250">
        <ele>743.8</ele>
        <time>2021-10-13T07:21:16Z</time>
      </trkpt>
      <trkpt lat="42.0052100" lon="-5.6776330">
        <ele>743.6</ele>
        <time>2021-10-13T07:21:20Z</time>
      </trkpt>
      <trkpt lat="42.0051870" lon="-5.6776610">
        <ele>743.6</ele>
        <time>2021-10-13T07:21:21Z</time>
      </trkpt>
      <trkpt lat="42.0051400" lon="-5.6776960">
        <ele>743.4</ele>
        <time>2021-10-13T07:21:23Z</time>
      </trkpt>
      <trkpt lat="42.0051170" lon="-5.6777130">
        <ele>743.4</ele>
        <time>2021-10-13T07:21:25Z</time>
      </trkpt>
      <trkpt lat="42.0049660" lon="-5.6777580">
        <ele>743.4</ele>
        <time>2021-10-13T07:21:29Z</time>
      </trkpt>
      <trkpt lat="42.0048590" lon="-5.6778210">
        <ele>743.8</ele>
        <time>2021-10-13T07:21:32Z</time>
      </trkpt>
      <trkpt lat="42.0048310" lon="-5.6779080">
        <ele>743.8</ele>
        <time>2021-10-13T07:21:34Z</time>
      </trkpt>
      <trkpt lat="42.0047540" lon="-5.6780140">
        <ele>744.0</ele>
        <time>2021-10-13T07:21:38Z</time>
      </trkpt>
      <trkpt lat="42.0046660" lon="-5.6780150">
        <ele>744.2</ele>
        <time>2021-10-13T07:21:40Z</time>
      </trkpt>
      <trkpt lat="42.0044550" lon="-5.6780840">
        <ele>744.2</ele>
        <time>2021-10-13T07:21:46Z</time>
      </trkpt>
      <trkpt lat="42.0044270" lon="-5.6780950">
        <ele>744.2</ele>
        <time>2021-10-13T07:21:47Z</time>
      </trkpt>
      <trkpt lat="42.0043070" lon="-5.6781520">
        <ele>744.2</ele>
        <time>2021-10-13T07:21:51Z</time>
      </trkpt>
      <trkpt lat="42.0041380" lon="-5.6782330">
        <ele>744.6</ele>
        <time>2021-10-13T07:21:57Z</time>
      </trkpt>
      <trkpt lat="42.0040640" lon="-5.6782480">
        <ele>744.8</ele>
        <time>2021-10-13T07:22:01Z</time>
      </trkpt>
      <trkpt lat="42.0040570" lon="-5.6782490">
        <ele>744.8</ele>
        <time>2021-10-13T07:22:03Z</time>
      </trkpt>
      <trkpt lat="42.0040560" lon="-5.6782490">
        <ele>744.8</ele>
        <time>2021-10-13T07:22:04Z</time>
      </trkpt>
      <trkpt lat="42.0039770" lon="-5.6782740">
        <ele>745.0</ele>
        <time>2021-10-13T07:22:08Z</time>
      </trkpt>
      <trkpt lat="42.0038280" lon="-5.6783750">
        <ele>744.8</ele>
        <time>2021-10-13T07:22:15Z</time>
      </trkpt>
      <trkpt lat="42.0038150" lon="-5.6783970">
        <ele>744.6</ele>
        <time>2021-10-13T07:22:17Z</time>
      </trkpt>
      <trkpt lat="42.0038080" lon="-5.6784050">
        <ele>744.6</ele>
        <time>2021-10-13T07:22:18Z</time>
      </trkpt>
      <trkpt lat="42.0037950" lon="-5.6784120">
        <ele>744.6</ele>
        <time>2021-10-13T07:22:19Z</time>
      </trkpt>
      <trkpt lat="42.0037810" lon="-5.6784190">
        <ele>744.6</ele>
        <time>2021-10-13T07:22:20Z</time>
      </trkpt>
      <trkpt lat="42.0037240" lon="-5.6784160">
        <ele>744.4</ele>
        <time>2021-10-13T07:22:23Z</time>
      </trkpt>
      <trkpt lat="42.0036310" lon="-5.6784260">
        <ele>744.2</ele>
        <time>2021-10-13T07:22:26Z</time>
      </trkpt>
      <trkpt lat="42.0035280" lon="-5.6785150">
        <ele>744.0</ele>
        <time>2021-10-13T07:22:29Z</time>
      </trkpt>
      <trkpt lat="42.0034980" lon="-5.6785710">
        <ele>744.0</ele>
        <time>2021-10-13T07:22:30Z</time>
      </trkpt>
      <trkpt lat="42.0034990" lon="-5.6785880">
        <ele>744.0</ele>
        <time>2021-10-13T07:22:31Z</time>
      </trkpt>
      <trkpt lat="42.0034950" lon="-5.6785750">
        <ele>743.8</ele>
        <time>2021-10-13T07:22:32Z</time>
      </trkpt>
      <trkpt lat="42.0034900" lon="-5.6785400">
        <ele>743.8</ele>
        <time>2021-10-13T07:22:33Z</time>
      </trkpt>
      <trkpt lat="42.0034780" lon="-5.6784750">
        <ele>743.6</ele>
        <time>2021-10-13T07:22:35Z</time>
      </trkpt>
      <trkpt lat="42.0034340" lon="-5.6783480">
        <ele>743.4</ele>
        <time>2021-10-13T07:22:38Z</time>
      </trkpt>
      <trkpt lat="42.0034160" lon="-5.6783330">
        <ele>743.4</ele>
        <time>2021-10-13T07:22:39Z</time>
      </trkpt>
      <trkpt lat="42.0033490" lon="-5.6782600">
        <ele>743.0</ele>
        <time>2021-10-13T07:22:43Z</time>
      </trkpt>
      <trkpt lat="42.0033380" lon="-5.6782400">
        <ele>743.0</ele>
        <time>2021-10-13T07:22:44Z</time>
      </trkpt>
      <trkpt lat="42.0033120" lon="-5.6781780">
        <ele>742.8</ele>
        <time>2021-10-13T07:22:46Z</time>
      </trkpt>
      <trkpt lat="42.0032980" lon="-5.6781530">
        <ele>742.8</ele>
        <time>2021-10-13T07:22:47Z</time>
      </trkpt>
      <trkpt lat="42.0032740" lon="-5.6781160">
        <ele>742.6</ele>
        <time>2021-10-13T07:22:49Z</time>
      </trkpt>
      <trkpt lat="42.0032570" lon="-5.6779170">
        <ele>741.4</ele>
        <time>2021-10-13T07:22:54Z</time>
      </trkpt>
      <trkpt lat="42.0032500" lon="-5.6778620">
        <ele>741.2</ele>
        <time>2021-10-13T07:22:56Z</time>
      </trkpt>
      <trkpt lat="42.0032540" lon="-5.6778390">
        <ele>741.0</ele>
        <time>2021-10-13T07:22:57Z</time>
      </trkpt>
      <trkpt lat="42.0032580" lon="-5.6778360">
        <ele>740.8</ele>
        <time>2021-10-13T07:22:58Z</time>
      </trkpt>
      <trkpt lat="42.0032640" lon="-5.6778300">
        <ele>740.6</ele>
        <time>2021-10-13T07:23:00Z</time>
      </trkpt>
      <trkpt lat="42.0032590" lon="-5.6778550">
        <ele>740.4</ele>
        <time>2021-10-13T07:23:03Z</time>
      </trkpt>
      <trkpt lat="42.0032760" lon="-5.6779790">
        <ele>738.2</ele>
        <time>2021-10-13T07:45:08Z</time>
      </trkpt>
      <trkpt lat="42.0032700" lon="-5.6780090">
        <ele>738.2</ele>
        <time>2021-10-13T07:45:10Z</time>
      </trkpt>
      <trkpt lat="42.0032600" lon="-5.6780430">
        <ele>738.2</ele>
        <time>2021-10-13T07:45:12Z</time>
      </trkpt>
      <trkpt lat="42.0032560" lon="-5.6780690">
        <ele>738.2</ele>
        <time>2021-10-13T07:45:13Z</time>
      </trkpt>
      <trkpt lat="42.0032650" lon="-5.6781740">
        <ele>738.4</ele>
        <time>2021-10-13T07:45:17Z</time>
      </trkpt>
      <trkpt lat="42.0032670" lon="-5.6781930">
        <ele>738.6</ele>
        <time>2021-10-13T07:45:18Z</time>
      </trkpt>
      <trkpt lat="42.0032990" lon="-5.6782750">
        <ele>739.0</ele>
        <time>2021-10-13T07:45:21Z</time>
      </trkpt>
      <trkpt lat="42.0033270" lon="-5.6783020">
        <ele>739.2</ele>
        <time>2021-10-13T07:45:22Z</time>
      </trkpt>
      <trkpt lat="42.0033500" lon="-5.6783360">
        <ele>739.4</ele>
        <time>2021-10-13T07:45:23Z</time>
      </trkpt>
      <trkpt lat="42.0034080" lon="-5.6784260">
        <ele>740.0</ele>
        <time>2021-10-13T07:45:26Z</time>
      </trkpt>
      <trkpt lat="42.0034240" lon="-5.6784530">
        <ele>740.2</ele>
        <time>2021-10-13T07:45:28Z</time>
      </trkpt>
      <trkpt lat="42.0034280" lon="-5.6784670">
        <ele>740.4</ele>
        <time>2021-10-13T07:45:29Z</time>
      </trkpt>
      <trkpt lat="42.0034340" lon="-5.6784770">
        <ele>740.4</ele>
        <time>2021-10-13T07:45:30Z</time>
      </trkpt>
      <trkpt lat="42.0034560" lon="-5.6785170">
        <ele>740.4</ele>
        <time>2021-10-13T07:45:32Z</time>
      </trkpt>
      <trkpt lat="42.0034470" lon="-5.6785330">
        <ele>740.8</ele>
        <time>2021-10-13T07:45:33Z</time>
      </trkpt>
      <trkpt lat="42.0034340" lon="-5.6785470">
        <ele>740.6</ele>
        <time>2021-10-13T07:45:34Z</time>
      </trkpt>
      <trkpt lat="42.0034110" lon="-5.6786240">
        <ele>740.8</ele>
        <time>2021-10-13T07:45:38Z</time>
      </trkpt>
      <trkpt lat="42.0034130" lon="-5.6786420">
        <ele>741.0</ele>
        <time>2021-10-13T07:45:40Z</time>
      </trkpt>
      <trkpt lat="42.0033840" lon="-5.6786590">
        <ele>741.2</ele>
        <time>2021-10-13T07:45:43Z</time>
      </trkpt>
      <trkpt lat="42.0033560" lon="-5.6786720">
        <ele>741.2</ele>
        <time>2021-10-13T07:45:45Z</time>
      </trkpt>
      <trkpt lat="42.0033480" lon="-5.6786840">
        <ele>741.2</ele>
        <time>2021-10-13T07:45:46Z</time>
      </trkpt>
      <trkpt lat="42.0032580" lon="-5.6787490">
        <ele>741.2</ele>
        <time>2021-10-13T07:45:51Z</time>
      </trkpt>
      <trkpt lat="42.0032330" lon="-5.6787590">
        <ele>741.2</ele>
        <time>2021-10-13T07:45:53Z</time>
      </trkpt>
      <trkpt lat="42.0031790" lon="-5.6788250">
        <ele>741.2</ele>
        <time>2021-10-13T07:45:58Z</time>
      </trkpt>
      <trkpt lat="42.0031480" lon="-5.6788500">
        <ele>741.4</ele>
        <time>2021-10-13T07:46:00Z</time>
      </trkpt>
      <trkpt lat="42.0031250" lon="-5.6788370">
        <ele>741.4</ele>
        <time>2021-10-13T07:46:01Z</time>
      </trkpt>
      <trkpt lat="42.0030780" lon="-5.6788330">
        <ele>741.4</ele>
        <time>2021-10-13T07:46:03Z</time>
      </trkpt>
      <trkpt lat="42.0030300" lon="-5.6788720">
        <ele>741.4</ele>
        <time>2021-10-13T07:46:05Z</time>
      </trkpt>
      <trkpt lat="42.0030080" lon="-5.6788840">
        <ele>741.6</ele>
        <time>2021-10-13T07:46:06Z</time>
      </trkpt>
      <trkpt lat="42.0029310" lon="-5.6789390">
        <ele>741.6</ele>
        <time>2021-10-13T07:46:09Z</time>
      </trkpt>
      <trkpt lat="42.0029040" lon="-5.6789480">
        <ele>741.6</ele>
        <time>2021-10-13T07:46:10Z</time>
      </trkpt>
      <trkpt lat="42.0028750" lon="-5.6789730">
        <ele>741.8</ele>
        <time>2021-10-13T07:46:12Z</time>
      </trkpt>
      <trkpt lat="42.0028640" lon="-5.6789800">
        <ele>741.8</ele>
        <time>2021-10-13T07:46:13Z</time>
      </trkpt>
      <trkpt lat="42.0027630" lon="-5.6790050">
        <ele>742.0</ele>
        <time>2021-10-13T07:46:17Z</time>
      </trkpt>
      <trkpt lat="42.0027240" lon="-5.6790650">
        <ele>742.2</ele>
        <time>2021-10-13T07:46:19Z</time>
      </trkpt>
      <trkpt lat="42.0027180" lon="-5.6791080">
        <ele>742.2</ele>
        <time>2021-10-13T07:46:20Z</time>
      </trkpt>
      <trkpt lat="42.0026730" lon="-5.6791730">
        <ele>742.2</ele>
        <time>2021-10-13T07:46:23Z</time>
      </trkpt>
      <trkpt lat="42.0026630" lon="-5.6791810">
        <ele>742.2</ele>
        <time>2021-10-13T07:46:24Z</time>
      </trkpt>
      <trkpt lat="42.0026260" lon="-5.6792100">
        <ele>742.2</ele>
        <time>2021-10-13T07:46:28Z</time>
      </trkpt>
      <trkpt lat="42.0025960" lon="-5.6792130">
        <ele>742.2</ele>
        <time>2021-10-13T07:46:29Z</time>
      </trkpt>
      <trkpt lat="42.0025630" lon="-5.6792460">
        <ele>742.2</ele>
        <time>2021-10-13T07:46:32Z</time>
      </trkpt>
      <trkpt lat="42.0025120" lon="-5.6792740">
        <ele>742.2</ele>
        <time>2021-10-13T07:46:34Z</time>
      </trkpt>
      <trkpt lat="42.0023690" lon="-5.6794280">
        <ele>742.2</ele>
        <time>2021-10-13T07:46:40Z</time>
      </trkpt>
      <trkpt lat="42.0022880" lon="-5.6795480">
        <ele>742.0</ele>
        <time>2021-10-13T07:46:44Z</time>
      </trkpt>
      <trkpt lat="42.0022190" lon="-5.6796630">
        <ele>742.0</ele>
        <time>2021-10-13T07:46:47Z</time>
      </trkpt>
      <trkpt lat="42.0021010" lon="-5.6798380">
        <ele>741.4</ele>
        <time>2021-10-13T07:46:52Z</time>
      </trkpt>
      <trkpt lat="42.0020840" lon="-5.6798650">
        <ele>741.2</ele>
        <time>2021-10-13T07:46:53Z</time>
      </trkpt>
      <trkpt lat="42.0020310" lon="-5.6799440">
        <ele>740.8</ele>
        <time>2021-10-13T07:46:57Z</time>
      </trkpt>
      <trkpt lat="42.0020250" lon="-5.6799440">
        <ele>740.8</ele>
        <time>2021-10-13T07:46:58Z</time>
      </trkpt>
      <trkpt lat="42.0020020" lon="-5.6799650">
        <ele>740.6</ele>
        <time>2021-10-13T07:47:01Z</time>
      </trkpt>
      <trkpt lat="42.0019970" lon="-5.6799640">
        <ele>740.4</ele>
        <time>2021-10-13T07:47:03Z</time>
      </trkpt>
      <trkpt lat="42.0019880" lon="-5.6799280">
        <ele>745.0</ele>
        <time>2021-10-13T07:49:44Z</time>
      </trkpt>
      <trkpt lat="42.0019700" lon="-5.6799400">
        <ele>739.8</ele>
        <time>2021-10-13T07:49:45Z</time>
      </trkpt>
      <trkpt lat="42.0018820" lon="-5.6799960">
        <ele>739.2</ele>
        <time>2021-10-13T07:49:49Z</time>
      </trkpt>
      <trkpt lat="42.0018310" lon="-5.6800180">
        <ele>739.4</ele>
        <time>2021-10-13T07:49:51Z</time>
      </trkpt>
      <trkpt lat="42.0016990" lon="-5.6800630">
        <ele>738.8</ele>
        <time>2021-10-13T07:49:56Z</time>
      </trkpt>
      <trkpt lat="42.0016670" lon="-5.6802410">
        <ele>738.6</ele>
        <time>2021-10-13T07:50:01Z</time>
      </trkpt>
      <trkpt lat="42.0016620" lon="-5.6802600">
        <ele>738.6</ele>
        <time>2021-10-13T07:50:02Z</time>
      </trkpt>
      <trkpt lat="42.0016790" lon="-5.6802970">
        <ele>738.4</ele>
        <time>2021-10-13T07:50:05Z</time>
      </trkpt>
      <trkpt lat="42.0016550" lon="-5.6803800">
        <ele>738.4</ele>
        <time>2021-10-13T07:50:18Z</time>
      </trkpt>
      <trkpt lat="42.0016270" lon="-5.6804260">
        <ele>738.4</ele>
        <time>2021-10-13T07:50:20Z</time>
      </trkpt>
      <trkpt lat="42.0015610" lon="-5.6805560">
        <ele>738.2</ele>
        <time>2021-10-13T07:50:24Z</time>
      </trkpt>
      <trkpt lat="42.0014050" lon="-5.6806570">
        <ele>738.0</ele>
        <time>2021-10-13T07:50:28Z</time>
      </trkpt>
      <trkpt lat="42.0012990" lon="-5.6808070">
        <ele>737.6</ele>
        <time>2021-10-13T07:50:33Z</time>
      </trkpt>
      <trkpt lat="42.0012280" lon="-5.6809550">
        <ele>737.0</ele>
        <time>2021-10-13T07:50:39Z</time>
      </trkpt>
      <trkpt lat="42.0012200" lon="-5.6809760">
        <ele>737.0</ele>
        <time>2021-10-13T07:50:40Z</time>
      </trkpt>
      <trkpt lat="42.0012040" lon="-5.6810110">
        <ele>737.0</ele>
        <time>2021-10-13T07:50:42Z</time>
      </trkpt>
      <trkpt lat="42.0011920" lon="-5.6810390">
        <ele>736.8</ele>
        <time>2021-10-13T07:50:44Z</time>
      </trkpt>
      <trkpt lat="42.0011970" lon="-5.6810540">
        <ele>736.8</ele>
        <time>2021-10-13T07:50:46Z</time>
      </trkpt>
      <trkpt lat="42.0011750" lon="-5.6810540">
        <ele>736.6</ele>
        <time>2021-10-13T07:50:48Z</time>
      </trkpt>
      <trkpt lat="42.0011670" lon="-5.6810650">
        <ele>736.6</ele>
        <time>2021-10-13T07:50:49Z</time>
      </trkpt>
      <trkpt lat="42.0011420" lon="-5.6810830">
        <ele>736.6</ele>
        <time>2021-10-13T07:50:51Z</time>
      </trkpt>
      <trkpt lat="42.0011310" lon="-5.6811050">
        <ele>736.6</ele>
        <time>2021-10-13T07:50:52Z</time>
      </trkpt>
      <trkpt lat="42.0011310" lon="-5.6811620">
        <ele>736.4</ele>
        <time>2021-10-13T07:50:54Z</time>
      </trkpt>
      <trkpt lat="42.0011350" lon="-5.6812540">
        <ele>736.2</ele>
        <time>2021-10-13T07:50:58Z</time>
      </trkpt>
      <trkpt lat="42.0011320" lon="-5.6812790">
        <ele>736.6</ele>
        <time>2021-10-13T07:51:00Z</time>
      </trkpt>
      <trkpt lat="42.0011350" lon="-5.6812860">
        <ele>736.6</ele>
        <time>2021-10-13T07:51:02Z</time>
      </trkpt>
      <trkpt lat="42.0011470" lon="-5.6814520">
        <ele>736.8</ele>
        <time>2021-10-13T07:51:09Z</time>
      </trkpt>
      <trkpt lat="42.0011440" lon="-5.6814740">
        <ele>736.8</ele>
        <time>2021-10-13T07:51:10Z</time>
      </trkpt>
      <trkpt lat="42.0011700" lon="-5.6815820">
        <ele>736.8</ele>
        <time>2021-10-13T07:51:14Z</time>
      </trkpt>
      <trkpt lat="42.0011740" lon="-5.6816170">
        <ele>737.0</ele>
        <time>2021-10-13T07:51:15Z</time>
      </trkpt>
      <trkpt lat="42.0011520" lon="-5.6817270">
        <ele>737.2</ele>
        <time>2021-10-13T07:51:18Z</time>
      </trkpt>
      <trkpt lat="42.0011500" lon="-5.6817630">
        <ele>737.4</ele>
        <time>2021-10-13T07:51:19Z</time>
      </trkpt>
      <trkpt lat="42.0011570" lon="-5.6817780">
        <ele>737.8</ele>
        <time>2021-10-13T07:51:22Z</time>
      </trkpt>
      <trkpt lat="42.0011700" lon="-5.6817760">
        <ele>738.2</ele>
        <time>2021-10-13T07:51:25Z</time>
      </trkpt>
      <trkpt lat="42.0011130" lon="-5.6817120">
        <ele>738.6</ele>
        <time>2021-10-13T07:51:41Z</time>
      </trkpt>
      <trkpt lat="42.0011060" lon="-5.6816890">
        <ele>738.6</ele>
        <time>2021-10-13T07:51:42Z</time>
      </trkpt>
      <trkpt lat="42.0010880" lon="-5.6816070">
        <ele>738.4</ele>
        <time>2021-10-13T07:51:45Z</time>
      </trkpt>
      <trkpt lat="42.0010900" lon="-5.6815820">
        <ele>738.2</ele>
        <time>2021-10-13T07:51:46Z</time>
      </trkpt>
      <trkpt lat="42.0011210" lon="-5.6815270">
        <ele>738.0</ele>
        <time>2021-10-13T07:51:48Z</time>
      </trkpt>
      <trkpt lat="42.0011450" lon="-5.6815450">
        <ele>737.6</ele>
        <time>2021-10-13T07:51:51Z</time>
      </trkpt>
      <trkpt lat="42.0011480" lon="-5.6815730">
        <ele>737.4</ele>
        <time>2021-10-13T07:51:52Z</time>
      </trkpt>
      <trkpt lat="42.0011760" lon="-5.6817080">
        <ele>736.6</ele>
        <time>2021-10-13T07:51:56Z</time>
      </trkpt>
      <trkpt lat="42.0011990" lon="-5.6817430">
        <ele>736.4</ele>
        <time>2021-10-13T07:51:57Z</time>
      </trkpt>
      <trkpt lat="42.0012540" lon="-5.6818660">
        <ele>735.8</ele>
        <time>2021-10-13T07:52:00Z</time>
      </trkpt>
      <trkpt lat="42.0012700" lon="-5.6819090">
        <ele>735.6</ele>
        <time>2021-10-13T07:52:01Z</time>
      </trkpt>
      <trkpt lat="42.0012810" lon="-5.6820450">
        <ele>734.6</ele>
        <time>2021-10-13T07:52:04Z</time>
      </trkpt>
      <trkpt lat="42.0012720" lon="-5.6821010">
        <ele>734.4</ele>
        <time>2021-10-13T07:52:05Z</time>
      </trkpt>
      <trkpt lat="42.0012280" lon="-5.6822110">
        <ele>733.6</ele>
        <time>2021-10-13T07:52:07Z</time>
      </trkpt>
      <trkpt lat="42.0011930" lon="-5.6822720">
        <ele>733.4</ele>
        <time>2021-10-13T07:52:08Z</time>
      </trkpt>
      <trkpt lat="42.0011540" lon="-5.6823310">
        <ele>732.8</ele>
        <time>2021-10-13T07:52:09Z</time>
      </trkpt>
      <trkpt lat="42.0010640" lon="-5.6824540">
        <ele>732.0</ele>
        <time>2021-10-13T07:52:11Z</time>
      </trkpt>
      <trkpt lat="42.0009710" lon="-5.6825700">
        <ele>731.0</ele>
        <time>2021-10-13T07:52:13Z</time>
      </trkpt>
      <trkpt lat="42.0009200" lon="-5.6826210">
        <ele>730.4</ele>
        <time>2021-10-13T07:52:14Z</time>
      </trkpt>
      <trkpt lat="42.0008620" lon="-5.6826620">
        <ele>729.6</ele>
        <time>2021-10-13T07:52:15Z</time>
      </trkpt>
      <trkpt lat="42.0007950" lon="-5.6826860">
        <ele>729.4</ele>
        <time>2021-10-13T07:52:16Z</time>
      </trkpt>
      <trkpt lat="42.0007240" lon="-5.6826980">
        <ele>728.6</ele>
        <time>2021-10-13T07:52:17Z</time>
      </trkpt>
      <trkpt lat="42.0006490" lon="-5.6826940">
        <ele>728.2</ele>
        <time>2021-10-13T07:52:18Z</time>
      </trkpt>
      <trkpt lat="42.0004930" lon="-5.6826530">
        <ele>727.0</ele>
        <time>2021-10-13T07:52:20Z</time>
      </trkpt>
      <trkpt lat="42.0003350" lon="-5.6826070">
        <ele>725.6</ele>
        <time>2021-10-13T07:52:22Z</time>
      </trkpt>
      <trkpt lat="42.0002580" lon="-5.6825860">
        <ele>724.4</ele>
        <time>2021-10-13T07:52:23Z</time>
      </trkpt>
      <trkpt lat="42.0001130" lon="-5.6825340">
        <ele>722.4</ele>
        <time>2021-10-13T07:52:25Z</time>
      </trkpt>
      <trkpt lat="42.0000450" lon="-5.6825030">
        <ele>720.8</ele>
        <time>2021-10-13T07:52:26Z</time>
      </trkpt>
      <trkpt lat="41.9999170" lon="-5.6824480">
        <ele>718.8</ele>
        <time>2021-10-13T07:52:28Z</time>
      </trkpt>
      <trkpt lat="41.9998600" lon="-5.6824240">
        <ele>717.8</ele>
        <time>2021-10-13T07:52:29Z</time>
      </trkpt>
      <trkpt lat="41.9998070" lon="-5.6824050">
        <ele>716.6</ele>
        <time>2021-10-13T07:52:30Z</time>
      </trkpt>
      <trkpt lat="41.9997290" lon="-5.6823800">
        <ele>714.8</ele>
        <time>2021-10-13T07:52:32Z</time>
      </trkpt>
      <trkpt lat="41.9997090" lon="-5.6823930">
        <ele>714.0</ele>
        <time>2021-10-13T07:52:33Z</time>
      </trkpt>
      <trkpt lat="41.9997040" lon="-5.6824270">
        <ele>712.6</ele>
        <time>2021-10-13T07:52:34Z</time>
      </trkpt>
      <trkpt lat="41.9997340" lon="-5.6825030">
        <ele>710.8</ele>
        <time>2021-10-13T07:52:36Z</time>
      </trkpt>
      <trkpt lat="41.9998160" lon="-5.6825940">
        <ele>709.4</ele>
        <time>2021-10-13T07:52:39Z</time>
      </trkpt>
      <trkpt lat="41.9999120" lon="-5.6827010">
        <ele>709.2</ele>
        <time>2021-10-13T07:52:42Z</time>
      </trkpt>
      <trkpt lat="42.0001880" lon="-5.6830190">
        <ele>708.8</ele>
        <time>2021-10-13T07:52:50Z</time>
      </trkpt>
      <trkpt lat="42.0002240" lon="-5.6830640">
        <ele>708.8</ele>
        <time>2021-10-13T07:52:51Z</time>
      </trkpt>
      <trkpt lat="42.0004160" lon="-5.6832910">
        <ele>708.8</ele>
        <time>2021-10-13T07:52:56Z</time>
      </trkpt>
      <trkpt lat="42.0005320" lon="-5.6834010">
        <ele>708.6</ele>
        <time>2021-10-13T07:52:59Z</time>
      </trkpt>
      <trkpt lat="42.0007050" lon="-5.6835140">
        <ele>708.4</ele>
        <time>2021-10-13T07:53:03Z</time>
      </trkpt>
      <trkpt lat="42.0008760" lon="-5.6836390">
        <ele>708.2</ele>
        <time>2021-10-13T07:53:07Z</time>
      </trkpt>
      <trkpt lat="42.0009160" lon="-5.6836630">
        <ele>708.2</ele>
        <time>2021-10-13T07:53:08Z</time>
      </trkpt>
      <trkpt lat="42.0010400" lon="-5.6837410">
        <ele>707.8</ele>
        <time>2021-10-13T07:53:12Z</time>
      </trkpt>
      <trkpt lat="42.0010820" lon="-5.6837750">
        <ele>707.4</ele>
        <time>2021-10-13T07:53:14Z</time>
      </trkpt>
      <trkpt lat="42.0011120" lon="-5.6837990">
        <ele>707.4</ele>
        <time>2021-10-13T07:53:16Z</time>
      </trkpt>
      <trkpt lat="42.0011330" lon="-5.6838240">
        <ele>707.0</ele>
        <time>2021-10-13T07:53:20Z</time>
      </trkpt>
      <trkpt lat="42.0011570" lon="-5.6839010">
        <ele>706.8</ele>
        <time>2021-10-13T07:53:23Z</time>
      </trkpt>
      <trkpt lat="42.0011480" lon="-5.6839390">
        <ele>706.8</ele>
        <time>2021-10-13T07:53:24Z</time>
      </trkpt>
      <trkpt lat="42.0010860" lon="-5.6840210">
        <ele>706.6</ele>
        <time>2021-10-13T07:53:27Z</time>
      </trkpt>
      <trkpt lat="42.0010620" lon="-5.6840380">
        <ele>706.4</ele>
        <time>2021-10-13T07:53:28Z</time>
      </trkpt>
      <trkpt lat="42.0010120" lon="-5.6840400">
        <ele>706.4</ele>
        <time>2021-10-13T07:53:30Z</time>
      </trkpt>
      <trkpt lat="42.0009520" lon="-5.6840070">
        <ele>706.2</ele>
        <time>2021-10-13T07:53:32Z</time>
      </trkpt>
      <trkpt lat="42.0008780" lon="-5.6839300">
        <ele>706.0</ele>
        <time>2021-10-13T07:53:35Z</time>
      </trkpt>
      <trkpt lat="42.0006990" lon="-5.6837530">
        <ele>705.8</ele>
        <time>2021-10-13T07:53:41Z</time>
      </trkpt>
      <trkpt lat="42.0004620" lon="-5.6835640">
        <ele>706.0</ele>
        <time>2021-10-13T07:53:48Z</time>
      </trkpt>
      <trkpt lat="42.0001960" lon="-5.6833550">
        <ele>706.2</ele>
        <time>2021-10-13T07:53:55Z</time>
      </trkpt>
      <trkpt lat="42.0000490" lon="-5.6832420">
        <ele>706.2</ele>
        <time>2021-10-13T07:53:59Z</time>
      </trkpt>
      <trkpt lat="41.9999520" lon="-5.6831900">
        <ele>706.0</ele>
        <time>2021-10-13T07:54:01Z</time>
      </trkpt>
      <trkpt lat="41.9996660" lon="-5.6829710">
        <ele>705.4</ele>
        <time>2021-10-13T07:54:08Z</time>
      </trkpt>
      <trkpt lat="41.9996150" lon="-5.6829370">
        <ele>705.4</ele>
        <time>2021-10-13T07:54:09Z</time>
      </trkpt>
      <trkpt lat="41.9995720" lon="-5.6829120">
        <ele>705.4</ele>
        <time>2021-10-13T07:54:10Z</time>
      </trkpt>
      <trkpt lat="41.9994970" lon="-5.6828700">
        <ele>705.4</ele>
        <time>2021-10-13T07:54:12Z</time>
      </trkpt>
      <trkpt lat="41.9993790" lon="-5.6828060">
        <ele>705.2</ele>
        <time>2021-10-13T07:54:15Z</time>
      </trkpt>
      <trkpt lat="41.9992570" lon="-5.6827440">
        <ele>705.0</ele>
        <time>2021-10-13T07:54:18Z</time>
      </trkpt>
      <trkpt lat="41.9990240" lon="-5.6826110">
        <ele>705.0</ele>
        <time>2021-10-13T07:54:24Z</time>
      </trkpt>
      <trkpt lat="41.9989570" lon="-5.6825630">
        <ele>705.0</ele>
        <time>2021-10-13T07:54:26Z</time>
      </trkpt>
      <trkpt lat="41.9989190" lon="-5.6825410">
        <ele>705.0</ele>
        <time>2021-10-13T07:54:27Z</time>
      </trkpt>
      <trkpt lat="41.9987010" lon="-5.6824380">
        <ele>705.0</ele>
        <time>2021-10-13T07:54:32Z</time>
      </trkpt>
      <trkpt lat="41.9985340" lon="-5.6823690">
        <ele>705.0</ele>
        <time>2021-10-13T07:54:36Z</time>
      </trkpt>
      <trkpt lat="41.9984910" lon="-5.6823430">
        <ele>705.0</ele>
        <time>2021-10-13T07:54:37Z</time>
      </trkpt>
      <trkpt lat="41.9984400" lon="-5.6823110">
        <ele>705.0</ele>
        <time>2021-10-13T07:54:38Z</time>
      </trkpt>
      <trkpt lat="41.9982770" lon="-5.6821850">
        <ele>704.8</ele>
        <time>2021-10-13T07:54:42Z</time>
      </trkpt>
      <trkpt lat="41.9981610" lon="-5.6821060">
        <ele>704.6</ele>
        <time>2021-10-13T07:54:45Z</time>
      </trkpt>
      <trkpt lat="41.9978010" lon="-5.6819010">
        <ele>705.0</ele>
        <time>2021-10-13T07:54:53Z</time>
      </trkpt>
      <trkpt lat="41.9976660" lon="-5.6818320">
        <ele>705.0</ele>
        <time>2021-10-13T07:54:56Z</time>
      </trkpt>
      <trkpt lat="41.9973380" lon="-5.6816840">
        <ele>705.0</ele>
        <time>2021-10-13T07:55:03Z</time>
      </trkpt>
      <trkpt lat="41.9972900" lon="-5.6816630">
        <ele>705.0</ele>
        <time>2021-10-13T07:55:04Z</time>
      </trkpt>
      <trkpt lat="41.9970410" lon="-5.6815870">
        <ele>705.2</ele>
        <time>2021-10-13T07:55:09Z</time>
      </trkpt>
      <trkpt lat="41.9967890" lon="-5.6815150">
        <ele>705.2</ele>
        <time>2021-10-13T07:55:14Z</time>
      </trkpt>
      <trkpt lat="41.9964340" lon="-5.6814590">
        <ele>705.4</ele>
        <time>2021-10-13T07:55:21Z</time>
      </trkpt>
      <trkpt lat="41.9963800" lon="-5.6814540">
        <ele>705.6</ele>
        <time>2021-10-13T07:55:22Z</time>
      </trkpt>
      <trkpt lat="41.9962100" lon="-5.6814330">
        <ele>705.6</ele>
        <time>2021-10-13T07:55:25Z</time>
      </trkpt>
      <trkpt lat="41.9959950" lon="-5.6814020">
        <ele>705.8</ele>
        <time>2021-10-13T07:55:29Z</time>
      </trkpt>
      <trkpt lat="41.9959430" lon="-5.6813940">
        <ele>705.8</ele>
        <time>2021-10-13T07:55:30Z</time>
      </trkpt>
      <trkpt lat="41.9955840" lon="-5.6813490">
        <ele>705.8</ele>
        <time>2021-10-13T07:55:37Z</time>
      </trkpt>
      <trkpt lat="41.9950940" lon="-5.6812990">
        <ele>706.0</ele>
        <time>2021-10-13T07:55:46Z</time>
      </trkpt>
      <trkpt lat="41.9950400" lon="-5.6812950">
        <ele>706.0</ele>
        <time>2021-10-13T07:55:47Z</time>
      </trkpt>
      <trkpt lat="41.9949210" lon="-5.6812800">
        <ele>706.0</ele>
        <time>2021-10-13T07:55:49Z</time>
      </trkpt>
      <trkpt lat="41.9948270" lon="-5.6812660">
        <ele>706.0</ele>
        <time>2021-10-13T07:55:51Z</time>
      </trkpt>
      <trkpt lat="41.9946180" lon="-5.6812450">
        <ele>706.2</ele>
        <time>2021-10-13T07:55:55Z</time>
      </trkpt>
      <trkpt lat="41.9944500" lon="-5.6812280">
        <ele>706.0</ele>
        <time>2021-10-13T07:55:58Z</time>
      </trkpt>
      <trkpt lat="41.9942850" lon="-5.6812100">
        <ele>706.0</ele>
        <time>2021-10-13T07:56:01Z</time>
      </trkpt>
      <trkpt lat="41.9941780" lon="-5.6811970">
        <ele>706.0</ele>
        <time>2021-10-13T07:56:03Z</time>
      </trkpt>
      <trkpt lat="41.9940200" lon="-5.6811750">
        <ele>705.8</ele>
        <time>2021-10-13T07:56:06Z</time>
      </trkpt>
      <trkpt lat="41.9939330" lon="-5.6811630">
        <ele>705.8</ele>
        <time>2021-10-13T07:56:08Z</time>
      </trkpt>
      <trkpt lat="41.9938460" lon="-5.6811540">
        <ele>705.6</ele>
        <time>2021-10-13T07:56:10Z</time>
      </trkpt>
      <trkpt lat="41.9938010" lon="-5.6811390">
        <ele>705.4</ele>
        <time>2021-10-13T07:56:12Z</time>
      </trkpt>
      <trkpt lat="41.9936520" lon="-5.6811300">
        <ele>705.0</ele>
        <time>2021-10-13T07:56:19Z</time>
      </trkpt>
      <trkpt lat="41.9935930" lon="-5.6811290">
        <ele>704.8</ele>
        <time>2021-10-13T07:56:21Z</time>
      </trkpt>
      <trkpt lat="41.9934370" lon="-5.6811060">
        <ele>704.6</ele>
        <time>2021-10-13T07:56:25Z</time>
      </trkpt>
      <trkpt lat="41.9932150" lon="-5.6810550">
        <ele>704.6</ele>
        <time>2021-10-13T07:56:30Z</time>
      </trkpt>
      <trkpt lat="41.9931750" lon="-5.6810410">
        <ele>704.6</ele>
        <time>2021-10-13T07:56:31Z</time>
      </trkpt>
      <trkpt lat="41.9930470" lon="-5.6810230">
        <ele>704.4</ele>
        <time>2021-10-13T07:56:34Z</time>
      </trkpt>
      <trkpt lat="41.9928990" lon="-5.6809750">
        <ele>704.4</ele>
        <time>2021-10-13T07:56:37Z</time>
      </trkpt>
      <trkpt lat="41.9927390" lon="-5.6809180">
        <ele>704.4</ele>
        <time>2021-10-13T07:56:40Z</time>
      </trkpt>
      <trkpt lat="41.9924970" lon="-5.6808280">
        <ele>704.6</ele>
        <time>2021-10-13T07:56:45Z</time>
      </trkpt>
      <trkpt lat="41.9922690" lon="-5.6807140">
        <ele>705.0</ele>
        <time>2021-10-13T07:56:50Z</time>
      </trkpt>
      <trkpt lat="41.9922240" lon="-5.6806890">
        <ele>705.0</ele>
        <time>2021-10-13T07:56:51Z</time>
      </trkpt>
      <trkpt lat="41.9920800" lon="-5.6806170">
        <ele>705.0</ele>
        <time>2021-10-13T07:56:54Z</time>
      </trkpt>
      <trkpt lat="41.9918250" lon="-5.6804550">
        <ele>705.0</ele>
        <time>2021-10-13T07:57:00Z</time>
      </trkpt>
      <trkpt lat="41.9916850" lon="-5.6803610">
        <ele>705.0</ele>
        <time>2021-10-13T07:57:03Z</time>
      </trkpt>
      <trkpt lat="41.9916510" lon="-5.6803410">
        <ele>705.0</ele>
        <time>2021-10-13T07:57:04Z</time>
      </trkpt>
      <trkpt lat="41.9915220" lon="-5.6802540">
        <ele>704.8</ele>
        <time>2021-10-13T07:57:07Z</time>
      </trkpt>
      <trkpt lat="41.9914020" lon="-5.6801690">
        <ele>704.8</ele>
        <time>2021-10-13T07:57:10Z</time>
      </trkpt>
      <trkpt lat="41.9913010" lon="-5.6800960">
        <ele>704.8</ele>
        <time>2021-10-13T07:57:13Z</time>
      </trkpt>
      <trkpt lat="41.9912070" lon="-5.6800300">
        <ele>704.8</ele>
        <time>2021-10-13T07:57:16Z</time>
      </trkpt>
      <trkpt lat="41.9910720" lon="-5.6799310">
        <ele>704.6</ele>
        <time>2021-10-13T07:57:20Z</time>
      </trkpt>
      <trkpt lat="41.9909630" lon="-5.6798520">
        <ele>704.6</ele>
        <time>2021-10-13T07:57:23Z</time>
      </trkpt>
      <trkpt lat="41.9907920" lon="-5.6797440">
        <ele>704.6</ele>
        <time>2021-10-13T07:57:27Z</time>
      </trkpt>
      <trkpt lat="41.9907520" lon="-5.6797130">
        <ele>704.4</ele>
        <time>2021-10-13T07:57:28Z</time>
      </trkpt>
      <trkpt lat="41.9904870" lon="-5.6795330">
        <ele>704.2</ele>
        <time>2021-10-13T07:57:34Z</time>
      </trkpt>
      <trkpt lat="41.9903540" lon="-5.6794390">
        <ele>704.2</ele>
        <time>2021-10-13T07:57:37Z</time>
      </trkpt>
      <trkpt lat="41.9902180" lon="-5.6793460">
        <ele>704.2</ele>
        <time>2021-10-13T07:57:40Z</time>
      </trkpt>
      <trkpt lat="41.9901270" lon="-5.6792850">
        <ele>704.0</ele>
        <time>2021-10-13T07:57:42Z</time>
      </trkpt>
      <trkpt lat="41.9900810" lon="-5.6792550">
        <ele>704.0</ele>
        <time>2021-10-13T07:57:43Z</time>
      </trkpt>
      <trkpt lat="41.9899920" lon="-5.6791950">
        <ele>704.0</ele>
        <time>2021-10-13T07:57:45Z</time>
      </trkpt>
      <trkpt lat="41.9897240" lon="-5.6790180">
        <ele>704.0</ele>
        <time>2021-10-13T07:57:51Z</time>
      </trkpt>
      <trkpt lat="41.9895980" lon="-5.6789230">
        <ele>704.0</ele>
        <time>2021-10-13T07:57:54Z</time>
      </trkpt>
      <trkpt lat="41.9894260" lon="-5.6787980">
        <ele>704.0</ele>
        <time>2021-10-13T07:57:58Z</time>
      </trkpt>
      <trkpt lat="41.9893820" lon="-5.6787700">
        <ele>703.8</ele>
        <time>2021-10-13T07:57:59Z</time>
      </trkpt>
      <trkpt lat="41.9889850" lon="-5.6785050">
        <ele>704.0</ele>
        <time>2021-10-13T07:58:08Z</time>
      </trkpt>
      <trkpt lat="41.9888530" lon="-5.6784100">
        <ele>703.8</ele>
        <time>2021-10-13T07:58:11Z</time>
      </trkpt>
      <trkpt lat="41.9887180" lon="-5.6783140">
        <ele>703.8</ele>
        <time>2021-10-13T07:58:14Z</time>
      </trkpt>
      <trkpt lat="41.9886720" lon="-5.6782820">
        <ele>703.8</ele>
        <time>2021-10-13T07:58:15Z</time>
      </trkpt>
      <trkpt lat="41.9885390" lon="-5.6781910">
        <ele>703.6</ele>
        <time>2021-10-13T07:58:18Z</time>
      </trkpt>
      <trkpt lat="41.9884950" lon="-5.6781610">
        <ele>703.6</ele>
        <time>2021-10-13T07:58:19Z</time>
      </trkpt>
      <trkpt lat="41.9884510" lon="-5.6781320">
        <ele>703.6</ele>
        <time>2021-10-13T07:58:20Z</time>
      </trkpt>
      <trkpt lat="41.9883190" lon="-5.6780380">
        <ele>703.6</ele>
        <time>2021-10-13T07:58:23Z</time>
      </trkpt>
      <trkpt lat="41.9881400" lon="-5.6779140">
        <ele>703.6</ele>
        <time>2021-10-13T07:58:27Z</time>
      </trkpt>
      <trkpt lat="41.9880060" lon="-5.6778240">
        <ele>703.6</ele>
        <time>2021-10-13T07:58:30Z</time>
      </trkpt>
      <trkpt lat="41.9877400" lon="-5.6776410">
        <ele>703.6</ele>
        <time>2021-10-13T07:58:36Z</time>
      </trkpt>
      <trkpt lat="41.9875190" lon="-5.6774910">
        <ele>703.6</ele>
        <time>2021-10-13T07:58:41Z</time>
      </trkpt>
      <trkpt lat="41.9873500" lon="-5.6773650">
        <ele>703.8</ele>
        <time>2021-10-13T07:58:45Z</time>
      </trkpt>
      <trkpt lat="41.9872620" lon="-5.6773110">
        <ele>703.8</ele>
        <time>2021-10-13T07:58:47Z</time>
      </trkpt>
      <trkpt lat="41.9870500" lon="-5.6771610">
        <ele>703.8</ele>
        <time>2021-10-13T07:58:52Z</time>
      </trkpt>
      <trkpt lat="41.9868370" lon="-5.6770160">
        <ele>703.6</ele>
        <time>2021-10-13T07:58:57Z</time>
      </trkpt>
      <trkpt lat="41.9866560" lon="-5.6768920">
        <ele>703.6</ele>
        <time>2021-10-13T07:59:01Z</time>
      </trkpt>
      <trkpt lat="41.9865800" lon="-5.6768400">
        <ele>703.6</ele>
        <time>2021-10-13T07:59:03Z</time>
      </trkpt>
      <trkpt lat="41.9862280" lon="-5.6766000">
        <ele>703.4</ele>
        <time>2021-10-13T07:59:11Z</time>
      </trkpt>
      <trkpt lat="41.9861520" lon="-5.6765480">
        <ele>703.4</ele>
        <time>2021-10-13T07:59:13Z</time>
      </trkpt>
      <trkpt lat="41.9858130" lon="-5.6763190">
        <ele>703.2</ele>
        <time>2021-10-13T07:59:21Z</time>
      </trkpt>
      <trkpt lat="41.9856020" lon="-5.6761800">
        <ele>703.2</ele>
        <time>2021-10-13T07:59:26Z</time>
      </trkpt>
      <trkpt lat="41.9854760" lon="-5.6760990">
        <ele>703.2</ele>
        <time>2021-10-13T07:59:29Z</time>
      </trkpt>
      <trkpt lat="41.9853900" lon="-5.6760420">
        <ele>703.2</ele>
        <time>2021-10-13T07:59:31Z</time>
      </trkpt>
      <trkpt lat="41.9850910" lon="-5.6758360">
        <ele>703.0</ele>
        <time>2021-10-13T07:59:38Z</time>
      </trkpt>
      <trkpt lat="41.9849200" lon="-5.6757170">
        <ele>703.0</ele>
        <time>2021-10-13T07:59:42Z</time>
      </trkpt>
      <trkpt lat="41.9848340" lon="-5.6756570">
        <ele>703.2</ele>
        <time>2021-10-13T07:59:44Z</time>
      </trkpt>
      <trkpt lat="41.9844870" lon="-5.6754250">
        <ele>703.2</ele>
        <time>2021-10-13T07:59:52Z</time>
      </trkpt>
      <trkpt lat="41.9840640" lon="-5.6751360">
        <ele>703.2</ele>
        <time>2021-10-13T08:00:02Z</time>
      </trkpt>
      <trkpt lat="41.9840140" lon="-5.6751010">
        <ele>703.2</ele>
        <time>2021-10-13T08:00:03Z</time>
      </trkpt>
      <trkpt lat="41.9838520" lon="-5.6749920">
        <ele>703.2</ele>
        <time>2021-10-13T08:00:07Z</time>
      </trkpt>
      <trkpt lat="41.9836770" lon="-5.6748740">
        <ele>703.2</ele>
        <time>2021-10-13T08:00:11Z</time>
      </trkpt>
      <trkpt lat="41.9836320" lon="-5.6748460">
        <ele>703.0</ele>
        <time>2021-10-13T08:00:12Z</time>
      </trkpt>
      <trkpt lat="41.9835880" lon="-5.6748170">
        <ele>703.0</ele>
        <time>2021-10-13T08:00:13Z</time>
      </trkpt>
      <trkpt lat="41.9832930" lon="-5.6746110">
        <ele>702.8</ele>
        <time>2021-10-13T08:00:20Z</time>
      </trkpt>
      <trkpt lat="41.9829890" lon="-5.6744150">
        <ele>702.8</ele>
        <time>2021-10-13T08:00:27Z</time>
      </trkpt>
      <trkpt lat="41.9829050" lon="-5.6743570">
        <ele>702.8</ele>
        <time>2021-10-13T08:00:29Z</time>
      </trkpt>
      <trkpt lat="41.9828160" lon="-5.6743010">
        <ele>702.8</ele>
        <time>2021-10-13T08:00:31Z</time>
      </trkpt>
      <trkpt lat="41.9827180" lon="-5.6742340">
        <ele>702.8</ele>
        <time>2021-10-13T08:00:33Z</time>
      </trkpt>
      <trkpt lat="41.9826040" lon="-5.6741530">
        <ele>702.8</ele>
        <time>2021-10-13T08:00:35Z</time>
      </trkpt>
      <trkpt lat="41.9824500" lon="-5.6740450">
        <ele>702.0</ele>
        <time>2021-10-13T08:00:38Z</time>
      </trkpt>
      <trkpt lat="41.9823720" lon="-5.6739960">
        <ele>701.8</ele>
        <time>2021-10-13T08:00:40Z</time>
      </trkpt>
      <trkpt lat="41.9821240" lon="-5.6738210">
        <ele>702.0</ele>
        <time>2021-10-13T08:00:47Z</time>
      </trkpt>
      <trkpt lat="41.9819280" lon="-5.6736860">
        <ele>702.6</ele>
        <time>2021-10-13T08:00:52Z</time>
      </trkpt>
      <trkpt lat="41.9817300" lon="-5.6735450">
        <ele>702.6</ele>
        <time>2021-10-13T08:00:57Z</time>
      </trkpt>
      <trkpt lat="41.9816900" lon="-5.6735170">
        <ele>702.6</ele>
        <time>2021-10-13T08:00:58Z</time>
      </trkpt>
      <trkpt lat="41.9816080" lon="-5.6734650">
        <ele>702.6</ele>
        <time>2021-10-13T08:01:00Z</time>
      </trkpt>
      <trkpt lat="41.9814850" lon="-5.6733800">
        <ele>702.6</ele>
        <time>2021-10-13T08:01:03Z</time>
      </trkpt>
      <trkpt lat="41.9814040" lon="-5.6733230">
        <ele>702.6</ele>
        <time>2021-10-13T08:01:05Z</time>
      </trkpt>
      <trkpt lat="41.9812370" lon="-5.6732060">
        <ele>702.6</ele>
        <time>2021-10-13T08:01:09Z</time>
      </trkpt>
      <trkpt lat="41.9811970" lon="-5.6731740">
        <ele>702.6</ele>
        <time>2021-10-13T08:01:10Z</time>
      </trkpt>
      <trkpt lat="41.9808330" lon="-5.6729270">
        <ele>702.6</ele>
        <time>2021-10-13T08:01:19Z</time>
      </trkpt>
      <trkpt lat="41.9807470" lon="-5.6728720">
        <ele>702.6</ele>
        <time>2021-10-13T08:01:21Z</time>
      </trkpt>
      <trkpt lat="41.9806750" lon="-5.6728250">
        <ele>702.6</ele>
        <time>2021-10-13T08:01:23Z</time>
      </trkpt>
      <trkpt lat="41.9805190" lon="-5.6727170">
        <ele>702.6</ele>
        <time>2021-10-13T08:01:27Z</time>
      </trkpt>
      <trkpt lat="41.9804410" lon="-5.6726560">
        <ele>702.4</ele>
        <time>2021-10-13T08:01:29Z</time>
      </trkpt>
      <trkpt lat="41.9802020" lon="-5.6724890">
        <ele>702.2</ele>
        <time>2021-10-13T08:01:35Z</time>
      </trkpt>
      <trkpt lat="41.9801630" lon="-5.6724600">
        <ele>702.2</ele>
        <time>2021-10-13T08:01:36Z</time>
      </trkpt>
      <trkpt lat="41.9797890" lon="-5.6722110">
        <ele>702.2</ele>
        <time>2021-10-13T08:01:45Z</time>
      </trkpt>
      <trkpt lat="41.9797040" lon="-5.6721540">
        <ele>702.2</ele>
        <time>2021-10-13T08:01:47Z</time>
      </trkpt>
      <trkpt lat="41.9794450" lon="-5.6719850">
        <ele>702.0</ele>
        <time>2021-10-13T08:01:53Z</time>
      </trkpt>
      <trkpt lat="41.9793610" lon="-5.6719270">
        <ele>702.0</ele>
        <time>2021-10-13T08:01:55Z</time>
      </trkpt>
      <trkpt lat="41.9788630" lon="-5.6715800">
        <ele>701.8</ele>
        <time>2021-10-13T08:02:07Z</time>
      </trkpt>
      <trkpt lat="41.9788220" lon="-5.6715490">
        <ele>702.0</ele>
        <time>2021-10-13T08:02:08Z</time>
      </trkpt>
      <trkpt lat="41.9787000" lon="-5.6714620">
        <ele>702.0</ele>
        <time>2021-10-13T08:02:11Z</time>
      </trkpt>
      <trkpt lat="41.9783670" lon="-5.6712420">
        <ele>701.6</ele>
        <time>2021-10-13T08:02:19Z</time>
      </trkpt>
      <trkpt lat="41.9782840" lon="-5.6711840">
        <ele>701.6</ele>
        <time>2021-10-13T08:02:21Z</time>
      </trkpt>
      <trkpt lat="41.9780840" lon="-5.6710510">
        <ele>701.6</ele>
        <time>2021-10-13T08:02:26Z</time>
      </trkpt>
      <trkpt lat="41.9779780" lon="-5.6709890">
        <ele>701.6</ele>
        <time>2021-10-13T08:02:29Z</time>
      </trkpt>
      <trkpt lat="41.9777460" lon="-5.6708140">
        <ele>701.6</ele>
        <time>2021-10-13T08:02:36Z</time>
      </trkpt>
      <trkpt lat="41.9774210" lon="-5.6705870">
        <ele>701.6</ele>
        <time>2021-10-13T08:02:45Z</time>
      </trkpt>
      <trkpt lat="41.9771300" lon="-5.6703980">
        <ele>701.6</ele>
        <time>2021-10-13T08:02:52Z</time>
      </trkpt>
      <trkpt lat="41.9766700" lon="-5.6700800">
        <ele>701.4</ele>
        <time>2021-10-13T08:03:03Z</time>
      </trkpt>
      <trkpt lat="41.9766370" lon="-5.6700570">
        <ele>701.4</ele>
        <time>2021-10-13T08:03:04Z</time>
      </trkpt>
      <trkpt lat="41.9761410" lon="-5.6697200">
        <ele>701.2</ele>
        <time>2021-10-13T08:03:16Z</time>
      </trkpt>
      <trkpt lat="41.9757640" lon="-5.6694560">
        <ele>701.0</ele>
        <time>2021-10-13T08:03:26Z</time>
      </trkpt>
      <trkpt lat="41.9754750" lon="-5.6692550">
        <ele>701.0</ele>
        <time>2021-10-13T08:03:34Z</time>
      </trkpt>
      <trkpt lat="41.9752210" lon="-5.6690830">
        <ele>700.6</ele>
        <time>2021-10-13T08:03:41Z</time>
      </trkpt>
      <trkpt lat="41.9751510" lon="-5.6690360">
        <ele>700.6</ele>
        <time>2021-10-13T08:03:43Z</time>
      </trkpt>
      <trkpt lat="41.9751160" lon="-5.6690110">
        <ele>700.8</ele>
        <time>2021-10-13T08:03:44Z</time>
      </trkpt>
      <trkpt lat="41.9749310" lon="-5.6688890">
        <ele>700.6</ele>
        <time>2021-10-13T08:03:49Z</time>
      </trkpt>
      <trkpt lat="41.9747190" lon="-5.6687500">
        <ele>700.4</ele>
        <time>2021-10-13T08:03:55Z</time>
      </trkpt>
      <trkpt lat="41.9743050" lon="-5.6684640">
        <ele>700.4</ele>
        <time>2021-10-13T08:04:06Z</time>
      </trkpt>
      <trkpt lat="41.9740750" lon="-5.6683010">
        <ele>700.4</ele>
        <time>2021-10-13T08:04:12Z</time>
      </trkpt>
      <trkpt lat="41.9739570" lon="-5.6682240">
        <ele>700.4</ele>
        <time>2021-10-13T08:04:15Z</time>
      </trkpt>
      <trkpt lat="41.9739180" lon="-5.6681950">
        <ele>700.4</ele>
        <time>2021-10-13T08:04:16Z</time>
      </trkpt>
      <trkpt lat="41.9734460" lon="-5.6678790">
        <ele>700.2</ele>
        <time>2021-10-13T08:04:28Z</time>
      </trkpt>
      <trkpt lat="41.9732930" lon="-5.6677680">
        <ele>700.2</ele>
        <time>2021-10-13T08:04:32Z</time>
      </trkpt>
      <trkpt lat="41.9731800" lon="-5.6676880">
        <ele>700.4</ele>
        <time>2021-10-13T08:04:35Z</time>
      </trkpt>
      <trkpt lat="41.9727580" lon="-5.6674020">
        <ele>700.2</ele>
        <time>2021-10-13T08:04:46Z</time>
      </trkpt>
      <trkpt lat="41.9725300" lon="-5.6672390">
        <ele>700.4</ele>
        <time>2021-10-13T08:04:53Z</time>
      </trkpt>
      <trkpt lat="41.9724910" lon="-5.6672150">
        <ele>700.6</ele>
        <time>2021-10-13T08:04:54Z</time>
      </trkpt>
      <trkpt lat="41.9721370" lon="-5.6669870">
        <ele>700.6</ele>
        <time>2021-10-13T08:05:04Z</time>
      </trkpt>
      <trkpt lat="41.9719080" lon="-5.6668290">
        <ele>700.6</ele>
        <time>2021-10-13T08:05:11Z</time>
      </trkpt>
      <trkpt lat="41.9718840" lon="-5.6668140">
        <ele>700.6</ele>
        <time>2021-10-13T08:05:12Z</time>
      </trkpt>
      <trkpt lat="41.9717640" lon="-5.6667390">
        <ele>700.8</ele>
        <time>2021-10-13T08:05:16Z</time>
      </trkpt>
      <trkpt lat="41.9716380" lon="-5.6666500">
        <ele>700.8</ele>
        <time>2021-10-13T08:05:20Z</time>
      </trkpt>
      <trkpt lat="41.9712790" lon="-5.6663970">
        <ele>700.6</ele>
        <time>2021-10-13T08:05:31Z</time>
      </trkpt>
      <trkpt lat="41.9711840" lon="-5.6663360">
        <ele>700.8</ele>
        <time>2021-10-13T08:05:34Z</time>
      </trkpt>
      <trkpt lat="41.9708720" lon="-5.6661290">
        <ele>701.0</ele>
        <time>2021-10-13T08:05:43Z</time>
      </trkpt>
      <trkpt lat="41.9707090" lon="-5.6660130">
        <ele>700.8</ele>
        <time>2021-10-13T08:05:48Z</time>
      </trkpt>
      <trkpt lat="41.9706070" lon="-5.6659370">
        <ele>700.8</ele>
        <time>2021-10-13T08:05:51Z</time>
      </trkpt>
      <trkpt lat="41.9702420" lon="-5.6656900">
        <ele>700.8</ele>
        <time>2021-10-13T08:06:01Z</time>
      </trkpt>
      <trkpt lat="41.9700190" lon="-5.6655300">
        <ele>700.8</ele>
        <time>2021-10-13T08:06:07Z</time>
      </trkpt>
      <trkpt lat="41.9698690" lon="-5.6654320">
        <ele>700.8</ele>
        <time>2021-10-13T08:06:11Z</time>
      </trkpt>
      <trkpt lat="41.9695370" lon="-5.6651960">
        <ele>700.6</ele>
        <time>2021-10-13T08:06:20Z</time>
      </trkpt>
      <trkpt lat="41.9692340" lon="-5.6649910">
        <ele>700.6</ele>
        <time>2021-10-13T08:06:28Z</time>
      </trkpt>
      <trkpt lat="41.9690780" lon="-5.6648910">
        <ele>700.6</ele>
        <time>2021-10-13T08:06:32Z</time>
      </trkpt>
      <trkpt lat="41.9689540" lon="-5.6648080">
        <ele>700.6</ele>
        <time>2021-10-13T08:06:35Z</time>
      </trkpt>
      <trkpt lat="41.9688850" lon="-5.6647590">
        <ele>700.6</ele>
        <time>2021-10-13T08:06:37Z</time>
      </trkpt>
      <trkpt lat="41.9685430" lon="-5.6645140">
        <ele>700.8</ele>
        <time>2021-10-13T08:06:47Z</time>
      </trkpt>
      <trkpt lat="41.9685080" lon="-5.6644900">
        <ele>701.0</ele>
        <time>2021-10-13T08:06:48Z</time>
      </trkpt>
      <trkpt lat="41.9682340" lon="-5.6643050">
        <ele>701.0</ele>
        <time>2021-10-13T08:06:55Z</time>
      </trkpt>
      <trkpt lat="41.9678560" lon="-5.6640370">
        <ele>700.8</ele>
        <time>2021-10-13T08:07:04Z</time>
      </trkpt>
      <trkpt lat="41.9677670" lon="-5.6639780">
        <ele>700.8</ele>
        <time>2021-10-13T08:07:06Z</time>
      </trkpt>
      <trkpt lat="41.9676480" lon="-5.6639060">
        <ele>700.8</ele>
        <time>2021-10-13T08:07:09Z</time>
      </trkpt>
      <trkpt lat="41.9675440" lon="-5.6638400">
        <ele>701.0</ele>
        <time>2021-10-13T08:07:12Z</time>
      </trkpt>
      <trkpt lat="41.9672230" lon="-5.6636260">
        <ele>700.8</ele>
        <time>2021-10-13T08:07:20Z</time>
      </trkpt>
      <trkpt lat="41.9669340" lon="-5.6634270">
        <ele>700.8</ele>
        <time>2021-10-13T08:07:27Z</time>
      </trkpt>
      <trkpt lat="41.9666890" lon="-5.6632650">
        <ele>701.2</ele>
        <time>2021-10-13T08:07:34Z</time>
      </trkpt>
      <trkpt lat="41.9664750" lon="-5.6631290">
        <ele>701.4</ele>
        <time>2021-10-13T08:07:40Z</time>
      </trkpt>
      <trkpt lat="41.9663920" lon="-5.6630800">
        <ele>701.4</ele>
        <time>2021-10-13T08:07:42Z</time>
      </trkpt>
      <trkpt lat="41.9662680" lon="-5.6630010">
        <ele>701.4</ele>
        <time>2021-10-13T08:07:45Z</time>
      </trkpt>
      <trkpt lat="41.9661540" lon="-5.6629140">
        <ele>701.2</ele>
        <time>2021-10-13T08:07:48Z</time>
      </trkpt>
      <trkpt lat="41.9659340" lon="-5.6627570">
        <ele>701.0</ele>
        <time>2021-10-13T08:07:54Z</time>
      </trkpt>
      <trkpt lat="41.9658530" lon="-5.6627090">
        <ele>701.0</ele>
        <time>2021-10-13T08:07:57Z</time>
      </trkpt>
      <trkpt lat="41.9656790" lon="-5.6625880">
        <ele>701.0</ele>
        <time>2021-10-13T08:08:04Z</time>
      </trkpt>
      <trkpt lat="41.9656500" lon="-5.6625740">
        <ele>701.0</ele>
        <time>2021-10-13T08:08:05Z</time>
      </trkpt>
      <trkpt lat="41.9655210" lon="-5.6624820">
        <ele>701.0</ele>
        <time>2021-10-13T08:08:10Z</time>
      </trkpt>
      <trkpt lat="41.9654700" lon="-5.6624370">
        <ele>700.8</ele>
        <time>2021-10-13T08:08:13Z</time>
      </trkpt>
      <trkpt lat="41.9654660" lon="-5.6624340">
        <ele>700.8</ele>
        <time>2021-10-13T08:08:15Z</time>
      </trkpt>
      <trkpt lat="41.9653490" lon="-5.6623640">
        <ele>700.8</ele>
        <time>2021-10-13T08:08:48Z</time>
      </trkpt>
      <trkpt lat="41.9653390" lon="-5.6623570">
        <ele>700.8</ele>
        <time>2021-10-13T08:08:49Z</time>
      </trkpt>
      <trkpt lat="41.9652970" lon="-5.6623340">
        <ele>700.8</ele>
        <time>2021-10-13T08:08:54Z</time>
      </trkpt>
      <trkpt lat="41.9652970" lon="-5.6623340">
        <ele>700.8</ele>
        <time>2021-10-13T08:08:56Z</time>
      </trkpt>
      <trkpt lat="41.9652550" lon="-5.6623130">
        <ele>701.0</ele>
        <time>2021-10-13T08:10:21Z</time>
      </trkpt>
      <trkpt lat="41.9652360" lon="-5.6623060">
        <ele>701.0</ele>
        <time>2021-10-13T08:10:22Z</time>
      </trkpt>
      <trkpt lat="41.9652150" lon="-5.6622960">
        <ele>701.0</ele>
        <time>2021-10-13T08:10:23Z</time>
      </trkpt>
      <trkpt lat="41.9651210" lon="-5.6622500">
        <ele>701.0</ele>
        <time>2021-10-13T08:10:27Z</time>
      </trkpt>
      <trkpt lat="41.9650830" lon="-5.6622290">
        <ele>701.0</ele>
        <time>2021-10-13T08:10:29Z</time>
      </trkpt>
      <trkpt lat="41.9650070" lon="-5.6621880">
        <ele>700.8</ele>
        <time>2021-10-13T08:10:35Z</time>
      </trkpt>
      <trkpt lat="41.9650000" lon="-5.6621780">
        <ele>700.8</ele>
        <time>2021-10-13T08:10:40Z</time>
      </trkpt>
      <trkpt lat="41.9648670" lon="-5.6620490">
        <ele>701.2</ele>
        <time>2021-10-13T08:11:38Z</time>
      </trkpt>
      <trkpt lat="41.9647010" lon="-5.6619330">
        <ele>701.2</ele>
        <time>2021-10-13T08:11:43Z</time>
      </trkpt>
      <trkpt lat="41.9645110" lon="-5.6618100">
        <ele>701.2</ele>
        <time>2021-10-13T08:11:47Z</time>
      </trkpt>
      <trkpt lat="41.9644690" lon="-5.6617740">
        <ele>701.2</ele>
        <time>2021-10-13T08:11:48Z</time>
      </trkpt>
      <trkpt lat="41.9644220" lon="-5.6617500">
        <ele>701.2</ele>
        <time>2021-10-13T08:11:49Z</time>
      </trkpt>
      <trkpt lat="41.9641790" lon="-5.6615480">
        <ele>701.2</ele>
        <time>2021-10-13T08:11:55Z</time>
      </trkpt>
      <trkpt lat="41.9639550" lon="-5.6614040">
        <ele>701.2</ele>
        <time>2021-10-13T08:12:00Z</time>
      </trkpt>
      <trkpt lat="41.9637680" lon="-5.6612720">
        <ele>701.2</ele>
        <time>2021-10-13T08:12:05Z</time>
      </trkpt>
      <trkpt lat="41.9637310" lon="-5.6612670">
        <ele>701.2</ele>
        <time>2021-10-13T08:12:06Z</time>
      </trkpt>
      <trkpt lat="41.9636030" lon="-5.6611300">
        <ele>701.2</ele>
        <time>2021-10-13T08:12:10Z</time>
      </trkpt>
      <trkpt lat="41.9634370" lon="-5.6610320">
        <ele>701.2</ele>
        <time>2021-10-13T08:12:15Z</time>
      </trkpt>
      <trkpt lat="41.9633030" lon="-5.6609500">
        <ele>701.2</ele>
        <time>2021-10-13T08:12:20Z</time>
      </trkpt>
      <trkpt lat="41.9632710" lon="-5.6609300">
        <ele>701.2</ele>
        <time>2021-10-13T08:12:21Z</time>
      </trkpt>
      <trkpt lat="41.9631920" lon="-5.6608600">
        <ele>701.0</ele>
        <time>2021-10-13T08:12:25Z</time>
      </trkpt>
      <trkpt lat="41.9631280" lon="-5.6608210">
        <ele>701.0</ele>
        <time>2021-10-13T08:12:29Z</time>
      </trkpt>
      <trkpt lat="41.9631280" lon="-5.6608210">
        <ele>701.0</ele>
        <time>2021-10-13T08:12:31Z</time>
      </trkpt>
      <trkpt lat="41.9630820" lon="-5.6608100">
        <ele>700.8</ele>
        <time>2021-10-13T08:13:12Z</time>
      </trkpt>
      <trkpt lat="41.9630550" lon="-5.6608040">
        <ele>700.8</ele>
        <time>2021-10-13T08:13:13Z</time>
      </trkpt>
      <trkpt lat="41.9630300" lon="-5.6607870">
        <ele>700.8</ele>
        <time>2021-10-13T08:13:14Z</time>
      </trkpt>
      <trkpt lat="41.9629950" lon="-5.6607340">
        <ele>700.6</ele>
        <time>2021-10-13T08:13:17Z</time>
      </trkpt>
      <trkpt lat="41.9629930" lon="-5.6607320">
        <ele>700.6</ele>
        <time>2021-10-13T08:13:18Z</time>
      </trkpt>
      <trkpt lat="41.9629260" lon="-5.6607040">
        <ele>700.6</ele>
        <time>2021-10-13T08:13:24Z</time>
      </trkpt>
      <trkpt lat="41.9628640" lon="-5.6606750">
        <ele>700.8</ele>
        <time>2021-10-13T08:13:26Z</time>
      </trkpt>
      <trkpt lat="41.9627150" lon="-5.6605330">
        <ele>700.8</ele>
        <time>2021-10-13T08:13:31Z</time>
      </trkpt>
      <trkpt lat="41.9626710" lon="-5.6605160">
        <ele>700.8</ele>
        <time>2021-10-13T08:13:32Z</time>
      </trkpt>
      <trkpt lat="41.9624590" lon="-5.6603660">
        <ele>701.0</ele>
        <time>2021-10-13T08:13:38Z</time>
      </trkpt>
      <trkpt lat="41.9622120" lon="-5.6601980">
        <ele>701.0</ele>
        <time>2021-10-13T08:13:44Z</time>
      </trkpt>
      <trkpt lat="41.9621710" lon="-5.6601680">
        <ele>701.0</ele>
        <time>2021-10-13T08:13:45Z</time>
      </trkpt>
      <trkpt lat="41.9618350" lon="-5.6599430">
        <ele>701.0</ele>
        <time>2021-10-13T08:13:53Z</time>
      </trkpt>
      <trkpt lat="41.9616690" lon="-5.6598210">
        <ele>700.8</ele>
        <time>2021-10-13T08:13:57Z</time>
      </trkpt>
      <trkpt lat="41.9614210" lon="-5.6596580">
        <ele>700.8</ele>
        <time>2021-10-13T08:14:03Z</time>
      </trkpt>
      <trkpt lat="41.9612580" lon="-5.6595410">
        <ele>700.8</ele>
        <time>2021-10-13T08:14:07Z</time>
      </trkpt>
      <trkpt lat="41.9609720" lon="-5.6593430">
        <ele>700.8</ele>
        <time>2021-10-13T08:14:14Z</time>
      </trkpt>
      <trkpt lat="41.9608900" lon="-5.6592890">
        <ele>700.6</ele>
        <time>2021-10-13T08:14:16Z</time>
      </trkpt>
      <trkpt lat="41.9608090" lon="-5.6592340">
        <ele>700.8</ele>
        <time>2021-10-13T08:14:18Z</time>
      </trkpt>
      <trkpt lat="41.9607290" lon="-5.6591770">
        <ele>701.0</ele>
        <time>2021-10-13T08:14:20Z</time>
      </trkpt>
      <trkpt lat="41.9606100" lon="-5.6590900">
        <ele>700.8</ele>
        <time>2021-10-13T08:14:23Z</time>
      </trkpt>
      <trkpt lat="41.9604560" lon="-5.6589860">
        <ele>701.0</ele>
        <time>2021-10-13T08:14:27Z</time>
      </trkpt>
      <trkpt lat="41.9603510" lon="-5.6589140">
        <ele>701.2</ele>
        <time>2021-10-13T08:14:30Z</time>
      </trkpt>
      <trkpt lat="41.9602470" lon="-5.6588470">
        <ele>701.2</ele>
        <time>2021-10-13T08:14:33Z</time>
      </trkpt>
      <trkpt lat="41.9601720" lon="-5.6587990">
        <ele>701.2</ele>
        <time>2021-10-13T08:14:35Z</time>
      </trkpt>
      <trkpt lat="41.9599280" lon="-5.6586410">
        <ele>701.4</ele>
        <time>2021-10-13T08:14:41Z</time>
      </trkpt>
      <trkpt lat="41.9598430" lon="-5.6585750">
        <ele>701.2</ele>
        <time>2021-10-13T08:14:43Z</time>
      </trkpt>
      <trkpt lat="41.9597230" lon="-5.6584860">
        <ele>701.2</ele>
        <time>2021-10-13T08:14:46Z</time>
      </trkpt>
      <trkpt lat="41.9594840" lon="-5.6583260">
        <ele>701.0</ele>
        <time>2021-10-13T08:14:52Z</time>
      </trkpt>
      <trkpt lat="41.9594070" lon="-5.6582720">
        <ele>701.0</ele>
        <time>2021-10-13T08:14:54Z</time>
      </trkpt>
      <trkpt lat="41.9593320" lon="-5.6582220">
        <ele>701.0</ele>
        <time>2021-10-13T08:14:56Z</time>
      </trkpt>
      <trkpt lat="41.9591080" lon="-5.6580690">
        <ele>700.6</ele>
        <time>2021-10-13T08:15:02Z</time>
      </trkpt>
      <trkpt lat="41.9589420" lon="-5.6579660">
        <ele>700.6</ele>
        <time>2021-10-13T08:15:06Z</time>
      </trkpt>
      <trkpt lat="41.9587350" lon="-5.6578360">
        <ele>700.4</ele>
        <time>2021-10-13T08:15:11Z</time>
      </trkpt>
      <trkpt lat="41.9584900" lon="-5.6576740">
        <ele>700.4</ele>
        <time>2021-10-13T08:15:17Z</time>
      </trkpt>
      <trkpt lat="41.9584080" lon="-5.6576210">
        <ele>700.4</ele>
        <time>2021-10-13T08:15:19Z</time>
      </trkpt>
      <trkpt lat="41.9579970" lon="-5.6573420">
        <ele>700.6</ele>
        <time>2021-10-13T08:15:29Z</time>
      </trkpt>
      <trkpt lat="41.9577890" lon="-5.6571910">
        <ele>700.6</ele>
        <time>2021-10-13T08:15:34Z</time>
      </trkpt>
      <trkpt lat="41.9576640" lon="-5.6571060">
        <ele>700.6</ele>
        <time>2021-10-13T08:15:37Z</time>
      </trkpt>
      <trkpt lat="41.9573270" lon="-5.6568870">
        <ele>700.8</ele>
        <time>2021-10-13T08:15:45Z</time>
      </trkpt>
      <trkpt lat="41.9572850" lon="-5.6568590">
        <ele>700.8</ele>
        <time>2021-10-13T08:15:46Z</time>
      </trkpt>
      <trkpt lat="41.9570500" lon="-5.6566940">
        <ele>701.0</ele>
        <time>2021-10-13T08:15:52Z</time>
      </trkpt>
      <trkpt lat="41.9570130" lon="-5.6566710">
        <ele>701.0</ele>
        <time>2021-10-13T08:15:53Z</time>
      </trkpt>
      <trkpt lat="41.9568080" lon="-5.6565370">
        <ele>701.0</ele>
        <time>2021-10-13T08:15:58Z</time>
      </trkpt>
      <trkpt lat="41.9565890" lon="-5.6563900">
        <ele>701.0</ele>
        <time>2021-10-13T08:16:03Z</time>
      </trkpt>
      <trkpt lat="41.9564250" lon="-5.6562770">
        <ele>700.8</ele>
        <time>2021-10-13T08:16:07Z</time>
      </trkpt>
      <trkpt lat="41.9563420" lon="-5.6562230">
        <ele>700.8</ele>
        <time>2021-10-13T08:16:09Z</time>
      </trkpt>
      <trkpt lat="41.9562570" lon="-5.6561710">
        <ele>700.8</ele>
        <time>2021-10-13T08:16:11Z</time>
      </trkpt>
      <trkpt lat="41.9559350" lon="-5.6559890">
        <ele>700.8</ele>
        <time>2021-10-13T08:16:19Z</time>
      </trkpt>
      <trkpt lat="41.9558860" lon="-5.6559650">
        <ele>700.8</ele>
        <time>2021-10-13T08:16:20Z</time>
      </trkpt>
      <trkpt lat="41.9555850" lon="-5.6558280">
        <ele>701.0</ele>
        <time>2021-10-13T08:16:27Z</time>
      </trkpt>
      <trkpt lat="41.9554530" lon="-5.6557740">
        <ele>701.0</ele>
        <time>2021-10-13T08:16:30Z</time>
      </trkpt>
      <trkpt lat="41.9552370" lon="-5.6556920">
        <ele>701.0</ele>
        <time>2021-10-13T08:16:35Z</time>
      </trkpt>
      <trkpt lat="41.9551500" lon="-5.6556600">
        <ele>701.0</ele>
        <time>2021-10-13T08:16:37Z</time>
      </trkpt>
      <trkpt lat="41.9551060" lon="-5.6556450">
        <ele>701.0</ele>
        <time>2021-10-13T08:16:38Z</time>
      </trkpt>
      <trkpt lat="41.9549700" lon="-5.6556080">
        <ele>700.8</ele>
        <time>2021-10-13T08:16:41Z</time>
      </trkpt>
      <trkpt lat="41.9547980" lon="-5.6555570">
        <ele>700.8</ele>
        <time>2021-10-13T08:16:45Z</time>
      </trkpt>
      <trkpt lat="41.9543160" lon="-5.6554520">
        <ele>700.8</ele>
        <time>2021-10-13T08:16:56Z</time>
      </trkpt>
      <trkpt lat="41.9539020" lon="-5.6554040">
        <ele>700.8</ele>
        <time>2021-10-13T08:17:05Z</time>
      </trkpt>
      <trkpt lat="41.9538550" lon="-5.6554010">
        <ele>700.8</ele>
        <time>2021-10-13T08:17:06Z</time>
      </trkpt>
      <trkpt lat="41.9537130" lon="-5.6553880">
        <ele>700.8</ele>
        <time>2021-10-13T08:17:09Z</time>
      </trkpt>
      <trkpt lat="41.9535250" lon="-5.6553820">
        <ele>700.8</ele>
        <time>2021-10-13T08:17:13Z</time>
      </trkpt>
      <trkpt lat="41.9534780" lon="-5.6553830">
        <ele>700.8</ele>
        <time>2021-10-13T08:17:14Z</time>
      </trkpt>
      <trkpt lat="41.9532040" lon="-5.6553790">
        <ele>700.8</ele>
        <time>2021-10-13T08:17:20Z</time>
      </trkpt>
      <trkpt lat="41.9531580" lon="-5.6553810">
        <ele>700.8</ele>
        <time>2021-10-13T08:17:21Z</time>
      </trkpt>
      <trkpt lat="41.9529710" lon="-5.6553940">
        <ele>700.8</ele>
        <time>2021-10-13T08:17:25Z</time>
      </trkpt>
      <trkpt lat="41.9527850" lon="-5.6554110">
        <ele>701.0</ele>
        <time>2021-10-13T08:17:29Z</time>
      </trkpt>
      <trkpt lat="41.9526120" lon="-5.6554220">
        <ele>701.2</ele>
        <time>2021-10-13T08:17:33Z</time>
      </trkpt>
      <trkpt lat="41.9523440" lon="-5.6554680">
        <ele>701.4</ele>
        <time>2021-10-13T08:17:39Z</time>
      </trkpt>
      <trkpt lat="41.9519870" lon="-5.6555790">
        <ele>701.6</ele>
        <time>2021-10-13T08:17:48Z</time>
      </trkpt>
      <trkpt lat="41.9518820" lon="-5.6556200">
        <ele>701.8</ele>
        <time>2021-10-13T08:17:51Z</time>
      </trkpt>
      <trkpt lat="41.9517440" lon="-5.6556710">
        <ele>702.0</ele>
        <time>2021-10-13T08:17:55Z</time>
      </trkpt>
      <trkpt lat="41.9516980" lon="-5.6556870">
        <ele>702.2</ele>
        <time>2021-10-13T08:17:56Z</time>
      </trkpt>
      <trkpt lat="41.9515960" lon="-5.6557110">
        <ele>702.2</ele>
        <time>2021-10-13T08:17:59Z</time>
      </trkpt>
      <trkpt lat="41.9515600" lon="-5.6557220">
        <ele>702.2</ele>
        <time>2021-10-13T08:18:00Z</time>
      </trkpt>
      <trkpt lat="41.9514740" lon="-5.6557440">
        <ele>702.4</ele>
        <time>2021-10-13T08:18:02Z</time>
      </trkpt>
      <trkpt lat="41.9513280" lon="-5.6557890">
        <ele>702.4</ele>
        <time>2021-10-13T08:18:06Z</time>
      </trkpt>
      <trkpt lat="41.9509840" lon="-5.6559060">
        <ele>702.8</ele>
        <time>2021-10-13T08:18:15Z</time>
      </trkpt>
      <trkpt lat="41.9509470" lon="-5.6559220">
        <ele>702.8</ele>
        <time>2021-10-13T08:18:16Z</time>
      </trkpt>
      <trkpt lat="41.9507220" lon="-5.6559950">
        <ele>703.0</ele>
        <time>2021-10-13T08:18:22Z</time>
      </trkpt>
      <trkpt lat="41.9506570" lon="-5.6560130">
        <ele>703.2</ele>
        <time>2021-10-13T08:18:24Z</time>
      </trkpt>
      <trkpt lat="41.9503610" lon="-5.6561110">
        <ele>703.8</ele>
        <time>2021-10-13T08:18:32Z</time>
      </trkpt>
      <trkpt lat="41.9503320" lon="-5.6561230">
        <ele>703.8</ele>
        <time>2021-10-13T08:18:33Z</time>
      </trkpt>
      <trkpt lat="41.9501850" lon="-5.6561710">
        <ele>704.0</ele>
        <time>2021-10-13T08:18:37Z</time>
      </trkpt>
      <trkpt lat="41.9500650" lon="-5.6562190">
        <ele>704.0</ele>
        <time>2021-10-13T08:18:40Z</time>
      </trkpt>
      <trkpt lat="41.9499940" lon="-5.6562540">
        <ele>704.2</ele>
        <time>2021-10-13T08:18:42Z</time>
      </trkpt>
      <trkpt lat="41.9497270" lon="-5.6563850">
        <ele>704.4</ele>
        <time>2021-10-13T08:18:49Z</time>
      </trkpt>
      <trkpt lat="41.9496520" lon="-5.6564190">
        <ele>704.6</ele>
        <time>2021-10-13T08:18:51Z</time>
      </trkpt>
      <trkpt lat="41.9495320" lon="-5.6564730">
        <ele>704.8</ele>
        <time>2021-10-13T08:18:54Z</time>
      </trkpt>
      <trkpt lat="41.9494200" lon="-5.6565240">
        <ele>705.0</ele>
        <time>2021-10-13T08:18:57Z</time>
      </trkpt>
      <trkpt lat="41.9493830" lon="-5.6565420">
        <ele>705.0</ele>
        <time>2021-10-13T08:18:58Z</time>
      </trkpt>
      <trkpt lat="41.9493070" lon="-5.6565800">
        <ele>705.2</ele>
        <time>2021-10-13T08:19:00Z</time>
      </trkpt>
      <trkpt lat="41.9491930" lon="-5.6566420">
        <ele>705.4</ele>
        <time>2021-10-13T08:19:03Z</time>
      </trkpt>
      <trkpt lat="41.9488540" lon="-5.6568250">
        <ele>705.6</ele>
        <time>2021-10-13T08:19:12Z</time>
      </trkpt>
      <trkpt lat="41.9485900" lon="-5.6569650">
        <ele>706.0</ele>
        <time>2021-10-13T08:19:19Z</time>
      </trkpt>
      <trkpt lat="41.9484790" lon="-5.6570210">
        <ele>706.0</ele>
        <time>2021-10-13T08:19:22Z</time>
      </trkpt>
      <trkpt lat="41.9484140" lon="-5.6570540">
        <ele>706.2</ele>
        <time>2021-10-13T08:19:24Z</time>
      </trkpt>
      <trkpt lat="41.9482980" lon="-5.6571140">
        <ele>706.2</ele>
        <time>2021-10-13T08:19:27Z</time>
      </trkpt>
      <trkpt lat="41.9482320" lon="-5.6571470">
        <ele>706.2</ele>
        <time>2021-10-13T08:19:29Z</time>
      </trkpt>
      <trkpt lat="41.9481120" lon="-5.6572030">
        <ele>706.4</ele>
        <time>2021-10-13T08:19:32Z</time>
      </trkpt>
      <trkpt lat="41.9479990" lon="-5.6572610">
        <ele>706.4</ele>
        <time>2021-10-13T08:19:35Z</time>
      </trkpt>
      <trkpt lat="41.9478970" lon="-5.6573090">
        <ele>706.4</ele>
        <time>2021-10-13T08:19:38Z</time>
      </trkpt>
      <trkpt lat="41.9477800" lon="-5.6573620">
        <ele>706.6</ele>
        <time>2021-10-13T08:19:41Z</time>
      </trkpt>
      <trkpt lat="41.9475640" lon="-5.6574610">
        <ele>706.8</ele>
        <time>2021-10-13T08:19:47Z</time>
      </trkpt>
      <trkpt lat="41.9475170" lon="-5.6574810">
        <ele>706.8</ele>
        <time>2021-10-13T08:19:48Z</time>
      </trkpt>
      <trkpt lat="41.9474100" lon="-5.6575220">
        <ele>707.0</ele>
        <time>2021-10-13T08:19:51Z</time>
      </trkpt>
      <trkpt lat="41.9473280" lon="-5.6575500">
        <ele>707.2</ele>
        <time>2021-10-13T08:19:53Z</time>
      </trkpt>
      <trkpt lat="41.9472540" lon="-5.6575710">
        <ele>707.4</ele>
        <time>2021-10-13T08:19:55Z</time>
      </trkpt>
      <trkpt lat="41.9471760" lon="-5.6575920">
        <ele>707.4</ele>
        <time>2021-10-13T08:19:57Z</time>
      </trkpt>
      <trkpt lat="41.9471360" lon="-5.6576030">
        <ele>707.4</ele>
        <time>2021-10-13T08:19:58Z</time>
      </trkpt>
      <trkpt lat="41.9470250" lon="-5.6576370">
        <ele>707.4</ele>
        <time>2021-10-13T08:20:01Z</time>
      </trkpt>
      <trkpt lat="41.9467810" lon="-5.6576960">
        <ele>707.6</ele>
        <time>2021-10-13T08:20:07Z</time>
      </trkpt>
      <trkpt lat="41.9465750" lon="-5.6577340">
        <ele>707.8</ele>
        <time>2021-10-13T08:20:12Z</time>
      </trkpt>
      <trkpt lat="41.9463000" lon="-5.6577610">
        <ele>707.8</ele>
        <time>2021-10-13T08:20:19Z</time>
      </trkpt>
      <trkpt lat="41.9462240" lon="-5.6577660">
        <ele>707.8</ele>
        <time>2021-10-13T08:20:21Z</time>
      </trkpt>
      <trkpt lat="41.9461850" lon="-5.6577660">
        <ele>707.8</ele>
        <time>2021-10-13T08:20:22Z</time>
      </trkpt>
      <trkpt lat="41.9459380" lon="-5.6577680">
        <ele>707.8</ele>
        <time>2021-10-13T08:20:28Z</time>
      </trkpt>
      <trkpt lat="41.9455620" lon="-5.6577640">
        <ele>707.6</ele>
        <time>2021-10-13T08:20:37Z</time>
      </trkpt>
      <trkpt lat="41.9453670" lon="-5.6577480">
        <ele>707.6</ele>
        <time>2021-10-13T08:20:42Z</time>
      </trkpt>
      <trkpt lat="41.9452990" lon="-5.6577410">
        <ele>707.6</ele>
        <time>2021-10-13T08:20:44Z</time>
      </trkpt>
      <trkpt lat="41.9452580" lon="-5.6577370">
        <ele>707.6</ele>
        <time>2021-10-13T08:20:45Z</time>
      </trkpt>
      <trkpt lat="41.9449980" lon="-5.6576950">
        <ele>707.4</ele>
        <time>2021-10-13T08:20:52Z</time>
      </trkpt>
      <trkpt lat="41.9447880" lon="-5.6576450">
        <ele>707.6</ele>
        <time>2021-10-13T08:20:58Z</time>
      </trkpt>
      <trkpt lat="41.9446060" lon="-5.6576050">
        <ele>707.6</ele>
        <time>2021-10-13T08:21:03Z</time>
      </trkpt>
      <trkpt lat="41.9444220" lon="-5.6575680">
        <ele>707.8</ele>
        <time>2021-10-13T08:21:08Z</time>
      </trkpt>
      <trkpt lat="41.9443390" lon="-5.6575560">
        <ele>707.8</ele>
        <time>2021-10-13T08:21:10Z</time>
      </trkpt>
      <trkpt lat="41.9440340" lon="-5.6575040">
        <ele>708.2</ele>
        <time>2021-10-13T08:21:18Z</time>
      </trkpt>
      <trkpt lat="41.9439480" lon="-5.6574880">
        <ele>708.2</ele>
        <time>2021-10-13T08:21:20Z</time>
      </trkpt>
      <trkpt lat="41.9439100" lon="-5.6574800">
        <ele>708.4</ele>
        <time>2021-10-13T08:21:21Z</time>
      </trkpt>
      <trkpt lat="41.9435570" lon="-5.6574150">
        <ele>708.6</ele>
        <time>2021-10-13T08:21:30Z</time>
      </trkpt>
      <trkpt lat="41.9435180" lon="-5.6574070">
        <ele>708.6</ele>
        <time>2021-10-13T08:21:31Z</time>
      </trkpt>
      <trkpt lat="41.9433280" lon="-5.6573730">
        <ele>708.8</ele>
        <time>2021-10-13T08:21:36Z</time>
      </trkpt>
      <trkpt lat="41.9431730" lon="-5.6573470">
        <ele>709.0</ele>
        <time>2021-10-13T08:21:40Z</time>
      </trkpt>
      <trkpt lat="41.9429040" lon="-5.6572940">
        <ele>709.2</ele>
        <time>2021-10-13T08:21:47Z</time>
      </trkpt>
      <trkpt lat="41.9427930" lon="-5.6572740">
        <ele>709.2</ele>
        <time>2021-10-13T08:21:50Z</time>
      </trkpt>
      <trkpt lat="41.9427570" lon="-5.6572670">
        <ele>709.2</ele>
        <time>2021-10-13T08:21:51Z</time>
      </trkpt>
      <trkpt lat="41.9426420" lon="-5.6572460">
        <ele>709.4</ele>
        <time>2021-10-13T08:21:54Z</time>
      </trkpt>
      <trkpt lat="41.9424490" lon="-5.6572110">
        <ele>709.6</ele>
        <time>2021-10-13T08:21:59Z</time>
      </trkpt>
      <trkpt lat="41.9423310" lon="-5.6571970">
        <ele>709.8</ele>
        <time>2021-10-13T08:22:02Z</time>
      </trkpt>
      <trkpt lat="41.9422500" lon="-5.6571850">
        <ele>709.8</ele>
        <time>2021-10-13T08:22:04Z</time>
      </trkpt>
      <trkpt lat="41.9420050" lon="-5.6571570">
        <ele>709.8</ele>
        <time>2021-10-13T08:22:10Z</time>
      </trkpt>
      <trkpt lat="41.9418030" lon="-5.6571400">
        <ele>710.2</ele>
        <time>2021-10-13T08:22:15Z</time>
      </trkpt>
      <trkpt lat="41.9417610" lon="-5.6571380">
        <ele>710.4</ele>
        <time>2021-10-13T08:22:16Z</time>
      </trkpt>
      <trkpt lat="41.9416420" lon="-5.6571380">
        <ele>710.6</ele>
        <time>2021-10-13T08:22:19Z</time>
      </trkpt>
      <trkpt lat="41.9413000" lon="-5.6571260">
        <ele>710.8</ele>
        <time>2021-10-13T08:22:28Z</time>
      </trkpt>
      <trkpt lat="41.9410810" lon="-5.6571220">
        <ele>710.8</ele>
        <time>2021-10-13T08:22:34Z</time>
      </trkpt>
      <trkpt lat="41.9409910" lon="-5.6571270">
        <ele>711.0</ele>
        <time>2021-10-13T08:22:36Z</time>
      </trkpt>
      <trkpt lat="41.9409460" lon="-5.6571280">
        <ele>711.0</ele>
        <time>2021-10-13T08:22:37Z</time>
      </trkpt>
      <trkpt lat="41.9409080" lon="-5.6571300">
        <ele>711.0</ele>
        <time>2021-10-13T08:22:38Z</time>
      </trkpt>
      <trkpt lat="41.9408780" lon="-5.6571320">
        <ele>711.0</ele>
        <time>2021-10-13T08:22:39Z</time>
      </trkpt>
      <trkpt lat="41.9407530" lon="-5.6571340">
        <ele>711.4</ele>
        <time>2021-10-13T08:22:42Z</time>
      </trkpt>
      <trkpt lat="41.9406830" lon="-5.6571340">
        <ele>711.6</ele>
        <time>2021-10-13T08:22:44Z</time>
      </trkpt>
      <trkpt lat="41.9405680" lon="-5.6571230">
        <ele>711.6</ele>
        <time>2021-10-13T08:22:47Z</time>
      </trkpt>
      <trkpt lat="41.9404920" lon="-5.6571300">
        <ele>711.6</ele>
        <time>2021-10-13T08:22:49Z</time>
      </trkpt>
      <trkpt lat="41.9404200" lon="-5.6571390">
        <ele>711.8</ele>
        <time>2021-10-13T08:22:51Z</time>
      </trkpt>
      <trkpt lat="41.9403320" lon="-5.6571490">
        <ele>711.8</ele>
        <time>2021-10-13T08:22:53Z</time>
      </trkpt>
      <trkpt lat="41.9402910" lon="-5.6571590">
        <ele>711.8</ele>
        <time>2021-10-13T08:22:54Z</time>
      </trkpt>
      <trkpt lat="41.9399330" lon="-5.6572230">
        <ele>711.8</ele>
        <time>2021-10-13T08:23:03Z</time>
      </trkpt>
      <trkpt lat="41.9395310" lon="-5.6573150">
        <ele>711.8</ele>
        <time>2021-10-13T08:23:13Z</time>
      </trkpt>
      <trkpt lat="41.9394510" lon="-5.6573380">
        <ele>711.8</ele>
        <time>2021-10-13T08:23:15Z</time>
      </trkpt>
      <trkpt lat="41.9394120" lon="-5.6573470">
        <ele>711.8</ele>
        <time>2021-10-13T08:23:16Z</time>
      </trkpt>
      <trkpt lat="41.9391270" lon="-5.6574200">
        <ele>711.6</ele>
        <time>2021-10-13T08:23:24Z</time>
      </trkpt>
      <trkpt lat="41.9388180" lon="-5.6575390">
        <ele>711.8</ele>
        <time>2021-10-13T08:23:32Z</time>
      </trkpt>
      <trkpt lat="41.9386640" lon="-5.6576050">
        <ele>711.8</ele>
        <time>2021-10-13T08:23:36Z</time>
      </trkpt>
      <trkpt lat="41.9385940" lon="-5.6576380">
        <ele>711.6</ele>
        <time>2021-10-13T08:23:38Z</time>
      </trkpt>
      <trkpt lat="41.9385570" lon="-5.6576500">
        <ele>711.6</ele>
        <time>2021-10-13T08:23:39Z</time>
      </trkpt>
      <trkpt lat="41.9383810" lon="-5.6577270">
        <ele>711.6</ele>
        <time>2021-10-13T08:23:45Z</time>
      </trkpt>
      <trkpt lat="41.9381250" lon="-5.6578510">
        <ele>711.6</ele>
        <time>2021-10-13T08:23:53Z</time>
      </trkpt>
      <trkpt lat="41.9379190" lon="-5.6579550">
        <ele>711.6</ele>
        <time>2021-10-13T08:23:59Z</time>
      </trkpt>
      <trkpt lat="41.9378460" lon="-5.6579930">
        <ele>711.6</ele>
        <time>2021-10-13T08:24:01Z</time>
      </trkpt>
      <trkpt lat="41.9376920" lon="-5.6580690">
        <ele>711.6</ele>
        <time>2021-10-13T08:24:05Z</time>
      </trkpt>
      <trkpt lat="41.9375420" lon="-5.6581460">
        <ele>711.6</ele>
        <time>2021-10-13T08:24:09Z</time>
      </trkpt>
      <trkpt lat="41.9373970" lon="-5.6582170">
        <ele>711.6</ele>
        <time>2021-10-13T08:24:13Z</time>
      </trkpt>
      <trkpt lat="41.9371880" lon="-5.6583350">
        <ele>711.6</ele>
        <time>2021-10-13T08:24:19Z</time>
      </trkpt>
      <trkpt lat="41.9369470" lon="-5.6584650">
        <ele>711.6</ele>
        <time>2021-10-13T08:24:26Z</time>
      </trkpt>
      <trkpt lat="41.9366090" lon="-5.6586340">
        <ele>711.8</ele>
        <time>2021-10-13T08:24:35Z</time>
      </trkpt>
      <trkpt lat="41.9362940" lon="-5.6588040">
        <ele>711.8</ele>
        <time>2021-10-13T08:24:44Z</time>
      </trkpt>
      <trkpt lat="41.9361800" lon="-5.6588810">
        <ele>711.8</ele>
        <time>2021-10-13T08:24:49Z</time>
      </trkpt>
      <trkpt lat="41.9361760" lon="-5.6588860">
        <ele>711.8</ele>
        <time>2021-10-13T08:24:51Z</time>
      </trkpt>
      <trkpt lat="41.9361760" lon="-5.6588860">
        <ele>711.8</ele>
        <time>2021-10-13T08:24:52Z</time>
      </trkpt>
      <trkpt lat="41.9361210" lon="-5.6589190">
        <ele>711.0</ele>
        <time>2021-10-13T08:27:24Z</time>
      </trkpt>
      <trkpt lat="41.9360260" lon="-5.6589550">
        <ele>711.0</ele>
        <time>2021-10-13T08:27:28Z</time>
      </trkpt>
      <trkpt lat="41.9359490" lon="-5.6589840">
        <ele>711.0</ele>
        <time>2021-10-13T08:27:32Z</time>
      </trkpt>
      <trkpt lat="41.9359180" lon="-5.6589920">
        <ele>711.0</ele>
        <time>2021-10-13T08:27:33Z</time>
      </trkpt>
      <trkpt lat="41.9358310" lon="-5.6590390">
        <ele>711.0</ele>
        <time>2021-10-13T08:27:36Z</time>
      </trkpt>
      <trkpt lat="41.9357680" lon="-5.6590770">
        <ele>711.0</ele>
        <time>2021-10-13T08:27:38Z</time>
      </trkpt>
      <trkpt lat="41.9356620" lon="-5.6591430">
        <ele>711.0</ele>
        <time>2021-10-13T08:27:41Z</time>
      </trkpt>
      <trkpt lat="41.9355670" lon="-5.6592010">
        <ele>711.0</ele>
        <time>2021-10-13T08:27:44Z</time>
      </trkpt>
      <trkpt lat="41.9354650" lon="-5.6592410">
        <ele>711.2</ele>
        <time>2021-10-13T08:27:47Z</time>
      </trkpt>
      <trkpt lat="41.9352390" lon="-5.6593680">
        <ele>710.8</ele>
        <time>2021-10-13T08:27:53Z</time>
      </trkpt>
      <trkpt lat="41.9351270" lon="-5.6594200">
        <ele>710.8</ele>
        <time>2021-10-13T08:27:56Z</time>
      </trkpt>
      <trkpt lat="41.9349100" lon="-5.6595360">
        <ele>710.8</ele>
        <time>2021-10-13T08:28:02Z</time>
      </trkpt>
      <trkpt lat="41.9347670" lon="-5.6596050">
        <ele>710.8</ele>
        <time>2021-10-13T08:28:06Z</time>
      </trkpt>
      <trkpt lat="41.9345390" lon="-5.6597270">
        <ele>711.0</ele>
        <time>2021-10-13T08:28:14Z</time>
      </trkpt>
      <trkpt lat="41.9344370" lon="-5.6597810">
        <ele>711.2</ele>
        <time>2021-10-13T08:28:19Z</time>
      </trkpt>
      <trkpt lat="41.9344080" lon="-5.6597930">
        <ele>711.2</ele>
        <time>2021-10-13T08:28:21Z</time>
      </trkpt>
      <trkpt lat="41.9344010" lon="-5.6597970">
        <ele>711.2</ele>
        <time>2021-10-13T08:28:24Z</time>
      </trkpt>
      <trkpt lat="41.9343590" lon="-5.6598030">
        <ele>711.0</ele>
        <time>2021-10-13T08:29:24Z</time>
      </trkpt>
      <trkpt lat="41.9343320" lon="-5.6597940">
        <ele>711.0</ele>
        <time>2021-10-13T08:29:25Z</time>
      </trkpt>
      <trkpt lat="41.9342720" lon="-5.6598050">
        <ele>711.0</ele>
        <time>2021-10-13T08:29:26Z</time>
      </trkpt>
      <trkpt lat="41.9342120" lon="-5.6598320">
        <ele>711.0</ele>
        <time>2021-10-13T08:29:28Z</time>
      </trkpt>
      <trkpt lat="41.9341820" lon="-5.6598430">
        <ele>711.0</ele>
        <time>2021-10-13T08:29:29Z</time>
      </trkpt>
      <trkpt lat="41.9341000" lon="-5.6598680">
        <ele>711.0</ele>
        <time>2021-10-13T08:29:32Z</time>
      </trkpt>
      <trkpt lat="41.9340090" lon="-5.6599110">
        <ele>711.0</ele>
        <time>2021-10-13T08:29:35Z</time>
      </trkpt>
      <trkpt lat="41.9339210" lon="-5.6599660">
        <ele>711.0</ele>
        <time>2021-10-13T08:29:38Z</time>
      </trkpt>
      <trkpt lat="41.9338410" lon="-5.6600150">
        <ele>711.2</ele>
        <time>2021-10-13T08:29:42Z</time>
      </trkpt>
      <trkpt lat="41.9336180" lon="-5.6600650">
        <ele>711.2</ele>
        <time>2021-10-13T08:29:49Z</time>
      </trkpt>
      <trkpt lat="41.9335020" lon="-5.6600260">
        <ele>711.2</ele>
        <time>2021-10-13T08:29:52Z</time>
      </trkpt>
      <trkpt lat="41.9334560" lon="-5.6600520">
        <ele>711.2</ele>
        <time>2021-10-13T08:29:54Z</time>
      </trkpt>
      <trkpt lat="41.9333390" lon="-5.6601240">
        <ele>711.2</ele>
        <time>2021-10-13T08:29:59Z</time>
      </trkpt>
      <trkpt lat="41.9332500" lon="-5.6601790">
        <ele>711.2</ele>
        <time>2021-10-13T08:30:03Z</time>
      </trkpt>
      <trkpt lat="41.9331330" lon="-5.6602380">
        <ele>711.2</ele>
        <time>2021-10-13T08:30:09Z</time>
      </trkpt>
      <trkpt lat="41.9330740" lon="-5.6602660">
        <ele>711.2</ele>
        <time>2021-10-13T08:30:11Z</time>
      </trkpt>
      <trkpt lat="41.9329370" lon="-5.6603410">
        <ele>711.2</ele>
        <time>2021-10-13T08:30:16Z</time>
      </trkpt>
      <trkpt lat="41.9326690" lon="-5.6605110">
        <ele>711.2</ele>
        <time>2021-10-13T08:30:28Z</time>
      </trkpt>
      <trkpt lat="41.9325880" lon="-5.6606280">
        <ele>711.2</ele>
        <time>2021-10-13T08:30:34Z</time>
      </trkpt>
      <trkpt lat="41.9326100" lon="-5.6607340">
        <ele>710.8</ele>
        <time>2021-10-13T08:30:38Z</time>
      </trkpt>
      <trkpt lat="41.9326170" lon="-5.6607470">
        <ele>710.8</ele>
        <time>2021-10-13T08:30:40Z</time>
      </trkpt>
      <trkpt lat="41.9326170" lon="-5.6607470">
        <ele>710.8</ele>
        <time>2021-10-13T08:30:41Z</time>
      </trkpt>
      <trkpt lat="41.9326270" lon="-5.6608140">
        <ele>710.0</ele>
        <time>2021-10-13T08:31:26Z</time>
      </trkpt>
      <trkpt lat="41.9326330" lon="-5.6608560">
        <ele>710.0</ele>
        <time>2021-10-13T08:31:27Z</time>
      </trkpt>
      <trkpt lat="41.9326400" lon="-5.6608920">
        <ele>710.0</ele>
        <time>2021-10-13T08:31:28Z</time>
      </trkpt>
      <trkpt lat="41.9326560" lon="-5.6611110">
        <ele>709.6</ele>
        <time>2021-10-13T08:31:32Z</time>
      </trkpt>
      <trkpt lat="41.9326590" lon="-5.6611550">
        <ele>709.2</ele>
        <time>2021-10-13T08:31:34Z</time>
      </trkpt>
      <trkpt lat="41.9327090" lon="-5.6613820">
        <ele>708.4</ele>
        <time>2021-10-13T08:31:38Z</time>
      </trkpt>
      <trkpt lat="41.9328100" lon="-5.6616700">
        <ele>707.4</ele>
        <time>2021-10-13T08:31:42Z</time>
      </trkpt>
      <trkpt lat="41.9328640" lon="-5.6618120">
        <ele>707.2</ele>
        <time>2021-10-13T08:31:45Z</time>
      </trkpt>
      <trkpt lat="41.9329790" lon="-5.6620970">
        <ele>707.2</ele>
        <time>2021-10-13T08:31:52Z</time>
      </trkpt>
      <trkpt lat="41.9330680" lon="-5.6623170">
        <ele>707.4</ele>
        <time>2021-10-13T08:31:58Z</time>
      </trkpt>
      <trkpt lat="41.9332030" lon="-5.6626440">
        <ele>707.8</ele>
        <time>2021-10-13T08:32:06Z</time>
      </trkpt>
      <trkpt lat="41.9333420" lon="-5.6630280">
        <ele>708.0</ele>
        <time>2021-10-13T08:32:16Z</time>
      </trkpt>
      <trkpt lat="41.9334060" lon="-5.6631940">
        <ele>708.2</ele>
        <time>2021-10-13T08:32:20Z</time>
      </trkpt>
      <trkpt lat="41.9334600" lon="-5.6633260">
        <ele>708.4</ele>
        <time>2021-10-13T08:32:24Z</time>
      </trkpt>
      <trkpt lat="41.9335680" lon="-5.6636600">
        <ele>708.4</ele>
        <time>2021-10-13T08:32:30Z</time>
      </trkpt>
      <trkpt lat="41.9337490" lon="-5.6641480">
        <ele>709.0</ele>
        <time>2021-10-13T08:32:41Z</time>
      </trkpt>
      <trkpt lat="41.9338370" lon="-5.6643870">
        <ele>709.4</ele>
        <time>2021-10-13T08:32:47Z</time>
      </trkpt>
      <trkpt lat="41.9338450" lon="-5.6644250">
        <ele>709.8</ele>
        <time>2021-10-13T08:32:49Z</time>
      </trkpt>
      <trkpt lat="41.9338700" lon="-5.6645170">
        <ele>709.8</ele>
        <time>2021-10-13T08:32:51Z</time>
      </trkpt>
      <trkpt lat="41.9339030" lon="-5.6645930">
        <ele>709.8</ele>
        <time>2021-10-13T08:32:55Z</time>
      </trkpt>
      <trkpt lat="41.9339030" lon="-5.6645930">
        <ele>710.0</ele>
        <time>2021-10-13T08:32:57Z</time>
      </trkpt>
      <trkpt lat="41.9339170" lon="-5.6646320">
        <ele>710.0</ele>
        <time>2021-10-13T08:33:13Z</time>
      </trkpt>
      <trkpt lat="41.9339170" lon="-5.6646320">
        <ele>709.8</ele>
        <time>2021-10-13T08:33:14Z</time>
      </trkpt>
      <trkpt lat="41.9339160" lon="-5.6646740">
        <ele>709.8</ele>
        <time>2021-10-13T08:33:15Z</time>
      </trkpt>
      <trkpt lat="41.9339310" lon="-5.6647490">
        <ele>709.6</ele>
        <time>2021-10-13T08:33:19Z</time>
      </trkpt>
      <trkpt lat="41.9339910" lon="-5.6649180">
        <ele>709.8</ele>
        <time>2021-10-13T08:33:24Z</time>
      </trkpt>
      <trkpt lat="41.9340860" lon="-5.6652100">
        <ele>709.4</ele>
        <time>2021-10-13T08:33:31Z</time>
      </trkpt>
      <trkpt lat="41.9341790" lon="-5.6654120">
        <ele>708.2</ele>
        <time>2021-10-13T08:33:36Z</time>
      </trkpt>
      <trkpt lat="41.9341850" lon="-5.6654390">
        <ele>707.6</ele>
        <time>2021-10-13T08:33:37Z</time>
      </trkpt>
      <trkpt lat="41.9341810" lon="-5.6654640">
        <ele>707.2</ele>
        <time>2021-10-13T08:33:38Z</time>
      </trkpt>
      <trkpt lat="41.9341810" lon="-5.6654640">
        <ele>707.0</ele>
        <time>2021-10-13T08:33:39Z</time>
      </trkpt>
      <trkpt lat="41.9341570" lon="-5.6655480">
        <ele>706.0</ele>
        <time>2021-10-13T08:33:41Z</time>
      </trkpt>
      <trkpt lat="41.9341170" lon="-5.6656310">
        <ele>704.6</ele>
        <time>2021-10-13T08:33:44Z</time>
      </trkpt>
      <trkpt lat="41.9340740" lon="-5.6656890">
        <ele>704.0</ele>
        <time>2021-10-13T08:33:46Z</time>
      </trkpt>
      <trkpt lat="41.9340170" lon="-5.6657380">
        <ele>703.6</ele>
        <time>2021-10-13T08:33:48Z</time>
      </trkpt>
      <trkpt lat="41.9339570" lon="-5.6657760">
        <ele>702.6</ele>
        <time>2021-10-13T08:33:50Z</time>
      </trkpt>
      <trkpt lat="41.9339280" lon="-5.6657980">
        <ele>702.0</ele>
        <time>2021-10-13T08:33:51Z</time>
      </trkpt>
      <trkpt lat="41.9338700" lon="-5.6658470">
        <ele>701.0</ele>
        <time>2021-10-13T08:33:53Z</time>
      </trkpt>
      <trkpt lat="41.9338260" lon="-5.6658940">
        <ele>700.0</ele>
        <time>2021-10-13T08:33:56Z</time>
      </trkpt>
      <trkpt lat="41.9338030" lon="-5.6659180">
        <ele>699.2</ele>
        <time>2021-10-13T08:33:58Z</time>
      </trkpt>
      <trkpt lat="41.9338030" lon="-5.6659180">
        <ele>698.4</ele>
        <time>2021-10-13T08:33:59Z</time>
      </trkpt>
      <trkpt lat="41.9337530" lon="-5.6659390">
        <ele>696.6</ele>
        <time>2021-10-13T08:34:21Z</time>
      </trkpt>
      <trkpt lat="41.9337410" lon="-5.6659420">
        <ele>696.6</ele>
        <time>2021-10-13T08:34:22Z</time>
      </trkpt>
      <trkpt lat="41.9337350" lon="-5.6659430">
        <ele>696.6</ele>
        <time>2021-10-13T08:34:23Z</time>
      </trkpt>
      <trkpt lat="41.9337350" lon="-5.6659430">
        <ele>696.6</ele>
        <time>2021-10-13T08:34:24Z</time>
      </trkpt>
      <trkpt lat="41.9337050" lon="-5.6659450">
        <ele>696.6</ele>
        <time>2021-10-13T08:34:44Z</time>
      </trkpt>
      <trkpt lat="41.9336540" lon="-5.6659340">
        <ele>696.6</ele>
        <time>2021-10-13T08:34:46Z</time>
      </trkpt>
      <trkpt lat="41.9334850" lon="-5.6659070">
        <ele>696.4</ele>
        <time>2021-10-13T08:34:52Z</time>
      </trkpt>
      <trkpt lat="41.9332340" lon="-5.6658870">
        <ele>696.4</ele>
        <time>2021-10-13T08:34:58Z</time>
      </trkpt>
      <trkpt lat="41.9330410" lon="-5.6658650">
        <ele>696.6</ele>
        <time>2021-10-13T08:35:03Z</time>
      </trkpt>
      <trkpt lat="41.9329700" lon="-5.6658590">
        <ele>696.6</ele>
        <time>2021-10-13T08:35:06Z</time>
      </trkpt>
      <trkpt lat="41.9326830" lon="-5.6658430">
        <ele>696.6</ele>
        <time>2021-10-13T08:35:12Z</time>
      </trkpt>
      <trkpt lat="41.9326110" lon="-5.6658580">
        <ele>696.6</ele>
        <time>2021-10-13T08:35:14Z</time>
      </trkpt>
      <trkpt lat="41.9325240" lon="-5.6658780">
        <ele>696.6</ele>
        <time>2021-10-13T08:35:16Z</time>
      </trkpt>
      <trkpt lat="41.9323740" lon="-5.6659380">
        <ele>696.6</ele>
        <time>2021-10-13T08:35:20Z</time>
      </trkpt>
      <trkpt lat="41.9322140" lon="-5.6660000">
        <ele>696.6</ele>
        <time>2021-10-13T08:35:25Z</time>
      </trkpt>
      <trkpt lat="41.9320120" lon="-5.6660810">
        <ele>696.4</ele>
        <time>2021-10-13T08:35:29Z</time>
      </trkpt>
      <trkpt lat="41.9318870" lon="-5.6661330">
        <ele>696.4</ele>
        <time>2021-10-13T08:35:32Z</time>
      </trkpt>
      <trkpt lat="41.9317670" lon="-5.6661820">
        <ele>696.4</ele>
        <time>2021-10-13T08:35:35Z</time>
      </trkpt>
      <trkpt lat="41.9314600" lon="-5.6662980">
        <ele>696.4</ele>
        <time>2021-10-13T08:35:43Z</time>
      </trkpt>
      <trkpt lat="41.9314600" lon="-5.6662980">
        <ele>696.4</ele>
        <time>2021-10-13T08:35:44Z</time>
      </trkpt>
      <trkpt lat="41.9310070" lon="-5.6664540">
        <ele>696.8</ele>
        <time>2021-10-13T08:35:54Z</time>
      </trkpt>
      <trkpt lat="41.9308150" lon="-5.6665320">
        <ele>696.8</ele>
        <time>2021-10-13T08:35:59Z</time>
      </trkpt>
      <trkpt lat="41.9307270" lon="-5.6665670">
        <ele>696.6</ele>
        <time>2021-10-13T08:36:01Z</time>
      </trkpt>
      <trkpt lat="41.9306170" lon="-5.6665960">
        <ele>696.6</ele>
        <time>2021-10-13T08:36:04Z</time>
      </trkpt>
      <trkpt lat="41.9303210" lon="-5.6667080">
        <ele>696.6</ele>
        <time>2021-10-13T08:36:12Z</time>
      </trkpt>
      <trkpt lat="41.9302820" lon="-5.6667300">
        <ele>696.6</ele>
        <time>2021-10-13T08:36:13Z</time>
      </trkpt>
      <trkpt lat="41.9302120" lon="-5.6668080">
        <ele>696.6</ele>
        <time>2021-10-13T08:36:17Z</time>
      </trkpt>
      <trkpt lat="41.9301920" lon="-5.6669120">
        <ele>696.4</ele>
        <time>2021-10-13T08:36:18Z</time>
      </trkpt>
      <trkpt lat="41.9302140" lon="-5.6670130">
        <ele>696.2</ele>
        <time>2021-10-13T08:36:20Z</time>
      </trkpt>
      <trkpt lat="41.9303130" lon="-5.6673700">
        <ele>695.2</ele>
        <time>2021-10-13T08:36:26Z</time>
      </trkpt>
      <trkpt lat="41.9303300" lon="-5.6674390">
        <ele>695.0</ele>
        <time>2021-10-13T08:36:27Z</time>
      </trkpt>
      <trkpt lat="41.9304450" lon="-5.6678390">
        <ele>694.2</ele>
        <time>2021-10-13T08:36:34Z</time>
      </trkpt>
      <trkpt lat="41.9304610" lon="-5.6679020">
        <ele>694.0</ele>
        <time>2021-10-13T08:36:36Z</time>
      </trkpt>
      <trkpt lat="41.9306310" lon="-5.6684730">
        <ele>693.8</ele>
        <time>2021-10-13T08:36:44Z</time>
      </trkpt>
      <trkpt lat="41.9307970" lon="-5.6690880">
        <ele>693.6</ele>
        <time>2021-10-13T08:36:54Z</time>
      </trkpt>
      <trkpt lat="41.9309220" lon="-5.6695610">
        <ele>694.0</ele>
        <time>2021-10-13T08:37:02Z</time>
      </trkpt>
      <trkpt lat="41.9310380" lon="-5.6699610">
        <ele>694.2</ele>
        <time>2021-10-13T08:37:09Z</time>
      </trkpt>
      <trkpt lat="41.9310860" lon="-5.6701310">
        <ele>694.2</ele>
        <time>2021-10-13T08:37:12Z</time>
      </trkpt>
      <trkpt lat="41.9311310" lon="-5.6703030">
        <ele>694.2</ele>
        <time>2021-10-13T08:37:15Z</time>
      </trkpt>
      <trkpt lat="41.9312760" lon="-5.6708640">
        <ele>694.2</ele>
        <time>2021-10-13T08:37:25Z</time>
      </trkpt>
      <trkpt lat="41.9314200" lon="-5.6713680">
        <ele>694.2</ele>
        <time>2021-10-13T08:37:34Z</time>
      </trkpt>
      <trkpt lat="41.9314460" lon="-5.6714660">
        <ele>694.0</ele>
        <time>2021-10-13T08:37:36Z</time>
      </trkpt>
      <trkpt lat="41.9315800" lon="-5.6719480">
        <ele>693.8</ele>
        <time>2021-10-13T08:37:45Z</time>
      </trkpt>
      <trkpt lat="41.9317040" lon="-5.6723890">
        <ele>693.8</ele>
        <time>2021-10-13T08:37:53Z</time>
      </trkpt>
      <trkpt lat="41.9317460" lon="-5.6725550">
        <ele>694.0</ele>
        <time>2021-10-13T08:37:56Z</time>
      </trkpt>
      <trkpt lat="41.9317610" lon="-5.6726050">
        <ele>694.0</ele>
        <time>2021-10-13T08:37:57Z</time>
      </trkpt>
      <trkpt lat="41.9317900" lon="-5.6727180">
        <ele>694.0</ele>
        <time>2021-10-13T08:37:59Z</time>
      </trkpt>
      <trkpt lat="41.9318200" lon="-5.6728290">
        <ele>693.8</ele>
        <time>2021-10-13T08:38:01Z</time>
      </trkpt>
      <trkpt lat="41.9318680" lon="-5.6729880">
        <ele>693.8</ele>
        <time>2021-10-13T08:38:04Z</time>
      </trkpt>
      <trkpt lat="41.9318840" lon="-5.6730380">
        <ele>693.6</ele>
        <time>2021-10-13T08:38:05Z</time>
      </trkpt>
      <trkpt lat="41.9319730" lon="-5.6733660">
        <ele>693.2</ele>
        <time>2021-10-13T08:38:11Z</time>
      </trkpt>
      <trkpt lat="41.9320310" lon="-5.6735860">
        <ele>693.2</ele>
        <time>2021-10-13T08:38:15Z</time>
      </trkpt>
      <trkpt lat="41.9320570" lon="-5.6736940">
        <ele>693.4</ele>
        <time>2021-10-13T08:38:17Z</time>
      </trkpt>
      <trkpt lat="41.9321730" lon="-5.6741300">
        <ele>693.2</ele>
        <time>2021-10-13T08:38:25Z</time>
      </trkpt>
      <trkpt lat="41.9321940" lon="-5.6742320">
        <ele>693.2</ele>
        <time>2021-10-13T08:38:27Z</time>
      </trkpt>
      <trkpt lat="41.9321950" lon="-5.6742880">
        <ele>693.2</ele>
        <time>2021-10-13T08:38:29Z</time>
      </trkpt>
      <trkpt lat="41.9321740" lon="-5.6743950">
        <ele>693.2</ele>
        <time>2021-10-13T08:38:30Z</time>
      </trkpt>
      <trkpt lat="41.9320910" lon="-5.6745170">
        <ele>693.2</ele>
        <time>2021-10-13T08:38:33Z</time>
      </trkpt>
      <trkpt lat="41.9320540" lon="-5.6745470">
        <ele>693.2</ele>
        <time>2021-10-13T08:38:34Z</time>
      </trkpt>
      <trkpt lat="41.9317460" lon="-5.6748170">
        <ele>693.2</ele>
        <time>2021-10-13T08:38:42Z</time>
      </trkpt>
      <trkpt lat="41.9316370" lon="-5.6749070">
        <ele>693.2</ele>
        <time>2021-10-13T08:38:45Z</time>
      </trkpt>
      <trkpt lat="41.9314480" lon="-5.6750730">
        <ele>693.2</ele>
        <time>2021-10-13T08:38:50Z</time>
      </trkpt>
      <trkpt lat="41.9312090" lon="-5.6752890">
        <ele>692.8</ele>
        <time>2021-10-13T08:38:56Z</time>
      </trkpt>
      <trkpt lat="41.9311340" lon="-5.6753520">
        <ele>693.0</ele>
        <time>2021-10-13T08:38:58Z</time>
      </trkpt>
      <trkpt lat="41.9310570" lon="-5.6754180">
        <ele>693.0</ele>
        <time>2021-10-13T08:39:00Z</time>
      </trkpt>
      <trkpt lat="41.9309480" lon="-5.6755130">
        <ele>693.0</ele>
        <time>2021-10-13T08:39:03Z</time>
      </trkpt>
      <trkpt lat="41.9308750" lon="-5.6755750">
        <ele>693.0</ele>
        <time>2021-10-13T08:39:05Z</time>
      </trkpt>
      <trkpt lat="41.9307640" lon="-5.6756780">
        <ele>693.0</ele>
        <time>2021-10-13T08:39:08Z</time>
      </trkpt>
      <trkpt lat="41.9306150" lon="-5.6758080">
        <ele>693.0</ele>
        <time>2021-10-13T08:39:12Z</time>
      </trkpt>
      <trkpt lat="41.9305430" lon="-5.6758710">
        <ele>693.0</ele>
        <time>2021-10-13T08:39:15Z</time>
      </trkpt>
      <trkpt lat="41.9303550" lon="-5.6760450">
        <ele>693.0</ele>
        <time>2021-10-13T08:39:19Z</time>
      </trkpt>
      <trkpt lat="41.9302810" lon="-5.6761090">
        <ele>693.0</ele>
        <time>2021-10-13T08:39:21Z</time>
      </trkpt>
      <trkpt lat="41.9301660" lon="-5.6762090">
        <ele>693.0</ele>
        <time>2021-10-13T08:39:24Z</time>
      </trkpt>
      <trkpt lat="41.9300500" lon="-5.6763100">
        <ele>693.2</ele>
        <time>2021-10-13T08:39:27Z</time>
      </trkpt>
      <trkpt lat="41.9296330" lon="-5.6766730">
        <ele>692.8</ele>
        <time>2021-10-13T08:39:38Z</time>
      </trkpt>
      <trkpt lat="41.9295520" lon="-5.6767490">
        <ele>692.8</ele>
        <time>2021-10-13T08:39:40Z</time>
      </trkpt>
      <trkpt lat="41.9293230" lon="-5.6769450">
        <ele>693.0</ele>
        <time>2021-10-13T08:39:46Z</time>
      </trkpt>
      <trkpt lat="41.9292740" lon="-5.6769860">
        <ele>693.0</ele>
        <time>2021-10-13T08:39:47Z</time>
      </trkpt>
      <trkpt lat="41.9291190" lon="-5.6771260">
        <ele>692.8</ele>
        <time>2021-10-13T08:39:51Z</time>
      </trkpt>
      <trkpt lat="41.9287980" lon="-5.6774030">
        <ele>692.8</ele>
        <time>2021-10-13T08:40:00Z</time>
      </trkpt>
      <trkpt lat="41.9283320" lon="-5.6778110">
        <ele>692.8</ele>
        <time>2021-10-13T08:40:12Z</time>
      </trkpt>
      <trkpt lat="41.9282560" lon="-5.6778740">
        <ele>693.0</ele>
        <time>2021-10-13T08:40:14Z</time>
      </trkpt>
      <trkpt lat="41.9281030" lon="-5.6780160">
        <ele>693.0</ele>
        <time>2021-10-13T08:40:18Z</time>
      </trkpt>
      <trkpt lat="41.9280300" lon="-5.6780890">
        <ele>693.0</ele>
        <time>2021-10-13T08:40:20Z</time>
      </trkpt>
      <trkpt lat="41.9278450" lon="-5.6782530">
        <ele>692.8</ele>
        <time>2021-10-13T08:40:25Z</time>
      </trkpt>
      <trkpt lat="41.9277660" lon="-5.6783180">
        <ele>693.0</ele>
        <time>2021-10-13T08:40:27Z</time>
      </trkpt>
      <trkpt lat="41.9274590" lon="-5.6785890">
        <ele>692.8</ele>
        <time>2021-10-13T08:40:35Z</time>
      </trkpt>
      <trkpt lat="41.9270690" lon="-5.6789190">
        <ele>692.8</ele>
        <time>2021-10-13T08:40:45Z</time>
      </trkpt>
      <trkpt lat="41.9268140" lon="-5.6791660">
        <ele>693.0</ele>
        <time>2021-10-13T08:40:52Z</time>
      </trkpt>
      <trkpt lat="41.9266490" lon="-5.6793040">
        <ele>693.0</ele>
        <time>2021-10-13T08:40:56Z</time>
      </trkpt>
      <trkpt lat="41.9265330" lon="-5.6794170">
        <ele>692.8</ele>
        <time>2021-10-13T08:40:59Z</time>
      </trkpt>
      <trkpt lat="41.9264920" lon="-5.6794480">
        <ele>692.8</ele>
        <time>2021-10-13T08:41:00Z</time>
      </trkpt>
      <trkpt lat="41.9261270" lon="-5.6797480">
        <ele>693.2</ele>
        <time>2021-10-13T08:41:09Z</time>
      </trkpt>
      <trkpt lat="41.9260030" lon="-5.6798520">
        <ele>693.2</ele>
        <time>2021-10-13T08:41:12Z</time>
      </trkpt>
      <trkpt lat="41.9257980" lon="-5.6800300">
        <ele>693.0</ele>
        <time>2021-10-13T08:41:17Z</time>
      </trkpt>
      <trkpt lat="41.9256770" lon="-5.6801330">
        <ele>692.8</ele>
        <time>2021-10-13T08:41:20Z</time>
      </trkpt>
      <trkpt lat="41.9255540" lon="-5.6802210">
        <ele>692.8</ele>
        <time>2021-10-13T08:41:23Z</time>
      </trkpt>
      <trkpt lat="41.9255540" lon="-5.6802210">
        <ele>692.8</ele>
        <time>2021-10-13T08:41:24Z</time>
      </trkpt>
      <trkpt lat="41.9253920" lon="-5.6803690">
        <ele>692.8</ele>
        <time>2021-10-13T08:41:27Z</time>
      </trkpt>
      <trkpt lat="41.9252300" lon="-5.6805040">
        <ele>693.2</ele>
        <time>2021-10-13T08:41:31Z</time>
      </trkpt>
      <trkpt lat="41.9251080" lon="-5.6806140">
        <ele>692.8</ele>
        <time>2021-10-13T08:41:35Z</time>
      </trkpt>
      <trkpt lat="41.9249550" lon="-5.6807470">
        <ele>692.8</ele>
        <time>2021-10-13T08:41:38Z</time>
      </trkpt>
      <trkpt lat="41.9249180" lon="-5.6807880">
        <ele>692.8</ele>
        <time>2021-10-13T08:41:39Z</time>
      </trkpt>
      <trkpt lat="41.9247690" lon="-5.6809370">
        <ele>692.8</ele>
        <time>2021-10-13T08:41:43Z</time>
      </trkpt>
      <trkpt lat="41.9246140" lon="-5.6810760">
        <ele>692.6</ele>
        <time>2021-10-13T08:41:47Z</time>
      </trkpt>
      <trkpt lat="41.9245760" lon="-5.6811100">
        <ele>692.6</ele>
        <time>2021-10-13T08:41:48Z</time>
      </trkpt>
      <trkpt lat="41.9244200" lon="-5.6812360">
        <ele>692.6</ele>
        <time>2021-10-13T08:41:52Z</time>
      </trkpt>
      <trkpt lat="41.9243050" lon="-5.6813380">
        <ele>692.8</ele>
        <time>2021-10-13T08:41:55Z</time>
      </trkpt>
      <trkpt lat="41.9241940" lon="-5.6814370">
        <ele>692.8</ele>
        <time>2021-10-13T08:41:58Z</time>
      </trkpt>
      <trkpt lat="41.9239170" lon="-5.6816580">
        <ele>692.6</ele>
        <time>2021-10-13T08:42:05Z</time>
      </trkpt>
      <trkpt lat="41.9238760" lon="-5.6816860">
        <ele>692.6</ele>
        <time>2021-10-13T08:42:06Z</time>
      </trkpt>
      <trkpt lat="41.9236430" lon="-5.6818880">
        <ele>692.6</ele>
        <time>2021-10-13T08:42:12Z</time>
      </trkpt>
      <trkpt lat="41.9232210" lon="-5.6822460">
        <ele>692.6</ele>
        <time>2021-10-13T08:42:23Z</time>
      </trkpt>
      <trkpt lat="41.9229180" lon="-5.6825000">
        <ele>692.6</ele>
        <time>2021-10-13T08:42:31Z</time>
      </trkpt>
      <trkpt lat="41.9228830" lon="-5.6825340">
        <ele>692.6</ele>
        <time>2021-10-13T08:42:32Z</time>
      </trkpt>
      <trkpt lat="41.9226970" lon="-5.6826950">
        <ele>692.8</ele>
        <time>2021-10-13T08:42:37Z</time>
      </trkpt>
      <trkpt lat="41.9225850" lon="-5.6828100">
        <ele>692.8</ele>
        <time>2021-10-13T08:42:40Z</time>
      </trkpt>
      <trkpt lat="41.9221980" lon="-5.6831250">
        <ele>693.0</ele>
        <time>2021-10-13T08:42:50Z</time>
      </trkpt>
      <trkpt lat="41.9220470" lon="-5.6832550">
        <ele>693.0</ele>
        <time>2021-10-13T08:42:54Z</time>
      </trkpt>
      <trkpt lat="41.9219720" lon="-5.6833200">
        <ele>693.0</ele>
        <time>2021-10-13T08:42:56Z</time>
      </trkpt>
      <trkpt lat="41.9219020" lon="-5.6833850">
        <ele>693.0</ele>
        <time>2021-10-13T08:42:58Z</time>
      </trkpt>
      <trkpt lat="41.9218360" lon="-5.6834370">
        <ele>693.0</ele>
        <time>2021-10-13T08:43:00Z</time>
      </trkpt>
      <trkpt lat="41.9217230" lon="-5.6835350">
        <ele>693.0</ele>
        <time>2021-10-13T08:43:03Z</time>
      </trkpt>
      <trkpt lat="41.9215970" lon="-5.6836380">
        <ele>693.0</ele>
        <time>2021-10-13T08:43:06Z</time>
      </trkpt>
      <trkpt lat="41.9215170" lon="-5.6837020">
        <ele>692.8</ele>
        <time>2021-10-13T08:43:08Z</time>
      </trkpt>
      <trkpt lat="41.9214780" lon="-5.6837380">
        <ele>692.8</ele>
        <time>2021-10-13T08:43:09Z</time>
      </trkpt>
      <trkpt lat="41.9213960" lon="-5.6838030">
        <ele>692.8</ele>
        <time>2021-10-13T08:43:11Z</time>
      </trkpt>
      <trkpt lat="41.9211630" lon="-5.6839980">
        <ele>692.8</ele>
        <time>2021-10-13T08:43:17Z</time>
      </trkpt>
      <trkpt lat="41.9210800" lon="-5.6840650">
        <ele>692.8</ele>
        <time>2021-10-13T08:43:19Z</time>
      </trkpt>
      <trkpt lat="41.9209680" lon="-5.6841710">
        <ele>692.8</ele>
        <time>2021-10-13T08:43:22Z</time>
      </trkpt>
      <trkpt lat="41.9208170" lon="-5.6842970">
        <ele>692.8</ele>
        <time>2021-10-13T08:43:26Z</time>
      </trkpt>
      <trkpt lat="41.9207400" lon="-5.6843690">
        <ele>692.8</ele>
        <time>2021-10-13T08:43:28Z</time>
      </trkpt>
      <trkpt lat="41.9204200" lon="-5.6846550">
        <ele>692.6</ele>
        <time>2021-10-13T08:43:36Z</time>
      </trkpt>
      <trkpt lat="41.9203460" lon="-5.6847270">
        <ele>692.4</ele>
        <time>2021-10-13T08:43:38Z</time>
      </trkpt>
      <trkpt lat="41.9203060" lon="-5.6847570">
        <ele>692.4</ele>
        <time>2021-10-13T08:43:39Z</time>
      </trkpt>
      <trkpt lat="41.9199190" lon="-5.6850900">
        <ele>692.4</ele>
        <time>2021-10-13T08:43:49Z</time>
      </trkpt>
      <trkpt lat="41.9198180" lon="-5.6851860">
        <ele>692.4</ele>
        <time>2021-10-13T08:43:52Z</time>
      </trkpt>
      <trkpt lat="41.9197450" lon="-5.6852370">
        <ele>692.4</ele>
        <time>2021-10-13T08:43:54Z</time>
      </trkpt>
      <trkpt lat="41.9197070" lon="-5.6852460">
        <ele>692.4</ele>
        <time>2021-10-13T08:43:55Z</time>
      </trkpt>
      <trkpt lat="41.9196700" lon="-5.6852290">
        <ele>692.4</ele>
        <time>2021-10-13T08:43:56Z</time>
      </trkpt>
      <trkpt lat="41.9196200" lon="-5.6851410">
        <ele>692.4</ele>
        <time>2021-10-13T08:43:58Z</time>
      </trkpt>
      <trkpt lat="41.9195890" lon="-5.6848780">
        <ele>692.0</ele>
        <time>2021-10-13T08:44:02Z</time>
      </trkpt>
      <trkpt lat="41.9195670" lon="-5.6847480">
        <ele>691.8</ele>
        <time>2021-10-13T08:44:04Z</time>
      </trkpt>
      <trkpt lat="41.9195340" lon="-5.6845690">
        <ele>691.6</ele>
        <time>2021-10-13T08:44:07Z</time>
      </trkpt>
      <trkpt lat="41.9194930" lon="-5.6844760">
        <ele>691.6</ele>
        <time>2021-10-13T08:44:09Z</time>
      </trkpt>
      <trkpt lat="41.9193630" lon="-5.6844140">
        <ele>691.6</ele>
        <time>2021-10-13T08:44:13Z</time>
      </trkpt>
      <trkpt lat="41.9192620" lon="-5.6844750">
        <ele>691.6</ele>
        <time>2021-10-13T08:44:16Z</time>
      </trkpt>
      <trkpt lat="41.9191930" lon="-5.6845270">
        <ele>691.8</ele>
        <time>2021-10-13T08:44:18Z</time>
      </trkpt>
      <trkpt lat="41.9189650" lon="-5.6847150">
        <ele>691.8</ele>
        <time>2021-10-13T08:44:24Z</time>
      </trkpt>
      <trkpt lat="41.9188820" lon="-5.6847710">
        <ele>692.2</ele>
        <time>2021-10-13T08:44:26Z</time>
      </trkpt>
      <trkpt lat="41.9187640" lon="-5.6848680">
        <ele>692.4</ele>
        <time>2021-10-13T08:44:29Z</time>
      </trkpt>
      <trkpt lat="41.9185050" lon="-5.6850720">
        <ele>692.8</ele>
        <time>2021-10-13T08:44:36Z</time>
      </trkpt>
      <trkpt lat="41.9183950" lon="-5.6851630">
        <ele>693.0</ele>
        <time>2021-10-13T08:44:39Z</time>
      </trkpt>
      <trkpt lat="41.9183100" lon="-5.6852350">
        <ele>693.0</ele>
        <time>2021-10-13T08:44:41Z</time>
      </trkpt>
      <trkpt lat="41.9181210" lon="-5.6854000">
        <ele>693.0</ele>
        <time>2021-10-13T08:44:46Z</time>
      </trkpt>
      <trkpt lat="41.9177340" lon="-5.6857170">
        <ele>692.8</ele>
        <time>2021-10-13T08:44:56Z</time>
      </trkpt>
      <trkpt lat="41.9175060" lon="-5.6859090">
        <ele>692.6</ele>
        <time>2021-10-13T08:45:02Z</time>
      </trkpt>
      <trkpt lat="41.9174670" lon="-5.6859400">
        <ele>692.8</ele>
        <time>2021-10-13T08:45:03Z</time>
      </trkpt>
      <trkpt lat="41.9173920" lon="-5.6860030">
        <ele>693.0</ele>
        <time>2021-10-13T08:45:05Z</time>
      </trkpt>
      <trkpt lat="41.9172850" lon="-5.6861080">
        <ele>693.0</ele>
        <time>2021-10-13T08:45:08Z</time>
      </trkpt>
      <trkpt lat="41.9171720" lon="-5.6862020">
        <ele>692.8</ele>
        <time>2021-10-13T08:45:11Z</time>
      </trkpt>
      <trkpt lat="41.9170540" lon="-5.6862900">
        <ele>692.8</ele>
        <time>2021-10-13T08:45:14Z</time>
      </trkpt>
      <trkpt lat="41.9169840" lon="-5.6863590">
        <ele>692.8</ele>
        <time>2021-10-13T08:45:16Z</time>
      </trkpt>
      <trkpt lat="41.9169460" lon="-5.6863900">
        <ele>692.8</ele>
        <time>2021-10-13T08:45:17Z</time>
      </trkpt>
      <trkpt lat="41.9166950" lon="-5.6866050">
        <ele>692.6</ele>
        <time>2021-10-13T08:45:24Z</time>
      </trkpt>
      <trkpt lat="41.9166610" lon="-5.6866420">
        <ele>692.6</ele>
        <time>2021-10-13T08:45:25Z</time>
      </trkpt>
      <trkpt lat="41.9166250" lon="-5.6866780">
        <ele>692.6</ele>
        <time>2021-10-13T08:45:26Z</time>
      </trkpt>
      <trkpt lat="41.9164510" lon="-5.6868200">
        <ele>692.6</ele>
        <time>2021-10-13T08:45:31Z</time>
      </trkpt>
      <trkpt lat="41.9163800" lon="-5.6868830">
        <ele>692.6</ele>
        <time>2021-10-13T08:45:33Z</time>
      </trkpt>
      <trkpt lat="41.9160190" lon="-5.6871690">
        <ele>692.4</ele>
        <time>2021-10-13T08:45:43Z</time>
      </trkpt>
      <trkpt lat="41.9157050" lon="-5.6874170">
        <ele>692.8</ele>
        <time>2021-10-13T08:45:51Z</time>
      </trkpt>
      <trkpt lat="41.9155430" lon="-5.6875440">
        <ele>692.6</ele>
        <time>2021-10-13T08:45:55Z</time>
      </trkpt>
      <trkpt lat="41.9153820" lon="-5.6876800">
        <ele>693.0</ele>
        <time>2021-10-13T08:45:59Z</time>
      </trkpt>
      <trkpt lat="41.9151890" lon="-5.6878480">
        <ele>693.2</ele>
        <time>2021-10-13T08:46:04Z</time>
      </trkpt>
      <trkpt lat="41.9150650" lon="-5.6879330">
        <ele>693.2</ele>
        <time>2021-10-13T08:46:07Z</time>
      </trkpt>
      <trkpt lat="41.9150260" lon="-5.6879560">
        <ele>693.2</ele>
        <time>2021-10-13T08:46:08Z</time>
      </trkpt>
      <trkpt lat="41.9149900" lon="-5.6879850">
        <ele>693.2</ele>
        <time>2021-10-13T08:46:09Z</time>
      </trkpt>
      <trkpt lat="41.9149120" lon="-5.6880460">
        <ele>693.2</ele>
        <time>2021-10-13T08:46:11Z</time>
      </trkpt>
      <trkpt lat="41.9148370" lon="-5.6881050">
        <ele>693.4</ele>
        <time>2021-10-13T08:46:13Z</time>
      </trkpt>
      <trkpt lat="41.9146370" lon="-5.6882650">
        <ele>693.4</ele>
        <time>2021-10-13T08:46:18Z</time>
      </trkpt>
      <trkpt lat="41.9145570" lon="-5.6883380">
        <ele>693.2</ele>
        <time>2021-10-13T08:46:20Z</time>
      </trkpt>
      <trkpt lat="41.9144770" lon="-5.6884070">
        <ele>693.0</ele>
        <time>2021-10-13T08:46:22Z</time>
      </trkpt>
      <trkpt lat="41.9143970" lon="-5.6884710">
        <ele>693.0</ele>
        <time>2021-10-13T08:46:24Z</time>
      </trkpt>
      <trkpt lat="41.9142010" lon="-5.6886370">
        <ele>692.8</ele>
        <time>2021-10-13T08:46:29Z</time>
      </trkpt>
      <trkpt lat="41.9140030" lon="-5.6888030">
        <ele>692.6</ele>
        <time>2021-10-13T08:46:34Z</time>
      </trkpt>
      <trkpt lat="41.9138430" lon="-5.6889330">
        <ele>692.6</ele>
        <time>2021-10-13T08:46:38Z</time>
      </trkpt>
      <trkpt lat="41.9137640" lon="-5.6890000">
        <ele>692.6</ele>
        <time>2021-10-13T08:46:40Z</time>
      </trkpt>
      <trkpt lat="41.9134440" lon="-5.6892640">
        <ele>692.8</ele>
        <time>2021-10-13T08:46:48Z</time>
      </trkpt>
      <trkpt lat="41.9133230" lon="-5.6893660">
        <ele>692.8</ele>
        <time>2021-10-13T08:46:51Z</time>
      </trkpt>
      <trkpt lat="41.9131550" lon="-5.6894910">
        <ele>692.8</ele>
        <time>2021-10-13T08:46:55Z</time>
      </trkpt>
      <trkpt lat="41.9130320" lon="-5.6895930">
        <ele>692.8</ele>
        <time>2021-10-13T08:46:58Z</time>
      </trkpt>
      <trkpt lat="41.9129520" lon="-5.6896730">
        <ele>692.8</ele>
        <time>2021-10-13T08:47:00Z</time>
      </trkpt>
      <trkpt lat="41.9128620" lon="-5.6897450">
        <ele>692.6</ele>
        <time>2021-10-13T08:47:02Z</time>
      </trkpt>
      <trkpt lat="41.9127840" lon="-5.6898110">
        <ele>692.6</ele>
        <time>2021-10-13T08:47:04Z</time>
      </trkpt>
      <trkpt lat="41.9126530" lon="-5.6899220">
        <ele>692.6</ele>
        <time>2021-10-13T08:47:07Z</time>
      </trkpt>
      <trkpt lat="41.9126100" lon="-5.6899560">
        <ele>692.6</ele>
        <time>2021-10-13T08:47:08Z</time>
      </trkpt>
      <trkpt lat="41.9124690" lon="-5.6900660">
        <ele>692.8</ele>
        <time>2021-10-13T08:47:11Z</time>
      </trkpt>
      <trkpt lat="41.9123030" lon="-5.6902090">
        <ele>692.8</ele>
        <time>2021-10-13T08:47:15Z</time>
      </trkpt>
      <trkpt lat="41.9122590" lon="-5.6902460">
        <ele>692.6</ele>
        <time>2021-10-13T08:47:16Z</time>
      </trkpt>
      <trkpt lat="41.9121260" lon="-5.6903520">
        <ele>692.8</ele>
        <time>2021-10-13T08:47:19Z</time>
      </trkpt>
      <trkpt lat="41.9119100" lon="-5.6905260">
        <ele>692.8</ele>
        <time>2021-10-13T08:47:24Z</time>
      </trkpt>
      <trkpt lat="41.9118690" lon="-5.6905600">
        <ele>692.8</ele>
        <time>2021-10-13T08:47:25Z</time>
      </trkpt>
      <trkpt lat="41.9117860" lon="-5.6906280">
        <ele>692.8</ele>
        <time>2021-10-13T08:47:27Z</time>
      </trkpt>
      <trkpt lat="41.9116170" lon="-5.6907680">
        <ele>692.6</ele>
        <time>2021-10-13T08:47:31Z</time>
      </trkpt>
      <trkpt lat="41.9115210" lon="-5.6908480">
        <ele>692.6</ele>
        <time>2021-10-13T08:47:33Z</time>
      </trkpt>
      <trkpt lat="41.9113670" lon="-5.6909890">
        <ele>692.6</ele>
        <time>2021-10-13T08:47:37Z</time>
      </trkpt>
      <trkpt lat="41.9111910" lon="-5.6911090">
        <ele>692.6</ele>
        <time>2021-10-13T08:47:41Z</time>
      </trkpt>
      <trkpt lat="41.9109030" lon="-5.6913750">
        <ele>692.6</ele>
        <time>2021-10-13T08:47:48Z</time>
      </trkpt>
      <trkpt lat="41.9108180" lon="-5.6914360">
        <ele>692.6</ele>
        <time>2021-10-13T08:47:50Z</time>
      </trkpt>
      <trkpt lat="41.9104290" lon="-5.6917430">
        <ele>692.6</ele>
        <time>2021-10-13T08:47:59Z</time>
      </trkpt>
      <trkpt lat="41.9102930" lon="-5.6918560">
        <ele>692.8</ele>
        <time>2021-10-13T08:48:02Z</time>
      </trkpt>
      <trkpt lat="41.9102050" lon="-5.6919250">
        <ele>692.8</ele>
        <time>2021-10-13T08:48:04Z</time>
      </trkpt>
      <trkpt lat="41.9100710" lon="-5.6920390">
        <ele>693.0</ele>
        <time>2021-10-13T08:48:07Z</time>
      </trkpt>
      <trkpt lat="41.9099830" lon="-5.6921050">
        <ele>693.0</ele>
        <time>2021-10-13T08:48:09Z</time>
      </trkpt>
      <trkpt lat="41.9098120" lon="-5.6922410">
        <ele>692.8</ele>
        <time>2021-10-13T08:48:13Z</time>
      </trkpt>
      <trkpt lat="41.9097260" lon="-5.6923130">
        <ele>692.8</ele>
        <time>2021-10-13T08:48:15Z</time>
      </trkpt>
      <trkpt lat="41.9096820" lon="-5.6923540">
        <ele>692.6</ele>
        <time>2021-10-13T08:48:16Z</time>
      </trkpt>
      <trkpt lat="41.9094210" lon="-5.6925710">
        <ele>692.4</ele>
        <time>2021-10-13T08:48:22Z</time>
      </trkpt>
      <trkpt lat="41.9093780" lon="-5.6926060">
        <ele>692.4</ele>
        <time>2021-10-13T08:48:23Z</time>
      </trkpt>
      <trkpt lat="41.9092920" lon="-5.6926770">
        <ele>692.4</ele>
        <time>2021-10-13T08:48:25Z</time>
      </trkpt>
      <trkpt lat="41.9092070" lon="-5.6927480">
        <ele>692.4</ele>
        <time>2021-10-13T08:48:27Z</time>
      </trkpt>
      <trkpt lat="41.9090850" lon="-5.6928510">
        <ele>692.2</ele>
        <time>2021-10-13T08:48:30Z</time>
      </trkpt>
      <trkpt lat="41.9089570" lon="-5.6929610">
        <ele>692.2</ele>
        <time>2021-10-13T08:48:33Z</time>
      </trkpt>
      <trkpt lat="41.9089150" lon="-5.6929960">
        <ele>692.2</ele>
        <time>2021-10-13T08:48:34Z</time>
      </trkpt>
      <trkpt lat="41.9086920" lon="-5.6931780">
        <ele>692.4</ele>
        <time>2021-10-13T08:48:39Z</time>
      </trkpt>
      <trkpt lat="41.9086090" lon="-5.6932480">
        <ele>692.6</ele>
        <time>2021-10-13T08:48:41Z</time>
      </trkpt>
      <trkpt lat="41.9085230" lon="-5.6933290">
        <ele>692.6</ele>
        <time>2021-10-13T08:48:43Z</time>
      </trkpt>
      <trkpt lat="41.9084030" lon="-5.6934270">
        <ele>692.6</ele>
        <time>2021-10-13T08:48:46Z</time>
      </trkpt>
      <trkpt lat="41.9082720" lon="-5.6935340">
        <ele>692.6</ele>
        <time>2021-10-13T08:48:49Z</time>
      </trkpt>
      <trkpt lat="41.9081860" lon="-5.6936060">
        <ele>692.6</ele>
        <time>2021-10-13T08:48:51Z</time>
      </trkpt>
      <trkpt lat="41.9081000" lon="-5.6936780">
        <ele>692.6</ele>
        <time>2021-10-13T08:48:53Z</time>
      </trkpt>
      <trkpt lat="41.9079710" lon="-5.6937910">
        <ele>692.6</ele>
        <time>2021-10-13T08:48:56Z</time>
      </trkpt>
      <trkpt lat="41.9077590" lon="-5.6939610">
        <ele>692.6</ele>
        <time>2021-10-13T08:49:01Z</time>
      </trkpt>
      <trkpt lat="41.9075780" lon="-5.6941000">
        <ele>692.6</ele>
        <time>2021-10-13T08:49:05Z</time>
      </trkpt>
      <trkpt lat="41.9075010" lon="-5.6941660">
        <ele>692.4</ele>
        <time>2021-10-13T08:49:07Z</time>
      </trkpt>
      <trkpt lat="41.9073270" lon="-5.6943110">
        <ele>692.6</ele>
        <time>2021-10-13T08:49:11Z</time>
      </trkpt>
      <trkpt lat="41.9070020" lon="-5.6945970">
        <ele>692.2</ele>
        <time>2021-10-13T08:49:19Z</time>
      </trkpt>
      <trkpt lat="41.9068320" lon="-5.6947330">
        <ele>692.4</ele>
        <time>2021-10-13T08:49:23Z</time>
      </trkpt>
      <trkpt lat="41.9067440" lon="-5.6948000">
        <ele>692.2</ele>
        <time>2021-10-13T08:49:25Z</time>
      </trkpt>
      <trkpt lat="41.9066560" lon="-5.6948710">
        <ele>692.4</ele>
        <time>2021-10-13T08:49:27Z</time>
      </trkpt>
      <trkpt lat="41.9063580" lon="-5.6951170">
        <ele>692.6</ele>
        <time>2021-10-13T08:49:34Z</time>
      </trkpt>
      <trkpt lat="41.9063150" lon="-5.6951490">
        <ele>692.6</ele>
        <time>2021-10-13T08:49:35Z</time>
      </trkpt>
      <trkpt lat="41.9062330" lon="-5.6952260">
        <ele>692.6</ele>
        <time>2021-10-13T08:49:37Z</time>
      </trkpt>
      <trkpt lat="41.9061170" lon="-5.6953300">
        <ele>692.6</ele>
        <time>2021-10-13T08:49:40Z</time>
      </trkpt>
      <trkpt lat="41.9059760" lon="-5.6954320">
        <ele>692.6</ele>
        <time>2021-10-13T08:49:43Z</time>
      </trkpt>
      <trkpt lat="41.9055220" lon="-5.6957860">
        <ele>693.2</ele>
        <time>2021-10-13T08:49:54Z</time>
      </trkpt>
      <trkpt lat="41.9053920" lon="-5.6958890">
        <ele>693.2</ele>
        <time>2021-10-13T08:49:57Z</time>
      </trkpt>
      <trkpt lat="41.9052340" lon="-5.6960250">
        <ele>693.4</ele>
        <time>2021-10-13T08:50:01Z</time>
      </trkpt>
      <trkpt lat="41.9050740" lon="-5.6961880">
        <ele>693.2</ele>
        <time>2021-10-13T08:50:05Z</time>
      </trkpt>
      <trkpt lat="41.9050370" lon="-5.6962320">
        <ele>693.0</ele>
        <time>2021-10-13T08:50:06Z</time>
      </trkpt>
      <trkpt lat="41.9049680" lon="-5.6963240">
        <ele>693.0</ele>
        <time>2021-10-13T08:50:08Z</time>
      </trkpt>
      <trkpt lat="41.9048910" lon="-5.6964080">
        <ele>693.0</ele>
        <time>2021-10-13T08:50:10Z</time>
      </trkpt>
      <trkpt lat="41.9048040" lon="-5.6964760">
        <ele>693.0</ele>
        <time>2021-10-13T08:50:12Z</time>
      </trkpt>
      <trkpt lat="41.9047660" lon="-5.6965140">
        <ele>693.0</ele>
        <time>2021-10-13T08:50:13Z</time>
      </trkpt>
      <trkpt lat="41.9046550" lon="-5.6966440">
        <ele>692.8</ele>
        <time>2021-10-13T08:50:16Z</time>
      </trkpt>
      <trkpt lat="41.9043510" lon="-5.6969930">
        <ele>692.6</ele>
        <time>2021-10-13T08:50:24Z</time>
      </trkpt>
      <trkpt lat="41.9040860" lon="-5.6973100">
        <ele>692.8</ele>
        <time>2021-10-13T08:50:31Z</time>
      </trkpt>
      <trkpt lat="41.9039610" lon="-5.6974580">
        <ele>693.0</ele>
        <time>2021-10-13T08:50:34Z</time>
      </trkpt>
      <trkpt lat="41.9038810" lon="-5.6975460">
        <ele>693.0</ele>
        <time>2021-10-13T08:50:36Z</time>
      </trkpt>
      <trkpt lat="41.9037660" lon="-5.6976830">
        <ele>693.0</ele>
        <time>2021-10-13T08:50:39Z</time>
      </trkpt>
      <trkpt lat="41.9037270" lon="-5.6977270">
        <ele>692.8</ele>
        <time>2021-10-13T08:50:40Z</time>
      </trkpt>
      <trkpt lat="41.9033390" lon="-5.6981740">
        <ele>692.6</ele>
        <time>2021-10-13T08:50:50Z</time>
      </trkpt>
      <trkpt lat="41.9033020" lon="-5.6982180">
        <ele>692.6</ele>
        <time>2021-10-13T08:50:51Z</time>
      </trkpt>
      <trkpt lat="41.9031860" lon="-5.6983500">
        <ele>692.4</ele>
        <time>2021-10-13T08:50:54Z</time>
      </trkpt>
      <trkpt lat="41.9030000" lon="-5.6985620">
        <ele>692.2</ele>
        <time>2021-10-13T08:50:59Z</time>
      </trkpt>
      <trkpt lat="41.9028600" lon="-5.6987370">
        <ele>692.4</ele>
        <time>2021-10-13T08:51:03Z</time>
      </trkpt>
      <trkpt lat="41.9027980" lon="-5.6988240">
        <ele>692.4</ele>
        <time>2021-10-13T08:51:05Z</time>
      </trkpt>
      <trkpt lat="41.9026940" lon="-5.6989550">
        <ele>692.2</ele>
        <time>2021-10-13T08:51:08Z</time>
      </trkpt>
      <trkpt lat="41.9026560" lon="-5.6989940">
        <ele>692.2</ele>
        <time>2021-10-13T08:51:09Z</time>
      </trkpt>
      <trkpt lat="41.9025830" lon="-5.6990680">
        <ele>692.2</ele>
        <time>2021-10-13T08:51:11Z</time>
      </trkpt>
      <trkpt lat="41.9025490" lon="-5.6991100">
        <ele>692.2</ele>
        <time>2021-10-13T08:51:12Z</time>
      </trkpt>
      <trkpt lat="41.9024420" lon="-5.6992430">
        <ele>692.2</ele>
        <time>2021-10-13T08:51:15Z</time>
      </trkpt>
      <trkpt lat="41.9023770" lon="-5.6993300">
        <ele>692.0</ele>
        <time>2021-10-13T08:51:17Z</time>
      </trkpt>
      <trkpt lat="41.9023080" lon="-5.6994230">
        <ele>691.8</ele>
        <time>2021-10-13T08:51:19Z</time>
      </trkpt>
      <trkpt lat="41.9022440" lon="-5.6995200">
        <ele>691.8</ele>
        <time>2021-10-13T08:51:21Z</time>
      </trkpt>
      <trkpt lat="41.9021430" lon="-5.6996550">
        <ele>691.8</ele>
        <time>2021-10-13T08:51:24Z</time>
      </trkpt>
      <trkpt lat="41.9019440" lon="-5.6999260">
        <ele>692.0</ele>
        <time>2021-10-13T08:51:30Z</time>
      </trkpt>
      <trkpt lat="41.9018160" lon="-5.7001010">
        <ele>692.0</ele>
        <time>2021-10-13T08:51:34Z</time>
      </trkpt>
      <trkpt lat="41.9015780" lon="-5.7004290">
        <ele>691.6</ele>
        <time>2021-10-13T08:51:41Z</time>
      </trkpt>
      <trkpt lat="41.9015440" lon="-5.7004740">
        <ele>691.6</ele>
        <time>2021-10-13T08:51:42Z</time>
      </trkpt>
      <trkpt lat="41.9011920" lon="-5.7009560">
        <ele>691.8</ele>
        <time>2021-10-13T08:51:52Z</time>
      </trkpt>
      <trkpt lat="41.9010250" lon="-5.7011930">
        <ele>692.0</ele>
        <time>2021-10-13T08:51:57Z</time>
      </trkpt>
      <trkpt lat="41.9009490" lon="-5.7012910">
        <ele>692.0</ele>
        <time>2021-10-13T08:51:59Z</time>
      </trkpt>
      <trkpt lat="41.9009170" lon="-5.7013410">
        <ele>691.8</ele>
        <time>2021-10-13T08:52:00Z</time>
      </trkpt>
      <trkpt lat="41.9008200" lon="-5.7014850">
        <ele>691.8</ele>
        <time>2021-10-13T08:52:03Z</time>
      </trkpt>
      <trkpt lat="41.9007860" lon="-5.7015300">
        <ele>691.8</ele>
        <time>2021-10-13T08:52:04Z</time>
      </trkpt>
      <trkpt lat="41.9006100" lon="-5.7017710">
        <ele>691.6</ele>
        <time>2021-10-13T08:52:09Z</time>
      </trkpt>
      <trkpt lat="41.9005750" lon="-5.7018190">
        <ele>691.6</ele>
        <time>2021-10-13T08:52:10Z</time>
      </trkpt>
      <trkpt lat="41.9004740" lon="-5.7019680">
        <ele>691.6</ele>
        <time>2021-10-13T08:52:13Z</time>
      </trkpt>
      <trkpt lat="41.9003290" lon="-5.7021570">
        <ele>691.6</ele>
        <time>2021-10-13T08:52:17Z</time>
      </trkpt>
      <trkpt lat="41.9001640" lon="-5.7023870">
        <ele>691.6</ele>
        <time>2021-10-13T08:52:22Z</time>
      </trkpt>
      <trkpt lat="41.8999930" lon="-5.7026270">
        <ele>691.8</ele>
        <time>2021-10-13T08:52:27Z</time>
      </trkpt>
      <trkpt lat="41.8998540" lon="-5.7028090">
        <ele>691.8</ele>
        <time>2021-10-13T08:52:31Z</time>
      </trkpt>
      <trkpt lat="41.8995100" lon="-5.7032580">
        <ele>691.8</ele>
        <time>2021-10-13T08:52:41Z</time>
      </trkpt>
      <trkpt lat="41.8994110" lon="-5.7033990">
        <ele>691.6</ele>
        <time>2021-10-13T08:52:44Z</time>
      </trkpt>
      <trkpt lat="41.8993200" lon="-5.7035210">
        <ele>691.6</ele>
        <time>2021-10-13T08:52:47Z</time>
      </trkpt>
      <trkpt lat="41.8992160" lon="-5.7036740">
        <ele>691.8</ele>
        <time>2021-10-13T08:52:50Z</time>
      </trkpt>
      <trkpt lat="41.8989400" lon="-5.7040540">
        <ele>691.8</ele>
        <time>2021-10-13T08:52:58Z</time>
      </trkpt>
      <trkpt lat="41.8988720" lon="-5.7041490">
        <ele>691.8</ele>
        <time>2021-10-13T08:53:00Z</time>
      </trkpt>
      <trkpt lat="41.8988110" lon="-5.7042320">
        <ele>691.8</ele>
        <time>2021-10-13T08:53:02Z</time>
      </trkpt>
      <trkpt lat="41.8987360" lon="-5.7043360">
        <ele>691.8</ele>
        <time>2021-10-13T08:53:04Z</time>
      </trkpt>
      <trkpt lat="41.8986660" lon="-5.7044350">
        <ele>691.8</ele>
        <time>2021-10-13T08:53:06Z</time>
      </trkpt>
      <trkpt lat="41.8985620" lon="-5.7045850">
        <ele>691.8</ele>
        <time>2021-10-13T08:53:09Z</time>
      </trkpt>
      <trkpt lat="41.8985250" lon="-5.7046300">
        <ele>691.8</ele>
        <time>2021-10-13T08:53:10Z</time>
      </trkpt>
      <trkpt lat="41.8983880" lon="-5.7048180">
        <ele>691.8</ele>
        <time>2021-10-13T08:53:14Z</time>
      </trkpt>
      <trkpt lat="41.8982930" lon="-5.7049510">
        <ele>691.6</ele>
        <time>2021-10-13T08:53:17Z</time>
      </trkpt>
      <trkpt lat="41.8981950" lon="-5.7050770">
        <ele>691.4</ele>
        <time>2021-10-13T08:53:20Z</time>
      </trkpt>
      <trkpt lat="41.8980950" lon="-5.7052190">
        <ele>691.2</ele>
        <time>2021-10-13T08:53:23Z</time>
      </trkpt>
      <trkpt lat="41.8979310" lon="-5.7054460">
        <ele>691.2</ele>
        <time>2021-10-13T08:53:28Z</time>
      </trkpt>
      <trkpt lat="41.8977650" lon="-5.7056760">
        <ele>691.2</ele>
        <time>2021-10-13T08:53:33Z</time>
      </trkpt>
      <trkpt lat="41.8976170" lon="-5.7058750">
        <ele>691.2</ele>
        <time>2021-10-13T08:53:38Z</time>
      </trkpt>
      <trkpt lat="41.8975130" lon="-5.7060230">
        <ele>691.2</ele>
        <time>2021-10-13T08:53:42Z</time>
      </trkpt>
      <trkpt lat="41.8974900" lon="-5.7060600">
        <ele>691.2</ele>
        <time>2021-10-13T08:53:43Z</time>
      </trkpt>
      <trkpt lat="41.8974360" lon="-5.7061720">
        <ele>691.4</ele>
        <time>2021-10-13T08:53:47Z</time>
      </trkpt>
      <trkpt lat="41.8974240" lon="-5.7062010">
        <ele>691.4</ele>
        <time>2021-10-13T08:53:51Z</time>
      </trkpt>
      <trkpt lat="41.8973740" lon="-5.7061970">
        <ele>690.6</ele>
        <time>2021-10-13T08:58:17Z</time>
      </trkpt>
      <trkpt lat="41.8973530" lon="-5.7061810">
        <ele>690.8</ele>
        <time>2021-10-13T08:58:18Z</time>
      </trkpt>
      <trkpt lat="41.8972820" lon="-5.7061040">
        <ele>690.8</ele>
        <time>2021-10-13T08:58:22Z</time>
      </trkpt>
      <trkpt lat="41.8972260" lon="-5.7060050">
        <ele>690.8</ele>
        <time>2021-10-13T08:58:26Z</time>
      </trkpt>
      <trkpt lat="41.8972010" lon="-5.7059540">
        <ele>690.8</ele>
        <time>2021-10-13T08:58:28Z</time>
      </trkpt>
      <trkpt lat="41.8971650" lon="-5.7059140">
        <ele>690.6</ele>
        <time>2021-10-13T08:58:30Z</time>
      </trkpt>
      <trkpt lat="41.8971260" lon="-5.7058720">
        <ele>690.6</ele>
        <time>2021-10-13T08:58:32Z</time>
      </trkpt>
      <trkpt lat="41.8970510" lon="-5.7057580">
        <ele>690.6</ele>
        <time>2021-10-13T08:58:36Z</time>
      </trkpt>
      <trkpt lat="41.8970330" lon="-5.7057280">
        <ele>690.6</ele>
        <time>2021-10-13T08:58:37Z</time>
      </trkpt>
      <trkpt lat="41.8968220" lon="-5.7054450">
        <ele>690.6</ele>
        <time>2021-10-13T08:58:46Z</time>
      </trkpt>
      <trkpt lat="41.8965660" lon="-5.7051080">
        <ele>691.2</ele>
        <time>2021-10-13T08:58:56Z</time>
      </trkpt>
      <trkpt lat="41.8964900" lon="-5.7050040">
        <ele>691.2</ele>
        <time>2021-10-13T08:58:59Z</time>
      </trkpt>
      <trkpt lat="41.8963910" lon="-5.7048580">
        <ele>691.2</ele>
        <time>2021-10-13T08:59:03Z</time>
      </trkpt>
      <trkpt lat="41.8963130" lon="-5.7047470">
        <ele>691.4</ele>
        <time>2021-10-13T08:59:06Z</time>
      </trkpt>
      <trkpt lat="41.8961450" lon="-5.7045310">
        <ele>691.6</ele>
        <time>2021-10-13T08:59:12Z</time>
      </trkpt>
      <trkpt lat="41.8961180" lon="-5.7044960">
        <ele>691.6</ele>
        <time>2021-10-13T08:59:13Z</time>
      </trkpt>
      <trkpt lat="41.8960090" lon="-5.7043520">
        <ele>691.8</ele>
        <time>2021-10-13T08:59:17Z</time>
      </trkpt>
      <trkpt lat="41.8957950" lon="-5.7040730">
        <ele>692.2</ele>
        <time>2021-10-13T08:59:25Z</time>
      </trkpt>
      <trkpt lat="41.8957710" lon="-5.7040430">
        <ele>692.2</ele>
        <time>2021-10-13T08:59:26Z</time>
      </trkpt>
      <trkpt lat="41.8956870" lon="-5.7039350">
        <ele>692.6</ele>
        <time>2021-10-13T08:59:31Z</time>
      </trkpt>
      <trkpt lat="41.8956570" lon="-5.7039200">
        <ele>693.4</ele>
        <time>2021-10-13T08:59:36Z</time>
      </trkpt>
      <trkpt lat="41.8956260" lon="-5.7039550">
        <ele>693.0</ele>
        <time>2021-10-13T09:03:54Z</time>
      </trkpt>
      <trkpt lat="41.8956030" lon="-5.7039740">
        <ele>693.0</ele>
        <time>2021-10-13T09:03:55Z</time>
      </trkpt>
      <trkpt lat="41.8955700" lon="-5.7039960">
        <ele>693.0</ele>
        <time>2021-10-13T09:03:56Z</time>
      </trkpt>
      <trkpt lat="41.8954240" lon="-5.7040920">
        <ele>692.8</ele>
        <time>2021-10-13T09:04:02Z</time>
      </trkpt>
      <trkpt lat="41.8954050" lon="-5.7041030">
        <ele>692.8</ele>
        <time>2021-10-13T09:04:03Z</time>
      </trkpt>
      <trkpt lat="41.8953250" lon="-5.7041390">
        <ele>692.8</ele>
        <time>2021-10-13T09:04:06Z</time>
      </trkpt>
      <trkpt lat="41.8952350" lon="-5.7041800">
        <ele>693.0</ele>
        <time>2021-10-13T09:04:10Z</time>
      </trkpt>
      <trkpt lat="41.8951270" lon="-5.7042410">
        <ele>693.2</ele>
        <time>2021-10-13T09:04:15Z</time>
      </trkpt>
      <trkpt lat="41.8950920" lon="-5.7042650">
        <ele>693.6</ele>
        <time>2021-10-13T09:04:17Z</time>
      </trkpt>
      <trkpt lat="41.8950730" lon="-5.7042780">
        <ele>693.8</ele>
        <time>2021-10-13T09:04:18Z</time>
      </trkpt>
      <trkpt lat="41.8950200" lon="-5.7043240">
        <ele>694.2</ele>
        <time>2021-10-13T09:04:21Z</time>
      </trkpt>
      <trkpt lat="41.8949220" lon="-5.7043840">
        <ele>694.8</ele>
        <time>2021-10-13T09:04:26Z</time>
      </trkpt>
      <trkpt lat="41.8947990" lon="-5.7044500">
        <ele>695.4</ele>
        <time>2021-10-13T09:04:32Z</time>
      </trkpt>
      <trkpt lat="41.8947390" lon="-5.7044860">
        <ele>696.0</ele>
        <time>2021-10-13T09:04:35Z</time>
      </trkpt>
      <trkpt lat="41.8947210" lon="-5.7044970">
        <ele>696.0</ele>
        <time>2021-10-13T09:04:36Z</time>
      </trkpt>
      <trkpt lat="41.8946400" lon="-5.7045360">
        <ele>696.6</ele>
        <time>2021-10-13T09:04:40Z</time>
      </trkpt>
      <trkpt lat="41.8946000" lon="-5.7045580">
        <ele>696.8</ele>
        <time>2021-10-13T09:04:42Z</time>
      </trkpt>
      <trkpt lat="41.8945800" lon="-5.7045700">
        <ele>697.0</ele>
        <time>2021-10-13T09:04:43Z</time>
      </trkpt>
      <trkpt lat="41.8945450" lon="-5.7045900">
        <ele>697.2</ele>
        <time>2021-10-13T09:04:45Z</time>
      </trkpt>
      <trkpt lat="41.8944600" lon="-5.7046340">
        <ele>698.2</ele>
        <time>2021-10-13T09:04:50Z</time>
      </trkpt>
      <trkpt lat="41.8943770" lon="-5.7046730">
        <ele>699.0</ele>
        <time>2021-10-13T09:04:55Z</time>
      </trkpt>
      <trkpt lat="41.8943580" lon="-5.7046800">
        <ele>699.2</ele>
        <time>2021-10-13T09:04:56Z</time>
      </trkpt>
      <trkpt lat="41.8943120" lon="-5.7047100">
        <ele>699.8</ele>
        <time>2021-10-13T09:04:59Z</time>
      </trkpt>
      <trkpt lat="41.8942810" lon="-5.7047270">
        <ele>700.2</ele>
        <time>2021-10-13T09:05:01Z</time>
      </trkpt>
      <trkpt lat="41.8942480" lon="-5.7047430">
        <ele>700.6</ele>
        <time>2021-10-13T09:05:03Z</time>
      </trkpt>
      <trkpt lat="41.8942180" lon="-5.7047590">
        <ele>701.0</ele>
        <time>2021-10-13T09:05:05Z</time>
      </trkpt>
      <trkpt lat="41.8941830" lon="-5.7047800">
        <ele>701.4</ele>
        <time>2021-10-13T09:05:07Z</time>
      </trkpt>
      <trkpt lat="41.8941100" lon="-5.7048150">
        <ele>702.4</ele>
        <time>2021-10-13T09:05:12Z</time>
      </trkpt>
      <trkpt lat="41.8940800" lon="-5.7048310">
        <ele>703.0</ele>
        <time>2021-10-13T09:05:14Z</time>
      </trkpt>
      <trkpt lat="41.8940320" lon="-5.7048540">
        <ele>703.4</ele>
        <time>2021-10-13T09:05:17Z</time>
      </trkpt>
      <trkpt lat="41.8940000" lon="-5.7048740">
        <ele>703.6</ele>
        <time>2021-10-13T09:05:19Z</time>
      </trkpt>
      <trkpt lat="41.8939340" lon="-5.7049080">
        <ele>703.8</ele>
        <time>2021-10-13T09:05:23Z</time>
      </trkpt>
      <trkpt lat="41.8938340" lon="-5.7049530">
        <ele>704.6</ele>
        <time>2021-10-13T09:05:29Z</time>
      </trkpt>
      <trkpt lat="41.8937930" lon="-5.7049630">
        <ele>704.8</ele>
        <time>2021-10-13T09:05:32Z</time>
      </trkpt>
      <trkpt lat="41.8937290" lon="-5.7050110">
        <ele>705.6</ele>
        <time>2021-10-13T09:05:36Z</time>
      </trkpt>
      <trkpt lat="41.8936750" lon="-5.7050520">
        <ele>706.4</ele>
        <time>2021-10-13T09:05:40Z</time>
      </trkpt>
      <trkpt lat="41.8936600" lon="-5.7050610">
        <ele>706.8</ele>
        <time>2021-10-13T09:05:41Z</time>
      </trkpt>
      <trkpt lat="41.8935160" lon="-5.7051510">
        <ele>707.8</ele>
        <time>2021-10-13T09:05:50Z</time>
      </trkpt>
      <trkpt lat="41.8934990" lon="-5.7051610">
        <ele>707.8</ele>
        <time>2021-10-13T09:05:51Z</time>
      </trkpt>
      <trkpt lat="41.8934690" lon="-5.7051800">
        <ele>708.0</ele>
        <time>2021-10-13T09:05:53Z</time>
      </trkpt>
      <trkpt lat="41.8934170" lon="-5.7052040">
        <ele>708.4</ele>
        <time>2021-10-13T09:05:56Z</time>
      </trkpt>
      <trkpt lat="41.8933680" lon="-5.7052200">
        <ele>708.8</ele>
        <time>2021-10-13T09:05:59Z</time>
      </trkpt>
      <trkpt lat="41.8933290" lon="-5.7052300">
        <ele>708.8</ele>
        <time>2021-10-13T09:06:01Z</time>
      </trkpt>
      <trkpt lat="41.8932980" lon="-5.7052390">
        <ele>709.0</ele>
        <time>2021-10-13T09:06:03Z</time>
      </trkpt>
      <trkpt lat="41.8931870" lon="-5.7052830">
        <ele>709.6</ele>
        <time>2021-10-13T09:06:10Z</time>
      </trkpt>
      <trkpt lat="41.8931040" lon="-5.7053370">
        <ele>709.8</ele>
        <time>2021-10-13T09:06:16Z</time>
      </trkpt>
      <trkpt lat="41.8930780" lon="-5.7053640">
        <ele>710.0</ele>
        <time>2021-10-13T09:06:18Z</time>
      </trkpt>
      <trkpt lat="41.8929460" lon="-5.7054430">
        <ele>709.8</ele>
        <time>2021-10-13T09:06:26Z</time>
      </trkpt>
      <trkpt lat="41.8928680" lon="-5.7054860">
        <ele>709.8</ele>
        <time>2021-10-13T09:06:30Z</time>
      </trkpt>
      <trkpt lat="41.8928050" lon="-5.7055340">
        <ele>710.2</ele>
        <time>2021-10-13T09:06:33Z</time>
      </trkpt>
      <trkpt lat="41.8927520" lon="-5.7055680">
        <ele>710.2</ele>
        <time>2021-10-13T09:06:36Z</time>
      </trkpt>
      <trkpt lat="41.8926760" lon="-5.7056190">
        <ele>710.0</ele>
        <time>2021-10-13T09:06:40Z</time>
      </trkpt>
      <trkpt lat="41.8926030" lon="-5.7056560">
        <ele>710.0</ele>
        <time>2021-10-13T09:06:44Z</time>
      </trkpt>
      <trkpt lat="41.8924710" lon="-5.7057280">
        <ele>710.0</ele>
        <time>2021-10-13T09:06:50Z</time>
      </trkpt>
      <trkpt lat="41.8924300" lon="-5.7057540">
        <ele>710.0</ele>
        <time>2021-10-13T09:06:52Z</time>
      </trkpt>
      <trkpt lat="41.8923250" lon="-5.7058100">
        <ele>710.0</ele>
        <time>2021-10-13T09:06:56Z</time>
      </trkpt>
      <trkpt lat="41.8922010" lon="-5.7058740">
        <ele>710.0</ele>
        <time>2021-10-13T09:07:00Z</time>
      </trkpt>
      <trkpt lat="41.8920370" lon="-5.7059740">
        <ele>710.0</ele>
        <time>2021-10-13T09:07:05Z</time>
      </trkpt>
      <trkpt lat="41.8919390" lon="-5.7060310">
        <ele>709.8</ele>
        <time>2021-10-13T09:07:08Z</time>
      </trkpt>
      <trkpt lat="41.8916360" lon="-5.7062210">
        <ele>710.0</ele>
        <time>2021-10-13T09:07:17Z</time>
      </trkpt>
      <trkpt lat="41.8914240" lon="-5.7064310">
        <ele>710.2</ele>
        <time>2021-10-13T09:07:24Z</time>
      </trkpt>
      <trkpt lat="41.8913170" lon="-5.7065480">
        <ele>710.4</ele>
        <time>2021-10-13T09:07:28Z</time>
      </trkpt>
      <trkpt lat="41.8912890" lon="-5.7065510">
        <ele>710.4</ele>
        <time>2021-10-13T09:07:29Z</time>
      </trkpt>
      <trkpt lat="41.8912120" lon="-5.7064990">
        <ele>710.8</ele>
        <time>2021-10-13T09:07:33Z</time>
      </trkpt>
      <trkpt lat="41.8911950" lon="-5.7064410">
        <ele>710.8</ele>
        <time>2021-10-13T09:07:36Z</time>
      </trkpt>
      <trkpt lat="41.8911950" lon="-5.7064320">
        <ele>710.8</ele>
        <time>2021-10-13T09:07:37Z</time>
      </trkpt>
      <trkpt lat="41.8911940" lon="-5.7064270">
        <ele>711.0</ele>
        <time>2021-10-13T09:07:38Z</time>
      </trkpt>
      <trkpt lat="41.8911940" lon="-5.7064270">
        <ele>711.0</ele>
        <time>2021-10-13T09:07:39Z</time>
      </trkpt>
      <trkpt lat="41.8911790" lon="-5.7063870">
        <ele>711.2</ele>
        <time>2021-10-13T09:07:44Z</time>
      </trkpt>
      <trkpt lat="41.8911570" lon="-5.7063340">
        <ele>711.4</ele>
        <time>2021-10-13T09:07:46Z</time>
      </trkpt>
      <trkpt lat="41.8910470" lon="-5.7061500">
        <ele>711.4</ele>
        <time>2021-10-13T09:07:52Z</time>
      </trkpt>
      <trkpt lat="41.8908840" lon="-5.7059360">
        <ele>711.6</ele>
        <time>2021-10-13T09:07:59Z</time>
      </trkpt>
      <trkpt lat="41.8907820" lon="-5.7058140">
        <ele>711.4</ele>
        <time>2021-10-13T09:08:03Z</time>
      </trkpt>
      <trkpt lat="41.8906260" lon="-5.7056300">
        <ele>711.2</ele>
        <time>2021-10-13T09:08:09Z</time>
      </trkpt>
      <trkpt lat="41.8903440" lon="-5.7052960">
        <ele>711.4</ele>
        <time>2021-10-13T09:08:18Z</time>
      </trkpt>
      <trkpt lat="41.8902500" lon="-5.7051800">
        <ele>711.2</ele>
        <time>2021-10-13T09:08:21Z</time>
      </trkpt>
      <trkpt lat="41.8900330" lon="-5.7049270">
        <ele>711.2</ele>
        <time>2021-10-13T09:08:28Z</time>
      </trkpt>
      <trkpt lat="41.8897010" lon="-5.7045210">
        <ele>711.0</ele>
        <time>2021-10-13T09:08:39Z</time>
      </trkpt>
      <trkpt lat="41.8893940" lon="-5.7041650">
        <ele>710.6</ele>
        <time>2021-10-13T09:08:49Z</time>
      </trkpt>
      <trkpt lat="41.8893080" lon="-5.7040690">
        <ele>710.0</ele>
        <time>2021-10-13T09:08:54Z</time>
      </trkpt>
      <trkpt lat="41.8893060" lon="-5.7040660">
        <ele>709.8</ele>
        <time>2021-10-13T09:08:55Z</time>
      </trkpt>
      <trkpt lat="41.8893060" lon="-5.7040660">
        <ele>709.6</ele>
        <time>2021-10-13T09:08:56Z</time>
      </trkpt>
      <trkpt lat="41.8892760" lon="-5.7040180">
        <ele>708.8</ele>
        <time>2021-10-13T09:09:11Z</time>
      </trkpt>
      <trkpt lat="41.8892490" lon="-5.7039910">
        <ele>708.8</ele>
        <time>2021-10-13T09:09:12Z</time>
      </trkpt>
      <trkpt lat="41.8892170" lon="-5.7039620">
        <ele>708.8</ele>
        <time>2021-10-13T09:09:13Z</time>
      </trkpt>
      <trkpt lat="41.8890510" lon="-5.7038160">
        <ele>708.6</ele>
        <time>2021-10-13T09:09:17Z</time>
      </trkpt>
      <trkpt lat="41.8889670" lon="-5.7037450">
        <ele>707.8</ele>
        <time>2021-10-13T09:09:19Z</time>
      </trkpt>
      <trkpt lat="41.8887960" lon="-5.7036170">
        <ele>706.8</ele>
        <time>2021-10-13T09:09:22Z</time>
      </trkpt>
      <trkpt lat="41.8886770" lon="-5.7035300">
        <ele>705.8</ele>
        <time>2021-10-13T09:09:24Z</time>
      </trkpt>
      <trkpt lat="41.8886130" lon="-5.7034840">
        <ele>705.6</ele>
        <time>2021-10-13T09:09:25Z</time>
      </trkpt>
      <trkpt lat="41.8884070" lon="-5.7033550">
        <ele>704.6</ele>
        <time>2021-10-13T09:09:28Z</time>
      </trkpt>
      <trkpt lat="41.8882180" lon="-5.7032480">
        <ele>703.4</ele>
        <time>2021-10-13T09:09:31Z</time>
      </trkpt>
      <trkpt lat="41.8880560" lon="-5.7031810">
        <ele>703.0</ele>
        <time>2021-10-13T09:09:34Z</time>
      </trkpt>
      <trkpt lat="41.8880100" lon="-5.7031670">
        <ele>703.0</ele>
        <time>2021-10-13T09:09:35Z</time>
      </trkpt>
      <trkpt lat="41.8878340" lon="-5.7031230">
        <ele>703.2</ele>
        <time>2021-10-13T09:09:39Z</time>
      </trkpt>
      <trkpt lat="41.8877560" lon="-5.7030960">
        <ele>703.2</ele>
        <time>2021-10-13T09:09:41Z</time>
      </trkpt>
      <trkpt lat="41.8876510" lon="-5.7030560">
        <ele>703.6</ele>
        <time>2021-10-13T09:09:44Z</time>
      </trkpt>
      <trkpt lat="41.8875870" lon="-5.7030340">
        <ele>703.8</ele>
        <time>2021-10-13T09:09:46Z</time>
      </trkpt>
      <trkpt lat="41.8874750" lon="-5.7029980">
        <ele>704.2</ele>
        <time>2021-10-13T09:09:50Z</time>
      </trkpt>
      <trkpt lat="41.8874500" lon="-5.7029920">
        <ele>704.2</ele>
        <time>2021-10-13T09:09:52Z</time>
      </trkpt>
      <trkpt lat="41.8874500" lon="-5.7029920">
        <ele>704.2</ele>
        <time>2021-10-13T09:09:53Z</time>
      </trkpt>
      <trkpt lat="41.8874000" lon="-5.7029770">
        <ele>704.0</ele>
        <time>2021-10-13T09:09:58Z</time>
      </trkpt>
      <trkpt lat="41.8873380" lon="-5.7029560">
        <ele>703.8</ele>
        <time>2021-10-13T09:10:00Z</time>
      </trkpt>
      <trkpt lat="41.8871030" lon="-5.7028830">
        <ele>703.2</ele>
        <time>2021-10-13T09:10:05Z</time>
      </trkpt>
      <trkpt lat="41.8870530" lon="-5.7028670">
        <ele>703.2</ele>
        <time>2021-10-13T09:10:06Z</time>
      </trkpt>
      <trkpt lat="41.8867350" lon="-5.7027920">
        <ele>702.0</ele>
        <time>2021-10-13T09:10:10Z</time>
      </trkpt>
      <trkpt lat="41.8864680" lon="-5.7027360">
        <ele>700.2</ele>
        <time>2021-10-13T09:10:13Z</time>
      </trkpt>
      <trkpt lat="41.8862990" lon="-5.7027000">
        <ele>699.0</ele>
        <time>2021-10-13T09:10:15Z</time>
      </trkpt>
      <trkpt lat="41.8861840" lon="-5.7026760">
        <ele>698.0</ele>
        <time>2021-10-13T09:10:16Z</time>
      </trkpt>
      <trkpt lat="41.8860870" lon="-5.7026550">
        <ele>697.8</ele>
        <time>2021-10-13T09:10:17Z</time>
      </trkpt>
      <trkpt lat="41.8857920" lon="-5.7025980">
        <ele>696.2</ele>
        <time>2021-10-13T09:10:20Z</time>
      </trkpt>
      <trkpt lat="41.8855060" lon="-5.7025680">
        <ele>695.2</ele>
        <time>2021-10-13T09:10:23Z</time>
      </trkpt>
      <trkpt lat="41.8853210" lon="-5.7025750">
        <ele>694.2</ele>
        <time>2021-10-13T09:10:25Z</time>
      </trkpt>
      <trkpt lat="41.8850740" lon="-5.7025990">
        <ele>693.2</ele>
        <time>2021-10-13T09:10:28Z</time>
      </trkpt>
      <trkpt lat="41.8850000" lon="-5.7026060">
        <ele>693.0</ele>
        <time>2021-10-13T09:10:29Z</time>
      </trkpt>
      <trkpt lat="41.8846750" lon="-5.7026440">
        <ele>692.6</ele>
        <time>2021-10-13T09:10:34Z</time>
      </trkpt>
      <trkpt lat="41.8843820" lon="-5.7026830">
        <ele>693.0</ele>
        <time>2021-10-13T09:10:40Z</time>
      </trkpt>
      <trkpt lat="41.8840290" lon="-5.7027280">
        <ele>693.6</ele>
        <time>2021-10-13T09:10:48Z</time>
      </trkpt>
      <trkpt lat="41.8838960" lon="-5.7027470">
        <ele>694.2</ele>
        <time>2021-10-13T09:10:51Z</time>
      </trkpt>
      <trkpt lat="41.8837810" lon="-5.7027640">
        <ele>694.8</ele>
        <time>2021-10-13T09:10:54Z</time>
      </trkpt>
      <trkpt lat="41.8837530" lon="-5.7027680">
        <ele>695.2</ele>
        <time>2021-10-13T09:10:55Z</time>
      </trkpt>
      <trkpt lat="41.8837180" lon="-5.7027740">
        <ele>695.4</ele>
        <time>2021-10-13T09:10:56Z</time>
      </trkpt>
      <trkpt lat="41.8835450" lon="-5.7027970">
        <ele>696.4</ele>
        <time>2021-10-13T09:11:01Z</time>
      </trkpt>
      <trkpt lat="41.8834760" lon="-5.7028070">
        <ele>697.0</ele>
        <time>2021-10-13T09:11:03Z</time>
      </trkpt>
      <trkpt lat="41.8833960" lon="-5.7028140">
        <ele>697.6</ele>
        <time>2021-10-13T09:11:06Z</time>
      </trkpt>
      <trkpt lat="41.8832680" lon="-5.7028230">
        <ele>698.4</ele>
        <time>2021-10-13T09:11:11Z</time>
      </trkpt>
      <trkpt lat="41.8832130" lon="-5.7028320">
        <ele>698.8</ele>
        <time>2021-10-13T09:11:13Z</time>
      </trkpt>
      <trkpt lat="41.8831860" lon="-5.7028390">
        <ele>698.8</ele>
        <time>2021-10-13T09:11:14Z</time>
      </trkpt>
      <trkpt lat="41.8831030" lon="-5.7028410">
        <ele>699.8</ele>
        <time>2021-10-13T09:11:17Z</time>
      </trkpt>
      <trkpt lat="41.8830750" lon="-5.7028420">
        <ele>700.2</ele>
        <time>2021-10-13T09:11:18Z</time>
      </trkpt>
      <trkpt lat="41.8830230" lon="-5.7028490">
        <ele>700.6</ele>
        <time>2021-10-13T09:11:20Z</time>
      </trkpt>
      <trkpt lat="41.8829580" lon="-5.7028580">
        <ele>700.8</ele>
        <time>2021-10-13T09:11:22Z</time>
      </trkpt>
      <trkpt lat="41.8829030" lon="-5.7028650">
        <ele>701.0</ele>
        <time>2021-10-13T09:11:24Z</time>
      </trkpt>
      <trkpt lat="41.8828480" lon="-5.7028670">
        <ele>701.0</ele>
        <time>2021-10-13T09:11:26Z</time>
      </trkpt>
      <trkpt lat="41.8828080" lon="-5.7028710">
        <ele>701.0</ele>
        <time>2021-10-13T09:11:27Z</time>
      </trkpt>
      <trkpt lat="41.8827360" lon="-5.7028860">
        <ele>701.0</ele>
        <time>2021-10-13T09:11:29Z</time>
      </trkpt>
      <trkpt lat="41.8825850" lon="-5.7029070">
        <ele>700.8</ele>
        <time>2021-10-13T09:11:33Z</time>
      </trkpt>
      <trkpt lat="41.8825190" lon="-5.7029130">
        <ele>700.8</ele>
        <time>2021-10-13T09:11:35Z</time>
      </trkpt>
      <trkpt lat="41.8823360" lon="-5.7029350">
        <ele>700.8</ele>
        <time>2021-10-13T09:11:40Z</time>
      </trkpt>
      <trkpt lat="41.8822950" lon="-5.7029390">
        <ele>700.8</ele>
        <time>2021-10-13T09:11:41Z</time>
      </trkpt>
      <trkpt lat="41.8822030" lon="-5.7029470">
        <ele>701.0</ele>
        <time>2021-10-13T09:11:44Z</time>
      </trkpt>
      <trkpt lat="41.8820370" lon="-5.7029690">
        <ele>701.2</ele>
        <time>2021-10-13T09:11:49Z</time>
      </trkpt>
      <trkpt lat="41.8819600" lon="-5.7029840">
        <ele>701.6</ele>
        <time>2021-10-13T09:11:51Z</time>
      </trkpt>
      <trkpt lat="41.8819030" lon="-5.7029880">
        <ele>702.0</ele>
        <time>2021-10-13T09:11:53Z</time>
      </trkpt>
      <trkpt lat="41.8817750" lon="-5.7030090">
        <ele>702.6</ele>
        <time>2021-10-13T09:11:57Z</time>
      </trkpt>
      <trkpt lat="41.8816720" lon="-5.7030240">
        <ele>703.0</ele>
        <time>2021-10-13T09:12:00Z</time>
      </trkpt>
      <trkpt lat="41.8816070" lon="-5.7030300">
        <ele>703.0</ele>
        <time>2021-10-13T09:12:02Z</time>
      </trkpt>
      <trkpt lat="41.8815080" lon="-5.7030380">
        <ele>703.2</ele>
        <time>2021-10-13T09:12:05Z</time>
      </trkpt>
      <trkpt lat="41.8813450" lon="-5.7030580">
        <ele>703.6</ele>
        <time>2021-10-13T09:12:10Z</time>
      </trkpt>
      <trkpt lat="41.8812490" lon="-5.7030700">
        <ele>704.0</ele>
        <time>2021-10-13T09:12:13Z</time>
      </trkpt>
      <trkpt lat="41.8811840" lon="-5.7030820">
        <ele>704.0</ele>
        <time>2021-10-13T09:12:15Z</time>
      </trkpt>
      <trkpt lat="41.8809200" lon="-5.7031090">
        <ele>704.4</ele>
        <time>2021-10-13T09:12:23Z</time>
      </trkpt>
      <trkpt lat="41.8806990" lon="-5.7031320">
        <ele>704.8</ele>
        <time>2021-10-13T09:12:30Z</time>
      </trkpt>
      <trkpt lat="41.8805220" lon="-5.7031620">
        <ele>705.2</ele>
        <time>2021-10-13T09:12:35Z</time>
      </trkpt>
      <trkpt lat="41.8803800" lon="-5.7031850">
        <ele>705.4</ele>
        <time>2021-10-13T09:12:39Z</time>
      </trkpt>
      <trkpt lat="41.8801160" lon="-5.7032050">
        <ele>705.8</ele>
        <time>2021-10-13T09:12:46Z</time>
      </trkpt>
      <trkpt lat="41.8800350" lon="-5.7032170">
        <ele>705.8</ele>
        <time>2021-10-13T09:12:48Z</time>
      </trkpt>
      <trkpt lat="41.8799240" lon="-5.7032290">
        <ele>705.8</ele>
        <time>2021-10-13T09:12:51Z</time>
      </trkpt>
      <trkpt lat="41.8796670" lon="-5.7032620">
        <ele>705.8</ele>
        <time>2021-10-13T09:12:58Z</time>
      </trkpt>
      <trkpt lat="41.8796300" lon="-5.7032660">
        <ele>706.0</ele>
        <time>2021-10-13T09:12:59Z</time>
      </trkpt>
      <trkpt lat="41.8795490" lon="-5.7032750">
        <ele>706.0</ele>
        <time>2021-10-13T09:13:01Z</time>
      </trkpt>
      <trkpt lat="41.8794820" lon="-5.7032810">
        <ele>706.0</ele>
        <time>2021-10-13T09:13:03Z</time>
      </trkpt>
      <trkpt lat="41.8794450" lon="-5.7032850">
        <ele>706.2</ele>
        <time>2021-10-13T09:13:04Z</time>
      </trkpt>
      <trkpt lat="41.8793620" lon="-5.7032930">
        <ele>706.4</ele>
        <time>2021-10-13T09:13:06Z</time>
      </trkpt>
      <trkpt lat="41.8791200" lon="-5.7033280">
        <ele>706.8</ele>
        <time>2021-10-13T09:13:13Z</time>
      </trkpt>
      <trkpt lat="41.8790790" lon="-5.7033320">
        <ele>706.8</ele>
        <time>2021-10-13T09:13:14Z</time>
      </trkpt>
      <trkpt lat="41.8789560" lon="-5.7033440">
        <ele>707.2</ele>
        <time>2021-10-13T09:13:18Z</time>
      </trkpt>
      <trkpt lat="41.8787480" lon="-5.7033790">
        <ele>707.8</ele>
        <time>2021-10-13T09:13:24Z</time>
      </trkpt>
      <trkpt lat="41.8786130" lon="-5.7033870">
        <ele>708.4</ele>
        <time>2021-10-13T09:13:28Z</time>
      </trkpt>
      <trkpt lat="41.8784450" lon="-5.7034010">
        <ele>708.6</ele>
        <time>2021-10-13T09:13:34Z</time>
      </trkpt>
      <trkpt lat="41.8783730" lon="-5.7034010">
        <ele>708.6</ele>
        <time>2021-10-13T09:13:37Z</time>
      </trkpt>
      <trkpt lat="41.8783130" lon="-5.7034110">
        <ele>708.6</ele>
        <time>2021-10-13T09:13:39Z</time>
      </trkpt>
      <trkpt lat="41.8782670" lon="-5.7034560">
        <ele>708.6</ele>
        <time>2021-10-13T09:13:41Z</time>
      </trkpt>
      <trkpt lat="41.8782400" lon="-5.7035520">
        <ele>709.0</ele>
        <time>2021-10-13T09:13:43Z</time>
      </trkpt>
      <trkpt lat="41.8782500" lon="-5.7036370">
        <ele>708.8</ele>
        <time>2021-10-13T09:13:45Z</time>
      </trkpt>
      <trkpt lat="41.8782760" lon="-5.7037930">
        <ele>708.4</ele>
        <time>2021-10-13T09:13:48Z</time>
      </trkpt>
      <trkpt lat="41.8782990" lon="-5.7039500">
        <ele>708.2</ele>
        <time>2021-10-13T09:13:51Z</time>
      </trkpt>
      <trkpt lat="41.8783670" lon="-5.7044000">
        <ele>707.6</ele>
        <time>2021-10-13T09:13:59Z</time>
      </trkpt>
      <trkpt lat="41.8784140" lon="-5.7046920">
        <ele>707.4</ele>
        <time>2021-10-13T09:14:05Z</time>
      </trkpt>
      <trkpt lat="41.8785050" lon="-5.7049780">
        <ele>707.2</ele>
        <time>2021-10-13T09:14:10Z</time>
      </trkpt>
      <trkpt lat="41.8785910" lon="-5.7052870">
        <ele>705.6</ele>
        <time>2021-10-13T09:14:14Z</time>
      </trkpt>
      <trkpt lat="41.8786380" lon="-5.7054610">
        <ele>705.0</ele>
        <time>2021-10-13T09:14:16Z</time>
      </trkpt>
      <trkpt lat="41.8786580" lon="-5.7055350">
        <ele>704.4</ele>
        <time>2021-10-13T09:14:17Z</time>
      </trkpt>
      <trkpt lat="41.8787130" lon="-5.7057370">
        <ele>703.4</ele>
        <time>2021-10-13T09:14:20Z</time>
      </trkpt>
      <trkpt lat="41.8787280" lon="-5.7057910">
        <ele>703.0</ele>
        <time>2021-10-13T09:14:21Z</time>
      </trkpt>
      <trkpt lat="41.8787550" lon="-5.7058680">
        <ele>703.0</ele>
        <time>2021-10-13T09:14:22Z</time>
      </trkpt>
      <trkpt lat="41.8788180" lon="-5.7060790">
        <ele>702.2</ele>
        <time>2021-10-13T09:14:27Z</time>
      </trkpt>
      <trkpt lat="41.8788200" lon="-5.7060870">
        <ele>702.0</ele>
        <time>2021-10-13T09:14:29Z</time>
      </trkpt>
      <trkpt lat="41.8788320" lon="-5.7061450">
        <ele>702.0</ele>
        <time>2021-10-13T09:15:52Z</time>
      </trkpt>
      <trkpt lat="41.8788340" lon="-5.7061940">
        <ele>702.0</ele>
        <time>2021-10-13T09:15:53Z</time>
      </trkpt>
      <trkpt lat="41.8788430" lon="-5.7063650">
        <ele>702.0</ele>
        <time>2021-10-13T09:15:56Z</time>
      </trkpt>
      <trkpt lat="41.8788640" lon="-5.7065450">
        <ele>702.0</ele>
        <time>2021-10-13T09:15:59Z</time>
      </trkpt>
      <trkpt lat="41.8788740" lon="-5.7066020">
        <ele>701.8</ele>
        <time>2021-10-13T09:16:00Z</time>
      </trkpt>
      <trkpt lat="41.8789180" lon="-5.7067510">
        <ele>701.6</ele>
        <time>2021-10-13T09:16:03Z</time>
      </trkpt>
      <trkpt lat="41.8790220" lon="-5.7071800">
        <ele>701.8</ele>
        <time>2021-10-13T09:16:12Z</time>
      </trkpt>
      <trkpt lat="41.8790560" lon="-5.7073160">
        <ele>702.0</ele>
        <time>2021-10-13T09:16:15Z</time>
      </trkpt>
      <trkpt lat="41.8791160" lon="-5.7075250">
        <ele>702.8</ele>
        <time>2021-10-13T09:16:20Z</time>
      </trkpt>
      <trkpt lat="41.8791440" lon="-5.7076350">
        <ele>703.2</ele>
        <time>2021-10-13T09:16:23Z</time>
      </trkpt>
      <trkpt lat="41.8791650" lon="-5.7077470">
        <ele>703.8</ele>
        <time>2021-10-13T09:16:26Z</time>
      </trkpt>
      <trkpt lat="41.8791750" lon="-5.7078280">
        <ele>704.6</ele>
        <time>2021-10-13T09:16:28Z</time>
      </trkpt>
      <trkpt lat="41.8792030" lon="-5.7079500">
        <ele>705.0</ele>
        <time>2021-10-13T09:16:31Z</time>
      </trkpt>
      <trkpt lat="41.8792190" lon="-5.7080290">
        <ele>705.4</ele>
        <time>2021-10-13T09:16:33Z</time>
      </trkpt>
      <trkpt lat="41.8792330" lon="-5.7081160">
        <ele>705.4</ele>
        <time>2021-10-13T09:16:35Z</time>
      </trkpt>
      <trkpt lat="41.8792390" lon="-5.7081590">
        <ele>705.6</ele>
        <time>2021-10-13T09:16:36Z</time>
      </trkpt>
      <trkpt lat="41.8792390" lon="-5.7081990">
        <ele>705.6</ele>
        <time>2021-10-13T09:16:37Z</time>
      </trkpt>
      <trkpt lat="41.8792320" lon="-5.7082420">
        <ele>705.8</ele>
        <time>2021-10-13T09:16:38Z</time>
      </trkpt>
      <trkpt lat="41.8792120" lon="-5.7083330">
        <ele>705.8</ele>
        <time>2021-10-13T09:16:40Z</time>
      </trkpt>
      <trkpt lat="41.8791630" lon="-5.7085640">
        <ele>705.8</ele>
        <time>2021-10-13T09:16:45Z</time>
      </trkpt>
      <trkpt lat="41.8791450" lon="-5.7086560">
        <ele>705.8</ele>
        <time>2021-10-13T09:16:47Z</time>
      </trkpt>
      <trkpt lat="41.8791200" lon="-5.7087390">
        <ele>706.0</ele>
        <time>2021-10-13T09:16:49Z</time>
      </trkpt>
      <trkpt lat="41.8790970" lon="-5.7088170">
        <ele>706.0</ele>
        <time>2021-10-13T09:16:51Z</time>
      </trkpt>
      <trkpt lat="41.8790860" lon="-5.7088520">
        <ele>706.0</ele>
        <time>2021-10-13T09:16:52Z</time>
      </trkpt>
      <trkpt lat="41.8790750" lon="-5.7088870">
        <ele>706.0</ele>
        <time>2021-10-13T09:16:53Z</time>
      </trkpt>
      <trkpt lat="41.8790570" lon="-5.7089870">
        <ele>706.0</ele>
        <time>2021-10-13T09:16:57Z</time>
      </trkpt>
      <trkpt lat="41.8790600" lon="-5.7089990">
        <ele>706.0</ele>
        <time>2021-10-13T09:16:58Z</time>
      </trkpt>
      <trkpt lat="41.8790730" lon="-5.7090050">
        <ele>705.8</ele>
        <time>2021-10-13T09:17:00Z</time>
      </trkpt>
      <trkpt lat="41.8790830" lon="-5.7090010">
        <ele>705.6</ele>
        <time>2021-10-13T09:17:01Z</time>
      </trkpt>
      <trkpt lat="41.8791520" lon="-5.7089820">
        <ele>705.4</ele>
        <time>2021-10-13T09:17:05Z</time>
      </trkpt>
      <trkpt lat="41.8791770" lon="-5.7089840">
        <ele>705.4</ele>
        <time>2021-10-13T09:17:06Z</time>
      </trkpt>
      <trkpt lat="41.8792820" lon="-5.7089680">
        <ele>705.0</ele>
        <time>2021-10-13T09:17:10Z</time>
      </trkpt>
      <trkpt lat="41.8793410" lon="-5.7089740">
        <ele>704.8</ele>
        <time>2021-10-13T09:17:12Z</time>
      </trkpt>
      <trkpt lat="41.8794860" lon="-5.7090140">
        <ele>704.4</ele>
        <time>2021-10-13T09:17:16Z</time>
      </trkpt>
      <trkpt lat="41.8795330" lon="-5.7090120">
        <ele>704.2</ele>
        <time>2021-10-13T09:17:17Z</time>
      </trkpt>
      <trkpt lat="41.8796680" lon="-5.7090400">
        <ele>703.8</ele>
        <time>2021-10-13T09:17:20Z</time>
      </trkpt>
      <trkpt lat="41.8797420" lon="-5.7090700">
        <ele>703.2</ele>
        <time>2021-10-13T09:17:22Z</time>
      </trkpt>
      <trkpt lat="41.8798490" lon="-5.7090910">
        <ele>702.2</ele>
        <time>2021-10-13T09:17:25Z</time>
      </trkpt>
      <trkpt lat="41.8799270" lon="-5.7090950">
        <ele>701.4</ele>
        <time>2021-10-13T09:17:28Z</time>
      </trkpt>
      <trkpt lat="41.8799320" lon="-5.7091090">
        <ele>701.0</ele>
        <time>2021-10-13T09:17:29Z</time>
      </trkpt>
      <trkpt lat="41.8799340" lon="-5.7091330">
        <ele>700.2</ele>
        <time>2021-10-13T09:17:34Z</time>
      </trkpt>
      <trkpt lat="41.8799070" lon="-5.7091680">
        <ele>700.0</ele>
        <time>2021-10-13T09:18:01Z</time>
      </trkpt>
      <trkpt lat="41.8798840" lon="-5.7091770">
        <ele>700.0</ele>
        <time>2021-10-13T09:18:02Z</time>
      </trkpt>
      <trkpt lat="41.8798300" lon="-5.7091690">
        <ele>700.0</ele>
        <time>2021-10-13T09:18:04Z</time>
      </trkpt>
      <trkpt lat="41.8796600" lon="-5.7091080">
        <ele>700.4</ele>
        <time>2021-10-13T09:18:11Z</time>
      </trkpt>
      <trkpt lat="41.8795760" lon="-5.7090790">
        <ele>701.0</ele>
        <time>2021-10-13T09:18:15Z</time>
      </trkpt>
      <trkpt lat="41.8795350" lon="-5.7090720">
        <ele>701.4</ele>
        <time>2021-10-13T09:18:17Z</time>
      </trkpt>
      <trkpt lat="41.8794490" lon="-5.7090380">
        <ele>702.0</ele>
        <time>2021-10-13T09:18:21Z</time>
      </trkpt>
      <trkpt lat="41.8793900" lon="-5.7090250">
        <ele>702.8</ele>
        <time>2021-10-13T09:18:24Z</time>
      </trkpt>
      <trkpt lat="41.8793150" lon="-5.7090040">
        <ele>703.2</ele>
        <time>2021-10-13T09:18:27Z</time>
      </trkpt>
      <trkpt lat="41.8792460" lon="-5.7089800">
        <ele>703.6</ele>
        <time>2021-10-13T09:18:30Z</time>
      </trkpt>
      <trkpt lat="41.8792230" lon="-5.7089860">
        <ele>703.8</ele>
        <time>2021-10-13T09:18:31Z</time>
      </trkpt>
      <trkpt lat="41.8791980" lon="-5.7089960">
        <ele>704.0</ele>
        <time>2021-10-13T09:18:32Z</time>
      </trkpt>
      <trkpt lat="41.8791750" lon="-5.7090040">
        <ele>704.2</ele>
        <time>2021-10-13T09:18:33Z</time>
      </trkpt>
      <trkpt lat="41.8790360" lon="-5.7090130">
        <ele>705.2</ele>
        <time>2021-10-13T09:18:38Z</time>
      </trkpt>
      <trkpt lat="41.8789840" lon="-5.7090160">
        <ele>705.4</ele>
        <time>2021-10-13T09:18:40Z</time>
      </trkpt>
      <trkpt lat="41.8788210" lon="-5.7090540">
        <ele>706.4</ele>
        <time>2021-10-13T09:18:46Z</time>
      </trkpt>
      <trkpt lat="41.8787940" lon="-5.7090630">
        <ele>706.4</ele>
        <time>2021-10-13T09:18:47Z</time>
      </trkpt>
      <trkpt lat="41.8786880" lon="-5.7091090">
        <ele>707.0</ele>
        <time>2021-10-13T09:18:51Z</time>
      </trkpt>
      <trkpt lat="41.8786380" lon="-5.7091200">
        <ele>707.2</ele>
        <time>2021-10-13T09:18:53Z</time>
      </trkpt>
      <trkpt lat="41.8784390" lon="-5.7091790">
        <ele>708.4</ele>
        <time>2021-10-13T09:19:00Z</time>
      </trkpt>
      <trkpt lat="41.8783920" lon="-5.7091920">
        <ele>708.6</ele>
        <time>2021-10-13T09:19:02Z</time>
      </trkpt>
      <trkpt lat="41.8783690" lon="-5.7092000">
        <ele>708.8</ele>
        <time>2021-10-13T09:19:03Z</time>
      </trkpt>
      <trkpt lat="41.8783230" lon="-5.7092140">
        <ele>709.0</ele>
        <time>2021-10-13T09:19:05Z</time>
      </trkpt>
      <trkpt lat="41.8782800" lon="-5.7092260">
        <ele>709.2</ele>
        <time>2021-10-13T09:19:07Z</time>
      </trkpt>
      <trkpt lat="41.8782600" lon="-5.7092300">
        <ele>709.4</ele>
        <time>2021-10-13T09:19:08Z</time>
      </trkpt>
      <trkpt lat="41.8782370" lon="-5.7092340">
        <ele>709.4</ele>
        <time>2021-10-13T09:19:09Z</time>
      </trkpt>
      <trkpt lat="41.8781890" lon="-5.7092440">
        <ele>709.8</ele>
        <time>2021-10-13T09:19:11Z</time>
      </trkpt>
      <trkpt lat="41.8780910" lon="-5.7092800">
        <ele>710.2</ele>
        <time>2021-10-13T09:19:15Z</time>
      </trkpt>
      <trkpt lat="41.8780360" lon="-5.7093060">
        <ele>710.2</ele>
        <time>2021-10-13T09:19:17Z</time>
      </trkpt>
      <trkpt lat="41.8779520" lon="-5.7093350">
        <ele>710.4</ele>
        <time>2021-10-13T09:19:20Z</time>
      </trkpt>
      <trkpt lat="41.8778120" lon="-5.7094060">
        <ele>710.8</ele>
        <time>2021-10-13T09:19:26Z</time>
      </trkpt>
      <trkpt lat="41.8777420" lon="-5.7094360">
        <ele>710.8</ele>
        <time>2021-10-13T09:19:29Z</time>
      </trkpt>
      <trkpt lat="41.8776530" lon="-5.7094920">
        <ele>710.8</ele>
        <time>2021-10-13T09:19:33Z</time>
      </trkpt>
      <trkpt lat="41.8775980" lon="-5.7095300">
        <ele>710.8</ele>
        <time>2021-10-13T09:19:35Z</time>
      </trkpt>
      <trkpt lat="41.8775710" lon="-5.7095540">
        <ele>710.8</ele>
        <time>2021-10-13T09:19:36Z</time>
      </trkpt>
      <trkpt lat="41.8774950" lon="-5.7096270">
        <ele>710.8</ele>
        <time>2021-10-13T09:19:39Z</time>
      </trkpt>
      <trkpt lat="41.8773850" lon="-5.7097190">
        <ele>710.8</ele>
        <time>2021-10-13T09:19:43Z</time>
      </trkpt>
      <trkpt lat="41.8773040" lon="-5.7097620">
        <ele>710.6</ele>
        <time>2021-10-13T09:19:46Z</time>
      </trkpt>
      <trkpt lat="41.8772300" lon="-5.7097960">
        <ele>710.6</ele>
        <time>2021-10-13T09:19:49Z</time>
      </trkpt>
      <trkpt lat="41.8771830" lon="-5.7098230">
        <ele>710.4</ele>
        <time>2021-10-13T09:19:52Z</time>
      </trkpt>
      <trkpt lat="41.8771800" lon="-5.7098270">
        <ele>710.4</ele>
        <time>2021-10-13T09:19:53Z</time>
      </trkpt>
      <trkpt lat="41.8771800" lon="-5.7098270">
        <ele>710.4</ele>
        <time>2021-10-13T09:19:55Z</time>
      </trkpt>
      <trkpt lat="41.8771290" lon="-5.7098360">
        <ele>710.2</ele>
        <time>2021-10-13T09:22:11Z</time>
      </trkpt>
      <trkpt lat="41.8771010" lon="-5.7098460">
        <ele>710.2</ele>
        <time>2021-10-13T09:22:12Z</time>
      </trkpt>
      <trkpt lat="41.8769320" lon="-5.7099130">
        <ele>710.0</ele>
        <time>2021-10-13T09:22:17Z</time>
      </trkpt>
      <trkpt lat="41.8767270" lon="-5.7100160">
        <ele>710.0</ele>
        <time>2021-10-13T09:22:23Z</time>
      </trkpt>
      <trkpt lat="41.8765530" lon="-5.7101090">
        <ele>710.2</ele>
        <time>2021-10-13T09:22:28Z</time>
      </trkpt>
      <trkpt lat="41.8765130" lon="-5.7101310">
        <ele>710.2</ele>
        <time>2021-10-13T09:22:29Z</time>
      </trkpt>
      <trkpt lat="41.8763670" lon="-5.7102200">
        <ele>710.2</ele>
        <time>2021-10-13T09:22:33Z</time>
      </trkpt>
      <trkpt lat="41.8762250" lon="-5.7102980">
        <ele>710.0</ele>
        <time>2021-10-13T09:22:37Z</time>
      </trkpt>
      <trkpt lat="41.8761230" lon="-5.7103560">
        <ele>710.4</ele>
        <time>2021-10-13T09:22:40Z</time>
      </trkpt>
      <trkpt lat="41.8760880" lon="-5.7103760">
        <ele>710.4</ele>
        <time>2021-10-13T09:22:41Z</time>
      </trkpt>
      <trkpt lat="41.8759460" lon="-5.7104490">
        <ele>710.2</ele>
        <time>2021-10-13T09:22:45Z</time>
      </trkpt>
      <trkpt lat="41.8758340" lon="-5.7105140">
        <ele>710.4</ele>
        <time>2021-10-13T09:22:48Z</time>
      </trkpt>
      <trkpt lat="41.8755120" lon="-5.7106910">
        <ele>710.2</ele>
        <time>2021-10-13T09:22:56Z</time>
      </trkpt>
      <trkpt lat="41.8754330" lon="-5.7107350">
        <ele>710.2</ele>
        <time>2021-10-13T09:22:58Z</time>
      </trkpt>
      <trkpt lat="41.8752030" lon="-5.7108620">
        <ele>710.4</ele>
        <time>2021-10-13T09:23:04Z</time>
      </trkpt>
      <trkpt lat="41.8751220" lon="-5.7109030">
        <ele>710.4</ele>
        <time>2021-10-13T09:23:06Z</time>
      </trkpt>
      <trkpt lat="41.8750410" lon="-5.7109480">
        <ele>710.4</ele>
        <time>2021-10-13T09:23:08Z</time>
      </trkpt>
      <trkpt lat="41.8749280" lon="-5.7110300">
        <ele>710.4</ele>
        <time>2021-10-13T09:23:11Z</time>
      </trkpt>
      <trkpt lat="41.8744720" lon="-5.7112990">
        <ele>710.6</ele>
        <time>2021-10-13T09:23:22Z</time>
      </trkpt>
      <trkpt lat="41.8743110" lon="-5.7113870">
        <ele>710.6</ele>
        <time>2021-10-13T09:23:26Z</time>
      </trkpt>
      <trkpt lat="41.8740970" lon="-5.7114940">
        <ele>710.6</ele>
        <time>2021-10-13T09:23:31Z</time>
      </trkpt>
      <trkpt lat="41.8740540" lon="-5.7115060">
        <ele>710.6</ele>
        <time>2021-10-13T09:23:32Z</time>
      </trkpt>
      <trkpt lat="41.8736550" lon="-5.7117160">
        <ele>710.6</ele>
        <time>2021-10-13T09:23:41Z</time>
      </trkpt>
      <trkpt lat="41.8732040" lon="-5.7119640">
        <ele>710.4</ele>
        <time>2021-10-13T09:23:51Z</time>
      </trkpt>
      <trkpt lat="41.8729260" lon="-5.7121100">
        <ele>710.4</ele>
        <time>2021-10-13T09:23:58Z</time>
      </trkpt>
      <trkpt lat="41.8728070" lon="-5.7121810">
        <ele>710.4</ele>
        <time>2021-10-13T09:24:01Z</time>
      </trkpt>
      <trkpt lat="41.8727320" lon="-5.7122300">
        <ele>710.4</ele>
        <time>2021-10-13T09:24:03Z</time>
      </trkpt>
      <trkpt lat="41.8726620" lon="-5.7123040">
        <ele>710.4</ele>
        <time>2021-10-13T09:24:05Z</time>
      </trkpt>
      <trkpt lat="41.8726340" lon="-5.7123540">
        <ele>710.4</ele>
        <time>2021-10-13T09:24:06Z</time>
      </trkpt>
      <trkpt lat="41.8725220" lon="-5.7125610">
        <ele>710.4</ele>
        <time>2021-10-13T09:24:10Z</time>
      </trkpt>
      <trkpt lat="41.8724460" lon="-5.7126350">
        <ele>710.4</ele>
        <time>2021-10-13T09:24:12Z</time>
      </trkpt>
      <trkpt lat="41.8723480" lon="-5.7126680">
        <ele>710.4</ele>
        <time>2021-10-13T09:24:14Z</time>
      </trkpt>
      <trkpt lat="41.8722430" lon="-5.7126610">
        <ele>710.4</ele>
        <time>2021-10-13T09:24:16Z</time>
      </trkpt>
      <trkpt lat="41.8721430" lon="-5.7126390">
        <ele>710.4</ele>
        <time>2021-10-13T09:24:18Z</time>
      </trkpt>
      <trkpt lat="41.8720970" lon="-5.7126300">
        <ele>710.4</ele>
        <time>2021-10-13T09:24:19Z</time>
      </trkpt>
      <trkpt lat="41.8720040" lon="-5.7126360">
        <ele>710.4</ele>
        <time>2021-10-13T09:24:21Z</time>
      </trkpt>
      <trkpt lat="41.8719590" lon="-5.7126500">
        <ele>710.6</ele>
        <time>2021-10-13T09:24:22Z</time>
      </trkpt>
      <trkpt lat="41.8719130" lon="-5.7126690">
        <ele>710.6</ele>
        <time>2021-10-13T09:24:23Z</time>
      </trkpt>
      <trkpt lat="41.8716980" lon="-5.7128000">
        <ele>710.6</ele>
        <time>2021-10-13T09:24:28Z</time>
      </trkpt>
      <trkpt lat="41.8715620" lon="-5.7128850">
        <ele>710.8</ele>
        <time>2021-10-13T09:24:31Z</time>
      </trkpt>
      <trkpt lat="41.8713820" lon="-5.7129810">
        <ele>710.8</ele>
        <time>2021-10-13T09:24:35Z</time>
      </trkpt>
      <trkpt lat="41.8709260" lon="-5.7132360">
        <ele>710.6</ele>
        <time>2021-10-13T09:24:45Z</time>
      </trkpt>
      <trkpt lat="41.8705530" lon="-5.7134250">
        <ele>710.8</ele>
        <time>2021-10-13T09:24:53Z</time>
      </trkpt>
      <trkpt lat="41.8703160" lon="-5.7135550">
        <ele>710.8</ele>
        <time>2021-10-13T09:24:58Z</time>
      </trkpt>
      <trkpt lat="41.8702150" lon="-5.7136030">
        <ele>710.8</ele>
        <time>2021-10-13T09:25:00Z</time>
      </trkpt>
      <trkpt lat="41.8699400" lon="-5.7137930">
        <ele>710.4</ele>
        <time>2021-10-13T09:25:05Z</time>
      </trkpt>
      <trkpt lat="41.8694120" lon="-5.7140780">
        <ele>709.6</ele>
        <time>2021-10-13T09:25:14Z</time>
      </trkpt>
      <trkpt lat="41.8693580" lon="-5.7141090">
        <ele>709.4</ele>
        <time>2021-10-13T09:25:15Z</time>
      </trkpt>
      <trkpt lat="41.8691500" lon="-5.7142260">
        <ele>709.2</ele>
        <time>2021-10-13T09:25:19Z</time>
      </trkpt>
      <trkpt lat="41.8690070" lon="-5.7143240">
        <ele>709.2</ele>
        <time>2021-10-13T09:25:22Z</time>
      </trkpt>
      <trkpt lat="41.8687540" lon="-5.7144920">
        <ele>709.6</ele>
        <time>2021-10-13T09:25:28Z</time>
      </trkpt>
      <trkpt lat="41.8684960" lon="-5.7146820">
        <ele>710.2</ele>
        <time>2021-10-13T09:25:35Z</time>
      </trkpt>
      <trkpt lat="41.8683790" lon="-5.7147690">
        <ele>710.4</ele>
        <time>2021-10-13T09:25:38Z</time>
      </trkpt>
      <trkpt lat="41.8683390" lon="-5.7147950">
        <ele>710.4</ele>
        <time>2021-10-13T09:25:39Z</time>
      </trkpt>
      <trkpt lat="41.8682010" lon="-5.7148980">
        <ele>710.8</ele>
        <time>2021-10-13T09:25:43Z</time>
      </trkpt>
      <trkpt lat="41.8680190" lon="-5.7150620">
        <ele>711.2</ele>
        <time>2021-10-13T09:25:49Z</time>
      </trkpt>
      <trkpt lat="41.8678050" lon="-5.7152000">
        <ele>711.6</ele>
        <time>2021-10-13T09:25:55Z</time>
      </trkpt>
      <trkpt lat="41.8677700" lon="-5.7152140">
        <ele>711.6</ele>
        <time>2021-10-13T09:25:56Z</time>
      </trkpt>
      <trkpt lat="41.8676950" lon="-5.7152410">
        <ele>711.6</ele>
        <time>2021-10-13T09:25:58Z</time>
      </trkpt>
      <trkpt lat="41.8675350" lon="-5.7152880">
        <ele>711.6</ele>
        <time>2021-10-13T09:26:03Z</time>
      </trkpt>
      <trkpt lat="41.8674890" lon="-5.7153250">
        <ele>711.6</ele>
        <time>2021-10-13T09:26:06Z</time>
      </trkpt>
      <trkpt lat="41.8674890" lon="-5.7153250">
        <ele>711.6</ele>
        <time>2021-10-13T09:26:07Z</time>
      </trkpt>
      <trkpt lat="41.8674380" lon="-5.7153520">
        <ele>711.6</ele>
        <time>2021-10-13T09:26:16Z</time>
      </trkpt>
      <trkpt lat="41.8673730" lon="-5.7153390">
        <ele>711.6</ele>
        <time>2021-10-13T09:26:18Z</time>
      </trkpt>
      <trkpt lat="41.8671500" lon="-5.7153630">
        <ele>711.8</ele>
        <time>2021-10-13T09:26:24Z</time>
      </trkpt>
      <trkpt lat="41.8671120" lon="-5.7153890">
        <ele>711.8</ele>
        <time>2021-10-13T09:26:25Z</time>
      </trkpt>
      <trkpt lat="41.8669180" lon="-5.7155430">
        <ele>712.2</ele>
        <time>2021-10-13T09:26:30Z</time>
      </trkpt>
      <trkpt lat="41.8667400" lon="-5.7156870">
        <ele>712.4</ele>
        <time>2021-10-13T09:26:35Z</time>
      </trkpt>
      <trkpt lat="41.8666240" lon="-5.7157670">
        <ele>712.4</ele>
        <time>2021-10-13T09:26:38Z</time>
      </trkpt>
      <trkpt lat="41.8665410" lon="-5.7158220">
        <ele>712.6</ele>
        <time>2021-10-13T09:26:40Z</time>
      </trkpt>
      <trkpt lat="41.8664600" lon="-5.7158730">
        <ele>712.8</ele>
        <time>2021-10-13T09:26:42Z</time>
      </trkpt>
      <trkpt lat="41.8662250" lon="-5.7160200">
        <ele>713.4</ele>
        <time>2021-10-13T09:26:48Z</time>
      </trkpt>
      <trkpt lat="41.8660740" lon="-5.7161190">
        <ele>713.8</ele>
        <time>2021-10-13T09:26:52Z</time>
      </trkpt>
      <trkpt lat="41.8659040" lon="-5.7162260">
        <ele>714.0</ele>
        <time>2021-10-13T09:26:56Z</time>
      </trkpt>
      <trkpt lat="41.8658260" lon="-5.7162770">
        <ele>714.0</ele>
        <time>2021-10-13T09:26:58Z</time>
      </trkpt>
      <trkpt lat="41.8656880" lon="-5.7163580">
        <ele>714.0</ele>
        <time>2021-10-13T09:27:01Z</time>
      </trkpt>
      <trkpt lat="41.8655610" lon="-5.7164260">
        <ele>714.0</ele>
        <time>2021-10-13T09:27:04Z</time>
      </trkpt>
      <trkpt lat="41.8652360" lon="-5.7166290">
        <ele>714.4</ele>
        <time>2021-10-13T09:27:12Z</time>
      </trkpt>
      <trkpt lat="41.8651960" lon="-5.7166540">
        <ele>714.4</ele>
        <time>2021-10-13T09:27:13Z</time>
      </trkpt>
      <trkpt lat="41.8651200" lon="-5.7167050">
        <ele>714.4</ele>
        <time>2021-10-13T09:27:15Z</time>
      </trkpt>
      <trkpt lat="41.8648530" lon="-5.7168760">
        <ele>714.6</ele>
        <time>2021-10-13T09:27:22Z</time>
      </trkpt>
      <trkpt lat="41.8647090" lon="-5.7169780">
        <ele>714.8</ele>
        <time>2021-10-13T09:27:26Z</time>
      </trkpt>
      <trkpt lat="41.8646070" lon="-5.7170660">
        <ele>715.0</ele>
        <time>2021-10-13T09:27:29Z</time>
      </trkpt>
      <trkpt lat="41.8645470" lon="-5.7171350">
        <ele>715.0</ele>
        <time>2021-10-13T09:27:31Z</time>
      </trkpt>
      <trkpt lat="41.8644650" lon="-5.7172370">
        <ele>715.4</ele>
        <time>2021-10-13T09:27:34Z</time>
      </trkpt>
      <trkpt lat="41.8643590" lon="-5.7173910">
        <ele>715.6</ele>
        <time>2021-10-13T09:27:38Z</time>
      </trkpt>
      <trkpt lat="41.8643300" lon="-5.7174330">
        <ele>715.6</ele>
        <time>2021-10-13T09:27:39Z</time>
      </trkpt>
      <trkpt lat="41.8640900" lon="-5.7178310">
        <ele>715.4</ele>
        <time>2021-10-13T09:27:48Z</time>
      </trkpt>
      <trkpt lat="41.8640370" lon="-5.7179150">
        <ele>715.4</ele>
        <time>2021-10-13T09:27:50Z</time>
      </trkpt>
      <trkpt lat="41.8639190" lon="-5.7180980">
        <ele>715.6</ele>
        <time>2021-10-13T09:27:55Z</time>
      </trkpt>
      <trkpt lat="41.8638660" lon="-5.7181800">
        <ele>715.8</ele>
        <time>2021-10-13T09:28:00Z</time>
      </trkpt>
      <trkpt lat="41.8638660" lon="-5.7181800">
        <ele>715.8</ele>
        <time>2021-10-13T09:28:01Z</time>
      </trkpt>
      <trkpt lat="41.8638960" lon="-5.7181360">
        <ele>715.6</ele>
        <time>2021-10-13T09:29:36Z</time>
      </trkpt>
      <trkpt lat="41.8639370" lon="-5.7180600">
        <ele>715.8</ele>
        <time>2021-10-13T09:29:39Z</time>
      </trkpt>
      <trkpt lat="41.8640590" lon="-5.7178780">
        <ele>715.8</ele>
        <time>2021-10-13T09:29:44Z</time>
      </trkpt>
      <trkpt lat="41.8641550" lon="-5.7177240">
        <ele>715.8</ele>
        <time>2021-10-13T09:29:48Z</time>
      </trkpt>
      <trkpt lat="41.8642900" lon="-5.7175200">
        <ele>715.8</ele>
        <time>2021-10-13T09:29:53Z</time>
      </trkpt>
      <trkpt lat="41.8645010" lon="-5.7171900">
        <ele>715.8</ele>
        <time>2021-10-13T09:30:01Z</time>
      </trkpt>
      <trkpt lat="41.8645840" lon="-5.7170920">
        <ele>715.8</ele>
        <time>2021-10-13T09:30:04Z</time>
      </trkpt>
      <trkpt lat="41.8646830" lon="-5.7169950">
        <ele>715.8</ele>
        <time>2021-10-13T09:30:07Z</time>
      </trkpt>
      <trkpt lat="41.8647350" lon="-5.7169530">
        <ele>715.8</ele>
        <time>2021-10-13T09:30:09Z</time>
      </trkpt>
      <trkpt lat="41.8648850" lon="-5.7168530">
        <ele>715.6</ele>
        <time>2021-10-13T09:30:14Z</time>
      </trkpt>
      <trkpt lat="41.8649230" lon="-5.7168280">
        <ele>715.6</ele>
        <time>2021-10-13T09:30:15Z</time>
      </trkpt>
      <trkpt lat="41.8652040" lon="-5.7166490">
        <ele>715.4</ele>
        <time>2021-10-13T09:30:22Z</time>
      </trkpt>
      <trkpt lat="41.8655340" lon="-5.7164410">
        <ele>715.4</ele>
        <time>2021-10-13T09:30:30Z</time>
      </trkpt>
      <trkpt lat="41.8656640" lon="-5.7163640">
        <ele>715.4</ele>
        <time>2021-10-13T09:30:33Z</time>
      </trkpt>
      <trkpt lat="41.8657900" lon="-5.7162820">
        <ele>715.0</ele>
        <time>2021-10-13T09:30:36Z</time>
      </trkpt>
      <trkpt lat="41.8658790" lon="-5.7162300">
        <ele>714.8</ele>
        <time>2021-10-13T09:30:38Z</time>
      </trkpt>
      <trkpt lat="41.8660150" lon="-5.7161400">
        <ele>714.6</ele>
        <time>2021-10-13T09:30:41Z</time>
      </trkpt>
      <trkpt lat="41.8661660" lon="-5.7160410">
        <ele>714.6</ele>
        <time>2021-10-13T09:30:45Z</time>
      </trkpt>
      <trkpt lat="41.8662850" lon="-5.7159560">
        <ele>714.8</ele>
        <time>2021-10-13T09:30:48Z</time>
      </trkpt>
      <trkpt lat="41.8665540" lon="-5.7157910">
        <ele>714.6</ele>
        <time>2021-10-13T09:30:55Z</time>
      </trkpt>
      <trkpt lat="41.8666310" lon="-5.7157470">
        <ele>714.2</ele>
        <time>2021-10-13T09:30:57Z</time>
      </trkpt>
      <trkpt lat="41.8666670" lon="-5.7157260">
        <ele>714.2</ele>
        <time>2021-10-13T09:30:58Z</time>
      </trkpt>
      <trkpt lat="41.8668030" lon="-5.7156320">
        <ele>713.8</ele>
        <time>2021-10-13T09:31:02Z</time>
      </trkpt>
      <trkpt lat="41.8668380" lon="-5.7156170">
        <ele>713.8</ele>
        <time>2021-10-13T09:31:03Z</time>
      </trkpt>
      <trkpt lat="41.8669040" lon="-5.7155500">
        <ele>713.6</ele>
        <time>2021-10-13T09:31:06Z</time>
      </trkpt>
      <trkpt lat="41.8669040" lon="-5.7155240">
        <ele>713.6</ele>
        <time>2021-10-13T09:31:07Z</time>
      </trkpt>
      <trkpt lat="41.8668800" lon="-5.7154840">
        <ele>713.4</ele>
        <time>2021-10-13T09:31:09Z</time>
      </trkpt>
      <trkpt lat="41.8668390" lon="-5.7154900">
        <ele>713.4</ele>
        <time>2021-10-13T09:31:11Z</time>
      </trkpt>
      <trkpt lat="41.8666440" lon="-5.7156180">
        <ele>713.6</ele>
        <time>2021-10-13T09:31:19Z</time>
      </trkpt>
      <trkpt lat="41.8664900" lon="-5.7157230">
        <ele>714.0</ele>
        <time>2021-10-13T09:31:25Z</time>
      </trkpt>
      <trkpt lat="41.8664010" lon="-5.7157690">
        <ele>714.8</ele>
        <time>2021-10-13T09:31:29Z</time>
      </trkpt>
      <trkpt lat="41.8663780" lon="-5.7157840">
        <ele>715.0</ele>
        <time>2021-10-13T09:31:30Z</time>
      </trkpt>
      <trkpt lat="41.8662840" lon="-5.7158350">
        <ele>715.2</ele>
        <time>2021-10-13T09:31:34Z</time>
      </trkpt>
      <trkpt lat="41.8662200" lon="-5.7158720">
        <ele>715.4</ele>
        <time>2021-10-13T09:31:37Z</time>
      </trkpt>
      <trkpt lat="41.8661110" lon="-5.7159250">
        <ele>716.0</ele>
        <time>2021-10-13T09:31:42Z</time>
      </trkpt>
      <trkpt lat="41.8660280" lon="-5.7159610">
        <ele>716.4</ele>
        <time>2021-10-13T09:31:46Z</time>
      </trkpt>
      <trkpt lat="41.8659430" lon="-5.7160080">
        <ele>716.8</ele>
        <time>2021-10-13T09:31:50Z</time>
      </trkpt>
      <trkpt lat="41.8658600" lon="-5.7160520">
        <ele>717.2</ele>
        <time>2021-10-13T09:31:54Z</time>
      </trkpt>
      <trkpt lat="41.8658240" lon="-5.7160780">
        <ele>717.4</ele>
        <time>2021-10-13T09:31:56Z</time>
      </trkpt>
      <trkpt lat="41.8658050" lon="-5.7160940">
        <ele>717.4</ele>
        <time>2021-10-13T09:31:57Z</time>
      </trkpt>
      <trkpt lat="41.8655780" lon="-5.7162230">
        <ele>718.6</ele>
        <time>2021-10-13T09:32:07Z</time>
      </trkpt>
      <trkpt lat="41.8655560" lon="-5.7162350">
        <ele>718.8</ele>
        <time>2021-10-13T09:32:08Z</time>
      </trkpt>
      <trkpt lat="41.8654900" lon="-5.7162710">
        <ele>719.2</ele>
        <time>2021-10-13T09:32:11Z</time>
      </trkpt>
      <trkpt lat="41.8654220" lon="-5.7163110">
        <ele>719.4</ele>
        <time>2021-10-13T09:32:14Z</time>
      </trkpt>
      <trkpt lat="41.8653610" lon="-5.7163410">
        <ele>719.6</ele>
        <time>2021-10-13T09:32:17Z</time>
      </trkpt>
      <trkpt lat="41.8653420" lon="-5.7163540">
        <ele>719.8</ele>
        <time>2021-10-13T09:32:18Z</time>
      </trkpt>
      <trkpt lat="41.8652850" lon="-5.7163890">
        <ele>720.4</ele>
        <time>2021-10-13T09:32:21Z</time>
      </trkpt>
      <trkpt lat="41.8652450" lon="-5.7164090">
        <ele>720.6</ele>
        <time>2021-10-13T09:32:23Z</time>
      </trkpt>
      <trkpt lat="41.8651810" lon="-5.7164460">
        <ele>720.6</ele>
        <time>2021-10-13T09:32:26Z</time>
      </trkpt>
      <trkpt lat="41.8651590" lon="-5.7164580">
        <ele>720.8</ele>
        <time>2021-10-13T09:32:27Z</time>
      </trkpt>
      <trkpt lat="41.8650000" lon="-5.7165470">
        <ele>721.2</ele>
        <time>2021-10-13T09:32:34Z</time>
      </trkpt>
      <trkpt lat="41.8648950" lon="-5.7166020">
        <ele>721.4</ele>
        <time>2021-10-13T09:32:39Z</time>
      </trkpt>
      <trkpt lat="41.8648490" lon="-5.7166270">
        <ele>721.8</ele>
        <time>2021-10-13T09:32:41Z</time>
      </trkpt>
      <trkpt lat="41.8648090" lon="-5.7166510">
        <ele>722.0</ele>
        <time>2021-10-13T09:32:43Z</time>
      </trkpt>
      <trkpt lat="41.8647530" lon="-5.7166790">
        <ele>722.0</ele>
        <time>2021-10-13T09:32:45Z</time>
      </trkpt>
      <trkpt lat="41.8646800" lon="-5.7167140">
        <ele>722.0</ele>
        <time>2021-10-13T09:32:48Z</time>
      </trkpt>
      <trkpt lat="41.8646310" lon="-5.7167330">
        <ele>722.0</ele>
        <time>2021-10-13T09:32:50Z</time>
      </trkpt>
      <trkpt lat="41.8645640" lon="-5.7167720">
        <ele>722.2</ele>
        <time>2021-10-13T09:32:53Z</time>
      </trkpt>
      <trkpt lat="41.8645420" lon="-5.7167850">
        <ele>722.2</ele>
        <time>2021-10-13T09:32:54Z</time>
      </trkpt>
      <trkpt lat="41.8643620" lon="-5.7168830">
        <ele>722.6</ele>
        <time>2021-10-13T09:33:02Z</time>
      </trkpt>
      <trkpt lat="41.8643110" lon="-5.7169020">
        <ele>722.6</ele>
        <time>2021-10-13T09:33:04Z</time>
      </trkpt>
      <trkpt lat="41.8641350" lon="-5.7169860">
        <ele>722.6</ele>
        <time>2021-10-13T09:33:11Z</time>
      </trkpt>
      <trkpt lat="41.8640770" lon="-5.7170190">
        <ele>722.6</ele>
        <time>2021-10-13T09:33:13Z</time>
      </trkpt>
      <trkpt lat="41.8638910" lon="-5.7171210">
        <ele>722.4</ele>
        <time>2021-10-13T09:33:19Z</time>
      </trkpt>
      <trkpt lat="41.8637870" lon="-5.7171590">
        <ele>722.4</ele>
        <time>2021-10-13T09:33:22Z</time>
      </trkpt>
      <trkpt lat="41.8636440" lon="-5.7172330">
        <ele>722.0</ele>
        <time>2021-10-13T09:33:26Z</time>
      </trkpt>
      <trkpt lat="41.8635390" lon="-5.7172890">
        <ele>721.6</ele>
        <time>2021-10-13T09:33:29Z</time>
      </trkpt>
      <trkpt lat="41.8634060" lon="-5.7173590">
        <ele>721.4</ele>
        <time>2021-10-13T09:33:32Z</time>
      </trkpt>
      <trkpt lat="41.8632260" lon="-5.7174390">
        <ele>721.2</ele>
        <time>2021-10-13T09:33:36Z</time>
      </trkpt>
      <trkpt lat="41.8631800" lon="-5.7174600">
        <ele>721.0</ele>
        <time>2021-10-13T09:33:37Z</time>
      </trkpt>
      <trkpt lat="41.8629430" lon="-5.7175770">
        <ele>720.0</ele>
        <time>2021-10-13T09:33:42Z</time>
      </trkpt>
      <trkpt lat="41.8627390" lon="-5.7176700">
        <ele>719.4</ele>
        <time>2021-10-13T09:33:46Z</time>
      </trkpt>
      <trkpt lat="41.8626020" lon="-5.7177340">
        <ele>718.6</ele>
        <time>2021-10-13T09:33:49Z</time>
      </trkpt>
      <trkpt lat="41.8623480" lon="-5.7178520">
        <ele>717.4</ele>
        <time>2021-10-13T09:33:55Z</time>
      </trkpt>
      <trkpt lat="41.8623110" lon="-5.7178760">
        <ele>717.4</ele>
        <time>2021-10-13T09:33:56Z</time>
      </trkpt>
      <trkpt lat="41.8622770" lon="-5.7179040">
        <ele>717.4</ele>
        <time>2021-10-13T09:33:57Z</time>
      </trkpt>
      <trkpt lat="41.8621810" lon="-5.7179920">
        <ele>717.2</ele>
        <time>2021-10-13T09:34:00Z</time>
      </trkpt>
      <trkpt lat="41.8621530" lon="-5.7180030">
        <ele>717.0</ele>
        <time>2021-10-13T09:34:01Z</time>
      </trkpt>
      <trkpt lat="41.8620370" lon="-5.7179940">
        <ele>717.0</ele>
        <time>2021-10-13T09:34:05Z</time>
      </trkpt>
      <trkpt lat="41.8620010" lon="-5.7179910">
        <ele>717.0</ele>
        <time>2021-10-13T09:34:07Z</time>
      </trkpt>
      <trkpt lat="41.8619970" lon="-5.7179920">
        <ele>717.0</ele>
        <time>2021-10-13T09:34:09Z</time>
      </trkpt>
      <trkpt lat="41.8619610" lon="-5.7179830">
        <ele>717.0</ele>
        <time>2021-10-13T09:34:28Z</time>
      </trkpt>
      <trkpt lat="41.8619440" lon="-5.7179830">
        <ele>717.2</ele>
        <time>2021-10-13T09:34:29Z</time>
      </trkpt>
      <trkpt lat="41.8619170" lon="-5.7179910">
        <ele>717.2</ele>
        <time>2021-10-13T09:34:30Z</time>
      </trkpt>
      <trkpt lat="41.8617560" lon="-5.7180420">
        <ele>717.4</ele>
        <time>2021-10-13T09:34:35Z</time>
      </trkpt>
      <trkpt lat="41.8615360" lon="-5.7181510">
        <ele>717.6</ele>
        <time>2021-10-13T09:34:41Z</time>
      </trkpt>
      <trkpt lat="41.8614960" lon="-5.7181770">
        <ele>717.6</ele>
        <time>2021-10-13T09:34:42Z</time>
      </trkpt>
      <trkpt lat="41.8613760" lon="-5.7182450">
        <ele>717.8</ele>
        <time>2021-10-13T09:34:45Z</time>
      </trkpt>
      <trkpt lat="41.8613020" lon="-5.7182830">
        <ele>717.8</ele>
        <time>2021-10-13T09:34:47Z</time>
      </trkpt>
      <trkpt lat="41.8610640" lon="-5.7183890">
        <ele>717.8</ele>
        <time>2021-10-13T09:34:53Z</time>
      </trkpt>
      <trkpt lat="41.8609710" lon="-5.7184360">
        <ele>718.0</ele>
        <time>2021-10-13T09:34:56Z</time>
      </trkpt>
      <trkpt lat="41.8607130" lon="-5.7185620">
        <ele>718.0</ele>
        <time>2021-10-13T09:35:03Z</time>
      </trkpt>
      <trkpt lat="41.8605930" lon="-5.7186140">
        <ele>718.2</ele>
        <time>2021-10-13T09:35:06Z</time>
      </trkpt>
      <trkpt lat="41.8604210" lon="-5.7186960">
        <ele>718.2</ele>
        <time>2021-10-13T09:35:10Z</time>
      </trkpt>
      <trkpt lat="41.8599270" lon="-5.7189240">
        <ele>718.4</ele>
        <time>2021-10-13T09:35:21Z</time>
      </trkpt>
      <trkpt lat="41.8595660" lon="-5.7190870">
        <ele>718.6</ele>
        <time>2021-10-13T09:35:29Z</time>
      </trkpt>
      <trkpt lat="41.8593910" lon="-5.7191700">
        <ele>718.8</ele>
        <time>2021-10-13T09:35:33Z</time>
      </trkpt>
      <trkpt lat="41.8590850" lon="-5.7193130">
        <ele>719.2</ele>
        <time>2021-10-13T09:35:40Z</time>
      </trkpt>
      <trkpt lat="41.8590440" lon="-5.7193320">
        <ele>719.2</ele>
        <time>2021-10-13T09:35:41Z</time>
      </trkpt>
      <trkpt lat="41.8588410" lon="-5.7194280">
        <ele>719.6</ele>
        <time>2021-10-13T09:35:46Z</time>
      </trkpt>
      <trkpt lat="41.8585440" lon="-5.7195610">
        <ele>720.2</ele>
        <time>2021-10-13T09:35:53Z</time>
      </trkpt>
      <trkpt lat="41.8583040" lon="-5.7196660">
        <ele>720.8</ele>
        <time>2021-10-13T09:35:59Z</time>
      </trkpt>
      <trkpt lat="41.8581020" lon="-5.7197620">
        <ele>721.2</ele>
        <time>2021-10-13T09:36:04Z</time>
      </trkpt>
      <trkpt lat="41.8578260" lon="-5.7198860">
        <ele>721.8</ele>
        <time>2021-10-13T09:36:11Z</time>
      </trkpt>
      <trkpt lat="41.8575820" lon="-5.7199970">
        <ele>722.4</ele>
        <time>2021-10-13T09:36:17Z</time>
      </trkpt>
      <trkpt lat="41.8575050" lon="-5.7200330">
        <ele>722.6</ele>
        <time>2021-10-13T09:36:19Z</time>
      </trkpt>
      <trkpt lat="41.8574660" lon="-5.7200500">
        <ele>722.8</ele>
        <time>2021-10-13T09:36:20Z</time>
      </trkpt>
      <trkpt lat="41.8572730" lon="-5.7201400">
        <ele>723.2</ele>
        <time>2021-10-13T09:36:25Z</time>
      </trkpt>
      <trkpt lat="41.8571970" lon="-5.7201760">
        <ele>723.6</ele>
        <time>2021-10-13T09:36:27Z</time>
      </trkpt>
      <trkpt lat="41.8570900" lon="-5.7202330">
        <ele>723.8</ele>
        <time>2021-10-13T09:36:30Z</time>
      </trkpt>
      <trkpt lat="41.8568930" lon="-5.7203240">
        <ele>724.2</ele>
        <time>2021-10-13T09:36:35Z</time>
      </trkpt>
      <trkpt lat="41.8568570" lon="-5.7203420">
        <ele>724.4</ele>
        <time>2021-10-13T09:36:36Z</time>
      </trkpt>
      <trkpt lat="41.8567470" lon="-5.7203870">
        <ele>724.6</ele>
        <time>2021-10-13T09:36:39Z</time>
      </trkpt>
      <trkpt lat="41.8566470" lon="-5.7204370">
        <ele>724.8</ele>
        <time>2021-10-13T09:36:42Z</time>
      </trkpt>
      <trkpt lat="41.8565700" lon="-5.7204700">
        <ele>725.0</ele>
        <time>2021-10-13T09:36:44Z</time>
      </trkpt>
      <trkpt lat="41.8564650" lon="-5.7205170">
        <ele>725.2</ele>
        <time>2021-10-13T09:36:47Z</time>
      </trkpt>
      <trkpt lat="41.8563920" lon="-5.7205570">
        <ele>725.4</ele>
        <time>2021-10-13T09:36:49Z</time>
      </trkpt>
      <trkpt lat="41.8563540" lon="-5.7205760">
        <ele>725.4</ele>
        <time>2021-10-13T09:36:50Z</time>
      </trkpt>
      <trkpt lat="41.8562780" lon="-5.7206050">
        <ele>725.4</ele>
        <time>2021-10-13T09:36:52Z</time>
      </trkpt>
      <trkpt lat="41.8562040" lon="-5.7206400">
        <ele>725.6</ele>
        <time>2021-10-13T09:36:54Z</time>
      </trkpt>
      <trkpt lat="41.8561700" lon="-5.7206590">
        <ele>725.8</ele>
        <time>2021-10-13T09:36:55Z</time>
      </trkpt>
      <trkpt lat="41.8561360" lon="-5.7206750">
        <ele>725.8</ele>
        <time>2021-10-13T09:36:56Z</time>
      </trkpt>
      <trkpt lat="41.8561010" lon="-5.7206900">
        <ele>726.0</ele>
        <time>2021-10-13T09:36:57Z</time>
      </trkpt>
      <trkpt lat="41.8558810" lon="-5.7207870">
        <ele>726.6</ele>
        <time>2021-10-13T09:37:03Z</time>
      </trkpt>
      <trkpt lat="41.8555150" lon="-5.7209650">
        <ele>727.0</ele>
        <time>2021-10-13T09:37:13Z</time>
      </trkpt>
      <trkpt lat="41.8552830" lon="-5.7210700">
        <ele>727.4</ele>
        <time>2021-10-13T09:37:19Z</time>
      </trkpt>
      <trkpt lat="41.8551660" lon="-5.7211240">
        <ele>727.6</ele>
        <time>2021-10-13T09:37:22Z</time>
      </trkpt>
      <trkpt lat="41.8550900" lon="-5.7211630">
        <ele>727.6</ele>
        <time>2021-10-13T09:37:24Z</time>
      </trkpt>
      <trkpt lat="41.8550140" lon="-5.7212010">
        <ele>727.8</ele>
        <time>2021-10-13T09:37:26Z</time>
      </trkpt>
      <trkpt lat="41.8548930" lon="-5.7212510">
        <ele>728.0</ele>
        <time>2021-10-13T09:37:29Z</time>
      </trkpt>
      <trkpt lat="41.8547830" lon="-5.7212990">
        <ele>728.2</ele>
        <time>2021-10-13T09:37:32Z</time>
      </trkpt>
      <trkpt lat="41.8546160" lon="-5.7213730">
        <ele>728.4</ele>
        <time>2021-10-13T09:37:36Z</time>
      </trkpt>
      <trkpt lat="41.8545380" lon="-5.7214080">
        <ele>728.6</ele>
        <time>2021-10-13T09:37:38Z</time>
      </trkpt>
      <trkpt lat="41.8544600" lon="-5.7214420">
        <ele>728.6</ele>
        <time>2021-10-13T09:37:40Z</time>
      </trkpt>
      <trkpt lat="41.8543810" lon="-5.7214820">
        <ele>728.8</ele>
        <time>2021-10-13T09:37:42Z</time>
      </trkpt>
      <trkpt lat="41.8542570" lon="-5.7215380">
        <ele>728.8</ele>
        <time>2021-10-13T09:37:45Z</time>
      </trkpt>
      <trkpt lat="41.8540210" lon="-5.7216490">
        <ele>729.2</ele>
        <time>2021-10-13T09:37:51Z</time>
      </trkpt>
      <trkpt lat="41.8538630" lon="-5.7217160">
        <ele>729.4</ele>
        <time>2021-10-13T09:37:55Z</time>
      </trkpt>
      <trkpt lat="41.8534850" lon="-5.7218860">
        <ele>729.8</ele>
        <time>2021-10-13T09:38:05Z</time>
      </trkpt>
      <trkpt lat="41.8533200" lon="-5.7219640">
        <ele>730.2</ele>
        <time>2021-10-13T09:38:09Z</time>
      </trkpt>
      <trkpt lat="41.8532030" lon="-5.7220210">
        <ele>730.2</ele>
        <time>2021-10-13T09:38:12Z</time>
      </trkpt>
      <trkpt lat="41.8531230" lon="-5.7220590">
        <ele>730.4</ele>
        <time>2021-10-13T09:38:14Z</time>
      </trkpt>
      <trkpt lat="41.8529250" lon="-5.7221470">
        <ele>730.6</ele>
        <time>2021-10-13T09:38:19Z</time>
      </trkpt>
      <trkpt lat="41.8527280" lon="-5.7222360">
        <ele>731.0</ele>
        <time>2021-10-13T09:38:24Z</time>
      </trkpt>
      <trkpt lat="41.8524820" lon="-5.7223490">
        <ele>731.2</ele>
        <time>2021-10-13T09:38:30Z</time>
      </trkpt>
      <trkpt lat="41.8523990" lon="-5.7223910">
        <ele>731.2</ele>
        <time>2021-10-13T09:38:32Z</time>
      </trkpt>
      <trkpt lat="41.8519890" lon="-5.7225800">
        <ele>731.8</ele>
        <time>2021-10-13T09:38:42Z</time>
      </trkpt>
      <trkpt lat="41.8517360" lon="-5.7226940">
        <ele>732.0</ele>
        <time>2021-10-13T09:38:48Z</time>
      </trkpt>
      <trkpt lat="41.8516180" lon="-5.7227500">
        <ele>732.2</ele>
        <time>2021-10-13T09:38:51Z</time>
      </trkpt>
      <trkpt lat="41.8515810" lon="-5.7227720">
        <ele>732.2</ele>
        <time>2021-10-13T09:38:52Z</time>
      </trkpt>
      <trkpt lat="41.8513790" lon="-5.7228660">
        <ele>732.2</ele>
        <time>2021-10-13T09:38:57Z</time>
      </trkpt>
      <trkpt lat="41.8511560" lon="-5.7229630">
        <ele>732.6</ele>
        <time>2021-10-13T09:39:03Z</time>
      </trkpt>
      <trkpt lat="41.8509790" lon="-5.7230480">
        <ele>732.6</ele>
        <time>2021-10-13T09:39:08Z</time>
      </trkpt>
      <trkpt lat="41.8508410" lon="-5.7231090">
        <ele>732.6</ele>
        <time>2021-10-13T09:39:12Z</time>
      </trkpt>
      <trkpt lat="41.8506970" lon="-5.7231740">
        <ele>732.4</ele>
        <time>2021-10-13T09:39:16Z</time>
      </trkpt>
      <trkpt lat="41.8505050" lon="-5.7232600">
        <ele>732.4</ele>
        <time>2021-10-13T09:39:21Z</time>
      </trkpt>
      <trkpt lat="41.8504670" lon="-5.7232750">
        <ele>732.4</ele>
        <time>2021-10-13T09:39:22Z</time>
      </trkpt>
      <trkpt lat="41.8502070" lon="-5.7234020">
        <ele>732.4</ele>
        <time>2021-10-13T09:39:29Z</time>
      </trkpt>
      <trkpt lat="41.8501310" lon="-5.7234330">
        <ele>732.4</ele>
        <time>2021-10-13T09:39:31Z</time>
      </trkpt>
      <trkpt lat="41.8498580" lon="-5.7235620">
        <ele>732.4</ele>
        <time>2021-10-13T09:39:39Z</time>
      </trkpt>
      <trkpt lat="41.8497890" lon="-5.7236160">
        <ele>732.4</ele>
        <time>2021-10-13T09:39:43Z</time>
      </trkpt>
      <trkpt lat="41.8497870" lon="-5.7236190">
        <ele>732.4</ele>
        <time>2021-10-13T09:39:46Z</time>
      </trkpt>
      <trkpt lat="41.8497890" lon="-5.7236740">
        <ele>732.2</ele>
        <time>2021-10-13T09:40:05Z</time>
      </trkpt>
      <trkpt lat="41.8497960" lon="-5.7237090">
        <ele>732.2</ele>
        <time>2021-10-13T09:40:06Z</time>
      </trkpt>
      <trkpt lat="41.8498350" lon="-5.7238570">
        <ele>732.0</ele>
        <time>2021-10-13T09:40:09Z</time>
      </trkpt>
      <trkpt lat="41.8498900" lon="-5.7241170">
        <ele>731.2</ele>
        <time>2021-10-13T09:40:14Z</time>
      </trkpt>
      <trkpt lat="41.8499040" lon="-5.7241670">
        <ele>730.8</ele>
        <time>2021-10-13T09:40:15Z</time>
      </trkpt>
      <trkpt lat="41.8499590" lon="-5.7243870">
        <ele>730.4</ele>
        <time>2021-10-13T09:40:21Z</time>
      </trkpt>
      <trkpt lat="41.8499590" lon="-5.7243870">
        <ele>730.6</ele>
        <time>2021-10-13T09:40:22Z</time>
      </trkpt>
      <trkpt lat="41.8499380" lon="-5.7243320">
        <ele>731.4</ele>
        <time>2021-10-13T09:41:23Z</time>
      </trkpt>
      <trkpt lat="41.8499210" lon="-5.7242550">
        <ele>731.2</ele>
        <time>2021-10-13T09:41:25Z</time>
      </trkpt>
      <trkpt lat="41.8498700" lon="-5.7240050">
        <ele>731.0</ele>
        <time>2021-10-13T09:41:32Z</time>
      </trkpt>
      <trkpt lat="41.8498320" lon="-5.7238460">
        <ele>731.2</ele>
        <time>2021-10-13T09:41:38Z</time>
      </trkpt>
      <trkpt lat="41.8497650" lon="-5.7236360">
        <ele>731.8</ele>
        <time>2021-10-13T09:41:45Z</time>
      </trkpt>
      <trkpt lat="41.8497140" lon="-5.7236250">
        <ele>732.4</ele>
        <time>2021-10-13T09:41:47Z</time>
      </trkpt>
      <trkpt lat="41.8496560" lon="-5.7236470">
        <ele>732.6</ele>
        <time>2021-10-13T09:41:49Z</time>
      </trkpt>
      <trkpt lat="41.8494660" lon="-5.7237340">
        <ele>733.2</ele>
        <time>2021-10-13T09:41:55Z</time>
      </trkpt>
      <trkpt lat="41.8493970" lon="-5.7237630">
        <ele>733.2</ele>
        <time>2021-10-13T09:41:57Z</time>
      </trkpt>
      <trkpt lat="41.8491660" lon="-5.7238620">
        <ele>733.0</ele>
        <time>2021-10-13T09:42:03Z</time>
      </trkpt>
      <trkpt lat="41.8490820" lon="-5.7239030">
        <ele>733.0</ele>
        <time>2021-10-13T09:42:05Z</time>
      </trkpt>
      <trkpt lat="41.8489570" lon="-5.7239600">
        <ele>733.0</ele>
        <time>2021-10-13T09:42:08Z</time>
      </trkpt>
      <trkpt lat="41.8488290" lon="-5.7240160">
        <ele>733.0</ele>
        <time>2021-10-13T09:42:11Z</time>
      </trkpt>
      <trkpt lat="41.8486740" lon="-5.7240960">
        <ele>733.4</ele>
        <time>2021-10-13T09:42:15Z</time>
      </trkpt>
      <trkpt lat="41.8484380" lon="-5.7242080">
        <ele>733.2</ele>
        <time>2021-10-13T09:42:22Z</time>
      </trkpt>
      <trkpt lat="41.8483820" lon="-5.7242350">
        <ele>733.4</ele>
        <time>2021-10-13T09:42:24Z</time>
      </trkpt>
      <trkpt lat="41.8483540" lon="-5.7242480">
        <ele>733.4</ele>
        <time>2021-10-13T09:42:25Z</time>
      </trkpt>
      <trkpt lat="41.8481610" lon="-5.7243290">
        <ele>733.6</ele>
        <time>2021-10-13T09:42:33Z</time>
      </trkpt>
      <trkpt lat="41.8479410" lon="-5.7244240">
        <ele>734.0</ele>
        <time>2021-10-13T09:42:40Z</time>
      </trkpt>
      <trkpt lat="41.8476610" lon="-5.7245570">
        <ele>734.4</ele>
        <time>2021-10-13T09:42:48Z</time>
      </trkpt>
      <trkpt lat="41.8473730" lon="-5.7246580">
        <ele>735.4</ele>
        <time>2021-10-13T09:42:56Z</time>
      </trkpt>
      <trkpt lat="41.8473360" lon="-5.7246750">
        <ele>735.6</ele>
        <time>2021-10-13T09:42:57Z</time>
      </trkpt>
      <trkpt lat="41.8470090" lon="-5.7248000">
        <ele>736.2</ele>
        <time>2021-10-13T09:43:06Z</time>
      </trkpt>
      <trkpt lat="41.8469740" lon="-5.7248120">
        <ele>736.4</ele>
        <time>2021-10-13T09:43:07Z</time>
      </trkpt>
      <trkpt lat="41.8468650" lon="-5.7248490">
        <ele>736.6</ele>
        <time>2021-10-13T09:43:10Z</time>
      </trkpt>
      <trkpt lat="41.8466450" lon="-5.7249250">
        <ele>737.2</ele>
        <time>2021-10-13T09:43:16Z</time>
      </trkpt>
      <trkpt lat="41.8464520" lon="-5.7249910">
        <ele>737.6</ele>
        <time>2021-10-13T09:43:21Z</time>
      </trkpt>
      <trkpt lat="41.8464110" lon="-5.7250040">
        <ele>737.6</ele>
        <time>2021-10-13T09:43:22Z</time>
      </trkpt>
      <trkpt lat="41.8461290" lon="-5.7251030">
        <ele>738.2</ele>
        <time>2021-10-13T09:43:29Z</time>
      </trkpt>
      <trkpt lat="41.8460060" lon="-5.7251450">
        <ele>738.6</ele>
        <time>2021-10-13T09:43:32Z</time>
      </trkpt>
      <trkpt lat="41.8459660" lon="-5.7251570">
        <ele>738.8</ele>
        <time>2021-10-13T09:43:33Z</time>
      </trkpt>
      <trkpt lat="41.8455610" lon="-5.7252930">
        <ele>739.6</ele>
        <time>2021-10-13T09:43:43Z</time>
      </trkpt>
      <trkpt lat="41.8454390" lon="-5.7253340">
        <ele>739.6</ele>
        <time>2021-10-13T09:43:46Z</time>
      </trkpt>
      <trkpt lat="41.8451940" lon="-5.7254210">
        <ele>740.2</ele>
        <time>2021-10-13T09:43:52Z</time>
      </trkpt>
      <trkpt lat="41.8448280" lon="-5.7255460">
        <ele>740.6</ele>
        <time>2021-10-13T09:44:01Z</time>
      </trkpt>
      <trkpt lat="41.8447940" lon="-5.7255560">
        <ele>740.8</ele>
        <time>2021-10-13T09:44:02Z</time>
      </trkpt>
      <trkpt lat="41.8446790" lon="-5.7255860">
        <ele>741.0</ele>
        <time>2021-10-13T09:44:06Z</time>
      </trkpt>
      <trkpt lat="41.8446080" lon="-5.7256220">
        <ele>741.2</ele>
        <time>2021-10-13T09:44:11Z</time>
      </trkpt>
      <trkpt lat="41.8445700" lon="-5.7256320">
        <ele>741.4</ele>
        <time>2021-10-13T09:44:15Z</time>
      </trkpt>
      <trkpt lat="41.8445160" lon="-5.7256470">
        <ele>741.6</ele>
        <time>2021-10-13T09:44:17Z</time>
      </trkpt>
      <trkpt lat="41.8443930" lon="-5.7256930">
        <ele>741.6</ele>
        <time>2021-10-13T09:44:21Z</time>
      </trkpt>
      <trkpt lat="41.8443360" lon="-5.7257170">
        <ele>741.6</ele>
        <time>2021-10-13T09:44:23Z</time>
      </trkpt>
      <trkpt lat="41.8442390" lon="-5.7257520">
        <ele>741.8</ele>
        <time>2021-10-13T09:44:26Z</time>
      </trkpt>
      <trkpt lat="41.8440210" lon="-5.7258200">
        <ele>742.0</ele>
        <time>2021-10-13T09:44:32Z</time>
      </trkpt>
      <trkpt lat="41.8438620" lon="-5.7258760">
        <ele>742.2</ele>
        <time>2021-10-13T09:44:36Z</time>
      </trkpt>
      <trkpt lat="41.8437450" lon="-5.7259180">
        <ele>742.4</ele>
        <time>2021-10-13T09:44:39Z</time>
      </trkpt>
      <trkpt lat="41.8437140" lon="-5.7259310">
        <ele>742.4</ele>
        <time>2021-10-13T09:44:40Z</time>
      </trkpt>
      <trkpt lat="41.8434310" lon="-5.7260080">
        <ele>742.8</ele>
        <time>2021-10-13T09:44:47Z</time>
      </trkpt>
      <trkpt lat="41.8431780" lon="-5.7260830">
        <ele>743.2</ele>
        <time>2021-10-13T09:44:54Z</time>
      </trkpt>
      <trkpt lat="41.8430540" lon="-5.7261220">
        <ele>743.4</ele>
        <time>2021-10-13T09:44:58Z</time>
      </trkpt>
      <trkpt lat="41.8429500" lon="-5.7261460">
        <ele>743.0</ele>
        <time>2021-10-13T09:45:02Z</time>
      </trkpt>
      <trkpt lat="41.8428790" lon="-5.7261670">
        <ele>743.0</ele>
        <time>2021-10-13T09:45:06Z</time>
      </trkpt>
      <trkpt lat="41.8428060" lon="-5.7262020">
        <ele>743.0</ele>
        <time>2021-10-13T09:45:09Z</time>
      </trkpt>
      <trkpt lat="41.8425840" lon="-5.7262900">
        <ele>743.0</ele>
        <time>2021-10-13T09:45:15Z</time>
      </trkpt>
      <trkpt lat="41.8423130" lon="-5.7263950">
        <ele>743.4</ele>
        <time>2021-10-13T09:45:21Z</time>
      </trkpt>
      <trkpt lat="41.8419500" lon="-5.7265210">
        <ele>743.4</ele>
        <time>2021-10-13T09:45:28Z</time>
      </trkpt>
      <trkpt lat="41.8418960" lon="-5.7265380">
        <ele>743.0</ele>
        <time>2021-10-13T09:45:29Z</time>
      </trkpt>
      <trkpt lat="41.8413920" lon="-5.7267120">
        <ele>743.0</ele>
        <time>2021-10-13T09:45:38Z</time>
      </trkpt>
      <trkpt lat="41.8409220" lon="-5.7268750">
        <ele>743.0</ele>
        <time>2021-10-13T09:45:46Z</time>
      </trkpt>
      <trkpt lat="41.8407480" lon="-5.7269340">
        <ele>743.0</ele>
        <time>2021-10-13T09:45:49Z</time>
      </trkpt>
      <trkpt lat="41.8403820" lon="-5.7270540">
        <ele>742.8</ele>
        <time>2021-10-13T09:45:55Z</time>
      </trkpt>
      <trkpt lat="41.8403220" lon="-5.7270760">
        <ele>742.8</ele>
        <time>2021-10-13T09:45:56Z</time>
      </trkpt>
      <trkpt lat="41.8398500" lon="-5.7272370">
        <ele>742.8</ele>
        <time>2021-10-13T09:46:04Z</time>
      </trkpt>
      <trkpt lat="41.8395190" lon="-5.7273490">
        <ele>743.0</ele>
        <time>2021-10-13T09:46:10Z</time>
      </trkpt>
      <trkpt lat="41.8392870" lon="-5.7274240">
        <ele>742.8</ele>
        <time>2021-10-13T09:46:14Z</time>
      </trkpt>
      <trkpt lat="41.8387430" lon="-5.7276130">
        <ele>742.6</ele>
        <time>2021-10-13T09:46:23Z</time>
      </trkpt>
      <trkpt lat="41.8386810" lon="-5.7276340">
        <ele>742.6</ele>
        <time>2021-10-13T09:46:24Z</time>
      </trkpt>
      <trkpt lat="41.8380950" lon="-5.7278340">
        <ele>742.2</ele>
        <time>2021-10-13T09:46:33Z</time>
      </trkpt>
      <trkpt lat="41.8379620" lon="-5.7278780">
        <ele>742.2</ele>
        <time>2021-10-13T09:46:35Z</time>
      </trkpt>
      <trkpt lat="41.8373840" lon="-5.7280690">
        <ele>742.0</ele>
        <time>2021-10-13T09:46:44Z</time>
      </trkpt>
      <trkpt lat="41.8373220" lon="-5.7280890">
        <ele>741.8</ele>
        <time>2021-10-13T09:46:45Z</time>
      </trkpt>
      <trkpt lat="41.8367620" lon="-5.7282870">
        <ele>741.8</ele>
        <time>2021-10-13T09:46:54Z</time>
      </trkpt>
      <trkpt lat="41.8365200" lon="-5.7283680">
        <ele>741.8</ele>
        <time>2021-10-13T09:46:58Z</time>
      </trkpt>
      <trkpt lat="41.8360980" lon="-5.7285130">
        <ele>741.8</ele>
        <time>2021-10-13T09:47:05Z</time>
      </trkpt>
      <trkpt lat="41.8360400" lon="-5.7285320">
        <ele>741.8</ele>
        <time>2021-10-13T09:47:06Z</time>
      </trkpt>
      <trkpt lat="41.8358690" lon="-5.7285880">
        <ele>741.6</ele>
        <time>2021-10-13T09:47:09Z</time>
      </trkpt>
      <trkpt lat="41.8355000" lon="-5.7287130">
        <ele>741.6</ele>
        <time>2021-10-13T09:47:16Z</time>
      </trkpt>
      <trkpt lat="41.8349460" lon="-5.7289050">
        <ele>741.2</ele>
        <time>2021-10-13T09:47:26Z</time>
      </trkpt>
      <trkpt lat="41.8348870" lon="-5.7289230">
        <ele>741.0</ele>
        <time>2021-10-13T09:47:27Z</time>
      </trkpt>
      <trkpt lat="41.8347670" lon="-5.7289630">
        <ele>740.8</ele>
        <time>2021-10-13T09:47:29Z</time>
      </trkpt>
      <trkpt lat="41.8344550" lon="-5.7290640">
        <ele>740.4</ele>
        <time>2021-10-13T09:47:34Z</time>
      </trkpt>
      <trkpt lat="41.8343900" lon="-5.7290830">
        <ele>740.4</ele>
        <time>2021-10-13T09:47:35Z</time>
      </trkpt>
      <trkpt lat="41.8340640" lon="-5.7292010">
        <ele>739.6</ele>
        <time>2021-10-13T09:47:40Z</time>
      </trkpt>
      <trkpt lat="41.8338650" lon="-5.7292680">
        <ele>739.0</ele>
        <time>2021-10-13T09:47:43Z</time>
      </trkpt>
      <trkpt lat="41.8336040" lon="-5.7293580">
        <ele>738.6</ele>
        <time>2021-10-13T09:47:47Z</time>
      </trkpt>
      <trkpt lat="41.8335390" lon="-5.7293780">
        <ele>738.6</ele>
        <time>2021-10-13T09:47:48Z</time>
      </trkpt>
      <trkpt lat="41.8332240" lon="-5.7294820">
        <ele>738.2</ele>
        <time>2021-10-13T09:47:53Z</time>
      </trkpt>
      <trkpt lat="41.8327160" lon="-5.7296480">
        <ele>738.2</ele>
        <time>2021-10-13T09:48:02Z</time>
      </trkpt>
      <trkpt lat="41.8325600" lon="-5.7296930">
        <ele>738.2</ele>
        <time>2021-10-13T09:48:05Z</time>
      </trkpt>
      <trkpt lat="41.8322960" lon="-5.7298030">
        <ele>738.2</ele>
        <time>2021-10-13T09:48:10Z</time>
      </trkpt>
      <trkpt lat="41.8320820" lon="-5.7298780">
        <ele>738.2</ele>
        <time>2021-10-13T09:48:14Z</time>
      </trkpt>
      <trkpt lat="41.8319180" lon="-5.7299320">
        <ele>738.2</ele>
        <time>2021-10-13T09:48:17Z</time>
      </trkpt>
      <trkpt lat="41.8318100" lon="-5.7299720">
        <ele>738.0</ele>
        <time>2021-10-13T09:48:19Z</time>
      </trkpt>
      <trkpt lat="41.8313650" lon="-5.7301230">
        <ele>737.6</ele>
        <time>2021-10-13T09:48:27Z</time>
      </trkpt>
      <trkpt lat="41.8312050" lon="-5.7301780">
        <ele>737.4</ele>
        <time>2021-10-13T09:48:30Z</time>
      </trkpt>
      <trkpt lat="41.8310030" lon="-5.7302550">
        <ele>736.6</ele>
        <time>2021-10-13T09:48:34Z</time>
      </trkpt>
      <trkpt lat="41.8309170" lon="-5.7303310">
        <ele>736.4</ele>
        <time>2021-10-13T09:48:36Z</time>
      </trkpt>
      <trkpt lat="41.8308580" lon="-5.7304350">
        <ele>736.4</ele>
        <time>2021-10-13T09:48:38Z</time>
      </trkpt>
      <trkpt lat="41.8308160" lon="-5.7305330">
        <ele>736.2</ele>
        <time>2021-10-13T09:48:40Z</time>
      </trkpt>
      <trkpt lat="41.8307090" lon="-5.7307050">
        <ele>735.4</ele>
        <time>2021-10-13T09:48:44Z</time>
      </trkpt>
      <trkpt lat="41.8306820" lon="-5.7307570">
        <ele>735.2</ele>
        <time>2021-10-13T09:48:45Z</time>
      </trkpt>
      <trkpt lat="41.8305920" lon="-5.7310410">
        <ele>734.6</ele>
        <time>2021-10-13T09:48:51Z</time>
      </trkpt>
      <trkpt lat="41.8305800" lon="-5.7310900">
        <ele>734.4</ele>
        <time>2021-10-13T09:48:53Z</time>
      </trkpt>
      <trkpt lat="41.8305740" lon="-5.7311100">
        <ele>734.2</ele>
        <time>2021-10-13T09:48:55Z</time>
      </trkpt>
      <trkpt lat="41.8305740" lon="-5.7311100">
        <ele>734.2</ele>
        <time>2021-10-13T09:48:57Z</time>
      </trkpt>
      <trkpt lat="41.8305520" lon="-5.7311560">
        <ele>733.6</ele>
        <time>2021-10-13T09:49:11Z</time>
      </trkpt>
      <trkpt lat="41.8305340" lon="-5.7311840">
        <ele>733.6</ele>
        <time>2021-10-13T09:49:12Z</time>
      </trkpt>
      <trkpt lat="41.8304040" lon="-5.7313530">
        <ele>733.4</ele>
        <time>2021-10-13T09:49:17Z</time>
      </trkpt>
      <trkpt lat="41.8302900" lon="-5.7316990">
        <ele>733.6</ele>
        <time>2021-10-13T09:49:24Z</time>
      </trkpt>
      <trkpt lat="41.8301870" lon="-5.7321290">
        <ele>733.8</ele>
        <time>2021-10-13T09:49:32Z</time>
      </trkpt>
      <trkpt lat="41.8301740" lon="-5.7321900">
        <ele>733.8</ele>
        <time>2021-10-13T09:49:33Z</time>
      </trkpt>
      <trkpt lat="41.8300950" lon="-5.7325890">
        <ele>733.6</ele>
        <time>2021-10-13T09:49:39Z</time>
      </trkpt>
      <trkpt lat="41.8299440" lon="-5.7332710">
        <ele>733.6</ele>
        <time>2021-10-13T09:49:49Z</time>
      </trkpt>
      <trkpt lat="41.8298100" lon="-5.7338050">
        <ele>733.8</ele>
        <time>2021-10-13T09:49:57Z</time>
      </trkpt>
      <trkpt lat="41.8297420" lon="-5.7338940">
        <ele>733.8</ele>
        <time>2021-10-13T09:49:59Z</time>
      </trkpt>
      <trkpt lat="41.8297000" lon="-5.7339160">
        <ele>733.8</ele>
        <time>2021-10-13T09:50:00Z</time>
      </trkpt>
      <trkpt lat="41.8296130" lon="-5.7339510">
        <ele>733.6</ele>
        <time>2021-10-13T09:50:02Z</time>
      </trkpt>
      <trkpt lat="41.8293350" lon="-5.7340600">
        <ele>733.4</ele>
        <time>2021-10-13T09:50:08Z</time>
      </trkpt>
      <trkpt lat="41.8292870" lon="-5.7340790">
        <ele>733.2</ele>
        <time>2021-10-13T09:50:09Z</time>
      </trkpt>
      <trkpt lat="41.8289500" lon="-5.7341980">
        <ele>733.0</ele>
        <time>2021-10-13T09:50:16Z</time>
      </trkpt>
      <trkpt lat="41.8288550" lon="-5.7342360">
        <ele>733.0</ele>
        <time>2021-10-13T09:50:18Z</time>
      </trkpt>
      <trkpt lat="41.8283530" lon="-5.7344280">
        <ele>732.8</ele>
        <time>2021-10-13T09:50:28Z</time>
      </trkpt>
      <trkpt lat="41.8281900" lon="-5.7344910">
        <ele>732.0</ele>
        <time>2021-10-13T09:50:31Z</time>
      </trkpt>
      <trkpt lat="41.8278420" lon="-5.7346140">
        <ele>731.4</ele>
        <time>2021-10-13T09:50:37Z</time>
      </trkpt>
      <trkpt lat="41.8276710" lon="-5.7346780">
        <ele>731.2</ele>
        <time>2021-10-13T09:50:40Z</time>
      </trkpt>
      <trkpt lat="41.8275610" lon="-5.7347210">
        <ele>730.8</ele>
        <time>2021-10-13T09:50:42Z</time>
      </trkpt>
      <trkpt lat="41.8273530" lon="-5.7347980">
        <ele>730.0</ele>
        <time>2021-10-13T09:50:46Z</time>
      </trkpt>
      <trkpt lat="41.8270070" lon="-5.7349210">
        <ele>729.6</ele>
        <time>2021-10-13T09:50:53Z</time>
      </trkpt>
      <trkpt lat="41.8269590" lon="-5.7349410">
        <ele>729.6</ele>
        <time>2021-10-13T09:50:54Z</time>
      </trkpt>
      <trkpt lat="41.8267220" lon="-5.7350320">
        <ele>729.6</ele>
        <time>2021-10-13T09:50:59Z</time>
      </trkpt>
      <trkpt lat="41.8264990" lon="-5.7351190">
        <ele>729.8</ele>
        <time>2021-10-13T09:51:04Z</time>
      </trkpt>
      <trkpt lat="41.8260940" lon="-5.7352670">
        <ele>730.0</ele>
        <time>2021-10-13T09:51:13Z</time>
      </trkpt>
      <trkpt lat="41.8259070" lon="-5.7353350">
        <ele>730.0</ele>
        <time>2021-10-13T09:51:17Z</time>
      </trkpt>
      <trkpt lat="41.8257200" lon="-5.7354060">
        <ele>729.8</ele>
        <time>2021-10-13T09:51:21Z</time>
      </trkpt>
      <trkpt lat="41.8256250" lon="-5.7354420">
        <ele>729.6</ele>
        <time>2021-10-13T09:51:23Z</time>
      </trkpt>
      <trkpt lat="41.8254360" lon="-5.7355120">
        <ele>729.0</ele>
        <time>2021-10-13T09:51:27Z</time>
      </trkpt>
      <trkpt lat="41.8252560" lon="-5.7355740">
        <ele>728.6</ele>
        <time>2021-10-13T09:51:31Z</time>
      </trkpt>
      <trkpt lat="41.8251150" lon="-5.7356250">
        <ele>728.4</ele>
        <time>2021-10-13T09:51:34Z</time>
      </trkpt>
      <trkpt lat="41.8249280" lon="-5.7356960">
        <ele>728.4</ele>
        <time>2021-10-13T09:51:38Z</time>
      </trkpt>
      <trkpt lat="41.8247860" lon="-5.7357470">
        <ele>728.4</ele>
        <time>2021-10-13T09:51:41Z</time>
      </trkpt>
      <trkpt lat="41.8243710" lon="-5.7358980">
        <ele>728.0</ele>
        <time>2021-10-13T09:51:49Z</time>
      </trkpt>
      <trkpt lat="41.8240540" lon="-5.7360210">
        <ele>727.6</ele>
        <time>2021-10-13T09:51:56Z</time>
      </trkpt>
      <trkpt lat="41.8238990" lon="-5.7360860">
        <ele>727.2</ele>
        <time>2021-10-13T09:52:00Z</time>
      </trkpt>
      <trkpt lat="41.8238220" lon="-5.7361130">
        <ele>727.4</ele>
        <time>2021-10-13T09:52:02Z</time>
      </trkpt>
      <trkpt lat="41.8237840" lon="-5.7361230">
        <ele>727.4</ele>
        <time>2021-10-13T09:52:03Z</time>
      </trkpt>
      <trkpt lat="41.8235590" lon="-5.7362180">
        <ele>727.6</ele>
        <time>2021-10-13T09:52:09Z</time>
      </trkpt>
      <trkpt lat="41.8231240" lon="-5.7363740">
        <ele>728.6</ele>
        <time>2021-10-13T09:52:19Z</time>
      </trkpt>
      <trkpt lat="41.8229930" lon="-5.7364200">
        <ele>728.6</ele>
        <time>2021-10-13T09:52:22Z</time>
      </trkpt>
      <trkpt lat="41.8228670" lon="-5.7364670">
        <ele>728.6</ele>
        <time>2021-10-13T09:52:25Z</time>
      </trkpt>
      <trkpt lat="41.8227010" lon="-5.7365310">
        <ele>728.4</ele>
        <time>2021-10-13T09:52:29Z</time>
      </trkpt>
      <trkpt lat="41.8226240" lon="-5.7365620">
        <ele>728.6</ele>
        <time>2021-10-13T09:52:31Z</time>
      </trkpt>
      <trkpt lat="41.8224850" lon="-5.7366110">
        <ele>728.4</ele>
        <time>2021-10-13T09:52:34Z</time>
      </trkpt>
      <trkpt lat="41.8223590" lon="-5.7366610">
        <ele>728.6</ele>
        <time>2021-10-13T09:52:37Z</time>
      </trkpt>
      <trkpt lat="41.8223180" lon="-5.7366760">
        <ele>728.6</ele>
        <time>2021-10-13T09:52:38Z</time>
      </trkpt>
      <trkpt lat="41.8221570" lon="-5.7367400">
        <ele>729.0</ele>
        <time>2021-10-13T09:52:42Z</time>
      </trkpt>
      <trkpt lat="41.8221160" lon="-5.7367570">
        <ele>729.0</ele>
        <time>2021-10-13T09:52:43Z</time>
      </trkpt>
      <trkpt lat="41.8218740" lon="-5.7368440">
        <ele>729.6</ele>
        <time>2021-10-13T09:52:49Z</time>
      </trkpt>
      <trkpt lat="41.8216190" lon="-5.7369360">
        <ele>729.6</ele>
        <time>2021-10-13T09:52:55Z</time>
      </trkpt>
      <trkpt lat="41.8214030" lon="-5.7370170">
        <ele>729.2</ele>
        <time>2021-10-13T09:53:00Z</time>
      </trkpt>
      <trkpt lat="41.8213120" lon="-5.7370540">
        <ele>729.2</ele>
        <time>2021-10-13T09:53:02Z</time>
      </trkpt>
      <trkpt lat="41.8211370" lon="-5.7371160">
        <ele>729.2</ele>
        <time>2021-10-13T09:53:06Z</time>
      </trkpt>
      <trkpt lat="41.8210000" lon="-5.7371700">
        <ele>729.0</ele>
        <time>2021-10-13T09:53:09Z</time>
      </trkpt>
      <trkpt lat="41.8206650" lon="-5.7373020">
        <ele>728.8</ele>
        <time>2021-10-13T09:53:16Z</time>
      </trkpt>
      <trkpt lat="41.8202400" lon="-5.7374590">
        <ele>728.6</ele>
        <time>2021-10-13T09:53:25Z</time>
      </trkpt>
      <trkpt lat="41.8199060" lon="-5.7375830">
        <ele>729.0</ele>
        <time>2021-10-13T09:53:32Z</time>
      </trkpt>
      <trkpt lat="41.8198570" lon="-5.7376010">
        <ele>729.0</ele>
        <time>2021-10-13T09:53:33Z</time>
      </trkpt>
      <trkpt lat="41.8197120" lon="-5.7376560">
        <ele>729.0</ele>
        <time>2021-10-13T09:53:36Z</time>
      </trkpt>
      <trkpt lat="41.8194550" lon="-5.7377500">
        <ele>728.8</ele>
        <time>2021-10-13T09:53:41Z</time>
      </trkpt>
      <trkpt lat="41.8193490" lon="-5.7377910">
        <ele>728.8</ele>
        <time>2021-10-13T09:53:43Z</time>
      </trkpt>
      <trkpt lat="41.8189300" lon="-5.7379430">
        <ele>728.4</ele>
        <time>2021-10-13T09:53:51Z</time>
      </trkpt>
      <trkpt lat="41.8185180" lon="-5.7380980">
        <ele>728.6</ele>
        <time>2021-10-13T09:54:00Z</time>
      </trkpt>
      <trkpt lat="41.8182940" lon="-5.7381800">
        <ele>728.8</ele>
        <time>2021-10-13T09:54:05Z</time>
      </trkpt>
      <trkpt lat="41.8181610" lon="-5.7382270">
        <ele>729.0</ele>
        <time>2021-10-13T09:54:08Z</time>
      </trkpt>
      <trkpt lat="41.8181180" lon="-5.7382450">
        <ele>729.0</ele>
        <time>2021-10-13T09:54:09Z</time>
      </trkpt>
      <trkpt lat="41.8178080" lon="-5.7383580">
        <ele>729.6</ele>
        <time>2021-10-13T09:54:16Z</time>
      </trkpt>
      <trkpt lat="41.8176360" lon="-5.7384190">
        <ele>729.8</ele>
        <time>2021-10-13T09:54:20Z</time>
      </trkpt>
      <trkpt lat="41.8174610" lon="-5.7384890">
        <ele>730.2</ele>
        <time>2021-10-13T09:54:24Z</time>
      </trkpt>
      <trkpt lat="41.8173680" lon="-5.7385240">
        <ele>730.4</ele>
        <time>2021-10-13T09:54:26Z</time>
      </trkpt>
      <trkpt lat="41.8172780" lon="-5.7385590">
        <ele>730.4</ele>
        <time>2021-10-13T09:54:28Z</time>
      </trkpt>
      <trkpt lat="41.8169000" lon="-5.7387030">
        <ele>730.2</ele>
        <time>2021-10-13T09:54:36Z</time>
      </trkpt>
      <trkpt lat="41.8168060" lon="-5.7387350">
        <ele>730.0</ele>
        <time>2021-10-13T09:54:38Z</time>
      </trkpt>
      <trkpt lat="41.8166140" lon="-5.7388090">
        <ele>729.4</ele>
        <time>2021-10-13T09:54:42Z</time>
      </trkpt>
      <trkpt lat="41.8165160" lon="-5.7388410">
        <ele>729.2</ele>
        <time>2021-10-13T09:54:44Z</time>
      </trkpt>
      <trkpt lat="41.8164150" lon="-5.7388790">
        <ele>729.0</ele>
        <time>2021-10-13T09:54:46Z</time>
      </trkpt>
      <trkpt lat="41.8161990" lon="-5.7389540">
        <ele>728.2</ele>
        <time>2021-10-13T09:54:50Z</time>
      </trkpt>
      <trkpt lat="41.8160290" lon="-5.7390250">
        <ele>728.0</ele>
        <time>2021-10-13T09:54:53Z</time>
      </trkpt>
      <trkpt lat="41.8157850" lon="-5.7391140">
        <ele>727.2</ele>
        <time>2021-10-13T09:54:57Z</time>
      </trkpt>
      <trkpt lat="41.8155360" lon="-5.7392060">
        <ele>726.6</ele>
        <time>2021-10-13T09:55:01Z</time>
      </trkpt>
      <trkpt lat="41.8153070" lon="-5.7392930">
        <ele>726.0</ele>
        <time>2021-10-13T09:55:05Z</time>
      </trkpt>
      <trkpt lat="41.8150850" lon="-5.7393680">
        <ele>725.8</ele>
        <time>2021-10-13T09:55:09Z</time>
      </trkpt>
      <trkpt lat="41.8148510" lon="-5.7394630">
        <ele>726.0</ele>
        <time>2021-10-13T09:55:14Z</time>
      </trkpt>
      <trkpt lat="41.8145610" lon="-5.7395680">
        <ele>726.6</ele>
        <time>2021-10-13T09:55:21Z</time>
      </trkpt>
      <trkpt lat="41.8143360" lon="-5.7396560">
        <ele>727.6</ele>
        <time>2021-10-13T09:55:27Z</time>
      </trkpt>
      <trkpt lat="41.8142650" lon="-5.7396810">
        <ele>728.0</ele>
        <time>2021-10-13T09:55:29Z</time>
      </trkpt>
      <trkpt lat="41.8140940" lon="-5.7397500">
        <ele>728.8</ele>
        <time>2021-10-13T09:55:34Z</time>
      </trkpt>
      <trkpt lat="41.8139880" lon="-5.7397890">
        <ele>729.0</ele>
        <time>2021-10-13T09:55:37Z</time>
      </trkpt>
      <trkpt lat="41.8136720" lon="-5.7398980">
        <ele>729.4</ele>
        <time>2021-10-13T09:55:46Z</time>
      </trkpt>
      <trkpt lat="41.8135830" lon="-5.7399480">
        <ele>729.2</ele>
        <time>2021-10-13T09:55:49Z</time>
      </trkpt>
      <trkpt lat="41.8135230" lon="-5.7399890">
        <ele>729.2</ele>
        <time>2021-10-13T09:55:52Z</time>
      </trkpt>
      <trkpt lat="41.8134630" lon="-5.7400190">
        <ele>729.2</ele>
        <time>2021-10-13T09:55:58Z</time>
      </trkpt>
      <trkpt lat="41.8135580" lon="-5.7400970">
        <ele>730.2</ele>
        <time>2021-10-13T09:56:17Z</time>
      </trkpt>
      <trkpt lat="41.8136070" lon="-5.7401450">
        <ele>730.2</ele>
        <time>2021-10-13T09:56:19Z</time>
      </trkpt>
      <trkpt lat="41.8137790" lon="-5.7402950">
        <ele>730.2</ele>
        <time>2021-10-13T09:56:26Z</time>
      </trkpt>
      <trkpt lat="41.8139370" lon="-5.7404400">
        <ele>730.2</ele>
        <time>2021-10-13T09:56:32Z</time>
      </trkpt>
      <trkpt lat="41.8140210" lon="-5.7405190">
        <ele>730.2</ele>
        <time>2021-10-13T09:56:35Z</time>
      </trkpt>
      <trkpt lat="41.8140390" lon="-5.7405540">
        <ele>730.2</ele>
        <time>2021-10-13T09:56:36Z</time>
      </trkpt>
      <trkpt lat="41.8140450" lon="-5.7405910">
        <ele>730.2</ele>
        <time>2021-10-13T09:56:37Z</time>
      </trkpt>
      <trkpt lat="41.8140390" lon="-5.7406270">
        <ele>730.2</ele>
        <time>2021-10-13T09:56:38Z</time>
      </trkpt>
      <trkpt lat="41.8139960" lon="-5.7406840">
        <ele>730.2</ele>
        <time>2021-10-13T09:56:40Z</time>
      </trkpt>
      <trkpt lat="41.8138640" lon="-5.7407390">
        <ele>730.0</ele>
        <time>2021-10-13T09:56:44Z</time>
      </trkpt>
      <trkpt lat="41.8138300" lon="-5.7407280">
        <ele>730.0</ele>
        <time>2021-10-13T09:56:45Z</time>
      </trkpt>
      <trkpt lat="41.8136120" lon="-5.7406180">
        <ele>730.2</ele>
        <time>2021-10-13T09:56:51Z</time>
      </trkpt>
      <trkpt lat="41.8135010" lon="-5.7405580">
        <ele>730.6</ele>
        <time>2021-10-13T09:56:54Z</time>
      </trkpt>
      <trkpt lat="41.8133820" lon="-5.7404970">
        <ele>731.2</ele>
        <time>2021-10-13T09:56:57Z</time>
      </trkpt>
      <trkpt lat="41.8131800" lon="-5.7404110">
        <ele>731.6</ele>
        <time>2021-10-13T09:57:02Z</time>
      </trkpt>
      <trkpt lat="41.8131000" lon="-5.7403750">
        <ele>731.6</ele>
        <time>2021-10-13T09:57:04Z</time>
      </trkpt>
      <trkpt lat="41.8128420" lon="-5.7402420">
        <ele>731.4</ele>
        <time>2021-10-13T09:57:11Z</time>
      </trkpt>
      <trkpt lat="41.8127700" lon="-5.7402050">
        <ele>731.6</ele>
        <time>2021-10-13T09:57:13Z</time>
      </trkpt>
      <trkpt lat="41.8126670" lon="-5.7401410">
        <ele>732.0</ele>
        <time>2021-10-13T09:57:16Z</time>
      </trkpt>
      <trkpt lat="41.8126020" lon="-5.7400980">
        <ele>732.4</ele>
        <time>2021-10-13T09:57:18Z</time>
      </trkpt>
      <trkpt lat="41.8125710" lon="-5.7400780">
        <ele>732.6</ele>
        <time>2021-10-13T09:57:19Z</time>
      </trkpt>
      <trkpt lat="41.8125400" lon="-5.7400540">
        <ele>732.8</ele>
        <time>2021-10-13T09:57:20Z</time>
      </trkpt>
      <trkpt lat="41.8124570" lon="-5.7399960">
        <ele>733.0</ele>
        <time>2021-10-13T09:57:23Z</time>
      </trkpt>
      <trkpt lat="41.8123800" lon="-5.7399440">
        <ele>733.4</ele>
        <time>2021-10-13T09:57:26Z</time>
      </trkpt>
      <trkpt lat="41.8123260" lon="-5.7399060">
        <ele>733.6</ele>
        <time>2021-10-13T09:57:28Z</time>
      </trkpt>
      <trkpt lat="41.8122750" lon="-5.7398640">
        <ele>733.6</ele>
        <time>2021-10-13T09:57:30Z</time>
      </trkpt>
      <trkpt lat="41.8122500" lon="-5.7398460">
        <ele>733.6</ele>
        <time>2021-10-13T09:57:31Z</time>
      </trkpt>
      <trkpt lat="41.8122250" lon="-5.7398310">
        <ele>733.6</ele>
        <time>2021-10-13T09:57:32Z</time>
      </trkpt>
      <trkpt lat="41.8120960" lon="-5.7397550">
        <ele>733.4</ele>
        <time>2021-10-13T09:57:37Z</time>
      </trkpt>
      <trkpt lat="41.8119390" lon="-5.7397280">
        <ele>732.8</ele>
        <time>2021-10-13T09:57:43Z</time>
      </trkpt>
      <trkpt lat="41.8119210" lon="-5.7397320">
        <ele>732.4</ele>
        <time>2021-10-13T09:57:44Z</time>
      </trkpt>
      <trkpt lat="41.8118930" lon="-5.7397430">
        <ele>731.6</ele>
        <time>2021-10-13T09:57:48Z</time>
      </trkpt>
      <trkpt lat="41.8118930" lon="-5.7397430">
        <ele>731.4</ele>
        <time>2021-10-13T09:57:49Z</time>
      </trkpt>
      <trkpt lat="41.8118520" lon="-5.7397390">
        <ele>731.0</ele>
        <time>2021-10-13T09:58:31Z</time>
      </trkpt>
      <trkpt lat="41.8118260" lon="-5.7397330">
        <ele>731.0</ele>
        <time>2021-10-13T09:58:32Z</time>
      </trkpt>
      <trkpt lat="41.8117970" lon="-5.7397290">
        <ele>731.0</ele>
        <time>2021-10-13T09:58:33Z</time>
      </trkpt>
      <trkpt lat="41.8115750" lon="-5.7397560">
        <ele>730.6</ele>
        <time>2021-10-13T09:58:38Z</time>
      </trkpt>
      <trkpt lat="41.8114500" lon="-5.7397580">
        <ele>730.4</ele>
        <time>2021-10-13T09:58:40Z</time>
      </trkpt>
      <trkpt lat="41.8113100" lon="-5.7397210">
        <ele>729.2</ele>
        <time>2021-10-13T09:58:42Z</time>
      </trkpt>
      <trkpt lat="41.8111760" lon="-5.7396360">
        <ele>728.0</ele>
        <time>2021-10-13T09:58:44Z</time>
      </trkpt>
      <trkpt lat="41.8111130" lon="-5.7395900">
        <ele>726.8</ele>
        <time>2021-10-13T09:58:45Z</time>
      </trkpt>
      <trkpt lat="41.8110040" lon="-5.7395000">
        <ele>725.4</ele>
        <time>2021-10-13T09:58:47Z</time>
      </trkpt>
      <trkpt lat="41.8109170" lon="-5.7393720">
        <ele>724.0</ele>
        <time>2021-10-13T09:58:49Z</time>
      </trkpt>
      <trkpt lat="41.8108800" lon="-5.7392940">
        <ele>723.2</ele>
        <time>2021-10-13T09:58:50Z</time>
      </trkpt>
      <trkpt lat="41.8108480" lon="-5.7392130">
        <ele>722.8</ele>
        <time>2021-10-13T09:58:51Z</time>
      </trkpt>
      <trkpt lat="41.8107520" lon="-5.7389790">
        <ele>721.6</ele>
        <time>2021-10-13T09:58:54Z</time>
      </trkpt>
      <trkpt lat="41.8106650" lon="-5.7387800">
        <ele>720.2</ele>
        <time>2021-10-13T09:58:57Z</time>
      </trkpt>
      <trkpt lat="41.8105960" lon="-5.7387300">
        <ele>719.4</ele>
        <time>2021-10-13T09:58:59Z</time>
      </trkpt>
      <trkpt lat="41.8105590" lon="-5.7387320">
        <ele>719.0</ele>
        <time>2021-10-13T09:59:00Z</time>
      </trkpt>
      <trkpt lat="41.8104820" lon="-5.7387640">
        <ele>717.8</ele>
        <time>2021-10-13T09:59:02Z</time>
      </trkpt>
      <trkpt lat="41.8104430" lon="-5.7387740">
        <ele>717.4</ele>
        <time>2021-10-13T09:59:03Z</time>
      </trkpt>
      <trkpt lat="41.8103660" lon="-5.7387610">
        <ele>716.6</ele>
        <time>2021-10-13T09:59:05Z</time>
      </trkpt>
      <trkpt lat="41.8102350" lon="-5.7387120">
        <ele>716.2</ele>
        <time>2021-10-13T09:59:08Z</time>
      </trkpt>
      <trkpt lat="41.8101330" lon="-5.7387110">
        <ele>715.6</ele>
        <time>2021-10-13T09:59:10Z</time>
      </trkpt>
      <trkpt lat="41.8100430" lon="-5.7387500">
        <ele>715.0</ele>
        <time>2021-10-13T09:59:12Z</time>
      </trkpt>
      <trkpt lat="41.8099730" lon="-5.7388390">
        <ele>714.0</ele>
        <time>2021-10-13T09:59:14Z</time>
      </trkpt>
      <trkpt lat="41.8098980" lon="-5.7390460">
        <ele>712.8</ele>
        <time>2021-10-13T09:59:17Z</time>
      </trkpt>
      <trkpt lat="41.8098340" lon="-5.7391790">
        <ele>712.0</ele>
        <time>2021-10-13T09:59:19Z</time>
      </trkpt>
      <trkpt lat="41.8097990" lon="-5.7392390">
        <ele>711.6</ele>
        <time>2021-10-13T09:59:20Z</time>
      </trkpt>
      <trkpt lat="41.8097310" lon="-5.7393370">
        <ele>710.6</ele>
        <time>2021-10-13T09:59:22Z</time>
      </trkpt>
      <trkpt lat="41.8096920" lon="-5.7393650">
        <ele>710.0</ele>
        <time>2021-10-13T09:59:23Z</time>
      </trkpt>
      <trkpt lat="41.8096480" lon="-5.7393760">
        <ele>709.6</ele>
        <time>2021-10-13T09:59:24Z</time>
      </trkpt>
      <trkpt lat="41.8096010" lon="-5.7393600">
        <ele>709.2</ele>
        <time>2021-10-13T09:59:25Z</time>
      </trkpt>
      <trkpt lat="41.8095540" lon="-5.7393270">
        <ele>708.6</ele>
        <time>2021-10-13T09:59:26Z</time>
      </trkpt>
      <trkpt lat="41.8095120" lon="-5.7392820">
        <ele>707.8</ele>
        <time>2021-10-13T09:59:27Z</time>
      </trkpt>
      <trkpt lat="41.8094110" lon="-5.7391470">
        <ele>706.4</ele>
        <time>2021-10-13T09:59:30Z</time>
      </trkpt>
      <trkpt lat="41.8093830" lon="-5.7391130">
        <ele>706.2</ele>
        <time>2021-10-13T09:59:31Z</time>
      </trkpt>
      <trkpt lat="41.8093230" lon="-5.7390800">
        <ele>705.4</ele>
        <time>2021-10-13T09:59:33Z</time>
      </trkpt>
      <trkpt lat="41.8092910" lon="-5.7390870">
        <ele>705.2</ele>
        <time>2021-10-13T09:59:34Z</time>
      </trkpt>
      <trkpt lat="41.8090980" lon="-5.7392080">
        <ele>704.6</ele>
        <time>2021-10-13T09:59:41Z</time>
      </trkpt>
      <trkpt lat="41.8090590" lon="-5.7392380">
        <ele>704.4</ele>
        <time>2021-10-13T09:59:45Z</time>
      </trkpt>
      <trkpt lat="41.8090590" lon="-5.7392380">
        <ele>704.4</ele>
        <time>2021-10-13T09:59:46Z</time>
      </trkpt>
      <trkpt lat="41.8090350" lon="-5.7393000">
        <ele>704.2</ele>
        <time>2021-10-13T09:59:53Z</time>
      </trkpt>
      <trkpt lat="41.8090170" lon="-5.7393600">
        <ele>704.2</ele>
        <time>2021-10-13T09:59:55Z</time>
      </trkpt>
      <trkpt lat="41.8089300" lon="-5.7395200">
        <ele>704.0</ele>
        <time>2021-10-13T09:59:59Z</time>
      </trkpt>
      <trkpt lat="41.8089000" lon="-5.7395570">
        <ele>704.0</ele>
        <time>2021-10-13T10:00:00Z</time>
      </trkpt>
      <trkpt lat="41.8088020" lon="-5.7396720">
        <ele>704.0</ele>
        <time>2021-10-13T10:00:03Z</time>
      </trkpt>
      <trkpt lat="41.8086480" lon="-5.7398480">
        <ele>704.0</ele>
        <time>2021-10-13T10:00:08Z</time>
      </trkpt>
      <trkpt lat="41.8085260" lon="-5.7400200">
        <ele>704.0</ele>
        <time>2021-10-13T10:00:14Z</time>
      </trkpt>
      <trkpt lat="41.8085120" lon="-5.7400470">
        <ele>704.0</ele>
        <time>2021-10-13T10:00:19Z</time>
      </trkpt>
      <trkpt lat="41.8084880" lon="-5.7400810">
        <ele>704.2</ele>
        <time>2021-10-13T10:00:36Z</time>
      </trkpt>
      <trkpt lat="41.8084730" lon="-5.7400960">
        <ele>704.0</ele>
        <time>2021-10-13T10:00:39Z</time>
      </trkpt>
      <trkpt lat="41.8084510" lon="-5.7400800">
        <ele>704.0</ele>
        <time>2021-10-13T10:00:50Z</time>
      </trkpt>
      <trkpt lat="41.8084190" lon="-5.7400320">
        <ele>704.0</ele>
        <time>2021-10-13T10:00:52Z</time>
      </trkpt>
      <trkpt lat="41.8083410" lon="-5.7399590">
        <ele>704.0</ele>
        <time>2021-10-13T10:00:55Z</time>
      </trkpt>
      <trkpt lat="41.8083010" lon="-5.7399650">
        <ele>704.0</ele>
        <time>2021-10-13T10:00:56Z</time>
      </trkpt>
      <trkpt lat="41.8082660" lon="-5.7399990">
        <ele>704.0</ele>
        <time>2021-10-13T10:00:57Z</time>
      </trkpt>
      <trkpt lat="41.8082120" lon="-5.7401080">
        <ele>703.8</ele>
        <time>2021-10-13T10:00:59Z</time>
      </trkpt>
      <trkpt lat="41.8081630" lon="-5.7402190">
        <ele>703.2</ele>
        <time>2021-10-13T10:01:01Z</time>
      </trkpt>
      <trkpt lat="41.8081280" lon="-5.7402710">
        <ele>703.0</ele>
        <time>2021-10-13T10:01:02Z</time>
      </trkpt>
      <trkpt lat="41.8080360" lon="-5.7403860">
        <ele>702.8</ele>
        <time>2021-10-13T10:01:04Z</time>
      </trkpt>
      <trkpt lat="41.8078790" lon="-5.7405610">
        <ele>702.2</ele>
        <time>2021-10-13T10:01:08Z</time>
      </trkpt>
      <trkpt lat="41.8078470" lon="-5.7405900">
        <ele>702.2</ele>
        <time>2021-10-13T10:01:09Z</time>
      </trkpt>
      <trkpt lat="41.8077080" lon="-5.7407810">
        <ele>702.4</ele>
        <time>2021-10-13T10:01:15Z</time>
      </trkpt>
      <trkpt lat="41.8074960" lon="-5.7411240">
        <ele>702.6</ele>
        <time>2021-10-13T10:01:24Z</time>
      </trkpt>
      <trkpt lat="41.8072850" lon="-5.7413910">
        <ele>702.8</ele>
        <time>2021-10-13T10:01:31Z</time>
      </trkpt>
      <trkpt lat="41.8071360" lon="-5.7415620">
        <ele>702.8</ele>
        <time>2021-10-13T10:01:36Z</time>
      </trkpt>
      <trkpt lat="41.8071020" lon="-5.7415970">
        <ele>702.8</ele>
        <time>2021-10-13T10:01:37Z</time>
      </trkpt>
      <trkpt lat="41.8070660" lon="-5.7416270">
        <ele>702.8</ele>
        <time>2021-10-13T10:01:38Z</time>
      </trkpt>
      <trkpt lat="41.8070260" lon="-5.7416490">
        <ele>702.8</ele>
        <time>2021-10-13T10:01:39Z</time>
      </trkpt>
      <trkpt lat="41.8069320" lon="-5.7416960">
        <ele>703.0</ele>
        <time>2021-10-13T10:01:43Z</time>
      </trkpt>
      <trkpt lat="41.8069130" lon="-5.7417060">
        <ele>703.2</ele>
        <time>2021-10-13T10:01:47Z</time>
      </trkpt>
      <trkpt lat="41.8068620" lon="-5.7416770">
        <ele>703.8</ele>
        <time>2021-10-13T10:01:54Z</time>
      </trkpt>
      <trkpt lat="41.8068170" lon="-5.7416240">
        <ele>703.8</ele>
        <time>2021-10-13T10:01:56Z</time>
      </trkpt>
      <trkpt lat="41.8066190" lon="-5.7414380">
        <ele>703.8</ele>
        <time>2021-10-13T10:02:02Z</time>
      </trkpt>
      <trkpt lat="41.8063400" lon="-5.7412450">
        <ele>703.6</ele>
        <time>2021-10-13T10:02:09Z</time>
      </trkpt>
      <trkpt lat="41.8062280" lon="-5.7411640">
        <ele>703.6</ele>
        <time>2021-10-13T10:02:12Z</time>
      </trkpt>
      <trkpt lat="41.8060370" lon="-5.7410280">
        <ele>704.0</ele>
        <time>2021-10-13T10:02:17Z</time>
      </trkpt>
      <trkpt lat="41.8060040" lon="-5.7409980">
        <ele>704.0</ele>
        <time>2021-10-13T10:02:18Z</time>
      </trkpt>
      <trkpt lat="41.8059390" lon="-5.7409380">
        <ele>704.2</ele>
        <time>2021-10-13T10:02:20Z</time>
      </trkpt>
      <trkpt lat="41.8059040" lon="-5.7409120">
        <ele>704.2</ele>
        <time>2021-10-13T10:02:21Z</time>
      </trkpt>
      <trkpt lat="41.8058020" lon="-5.7408310">
        <ele>704.6</ele>
        <time>2021-10-13T10:02:24Z</time>
      </trkpt>
      <trkpt lat="41.8055930" lon="-5.7406400">
        <ele>705.2</ele>
        <time>2021-10-13T10:02:31Z</time>
      </trkpt>
      <trkpt lat="41.8055640" lon="-5.7406160">
        <ele>705.2</ele>
        <time>2021-10-13T10:02:32Z</time>
      </trkpt>
      <trkpt lat="41.8054080" lon="-5.7406010">
        <ele>705.6</ele>
        <time>2021-10-13T10:02:37Z</time>
      </trkpt>
      <trkpt lat="41.8053270" lon="-5.7406530">
        <ele>706.2</ele>
        <time>2021-10-13T10:02:40Z</time>
      </trkpt>
      <trkpt lat="41.8051900" lon="-5.7407330">
        <ele>706.6</ele>
        <time>2021-10-13T10:02:45Z</time>
      </trkpt>
      <trkpt lat="41.8051350" lon="-5.7407670">
        <ele>706.8</ele>
        <time>2021-10-13T10:02:47Z</time>
      </trkpt>
      <trkpt lat="41.8049940" lon="-5.7408470">
        <ele>707.4</ele>
        <time>2021-10-13T10:02:52Z</time>
      </trkpt>
      <trkpt lat="41.8048850" lon="-5.7409100">
        <ele>707.4</ele>
        <time>2021-10-13T10:02:56Z</time>
      </trkpt>
      <trkpt lat="41.8047590" lon="-5.7409830">
        <ele>707.8</ele>
        <time>2021-10-13T10:03:01Z</time>
      </trkpt>
      <trkpt lat="41.8047100" lon="-5.7410160">
        <ele>708.0</ele>
        <time>2021-10-13T10:03:03Z</time>
      </trkpt>
      <trkpt lat="41.8045860" lon="-5.7410810">
        <ele>708.2</ele>
        <time>2021-10-13T10:03:08Z</time>
      </trkpt>
      <trkpt lat="41.8045600" lon="-5.7410970">
        <ele>708.0</ele>
        <time>2021-10-13T10:03:09Z</time>
      </trkpt>
      <trkpt lat="41.8044440" lon="-5.7411580">
        <ele>708.4</ele>
        <time>2021-10-13T10:03:13Z</time>
      </trkpt>
      <trkpt lat="41.8043380" lon="-5.7412170">
        <ele>708.6</ele>
        <time>2021-10-13T10:03:17Z</time>
      </trkpt>
      <trkpt lat="41.8043100" lon="-5.7412320">
        <ele>708.6</ele>
        <time>2021-10-13T10:03:18Z</time>
      </trkpt>
      <trkpt lat="41.8042570" lon="-5.7412610">
        <ele>708.6</ele>
        <time>2021-10-13T10:03:20Z</time>
      </trkpt>
      <trkpt lat="41.8042030" lon="-5.7412910">
        <ele>708.6</ele>
        <time>2021-10-13T10:03:22Z</time>
      </trkpt>
      <trkpt lat="41.8040300" lon="-5.7413860">
        <ele>708.8</ele>
        <time>2021-10-13T10:03:28Z</time>
      </trkpt>
      <trkpt lat="41.8038530" lon="-5.7414570">
        <ele>709.2</ele>
        <time>2021-10-13T10:03:34Z</time>
      </trkpt>
      <trkpt lat="41.8036770" lon="-5.7415560">
        <ele>709.4</ele>
        <time>2021-10-13T10:03:40Z</time>
      </trkpt>
      <trkpt lat="41.8036460" lon="-5.7415720">
        <ele>709.6</ele>
        <time>2021-10-13T10:03:41Z</time>
      </trkpt>
      <trkpt lat="41.8036160" lon="-5.7415880">
        <ele>709.6</ele>
        <time>2021-10-13T10:03:42Z</time>
      </trkpt>
      <trkpt lat="41.8035550" lon="-5.7416200">
        <ele>709.8</ele>
        <time>2021-10-13T10:03:44Z</time>
      </trkpt>
      <trkpt lat="41.8035260" lon="-5.7416340">
        <ele>710.0</ele>
        <time>2021-10-13T10:03:45Z</time>
      </trkpt>
      <trkpt lat="41.8034370" lon="-5.7416830">
        <ele>710.2</ele>
        <time>2021-10-13T10:03:48Z</time>
      </trkpt>
      <trkpt lat="41.8032390" lon="-5.7417990">
        <ele>710.4</ele>
        <time>2021-10-13T10:03:55Z</time>
      </trkpt>
      <trkpt lat="41.8031530" lon="-5.7418440">
        <ele>710.4</ele>
        <time>2021-10-13T10:03:58Z</time>
      </trkpt>
      <trkpt lat="41.8030970" lon="-5.7418780">
        <ele>710.4</ele>
        <time>2021-10-13T10:04:00Z</time>
      </trkpt>
      <trkpt lat="41.8030690" lon="-5.7418930">
        <ele>710.6</ele>
        <time>2021-10-13T10:04:01Z</time>
      </trkpt>
      <trkpt lat="41.8030410" lon="-5.7419050">
        <ele>710.6</ele>
        <time>2021-10-13T10:04:02Z</time>
      </trkpt>
      <trkpt lat="41.8029830" lon="-5.7419370">
        <ele>710.8</ele>
        <time>2021-10-13T10:04:04Z</time>
      </trkpt>
      <trkpt lat="41.8028920" lon="-5.7419890">
        <ele>711.0</ele>
        <time>2021-10-13T10:04:07Z</time>
      </trkpt>
      <trkpt lat="41.8028320" lon="-5.7420220">
        <ele>711.2</ele>
        <time>2021-10-13T10:04:09Z</time>
      </trkpt>
      <trkpt lat="41.8027450" lon="-5.7420690">
        <ele>711.2</ele>
        <time>2021-10-13T10:04:12Z</time>
      </trkpt>
      <trkpt lat="41.8026860" lon="-5.7421020">
        <ele>711.2</ele>
        <time>2021-10-13T10:04:14Z</time>
      </trkpt>
      <trkpt lat="41.8025720" lon="-5.7421690">
        <ele>711.6</ele>
        <time>2021-10-13T10:04:18Z</time>
      </trkpt>
      <trkpt lat="41.8024070" lon="-5.7422540">
        <ele>712.0</ele>
        <time>2021-10-13T10:04:24Z</time>
      </trkpt>
      <trkpt lat="41.8022170" lon="-5.7423610">
        <ele>712.6</ele>
        <time>2021-10-13T10:04:31Z</time>
      </trkpt>
      <trkpt lat="41.8021900" lon="-5.7423750">
        <ele>712.6</ele>
        <time>2021-10-13T10:04:32Z</time>
      </trkpt>
      <trkpt lat="41.8021370" lon="-5.7424050">
        <ele>712.8</ele>
        <time>2021-10-13T10:04:34Z</time>
      </trkpt>
      <trkpt lat="41.8021110" lon="-5.7424210">
        <ele>713.0</ele>
        <time>2021-10-13T10:04:35Z</time>
      </trkpt>
      <trkpt lat="41.8020580" lon="-5.7424490">
        <ele>713.2</ele>
        <time>2021-10-13T10:04:37Z</time>
      </trkpt>
      <trkpt lat="41.8019810" lon="-5.7424920">
        <ele>713.4</ele>
        <time>2021-10-13T10:04:40Z</time>
      </trkpt>
      <trkpt lat="41.8019320" lon="-5.7425200">
        <ele>713.6</ele>
        <time>2021-10-13T10:04:42Z</time>
      </trkpt>
      <trkpt lat="41.8019050" lon="-5.7425340">
        <ele>713.6</ele>
        <time>2021-10-13T10:04:43Z</time>
      </trkpt>
      <trkpt lat="41.8018250" lon="-5.7425760">
        <ele>713.8</ele>
        <time>2021-10-13T10:04:46Z</time>
      </trkpt>
      <trkpt lat="41.8017970" lon="-5.7425890">
        <ele>713.8</ele>
        <time>2021-10-13T10:04:47Z</time>
      </trkpt>
      <trkpt lat="41.8017440" lon="-5.7426210">
        <ele>714.0</ele>
        <time>2021-10-13T10:04:49Z</time>
      </trkpt>
      <trkpt lat="41.8016370" lon="-5.7426770">
        <ele>714.4</ele>
        <time>2021-10-13T10:04:53Z</time>
      </trkpt>
      <trkpt lat="41.8015040" lon="-5.7427490">
        <ele>714.6</ele>
        <time>2021-10-13T10:04:58Z</time>
      </trkpt>
      <trkpt lat="41.8014770" lon="-5.7427600">
        <ele>714.6</ele>
        <time>2021-10-13T10:04:59Z</time>
      </trkpt>
      <trkpt lat="41.8014220" lon="-5.7427870">
        <ele>715.0</ele>
        <time>2021-10-13T10:05:01Z</time>
      </trkpt>
      <trkpt lat="41.8012880" lon="-5.7428680">
        <ele>715.2</ele>
        <time>2021-10-13T10:05:06Z</time>
      </trkpt>
      <trkpt lat="41.8010760" lon="-5.7429900">
        <ele>715.8</ele>
        <time>2021-10-13T10:05:13Z</time>
      </trkpt>
      <trkpt lat="41.8009830" lon="-5.7430370">
        <ele>716.2</ele>
        <time>2021-10-13T10:05:16Z</time>
      </trkpt>
      <trkpt lat="41.8009220" lon="-5.7430690">
        <ele>716.4</ele>
        <time>2021-10-13T10:05:18Z</time>
      </trkpt>
      <trkpt lat="41.8008590" lon="-5.7431020">
        <ele>716.6</ele>
        <time>2021-10-13T10:05:20Z</time>
      </trkpt>
      <trkpt lat="41.8007680" lon="-5.7431530">
        <ele>717.0</ele>
        <time>2021-10-13T10:05:23Z</time>
      </trkpt>
      <trkpt lat="41.8006790" lon="-5.7432070">
        <ele>717.4</ele>
        <time>2021-10-13T10:05:26Z</time>
      </trkpt>
      <trkpt lat="41.8005590" lon="-5.7432680">
        <ele>717.8</ele>
        <time>2021-10-13T10:05:30Z</time>
      </trkpt>
      <trkpt lat="41.8004190" lon="-5.7433450">
        <ele>718.2</ele>
        <time>2021-10-13T10:05:35Z</time>
      </trkpt>
      <trkpt lat="41.8003640" lon="-5.7433780">
        <ele>718.4</ele>
        <time>2021-10-13T10:05:37Z</time>
      </trkpt>
      <trkpt lat="41.8003060" lon="-5.7434070">
        <ele>718.4</ele>
        <time>2021-10-13T10:05:39Z</time>
      </trkpt>
      <trkpt lat="41.8002480" lon="-5.7434420">
        <ele>718.6</ele>
        <time>2021-10-13T10:05:41Z</time>
      </trkpt>
      <trkpt lat="41.8002180" lon="-5.7434590">
        <ele>718.6</ele>
        <time>2021-10-13T10:05:42Z</time>
      </trkpt>
      <trkpt lat="41.8001340" lon="-5.7435110">
        <ele>718.8</ele>
        <time>2021-10-13T10:05:45Z</time>
      </trkpt>
      <trkpt lat="41.7999630" lon="-5.7436050">
        <ele>719.2</ele>
        <time>2021-10-13T10:05:51Z</time>
      </trkpt>
      <trkpt lat="41.7999370" lon="-5.7436210">
        <ele>719.2</ele>
        <time>2021-10-13T10:05:52Z</time>
      </trkpt>
      <trkpt lat="41.7996410" lon="-5.7437780">
        <ele>719.8</ele>
        <time>2021-10-13T10:06:02Z</time>
      </trkpt>
      <trkpt lat="41.7995830" lon="-5.7438120">
        <ele>720.0</ele>
        <time>2021-10-13T10:06:04Z</time>
      </trkpt>
      <trkpt lat="41.7995250" lon="-5.7438460">
        <ele>720.0</ele>
        <time>2021-10-13T10:06:06Z</time>
      </trkpt>
      <trkpt lat="41.7994950" lon="-5.7438640">
        <ele>720.0</ele>
        <time>2021-10-13T10:06:07Z</time>
      </trkpt>
      <trkpt lat="41.7994360" lon="-5.7438970">
        <ele>720.0</ele>
        <time>2021-10-13T10:06:09Z</time>
      </trkpt>
      <trkpt lat="41.7994070" lon="-5.7439130">
        <ele>720.0</ele>
        <time>2021-10-13T10:06:10Z</time>
      </trkpt>
      <trkpt lat="41.7993790" lon="-5.7439300">
        <ele>720.0</ele>
        <time>2021-10-13T10:06:11Z</time>
      </trkpt>
      <trkpt lat="41.7993510" lon="-5.7439460">
        <ele>720.0</ele>
        <time>2021-10-13T10:06:12Z</time>
      </trkpt>
      <trkpt lat="41.7992920" lon="-5.7439770">
        <ele>720.0</ele>
        <time>2021-10-13T10:06:14Z</time>
      </trkpt>
      <trkpt lat="41.7991700" lon="-5.7440480">
        <ele>720.0</ele>
        <time>2021-10-13T10:06:18Z</time>
      </trkpt>
      <trkpt lat="41.7991410" lon="-5.7440670">
        <ele>720.2</ele>
        <time>2021-10-13T10:06:19Z</time>
      </trkpt>
      <trkpt lat="41.7991110" lon="-5.7440830">
        <ele>720.4</ele>
        <time>2021-10-13T10:06:20Z</time>
      </trkpt>
      <trkpt lat="41.7989920" lon="-5.7441480">
        <ele>720.8</ele>
        <time>2021-10-13T10:06:24Z</time>
      </trkpt>
      <trkpt lat="41.7988480" lon="-5.7442310">
        <ele>721.2</ele>
        <time>2021-10-13T10:06:29Z</time>
      </trkpt>
      <trkpt lat="41.7987900" lon="-5.7442650">
        <ele>721.2</ele>
        <time>2021-10-13T10:06:31Z</time>
      </trkpt>
      <trkpt lat="41.7987010" lon="-5.7443120">
        <ele>721.2</ele>
        <time>2021-10-13T10:06:34Z</time>
      </trkpt>
      <trkpt lat="41.7986700" lon="-5.7443280">
        <ele>721.4</ele>
        <time>2021-10-13T10:06:35Z</time>
      </trkpt>
      <trkpt lat="41.7985770" lon="-5.7443800">
        <ele>721.6</ele>
        <time>2021-10-13T10:06:38Z</time>
      </trkpt>
      <trkpt lat="41.7985150" lon="-5.7444100">
        <ele>721.6</ele>
        <time>2021-10-13T10:06:40Z</time>
      </trkpt>
      <trkpt lat="41.7984570" lon="-5.7444430">
        <ele>721.6</ele>
        <time>2021-10-13T10:06:42Z</time>
      </trkpt>
      <trkpt lat="41.7983980" lon="-5.7444760">
        <ele>721.6</ele>
        <time>2021-10-13T10:06:44Z</time>
      </trkpt>
      <trkpt lat="41.7983380" lon="-5.7445080">
        <ele>721.6</ele>
        <time>2021-10-13T10:06:46Z</time>
      </trkpt>
      <trkpt lat="41.7982800" lon="-5.7445420">
        <ele>721.6</ele>
        <time>2021-10-13T10:06:48Z</time>
      </trkpt>
      <trkpt lat="41.7981940" lon="-5.7445910">
        <ele>721.8</ele>
        <time>2021-10-13T10:06:51Z</time>
      </trkpt>
      <trkpt lat="41.7981320" lon="-5.7446240">
        <ele>721.8</ele>
        <time>2021-10-13T10:06:53Z</time>
      </trkpt>
      <trkpt lat="41.7979200" lon="-5.7447390">
        <ele>722.4</ele>
        <time>2021-10-13T10:06:59Z</time>
      </trkpt>
      <trkpt lat="41.7977570" lon="-5.7448280">
        <ele>722.6</ele>
        <time>2021-10-13T10:07:03Z</time>
      </trkpt>
      <trkpt lat="41.7975810" lon="-5.7449320">
        <ele>722.8</ele>
        <time>2021-10-13T10:07:07Z</time>
      </trkpt>
      <trkpt lat="41.7974420" lon="-5.7450100">
        <ele>722.4</ele>
        <time>2021-10-13T10:07:10Z</time>
      </trkpt>
      <trkpt lat="41.7973000" lon="-5.7450920">
        <ele>721.4</ele>
        <time>2021-10-13T10:07:13Z</time>
      </trkpt>
      <trkpt lat="41.7970510" lon="-5.7452240">
        <ele>720.6</ele>
        <time>2021-10-13T10:07:18Z</time>
      </trkpt>
      <trkpt lat="41.7968540" lon="-5.7453280">
        <ele>720.8</ele>
        <time>2021-10-13T10:07:22Z</time>
      </trkpt>
      <trkpt lat="41.7967040" lon="-5.7454100">
        <ele>720.8</ele>
        <time>2021-10-13T10:07:25Z</time>
      </trkpt>
      <trkpt lat="41.7966550" lon="-5.7454360">
        <ele>720.4</ele>
        <time>2021-10-13T10:07:26Z</time>
      </trkpt>
      <trkpt lat="41.7965590" lon="-5.7454930">
        <ele>720.2</ele>
        <time>2021-10-13T10:07:28Z</time>
      </trkpt>
      <trkpt lat="41.7963820" lon="-5.7455880">
        <ele>719.4</ele>
        <time>2021-10-13T10:07:32Z</time>
      </trkpt>
      <trkpt lat="41.7963480" lon="-5.7456040">
        <ele>719.4</ele>
        <time>2021-10-13T10:07:33Z</time>
      </trkpt>
      <trkpt lat="41.7962680" lon="-5.7456010">
        <ele>719.0</ele>
        <time>2021-10-13T10:07:36Z</time>
      </trkpt>
      <trkpt lat="41.7962470" lon="-5.7455800">
        <ele>719.0</ele>
        <time>2021-10-13T10:07:37Z</time>
      </trkpt>
      <trkpt lat="41.7962030" lon="-5.7454590">
        <ele>719.0</ele>
        <time>2021-10-13T10:07:42Z</time>
      </trkpt>
      <trkpt lat="41.7962030" lon="-5.7454540">
        <ele>719.0</ele>
        <time>2021-10-13T10:07:45Z</time>
      </trkpt>
      <trkpt lat="41.7962150" lon="-5.7453970">
        <ele>718.6</ele>
        <time>2021-10-13T10:09:17Z</time>
      </trkpt>
      <trkpt lat="41.7962210" lon="-5.7453630">
        <ele>718.6</ele>
        <time>2021-10-13T10:09:18Z</time>
      </trkpt>
      <trkpt lat="41.7962490" lon="-5.7452090">
        <ele>718.6</ele>
        <time>2021-10-13T10:09:22Z</time>
      </trkpt>
      <trkpt lat="41.7962700" lon="-5.7450670">
        <ele>718.6</ele>
        <time>2021-10-13T10:09:26Z</time>
      </trkpt>
      <trkpt lat="41.7963100" lon="-5.7448540">
        <ele>719.0</ele>
        <time>2021-10-13T10:09:32Z</time>
      </trkpt>
      <trkpt lat="41.7963580" lon="-5.7446280">
        <ele>719.4</ele>
        <time>2021-10-13T10:09:38Z</time>
      </trkpt>
      <trkpt lat="41.7963980" lon="-5.7443710">
        <ele>719.4</ele>
        <time>2021-10-13T10:09:45Z</time>
      </trkpt>
      <trkpt lat="41.7964470" lon="-5.7440840">
        <ele>719.8</ele>
        <time>2021-10-13T10:09:53Z</time>
      </trkpt>
      <trkpt lat="41.7964800" lon="-5.7438580">
        <ele>719.8</ele>
        <time>2021-10-13T10:09:59Z</time>
      </trkpt>
      <trkpt lat="41.7964960" lon="-5.7437460">
        <ele>720.0</ele>
        <time>2021-10-13T10:10:02Z</time>
      </trkpt>
      <trkpt lat="41.7965570" lon="-5.7434050">
        <ele>719.8</ele>
        <time>2021-10-13T10:10:11Z</time>
      </trkpt>
      <trkpt lat="41.7966070" lon="-5.7431340">
        <ele>719.8</ele>
        <time>2021-10-13T10:10:18Z</time>
      </trkpt>
      <trkpt lat="41.7966190" lon="-5.7430600">
        <ele>720.0</ele>
        <time>2021-10-13T10:10:20Z</time>
      </trkpt>
      <trkpt lat="41.7966560" lon="-5.7428580">
        <ele>720.4</ele>
        <time>2021-10-13T10:10:26Z</time>
      </trkpt>
      <trkpt lat="41.7966970" lon="-5.7426420">
        <ele>720.8</ele>
        <time>2021-10-13T10:10:32Z</time>
      </trkpt>
      <trkpt lat="41.7967060" lon="-5.7425700">
        <ele>720.8</ele>
        <time>2021-10-13T10:10:34Z</time>
      </trkpt>
      <trkpt lat="41.7967120" lon="-5.7425350">
        <ele>720.8</ele>
        <time>2021-10-13T10:10:35Z</time>
      </trkpt>
      <trkpt lat="41.7967330" lon="-5.7424200">
        <ele>721.2</ele>
        <time>2021-10-13T10:10:39Z</time>
      </trkpt>
      <trkpt lat="41.7967370" lon="-5.7423740">
        <ele>720.8</ele>
        <time>2021-10-13T10:10:44Z</time>
      </trkpt>
      <trkpt lat="41.7967470" lon="-5.7423280">
        <ele>721.2</ele>
        <time>2021-10-13T10:11:15Z</time>
      </trkpt>
      <trkpt lat="41.7967610" lon="-5.7422540">
        <ele>721.2</ele>
        <time>2021-10-13T10:11:17Z</time>
      </trkpt>
      <trkpt lat="41.7968030" lon="-5.7419780">
        <ele>720.8</ele>
        <time>2021-10-13T10:11:24Z</time>
      </trkpt>
      <trkpt lat="41.7968260" lon="-5.7418520">
        <ele>720.8</ele>
        <time>2021-10-13T10:11:27Z</time>
      </trkpt>
      <trkpt lat="41.7968490" lon="-5.7416820">
        <ele>720.8</ele>
        <time>2021-10-13T10:11:31Z</time>
      </trkpt>
      <trkpt lat="41.7968560" lon="-5.7416390">
        <ele>720.8</ele>
        <time>2021-10-13T10:11:32Z</time>
      </trkpt>
      <trkpt lat="41.7968880" lon="-5.7414340">
        <ele>720.4</ele>
        <time>2021-10-13T10:11:36Z</time>
      </trkpt>
      <trkpt lat="41.7969050" lon="-5.7413300">
        <ele>720.4</ele>
        <time>2021-10-13T10:11:38Z</time>
      </trkpt>
      <trkpt lat="41.7969600" lon="-5.7410200">
        <ele>719.8</ele>
        <time>2021-10-13T10:11:44Z</time>
      </trkpt>
      <trkpt lat="41.7969690" lon="-5.7409640">
        <ele>719.4</ele>
        <time>2021-10-13T10:11:45Z</time>
      </trkpt>
      <trkpt lat="41.7970040" lon="-5.7407290">
        <ele>718.6</ele>
        <time>2021-10-13T10:11:49Z</time>
      </trkpt>
      <trkpt lat="41.7970110" lon="-5.7406740">
        <ele>718.4</ele>
        <time>2021-10-13T10:11:50Z</time>
      </trkpt>
      <trkpt lat="41.7970290" lon="-5.7404620">
        <ele>717.6</ele>
        <time>2021-10-13T10:11:55Z</time>
      </trkpt>
      <trkpt lat="41.7970050" lon="-5.7404160">
        <ele>717.4</ele>
        <time>2021-10-13T10:11:57Z</time>
      </trkpt>
      <trkpt lat="41.7969560" lon="-5.7403840">
        <ele>717.4</ele>
        <time>2021-10-13T10:11:59Z</time>
      </trkpt>
      <trkpt lat="41.7967630" lon="-5.7403500">
        <ele>717.4</ele>
        <time>2021-10-13T10:12:04Z</time>
      </trkpt>
      <trkpt lat="41.7963880" lon="-5.7403270">
        <ele>717.2</ele>
        <time>2021-10-13T10:12:13Z</time>
      </trkpt>
      <trkpt lat="41.7963480" lon="-5.7403210">
        <ele>717.4</ele>
        <time>2021-10-13T10:12:14Z</time>
      </trkpt>
      <trkpt lat="41.7961820" lon="-5.7402950">
        <ele>717.6</ele>
        <time>2021-10-13T10:12:18Z</time>
      </trkpt>
      <trkpt lat="41.7961040" lon="-5.7402810">
        <ele>717.8</ele>
        <time>2021-10-13T10:12:20Z</time>
      </trkpt>
      <trkpt lat="41.7958680" lon="-5.7402520">
        <ele>718.6</ele>
        <time>2021-10-13T10:12:26Z</time>
      </trkpt>
      <trkpt lat="41.7957170" lon="-5.7402350">
        <ele>719.0</ele>
        <time>2021-10-13T10:12:30Z</time>
      </trkpt>
      <trkpt lat="41.7955660" lon="-5.7402210">
        <ele>719.4</ele>
        <time>2021-10-13T10:12:34Z</time>
      </trkpt>
      <trkpt lat="41.7953450" lon="-5.7402010">
        <ele>720.2</ele>
        <time>2021-10-13T10:12:40Z</time>
      </trkpt>
      <trkpt lat="41.7949850" lon="-5.7401620">
        <ele>720.4</ele>
        <time>2021-10-13T10:12:49Z</time>
      </trkpt>
      <trkpt lat="41.7949030" lon="-5.7401520">
        <ele>720.4</ele>
        <time>2021-10-13T10:12:51Z</time>
      </trkpt>
      <trkpt lat="41.7946320" lon="-5.7401440">
        <ele>720.2</ele>
        <time>2021-10-13T10:12:58Z</time>
      </trkpt>
      <trkpt lat="41.7944070" lon="-5.7401160">
        <ele>720.2</ele>
        <time>2021-10-13T10:13:04Z</time>
      </trkpt>
      <trkpt lat="41.7942970" lon="-5.7401010">
        <ele>720.6</ele>
        <time>2021-10-13T10:13:07Z</time>
      </trkpt>
      <trkpt lat="41.7942230" lon="-5.7400900">
        <ele>720.8</ele>
        <time>2021-10-13T10:13:09Z</time>
      </trkpt>
      <trkpt lat="41.7940390" lon="-5.7400680">
        <ele>721.6</ele>
        <time>2021-10-13T10:13:14Z</time>
      </trkpt>
      <trkpt lat="41.7940040" lon="-5.7400650">
        <ele>721.6</ele>
        <time>2021-10-13T10:13:15Z</time>
      </trkpt>
      <trkpt lat="41.7938970" lon="-5.7400550">
        <ele>721.8</ele>
        <time>2021-10-13T10:13:18Z</time>
      </trkpt>
      <trkpt lat="41.7938620" lon="-5.7400520">
        <ele>721.8</ele>
        <time>2021-10-13T10:13:19Z</time>
      </trkpt>
      <trkpt lat="41.7938270" lon="-5.7400500">
        <ele>722.0</ele>
        <time>2021-10-13T10:13:20Z</time>
      </trkpt>
      <trkpt lat="41.7937580" lon="-5.7400390">
        <ele>722.0</ele>
        <time>2021-10-13T10:13:22Z</time>
      </trkpt>
      <trkpt lat="41.7936870" lon="-5.7400310">
        <ele>722.2</ele>
        <time>2021-10-13T10:13:24Z</time>
      </trkpt>
      <trkpt lat="41.7935060" lon="-5.7400130">
        <ele>722.4</ele>
        <time>2021-10-13T10:13:29Z</time>
      </trkpt>
      <trkpt lat="41.7933960" lon="-5.7399990">
        <ele>722.4</ele>
        <time>2021-10-13T10:13:32Z</time>
      </trkpt>
      <trkpt lat="41.7932100" lon="-5.7399850">
        <ele>723.0</ele>
        <time>2021-10-13T10:13:37Z</time>
      </trkpt>
      <trkpt lat="41.7930290" lon="-5.7399710">
        <ele>723.0</ele>
        <time>2021-10-13T10:13:42Z</time>
      </trkpt>
      <trkpt lat="41.7928130" lon="-5.7399370">
        <ele>723.2</ele>
        <time>2021-10-13T10:13:48Z</time>
      </trkpt>
      <trkpt lat="41.7927470" lon="-5.7399220">
        <ele>723.4</ele>
        <time>2021-10-13T10:13:50Z</time>
      </trkpt>
      <trkpt lat="41.7926100" lon="-5.7399190">
        <ele>724.0</ele>
        <time>2021-10-13T10:13:54Z</time>
      </trkpt>
      <trkpt lat="41.7925410" lon="-5.7399060">
        <ele>724.2</ele>
        <time>2021-10-13T10:13:56Z</time>
      </trkpt>
      <trkpt lat="41.7924760" lon="-5.7398910">
        <ele>724.4</ele>
        <time>2021-10-13T10:13:58Z</time>
      </trkpt>
      <trkpt lat="41.7923490" lon="-5.7398770">
        <ele>724.4</ele>
        <time>2021-10-13T10:14:02Z</time>
      </trkpt>
      <trkpt lat="41.7922580" lon="-5.7398690">
        <ele>724.4</ele>
        <time>2021-10-13T10:14:05Z</time>
      </trkpt>
      <trkpt lat="41.7922300" lon="-5.7398680">
        <ele>724.6</ele>
        <time>2021-10-13T10:14:06Z</time>
      </trkpt>
      <trkpt lat="41.7919980" lon="-5.7398390">
        <ele>725.2</ele>
        <time>2021-10-13T10:14:14Z</time>
      </trkpt>
      <trkpt lat="41.7919140" lon="-5.7398280">
        <ele>725.4</ele>
        <time>2021-10-13T10:14:17Z</time>
      </trkpt>
      <trkpt lat="41.7917970" lon="-5.7398120">
        <ele>725.6</ele>
        <time>2021-10-13T10:14:21Z</time>
      </trkpt>
      <trkpt lat="41.7917110" lon="-5.7398040">
        <ele>725.8</ele>
        <time>2021-10-13T10:14:24Z</time>
      </trkpt>
      <trkpt lat="41.7916560" lon="-5.7397950">
        <ele>725.8</ele>
        <time>2021-10-13T10:14:26Z</time>
      </trkpt>
      <trkpt lat="41.7915450" lon="-5.7397860">
        <ele>726.2</ele>
        <time>2021-10-13T10:14:30Z</time>
      </trkpt>
      <trkpt lat="41.7915200" lon="-5.7397840">
        <ele>726.4</ele>
        <time>2021-10-13T10:14:31Z</time>
      </trkpt>
      <trkpt lat="41.7914380" lon="-5.7397790">
        <ele>726.6</ele>
        <time>2021-10-13T10:14:34Z</time>
      </trkpt>
      <trkpt lat="41.7914110" lon="-5.7397750">
        <ele>726.6</ele>
        <time>2021-10-13T10:14:35Z</time>
      </trkpt>
      <trkpt lat="41.7913620" lon="-5.7397670">
        <ele>726.6</ele>
        <time>2021-10-13T10:14:37Z</time>
      </trkpt>
      <trkpt lat="41.7913060" lon="-5.7397620">
        <ele>726.8</ele>
        <time>2021-10-13T10:14:39Z</time>
      </trkpt>
      <trkpt lat="41.7912470" lon="-5.7397550">
        <ele>726.8</ele>
        <time>2021-10-13T10:14:41Z</time>
      </trkpt>
      <trkpt lat="41.7911600" lon="-5.7397470">
        <ele>727.0</ele>
        <time>2021-10-13T10:14:44Z</time>
      </trkpt>
      <trkpt lat="41.7911240" lon="-5.7397430">
        <ele>727.2</ele>
        <time>2021-10-13T10:14:45Z</time>
      </trkpt>
      <trkpt lat="41.7911020" lon="-5.7397410">
        <ele>727.4</ele>
        <time>2021-10-13T10:14:46Z</time>
      </trkpt>
      <trkpt lat="41.7910750" lon="-5.7397380">
        <ele>727.4</ele>
        <time>2021-10-13T10:14:47Z</time>
      </trkpt>
      <trkpt lat="41.7909830" lon="-5.7397280">
        <ele>727.8</ele>
        <time>2021-10-13T10:14:50Z</time>
      </trkpt>
      <trkpt lat="41.7908610" lon="-5.7397150">
        <ele>728.0</ele>
        <time>2021-10-13T10:14:55Z</time>
      </trkpt>
      <trkpt lat="41.7908370" lon="-5.7397130">
        <ele>728.0</ele>
        <time>2021-10-13T10:14:56Z</time>
      </trkpt>
      <trkpt lat="41.7908110" lon="-5.7397120">
        <ele>728.0</ele>
        <time>2021-10-13T10:14:57Z</time>
      </trkpt>
      <trkpt lat="41.7907030" lon="-5.7396950">
        <ele>728.0</ele>
        <time>2021-10-13T10:15:01Z</time>
      </trkpt>
      <trkpt lat="41.7905780" lon="-5.7396790">
        <ele>728.0</ele>
        <time>2021-10-13T10:15:05Z</time>
      </trkpt>
      <trkpt lat="41.7904050" lon="-5.7396650">
        <ele>727.8</ele>
        <time>2021-10-13T10:15:10Z</time>
      </trkpt>
      <trkpt lat="41.7902840" lon="-5.7396540">
        <ele>727.4</ele>
        <time>2021-10-13T10:15:13Z</time>
      </trkpt>
      <trkpt lat="41.7900540" lon="-5.7396230">
        <ele>727.0</ele>
        <time>2021-10-13T10:15:18Z</time>
      </trkpt>
      <trkpt lat="41.7899160" lon="-5.7396110">
        <ele>726.6</ele>
        <time>2021-10-13T10:15:21Z</time>
      </trkpt>
      <trkpt lat="41.7898410" lon="-5.7396050">
        <ele>726.2</ele>
        <time>2021-10-13T10:15:23Z</time>
      </trkpt>
      <trkpt lat="41.7897700" lon="-5.7395970">
        <ele>725.4</ele>
        <time>2021-10-13T10:15:26Z</time>
      </trkpt>
      <trkpt lat="41.7897460" lon="-5.7396000">
        <ele>725.2</ele>
        <time>2021-10-13T10:15:27Z</time>
      </trkpt>
      <trkpt lat="41.7896390" lon="-5.7395810">
        <ele>724.8</ele>
        <time>2021-10-13T10:15:32Z</time>
      </trkpt>
      <trkpt lat="41.7896490" lon="-5.7396090">
        <ele>724.6</ele>
        <time>2021-10-13T10:15:35Z</time>
      </trkpt>
      <trkpt lat="41.7896570" lon="-5.7396100">
        <ele>724.6</ele>
        <time>2021-10-13T10:15:39Z</time>
      </trkpt>
      <trkpt lat="41.7896960" lon="-5.7396170">
        <ele>723.8</ele>
        <time>2021-10-13T10:16:00Z</time>
      </trkpt>
      <trkpt lat="41.7897140" lon="-5.7396230">
        <ele>724.2</ele>
        <time>2021-10-13T10:16:01Z</time>
      </trkpt>
      <trkpt lat="41.7897640" lon="-5.7396420">
        <ele>724.8</ele>
        <time>2021-10-13T10:16:04Z</time>
      </trkpt>
      <trkpt lat="41.7898010" lon="-5.7396750">
        <ele>725.0</ele>
        <time>2021-10-13T10:16:07Z</time>
      </trkpt>
      <trkpt lat="41.7898090" lon="-5.7396920">
        <ele>725.2</ele>
        <time>2021-10-13T10:16:08Z</time>
      </trkpt>
      <trkpt lat="41.7898480" lon="-5.7398570">
        <ele>725.0</ele>
        <time>2021-10-13T10:16:13Z</time>
      </trkpt>
      <trkpt lat="41.7898640" lon="-5.7399480">
        <ele>725.0</ele>
        <time>2021-10-13T10:16:15Z</time>
      </trkpt>
      <trkpt lat="41.7898720" lon="-5.7400020">
        <ele>724.8</ele>
        <time>2021-10-13T10:16:16Z</time>
      </trkpt>
      <trkpt lat="41.7898840" lon="-5.7401160">
        <ele>724.6</ele>
        <time>2021-10-13T10:16:18Z</time>
      </trkpt>
      <trkpt lat="41.7898890" lon="-5.7402410">
        <ele>724.4</ele>
        <time>2021-10-13T10:16:20Z</time>
      </trkpt>
      <trkpt lat="41.7899150" lon="-5.7404970">
        <ele>724.2</ele>
        <time>2021-10-13T10:16:24Z</time>
      </trkpt>
      <trkpt lat="41.7899210" lon="-5.7405640">
        <ele>724.0</ele>
        <time>2021-10-13T10:16:25Z</time>
      </trkpt>
      <trkpt lat="41.7899400" lon="-5.7407680">
        <ele>723.8</ele>
        <time>2021-10-13T10:16:28Z</time>
      </trkpt>
      <trkpt lat="41.7899480" lon="-5.7408350">
        <ele>723.8</ele>
        <time>2021-10-13T10:16:29Z</time>
      </trkpt>
      <trkpt lat="41.7899710" lon="-5.7411020">
        <ele>723.4</ele>
        <time>2021-10-13T10:16:33Z</time>
      </trkpt>
      <trkpt lat="41.7899750" lon="-5.7412470">
        <ele>723.0</ele>
        <time>2021-10-13T10:16:35Z</time>
      </trkpt>
      <trkpt lat="41.7899640" lon="-5.7413970">
        <ele>722.8</ele>
        <time>2021-10-13T10:16:37Z</time>
      </trkpt>
      <trkpt lat="41.7899510" lon="-5.7414700">
        <ele>722.6</ele>
        <time>2021-10-13T10:16:38Z</time>
      </trkpt>
      <trkpt lat="41.7899230" lon="-5.7416180">
        <ele>722.4</ele>
        <time>2021-10-13T10:16:40Z</time>
      </trkpt>
      <trkpt lat="41.7898700" lon="-5.7419240">
        <ele>722.0</ele>
        <time>2021-10-13T10:16:44Z</time>
      </trkpt>
      <trkpt lat="41.7898300" lon="-5.7421340">
        <ele>721.6</ele>
        <time>2021-10-13T10:16:47Z</time>
      </trkpt>
      <trkpt lat="41.7898180" lon="-5.7422010">
        <ele>721.6</ele>
        <time>2021-10-13T10:16:48Z</time>
      </trkpt>
      <trkpt lat="41.7897640" lon="-5.7424680">
        <ele>721.0</ele>
        <time>2021-10-13T10:16:52Z</time>
      </trkpt>
      <trkpt lat="41.7896920" lon="-5.7428040">
        <ele>720.8</ele>
        <time>2021-10-13T10:16:57Z</time>
      </trkpt>
      <trkpt lat="41.7896770" lon="-5.7428720">
        <ele>720.6</ele>
        <time>2021-10-13T10:16:58Z</time>
      </trkpt>
      <trkpt lat="41.7895150" lon="-5.7436060">
        <ele>720.4</ele>
        <time>2021-10-13T10:17:09Z</time>
      </trkpt>
      <trkpt lat="41.7894430" lon="-5.7439970">
        <ele>720.4</ele>
        <time>2021-10-13T10:17:14Z</time>
      </trkpt>
      <trkpt lat="41.7893640" lon="-5.7443910">
        <ele>720.6</ele>
        <time>2021-10-13T10:17:20Z</time>
      </trkpt>
      <trkpt lat="41.7893400" lon="-5.7445050">
        <ele>720.6</ele>
        <time>2021-10-13T10:17:21Z</time>
      </trkpt>
      <trkpt lat="41.7892580" lon="-5.7449270">
        <ele>721.0</ele>
        <time>2021-10-13T10:17:28Z</time>
      </trkpt>
      <trkpt lat="41.7892250" lon="-5.7450930">
        <ele>721.0</ele>
        <time>2021-10-13T10:17:31Z</time>
      </trkpt>
      <trkpt lat="41.7891570" lon="-5.7454410">
        <ele>721.0</ele>
        <time>2021-10-13T10:17:37Z</time>
      </trkpt>
      <trkpt lat="41.7890750" lon="-5.7458430">
        <ele>721.0</ele>
        <time>2021-10-13T10:17:44Z</time>
      </trkpt>
      <trkpt lat="41.7889670" lon="-5.7463780">
        <ele>721.6</ele>
        <time>2021-10-13T10:17:54Z</time>
      </trkpt>
      <trkpt lat="41.7888720" lon="-5.7468880">
        <ele>721.8</ele>
        <time>2021-10-13T10:18:03Z</time>
      </trkpt>
      <trkpt lat="41.7888030" lon="-5.7471800">
        <ele>721.8</ele>
        <time>2021-10-13T10:18:08Z</time>
      </trkpt>
      <trkpt lat="41.7887650" lon="-5.7472840">
        <ele>721.8</ele>
        <time>2021-10-13T10:18:10Z</time>
      </trkpt>
      <trkpt lat="41.7887080" lon="-5.7473820">
        <ele>721.8</ele>
        <time>2021-10-13T10:18:12Z</time>
      </trkpt>
      <trkpt lat="41.7886700" lon="-5.7474250">
        <ele>721.8</ele>
        <time>2021-10-13T10:18:13Z</time>
      </trkpt>
      <trkpt lat="41.7884390" lon="-5.7476100">
        <ele>721.6</ele>
        <time>2021-10-13T10:18:18Z</time>
      </trkpt>
      <trkpt lat="41.7881140" lon="-5.7478540">
        <ele>721.0</ele>
        <time>2021-10-13T10:18:24Z</time>
      </trkpt>
      <trkpt lat="41.7880020" lon="-5.7479440">
        <ele>720.6</ele>
        <time>2021-10-13T10:18:26Z</time>
      </trkpt>
      <trkpt lat="41.7876600" lon="-5.7482120">
        <ele>719.6</ele>
        <time>2021-10-13T10:18:32Z</time>
      </trkpt>
      <trkpt lat="41.7876010" lon="-5.7482580">
        <ele>719.4</ele>
        <time>2021-10-13T10:18:33Z</time>
      </trkpt>
      <trkpt lat="41.7875390" lon="-5.7483020">
        <ele>719.4</ele>
        <time>2021-10-13T10:18:34Z</time>
      </trkpt>
      <trkpt lat="41.7873010" lon="-5.7484790">
        <ele>718.4</ele>
        <time>2021-10-13T10:18:38Z</time>
      </trkpt>
      <trkpt lat="41.7870640" lon="-5.7486610">
        <ele>717.8</ele>
        <time>2021-10-13T10:18:42Z</time>
      </trkpt>
      <trkpt lat="41.7867170" lon="-5.7489250">
        <ele>717.2</ele>
        <time>2021-10-13T10:18:48Z</time>
      </trkpt>
      <trkpt lat="41.7866080" lon="-5.7490110">
        <ele>717.2</ele>
        <time>2021-10-13T10:18:50Z</time>
      </trkpt>
      <trkpt lat="41.7862040" lon="-5.7493160">
        <ele>716.4</ele>
        <time>2021-10-13T10:18:58Z</time>
      </trkpt>
      <trkpt lat="41.7861480" lon="-5.7493570">
        <ele>716.2</ele>
        <time>2021-10-13T10:18:59Z</time>
      </trkpt>
      <trkpt lat="41.7858880" lon="-5.7495530">
        <ele>716.2</ele>
        <time>2021-10-13T10:19:04Z</time>
      </trkpt>
      <trkpt lat="41.7856920" lon="-5.7496990">
        <ele>716.2</ele>
        <time>2021-10-13T10:19:08Z</time>
      </trkpt>
      <trkpt lat="41.7854190" lon="-5.7498990">
        <ele>716.2</ele>
        <time>2021-10-13T10:19:14Z</time>
      </trkpt>
      <trkpt lat="41.7853270" lon="-5.7499580">
        <ele>716.2</ele>
        <time>2021-10-13T10:19:16Z</time>
      </trkpt>
      <trkpt lat="41.7849120" lon="-5.7501780">
        <ele>715.2</ele>
        <time>2021-10-13T10:19:24Z</time>
      </trkpt>
      <trkpt lat="41.7846980" lon="-5.7502870">
        <ele>714.8</ele>
        <time>2021-10-13T10:19:28Z</time>
      </trkpt>
      <trkpt lat="41.7844430" lon="-5.7504290">
        <ele>714.8</ele>
        <time>2021-10-13T10:19:34Z</time>
      </trkpt>
      <trkpt lat="41.7839300" lon="-5.7507030">
        <ele>714.8</ele>
        <time>2021-10-13T10:19:43Z</time>
      </trkpt>
      <trkpt lat="41.7838800" lon="-5.7507310">
        <ele>714.8</ele>
        <time>2021-10-13T10:19:44Z</time>
      </trkpt>
      <trkpt lat="41.7833600" lon="-5.7510070">
        <ele>715.0</ele>
        <time>2021-10-13T10:19:54Z</time>
      </trkpt>
      <trkpt lat="41.7833090" lon="-5.7510330">
        <ele>715.2</ele>
        <time>2021-10-13T10:19:55Z</time>
      </trkpt>
      <trkpt lat="41.7827660" lon="-5.7513190">
        <ele>716.0</ele>
        <time>2021-10-13T10:20:06Z</time>
      </trkpt>
      <trkpt lat="41.7827160" lon="-5.7513460">
        <ele>716.2</ele>
        <time>2021-10-13T10:20:07Z</time>
      </trkpt>
      <trkpt lat="41.7822860" lon="-5.7515630">
        <ele>716.2</ele>
        <time>2021-10-13T10:20:15Z</time>
      </trkpt>
      <trkpt lat="41.7819520" lon="-5.7517480">
        <ele>715.6</ele>
        <time>2021-10-13T10:20:21Z</time>
      </trkpt>
      <trkpt lat="41.7819030" lon="-5.7517720">
        <ele>715.4</ele>
        <time>2021-10-13T10:20:22Z</time>
      </trkpt>
      <trkpt lat="41.7816080" lon="-5.7519330">
        <ele>716.2</ele>
        <time>2021-10-13T10:20:29Z</time>
      </trkpt>
      <trkpt lat="41.7812580" lon="-5.7521180">
        <ele>716.8</ele>
        <time>2021-10-13T10:20:37Z</time>
      </trkpt>
      <trkpt lat="41.7810250" lon="-5.7522370">
        <ele>716.4</ele>
        <time>2021-10-13T10:20:42Z</time>
      </trkpt>
      <trkpt lat="41.7808790" lon="-5.7523090">
        <ele>716.0</ele>
        <time>2021-10-13T10:20:45Z</time>
      </trkpt>
      <trkpt lat="41.7805670" lon="-5.7524800">
        <ele>715.6</ele>
        <time>2021-10-13T10:20:52Z</time>
      </trkpt>
      <trkpt lat="41.7804360" lon="-5.7525480">
        <ele>716.0</ele>
        <time>2021-10-13T10:20:55Z</time>
      </trkpt>
      <trkpt lat="41.7803930" lon="-5.7525720">
        <ele>716.0</ele>
        <time>2021-10-13T10:20:56Z</time>
      </trkpt>
      <trkpt lat="41.7803060" lon="-5.7526240">
        <ele>716.2</ele>
        <time>2021-10-13T10:20:58Z</time>
      </trkpt>
      <trkpt lat="41.7802610" lon="-5.7526460">
        <ele>716.4</ele>
        <time>2021-10-13T10:20:59Z</time>
      </trkpt>
      <trkpt lat="41.7801710" lon="-5.7526950">
        <ele>716.4</ele>
        <time>2021-10-13T10:21:01Z</time>
      </trkpt>
      <trkpt lat="41.7799850" lon="-5.7527890">
        <ele>716.6</ele>
        <time>2021-10-13T10:21:05Z</time>
      </trkpt>
      <trkpt lat="41.7798110" lon="-5.7528760">
        <ele>716.8</ele>
        <time>2021-10-13T10:21:09Z</time>
      </trkpt>
      <trkpt lat="41.7796880" lon="-5.7529410">
        <ele>717.0</ele>
        <time>2021-10-13T10:21:12Z</time>
      </trkpt>
      <trkpt lat="41.7795630" lon="-5.7530100">
        <ele>717.2</ele>
        <time>2021-10-13T10:21:15Z</time>
      </trkpt>
      <trkpt lat="41.7794370" lon="-5.7530760">
        <ele>717.4</ele>
        <time>2021-10-13T10:21:18Z</time>
      </trkpt>
      <trkpt lat="41.7793940" lon="-5.7531000">
        <ele>717.4</ele>
        <time>2021-10-13T10:21:19Z</time>
      </trkpt>
      <trkpt lat="41.7791820" lon="-5.7532260">
        <ele>717.4</ele>
        <time>2021-10-13T10:21:24Z</time>
      </trkpt>
      <trkpt lat="41.7789730" lon="-5.7533330">
        <ele>717.4</ele>
        <time>2021-10-13T10:21:29Z</time>
      </trkpt>
      <trkpt lat="41.7785580" lon="-5.7535550">
        <ele>716.8</ele>
        <time>2021-10-13T10:21:36Z</time>
      </trkpt>
      <trkpt lat="41.7784010" lon="-5.7536420">
        <ele>716.4</ele>
        <time>2021-10-13T10:21:39Z</time>
      </trkpt>
      <trkpt lat="41.7783490" lon="-5.7536680">
        <ele>716.2</ele>
        <time>2021-10-13T10:21:40Z</time>
      </trkpt>
      <trkpt lat="41.7780860" lon="-5.7538070">
        <ele>715.6</ele>
        <time>2021-10-13T10:21:45Z</time>
      </trkpt>
      <trkpt lat="41.7779340" lon="-5.7538830">
        <ele>715.4</ele>
        <time>2021-10-13T10:21:48Z</time>
      </trkpt>
      <trkpt lat="41.7778290" lon="-5.7539420">
        <ele>715.2</ele>
        <time>2021-10-13T10:21:50Z</time>
      </trkpt>
      <trkpt lat="41.7777770" lon="-5.7539710">
        <ele>715.2</ele>
        <time>2021-10-13T10:21:52Z</time>
      </trkpt>
      <trkpt lat="41.7774650" lon="-5.7541350">
        <ele>715.2</ele>
        <time>2021-10-13T10:21:57Z</time>
      </trkpt>
      <trkpt lat="41.7773760" lon="-5.7541790">
        <ele>715.6</ele>
        <time>2021-10-13T10:21:59Z</time>
      </trkpt>
      <trkpt lat="41.7773360" lon="-5.7542000">
        <ele>715.6</ele>
        <time>2021-10-13T10:22:00Z</time>
      </trkpt>
      <trkpt lat="41.7772630" lon="-5.7542420">
        <ele>716.2</ele>
        <time>2021-10-13T10:22:02Z</time>
      </trkpt>
      <trkpt lat="41.7770930" lon="-5.7543310">
        <ele>717.2</ele>
        <time>2021-10-13T10:22:07Z</time>
      </trkpt>
      <trkpt lat="41.7769900" lon="-5.7543820">
        <ele>717.2</ele>
        <time>2021-10-13T10:22:10Z</time>
      </trkpt>
      <trkpt lat="41.7768180" lon="-5.7544720">
        <ele>717.0</ele>
        <time>2021-10-13T10:22:14Z</time>
      </trkpt>
      <trkpt lat="41.7766200" lon="-5.7545720">
        <ele>716.8</ele>
        <time>2021-10-13T10:22:18Z</time>
      </trkpt>
      <trkpt lat="41.7764800" lon="-5.7546460">
        <ele>716.2</ele>
        <time>2021-10-13T10:22:21Z</time>
      </trkpt>
      <trkpt lat="41.7764330" lon="-5.7546680">
        <ele>716.2</ele>
        <time>2021-10-13T10:22:22Z</time>
      </trkpt>
      <trkpt lat="41.7762950" lon="-5.7547420">
        <ele>716.2</ele>
        <time>2021-10-13T10:22:25Z</time>
      </trkpt>
      <trkpt lat="41.7761580" lon="-5.7548210">
        <ele>716.0</ele>
        <time>2021-10-13T10:22:28Z</time>
      </trkpt>
      <trkpt lat="41.7760190" lon="-5.7548970">
        <ele>715.8</ele>
        <time>2021-10-13T10:22:31Z</time>
      </trkpt>
      <trkpt lat="41.7756570" lon="-5.7550930">
        <ele>715.4</ele>
        <time>2021-10-13T10:22:39Z</time>
      </trkpt>
      <trkpt lat="41.7756010" lon="-5.7551280">
        <ele>715.6</ele>
        <time>2021-10-13T10:22:40Z</time>
      </trkpt>
      <trkpt lat="41.7753500" lon="-5.7552890">
        <ele>715.8</ele>
        <time>2021-10-13T10:22:45Z</time>
      </trkpt>
      <trkpt lat="41.7750650" lon="-5.7554410">
        <ele>715.2</ele>
        <time>2021-10-13T10:22:51Z</time>
      </trkpt>
      <trkpt lat="41.7749230" lon="-5.7555140">
        <ele>715.2</ele>
        <time>2021-10-13T10:22:54Z</time>
      </trkpt>
      <trkpt lat="41.7747280" lon="-5.7556160">
        <ele>715.0</ele>
        <time>2021-10-13T10:22:58Z</time>
      </trkpt>
      <trkpt lat="41.7745860" lon="-5.7556930">
        <ele>714.8</ele>
        <time>2021-10-13T10:23:01Z</time>
      </trkpt>
      <trkpt lat="41.7744950" lon="-5.7557450">
        <ele>714.6</ele>
        <time>2021-10-13T10:23:03Z</time>
      </trkpt>
      <trkpt lat="41.7741350" lon="-5.7559310">
        <ele>714.4</ele>
        <time>2021-10-13T10:23:10Z</time>
      </trkpt>
      <trkpt lat="41.7740310" lon="-5.7559860">
        <ele>714.2</ele>
        <time>2021-10-13T10:23:12Z</time>
      </trkpt>
      <trkpt lat="41.7739790" lon="-5.7560120">
        <ele>714.0</ele>
        <time>2021-10-13T10:23:13Z</time>
      </trkpt>
      <trkpt lat="41.7736710" lon="-5.7561770">
        <ele>713.0</ele>
        <time>2021-10-13T10:23:19Z</time>
      </trkpt>
      <trkpt lat="41.7734630" lon="-5.7562880">
        <ele>712.8</ele>
        <time>2021-10-13T10:23:23Z</time>
      </trkpt>
      <trkpt lat="41.7730670" lon="-5.7564990">
        <ele>712.0</ele>
        <time>2021-10-13T10:23:30Z</time>
      </trkpt>
      <trkpt lat="41.7729060" lon="-5.7565870">
        <ele>711.4</ele>
        <time>2021-10-13T10:23:34Z</time>
      </trkpt>
      <trkpt lat="41.7724830" lon="-5.7568120">
        <ele>711.2</ele>
        <time>2021-10-13T10:23:41Z</time>
      </trkpt>
      <trkpt lat="41.7723170" lon="-5.7568980">
        <ele>711.4</ele>
        <time>2021-10-13T10:23:44Z</time>
      </trkpt>
      <trkpt lat="41.7721590" lon="-5.7569860">
        <ele>711.2</ele>
        <time>2021-10-13T10:23:48Z</time>
      </trkpt>
      <trkpt lat="41.7720600" lon="-5.7570380">
        <ele>710.8</ele>
        <time>2021-10-13T10:23:49Z</time>
      </trkpt>
      <trkpt lat="41.7717730" lon="-5.7571950">
        <ele>710.2</ele>
        <time>2021-10-13T10:23:55Z</time>
      </trkpt>
      <trkpt lat="41.7716840" lon="-5.7572440">
        <ele>710.2</ele>
        <time>2021-10-13T10:23:57Z</time>
      </trkpt>
      <trkpt lat="41.7713490" lon="-5.7574170">
        <ele>709.8</ele>
        <time>2021-10-13T10:24:03Z</time>
      </trkpt>
      <trkpt lat="41.7711360" lon="-5.7575290">
        <ele>709.6</ele>
        <time>2021-10-13T10:24:07Z</time>
      </trkpt>
      <trkpt lat="41.7707020" lon="-5.7577660">
        <ele>709.0</ele>
        <time>2021-10-13T10:24:14Z</time>
      </trkpt>
      <trkpt lat="41.7705810" lon="-5.7578290">
        <ele>708.6</ele>
        <time>2021-10-13T10:24:16Z</time>
      </trkpt>
      <trkpt lat="41.7702870" lon="-5.7579830">
        <ele>707.2</ele>
        <time>2021-10-13T10:24:21Z</time>
      </trkpt>
      <trkpt lat="41.7701480" lon="-5.7580590">
        <ele>707.2</ele>
        <time>2021-10-13T10:24:22Z</time>
      </trkpt>
      <trkpt lat="41.7700780" lon="-5.7580950">
        <ele>706.8</ele>
        <time>2021-10-13T10:24:23Z</time>
      </trkpt>
      <trkpt lat="41.7699400" lon="-5.7581640">
        <ele>706.2</ele>
        <time>2021-10-13T10:24:25Z</time>
      </trkpt>
      <trkpt lat="41.7697010" lon="-5.7583000">
        <ele>705.8</ele>
        <time>2021-10-13T10:24:29Z</time>
      </trkpt>
      <trkpt lat="41.7694530" lon="-5.7584320">
        <ele>705.6</ele>
        <time>2021-10-13T10:24:33Z</time>
      </trkpt>
      <trkpt lat="41.7693940" lon="-5.7584630">
        <ele>705.4</ele>
        <time>2021-10-13T10:24:34Z</time>
      </trkpt>
      <trkpt lat="41.7692520" lon="-5.7585390">
        <ele>705.0</ele>
        <time>2021-10-13T10:24:37Z</time>
      </trkpt>
      <trkpt lat="41.7691580" lon="-5.7586070">
        <ele>705.0</ele>
        <time>2021-10-13T10:24:41Z</time>
      </trkpt>
      <trkpt lat="41.7691030" lon="-5.7586820">
        <ele>704.8</ele>
        <time>2021-10-13T10:24:47Z</time>
      </trkpt>
      <trkpt lat="41.7691890" lon="-5.7588080">
        <ele>704.8</ele>
        <time>2021-10-13T10:25:06Z</time>
      </trkpt>
      <trkpt lat="41.7692300" lon="-5.7588480">
        <ele>704.8</ele>
        <time>2021-10-13T10:25:08Z</time>
      </trkpt>
      <trkpt lat="41.7693890" lon="-5.7589680">
        <ele>705.0</ele>
        <time>2021-10-13T10:25:13Z</time>
      </trkpt>
      <trkpt lat="41.7694270" lon="-5.7589940">
        <ele>705.0</ele>
        <time>2021-10-13T10:25:14Z</time>
      </trkpt>
      <trkpt lat="41.7696700" lon="-5.7591940">
        <ele>704.6</ele>
        <time>2021-10-13T10:25:20Z</time>
      </trkpt>
      <trkpt lat="41.7697700" lon="-5.7592700">
        <ele>704.2</ele>
        <time>2021-10-13T10:25:22Z</time>
      </trkpt>
      <trkpt lat="41.7699260" lon="-5.7593910">
        <ele>703.0</ele>
        <time>2021-10-13T10:25:25Z</time>
      </trkpt>
      <trkpt lat="41.7699760" lon="-5.7594350">
        <ele>702.4</ele>
        <time>2021-10-13T10:25:27Z</time>
      </trkpt>
      <trkpt lat="41.7701020" lon="-5.7595460">
        <ele>701.8</ele>
        <time>2021-10-13T10:25:29Z</time>
      </trkpt>
      <trkpt lat="41.7701410" lon="-5.7595880">
        <ele>701.6</ele>
        <time>2021-10-13T10:25:30Z</time>
      </trkpt>
      <trkpt lat="41.7702150" lon="-5.7596860">
        <ele>701.2</ele>
        <time>2021-10-13T10:25:32Z</time>
      </trkpt>
      <trkpt lat="41.7702450" lon="-5.7597400">
        <ele>701.2</ele>
        <time>2021-10-13T10:25:33Z</time>
      </trkpt>
      <trkpt lat="41.7702600" lon="-5.7598680">
        <ele>701.0</ele>
        <time>2021-10-13T10:25:35Z</time>
      </trkpt>
      <trkpt lat="41.7702450" lon="-5.7599220">
        <ele>700.6</ele>
        <time>2021-10-13T10:25:36Z</time>
      </trkpt>
      <trkpt lat="41.7702450" lon="-5.7599220">
        <ele>700.0</ele>
        <time>2021-10-13T10:25:39Z</time>
      </trkpt>
      <trkpt lat="41.7702110" lon="-5.7599590">
        <ele>699.4</ele>
        <time>2021-10-13T10:25:42Z</time>
      </trkpt>
      <trkpt lat="41.7701770" lon="-5.7599960">
        <ele>699.4</ele>
        <time>2021-10-13T10:25:44Z</time>
      </trkpt>
      <trkpt lat="41.7701430" lon="-5.7600330">
        <ele>699.4</ele>
        <time>2021-10-13T10:25:45Z</time>
      </trkpt>
      <trkpt lat="41.7698370" lon="-5.7603650">
        <ele>699.4</ele>
        <time>2021-10-13T10:25:48Z</time>
      </trkpt>
      <trkpt lat="41.7696030" lon="-5.7601560">
        <ele>699.4</ele>
        <time>2021-10-13T10:25:54Z</time>
      </trkpt>
      <trkpt lat="41.7694030" lon="-5.7599770">
        <ele>699.4</ele>
        <time>2021-10-13T10:25:59Z</time>
      </trkpt>
      <trkpt lat="41.7693300" lon="-5.7599060">
        <ele>699.4</ele>
        <time>2021-10-13T10:26:01Z</time>
      </trkpt>
      <trkpt lat="41.7692280" lon="-5.7598060">
        <ele>699.4</ele>
        <time>2021-10-13T10:26:04Z</time>
      </trkpt>
      <trkpt lat="41.7691360" lon="-5.7597220">
        <ele>699.6</ele>
        <time>2021-10-13T10:26:07Z</time>
      </trkpt>
      <trkpt lat="41.7690820" lon="-5.7596680">
        <ele>699.8</ele>
        <time>2021-10-13T10:26:09Z</time>
      </trkpt>
      <trkpt lat="41.7689430" lon="-5.7595350">
        <ele>700.6</ele>
        <time>2021-10-13T10:26:15Z</time>
      </trkpt>
      <trkpt lat="41.7687760" lon="-5.7593810">
        <ele>701.6</ele>
        <time>2021-10-13T10:26:22Z</time>
      </trkpt>
      <trkpt lat="41.7686960" lon="-5.7593080">
        <ele>701.8</ele>
        <time>2021-10-13T10:26:25Z</time>
      </trkpt>
      <trkpt lat="41.7685390" lon="-5.7591600">
        <ele>702.0</ele>
        <time>2021-10-13T10:26:30Z</time>
      </trkpt>
      <trkpt lat="41.7684700" lon="-5.7590950">
        <ele>702.0</ele>
        <time>2021-10-13T10:26:32Z</time>
      </trkpt>
      <trkpt lat="41.7684350" lon="-5.7590600">
        <ele>701.8</ele>
        <time>2021-10-13T10:26:33Z</time>
      </trkpt>
      <trkpt lat="41.7681820" lon="-5.7588450">
        <ele>701.2</ele>
        <time>2021-10-13T10:26:40Z</time>
      </trkpt>
      <trkpt lat="41.7681410" lon="-5.7588210">
        <ele>701.2</ele>
        <time>2021-10-13T10:26:41Z</time>
      </trkpt>
      <trkpt lat="41.7681020" lon="-5.7588070">
        <ele>701.2</ele>
        <time>2021-10-13T10:26:42Z</time>
      </trkpt>
      <trkpt lat="41.7680230" lon="-5.7588020">
        <ele>701.2</ele>
        <time>2021-10-13T10:26:44Z</time>
      </trkpt>
      <trkpt lat="41.7679860" lon="-5.7588090">
        <ele>701.4</ele>
        <time>2021-10-13T10:26:45Z</time>
      </trkpt>
      <trkpt lat="41.7678380" lon="-5.7589030">
        <ele>701.6</ele>
        <time>2021-10-13T10:26:50Z</time>
      </trkpt>
      <trkpt lat="41.7677360" lon="-5.7590890">
        <ele>701.8</ele>
        <time>2021-10-13T10:26:55Z</time>
      </trkpt>
      <trkpt lat="41.7677210" lon="-5.7591410">
        <ele>701.8</ele>
        <time>2021-10-13T10:26:56Z</time>
      </trkpt>
      <trkpt lat="41.7676780" lon="-5.7593070">
        <ele>701.8</ele>
        <time>2021-10-13T10:26:59Z</time>
      </trkpt>
      <trkpt lat="41.7676590" lon="-5.7593650">
        <ele>701.4</ele>
        <time>2021-10-13T10:27:00Z</time>
      </trkpt>
      <trkpt lat="41.7676330" lon="-5.7594150">
        <ele>701.4</ele>
        <time>2021-10-13T10:27:01Z</time>
      </trkpt>
      <trkpt lat="41.7675980" lon="-5.7594580">
        <ele>701.6</ele>
        <time>2021-10-13T10:27:02Z</time>
      </trkpt>
      <trkpt lat="41.7675110" lon="-5.7595080">
        <ele>701.6</ele>
        <time>2021-10-13T10:27:04Z</time>
      </trkpt>
      <trkpt lat="41.7674610" lon="-5.7595250">
        <ele>701.4</ele>
        <time>2021-10-13T10:27:05Z</time>
      </trkpt>
      <trkpt lat="41.7672230" lon="-5.7595810">
        <ele>701.2</ele>
        <time>2021-10-13T10:27:10Z</time>
      </trkpt>
      <trkpt lat="41.7670760" lon="-5.7596160">
        <ele>701.2</ele>
        <time>2021-10-13T10:27:13Z</time>
      </trkpt>
      <trkpt lat="41.7667450" lon="-5.7597090">
        <ele>701.4</ele>
        <time>2021-10-13T10:27:20Z</time>
      </trkpt>
      <trkpt lat="41.7665550" lon="-5.7597600">
        <ele>701.6</ele>
        <time>2021-10-13T10:27:24Z</time>
      </trkpt>
      <trkpt lat="41.7662620" lon="-5.7598300">
        <ele>701.8</ele>
        <time>2021-10-13T10:27:30Z</time>
      </trkpt>
      <trkpt lat="41.7657680" lon="-5.7599650">
        <ele>701.4</ele>
        <time>2021-10-13T10:27:40Z</time>
      </trkpt>
      <trkpt lat="41.7654310" lon="-5.7600570">
        <ele>700.8</ele>
        <time>2021-10-13T10:27:46Z</time>
      </trkpt>
      <trkpt lat="41.7653720" lon="-5.7600710">
        <ele>700.4</ele>
        <time>2021-10-13T10:27:47Z</time>
      </trkpt>
      <trkpt lat="41.7653120" lon="-5.7600890">
        <ele>700.4</ele>
        <time>2021-10-13T10:27:48Z</time>
      </trkpt>
      <trkpt lat="41.7650030" lon="-5.7601650">
        <ele>699.6</ele>
        <time>2021-10-13T10:27:53Z</time>
      </trkpt>
      <trkpt lat="41.7649590" lon="-5.7601770">
        <ele>699.6</ele>
        <time>2021-10-13T10:27:54Z</time>
      </trkpt>
      <trkpt lat="41.7649030" lon="-5.7601930">
        <ele>699.4</ele>
        <time>2021-10-13T10:27:55Z</time>
      </trkpt>
      <trkpt lat="41.7644280" lon="-5.7603190">
        <ele>698.4</ele>
        <time>2021-10-13T10:28:04Z</time>
      </trkpt>
      <trkpt lat="41.7640940" lon="-5.7604100">
        <ele>698.6</ele>
        <time>2021-10-13T10:28:11Z</time>
      </trkpt>
      <trkpt lat="41.7639230" lon="-5.7604590">
        <ele>699.4</ele>
        <time>2021-10-13T10:28:15Z</time>
      </trkpt>
      <trkpt lat="41.7636920" lon="-5.7605040">
        <ele>700.4</ele>
        <time>2021-10-13T10:28:21Z</time>
      </trkpt>
      <trkpt lat="41.7636570" lon="-5.7605090">
        <ele>700.6</ele>
        <time>2021-10-13T10:28:22Z</time>
      </trkpt>
      <trkpt lat="41.7635680" lon="-5.7604920">
        <ele>701.0</ele>
        <time>2021-10-13T10:28:25Z</time>
      </trkpt>
      <trkpt lat="41.7635410" lon="-5.7604840">
        <ele>701.0</ele>
        <time>2021-10-13T10:28:26Z</time>
      </trkpt>
      <trkpt lat="41.7634650" lon="-5.7604780">
        <ele>701.4</ele>
        <time>2021-10-13T10:28:29Z</time>
      </trkpt>
      <trkpt lat="41.7634310" lon="-5.7604820">
        <ele>701.8</ele>
        <time>2021-10-13T10:28:31Z</time>
      </trkpt>
      <trkpt lat="41.7633040" lon="-5.7604740">
        <ele>702.2</ele>
        <time>2021-10-13T10:28:36Z</time>
      </trkpt>
      <trkpt lat="41.7632170" lon="-5.7605210">
        <ele>702.0</ele>
        <time>2021-10-13T10:28:40Z</time>
      </trkpt>
      <trkpt lat="41.7632040" lon="-5.7605350">
        <ele>702.0</ele>
        <time>2021-10-13T10:28:41Z</time>
      </trkpt>
      <trkpt lat="41.7631960" lon="-5.7605530">
        <ele>702.0</ele>
        <time>2021-10-13T10:28:42Z</time>
      </trkpt>
      <trkpt lat="41.7632010" lon="-5.7606670">
        <ele>702.0</ele>
        <time>2021-10-13T10:28:45Z</time>
      </trkpt>
      <trkpt lat="41.7632340" lon="-5.7609150">
        <ele>702.0</ele>
        <time>2021-10-13T10:28:50Z</time>
      </trkpt>
      <trkpt lat="41.7632580" lon="-5.7611620">
        <ele>701.8</ele>
        <time>2021-10-13T10:28:54Z</time>
      </trkpt>
      <trkpt lat="41.7632680" lon="-5.7612330">
        <ele>701.6</ele>
        <time>2021-10-13T10:28:55Z</time>
      </trkpt>
      <trkpt lat="41.7632970" lon="-5.7614800">
        <ele>701.4</ele>
        <time>2021-10-13T10:28:58Z</time>
      </trkpt>
      <trkpt lat="41.7633180" lon="-5.7616700">
        <ele>701.0</ele>
        <time>2021-10-13T10:29:00Z</time>
      </trkpt>
      <trkpt lat="41.7633360" lon="-5.7618670">
        <ele>700.2</ele>
        <time>2021-10-13T10:29:02Z</time>
      </trkpt>
      <trkpt lat="41.7633590" lon="-5.7620660">
        <ele>699.0</ele>
        <time>2021-10-13T10:29:04Z</time>
      </trkpt>
      <trkpt lat="41.7633980" lon="-5.7623590">
        <ele>698.2</ele>
        <time>2021-10-13T10:29:07Z</time>
      </trkpt>
      <trkpt lat="41.7634090" lon="-5.7624550">
        <ele>697.4</ele>
        <time>2021-10-13T10:29:08Z</time>
      </trkpt>
      <trkpt lat="41.7634710" lon="-5.7629540">
        <ele>696.4</ele>
        <time>2021-10-13T10:29:14Z</time>
      </trkpt>
      <trkpt lat="41.7635140" lon="-5.7633040">
        <ele>696.6</ele>
        <time>2021-10-13T10:29:20Z</time>
      </trkpt>
      <trkpt lat="41.7635610" lon="-5.7637080">
        <ele>697.6</ele>
        <time>2021-10-13T10:29:28Z</time>
      </trkpt>
      <trkpt lat="41.7635580" lon="-5.7637550">
        <ele>697.8</ele>
        <time>2021-10-13T10:29:29Z</time>
      </trkpt>
      <trkpt lat="41.7634900" lon="-5.7638660">
        <ele>698.2</ele>
        <time>2021-10-13T10:29:32Z</time>
      </trkpt>
      <trkpt lat="41.7633180" lon="-5.7640120">
        <ele>698.6</ele>
        <time>2021-10-13T10:29:36Z</time>
      </trkpt>
      <trkpt lat="41.7631510" lon="-5.7641530">
        <ele>698.2</ele>
        <time>2021-10-13T10:29:40Z</time>
      </trkpt>
      <trkpt lat="41.7629900" lon="-5.7642730">
        <ele>698.0</ele>
        <time>2021-10-13T10:29:44Z</time>
      </trkpt>
      <trkpt lat="41.7628230" lon="-5.7643880">
        <ele>697.8</ele>
        <time>2021-10-13T10:29:48Z</time>
      </trkpt>
      <trkpt lat="41.7627040" lon="-5.7644450">
        <ele>697.8</ele>
        <time>2021-10-13T10:29:51Z</time>
      </trkpt>
      <trkpt lat="41.7626250" lon="-5.7644720">
        <ele>697.8</ele>
        <time>2021-10-13T10:29:53Z</time>
      </trkpt>
      <trkpt lat="41.7625490" lon="-5.7644860">
        <ele>697.8</ele>
        <time>2021-10-13T10:29:55Z</time>
      </trkpt>
      <trkpt lat="41.7624760" lon="-5.7644880">
        <ele>697.8</ele>
        <time>2021-10-13T10:29:57Z</time>
      </trkpt>
      <trkpt lat="41.7622630" lon="-5.7645570">
        <ele>697.6</ele>
        <time>2021-10-13T10:30:04Z</time>
      </trkpt>
      <trkpt lat="41.7621490" lon="-5.7646430">
        <ele>697.2</ele>
        <time>2021-10-13T10:30:09Z</time>
      </trkpt>
      <trkpt lat="41.7621490" lon="-5.7646430">
        <ele>697.0</ele>
        <time>2021-10-13T10:30:11Z</time>
      </trkpt>
      <trkpt lat="41.7621150" lon="-5.7646660">
        <ele>697.8</ele>
        <time>2021-10-13T10:30:42Z</time>
      </trkpt>
      <trkpt lat="41.7621030" lon="-5.7646880">
        <ele>697.8</ele>
        <time>2021-10-13T10:30:43Z</time>
      </trkpt>
      <trkpt lat="41.7620950" lon="-5.7647130">
        <ele>697.6</ele>
        <time>2021-10-13T10:30:44Z</time>
      </trkpt>
      <trkpt lat="41.7621030" lon="-5.7647600">
        <ele>697.4</ele>
        <time>2021-10-13T10:30:46Z</time>
      </trkpt>
      <trkpt lat="41.7621440" lon="-5.7648850">
        <ele>697.4</ele>
        <time>2021-10-13T10:30:52Z</time>
      </trkpt>
      <trkpt lat="41.7621890" lon="-5.7650190">
        <ele>698.4</ele>
        <time>2021-10-13T10:30:57Z</time>
      </trkpt>
      <trkpt lat="41.7622310" lon="-5.7650650">
        <ele>699.6</ele>
        <time>2021-10-13T10:31:00Z</time>
      </trkpt>
      <trkpt lat="41.7622530" lon="-5.7650650">
        <ele>699.6</ele>
        <time>2021-10-13T10:31:01Z</time>
      </trkpt>
      <trkpt lat="41.7622700" lon="-5.7650580">
        <ele>699.8</ele>
        <time>2021-10-13T10:31:02Z</time>
      </trkpt>
      <trkpt lat="41.7622940" lon="-5.7650300">
        <ele>699.8</ele>
        <time>2021-10-13T10:31:05Z</time>
      </trkpt>
      <trkpt lat="41.7622940" lon="-5.7650300">
        <ele>700.0</ele>
        <time>2021-10-13T10:31:07Z</time>
      </trkpt>
      <trkpt lat="41.7622430" lon="-5.7648690">
        <ele>702.8</ele>
        <time>2021-10-13T10:54:54Z</time>
      </trkpt>
      <trkpt lat="41.7622190" lon="-5.7648490">
        <ele>702.8</ele>
        <time>2021-10-13T10:54:55Z</time>
      </trkpt>
      <trkpt lat="41.7620960" lon="-5.7647010">
        <ele>702.2</ele>
        <time>2021-10-13T10:55:00Z</time>
      </trkpt>
      <trkpt lat="41.7620870" lon="-5.7646740">
        <ele>701.6</ele>
        <time>2021-10-13T10:55:01Z</time>
      </trkpt>
      <trkpt lat="41.7620810" lon="-5.7646470">
        <ele>700.8</ele>
        <time>2021-10-13T10:55:03Z</time>
      </trkpt>
      <trkpt lat="41.7620760" lon="-5.7646390">
        <ele>700.6</ele>
        <time>2021-10-13T10:55:04Z</time>
      </trkpt>
      <trkpt lat="41.7620700" lon="-5.7646340">
        <ele>700.4</ele>
        <time>2021-10-13T10:55:05Z</time>
      </trkpt>
      <trkpt lat="41.7620670" lon="-5.7646350">
        <ele>699.4</ele>
        <time>2021-10-13T10:55:08Z</time>
      </trkpt>
      <trkpt lat="41.7620210" lon="-5.7646470">
        <ele>698.6</ele>
        <time>2021-10-13T10:55:26Z</time>
      </trkpt>
      <trkpt lat="41.7619930" lon="-5.7646600">
        <ele>698.6</ele>
        <time>2021-10-13T10:55:27Z</time>
      </trkpt>
      <trkpt lat="41.7617820" lon="-5.7647360">
        <ele>698.8</ele>
        <time>2021-10-13T10:55:33Z</time>
      </trkpt>
      <trkpt lat="41.7617400" lon="-5.7647470">
        <ele>698.8</ele>
        <time>2021-10-13T10:55:34Z</time>
      </trkpt>
      <trkpt lat="41.7615500" lon="-5.7647960">
        <ele>698.8</ele>
        <time>2021-10-13T10:55:38Z</time>
      </trkpt>
      <trkpt lat="41.7615130" lon="-5.7647980">
        <ele>698.6</ele>
        <time>2021-10-13T10:55:39Z</time>
      </trkpt>
      <trkpt lat="41.7614180" lon="-5.7647820">
        <ele>698.2</ele>
        <time>2021-10-13T10:55:41Z</time>
      </trkpt>
      <trkpt lat="41.7613720" lon="-5.7647760">
        <ele>698.0</ele>
        <time>2021-10-13T10:55:42Z</time>
      </trkpt>
      <trkpt lat="41.7610600" lon="-5.7647900">
        <ele>697.4</ele>
        <time>2021-10-13T10:55:49Z</time>
      </trkpt>
      <trkpt lat="41.7609380" lon="-5.7647970">
        <ele>697.6</ele>
        <time>2021-10-13T10:55:52Z</time>
      </trkpt>
      <trkpt lat="41.7608610" lon="-5.7648010">
        <ele>697.6</ele>
        <time>2021-10-13T10:55:54Z</time>
      </trkpt>
      <trkpt lat="41.7608210" lon="-5.7648040">
        <ele>697.6</ele>
        <time>2021-10-13T10:55:55Z</time>
      </trkpt>
      <trkpt lat="41.7607090" lon="-5.7647930">
        <ele>697.8</ele>
        <time>2021-10-13T10:55:58Z</time>
      </trkpt>
      <trkpt lat="41.7606110" lon="-5.7647890">
        <ele>698.0</ele>
        <time>2021-10-13T10:56:01Z</time>
      </trkpt>
      <trkpt lat="41.7605770" lon="-5.7647850">
        <ele>698.0</ele>
        <time>2021-10-13T10:56:02Z</time>
      </trkpt>
      <trkpt lat="41.7604300" lon="-5.7647810">
        <ele>698.8</ele>
        <time>2021-10-13T10:56:07Z</time>
      </trkpt>
      <trkpt lat="41.7602890" lon="-5.7647930">
        <ele>699.0</ele>
        <time>2021-10-13T10:56:12Z</time>
      </trkpt>
      <trkpt lat="41.7602050" lon="-5.7647910">
        <ele>699.0</ele>
        <time>2021-10-13T10:56:15Z</time>
      </trkpt>
      <trkpt lat="41.7599470" lon="-5.7648020">
        <ele>699.0</ele>
        <time>2021-10-13T10:56:23Z</time>
      </trkpt>
      <trkpt lat="41.7596840" lon="-5.7648070">
        <ele>699.0</ele>
        <time>2021-10-13T10:56:30Z</time>
      </trkpt>
      <trkpt lat="41.7593290" lon="-5.7648010">
        <ele>699.4</ele>
        <time>2021-10-13T10:56:40Z</time>
      </trkpt>
      <trkpt lat="41.7591740" lon="-5.7648160">
        <ele>699.8</ele>
        <time>2021-10-13T10:56:45Z</time>
      </trkpt>
      <trkpt lat="41.7589200" lon="-5.7648440">
        <ele>700.0</ele>
        <time>2021-10-13T10:56:52Z</time>
      </trkpt>
      <trkpt lat="41.7587360" lon="-5.7648680">
        <ele>700.0</ele>
        <time>2021-10-13T10:56:58Z</time>
      </trkpt>
      <trkpt lat="41.7586510" lon="-5.7649220">
        <ele>700.4</ele>
        <time>2021-10-13T10:57:02Z</time>
      </trkpt>
      <trkpt lat="41.7586070" lon="-5.7649590">
        <ele>700.4</ele>
        <time>2021-10-13T10:57:04Z</time>
      </trkpt>
      <trkpt lat="41.7584210" lon="-5.7651940">
        <ele>701.0</ele>
        <time>2021-10-13T10:57:14Z</time>
      </trkpt>
      <trkpt lat="41.7582810" lon="-5.7654610">
        <ele>701.0</ele>
        <time>2021-10-13T10:57:22Z</time>
      </trkpt>
      <trkpt lat="41.7581040" lon="-5.7658100">
        <ele>701.0</ele>
        <time>2021-10-13T10:57:31Z</time>
      </trkpt>
      <trkpt lat="41.7580040" lon="-5.7659970">
        <ele>701.4</ele>
        <time>2021-10-13T10:57:36Z</time>
      </trkpt>
      <trkpt lat="41.7579090" lon="-5.7661680">
        <ele>701.6</ele>
        <time>2021-10-13T10:57:41Z</time>
      </trkpt>
      <trkpt lat="41.7577060" lon="-5.7665520">
        <ele>701.6</ele>
        <time>2021-10-13T10:57:51Z</time>
      </trkpt>
      <trkpt lat="41.7576050" lon="-5.7667420">
        <ele>701.6</ele>
        <time>2021-10-13T10:57:56Z</time>
      </trkpt>
      <trkpt lat="41.7575150" lon="-5.7669100">
        <ele>701.6</ele>
        <time>2021-10-13T10:58:00Z</time>
      </trkpt>
      <trkpt lat="41.7574940" lon="-5.7669540">
        <ele>701.6</ele>
        <time>2021-10-13T10:58:01Z</time>
      </trkpt>
      <trkpt lat="41.7573230" lon="-5.7672800">
        <ele>701.4</ele>
        <time>2021-10-13T10:58:09Z</time>
      </trkpt>
      <trkpt lat="41.7572800" lon="-5.7673560">
        <ele>701.4</ele>
        <time>2021-10-13T10:58:11Z</time>
      </trkpt>
      <trkpt lat="41.7571980" lon="-5.7675610">
        <ele>701.2</ele>
        <time>2021-10-13T10:58:16Z</time>
      </trkpt>
      <trkpt lat="41.7571930" lon="-5.7675990">
        <ele>701.2</ele>
        <time>2021-10-13T10:58:17Z</time>
      </trkpt>
      <trkpt lat="41.7571850" lon="-5.7677320">
        <ele>701.2</ele>
        <time>2021-10-13T10:58:22Z</time>
      </trkpt>
      <trkpt lat="41.7571700" lon="-5.7677850">
        <ele>701.6</ele>
        <time>2021-10-13T10:58:28Z</time>
      </trkpt>
      <trkpt lat="41.7571460" lon="-5.7677550">
        <ele>702.0</ele>
        <time>2021-10-13T10:58:51Z</time>
      </trkpt>
      <trkpt lat="41.7571400" lon="-5.7677340">
        <ele>702.0</ele>
        <time>2021-10-13T10:58:52Z</time>
      </trkpt>
      <trkpt lat="41.7571370" lon="-5.7677110">
        <ele>702.0</ele>
        <time>2021-10-13T10:58:53Z</time>
      </trkpt>
      <trkpt lat="41.7571450" lon="-5.7676440">
        <ele>702.0</ele>
        <time>2021-10-13T10:58:56Z</time>
      </trkpt>
      <trkpt lat="41.7571550" lon="-5.7675520">
        <ele>701.4</ele>
        <time>2021-10-13T10:59:00Z</time>
      </trkpt>
      <trkpt lat="41.7571470" lon="-5.7675280">
        <ele>701.4</ele>
        <time>2021-10-13T10:59:01Z</time>
      </trkpt>
      <trkpt lat="41.7571130" lon="-5.7675070">
        <ele>701.2</ele>
        <time>2021-10-13T10:59:03Z</time>
      </trkpt>
      <trkpt lat="41.7570940" lon="-5.7675120">
        <ele>701.2</ele>
        <time>2021-10-13T10:59:04Z</time>
      </trkpt>
      <trkpt lat="41.7570740" lon="-5.7675340">
        <ele>701.0</ele>
        <time>2021-10-13T10:59:08Z</time>
      </trkpt>
      <trkpt lat="41.7570200" lon="-5.7675930">
        <ele>702.2</ele>
        <time>2021-10-13T11:00:43Z</time>
      </trkpt>
      <trkpt lat="41.7568420" lon="-5.7676230">
        <ele>702.0</ele>
        <time>2021-10-13T11:00:48Z</time>
      </trkpt>
      <trkpt lat="41.7567180" lon="-5.7676270">
        <ele>702.2</ele>
        <time>2021-10-13T11:00:51Z</time>
      </trkpt>
      <trkpt lat="41.7565120" lon="-5.7676390">
        <ele>702.2</ele>
        <time>2021-10-13T11:00:56Z</time>
      </trkpt>
      <trkpt lat="41.7561830" lon="-5.7676490">
        <ele>702.4</ele>
        <time>2021-10-13T11:01:03Z</time>
      </trkpt>
      <trkpt lat="41.7560550" lon="-5.7676540">
        <ele>702.2</ele>
        <time>2021-10-13T11:01:06Z</time>
      </trkpt>
      <trkpt lat="41.7559890" lon="-5.7676590">
        <ele>702.2</ele>
        <time>2021-10-13T11:01:09Z</time>
      </trkpt>
      <trkpt lat="41.7558600" lon="-5.7676670">
        <ele>702.2</ele>
        <time>2021-10-13T11:01:16Z</time>
      </trkpt>
      <trkpt lat="41.7556570" lon="-5.7676780">
        <ele>702.2</ele>
        <time>2021-10-13T11:01:21Z</time>
      </trkpt>
      <trkpt lat="41.7555340" lon="-5.7676820">
        <ele>702.2</ele>
        <time>2021-10-13T11:01:24Z</time>
      </trkpt>
      <trkpt lat="41.7554540" lon="-5.7676800">
        <ele>702.0</ele>
        <time>2021-10-13T11:01:26Z</time>
      </trkpt>
      <trkpt lat="41.7554150" lon="-5.7676820">
        <ele>702.0</ele>
        <time>2021-10-13T11:01:27Z</time>
      </trkpt>
      <trkpt lat="41.7551060" lon="-5.7677010">
        <ele>702.2</ele>
        <time>2021-10-13T11:01:36Z</time>
      </trkpt>
      <trkpt lat="41.7551060" lon="-5.7677010">
        <ele>702.0</ele>
        <time>2021-10-13T11:01:38Z</time>
      </trkpt>
      <trkpt lat="41.7550280" lon="-5.7677230">
        <ele>701.4</ele>
        <time>2021-10-13T11:01:43Z</time>
      </trkpt>
      <trkpt lat="41.7548600" lon="-5.7677980">
        <ele>701.0</ele>
        <time>2021-10-13T11:01:47Z</time>
      </trkpt>
      <trkpt lat="41.7548160" lon="-5.7678370">
        <ele>701.0</ele>
        <time>2021-10-13T11:01:48Z</time>
      </trkpt>
      <trkpt lat="41.7547440" lon="-5.7679510">
        <ele>700.8</ele>
        <time>2021-10-13T11:01:50Z</time>
      </trkpt>
      <trkpt lat="41.7546990" lon="-5.7680860">
        <ele>700.6</ele>
        <time>2021-10-13T11:01:52Z</time>
      </trkpt>
      <trkpt lat="41.7546900" lon="-5.7681600">
        <ele>700.2</ele>
        <time>2021-10-13T11:01:53Z</time>
      </trkpt>
      <trkpt lat="41.7546900" lon="-5.7682410">
        <ele>700.0</ele>
        <time>2021-10-13T11:01:54Z</time>
      </trkpt>
      <trkpt lat="41.7546970" lon="-5.7684100">
        <ele>698.6</ele>
        <time>2021-10-13T11:01:56Z</time>
      </trkpt>
      <trkpt lat="41.7547030" lon="-5.7685020">
        <ele>698.0</ele>
        <time>2021-10-13T11:01:58Z</time>
      </trkpt>
      <trkpt lat="41.7547300" lon="-5.7687850">
        <ele>697.6</ele>
        <time>2021-10-13T11:02:00Z</time>
      </trkpt>
      <trkpt lat="41.7547330" lon="-5.7688780">
        <ele>697.4</ele>
        <time>2021-10-13T11:02:01Z</time>
      </trkpt>
      <trkpt lat="41.7547290" lon="-5.7689980">
        <ele>697.2</ele>
        <time>2021-10-13T11:02:02Z</time>
      </trkpt>
      <trkpt lat="41.7547240" lon="-5.7691170">
        <ele>696.2</ele>
        <time>2021-10-13T11:02:04Z</time>
      </trkpt>
      <trkpt lat="41.7547120" lon="-5.7692340">
        <ele>695.6</ele>
        <time>2021-10-13T11:02:06Z</time>
      </trkpt>
      <trkpt lat="41.7546960" lon="-5.7692820">
        <ele>694.8</ele>
        <time>2021-10-13T11:02:07Z</time>
      </trkpt>
      <trkpt lat="41.7546230" lon="-5.7693760">
        <ele>694.2</ele>
        <time>2021-10-13T11:02:10Z</time>
      </trkpt>
      <trkpt lat="41.7545970" lon="-5.7694060">
        <ele>693.8</ele>
        <time>2021-10-13T11:02:11Z</time>
      </trkpt>
      <trkpt lat="41.7545370" lon="-5.7694860">
        <ele>693.4</ele>
        <time>2021-10-13T11:02:13Z</time>
      </trkpt>
      <trkpt lat="41.7544550" lon="-5.7695550">
        <ele>693.6</ele>
        <time>2021-10-13T11:02:15Z</time>
      </trkpt>
      <trkpt lat="41.7543590" lon="-5.7696130">
        <ele>693.4</ele>
        <time>2021-10-13T11:02:17Z</time>
      </trkpt>
      <trkpt lat="41.7540970" lon="-5.7697310">
        <ele>693.2</ele>
        <time>2021-10-13T11:02:22Z</time>
      </trkpt>
      <trkpt lat="41.7538860" lon="-5.7698210">
        <ele>692.8</ele>
        <time>2021-10-13T11:02:26Z</time>
      </trkpt>
      <trkpt lat="41.7536360" lon="-5.7699220">
        <ele>692.4</ele>
        <time>2021-10-13T11:02:31Z</time>
      </trkpt>
      <trkpt lat="41.7533230" lon="-5.7700640">
        <ele>692.4</ele>
        <time>2021-10-13T11:02:37Z</time>
      </trkpt>
      <trkpt lat="41.7530600" lon="-5.7701830">
        <ele>693.0</ele>
        <time>2021-10-13T11:02:42Z</time>
      </trkpt>
      <trkpt lat="41.7528570" lon="-5.7702750">
        <ele>693.8</ele>
        <time>2021-10-13T11:02:46Z</time>
      </trkpt>
      <trkpt lat="41.7527600" lon="-5.7703180">
        <ele>694.0</ele>
        <time>2021-10-13T11:02:48Z</time>
      </trkpt>
      <trkpt lat="41.7525690" lon="-5.7704040">
        <ele>694.4</ele>
        <time>2021-10-13T11:02:52Z</time>
      </trkpt>
      <trkpt lat="41.7524350" lon="-5.7704630">
        <ele>695.0</ele>
        <time>2021-10-13T11:02:55Z</time>
      </trkpt>
      <trkpt lat="41.7523920" lon="-5.7704830">
        <ele>695.0</ele>
        <time>2021-10-13T11:02:56Z</time>
      </trkpt>
      <trkpt lat="41.7522680" lon="-5.7705410">
        <ele>695.6</ele>
        <time>2021-10-13T11:02:59Z</time>
      </trkpt>
      <trkpt lat="41.7521120" lon="-5.7706150">
        <ele>696.2</ele>
        <time>2021-10-13T11:03:03Z</time>
      </trkpt>
      <trkpt lat="41.7519200" lon="-5.7707010">
        <ele>697.2</ele>
        <time>2021-10-13T11:03:08Z</time>
      </trkpt>
      <trkpt lat="41.7517800" lon="-5.7707630">
        <ele>697.6</ele>
        <time>2021-10-13T11:03:12Z</time>
      </trkpt>
      <trkpt lat="41.7516800" lon="-5.7708100">
        <ele>697.8</ele>
        <time>2021-10-13T11:03:15Z</time>
      </trkpt>
      <trkpt lat="41.7515810" lon="-5.7708570">
        <ele>697.8</ele>
        <time>2021-10-13T11:03:18Z</time>
      </trkpt>
      <trkpt lat="41.7515130" lon="-5.7708850">
        <ele>698.6</ele>
        <time>2021-10-13T11:03:20Z</time>
      </trkpt>
      <trkpt lat="41.7514130" lon="-5.7709280">
        <ele>699.0</ele>
        <time>2021-10-13T11:03:23Z</time>
      </trkpt>
      <trkpt lat="41.7512280" lon="-5.7710030">
        <ele>699.2</ele>
        <time>2021-10-13T11:03:29Z</time>
      </trkpt>
      <trkpt lat="41.7511710" lon="-5.7710270">
        <ele>699.4</ele>
        <time>2021-10-13T11:03:31Z</time>
      </trkpt>
      <trkpt lat="41.7510720" lon="-5.7710740">
        <ele>699.8</ele>
        <time>2021-10-13T11:03:35Z</time>
      </trkpt>
      <trkpt lat="41.7510280" lon="-5.7710970">
        <ele>700.0</ele>
        <time>2021-10-13T11:03:37Z</time>
      </trkpt>
      <trkpt lat="41.7510000" lon="-5.7711130">
        <ele>700.0</ele>
        <time>2021-10-13T11:03:39Z</time>
      </trkpt>
      <trkpt lat="41.7509720" lon="-5.7711280">
        <ele>700.0</ele>
        <time>2021-10-13T11:03:43Z</time>
      </trkpt>
      <trkpt lat="41.7509150" lon="-5.7711400">
        <ele>700.4</ele>
        <time>2021-10-13T11:05:00Z</time>
      </trkpt>
      <trkpt lat="41.7508870" lon="-5.7711450">
        <ele>700.4</ele>
        <time>2021-10-13T11:05:01Z</time>
      </trkpt>
      <trkpt lat="41.7508000" lon="-5.7711920">
        <ele>700.2</ele>
        <time>2021-10-13T11:05:04Z</time>
      </trkpt>
      <trkpt lat="41.7506510" lon="-5.7712630">
        <ele>700.0</ele>
        <time>2021-10-13T11:05:08Z</time>
      </trkpt>
      <trkpt lat="41.7505200" lon="-5.7713180">
        <ele>700.0</ele>
        <time>2021-10-13T11:05:11Z</time>
      </trkpt>
      <trkpt lat="41.7503980" lon="-5.7713760">
        <ele>700.0</ele>
        <time>2021-10-13T11:05:14Z</time>
      </trkpt>
      <trkpt lat="41.7502530" lon="-5.7714430">
        <ele>700.4</ele>
        <time>2021-10-13T11:05:17Z</time>
      </trkpt>
      <trkpt lat="41.7501500" lon="-5.7714880">
        <ele>700.0</ele>
        <time>2021-10-13T11:05:19Z</time>
      </trkpt>
      <trkpt lat="41.7499790" lon="-5.7715630">
        <ele>700.2</ele>
        <time>2021-10-13T11:05:22Z</time>
      </trkpt>
      <trkpt lat="41.7498170" lon="-5.7716400">
        <ele>700.0</ele>
        <time>2021-10-13T11:05:25Z</time>
      </trkpt>
      <trkpt lat="41.7497600" lon="-5.7716650">
        <ele>700.2</ele>
        <time>2021-10-13T11:05:26Z</time>
      </trkpt>
      <trkpt lat="41.7496570" lon="-5.7717100">
        <ele>700.2</ele>
        <time>2021-10-13T11:05:28Z</time>
      </trkpt>
      <trkpt lat="41.7494680" lon="-5.7717870">
        <ele>700.0</ele>
        <time>2021-10-13T11:05:31Z</time>
      </trkpt>
      <trkpt lat="41.7493040" lon="-5.7718630">
        <ele>700.2</ele>
        <time>2021-10-13T11:05:34Z</time>
      </trkpt>
      <trkpt lat="41.7492320" lon="-5.7718960">
        <ele>700.4</ele>
        <time>2021-10-13T11:05:35Z</time>
      </trkpt>
      <trkpt lat="41.7487720" lon="-5.7721050">
        <ele>700.4</ele>
        <time>2021-10-13T11:05:43Z</time>
      </trkpt>
      <trkpt lat="41.7482630" lon="-5.7723470">
        <ele>701.0</ele>
        <time>2021-10-13T11:05:52Z</time>
      </trkpt>
      <trkpt lat="41.7481410" lon="-5.7724010">
        <ele>701.2</ele>
        <time>2021-10-13T11:05:54Z</time>
      </trkpt>
      <trkpt lat="41.7480310" lon="-5.7724490">
        <ele>701.4</ele>
        <time>2021-10-13T11:05:56Z</time>
      </trkpt>
      <trkpt lat="41.7477660" lon="-5.7725640">
        <ele>701.8</ele>
        <time>2021-10-13T11:06:01Z</time>
      </trkpt>
      <trkpt lat="41.7475380" lon="-5.7726690">
        <ele>702.2</ele>
        <time>2021-10-13T11:06:05Z</time>
      </trkpt>
      <trkpt lat="41.7470510" lon="-5.7728880">
        <ele>702.6</ele>
        <time>2021-10-13T11:06:14Z</time>
      </trkpt>
      <trkpt lat="41.7465400" lon="-5.7731140">
        <ele>702.6</ele>
        <time>2021-10-13T11:06:23Z</time>
      </trkpt>
      <trkpt lat="41.7464260" lon="-5.7731650">
        <ele>702.6</ele>
        <time>2021-10-13T11:06:25Z</time>
      </trkpt>
      <trkpt lat="41.7463700" lon="-5.7731910">
        <ele>702.8</ele>
        <time>2021-10-13T11:06:26Z</time>
      </trkpt>
      <trkpt lat="41.7462550" lon="-5.7732400">
        <ele>702.8</ele>
        <time>2021-10-13T11:06:28Z</time>
      </trkpt>
      <trkpt lat="41.7460870" lon="-5.7733150">
        <ele>702.8</ele>
        <time>2021-10-13T11:06:31Z</time>
      </trkpt>
      <trkpt lat="41.7456410" lon="-5.7735160">
        <ele>702.6</ele>
        <time>2021-10-13T11:06:39Z</time>
      </trkpt>
      <trkpt lat="41.7451190" lon="-5.7737490">
        <ele>702.6</ele>
        <time>2021-10-13T11:06:48Z</time>
      </trkpt>
      <trkpt lat="41.7449610" lon="-5.7738190">
        <ele>702.6</ele>
        <time>2021-10-13T11:06:51Z</time>
      </trkpt>
      <trkpt lat="41.7444340" lon="-5.7740520">
        <ele>702.4</ele>
        <time>2021-10-13T11:07:00Z</time>
      </trkpt>
      <trkpt lat="41.7442760" lon="-5.7741240">
        <ele>702.6</ele>
        <time>2021-10-13T11:07:03Z</time>
      </trkpt>
      <trkpt lat="41.7441500" lon="-5.7741790">
        <ele>702.6</ele>
        <time>2021-10-13T11:07:05Z</time>
      </trkpt>
      <trkpt lat="41.7439220" lon="-5.7742830">
        <ele>702.6</ele>
        <time>2021-10-13T11:07:09Z</time>
      </trkpt>
      <trkpt lat="41.7438130" lon="-5.7743390">
        <ele>702.6</ele>
        <time>2021-10-13T11:07:11Z</time>
      </trkpt>
      <trkpt lat="41.7432760" lon="-5.7745810">
        <ele>703.0</ele>
        <time>2021-10-13T11:07:21Z</time>
      </trkpt>
      <trkpt lat="41.7427920" lon="-5.7748070">
        <ele>702.8</ele>
        <time>2021-10-13T11:07:30Z</time>
      </trkpt>
      <trkpt lat="41.7427380" lon="-5.7748310">
        <ele>702.8</ele>
        <time>2021-10-13T11:07:31Z</time>
      </trkpt>
      <trkpt lat="41.7426830" lon="-5.7748550">
        <ele>702.8</ele>
        <time>2021-10-13T11:07:32Z</time>
      </trkpt>
      <trkpt lat="41.7422040" lon="-5.7750720">
        <ele>702.8</ele>
        <time>2021-10-13T11:07:41Z</time>
      </trkpt>
      <trkpt lat="41.7420970" lon="-5.7751190">
        <ele>702.8</ele>
        <time>2021-10-13T11:07:43Z</time>
      </trkpt>
      <trkpt lat="41.7419380" lon="-5.7751940">
        <ele>702.8</ele>
        <time>2021-10-13T11:07:46Z</time>
      </trkpt>
      <trkpt lat="41.7418180" lon="-5.7752450">
        <ele>703.0</ele>
        <time>2021-10-13T11:07:48Z</time>
      </trkpt>
      <trkpt lat="41.7416100" lon="-5.7753340">
        <ele>703.0</ele>
        <time>2021-10-13T11:07:52Z</time>
      </trkpt>
      <trkpt lat="41.7415000" lon="-5.7753810">
        <ele>702.8</ele>
        <time>2021-10-13T11:07:54Z</time>
      </trkpt>
      <trkpt lat="41.7413940" lon="-5.7754330">
        <ele>702.4</ele>
        <time>2021-10-13T11:07:56Z</time>
      </trkpt>
      <trkpt lat="41.7412790" lon="-5.7754840">
        <ele>702.2</ele>
        <time>2021-10-13T11:07:58Z</time>
      </trkpt>
      <trkpt lat="41.7411300" lon="-5.7755450">
        <ele>702.2</ele>
        <time>2021-10-13T11:08:01Z</time>
      </trkpt>
      <trkpt lat="41.7410190" lon="-5.7756000">
        <ele>702.2</ele>
        <time>2021-10-13T11:08:03Z</time>
      </trkpt>
      <trkpt lat="41.7406080" lon="-5.7757810">
        <ele>702.4</ele>
        <time>2021-10-13T11:08:11Z</time>
      </trkpt>
      <trkpt lat="41.7404380" lon="-5.7758580">
        <ele>702.4</ele>
        <time>2021-10-13T11:08:14Z</time>
      </trkpt>
      <trkpt lat="41.7403460" lon="-5.7758970">
        <ele>702.4</ele>
        <time>2021-10-13T11:08:16Z</time>
      </trkpt>
      <trkpt lat="41.7401920" lon="-5.7759630">
        <ele>702.6</ele>
        <time>2021-10-13T11:08:19Z</time>
      </trkpt>
      <trkpt lat="41.7401420" lon="-5.7759850">
        <ele>702.8</ele>
        <time>2021-10-13T11:08:20Z</time>
      </trkpt>
      <trkpt lat="41.7400290" lon="-5.7760360">
        <ele>703.0</ele>
        <time>2021-10-13T11:08:22Z</time>
      </trkpt>
      <trkpt lat="41.7395120" lon="-5.7762710">
        <ele>703.0</ele>
        <time>2021-10-13T11:08:32Z</time>
      </trkpt>
      <trkpt lat="41.7391550" lon="-5.7764340">
        <ele>702.8</ele>
        <time>2021-10-13T11:08:39Z</time>
      </trkpt>
      <trkpt lat="41.7390490" lon="-5.7764810">
        <ele>702.8</ele>
        <time>2021-10-13T11:08:41Z</time>
      </trkpt>
      <trkpt lat="41.7389360" lon="-5.7765300">
        <ele>702.8</ele>
        <time>2021-10-13T11:08:43Z</time>
      </trkpt>
      <trkpt lat="41.7388450" lon="-5.7765680">
        <ele>703.0</ele>
        <time>2021-10-13T11:08:45Z</time>
      </trkpt>
      <trkpt lat="41.7387360" lon="-5.7766190">
        <ele>703.0</ele>
        <time>2021-10-13T11:08:47Z</time>
      </trkpt>
      <trkpt lat="41.7383990" lon="-5.7767740">
        <ele>703.2</ele>
        <time>2021-10-13T11:08:54Z</time>
      </trkpt>
      <trkpt lat="41.7381970" lon="-5.7768670">
        <ele>702.8</ele>
        <time>2021-10-13T11:08:58Z</time>
      </trkpt>
      <trkpt lat="41.7377880" lon="-5.7770520">
        <ele>702.6</ele>
        <time>2021-10-13T11:09:06Z</time>
      </trkpt>
      <trkpt lat="41.7375350" lon="-5.7771720">
        <ele>702.6</ele>
        <time>2021-10-13T11:09:11Z</time>
      </trkpt>
      <trkpt lat="41.7374330" lon="-5.7772160">
        <ele>702.6</ele>
        <time>2021-10-13T11:09:13Z</time>
      </trkpt>
      <trkpt lat="41.7373330" lon="-5.7772640">
        <ele>702.6</ele>
        <time>2021-10-13T11:09:15Z</time>
      </trkpt>
      <trkpt lat="41.7371840" lon="-5.7773330">
        <ele>702.6</ele>
        <time>2021-10-13T11:09:18Z</time>
      </trkpt>
      <trkpt lat="41.7369710" lon="-5.7774290">
        <ele>702.8</ele>
        <time>2021-10-13T11:09:22Z</time>
      </trkpt>
      <trkpt lat="41.7368310" lon="-5.7774930">
        <ele>702.8</ele>
        <time>2021-10-13T11:09:25Z</time>
      </trkpt>
      <trkpt lat="41.7367180" lon="-5.7775420">
        <ele>702.8</ele>
        <time>2021-10-13T11:09:27Z</time>
      </trkpt>
      <trkpt lat="41.7366680" lon="-5.7775650">
        <ele>702.8</ele>
        <time>2021-10-13T11:09:28Z</time>
      </trkpt>
      <trkpt lat="41.7362280" lon="-5.7777600">
        <ele>703.0</ele>
        <time>2021-10-13T11:09:37Z</time>
      </trkpt>
      <trkpt lat="41.7361930" lon="-5.7777780">
        <ele>703.0</ele>
        <time>2021-10-13T11:09:38Z</time>
      </trkpt>
      <trkpt lat="41.7361500" lon="-5.7777970">
        <ele>703.2</ele>
        <time>2021-10-13T11:09:39Z</time>
      </trkpt>
      <trkpt lat="41.7359860" lon="-5.7778710">
        <ele>703.4</ele>
        <time>2021-10-13T11:09:43Z</time>
      </trkpt>
      <trkpt lat="41.7359130" lon="-5.7779090">
        <ele>703.4</ele>
        <time>2021-10-13T11:09:45Z</time>
      </trkpt>
      <trkpt lat="41.7357590" lon="-5.7779710">
        <ele>703.8</ele>
        <time>2021-10-13T11:09:49Z</time>
      </trkpt>
      <trkpt lat="41.7356470" lon="-5.7780170">
        <ele>704.0</ele>
        <time>2021-10-13T11:09:52Z</time>
      </trkpt>
      <trkpt lat="41.7355760" lon="-5.7780490">
        <ele>704.4</ele>
        <time>2021-10-13T11:09:54Z</time>
      </trkpt>
      <trkpt lat="41.7355430" lon="-5.7780650">
        <ele>704.6</ele>
        <time>2021-10-13T11:09:55Z</time>
      </trkpt>
      <trkpt lat="41.7354160" lon="-5.7781260">
        <ele>705.2</ele>
        <time>2021-10-13T11:09:59Z</time>
      </trkpt>
      <trkpt lat="41.7353530" lon="-5.7781540">
        <ele>705.4</ele>
        <time>2021-10-13T11:10:01Z</time>
      </trkpt>
      <trkpt lat="41.7352610" lon="-5.7781900">
        <ele>705.6</ele>
        <time>2021-10-13T11:10:04Z</time>
      </trkpt>
      <trkpt lat="41.7352290" lon="-5.7782070">
        <ele>705.6</ele>
        <time>2021-10-13T11:10:05Z</time>
      </trkpt>
      <trkpt lat="41.7351100" lon="-5.7782710">
        <ele>706.0</ele>
        <time>2021-10-13T11:10:09Z</time>
      </trkpt>
      <trkpt lat="41.7350030" lon="-5.7783310">
        <ele>706.6</ele>
        <time>2021-10-13T11:10:13Z</time>
      </trkpt>
      <trkpt lat="41.7349810" lon="-5.7783510">
        <ele>706.6</ele>
        <time>2021-10-13T11:10:14Z</time>
      </trkpt>
      <trkpt lat="41.7349600" lon="-5.7783640">
        <ele>706.8</ele>
        <time>2021-10-13T11:10:15Z</time>
      </trkpt>
      <trkpt lat="41.7349150" lon="-5.7783630">
        <ele>707.0</ele>
        <time>2021-10-13T11:10:17Z</time>
      </trkpt>
      <trkpt lat="41.7348690" lon="-5.7783780">
        <ele>707.2</ele>
        <time>2021-10-13T11:10:19Z</time>
      </trkpt>
      <trkpt lat="41.7347920" lon="-5.7784180">
        <ele>707.6</ele>
        <time>2021-10-13T11:10:22Z</time>
      </trkpt>
      <trkpt lat="41.7347450" lon="-5.7784420">
        <ele>707.8</ele>
        <time>2021-10-13T11:10:24Z</time>
      </trkpt>
      <trkpt lat="41.7345410" lon="-5.7785510">
        <ele>708.0</ele>
        <time>2021-10-13T11:10:32Z</time>
      </trkpt>
      <trkpt lat="41.7343570" lon="-5.7786730">
        <ele>708.6</ele>
        <time>2021-10-13T11:10:40Z</time>
      </trkpt>
      <trkpt lat="41.7343100" lon="-5.7787070">
        <ele>708.8</ele>
        <time>2021-10-13T11:10:42Z</time>
      </trkpt>
      <trkpt lat="41.7341880" lon="-5.7787930">
        <ele>709.8</ele>
        <time>2021-10-13T11:10:47Z</time>
      </trkpt>
      <trkpt lat="41.7341390" lon="-5.7788230">
        <ele>710.0</ele>
        <time>2021-10-13T11:10:49Z</time>
      </trkpt>
      <trkpt lat="41.7340700" lon="-5.7788600">
        <ele>710.2</ele>
        <time>2021-10-13T11:10:52Z</time>
      </trkpt>
      <trkpt lat="41.7339970" lon="-5.7788870">
        <ele>710.6</ele>
        <time>2021-10-13T11:10:55Z</time>
      </trkpt>
      <trkpt lat="41.7339250" lon="-5.7789360">
        <ele>711.2</ele>
        <time>2021-10-13T11:10:58Z</time>
      </trkpt>
      <trkpt lat="41.7338730" lon="-5.7789680">
        <ele>711.6</ele>
        <time>2021-10-13T11:11:00Z</time>
      </trkpt>
      <trkpt lat="41.7338510" lon="-5.7789880">
        <ele>711.6</ele>
        <time>2021-10-13T11:11:01Z</time>
      </trkpt>
      <trkpt lat="41.7338260" lon="-5.7790050">
        <ele>711.8</ele>
        <time>2021-10-13T11:11:02Z</time>
      </trkpt>
      <trkpt lat="41.7337030" lon="-5.7790860">
        <ele>712.4</ele>
        <time>2021-10-13T11:11:07Z</time>
      </trkpt>
      <trkpt lat="41.7336290" lon="-5.7791350">
        <ele>712.8</ele>
        <time>2021-10-13T11:11:10Z</time>
      </trkpt>
      <trkpt lat="41.7335240" lon="-5.7791950">
        <ele>713.4</ele>
        <time>2021-10-13T11:11:14Z</time>
      </trkpt>
      <trkpt lat="41.7334450" lon="-5.7792380">
        <ele>713.8</ele>
        <time>2021-10-13T11:11:17Z</time>
      </trkpt>
      <trkpt lat="41.7333710" lon="-5.7792880">
        <ele>714.0</ele>
        <time>2021-10-13T11:11:20Z</time>
      </trkpt>
      <trkpt lat="41.7333260" lon="-5.7793290">
        <ele>714.6</ele>
        <time>2021-10-13T11:11:22Z</time>
      </trkpt>
      <trkpt lat="41.7332600" lon="-5.7793940">
        <ele>715.0</ele>
        <time>2021-10-13T11:11:25Z</time>
      </trkpt>
      <trkpt lat="41.7332150" lon="-5.7794340">
        <ele>715.2</ele>
        <time>2021-10-13T11:11:28Z</time>
      </trkpt>
      <trkpt lat="41.7331410" lon="-5.7794960">
        <ele>715.4</ele>
        <time>2021-10-13T11:11:30Z</time>
      </trkpt>
      <trkpt lat="41.7331150" lon="-5.7795120">
        <ele>715.6</ele>
        <time>2021-10-13T11:11:31Z</time>
      </trkpt>
      <trkpt lat="41.7329900" lon="-5.7796070">
        <ele>715.8</ele>
        <time>2021-10-13T11:11:36Z</time>
      </trkpt>
      <trkpt lat="41.7328230" lon="-5.7797200">
        <ele>716.0</ele>
        <time>2021-10-13T11:11:43Z</time>
      </trkpt>
      <trkpt lat="41.7327790" lon="-5.7797590">
        <ele>716.2</ele>
        <time>2021-10-13T11:11:45Z</time>
      </trkpt>
      <trkpt lat="41.7327270" lon="-5.7797860">
        <ele>716.4</ele>
        <time>2021-10-13T11:11:47Z</time>
      </trkpt>
      <trkpt lat="41.7326520" lon="-5.7798230">
        <ele>716.6</ele>
        <time>2021-10-13T11:11:50Z</time>
      </trkpt>
      <trkpt lat="41.7326080" lon="-5.7798510">
        <ele>716.8</ele>
        <time>2021-10-13T11:11:52Z</time>
      </trkpt>
      <trkpt lat="41.7325860" lon="-5.7798650">
        <ele>717.0</ele>
        <time>2021-10-13T11:11:53Z</time>
      </trkpt>
      <trkpt lat="41.7325640" lon="-5.7798780">
        <ele>717.2</ele>
        <time>2021-10-13T11:11:54Z</time>
      </trkpt>
      <trkpt lat="41.7325270" lon="-5.7799060">
        <ele>717.8</ele>
        <time>2021-10-13T11:11:56Z</time>
      </trkpt>
      <trkpt lat="41.7324690" lon="-5.7799420">
        <ele>718.2</ele>
        <time>2021-10-13T11:11:59Z</time>
      </trkpt>
      <trkpt lat="41.7324290" lon="-5.7799650">
        <ele>718.6</ele>
        <time>2021-10-13T11:12:01Z</time>
      </trkpt>
      <trkpt lat="41.7323740" lon="-5.7800110">
        <ele>719.0</ele>
        <time>2021-10-13T11:12:04Z</time>
      </trkpt>
      <trkpt lat="41.7323440" lon="-5.7800450">
        <ele>719.0</ele>
        <time>2021-10-13T11:12:06Z</time>
      </trkpt>
      <trkpt lat="41.7323280" lon="-5.7800630">
        <ele>719.0</ele>
        <time>2021-10-13T11:12:07Z</time>
      </trkpt>
      <trkpt lat="41.7323130" lon="-5.7800790">
        <ele>719.2</ele>
        <time>2021-10-13T11:12:09Z</time>
      </trkpt>
      <trkpt lat="41.7322330" lon="-5.7801690">
        <ele>719.0</ele>
        <time>2021-10-13T11:12:15Z</time>
      </trkpt>
      <trkpt lat="41.7322130" lon="-5.7801970">
        <ele>719.2</ele>
        <time>2021-10-13T11:12:18Z</time>
      </trkpt>
      <trkpt lat="41.7322130" lon="-5.7802020">
        <ele>719.2</ele>
        <time>2021-10-13T11:12:21Z</time>
      </trkpt>
      <trkpt lat="41.7322560" lon="-5.7802630">
        <ele>720.2</ele>
        <time>2021-10-13T11:13:15Z</time>
      </trkpt>
      <trkpt lat="41.7322790" lon="-5.7802860">
        <ele>720.4</ele>
        <time>2021-10-13T11:13:16Z</time>
      </trkpt>
      <trkpt lat="41.7323010" lon="-5.7803140">
        <ele>720.4</ele>
        <time>2021-10-13T11:13:17Z</time>
      </trkpt>
      <trkpt lat="41.7324710" lon="-5.7805390">
        <ele>720.2</ele>
        <time>2021-10-13T11:13:24Z</time>
      </trkpt>
      <trkpt lat="41.7325170" lon="-5.7806070">
        <ele>720.2</ele>
        <time>2021-10-13T11:13:26Z</time>
      </trkpt>
      <trkpt lat="41.7326060" lon="-5.7807130">
        <ele>720.6</ele>
        <time>2021-10-13T11:13:30Z</time>
      </trkpt>
      <trkpt lat="41.7326490" lon="-5.7807580">
        <ele>720.4</ele>
        <time>2021-10-13T11:13:32Z</time>
      </trkpt>
      <trkpt lat="41.7326640" lon="-5.7807790">
        <ele>720.6</ele>
        <time>2021-10-13T11:13:33Z</time>
      </trkpt>
      <trkpt lat="41.7327240" lon="-5.7808620">
        <ele>720.8</ele>
        <time>2021-10-13T11:13:39Z</time>
      </trkpt>
      <trkpt lat="41.7327490" lon="-5.7808870">
        <ele>720.6</ele>
        <time>2021-10-13T11:13:42Z</time>
      </trkpt>
      <trkpt lat="41.7327670" lon="-5.7809100">
        <ele>720.4</ele>
        <time>2021-10-13T11:13:45Z</time>
      </trkpt>
      <trkpt lat="41.7327670" lon="-5.7809100">
        <ele>720.4</ele>
        <time>2021-10-13T11:13:47Z</time>
      </trkpt>
      <trkpt lat="41.7328000" lon="-5.7809750">
        <ele>720.4</ele>
        <time>2021-10-13T11:14:00Z</time>
      </trkpt>
      <trkpt lat="41.7328210" lon="-5.7810050">
        <ele>720.4</ele>
        <time>2021-10-13T11:14:01Z</time>
      </trkpt>
      <trkpt lat="41.7329210" lon="-5.7811560">
        <ele>720.4</ele>
        <time>2021-10-13T11:14:07Z</time>
      </trkpt>
      <trkpt lat="41.7329230" lon="-5.7811590">
        <ele>720.4</ele>
        <time>2021-10-13T11:14:10Z</time>
      </trkpt>
      <trkpt lat="41.7328640" lon="-5.7811210">
        <ele>720.4</ele>
        <time>2021-10-13T11:14:26Z</time>
      </trkpt>
      <trkpt lat="41.7327460" lon="-5.7809630">
        <ele>720.4</ele>
        <time>2021-10-13T11:14:32Z</time>
      </trkpt>
      <trkpt lat="41.7326800" lon="-5.7808890">
        <ele>720.6</ele>
        <time>2021-10-13T11:14:36Z</time>
      </trkpt>
      <trkpt lat="41.7326710" lon="-5.7808980">
        <ele>720.6</ele>
        <time>2021-10-13T11:14:37Z</time>
      </trkpt>
      <trkpt lat="41.7327070" lon="-5.7809530">
        <ele>720.6</ele>
        <time>2021-10-13T11:14:41Z</time>
      </trkpt>
      <trkpt lat="41.7327540" lon="-5.7809990">
        <ele>720.6</ele>
        <time>2021-10-13T11:14:47Z</time>
      </trkpt>
      <trkpt lat="41.7328020" lon="-5.7810370">
        <ele>720.8</ele>
        <time>2021-10-13T11:15:15Z</time>
      </trkpt>
      <trkpt lat="41.7328340" lon="-5.7810590">
        <ele>720.8</ele>
        <time>2021-10-13T11:15:16Z</time>
      </trkpt>
      <trkpt lat="41.7328680" lon="-5.7810840">
        <ele>720.8</ele>
        <time>2021-10-13T11:15:17Z</time>
      </trkpt>
      <trkpt lat="41.7330220" lon="-5.7811940">
        <ele>720.8</ele>
        <time>2021-10-13T11:15:22Z</time>
      </trkpt>
      <trkpt lat="41.7330470" lon="-5.7812100">
        <ele>720.8</ele>
        <time>2021-10-13T11:15:23Z</time>
      </trkpt>
      <trkpt lat="41.7331890" lon="-5.7813030">
        <ele>720.8</ele>
        <time>2021-10-13T11:15:29Z</time>
      </trkpt>
      <trkpt lat="41.7331970" lon="-5.7813310">
        <ele>720.8</ele>
        <time>2021-10-13T11:15:30Z</time>
      </trkpt>
      <trkpt lat="41.7331750" lon="-5.7814640">
        <ele>720.8</ele>
        <time>2021-10-13T11:15:34Z</time>
      </trkpt>
      <trkpt lat="41.7331680" lon="-5.7814950">
        <ele>720.8</ele>
        <time>2021-10-13T11:15:35Z</time>
      </trkpt>
      <trkpt lat="41.7331570" lon="-5.7815340">
        <ele>720.8</ele>
        <time>2021-10-13T11:15:37Z</time>
      </trkpt>
      <trkpt lat="41.7331460" lon="-5.7815590">
        <ele>720.6</ele>
        <time>2021-10-13T11:15:39Z</time>
      </trkpt>
      <trkpt lat="41.7331080" lon="-5.7817200">
        <ele>720.0</ele>
        <time>2021-10-13T11:15:45Z</time>
      </trkpt>
      <trkpt lat="41.7330320" lon="-5.7820070">
        <ele>719.2</ele>
        <time>2021-10-13T11:15:51Z</time>
      </trkpt>
      <trkpt lat="41.7330090" lon="-5.7821340">
        <ele>719.0</ele>
        <time>2021-10-13T11:15:53Z</time>
      </trkpt>
      <trkpt lat="41.7329430" lon="-5.7824030">
        <ele>718.4</ele>
        <time>2021-10-13T11:15:57Z</time>
      </trkpt>
      <trkpt lat="41.7328980" lon="-5.7826040">
        <ele>717.8</ele>
        <time>2021-10-13T11:16:00Z</time>
      </trkpt>
      <trkpt lat="41.7328530" lon="-5.7828410">
        <ele>717.2</ele>
        <time>2021-10-13T11:16:04Z</time>
      </trkpt>
      <trkpt lat="41.7327980" lon="-5.7831680">
        <ele>717.4</ele>
        <time>2021-10-13T11:16:11Z</time>
      </trkpt>
      <trkpt lat="41.7327680" lon="-5.7833290">
        <ele>718.2</ele>
        <time>2021-10-13T11:16:15Z</time>
      </trkpt>
      <trkpt lat="41.7327320" lon="-5.7834560">
        <ele>718.6</ele>
        <time>2021-10-13T11:16:18Z</time>
      </trkpt>
      <trkpt lat="41.7327100" lon="-5.7835470">
        <ele>718.8</ele>
        <time>2021-10-13T11:16:20Z</time>
      </trkpt>
      <trkpt lat="41.7326730" lon="-5.7836840">
        <ele>719.0</ele>
        <time>2021-10-13T11:16:23Z</time>
      </trkpt>
      <trkpt lat="41.7326300" lon="-5.7838260">
        <ele>719.2</ele>
        <time>2021-10-13T11:16:26Z</time>
      </trkpt>
      <trkpt lat="41.7326010" lon="-5.7839290">
        <ele>719.2</ele>
        <time>2021-10-13T11:16:28Z</time>
      </trkpt>
      <trkpt lat="41.7325520" lon="-5.7841120">
        <ele>719.0</ele>
        <time>2021-10-13T11:16:32Z</time>
      </trkpt>
      <trkpt lat="41.7324750" lon="-5.7843640">
        <ele>718.8</ele>
        <time>2021-10-13T11:16:37Z</time>
      </trkpt>
      <trkpt lat="41.7323160" lon="-5.7848110">
        <ele>718.2</ele>
        <time>2021-10-13T11:16:46Z</time>
      </trkpt>
      <trkpt lat="41.7322420" lon="-5.7850200">
        <ele>717.8</ele>
        <time>2021-10-13T11:16:50Z</time>
      </trkpt>
      <trkpt lat="41.7321240" lon="-5.7853310">
        <ele>717.6</ele>
        <time>2021-10-13T11:16:56Z</time>
      </trkpt>
      <trkpt lat="41.7319650" lon="-5.7857450">
        <ele>717.0</ele>
        <time>2021-10-13T11:17:04Z</time>
      </trkpt>
      <trkpt lat="41.7318500" lon="-5.7860630">
        <ele>717.0</ele>
        <time>2021-10-13T11:17:10Z</time>
      </trkpt>
      <trkpt lat="41.7318290" lon="-5.7861130">
        <ele>717.0</ele>
        <time>2021-10-13T11:17:11Z</time>
      </trkpt>
      <trkpt lat="41.7317300" lon="-5.7863770">
        <ele>716.8</ele>
        <time>2021-10-13T11:17:16Z</time>
      </trkpt>
      <trkpt lat="41.7317130" lon="-5.7864280">
        <ele>716.6</ele>
        <time>2021-10-13T11:17:17Z</time>
      </trkpt>
      <trkpt lat="41.7316350" lon="-5.7867040">
        <ele>716.4</ele>
        <time>2021-10-13T11:17:23Z</time>
      </trkpt>
      <trkpt lat="41.7316200" lon="-5.7868990">
        <ele>716.4</ele>
        <time>2021-10-13T11:17:27Z</time>
      </trkpt>
      <trkpt lat="41.7316070" lon="-5.7870630">
        <ele>716.2</ele>
        <time>2021-10-13T11:17:30Z</time>
      </trkpt>
      <trkpt lat="41.7316030" lon="-5.7871180">
        <ele>716.2</ele>
        <time>2021-10-13T11:17:31Z</time>
      </trkpt>
      <trkpt lat="41.7315960" lon="-5.7873550">
        <ele>716.2</ele>
        <time>2021-10-13T11:17:35Z</time>
      </trkpt>
      <trkpt lat="41.7315840" lon="-5.7876010">
        <ele>716.2</ele>
        <time>2021-10-13T11:17:39Z</time>
      </trkpt>
      <trkpt lat="41.7315760" lon="-5.7877700">
        <ele>716.2</ele>
        <time>2021-10-13T11:17:42Z</time>
      </trkpt>
      <trkpt lat="41.7315700" lon="-5.7878850">
        <ele>716.2</ele>
        <time>2021-10-13T11:17:44Z</time>
      </trkpt>
      <trkpt lat="41.7315640" lon="-5.7880660">
        <ele>716.0</ele>
        <time>2021-10-13T11:17:47Z</time>
      </trkpt>
      <trkpt lat="41.7315530" lon="-5.7882590">
        <ele>715.8</ele>
        <time>2021-10-13T11:17:50Z</time>
      </trkpt>
      <trkpt lat="41.7315510" lon="-5.7883260">
        <ele>715.8</ele>
        <time>2021-10-13T11:17:51Z</time>
      </trkpt>
      <trkpt lat="41.7315310" lon="-5.7886550">
        <ele>715.0</ele>
        <time>2021-10-13T11:17:56Z</time>
      </trkpt>
      <trkpt lat="41.7315260" lon="-5.7887190">
        <ele>715.0</ele>
        <time>2021-10-13T11:17:57Z</time>
      </trkpt>
      <trkpt lat="41.7315120" lon="-5.7889810">
        <ele>714.6</ele>
        <time>2021-10-13T11:18:01Z</time>
      </trkpt>
      <trkpt lat="41.7315020" lon="-5.7892270">
        <ele>714.6</ele>
        <time>2021-10-13T11:18:05Z</time>
      </trkpt>
      <trkpt lat="41.7314670" lon="-5.7897940">
        <ele>714.6</ele>
        <time>2021-10-13T11:18:15Z</time>
      </trkpt>
      <trkpt lat="41.7314550" lon="-5.7900430">
        <ele>714.8</ele>
        <time>2021-10-13T11:18:19Z</time>
      </trkpt>
      <trkpt lat="41.7314500" lon="-5.7901630">
        <ele>714.8</ele>
        <time>2021-10-13T11:18:21Z</time>
      </trkpt>
      <trkpt lat="41.7314430" lon="-5.7903380">
        <ele>715.2</ele>
        <time>2021-10-13T11:18:24Z</time>
      </trkpt>
      <trkpt lat="41.7314320" lon="-5.7905150">
        <ele>715.2</ele>
        <time>2021-10-13T11:18:27Z</time>
      </trkpt>
      <trkpt lat="41.7314290" lon="-5.7905730">
        <ele>715.2</ele>
        <time>2021-10-13T11:18:28Z</time>
      </trkpt>
      <trkpt lat="41.7314240" lon="-5.7907370">
        <ele>715.4</ele>
        <time>2021-10-13T11:18:31Z</time>
      </trkpt>
      <trkpt lat="41.7314230" lon="-5.7907940">
        <ele>715.6</ele>
        <time>2021-10-13T11:18:32Z</time>
      </trkpt>
      <trkpt lat="41.7314190" lon="-5.7908510">
        <ele>715.6</ele>
        <time>2021-10-13T11:18:33Z</time>
      </trkpt>
      <trkpt lat="41.7313970" lon="-5.7911960">
        <ele>716.0</ele>
        <time>2021-10-13T11:18:39Z</time>
      </trkpt>
      <trkpt lat="41.7313800" lon="-5.7915990">
        <ele>716.0</ele>
        <time>2021-10-13T11:18:46Z</time>
      </trkpt>
      <trkpt lat="41.7313690" lon="-5.7917090">
        <ele>716.2</ele>
        <time>2021-10-13T11:18:48Z</time>
      </trkpt>
      <trkpt lat="41.7313540" lon="-5.7920000">
        <ele>716.6</ele>
        <time>2021-10-13T11:18:53Z</time>
      </trkpt>
      <trkpt lat="41.7313460" lon="-5.7922810">
        <ele>716.6</ele>
        <time>2021-10-13T11:18:58Z</time>
      </trkpt>
      <trkpt lat="41.7313470" lon="-5.7923350">
        <ele>716.8</ele>
        <time>2021-10-13T11:18:59Z</time>
      </trkpt>
      <trkpt lat="41.7313410" lon="-5.7923880">
        <ele>716.6</ele>
        <time>2021-10-13T11:19:00Z</time>
      </trkpt>
      <trkpt lat="41.7313110" lon="-5.7924780">
        <ele>716.6</ele>
        <time>2021-10-13T11:19:02Z</time>
      </trkpt>
      <trkpt lat="41.7312820" lon="-5.7924960">
        <ele>716.6</ele>
        <time>2021-10-13T11:19:03Z</time>
      </trkpt>
      <trkpt lat="41.7311730" lon="-5.7924560">
        <ele>717.0</ele>
        <time>2021-10-13T11:19:06Z</time>
      </trkpt>
      <trkpt lat="41.7310670" lon="-5.7923940">
        <ele>717.2</ele>
        <time>2021-10-13T11:19:09Z</time>
      </trkpt>
      <trkpt lat="41.7309970" lon="-5.7923480">
        <ele>717.4</ele>
        <time>2021-10-13T11:19:11Z</time>
      </trkpt>
      <trkpt lat="41.7308120" lon="-5.7922190">
        <ele>717.8</ele>
        <time>2021-10-13T11:19:16Z</time>
      </trkpt>
      <trkpt lat="41.7306990" lon="-5.7921460">
        <ele>718.0</ele>
        <time>2021-10-13T11:19:19Z</time>
      </trkpt>
      <trkpt lat="41.7306590" lon="-5.7921220">
        <ele>718.0</ele>
        <time>2021-10-13T11:19:20Z</time>
      </trkpt>
      <trkpt lat="41.7303900" lon="-5.7919590">
        <ele>718.0</ele>
        <time>2021-10-13T11:19:27Z</time>
      </trkpt>
      <trkpt lat="41.7303520" lon="-5.7919350">
        <ele>718.0</ele>
        <time>2021-10-13T11:19:28Z</time>
      </trkpt>
      <trkpt lat="41.7302120" lon="-5.7918520">
        <ele>718.0</ele>
        <time>2021-10-13T11:19:32Z</time>
      </trkpt>
      <trkpt lat="41.7300050" lon="-5.7917390">
        <ele>718.4</ele>
        <time>2021-10-13T11:19:38Z</time>
      </trkpt>
      <trkpt lat="41.7299400" lon="-5.7917020">
        <ele>718.8</ele>
        <time>2021-10-13T11:19:40Z</time>
      </trkpt>
      <trkpt lat="41.7297510" lon="-5.7916080">
        <ele>719.6</ele>
        <time>2021-10-13T11:19:46Z</time>
      </trkpt>
      <trkpt lat="41.7296560" lon="-5.7915460">
        <ele>719.8</ele>
        <time>2021-10-13T11:19:49Z</time>
      </trkpt>
      <trkpt lat="41.7294190" lon="-5.7913750">
        <ele>720.8</ele>
        <time>2021-10-13T11:19:57Z</time>
      </trkpt>
      <trkpt lat="41.7291830" lon="-5.7912450">
        <ele>721.6</ele>
        <time>2021-10-13T11:20:05Z</time>
      </trkpt>
      <trkpt lat="41.7290540" lon="-5.7911850">
        <ele>721.8</ele>
        <time>2021-10-13T11:20:09Z</time>
      </trkpt>
      <trkpt lat="41.7289400" lon="-5.7911280">
        <ele>722.0</ele>
        <time>2021-10-13T11:20:13Z</time>
      </trkpt>
      <trkpt lat="41.7287570" lon="-5.7910510">
        <ele>722.2</ele>
        <time>2021-10-13T11:20:19Z</time>
      </trkpt>
      <trkpt lat="41.7287260" lon="-5.7910330">
        <ele>722.2</ele>
        <time>2021-10-13T11:20:20Z</time>
      </trkpt>
      <trkpt lat="41.7286960" lon="-5.7910170">
        <ele>722.2</ele>
        <time>2021-10-13T11:20:21Z</time>
      </trkpt>
      <trkpt lat="41.7286400" lon="-5.7909810">
        <ele>722.4</ele>
        <time>2021-10-13T11:20:23Z</time>
      </trkpt>
      <trkpt lat="41.7285830" lon="-5.7909380">
        <ele>722.4</ele>
        <time>2021-10-13T11:20:25Z</time>
      </trkpt>
      <trkpt lat="41.7285290" lon="-5.7908920">
        <ele>722.6</ele>
        <time>2021-10-13T11:20:27Z</time>
      </trkpt>
      <trkpt lat="41.7284730" lon="-5.7908470">
        <ele>722.6</ele>
        <time>2021-10-13T11:20:29Z</time>
      </trkpt>
      <trkpt lat="41.7283540" lon="-5.7907620">
        <ele>723.0</ele>
        <time>2021-10-13T11:20:33Z</time>
      </trkpt>
      <trkpt lat="41.7281790" lon="-5.7906520">
        <ele>723.4</ele>
        <time>2021-10-13T11:20:39Z</time>
      </trkpt>
      <trkpt lat="41.7278750" lon="-5.7904440">
        <ele>723.8</ele>
        <time>2021-10-13T11:20:49Z</time>
      </trkpt>
      <trkpt lat="41.7277340" lon="-5.7903440">
        <ele>724.0</ele>
        <time>2021-10-13T11:20:54Z</time>
      </trkpt>
      <trkpt lat="41.7277020" lon="-5.7903340">
        <ele>724.2</ele>
        <time>2021-10-13T11:20:55Z</time>
      </trkpt>
      <trkpt lat="41.7274720" lon="-5.7902420">
        <ele>724.4</ele>
        <time>2021-10-13T11:21:02Z</time>
      </trkpt>
      <trkpt lat="41.7272490" lon="-5.7901350">
        <ele>724.4</ele>
        <time>2021-10-13T11:21:10Z</time>
      </trkpt>
      <trkpt lat="41.7272250" lon="-5.7901160">
        <ele>724.6</ele>
        <time>2021-10-13T11:21:11Z</time>
      </trkpt>
      <trkpt lat="41.7271370" lon="-5.7900570">
        <ele>724.6</ele>
        <time>2021-10-13T11:21:14Z</time>
      </trkpt>
      <trkpt lat="41.7270780" lon="-5.7900120">
        <ele>725.0</ele>
        <time>2021-10-13T11:21:16Z</time>
      </trkpt>
      <trkpt lat="41.7270490" lon="-5.7899910">
        <ele>725.0</ele>
        <time>2021-10-13T11:21:17Z</time>
      </trkpt>
      <trkpt lat="41.7270150" lon="-5.7899690">
        <ele>725.2</ele>
        <time>2021-10-13T11:21:18Z</time>
      </trkpt>
      <trkpt lat="41.7268300" lon="-5.7898930">
        <ele>725.2</ele>
        <time>2021-10-13T11:21:23Z</time>
      </trkpt>
      <trkpt lat="41.7268020" lon="-5.7898860">
        <ele>725.2</ele>
        <time>2021-10-13T11:21:24Z</time>
      </trkpt>
      <trkpt lat="41.7264870" lon="-5.7897940">
        <ele>724.4</ele>
        <time>2021-10-13T11:21:32Z</time>
      </trkpt>
      <trkpt lat="41.7264530" lon="-5.7897840">
        <ele>724.2</ele>
        <time>2021-10-13T11:21:33Z</time>
      </trkpt>
      <trkpt lat="41.7264110" lon="-5.7897690">
        <ele>724.0</ele>
        <time>2021-10-13T11:21:34Z</time>
      </trkpt>
      <trkpt lat="41.7262200" lon="-5.7897070">
        <ele>723.4</ele>
        <time>2021-10-13T11:21:38Z</time>
      </trkpt>
      <trkpt lat="41.7261560" lon="-5.7896860">
        <ele>723.4</ele>
        <time>2021-10-13T11:21:39Z</time>
      </trkpt>
      <trkpt lat="41.7261000" lon="-5.7896710">
        <ele>723.0</ele>
        <time>2021-10-13T11:21:40Z</time>
      </trkpt>
      <trkpt lat="41.7258660" lon="-5.7895980">
        <ele>721.6</ele>
        <time>2021-10-13T11:21:44Z</time>
      </trkpt>
      <trkpt lat="41.7257440" lon="-5.7895710">
        <ele>721.2</ele>
        <time>2021-10-13T11:21:46Z</time>
      </trkpt>
      <trkpt lat="41.7256300" lon="-5.7895480">
        <ele>720.4</ele>
        <time>2021-10-13T11:21:48Z</time>
      </trkpt>
      <trkpt lat="41.7255760" lon="-5.7895360">
        <ele>719.8</ele>
        <time>2021-10-13T11:21:49Z</time>
      </trkpt>
      <trkpt lat="41.7254730" lon="-5.7895050">
        <ele>718.8</ele>
        <time>2021-10-13T11:21:51Z</time>
      </trkpt>
      <trkpt lat="41.7254310" lon="-5.7894980">
        <ele>718.6</ele>
        <time>2021-10-13T11:21:52Z</time>
      </trkpt>
      <trkpt lat="41.7253670" lon="-5.7894890">
        <ele>718.0</ele>
        <time>2021-10-13T11:21:53Z</time>
      </trkpt>
      <trkpt lat="41.7253110" lon="-5.7894890">
        <ele>717.6</ele>
        <time>2021-10-13T11:21:54Z</time>
      </trkpt>
      <trkpt lat="41.7251400" lon="-5.7895180">
        <ele>716.6</ele>
        <time>2021-10-13T11:21:57Z</time>
      </trkpt>
      <trkpt lat="41.7250870" lon="-5.7895350">
        <ele>716.4</ele>
        <time>2021-10-13T11:21:58Z</time>
      </trkpt>
      <trkpt lat="41.7246280" lon="-5.7896960">
        <ele>715.4</ele>
        <time>2021-10-13T11:22:07Z</time>
      </trkpt>
      <trkpt lat="41.7245840" lon="-5.7897230">
        <ele>715.2</ele>
        <time>2021-10-13T11:22:08Z</time>
      </trkpt>
      <trkpt lat="41.7244730" lon="-5.7898160">
        <ele>714.8</ele>
        <time>2021-10-13T11:22:11Z</time>
      </trkpt>
      <trkpt lat="41.7244350" lon="-5.7898400">
        <ele>714.8</ele>
        <time>2021-10-13T11:22:12Z</time>
      </trkpt>
      <trkpt lat="41.7243960" lon="-5.7898620">
        <ele>715.0</ele>
        <time>2021-10-13T11:22:13Z</time>
      </trkpt>
      <trkpt lat="41.7242600" lon="-5.7899160">
        <ele>714.8</ele>
        <time>2021-10-13T11:22:17Z</time>
      </trkpt>
      <trkpt lat="41.7242400" lon="-5.7899260">
        <ele>715.0</ele>
        <time>2021-10-13T11:22:21Z</time>
      </trkpt>
      <trkpt lat="41.7242010" lon="-5.7899680">
        <ele>714.8</ele>
        <time>2021-10-13T11:22:45Z</time>
      </trkpt>
      <trkpt lat="41.7241660" lon="-5.7900130">
        <ele>714.8</ele>
        <time>2021-10-13T11:22:47Z</time>
      </trkpt>
      <trkpt lat="41.7239830" lon="-5.7901650">
        <ele>714.6</ele>
        <time>2021-10-13T11:22:53Z</time>
      </trkpt>
      <trkpt lat="41.7239440" lon="-5.7901920">
        <ele>714.6</ele>
        <time>2021-10-13T11:22:54Z</time>
      </trkpt>
      <trkpt lat="41.7238600" lon="-5.7902410">
        <ele>714.6</ele>
        <time>2021-10-13T11:22:56Z</time>
      </trkpt>
      <trkpt lat="41.7237400" lon="-5.7903200">
        <ele>714.4</ele>
        <time>2021-10-13T11:22:59Z</time>
      </trkpt>
      <trkpt lat="41.7236960" lon="-5.7903430">
        <ele>714.2</ele>
        <time>2021-10-13T11:23:00Z</time>
      </trkpt>
      <trkpt lat="41.7233670" lon="-5.7905220">
        <ele>713.6</ele>
        <time>2021-10-13T11:23:07Z</time>
      </trkpt>
      <trkpt lat="41.7232730" lon="-5.7905760">
        <ele>713.2</ele>
        <time>2021-10-13T11:23:09Z</time>
      </trkpt>
      <trkpt lat="41.7232260" lon="-5.7906000">
        <ele>713.0</ele>
        <time>2021-10-13T11:23:10Z</time>
      </trkpt>
      <trkpt lat="41.7230270" lon="-5.7906690">
        <ele>712.6</ele>
        <time>2021-10-13T11:23:14Z</time>
      </trkpt>
      <trkpt lat="41.7229780" lon="-5.7906920">
        <ele>712.4</ele>
        <time>2021-10-13T11:23:15Z</time>
      </trkpt>
      <trkpt lat="41.7228850" lon="-5.7907430">
        <ele>712.0</ele>
        <time>2021-10-13T11:23:17Z</time>
      </trkpt>
      <trkpt lat="41.7227620" lon="-5.7908070">
        <ele>712.0</ele>
        <time>2021-10-13T11:23:20Z</time>
      </trkpt>
      <trkpt lat="41.7225920" lon="-5.7909230">
        <ele>711.8</ele>
        <time>2021-10-13T11:23:25Z</time>
      </trkpt>
      <trkpt lat="41.7225420" lon="-5.7909530">
        <ele>711.6</ele>
        <time>2021-10-13T11:23:29Z</time>
      </trkpt>
      <trkpt lat="41.7225390" lon="-5.7909510">
        <ele>711.6</ele>
        <time>2021-10-13T11:23:31Z</time>
      </trkpt>
      <trkpt lat="41.7225040" lon="-5.7909700">
        <ele>711.4</ele>
        <time>2021-10-13T11:23:34Z</time>
      </trkpt>
      <trkpt lat="41.7224780" lon="-5.7909840">
        <ele>711.4</ele>
        <time>2021-10-13T11:23:35Z</time>
      </trkpt>
      <trkpt lat="41.7222940" lon="-5.7910610">
        <ele>711.4</ele>
        <time>2021-10-13T11:23:42Z</time>
      </trkpt>
      <trkpt lat="41.7221400" lon="-5.7910980">
        <ele>711.6</ele>
        <time>2021-10-13T11:23:47Z</time>
      </trkpt>
      <trkpt lat="41.7219930" lon="-5.7910970">
        <ele>711.8</ele>
        <time>2021-10-13T11:23:52Z</time>
      </trkpt>
      <trkpt lat="41.7218970" lon="-5.7910500">
        <ele>712.0</ele>
        <time>2021-10-13T11:23:55Z</time>
      </trkpt>
      <trkpt lat="41.7218560" lon="-5.7910140">
        <ele>712.0</ele>
        <time>2021-10-13T11:23:57Z</time>
      </trkpt>
      <trkpt lat="41.7217410" lon="-5.7908890">
        <ele>712.0</ele>
        <time>2021-10-13T11:24:03Z</time>
      </trkpt>
      <trkpt lat="41.7215680" lon="-5.7907920">
        <ele>711.6</ele>
        <time>2021-10-13T11:24:08Z</time>
      </trkpt>
      <trkpt lat="41.7214860" lon="-5.7907890">
        <ele>711.4</ele>
        <time>2021-10-13T11:24:10Z</time>
      </trkpt>
      <trkpt lat="41.7214080" lon="-5.7908190">
        <ele>711.0</ele>
        <time>2021-10-13T11:24:12Z</time>
      </trkpt>
      <trkpt lat="41.7211580" lon="-5.7909000">
        <ele>709.8</ele>
        <time>2021-10-13T11:24:17Z</time>
      </trkpt>
      <trkpt lat="41.7211100" lon="-5.7909170">
        <ele>709.8</ele>
        <time>2021-10-13T11:24:18Z</time>
      </trkpt>
      <trkpt lat="41.7208220" lon="-5.7909870">
        <ele>709.0</ele>
        <time>2021-10-13T11:24:24Z</time>
      </trkpt>
      <trkpt lat="41.7207310" lon="-5.7910210">
        <ele>708.8</ele>
        <time>2021-10-13T11:24:26Z</time>
      </trkpt>
      <trkpt lat="41.7206880" lon="-5.7910380">
        <ele>708.8</ele>
        <time>2021-10-13T11:24:27Z</time>
      </trkpt>
      <trkpt lat="41.7206010" lon="-5.7910720">
        <ele>708.8</ele>
        <time>2021-10-13T11:24:29Z</time>
      </trkpt>
      <trkpt lat="41.7204710" lon="-5.7910870">
        <ele>708.6</ele>
        <time>2021-10-13T11:24:32Z</time>
      </trkpt>
      <trkpt lat="41.7204310" lon="-5.7910940">
        <ele>708.4</ele>
        <time>2021-10-13T11:24:33Z</time>
      </trkpt>
      <trkpt lat="41.7202880" lon="-5.7911360">
        <ele>708.4</ele>
        <time>2021-10-13T11:24:37Z</time>
      </trkpt>
      <trkpt lat="41.7200860" lon="-5.7912000">
        <ele>708.8</ele>
        <time>2021-10-13T11:24:43Z</time>
      </trkpt>
      <trkpt lat="41.7198710" lon="-5.7912880">
        <ele>709.8</ele>
        <time>2021-10-13T11:24:51Z</time>
      </trkpt>
      <trkpt lat="41.7197970" lon="-5.7913110">
        <ele>710.4</ele>
        <time>2021-10-13T11:24:54Z</time>
      </trkpt>
      <trkpt lat="41.7197380" lon="-5.7913280">
        <ele>711.0</ele>
        <time>2021-10-13T11:24:56Z</time>
      </trkpt>
      <trkpt lat="41.7196250" lon="-5.7913660">
        <ele>711.6</ele>
        <time>2021-10-13T11:25:00Z</time>
      </trkpt>
      <trkpt lat="41.7195080" lon="-5.7914170">
        <ele>712.0</ele>
        <time>2021-10-13T11:25:04Z</time>
      </trkpt>
      <trkpt lat="41.7194350" lon="-5.7914610">
        <ele>712.2</ele>
        <time>2021-10-13T11:25:07Z</time>
      </trkpt>
      <trkpt lat="41.7193000" lon="-5.7915610">
        <ele>713.0</ele>
        <time>2021-10-13T11:25:13Z</time>
      </trkpt>
      <trkpt lat="41.7192740" lon="-5.7915780">
        <ele>713.0</ele>
        <time>2021-10-13T11:25:14Z</time>
      </trkpt>
      <trkpt lat="41.7192010" lon="-5.7916350">
        <ele>713.2</ele>
        <time>2021-10-13T11:25:17Z</time>
      </trkpt>
      <trkpt lat="41.7191440" lon="-5.7916980">
        <ele>713.2</ele>
        <time>2021-10-13T11:25:20Z</time>
      </trkpt>
      <trkpt lat="41.7191010" lon="-5.7917320">
        <ele>713.2</ele>
        <time>2021-10-13T11:25:22Z</time>
      </trkpt>
      <trkpt lat="41.7190220" lon="-5.7917810">
        <ele>713.2</ele>
        <time>2021-10-13T11:25:25Z</time>
      </trkpt>
      <trkpt lat="41.7189670" lon="-5.7918110">
        <ele>713.2</ele>
        <time>2021-10-13T11:25:27Z</time>
      </trkpt>
      <trkpt lat="41.7189420" lon="-5.7918240">
        <ele>713.2</ele>
        <time>2021-10-13T11:25:28Z</time>
      </trkpt>
      <trkpt lat="41.7189210" lon="-5.7918370">
        <ele>713.2</ele>
        <time>2021-10-13T11:25:29Z</time>
      </trkpt>
      <trkpt lat="41.7188870" lon="-5.7918690">
        <ele>713.2</ele>
        <time>2021-10-13T11:25:33Z</time>
      </trkpt>
      <trkpt lat="41.7188870" lon="-5.7918690">
        <ele>713.0</ele>
        <time>2021-10-13T11:25:34Z</time>
      </trkpt>
      <trkpt lat="41.7188190" lon="-5.7919260">
        <ele>712.8</ele>
        <time>2021-10-13T11:26:05Z</time>
      </trkpt>
      <trkpt lat="41.7187830" lon="-5.7919370">
        <ele>712.8</ele>
        <time>2021-10-13T11:26:07Z</time>
      </trkpt>
      <trkpt lat="41.7187070" lon="-5.7919530">
        <ele>712.8</ele>
        <time>2021-10-13T11:26:11Z</time>
      </trkpt>
      <trkpt lat="41.7186660" lon="-5.7919600">
        <ele>712.8</ele>
        <time>2021-10-13T11:26:13Z</time>
      </trkpt>
      <trkpt lat="41.7184540" lon="-5.7919850">
        <ele>713.2</ele>
        <time>2021-10-13T11:26:21Z</time>
      </trkpt>
      <trkpt lat="41.7182500" lon="-5.7920150">
        <ele>713.6</ele>
        <time>2021-10-13T11:26:27Z</time>
      </trkpt>
      <trkpt lat="41.7182160" lon="-5.7920230">
        <ele>713.6</ele>
        <time>2021-10-13T11:26:28Z</time>
      </trkpt>
      <trkpt lat="41.7179680" lon="-5.7921010">
        <ele>713.6</ele>
        <time>2021-10-13T11:26:36Z</time>
      </trkpt>
      <trkpt lat="41.7176670" lon="-5.7921660">
        <ele>714.2</ele>
        <time>2021-10-13T11:26:46Z</time>
      </trkpt>
      <trkpt lat="41.7174700" lon="-5.7922170">
        <ele>713.6</ele>
        <time>2021-10-13T11:26:53Z</time>
      </trkpt>
      <trkpt lat="41.7174420" lon="-5.7922240">
        <ele>713.6</ele>
        <time>2021-10-13T11:26:54Z</time>
      </trkpt>
      <trkpt lat="41.7173280" lon="-5.7922420">
        <ele>713.4</ele>
        <time>2021-10-13T11:26:58Z</time>
      </trkpt>
      <trkpt lat="41.7172360" lon="-5.7922620">
        <ele>713.2</ele>
        <time>2021-10-13T11:27:01Z</time>
      </trkpt>
      <trkpt lat="41.7169580" lon="-5.7923030">
        <ele>712.6</ele>
        <time>2021-10-13T11:27:09Z</time>
      </trkpt>
      <trkpt lat="41.7167800" lon="-5.7923180">
        <ele>712.0</ele>
        <time>2021-10-13T11:27:13Z</time>
      </trkpt>
      <trkpt lat="41.7165930" lon="-5.7923150">
        <ele>711.4</ele>
        <time>2021-10-13T11:27:17Z</time>
      </trkpt>
      <trkpt lat="41.7164010" lon="-5.7922990">
        <ele>710.8</ele>
        <time>2021-10-13T11:27:21Z</time>
      </trkpt>
      <trkpt lat="41.7162040" lon="-5.7922630">
        <ele>710.2</ele>
        <time>2021-10-13T11:27:26Z</time>
      </trkpt>
      <trkpt lat="41.7161310" lon="-5.7922390">
        <ele>709.8</ele>
        <time>2021-10-13T11:27:28Z</time>
      </trkpt>
      <trkpt lat="41.7158770" lon="-5.7921240">
        <ele>708.8</ele>
        <time>2021-10-13T11:27:34Z</time>
      </trkpt>
      <trkpt lat="41.7158340" lon="-5.7921020">
        <ele>708.6</ele>
        <time>2021-10-13T11:27:35Z</time>
      </trkpt>
      <trkpt lat="41.7156650" lon="-5.7920110">
        <ele>708.6</ele>
        <time>2021-10-13T11:27:39Z</time>
      </trkpt>
      <trkpt lat="41.7155700" lon="-5.7919480">
        <ele>708.4</ele>
        <time>2021-10-13T11:27:42Z</time>
      </trkpt>
      <trkpt lat="41.7153760" lon="-5.7918100">
        <ele>708.4</ele>
        <time>2021-10-13T11:27:48Z</time>
      </trkpt>
      <trkpt lat="41.7151380" lon="-5.7916410">
        <ele>708.2</ele>
        <time>2021-10-13T11:27:56Z</time>
      </trkpt>
      <trkpt lat="41.7149730" lon="-5.7914580">
        <ele>708.2</ele>
        <time>2021-10-13T11:28:02Z</time>
      </trkpt>
      <trkpt lat="41.7148410" lon="-5.7912820">
        <ele>708.0</ele>
        <time>2021-10-13T11:28:08Z</time>
      </trkpt>
      <trkpt lat="41.7147940" lon="-5.7912380">
        <ele>708.0</ele>
        <time>2021-10-13T11:28:10Z</time>
      </trkpt>
      <trkpt lat="41.7146870" lon="-5.7911440">
        <ele>708.0</ele>
        <time>2021-10-13T11:28:14Z</time>
      </trkpt>
      <trkpt lat="41.7146080" lon="-5.7910780">
        <ele>708.0</ele>
        <time>2021-10-13T11:28:17Z</time>
      </trkpt>
      <trkpt lat="41.7145550" lon="-5.7910370">
        <ele>707.8</ele>
        <time>2021-10-13T11:28:19Z</time>
      </trkpt>
      <trkpt lat="41.7145220" lon="-5.7910120">
        <ele>707.8</ele>
        <time>2021-10-13T11:28:20Z</time>
      </trkpt>
      <trkpt lat="41.7144930" lon="-5.7909920">
        <ele>707.8</ele>
        <time>2021-10-13T11:28:21Z</time>
      </trkpt>
      <trkpt lat="41.7142630" lon="-5.7908660">
        <ele>707.4</ele>
        <time>2021-10-13T11:28:28Z</time>
      </trkpt>
      <trkpt lat="41.7141770" lon="-5.7908340">
        <ele>707.2</ele>
        <time>2021-10-13T11:28:30Z</time>
      </trkpt>
      <trkpt lat="41.7140160" lon="-5.7907440">
        <ele>706.8</ele>
        <time>2021-10-13T11:28:34Z</time>
      </trkpt>
      <trkpt lat="41.7139370" lon="-5.7906690">
        <ele>706.6</ele>
        <time>2021-10-13T11:28:36Z</time>
      </trkpt>
      <trkpt lat="41.7138290" lon="-5.7905530">
        <ele>706.2</ele>
        <time>2021-10-13T11:28:39Z</time>
      </trkpt>
      <trkpt lat="41.7137950" lon="-5.7905240">
        <ele>705.8</ele>
        <time>2021-10-13T11:28:40Z</time>
      </trkpt>
      <trkpt lat="41.7137310" lon="-5.7904910">
        <ele>705.6</ele>
        <time>2021-10-13T11:28:42Z</time>
      </trkpt>
      <trkpt lat="41.7135790" lon="-5.7905350">
        <ele>705.0</ele>
        <time>2021-10-13T11:28:46Z</time>
      </trkpt>
      <trkpt lat="41.7134300" lon="-5.7906020">
        <ele>704.8</ele>
        <time>2021-10-13T11:28:51Z</time>
      </trkpt>
      <trkpt lat="41.7132390" lon="-5.7905800">
        <ele>704.8</ele>
        <time>2021-10-13T11:28:57Z</time>
      </trkpt>
      <trkpt lat="41.7129830" lon="-5.7904820">
        <ele>705.6</ele>
        <time>2021-10-13T11:29:05Z</time>
      </trkpt>
      <trkpt lat="41.7126800" lon="-5.7903650">
        <ele>705.6</ele>
        <time>2021-10-13T11:29:14Z</time>
      </trkpt>
      <trkpt lat="41.7125820" lon="-5.7903300">
        <ele>705.6</ele>
        <time>2021-10-13T11:29:17Z</time>
      </trkpt>
      <trkpt lat="41.7124880" lon="-5.7903150">
        <ele>705.6</ele>
        <time>2021-10-13T11:29:20Z</time>
      </trkpt>
      <trkpt lat="41.7123530" lon="-5.7903110">
        <ele>705.6</ele>
        <time>2021-10-13T11:29:24Z</time>
      </trkpt>
      <trkpt lat="41.7122110" lon="-5.7903360">
        <ele>705.4</ele>
        <time>2021-10-13T11:29:28Z</time>
      </trkpt>
      <trkpt lat="41.7119770" lon="-5.7904300">
        <ele>704.8</ele>
        <time>2021-10-13T11:29:35Z</time>
      </trkpt>
      <trkpt lat="41.7118990" lon="-5.7904610">
        <ele>704.6</ele>
        <time>2021-10-13T11:29:37Z</time>
      </trkpt>
      <trkpt lat="41.7117340" lon="-5.7905360">
        <ele>704.0</ele>
        <time>2021-10-13T11:29:41Z</time>
      </trkpt>
      <trkpt lat="41.7116460" lon="-5.7905750">
        <ele>703.8</ele>
        <time>2021-10-13T11:29:43Z</time>
      </trkpt>
      <trkpt lat="41.7115570" lon="-5.7906130">
        <ele>703.8</ele>
        <time>2021-10-13T11:29:45Z</time>
      </trkpt>
      <trkpt lat="41.7113320" lon="-5.7907140">
        <ele>703.6</ele>
        <time>2021-10-13T11:29:50Z</time>
      </trkpt>
      <trkpt lat="41.7111360" lon="-5.7908050">
        <ele>703.2</ele>
        <time>2021-10-13T11:29:54Z</time>
      </trkpt>
      <trkpt lat="41.7110830" lon="-5.7908280">
        <ele>703.2</ele>
        <time>2021-10-13T11:29:55Z</time>
      </trkpt>
      <trkpt lat="41.7110280" lon="-5.7908530">
        <ele>703.0</ele>
        <time>2021-10-13T11:29:56Z</time>
      </trkpt>
      <trkpt lat="41.7107110" lon="-5.7910100">
        <ele>702.2</ele>
        <time>2021-10-13T11:30:02Z</time>
      </trkpt>
      <trkpt lat="41.7106480" lon="-5.7910390">
        <ele>702.0</ele>
        <time>2021-10-13T11:30:03Z</time>
      </trkpt>
      <trkpt lat="41.7105970" lon="-5.7910610">
        <ele>701.8</ele>
        <time>2021-10-13T11:30:04Z</time>
      </trkpt>
      <trkpt lat="41.7103200" lon="-5.7911850">
        <ele>701.2</ele>
        <time>2021-10-13T11:30:10Z</time>
      </trkpt>
      <trkpt lat="41.7100830" lon="-5.7913130">
        <ele>701.4</ele>
        <time>2021-10-13T11:30:17Z</time>
      </trkpt>
      <trkpt lat="41.7099940" lon="-5.7913680">
        <ele>701.8</ele>
        <time>2021-10-13T11:30:20Z</time>
      </trkpt>
      <trkpt lat="41.7098810" lon="-5.7914620">
        <ele>702.2</ele>
        <time>2021-10-13T11:30:24Z</time>
      </trkpt>
      <trkpt lat="41.7098560" lon="-5.7914850">
        <ele>702.4</ele>
        <time>2021-10-13T11:30:25Z</time>
      </trkpt>
      <trkpt lat="41.7097670" lon="-5.7915390">
        <ele>702.8</ele>
        <time>2021-10-13T11:30:28Z</time>
      </trkpt>
      <trkpt lat="41.7096590" lon="-5.7915790">
        <ele>703.0</ele>
        <time>2021-10-13T11:30:32Z</time>
      </trkpt>
      <trkpt lat="41.7095930" lon="-5.7916090">
        <ele>704.0</ele>
        <time>2021-10-13T11:30:35Z</time>
      </trkpt>
      <trkpt lat="41.7094810" lon="-5.7916320">
        <ele>704.8</ele>
        <time>2021-10-13T11:30:40Z</time>
      </trkpt>
      <trkpt lat="41.7094420" lon="-5.7916390">
        <ele>705.0</ele>
        <time>2021-10-13T11:30:42Z</time>
      </trkpt>
      <trkpt lat="41.7094260" lon="-5.7916460">
        <ele>705.0</ele>
        <time>2021-10-13T11:30:43Z</time>
      </trkpt>
      <trkpt lat="41.7093940" lon="-5.7916670">
        <ele>705.2</ele>
        <time>2021-10-13T11:30:47Z</time>
      </trkpt>
      <trkpt lat="41.7093940" lon="-5.7916670">
        <ele>705.2</ele>
        <time>2021-10-13T11:30:48Z</time>
      </trkpt>
      <trkpt lat="41.7093430" lon="-5.7916670">
        <ele>707.4</ele>
        <time>2021-10-13T11:32:10Z</time>
      </trkpt>
      <trkpt lat="41.7093220" lon="-5.7916620">
        <ele>707.2</ele>
        <time>2021-10-13T11:32:11Z</time>
      </trkpt>
      <trkpt lat="41.7093050" lon="-5.7916600">
        <ele>707.2</ele>
        <time>2021-10-13T11:32:12Z</time>
      </trkpt>
      <trkpt lat="41.7091330" lon="-5.7916750">
        <ele>706.2</ele>
        <time>2021-10-13T11:32:19Z</time>
      </trkpt>
      <trkpt lat="41.7089800" lon="-5.7916890">
        <ele>705.6</ele>
        <time>2021-10-13T11:32:23Z</time>
      </trkpt>
      <trkpt lat="41.7088680" lon="-5.7916990">
        <ele>705.2</ele>
        <time>2021-10-13T11:32:25Z</time>
      </trkpt>
      <trkpt lat="41.7087560" lon="-5.7917090">
        <ele>704.2</ele>
        <time>2021-10-13T11:32:27Z</time>
      </trkpt>
      <trkpt lat="41.7086770" lon="-5.7917140">
        <ele>703.8</ele>
        <time>2021-10-13T11:32:28Z</time>
      </trkpt>
      <trkpt lat="41.7084830" lon="-5.7917240">
        <ele>702.4</ele>
        <time>2021-10-13T11:32:31Z</time>
      </trkpt>
      <trkpt lat="41.7083280" lon="-5.7917310">
        <ele>701.0</ele>
        <time>2021-10-13T11:32:33Z</time>
      </trkpt>
      <trkpt lat="41.7081980" lon="-5.7917340">
        <ele>699.4</ele>
        <time>2021-10-13T11:32:35Z</time>
      </trkpt>
      <trkpt lat="41.7079820" lon="-5.7917390">
        <ele>698.4</ele>
        <time>2021-10-13T11:32:38Z</time>
      </trkpt>
      <trkpt lat="41.7079360" lon="-5.7917440">
        <ele>698.0</ele>
        <time>2021-10-13T11:32:39Z</time>
      </trkpt>
      <trkpt lat="41.7078300" lon="-5.7917620">
        <ele>697.0</ele>
        <time>2021-10-13T11:32:41Z</time>
      </trkpt>
      <trkpt lat="41.7077970" lon="-5.7917790">
        <ele>696.2</ele>
        <time>2021-10-13T11:32:42Z</time>
      </trkpt>
      <trkpt lat="41.7077710" lon="-5.7917920">
        <ele>696.0</ele>
        <time>2021-10-13T11:32:43Z</time>
      </trkpt>
      <trkpt lat="41.7077430" lon="-5.7918090">
        <ele>695.0</ele>
        <time>2021-10-13T11:32:45Z</time>
      </trkpt>
      <trkpt lat="41.7077410" lon="-5.7918110">
        <ele>694.0</ele>
        <time>2021-10-13T11:32:47Z</time>
      </trkpt>
      <trkpt lat="41.7077410" lon="-5.7918110">
        <ele>693.6</ele>
        <time>2021-10-13T11:32:48Z</time>
      </trkpt>
      <trkpt lat="41.7077080" lon="-5.7918290">
        <ele>692.6</ele>
        <time>2021-10-13T11:33:10Z</time>
      </trkpt>
      <trkpt lat="41.7076560" lon="-5.7918600">
        <ele>692.6</ele>
        <time>2021-10-13T11:33:12Z</time>
      </trkpt>
      <trkpt lat="41.7075090" lon="-5.7919360">
        <ele>692.4</ele>
        <time>2021-10-13T11:33:17Z</time>
      </trkpt>
      <trkpt lat="41.7074530" lon="-5.7919530">
        <ele>692.4</ele>
        <time>2021-10-13T11:33:19Z</time>
      </trkpt>
      <trkpt lat="41.7072910" lon="-5.7920070">
        <ele>692.0</ele>
        <time>2021-10-13T11:33:24Z</time>
      </trkpt>
      <trkpt lat="41.7071340" lon="-5.7920510">
        <ele>691.8</ele>
        <time>2021-10-13T11:33:29Z</time>
      </trkpt>
      <trkpt lat="41.7070380" lon="-5.7921070">
        <ele>691.6</ele>
        <time>2021-10-13T11:33:32Z</time>
      </trkpt>
      <trkpt lat="41.7069460" lon="-5.7922030">
        <ele>691.4</ele>
        <time>2021-10-13T11:33:35Z</time>
      </trkpt>
      <trkpt lat="41.7068670" lon="-5.7922360">
        <ele>691.0</ele>
        <time>2021-10-13T11:33:38Z</time>
      </trkpt>
      <trkpt lat="41.7068400" lon="-5.7922260">
        <ele>690.8</ele>
        <time>2021-10-13T11:33:39Z</time>
      </trkpt>
      <trkpt lat="41.7067740" lon="-5.7922210">
        <ele>690.4</ele>
        <time>2021-10-13T11:33:42Z</time>
      </trkpt>
      <trkpt lat="41.7067490" lon="-5.7922240">
        <ele>690.0</ele>
        <time>2021-10-13T11:33:43Z</time>
      </trkpt>
      <trkpt lat="41.7066660" lon="-5.7922220">
        <ele>689.2</ele>
        <time>2021-10-13T11:33:46Z</time>
      </trkpt>
      <trkpt lat="41.7066270" lon="-5.7922070">
        <ele>688.2</ele>
        <time>2021-10-13T11:33:49Z</time>
      </trkpt>
      <trkpt lat="41.7066270" lon="-5.7922070">
        <ele>688.0</ele>
        <time>2021-10-13T11:33:50Z</time>
      </trkpt>
      <trkpt lat="41.7069310" lon="-5.7921940">
        <ele>689.0</ele>
        <time>2021-10-13T11:34:33Z</time>
      </trkpt>
      <trkpt lat="41.7069390" lon="-5.7921810">
        <ele>689.0</ele>
        <time>2021-10-13T11:34:34Z</time>
      </trkpt>
      <trkpt lat="41.7069460" lon="-5.7921680">
        <ele>689.2</ele>
        <time>2021-10-13T11:34:36Z</time>
      </trkpt>
      <trkpt lat="41.7069580" lon="-5.7921400">
        <ele>689.4</ele>
        <time>2021-10-13T11:34:37Z</time>
      </trkpt>
      <trkpt lat="41.7069600" lon="-5.7921280">
        <ele>689.6</ele>
        <time>2021-10-13T11:34:38Z</time>
      </trkpt>
      <trkpt lat="41.7069550" lon="-5.7921010">
        <ele>690.2</ele>
        <time>2021-10-13T11:34:40Z</time>
      </trkpt>
      <trkpt lat="41.7069480" lon="-5.7920890">
        <ele>690.4</ele>
        <time>2021-10-13T11:34:41Z</time>
      </trkpt>
      <trkpt lat="41.7069300" lon="-5.7920750">
        <ele>690.4</ele>
        <time>2021-10-13T11:34:43Z</time>
      </trkpt>
      <trkpt lat="41.7069050" lon="-5.7920700">
        <ele>690.4</ele>
        <time>2021-10-13T11:34:46Z</time>
      </trkpt>
      <trkpt lat="41.7068640" lon="-5.7920670">
        <ele>690.4</ele>
        <time>2021-10-13T11:34:48Z</time>
      </trkpt>
      <trkpt lat="41.7067710" lon="-5.7920650">
        <ele>689.8</ele>
        <time>2021-10-13T11:34:55Z</time>
      </trkpt>
      <trkpt lat="41.7066700" lon="-5.7920160">
        <ele>689.4</ele>
        <time>2021-10-13T11:35:02Z</time>
      </trkpt>
      <trkpt lat="41.7066580" lon="-5.7920070">
        <ele>689.4</ele>
        <time>2021-10-13T11:35:03Z</time>
      </trkpt>
      <trkpt lat="41.7065840" lon="-5.7919520">
        <ele>688.8</ele>
        <time>2021-10-13T11:35:11Z</time>
      </trkpt>
      <trkpt lat="41.7065280" lon="-5.7919130">
        <ele>688.2</ele>
        <time>2021-10-13T11:35:17Z</time>
      </trkpt>
      <trkpt lat="41.7064980" lon="-5.7918840">
        <ele>688.2</ele>
        <time>2021-10-13T11:35:19Z</time>
      </trkpt>
      <trkpt lat="41.7064820" lon="-5.7918610">
        <ele>688.0</ele>
        <time>2021-10-13T11:35:22Z</time>
      </trkpt>
      <trkpt lat="41.7064380" lon="-5.7917490">
        <ele>687.2</ele>
        <time>2021-10-13T11:35:30Z</time>
      </trkpt>
      <trkpt lat="41.7064380" lon="-5.7917490">
        <ele>687.0</ele>
        <time>2021-10-13T11:35:31Z</time>
      </trkpt>
      <trkpt lat="41.7064220" lon="-5.7916860">
        <ele>686.4</ele>
        <time>2021-10-13T11:35:43Z</time>
      </trkpt>
      <trkpt lat="41.7064040" lon="-5.7916370">
        <ele>686.4</ele>
        <time>2021-10-13T11:35:46Z</time>
      </trkpt>
      <trkpt lat="41.7063860" lon="-5.7915750">
        <ele>686.2</ele>
        <time>2021-10-13T11:35:49Z</time>
      </trkpt>
      <trkpt lat="41.7063720" lon="-5.7915350">
        <ele>686.2</ele>
        <time>2021-10-13T11:35:52Z</time>
      </trkpt>
      <trkpt lat="41.7063670" lon="-5.7915240">
        <ele>686.2</ele>
        <time>2021-10-13T11:35:53Z</time>
      </trkpt>
      <trkpt lat="41.7063600" lon="-5.7915130">
        <ele>686.2</ele>
        <time>2021-10-13T11:35:54Z</time>
      </trkpt>
      <trkpt lat="41.7063370" lon="-5.7914500">
        <ele>686.0</ele>
        <time>2021-10-13T11:35:59Z</time>
      </trkpt>
      <trkpt lat="41.7063310" lon="-5.7914220">
        <ele>686.0</ele>
        <time>2021-10-13T11:36:01Z</time>
      </trkpt>
      <trkpt lat="41.7063050" lon="-5.7913510">
        <ele>685.8</ele>
        <time>2021-10-13T11:36:06Z</time>
      </trkpt>
      <trkpt lat="41.7063010" lon="-5.7913270">
        <ele>685.6</ele>
        <time>2021-10-13T11:36:08Z</time>
      </trkpt>
      <trkpt lat="41.7062970" lon="-5.7913150">
        <ele>685.6</ele>
        <time>2021-10-13T11:36:09Z</time>
      </trkpt>
      <trkpt lat="41.7062910" lon="-5.7912960">
        <ele>685.2</ele>
        <time>2021-10-13T11:36:14Z</time>
      </trkpt>
      <trkpt lat="41.7061290" lon="-5.7912650">
        <ele>681.4</ele>
        <time>2021-10-13T11:37:13Z</time>
      </trkpt>
      <trkpt lat="41.7060900" lon="-5.7912420">
        <ele>680.4</ele>
        <time>2021-10-13T11:37:18Z</time>
      </trkpt>
      <trkpt lat="41.7060900" lon="-5.7912420">
        <ele>680.2</ele>
        <time>2021-10-13T11:37:19Z</time>
      </trkpt>
      <trkpt lat="41.7060830" lon="-5.7912100">
        <ele>679.2</ele>
        <time>2021-10-13T11:37:52Z</time>
      </trkpt>
      <trkpt lat="41.7060410" lon="-5.7910150">
        <ele>678.8</ele>
        <time>2021-10-13T11:37:56Z</time>
      </trkpt>
      <trkpt lat="41.7059790" lon="-5.7908480">
        <ele>678.4</ele>
        <time>2021-10-13T11:38:00Z</time>
      </trkpt>
      <trkpt lat="41.7059170" lon="-5.7907750">
        <ele>678.2</ele>
        <time>2021-10-13T11:38:03Z</time>
      </trkpt>
      <trkpt lat="41.7058590" lon="-5.7907550">
        <ele>678.2</ele>
        <time>2021-10-13T11:38:05Z</time>
      </trkpt>
      <trkpt lat="41.7057740" lon="-5.7907400">
        <ele>678.0</ele>
        <time>2021-10-13T11:38:08Z</time>
      </trkpt>
      <trkpt lat="41.7056080" lon="-5.7907300">
        <ele>678.4</ele>
        <time>2021-10-13T11:38:15Z</time>
      </trkpt>
      <trkpt lat="41.7055530" lon="-5.7907160">
        <ele>678.8</ele>
        <time>2021-10-13T11:38:18Z</time>
      </trkpt>
      <trkpt lat="41.7055170" lon="-5.7906810">
        <ele>679.2</ele>
        <time>2021-10-13T11:38:20Z</time>
      </trkpt>
      <trkpt lat="41.7053950" lon="-5.7905650">
        <ele>679.8</ele>
        <time>2021-10-13T11:38:27Z</time>
      </trkpt>
      <trkpt lat="41.7053140" lon="-5.7905240">
        <ele>680.2</ele>
        <time>2021-10-13T11:38:32Z</time>
      </trkpt>
      <trkpt lat="41.7053020" lon="-5.7905220">
        <ele>680.4</ele>
        <time>2021-10-13T11:38:33Z</time>
      </trkpt>
      <trkpt lat="41.7052690" lon="-5.7905180">
        <ele>680.4</ele>
        <time>2021-10-13T11:38:35Z</time>
      </trkpt>
      <trkpt lat="41.7052230" lon="-5.7905040">
        <ele>680.6</ele>
        <time>2021-10-13T11:38:38Z</time>
      </trkpt>
      <trkpt lat="41.7051950" lon="-5.7904910">
        <ele>680.8</ele>
        <time>2021-10-13T11:38:40Z</time>
      </trkpt>
      <trkpt lat="41.7051170" lon="-5.7904870">
        <ele>681.2</ele>
        <time>2021-10-13T11:38:45Z</time>
      </trkpt>
      <trkpt lat="41.7051020" lon="-5.7904730">
        <ele>681.4</ele>
        <time>2021-10-13T11:38:46Z</time>
      </trkpt>
      <trkpt lat="41.7050900" lon="-5.7904580">
        <ele>681.4</ele>
        <time>2021-10-13T11:38:47Z</time>
      </trkpt>
      <trkpt lat="41.7050410" lon="-5.7904330">
        <ele>682.4</ele>
        <time>2021-10-13T11:38:51Z</time>
      </trkpt>
      <trkpt lat="41.7050280" lon="-5.7904360">
        <ele>682.4</ele>
        <time>2021-10-13T11:38:52Z</time>
      </trkpt>
      <trkpt lat="41.7050160" lon="-5.7904440">
        <ele>682.6</ele>
        <time>2021-10-13T11:38:53Z</time>
      </trkpt>
      <trkpt lat="41.7049590" lon="-5.7904710">
        <ele>683.0</ele>
        <time>2021-10-13T11:38:57Z</time>
      </trkpt>
      <trkpt lat="41.7049280" lon="-5.7904820">
        <ele>683.2</ele>
        <time>2021-10-13T11:38:59Z</time>
      </trkpt>
      <trkpt lat="41.7048510" lon="-5.7904730">
        <ele>683.8</ele>
        <time>2021-10-13T11:39:04Z</time>
      </trkpt>
      <trkpt lat="41.7048350" lon="-5.7904640">
        <ele>684.0</ele>
        <time>2021-10-13T11:39:05Z</time>
      </trkpt>
      <trkpt lat="41.7048180" lon="-5.7904570">
        <ele>684.2</ele>
        <time>2021-10-13T11:39:06Z</time>
      </trkpt>
      <trkpt lat="41.7048030" lon="-5.7904490">
        <ele>684.6</ele>
        <time>2021-10-13T11:39:07Z</time>
      </trkpt>
      <trkpt lat="41.7047910" lon="-5.7904400">
        <ele>684.6</ele>
        <time>2021-10-13T11:39:08Z</time>
      </trkpt>
      <trkpt lat="41.7047800" lon="-5.7904300">
        <ele>684.8</ele>
        <time>2021-10-13T11:39:09Z</time>
      </trkpt>
      <trkpt lat="41.7047660" lon="-5.7904150">
        <ele>685.2</ele>
        <time>2021-10-13T11:39:11Z</time>
      </trkpt>
      <trkpt lat="41.7047660" lon="-5.7904150">
        <ele>685.4</ele>
        <time>2021-10-13T11:39:12Z</time>
      </trkpt>
      <trkpt lat="41.7047660" lon="-5.7904150">
        <ele>685.6</ele>
        <time>2021-10-13T11:39:13Z</time>
      </trkpt>
      <trkpt lat="41.7046920" lon="-5.7904190">
        <ele>685.2</ele>
        <time>2021-10-13T11:39:27Z</time>
      </trkpt>
      <trkpt lat="41.7046690" lon="-5.7904230">
        <ele>685.2</ele>
        <time>2021-10-13T11:39:28Z</time>
      </trkpt>
      <trkpt lat="41.7046450" lon="-5.7904270">
        <ele>685.2</ele>
        <time>2021-10-13T11:39:29Z</time>
      </trkpt>
      <trkpt lat="41.7044710" lon="-5.7904880">
        <ele>685.4</ele>
        <time>2021-10-13T11:39:37Z</time>
      </trkpt>
      <trkpt lat="41.7043520" lon="-5.7905700">
        <ele>686.0</ele>
        <time>2021-10-13T11:39:43Z</time>
      </trkpt>
      <trkpt lat="41.7043100" lon="-5.7906030">
        <ele>686.2</ele>
        <time>2021-10-13T11:39:45Z</time>
      </trkpt>
      <trkpt lat="41.7041040" lon="-5.7907690">
        <ele>686.4</ele>
        <time>2021-10-13T11:39:54Z</time>
      </trkpt>
      <trkpt lat="41.7040130" lon="-5.7908410">
        <ele>686.4</ele>
        <time>2021-10-13T11:39:58Z</time>
      </trkpt>
      <trkpt lat="41.7039120" lon="-5.7909130">
        <ele>686.6</ele>
        <time>2021-10-13T11:40:02Z</time>
      </trkpt>
      <trkpt lat="41.7037370" lon="-5.7910350">
        <ele>687.0</ele>
        <time>2021-10-13T11:40:09Z</time>
      </trkpt>
      <trkpt lat="41.7036860" lon="-5.7910680">
        <ele>687.2</ele>
        <time>2021-10-13T11:40:11Z</time>
      </trkpt>
      <trkpt lat="41.7034980" lon="-5.7911980">
        <ele>687.8</ele>
        <time>2021-10-13T11:40:19Z</time>
      </trkpt>
      <trkpt lat="41.7034510" lon="-5.7912330">
        <ele>688.0</ele>
        <time>2021-10-13T11:40:21Z</time>
      </trkpt>
      <trkpt lat="41.7033130" lon="-5.7913240">
        <ele>688.6</ele>
        <time>2021-10-13T11:40:27Z</time>
      </trkpt>
      <trkpt lat="41.7032650" lon="-5.7913590">
        <ele>688.8</ele>
        <time>2021-10-13T11:40:29Z</time>
      </trkpt>
      <trkpt lat="41.7032420" lon="-5.7913760">
        <ele>689.0</ele>
        <time>2021-10-13T11:40:30Z</time>
      </trkpt>
      <trkpt lat="41.7032190" lon="-5.7913940">
        <ele>689.2</ele>
        <time>2021-10-13T11:40:31Z</time>
      </trkpt>
      <trkpt lat="41.7031730" lon="-5.7914260">
        <ele>689.6</ele>
        <time>2021-10-13T11:40:33Z</time>
      </trkpt>
      <trkpt lat="41.7031020" lon="-5.7914720">
        <ele>690.0</ele>
        <time>2021-10-13T11:40:36Z</time>
      </trkpt>
      <trkpt lat="41.7030490" lon="-5.7915010">
        <ele>690.2</ele>
        <time>2021-10-13T11:40:38Z</time>
      </trkpt>
      <trkpt lat="41.7030240" lon="-5.7915150">
        <ele>690.2</ele>
        <time>2021-10-13T11:40:39Z</time>
      </trkpt>
      <trkpt lat="41.7029790" lon="-5.7915430">
        <ele>690.4</ele>
        <time>2021-10-13T11:40:42Z</time>
      </trkpt>
      <trkpt lat="41.7028510" lon="-5.7915990">
        <ele>690.6</ele>
        <time>2021-10-13T11:40:47Z</time>
      </trkpt>
      <trkpt lat="41.7028340" lon="-5.7916090">
        <ele>690.6</ele>
        <time>2021-10-13T11:40:50Z</time>
      </trkpt>
      <trkpt lat="41.7027800" lon="-5.7916170">
        <ele>690.4</ele>
        <time>2021-10-13T11:41:02Z</time>
      </trkpt>
      <trkpt lat="41.7027480" lon="-5.7916250">
        <ele>690.4</ele>
        <time>2021-10-13T11:41:03Z</time>
      </trkpt>
      <trkpt lat="41.7025990" lon="-5.7916710">
        <ele>690.0</ele>
        <time>2021-10-13T11:41:07Z</time>
      </trkpt>
      <trkpt lat="41.7025080" lon="-5.7916950">
        <ele>689.6</ele>
        <time>2021-10-13T11:41:09Z</time>
      </trkpt>
      <trkpt lat="41.7024050" lon="-5.7917190">
        <ele>689.2</ele>
        <time>2021-10-13T11:41:11Z</time>
      </trkpt>
      <trkpt lat="41.7023020" lon="-5.7917510">
        <ele>689.0</ele>
        <time>2021-10-13T11:41:13Z</time>
      </trkpt>
      <trkpt lat="41.7018890" lon="-5.7918350">
        <ele>689.0</ele>
        <time>2021-10-13T11:41:21Z</time>
      </trkpt>
      <trkpt lat="41.7016360" lon="-5.7918590">
        <ele>689.0</ele>
        <time>2021-10-13T11:41:26Z</time>
      </trkpt>
      <trkpt lat="41.7014950" lon="-5.7918610">
        <ele>689.0</ele>
        <time>2021-10-13T11:41:29Z</time>
      </trkpt>
      <trkpt lat="41.7013120" lon="-5.7918600">
        <ele>689.0</ele>
        <time>2021-10-13T11:41:34Z</time>
      </trkpt>
      <trkpt lat="41.7011960" lon="-5.7918380">
        <ele>689.2</ele>
        <time>2021-10-13T11:41:38Z</time>
      </trkpt>
      <trkpt lat="41.7011770" lon="-5.7918120">
        <ele>689.2</ele>
        <time>2021-10-13T11:41:39Z</time>
      </trkpt>
      <trkpt lat="41.7011820" lon="-5.7917170">
        <ele>689.2</ele>
        <time>2021-10-13T11:41:42Z</time>
      </trkpt>
      <trkpt lat="41.7012000" lon="-5.7916740">
        <ele>689.2</ele>
        <time>2021-10-13T11:41:44Z</time>
      </trkpt>
      <trkpt lat="41.7012000" lon="-5.7916580">
        <ele>689.2</ele>
        <time>2021-10-13T11:41:46Z</time>
      </trkpt>
      <trkpt lat="41.7012030" lon="-5.7916850">
        <ele>689.2</ele>
        <time>2021-10-13T11:41:51Z</time>
      </trkpt>
      <trkpt lat="41.7011660" lon="-5.7917440">
        <ele>689.2</ele>
        <time>2021-10-13T11:41:55Z</time>
      </trkpt>
      <trkpt lat="41.7011110" lon="-5.7918300">
        <ele>689.2</ele>
        <time>2021-10-13T11:41:58Z</time>
      </trkpt>
      <trkpt lat="41.7010610" lon="-5.7918740">
        <ele>689.2</ele>
        <time>2021-10-13T11:42:00Z</time>
      </trkpt>
      <trkpt lat="41.7008920" lon="-5.7919940">
        <ele>689.4</ele>
        <time>2021-10-13T11:42:06Z</time>
      </trkpt>
      <trkpt lat="41.7007840" lon="-5.7920490">
        <ele>690.4</ele>
        <time>2021-10-13T11:42:11Z</time>
      </trkpt>
      <trkpt lat="41.7007620" lon="-5.7920580">
        <ele>690.4</ele>
        <time>2021-10-13T11:42:12Z</time>
      </trkpt>
      <trkpt lat="41.7006820" lon="-5.7921000">
        <ele>691.4</ele>
        <time>2021-10-13T11:42:16Z</time>
      </trkpt>
      <trkpt lat="41.7006240" lon="-5.7921270">
        <ele>692.0</ele>
        <time>2021-10-13T11:42:19Z</time>
      </trkpt>
      <trkpt lat="41.7005820" lon="-5.7921480">
        <ele>692.2</ele>
        <time>2021-10-13T11:42:21Z</time>
      </trkpt>
      <trkpt lat="41.7005400" lon="-5.7921690">
        <ele>692.4</ele>
        <time>2021-10-13T11:42:23Z</time>
      </trkpt>
      <trkpt lat="41.7004460" lon="-5.7922090">
        <ele>693.0</ele>
        <time>2021-10-13T11:42:28Z</time>
      </trkpt>
      <trkpt lat="41.7003930" lon="-5.7922390">
        <ele>693.8</ele>
        <time>2021-10-13T11:42:31Z</time>
      </trkpt>
      <trkpt lat="41.7003070" lon="-5.7922780">
        <ele>694.8</ele>
        <time>2021-10-13T11:42:36Z</time>
      </trkpt>
      <trkpt lat="41.7002900" lon="-5.7922860">
        <ele>695.0</ele>
        <time>2021-10-13T11:42:37Z</time>
      </trkpt>
      <trkpt lat="41.7002530" lon="-5.7923020">
        <ele>695.2</ele>
        <time>2021-10-13T11:42:39Z</time>
      </trkpt>
      <trkpt lat="41.7002350" lon="-5.7923090">
        <ele>695.4</ele>
        <time>2021-10-13T11:42:40Z</time>
      </trkpt>
      <trkpt lat="41.7001980" lon="-5.7923230">
        <ele>696.0</ele>
        <time>2021-10-13T11:42:42Z</time>
      </trkpt>
      <trkpt lat="41.7001600" lon="-5.7923350">
        <ele>696.2</ele>
        <time>2021-10-13T11:42:44Z</time>
      </trkpt>
      <trkpt lat="41.7001230" lon="-5.7923530">
        <ele>696.6</ele>
        <time>2021-10-13T11:42:46Z</time>
      </trkpt>
      <trkpt lat="41.7000840" lon="-5.7923710">
        <ele>696.8</ele>
        <time>2021-10-13T11:42:48Z</time>
      </trkpt>
      <trkpt lat="41.7000650" lon="-5.7923820">
        <ele>696.8</ele>
        <time>2021-10-13T11:42:49Z</time>
      </trkpt>
      <trkpt lat="41.7000240" lon="-5.7923980">
        <ele>697.2</ele>
        <time>2021-10-13T11:42:51Z</time>
      </trkpt>
      <trkpt lat="41.6998350" lon="-5.7924860">
        <ele>698.2</ele>
        <time>2021-10-13T11:43:01Z</time>
      </trkpt>
      <trkpt lat="41.6998150" lon="-5.7924960">
        <ele>698.2</ele>
        <time>2021-10-13T11:43:02Z</time>
      </trkpt>
      <trkpt lat="41.6997750" lon="-5.7925200">
        <ele>698.6</ele>
        <time>2021-10-13T11:43:04Z</time>
      </trkpt>
      <trkpt lat="41.6997280" lon="-5.7925480">
        <ele>699.2</ele>
        <time>2021-10-13T11:43:06Z</time>
      </trkpt>
      <trkpt lat="41.6996310" lon="-5.7926040">
        <ele>699.4</ele>
        <time>2021-10-13T11:43:10Z</time>
      </trkpt>
      <trkpt lat="41.6994350" lon="-5.7927280">
        <ele>699.4</ele>
        <time>2021-10-13T11:43:18Z</time>
      </trkpt>
      <trkpt lat="41.6994050" lon="-5.7927530">
        <ele>699.2</ele>
        <time>2021-10-13T11:43:19Z</time>
      </trkpt>
      <trkpt lat="41.6992530" lon="-5.7928410">
        <ele>698.8</ele>
        <time>2021-10-13T11:43:24Z</time>
      </trkpt>
      <trkpt lat="41.6991060" lon="-5.7929260">
        <ele>698.6</ele>
        <time>2021-10-13T11:43:29Z</time>
      </trkpt>
      <trkpt lat="41.6989840" lon="-5.7930020">
        <ele>698.6</ele>
        <time>2021-10-13T11:43:33Z</time>
      </trkpt>
      <trkpt lat="41.6989200" lon="-5.7930370">
        <ele>698.6</ele>
        <time>2021-10-13T11:43:35Z</time>
      </trkpt>
      <trkpt lat="41.6988610" lon="-5.7930670">
        <ele>698.6</ele>
        <time>2021-10-13T11:43:37Z</time>
      </trkpt>
      <trkpt lat="41.6987270" lon="-5.7931440">
        <ele>698.6</ele>
        <time>2021-10-13T11:43:41Z</time>
      </trkpt>
      <trkpt lat="41.6984810" lon="-5.7932870">
        <ele>698.8</ele>
        <time>2021-10-13T11:43:49Z</time>
      </trkpt>
      <trkpt lat="41.6983420" lon="-5.7933680">
        <ele>699.0</ele>
        <time>2021-10-13T11:43:53Z</time>
      </trkpt>
      <trkpt lat="41.6982450" lon="-5.7934230">
        <ele>699.2</ele>
        <time>2021-10-13T11:43:56Z</time>
      </trkpt>
      <trkpt lat="41.6980670" lon="-5.7935350">
        <ele>699.4</ele>
        <time>2021-10-13T11:44:01Z</time>
      </trkpt>
      <trkpt lat="41.6978920" lon="-5.7936540">
        <ele>699.6</ele>
        <time>2021-10-13T11:44:06Z</time>
      </trkpt>
      <trkpt lat="41.6975770" lon="-5.7938760">
        <ele>699.2</ele>
        <time>2021-10-13T11:44:15Z</time>
      </trkpt>
      <trkpt lat="41.6973940" lon="-5.7940200">
        <ele>699.2</ele>
        <time>2021-10-13T11:44:20Z</time>
      </trkpt>
      <trkpt lat="41.6972890" lon="-5.7940950">
        <ele>699.2</ele>
        <time>2021-10-13T11:44:23Z</time>
      </trkpt>
      <trkpt lat="41.6972510" lon="-5.7941240">
        <ele>699.2</ele>
        <time>2021-10-13T11:44:24Z</time>
      </trkpt>
      <trkpt lat="41.6969250" lon="-5.7943880">
        <ele>699.2</ele>
        <time>2021-10-13T11:44:33Z</time>
      </trkpt>
      <trkpt lat="41.6967650" lon="-5.7945250">
        <ele>699.2</ele>
        <time>2021-10-13T11:44:37Z</time>
      </trkpt>
      <trkpt lat="41.6966120" lon="-5.7946670">
        <ele>699.0</ele>
        <time>2021-10-13T11:44:41Z</time>
      </trkpt>
      <trkpt lat="41.6965400" lon="-5.7947470">
        <ele>699.0</ele>
        <time>2021-10-13T11:44:43Z</time>
      </trkpt>
      <trkpt lat="41.6964840" lon="-5.7948210">
        <ele>698.8</ele>
        <time>2021-10-13T11:44:46Z</time>
      </trkpt>
      <trkpt lat="41.6964670" lon="-5.7948380">
        <ele>698.8</ele>
        <time>2021-10-13T11:44:49Z</time>
      </trkpt>
      <trkpt lat="41.6964420" lon="-5.7948490">
        <ele>699.0</ele>
        <time>2021-10-13T11:45:33Z</time>
      </trkpt>
      <trkpt lat="41.6963750" lon="-5.7949000">
        <ele>699.0</ele>
        <time>2021-10-13T11:45:36Z</time>
      </trkpt>
      <trkpt lat="41.6963240" lon="-5.7949390">
        <ele>699.0</ele>
        <time>2021-10-13T11:45:38Z</time>
      </trkpt>
      <trkpt lat="41.6961790" lon="-5.7950800">
        <ele>698.6</ele>
        <time>2021-10-13T11:45:42Z</time>
      </trkpt>
      <trkpt lat="41.6961390" lon="-5.7951170">
        <ele>698.4</ele>
        <time>2021-10-13T11:45:43Z</time>
      </trkpt>
      <trkpt lat="41.6958360" lon="-5.7954250">
        <ele>698.0</ele>
        <time>2021-10-13T11:45:50Z</time>
      </trkpt>
      <trkpt lat="41.6956500" lon="-5.7955960">
        <ele>698.0</ele>
        <time>2021-10-13T11:45:54Z</time>
      </trkpt>
      <trkpt lat="41.6954680" lon="-5.7957330">
        <ele>698.0</ele>
        <time>2021-10-13T11:45:58Z</time>
      </trkpt>
      <trkpt lat="41.6952910" lon="-5.7958360">
        <ele>698.2</ele>
        <time>2021-10-13T11:46:03Z</time>
      </trkpt>
      <trkpt lat="41.6952310" lon="-5.7958860">
        <ele>698.4</ele>
        <time>2021-10-13T11:46:07Z</time>
      </trkpt>
      <trkpt lat="41.6951570" lon="-5.7959230">
        <ele>698.4</ele>
        <time>2021-10-13T11:46:12Z</time>
      </trkpt>
      <trkpt lat="41.6951130" lon="-5.7959320">
        <ele>698.4</ele>
        <time>2021-10-13T11:46:14Z</time>
      </trkpt>
      <trkpt lat="41.6949880" lon="-5.7959990">
        <ele>698.6</ele>
        <time>2021-10-13T11:46:19Z</time>
      </trkpt>
      <trkpt lat="41.6948610" lon="-5.7961560">
        <ele>699.4</ele>
        <time>2021-10-13T11:46:25Z</time>
      </trkpt>
      <trkpt lat="41.6948070" lon="-5.7962670">
        <ele>699.8</ele>
        <time>2021-10-13T11:46:28Z</time>
      </trkpt>
      <trkpt lat="41.6947380" lon="-5.7964510">
        <ele>699.8</ele>
        <time>2021-10-13T11:46:32Z</time>
      </trkpt>
      <trkpt lat="41.6946980" lon="-5.7965550">
        <ele>699.6</ele>
        <time>2021-10-13T11:46:34Z</time>
      </trkpt>
      <trkpt lat="41.6946730" lon="-5.7966070">
        <ele>699.6</ele>
        <time>2021-10-13T11:46:35Z</time>
      </trkpt>
      <trkpt lat="41.6945020" lon="-5.7968910">
        <ele>699.2</ele>
        <time>2021-10-13T11:46:41Z</time>
      </trkpt>
      <trkpt lat="41.6942370" lon="-5.7972260">
        <ele>699.4</ele>
        <time>2021-10-13T11:46:49Z</time>
      </trkpt>
      <trkpt lat="41.6940730" lon="-5.7974150">
        <ele>699.6</ele>
        <time>2021-10-13T11:46:54Z</time>
      </trkpt>
      <trkpt lat="41.6939270" lon="-5.7975870">
        <ele>700.0</ele>
        <time>2021-10-13T11:46:59Z</time>
      </trkpt>
      <trkpt lat="41.6938980" lon="-5.7976210">
        <ele>700.2</ele>
        <time>2021-10-13T11:47:00Z</time>
      </trkpt>
      <trkpt lat="41.6938670" lon="-5.7976550">
        <ele>700.6</ele>
        <time>2021-10-13T11:47:01Z</time>
      </trkpt>
      <trkpt lat="41.6938070" lon="-5.7977250">
        <ele>701.0</ele>
        <time>2021-10-13T11:47:03Z</time>
      </trkpt>
      <trkpt lat="41.6937790" lon="-5.7977600">
        <ele>701.0</ele>
        <time>2021-10-13T11:47:04Z</time>
      </trkpt>
      <trkpt lat="41.6936310" lon="-5.7979330">
        <ele>701.6</ele>
        <time>2021-10-13T11:47:09Z</time>
      </trkpt>
      <trkpt lat="41.6935400" lon="-5.7980460">
        <ele>701.8</ele>
        <time>2021-10-13T11:47:12Z</time>
      </trkpt>
      <trkpt lat="41.6935060" lon="-5.7980870">
        <ele>701.8</ele>
        <time>2021-10-13T11:47:13Z</time>
      </trkpt>
      <trkpt lat="41.6934460" lon="-5.7981630">
        <ele>702.0</ele>
        <time>2021-10-13T11:47:15Z</time>
      </trkpt>
      <trkpt lat="41.6933520" lon="-5.7982780">
        <ele>702.2</ele>
        <time>2021-10-13T11:47:18Z</time>
      </trkpt>
      <trkpt lat="41.6933190" lon="-5.7983170">
        <ele>702.2</ele>
        <time>2021-10-13T11:47:19Z</time>
      </trkpt>
      <trkpt lat="41.6932540" lon="-5.7983930">
        <ele>702.2</ele>
        <time>2021-10-13T11:47:21Z</time>
      </trkpt>
      <trkpt lat="41.6931890" lon="-5.7984750">
        <ele>702.4</ele>
        <time>2021-10-13T11:47:23Z</time>
      </trkpt>
      <trkpt lat="41.6930590" lon="-5.7986450">
        <ele>702.4</ele>
        <time>2021-10-13T11:47:27Z</time>
      </trkpt>
      <trkpt lat="41.6930250" lon="-5.7986890">
        <ele>702.4</ele>
        <time>2021-10-13T11:47:28Z</time>
      </trkpt>
      <trkpt lat="41.6928300" lon="-5.7989600">
        <ele>702.4</ele>
        <time>2021-10-13T11:47:34Z</time>
      </trkpt>
      <trkpt lat="41.6927950" lon="-5.7990030">
        <ele>702.4</ele>
        <time>2021-10-13T11:47:35Z</time>
      </trkpt>
      <trkpt lat="41.6926020" lon="-5.7992280">
        <ele>702.8</ele>
        <time>2021-10-13T11:47:41Z</time>
      </trkpt>
      <trkpt lat="41.6925410" lon="-5.7992920">
        <ele>703.0</ele>
        <time>2021-10-13T11:47:43Z</time>
      </trkpt>
      <trkpt lat="41.6924890" lon="-5.7993450">
        <ele>703.2</ele>
        <time>2021-10-13T11:47:45Z</time>
      </trkpt>
      <trkpt lat="41.6923800" lon="-5.7994620">
        <ele>703.8</ele>
        <time>2021-10-13T11:47:50Z</time>
      </trkpt>
      <trkpt lat="41.6923380" lon="-5.7995110">
        <ele>704.0</ele>
        <time>2021-10-13T11:47:52Z</time>
      </trkpt>
      <trkpt lat="41.6923160" lon="-5.7995350">
        <ele>704.0</ele>
        <time>2021-10-13T11:47:53Z</time>
      </trkpt>
      <trkpt lat="41.6922930" lon="-5.7995560">
        <ele>704.4</ele>
        <time>2021-10-13T11:47:54Z</time>
      </trkpt>
      <trkpt lat="41.6921930" lon="-5.7996520">
        <ele>705.2</ele>
        <time>2021-10-13T11:47:59Z</time>
      </trkpt>
      <trkpt lat="41.6921520" lon="-5.7996860">
        <ele>705.6</ele>
        <time>2021-10-13T11:48:01Z</time>
      </trkpt>
      <trkpt lat="41.6920600" lon="-5.7997670">
        <ele>706.2</ele>
        <time>2021-10-13T11:48:06Z</time>
      </trkpt>
      <trkpt lat="41.6920240" lon="-5.7998000">
        <ele>706.4</ele>
        <time>2021-10-13T11:48:08Z</time>
      </trkpt>
      <trkpt lat="41.6920030" lon="-5.7998180">
        <ele>706.8</ele>
        <time>2021-10-13T11:48:09Z</time>
      </trkpt>
      <trkpt lat="41.6919840" lon="-5.7998340">
        <ele>707.2</ele>
        <time>2021-10-13T11:48:10Z</time>
      </trkpt>
      <trkpt lat="41.6919640" lon="-5.7998500">
        <ele>707.2</ele>
        <time>2021-10-13T11:48:11Z</time>
      </trkpt>
      <trkpt lat="41.6919460" lon="-5.7998660">
        <ele>707.4</ele>
        <time>2021-10-13T11:48:12Z</time>
      </trkpt>
      <trkpt lat="41.6918730" lon="-5.7999380">
        <ele>707.8</ele>
        <time>2021-10-13T11:48:16Z</time>
      </trkpt>
      <trkpt lat="41.6918140" lon="-5.7999810">
        <ele>708.4</ele>
        <time>2021-10-13T11:48:19Z</time>
      </trkpt>
      <trkpt lat="41.6917940" lon="-5.7999970">
        <ele>708.4</ele>
        <time>2021-10-13T11:48:20Z</time>
      </trkpt>
      <trkpt lat="41.6917580" lon="-5.8000280">
        <ele>708.8</ele>
        <time>2021-10-13T11:48:22Z</time>
      </trkpt>
      <trkpt lat="41.6917210" lon="-5.8000550">
        <ele>708.8</ele>
        <time>2021-10-13T11:48:24Z</time>
      </trkpt>
      <trkpt lat="41.6917030" lon="-5.8000700">
        <ele>709.0</ele>
        <time>2021-10-13T11:48:25Z</time>
      </trkpt>
      <trkpt lat="41.6916650" lon="-5.8000980">
        <ele>709.2</ele>
        <time>2021-10-13T11:48:27Z</time>
      </trkpt>
      <trkpt lat="41.6916280" lon="-5.8001250">
        <ele>709.6</ele>
        <time>2021-10-13T11:48:29Z</time>
      </trkpt>
      <trkpt lat="41.6915660" lon="-5.8001690">
        <ele>710.0</ele>
        <time>2021-10-13T11:48:32Z</time>
      </trkpt>
      <trkpt lat="41.6915250" lon="-5.8001930">
        <ele>710.6</ele>
        <time>2021-10-13T11:48:34Z</time>
      </trkpt>
      <trkpt lat="41.6914850" lon="-5.8002210">
        <ele>710.8</ele>
        <time>2021-10-13T11:48:36Z</time>
      </trkpt>
      <trkpt lat="41.6914470" lon="-5.8002580">
        <ele>711.2</ele>
        <time>2021-10-13T11:48:38Z</time>
      </trkpt>
      <trkpt lat="41.6914110" lon="-5.8002870">
        <ele>711.4</ele>
        <time>2021-10-13T11:48:40Z</time>
      </trkpt>
      <trkpt lat="41.6913930" lon="-5.8002990">
        <ele>711.6</ele>
        <time>2021-10-13T11:48:41Z</time>
      </trkpt>
      <trkpt lat="41.6913600" lon="-5.8003240">
        <ele>711.8</ele>
        <time>2021-10-13T11:48:43Z</time>
      </trkpt>
      <trkpt lat="41.6913280" lon="-5.8003560">
        <ele>712.2</ele>
        <time>2021-10-13T11:48:45Z</time>
      </trkpt>
      <trkpt lat="41.6912530" lon="-5.8004110">
        <ele>712.8</ele>
        <time>2021-10-13T11:48:49Z</time>
      </trkpt>
      <trkpt lat="41.6912180" lon="-5.8004680">
        <ele>713.4</ele>
        <time>2021-10-13T11:48:52Z</time>
      </trkpt>
      <trkpt lat="41.6912220" lon="-5.8005970">
        <ele>713.8</ele>
        <time>2021-10-13T11:48:58Z</time>
      </trkpt>
      <trkpt lat="41.6912240" lon="-5.8006020">
        <ele>714.0</ele>
        <time>2021-10-13T11:49:01Z</time>
      </trkpt>
      <trkpt lat="41.6912380" lon="-5.8006420">
        <ele>714.6</ele>
        <time>2021-10-13T11:49:57Z</time>
      </trkpt>
      <trkpt lat="41.6912980" lon="-5.8008090">
        <ele>714.8</ele>
        <time>2021-10-13T11:50:02Z</time>
      </trkpt>
      <trkpt lat="41.6914050" lon="-5.8010180">
        <ele>714.4</ele>
        <time>2021-10-13T11:50:06Z</time>
      </trkpt>
      <trkpt lat="41.6914300" lon="-5.8010640">
        <ele>714.2</ele>
        <time>2021-10-13T11:50:07Z</time>
      </trkpt>
      <trkpt lat="41.6916300" lon="-5.8013710">
        <ele>713.6</ele>
        <time>2021-10-13T11:50:12Z</time>
      </trkpt>
      <trkpt lat="41.6917240" lon="-5.8015310">
        <ele>713.0</ele>
        <time>2021-10-13T11:50:14Z</time>
      </trkpt>
      <trkpt lat="41.6917860" lon="-5.8016890">
        <ele>711.8</ele>
        <time>2021-10-13T11:50:16Z</time>
      </trkpt>
      <trkpt lat="41.6917990" lon="-5.8017510">
        <ele>711.6</ele>
        <time>2021-10-13T11:50:17Z</time>
      </trkpt>
      <trkpt lat="41.6918040" lon="-5.8018240">
        <ele>711.0</ele>
        <time>2021-10-13T11:50:18Z</time>
      </trkpt>
      <trkpt lat="41.6917850" lon="-5.8019550">
        <ele>710.2</ele>
        <time>2021-10-13T11:50:20Z</time>
      </trkpt>
      <trkpt lat="41.6917390" lon="-5.8020540">
        <ele>709.4</ele>
        <time>2021-10-13T11:50:22Z</time>
      </trkpt>
      <trkpt lat="41.6916780" lon="-5.8021360">
        <ele>709.2</ele>
        <time>2021-10-13T11:50:24Z</time>
      </trkpt>
      <trkpt lat="41.6916490" lon="-5.8021670">
        <ele>709.2</ele>
        <time>2021-10-13T11:50:25Z</time>
      </trkpt>
      <trkpt lat="41.6915460" lon="-5.8022880">
        <ele>709.2</ele>
        <time>2021-10-13T11:50:29Z</time>
      </trkpt>
      <trkpt lat="41.6915190" lon="-5.8023190">
        <ele>709.4</ele>
        <time>2021-10-13T11:50:30Z</time>
      </trkpt>
      <trkpt lat="41.6913350" lon="-5.8025310">
        <ele>710.2</ele>
        <time>2021-10-13T11:50:37Z</time>
      </trkpt>
      <trkpt lat="41.6913120" lon="-5.8025590">
        <ele>710.4</ele>
        <time>2021-10-13T11:50:38Z</time>
      </trkpt>
      <trkpt lat="41.6911790" lon="-5.8027090">
        <ele>711.6</ele>
        <time>2021-10-13T11:50:44Z</time>
      </trkpt>
      <trkpt lat="41.6911590" lon="-5.8027320">
        <ele>711.8</ele>
        <time>2021-10-13T11:50:45Z</time>
      </trkpt>
      <trkpt lat="41.6910610" lon="-5.8028490">
        <ele>712.6</ele>
        <time>2021-10-13T11:50:50Z</time>
      </trkpt>
      <trkpt lat="41.6909910" lon="-5.8029280">
        <ele>713.4</ele>
        <time>2021-10-13T11:50:54Z</time>
      </trkpt>
      <trkpt lat="41.6909570" lon="-5.8029840">
        <ele>713.8</ele>
        <time>2021-10-13T11:50:56Z</time>
      </trkpt>
      <trkpt lat="41.6908820" lon="-5.8031390">
        <ele>714.6</ele>
        <time>2021-10-13T11:51:02Z</time>
      </trkpt>
      <trkpt lat="41.6908600" lon="-5.8031930">
        <ele>714.8</ele>
        <time>2021-10-13T11:51:04Z</time>
      </trkpt>
      <trkpt lat="41.6908470" lon="-5.8032470">
        <ele>715.0</ele>
        <time>2021-10-13T11:51:06Z</time>
      </trkpt>
      <trkpt lat="41.6908420" lon="-5.8033050">
        <ele>715.4</ele>
        <time>2021-10-13T11:51:08Z</time>
      </trkpt>
      <trkpt lat="41.6908430" lon="-5.8033330">
        <ele>715.6</ele>
        <time>2021-10-13T11:51:09Z</time>
      </trkpt>
      <trkpt lat="41.6908540" lon="-5.8033920">
        <ele>715.8</ele>
        <time>2021-10-13T11:51:11Z</time>
      </trkpt>
      <trkpt lat="41.6908810" lon="-5.8035250">
        <ele>715.8</ele>
        <time>2021-10-13T11:51:14Z</time>
      </trkpt>
      <trkpt lat="41.6909030" lon="-5.8036500">
        <ele>715.8</ele>
        <time>2021-10-13T11:51:16Z</time>
      </trkpt>
      <trkpt lat="41.6909350" lon="-5.8037890">
        <ele>715.8</ele>
        <time>2021-10-13T11:51:18Z</time>
      </trkpt>
      <trkpt lat="41.6909470" lon="-5.8038620">
        <ele>715.6</ele>
        <time>2021-10-13T11:51:19Z</time>
      </trkpt>
      <trkpt lat="41.6910040" lon="-5.8041890">
        <ele>714.4</ele>
        <time>2021-10-13T11:51:23Z</time>
      </trkpt>
      <trkpt lat="41.6910140" lon="-5.8042770">
        <ele>713.6</ele>
        <time>2021-10-13T11:51:24Z</time>
      </trkpt>
      <trkpt lat="41.6910260" lon="-5.8044430">
        <ele>712.6</ele>
        <time>2021-10-13T11:51:26Z</time>
      </trkpt>
      <trkpt lat="41.6910550" lon="-5.8047360">
        <ele>711.2</ele>
        <time>2021-10-13T11:51:29Z</time>
      </trkpt>
      <trkpt lat="41.6910610" lon="-5.8048240">
        <ele>711.0</ele>
        <time>2021-10-13T11:51:30Z</time>
      </trkpt>
      <trkpt lat="41.6910620" lon="-5.8049130">
        <ele>710.4</ele>
        <time>2021-10-13T11:51:31Z</time>
      </trkpt>
      <trkpt lat="41.6910560" lon="-5.8050080">
        <ele>709.8</ele>
        <time>2021-10-13T11:51:32Z</time>
      </trkpt>
      <trkpt lat="41.6910440" lon="-5.8051030">
        <ele>708.6</ele>
        <time>2021-10-13T11:51:33Z</time>
      </trkpt>
      <trkpt lat="41.6910250" lon="-5.8052630">
        <ele>707.4</ele>
        <time>2021-10-13T11:51:35Z</time>
      </trkpt>
      <trkpt lat="41.6910100" lon="-5.8055000">
        <ele>706.4</ele>
        <time>2021-10-13T11:51:38Z</time>
      </trkpt>
      <trkpt lat="41.6910050" lon="-5.8056210">
        <ele>705.4</ele>
        <time>2021-10-13T11:51:40Z</time>
      </trkpt>
      <trkpt lat="41.6910060" lon="-5.8057240">
        <ele>704.2</ele>
        <time>2021-10-13T11:51:42Z</time>
      </trkpt>
      <trkpt lat="41.6910160" lon="-5.8058340">
        <ele>703.4</ele>
        <time>2021-10-13T11:51:45Z</time>
      </trkpt>
      <trkpt lat="41.6910240" lon="-5.8058720">
        <ele>702.8</ele>
        <time>2021-10-13T11:51:46Z</time>
      </trkpt>
      <trkpt lat="41.6910760" lon="-5.8059420">
        <ele>701.6</ele>
        <time>2021-10-13T11:51:49Z</time>
      </trkpt>
      <trkpt lat="41.6911030" lon="-5.8059590">
        <ele>701.0</ele>
        <time>2021-10-13T11:51:53Z</time>
      </trkpt>
      <trkpt lat="41.6911520" lon="-5.8059840">
        <ele>700.8</ele>
        <time>2021-10-13T11:52:06Z</time>
      </trkpt>
      <trkpt lat="41.6911970" lon="-5.8059980">
        <ele>700.8</ele>
        <time>2021-10-13T11:52:08Z</time>
      </trkpt>
      <trkpt lat="41.6913200" lon="-5.8059720">
        <ele>700.8</ele>
        <time>2021-10-13T11:52:12Z</time>
      </trkpt>
      <trkpt lat="41.6914700" lon="-5.8059520">
        <ele>700.8</ele>
        <time>2021-10-13T11:52:16Z</time>
      </trkpt>
      <trkpt lat="41.6915190" lon="-5.8059450">
        <ele>700.6</ele>
        <time>2021-10-13T11:52:17Z</time>
      </trkpt>
      <trkpt lat="41.6916450" lon="-5.8059400">
        <ele>700.4</ele>
        <time>2021-10-13T11:52:20Z</time>
      </trkpt>
      <trkpt lat="41.6917650" lon="-5.8059730">
        <ele>700.0</ele>
        <time>2021-10-13T11:52:23Z</time>
      </trkpt>
      <trkpt lat="41.6919460" lon="-5.8060100">
        <ele>699.4</ele>
        <time>2021-10-13T11:52:28Z</time>
      </trkpt>
      <trkpt lat="41.6920190" lon="-5.8059990">
        <ele>699.4</ele>
        <time>2021-10-13T11:52:30Z</time>
      </trkpt>
      <trkpt lat="41.6922340" lon="-5.8059570">
        <ele>699.2</ele>
        <time>2021-10-13T11:52:35Z</time>
      </trkpt>
      <trkpt lat="41.6922770" lon="-5.8059420">
        <ele>699.2</ele>
        <time>2021-10-13T11:52:36Z</time>
      </trkpt>
      <trkpt lat="41.6923260" lon="-5.8059150">
        <ele>699.2</ele>
        <time>2021-10-13T11:52:37Z</time>
      </trkpt>
      <trkpt lat="41.6924540" lon="-5.8057890">
        <ele>699.4</ele>
        <time>2021-10-13T11:52:41Z</time>
      </trkpt>
      <trkpt lat="41.6925250" lon="-5.8057240">
        <ele>699.4</ele>
        <time>2021-10-13T11:52:43Z</time>
      </trkpt>
      <trkpt lat="41.6926430" lon="-5.8056450">
        <ele>699.4</ele>
        <time>2021-10-13T11:52:47Z</time>
      </trkpt>
      <trkpt lat="41.6928270" lon="-5.8056000">
        <ele>699.6</ele>
        <time>2021-10-13T11:52:53Z</time>
      </trkpt>
      <trkpt lat="41.6928920" lon="-5.8055950">
        <ele>699.8</ele>
        <time>2021-10-13T11:52:55Z</time>
      </trkpt>
      <trkpt lat="41.6929590" lon="-5.8055790">
        <ele>700.2</ele>
        <time>2021-10-13T11:52:57Z</time>
      </trkpt>
      <trkpt lat="41.6930250" lon="-5.8055680">
        <ele>700.4</ele>
        <time>2021-10-13T11:52:59Z</time>
      </trkpt>
      <trkpt lat="41.6931280" lon="-5.8055570">
        <ele>700.4</ele>
        <time>2021-10-13T11:53:02Z</time>
      </trkpt>
      <trkpt lat="41.6931620" lon="-5.8055500">
        <ele>700.4</ele>
        <time>2021-10-13T11:53:03Z</time>
      </trkpt>
      <trkpt lat="41.6932720" lon="-5.8055370">
        <ele>700.6</ele>
        <time>2021-10-13T11:53:06Z</time>
      </trkpt>
      <trkpt lat="41.6933500" lon="-5.8055270">
        <ele>700.6</ele>
        <time>2021-10-13T11:53:08Z</time>
      </trkpt>
      <trkpt lat="41.6935030" lon="-5.8055040">
        <ele>700.6</ele>
        <time>2021-10-13T11:53:12Z</time>
      </trkpt>
      <trkpt lat="41.6937530" lon="-5.8054590">
        <ele>700.6</ele>
        <time>2021-10-13T11:53:18Z</time>
      </trkpt>
      <trkpt lat="41.6938830" lon="-5.8054360">
        <ele>700.6</ele>
        <time>2021-10-13T11:53:21Z</time>
      </trkpt>
      <trkpt lat="41.6942000" lon="-5.8053810">
        <ele>700.4</ele>
        <time>2021-10-13T11:53:28Z</time>
      </trkpt>
      <trkpt lat="41.6943260" lon="-5.8053490">
        <ele>700.2</ele>
        <time>2021-10-13T11:53:31Z</time>
      </trkpt>
      <trkpt lat="41.6943560" lon="-5.8053420">
        <ele>700.2</ele>
        <time>2021-10-13T11:53:32Z</time>
      </trkpt>
      <trkpt lat="41.6946110" lon="-5.8053270">
        <ele>699.8</ele>
        <time>2021-10-13T11:53:39Z</time>
      </trkpt>
      <trkpt lat="41.6947300" lon="-5.8053740">
        <ele>700.0</ele>
        <time>2021-10-13T11:53:44Z</time>
      </trkpt>
      <trkpt lat="41.6947650" lon="-5.8054220">
        <ele>700.0</ele>
        <time>2021-10-13T11:53:49Z</time>
      </trkpt>
      <trkpt lat="41.6947150" lon="-5.8053710">
        <ele>699.4</ele>
        <time>2021-10-13T11:55:28Z</time>
      </trkpt>
      <trkpt lat="41.6946660" lon="-5.8053430">
        <ele>699.2</ele>
        <time>2021-10-13T11:55:30Z</time>
      </trkpt>
      <trkpt lat="41.6945660" lon="-5.8053170">
        <ele>699.2</ele>
        <time>2021-10-13T11:55:33Z</time>
      </trkpt>
      <trkpt lat="41.6944990" lon="-5.8053110">
        <ele>699.4</ele>
        <time>2021-10-13T11:55:35Z</time>
      </trkpt>
      <trkpt lat="41.6943670" lon="-5.8053310">
        <ele>699.8</ele>
        <time>2021-10-13T11:55:40Z</time>
      </trkpt>
      <trkpt lat="41.6943460" lon="-5.8053360">
        <ele>699.8</ele>
        <time>2021-10-13T11:55:41Z</time>
      </trkpt>
      <trkpt lat="41.6942160" lon="-5.8053760">
        <ele>700.0</ele>
        <time>2021-10-13T11:55:46Z</time>
      </trkpt>
      <trkpt lat="41.6941560" lon="-5.8053920">
        <ele>700.0</ele>
        <time>2021-10-13T11:55:48Z</time>
      </trkpt>
      <trkpt lat="41.6939120" lon="-5.8054300">
        <ele>700.2</ele>
        <time>2021-10-13T11:55:55Z</time>
      </trkpt>
      <trkpt lat="41.6936000" lon="-5.8054820">
        <ele>700.4</ele>
        <time>2021-10-13T11:56:04Z</time>
      </trkpt>
      <trkpt lat="41.6934780" lon="-5.8055060">
        <ele>700.6</ele>
        <time>2021-10-13T11:56:07Z</time>
      </trkpt>
      <trkpt lat="41.6932620" lon="-5.8055370">
        <ele>700.8</ele>
        <time>2021-10-13T11:56:13Z</time>
      </trkpt>
      <trkpt lat="41.6927970" lon="-5.8056250">
        <ele>701.4</ele>
        <time>2021-10-13T11:56:25Z</time>
      </trkpt>
      <trkpt lat="41.6924780" lon="-5.8057740">
        <ele>701.2</ele>
        <time>2021-10-13T11:56:32Z</time>
      </trkpt>
      <trkpt lat="41.6922790" lon="-5.8059610">
        <ele>700.2</ele>
        <time>2021-10-13T11:56:37Z</time>
      </trkpt>
      <trkpt lat="41.6922360" lon="-5.8059830">
        <ele>700.2</ele>
        <time>2021-10-13T11:56:38Z</time>
      </trkpt>
      <trkpt lat="41.6921910" lon="-5.8059970">
        <ele>700.0</ele>
        <time>2021-10-13T11:56:39Z</time>
      </trkpt>
      <trkpt lat="41.6920570" lon="-5.8060010">
        <ele>700.2</ele>
        <time>2021-10-13T11:56:42Z</time>
      </trkpt>
      <trkpt lat="41.6920150" lon="-5.8060020">
        <ele>700.2</ele>
        <time>2021-10-13T11:56:43Z</time>
      </trkpt>
      <trkpt lat="41.6918980" lon="-5.8060140">
        <ele>700.2</ele>
        <time>2021-10-13T11:56:46Z</time>
      </trkpt>
      <trkpt lat="41.6917620" lon="-5.8059830">
        <ele>700.2</ele>
        <time>2021-10-13T11:56:50Z</time>
      </trkpt>
      <trkpt lat="41.6915980" lon="-5.8059310">
        <ele>700.0</ele>
        <time>2021-10-13T11:56:56Z</time>
      </trkpt>
      <trkpt lat="41.6914060" lon="-5.8059550">
        <ele>700.2</ele>
        <time>2021-10-13T11:57:02Z</time>
      </trkpt>
      <trkpt lat="41.6913550" lon="-5.8059550">
        <ele>700.2</ele>
        <time>2021-10-13T11:57:04Z</time>
      </trkpt>
      <trkpt lat="41.6912810" lon="-5.8059740">
        <ele>700.6</ele>
        <time>2021-10-13T11:57:08Z</time>
      </trkpt>
      <trkpt lat="41.6912620" lon="-5.8059910">
        <ele>700.8</ele>
        <time>2021-10-13T11:57:09Z</time>
      </trkpt>
      <trkpt lat="41.6912140" lon="-5.8060640">
        <ele>700.8</ele>
        <time>2021-10-13T11:57:13Z</time>
      </trkpt>
      <trkpt lat="41.6911420" lon="-5.8062090">
        <ele>700.6</ele>
        <time>2021-10-13T11:57:18Z</time>
      </trkpt>
      <trkpt lat="41.6911220" lon="-5.8062470">
        <ele>700.6</ele>
        <time>2021-10-13T11:57:19Z</time>
      </trkpt>
      <trkpt lat="41.6910620" lon="-5.8063550">
        <ele>700.6</ele>
        <time>2021-10-13T11:57:22Z</time>
      </trkpt>
      <trkpt lat="41.6910100" lon="-5.8064440">
        <ele>700.6</ele>
        <time>2021-10-13T11:57:25Z</time>
      </trkpt>
      <trkpt lat="41.6909250" lon="-5.8065570">
        <ele>700.6</ele>
        <time>2021-10-13T11:57:30Z</time>
      </trkpt>
      <trkpt lat="41.6908720" lon="-5.8066400">
        <ele>700.6</ele>
        <time>2021-10-13T11:57:33Z</time>
      </trkpt>
      <trkpt lat="41.6907840" lon="-5.8067720">
        <ele>700.8</ele>
        <time>2021-10-13T11:57:38Z</time>
      </trkpt>
      <trkpt lat="41.6907420" lon="-5.8068400">
        <ele>700.8</ele>
        <time>2021-10-13T11:57:41Z</time>
      </trkpt>
      <trkpt lat="41.6907420" lon="-5.8068400">
        <ele>700.8</ele>
        <time>2021-10-13T11:57:42Z</time>
      </trkpt>
      <trkpt lat="41.6907230" lon="-5.8068560">
        <ele>701.2</ele>
        <time>2021-10-13T11:58:22Z</time>
      </trkpt>
      <trkpt lat="41.6907030" lon="-5.8068800">
        <ele>701.2</ele>
        <time>2021-10-13T11:58:23Z</time>
      </trkpt>
      <trkpt lat="41.6906870" lon="-5.8069000">
        <ele>701.2</ele>
        <time>2021-10-13T11:58:24Z</time>
      </trkpt>
      <trkpt lat="41.6905280" lon="-5.8070620">
        <ele>701.4</ele>
        <time>2021-10-13T11:58:31Z</time>
      </trkpt>
      <trkpt lat="41.6904180" lon="-5.8071680">
        <ele>701.6</ele>
        <time>2021-10-13T11:58:35Z</time>
      </trkpt>
      <trkpt lat="41.6903580" lon="-5.8072190">
        <ele>701.6</ele>
        <time>2021-10-13T11:58:37Z</time>
      </trkpt>
      <trkpt lat="41.6901430" lon="-5.8073790">
        <ele>701.8</ele>
        <time>2021-10-13T11:58:44Z</time>
      </trkpt>
      <trkpt lat="41.6898750" lon="-5.8075470">
        <ele>702.0</ele>
        <time>2021-10-13T11:58:52Z</time>
      </trkpt>
      <trkpt lat="41.6898440" lon="-5.8075730">
        <ele>702.0</ele>
        <time>2021-10-13T11:58:53Z</time>
      </trkpt>
      <trkpt lat="41.6897280" lon="-5.8077620">
        <ele>702.0</ele>
        <time>2021-10-13T11:58:58Z</time>
      </trkpt>
      <trkpt lat="41.6896310" lon="-5.8080120">
        <ele>702.4</ele>
        <time>2021-10-13T11:59:04Z</time>
      </trkpt>
      <trkpt lat="41.6896010" lon="-5.8081490">
        <ele>702.6</ele>
        <time>2021-10-13T11:59:07Z</time>
      </trkpt>
      <trkpt lat="41.6896020" lon="-5.8082910">
        <ele>702.8</ele>
        <time>2021-10-13T11:59:10Z</time>
      </trkpt>
      <trkpt lat="41.6896330" lon="-5.8084200">
        <ele>703.2</ele>
        <time>2021-10-13T11:59:13Z</time>
      </trkpt>
      <trkpt lat="41.6897020" lon="-5.8085840">
        <ele>703.4</ele>
        <time>2021-10-13T11:59:17Z</time>
      </trkpt>
      <trkpt lat="41.6897440" lon="-5.8086700">
        <ele>703.6</ele>
        <time>2021-10-13T11:59:19Z</time>
      </trkpt>
      <trkpt lat="41.6898170" lon="-5.8088090">
        <ele>703.8</ele>
        <time>2021-10-13T11:59:22Z</time>
      </trkpt>
      <trkpt lat="41.6898640" lon="-5.8089150">
        <ele>703.8</ele>
        <time>2021-10-13T11:59:24Z</time>
      </trkpt>
      <trkpt lat="41.6899100" lon="-5.8090200">
        <ele>703.6</ele>
        <time>2021-10-13T11:59:26Z</time>
      </trkpt>
      <trkpt lat="41.6899980" lon="-5.8091660">
        <ele>703.4</ele>
        <time>2021-10-13T11:59:29Z</time>
      </trkpt>
      <trkpt lat="41.6901540" lon="-5.8093890">
        <ele>703.0</ele>
        <time>2021-10-13T11:59:34Z</time>
      </trkpt>
      <trkpt lat="41.6901690" lon="-5.8094400">
        <ele>702.8</ele>
        <time>2021-10-13T11:59:35Z</time>
      </trkpt>
      <trkpt lat="41.6901770" lon="-5.8094910">
        <ele>702.8</ele>
        <time>2021-10-13T11:59:36Z</time>
      </trkpt>
      <trkpt lat="41.6901650" lon="-5.8095820">
        <ele>702.6</ele>
        <time>2021-10-13T11:59:38Z</time>
      </trkpt>
      <trkpt lat="41.6901460" lon="-5.8096150">
        <ele>702.4</ele>
        <time>2021-10-13T11:59:39Z</time>
      </trkpt>
      <trkpt lat="41.6900720" lon="-5.8096840">
        <ele>702.0</ele>
        <time>2021-10-13T11:59:42Z</time>
      </trkpt>
      <trkpt lat="41.6899170" lon="-5.8098330">
        <ele>701.8</ele>
        <time>2021-10-13T11:59:48Z</time>
      </trkpt>
      <trkpt lat="41.6898900" lon="-5.8098550">
        <ele>701.8</ele>
        <time>2021-10-13T11:59:49Z</time>
      </trkpt>
      <trkpt lat="41.6897100" lon="-5.8100020">
        <ele>701.8</ele>
        <time>2021-10-13T11:59:55Z</time>
      </trkpt>
      <trkpt lat="41.6895180" lon="-5.8101670">
        <ele>701.8</ele>
        <time>2021-10-13T12:00:01Z</time>
      </trkpt>
      <trkpt lat="41.6894790" lon="-5.8102030">
        <ele>701.8</ele>
        <time>2021-10-13T12:00:02Z</time>
      </trkpt>
      <trkpt lat="41.6892710" lon="-5.8104060">
        <ele>702.0</ele>
        <time>2021-10-13T12:00:09Z</time>
      </trkpt>
      <trkpt lat="41.6890870" lon="-5.8105890">
        <ele>702.2</ele>
        <time>2021-10-13T12:00:15Z</time>
      </trkpt>
      <trkpt lat="41.6889960" lon="-5.8106920">
        <ele>702.2</ele>
        <time>2021-10-13T12:00:18Z</time>
      </trkpt>
      <trkpt lat="41.6889170" lon="-5.8107910">
        <ele>702.4</ele>
        <time>2021-10-13T12:00:21Z</time>
      </trkpt>
      <trkpt lat="41.6888120" lon="-5.8109220">
        <ele>702.8</ele>
        <time>2021-10-13T12:00:25Z</time>
      </trkpt>
      <trkpt lat="41.6886170" lon="-5.8111660">
        <ele>703.6</ele>
        <time>2021-10-13T12:00:33Z</time>
      </trkpt>
      <trkpt lat="41.6885640" lon="-5.8112400">
        <ele>703.8</ele>
        <time>2021-10-13T12:00:35Z</time>
      </trkpt>
      <trkpt lat="41.6882710" lon="-5.8116130">
        <ele>704.2</ele>
        <time>2021-10-13T12:00:46Z</time>
      </trkpt>
      <trkpt lat="41.6881380" lon="-5.8117960">
        <ele>704.8</ele>
        <time>2021-10-13T12:00:53Z</time>
      </trkpt>
      <trkpt lat="41.6879250" lon="-5.8121090">
        <ele>705.8</ele>
        <time>2021-10-13T12:01:02Z</time>
      </trkpt>
      <trkpt lat="41.6878880" lon="-5.8121680">
        <ele>706.0</ele>
        <time>2021-10-13T12:01:04Z</time>
      </trkpt>
      <trkpt lat="41.6877230" lon="-5.8124050">
        <ele>706.8</ele>
        <time>2021-10-13T12:01:13Z</time>
      </trkpt>
      <trkpt lat="41.6876810" lon="-5.8124580">
        <ele>706.8</ele>
        <time>2021-10-13T12:01:15Z</time>
      </trkpt>
      <trkpt lat="41.6875250" lon="-5.8126740">
        <ele>707.2</ele>
        <time>2021-10-13T12:01:21Z</time>
      </trkpt>
      <trkpt lat="41.6873750" lon="-5.8128240">
        <ele>707.4</ele>
        <time>2021-10-13T12:01:27Z</time>
      </trkpt>
      <trkpt lat="41.6872940" lon="-5.8129000">
        <ele>707.4</ele>
        <time>2021-10-13T12:01:30Z</time>
      </trkpt>
      <trkpt lat="41.6871780" lon="-5.8130090">
        <ele>707.4</ele>
        <time>2021-10-13T12:01:34Z</time>
      </trkpt>
      <trkpt lat="41.6871210" lon="-5.8130650">
        <ele>707.4</ele>
        <time>2021-10-13T12:01:36Z</time>
      </trkpt>
      <trkpt lat="41.6870520" lon="-5.8131160">
        <ele>707.4</ele>
        <time>2021-10-13T12:01:38Z</time>
      </trkpt>
      <trkpt lat="41.6869660" lon="-5.8131760">
        <ele>707.4</ele>
        <time>2021-10-13T12:01:41Z</time>
      </trkpt>
      <trkpt lat="41.6869110" lon="-5.8132240">
        <ele>707.4</ele>
        <time>2021-10-13T12:01:43Z</time>
      </trkpt>
      <trkpt lat="41.6867650" lon="-5.8133720">
        <ele>707.6</ele>
        <time>2021-10-13T12:01:49Z</time>
      </trkpt>
      <trkpt lat="41.6866130" lon="-5.8136590">
        <ele>707.8</ele>
        <time>2021-10-13T12:01:57Z</time>
      </trkpt>
      <trkpt lat="41.6865950" lon="-5.8137030">
        <ele>708.0</ele>
        <time>2021-10-13T12:01:59Z</time>
      </trkpt>
      <trkpt lat="41.6865140" lon="-5.8139050">
        <ele>708.4</ele>
        <time>2021-10-13T12:02:04Z</time>
      </trkpt>
      <trkpt lat="41.6863350" lon="-5.8141040">
        <ele>708.8</ele>
        <time>2021-10-13T12:02:10Z</time>
      </trkpt>
      <trkpt lat="41.6862300" lon="-5.8141440">
        <ele>708.8</ele>
        <time>2021-10-13T12:02:13Z</time>
      </trkpt>
      <trkpt lat="41.6860210" lon="-5.8142000">
        <ele>709.8</ele>
        <time>2021-10-13T12:02:20Z</time>
      </trkpt>
      <trkpt lat="41.6859860" lon="-5.8142160">
        <ele>710.0</ele>
        <time>2021-10-13T12:02:24Z</time>
      </trkpt>
      <trkpt lat="41.6859760" lon="-5.8141600">
        <ele>709.8</ele>
        <time>2021-10-13T12:02:31Z</time>
      </trkpt>
      <trkpt lat="41.6859800" lon="-5.8140950">
        <ele>709.8</ele>
        <time>2021-10-13T12:02:33Z</time>
      </trkpt>
      <trkpt lat="41.6860230" lon="-5.8139160">
        <ele>709.8</ele>
        <time>2021-10-13T12:02:37Z</time>
      </trkpt>
      <trkpt lat="41.6860540" lon="-5.8136460">
        <ele>709.4</ele>
        <time>2021-10-13T12:02:43Z</time>
      </trkpt>
      <trkpt lat="41.6860190" lon="-5.8133820">
        <ele>709.0</ele>
        <time>2021-10-13T12:02:49Z</time>
      </trkpt>
      <trkpt lat="41.6860080" lon="-5.8133410">
        <ele>709.0</ele>
        <time>2021-10-13T12:02:50Z</time>
      </trkpt>
      <trkpt lat="41.6859660" lon="-5.8131720">
        <ele>709.2</ele>
        <time>2021-10-13T12:02:55Z</time>
      </trkpt>
      <trkpt lat="41.6859570" lon="-5.8131470">
        <ele>709.2</ele>
        <time>2021-10-13T12:02:56Z</time>
      </trkpt>
      <trkpt lat="41.6859200" lon="-5.8130550">
        <ele>709.6</ele>
        <time>2021-10-13T12:03:00Z</time>
      </trkpt>
      <trkpt lat="41.6858970" lon="-5.8130030">
        <ele>709.8</ele>
        <time>2021-10-13T12:03:03Z</time>
      </trkpt>
      <trkpt lat="41.6858130" lon="-5.8128720">
        <ele>710.8</ele>
        <time>2021-10-13T12:03:09Z</time>
      </trkpt>
      <trkpt lat="41.6857970" lon="-5.8128520">
        <ele>711.0</ele>
        <time>2021-10-13T12:03:10Z</time>
      </trkpt>
      <trkpt lat="41.6857750" lon="-5.8128050">
        <ele>711.2</ele>
        <time>2021-10-13T12:03:12Z</time>
      </trkpt>
      <trkpt lat="41.6857410" lon="-5.8127360">
        <ele>712.0</ele>
        <time>2021-10-13T12:03:15Z</time>
      </trkpt>
      <trkpt lat="41.6856910" lon="-5.8126620">
        <ele>712.8</ele>
        <time>2021-10-13T12:03:19Z</time>
      </trkpt>
      <trkpt lat="41.6856710" lon="-5.8126280">
        <ele>713.2</ele>
        <time>2021-10-13T12:03:21Z</time>
      </trkpt>
      <trkpt lat="41.6856370" lon="-5.8125530">
        <ele>713.8</ele>
        <time>2021-10-13T12:03:25Z</time>
      </trkpt>
      <trkpt lat="41.6856060" lon="-5.8125040">
        <ele>714.4</ele>
        <time>2021-10-13T12:03:28Z</time>
      </trkpt>
      <trkpt lat="41.6855610" lon="-5.8124290">
        <ele>715.2</ele>
        <time>2021-10-13T12:03:32Z</time>
      </trkpt>
      <trkpt lat="41.6855350" lon="-5.8123720">
        <ele>715.6</ele>
        <time>2021-10-13T12:03:35Z</time>
      </trkpt>
      <trkpt lat="41.6854840" lon="-5.8122630">
        <ele>716.6</ele>
        <time>2021-10-13T12:03:41Z</time>
      </trkpt>
      <trkpt lat="41.6854340" lon="-5.8121790">
        <ele>717.4</ele>
        <time>2021-10-13T12:03:46Z</time>
      </trkpt>
      <trkpt lat="41.6854080" lon="-5.8121380">
        <ele>717.8</ele>
        <time>2021-10-13T12:03:48Z</time>
      </trkpt>
      <trkpt lat="41.6853860" lon="-5.8121000">
        <ele>718.2</ele>
        <time>2021-10-13T12:03:50Z</time>
      </trkpt>
      <trkpt lat="41.6853620" lon="-5.8120550">
        <ele>718.4</ele>
        <time>2021-10-13T12:03:52Z</time>
      </trkpt>
      <trkpt lat="41.6853420" lon="-5.8120170">
        <ele>718.6</ele>
        <time>2021-10-13T12:03:54Z</time>
      </trkpt>
      <trkpt lat="41.6853130" lon="-5.8119720">
        <ele>718.8</ele>
        <time>2021-10-13T12:03:56Z</time>
      </trkpt>
      <trkpt lat="41.6852970" lon="-5.8119520">
        <ele>718.8</ele>
        <time>2021-10-13T12:03:57Z</time>
      </trkpt>
      <trkpt lat="41.6852830" lon="-5.8119310">
        <ele>718.8</ele>
        <time>2021-10-13T12:03:58Z</time>
      </trkpt>
      <trkpt lat="41.6852700" lon="-5.8119090">
        <ele>719.0</ele>
        <time>2021-10-13T12:03:59Z</time>
      </trkpt>
      <trkpt lat="41.6852580" lon="-5.8118890">
        <ele>719.0</ele>
        <time>2021-10-13T12:04:00Z</time>
      </trkpt>
      <trkpt lat="41.6852350" lon="-5.8118460">
        <ele>719.2</ele>
        <time>2021-10-13T12:04:02Z</time>
      </trkpt>
      <trkpt lat="41.6852090" lon="-5.8118070">
        <ele>719.6</ele>
        <time>2021-10-13T12:04:04Z</time>
      </trkpt>
      <trkpt lat="41.6851970" lon="-5.8117860">
        <ele>719.8</ele>
        <time>2021-10-13T12:04:05Z</time>
      </trkpt>
      <trkpt lat="41.6851880" lon="-5.8117660">
        <ele>720.0</ele>
        <time>2021-10-13T12:04:06Z</time>
      </trkpt>
      <trkpt lat="41.6851380" lon="-5.8116620">
        <ele>720.4</ele>
        <time>2021-10-13T12:04:11Z</time>
      </trkpt>
      <trkpt lat="41.6851320" lon="-5.8116390">
        <ele>720.6</ele>
        <time>2021-10-13T12:04:12Z</time>
      </trkpt>
      <trkpt lat="41.6851280" lon="-5.8116170">
        <ele>720.8</ele>
        <time>2021-10-13T12:04:13Z</time>
      </trkpt>
      <trkpt lat="41.6851050" lon="-5.8115510">
        <ele>721.0</ele>
        <time>2021-10-13T12:04:16Z</time>
      </trkpt>
      <trkpt lat="41.6850970" lon="-5.8115300">
        <ele>721.2</ele>
        <time>2021-10-13T12:04:17Z</time>
      </trkpt>
      <trkpt lat="41.6850880" lon="-5.8115070">
        <ele>721.2</ele>
        <time>2021-10-13T12:04:18Z</time>
      </trkpt>
      <trkpt lat="41.6850670" lon="-5.8114340">
        <ele>721.6</ele>
        <time>2021-10-13T12:04:21Z</time>
      </trkpt>
      <trkpt lat="41.6850670" lon="-5.8114340">
        <ele>721.8</ele>
        <time>2021-10-13T12:04:22Z</time>
      </trkpt>
      <trkpt lat="41.6850600" lon="-5.8113570">
        <ele>722.2</ele>
        <time>2021-10-13T12:04:24Z</time>
      </trkpt>
      <trkpt lat="41.6850550" lon="-5.8112550">
        <ele>722.8</ele>
        <time>2021-10-13T12:04:29Z</time>
      </trkpt>
      <trkpt lat="41.6850540" lon="-5.8112300">
        <ele>723.0</ele>
        <time>2021-10-13T12:04:30Z</time>
      </trkpt>
      <trkpt lat="41.6850530" lon="-5.8112080">
        <ele>723.0</ele>
        <time>2021-10-13T12:04:31Z</time>
      </trkpt>
      <trkpt lat="41.6850530" lon="-5.8111840">
        <ele>723.2</ele>
        <time>2021-10-13T12:04:32Z</time>
      </trkpt>
      <trkpt lat="41.6850510" lon="-5.8111360">
        <ele>723.6</ele>
        <time>2021-10-13T12:04:34Z</time>
      </trkpt>
      <trkpt lat="41.6850450" lon="-5.8110710">
        <ele>724.0</ele>
        <time>2021-10-13T12:04:37Z</time>
      </trkpt>
      <trkpt lat="41.6850370" lon="-5.8110290">
        <ele>724.2</ele>
        <time>2021-10-13T12:04:39Z</time>
      </trkpt>
      <trkpt lat="41.6850320" lon="-5.8109820">
        <ele>724.6</ele>
        <time>2021-10-13T12:04:41Z</time>
      </trkpt>
      <trkpt lat="41.6850080" lon="-5.8108760">
        <ele>725.4</ele>
        <time>2021-10-13T12:04:46Z</time>
      </trkpt>
      <trkpt lat="41.6849850" lon="-5.8108050">
        <ele>725.6</ele>
        <time>2021-10-13T12:04:49Z</time>
      </trkpt>
      <trkpt lat="41.6849040" lon="-5.8105370">
        <ele>726.0</ele>
        <time>2021-10-13T12:04:59Z</time>
      </trkpt>
      <trkpt lat="41.6848780" lon="-5.8104260">
        <ele>726.2</ele>
        <time>2021-10-13T12:05:03Z</time>
      </trkpt>
      <trkpt lat="41.6848620" lon="-5.8103740">
        <ele>726.4</ele>
        <time>2021-10-13T12:05:05Z</time>
      </trkpt>
      <trkpt lat="41.6848350" lon="-5.8102680">
        <ele>726.8</ele>
        <time>2021-10-13T12:05:09Z</time>
      </trkpt>
      <trkpt lat="41.6847710" lon="-5.8100830">
        <ele>727.6</ele>
        <time>2021-10-13T12:05:16Z</time>
      </trkpt>
      <trkpt lat="41.6847590" lon="-5.8100560">
        <ele>727.8</ele>
        <time>2021-10-13T12:05:17Z</time>
      </trkpt>
      <trkpt lat="41.6847490" lon="-5.8100270">
        <ele>727.8</ele>
        <time>2021-10-13T12:05:18Z</time>
      </trkpt>
      <trkpt lat="41.6847370" lon="-5.8099930">
        <ele>728.0</ele>
        <time>2021-10-13T12:05:20Z</time>
      </trkpt>
      <trkpt lat="41.6846960" lon="-5.8098860">
        <ele>728.0</ele>
        <time>2021-10-13T12:05:22Z</time>
      </trkpt>
      <trkpt lat="41.6846870" lon="-5.8098550">
        <ele>728.0</ele>
        <time>2021-10-13T12:05:23Z</time>
      </trkpt>
      <trkpt lat="41.6846480" lon="-5.8097460">
        <ele>728.0</ele>
        <time>2021-10-13T12:05:26Z</time>
      </trkpt>
      <trkpt lat="41.6846370" lon="-5.8097090">
        <ele>728.0</ele>
        <time>2021-10-13T12:05:27Z</time>
      </trkpt>
      <trkpt lat="41.6845900" lon="-5.8095230">
        <ele>728.2</ele>
        <time>2021-10-13T12:05:32Z</time>
      </trkpt>
      <trkpt lat="41.6845830" lon="-5.8094860">
        <ele>728.2</ele>
        <time>2021-10-13T12:05:33Z</time>
      </trkpt>
      <trkpt lat="41.6845480" lon="-5.8092820">
        <ele>728.2</ele>
        <time>2021-10-13T12:05:39Z</time>
      </trkpt>
      <trkpt lat="41.6845330" lon="-5.8092180">
        <ele>728.2</ele>
        <time>2021-10-13T12:05:41Z</time>
      </trkpt>
      <trkpt lat="41.6845120" lon="-5.8090750">
        <ele>728.2</ele>
        <time>2021-10-13T12:05:45Z</time>
      </trkpt>
      <trkpt lat="41.6844620" lon="-5.8089150">
        <ele>728.2</ele>
        <time>2021-10-13T12:05:49Z</time>
      </trkpt>
      <trkpt lat="41.6843430" lon="-5.8087870">
        <ele>728.0</ele>
        <time>2021-10-13T12:05:53Z</time>
      </trkpt>
      <trkpt lat="41.6843060" lon="-5.8087610">
        <ele>728.0</ele>
        <time>2021-10-13T12:05:54Z</time>
      </trkpt>
      <trkpt lat="41.6842640" lon="-5.8087360">
        <ele>727.8</ele>
        <time>2021-10-13T12:05:55Z</time>
      </trkpt>
      <trkpt lat="41.6841650" lon="-5.8086980">
        <ele>727.4</ele>
        <time>2021-10-13T12:05:57Z</time>
      </trkpt>
      <trkpt lat="41.6841080" lon="-5.8086970">
        <ele>727.2</ele>
        <time>2021-10-13T12:05:58Z</time>
      </trkpt>
      <trkpt lat="41.6840480" lon="-5.8087120">
        <ele>726.6</ele>
        <time>2021-10-13T12:05:59Z</time>
      </trkpt>
      <trkpt lat="41.6839870" lon="-5.8087340">
        <ele>726.2</ele>
        <time>2021-10-13T12:06:00Z</time>
      </trkpt>
      <trkpt lat="41.6838610" lon="-5.8087820">
        <ele>725.2</ele>
        <time>2021-10-13T12:06:02Z</time>
      </trkpt>
      <trkpt lat="41.6837600" lon="-5.8088300">
        <ele>724.8</ele>
        <time>2021-10-13T12:06:03Z</time>
      </trkpt>
      <trkpt lat="41.6836590" lon="-5.8088780">
        <ele>724.2</ele>
        <time>2021-10-13T12:06:05Z</time>
      </trkpt>
      <trkpt lat="41.6835510" lon="-5.8089440">
        <ele>723.2</ele>
        <time>2021-10-13T12:06:07Z</time>
      </trkpt>
      <trkpt lat="41.6834940" lon="-5.8089790">
        <ele>722.8</ele>
        <time>2021-10-13T12:06:08Z</time>
      </trkpt>
      <trkpt lat="41.6833250" lon="-5.8090700">
        <ele>722.0</ele>
        <time>2021-10-13T12:06:11Z</time>
      </trkpt>
      <trkpt lat="41.6832380" lon="-5.8091110">
        <ele>721.8</ele>
        <time>2021-10-13T12:06:13Z</time>
      </trkpt>
      <trkpt lat="41.6831150" lon="-5.8091560">
        <ele>721.6</ele>
        <time>2021-10-13T12:06:16Z</time>
      </trkpt>
      <trkpt lat="41.6830050" lon="-5.8091940">
        <ele>721.4</ele>
        <time>2021-10-13T12:06:19Z</time>
      </trkpt>
      <trkpt lat="41.6827070" lon="-5.8093130">
        <ele>721.4</ele>
        <time>2021-10-13T12:06:28Z</time>
      </trkpt>
      <trkpt lat="41.6825600" lon="-5.8093600">
        <ele>721.4</ele>
        <time>2021-10-13T12:06:32Z</time>
      </trkpt>
      <trkpt lat="41.6824150" lon="-5.8093940">
        <ele>721.4</ele>
        <time>2021-10-13T12:06:36Z</time>
      </trkpt>
      <trkpt lat="41.6823540" lon="-5.8094160">
        <ele>721.6</ele>
        <time>2021-10-13T12:06:38Z</time>
      </trkpt>
      <trkpt lat="41.6823250" lon="-5.8094260">
        <ele>721.8</ele>
        <time>2021-10-13T12:06:39Z</time>
      </trkpt>
      <trkpt lat="41.6821810" lon="-5.8094460">
        <ele>722.2</ele>
        <time>2021-10-13T12:06:44Z</time>
      </trkpt>
      <trkpt lat="41.6821100" lon="-5.8094180">
        <ele>722.6</ele>
        <time>2021-10-13T12:06:47Z</time>
      </trkpt>
      <trkpt lat="41.6820660" lon="-5.8093890">
        <ele>723.0</ele>
        <time>2021-10-13T12:06:49Z</time>
      </trkpt>
      <trkpt lat="41.6820440" lon="-5.8093760">
        <ele>723.2</ele>
        <time>2021-10-13T12:06:50Z</time>
      </trkpt>
      <trkpt lat="41.6819700" lon="-5.8093440">
        <ele>723.4</ele>
        <time>2021-10-13T12:06:53Z</time>
      </trkpt>
      <trkpt lat="41.6818860" lon="-5.8093130">
        <ele>723.6</ele>
        <time>2021-10-13T12:06:57Z</time>
      </trkpt>
      <trkpt lat="41.6817700" lon="-5.8092390">
        <ele>723.8</ele>
        <time>2021-10-13T12:07:04Z</time>
      </trkpt>
      <trkpt lat="41.6816410" lon="-5.8092660">
        <ele>723.6</ele>
        <time>2021-10-13T12:07:10Z</time>
      </trkpt>
      <trkpt lat="41.6815940" lon="-5.8092710">
        <ele>723.4</ele>
        <time>2021-10-13T12:07:13Z</time>
      </trkpt>
      <trkpt lat="41.6815900" lon="-5.8092710">
        <ele>723.4</ele>
        <time>2021-10-13T12:07:15Z</time>
      </trkpt>
      <trkpt lat="41.6815160" lon="-5.8092630">
        <ele>723.2</ele>
        <time>2021-10-13T12:07:26Z</time>
      </trkpt>
      <trkpt lat="41.6814620" lon="-5.8092650">
        <ele>723.2</ele>
        <time>2021-10-13T12:07:28Z</time>
      </trkpt>
      <trkpt lat="41.6812510" lon="-5.8092870">
        <ele>723.2</ele>
        <time>2021-10-13T12:07:33Z</time>
      </trkpt>
      <trkpt lat="41.6809740" lon="-5.8093100">
        <ele>722.0</ele>
        <time>2021-10-13T12:07:38Z</time>
      </trkpt>
      <trkpt lat="41.6809100" lon="-5.8093120">
        <ele>721.6</ele>
        <time>2021-10-13T12:07:39Z</time>
      </trkpt>
      <trkpt lat="41.6806970" lon="-5.8093120">
        <ele>721.0</ele>
        <time>2021-10-13T12:07:42Z</time>
      </trkpt>
      <trkpt lat="41.6805700" lon="-5.8093050">
        <ele>720.4</ele>
        <time>2021-10-13T12:07:44Z</time>
      </trkpt>
      <trkpt lat="41.6805020" lon="-5.8093100">
        <ele>720.0</ele>
        <time>2021-10-13T12:07:45Z</time>
      </trkpt>
      <trkpt lat="41.6804210" lon="-5.8093110">
        <ele>719.8</ele>
        <time>2021-10-13T12:07:46Z</time>
      </trkpt>
      <trkpt lat="41.6802260" lon="-5.8093260">
        <ele>718.8</ele>
        <time>2021-10-13T12:07:50Z</time>
      </trkpt>
      <trkpt lat="41.6800900" lon="-5.8093230">
        <ele>718.6</ele>
        <time>2021-10-13T12:07:51Z</time>
      </trkpt>
      <trkpt lat="41.6799640" lon="-5.8092650">
        <ele>718.0</ele>
        <time>2021-10-13T12:07:53Z</time>
      </trkpt>
      <trkpt lat="41.6799050" lon="-5.8092150">
        <ele>717.2</ele>
        <time>2021-10-13T12:07:54Z</time>
      </trkpt>
      <trkpt lat="41.6797210" lon="-5.8090400">
        <ele>716.2</ele>
        <time>2021-10-13T12:07:57Z</time>
      </trkpt>
      <trkpt lat="41.6794960" lon="-5.8088020">
        <ele>714.6</ele>
        <time>2021-10-13T12:08:01Z</time>
      </trkpt>
      <trkpt lat="41.6792500" lon="-5.8085570">
        <ele>713.4</ele>
        <time>2021-10-13T12:08:05Z</time>
      </trkpt>
      <trkpt lat="41.6791390" lon="-5.8084510">
        <ele>712.8</ele>
        <time>2021-10-13T12:08:07Z</time>
      </trkpt>
      <trkpt lat="41.6790890" lon="-5.8084240">
        <ele>712.4</ele>
        <time>2021-10-13T12:08:08Z</time>
      </trkpt>
      <trkpt lat="41.6790460" lon="-5.8084150">
        <ele>711.6</ele>
        <time>2021-10-13T12:08:09Z</time>
      </trkpt>
      <trkpt lat="41.6789550" lon="-5.8084480">
        <ele>710.4</ele>
        <time>2021-10-13T12:08:11Z</time>
      </trkpt>
      <trkpt lat="41.6788850" lon="-5.8085360">
        <ele>709.4</ele>
        <time>2021-10-13T12:08:13Z</time>
      </trkpt>
      <trkpt lat="41.6788630" lon="-5.8085950">
        <ele>709.6</ele>
        <time>2021-10-13T12:08:14Z</time>
      </trkpt>
      <trkpt lat="41.6788270" lon="-5.8086700">
        <ele>709.2</ele>
        <time>2021-10-13T12:08:16Z</time>
      </trkpt>
      <trkpt lat="41.6787270" lon="-5.8089660">
        <ele>709.6</ele>
        <time>2021-10-13T12:08:22Z</time>
      </trkpt>
      <trkpt lat="41.6785980" lon="-5.8092340">
        <ele>710.0</ele>
        <time>2021-10-13T12:08:27Z</time>
      </trkpt>
      <trkpt lat="41.6785240" lon="-5.8093150">
        <ele>709.8</ele>
        <time>2021-10-13T12:08:29Z</time>
      </trkpt>
      <trkpt lat="41.6784350" lon="-5.8093450">
        <ele>709.8</ele>
        <time>2021-10-13T12:08:31Z</time>
      </trkpt>
      <trkpt lat="41.6780440" lon="-5.8093380">
        <ele>709.6</ele>
        <time>2021-10-13T12:08:39Z</time>
      </trkpt>
      <trkpt lat="41.6776290" lon="-5.8093410">
        <ele>709.4</ele>
        <time>2021-10-13T12:08:47Z</time>
      </trkpt>
      <trkpt lat="41.6775800" lon="-5.8093510">
        <ele>709.4</ele>
        <time>2021-10-13T12:08:48Z</time>
      </trkpt>
      <trkpt lat="41.6775330" lon="-5.8093590">
        <ele>709.4</ele>
        <time>2021-10-13T12:08:49Z</time>
      </trkpt>
      <trkpt lat="41.6772960" lon="-5.8093690">
        <ele>709.8</ele>
        <time>2021-10-13T12:08:54Z</time>
      </trkpt>
      <trkpt lat="41.6771050" lon="-5.8093670">
        <ele>710.6</ele>
        <time>2021-10-13T12:08:58Z</time>
      </trkpt>
      <trkpt lat="41.6768210" lon="-5.8093670">
        <ele>710.8</ele>
        <time>2021-10-13T12:09:04Z</time>
      </trkpt>
      <trkpt lat="41.6766790" lon="-5.8093690">
        <ele>711.2</ele>
        <time>2021-10-13T12:09:07Z</time>
      </trkpt>
      <trkpt lat="41.6764970" lon="-5.8093680">
        <ele>711.6</ele>
        <time>2021-10-13T12:09:11Z</time>
      </trkpt>
      <trkpt lat="41.6764140" lon="-5.8093710">
        <ele>711.6</ele>
        <time>2021-10-13T12:09:13Z</time>
      </trkpt>
      <trkpt lat="41.6760200" lon="-5.8093750">
        <ele>712.0</ele>
        <time>2021-10-13T12:09:21Z</time>
      </trkpt>
      <trkpt lat="41.6758710" lon="-5.8093810">
        <ele>711.4</ele>
        <time>2021-10-13T12:09:24Z</time>
      </trkpt>
      <trkpt lat="41.6754110" lon="-5.8093840">
        <ele>711.2</ele>
        <time>2021-10-13T12:09:33Z</time>
      </trkpt>
      <trkpt lat="41.6748510" lon="-5.8093850">
        <ele>711.4</ele>
        <time>2021-10-13T12:09:43Z</time>
      </trkpt>
      <trkpt lat="41.6744230" lon="-5.8093920">
        <ele>710.8</ele>
        <time>2021-10-13T12:09:52Z</time>
      </trkpt>
      <trkpt lat="41.6742360" lon="-5.8093940">
        <ele>710.6</ele>
        <time>2021-10-13T12:09:54Z</time>
      </trkpt>
      <trkpt lat="41.6739680" lon="-5.8093960">
        <ele>710.6</ele>
        <time>2021-10-13T12:09:59Z</time>
      </trkpt>
      <trkpt lat="41.6739300" lon="-5.8093960">
        <ele>710.6</ele>
        <time>2021-10-13T12:10:00Z</time>
      </trkpt>
      <trkpt lat="41.6737860" lon="-5.8093950">
        <ele>710.8</ele>
        <time>2021-10-13T12:10:03Z</time>
      </trkpt>
      <trkpt lat="41.6736650" lon="-5.8093960">
        <ele>711.4</ele>
        <time>2021-10-13T12:10:06Z</time>
      </trkpt>
      <trkpt lat="41.6735720" lon="-5.8094040">
        <ele>711.6</ele>
        <time>2021-10-13T12:10:08Z</time>
      </trkpt>
      <trkpt lat="41.6734960" lon="-5.8094010">
        <ele>711.6</ele>
        <time>2021-10-13T12:10:10Z</time>
      </trkpt>
      <trkpt lat="41.6733400" lon="-5.8093930">
        <ele>712.4</ele>
        <time>2021-10-13T12:10:14Z</time>
      </trkpt>
      <trkpt lat="41.6732650" lon="-5.8093880">
        <ele>712.8</ele>
        <time>2021-10-13T12:10:16Z</time>
      </trkpt>
      <trkpt lat="41.6731660" lon="-5.8093890">
        <ele>712.8</ele>
        <time>2021-10-13T12:10:19Z</time>
      </trkpt>
      <trkpt lat="41.6731260" lon="-5.8093870">
        <ele>712.8</ele>
        <time>2021-10-13T12:10:20Z</time>
      </trkpt>
      <trkpt lat="41.6730300" lon="-5.8093750">
        <ele>713.0</ele>
        <time>2021-10-13T12:10:22Z</time>
      </trkpt>
      <trkpt lat="41.6729430" lon="-5.8093710">
        <ele>713.0</ele>
        <time>2021-10-13T12:10:24Z</time>
      </trkpt>
      <trkpt lat="41.6728820" lon="-5.8093710">
        <ele>713.0</ele>
        <time>2021-10-13T12:10:25Z</time>
      </trkpt>
      <trkpt lat="41.6724910" lon="-5.8093780">
        <ele>712.0</ele>
        <time>2021-10-13T12:10:32Z</time>
      </trkpt>
      <trkpt lat="41.6723850" lon="-5.8093760">
        <ele>711.8</ele>
        <time>2021-10-13T12:10:34Z</time>
      </trkpt>
      <trkpt lat="41.6721430" lon="-5.8093780">
        <ele>710.6</ele>
        <time>2021-10-13T12:10:38Z</time>
      </trkpt>
      <trkpt lat="41.6720120" lon="-5.8093790">
        <ele>710.2</ele>
        <time>2021-10-13T12:10:40Z</time>
      </trkpt>
      <trkpt lat="41.6719540" lon="-5.8093780">
        <ele>710.0</ele>
        <time>2021-10-13T12:10:41Z</time>
      </trkpt>
      <trkpt lat="41.6716820" lon="-5.8093850">
        <ele>709.6</ele>
        <time>2021-10-13T12:10:46Z</time>
      </trkpt>
      <trkpt lat="41.6715780" lon="-5.8093880">
        <ele>709.6</ele>
        <time>2021-10-13T12:10:48Z</time>
      </trkpt>
      <trkpt lat="41.6714790" lon="-5.8093880">
        <ele>709.6</ele>
        <time>2021-10-13T12:10:50Z</time>
      </trkpt>
      <trkpt lat="41.6712970" lon="-5.8093840">
        <ele>709.8</ele>
        <time>2021-10-13T12:10:54Z</time>
      </trkpt>
      <trkpt lat="41.6711130" lon="-5.8093750">
        <ele>709.8</ele>
        <time>2021-10-13T12:10:58Z</time>
      </trkpt>
      <trkpt lat="41.6710010" lon="-5.8093810">
        <ele>709.8</ele>
        <time>2021-10-13T12:11:02Z</time>
      </trkpt>
      <trkpt lat="41.6708740" lon="-5.8093430">
        <ele>709.4</ele>
        <time>2021-10-13T12:11:07Z</time>
      </trkpt>
      <trkpt lat="41.6706650" lon="-5.8092870">
        <ele>709.2</ele>
        <time>2021-10-13T12:11:14Z</time>
      </trkpt>
      <trkpt lat="41.6703860" lon="-5.8092160">
        <ele>709.4</ele>
        <time>2021-10-13T12:11:23Z</time>
      </trkpt>
      <trkpt lat="41.6701940" lon="-5.8091610">
        <ele>709.2</ele>
        <time>2021-10-13T12:11:30Z</time>
      </trkpt>
      <trkpt lat="41.6701150" lon="-5.8091460">
        <ele>708.8</ele>
        <time>2021-10-13T12:11:33Z</time>
      </trkpt>
      <trkpt lat="41.6700210" lon="-5.8091250">
        <ele>708.4</ele>
        <time>2021-10-13T12:11:36Z</time>
      </trkpt>
      <trkpt lat="41.6698660" lon="-5.8090830">
        <ele>707.8</ele>
        <time>2021-10-13T12:11:41Z</time>
      </trkpt>
      <trkpt lat="41.6698340" lon="-5.8090780">
        <ele>707.6</ele>
        <time>2021-10-13T12:11:42Z</time>
      </trkpt>
      <trkpt lat="41.6697340" lon="-5.8090540">
        <ele>707.4</ele>
        <time>2021-10-13T12:11:45Z</time>
      </trkpt>
      <trkpt lat="41.6694420" lon="-5.8089850">
        <ele>707.0</ele>
        <time>2021-10-13T12:11:53Z</time>
      </trkpt>
      <trkpt lat="41.6692780" lon="-5.8089390">
        <ele>706.6</ele>
        <time>2021-10-13T12:11:57Z</time>
      </trkpt>
      <trkpt lat="41.6690350" lon="-5.8088830">
        <ele>705.8</ele>
        <time>2021-10-13T12:12:03Z</time>
      </trkpt>
      <trkpt lat="41.6689540" lon="-5.8088650">
        <ele>705.6</ele>
        <time>2021-10-13T12:12:05Z</time>
      </trkpt>
      <trkpt lat="41.6687470" lon="-5.8088150">
        <ele>705.2</ele>
        <time>2021-10-13T12:12:10Z</time>
      </trkpt>
      <trkpt lat="41.6683930" lon="-5.8087230">
        <ele>705.0</ele>
        <time>2021-10-13T12:12:18Z</time>
      </trkpt>
      <trkpt lat="41.6683470" lon="-5.8087130">
        <ele>705.0</ele>
        <time>2021-10-13T12:12:19Z</time>
      </trkpt>
      <trkpt lat="41.6679640" lon="-5.8086250">
        <ele>705.0</ele>
        <time>2021-10-13T12:12:27Z</time>
      </trkpt>
      <trkpt lat="41.6678680" lon="-5.8086040">
        <ele>704.8</ele>
        <time>2021-10-13T12:12:29Z</time>
      </trkpt>
      <trkpt lat="41.6676800" lon="-5.8085880">
        <ele>703.8</ele>
        <time>2021-10-13T12:12:33Z</time>
      </trkpt>
      <trkpt lat="41.6675410" lon="-5.8085820">
        <ele>703.2</ele>
        <time>2021-10-13T12:12:36Z</time>
      </trkpt>
      <trkpt lat="41.6674560" lon="-5.8085830">
        <ele>702.6</ele>
        <time>2021-10-13T12:12:38Z</time>
      </trkpt>
      <trkpt lat="41.6671900" lon="-5.8085840">
        <ele>702.0</ele>
        <time>2021-10-13T12:12:45Z</time>
      </trkpt>
      <trkpt lat="41.6668080" lon="-5.8085900">
        <ele>702.2</ele>
        <time>2021-10-13T12:12:54Z</time>
      </trkpt>
      <trkpt lat="41.6664380" lon="-5.8086040">
        <ele>701.4</ele>
        <time>2021-10-13T12:13:02Z</time>
      </trkpt>
      <trkpt lat="41.6660310" lon="-5.8086210">
        <ele>701.0</ele>
        <time>2021-10-13T12:13:10Z</time>
      </trkpt>
      <trkpt lat="41.6659300" lon="-5.8086220">
        <ele>701.0</ele>
        <time>2021-10-13T12:13:12Z</time>
      </trkpt>
      <trkpt lat="41.6654910" lon="-5.8086280">
        <ele>701.4</ele>
        <time>2021-10-13T12:13:21Z</time>
      </trkpt>
      <trkpt lat="41.6652730" lon="-5.8086390">
        <ele>701.8</ele>
        <time>2021-10-13T12:13:26Z</time>
      </trkpt>
      <trkpt lat="41.6651980" lon="-5.8086380">
        <ele>702.2</ele>
        <time>2021-10-13T12:13:28Z</time>
      </trkpt>
      <trkpt lat="41.6650860" lon="-5.8086380">
        <ele>702.6</ele>
        <time>2021-10-13T12:13:31Z</time>
      </trkpt>
      <trkpt lat="41.6650080" lon="-5.8086470">
        <ele>702.8</ele>
        <time>2021-10-13T12:13:33Z</time>
      </trkpt>
      <trkpt lat="41.6649000" lon="-5.8086550">
        <ele>703.2</ele>
        <time>2021-10-13T12:13:36Z</time>
      </trkpt>
      <trkpt lat="41.6648700" lon="-5.8086540">
        <ele>703.2</ele>
        <time>2021-10-13T12:13:37Z</time>
      </trkpt>
      <trkpt lat="41.6647520" lon="-5.8086590">
        <ele>703.6</ele>
        <time>2021-10-13T12:13:40Z</time>
      </trkpt>
      <trkpt lat="41.6647130" lon="-5.8086570">
        <ele>703.6</ele>
        <time>2021-10-13T12:13:41Z</time>
      </trkpt>
      <trkpt lat="41.6646760" lon="-5.8086550">
        <ele>703.8</ele>
        <time>2021-10-13T12:13:42Z</time>
      </trkpt>
      <trkpt lat="41.6645700" lon="-5.8086650">
        <ele>703.8</ele>
        <time>2021-10-13T12:13:45Z</time>
      </trkpt>
      <trkpt lat="41.6645080" lon="-5.8086650">
        <ele>704.2</ele>
        <time>2021-10-13T12:13:47Z</time>
      </trkpt>
      <trkpt lat="41.6644340" lon="-5.8086690">
        <ele>704.4</ele>
        <time>2021-10-13T12:13:49Z</time>
      </trkpt>
      <trkpt lat="41.6644000" lon="-5.8086670">
        <ele>704.8</ele>
        <time>2021-10-13T12:13:50Z</time>
      </trkpt>
      <trkpt lat="41.6643660" lon="-5.8086660">
        <ele>705.0</ele>
        <time>2021-10-13T12:13:51Z</time>
      </trkpt>
      <trkpt lat="41.6641630" lon="-5.8086660">
        <ele>705.6</ele>
        <time>2021-10-13T12:13:57Z</time>
      </trkpt>
      <trkpt lat="41.6640690" lon="-5.8086720">
        <ele>705.6</ele>
        <time>2021-10-13T12:14:00Z</time>
      </trkpt>
      <trkpt lat="41.6639960" lon="-5.8086710">
        <ele>705.8</ele>
        <time>2021-10-13T12:14:02Z</time>
      </trkpt>
      <trkpt lat="41.6639630" lon="-5.8086710">
        <ele>705.8</ele>
        <time>2021-10-13T12:14:03Z</time>
      </trkpt>
      <trkpt lat="41.6637000" lon="-5.8086760">
        <ele>706.0</ele>
        <time>2021-10-13T12:14:11Z</time>
      </trkpt>
      <trkpt lat="41.6636660" lon="-5.8086790">
        <ele>706.2</ele>
        <time>2021-10-13T12:14:12Z</time>
      </trkpt>
      <trkpt lat="41.6633600" lon="-5.8086720">
        <ele>706.6</ele>
        <time>2021-10-13T12:14:21Z</time>
      </trkpt>
      <trkpt lat="41.6631730" lon="-5.8086800">
        <ele>707.0</ele>
        <time>2021-10-13T12:14:26Z</time>
      </trkpt>
      <trkpt lat="41.6630740" lon="-5.8086830">
        <ele>707.0</ele>
        <time>2021-10-13T12:14:29Z</time>
      </trkpt>
      <trkpt lat="41.6629740" lon="-5.8086840">
        <ele>707.6</ele>
        <time>2021-10-13T12:14:32Z</time>
      </trkpt>
      <trkpt lat="41.6628950" lon="-5.8086870">
        <ele>708.0</ele>
        <time>2021-10-13T12:14:34Z</time>
      </trkpt>
      <trkpt lat="41.6628180" lon="-5.8086920">
        <ele>708.0</ele>
        <time>2021-10-13T12:14:36Z</time>
      </trkpt>
      <trkpt lat="41.6626680" lon="-5.8086900">
        <ele>708.0</ele>
        <time>2021-10-13T12:14:40Z</time>
      </trkpt>
      <trkpt lat="41.6624840" lon="-5.8086910">
        <ele>707.6</ele>
        <time>2021-10-13T12:14:45Z</time>
      </trkpt>
      <trkpt lat="41.6623750" lon="-5.8086920">
        <ele>707.6</ele>
        <time>2021-10-13T12:14:48Z</time>
      </trkpt>
      <trkpt lat="41.6622400" lon="-5.8086720">
        <ele>707.6</ele>
        <time>2021-10-13T12:14:52Z</time>
      </trkpt>
      <trkpt lat="41.6621610" lon="-5.8086720">
        <ele>708.0</ele>
        <time>2021-10-13T12:14:54Z</time>
      </trkpt>
      <trkpt lat="41.6620600" lon="-5.8086720">
        <ele>708.4</ele>
        <time>2021-10-13T12:14:57Z</time>
      </trkpt>
      <trkpt lat="41.6619470" lon="-5.8086730">
        <ele>708.6</ele>
        <time>2021-10-13T12:15:00Z</time>
      </trkpt>
      <trkpt lat="41.6618080" lon="-5.8086770">
        <ele>708.8</ele>
        <time>2021-10-13T12:15:04Z</time>
      </trkpt>
      <trkpt lat="41.6617420" lon="-5.8086800">
        <ele>709.0</ele>
        <time>2021-10-13T12:15:06Z</time>
      </trkpt>
      <trkpt lat="41.6616060" lon="-5.8086810">
        <ele>710.2</ele>
        <time>2021-10-13T12:15:10Z</time>
      </trkpt>
      <trkpt lat="41.6614670" lon="-5.8086780">
        <ele>711.0</ele>
        <time>2021-10-13T12:15:14Z</time>
      </trkpt>
      <trkpt lat="41.6614330" lon="-5.8086770">
        <ele>711.2</ele>
        <time>2021-10-13T12:15:15Z</time>
      </trkpt>
      <trkpt lat="41.6613980" lon="-5.8086770">
        <ele>711.4</ele>
        <time>2021-10-13T12:15:16Z</time>
      </trkpt>
      <trkpt lat="41.6610900" lon="-5.8086810">
        <ele>712.0</ele>
        <time>2021-10-13T12:15:26Z</time>
      </trkpt>
      <trkpt lat="41.6610360" lon="-5.8086860">
        <ele>712.2</ele>
        <time>2021-10-13T12:15:28Z</time>
      </trkpt>
      <trkpt lat="41.6609110" lon="-5.8086850">
        <ele>712.6</ele>
        <time>2021-10-13T12:15:32Z</time>
      </trkpt>
      <trkpt lat="41.6607560" lon="-5.8086790">
        <ele>713.2</ele>
        <time>2021-10-13T12:15:37Z</time>
      </trkpt>
      <trkpt lat="41.6606370" lon="-5.8086840">
        <ele>713.2</ele>
        <time>2021-10-13T12:15:41Z</time>
      </trkpt>
      <trkpt lat="41.6604910" lon="-5.8086830">
        <ele>713.4</ele>
        <time>2021-10-13T12:15:46Z</time>
      </trkpt>
      <trkpt lat="41.6604620" lon="-5.8086820">
        <ele>713.4</ele>
        <time>2021-10-13T12:15:47Z</time>
      </trkpt>
      <trkpt lat="41.6601960" lon="-5.8086790">
        <ele>713.8</ele>
        <time>2021-10-13T12:15:56Z</time>
      </trkpt>
      <trkpt lat="41.6600950" lon="-5.8086850">
        <ele>714.0</ele>
        <time>2021-10-13T12:16:00Z</time>
      </trkpt>
      <trkpt lat="41.6600170" lon="-5.8086850">
        <ele>714.4</ele>
        <time>2021-10-13T12:16:03Z</time>
      </trkpt>
      <trkpt lat="41.6598260" lon="-5.8086860">
        <ele>715.4</ele>
        <time>2021-10-13T12:16:10Z</time>
      </trkpt>
      <trkpt lat="41.6597950" lon="-5.8086860">
        <ele>715.4</ele>
        <time>2021-10-13T12:16:11Z</time>
      </trkpt>
      <trkpt lat="41.6595220" lon="-5.8086690">
        <ele>715.8</ele>
        <time>2021-10-13T12:16:20Z</time>
      </trkpt>
      <trkpt lat="41.6594560" lon="-5.8086650">
        <ele>715.8</ele>
        <time>2021-10-13T12:16:22Z</time>
      </trkpt>
      <trkpt lat="41.6592350" lon="-5.8086530">
        <ele>716.2</ele>
        <time>2021-10-13T12:16:29Z</time>
      </trkpt>
      <trkpt lat="41.6590800" lon="-5.8086170">
        <ele>716.4</ele>
        <time>2021-10-13T12:16:34Z</time>
      </trkpt>
      <trkpt lat="41.6589580" lon="-5.8085700">
        <ele>717.0</ele>
        <time>2021-10-13T12:16:38Z</time>
      </trkpt>
      <trkpt lat="41.6588640" lon="-5.8085320">
        <ele>717.4</ele>
        <time>2021-10-13T12:16:41Z</time>
      </trkpt>
      <trkpt lat="41.6587390" lon="-5.8084740">
        <ele>718.0</ele>
        <time>2021-10-13T12:16:45Z</time>
      </trkpt>
      <trkpt lat="41.6587080" lon="-5.8084580">
        <ele>717.8</ele>
        <time>2021-10-13T12:16:46Z</time>
      </trkpt>
      <trkpt lat="41.6586480" lon="-5.8084290">
        <ele>717.8</ele>
        <time>2021-10-13T12:16:48Z</time>
      </trkpt>
      <trkpt lat="41.6585590" lon="-5.8083900">
        <ele>718.0</ele>
        <time>2021-10-13T12:16:51Z</time>
      </trkpt>
      <trkpt lat="41.6584290" lon="-5.8083300">
        <ele>717.8</ele>
        <time>2021-10-13T12:16:55Z</time>
      </trkpt>
      <trkpt lat="41.6581350" lon="-5.8081980">
        <ele>718.0</ele>
        <time>2021-10-13T12:17:04Z</time>
      </trkpt>
      <trkpt lat="41.6578980" lon="-5.8080810">
        <ele>718.4</ele>
        <time>2021-10-13T12:17:12Z</time>
      </trkpt>
      <trkpt lat="41.6578720" lon="-5.8080680">
        <ele>718.4</ele>
        <time>2021-10-13T12:17:13Z</time>
      </trkpt>
      <trkpt lat="41.6578140" lon="-5.8080450">
        <ele>718.8</ele>
        <time>2021-10-13T12:17:15Z</time>
      </trkpt>
      <trkpt lat="41.6577060" lon="-5.8079950">
        <ele>719.8</ele>
        <time>2021-10-13T12:17:19Z</time>
      </trkpt>
      <trkpt lat="41.6576420" lon="-5.8079670">
        <ele>720.0</ele>
        <time>2021-10-13T12:17:21Z</time>
      </trkpt>
      <trkpt lat="41.6575920" lon="-5.8079450">
        <ele>720.0</ele>
        <time>2021-10-13T12:17:23Z</time>
      </trkpt>
      <trkpt lat="41.6573890" lon="-5.8078570">
        <ele>720.4</ele>
        <time>2021-10-13T12:17:30Z</time>
      </trkpt>
      <trkpt lat="41.6573080" lon="-5.8078390">
        <ele>720.2</ele>
        <time>2021-10-13T12:17:33Z</time>
      </trkpt>
      <trkpt lat="41.6571450" lon="-5.8078250">
        <ele>719.8</ele>
        <time>2021-10-13T12:17:38Z</time>
      </trkpt>
      <trkpt lat="41.6571140" lon="-5.8078200">
        <ele>719.8</ele>
        <time>2021-10-13T12:17:39Z</time>
      </trkpt>
      <trkpt lat="41.6570500" lon="-5.8078060">
        <ele>719.8</ele>
        <time>2021-10-13T12:17:41Z</time>
      </trkpt>
      <trkpt lat="41.6570240" lon="-5.8078010">
        <ele>719.8</ele>
        <time>2021-10-13T12:17:42Z</time>
      </trkpt>
      <trkpt lat="41.6569850" lon="-5.8077970">
        <ele>720.0</ele>
        <time>2021-10-13T12:17:43Z</time>
      </trkpt>
      <trkpt lat="41.6569510" lon="-5.8077930">
        <ele>720.0</ele>
        <time>2021-10-13T12:17:44Z</time>
      </trkpt>
      <trkpt lat="41.6569190" lon="-5.8077880">
        <ele>720.0</ele>
        <time>2021-10-13T12:17:45Z</time>
      </trkpt>
      <trkpt lat="41.6568570" lon="-5.8077800">
        <ele>720.4</ele>
        <time>2021-10-13T12:17:47Z</time>
      </trkpt>
      <trkpt lat="41.6567620" lon="-5.8077660">
        <ele>720.6</ele>
        <time>2021-10-13T12:17:50Z</time>
      </trkpt>
      <trkpt lat="41.6566590" lon="-5.8077480">
        <ele>720.8</ele>
        <time>2021-10-13T12:17:53Z</time>
      </trkpt>
      <trkpt lat="41.6565950" lon="-5.8077390">
        <ele>720.8</ele>
        <time>2021-10-13T12:17:55Z</time>
      </trkpt>
      <trkpt lat="41.6565540" lon="-5.8077340">
        <ele>721.0</ele>
        <time>2021-10-13T12:17:56Z</time>
      </trkpt>
      <trkpt lat="41.6563440" lon="-5.8077120">
        <ele>721.0</ele>
        <time>2021-10-13T12:18:02Z</time>
      </trkpt>
      <trkpt lat="41.6562700" lon="-5.8077040">
        <ele>721.0</ele>
        <time>2021-10-13T12:18:04Z</time>
      </trkpt>
      <trkpt lat="41.6562000" lon="-5.8076990">
        <ele>721.2</ele>
        <time>2021-10-13T12:18:06Z</time>
      </trkpt>
      <trkpt lat="41.6559490" lon="-5.8076570">
        <ele>720.4</ele>
        <time>2021-10-13T12:18:14Z</time>
      </trkpt>
      <trkpt lat="41.6559170" lon="-5.8076510">
        <ele>720.2</ele>
        <time>2021-10-13T12:18:15Z</time>
      </trkpt>
      <trkpt lat="41.6558440" lon="-5.8076470">
        <ele>719.8</ele>
        <time>2021-10-13T12:18:17Z</time>
      </trkpt>
      <trkpt lat="41.6557850" lon="-5.8076410">
        <ele>719.6</ele>
        <time>2021-10-13T12:18:19Z</time>
      </trkpt>
      <trkpt lat="41.6555660" lon="-5.8076160">
        <ele>719.0</ele>
        <time>2021-10-13T12:18:25Z</time>
      </trkpt>
      <trkpt lat="41.6552640" lon="-5.8075750">
        <ele>718.6</ele>
        <time>2021-10-13T12:18:32Z</time>
      </trkpt>
      <trkpt lat="41.6552260" lon="-5.8075680">
        <ele>718.4</ele>
        <time>2021-10-13T12:18:33Z</time>
      </trkpt>
      <trkpt lat="41.6550670" lon="-5.8075390">
        <ele>717.8</ele>
        <time>2021-10-13T12:18:36Z</time>
      </trkpt>
      <trkpt lat="41.6549790" lon="-5.8075200">
        <ele>717.2</ele>
        <time>2021-10-13T12:18:38Z</time>
      </trkpt>
      <trkpt lat="41.6549320" lon="-5.8075030">
        <ele>717.0</ele>
        <time>2021-10-13T12:18:39Z</time>
      </trkpt>
      <trkpt lat="41.6548800" lon="-5.8074700">
        <ele>716.6</ele>
        <time>2021-10-13T12:18:40Z</time>
      </trkpt>
      <trkpt lat="41.6548000" lon="-5.8074030">
        <ele>716.0</ele>
        <time>2021-10-13T12:18:42Z</time>
      </trkpt>
      <trkpt lat="41.6546120" lon="-5.8071960">
        <ele>714.6</ele>
        <time>2021-10-13T12:18:46Z</time>
      </trkpt>
      <trkpt lat="41.6545750" lon="-5.8071490">
        <ele>714.0</ele>
        <time>2021-10-13T12:18:47Z</time>
      </trkpt>
      <trkpt lat="41.6544720" lon="-5.8070110">
        <ele>712.6</ele>
        <time>2021-10-13T12:18:49Z</time>
      </trkpt>
      <trkpt lat="41.6543250" lon="-5.8068250">
        <ele>711.4</ele>
        <time>2021-10-13T12:18:52Z</time>
      </trkpt>
      <trkpt lat="41.6542060" lon="-5.8066790">
        <ele>710.6</ele>
        <time>2021-10-13T12:18:54Z</time>
      </trkpt>
      <trkpt lat="41.6541540" lon="-5.8066140">
        <ele>710.2</ele>
        <time>2021-10-13T12:18:55Z</time>
      </trkpt>
      <trkpt lat="41.6540630" lon="-5.8065030">
        <ele>709.0</ele>
        <time>2021-10-13T12:18:57Z</time>
      </trkpt>
      <trkpt lat="41.6540110" lon="-5.8064280">
        <ele>707.8</ele>
        <time>2021-10-13T12:18:58Z</time>
      </trkpt>
      <trkpt lat="41.6539400" lon="-5.8062940">
        <ele>706.0</ele>
        <time>2021-10-13T12:19:00Z</time>
      </trkpt>
      <trkpt lat="41.6538950" lon="-5.8061550">
        <ele>704.0</ele>
        <time>2021-10-13T12:19:02Z</time>
      </trkpt>
      <trkpt lat="41.6538560" lon="-5.8059790">
        <ele>702.6</ele>
        <time>2021-10-13T12:19:04Z</time>
      </trkpt>
      <trkpt lat="41.6538450" lon="-5.8058980">
        <ele>702.0</ele>
        <time>2021-10-13T12:19:05Z</time>
      </trkpt>
      <trkpt lat="41.6538260" lon="-5.8057720">
        <ele>700.4</ele>
        <time>2021-10-13T12:19:07Z</time>
      </trkpt>
      <trkpt lat="41.6538130" lon="-5.8056980">
        <ele>699.6</ele>
        <time>2021-10-13T12:19:08Z</time>
      </trkpt>
      <trkpt lat="41.6538020" lon="-5.8056440">
        <ele>698.8</ele>
        <time>2021-10-13T12:19:09Z</time>
      </trkpt>
      <trkpt lat="41.6537940" lon="-5.8056050">
        <ele>698.2</ele>
        <time>2021-10-13T12:19:10Z</time>
      </trkpt>
      <trkpt lat="41.6537790" lon="-5.8055680">
        <ele>697.0</ele>
        <time>2021-10-13T12:19:11Z</time>
      </trkpt>
      <trkpt lat="41.6537550" lon="-5.8055400">
        <ele>696.4</ele>
        <time>2021-10-13T12:19:12Z</time>
      </trkpt>
      <trkpt lat="41.6537310" lon="-5.8055370">
        <ele>695.8</ele>
        <time>2021-10-13T12:19:13Z</time>
      </trkpt>
      <trkpt lat="41.6537070" lon="-5.8055470">
        <ele>695.2</ele>
        <time>2021-10-13T12:19:14Z</time>
      </trkpt>
      <trkpt lat="41.6536830" lon="-5.8055680">
        <ele>694.4</ele>
        <time>2021-10-13T12:19:15Z</time>
      </trkpt>
      <trkpt lat="41.6536300" lon="-5.8056040">
        <ele>693.4</ele>
        <time>2021-10-13T12:19:17Z</time>
      </trkpt>
      <trkpt lat="41.6536040" lon="-5.8056210">
        <ele>693.0</ele>
        <time>2021-10-13T12:19:18Z</time>
      </trkpt>
      <trkpt lat="41.6535260" lon="-5.8057010">
        <ele>692.0</ele>
        <time>2021-10-13T12:19:23Z</time>
      </trkpt>
      <trkpt lat="41.6535040" lon="-5.8057330">
        <ele>691.4</ele>
        <time>2021-10-13T12:19:26Z</time>
      </trkpt>
      <trkpt lat="41.6534840" lon="-5.8057410">
        <ele>692.0</ele>
        <time>2021-10-13T12:20:24Z</time>
      </trkpt>
      <trkpt lat="41.6534650" lon="-5.8057490">
        <ele>691.8</ele>
        <time>2021-10-13T12:20:25Z</time>
      </trkpt>
      <trkpt lat="41.6534450" lon="-5.8057570">
        <ele>691.8</ele>
        <time>2021-10-13T12:20:55Z</time>
      </trkpt>
      <trkpt lat="41.6534260" lon="-5.8057650">
        <ele>691.8</ele>
        <time>2021-10-13T12:20:56Z</time>
      </trkpt>
      <trkpt lat="41.6532060" lon="-5.8059340">
        <ele>691.2</ele>
        <time>2021-10-13T12:21:01Z</time>
      </trkpt>
      <trkpt lat="41.6531690" lon="-5.8059680">
        <ele>690.8</ele>
        <time>2021-10-13T12:21:02Z</time>
      </trkpt>
      <trkpt lat="41.6529820" lon="-5.8061850">
        <ele>689.8</ele>
        <time>2021-10-13T12:21:06Z</time>
      </trkpt>
      <trkpt lat="41.6528930" lon="-5.8062770">
        <ele>689.6</ele>
        <time>2021-10-13T12:21:08Z</time>
      </trkpt>
      <trkpt lat="41.6527250" lon="-5.8064580">
        <ele>689.0</ele>
        <time>2021-10-13T12:21:11Z</time>
      </trkpt>
      <trkpt lat="41.6526400" lon="-5.8065610">
        <ele>688.6</ele>
        <time>2021-10-13T12:21:13Z</time>
      </trkpt>
      <trkpt lat="41.6525400" lon="-5.8066970">
        <ele>688.4</ele>
        <time>2021-10-13T12:21:15Z</time>
      </trkpt>
      <trkpt lat="41.6524380" lon="-5.8069010">
        <ele>688.0</ele>
        <time>2021-10-13T12:21:18Z</time>
      </trkpt>
      <trkpt lat="41.6523660" lon="-5.8070530">
        <ele>687.8</ele>
        <time>2021-10-13T12:21:20Z</time>
      </trkpt>
      <trkpt lat="41.6522240" lon="-5.8072720">
        <ele>687.6</ele>
        <time>2021-10-13T12:21:23Z</time>
      </trkpt>
      <trkpt lat="41.6521250" lon="-5.8073610">
        <ele>687.6</ele>
        <time>2021-10-13T12:21:25Z</time>
      </trkpt>
      <trkpt lat="41.6520140" lon="-5.8074600">
        <ele>687.6</ele>
        <time>2021-10-13T12:21:27Z</time>
      </trkpt>
      <trkpt lat="41.6519170" lon="-5.8075180">
        <ele>687.4</ele>
        <time>2021-10-13T12:21:29Z</time>
      </trkpt>
      <trkpt lat="41.6517150" lon="-5.8075910">
        <ele>687.2</ele>
        <time>2021-10-13T12:21:33Z</time>
      </trkpt>
      <trkpt lat="41.6516810" lon="-5.8075930">
        <ele>687.4</ele>
        <time>2021-10-13T12:21:34Z</time>
      </trkpt>
      <trkpt lat="41.6514600" lon="-5.8075980">
        <ele>687.6</ele>
        <time>2021-10-13T12:21:40Z</time>
      </trkpt>
      <trkpt lat="41.6513150" lon="-5.8075930">
        <ele>688.4</ele>
        <time>2021-10-13T12:21:45Z</time>
      </trkpt>
      <trkpt lat="41.6512230" lon="-5.8075790">
        <ele>688.8</ele>
        <time>2021-10-13T12:21:49Z</time>
      </trkpt>
      <trkpt lat="41.6511770" lon="-5.8075700">
        <ele>689.4</ele>
        <time>2021-10-13T12:21:51Z</time>
      </trkpt>
      <trkpt lat="41.6511370" lon="-5.8075550">
        <ele>690.0</ele>
        <time>2021-10-13T12:21:53Z</time>
      </trkpt>
      <trkpt lat="41.6510750" lon="-5.8075250">
        <ele>690.6</ele>
        <time>2021-10-13T12:21:56Z</time>
      </trkpt>
      <trkpt lat="41.6510200" lon="-5.8074950">
        <ele>691.0</ele>
        <time>2021-10-13T12:21:59Z</time>
      </trkpt>
      <trkpt lat="41.6510060" lon="-5.8074810">
        <ele>691.2</ele>
        <time>2021-10-13T12:22:00Z</time>
      </trkpt>
      <trkpt lat="41.6509800" lon="-5.8074480">
        <ele>692.0</ele>
        <time>2021-10-13T12:22:03Z</time>
      </trkpt>
      <trkpt lat="41.6509690" lon="-5.8074260">
        <ele>692.4</ele>
        <time>2021-10-13T12:22:04Z</time>
      </trkpt>
      <trkpt lat="41.6509460" lon="-5.8074000">
        <ele>692.6</ele>
        <time>2021-10-13T12:22:06Z</time>
      </trkpt>
      <trkpt lat="41.6509250" lon="-5.8073800">
        <ele>692.6</ele>
        <time>2021-10-13T12:22:08Z</time>
      </trkpt>
      <trkpt lat="41.6508890" lon="-5.8073740">
        <ele>692.8</ele>
        <time>2021-10-13T12:22:10Z</time>
      </trkpt>
      <trkpt lat="41.6508500" lon="-5.8073750">
        <ele>693.0</ele>
        <time>2021-10-13T12:22:12Z</time>
      </trkpt>
      <trkpt lat="41.6507730" lon="-5.8073710">
        <ele>693.2</ele>
        <time>2021-10-13T12:22:15Z</time>
      </trkpt>
      <trkpt lat="41.6506400" lon="-5.8073690">
        <ele>693.0</ele>
        <time>2021-10-13T12:22:21Z</time>
      </trkpt>
      <trkpt lat="41.6505580" lon="-5.8074060">
        <ele>693.0</ele>
        <time>2021-10-13T12:22:27Z</time>
      </trkpt>
      <trkpt lat="41.6505530" lon="-5.8074100">
        <ele>693.0</ele>
        <time>2021-10-13T12:22:29Z</time>
      </trkpt>
      <trkpt lat="41.6505060" lon="-5.8072580">
        <ele>693.2</ele>
        <time>2021-10-13T12:23:11Z</time>
      </trkpt>
      <trkpt lat="41.6504940" lon="-5.8072310">
        <ele>693.2</ele>
        <time>2021-10-13T12:23:12Z</time>
      </trkpt>
      <trkpt lat="41.6504800" lon="-5.8072060">
        <ele>693.2</ele>
        <time>2021-10-13T12:23:13Z</time>
      </trkpt>
      <trkpt lat="41.6504190" lon="-5.8071110">
        <ele>693.0</ele>
        <time>2021-10-13T12:23:17Z</time>
      </trkpt>
      <trkpt lat="41.6503470" lon="-5.8069860">
        <ele>692.4</ele>
        <time>2021-10-13T12:23:22Z</time>
      </trkpt>
      <trkpt lat="41.6503290" lon="-5.8069770">
        <ele>692.4</ele>
        <time>2021-10-13T12:23:23Z</time>
      </trkpt>
      <trkpt lat="41.6502990" lon="-5.8069860">
        <ele>692.4</ele>
        <time>2021-10-13T12:23:24Z</time>
      </trkpt>
      <trkpt lat="41.6502380" lon="-5.8070320">
        <ele>692.4</ele>
        <time>2021-10-13T12:23:27Z</time>
      </trkpt>
      <trkpt lat="41.6501920" lon="-5.8070750">
        <ele>692.6</ele>
        <time>2021-10-13T12:23:30Z</time>
      </trkpt>
      <trkpt lat="41.6500910" lon="-5.8071580">
        <ele>693.4</ele>
        <time>2021-10-13T12:23:35Z</time>
      </trkpt>
      <trkpt lat="41.6500390" lon="-5.8072050">
        <ele>693.6</ele>
        <time>2021-10-13T12:23:39Z</time>
      </trkpt>
      <trkpt lat="41.6500270" lon="-5.8072020">
        <ele>693.6</ele>
        <time>2021-10-13T12:23:40Z</time>
      </trkpt>
      <trkpt lat="41.6499200" lon="-5.8070820">
        <ele>694.4</ele>
        <time>2021-10-13T12:23:46Z</time>
      </trkpt>
      <trkpt lat="41.6498570" lon="-5.8069600">
        <ele>694.6</ele>
        <time>2021-10-13T12:23:50Z</time>
      </trkpt>
      <trkpt lat="41.6498090" lon="-5.8068650">
        <ele>694.8</ele>
        <time>2021-10-13T12:23:53Z</time>
      </trkpt>
      <trkpt lat="41.6496920" lon="-5.8066690">
        <ele>695.4</ele>
        <time>2021-10-13T12:24:00Z</time>
      </trkpt>
      <trkpt lat="41.6495540" lon="-5.8064190">
        <ele>695.4</ele>
        <time>2021-10-13T12:24:07Z</time>
      </trkpt>
      <trkpt lat="41.6494540" lon="-5.8062060">
        <ele>695.4</ele>
        <time>2021-10-13T12:24:14Z</time>
      </trkpt>
      <trkpt lat="41.6494280" lon="-5.8061500">
        <ele>695.4</ele>
        <time>2021-10-13T12:24:16Z</time>
      </trkpt>
      <trkpt lat="41.6494090" lon="-5.8061160">
        <ele>695.4</ele>
        <time>2021-10-13T12:24:20Z</time>
      </trkpt>
      <trkpt lat="41.6492990" lon="-5.8060180">
        <ele>695.4</ele>
        <time>2021-10-13T12:26:05Z</time>
      </trkpt>
      <trkpt lat="41.6492840" lon="-5.8059870">
        <ele>695.6</ele>
        <time>2021-10-13T12:26:06Z</time>
      </trkpt>
      <trkpt lat="41.6492670" lon="-5.8059570">
        <ele>695.6</ele>
        <time>2021-10-13T12:26:07Z</time>
      </trkpt>
      <trkpt lat="41.6492100" lon="-5.8058770">
        <ele>695.6</ele>
        <time>2021-10-13T12:26:10Z</time>
      </trkpt>
      <trkpt lat="41.6491500" lon="-5.8057990">
        <ele>695.6</ele>
        <time>2021-10-13T12:26:13Z</time>
      </trkpt>
      <trkpt lat="41.6489600" lon="-5.8056150">
        <ele>695.6</ele>
        <time>2021-10-13T12:26:19Z</time>
      </trkpt>
      <trkpt lat="41.6488020" lon="-5.8055070">
        <ele>695.2</ele>
        <time>2021-10-13T12:26:23Z</time>
      </trkpt>
      <trkpt lat="41.6487190" lon="-5.8054780">
        <ele>695.0</ele>
        <time>2021-10-13T12:26:25Z</time>
      </trkpt>
      <trkpt lat="41.6484300" lon="-5.8054000">
        <ele>695.4</ele>
        <time>2021-10-13T12:26:33Z</time>
      </trkpt>
      <trkpt lat="41.6483760" lon="-5.8053860">
        <ele>695.8</ele>
        <time>2021-10-13T12:26:35Z</time>
      </trkpt>
      <trkpt lat="41.6482610" lon="-5.8053540">
        <ele>696.4</ele>
        <time>2021-10-13T12:26:39Z</time>
      </trkpt>
      <trkpt lat="41.6482390" lon="-5.8053470">
        <ele>696.6</ele>
        <time>2021-10-13T12:26:40Z</time>
      </trkpt>
      <trkpt lat="41.6482120" lon="-5.8053430">
        <ele>697.0</ele>
        <time>2021-10-13T12:26:41Z</time>
      </trkpt>
      <trkpt lat="41.6481090" lon="-5.8053290">
        <ele>697.6</ele>
        <time>2021-10-13T12:26:45Z</time>
      </trkpt>
      <trkpt lat="41.6480330" lon="-5.8053060">
        <ele>698.0</ele>
        <time>2021-10-13T12:26:48Z</time>
      </trkpt>
      <trkpt lat="41.6479260" lon="-5.8053210">
        <ele>699.2</ele>
        <time>2021-10-13T12:26:52Z</time>
      </trkpt>
      <trkpt lat="41.6479020" lon="-5.8053200">
        <ele>699.4</ele>
        <time>2021-10-13T12:26:53Z</time>
      </trkpt>
      <trkpt lat="41.6478810" lon="-5.8053150">
        <ele>699.6</ele>
        <time>2021-10-13T12:26:54Z</time>
      </trkpt>
      <trkpt lat="41.6478040" lon="-5.8053100">
        <ele>700.0</ele>
        <time>2021-10-13T12:26:57Z</time>
      </trkpt>
      <trkpt lat="41.6477790" lon="-5.8053100">
        <ele>700.2</ele>
        <time>2021-10-13T12:26:58Z</time>
      </trkpt>
      <trkpt lat="41.6477590" lon="-5.8053080">
        <ele>700.4</ele>
        <time>2021-10-13T12:26:59Z</time>
      </trkpt>
      <trkpt lat="41.6476990" lon="-5.8053010">
        <ele>700.6</ele>
        <time>2021-10-13T12:27:01Z</time>
      </trkpt>
      <trkpt lat="41.6476400" lon="-5.8052940">
        <ele>700.6</ele>
        <time>2021-10-13T12:27:03Z</time>
      </trkpt>
      <trkpt lat="41.6475880" lon="-5.8052970">
        <ele>700.8</ele>
        <time>2021-10-13T12:27:05Z</time>
      </trkpt>
      <trkpt lat="41.6474610" lon="-5.8053080">
        <ele>701.2</ele>
        <time>2021-10-13T12:27:09Z</time>
      </trkpt>
      <trkpt lat="41.6473430" lon="-5.8053000">
        <ele>701.2</ele>
        <time>2021-10-13T12:27:13Z</time>
      </trkpt>
      <trkpt lat="41.6473190" lon="-5.8053000">
        <ele>701.4</ele>
        <time>2021-10-13T12:27:14Z</time>
      </trkpt>
      <trkpt lat="41.6472330" lon="-5.8052930">
        <ele>701.6</ele>
        <time>2021-10-13T12:27:17Z</time>
      </trkpt>
      <trkpt lat="41.6471860" lon="-5.8052840">
        <ele>702.2</ele>
        <time>2021-10-13T12:27:19Z</time>
      </trkpt>
      <trkpt lat="41.6471270" lon="-5.8052820">
        <ele>702.4</ele>
        <time>2021-10-13T12:27:21Z</time>
      </trkpt>
      <trkpt lat="41.6469710" lon="-5.8053020">
        <ele>702.6</ele>
        <time>2021-10-13T12:27:27Z</time>
      </trkpt>
      <trkpt lat="41.6469250" lon="-5.8053140">
        <ele>702.6</ele>
        <time>2021-10-13T12:27:29Z</time>
      </trkpt>
      <trkpt lat="41.6467980" lon="-5.8053400">
        <ele>703.2</ele>
        <time>2021-10-13T12:27:34Z</time>
      </trkpt>
      <trkpt lat="41.6467410" lon="-5.8053390">
        <ele>703.6</ele>
        <time>2021-10-13T12:27:36Z</time>
      </trkpt>
      <trkpt lat="41.6466950" lon="-5.8053310">
        <ele>703.8</ele>
        <time>2021-10-13T12:27:38Z</time>
      </trkpt>
      <trkpt lat="41.6466680" lon="-5.8053360">
        <ele>703.8</ele>
        <time>2021-10-13T12:27:39Z</time>
      </trkpt>
      <trkpt lat="41.6464510" lon="-5.8053850">
        <ele>703.8</ele>
        <time>2021-10-13T12:27:47Z</time>
      </trkpt>
      <trkpt lat="41.6463070" lon="-5.8053960">
        <ele>704.0</ele>
        <time>2021-10-13T12:27:53Z</time>
      </trkpt>
      <trkpt lat="41.6461930" lon="-5.8054180">
        <ele>704.0</ele>
        <time>2021-10-13T12:27:57Z</time>
      </trkpt>
      <trkpt lat="41.6460370" lon="-5.8054310">
        <ele>704.2</ele>
        <time>2021-10-13T12:28:03Z</time>
      </trkpt>
      <trkpt lat="41.6459230" lon="-5.8054390">
        <ele>704.2</ele>
        <time>2021-10-13T12:28:07Z</time>
      </trkpt>
      <trkpt lat="41.6457630" lon="-5.8054510">
        <ele>704.4</ele>
        <time>2021-10-13T12:28:13Z</time>
      </trkpt>
      <trkpt lat="41.6457020" lon="-5.8054590">
        <ele>704.6</ele>
        <time>2021-10-13T12:28:15Z</time>
      </trkpt>
      <trkpt lat="41.6456740" lon="-5.8054630">
        <ele>704.8</ele>
        <time>2021-10-13T12:28:16Z</time>
      </trkpt>
      <trkpt lat="41.6454560" lon="-5.8055080">
        <ele>705.0</ele>
        <time>2021-10-13T12:28:24Z</time>
      </trkpt>
      <trkpt lat="41.6453120" lon="-5.8055250">
        <ele>705.4</ele>
        <time>2021-10-13T12:28:29Z</time>
      </trkpt>
      <trkpt lat="41.6452820" lon="-5.8055350">
        <ele>705.4</ele>
        <time>2021-10-13T12:28:30Z</time>
      </trkpt>
      <trkpt lat="41.6449780" lon="-5.8056150">
        <ele>705.6</ele>
        <time>2021-10-13T12:28:39Z</time>
      </trkpt>
      <trkpt lat="41.6448380" lon="-5.8056460">
        <ele>705.2</ele>
        <time>2021-10-13T12:28:43Z</time>
      </trkpt>
      <trkpt lat="41.6447460" lon="-5.8056450">
        <ele>705.2</ele>
        <time>2021-10-13T12:28:46Z</time>
      </trkpt>
      <trkpt lat="41.6444360" lon="-5.8055500">
        <ele>704.8</ele>
        <time>2021-10-13T12:28:54Z</time>
      </trkpt>
      <trkpt lat="41.6440560" lon="-5.8054420">
        <ele>705.0</ele>
        <time>2021-10-13T12:29:04Z</time>
      </trkpt>
      <trkpt lat="41.6437290" lon="-5.8053340">
        <ele>705.6</ele>
        <time>2021-10-13T12:29:13Z</time>
      </trkpt>
      <trkpt lat="41.6436240" lon="-5.8052980">
        <ele>705.8</ele>
        <time>2021-10-13T12:29:16Z</time>
      </trkpt>
      <trkpt lat="41.6435370" lon="-5.8052750">
        <ele>706.0</ele>
        <time>2021-10-13T12:29:19Z</time>
      </trkpt>
      <trkpt lat="41.6434660" lon="-5.8052630">
        <ele>706.0</ele>
        <time>2021-10-13T12:29:21Z</time>
      </trkpt>
      <trkpt lat="41.6432910" lon="-5.8052060">
        <ele>706.4</ele>
        <time>2021-10-13T12:29:26Z</time>
      </trkpt>
      <trkpt lat="41.6432270" lon="-5.8051770">
        <ele>706.4</ele>
        <time>2021-10-13T12:29:28Z</time>
      </trkpt>
      <trkpt lat="41.6429810" lon="-5.8051120">
        <ele>706.2</ele>
        <time>2021-10-13T12:29:35Z</time>
      </trkpt>
      <trkpt lat="41.6429460" lon="-5.8051050">
        <ele>706.0</ele>
        <time>2021-10-13T12:29:36Z</time>
      </trkpt>
      <trkpt lat="41.6426940" lon="-5.8050330">
        <ele>706.0</ele>
        <time>2021-10-13T12:29:43Z</time>
      </trkpt>
      <trkpt lat="41.6425710" lon="-5.8049970">
        <ele>706.4</ele>
        <time>2021-10-13T12:29:46Z</time>
      </trkpt>
      <trkpt lat="41.6424500" lon="-5.8049650">
        <ele>706.4</ele>
        <time>2021-10-13T12:29:49Z</time>
      </trkpt>
      <trkpt lat="41.6422060" lon="-5.8048940">
        <ele>706.4</ele>
        <time>2021-10-13T12:29:55Z</time>
      </trkpt>
      <trkpt lat="41.6418010" lon="-5.8047840">
        <ele>706.4</ele>
        <time>2021-10-13T12:30:05Z</time>
      </trkpt>
      <trkpt lat="41.6417660" lon="-5.8047750">
        <ele>706.4</ele>
        <time>2021-10-13T12:30:06Z</time>
      </trkpt>
      <trkpt lat="41.6414360" lon="-5.8046870">
        <ele>705.4</ele>
        <time>2021-10-13T12:30:14Z</time>
      </trkpt>
      <trkpt lat="41.6413960" lon="-5.8046780">
        <ele>705.4</ele>
        <time>2021-10-13T12:30:15Z</time>
      </trkpt>
      <trkpt lat="41.6412710" lon="-5.8046460">
        <ele>705.0</ele>
        <time>2021-10-13T12:30:18Z</time>
      </trkpt>
      <trkpt lat="41.6411980" lon="-5.8046230">
        <ele>704.8</ele>
        <time>2021-10-13T12:30:20Z</time>
      </trkpt>
      <trkpt lat="41.6410320" lon="-5.8045870">
        <ele>704.6</ele>
        <time>2021-10-13T12:30:24Z</time>
      </trkpt>
      <trkpt lat="41.6408490" lon="-5.8045410">
        <ele>704.2</ele>
        <time>2021-10-13T12:30:28Z</time>
      </trkpt>
      <trkpt lat="41.6407150" lon="-5.8045220">
        <ele>704.2</ele>
        <time>2021-10-13T12:30:31Z</time>
      </trkpt>
      <trkpt lat="41.6406690" lon="-5.8045260">
        <ele>704.4</ele>
        <time>2021-10-13T12:30:32Z</time>
      </trkpt>
      <trkpt lat="41.6406220" lon="-5.8045370">
        <ele>704.4</ele>
        <time>2021-10-13T12:30:33Z</time>
      </trkpt>
      <trkpt lat="41.6405040" lon="-5.8046110">
        <ele>704.4</ele>
        <time>2021-10-13T12:30:36Z</time>
      </trkpt>
      <trkpt lat="41.6403150" lon="-5.8047680">
        <ele>704.2</ele>
        <time>2021-10-13T12:30:41Z</time>
      </trkpt>
      <trkpt lat="41.6402420" lon="-5.8048330">
        <ele>704.0</ele>
        <time>2021-10-13T12:30:44Z</time>
      </trkpt>
      <trkpt lat="41.6400800" lon="-5.8049750">
        <ele>703.8</ele>
        <time>2021-10-13T12:30:48Z</time>
      </trkpt>
      <trkpt lat="41.6399580" lon="-5.8050870">
        <ele>703.6</ele>
        <time>2021-10-13T12:30:52Z</time>
      </trkpt>
      <trkpt lat="41.6398360" lon="-5.8051960">
        <ele>703.8</ele>
        <time>2021-10-13T12:30:56Z</time>
      </trkpt>
      <trkpt lat="41.6397450" lon="-5.8052750">
        <ele>703.8</ele>
        <time>2021-10-13T12:30:59Z</time>
      </trkpt>
      <trkpt lat="41.6396240" lon="-5.8053840">
        <ele>704.0</ele>
        <time>2021-10-13T12:31:03Z</time>
      </trkpt>
      <trkpt lat="41.6395340" lon="-5.8054600">
        <ele>704.4</ele>
        <time>2021-10-13T12:31:06Z</time>
      </trkpt>
      <trkpt lat="41.6393310" lon="-5.8056480">
        <ele>704.8</ele>
        <time>2021-10-13T12:31:13Z</time>
      </trkpt>
      <trkpt lat="41.6392720" lon="-5.8057050">
        <ele>704.8</ele>
        <time>2021-10-13T12:31:15Z</time>
      </trkpt>
      <trkpt lat="41.6391510" lon="-5.8058170">
        <ele>705.0</ele>
        <time>2021-10-13T12:31:19Z</time>
      </trkpt>
      <trkpt lat="41.6389680" lon="-5.8059790">
        <ele>705.0</ele>
        <time>2021-10-13T12:31:25Z</time>
      </trkpt>
      <trkpt lat="41.6388530" lon="-5.8060240">
        <ele>705.0</ele>
        <time>2021-10-13T12:31:29Z</time>
      </trkpt>
      <trkpt lat="41.6387350" lon="-5.8059410">
        <ele>705.0</ele>
        <time>2021-10-13T12:31:33Z</time>
      </trkpt>
      <trkpt lat="41.6387100" lon="-5.8059080">
        <ele>705.0</ele>
        <time>2021-10-13T12:31:34Z</time>
      </trkpt>
      <trkpt lat="41.6386390" lon="-5.8057950">
        <ele>705.2</ele>
        <time>2021-10-13T12:31:37Z</time>
      </trkpt>
      <trkpt lat="41.6385600" lon="-5.8056770">
        <ele>705.2</ele>
        <time>2021-10-13T12:31:40Z</time>
      </trkpt>
      <trkpt lat="41.6385010" lon="-5.8055940">
        <ele>705.0</ele>
        <time>2021-10-13T12:31:43Z</time>
      </trkpt>
      <trkpt lat="41.6382880" lon="-5.8052790">
        <ele>704.0</ele>
        <time>2021-10-13T12:31:49Z</time>
      </trkpt>
      <trkpt lat="41.6382330" lon="-5.8051930">
        <ele>703.8</ele>
        <time>2021-10-13T12:31:51Z</time>
      </trkpt>
      <trkpt lat="41.6382060" lon="-5.8051520">
        <ele>703.6</ele>
        <time>2021-10-13T12:31:52Z</time>
      </trkpt>
      <trkpt lat="41.6380110" lon="-5.8048780">
        <ele>703.2</ele>
        <time>2021-10-13T12:31:59Z</time>
      </trkpt>
      <trkpt lat="41.6378210" lon="-5.8045780">
        <ele>703.8</ele>
        <time>2021-10-13T12:32:07Z</time>
      </trkpt>
      <trkpt lat="41.6376520" lon="-5.8043140">
        <ele>704.4</ele>
        <time>2021-10-13T12:32:15Z</time>
      </trkpt>
      <trkpt lat="41.6375810" lon="-5.8042040">
        <ele>704.8</ele>
        <time>2021-10-13T12:32:19Z</time>
      </trkpt>
      <trkpt lat="41.6375100" lon="-5.8040960">
        <ele>705.0</ele>
        <time>2021-10-13T12:32:23Z</time>
      </trkpt>
      <trkpt lat="41.6374410" lon="-5.8039920">
        <ele>705.4</ele>
        <time>2021-10-13T12:32:27Z</time>
      </trkpt>
      <trkpt lat="41.6373870" lon="-5.8039080">
        <ele>705.8</ele>
        <time>2021-10-13T12:32:30Z</time>
      </trkpt>
      <trkpt lat="41.6373760" lon="-5.8038850">
        <ele>705.8</ele>
        <time>2021-10-13T12:32:31Z</time>
      </trkpt>
      <trkpt lat="41.6372910" lon="-5.8037590">
        <ele>706.2</ele>
        <time>2021-10-13T12:32:36Z</time>
      </trkpt>
      <trkpt lat="41.6371740" lon="-5.8035820">
        <ele>707.0</ele>
        <time>2021-10-13T12:32:43Z</time>
      </trkpt>
      <trkpt lat="41.6371470" lon="-5.8035400">
        <ele>707.2</ele>
        <time>2021-10-13T12:32:45Z</time>
      </trkpt>
      <trkpt lat="41.6371160" lon="-5.8034920">
        <ele>707.4</ele>
        <time>2021-10-13T12:32:47Z</time>
      </trkpt>
      <trkpt lat="41.6370660" lon="-5.8034250">
        <ele>707.6</ele>
        <time>2021-10-13T12:32:50Z</time>
      </trkpt>
      <trkpt lat="41.6369970" lon="-5.8033290">
        <ele>707.8</ele>
        <time>2021-10-13T12:32:54Z</time>
      </trkpt>
      <trkpt lat="41.6369550" lon="-5.8032660">
        <ele>708.0</ele>
        <time>2021-10-13T12:32:57Z</time>
      </trkpt>
      <trkpt lat="41.6369380" lon="-5.8032410">
        <ele>708.0</ele>
        <time>2021-10-13T12:32:58Z</time>
      </trkpt>
      <trkpt lat="41.6368920" lon="-5.8031680">
        <ele>708.2</ele>
        <time>2021-10-13T12:33:01Z</time>
      </trkpt>
      <trkpt lat="41.6368410" lon="-5.8030940">
        <ele>708.4</ele>
        <time>2021-10-13T12:33:04Z</time>
      </trkpt>
      <trkpt lat="41.6367980" lon="-5.8030260">
        <ele>708.8</ele>
        <time>2021-10-13T12:33:07Z</time>
      </trkpt>
      <trkpt lat="41.6367830" lon="-5.8030030">
        <ele>709.0</ele>
        <time>2021-10-13T12:33:08Z</time>
      </trkpt>
      <trkpt lat="41.6367330" lon="-5.8029260">
        <ele>709.4</ele>
        <time>2021-10-13T12:33:11Z</time>
      </trkpt>
      <trkpt lat="41.6367040" lon="-5.8028700">
        <ele>709.6</ele>
        <time>2021-10-13T12:33:13Z</time>
      </trkpt>
      <trkpt lat="41.6366940" lon="-5.8028500">
        <ele>709.6</ele>
        <time>2021-10-13T12:33:14Z</time>
      </trkpt>
      <trkpt lat="41.6366230" lon="-5.8027560">
        <ele>710.2</ele>
        <time>2021-10-13T12:33:18Z</time>
      </trkpt>
      <trkpt lat="41.6365570" lon="-5.8026900">
        <ele>710.6</ele>
        <time>2021-10-13T12:33:22Z</time>
      </trkpt>
      <trkpt lat="41.6365290" lon="-5.8026570">
        <ele>710.8</ele>
        <time>2021-10-13T12:33:24Z</time>
      </trkpt>
      <trkpt lat="41.6365090" lon="-5.8026040">
        <ele>710.8</ele>
        <time>2021-10-13T12:33:26Z</time>
      </trkpt>
      <trkpt lat="41.6364990" lon="-5.8025530">
        <ele>710.8</ele>
        <time>2021-10-13T12:33:28Z</time>
      </trkpt>
      <trkpt lat="41.6364040" lon="-5.8023950">
        <ele>711.0</ele>
        <time>2021-10-13T12:33:35Z</time>
      </trkpt>
      <trkpt lat="41.6363540" lon="-5.8023260">
        <ele>711.2</ele>
        <time>2021-10-13T12:33:38Z</time>
      </trkpt>
      <trkpt lat="41.6363200" lon="-5.8022790">
        <ele>711.4</ele>
        <time>2021-10-13T12:33:40Z</time>
      </trkpt>
      <trkpt lat="41.6362690" lon="-5.8022050">
        <ele>711.6</ele>
        <time>2021-10-13T12:33:43Z</time>
      </trkpt>
      <trkpt lat="41.6362500" lon="-5.8021820">
        <ele>711.6</ele>
        <time>2021-10-13T12:33:44Z</time>
      </trkpt>
      <trkpt lat="41.6362130" lon="-5.8021280">
        <ele>711.8</ele>
        <time>2021-10-13T12:33:46Z</time>
      </trkpt>
      <trkpt lat="41.6361580" lon="-5.8020490">
        <ele>711.8</ele>
        <time>2021-10-13T12:33:49Z</time>
      </trkpt>
      <trkpt lat="41.6361340" lon="-5.8020210">
        <ele>711.8</ele>
        <time>2021-10-13T12:33:50Z</time>
      </trkpt>
      <trkpt lat="41.6360800" lon="-5.8019460">
        <ele>712.2</ele>
        <time>2021-10-13T12:33:53Z</time>
      </trkpt>
      <trkpt lat="41.6359820" lon="-5.8017980">
        <ele>712.6</ele>
        <time>2021-10-13T12:33:58Z</time>
      </trkpt>
      <trkpt lat="41.6358590" lon="-5.8016080">
        <ele>713.0</ele>
        <time>2021-10-13T12:34:04Z</time>
      </trkpt>
      <trkpt lat="41.6358200" lon="-5.8015500">
        <ele>713.0</ele>
        <time>2021-10-13T12:34:06Z</time>
      </trkpt>
      <trkpt lat="41.6357820" lon="-5.8014920">
        <ele>713.0</ele>
        <time>2021-10-13T12:34:08Z</time>
      </trkpt>
      <trkpt lat="41.6357490" lon="-5.8014300">
        <ele>713.2</ele>
        <time>2021-10-13T12:34:10Z</time>
      </trkpt>
      <trkpt lat="41.6357110" lon="-5.8013740">
        <ele>713.6</ele>
        <time>2021-10-13T12:34:12Z</time>
      </trkpt>
      <trkpt lat="41.6356560" lon="-5.8012890">
        <ele>713.8</ele>
        <time>2021-10-13T12:34:15Z</time>
      </trkpt>
      <trkpt lat="41.6355250" lon="-5.8011130">
        <ele>713.6</ele>
        <time>2021-10-13T12:34:22Z</time>
      </trkpt>
      <trkpt lat="41.6354880" lon="-5.8010640">
        <ele>713.4</ele>
        <time>2021-10-13T12:34:24Z</time>
      </trkpt>
      <trkpt lat="41.6354140" lon="-5.8009690">
        <ele>713.4</ele>
        <time>2021-10-13T12:34:28Z</time>
      </trkpt>
      <trkpt lat="41.6353660" lon="-5.8009080">
        <ele>713.6</ele>
        <time>2021-10-13T12:34:31Z</time>
      </trkpt>
      <trkpt lat="41.6353100" lon="-5.8008430">
        <ele>714.0</ele>
        <time>2021-10-13T12:34:34Z</time>
      </trkpt>
      <trkpt lat="41.6352650" lon="-5.8008120">
        <ele>714.4</ele>
        <time>2021-10-13T12:34:36Z</time>
      </trkpt>
      <trkpt lat="41.6352420" lon="-5.8007960">
        <ele>714.4</ele>
        <time>2021-10-13T12:34:37Z</time>
      </trkpt>
      <trkpt lat="41.6352140" lon="-5.8007760">
        <ele>714.6</ele>
        <time>2021-10-13T12:34:38Z</time>
      </trkpt>
      <trkpt lat="41.6351560" lon="-5.8007450">
        <ele>714.8</ele>
        <time>2021-10-13T12:34:41Z</time>
      </trkpt>
      <trkpt lat="41.6350940" lon="-5.8007120">
        <ele>715.0</ele>
        <time>2021-10-13T12:34:44Z</time>
      </trkpt>
      <trkpt lat="41.6350050" lon="-5.8006810">
        <ele>715.0</ele>
        <time>2021-10-13T12:34:48Z</time>
      </trkpt>
      <trkpt lat="41.6349760" lon="-5.8006750">
        <ele>715.0</ele>
        <time>2021-10-13T12:34:49Z</time>
      </trkpt>
      <trkpt lat="41.6349280" lon="-5.8006600">
        <ele>714.8</ele>
        <time>2021-10-13T12:34:51Z</time>
      </trkpt>
      <trkpt lat="41.6346910" lon="-5.8005720">
        <ele>714.8</ele>
        <time>2021-10-13T12:34:59Z</time>
      </trkpt>
      <trkpt lat="41.6345270" lon="-5.8005240">
        <ele>715.2</ele>
        <time>2021-10-13T12:35:06Z</time>
      </trkpt>
      <trkpt lat="41.6344660" lon="-5.8004990">
        <ele>715.4</ele>
        <time>2021-10-13T12:35:09Z</time>
      </trkpt>
      <trkpt lat="41.6343630" lon="-5.8004610">
        <ele>715.4</ele>
        <time>2021-10-13T12:35:13Z</time>
      </trkpt>
      <trkpt lat="41.6343390" lon="-5.8004520">
        <ele>715.4</ele>
        <time>2021-10-13T12:35:14Z</time>
      </trkpt>
      <trkpt lat="41.6342790" lon="-5.8004370">
        <ele>715.4</ele>
        <time>2021-10-13T12:35:16Z</time>
      </trkpt>
      <trkpt lat="41.6341870" lon="-5.8004110">
        <ele>715.4</ele>
        <time>2021-10-13T12:35:19Z</time>
      </trkpt>
      <trkpt lat="41.6341260" lon="-5.8003860">
        <ele>715.2</ele>
        <time>2021-10-13T12:35:21Z</time>
      </trkpt>
      <trkpt lat="41.6340380" lon="-5.8003530">
        <ele>715.2</ele>
        <time>2021-10-13T12:35:24Z</time>
      </trkpt>
      <trkpt lat="41.6339340" lon="-5.8003180">
        <ele>715.0</ele>
        <time>2021-10-13T12:35:27Z</time>
      </trkpt>
      <trkpt lat="41.6337990" lon="-5.8002830">
        <ele>714.8</ele>
        <time>2021-10-13T12:35:31Z</time>
      </trkpt>
      <trkpt lat="41.6337540" lon="-5.8002680">
        <ele>714.6</ele>
        <time>2021-10-13T12:35:32Z</time>
      </trkpt>
      <trkpt lat="41.6333930" lon="-5.8001470">
        <ele>713.4</ele>
        <time>2021-10-13T12:35:41Z</time>
      </trkpt>
      <trkpt lat="41.6332200" lon="-5.8000900">
        <ele>713.0</ele>
        <time>2021-10-13T12:35:45Z</time>
      </trkpt>
      <trkpt lat="41.6330930" lon="-5.8000460">
        <ele>712.8</ele>
        <time>2021-10-13T12:35:48Z</time>
      </trkpt>
      <trkpt lat="41.6328980" lon="-5.7999750">
        <ele>712.4</ele>
        <time>2021-10-13T12:35:52Z</time>
      </trkpt>
      <trkpt lat="41.6326100" lon="-5.7998770">
        <ele>711.4</ele>
        <time>2021-10-13T12:35:58Z</time>
      </trkpt>
      <trkpt lat="41.6324290" lon="-5.7998110">
        <ele>711.2</ele>
        <time>2021-10-13T12:36:02Z</time>
      </trkpt>
      <trkpt lat="41.6322720" lon="-5.7997540">
        <ele>711.0</ele>
        <time>2021-10-13T12:36:06Z</time>
      </trkpt>
      <trkpt lat="41.6320950" lon="-5.7997000">
        <ele>711.2</ele>
        <time>2021-10-13T12:36:11Z</time>
      </trkpt>
      <trkpt lat="41.6319850" lon="-5.7996580">
        <ele>710.8</ele>
        <time>2021-10-13T12:36:14Z</time>
      </trkpt>
      <trkpt lat="41.6318230" lon="-5.7996010">
        <ele>710.8</ele>
        <time>2021-10-13T12:36:18Z</time>
      </trkpt>
      <trkpt lat="41.6316600" lon="-5.7995420">
        <ele>710.8</ele>
        <time>2021-10-13T12:36:22Z</time>
      </trkpt>
      <trkpt lat="41.6315830" lon="-5.7995200">
        <ele>710.8</ele>
        <time>2021-10-13T12:36:24Z</time>
      </trkpt>
      <trkpt lat="41.6315100" lon="-5.7994870">
        <ele>710.6</ele>
        <time>2021-10-13T12:36:26Z</time>
      </trkpt>
      <trkpt lat="41.6313570" lon="-5.7994310">
        <ele>710.8</ele>
        <time>2021-10-13T12:36:30Z</time>
      </trkpt>
      <trkpt lat="41.6312310" lon="-5.7993820">
        <ele>711.2</ele>
        <time>2021-10-13T12:36:33Z</time>
      </trkpt>
      <trkpt lat="41.6309840" lon="-5.7992980">
        <ele>711.4</ele>
        <time>2021-10-13T12:36:39Z</time>
      </trkpt>
      <trkpt lat="41.6309420" lon="-5.7992840">
        <ele>711.2</ele>
        <time>2021-10-13T12:36:40Z</time>
      </trkpt>
      <trkpt lat="41.6309040" lon="-5.7992690">
        <ele>711.2</ele>
        <time>2021-10-13T12:36:41Z</time>
      </trkpt>
      <trkpt lat="41.6307460" lon="-5.7992230">
        <ele>711.0</ele>
        <time>2021-10-13T12:36:45Z</time>
      </trkpt>
      <trkpt lat="41.6305370" lon="-5.7991590">
        <ele>710.8</ele>
        <time>2021-10-13T12:36:50Z</time>
      </trkpt>
      <trkpt lat="41.6304940" lon="-5.7991460">
        <ele>710.8</ele>
        <time>2021-10-13T12:36:51Z</time>
      </trkpt>
      <trkpt lat="41.6302840" lon="-5.7990610">
        <ele>711.0</ele>
        <time>2021-10-13T12:36:56Z</time>
      </trkpt>
      <trkpt lat="41.6301930" lon="-5.7990340">
        <ele>711.0</ele>
        <time>2021-10-13T12:36:58Z</time>
      </trkpt>
      <trkpt lat="41.6299050" lon="-5.7989400">
        <ele>711.4</ele>
        <time>2021-10-13T12:37:05Z</time>
      </trkpt>
      <trkpt lat="41.6298200" lon="-5.7989120">
        <ele>711.4</ele>
        <time>2021-10-13T12:37:07Z</time>
      </trkpt>
      <trkpt lat="41.6297800" lon="-5.7988950">
        <ele>711.4</ele>
        <time>2021-10-13T12:37:08Z</time>
      </trkpt>
      <trkpt lat="41.6297410" lon="-5.7988780">
        <ele>711.4</ele>
        <time>2021-10-13T12:37:09Z</time>
      </trkpt>
      <trkpt lat="41.6295370" lon="-5.7988070">
        <ele>711.6</ele>
        <time>2021-10-13T12:37:14Z</time>
      </trkpt>
      <trkpt lat="41.6294490" lon="-5.7987840">
        <ele>711.6</ele>
        <time>2021-10-13T12:37:16Z</time>
      </trkpt>
      <trkpt lat="41.6293280" lon="-5.7987420">
        <ele>711.8</ele>
        <time>2021-10-13T12:37:19Z</time>
      </trkpt>
      <trkpt lat="41.6292500" lon="-5.7987160">
        <ele>711.8</ele>
        <time>2021-10-13T12:37:21Z</time>
      </trkpt>
      <trkpt lat="41.6292110" lon="-5.7986990">
        <ele>712.0</ele>
        <time>2021-10-13T12:37:22Z</time>
      </trkpt>
      <trkpt lat="41.6291640" lon="-5.7986800">
        <ele>712.0</ele>
        <time>2021-10-13T12:37:23Z</time>
      </trkpt>
      <trkpt lat="41.6290930" lon="-5.7986560">
        <ele>712.6</ele>
        <time>2021-10-13T12:37:25Z</time>
      </trkpt>
      <trkpt lat="41.6290110" lon="-5.7986260">
        <ele>712.8</ele>
        <time>2021-10-13T12:37:27Z</time>
      </trkpt>
      <trkpt lat="41.6289040" lon="-5.7985850">
        <ele>713.0</ele>
        <time>2021-10-13T12:37:30Z</time>
      </trkpt>
      <trkpt lat="41.6288590" lon="-5.7985710">
        <ele>713.0</ele>
        <time>2021-10-13T12:37:31Z</time>
      </trkpt>
      <trkpt lat="41.6286070" lon="-5.7984860">
        <ele>713.4</ele>
        <time>2021-10-13T12:37:38Z</time>
      </trkpt>
      <trkpt lat="41.6285700" lon="-5.7984730">
        <ele>713.4</ele>
        <time>2021-10-13T12:37:39Z</time>
      </trkpt>
      <trkpt lat="41.6284910" lon="-5.7984540">
        <ele>713.4</ele>
        <time>2021-10-13T12:37:41Z</time>
      </trkpt>
      <trkpt lat="41.6283710" lon="-5.7984160">
        <ele>713.8</ele>
        <time>2021-10-13T12:37:44Z</time>
      </trkpt>
      <trkpt lat="41.6282530" lon="-5.7983750">
        <ele>714.2</ele>
        <time>2021-10-13T12:37:47Z</time>
      </trkpt>
      <trkpt lat="41.6281760" lon="-5.7983430">
        <ele>714.6</ele>
        <time>2021-10-13T12:37:49Z</time>
      </trkpt>
      <trkpt lat="41.6281350" lon="-5.7983280">
        <ele>714.6</ele>
        <time>2021-10-13T12:37:50Z</time>
      </trkpt>
      <trkpt lat="41.6280940" lon="-5.7983140">
        <ele>714.6</ele>
        <time>2021-10-13T12:37:51Z</time>
      </trkpt>
      <trkpt lat="41.6280070" lon="-5.7982850">
        <ele>714.8</ele>
        <time>2021-10-13T12:37:53Z</time>
      </trkpt>
      <trkpt lat="41.6278520" lon="-5.7982240">
        <ele>714.8</ele>
        <time>2021-10-13T12:37:57Z</time>
      </trkpt>
      <trkpt lat="41.6277780" lon="-5.7981990">
        <ele>714.8</ele>
        <time>2021-10-13T12:37:59Z</time>
      </trkpt>
      <trkpt lat="41.6277030" lon="-5.7981740">
        <ele>714.8</ele>
        <time>2021-10-13T12:38:01Z</time>
      </trkpt>
      <trkpt lat="41.6276640" lon="-5.7981620">
        <ele>715.0</ele>
        <time>2021-10-13T12:38:02Z</time>
      </trkpt>
      <trkpt lat="41.6275450" lon="-5.7981230">
        <ele>715.4</ele>
        <time>2021-10-13T12:38:05Z</time>
      </trkpt>
      <trkpt lat="41.6274750" lon="-5.7980980">
        <ele>716.2</ele>
        <time>2021-10-13T12:38:07Z</time>
      </trkpt>
      <trkpt lat="41.6273120" lon="-5.7980490">
        <ele>717.2</ele>
        <time>2021-10-13T12:38:12Z</time>
      </trkpt>
      <trkpt lat="41.6272820" lon="-5.7980370">
        <ele>717.2</ele>
        <time>2021-10-13T12:38:13Z</time>
      </trkpt>
      <trkpt lat="41.6271400" lon="-5.7979810">
        <ele>717.8</ele>
        <time>2021-10-13T12:38:18Z</time>
      </trkpt>
      <trkpt lat="41.6270800" lon="-5.7979620">
        <ele>717.8</ele>
        <time>2021-10-13T12:38:20Z</time>
      </trkpt>
      <trkpt lat="41.6269870" lon="-5.7979370">
        <ele>717.6</ele>
        <time>2021-10-13T12:38:23Z</time>
      </trkpt>
      <trkpt lat="41.6268740" lon="-5.7978940">
        <ele>717.6</ele>
        <time>2021-10-13T12:38:27Z</time>
      </trkpt>
      <trkpt lat="41.6267420" lon="-5.7978510">
        <ele>717.6</ele>
        <time>2021-10-13T12:38:32Z</time>
      </trkpt>
      <trkpt lat="41.6266970" lon="-5.7978370">
        <ele>718.0</ele>
        <time>2021-10-13T12:38:34Z</time>
      </trkpt>
      <trkpt lat="41.6266790" lon="-5.7978340">
        <ele>718.4</ele>
        <time>2021-10-13T12:38:35Z</time>
      </trkpt>
      <trkpt lat="41.6266380" lon="-5.7978310">
        <ele>718.8</ele>
        <time>2021-10-13T12:38:37Z</time>
      </trkpt>
      <trkpt lat="41.6265950" lon="-5.7978250">
        <ele>719.0</ele>
        <time>2021-10-13T12:38:39Z</time>
      </trkpt>
      <trkpt lat="41.6265170" lon="-5.7978270">
        <ele>719.4</ele>
        <time>2021-10-13T12:38:43Z</time>
      </trkpt>
      <trkpt lat="41.6265090" lon="-5.7978290">
        <ele>719.4</ele>
        <time>2021-10-13T12:38:45Z</time>
      </trkpt>
      <trkpt lat="41.6265090" lon="-5.7978290">
        <ele>719.4</ele>
        <time>2021-10-13T12:38:46Z</time>
      </trkpt>
      <trkpt lat="41.6264770" lon="-5.7978530">
        <ele>717.6</ele>
        <time>2021-10-13T12:40:43Z</time>
      </trkpt>
      <trkpt lat="41.6264530" lon="-5.7978730">
        <ele>717.6</ele>
        <time>2021-10-13T12:40:44Z</time>
      </trkpt>
      <trkpt lat="41.6264230" lon="-5.7978930">
        <ele>717.6</ele>
        <time>2021-10-13T12:40:45Z</time>
      </trkpt>
      <trkpt lat="41.6262490" lon="-5.7980300">
        <ele>717.2</ele>
        <time>2021-10-13T12:40:50Z</time>
      </trkpt>
      <trkpt lat="41.6262120" lon="-5.7980580">
        <ele>717.0</ele>
        <time>2021-10-13T12:40:51Z</time>
      </trkpt>
      <trkpt lat="41.6260670" lon="-5.7981820">
        <ele>716.6</ele>
        <time>2021-10-13T12:40:55Z</time>
      </trkpt>
      <trkpt lat="41.6259620" lon="-5.7982720">
        <ele>716.4</ele>
        <time>2021-10-13T12:40:58Z</time>
      </trkpt>
      <trkpt lat="41.6256520" lon="-5.7985520">
        <ele>715.8</ele>
        <time>2021-10-13T12:41:06Z</time>
      </trkpt>
      <trkpt lat="41.6254260" lon="-5.7987350">
        <ele>716.0</ele>
        <time>2021-10-13T12:41:12Z</time>
      </trkpt>
      <trkpt lat="41.6253240" lon="-5.7988220">
        <ele>715.8</ele>
        <time>2021-10-13T12:41:15Z</time>
      </trkpt>
      <trkpt lat="41.6251330" lon="-5.7990000">
        <ele>716.0</ele>
        <time>2021-10-13T12:41:21Z</time>
      </trkpt>
      <trkpt lat="41.6250720" lon="-5.7990680">
        <ele>716.0</ele>
        <time>2021-10-13T12:41:23Z</time>
      </trkpt>
      <trkpt lat="41.6248580" lon="-5.7992540">
        <ele>716.0</ele>
        <time>2021-10-13T12:41:29Z</time>
      </trkpt>
      <trkpt lat="41.6247840" lon="-5.7993210">
        <ele>716.0</ele>
        <time>2021-10-13T12:41:31Z</time>
      </trkpt>
      <trkpt lat="41.6247260" lon="-5.7993760">
        <ele>716.0</ele>
        <time>2021-10-13T12:41:33Z</time>
      </trkpt>
      <trkpt lat="41.6245970" lon="-5.7994930">
        <ele>716.2</ele>
        <time>2021-10-13T12:41:37Z</time>
      </trkpt>
      <trkpt lat="41.6244540" lon="-5.7996130">
        <ele>716.2</ele>
        <time>2021-10-13T12:41:41Z</time>
      </trkpt>
      <trkpt lat="41.6243780" lon="-5.7996760">
        <ele>716.2</ele>
        <time>2021-10-13T12:41:43Z</time>
      </trkpt>
      <trkpt lat="41.6241770" lon="-5.7998520">
        <ele>715.8</ele>
        <time>2021-10-13T12:41:48Z</time>
      </trkpt>
      <trkpt lat="41.6240910" lon="-5.7999250">
        <ele>715.8</ele>
        <time>2021-10-13T12:41:50Z</time>
      </trkpt>
      <trkpt lat="41.6238710" lon="-5.8001130">
        <ele>715.4</ele>
        <time>2021-10-13T12:41:55Z</time>
      </trkpt>
      <trkpt lat="41.6237860" lon="-5.8001900">
        <ele>715.4</ele>
        <time>2021-10-13T12:41:57Z</time>
      </trkpt>
      <trkpt lat="41.6235050" lon="-5.8004340">
        <ele>715.0</ele>
        <time>2021-10-13T12:42:04Z</time>
      </trkpt>
      <trkpt lat="41.6234700" lon="-5.8004640">
        <ele>714.8</ele>
        <time>2021-10-13T12:42:05Z</time>
      </trkpt>
      <trkpt lat="41.6234350" lon="-5.8004980">
        <ele>714.8</ele>
        <time>2021-10-13T12:42:06Z</time>
      </trkpt>
      <trkpt lat="41.6233340" lon="-5.8005840">
        <ele>714.6</ele>
        <time>2021-10-13T12:42:09Z</time>
      </trkpt>
      <trkpt lat="41.6232420" lon="-5.8006590">
        <ele>714.4</ele>
        <time>2021-10-13T12:42:12Z</time>
      </trkpt>
      <trkpt lat="41.6231200" lon="-5.8007640">
        <ele>714.6</ele>
        <time>2021-10-13T12:42:16Z</time>
      </trkpt>
      <trkpt lat="41.6230170" lon="-5.8007830">
        <ele>714.8</ele>
        <time>2021-10-13T12:42:19Z</time>
      </trkpt>
      <trkpt lat="41.6229250" lon="-5.8006900">
        <ele>715.0</ele>
        <time>2021-10-13T12:42:23Z</time>
      </trkpt>
      <trkpt lat="41.6228920" lon="-5.8006110">
        <ele>715.8</ele>
        <time>2021-10-13T12:42:26Z</time>
      </trkpt>
      <trkpt lat="41.6228640" lon="-5.8005630">
        <ele>716.0</ele>
        <time>2021-10-13T12:42:28Z</time>
      </trkpt>
      <trkpt lat="41.6227360" lon="-5.8002740">
        <ele>716.6</ele>
        <time>2021-10-13T12:42:38Z</time>
      </trkpt>
      <trkpt lat="41.6226740" lon="-5.8001330">
        <ele>716.4</ele>
        <time>2021-10-13T12:42:42Z</time>
      </trkpt>
      <trkpt lat="41.6226050" lon="-5.8000000">
        <ele>716.4</ele>
        <time>2021-10-13T12:42:46Z</time>
      </trkpt>
      <trkpt lat="41.6225100" lon="-5.7997970">
        <ele>716.8</ele>
        <time>2021-10-13T12:42:52Z</time>
      </trkpt>
      <trkpt lat="41.6224800" lon="-5.7997310">
        <ele>717.0</ele>
        <time>2021-10-13T12:42:54Z</time>
      </trkpt>
      <trkpt lat="41.6223510" lon="-5.7994640">
        <ele>717.8</ele>
        <time>2021-10-13T12:43:02Z</time>
      </trkpt>
      <trkpt lat="41.6223060" lon="-5.7993610">
        <ele>718.0</ele>
        <time>2021-10-13T12:43:05Z</time>
      </trkpt>
      <trkpt lat="41.6222740" lon="-5.7992930">
        <ele>717.8</ele>
        <time>2021-10-13T12:43:07Z</time>
      </trkpt>
      <trkpt lat="41.6221780" lon="-5.7990860">
        <ele>718.2</ele>
        <time>2021-10-13T12:43:13Z</time>
      </trkpt>
      <trkpt lat="41.6221450" lon="-5.7990160">
        <ele>718.2</ele>
        <time>2021-10-13T12:43:15Z</time>
      </trkpt>
      <trkpt lat="41.6221100" lon="-5.7989380">
        <ele>718.6</ele>
        <time>2021-10-13T12:43:17Z</time>
      </trkpt>
      <trkpt lat="41.6220420" lon="-5.7988000">
        <ele>719.0</ele>
        <time>2021-10-13T12:43:21Z</time>
      </trkpt>
      <trkpt lat="41.6220250" lon="-5.7987600">
        <ele>719.2</ele>
        <time>2021-10-13T12:43:22Z</time>
      </trkpt>
      <trkpt lat="41.6219530" lon="-5.7986140">
        <ele>719.4</ele>
        <time>2021-10-13T12:43:26Z</time>
      </trkpt>
      <trkpt lat="41.6219160" lon="-5.7985360">
        <ele>719.4</ele>
        <time>2021-10-13T12:43:28Z</time>
      </trkpt>
      <trkpt lat="41.6218770" lon="-5.7984590">
        <ele>719.4</ele>
        <time>2021-10-13T12:43:30Z</time>
      </trkpt>
      <trkpt lat="41.6218220" lon="-5.7983470">
        <ele>719.6</ele>
        <time>2021-10-13T12:43:33Z</time>
      </trkpt>
      <trkpt lat="41.6217390" lon="-5.7981690">
        <ele>720.2</ele>
        <time>2021-10-13T12:43:38Z</time>
      </trkpt>
      <trkpt lat="41.6216910" lon="-5.7980680">
        <ele>720.4</ele>
        <time>2021-10-13T12:43:41Z</time>
      </trkpt>
      <trkpt lat="41.6216600" lon="-5.7980010">
        <ele>720.6</ele>
        <time>2021-10-13T12:43:43Z</time>
      </trkpt>
      <trkpt lat="41.6215400" lon="-5.7977690">
        <ele>720.8</ele>
        <time>2021-10-13T12:43:50Z</time>
      </trkpt>
      <trkpt lat="41.6214600" lon="-5.7976540">
        <ele>721.2</ele>
        <time>2021-10-13T12:43:54Z</time>
      </trkpt>
      <trkpt lat="41.6213880" lon="-5.7975770">
        <ele>721.6</ele>
        <time>2021-10-13T12:43:57Z</time>
      </trkpt>
      <trkpt lat="41.6213590" lon="-5.7975570">
        <ele>721.6</ele>
        <time>2021-10-13T12:43:58Z</time>
      </trkpt>
      <trkpt lat="41.6213030" lon="-5.7975240">
        <ele>721.6</ele>
        <time>2021-10-13T12:44:00Z</time>
      </trkpt>
      <trkpt lat="41.6212140" lon="-5.7974830">
        <ele>721.6</ele>
        <time>2021-10-13T12:44:03Z</time>
      </trkpt>
      <trkpt lat="41.6211840" lon="-5.7974720">
        <ele>721.6</ele>
        <time>2021-10-13T12:44:04Z</time>
      </trkpt>
      <trkpt lat="41.6211230" lon="-5.7974580">
        <ele>721.6</ele>
        <time>2021-10-13T12:44:06Z</time>
      </trkpt>
      <trkpt lat="41.6210930" lon="-5.7974510">
        <ele>721.6</ele>
        <time>2021-10-13T12:44:07Z</time>
      </trkpt>
      <trkpt lat="41.6208190" lon="-5.7973720">
        <ele>721.8</ele>
        <time>2021-10-13T12:44:16Z</time>
      </trkpt>
      <trkpt lat="41.6207280" lon="-5.7973400">
        <ele>722.0</ele>
        <time>2021-10-13T12:44:19Z</time>
      </trkpt>
      <trkpt lat="41.6206690" lon="-5.7973190">
        <ele>722.2</ele>
        <time>2021-10-13T12:44:21Z</time>
      </trkpt>
      <trkpt lat="41.6205210" lon="-5.7972760">
        <ele>722.6</ele>
        <time>2021-10-13T12:44:26Z</time>
      </trkpt>
      <trkpt lat="41.6204890" lon="-5.7972650">
        <ele>722.6</ele>
        <time>2021-10-13T12:44:27Z</time>
      </trkpt>
      <trkpt lat="41.6203870" lon="-5.7972330">
        <ele>722.8</ele>
        <time>2021-10-13T12:44:30Z</time>
      </trkpt>
      <trkpt lat="41.6202330" lon="-5.7971810">
        <ele>723.4</ele>
        <time>2021-10-13T12:44:34Z</time>
      </trkpt>
      <trkpt lat="41.6201950" lon="-5.7971700">
        <ele>723.4</ele>
        <time>2021-10-13T12:44:35Z</time>
      </trkpt>
      <trkpt lat="41.6201630" lon="-5.7971590">
        <ele>723.4</ele>
        <time>2021-10-13T12:44:36Z</time>
      </trkpt>
      <trkpt lat="41.6200380" lon="-5.7971190">
        <ele>723.6</ele>
        <time>2021-10-13T12:44:39Z</time>
      </trkpt>
      <trkpt lat="41.6199560" lon="-5.7970930">
        <ele>723.8</ele>
        <time>2021-10-13T12:44:41Z</time>
      </trkpt>
      <trkpt lat="41.6198740" lon="-5.7970680">
        <ele>724.2</ele>
        <time>2021-10-13T12:44:43Z</time>
      </trkpt>
      <trkpt lat="41.6196920" lon="-5.7969950">
        <ele>724.2</ele>
        <time>2021-10-13T12:44:48Z</time>
      </trkpt>
      <trkpt lat="41.6196180" lon="-5.7969670">
        <ele>724.0</ele>
        <time>2021-10-13T12:44:50Z</time>
      </trkpt>
      <trkpt lat="41.6195880" lon="-5.7969580">
        <ele>724.0</ele>
        <time>2021-10-13T12:44:51Z</time>
      </trkpt>
      <trkpt lat="41.6193640" lon="-5.7968710">
        <ele>723.6</ele>
        <time>2021-10-13T12:44:57Z</time>
      </trkpt>
      <trkpt lat="41.6192600" lon="-5.7968300">
        <ele>723.6</ele>
        <time>2021-10-13T12:45:00Z</time>
      </trkpt>
      <trkpt lat="41.6191930" lon="-5.7968090">
        <ele>723.4</ele>
        <time>2021-10-13T12:45:02Z</time>
      </trkpt>
      <trkpt lat="41.6191050" lon="-5.7967860">
        <ele>723.6</ele>
        <time>2021-10-13T12:45:05Z</time>
      </trkpt>
      <trkpt lat="41.6189720" lon="-5.7967470">
        <ele>724.2</ele>
        <time>2021-10-13T12:45:09Z</time>
      </trkpt>
      <trkpt lat="41.6186240" lon="-5.7966240">
        <ele>724.6</ele>
        <time>2021-10-13T12:45:20Z</time>
      </trkpt>
      <trkpt lat="41.6183860" lon="-5.7965390">
        <ele>725.4</ele>
        <time>2021-10-13T12:45:28Z</time>
      </trkpt>
      <trkpt lat="41.6183300" lon="-5.7965210">
        <ele>725.6</ele>
        <time>2021-10-13T12:45:30Z</time>
      </trkpt>
      <trkpt lat="41.6183070" lon="-5.7965120">
        <ele>725.6</ele>
        <time>2021-10-13T12:45:31Z</time>
      </trkpt>
      <trkpt lat="41.6180450" lon="-5.7964200">
        <ele>726.0</ele>
        <time>2021-10-13T12:45:39Z</time>
      </trkpt>
      <trkpt lat="41.6179430" lon="-5.7963910">
        <ele>726.0</ele>
        <time>2021-10-13T12:45:42Z</time>
      </trkpt>
      <trkpt lat="41.6179080" lon="-5.7963770">
        <ele>726.0</ele>
        <time>2021-10-13T12:45:43Z</time>
      </trkpt>
      <trkpt lat="41.6178230" lon="-5.7963480">
        <ele>726.0</ele>
        <time>2021-10-13T12:45:45Z</time>
      </trkpt>
      <trkpt lat="41.6177300" lon="-5.7963160">
        <ele>726.0</ele>
        <time>2021-10-13T12:45:47Z</time>
      </trkpt>
      <trkpt lat="41.6173930" lon="-5.7961980">
        <ele>724.8</ele>
        <time>2021-10-13T12:45:53Z</time>
      </trkpt>
      <trkpt lat="41.6173310" lon="-5.7961780">
        <ele>724.6</ele>
        <time>2021-10-13T12:45:54Z</time>
      </trkpt>
      <trkpt lat="41.6170720" lon="-5.7960920">
        <ele>723.6</ele>
        <time>2021-10-13T12:45:58Z</time>
      </trkpt>
      <trkpt lat="41.6170220" lon="-5.7960760">
        <ele>723.4</ele>
        <time>2021-10-13T12:45:59Z</time>
      </trkpt>
      <trkpt lat="41.6168930" lon="-5.7960320">
        <ele>723.0</ele>
        <time>2021-10-13T12:46:01Z</time>
      </trkpt>
      <trkpt lat="41.6167290" lon="-5.7959740">
        <ele>722.6</ele>
        <time>2021-10-13T12:46:04Z</time>
      </trkpt>
      <trkpt lat="41.6166800" lon="-5.7959580">
        <ele>722.4</ele>
        <time>2021-10-13T12:46:05Z</time>
      </trkpt>
      <trkpt lat="41.6165880" lon="-5.7959290">
        <ele>722.0</ele>
        <time>2021-10-13T12:46:07Z</time>
      </trkpt>
      <trkpt lat="41.6163910" lon="-5.7958610">
        <ele>721.6</ele>
        <time>2021-10-13T12:46:12Z</time>
      </trkpt>
      <trkpt lat="41.6163520" lon="-5.7958480">
        <ele>721.6</ele>
        <time>2021-10-13T12:46:13Z</time>
      </trkpt>
      <trkpt lat="41.6159460" lon="-5.7956960">
        <ele>721.8</ele>
        <time>2021-10-13T12:46:23Z</time>
      </trkpt>
      <trkpt lat="41.6157930" lon="-5.7956480">
        <ele>721.6</ele>
        <time>2021-10-13T12:46:27Z</time>
      </trkpt>
      <trkpt lat="41.6155950" lon="-5.7955790">
        <ele>722.0</ele>
        <time>2021-10-13T12:46:32Z</time>
      </trkpt>
      <trkpt lat="41.6155560" lon="-5.7955630">
        <ele>722.0</ele>
        <time>2021-10-13T12:46:33Z</time>
      </trkpt>
      <trkpt lat="41.6152550" lon="-5.7954510">
        <ele>722.6</ele>
        <time>2021-10-13T12:46:41Z</time>
      </trkpt>
      <trkpt lat="41.6149910" lon="-5.7953540">
        <ele>723.2</ele>
        <time>2021-10-13T12:46:48Z</time>
      </trkpt>
      <trkpt lat="41.6148760" lon="-5.7953240">
        <ele>723.6</ele>
        <time>2021-10-13T12:46:51Z</time>
      </trkpt>
      <trkpt lat="41.6146910" lon="-5.7952640">
        <ele>724.0</ele>
        <time>2021-10-13T12:46:56Z</time>
      </trkpt>
      <trkpt lat="41.6144090" lon="-5.7951700">
        <ele>724.0</ele>
        <time>2021-10-13T12:47:04Z</time>
      </trkpt>
      <trkpt lat="41.6143760" lon="-5.7951570">
        <ele>724.2</ele>
        <time>2021-10-13T12:47:05Z</time>
      </trkpt>
      <trkpt lat="41.6142420" lon="-5.7951090">
        <ele>724.6</ele>
        <time>2021-10-13T12:47:09Z</time>
      </trkpt>
      <trkpt lat="41.6141380" lon="-5.7950800">
        <ele>724.8</ele>
        <time>2021-10-13T12:47:12Z</time>
      </trkpt>
      <trkpt lat="41.6140730" lon="-5.7950610">
        <ele>725.0</ele>
        <time>2021-10-13T12:47:14Z</time>
      </trkpt>
      <trkpt lat="41.6139390" lon="-5.7950150">
        <ele>725.4</ele>
        <time>2021-10-13T12:47:18Z</time>
      </trkpt>
      <trkpt lat="41.6138780" lon="-5.7949930">
        <ele>725.6</ele>
        <time>2021-10-13T12:47:20Z</time>
      </trkpt>
      <trkpt lat="41.6137190" lon="-5.7949430">
        <ele>726.6</ele>
        <time>2021-10-13T12:47:25Z</time>
      </trkpt>
      <trkpt lat="41.6136880" lon="-5.7949330">
        <ele>726.8</ele>
        <time>2021-10-13T12:47:26Z</time>
      </trkpt>
      <trkpt lat="41.6134510" lon="-5.7948520">
        <ele>727.8</ele>
        <time>2021-10-13T12:47:34Z</time>
      </trkpt>
      <trkpt lat="41.6133650" lon="-5.7948190">
        <ele>728.0</ele>
        <time>2021-10-13T12:47:37Z</time>
      </trkpt>
      <trkpt lat="41.6132790" lon="-5.7947810">
        <ele>728.4</ele>
        <time>2021-10-13T12:47:40Z</time>
      </trkpt>
      <trkpt lat="41.6130690" lon="-5.7947060">
        <ele>728.8</ele>
        <time>2021-10-13T12:47:47Z</time>
      </trkpt>
      <trkpt lat="41.6130040" lon="-5.7946850">
        <ele>729.0</ele>
        <time>2021-10-13T12:47:49Z</time>
      </trkpt>
      <trkpt lat="41.6129100" lon="-5.7946530">
        <ele>729.0</ele>
        <time>2021-10-13T12:47:52Z</time>
      </trkpt>
      <trkpt lat="41.6128490" lon="-5.7946300">
        <ele>729.0</ele>
        <time>2021-10-13T12:47:54Z</time>
      </trkpt>
      <trkpt lat="41.6127250" lon="-5.7945840">
        <ele>729.0</ele>
        <time>2021-10-13T12:47:58Z</time>
      </trkpt>
      <trkpt lat="41.6126940" lon="-5.7945730">
        <ele>729.0</ele>
        <time>2021-10-13T12:47:59Z</time>
      </trkpt>
      <trkpt lat="41.6123940" lon="-5.7944720">
        <ele>729.8</ele>
        <time>2021-10-13T12:48:08Z</time>
      </trkpt>
      <trkpt lat="41.6123500" lon="-5.7944560">
        <ele>730.0</ele>
        <time>2021-10-13T12:48:09Z</time>
      </trkpt>
      <trkpt lat="41.6123140" lon="-5.7944450">
        <ele>730.0</ele>
        <time>2021-10-13T12:48:10Z</time>
      </trkpt>
      <trkpt lat="41.6121200" lon="-5.7943770">
        <ele>730.2</ele>
        <time>2021-10-13T12:48:15Z</time>
      </trkpt>
      <trkpt lat="41.6119560" lon="-5.7943240">
        <ele>730.0</ele>
        <time>2021-10-13T12:48:19Z</time>
      </trkpt>
      <trkpt lat="41.6118310" lon="-5.7942800">
        <ele>730.0</ele>
        <time>2021-10-13T12:48:22Z</time>
      </trkpt>
      <trkpt lat="41.6117870" lon="-5.7942630">
        <ele>730.0</ele>
        <time>2021-10-13T12:48:23Z</time>
      </trkpt>
      <trkpt lat="41.6116980" lon="-5.7942350">
        <ele>730.0</ele>
        <time>2021-10-13T12:48:25Z</time>
      </trkpt>
      <trkpt lat="41.6116080" lon="-5.7942020">
        <ele>730.0</ele>
        <time>2021-10-13T12:48:27Z</time>
      </trkpt>
      <trkpt lat="41.6115170" lon="-5.7941740">
        <ele>730.2</ele>
        <time>2021-10-13T12:48:29Z</time>
      </trkpt>
      <trkpt lat="41.6113790" lon="-5.7941370">
        <ele>730.2</ele>
        <time>2021-10-13T12:48:32Z</time>
      </trkpt>
      <trkpt lat="41.6112870" lon="-5.7941080">
        <ele>730.0</ele>
        <time>2021-10-13T12:48:34Z</time>
      </trkpt>
      <trkpt lat="41.6111530" lon="-5.7940600">
        <ele>730.0</ele>
        <time>2021-10-13T12:48:37Z</time>
      </trkpt>
      <trkpt lat="41.6111110" lon="-5.7940420">
        <ele>730.2</ele>
        <time>2021-10-13T12:48:38Z</time>
      </trkpt>
      <trkpt lat="41.6109870" lon="-5.7939900">
        <ele>730.4</ele>
        <time>2021-10-13T12:48:41Z</time>
      </trkpt>
      <trkpt lat="41.6109440" lon="-5.7939750">
        <ele>730.4</ele>
        <time>2021-10-13T12:48:42Z</time>
      </trkpt>
      <trkpt lat="41.6108610" lon="-5.7939480">
        <ele>730.4</ele>
        <time>2021-10-13T12:48:44Z</time>
      </trkpt>
      <trkpt lat="41.6107770" lon="-5.7939200">
        <ele>730.4</ele>
        <time>2021-10-13T12:48:46Z</time>
      </trkpt>
      <trkpt lat="41.6104170" lon="-5.7937960">
        <ele>730.6</ele>
        <time>2021-10-13T12:48:55Z</time>
      </trkpt>
      <trkpt lat="41.6102280" lon="-5.7937350">
        <ele>730.8</ele>
        <time>2021-10-13T12:49:00Z</time>
      </trkpt>
      <trkpt lat="41.6100770" lon="-5.7936850">
        <ele>731.2</ele>
        <time>2021-10-13T12:49:04Z</time>
      </trkpt>
      <trkpt lat="41.6100000" lon="-5.7936600">
        <ele>731.4</ele>
        <time>2021-10-13T12:49:06Z</time>
      </trkpt>
      <trkpt lat="41.6098930" lon="-5.7936260">
        <ele>732.0</ele>
        <time>2021-10-13T12:49:09Z</time>
      </trkpt>
      <trkpt lat="41.6098490" lon="-5.7936100">
        <ele>732.0</ele>
        <time>2021-10-13T12:49:10Z</time>
      </trkpt>
      <trkpt lat="41.6098120" lon="-5.7935960">
        <ele>732.2</ele>
        <time>2021-10-13T12:49:11Z</time>
      </trkpt>
      <trkpt lat="41.6095910" lon="-5.7935190">
        <ele>733.2</ele>
        <time>2021-10-13T12:49:17Z</time>
      </trkpt>
      <trkpt lat="41.6095190" lon="-5.7934900">
        <ele>733.2</ele>
        <time>2021-10-13T12:49:19Z</time>
      </trkpt>
      <trkpt lat="41.6094530" lon="-5.7934650">
        <ele>733.2</ele>
        <time>2021-10-13T12:49:21Z</time>
      </trkpt>
      <trkpt lat="41.6094170" lon="-5.7934520">
        <ele>733.4</ele>
        <time>2021-10-13T12:49:22Z</time>
      </trkpt>
      <trkpt lat="41.6092450" lon="-5.7933940">
        <ele>733.4</ele>
        <time>2021-10-13T12:49:27Z</time>
      </trkpt>
      <trkpt lat="41.6090590" lon="-5.7933330">
        <ele>733.4</ele>
        <time>2021-10-13T12:49:32Z</time>
      </trkpt>
      <trkpt lat="41.6089790" lon="-5.7933040">
        <ele>733.6</ele>
        <time>2021-10-13T12:49:34Z</time>
      </trkpt>
      <trkpt lat="41.6088610" lon="-5.7932620">
        <ele>733.6</ele>
        <time>2021-10-13T12:49:37Z</time>
      </trkpt>
      <trkpt lat="41.6087840" lon="-5.7932310">
        <ele>734.0</ele>
        <time>2021-10-13T12:49:39Z</time>
      </trkpt>
      <trkpt lat="41.6087060" lon="-5.7931990">
        <ele>734.0</ele>
        <time>2021-10-13T12:49:41Z</time>
      </trkpt>
      <trkpt lat="41.6086250" lon="-5.7931680">
        <ele>734.0</ele>
        <time>2021-10-13T12:49:43Z</time>
      </trkpt>
      <trkpt lat="41.6084130" lon="-5.7930960">
        <ele>733.6</ele>
        <time>2021-10-13T12:49:48Z</time>
      </trkpt>
      <trkpt lat="41.6083200" lon="-5.7930580">
        <ele>733.6</ele>
        <time>2021-10-13T12:49:50Z</time>
      </trkpt>
      <trkpt lat="41.6082300" lon="-5.7930260">
        <ele>733.4</ele>
        <time>2021-10-13T12:49:52Z</time>
      </trkpt>
      <trkpt lat="41.6081000" lon="-5.7929770">
        <ele>733.6</ele>
        <time>2021-10-13T12:49:55Z</time>
      </trkpt>
      <trkpt lat="41.6080070" lon="-5.7929450">
        <ele>733.8</ele>
        <time>2021-10-13T12:49:57Z</time>
      </trkpt>
      <trkpt lat="41.6079610" lon="-5.7929280">
        <ele>733.8</ele>
        <time>2021-10-13T12:49:58Z</time>
      </trkpt>
      <trkpt lat="41.6074460" lon="-5.7927460">
        <ele>733.4</ele>
        <time>2021-10-13T12:50:09Z</time>
      </trkpt>
      <trkpt lat="41.6073000" lon="-5.7926950">
        <ele>733.2</ele>
        <time>2021-10-13T12:50:12Z</time>
      </trkpt>
      <trkpt lat="41.6070530" lon="-5.7926040">
        <ele>733.0</ele>
        <time>2021-10-13T12:50:17Z</time>
      </trkpt>
      <trkpt lat="41.6070020" lon="-5.7925840">
        <ele>733.0</ele>
        <time>2021-10-13T12:50:18Z</time>
      </trkpt>
      <trkpt lat="41.6068550" lon="-5.7925370">
        <ele>733.0</ele>
        <time>2021-10-13T12:50:21Z</time>
      </trkpt>
      <trkpt lat="41.6066640" lon="-5.7924720">
        <ele>733.0</ele>
        <time>2021-10-13T12:50:25Z</time>
      </trkpt>
      <trkpt lat="41.6062770" lon="-5.7923400">
        <ele>732.8</ele>
        <time>2021-10-13T12:50:33Z</time>
      </trkpt>
      <trkpt lat="41.6060280" lon="-5.7922580">
        <ele>732.6</ele>
        <time>2021-10-13T12:50:38Z</time>
      </trkpt>
      <trkpt lat="41.6058800" lon="-5.7922040">
        <ele>732.6</ele>
        <time>2021-10-13T12:50:41Z</time>
      </trkpt>
      <trkpt lat="41.6057880" lon="-5.7921740">
        <ele>732.6</ele>
        <time>2021-10-13T12:50:43Z</time>
      </trkpt>
      <trkpt lat="41.6053820" lon="-5.7920320">
        <ele>733.2</ele>
        <time>2021-10-13T12:50:52Z</time>
      </trkpt>
      <trkpt lat="41.6053390" lon="-5.7920200">
        <ele>733.4</ele>
        <time>2021-10-13T12:50:53Z</time>
      </trkpt>
      <trkpt lat="41.6052100" lon="-5.7919770">
        <ele>733.8</ele>
        <time>2021-10-13T12:50:56Z</time>
      </trkpt>
      <trkpt lat="41.6051280" lon="-5.7919520">
        <ele>734.2</ele>
        <time>2021-10-13T12:50:58Z</time>
      </trkpt>
      <trkpt lat="41.6050000" lon="-5.7919110">
        <ele>734.4</ele>
        <time>2021-10-13T12:51:01Z</time>
      </trkpt>
      <trkpt lat="41.6049560" lon="-5.7918950">
        <ele>734.6</ele>
        <time>2021-10-13T12:51:02Z</time>
      </trkpt>
      <trkpt lat="41.6047890" lon="-5.7918400">
        <ele>734.8</ele>
        <time>2021-10-13T12:51:06Z</time>
      </trkpt>
      <trkpt lat="41.6046230" lon="-5.7917800">
        <ele>734.8</ele>
        <time>2021-10-13T12:51:10Z</time>
      </trkpt>
      <trkpt lat="41.6045010" lon="-5.7917380">
        <ele>735.0</ele>
        <time>2021-10-13T12:51:13Z</time>
      </trkpt>
      <trkpt lat="41.6042970" lon="-5.7916480">
        <ele>735.0</ele>
        <time>2021-10-13T12:51:18Z</time>
      </trkpt>
      <trkpt lat="41.6040170" lon="-5.7915520">
        <ele>735.0</ele>
        <time>2021-10-13T12:51:25Z</time>
      </trkpt>
      <trkpt lat="41.6039370" lon="-5.7915230">
        <ele>735.2</ele>
        <time>2021-10-13T12:51:27Z</time>
      </trkpt>
      <trkpt lat="41.6037790" lon="-5.7914680">
        <ele>735.6</ele>
        <time>2021-10-13T12:51:31Z</time>
      </trkpt>
      <trkpt lat="41.6037000" lon="-5.7914390">
        <ele>735.6</ele>
        <time>2021-10-13T12:51:33Z</time>
      </trkpt>
      <trkpt lat="41.6035330" lon="-5.7913850">
        <ele>736.0</ele>
        <time>2021-10-13T12:51:37Z</time>
      </trkpt>
      <trkpt lat="41.6034120" lon="-5.7913400">
        <ele>736.2</ele>
        <time>2021-10-13T12:51:40Z</time>
      </trkpt>
      <trkpt lat="41.6030910" lon="-5.7912330">
        <ele>736.8</ele>
        <time>2021-10-13T12:51:48Z</time>
      </trkpt>
      <trkpt lat="41.6027160" lon="-5.7911070">
        <ele>737.2</ele>
        <time>2021-10-13T12:51:57Z</time>
      </trkpt>
      <trkpt lat="41.6026740" lon="-5.7910910">
        <ele>737.2</ele>
        <time>2021-10-13T12:51:58Z</time>
      </trkpt>
      <trkpt lat="41.6025900" lon="-5.7910590">
        <ele>737.2</ele>
        <time>2021-10-13T12:52:00Z</time>
      </trkpt>
      <trkpt lat="41.6021980" lon="-5.7909260">
        <ele>737.2</ele>
        <time>2021-10-13T12:52:09Z</time>
      </trkpt>
      <trkpt lat="41.6018460" lon="-5.7908080">
        <ele>737.6</ele>
        <time>2021-10-13T12:52:17Z</time>
      </trkpt>
      <trkpt lat="41.6017110" lon="-5.7907550">
        <ele>737.6</ele>
        <time>2021-10-13T12:52:20Z</time>
      </trkpt>
      <trkpt lat="41.6014840" lon="-5.7906760">
        <ele>737.2</ele>
        <time>2021-10-13T12:52:25Z</time>
      </trkpt>
      <trkpt lat="41.6011680" lon="-5.7905660">
        <ele>737.4</ele>
        <time>2021-10-13T12:52:32Z</time>
      </trkpt>
      <trkpt lat="41.6010780" lon="-5.7905390">
        <ele>737.6</ele>
        <time>2021-10-13T12:52:34Z</time>
      </trkpt>
      <trkpt lat="41.6008970" lon="-5.7904770">
        <ele>737.8</ele>
        <time>2021-10-13T12:52:38Z</time>
      </trkpt>
      <trkpt lat="41.6006710" lon="-5.7903960">
        <ele>737.8</ele>
        <time>2021-10-13T12:52:43Z</time>
      </trkpt>
      <trkpt lat="41.6006260" lon="-5.7903840">
        <ele>737.8</ele>
        <time>2021-10-13T12:52:44Z</time>
      </trkpt>
      <trkpt lat="41.6005360" lon="-5.7903600">
        <ele>737.2</ele>
        <time>2021-10-13T12:52:46Z</time>
      </trkpt>
      <trkpt lat="41.6004450" lon="-5.7903270">
        <ele>737.0</ele>
        <time>2021-10-13T12:52:48Z</time>
      </trkpt>
      <trkpt lat="41.6002610" lon="-5.7902650">
        <ele>736.4</ele>
        <time>2021-10-13T12:52:52Z</time>
      </trkpt>
      <trkpt lat="41.6001660" lon="-5.7902470">
        <ele>736.2</ele>
        <time>2021-10-13T12:52:54Z</time>
      </trkpt>
      <trkpt lat="41.6000770" lon="-5.7902620">
        <ele>736.2</ele>
        <time>2021-10-13T12:52:56Z</time>
      </trkpt>
      <trkpt lat="41.6000350" lon="-5.7902900">
        <ele>736.4</ele>
        <time>2021-10-13T12:52:57Z</time>
      </trkpt>
      <trkpt lat="41.5999960" lon="-5.7903270">
        <ele>736.4</ele>
        <time>2021-10-13T12:52:58Z</time>
      </trkpt>
      <trkpt lat="41.5999360" lon="-5.7904190">
        <ele>736.2</ele>
        <time>2021-10-13T12:53:00Z</time>
      </trkpt>
      <trkpt lat="41.5999130" lon="-5.7904730">
        <ele>736.0</ele>
        <time>2021-10-13T12:53:01Z</time>
      </trkpt>
      <trkpt lat="41.5998910" lon="-5.7905260">
        <ele>736.0</ele>
        <time>2021-10-13T12:53:02Z</time>
      </trkpt>
      <trkpt lat="41.5998030" lon="-5.7906730">
        <ele>735.6</ele>
        <time>2021-10-13T12:53:05Z</time>
      </trkpt>
      <trkpt lat="41.5997660" lon="-5.7907140">
        <ele>735.4</ele>
        <time>2021-10-13T12:53:06Z</time>
      </trkpt>
      <trkpt lat="41.5996210" lon="-5.7908680">
        <ele>735.0</ele>
        <time>2021-10-13T12:53:10Z</time>
      </trkpt>
      <trkpt lat="41.5995900" lon="-5.7909170">
        <ele>735.0</ele>
        <time>2021-10-13T12:53:11Z</time>
      </trkpt>
      <trkpt lat="41.5995640" lon="-5.7909840">
        <ele>735.0</ele>
        <time>2021-10-13T12:53:12Z</time>
      </trkpt>
      <trkpt lat="41.5995540" lon="-5.7910450">
        <ele>735.0</ele>
        <time>2021-10-13T12:53:13Z</time>
      </trkpt>
      <trkpt lat="41.5995640" lon="-5.7912190">
        <ele>734.8</ele>
        <time>2021-10-13T12:53:16Z</time>
      </trkpt>
      <trkpt lat="41.5995700" lon="-5.7913370">
        <ele>734.6</ele>
        <time>2021-10-13T12:53:18Z</time>
      </trkpt>
      <trkpt lat="41.5995520" lon="-5.7914530">
        <ele>734.6</ele>
        <time>2021-10-13T12:53:20Z</time>
      </trkpt>
      <trkpt lat="41.5995290" lon="-5.7915040">
        <ele>734.6</ele>
        <time>2021-10-13T12:53:21Z</time>
      </trkpt>
      <trkpt lat="41.5994960" lon="-5.7915420">
        <ele>734.6</ele>
        <time>2021-10-13T12:53:22Z</time>
      </trkpt>
      <trkpt lat="41.5994120" lon="-5.7915860">
        <ele>734.6</ele>
        <time>2021-10-13T12:53:24Z</time>
      </trkpt>
      <trkpt lat="41.5993270" lon="-5.7915820">
        <ele>734.6</ele>
        <time>2021-10-13T12:53:26Z</time>
      </trkpt>
      <trkpt lat="41.5992940" lon="-5.7915590">
        <ele>734.6</ele>
        <time>2021-10-13T12:53:27Z</time>
      </trkpt>
      <trkpt lat="41.5992610" lon="-5.7914870">
        <ele>734.6</ele>
        <time>2021-10-13T12:53:29Z</time>
      </trkpt>
      <trkpt lat="41.5992590" lon="-5.7914490">
        <ele>734.6</ele>
        <time>2021-10-13T12:53:30Z</time>
      </trkpt>
      <trkpt lat="41.5992950" lon="-5.7913120">
        <ele>734.8</ele>
        <time>2021-10-13T12:53:34Z</time>
      </trkpt>
      <trkpt lat="41.5993110" lon="-5.7912470">
        <ele>735.0</ele>
        <time>2021-10-13T12:53:36Z</time>
      </trkpt>
      <trkpt lat="41.5993420" lon="-5.7910580">
        <ele>736.0</ele>
        <time>2021-10-13T12:53:43Z</time>
      </trkpt>
      <trkpt lat="41.5993430" lon="-5.7910330">
        <ele>736.0</ele>
        <time>2021-10-13T12:53:44Z</time>
      </trkpt>
      <trkpt lat="41.5993680" lon="-5.7909190">
        <ele>736.4</ele>
        <time>2021-10-13T12:53:49Z</time>
      </trkpt>
      <trkpt lat="41.5993860" lon="-5.7908650">
        <ele>737.2</ele>
        <time>2021-10-13T12:53:52Z</time>
      </trkpt>
      <trkpt lat="41.5994320" lon="-5.7907720">
        <ele>737.8</ele>
        <time>2021-10-13T12:53:57Z</time>
      </trkpt>
      <trkpt lat="41.5994570" lon="-5.7907310">
        <ele>738.2</ele>
        <time>2021-10-13T12:54:00Z</time>
      </trkpt>
      <trkpt lat="41.5995000" lon="-5.7906670">
        <ele>738.6</ele>
        <time>2021-10-13T12:54:04Z</time>
      </trkpt>
      <trkpt lat="41.5995660" lon="-5.7905790">
        <ele>739.6</ele>
        <time>2021-10-13T12:54:10Z</time>
      </trkpt>
      <trkpt lat="41.5996020" lon="-5.7905380">
        <ele>740.0</ele>
        <time>2021-10-13T12:54:13Z</time>
      </trkpt>
      <trkpt lat="41.5996390" lon="-5.7905000">
        <ele>740.6</ele>
        <time>2021-10-13T12:54:16Z</time>
      </trkpt>
      <trkpt lat="41.5996730" lon="-5.7904690">
        <ele>741.0</ele>
        <time>2021-10-13T12:54:19Z</time>
      </trkpt>
      <trkpt lat="41.5997310" lon="-5.7903920">
        <ele>741.8</ele>
        <time>2021-10-13T12:54:24Z</time>
      </trkpt>
      <trkpt lat="41.5997640" lon="-5.7903250">
        <ele>742.2</ele>
        <time>2021-10-13T12:54:29Z</time>
      </trkpt>
      <trkpt lat="41.5997700" lon="-5.7902850">
        <ele>742.4</ele>
        <time>2021-10-13T12:54:31Z</time>
      </trkpt>
      <trkpt lat="41.5997820" lon="-5.7902260">
        <ele>743.0</ele>
        <time>2021-10-13T12:54:34Z</time>
      </trkpt>
      <trkpt lat="41.5997940" lon="-5.7901740">
        <ele>743.2</ele>
        <time>2021-10-13T12:54:37Z</time>
      </trkpt>
      <trkpt lat="41.5998010" lon="-5.7900880">
        <ele>744.0</ele>
        <time>2021-10-13T12:54:42Z</time>
      </trkpt>
      <trkpt lat="41.5998020" lon="-5.7900680">
        <ele>744.2</ele>
        <time>2021-10-13T12:54:43Z</time>
      </trkpt>
      <trkpt lat="41.5998030" lon="-5.7900430">
        <ele>744.2</ele>
        <time>2021-10-13T12:54:44Z</time>
      </trkpt>
      <trkpt lat="41.5998030" lon="-5.7900020">
        <ele>744.4</ele>
        <time>2021-10-13T12:54:46Z</time>
      </trkpt>
      <trkpt lat="41.5998010" lon="-5.7899660">
        <ele>744.8</ele>
        <time>2021-10-13T12:54:48Z</time>
      </trkpt>
      <trkpt lat="41.5997910" lon="-5.7899050">
        <ele>745.0</ele>
        <time>2021-10-13T12:54:51Z</time>
      </trkpt>
      <trkpt lat="41.5997880" lon="-5.7898420">
        <ele>745.2</ele>
        <time>2021-10-13T12:54:55Z</time>
      </trkpt>
      <trkpt lat="41.5997880" lon="-5.7898240">
        <ele>745.4</ele>
        <time>2021-10-13T12:54:56Z</time>
      </trkpt>
      <trkpt lat="41.5997860" lon="-5.7897830">
        <ele>745.4</ele>
        <time>2021-10-13T12:54:59Z</time>
      </trkpt>
      <trkpt lat="41.5997790" lon="-5.7897310">
        <ele>745.8</ele>
        <time>2021-10-13T12:55:01Z</time>
      </trkpt>
      <trkpt lat="41.5997690" lon="-5.7896950">
        <ele>746.2</ele>
        <time>2021-10-13T12:55:03Z</time>
      </trkpt>
      <trkpt lat="41.5997640" lon="-5.7896740">
        <ele>746.2</ele>
        <time>2021-10-13T12:55:04Z</time>
      </trkpt>
      <trkpt lat="41.5997470" lon="-5.7896250">
        <ele>746.4</ele>
        <time>2021-10-13T12:55:07Z</time>
      </trkpt>
      <trkpt lat="41.5997320" lon="-5.7895870">
        <ele>746.4</ele>
        <time>2021-10-13T12:55:10Z</time>
      </trkpt>
      <trkpt lat="41.5997270" lon="-5.7895790">
        <ele>746.4</ele>
        <time>2021-10-13T12:55:11Z</time>
      </trkpt>
      <trkpt lat="41.5997260" lon="-5.7895750">
        <ele>746.4</ele>
        <time>2021-10-13T12:55:14Z</time>
      </trkpt>
      <trkpt lat="41.5997190" lon="-5.7895150">
        <ele>746.6</ele>
        <time>2021-10-13T13:01:17Z</time>
      </trkpt>
      <trkpt lat="41.5997190" lon="-5.7894830">
        <ele>746.6</ele>
        <time>2021-10-13T13:01:18Z</time>
      </trkpt>
      <trkpt lat="41.5997150" lon="-5.7894520">
        <ele>746.6</ele>
        <time>2021-10-13T13:01:19Z</time>
      </trkpt>
      <trkpt lat="41.5996930" lon="-5.7893200">
        <ele>746.8</ele>
        <time>2021-10-13T13:01:23Z</time>
      </trkpt>
      <trkpt lat="41.5996730" lon="-5.7891080">
        <ele>746.6</ele>
        <time>2021-10-13T13:01:28Z</time>
      </trkpt>
      <trkpt lat="41.5996890" lon="-5.7887820">
        <ele>745.6</ele>
        <time>2021-10-13T13:01:34Z</time>
      </trkpt>
      <trkpt lat="41.5997280" lon="-5.7885730">
        <ele>744.8</ele>
        <time>2021-10-13T13:01:37Z</time>
      </trkpt>
      <trkpt lat="41.5997380" lon="-5.7885150">
        <ele>744.2</ele>
        <time>2021-10-13T13:01:38Z</time>
      </trkpt>
      <trkpt lat="41.5997660" lon="-5.7883570">
        <ele>743.4</ele>
        <time>2021-10-13T13:01:40Z</time>
      </trkpt>
      <trkpt lat="41.5997980" lon="-5.7882070">
        <ele>742.8</ele>
        <time>2021-10-13T13:01:42Z</time>
      </trkpt>
      <trkpt lat="41.5998610" lon="-5.7878920">
        <ele>741.6</ele>
        <time>2021-10-13T13:01:46Z</time>
      </trkpt>
      <trkpt lat="41.5998740" lon="-5.7878270">
        <ele>740.8</ele>
        <time>2021-10-13T13:01:47Z</time>
      </trkpt>
      <trkpt lat="41.5998910" lon="-5.7877460">
        <ele>740.4</ele>
        <time>2021-10-13T13:01:48Z</time>
      </trkpt>
      <trkpt lat="41.5999420" lon="-5.7874890">
        <ele>739.6</ele>
        <time>2021-10-13T13:01:51Z</time>
      </trkpt>
      <trkpt lat="41.5999810" lon="-5.7872890">
        <ele>738.4</ele>
        <time>2021-10-13T13:01:54Z</time>
      </trkpt>
      <trkpt lat="41.5999960" lon="-5.7872180">
        <ele>738.0</ele>
        <time>2021-10-13T13:01:55Z</time>
      </trkpt>
      <trkpt lat="41.6000030" lon="-5.7871660">
        <ele>737.2</ele>
        <time>2021-10-13T13:01:56Z</time>
      </trkpt>
      <trkpt lat="41.5999940" lon="-5.7870990">
        <ele>736.2</ele>
        <time>2021-10-13T13:01:58Z</time>
      </trkpt>
      <trkpt lat="41.5999790" lon="-5.7870720">
        <ele>736.0</ele>
        <time>2021-10-13T13:01:59Z</time>
      </trkpt>
      <trkpt lat="41.5999090" lon="-5.7870430">
        <ele>735.0</ele>
        <time>2021-10-13T13:02:02Z</time>
      </trkpt>
      <trkpt lat="41.5997950" lon="-5.7871610">
        <ele>734.4</ele>
        <time>2021-10-13T13:02:06Z</time>
      </trkpt>
      <trkpt lat="41.5997380" lon="-5.7872900">
        <ele>733.8</ele>
        <time>2021-10-13T13:02:09Z</time>
      </trkpt>
      <trkpt lat="41.5997310" lon="-5.7873450">
        <ele>733.8</ele>
        <time>2021-10-13T13:02:10Z</time>
      </trkpt>
      <trkpt lat="41.5997370" lon="-5.7875130">
        <ele>733.2</ele>
        <time>2021-10-13T13:02:13Z</time>
      </trkpt>
      <trkpt lat="41.5997400" lon="-5.7876590">
        <ele>733.0</ele>
        <time>2021-10-13T13:02:16Z</time>
      </trkpt>
      <trkpt lat="41.5996960" lon="-5.7879840">
        <ele>733.0</ele>
        <time>2021-10-13T13:02:22Z</time>
      </trkpt>
      <trkpt lat="41.5995820" lon="-5.7884190">
        <ele>733.0</ele>
        <time>2021-10-13T13:02:31Z</time>
      </trkpt>
      <trkpt lat="41.5994580" lon="-5.7888760">
        <ele>733.8</ele>
        <time>2021-10-13T13:02:41Z</time>
      </trkpt>
      <trkpt lat="41.5993460" lon="-5.7892450">
        <ele>734.4</ele>
        <time>2021-10-13T13:02:49Z</time>
      </trkpt>
      <trkpt lat="41.5993290" lon="-5.7892940">
        <ele>734.6</ele>
        <time>2021-10-13T13:02:50Z</time>
      </trkpt>
      <trkpt lat="41.5992370" lon="-5.7894620">
        <ele>734.8</ele>
        <time>2021-10-13T13:02:54Z</time>
      </trkpt>
      <trkpt lat="41.5992030" lon="-5.7894900">
        <ele>734.8</ele>
        <time>2021-10-13T13:02:55Z</time>
      </trkpt>
      <trkpt lat="41.5990020" lon="-5.7895510">
        <ele>734.6</ele>
        <time>2021-10-13T13:03:00Z</time>
      </trkpt>
      <trkpt lat="41.5986410" lon="-5.7896350">
        <ele>733.8</ele>
        <time>2021-10-13T13:03:08Z</time>
      </trkpt>
      <trkpt lat="41.5985930" lon="-5.7896410">
        <ele>733.8</ele>
        <time>2021-10-13T13:03:09Z</time>
      </trkpt>
      <trkpt lat="41.5985440" lon="-5.7896450">
        <ele>733.8</ele>
        <time>2021-10-13T13:03:10Z</time>
      </trkpt>
      <trkpt lat="41.5984560" lon="-5.7896420">
        <ele>733.8</ele>
        <time>2021-10-13T13:03:12Z</time>
      </trkpt>
      <trkpt lat="41.5983540" lon="-5.7896190">
        <ele>733.8</ele>
        <time>2021-10-13T13:03:14Z</time>
      </trkpt>
      <trkpt lat="41.5979000" lon="-5.7894420">
        <ele>734.2</ele>
        <time>2021-10-13T13:03:24Z</time>
      </trkpt>
      <trkpt lat="41.5975720" lon="-5.7893000">
        <ele>733.8</ele>
        <time>2021-10-13T13:03:31Z</time>
      </trkpt>
      <trkpt lat="41.5974900" lon="-5.7892650">
        <ele>733.4</ele>
        <time>2021-10-13T13:03:33Z</time>
      </trkpt>
      <trkpt lat="41.5973260" lon="-5.7891900">
        <ele>733.2</ele>
        <time>2021-10-13T13:03:37Z</time>
      </trkpt>
      <trkpt lat="41.5972000" lon="-5.7891380">
        <ele>733.2</ele>
        <time>2021-10-13T13:03:40Z</time>
      </trkpt>
      <trkpt lat="41.5970120" lon="-5.7890460">
        <ele>733.4</ele>
        <time>2021-10-13T13:03:45Z</time>
      </trkpt>
      <trkpt lat="41.5968030" lon="-5.7889400">
        <ele>733.4</ele>
        <time>2021-10-13T13:03:50Z</time>
      </trkpt>
      <trkpt lat="41.5967220" lon="-5.7888990">
        <ele>733.4</ele>
        <time>2021-10-13T13:03:52Z</time>
      </trkpt>
      <trkpt lat="41.5966400" lon="-5.7888610">
        <ele>733.4</ele>
        <time>2021-10-13T13:03:54Z</time>
      </trkpt>
      <trkpt lat="41.5965190" lon="-5.7888140">
        <ele>732.8</ele>
        <time>2021-10-13T13:03:57Z</time>
      </trkpt>
      <trkpt lat="41.5963700" lon="-5.7887520">
        <ele>732.2</ele>
        <time>2021-10-13T13:04:01Z</time>
      </trkpt>
      <trkpt lat="41.5962480" lon="-5.7886990">
        <ele>732.4</ele>
        <time>2021-10-13T13:04:05Z</time>
      </trkpt>
      <trkpt lat="41.5961810" lon="-5.7886660">
        <ele>732.8</ele>
        <time>2021-10-13T13:04:07Z</time>
      </trkpt>
      <trkpt lat="41.5959630" lon="-5.7885660">
        <ele>733.4</ele>
        <time>2021-10-13T13:04:15Z</time>
      </trkpt>
      <trkpt lat="41.5958230" lon="-5.7885070">
        <ele>733.8</ele>
        <time>2021-10-13T13:04:20Z</time>
      </trkpt>
      <trkpt lat="41.5956970" lon="-5.7884480">
        <ele>734.0</ele>
        <time>2021-10-13T13:04:25Z</time>
      </trkpt>
      <trkpt lat="41.5955440" lon="-5.7883740">
        <ele>734.8</ele>
        <time>2021-10-13T13:04:31Z</time>
      </trkpt>
      <trkpt lat="41.5955180" lon="-5.7883600">
        <ele>734.8</ele>
        <time>2021-10-13T13:04:32Z</time>
      </trkpt>
      <trkpt lat="41.5954640" lon="-5.7883350">
        <ele>735.2</ele>
        <time>2021-10-13T13:04:34Z</time>
      </trkpt>
      <trkpt lat="41.5953890" lon="-5.7883030">
        <ele>735.4</ele>
        <time>2021-10-13T13:04:37Z</time>
      </trkpt>
      <trkpt lat="41.5953040" lon="-5.7882640">
        <ele>735.4</ele>
        <time>2021-10-13T13:04:40Z</time>
      </trkpt>
      <trkpt lat="41.5951000" lon="-5.7881700">
        <ele>736.0</ele>
        <time>2021-10-13T13:04:47Z</time>
      </trkpt>
      <trkpt lat="41.5950320" lon="-5.7881390">
        <ele>736.0</ele>
        <time>2021-10-13T13:04:49Z</time>
      </trkpt>
      <trkpt lat="41.5949710" lon="-5.7881130">
        <ele>736.0</ele>
        <time>2021-10-13T13:04:51Z</time>
      </trkpt>
      <trkpt lat="41.5947760" lon="-5.7880310">
        <ele>736.2</ele>
        <time>2021-10-13T13:04:56Z</time>
      </trkpt>
      <trkpt lat="41.5944550" lon="-5.7878830">
        <ele>736.2</ele>
        <time>2021-10-13T13:05:03Z</time>
      </trkpt>
      <trkpt lat="41.5942670" lon="-5.7877970">
        <ele>735.6</ele>
        <time>2021-10-13T13:05:07Z</time>
      </trkpt>
      <trkpt lat="41.5941620" lon="-5.7877500">
        <ele>735.2</ele>
        <time>2021-10-13T13:05:09Z</time>
      </trkpt>
      <trkpt lat="41.5941230" lon="-5.7877310">
        <ele>735.0</ele>
        <time>2021-10-13T13:05:10Z</time>
      </trkpt>
      <trkpt lat="41.5936900" lon="-5.7875310">
        <ele>733.8</ele>
        <time>2021-10-13T13:05:19Z</time>
      </trkpt>
      <trkpt lat="41.5935510" lon="-5.7874640">
        <ele>733.6</ele>
        <time>2021-10-13T13:05:22Z</time>
      </trkpt>
      <trkpt lat="41.5934180" lon="-5.7874010">
        <ele>733.0</ele>
        <time>2021-10-13T13:05:25Z</time>
      </trkpt>
      <trkpt lat="41.5932220" lon="-5.7873130">
        <ele>732.8</ele>
        <time>2021-10-13T13:05:29Z</time>
      </trkpt>
      <trkpt lat="41.5929720" lon="-5.7871920">
        <ele>732.8</ele>
        <time>2021-10-13T13:05:34Z</time>
      </trkpt>
      <trkpt lat="41.5927890" lon="-5.7871180">
        <ele>732.6</ele>
        <time>2021-10-13T13:05:38Z</time>
      </trkpt>
      <trkpt lat="41.5925840" lon="-5.7870290">
        <ele>732.2</ele>
        <time>2021-10-13T13:05:42Z</time>
      </trkpt>
      <trkpt lat="41.5924390" lon="-5.7869630">
        <ele>731.8</ele>
        <time>2021-10-13T13:05:45Z</time>
      </trkpt>
      <trkpt lat="41.5923440" lon="-5.7869150">
        <ele>731.4</ele>
        <time>2021-10-13T13:05:47Z</time>
      </trkpt>
      <trkpt lat="41.5922630" lon="-5.7868670">
        <ele>731.4</ele>
        <time>2021-10-13T13:05:49Z</time>
      </trkpt>
      <trkpt lat="41.5922090" lon="-5.7868460">
        <ele>731.4</ele>
        <time>2021-10-13T13:05:50Z</time>
      </trkpt>
      <trkpt lat="41.5919610" lon="-5.7867460">
        <ele>731.6</ele>
        <time>2021-10-13T13:05:56Z</time>
      </trkpt>
      <trkpt lat="41.5919340" lon="-5.7867310">
        <ele>731.6</ele>
        <time>2021-10-13T13:05:57Z</time>
      </trkpt>
      <trkpt lat="41.5918330" lon="-5.7866850">
        <ele>732.0</ele>
        <time>2021-10-13T13:06:00Z</time>
      </trkpt>
      <trkpt lat="41.5916970" lon="-5.7866190">
        <ele>732.4</ele>
        <time>2021-10-13T13:06:05Z</time>
      </trkpt>
      <trkpt lat="41.5915970" lon="-5.7865700">
        <ele>732.4</ele>
        <time>2021-10-13T13:06:09Z</time>
      </trkpt>
      <trkpt lat="41.5915070" lon="-5.7865230">
        <ele>732.6</ele>
        <time>2021-10-13T13:06:13Z</time>
      </trkpt>
      <trkpt lat="41.5914320" lon="-5.7864940">
        <ele>732.8</ele>
        <time>2021-10-13T13:06:16Z</time>
      </trkpt>
      <trkpt lat="41.5913090" lon="-5.7864410">
        <ele>733.0</ele>
        <time>2021-10-13T13:06:21Z</time>
      </trkpt>
      <trkpt lat="41.5911960" lon="-5.7863880">
        <ele>733.8</ele>
        <time>2021-10-13T13:06:26Z</time>
      </trkpt>
      <trkpt lat="41.5911720" lon="-5.7863760">
        <ele>733.8</ele>
        <time>2021-10-13T13:06:27Z</time>
      </trkpt>
      <trkpt lat="41.5910930" lon="-5.7863390">
        <ele>734.2</ele>
        <time>2021-10-13T13:06:30Z</time>
      </trkpt>
      <trkpt lat="41.5909690" lon="-5.7862850">
        <ele>734.6</ele>
        <time>2021-10-13T13:06:35Z</time>
      </trkpt>
      <trkpt lat="41.5909240" lon="-5.7862660">
        <ele>734.8</ele>
        <time>2021-10-13T13:06:37Z</time>
      </trkpt>
      <trkpt lat="41.5908450" lon="-5.7862300">
        <ele>735.0</ele>
        <time>2021-10-13T13:06:40Z</time>
      </trkpt>
      <trkpt lat="41.5908010" lon="-5.7862100">
        <ele>735.2</ele>
        <time>2021-10-13T13:06:42Z</time>
      </trkpt>
      <trkpt lat="41.5905920" lon="-5.7861170">
        <ele>735.8</ele>
        <time>2021-10-13T13:06:50Z</time>
      </trkpt>
      <trkpt lat="41.5905420" lon="-5.7860920">
        <ele>736.0</ele>
        <time>2021-10-13T13:06:52Z</time>
      </trkpt>
      <trkpt lat="41.5905180" lon="-5.7860820">
        <ele>736.0</ele>
        <time>2021-10-13T13:06:53Z</time>
      </trkpt>
      <trkpt lat="41.5904940" lon="-5.7860700">
        <ele>736.0</ele>
        <time>2021-10-13T13:06:54Z</time>
      </trkpt>
      <trkpt lat="41.5904450" lon="-5.7860470">
        <ele>736.2</ele>
        <time>2021-10-13T13:06:56Z</time>
      </trkpt>
      <trkpt lat="41.5903940" lon="-5.7860250">
        <ele>736.4</ele>
        <time>2021-10-13T13:06:58Z</time>
      </trkpt>
      <trkpt lat="41.5903670" lon="-5.7860140">
        <ele>736.2</ele>
        <time>2021-10-13T13:06:59Z</time>
      </trkpt>
      <trkpt lat="41.5903200" lon="-5.7859930">
        <ele>736.6</ele>
        <time>2021-10-13T13:07:01Z</time>
      </trkpt>
      <trkpt lat="41.5902900" lon="-5.7859790">
        <ele>736.8</ele>
        <time>2021-10-13T13:07:02Z</time>
      </trkpt>
      <trkpt lat="41.5901350" lon="-5.7859100">
        <ele>737.0</ele>
        <time>2021-10-13T13:07:08Z</time>
      </trkpt>
      <trkpt lat="41.5900800" lon="-5.7858880">
        <ele>737.0</ele>
        <time>2021-10-13T13:07:10Z</time>
      </trkpt>
      <trkpt lat="41.5900200" lon="-5.7858640">
        <ele>737.0</ele>
        <time>2021-10-13T13:07:12Z</time>
      </trkpt>
      <trkpt lat="41.5899350" lon="-5.7858190">
        <ele>737.2</ele>
        <time>2021-10-13T13:07:15Z</time>
      </trkpt>
      <trkpt lat="41.5898580" lon="-5.7857440">
        <ele>737.4</ele>
        <time>2021-10-13T13:07:18Z</time>
      </trkpt>
      <trkpt lat="41.5897500" lon="-5.7855560">
        <ele>737.6</ele>
        <time>2021-10-13T13:07:23Z</time>
      </trkpt>
      <trkpt lat="41.5897030" lon="-5.7854750">
        <ele>737.4</ele>
        <time>2021-10-13T13:07:25Z</time>
      </trkpt>
      <trkpt lat="41.5894520" lon="-5.7850110">
        <ele>736.6</ele>
        <time>2021-10-13T13:07:35Z</time>
      </trkpt>
      <trkpt lat="41.5893130" lon="-5.7847770">
        <ele>736.2</ele>
        <time>2021-10-13T13:07:40Z</time>
      </trkpt>
      <trkpt lat="41.5892330" lon="-5.7846370">
        <ele>735.8</ele>
        <time>2021-10-13T13:07:43Z</time>
      </trkpt>
      <trkpt lat="41.5891720" lon="-5.7845620">
        <ele>735.6</ele>
        <time>2021-10-13T13:07:45Z</time>
      </trkpt>
      <trkpt lat="41.5890560" lon="-5.7844930">
        <ele>735.4</ele>
        <time>2021-10-13T13:07:48Z</time>
      </trkpt>
      <trkpt lat="41.5889680" lon="-5.7844630">
        <ele>735.4</ele>
        <time>2021-10-13T13:07:50Z</time>
      </trkpt>
      <trkpt lat="41.5888320" lon="-5.7844270">
        <ele>735.2</ele>
        <time>2021-10-13T13:07:53Z</time>
      </trkpt>
      <trkpt lat="41.5887770" lon="-5.7844080">
        <ele>735.2</ele>
        <time>2021-10-13T13:07:54Z</time>
      </trkpt>
      <trkpt lat="41.5886450" lon="-5.7843530">
        <ele>734.8</ele>
        <time>2021-10-13T13:07:57Z</time>
      </trkpt>
      <trkpt lat="41.5886100" lon="-5.7843370">
        <ele>734.8</ele>
        <time>2021-10-13T13:07:58Z</time>
      </trkpt>
      <trkpt lat="41.5883940" lon="-5.7842440">
        <ele>734.8</ele>
        <time>2021-10-13T13:08:03Z</time>
      </trkpt>
      <trkpt lat="41.5879390" lon="-5.7840850">
        <ele>734.4</ele>
        <time>2021-10-13T13:08:13Z</time>
      </trkpt>
      <trkpt lat="41.5876840" lon="-5.7839920">
        <ele>734.2</ele>
        <time>2021-10-13T13:08:18Z</time>
      </trkpt>
      <trkpt lat="41.5875770" lon="-5.7839550">
        <ele>734.0</ele>
        <time>2021-10-13T13:08:20Z</time>
      </trkpt>
      <trkpt lat="41.5875230" lon="-5.7839340">
        <ele>733.8</ele>
        <time>2021-10-13T13:08:21Z</time>
      </trkpt>
      <trkpt lat="41.5874660" lon="-5.7839150">
        <ele>733.6</ele>
        <time>2021-10-13T13:08:22Z</time>
      </trkpt>
      <trkpt lat="41.5873490" lon="-5.7838730">
        <ele>733.4</ele>
        <time>2021-10-13T13:08:24Z</time>
      </trkpt>
      <trkpt lat="41.5872310" lon="-5.7838300">
        <ele>732.8</ele>
        <time>2021-10-13T13:08:26Z</time>
      </trkpt>
      <trkpt lat="41.5870510" lon="-5.7837700">
        <ele>732.2</ele>
        <time>2021-10-13T13:08:29Z</time>
      </trkpt>
      <trkpt lat="41.5869300" lon="-5.7837300">
        <ele>731.6</ele>
        <time>2021-10-13T13:08:31Z</time>
      </trkpt>
      <trkpt lat="41.5865870" lon="-5.7836010">
        <ele>731.0</ele>
        <time>2021-10-13T13:08:37Z</time>
      </trkpt>
      <trkpt lat="41.5865350" lon="-5.7835840">
        <ele>730.8</ele>
        <time>2021-10-13T13:08:38Z</time>
      </trkpt>
      <trkpt lat="41.5864450" lon="-5.7835490">
        <ele>730.6</ele>
        <time>2021-10-13T13:08:40Z</time>
      </trkpt>
      <trkpt lat="41.5863870" lon="-5.7835300">
        <ele>730.6</ele>
        <time>2021-10-13T13:08:41Z</time>
      </trkpt>
      <trkpt lat="41.5861600" lon="-5.7834510">
        <ele>730.8</ele>
        <time>2021-10-13T13:08:46Z</time>
      </trkpt>
      <trkpt lat="41.5860770" lon="-5.7834210">
        <ele>731.0</ele>
        <time>2021-10-13T13:08:48Z</time>
      </trkpt>
      <trkpt lat="41.5859610" lon="-5.7833850">
        <ele>731.8</ele>
        <time>2021-10-13T13:08:51Z</time>
      </trkpt>
      <trkpt lat="41.5858110" lon="-5.7833420">
        <ele>732.8</ele>
        <time>2021-10-13T13:08:55Z</time>
      </trkpt>
      <trkpt lat="41.5857700" lon="-5.7833300">
        <ele>733.0</ele>
        <time>2021-10-13T13:08:56Z</time>
      </trkpt>
      <trkpt lat="41.5856090" lon="-5.7832780">
        <ele>733.2</ele>
        <time>2021-10-13T13:09:00Z</time>
      </trkpt>
      <trkpt lat="41.5854550" lon="-5.7832220">
        <ele>734.0</ele>
        <time>2021-10-13T13:09:04Z</time>
      </trkpt>
      <trkpt lat="41.5852890" lon="-5.7831630">
        <ele>734.2</ele>
        <time>2021-10-13T13:09:08Z</time>
      </trkpt>
      <trkpt lat="41.5851120" lon="-5.7830960">
        <ele>734.4</ele>
        <time>2021-10-13T13:09:12Z</time>
      </trkpt>
      <trkpt lat="41.5850070" lon="-5.7830600">
        <ele>734.4</ele>
        <time>2021-10-13T13:09:14Z</time>
      </trkpt>
      <trkpt lat="41.5848470" lon="-5.7830090">
        <ele>734.2</ele>
        <time>2021-10-13T13:09:17Z</time>
      </trkpt>
      <trkpt lat="41.5845610" lon="-5.7829250">
        <ele>733.4</ele>
        <time>2021-10-13T13:09:22Z</time>
      </trkpt>
      <trkpt lat="41.5845110" lon="-5.7829100">
        <ele>733.2</ele>
        <time>2021-10-13T13:09:23Z</time>
      </trkpt>
      <trkpt lat="41.5844370" lon="-5.7828850">
        <ele>732.0</ele>
        <time>2021-10-13T13:09:24Z</time>
      </trkpt>
      <trkpt lat="41.5841770" lon="-5.7828030">
        <ele>730.8</ele>
        <time>2021-10-13T13:09:28Z</time>
      </trkpt>
      <trkpt lat="41.5840440" lon="-5.7827600">
        <ele>730.2</ele>
        <time>2021-10-13T13:09:30Z</time>
      </trkpt>
      <trkpt lat="41.5839920" lon="-5.7827430">
        <ele>730.2</ele>
        <time>2021-10-13T13:09:31Z</time>
      </trkpt>
      <trkpt lat="41.5839330" lon="-5.7827230">
        <ele>730.0</ele>
        <time>2021-10-13T13:09:32Z</time>
      </trkpt>
      <trkpt lat="41.5838630" lon="-5.7826930">
        <ele>729.8</ele>
        <time>2021-10-13T13:09:33Z</time>
      </trkpt>
      <trkpt lat="41.5838090" lon="-5.7826650">
        <ele>729.6</ele>
        <time>2021-10-13T13:09:34Z</time>
      </trkpt>
      <trkpt lat="41.5837570" lon="-5.7826380">
        <ele>729.2</ele>
        <time>2021-10-13T13:09:35Z</time>
      </trkpt>
      <trkpt lat="41.5837030" lon="-5.7826160">
        <ele>729.0</ele>
        <time>2021-10-13T13:09:36Z</time>
      </trkpt>
      <trkpt lat="41.5834900" lon="-5.7825450">
        <ele>728.8</ele>
        <time>2021-10-13T13:09:40Z</time>
      </trkpt>
      <trkpt lat="41.5833320" lon="-5.7824910">
        <ele>728.8</ele>
        <time>2021-10-13T13:09:43Z</time>
      </trkpt>
      <trkpt lat="41.5831710" lon="-5.7824430">
        <ele>729.2</ele>
        <time>2021-10-13T13:09:47Z</time>
      </trkpt>
      <trkpt lat="41.5830970" lon="-5.7824140">
        <ele>729.8</ele>
        <time>2021-10-13T13:09:49Z</time>
      </trkpt>
      <trkpt lat="41.5829600" lon="-5.7823630">
        <ele>730.8</ele>
        <time>2021-10-13T13:09:53Z</time>
      </trkpt>
      <trkpt lat="41.5828280" lon="-5.7823230">
        <ele>731.4</ele>
        <time>2021-10-13T13:09:57Z</time>
      </trkpt>
      <trkpt lat="41.5826990" lon="-5.7822760">
        <ele>731.6</ele>
        <time>2021-10-13T13:10:01Z</time>
      </trkpt>
      <trkpt lat="41.5826340" lon="-5.7822470">
        <ele>731.8</ele>
        <time>2021-10-13T13:10:03Z</time>
      </trkpt>
      <trkpt lat="41.5825750" lon="-5.7822220">
        <ele>731.8</ele>
        <time>2021-10-13T13:10:05Z</time>
      </trkpt>
      <trkpt lat="41.5824340" lon="-5.7821770">
        <ele>732.8</ele>
        <time>2021-10-13T13:10:09Z</time>
      </trkpt>
      <trkpt lat="41.5822220" lon="-5.7821020">
        <ele>733.8</ele>
        <time>2021-10-13T13:10:16Z</time>
      </trkpt>
      <trkpt lat="41.5820410" lon="-5.7820380">
        <ele>734.6</ele>
        <time>2021-10-13T13:10:22Z</time>
      </trkpt>
      <trkpt lat="41.5819880" lon="-5.7820130">
        <ele>734.8</ele>
        <time>2021-10-13T13:10:24Z</time>
      </trkpt>
      <trkpt lat="41.5818350" lon="-5.7819640">
        <ele>735.6</ele>
        <time>2021-10-13T13:10:29Z</time>
      </trkpt>
      <trkpt lat="41.5817480" lon="-5.7819330">
        <ele>735.8</ele>
        <time>2021-10-13T13:10:32Z</time>
      </trkpt>
      <trkpt lat="41.5816550" lon="-5.7819090">
        <ele>736.2</ele>
        <time>2021-10-13T13:10:35Z</time>
      </trkpt>
      <trkpt lat="41.5813650" lon="-5.7818170">
        <ele>736.8</ele>
        <time>2021-10-13T13:10:44Z</time>
      </trkpt>
      <trkpt lat="41.5811260" lon="-5.7817350">
        <ele>736.8</ele>
        <time>2021-10-13T13:10:51Z</time>
      </trkpt>
      <trkpt lat="41.5810510" lon="-5.7817090">
        <ele>736.8</ele>
        <time>2021-10-13T13:10:53Z</time>
      </trkpt>
      <trkpt lat="41.5808110" lon="-5.7816260">
        <ele>736.6</ele>
        <time>2021-10-13T13:10:59Z</time>
      </trkpt>
      <trkpt lat="41.5807350" lon="-5.7815970">
        <ele>736.4</ele>
        <time>2021-10-13T13:11:01Z</time>
      </trkpt>
      <trkpt lat="41.5805890" lon="-5.7815470">
        <ele>736.4</ele>
        <time>2021-10-13T13:11:04Z</time>
      </trkpt>
      <trkpt lat="41.5803790" lon="-5.7814850">
        <ele>736.2</ele>
        <time>2021-10-13T13:11:08Z</time>
      </trkpt>
      <trkpt lat="41.5802120" lon="-5.7814320">
        <ele>736.0</ele>
        <time>2021-10-13T13:11:11Z</time>
      </trkpt>
      <trkpt lat="41.5800580" lon="-5.7813770">
        <ele>735.0</ele>
        <time>2021-10-13T13:11:14Z</time>
      </trkpt>
      <trkpt lat="41.5800010" lon="-5.7813570">
        <ele>734.8</ele>
        <time>2021-10-13T13:11:15Z</time>
      </trkpt>
      <trkpt lat="41.5798870" lon="-5.7813160">
        <ele>734.2</ele>
        <time>2021-10-13T13:11:17Z</time>
      </trkpt>
      <trkpt lat="41.5798160" lon="-5.7812930">
        <ele>734.0</ele>
        <time>2021-10-13T13:11:18Z</time>
      </trkpt>
      <trkpt lat="41.5797110" lon="-5.7812600">
        <ele>733.4</ele>
        <time>2021-10-13T13:11:20Z</time>
      </trkpt>
      <trkpt lat="41.5795220" lon="-5.7811920">
        <ele>733.0</ele>
        <time>2021-10-13T13:11:23Z</time>
      </trkpt>
      <trkpt lat="41.5794720" lon="-5.7811770">
        <ele>732.6</ele>
        <time>2021-10-13T13:11:24Z</time>
      </trkpt>
      <trkpt lat="41.5792790" lon="-5.7811080">
        <ele>731.4</ele>
        <time>2021-10-13T13:11:27Z</time>
      </trkpt>
      <trkpt lat="41.5792180" lon="-5.7810860">
        <ele>731.2</ele>
        <time>2021-10-13T13:11:28Z</time>
      </trkpt>
      <trkpt lat="41.5790300" lon="-5.7810340">
        <ele>730.4</ele>
        <time>2021-10-13T13:11:31Z</time>
      </trkpt>
      <trkpt lat="41.5789720" lon="-5.7810190">
        <ele>730.2</ele>
        <time>2021-10-13T13:11:32Z</time>
      </trkpt>
      <trkpt lat="41.5788810" lon="-5.7809710">
        <ele>729.8</ele>
        <time>2021-10-13T13:11:34Z</time>
      </trkpt>
      <trkpt lat="41.5788220" lon="-5.7809490">
        <ele>729.8</ele>
        <time>2021-10-13T13:11:35Z</time>
      </trkpt>
      <trkpt lat="41.5786370" lon="-5.7808850">
        <ele>729.6</ele>
        <time>2021-10-13T13:11:39Z</time>
      </trkpt>
      <trkpt lat="41.5785790" lon="-5.7808620">
        <ele>729.8</ele>
        <time>2021-10-13T13:11:40Z</time>
      </trkpt>
      <trkpt lat="41.5784160" lon="-5.7807820">
        <ele>730.2</ele>
        <time>2021-10-13T13:11:44Z</time>
      </trkpt>
      <trkpt lat="41.5782270" lon="-5.7806990">
        <ele>730.6</ele>
        <time>2021-10-13T13:11:49Z</time>
      </trkpt>
      <trkpt lat="41.5781610" lon="-5.7806720">
        <ele>730.8</ele>
        <time>2021-10-13T13:11:51Z</time>
      </trkpt>
      <trkpt lat="41.5781050" lon="-5.7806520">
        <ele>731.4</ele>
        <time>2021-10-13T13:11:53Z</time>
      </trkpt>
      <trkpt lat="41.5779770" lon="-5.7806060">
        <ele>732.4</ele>
        <time>2021-10-13T13:11:57Z</time>
      </trkpt>
      <trkpt lat="41.5778930" lon="-5.7805750">
        <ele>733.0</ele>
        <time>2021-10-13T13:12:00Z</time>
      </trkpt>
      <trkpt lat="41.5777520" lon="-5.7805270">
        <ele>733.6</ele>
        <time>2021-10-13T13:12:05Z</time>
      </trkpt>
      <trkpt lat="41.5775850" lon="-5.7804760">
        <ele>733.8</ele>
        <time>2021-10-13T13:12:11Z</time>
      </trkpt>
      <trkpt lat="41.5774680" lon="-5.7804450">
        <ele>734.0</ele>
        <time>2021-10-13T13:12:15Z</time>
      </trkpt>
      <trkpt lat="41.5773310" lon="-5.7803900">
        <ele>734.4</ele>
        <time>2021-10-13T13:12:20Z</time>
      </trkpt>
      <trkpt lat="41.5772800" lon="-5.7803700">
        <ele>734.8</ele>
        <time>2021-10-13T13:12:22Z</time>
      </trkpt>
      <trkpt lat="41.5771490" lon="-5.7803130">
        <ele>735.4</ele>
        <time>2021-10-13T13:12:26Z</time>
      </trkpt>
      <trkpt lat="41.5770820" lon="-5.7802850">
        <ele>735.6</ele>
        <time>2021-10-13T13:12:28Z</time>
      </trkpt>
      <trkpt lat="41.5769070" lon="-5.7802330">
        <ele>736.0</ele>
        <time>2021-10-13T13:12:33Z</time>
      </trkpt>
      <trkpt lat="41.5768340" lon="-5.7802080">
        <ele>736.0</ele>
        <time>2021-10-13T13:12:35Z</time>
      </trkpt>
      <trkpt lat="41.5765010" lon="-5.7800950">
        <ele>736.0</ele>
        <time>2021-10-13T13:12:44Z</time>
      </trkpt>
      <trkpt lat="41.5763690" lon="-5.7800660">
        <ele>736.0</ele>
        <time>2021-10-13T13:12:47Z</time>
      </trkpt>
      <trkpt lat="41.5762570" lon="-5.7800160">
        <ele>735.8</ele>
        <time>2021-10-13T13:12:50Z</time>
      </trkpt>
      <trkpt lat="41.5761640" lon="-5.7799870">
        <ele>735.8</ele>
        <time>2021-10-13T13:12:52Z</time>
      </trkpt>
      <trkpt lat="41.5760810" lon="-5.7799490">
        <ele>736.0</ele>
        <time>2021-10-13T13:12:54Z</time>
      </trkpt>
      <trkpt lat="41.5760470" lon="-5.7799400">
        <ele>735.8</ele>
        <time>2021-10-13T13:12:55Z</time>
      </trkpt>
      <trkpt lat="41.5759950" lon="-5.7799280">
        <ele>735.8</ele>
        <time>2021-10-13T13:12:56Z</time>
      </trkpt>
      <trkpt lat="41.5757920" lon="-5.7798670">
        <ele>735.8</ele>
        <time>2021-10-13T13:13:01Z</time>
      </trkpt>
      <trkpt lat="41.5756700" lon="-5.7798240">
        <ele>735.4</ele>
        <time>2021-10-13T13:13:04Z</time>
      </trkpt>
      <trkpt lat="41.5756130" lon="-5.7798080">
        <ele>735.2</ele>
        <time>2021-10-13T13:13:05Z</time>
      </trkpt>
      <trkpt lat="41.5754750" lon="-5.7797580">
        <ele>735.0</ele>
        <time>2021-10-13T13:13:08Z</time>
      </trkpt>
      <trkpt lat="41.5754240" lon="-5.7797390">
        <ele>734.6</ele>
        <time>2021-10-13T13:13:09Z</time>
      </trkpt>
      <trkpt lat="41.5752080" lon="-5.7796640">
        <ele>733.8</ele>
        <time>2021-10-13T13:13:13Z</time>
      </trkpt>
      <trkpt lat="41.5751390" lon="-5.7796410">
        <ele>733.6</ele>
        <time>2021-10-13T13:13:14Z</time>
      </trkpt>
      <trkpt lat="41.5749140" lon="-5.7795620">
        <ele>733.0</ele>
        <time>2021-10-13T13:13:18Z</time>
      </trkpt>
      <trkpt lat="41.5748430" lon="-5.7795390">
        <ele>732.6</ele>
        <time>2021-10-13T13:13:19Z</time>
      </trkpt>
      <trkpt lat="41.5747840" lon="-5.7795220">
        <ele>732.2</ele>
        <time>2021-10-13T13:13:20Z</time>
      </trkpt>
      <trkpt lat="41.5747260" lon="-5.7795020">
        <ele>732.0</ele>
        <time>2021-10-13T13:13:21Z</time>
      </trkpt>
      <trkpt lat="41.5744410" lon="-5.7793920">
        <ele>731.4</ele>
        <time>2021-10-13T13:13:28Z</time>
      </trkpt>
      <trkpt lat="41.5741560" lon="-5.7793150">
        <ele>731.8</ele>
        <time>2021-10-13T13:13:35Z</time>
      </trkpt>
      <trkpt lat="41.5739440" lon="-5.7792470">
        <ele>732.6</ele>
        <time>2021-10-13T13:13:42Z</time>
      </trkpt>
      <trkpt lat="41.5737680" lon="-5.7791850">
        <ele>733.2</ele>
        <time>2021-10-13T13:13:48Z</time>
      </trkpt>
      <trkpt lat="41.5737380" lon="-5.7791740">
        <ele>733.4</ele>
        <time>2021-10-13T13:13:49Z</time>
      </trkpt>
      <trkpt lat="41.5737080" lon="-5.7791620">
        <ele>733.6</ele>
        <time>2021-10-13T13:13:50Z</time>
      </trkpt>
      <trkpt lat="41.5735880" lon="-5.7791150">
        <ele>733.6</ele>
        <time>2021-10-13T13:13:54Z</time>
      </trkpt>
      <trkpt lat="41.5734170" lon="-5.7790530">
        <ele>734.0</ele>
        <time>2021-10-13T13:13:59Z</time>
      </trkpt>
      <trkpt lat="41.5733800" lon="-5.7790390">
        <ele>734.2</ele>
        <time>2021-10-13T13:14:00Z</time>
      </trkpt>
      <trkpt lat="41.5731090" lon="-5.7789530">
        <ele>733.8</ele>
        <time>2021-10-13T13:14:06Z</time>
      </trkpt>
      <trkpt lat="41.5729470" lon="-5.7788960">
        <ele>733.2</ele>
        <time>2021-10-13T13:14:09Z</time>
      </trkpt>
      <trkpt lat="41.5727080" lon="-5.7788100">
        <ele>732.6</ele>
        <time>2021-10-13T13:14:13Z</time>
      </trkpt>
      <trkpt lat="41.5725800" lon="-5.7787670">
        <ele>732.0</ele>
        <time>2021-10-13T13:14:15Z</time>
      </trkpt>
      <trkpt lat="41.5723850" lon="-5.7786980">
        <ele>731.2</ele>
        <time>2021-10-13T13:14:18Z</time>
      </trkpt>
      <trkpt lat="41.5723220" lon="-5.7786760">
        <ele>731.0</ele>
        <time>2021-10-13T13:14:19Z</time>
      </trkpt>
      <trkpt lat="41.5722590" lon="-5.7786580">
        <ele>730.6</ele>
        <time>2021-10-13T13:14:20Z</time>
      </trkpt>
      <trkpt lat="41.5721960" lon="-5.7786460">
        <ele>730.4</ele>
        <time>2021-10-13T13:14:21Z</time>
      </trkpt>
      <trkpt lat="41.5720780" lon="-5.7786360">
        <ele>729.8</ele>
        <time>2021-10-13T13:14:23Z</time>
      </trkpt>
      <trkpt lat="41.5720210" lon="-5.7786320">
        <ele>729.6</ele>
        <time>2021-10-13T13:14:24Z</time>
      </trkpt>
      <trkpt lat="41.5717190" lon="-5.7786170">
        <ele>729.2</ele>
        <time>2021-10-13T13:14:30Z</time>
      </trkpt>
      <trkpt lat="41.5715280" lon="-5.7786040">
        <ele>729.2</ele>
        <time>2021-10-13T13:14:34Z</time>
      </trkpt>
      <trkpt lat="41.5713900" lon="-5.7786050">
        <ele>729.2</ele>
        <time>2021-10-13T13:14:37Z</time>
      </trkpt>
      <trkpt lat="41.5712990" lon="-5.7786030">
        <ele>729.6</ele>
        <time>2021-10-13T13:14:39Z</time>
      </trkpt>
      <trkpt lat="41.5710780" lon="-5.7785950">
        <ele>730.2</ele>
        <time>2021-10-13T13:14:44Z</time>
      </trkpt>
      <trkpt lat="41.5709520" lon="-5.7785850">
        <ele>730.6</ele>
        <time>2021-10-13T13:14:47Z</time>
      </trkpt>
      <trkpt lat="41.5708680" lon="-5.7785770">
        <ele>730.8</ele>
        <time>2021-10-13T13:14:49Z</time>
      </trkpt>
      <trkpt lat="41.5707450" lon="-5.7785740">
        <ele>731.2</ele>
        <time>2021-10-13T13:14:52Z</time>
      </trkpt>
      <trkpt lat="41.5706600" lon="-5.7785600">
        <ele>731.6</ele>
        <time>2021-10-13T13:14:54Z</time>
      </trkpt>
      <trkpt lat="41.5706280" lon="-5.7785590">
        <ele>731.6</ele>
        <time>2021-10-13T13:14:55Z</time>
      </trkpt>
      <trkpt lat="41.5705530" lon="-5.7785590">
        <ele>732.0</ele>
        <time>2021-10-13T13:14:57Z</time>
      </trkpt>
      <trkpt lat="41.5704110" lon="-5.7785460">
        <ele>732.4</ele>
        <time>2021-10-13T13:15:01Z</time>
      </trkpt>
      <trkpt lat="41.5702530" lon="-5.7785400">
        <ele>733.0</ele>
        <time>2021-10-13T13:15:05Z</time>
      </trkpt>
      <trkpt lat="41.5700730" lon="-5.7785340">
        <ele>733.2</ele>
        <time>2021-10-13T13:15:09Z</time>
      </trkpt>
      <trkpt lat="41.5697750" lon="-5.7785180">
        <ele>732.4</ele>
        <time>2021-10-13T13:15:15Z</time>
      </trkpt>
      <trkpt lat="41.5696630" lon="-5.7785110">
        <ele>732.2</ele>
        <time>2021-10-13T13:15:17Z</time>
      </trkpt>
      <trkpt lat="41.5695490" lon="-5.7785040">
        <ele>732.0</ele>
        <time>2021-10-13T13:15:19Z</time>
      </trkpt>
      <trkpt lat="41.5693630" lon="-5.7784930">
        <ele>731.2</ele>
        <time>2021-10-13T13:15:22Z</time>
      </trkpt>
      <trkpt lat="41.5692970" lon="-5.7784890">
        <ele>730.8</ele>
        <time>2021-10-13T13:15:23Z</time>
      </trkpt>
      <trkpt lat="41.5689430" lon="-5.7784760">
        <ele>729.6</ele>
        <time>2021-10-13T13:15:28Z</time>
      </trkpt>
      <trkpt lat="41.5688670" lon="-5.7784740">
        <ele>729.6</ele>
        <time>2021-10-13T13:15:29Z</time>
      </trkpt>
      <trkpt lat="41.5686970" lon="-5.7784690">
        <ele>728.6</ele>
        <time>2021-10-13T13:15:31Z</time>
      </trkpt>
      <trkpt lat="41.5684790" lon="-5.7784580">
        <ele>727.6</ele>
        <time>2021-10-13T13:15:34Z</time>
      </trkpt>
      <trkpt lat="41.5682630" lon="-5.7784240">
        <ele>726.6</ele>
        <time>2021-10-13T13:15:37Z</time>
      </trkpt>
      <trkpt lat="41.5681550" lon="-5.7783920">
        <ele>726.4</ele>
        <time>2021-10-13T13:15:39Z</time>
      </trkpt>
      <trkpt lat="41.5680830" lon="-5.7783690">
        <ele>726.4</ele>
        <time>2021-10-13T13:15:41Z</time>
      </trkpt>
      <trkpt lat="41.5679630" lon="-5.7783150">
        <ele>727.6</ele>
        <time>2021-10-13T13:15:46Z</time>
      </trkpt>
      <trkpt lat="41.5679430" lon="-5.7783060">
        <ele>727.8</ele>
        <time>2021-10-13T13:15:47Z</time>
      </trkpt>
      <trkpt lat="41.5678880" lon="-5.7782760">
        <ele>728.6</ele>
        <time>2021-10-13T13:15:50Z</time>
      </trkpt>
      <trkpt lat="41.5678750" lon="-5.7782580">
        <ele>728.8</ele>
        <time>2021-10-13T13:15:51Z</time>
      </trkpt>
      <trkpt lat="41.5678570" lon="-5.7782440">
        <ele>728.8</ele>
        <time>2021-10-13T13:15:52Z</time>
      </trkpt>
      <trkpt lat="41.5678000" lon="-5.7782190">
        <ele>730.0</ele>
        <time>2021-10-13T13:15:55Z</time>
      </trkpt>
      <trkpt lat="41.5677090" lon="-5.7781850">
        <ele>730.8</ele>
        <time>2021-10-13T13:16:00Z</time>
      </trkpt>
      <trkpt lat="41.5676750" lon="-5.7781680">
        <ele>731.0</ele>
        <time>2021-10-13T13:16:02Z</time>
      </trkpt>
      <trkpt lat="41.5676150" lon="-5.7781440">
        <ele>731.6</ele>
        <time>2021-10-13T13:16:06Z</time>
      </trkpt>
      <trkpt lat="41.5675660" lon="-5.7781230">
        <ele>732.0</ele>
        <time>2021-10-13T13:16:09Z</time>
      </trkpt>
      <trkpt lat="41.5675500" lon="-5.7781150">
        <ele>732.0</ele>
        <time>2021-10-13T13:16:10Z</time>
      </trkpt>
      <trkpt lat="41.5675060" lon="-5.7780990">
        <ele>733.0</ele>
        <time>2021-10-13T13:16:13Z</time>
      </trkpt>
      <trkpt lat="41.5674660" lon="-5.7780730">
        <ele>733.4</ele>
        <time>2021-10-13T13:16:16Z</time>
      </trkpt>
      <trkpt lat="41.5674230" lon="-5.7780570">
        <ele>734.0</ele>
        <time>2021-10-13T13:16:19Z</time>
      </trkpt>
      <trkpt lat="41.5673950" lon="-5.7780490">
        <ele>734.2</ele>
        <time>2021-10-13T13:16:21Z</time>
      </trkpt>
      <trkpt lat="41.5673710" lon="-5.7780350">
        <ele>734.2</ele>
        <time>2021-10-13T13:16:23Z</time>
      </trkpt>
      <trkpt lat="41.5672900" lon="-5.7780040">
        <ele>734.6</ele>
        <time>2021-10-13T13:16:29Z</time>
      </trkpt>
      <trkpt lat="41.5671800" lon="-5.7779540">
        <ele>735.2</ele>
        <time>2021-10-13T13:16:37Z</time>
      </trkpt>
      <trkpt lat="41.5671480" lon="-5.7779400">
        <ele>735.6</ele>
        <time>2021-10-13T13:16:39Z</time>
      </trkpt>
      <trkpt lat="41.5671220" lon="-5.7779250">
        <ele>736.0</ele>
        <time>2021-10-13T13:16:41Z</time>
      </trkpt>
      <trkpt lat="41.5670920" lon="-5.7779130">
        <ele>736.4</ele>
        <time>2021-10-13T13:16:43Z</time>
      </trkpt>
      <trkpt lat="41.5670770" lon="-5.7779100">
        <ele>736.4</ele>
        <time>2021-10-13T13:16:44Z</time>
      </trkpt>
      <trkpt lat="41.5670340" lon="-5.7779200">
        <ele>736.6</ele>
        <time>2021-10-13T13:16:47Z</time>
      </trkpt>
      <trkpt lat="41.5669330" lon="-5.7778890">
        <ele>737.4</ele>
        <time>2021-10-13T13:16:54Z</time>
      </trkpt>
      <trkpt lat="41.5669070" lon="-5.7778840">
        <ele>737.8</ele>
        <time>2021-10-13T13:16:56Z</time>
      </trkpt>
      <trkpt lat="41.5668510" lon="-5.7778600">
        <ele>738.2</ele>
        <time>2021-10-13T13:17:00Z</time>
      </trkpt>
      <trkpt lat="41.5668230" lon="-5.7778360">
        <ele>738.4</ele>
        <time>2021-10-13T13:17:02Z</time>
      </trkpt>
      <trkpt lat="41.5668070" lon="-5.7778310">
        <ele>738.4</ele>
        <time>2021-10-13T13:17:03Z</time>
      </trkpt>
      <trkpt lat="41.5666730" lon="-5.7777750">
        <ele>739.2</ele>
        <time>2021-10-13T13:17:12Z</time>
      </trkpt>
      <trkpt lat="41.5666240" lon="-5.7777520">
        <ele>739.4</ele>
        <time>2021-10-13T13:17:15Z</time>
      </trkpt>
      <trkpt lat="41.5666050" lon="-5.7777430">
        <ele>739.4</ele>
        <time>2021-10-13T13:17:16Z</time>
      </trkpt>
      <trkpt lat="41.5665580" lon="-5.7777230">
        <ele>739.4</ele>
        <time>2021-10-13T13:17:19Z</time>
      </trkpt>
      <trkpt lat="41.5665380" lon="-5.7777120">
        <ele>739.6</ele>
        <time>2021-10-13T13:17:20Z</time>
      </trkpt>
      <trkpt lat="41.5665200" lon="-5.7777040">
        <ele>739.6</ele>
        <time>2021-10-13T13:17:21Z</time>
      </trkpt>
      <trkpt lat="41.5664220" lon="-5.7776610">
        <ele>740.2</ele>
        <time>2021-10-13T13:17:26Z</time>
      </trkpt>
      <trkpt lat="41.5663630" lon="-5.7776350">
        <ele>740.4</ele>
        <time>2021-10-13T13:17:29Z</time>
      </trkpt>
      <trkpt lat="41.5663190" lon="-5.7776190">
        <ele>740.6</ele>
        <time>2021-10-13T13:17:31Z</time>
      </trkpt>
      <trkpt lat="41.5662850" lon="-5.7775990">
        <ele>740.6</ele>
        <time>2021-10-13T13:17:33Z</time>
      </trkpt>
      <trkpt lat="41.5662490" lon="-5.7775790">
        <ele>740.6</ele>
        <time>2021-10-13T13:17:35Z</time>
      </trkpt>
      <trkpt lat="41.5662110" lon="-5.7775620">
        <ele>740.6</ele>
        <time>2021-10-13T13:17:37Z</time>
      </trkpt>
      <trkpt lat="41.5660610" lon="-5.7775030">
        <ele>740.6</ele>
        <time>2021-10-13T13:17:45Z</time>
      </trkpt>
      <trkpt lat="41.5658810" lon="-5.7774300">
        <ele>741.0</ele>
        <time>2021-10-13T13:17:54Z</time>
      </trkpt>
      <trkpt lat="41.5657010" lon="-5.7773490">
        <ele>741.2</ele>
        <time>2021-10-13T13:18:03Z</time>
      </trkpt>
      <trkpt lat="41.5656560" lon="-5.7773280">
        <ele>741.4</ele>
        <time>2021-10-13T13:18:05Z</time>
      </trkpt>
      <trkpt lat="41.5656390" lon="-5.7773190">
        <ele>741.4</ele>
        <time>2021-10-13T13:18:06Z</time>
      </trkpt>
      <trkpt lat="41.5655940" lon="-5.7773030">
        <ele>741.6</ele>
        <time>2021-10-13T13:18:08Z</time>
      </trkpt>
      <trkpt lat="41.5655740" lon="-5.7772940">
        <ele>741.6</ele>
        <time>2021-10-13T13:18:09Z</time>
      </trkpt>
      <trkpt lat="41.5654930" lon="-5.7772600">
        <ele>742.0</ele>
        <time>2021-10-13T13:18:13Z</time>
      </trkpt>
      <trkpt lat="41.5654670" lon="-5.7772520">
        <ele>742.0</ele>
        <time>2021-10-13T13:18:14Z</time>
      </trkpt>
      <trkpt lat="41.5654260" lon="-5.7772320">
        <ele>742.0</ele>
        <time>2021-10-13T13:18:16Z</time>
      </trkpt>
      <trkpt lat="41.5653260" lon="-5.7771970">
        <ele>742.0</ele>
        <time>2021-10-13T13:18:20Z</time>
      </trkpt>
      <trkpt lat="41.5653010" lon="-5.7771930">
        <ele>742.0</ele>
        <time>2021-10-13T13:18:21Z</time>
      </trkpt>
      <trkpt lat="41.5652250" lon="-5.7771550">
        <ele>742.2</ele>
        <time>2021-10-13T13:18:24Z</time>
      </trkpt>
      <trkpt lat="41.5651340" lon="-5.7771070">
        <ele>742.2</ele>
        <time>2021-10-13T13:18:28Z</time>
      </trkpt>
      <trkpt lat="41.5650650" lon="-5.7770890">
        <ele>742.4</ele>
        <time>2021-10-13T13:18:31Z</time>
      </trkpt>
      <trkpt lat="41.5650010" lon="-5.7770740">
        <ele>742.2</ele>
        <time>2021-10-13T13:18:34Z</time>
      </trkpt>
      <trkpt lat="41.5649620" lon="-5.7770570">
        <ele>742.4</ele>
        <time>2021-10-13T13:18:36Z</time>
      </trkpt>
      <trkpt lat="41.5649120" lon="-5.7770300">
        <ele>742.4</ele>
        <time>2021-10-13T13:18:38Z</time>
      </trkpt>
      <trkpt lat="41.5648050" lon="-5.7769830">
        <ele>742.4</ele>
        <time>2021-10-13T13:18:42Z</time>
      </trkpt>
      <trkpt lat="41.5647190" lon="-5.7769490">
        <ele>742.2</ele>
        <time>2021-10-13T13:18:46Z</time>
      </trkpt>
      <trkpt lat="41.5646960" lon="-5.7769410">
        <ele>742.2</ele>
        <time>2021-10-13T13:18:47Z</time>
      </trkpt>
      <trkpt lat="41.5646320" lon="-5.7769020">
        <ele>742.0</ele>
        <time>2021-10-13T13:18:50Z</time>
      </trkpt>
      <trkpt lat="41.5645820" lon="-5.7768860">
        <ele>741.8</ele>
        <time>2021-10-13T13:18:52Z</time>
      </trkpt>
      <trkpt lat="41.5645600" lon="-5.7768760">
        <ele>741.6</ele>
        <time>2021-10-13T13:18:53Z</time>
      </trkpt>
      <trkpt lat="41.5644910" lon="-5.7768410">
        <ele>741.0</ele>
        <time>2021-10-13T13:18:59Z</time>
      </trkpt>
      <trkpt lat="41.5644240" lon="-5.7768370">
        <ele>740.4</ele>
        <time>2021-10-13T13:19:37Z</time>
      </trkpt>
      <trkpt lat="41.5643650" lon="-5.7768120">
        <ele>740.4</ele>
        <time>2021-10-13T13:19:39Z</time>
      </trkpt>
      <trkpt lat="41.5643330" lon="-5.7767970">
        <ele>740.4</ele>
        <time>2021-10-13T13:19:40Z</time>
      </trkpt>
      <trkpt lat="41.5641450" lon="-5.7767140">
        <ele>740.2</ele>
        <time>2021-10-13T13:19:45Z</time>
      </trkpt>
      <trkpt lat="41.5638800" lon="-5.7766060">
        <ele>739.2</ele>
        <time>2021-10-13T13:19:51Z</time>
      </trkpt>
      <trkpt lat="41.5638310" lon="-5.7765850">
        <ele>738.8</ele>
        <time>2021-10-13T13:19:52Z</time>
      </trkpt>
      <trkpt lat="41.5636230" lon="-5.7765000">
        <ele>738.4</ele>
        <time>2021-10-13T13:19:56Z</time>
      </trkpt>
      <trkpt lat="41.5635110" lon="-5.7764560">
        <ele>738.0</ele>
        <time>2021-10-13T13:19:58Z</time>
      </trkpt>
      <trkpt lat="41.5633820" lon="-5.7764040">
        <ele>737.4</ele>
        <time>2021-10-13T13:20:00Z</time>
      </trkpt>
      <trkpt lat="41.5632710" lon="-5.7763610">
        <ele>736.8</ele>
        <time>2021-10-13T13:20:02Z</time>
      </trkpt>
      <trkpt lat="41.5630770" lon="-5.7762820">
        <ele>736.2</ele>
        <time>2021-10-13T13:20:05Z</time>
      </trkpt>
      <trkpt lat="41.5629260" lon="-5.7762190">
        <ele>735.6</ele>
        <time>2021-10-13T13:20:07Z</time>
      </trkpt>
      <trkpt lat="41.5627860" lon="-5.7761580">
        <ele>734.4</ele>
        <time>2021-10-13T13:20:09Z</time>
      </trkpt>
      <trkpt lat="41.5625700" lon="-5.7760690">
        <ele>733.0</ele>
        <time>2021-10-13T13:20:12Z</time>
      </trkpt>
      <trkpt lat="41.5624980" lon="-5.7760400">
        <ele>732.8</ele>
        <time>2021-10-13T13:20:13Z</time>
      </trkpt>
      <trkpt lat="41.5622940" lon="-5.7759510">
        <ele>732.0</ele>
        <time>2021-10-13T13:20:16Z</time>
      </trkpt>
      <trkpt lat="41.5619950" lon="-5.7758300">
        <ele>730.8</ele>
        <time>2021-10-13T13:20:20Z</time>
      </trkpt>
      <trkpt lat="41.5618600" lon="-5.7757750">
        <ele>730.2</ele>
        <time>2021-10-13T13:20:22Z</time>
      </trkpt>
      <trkpt lat="41.5617940" lon="-5.7757460">
        <ele>729.8</ele>
        <time>2021-10-13T13:20:23Z</time>
      </trkpt>
      <trkpt lat="41.5615340" lon="-5.7756440">
        <ele>729.2</ele>
        <time>2021-10-13T13:20:27Z</time>
      </trkpt>
      <trkpt lat="41.5614200" lon="-5.7755970">
        <ele>728.8</ele>
        <time>2021-10-13T13:20:29Z</time>
      </trkpt>
      <trkpt lat="41.5612840" lon="-5.7755420">
        <ele>728.4</ele>
        <time>2021-10-13T13:20:31Z</time>
      </trkpt>
      <trkpt lat="41.5610610" lon="-5.7754520">
        <ele>728.0</ele>
        <time>2021-10-13T13:20:35Z</time>
      </trkpt>
      <trkpt lat="41.5609930" lon="-5.7754240">
        <ele>728.0</ele>
        <time>2021-10-13T13:20:36Z</time>
      </trkpt>
      <trkpt lat="41.5608320" lon="-5.7753570">
        <ele>727.6</ele>
        <time>2021-10-13T13:20:39Z</time>
      </trkpt>
      <trkpt lat="41.5605890" lon="-5.7752530">
        <ele>726.8</ele>
        <time>2021-10-13T13:20:44Z</time>
      </trkpt>
      <trkpt lat="41.5605270" lon="-5.7752300">
        <ele>726.6</ele>
        <time>2021-10-13T13:20:45Z</time>
      </trkpt>
      <trkpt lat="41.5602960" lon="-5.7751160">
        <ele>725.8</ele>
        <time>2021-10-13T13:20:50Z</time>
      </trkpt>
      <trkpt lat="41.5602480" lon="-5.7750990">
        <ele>725.6</ele>
        <time>2021-10-13T13:20:51Z</time>
      </trkpt>
      <trkpt lat="41.5601990" lon="-5.7750830">
        <ele>725.4</ele>
        <time>2021-10-13T13:20:52Z</time>
      </trkpt>
      <trkpt lat="41.5597620" lon="-5.7749070">
        <ele>724.8</ele>
        <time>2021-10-13T13:21:00Z</time>
      </trkpt>
      <trkpt lat="41.5597030" lon="-5.7748830">
        <ele>724.6</ele>
        <time>2021-10-13T13:21:01Z</time>
      </trkpt>
      <trkpt lat="41.5595340" lon="-5.7748110">
        <ele>723.6</ele>
        <time>2021-10-13T13:21:04Z</time>
      </trkpt>
      <trkpt lat="41.5592510" lon="-5.7747000">
        <ele>722.8</ele>
        <time>2021-10-13T13:21:09Z</time>
      </trkpt>
      <trkpt lat="41.5591970" lon="-5.7746820">
        <ele>722.8</ele>
        <time>2021-10-13T13:21:10Z</time>
      </trkpt>
      <trkpt lat="41.5590860" lon="-5.7746460">
        <ele>722.4</ele>
        <time>2021-10-13T13:21:12Z</time>
      </trkpt>
      <trkpt lat="41.5590030" lon="-5.7746730">
        <ele>722.0</ele>
        <time>2021-10-13T13:21:14Z</time>
      </trkpt>
      <trkpt lat="41.5589060" lon="-5.7748160">
        <ele>721.4</ele>
        <time>2021-10-13T13:21:17Z</time>
      </trkpt>
      <trkpt lat="41.5588770" lon="-5.7748630">
        <ele>721.0</ele>
        <time>2021-10-13T13:21:18Z</time>
      </trkpt>
      <trkpt lat="41.5586620" lon="-5.7752160">
        <ele>720.8</ele>
        <time>2021-10-13T13:21:26Z</time>
      </trkpt>
      <trkpt lat="41.5586150" lon="-5.7753120">
        <ele>720.8</ele>
        <time>2021-10-13T13:21:28Z</time>
      </trkpt>
      <trkpt lat="41.5585520" lon="-5.7754010">
        <ele>721.0</ele>
        <time>2021-10-13T13:21:30Z</time>
      </trkpt>
      <trkpt lat="41.5585020" lon="-5.7754770">
        <ele>721.0</ele>
        <time>2021-10-13T13:21:32Z</time>
      </trkpt>
      <trkpt lat="41.5583970" lon="-5.7756620">
        <ele>721.2</ele>
        <time>2021-10-13T13:21:36Z</time>
      </trkpt>
      <trkpt lat="41.5582980" lon="-5.7758350">
        <ele>721.4</ele>
        <time>2021-10-13T13:21:40Z</time>
      </trkpt>
      <trkpt lat="41.5582560" lon="-5.7759090">
        <ele>721.8</ele>
        <time>2021-10-13T13:21:42Z</time>
      </trkpt>
      <trkpt lat="41.5581570" lon="-5.7760770">
        <ele>722.0</ele>
        <time>2021-10-13T13:21:46Z</time>
      </trkpt>
      <trkpt lat="41.5580540" lon="-5.7762350">
        <ele>722.4</ele>
        <time>2021-10-13T13:21:50Z</time>
      </trkpt>
      <trkpt lat="41.5580290" lon="-5.7762670">
        <ele>722.6</ele>
        <time>2021-10-13T13:21:51Z</time>
      </trkpt>
      <trkpt lat="41.5579200" lon="-5.7763260">
        <ele>723.4</ele>
        <time>2021-10-13T13:21:55Z</time>
      </trkpt>
      <trkpt lat="41.5578940" lon="-5.7763240">
        <ele>723.6</ele>
        <time>2021-10-13T13:21:56Z</time>
      </trkpt>
      <trkpt lat="41.5578510" lon="-5.7763000">
        <ele>724.0</ele>
        <time>2021-10-13T13:22:00Z</time>
      </trkpt>
      <trkpt lat="41.5578510" lon="-5.7763000">
        <ele>724.0</ele>
        <time>2021-10-13T13:22:01Z</time>
      </trkpt>
      <trkpt lat="41.5578310" lon="-5.7762860">
        <ele>723.6</ele>
        <time>2021-10-13T13:22:36Z</time>
      </trkpt>
      <trkpt lat="41.5578090" lon="-5.7762680">
        <ele>723.6</ele>
        <time>2021-10-13T13:22:37Z</time>
      </trkpt>
      <trkpt lat="41.5577770" lon="-5.7762390">
        <ele>723.6</ele>
        <time>2021-10-13T13:22:38Z</time>
      </trkpt>
      <trkpt lat="41.5577210" lon="-5.7761830">
        <ele>723.6</ele>
        <time>2021-10-13T13:22:40Z</time>
      </trkpt>
      <trkpt lat="41.5575860" lon="-5.7760600">
        <ele>723.6</ele>
        <time>2021-10-13T13:22:44Z</time>
      </trkpt>
      <trkpt lat="41.5573590" lon="-5.7758550">
        <ele>724.2</ele>
        <time>2021-10-13T13:22:51Z</time>
      </trkpt>
      <trkpt lat="41.5570810" lon="-5.7756050">
        <ele>724.2</ele>
        <time>2021-10-13T13:23:00Z</time>
      </trkpt>
      <trkpt lat="41.5569010" lon="-5.7754550">
        <ele>724.6</ele>
        <time>2021-10-13T13:23:06Z</time>
      </trkpt>
      <trkpt lat="41.5568650" lon="-5.7754210">
        <ele>724.6</ele>
        <time>2021-10-13T13:23:07Z</time>
      </trkpt>
      <trkpt lat="41.5567400" lon="-5.7753050">
        <ele>724.4</ele>
        <time>2021-10-13T13:23:11Z</time>
      </trkpt>
      <trkpt lat="41.5566150" lon="-5.7752010">
        <ele>724.2</ele>
        <time>2021-10-13T13:23:15Z</time>
      </trkpt>
      <trkpt lat="41.5563570" lon="-5.7750270">
        <ele>723.6</ele>
        <time>2021-10-13T13:23:21Z</time>
      </trkpt>
      <trkpt lat="41.5563030" lon="-5.7749990">
        <ele>723.4</ele>
        <time>2021-10-13T13:23:22Z</time>
      </trkpt>
      <trkpt lat="41.5559940" lon="-5.7748720">
        <ele>722.0</ele>
        <time>2021-10-13T13:23:27Z</time>
      </trkpt>
      <trkpt lat="41.5559380" lon="-5.7748510">
        <ele>721.4</ele>
        <time>2021-10-13T13:23:28Z</time>
      </trkpt>
      <trkpt lat="41.5557810" lon="-5.7747930">
        <ele>720.6</ele>
        <time>2021-10-13T13:23:30Z</time>
      </trkpt>
      <trkpt lat="41.5555740" lon="-5.7747290">
        <ele>719.0</ele>
        <time>2021-10-13T13:23:33Z</time>
      </trkpt>
      <trkpt lat="41.5554080" lon="-5.7746720">
        <ele>718.2</ele>
        <time>2021-10-13T13:23:35Z</time>
      </trkpt>
      <trkpt lat="41.5552860" lon="-5.7746300">
        <ele>717.8</ele>
        <time>2021-10-13T13:23:37Z</time>
      </trkpt>
      <trkpt lat="41.5550830" lon="-5.7745640">
        <ele>716.6</ele>
        <time>2021-10-13T13:23:40Z</time>
      </trkpt>
      <trkpt lat="41.5550180" lon="-5.7745450">
        <ele>716.0</ele>
        <time>2021-10-13T13:23:41Z</time>
      </trkpt>
      <trkpt lat="41.5549660" lon="-5.7745280">
        <ele>715.6</ele>
        <time>2021-10-13T13:23:42Z</time>
      </trkpt>
      <trkpt lat="41.5546060" lon="-5.7743970">
        <ele>714.6</ele>
        <time>2021-10-13T13:23:48Z</time>
      </trkpt>
      <trkpt lat="41.5545520" lon="-5.7743770">
        <ele>714.4</ele>
        <time>2021-10-13T13:23:49Z</time>
      </trkpt>
      <trkpt lat="41.5540700" lon="-5.7742010">
        <ele>713.8</ele>
        <time>2021-10-13T13:23:58Z</time>
      </trkpt>
      <trkpt lat="41.5539270" lon="-5.7741440">
        <ele>713.6</ele>
        <time>2021-10-13T13:24:01Z</time>
      </trkpt>
      <trkpt lat="41.5536720" lon="-5.7740440">
        <ele>713.4</ele>
        <time>2021-10-13T13:24:06Z</time>
      </trkpt>
      <trkpt lat="41.5533430" lon="-5.7738640">
        <ele>713.2</ele>
        <time>2021-10-13T13:24:13Z</time>
      </trkpt>
      <trkpt lat="41.5530830" lon="-5.7737480">
        <ele>712.8</ele>
        <time>2021-10-13T13:24:19Z</time>
      </trkpt>
      <trkpt lat="41.5530080" lon="-5.7737090">
        <ele>712.6</ele>
        <time>2021-10-13T13:24:21Z</time>
      </trkpt>
      <trkpt lat="41.5527100" lon="-5.7735450">
        <ele>712.0</ele>
        <time>2021-10-13T13:24:28Z</time>
      </trkpt>
      <trkpt lat="41.5526710" lon="-5.7735190">
        <ele>712.0</ele>
        <time>2021-10-13T13:24:29Z</time>
      </trkpt>
      <trkpt lat="41.5525520" lon="-5.7734580">
        <ele>711.8</ele>
        <time>2021-10-13T13:24:32Z</time>
      </trkpt>
      <trkpt lat="41.5524440" lon="-5.7734050">
        <ele>711.8</ele>
        <time>2021-10-13T13:24:35Z</time>
      </trkpt>
      <trkpt lat="41.5523210" lon="-5.7733310">
        <ele>711.6</ele>
        <time>2021-10-13T13:24:38Z</time>
      </trkpt>
      <trkpt lat="41.5522490" lon="-5.7732900">
        <ele>711.4</ele>
        <time>2021-10-13T13:24:40Z</time>
      </trkpt>
      <trkpt lat="41.5521520" lon="-5.7732340">
        <ele>711.4</ele>
        <time>2021-10-13T13:24:42Z</time>
      </trkpt>
      <trkpt lat="41.5518660" lon="-5.7730780">
        <ele>710.8</ele>
        <time>2021-10-13T13:24:49Z</time>
      </trkpt>
      <trkpt lat="41.5517480" lon="-5.7730130">
        <ele>710.6</ele>
        <time>2021-10-13T13:24:53Z</time>
      </trkpt>
      <trkpt lat="41.5517280" lon="-5.7730040">
        <ele>710.6</ele>
        <time>2021-10-13T13:24:54Z</time>
      </trkpt>
      <trkpt lat="41.5517000" lon="-5.7729930">
        <ele>710.4</ele>
        <time>2021-10-13T13:24:56Z</time>
      </trkpt>
      <trkpt lat="41.5516690" lon="-5.7730280">
        <ele>710.4</ele>
        <time>2021-10-13T13:24:58Z</time>
      </trkpt>
      <trkpt lat="41.5515740" lon="-5.7732540">
        <ele>710.4</ele>
        <time>2021-10-13T13:25:04Z</time>
      </trkpt>
      <trkpt lat="41.5514810" lon="-5.7735100">
        <ele>710.4</ele>
        <time>2021-10-13T13:25:10Z</time>
      </trkpt>
      <trkpt lat="41.5512930" lon="-5.7738060">
        <ele>710.6</ele>
        <time>2021-10-13T13:25:17Z</time>
      </trkpt>
      <trkpt lat="41.5512130" lon="-5.7739380">
        <ele>710.6</ele>
        <time>2021-10-13T13:25:20Z</time>
      </trkpt>
      <trkpt lat="41.5511690" lon="-5.7740260">
        <ele>710.6</ele>
        <time>2021-10-13T13:25:22Z</time>
      </trkpt>
      <trkpt lat="41.5510980" lon="-5.7741470">
        <ele>710.8</ele>
        <time>2021-10-13T13:25:25Z</time>
      </trkpt>
      <trkpt lat="41.5509370" lon="-5.7744540">
        <ele>711.0</ele>
        <time>2021-10-13T13:25:32Z</time>
      </trkpt>
      <trkpt lat="41.5507920" lon="-5.7747460">
        <ele>711.2</ele>
        <time>2021-10-13T13:25:38Z</time>
      </trkpt>
      <trkpt lat="41.5507450" lon="-5.7748300">
        <ele>711.4</ele>
        <time>2021-10-13T13:25:40Z</time>
      </trkpt>
      <trkpt lat="41.5507210" lon="-5.7748700">
        <ele>711.6</ele>
        <time>2021-10-13T13:25:41Z</time>
      </trkpt>
      <trkpt lat="41.5506960" lon="-5.7749070">
        <ele>711.6</ele>
        <time>2021-10-13T13:25:42Z</time>
      </trkpt>
      <trkpt lat="41.5505840" lon="-5.7750460">
        <ele>711.8</ele>
        <time>2021-10-13T13:25:46Z</time>
      </trkpt>
      <trkpt lat="41.5504600" lon="-5.7751820">
        <ele>712.4</ele>
        <time>2021-10-13T13:25:50Z</time>
      </trkpt>
      <trkpt lat="41.5504070" lon="-5.7752540">
        <ele>712.6</ele>
        <time>2021-10-13T13:25:52Z</time>
      </trkpt>
      <trkpt lat="41.5503550" lon="-5.7753280">
        <ele>712.8</ele>
        <time>2021-10-13T13:25:54Z</time>
      </trkpt>
      <trkpt lat="41.5502600" lon="-5.7754100">
        <ele>713.0</ele>
        <time>2021-10-13T13:25:57Z</time>
      </trkpt>
      <trkpt lat="41.5502010" lon="-5.7754820">
        <ele>713.2</ele>
        <time>2021-10-13T13:25:59Z</time>
      </trkpt>
      <trkpt lat="41.5501440" lon="-5.7755440">
        <ele>713.4</ele>
        <time>2021-10-13T13:26:01Z</time>
      </trkpt>
      <trkpt lat="41.5500850" lon="-5.7756080">
        <ele>713.4</ele>
        <time>2021-10-13T13:26:03Z</time>
      </trkpt>
      <trkpt lat="41.5500020" lon="-5.7756870">
        <ele>713.6</ele>
        <time>2021-10-13T13:26:06Z</time>
      </trkpt>
      <trkpt lat="41.5499790" lon="-5.7757160">
        <ele>713.6</ele>
        <time>2021-10-13T13:26:07Z</time>
      </trkpt>
      <trkpt lat="41.5499150" lon="-5.7757970">
        <ele>714.0</ele>
        <time>2021-10-13T13:26:10Z</time>
      </trkpt>
      <trkpt lat="41.5498190" lon="-5.7758960">
        <ele>714.2</ele>
        <time>2021-10-13T13:26:14Z</time>
      </trkpt>
      <trkpt lat="41.5496120" lon="-5.7761210">
        <ele>714.4</ele>
        <time>2021-10-13T13:26:21Z</time>
      </trkpt>
      <trkpt lat="41.5494350" lon="-5.7763470">
        <ele>714.4</ele>
        <time>2021-10-13T13:26:27Z</time>
      </trkpt>
      <trkpt lat="41.5493760" lon="-5.7764140">
        <ele>714.2</ele>
        <time>2021-10-13T13:26:29Z</time>
      </trkpt>
      <trkpt lat="41.5493450" lon="-5.7764430">
        <ele>714.2</ele>
        <time>2021-10-13T13:26:30Z</time>
      </trkpt>
      <trkpt lat="41.5492470" lon="-5.7765200">
        <ele>714.2</ele>
        <time>2021-10-13T13:26:33Z</time>
      </trkpt>
      <trkpt lat="41.5491790" lon="-5.7765720">
        <ele>714.2</ele>
        <time>2021-10-13T13:26:35Z</time>
      </trkpt>
      <trkpt lat="41.5490440" lon="-5.7766710">
        <ele>714.0</ele>
        <time>2021-10-13T13:26:39Z</time>
      </trkpt>
      <trkpt lat="41.5488520" lon="-5.7767890">
        <ele>714.0</ele>
        <time>2021-10-13T13:26:45Z</time>
      </trkpt>
      <trkpt lat="41.5487210" lon="-5.7768730">
        <ele>714.0</ele>
        <time>2021-10-13T13:26:49Z</time>
      </trkpt>
      <trkpt lat="41.5486190" lon="-5.7769410">
        <ele>714.0</ele>
        <time>2021-10-13T13:26:52Z</time>
      </trkpt>
      <trkpt lat="41.5485210" lon="-5.7770010">
        <ele>714.0</ele>
        <time>2021-10-13T13:26:55Z</time>
      </trkpt>
      <trkpt lat="41.5483100" lon="-5.7771640">
        <ele>714.0</ele>
        <time>2021-10-13T13:27:01Z</time>
      </trkpt>
      <trkpt lat="41.5482770" lon="-5.7771890">
        <ele>714.0</ele>
        <time>2021-10-13T13:27:02Z</time>
      </trkpt>
      <trkpt lat="41.5480960" lon="-5.7773490">
        <ele>713.8</ele>
        <time>2021-10-13T13:27:09Z</time>
      </trkpt>
      <trkpt lat="41.5480700" lon="-5.7773540">
        <ele>713.8</ele>
        <time>2021-10-13T13:27:13Z</time>
      </trkpt>
      <trkpt lat="41.5480200" lon="-5.7773330">
        <ele>713.8</ele>
        <time>2021-10-13T13:27:21Z</time>
      </trkpt>
      <trkpt lat="41.5479750" lon="-5.7772890">
        <ele>713.8</ele>
        <time>2021-10-13T13:27:23Z</time>
      </trkpt>
      <trkpt lat="41.5478350" lon="-5.7770840">
        <ele>713.8</ele>
        <time>2021-10-13T13:27:28Z</time>
      </trkpt>
      <trkpt lat="41.5475880" lon="-5.7767310">
        <ele>713.2</ele>
        <time>2021-10-13T13:27:36Z</time>
      </trkpt>
      <trkpt lat="41.5474190" lon="-5.7764920">
        <ele>712.6</ele>
        <time>2021-10-13T13:27:41Z</time>
      </trkpt>
      <trkpt lat="41.5473860" lon="-5.7764440">
        <ele>712.2</ele>
        <time>2021-10-13T13:27:42Z</time>
      </trkpt>
      <trkpt lat="41.5472540" lon="-5.7762710">
        <ele>711.6</ele>
        <time>2021-10-13T13:27:46Z</time>
      </trkpt>
      <trkpt lat="41.5470830" lon="-5.7760280">
        <ele>711.0</ele>
        <time>2021-10-13T13:27:51Z</time>
      </trkpt>
      <trkpt lat="41.5468350" lon="-5.7756870">
        <ele>710.6</ele>
        <time>2021-10-13T13:27:58Z</time>
      </trkpt>
      <trkpt lat="41.5468010" lon="-5.7756410">
        <ele>710.6</ele>
        <time>2021-10-13T13:27:59Z</time>
      </trkpt>
      <trkpt lat="41.5465560" lon="-5.7752940">
        <ele>709.8</ele>
        <time>2021-10-13T13:28:06Z</time>
      </trkpt>
      <trkpt lat="41.5464130" lon="-5.7751020">
        <ele>709.4</ele>
        <time>2021-10-13T13:28:10Z</time>
      </trkpt>
      <trkpt lat="41.5461750" lon="-5.7747570">
        <ele>708.6</ele>
        <time>2021-10-13T13:28:17Z</time>
      </trkpt>
      <trkpt lat="41.5461020" lon="-5.7746560">
        <ele>708.4</ele>
        <time>2021-10-13T13:28:19Z</time>
      </trkpt>
      <trkpt lat="41.5458750" lon="-5.7743890">
        <ele>707.6</ele>
        <time>2021-10-13T13:28:25Z</time>
      </trkpt>
      <trkpt lat="41.5457820" lon="-5.7742560">
        <ele>707.4</ele>
        <time>2021-10-13T13:28:28Z</time>
      </trkpt>
      <trkpt lat="41.5457440" lon="-5.7741910">
        <ele>707.2</ele>
        <time>2021-10-13T13:28:29Z</time>
      </trkpt>
      <trkpt lat="41.5456780" lon="-5.7740800">
        <ele>707.2</ele>
        <time>2021-10-13T13:28:31Z</time>
      </trkpt>
      <trkpt lat="41.5454130" lon="-5.7736830">
        <ele>706.8</ele>
        <time>2021-10-13T13:28:39Z</time>
      </trkpt>
      <trkpt lat="41.5453480" lon="-5.7735900">
        <ele>706.4</ele>
        <time>2021-10-13T13:28:41Z</time>
      </trkpt>
      <trkpt lat="41.5451800" lon="-5.7733750">
        <ele>706.0</ele>
        <time>2021-10-13T13:28:46Z</time>
      </trkpt>
      <trkpt lat="41.5451450" lon="-5.7733270">
        <ele>706.0</ele>
        <time>2021-10-13T13:28:47Z</time>
      </trkpt>
      <trkpt lat="41.5450450" lon="-5.7731780">
        <ele>705.6</ele>
        <time>2021-10-13T13:28:50Z</time>
      </trkpt>
      <trkpt lat="41.5449730" lon="-5.7730740">
        <ele>705.4</ele>
        <time>2021-10-13T13:28:52Z</time>
      </trkpt>
      <trkpt lat="41.5448990" lon="-5.7729720">
        <ele>705.2</ele>
        <time>2021-10-13T13:28:54Z</time>
      </trkpt>
      <trkpt lat="41.5447240" lon="-5.7727310">
        <ele>704.8</ele>
        <time>2021-10-13T13:28:59Z</time>
      </trkpt>
      <trkpt lat="41.5446590" lon="-5.7726420">
        <ele>704.6</ele>
        <time>2021-10-13T13:29:01Z</time>
      </trkpt>
      <trkpt lat="41.5446240" lon="-5.7726040">
        <ele>704.4</ele>
        <time>2021-10-13T13:29:02Z</time>
      </trkpt>
      <trkpt lat="41.5445550" lon="-5.7725170">
        <ele>704.4</ele>
        <time>2021-10-13T13:29:04Z</time>
      </trkpt>
      <trkpt lat="41.5444930" lon="-5.7724220">
        <ele>704.4</ele>
        <time>2021-10-13T13:29:06Z</time>
      </trkpt>
      <trkpt lat="41.5444300" lon="-5.7723340">
        <ele>704.2</ele>
        <time>2021-10-13T13:29:08Z</time>
      </trkpt>
      <trkpt lat="41.5441650" lon="-5.7719360">
        <ele>703.6</ele>
        <time>2021-10-13T13:29:16Z</time>
      </trkpt>
      <trkpt lat="41.5440920" lon="-5.7718450">
        <ele>703.4</ele>
        <time>2021-10-13T13:29:18Z</time>
      </trkpt>
      <trkpt lat="41.5438690" lon="-5.7715350">
        <ele>702.8</ele>
        <time>2021-10-13T13:29:24Z</time>
      </trkpt>
      <trkpt lat="41.5437990" lon="-5.7714350">
        <ele>702.2</ele>
        <time>2021-10-13T13:29:26Z</time>
      </trkpt>
      <trkpt lat="41.5437570" lon="-5.7713840">
        <ele>702.0</ele>
        <time>2021-10-13T13:29:27Z</time>
      </trkpt>
      <trkpt lat="41.5436160" lon="-5.7712480">
        <ele>701.8</ele>
        <time>2021-10-13T13:29:30Z</time>
      </trkpt>
      <trkpt lat="41.5434630" lon="-5.7711190">
        <ele>701.2</ele>
        <time>2021-10-13T13:29:34Z</time>
      </trkpt>
      <trkpt lat="41.5434260" lon="-5.7710920">
        <ele>701.0</ele>
        <time>2021-10-13T13:29:35Z</time>
      </trkpt>
      <trkpt lat="41.5431970" lon="-5.7709090">
        <ele>701.0</ele>
        <time>2021-10-13T13:29:42Z</time>
      </trkpt>
      <trkpt lat="41.5429630" lon="-5.7707160">
        <ele>702.0</ele>
        <time>2021-10-13T13:29:50Z</time>
      </trkpt>
      <trkpt lat="41.5429050" lon="-5.7706730">
        <ele>702.2</ele>
        <time>2021-10-13T13:29:52Z</time>
      </trkpt>
      <trkpt lat="41.5427720" lon="-5.7705550">
        <ele>703.0</ele>
        <time>2021-10-13T13:29:57Z</time>
      </trkpt>
      <trkpt lat="41.5427450" lon="-5.7705350">
        <ele>703.0</ele>
        <time>2021-10-13T13:29:58Z</time>
      </trkpt>
      <trkpt lat="41.5426960" lon="-5.7704930">
        <ele>703.2</ele>
        <time>2021-10-13T13:30:00Z</time>
      </trkpt>
      <trkpt lat="41.5425020" lon="-5.7703280">
        <ele>704.0</ele>
        <time>2021-10-13T13:30:08Z</time>
      </trkpt>
      <trkpt lat="41.5423780" lon="-5.7702310">
        <ele>704.2</ele>
        <time>2021-10-13T13:30:13Z</time>
      </trkpt>
      <trkpt lat="41.5423530" lon="-5.7702130">
        <ele>704.2</ele>
        <time>2021-10-13T13:30:14Z</time>
      </trkpt>
      <trkpt lat="41.5422560" lon="-5.7701430">
        <ele>704.6</ele>
        <time>2021-10-13T13:30:18Z</time>
      </trkpt>
      <trkpt lat="41.5422110" lon="-5.7701070">
        <ele>704.8</ele>
        <time>2021-10-13T13:30:20Z</time>
      </trkpt>
      <trkpt lat="41.5421210" lon="-5.7700300">
        <ele>705.4</ele>
        <time>2021-10-13T13:30:24Z</time>
      </trkpt>
      <trkpt lat="41.5420380" lon="-5.7699600">
        <ele>705.8</ele>
        <time>2021-10-13T13:30:28Z</time>
      </trkpt>
      <trkpt lat="41.5419340" lon="-5.7698740">
        <ele>706.4</ele>
        <time>2021-10-13T13:30:33Z</time>
      </trkpt>
      <trkpt lat="41.5418090" lon="-5.7697670">
        <ele>707.2</ele>
        <time>2021-10-13T13:30:40Z</time>
      </trkpt>
      <trkpt lat="41.5417550" lon="-5.7697210">
        <ele>707.4</ele>
        <time>2021-10-13T13:30:43Z</time>
      </trkpt>
      <trkpt lat="41.5416370" lon="-5.7696120">
        <ele>708.2</ele>
        <time>2021-10-13T13:30:50Z</time>
      </trkpt>
      <trkpt lat="41.5415700" lon="-5.7695600">
        <ele>708.4</ele>
        <time>2021-10-13T13:30:54Z</time>
      </trkpt>
      <trkpt lat="41.5414970" lon="-5.7695040">
        <ele>709.0</ele>
        <time>2021-10-13T13:30:59Z</time>
      </trkpt>
      <trkpt lat="41.5414820" lon="-5.7694900">
        <ele>709.0</ele>
        <time>2021-10-13T13:31:00Z</time>
      </trkpt>
      <trkpt lat="41.5414350" lon="-5.7694540">
        <ele>709.4</ele>
        <time>2021-10-13T13:31:03Z</time>
      </trkpt>
      <trkpt lat="41.5414180" lon="-5.7694410">
        <ele>709.4</ele>
        <time>2021-10-13T13:31:04Z</time>
      </trkpt>
      <trkpt lat="41.5413600" lon="-5.7693880">
        <ele>709.8</ele>
        <time>2021-10-13T13:31:08Z</time>
      </trkpt>
      <trkpt lat="41.5413190" lon="-5.7693550">
        <ele>710.0</ele>
        <time>2021-10-13T13:31:11Z</time>
      </trkpt>
      <trkpt lat="41.5412440" lon="-5.7692940">
        <ele>710.6</ele>
        <time>2021-10-13T13:31:17Z</time>
      </trkpt>
      <trkpt lat="41.5411860" lon="-5.7692470">
        <ele>711.0</ele>
        <time>2021-10-13T13:31:21Z</time>
      </trkpt>
      <trkpt lat="41.5411440" lon="-5.7692050">
        <ele>711.4</ele>
        <time>2021-10-13T13:31:24Z</time>
      </trkpt>
      <trkpt lat="41.5411180" lon="-5.7691730">
        <ele>711.6</ele>
        <time>2021-10-13T13:31:26Z</time>
      </trkpt>
      <trkpt lat="41.5410720" lon="-5.7691380">
        <ele>712.0</ele>
        <time>2021-10-13T13:31:29Z</time>
      </trkpt>
      <trkpt lat="41.5409740" lon="-5.7690600">
        <ele>712.4</ele>
        <time>2021-10-13T13:31:36Z</time>
      </trkpt>
      <trkpt lat="41.5409440" lon="-5.7690320">
        <ele>712.6</ele>
        <time>2021-10-13T13:31:38Z</time>
      </trkpt>
      <trkpt lat="41.5409320" lon="-5.7690200">
        <ele>712.8</ele>
        <time>2021-10-13T13:31:39Z</time>
      </trkpt>
      <trkpt lat="41.5409070" lon="-5.7689960">
        <ele>712.8</ele>
        <time>2021-10-13T13:31:41Z</time>
      </trkpt>
      <trkpt lat="41.5408670" lon="-5.7689520">
        <ele>713.2</ele>
        <time>2021-10-13T13:31:44Z</time>
      </trkpt>
      <trkpt lat="41.5408390" lon="-5.7689290">
        <ele>713.4</ele>
        <time>2021-10-13T13:31:46Z</time>
      </trkpt>
      <trkpt lat="41.5408230" lon="-5.7689160">
        <ele>713.4</ele>
        <time>2021-10-13T13:31:47Z</time>
      </trkpt>
      <trkpt lat="41.5407720" lon="-5.7688860">
        <ele>713.8</ele>
        <time>2021-10-13T13:31:50Z</time>
      </trkpt>
      <trkpt lat="41.5407130" lon="-5.7688650">
        <ele>713.8</ele>
        <time>2021-10-13T13:31:53Z</time>
      </trkpt>
      <trkpt lat="41.5406770" lon="-5.7688630">
        <ele>714.4</ele>
        <time>2021-10-13T13:31:55Z</time>
      </trkpt>
      <trkpt lat="41.5406340" lon="-5.7688760">
        <ele>714.4</ele>
        <time>2021-10-13T13:31:57Z</time>
      </trkpt>
      <trkpt lat="41.5406170" lon="-5.7688840">
        <ele>714.6</ele>
        <time>2021-10-13T13:31:58Z</time>
      </trkpt>
      <trkpt lat="41.5405620" lon="-5.7689210">
        <ele>715.0</ele>
        <time>2021-10-13T13:32:01Z</time>
      </trkpt>
      <trkpt lat="41.5405470" lon="-5.7689360">
        <ele>715.0</ele>
        <time>2021-10-13T13:32:02Z</time>
      </trkpt>
      <trkpt lat="41.5405190" lon="-5.7689690">
        <ele>715.2</ele>
        <time>2021-10-13T13:32:04Z</time>
      </trkpt>
      <trkpt lat="41.5404420" lon="-5.7691050">
        <ele>715.8</ele>
        <time>2021-10-13T13:32:10Z</time>
      </trkpt>
      <trkpt lat="41.5404330" lon="-5.7691310">
        <ele>715.8</ele>
        <time>2021-10-13T13:32:11Z</time>
      </trkpt>
      <trkpt lat="41.5403840" lon="-5.7692300">
        <ele>716.0</ele>
        <time>2021-10-13T13:32:15Z</time>
      </trkpt>
      <trkpt lat="41.5403720" lon="-5.7692580">
        <ele>716.0</ele>
        <time>2021-10-13T13:32:16Z</time>
      </trkpt>
      <trkpt lat="41.5403450" lon="-5.7693130">
        <ele>716.0</ele>
        <time>2021-10-13T13:32:18Z</time>
      </trkpt>
      <trkpt lat="41.5402900" lon="-5.7694360">
        <ele>716.2</ele>
        <time>2021-10-13T13:32:22Z</time>
      </trkpt>
      <trkpt lat="41.5401570" lon="-5.7697130">
        <ele>716.0</ele>
        <time>2021-10-13T13:32:29Z</time>
      </trkpt>
      <trkpt lat="41.5401350" lon="-5.7697600">
        <ele>716.0</ele>
        <time>2021-10-13T13:32:30Z</time>
      </trkpt>
      <trkpt lat="41.5400950" lon="-5.7698550">
        <ele>716.0</ele>
        <time>2021-10-13T13:32:32Z</time>
      </trkpt>
      <trkpt lat="41.5400180" lon="-5.7700330">
        <ele>715.4</ele>
        <time>2021-10-13T13:32:35Z</time>
      </trkpt>
      <trkpt lat="41.5399940" lon="-5.7700870">
        <ele>715.4</ele>
        <time>2021-10-13T13:32:36Z</time>
      </trkpt>
      <trkpt lat="41.5399380" lon="-5.7701750">
        <ele>715.2</ele>
        <time>2021-10-13T13:32:38Z</time>
      </trkpt>
      <trkpt lat="41.5398760" lon="-5.7702450">
        <ele>715.0</ele>
        <time>2021-10-13T13:32:40Z</time>
      </trkpt>
      <trkpt lat="41.5398470" lon="-5.7702760">
        <ele>715.0</ele>
        <time>2021-10-13T13:32:41Z</time>
      </trkpt>
      <trkpt lat="41.5397380" lon="-5.7704290">
        <ele>714.8</ele>
        <time>2021-10-13T13:32:45Z</time>
      </trkpt>
      <trkpt lat="41.5397180" lon="-5.7704630">
        <ele>714.6</ele>
        <time>2021-10-13T13:32:46Z</time>
      </trkpt>
      <trkpt lat="41.5395720" lon="-5.7707470">
        <ele>714.6</ele>
        <time>2021-10-13T13:32:52Z</time>
      </trkpt>
      <trkpt lat="41.5394990" lon="-5.7708890">
        <ele>714.8</ele>
        <time>2021-10-13T13:32:55Z</time>
      </trkpt>
      <trkpt lat="41.5393460" lon="-5.7711890">
        <ele>714.6</ele>
        <time>2021-10-13T13:33:01Z</time>
      </trkpt>
      <trkpt lat="41.5392980" lon="-5.7712790">
        <ele>714.4</ele>
        <time>2021-10-13T13:33:03Z</time>
      </trkpt>
      <trkpt lat="41.5392050" lon="-5.7713510">
        <ele>714.2</ele>
        <time>2021-10-13T13:33:06Z</time>
      </trkpt>
      <trkpt lat="41.5390800" lon="-5.7712930">
        <ele>714.2</ele>
        <time>2021-10-13T13:33:10Z</time>
      </trkpt>
      <trkpt lat="41.5389440" lon="-5.7711280">
        <ele>715.0</ele>
        <time>2021-10-13T13:33:15Z</time>
      </trkpt>
      <trkpt lat="41.5386900" lon="-5.7708000">
        <ele>715.4</ele>
        <time>2021-10-13T13:33:24Z</time>
      </trkpt>
      <trkpt lat="41.5385970" lon="-5.7706860">
        <ele>715.6</ele>
        <time>2021-10-13T13:33:27Z</time>
      </trkpt>
      <trkpt lat="41.5385130" lon="-5.7705710">
        <ele>715.6</ele>
        <time>2021-10-13T13:33:30Z</time>
      </trkpt>
      <trkpt lat="41.5384860" lon="-5.7705360">
        <ele>715.6</ele>
        <time>2021-10-13T13:33:31Z</time>
      </trkpt>
      <trkpt lat="41.5383120" lon="-5.7703310">
        <ele>715.4</ele>
        <time>2021-10-13T13:33:37Z</time>
      </trkpt>
      <trkpt lat="41.5381130" lon="-5.7700870">
        <ele>715.8</ele>
        <time>2021-10-13T13:33:44Z</time>
      </trkpt>
      <trkpt lat="41.5378830" lon="-5.7698320">
        <ele>715.8</ele>
        <time>2021-10-13T13:33:51Z</time>
      </trkpt>
      <trkpt lat="41.5378520" lon="-5.7697930">
        <ele>715.8</ele>
        <time>2021-10-13T13:33:52Z</time>
      </trkpt>
      <trkpt lat="41.5377930" lon="-5.7697220">
        <ele>715.6</ele>
        <time>2021-10-13T13:33:54Z</time>
      </trkpt>
      <trkpt lat="41.5377340" lon="-5.7696580">
        <ele>715.6</ele>
        <time>2021-10-13T13:33:56Z</time>
      </trkpt>
      <trkpt lat="41.5376470" lon="-5.7695430">
        <ele>715.4</ele>
        <time>2021-10-13T13:33:59Z</time>
      </trkpt>
      <trkpt lat="41.5374270" lon="-5.7692720">
        <ele>715.4</ele>
        <time>2021-10-13T13:34:06Z</time>
      </trkpt>
      <trkpt lat="41.5373630" lon="-5.7691940">
        <ele>715.4</ele>
        <time>2021-10-13T13:34:08Z</time>
      </trkpt>
      <trkpt lat="41.5373330" lon="-5.7691510">
        <ele>715.4</ele>
        <time>2021-10-13T13:34:09Z</time>
      </trkpt>
      <trkpt lat="41.5372990" lon="-5.7691130">
        <ele>715.4</ele>
        <time>2021-10-13T13:34:10Z</time>
      </trkpt>
      <trkpt lat="41.5371590" lon="-5.7689610">
        <ele>715.2</ele>
        <time>2021-10-13T13:34:14Z</time>
      </trkpt>
      <trkpt lat="41.5370900" lon="-5.7688840">
        <ele>715.2</ele>
        <time>2021-10-13T13:34:16Z</time>
      </trkpt>
      <trkpt lat="41.5369630" lon="-5.7687400">
        <ele>715.4</ele>
        <time>2021-10-13T13:34:20Z</time>
      </trkpt>
      <trkpt lat="41.5368640" lon="-5.7686180">
        <ele>715.8</ele>
        <time>2021-10-13T13:34:23Z</time>
      </trkpt>
      <trkpt lat="41.5368330" lon="-5.7685830">
        <ele>716.0</ele>
        <time>2021-10-13T13:34:24Z</time>
      </trkpt>
      <trkpt lat="41.5367760" lon="-5.7685150">
        <ele>716.0</ele>
        <time>2021-10-13T13:34:26Z</time>
      </trkpt>
      <trkpt lat="41.5367220" lon="-5.7684540">
        <ele>716.0</ele>
        <time>2021-10-13T13:34:28Z</time>
      </trkpt>
      <trkpt lat="41.5366940" lon="-5.7684150">
        <ele>716.0</ele>
        <time>2021-10-13T13:34:29Z</time>
      </trkpt>
      <trkpt lat="41.5366020" lon="-5.7682980">
        <ele>715.8</ele>
        <time>2021-10-13T13:34:32Z</time>
      </trkpt>
      <trkpt lat="41.5365100" lon="-5.7681920">
        <ele>715.6</ele>
        <time>2021-10-13T13:34:35Z</time>
      </trkpt>
      <trkpt lat="41.5364040" lon="-5.7680690">
        <ele>715.6</ele>
        <time>2021-10-13T13:34:39Z</time>
      </trkpt>
      <trkpt lat="41.5363110" lon="-5.7679650">
        <ele>715.4</ele>
        <time>2021-10-13T13:34:42Z</time>
      </trkpt>
      <trkpt lat="41.5362100" lon="-5.7678260">
        <ele>715.0</ele>
        <time>2021-10-13T13:34:46Z</time>
      </trkpt>
      <trkpt lat="41.5360520" lon="-5.7676550">
        <ele>714.8</ele>
        <time>2021-10-13T13:34:51Z</time>
      </trkpt>
      <trkpt lat="41.5359950" lon="-5.7675930">
        <ele>714.8</ele>
        <time>2021-10-13T13:34:53Z</time>
      </trkpt>
      <trkpt lat="41.5359670" lon="-5.7675640">
        <ele>714.8</ele>
        <time>2021-10-13T13:34:54Z</time>
      </trkpt>
      <trkpt lat="41.5358860" lon="-5.7674840">
        <ele>714.8</ele>
        <time>2021-10-13T13:34:57Z</time>
      </trkpt>
      <trkpt lat="41.5358030" lon="-5.7673980">
        <ele>714.6</ele>
        <time>2021-10-13T13:35:00Z</time>
      </trkpt>
      <trkpt lat="41.5356580" lon="-5.7672050">
        <ele>714.2</ele>
        <time>2021-10-13T13:35:05Z</time>
      </trkpt>
      <trkpt lat="41.5355340" lon="-5.7670770">
        <ele>714.0</ele>
        <time>2021-10-13T13:35:09Z</time>
      </trkpt>
      <trkpt lat="41.5353150" lon="-5.7669320">
        <ele>713.6</ele>
        <time>2021-10-13T13:35:15Z</time>
      </trkpt>
      <trkpt lat="41.5351180" lon="-5.7668450">
        <ele>713.6</ele>
        <time>2021-10-13T13:35:20Z</time>
      </trkpt>
      <trkpt lat="41.5349760" lon="-5.7668010">
        <ele>713.4</ele>
        <time>2021-10-13T13:35:23Z</time>
      </trkpt>
      <trkpt lat="41.5348940" lon="-5.7667670">
        <ele>713.2</ele>
        <time>2021-10-13T13:35:25Z</time>
      </trkpt>
      <trkpt lat="41.5348150" lon="-5.7667280">
        <ele>713.2</ele>
        <time>2021-10-13T13:35:27Z</time>
      </trkpt>
      <trkpt lat="41.5345230" lon="-5.7665870">
        <ele>712.8</ele>
        <time>2021-10-13T13:35:34Z</time>
      </trkpt>
      <trkpt lat="41.5344040" lon="-5.7665150">
        <ele>712.6</ele>
        <time>2021-10-13T13:35:37Z</time>
      </trkpt>
      <trkpt lat="41.5343320" lon="-5.7664630">
        <ele>712.6</ele>
        <time>2021-10-13T13:35:39Z</time>
      </trkpt>
      <trkpt lat="41.5342590" lon="-5.7664070">
        <ele>712.6</ele>
        <time>2021-10-13T13:35:41Z</time>
      </trkpt>
      <trkpt lat="41.5340600" lon="-5.7662970">
        <ele>712.4</ele>
        <time>2021-10-13T13:35:46Z</time>
      </trkpt>
      <trkpt lat="41.5339430" lon="-5.7662250">
        <ele>712.4</ele>
        <time>2021-10-13T13:35:49Z</time>
      </trkpt>
      <trkpt lat="41.5336130" lon="-5.7660220">
        <ele>712.4</ele>
        <time>2021-10-13T13:35:57Z</time>
      </trkpt>
      <trkpt lat="41.5334930" lon="-5.7659330">
        <ele>712.2</ele>
        <time>2021-10-13T13:36:00Z</time>
      </trkpt>
      <trkpt lat="41.5332990" lon="-5.7658300">
        <ele>712.2</ele>
        <time>2021-10-13T13:36:05Z</time>
      </trkpt>
      <trkpt lat="41.5330780" lon="-5.7656860">
        <ele>712.2</ele>
        <time>2021-10-13T13:36:11Z</time>
      </trkpt>
      <trkpt lat="41.5330400" lon="-5.7656590">
        <ele>712.2</ele>
        <time>2021-10-13T13:36:12Z</time>
      </trkpt>
      <trkpt lat="41.5329240" lon="-5.7655920">
        <ele>712.2</ele>
        <time>2021-10-13T13:36:15Z</time>
      </trkpt>
      <trkpt lat="41.5328090" lon="-5.7655350">
        <ele>712.2</ele>
        <time>2021-10-13T13:36:18Z</time>
      </trkpt>
      <trkpt lat="41.5327720" lon="-5.7655140">
        <ele>712.2</ele>
        <time>2021-10-13T13:36:19Z</time>
      </trkpt>
      <trkpt lat="41.5326520" lon="-5.7654430">
        <ele>712.2</ele>
        <time>2021-10-13T13:36:22Z</time>
      </trkpt>
      <trkpt lat="41.5325770" lon="-5.7653930">
        <ele>712.4</ele>
        <time>2021-10-13T13:36:24Z</time>
      </trkpt>
      <trkpt lat="41.5324960" lon="-5.7653530">
        <ele>712.4</ele>
        <time>2021-10-13T13:36:26Z</time>
      </trkpt>
      <trkpt lat="41.5323740" lon="-5.7652980">
        <ele>712.4</ele>
        <time>2021-10-13T13:36:29Z</time>
      </trkpt>
      <trkpt lat="41.5322010" lon="-5.7652260">
        <ele>712.6</ele>
        <time>2021-10-13T13:36:33Z</time>
      </trkpt>
      <trkpt lat="41.5321610" lon="-5.7652060">
        <ele>712.6</ele>
        <time>2021-10-13T13:36:34Z</time>
      </trkpt>
      <trkpt lat="41.5320840" lon="-5.7651640">
        <ele>712.6</ele>
        <time>2021-10-13T13:36:36Z</time>
      </trkpt>
      <trkpt lat="41.5320450" lon="-5.7651520">
        <ele>712.6</ele>
        <time>2021-10-13T13:36:37Z</time>
      </trkpt>
      <trkpt lat="41.5319670" lon="-5.7651210">
        <ele>712.6</ele>
        <time>2021-10-13T13:36:39Z</time>
      </trkpt>
      <trkpt lat="41.5318410" lon="-5.7650740">
        <ele>712.6</ele>
        <time>2021-10-13T13:36:42Z</time>
      </trkpt>
      <trkpt lat="41.5317960" lon="-5.7650620">
        <ele>712.6</ele>
        <time>2021-10-13T13:36:43Z</time>
      </trkpt>
      <trkpt lat="41.5317030" lon="-5.7650480">
        <ele>712.4</ele>
        <time>2021-10-13T13:36:45Z</time>
      </trkpt>
      <trkpt lat="41.5316170" lon="-5.7650260">
        <ele>712.4</ele>
        <time>2021-10-13T13:36:47Z</time>
      </trkpt>
      <trkpt lat="41.5315760" lon="-5.7650150">
        <ele>712.4</ele>
        <time>2021-10-13T13:36:48Z</time>
      </trkpt>
      <trkpt lat="41.5314930" lon="-5.7649910">
        <ele>712.4</ele>
        <time>2021-10-13T13:36:50Z</time>
      </trkpt>
      <trkpt lat="41.5314060" lon="-5.7649790">
        <ele>712.4</ele>
        <time>2021-10-13T13:36:52Z</time>
      </trkpt>
      <trkpt lat="41.5310880" lon="-5.7649380">
        <ele>712.8</ele>
        <time>2021-10-13T13:37:00Z</time>
      </trkpt>
      <trkpt lat="41.5307520" lon="-5.7649100">
        <ele>712.6</ele>
        <time>2021-10-13T13:37:08Z</time>
      </trkpt>
      <trkpt lat="41.5305460" lon="-5.7649010">
        <ele>712.8</ele>
        <time>2021-10-13T13:37:13Z</time>
      </trkpt>
      <trkpt lat="41.5304600" lon="-5.7648780">
        <ele>712.8</ele>
        <time>2021-10-13T13:37:15Z</time>
      </trkpt>
      <trkpt lat="41.5304150" lon="-5.7648720">
        <ele>712.8</ele>
        <time>2021-10-13T13:37:16Z</time>
      </trkpt>
      <trkpt lat="41.5303260" lon="-5.7648690">
        <ele>713.0</ele>
        <time>2021-10-13T13:37:18Z</time>
      </trkpt>
      <trkpt lat="41.5302380" lon="-5.7648690">
        <ele>713.0</ele>
        <time>2021-10-13T13:37:20Z</time>
      </trkpt>
      <trkpt lat="41.5301960" lon="-5.7648630">
        <ele>713.0</ele>
        <time>2021-10-13T13:37:21Z</time>
      </trkpt>
      <trkpt lat="41.5301080" lon="-5.7648490">
        <ele>713.0</ele>
        <time>2021-10-13T13:37:23Z</time>
      </trkpt>
      <trkpt lat="41.5300260" lon="-5.7648470">
        <ele>713.0</ele>
        <time>2021-10-13T13:37:25Z</time>
      </trkpt>
      <trkpt lat="41.5298460" lon="-5.7648250">
        <ele>713.0</ele>
        <time>2021-10-13T13:37:30Z</time>
      </trkpt>
      <trkpt lat="41.5298040" lon="-5.7648160">
        <ele>713.0</ele>
        <time>2021-10-13T13:37:31Z</time>
      </trkpt>
      <trkpt lat="41.5296920" lon="-5.7647940">
        <ele>713.2</ele>
        <time>2021-10-13T13:37:34Z</time>
      </trkpt>
      <trkpt lat="41.5295320" lon="-5.7647730">
        <ele>713.2</ele>
        <time>2021-10-13T13:37:38Z</time>
      </trkpt>
      <trkpt lat="41.5294610" lon="-5.7647670">
        <ele>713.2</ele>
        <time>2021-10-13T13:37:40Z</time>
      </trkpt>
      <trkpt lat="41.5292890" lon="-5.7647500">
        <ele>713.4</ele>
        <time>2021-10-13T13:37:44Z</time>
      </trkpt>
      <trkpt lat="41.5291110" lon="-5.7647480">
        <ele>713.4</ele>
        <time>2021-10-13T13:37:48Z</time>
      </trkpt>
      <trkpt lat="41.5287830" lon="-5.7647630">
        <ele>714.0</ele>
        <time>2021-10-13T13:37:56Z</time>
      </trkpt>
      <trkpt lat="41.5285020" lon="-5.7647270">
        <ele>714.0</ele>
        <time>2021-10-13T13:38:03Z</time>
      </trkpt>
      <trkpt lat="41.5283330" lon="-5.7646660">
        <ele>714.0</ele>
        <time>2021-10-13T13:38:07Z</time>
      </trkpt>
      <trkpt lat="41.5282930" lon="-5.7646720">
        <ele>714.0</ele>
        <time>2021-10-13T13:38:08Z</time>
      </trkpt>
      <trkpt lat="41.5281340" lon="-5.7647510">
        <ele>713.8</ele>
        <time>2021-10-13T13:38:13Z</time>
      </trkpt>
      <trkpt lat="41.5280660" lon="-5.7648770">
        <ele>713.6</ele>
        <time>2021-10-13T13:38:16Z</time>
      </trkpt>
      <trkpt lat="41.5280530" lon="-5.7649320">
        <ele>713.6</ele>
        <time>2021-10-13T13:38:17Z</time>
      </trkpt>
      <trkpt lat="41.5279770" lon="-5.7652680">
        <ele>713.6</ele>
        <time>2021-10-13T13:38:23Z</time>
      </trkpt>
      <trkpt lat="41.5279420" lon="-5.7653800">
        <ele>713.6</ele>
        <time>2021-10-13T13:38:25Z</time>
      </trkpt>
      <trkpt lat="41.5278920" lon="-5.7654820">
        <ele>713.4</ele>
        <time>2021-10-13T13:38:27Z</time>
      </trkpt>
      <trkpt lat="41.5278370" lon="-5.7655700">
        <ele>713.4</ele>
        <time>2021-10-13T13:38:29Z</time>
      </trkpt>
      <trkpt lat="41.5277200" lon="-5.7657120">
        <ele>713.0</ele>
        <time>2021-10-13T13:38:34Z</time>
      </trkpt>
      <trkpt lat="41.5276790" lon="-5.7657490">
        <ele>712.8</ele>
        <time>2021-10-13T13:38:37Z</time>
      </trkpt>
      <trkpt lat="41.5276470" lon="-5.7657760">
        <ele>712.8</ele>
        <time>2021-10-13T13:38:39Z</time>
      </trkpt>
      <trkpt lat="41.5276250" lon="-5.7657780">
        <ele>712.8</ele>
        <time>2021-10-13T13:38:40Z</time>
      </trkpt>
      <trkpt lat="41.5275540" lon="-5.7657320">
        <ele>712.8</ele>
        <time>2021-10-13T13:38:43Z</time>
      </trkpt>
      <trkpt lat="41.5274800" lon="-5.7656600">
        <ele>713.0</ele>
        <time>2021-10-13T13:38:46Z</time>
      </trkpt>
      <trkpt lat="41.5274190" lon="-5.7656070">
        <ele>713.0</ele>
        <time>2021-10-13T13:38:48Z</time>
      </trkpt>
      <trkpt lat="41.5272720" lon="-5.7654720">
        <ele>712.8</ele>
        <time>2021-10-13T13:38:53Z</time>
      </trkpt>
      <trkpt lat="41.5272120" lon="-5.7654180">
        <ele>712.8</ele>
        <time>2021-10-13T13:38:55Z</time>
      </trkpt>
      <trkpt lat="41.5270260" lon="-5.7652330">
        <ele>712.6</ele>
        <time>2021-10-13T13:39:01Z</time>
      </trkpt>
      <trkpt lat="41.5267060" lon="-5.7649160">
        <ele>712.6</ele>
        <time>2021-10-13T13:39:10Z</time>
      </trkpt>
      <trkpt lat="41.5264470" lon="-5.7646600">
        <ele>712.4</ele>
        <time>2021-10-13T13:39:17Z</time>
      </trkpt>
      <trkpt lat="41.5263360" lon="-5.7645530">
        <ele>712.2</ele>
        <time>2021-10-13T13:39:20Z</time>
      </trkpt>
      <trkpt lat="41.5261820" lon="-5.7644040">
        <ele>712.0</ele>
        <time>2021-10-13T13:39:24Z</time>
      </trkpt>
      <trkpt lat="41.5259870" lon="-5.7642020">
        <ele>712.0</ele>
        <time>2021-10-13T13:39:29Z</time>
      </trkpt>
      <trkpt lat="41.5259060" lon="-5.7641220">
        <ele>712.0</ele>
        <time>2021-10-13T13:39:31Z</time>
      </trkpt>
      <trkpt lat="41.5256200" lon="-5.7638400">
        <ele>712.0</ele>
        <time>2021-10-13T13:39:39Z</time>
      </trkpt>
      <trkpt lat="41.5255830" lon="-5.7638090">
        <ele>712.0</ele>
        <time>2021-10-13T13:39:40Z</time>
      </trkpt>
      <trkpt lat="41.5251830" lon="-5.7634450">
        <ele>711.8</ele>
        <time>2021-10-13T13:39:50Z</time>
      </trkpt>
      <trkpt lat="41.5249800" lon="-5.7632810">
        <ele>711.6</ele>
        <time>2021-10-13T13:39:55Z</time>
      </trkpt>
      <trkpt lat="41.5248060" lon="-5.7631580">
        <ele>711.4</ele>
        <time>2021-10-13T13:39:59Z</time>
      </trkpt>
      <trkpt lat="41.5247600" lon="-5.7631250">
        <ele>711.4</ele>
        <time>2021-10-13T13:40:00Z</time>
      </trkpt>
      <trkpt lat="41.5243900" lon="-5.7628610">
        <ele>710.2</ele>
        <time>2021-10-13T13:40:08Z</time>
      </trkpt>
      <trkpt lat="41.5241080" lon="-5.7626600">
        <ele>709.8</ele>
        <time>2021-10-13T13:40:14Z</time>
      </trkpt>
      <trkpt lat="41.5239680" lon="-5.7625640">
        <ele>709.4</ele>
        <time>2021-10-13T13:40:17Z</time>
      </trkpt>
      <trkpt lat="41.5238200" lon="-5.7624560">
        <ele>709.2</ele>
        <time>2021-10-13T13:40:20Z</time>
      </trkpt>
      <trkpt lat="41.5233540" lon="-5.7621280">
        <ele>708.4</ele>
        <time>2021-10-13T13:40:29Z</time>
      </trkpt>
      <trkpt lat="41.5233000" lon="-5.7620880">
        <ele>708.2</ele>
        <time>2021-10-13T13:40:30Z</time>
      </trkpt>
      <trkpt lat="41.5231410" lon="-5.7619760">
        <ele>707.8</ele>
        <time>2021-10-13T13:40:33Z</time>
      </trkpt>
      <trkpt lat="41.5229770" lon="-5.7618570">
        <ele>707.6</ele>
        <time>2021-10-13T13:40:36Z</time>
      </trkpt>
      <trkpt lat="41.5228340" lon="-5.7617560">
        <ele>707.2</ele>
        <time>2021-10-13T13:40:39Z</time>
      </trkpt>
      <trkpt lat="41.5227220" lon="-5.7616770">
        <ele>706.8</ele>
        <time>2021-10-13T13:40:41Z</time>
      </trkpt>
      <trkpt lat="41.5222350" lon="-5.7613290">
        <ele>706.2</ele>
        <time>2021-10-13T13:40:51Z</time>
      </trkpt>
      <trkpt lat="41.5221520" lon="-5.7612690">
        <ele>706.2</ele>
        <time>2021-10-13T13:40:53Z</time>
      </trkpt>
      <trkpt lat="41.5219620" lon="-5.7611310">
        <ele>706.2</ele>
        <time>2021-10-13T13:40:57Z</time>
      </trkpt>
      <trkpt lat="41.5217190" lon="-5.7609600">
        <ele>706.0</ele>
        <time>2021-10-13T13:41:02Z</time>
      </trkpt>
      <trkpt lat="41.5216720" lon="-5.7609270">
        <ele>706.0</ele>
        <time>2021-10-13T13:41:03Z</time>
      </trkpt>
      <trkpt lat="41.5211890" lon="-5.7605850">
        <ele>706.0</ele>
        <time>2021-10-13T13:41:14Z</time>
      </trkpt>
      <trkpt lat="41.5209510" lon="-5.7604180">
        <ele>706.0</ele>
        <time>2021-10-13T13:41:21Z</time>
      </trkpt>
      <trkpt lat="41.5208290" lon="-5.7603400">
        <ele>705.6</ele>
        <time>2021-10-13T13:41:27Z</time>
      </trkpt>
      <trkpt lat="41.5208290" lon="-5.7603400">
        <ele>705.6</ele>
        <time>2021-10-13T13:41:29Z</time>
      </trkpt>
      <trkpt lat="41.5207850" lon="-5.7603020">
        <ele>705.4</ele>
        <time>2021-10-13T13:41:55Z</time>
      </trkpt>
      <trkpt lat="41.5207590" lon="-5.7602820">
        <ele>705.4</ele>
        <time>2021-10-13T13:41:56Z</time>
      </trkpt>
      <trkpt lat="41.5205850" lon="-5.7601620">
        <ele>705.2</ele>
        <time>2021-10-13T13:42:01Z</time>
      </trkpt>
      <trkpt lat="41.5204800" lon="-5.7600870">
        <ele>705.2</ele>
        <time>2021-10-13T13:42:04Z</time>
      </trkpt>
      <trkpt lat="41.5203330" lon="-5.7599780">
        <ele>705.2</ele>
        <time>2021-10-13T13:42:09Z</time>
      </trkpt>
      <trkpt lat="41.5202500" lon="-5.7599170">
        <ele>705.2</ele>
        <time>2021-10-13T13:42:12Z</time>
      </trkpt>
      <trkpt lat="41.5200870" lon="-5.7597940">
        <ele>705.2</ele>
        <time>2021-10-13T13:42:18Z</time>
      </trkpt>
      <trkpt lat="41.5198450" lon="-5.7596350">
        <ele>705.2</ele>
        <time>2021-10-13T13:42:26Z</time>
      </trkpt>
      <trkpt lat="41.5197450" lon="-5.7595670">
        <ele>705.0</ele>
        <time>2021-10-13T13:42:29Z</time>
      </trkpt>
      <trkpt lat="41.5195820" lon="-5.7594550">
        <ele>704.8</ele>
        <time>2021-10-13T13:42:33Z</time>
      </trkpt>
      <trkpt lat="41.5193940" lon="-5.7593750">
        <ele>704.4</ele>
        <time>2021-10-13T13:42:37Z</time>
      </trkpt>
      <trkpt lat="41.5193000" lon="-5.7593430">
        <ele>703.8</ele>
        <time>2021-10-13T13:42:39Z</time>
      </trkpt>
      <trkpt lat="41.5191730" lon="-5.7592780">
        <ele>702.4</ele>
        <time>2021-10-13T13:42:43Z</time>
      </trkpt>
      <trkpt lat="41.5191560" lon="-5.7592720">
        <ele>702.4</ele>
        <time>2021-10-13T13:42:44Z</time>
      </trkpt>
      <trkpt lat="41.5190200" lon="-5.7592530">
        <ele>701.6</ele>
        <time>2021-10-13T13:42:49Z</time>
      </trkpt>
      <trkpt lat="41.5188420" lon="-5.7592140">
        <ele>701.2</ele>
        <time>2021-10-13T13:42:54Z</time>
      </trkpt>
      <trkpt lat="41.5188300" lon="-5.7591990">
        <ele>701.0</ele>
        <time>2021-10-13T13:42:55Z</time>
      </trkpt>
      <trkpt lat="41.5188190" lon="-5.7591800">
        <ele>700.8</ele>
        <time>2021-10-13T13:42:58Z</time>
      </trkpt>
      <trkpt lat="41.5187970" lon="-5.7590620">
        <ele>701.0</ele>
        <time>2021-10-13T13:45:20Z</time>
      </trkpt>
      <trkpt lat="41.5187950" lon="-5.7590280">
        <ele>701.0</ele>
        <time>2021-10-13T13:45:21Z</time>
      </trkpt>
      <trkpt lat="41.5187890" lon="-5.7588890">
        <ele>700.6</ele>
        <time>2021-10-13T13:45:24Z</time>
      </trkpt>
      <trkpt lat="41.5188100" lon="-5.7587980">
        <ele>700.4</ele>
        <time>2021-10-13T13:45:26Z</time>
      </trkpt>
      <trkpt lat="41.5188650" lon="-5.7586430">
        <ele>699.6</ele>
        <time>2021-10-13T13:45:29Z</time>
      </trkpt>
      <trkpt lat="41.5188820" lon="-5.7585890">
        <ele>699.4</ele>
        <time>2021-10-13T13:45:30Z</time>
      </trkpt>
      <trkpt lat="41.5188950" lon="-5.7585430">
        <ele>699.2</ele>
        <time>2021-10-13T13:45:31Z</time>
      </trkpt>
      <trkpt lat="41.5189060" lon="-5.7584840">
        <ele>699.0</ele>
        <time>2021-10-13T13:45:32Z</time>
      </trkpt>
      <trkpt lat="41.5189260" lon="-5.7583510">
        <ele>698.8</ele>
        <time>2021-10-13T13:45:34Z</time>
      </trkpt>
      <trkpt lat="41.5189540" lon="-5.7581700">
        <ele>698.4</ele>
        <time>2021-10-13T13:45:37Z</time>
      </trkpt>
      <trkpt lat="41.5189660" lon="-5.7580470">
        <ele>698.0</ele>
        <time>2021-10-13T13:45:39Z</time>
      </trkpt>
      <trkpt lat="41.5190070" lon="-5.7577270">
        <ele>697.6</ele>
        <time>2021-10-13T13:45:44Z</time>
      </trkpt>
      <trkpt lat="41.5190250" lon="-5.7575270">
        <ele>696.8</ele>
        <time>2021-10-13T13:45:47Z</time>
      </trkpt>
      <trkpt lat="41.5190640" lon="-5.7572190">
        <ele>696.0</ele>
        <time>2021-10-13T13:45:52Z</time>
      </trkpt>
      <trkpt lat="41.5190770" lon="-5.7570560">
        <ele>695.8</ele>
        <time>2021-10-13T13:45:55Z</time>
      </trkpt>
      <trkpt lat="41.5190860" lon="-5.7569170">
        <ele>695.2</ele>
        <time>2021-10-13T13:45:58Z</time>
      </trkpt>
      <trkpt lat="41.5190950" lon="-5.7568260">
        <ele>694.8</ele>
        <time>2021-10-13T13:46:01Z</time>
      </trkpt>
      <trkpt lat="41.5190950" lon="-5.7568150">
        <ele>694.6</ele>
        <time>2021-10-13T13:46:03Z</time>
      </trkpt>
      <trkpt lat="41.5190990" lon="-5.7567880">
        <ele>694.2</ele>
        <time>2021-10-13T13:46:28Z</time>
      </trkpt>
      <trkpt lat="41.5191130" lon="-5.7567150">
        <ele>694.2</ele>
        <time>2021-10-13T13:46:30Z</time>
      </trkpt>
      <trkpt lat="41.5191370" lon="-5.7565490">
        <ele>693.8</ele>
        <time>2021-10-13T13:46:34Z</time>
      </trkpt>
      <trkpt lat="41.5191490" lon="-5.7563910">
        <ele>693.6</ele>
        <time>2021-10-13T13:46:37Z</time>
      </trkpt>
      <trkpt lat="41.5191710" lon="-5.7561600">
        <ele>693.2</ele>
        <time>2021-10-13T13:46:41Z</time>
      </trkpt>
      <trkpt lat="41.5191900" lon="-5.7559810">
        <ele>692.8</ele>
        <time>2021-10-13T13:46:44Z</time>
      </trkpt>
      <trkpt lat="41.5191980" lon="-5.7559220">
        <ele>692.8</ele>
        <time>2021-10-13T13:46:45Z</time>
      </trkpt>
      <trkpt lat="41.5192190" lon="-5.7556800">
        <ele>692.2</ele>
        <time>2021-10-13T13:46:49Z</time>
      </trkpt>
      <trkpt lat="41.5192210" lon="-5.7554880">
        <ele>692.0</ele>
        <time>2021-10-13T13:46:52Z</time>
      </trkpt>
      <trkpt lat="41.5191830" lon="-5.7553470">
        <ele>691.8</ele>
        <time>2021-10-13T13:46:55Z</time>
      </trkpt>
      <trkpt lat="41.5191610" lon="-5.7553000">
        <ele>691.8</ele>
        <time>2021-10-13T13:46:56Z</time>
      </trkpt>
      <trkpt lat="41.5191220" lon="-5.7551970">
        <ele>691.6</ele>
        <time>2021-10-13T13:46:58Z</time>
      </trkpt>
      <trkpt lat="41.5191030" lon="-5.7550760">
        <ele>691.6</ele>
        <time>2021-10-13T13:47:00Z</time>
      </trkpt>
      <trkpt lat="41.5191050" lon="-5.7550110">
        <ele>691.6</ele>
        <time>2021-10-13T13:47:01Z</time>
      </trkpt>
      <trkpt lat="41.5191160" lon="-5.7549500">
        <ele>691.4</ele>
        <time>2021-10-13T13:47:02Z</time>
      </trkpt>
      <trkpt lat="41.5191590" lon="-5.7548380">
        <ele>691.4</ele>
        <time>2021-10-13T13:47:04Z</time>
      </trkpt>
      <trkpt lat="41.5191900" lon="-5.7547890">
        <ele>691.4</ele>
        <time>2021-10-13T13:47:05Z</time>
      </trkpt>
      <trkpt lat="41.5192260" lon="-5.7547470">
        <ele>691.2</ele>
        <time>2021-10-13T13:47:06Z</time>
      </trkpt>
      <trkpt lat="41.5193090" lon="-5.7546820">
        <ele>691.2</ele>
        <time>2021-10-13T13:47:08Z</time>
      </trkpt>
      <trkpt lat="41.5193530" lon="-5.7546650">
        <ele>691.2</ele>
        <time>2021-10-13T13:47:09Z</time>
      </trkpt>
      <trkpt lat="41.5193980" lon="-5.7546600">
        <ele>691.2</ele>
        <time>2021-10-13T13:47:10Z</time>
      </trkpt>
      <trkpt lat="41.5194850" lon="-5.7546780">
        <ele>691.2</ele>
        <time>2021-10-13T13:47:12Z</time>
      </trkpt>
      <trkpt lat="41.5195270" lon="-5.7547010">
        <ele>691.2</ele>
        <time>2021-10-13T13:47:13Z</time>
      </trkpt>
      <trkpt lat="41.5195690" lon="-5.7547300">
        <ele>691.2</ele>
        <time>2021-10-13T13:47:14Z</time>
      </trkpt>
      <trkpt lat="41.5196460" lon="-5.7548120">
        <ele>691.2</ele>
        <time>2021-10-13T13:47:16Z</time>
      </trkpt>
      <trkpt lat="41.5196760" lon="-5.7548650">
        <ele>691.2</ele>
        <time>2021-10-13T13:47:17Z</time>
      </trkpt>
      <trkpt lat="41.5197990" lon="-5.7550680">
        <ele>691.6</ele>
        <time>2021-10-13T13:47:21Z</time>
      </trkpt>
      <trkpt lat="41.5198760" lon="-5.7551370">
        <ele>691.6</ele>
        <time>2021-10-13T13:47:23Z</time>
      </trkpt>
      <trkpt lat="41.5199510" lon="-5.7551710">
        <ele>691.6</ele>
        <time>2021-10-13T13:47:25Z</time>
      </trkpt>
      <trkpt lat="41.5200860" lon="-5.7552010">
        <ele>692.0</ele>
        <time>2021-10-13T13:47:28Z</time>
      </trkpt>
      <trkpt lat="41.5201910" lon="-5.7552080">
        <ele>692.4</ele>
        <time>2021-10-13T13:47:32Z</time>
      </trkpt>
      <trkpt lat="41.5201910" lon="-5.7552080">
        <ele>692.6</ele>
        <time>2021-10-13T13:47:33Z</time>
      </trkpt>
      <trkpt lat="41.5202350" lon="-5.7552170">
        <ele>692.4</ele>
        <time>2021-10-13T13:47:55Z</time>
      </trkpt>
      <trkpt lat="41.5202570" lon="-5.7552240">
        <ele>692.4</ele>
        <time>2021-10-13T13:47:56Z</time>
      </trkpt>
      <trkpt lat="41.5202850" lon="-5.7552300">
        <ele>692.4</ele>
        <time>2021-10-13T13:47:57Z</time>
      </trkpt>
      <trkpt lat="41.5204130" lon="-5.7552760">
        <ele>692.4</ele>
        <time>2021-10-13T13:48:01Z</time>
      </trkpt>
      <trkpt lat="41.5205700" lon="-5.7553400">
        <ele>692.6</ele>
        <time>2021-10-13T13:48:07Z</time>
      </trkpt>
      <trkpt lat="41.5206340" lon="-5.7553490">
        <ele>692.8</ele>
        <time>2021-10-13T13:48:10Z</time>
      </trkpt>
      <trkpt lat="41.5206530" lon="-5.7553590">
        <ele>692.8</ele>
        <time>2021-10-13T13:48:11Z</time>
      </trkpt>
      <trkpt lat="41.5207150" lon="-5.7553890">
        <ele>693.0</ele>
        <time>2021-10-13T13:48:14Z</time>
      </trkpt>
      <trkpt lat="41.5207670" lon="-5.7554030">
        <ele>693.0</ele>
        <time>2021-10-13T13:48:17Z</time>
      </trkpt>
      <trkpt lat="41.5208140" lon="-5.7553910">
        <ele>693.0</ele>
        <time>2021-10-13T13:48:22Z</time>
      </trkpt>
      <trkpt lat="41.5208140" lon="-5.7553910">
        <ele>693.2</ele>
        <time>2021-10-13T13:48:23Z</time>
      </trkpt>
      <trkpt lat="41.5207420" lon="-5.7554030">
        <ele>693.4</ele>
        <time>2021-10-13T13:50:02Z</time>
      </trkpt>
      <trkpt lat="41.5207140" lon="-5.7553950">
        <ele>693.4</ele>
        <time>2021-10-13T13:50:03Z</time>
      </trkpt>
      <trkpt lat="41.5206800" lon="-5.7553850">
        <ele>693.4</ele>
        <time>2021-10-13T13:50:04Z</time>
      </trkpt>
      <trkpt lat="41.5205270" lon="-5.7553070">
        <ele>693.2</ele>
        <time>2021-10-13T13:50:09Z</time>
      </trkpt>
      <trkpt lat="41.5204020" lon="-5.7552320">
        <ele>693.0</ele>
        <time>2021-10-13T13:50:14Z</time>
      </trkpt>
      <trkpt lat="41.5203300" lon="-5.7552120">
        <ele>692.8</ele>
        <time>2021-10-13T13:50:16Z</time>
      </trkpt>
      <trkpt lat="41.5202730" lon="-5.7552170">
        <ele>692.8</ele>
        <time>2021-10-13T13:50:18Z</time>
      </trkpt>
      <trkpt lat="41.5201060" lon="-5.7551740">
        <ele>692.8</ele>
        <time>2021-10-13T13:50:23Z</time>
      </trkpt>
      <trkpt lat="41.5200730" lon="-5.7551620">
        <ele>692.8</ele>
        <time>2021-10-13T13:50:24Z</time>
      </trkpt>
      <trkpt lat="41.5199770" lon="-5.7551420">
        <ele>692.6</ele>
        <time>2021-10-13T13:50:27Z</time>
      </trkpt>
      <trkpt lat="41.5198300" lon="-5.7550700">
        <ele>692.2</ele>
        <time>2021-10-13T13:50:33Z</time>
      </trkpt>
      <trkpt lat="41.5198050" lon="-5.7550260">
        <ele>692.0</ele>
        <time>2021-10-13T13:50:36Z</time>
      </trkpt>
      <trkpt lat="41.5197860" lon="-5.7549920">
        <ele>691.8</ele>
        <time>2021-10-13T13:50:39Z</time>
      </trkpt>
      <trkpt lat="41.5197860" lon="-5.7549920">
        <ele>691.6</ele>
        <time>2021-10-13T13:50:42Z</time>
      </trkpt>
      <trkpt lat="41.5197680" lon="-5.7550190">
        <ele>691.6</ele>
        <time>2021-10-13T13:51:13Z</time>
      </trkpt>
      <trkpt lat="41.5197680" lon="-5.7550190">
        <ele>691.6</ele>
        <time>2021-10-13T13:51:14Z</time>
      </trkpt>
      <trkpt lat="41.5197090" lon="-5.7552240">
        <ele>692.0</ele>
        <time>2021-10-13T13:51:18Z</time>
      </trkpt>
      <trkpt lat="41.5195790" lon="-5.7554690">
        <ele>692.2</ele>
        <time>2021-10-13T13:51:24Z</time>
      </trkpt>
      <trkpt lat="41.5195260" lon="-5.7555770">
        <ele>692.2</ele>
        <time>2021-10-13T13:51:25Z</time>
      </trkpt>
      <trkpt lat="41.5194550" lon="-5.7557920">
        <ele>692.0</ele>
        <time>2021-10-13T13:51:29Z</time>
      </trkpt>
      <trkpt lat="41.5194040" lon="-5.7561660">
        <ele>692.2</ele>
        <time>2021-10-13T13:51:36Z</time>
      </trkpt>
      <trkpt lat="41.5193870" lon="-5.7563180">
        <ele>692.4</ele>
        <time>2021-10-13T13:51:39Z</time>
      </trkpt>
      <trkpt lat="41.5193590" lon="-5.7565550">
        <ele>692.8</ele>
        <time>2021-10-13T13:51:44Z</time>
      </trkpt>
      <trkpt lat="41.5193600" lon="-5.7566020">
        <ele>693.0</ele>
        <time>2021-10-13T13:51:45Z</time>
      </trkpt>
      <trkpt lat="41.5193720" lon="-5.7566460">
        <ele>693.2</ele>
        <time>2021-10-13T13:51:46Z</time>
      </trkpt>
      <trkpt lat="41.5193930" lon="-5.7566790">
        <ele>693.4</ele>
        <time>2021-10-13T13:51:47Z</time>
      </trkpt>
      <trkpt lat="41.5194250" lon="-5.7566990">
        <ele>693.6</ele>
        <time>2021-10-13T13:51:48Z</time>
      </trkpt>
      <trkpt lat="41.5196410" lon="-5.7567830">
        <ele>694.4</ele>
        <time>2021-10-13T13:51:55Z</time>
      </trkpt>
      <trkpt lat="41.5197970" lon="-5.7568420">
        <ele>695.0</ele>
        <time>2021-10-13T13:52:01Z</time>
      </trkpt>
      <trkpt lat="41.5198570" lon="-5.7568670">
        <ele>695.0</ele>
        <time>2021-10-13T13:52:02Z</time>
      </trkpt>
      <trkpt lat="41.5199160" lon="-5.7568850">
        <ele>695.2</ele>
        <time>2021-10-13T13:52:04Z</time>
      </trkpt>
      <trkpt lat="41.5199990" lon="-5.7569250">
        <ele>695.4</ele>
        <time>2021-10-13T13:52:07Z</time>
      </trkpt>
      <trkpt lat="41.5200700" lon="-5.7569600">
        <ele>695.8</ele>
        <time>2021-10-13T13:52:10Z</time>
      </trkpt>
      <trkpt lat="41.5201400" lon="-5.7569960">
        <ele>696.2</ele>
        <time>2021-10-13T13:52:13Z</time>
      </trkpt>
      <trkpt lat="41.5201650" lon="-5.7570090">
        <ele>696.2</ele>
        <time>2021-10-13T13:52:15Z</time>
      </trkpt>
      <trkpt lat="41.5202430" lon="-5.7570250">
        <ele>696.4</ele>
        <time>2021-10-13T13:52:17Z</time>
      </trkpt>
      <trkpt lat="41.5202680" lon="-5.7570340">
        <ele>696.4</ele>
        <time>2021-10-13T13:52:18Z</time>
      </trkpt>
      <trkpt lat="41.5203510" lon="-5.7570640">
        <ele>696.8</ele>
        <time>2021-10-13T13:52:21Z</time>
      </trkpt>
      <trkpt lat="41.5205330" lon="-5.7571390">
        <ele>697.2</ele>
        <time>2021-10-13T13:52:27Z</time>
      </trkpt>
      <trkpt lat="41.5206240" lon="-5.7571860">
        <ele>697.4</ele>
        <time>2021-10-13T13:52:30Z</time>
      </trkpt>
      <trkpt lat="41.5206870" lon="-5.7572090">
        <ele>697.6</ele>
        <time>2021-10-13T13:52:32Z</time>
      </trkpt>
      <trkpt lat="41.5207860" lon="-5.7572470">
        <ele>697.6</ele>
        <time>2021-10-13T13:52:35Z</time>
      </trkpt>
      <trkpt lat="41.5208540" lon="-5.7572780">
        <ele>697.8</ele>
        <time>2021-10-13T13:52:37Z</time>
      </trkpt>
      <trkpt lat="41.5209240" lon="-5.7573110">
        <ele>697.8</ele>
        <time>2021-10-13T13:52:39Z</time>
      </trkpt>
      <trkpt lat="41.5210320" lon="-5.7573510">
        <ele>698.0</ele>
        <time>2021-10-13T13:52:42Z</time>
      </trkpt>
      <trkpt lat="41.5211010" lon="-5.7573790">
        <ele>698.0</ele>
        <time>2021-10-13T13:52:44Z</time>
      </trkpt>
      <trkpt lat="41.5211970" lon="-5.7574000">
        <ele>698.2</ele>
        <time>2021-10-13T13:52:47Z</time>
      </trkpt>
      <trkpt lat="41.5212180" lon="-5.7573840">
        <ele>698.2</ele>
        <time>2021-10-13T13:52:48Z</time>
      </trkpt>
      <trkpt lat="41.5212340" lon="-5.7573590">
        <ele>698.2</ele>
        <time>2021-10-13T13:52:49Z</time>
      </trkpt>
      <trkpt lat="41.5212520" lon="-5.7572680">
        <ele>698.2</ele>
        <time>2021-10-13T13:52:52Z</time>
      </trkpt>
      <trkpt lat="41.5212690" lon="-5.7571490">
        <ele>698.2</ele>
        <time>2021-10-13T13:52:54Z</time>
      </trkpt>
      <trkpt lat="41.5212890" lon="-5.7570830">
        <ele>698.2</ele>
        <time>2021-10-13T13:52:55Z</time>
      </trkpt>
      <trkpt lat="41.5213220" lon="-5.7570200">
        <ele>698.0</ele>
        <time>2021-10-13T13:52:56Z</time>
      </trkpt>
      <trkpt lat="41.5213620" lon="-5.7569730">
        <ele>698.0</ele>
        <time>2021-10-13T13:52:57Z</time>
      </trkpt>
      <trkpt lat="41.5214430" lon="-5.7568930">
        <ele>697.8</ele>
        <time>2021-10-13T13:52:59Z</time>
      </trkpt>
      <trkpt lat="41.5215130" lon="-5.7568360">
        <ele>697.4</ele>
        <time>2021-10-13T13:53:01Z</time>
      </trkpt>
      <trkpt lat="41.5215870" lon="-5.7567690">
        <ele>697.0</ele>
        <time>2021-10-13T13:53:03Z</time>
      </trkpt>
      <trkpt lat="41.5216450" lon="-5.7567100">
        <ele>697.0</ele>
        <time>2021-10-13T13:53:05Z</time>
      </trkpt>
      <trkpt lat="41.5216730" lon="-5.7566830">
        <ele>697.0</ele>
        <time>2021-10-13T13:53:06Z</time>
      </trkpt>
      <trkpt lat="41.5217850" lon="-5.7566550">
        <ele>697.0</ele>
        <time>2021-10-13T13:53:10Z</time>
      </trkpt>
      <trkpt lat="41.5218010" lon="-5.7566560">
        <ele>697.0</ele>
        <time>2021-10-13T13:53:11Z</time>
      </trkpt>
      <trkpt lat="41.5218020" lon="-5.7566610">
        <ele>697.2</ele>
        <time>2021-10-13T13:53:14Z</time>
      </trkpt>
      <trkpt lat="41.5218020" lon="-5.7566610">
        <ele>697.2</ele>
        <time>2021-10-13T13:53:15Z</time>
      </trkpt>
      <trkpt lat="41.5217920" lon="-5.7566330">
        <ele>702.4</ele>
        <time>2021-10-13T16:00:39Z</time>
      </trkpt>
      <trkpt lat="41.5217920" lon="-5.7566330">
        <ele>702.4</ele>
        <time>2021-10-13T16:00:40Z</time>
      </trkpt>
      <trkpt lat="41.5217870" lon="-5.7566820">
        <ele>702.2</ele>
        <time>2021-10-13T16:01:10Z</time>
      </trkpt>
      <trkpt lat="41.5217800" lon="-5.7567330">
        <ele>702.2</ele>
        <time>2021-10-13T16:01:12Z</time>
      </trkpt>
      <trkpt lat="41.5217620" lon="-5.7568250">
        <ele>702.2</ele>
        <time>2021-10-13T16:01:15Z</time>
      </trkpt>
      <trkpt lat="41.5217480" lon="-5.7568880">
        <ele>702.2</ele>
        <time>2021-10-13T16:01:17Z</time>
      </trkpt>
      <trkpt lat="41.5217230" lon="-5.7570120">
        <ele>702.2</ele>
        <time>2021-10-13T16:01:21Z</time>
      </trkpt>
      <trkpt lat="41.5216820" lon="-5.7571470">
        <ele>702.2</ele>
        <time>2021-10-13T16:01:25Z</time>
      </trkpt>
      <trkpt lat="41.5216110" lon="-5.7573580">
        <ele>702.2</ele>
        <time>2021-10-13T16:01:31Z</time>
      </trkpt>
      <trkpt lat="41.5215950" lon="-5.7573700">
        <ele>702.2</ele>
        <time>2021-10-13T16:01:32Z</time>
      </trkpt>
      <trkpt lat="41.5214870" lon="-5.7573130">
        <ele>702.2</ele>
        <time>2021-10-13T16:01:36Z</time>
      </trkpt>
      <trkpt lat="41.5213640" lon="-5.7571660">
        <ele>702.0</ele>
        <time>2021-10-13T16:01:42Z</time>
      </trkpt>
      <trkpt lat="41.5213550" lon="-5.7571460">
        <ele>702.0</ele>
        <time>2021-10-13T16:01:43Z</time>
      </trkpt>
      <trkpt lat="41.5213340" lon="-5.7571220">
        <ele>701.8</ele>
        <time>2021-10-13T16:01:45Z</time>
      </trkpt>
      <trkpt lat="41.5213030" lon="-5.7571380">
        <ele>701.8</ele>
        <time>2021-10-13T16:01:47Z</time>
      </trkpt>
      <trkpt lat="41.5212800" lon="-5.7572710">
        <ele>701.8</ele>
        <time>2021-10-13T16:01:52Z</time>
      </trkpt>
      <trkpt lat="41.5212710" lon="-5.7573200">
        <ele>702.6</ele>
        <time>2021-10-13T16:01:57Z</time>
      </trkpt>
      <trkpt lat="41.5212710" lon="-5.7573200">
        <ele>702.8</ele>
        <time>2021-10-13T16:01:58Z</time>
      </trkpt>
      <trkpt lat="41.5212570" lon="-5.7573480">
        <ele>703.8</ele>
        <time>2021-10-13T16:02:30Z</time>
      </trkpt>
      <trkpt lat="41.5212440" lon="-5.7573670">
        <ele>703.8</ele>
        <time>2021-10-13T16:02:31Z</time>
      </trkpt>
      <trkpt lat="41.5212250" lon="-5.7573840">
        <ele>703.8</ele>
        <time>2021-10-13T16:02:32Z</time>
      </trkpt>
      <trkpt lat="41.5211370" lon="-5.7574040">
        <ele>703.6</ele>
        <time>2021-10-13T16:02:35Z</time>
      </trkpt>
      <trkpt lat="41.5210360" lon="-5.7573890">
        <ele>703.4</ele>
        <time>2021-10-13T16:02:38Z</time>
      </trkpt>
      <trkpt lat="41.5208110" lon="-5.7573170">
        <ele>703.0</ele>
        <time>2021-10-13T16:02:44Z</time>
      </trkpt>
      <trkpt lat="41.5207700" lon="-5.7573020">
        <ele>703.0</ele>
        <time>2021-10-13T16:02:45Z</time>
      </trkpt>
      <trkpt lat="41.5205130" lon="-5.7571900">
        <ele>702.8</ele>
        <time>2021-10-13T16:02:51Z</time>
      </trkpt>
      <trkpt lat="41.5204670" lon="-5.7571710">
        <ele>702.8</ele>
        <time>2021-10-13T16:02:52Z</time>
      </trkpt>
      <trkpt lat="41.5202580" lon="-5.7570810">
        <ele>702.8</ele>
        <time>2021-10-13T16:02:57Z</time>
      </trkpt>
      <trkpt lat="41.5201430" lon="-5.7570350">
        <ele>702.8</ele>
        <time>2021-10-13T16:03:00Z</time>
      </trkpt>
      <trkpt lat="41.5201010" lon="-5.7570200">
        <ele>702.8</ele>
        <time>2021-10-13T16:03:01Z</time>
      </trkpt>
      <trkpt lat="41.5197500" lon="-5.7568780">
        <ele>701.8</ele>
        <time>2021-10-13T16:03:08Z</time>
      </trkpt>
      <trkpt lat="41.5196980" lon="-5.7568560">
        <ele>701.6</ele>
        <time>2021-10-13T16:03:09Z</time>
      </trkpt>
      <trkpt lat="41.5194530" lon="-5.7567770">
        <ele>701.0</ele>
        <time>2021-10-13T16:03:14Z</time>
      </trkpt>
      <trkpt lat="41.5194190" lon="-5.7567670">
        <ele>700.6</ele>
        <time>2021-10-13T16:03:15Z</time>
      </trkpt>
      <trkpt lat="41.5193930" lon="-5.7567640">
        <ele>700.4</ele>
        <time>2021-10-13T16:03:16Z</time>
      </trkpt>
      <trkpt lat="41.5193720" lon="-5.7567660">
        <ele>700.0</ele>
        <time>2021-10-13T16:03:17Z</time>
      </trkpt>
      <trkpt lat="41.5193540" lon="-5.7567700">
        <ele>700.0</ele>
        <time>2021-10-13T16:03:18Z</time>
      </trkpt>
      <trkpt lat="41.5193290" lon="-5.7568040">
        <ele>699.8</ele>
        <time>2021-10-13T16:03:20Z</time>
      </trkpt>
      <trkpt lat="41.5193210" lon="-5.7568380">
        <ele>699.8</ele>
        <time>2021-10-13T16:03:21Z</time>
      </trkpt>
      <trkpt lat="41.5192930" lon="-5.7570450">
        <ele>699.8</ele>
        <time>2021-10-13T16:03:26Z</time>
      </trkpt>
      <trkpt lat="41.5192900" lon="-5.7570860">
        <ele>699.8</ele>
        <time>2021-10-13T16:03:27Z</time>
      </trkpt>
      <trkpt lat="41.5192790" lon="-5.7572200">
        <ele>700.2</ele>
        <time>2021-10-13T16:03:30Z</time>
      </trkpt>
      <trkpt lat="41.5192480" lon="-5.7574190">
        <ele>700.8</ele>
        <time>2021-10-13T16:03:35Z</time>
      </trkpt>
      <trkpt lat="41.5192460" lon="-5.7574620">
        <ele>701.0</ele>
        <time>2021-10-13T16:03:36Z</time>
      </trkpt>
      <trkpt lat="41.5192340" lon="-5.7576330">
        <ele>701.6</ele>
        <time>2021-10-13T16:03:40Z</time>
      </trkpt>
      <trkpt lat="41.5192380" lon="-5.7577160">
        <ele>701.8</ele>
        <time>2021-10-13T16:03:42Z</time>
      </trkpt>
      <trkpt lat="41.5192220" lon="-5.7578870">
        <ele>702.2</ele>
        <time>2021-10-13T16:03:46Z</time>
      </trkpt>
      <trkpt lat="41.5192040" lon="-5.7580580">
        <ele>702.6</ele>
        <time>2021-10-13T16:03:50Z</time>
      </trkpt>
      <trkpt lat="41.5192010" lon="-5.7581020">
        <ele>702.8</ele>
        <time>2021-10-13T16:03:51Z</time>
      </trkpt>
      <trkpt lat="41.5191720" lon="-5.7583190">
        <ele>703.2</ele>
        <time>2021-10-13T16:03:56Z</time>
      </trkpt>
      <trkpt lat="41.5191500" lon="-5.7585000">
        <ele>703.8</ele>
        <time>2021-10-13T16:04:00Z</time>
      </trkpt>
      <trkpt lat="41.5191490" lon="-5.7585890">
        <ele>703.8</ele>
        <time>2021-10-13T16:04:02Z</time>
      </trkpt>
      <trkpt lat="41.5191790" lon="-5.7588140">
        <ele>704.8</ele>
        <time>2021-10-13T16:04:07Z</time>
      </trkpt>
      <trkpt lat="41.5191960" lon="-5.7589450">
        <ele>705.0</ele>
        <time>2021-10-13T16:04:10Z</time>
      </trkpt>
      <trkpt lat="41.5191890" lon="-5.7590940">
        <ele>705.4</ele>
        <time>2021-10-13T16:04:14Z</time>
      </trkpt>
      <trkpt lat="41.5191380" lon="-5.7591890">
        <ele>706.0</ele>
        <time>2021-10-13T16:04:17Z</time>
      </trkpt>
      <trkpt lat="41.5191100" lon="-5.7592160">
        <ele>706.2</ele>
        <time>2021-10-13T16:04:18Z</time>
      </trkpt>
      <trkpt lat="41.5190530" lon="-5.7592520">
        <ele>706.6</ele>
        <time>2021-10-13T16:04:20Z</time>
      </trkpt>
      <trkpt lat="41.5189880" lon="-5.7592540">
        <ele>706.8</ele>
        <time>2021-10-13T16:04:22Z</time>
      </trkpt>
      <trkpt lat="41.5189550" lon="-5.7592400">
        <ele>706.8</ele>
        <time>2021-10-13T16:04:23Z</time>
      </trkpt>
      <trkpt lat="41.5188930" lon="-5.7591920">
        <ele>707.0</ele>
        <time>2021-10-13T16:04:25Z</time>
      </trkpt>
      <trkpt lat="41.5188210" lon="-5.7590850">
        <ele>707.0</ele>
        <time>2021-10-13T16:04:28Z</time>
      </trkpt>
      <trkpt lat="41.5186520" lon="-5.7588230">
        <ele>706.4</ele>
        <time>2021-10-13T16:04:34Z</time>
      </trkpt>
      <trkpt lat="41.5185700" lon="-5.7587390">
        <ele>706.0</ele>
        <time>2021-10-13T16:04:36Z</time>
      </trkpt>
      <trkpt lat="41.5185230" lon="-5.7586990">
        <ele>705.8</ele>
        <time>2021-10-13T16:04:37Z</time>
      </trkpt>
      <trkpt lat="41.5183700" lon="-5.7585740">
        <ele>704.8</ele>
        <time>2021-10-13T16:04:40Z</time>
      </trkpt>
      <trkpt lat="41.5183140" lon="-5.7585350">
        <ele>704.6</ele>
        <time>2021-10-13T16:04:41Z</time>
      </trkpt>
      <trkpt lat="41.5180710" lon="-5.7583580">
        <ele>703.4</ele>
        <time>2021-10-13T16:04:45Z</time>
      </trkpt>
      <trkpt lat="41.5180070" lon="-5.7583160">
        <ele>702.8</ele>
        <time>2021-10-13T16:04:46Z</time>
      </trkpt>
      <trkpt lat="41.5178790" lon="-5.7582300">
        <ele>702.2</ele>
        <time>2021-10-13T16:04:48Z</time>
      </trkpt>
      <trkpt lat="41.5176790" lon="-5.7580890">
        <ele>700.8</ele>
        <time>2021-10-13T16:04:51Z</time>
      </trkpt>
      <trkpt lat="41.5175400" lon="-5.7579950">
        <ele>700.4</ele>
        <time>2021-10-13T16:04:53Z</time>
      </trkpt>
      <trkpt lat="41.5173400" lon="-5.7578470">
        <ele>699.8</ele>
        <time>2021-10-13T16:04:56Z</time>
      </trkpt>
      <trkpt lat="41.5172100" lon="-5.7577530">
        <ele>699.4</ele>
        <time>2021-10-13T16:04:58Z</time>
      </trkpt>
      <trkpt lat="41.5170820" lon="-5.7576650">
        <ele>699.0</ele>
        <time>2021-10-13T16:05:00Z</time>
      </trkpt>
      <trkpt lat="41.5170220" lon="-5.7576230">
        <ele>698.8</ele>
        <time>2021-10-13T16:05:01Z</time>
      </trkpt>
      <trkpt lat="41.5168540" lon="-5.7574970">
        <ele>698.2</ele>
        <time>2021-10-13T16:05:04Z</time>
      </trkpt>
      <trkpt lat="41.5168020" lon="-5.7574590">
        <ele>698.0</ele>
        <time>2021-10-13T16:05:05Z</time>
      </trkpt>
      <trkpt lat="41.5166900" lon="-5.7573840">
        <ele>697.8</ele>
        <time>2021-10-13T16:05:07Z</time>
      </trkpt>
      <trkpt lat="41.5165250" lon="-5.7572670">
        <ele>697.2</ele>
        <time>2021-10-13T16:05:10Z</time>
      </trkpt>
      <trkpt lat="41.5164150" lon="-5.7571930">
        <ele>697.0</ele>
        <time>2021-10-13T16:05:12Z</time>
      </trkpt>
      <trkpt lat="41.5163680" lon="-5.7571580">
        <ele>696.6</ele>
        <time>2021-10-13T16:05:13Z</time>
      </trkpt>
      <trkpt lat="41.5162000" lon="-5.7570370">
        <ele>696.4</ele>
        <time>2021-10-13T16:05:17Z</time>
      </trkpt>
      <trkpt lat="41.5158350" lon="-5.7567630">
        <ele>695.8</ele>
        <time>2021-10-13T16:05:26Z</time>
      </trkpt>
      <trkpt lat="41.5156970" lon="-5.7566650">
        <ele>695.6</ele>
        <time>2021-10-13T16:05:29Z</time>
      </trkpt>
      <trkpt lat="41.5156490" lon="-5.7566360">
        <ele>695.6</ele>
        <time>2021-10-13T16:05:30Z</time>
      </trkpt>
      <trkpt lat="41.5155070" lon="-5.7565380">
        <ele>695.6</ele>
        <time>2021-10-13T16:05:33Z</time>
      </trkpt>
      <trkpt lat="41.5150700" lon="-5.7562210">
        <ele>695.0</ele>
        <time>2021-10-13T16:05:42Z</time>
      </trkpt>
      <trkpt lat="41.5149720" lon="-5.7561500">
        <ele>694.8</ele>
        <time>2021-10-13T16:05:44Z</time>
      </trkpt>
      <trkpt lat="41.5148760" lon="-5.7560820">
        <ele>694.6</ele>
        <time>2021-10-13T16:05:46Z</time>
      </trkpt>
      <trkpt lat="41.5146500" lon="-5.7559270">
        <ele>694.2</ele>
        <time>2021-10-13T16:05:51Z</time>
      </trkpt>
      <trkpt lat="41.5146070" lon="-5.7559010">
        <ele>694.0</ele>
        <time>2021-10-13T16:05:52Z</time>
      </trkpt>
      <trkpt lat="41.5145200" lon="-5.7558400">
        <ele>694.0</ele>
        <time>2021-10-13T16:05:54Z</time>
      </trkpt>
      <trkpt lat="41.5143730" lon="-5.7557260">
        <ele>693.4</ele>
        <time>2021-10-13T16:05:58Z</time>
      </trkpt>
      <trkpt lat="41.5141750" lon="-5.7556050">
        <ele>692.6</ele>
        <time>2021-10-13T16:06:02Z</time>
      </trkpt>
      <trkpt lat="41.5140550" lon="-5.7555310">
        <ele>692.4</ele>
        <time>2021-10-13T16:06:04Z</time>
      </trkpt>
      <trkpt lat="41.5138940" lon="-5.7554220">
        <ele>691.8</ele>
        <time>2021-10-13T16:06:07Z</time>
      </trkpt>
      <trkpt lat="41.5138320" lon="-5.7553810">
        <ele>691.6</ele>
        <time>2021-10-13T16:06:08Z</time>
      </trkpt>
      <trkpt lat="41.5137100" lon="-5.7552970">
        <ele>691.2</ele>
        <time>2021-10-13T16:06:10Z</time>
      </trkpt>
      <trkpt lat="41.5134960" lon="-5.7551390">
        <ele>690.6</ele>
        <time>2021-10-13T16:06:14Z</time>
      </trkpt>
      <trkpt lat="41.5134350" lon="-5.7551050">
        <ele>690.4</ele>
        <time>2021-10-13T16:06:15Z</time>
      </trkpt>
      <trkpt lat="41.5133780" lon="-5.7550720">
        <ele>690.2</ele>
        <time>2021-10-13T16:06:16Z</time>
      </trkpt>
      <trkpt lat="41.5132040" lon="-5.7549340">
        <ele>689.4</ele>
        <time>2021-10-13T16:06:19Z</time>
      </trkpt>
      <trkpt lat="41.5129810" lon="-5.7547690">
        <ele>689.0</ele>
        <time>2021-10-13T16:06:23Z</time>
      </trkpt>
      <trkpt lat="41.5128070" lon="-5.7546500">
        <ele>688.4</ele>
        <time>2021-10-13T16:06:26Z</time>
      </trkpt>
      <trkpt lat="41.5126260" lon="-5.7545340">
        <ele>688.0</ele>
        <time>2021-10-13T16:06:29Z</time>
      </trkpt>
      <trkpt lat="41.5123850" lon="-5.7544120">
        <ele>687.0</ele>
        <time>2021-10-13T16:06:33Z</time>
      </trkpt>
      <trkpt lat="41.5123210" lon="-5.7543710">
        <ele>686.8</ele>
        <time>2021-10-13T16:06:34Z</time>
      </trkpt>
      <trkpt lat="41.5120940" lon="-5.7541900">
        <ele>686.6</ele>
        <time>2021-10-13T16:06:38Z</time>
      </trkpt>
      <trkpt lat="41.5118520" lon="-5.7539800">
        <ele>686.4</ele>
        <time>2021-10-13T16:06:43Z</time>
      </trkpt>
      <trkpt lat="41.5118050" lon="-5.7539430">
        <ele>686.6</ele>
        <time>2021-10-13T16:06:44Z</time>
      </trkpt>
      <trkpt lat="41.5116270" lon="-5.7538030">
        <ele>687.0</ele>
        <time>2021-10-13T16:06:48Z</time>
      </trkpt>
      <trkpt lat="41.5114970" lon="-5.7537010">
        <ele>687.0</ele>
        <time>2021-10-13T16:06:51Z</time>
      </trkpt>
      <trkpt lat="41.5112070" lon="-5.7534920">
        <ele>687.8</ele>
        <time>2021-10-13T16:06:58Z</time>
      </trkpt>
      <trkpt lat="41.5111620" lon="-5.7534650">
        <ele>688.0</ele>
        <time>2021-10-13T16:06:59Z</time>
      </trkpt>
      <trkpt lat="41.5111140" lon="-5.7534400">
        <ele>688.0</ele>
        <time>2021-10-13T16:07:00Z</time>
      </trkpt>
      <trkpt lat="41.5110730" lon="-5.7534080">
        <ele>688.2</ele>
        <time>2021-10-13T16:07:01Z</time>
      </trkpt>
      <trkpt lat="41.5109050" lon="-5.7532700">
        <ele>688.6</ele>
        <time>2021-10-13T16:07:05Z</time>
      </trkpt>
      <trkpt lat="41.5107840" lon="-5.7531680">
        <ele>688.8</ele>
        <time>2021-10-13T16:07:08Z</time>
      </trkpt>
      <trkpt lat="41.5106940" lon="-5.7531070">
        <ele>688.8</ele>
        <time>2021-10-13T16:07:10Z</time>
      </trkpt>
      <trkpt lat="41.5105950" lon="-5.7530430">
        <ele>688.8</ele>
        <time>2021-10-13T16:07:12Z</time>
      </trkpt>
      <trkpt lat="41.5104930" lon="-5.7529730">
        <ele>688.8</ele>
        <time>2021-10-13T16:07:14Z</time>
      </trkpt>
      <trkpt lat="41.5103930" lon="-5.7528990">
        <ele>688.8</ele>
        <time>2021-10-13T16:07:16Z</time>
      </trkpt>
      <trkpt lat="41.5102960" lon="-5.7528330">
        <ele>688.6</ele>
        <time>2021-10-13T16:07:18Z</time>
      </trkpt>
      <trkpt lat="41.5102060" lon="-5.7527670">
        <ele>688.4</ele>
        <time>2021-10-13T16:07:20Z</time>
      </trkpt>
      <trkpt lat="41.5101640" lon="-5.7527350">
        <ele>688.2</ele>
        <time>2021-10-13T16:07:21Z</time>
      </trkpt>
      <trkpt lat="41.5099590" lon="-5.7525950">
        <ele>687.2</ele>
        <time>2021-10-13T16:07:26Z</time>
      </trkpt>
      <trkpt lat="41.5098580" lon="-5.7525210">
        <ele>687.0</ele>
        <time>2021-10-13T16:07:28Z</time>
      </trkpt>
      <trkpt lat="41.5096960" lon="-5.7523990">
        <ele>686.8</ele>
        <time>2021-10-13T16:07:31Z</time>
      </trkpt>
      <trkpt lat="41.5095210" lon="-5.7522730">
        <ele>686.2</ele>
        <time>2021-10-13T16:07:34Z</time>
      </trkpt>
      <trkpt lat="41.5093930" lon="-5.7521840">
        <ele>685.8</ele>
        <time>2021-10-13T16:07:36Z</time>
      </trkpt>
      <trkpt lat="41.5091540" lon="-5.7520130">
        <ele>684.8</ele>
        <time>2021-10-13T16:07:40Z</time>
      </trkpt>
      <trkpt lat="41.5089330" lon="-5.7518600">
        <ele>683.6</ele>
        <time>2021-10-13T16:07:44Z</time>
      </trkpt>
      <trkpt lat="41.5087660" lon="-5.7517330">
        <ele>682.4</ele>
        <time>2021-10-13T16:07:47Z</time>
      </trkpt>
      <trkpt lat="41.5085850" lon="-5.7516050">
        <ele>681.4</ele>
        <time>2021-10-13T16:07:50Z</time>
      </trkpt>
      <trkpt lat="41.5083690" lon="-5.7514400">
        <ele>679.6</ele>
        <time>2021-10-13T16:07:54Z</time>
      </trkpt>
      <trkpt lat="41.5082900" lon="-5.7513840">
        <ele>678.6</ele>
        <time>2021-10-13T16:07:56Z</time>
      </trkpt>
      <trkpt lat="41.5082530" lon="-5.7513540">
        <ele>678.0</ele>
        <time>2021-10-13T16:07:57Z</time>
      </trkpt>
      <trkpt lat="41.5081850" lon="-5.7513100">
        <ele>677.6</ele>
        <time>2021-10-13T16:07:59Z</time>
      </trkpt>
      <trkpt lat="41.5081580" lon="-5.7512900">
        <ele>677.4</ele>
        <time>2021-10-13T16:08:00Z</time>
      </trkpt>
      <trkpt lat="41.5081040" lon="-5.7512510">
        <ele>676.6</ele>
        <time>2021-10-13T16:08:03Z</time>
      </trkpt>
      <trkpt lat="41.5080990" lon="-5.7512470">
        <ele>676.0</ele>
        <time>2021-10-13T16:08:05Z</time>
      </trkpt>
      <trkpt lat="41.5080990" lon="-5.7512470">
        <ele>676.0</ele>
        <time>2021-10-13T16:08:06Z</time>
      </trkpt>
      <trkpt lat="41.5080810" lon="-5.7512430">
        <ele>675.0</ele>
        <time>2021-10-13T16:08:56Z</time>
      </trkpt>
      <trkpt lat="41.5079700" lon="-5.7511860">
        <ele>674.4</ele>
        <time>2021-10-13T16:09:01Z</time>
      </trkpt>
      <trkpt lat="41.5077860" lon="-5.7510380">
        <ele>673.8</ele>
        <time>2021-10-13T16:09:07Z</time>
      </trkpt>
      <trkpt lat="41.5075430" lon="-5.7508780">
        <ele>672.8</ele>
        <time>2021-10-13T16:09:12Z</time>
      </trkpt>
      <trkpt lat="41.5074870" lon="-5.7508600">
        <ele>672.6</ele>
        <time>2021-10-13T16:09:13Z</time>
      </trkpt>
      <trkpt lat="41.5073180" lon="-5.7508050">
        <ele>671.6</ele>
        <time>2021-10-13T16:09:16Z</time>
      </trkpt>
      <trkpt lat="41.5071830" lon="-5.7507780">
        <ele>670.8</ele>
        <time>2021-10-13T16:09:18Z</time>
      </trkpt>
      <trkpt lat="41.5071080" lon="-5.7507700">
        <ele>670.4</ele>
        <time>2021-10-13T16:09:19Z</time>
      </trkpt>
      <trkpt lat="41.5067840" lon="-5.7507380">
        <ele>669.0</ele>
        <time>2021-10-13T16:09:23Z</time>
      </trkpt>
      <trkpt lat="41.5067090" lon="-5.7507290">
        <ele>668.8</ele>
        <time>2021-10-13T16:09:24Z</time>
      </trkpt>
      <trkpt lat="41.5065530" lon="-5.7507250">
        <ele>667.8</ele>
        <time>2021-10-13T16:09:26Z</time>
      </trkpt>
      <trkpt lat="41.5064130" lon="-5.7507220">
        <ele>666.6</ele>
        <time>2021-10-13T16:09:28Z</time>
      </trkpt>
      <trkpt lat="41.5063610" lon="-5.7507190">
        <ele>665.4</ele>
        <time>2021-10-13T16:09:29Z</time>
      </trkpt>
      <trkpt lat="41.5062810" lon="-5.7507100">
        <ele>664.4</ele>
        <time>2021-10-13T16:09:31Z</time>
      </trkpt>
      <trkpt lat="41.5062450" lon="-5.7506960">
        <ele>663.4</ele>
        <time>2021-10-13T16:09:33Z</time>
      </trkpt>
      <trkpt lat="41.5062170" lon="-5.7506870">
        <ele>662.6</ele>
        <time>2021-10-13T16:09:34Z</time>
      </trkpt>
      <trkpt lat="41.5061950" lon="-5.7506790">
        <ele>661.8</ele>
        <time>2021-10-13T16:09:38Z</time>
      </trkpt>
      <trkpt lat="41.5061730" lon="-5.7506710">
        <ele>661.6</ele>
        <time>2021-10-13T16:09:39Z</time>
      </trkpt>
      <trkpt lat="41.5061510" lon="-5.7506630">
        <ele>661.2</ele>
        <time>2021-10-13T16:09:45Z</time>
      </trkpt>
      <trkpt lat="41.5061300" lon="-5.7506540">
        <ele>661.2</ele>
        <time>2021-10-13T16:09:47Z</time>
      </trkpt>
      <trkpt lat="41.5061080" lon="-5.7506460">
        <ele>660.6</ele>
        <time>2021-10-13T16:09:52Z</time>
      </trkpt>
      <trkpt lat="41.5060860" lon="-5.7506380">
        <ele>660.6</ele>
        <time>2021-10-13T16:09:54Z</time>
      </trkpt>
      <trkpt lat="41.5060640" lon="-5.7506300">
        <ele>660.6</ele>
        <time>2021-10-13T16:09:55Z</time>
      </trkpt>
      <trkpt lat="41.5060420" lon="-5.7506220">
        <ele>660.6</ele>
        <time>2021-10-13T16:10:13Z</time>
      </trkpt>
      <trkpt lat="41.5060200" lon="-5.7506140">
        <ele>660.6</ele>
        <time>2021-10-13T16:10:14Z</time>
      </trkpt>
      <trkpt lat="41.5059750" lon="-5.7505850">
        <ele>660.6</ele>
        <time>2021-10-13T16:10:15Z</time>
      </trkpt>
      <trkpt lat="41.5058770" lon="-5.7504520">
        <ele>660.6</ele>
        <time>2021-10-13T16:10:17Z</time>
      </trkpt>
      <trkpt lat="41.5058010" lon="-5.7503000">
        <ele>660.4</ele>
        <time>2021-10-13T16:10:19Z</time>
      </trkpt>
      <trkpt lat="41.5057090" lon="-5.7501590">
        <ele>659.8</ele>
        <time>2021-10-13T16:10:21Z</time>
      </trkpt>
      <trkpt lat="41.5056430" lon="-5.7500150">
        <ele>659.6</ele>
        <time>2021-10-13T16:10:23Z</time>
      </trkpt>
      <trkpt lat="41.5056200" lon="-5.7499420">
        <ele>659.6</ele>
        <time>2021-10-13T16:10:24Z</time>
      </trkpt>
      <trkpt lat="41.5056110" lon="-5.7498730">
        <ele>659.6</ele>
        <time>2021-10-13T16:10:25Z</time>
      </trkpt>
      <trkpt lat="41.5055620" lon="-5.7498090">
        <ele>659.6</ele>
        <time>2021-10-13T16:10:26Z</time>
      </trkpt>
      <trkpt lat="41.5054950" lon="-5.7497270">
        <ele>659.6</ele>
        <time>2021-10-13T16:10:28Z</time>
      </trkpt>
      <trkpt lat="41.5054230" lon="-5.7495900">
        <ele>659.8</ele>
        <time>2021-10-13T16:10:31Z</time>
      </trkpt>
      <trkpt lat="41.5053590" lon="-5.7495170">
        <ele>659.8</ele>
        <time>2021-10-13T16:10:33Z</time>
      </trkpt>
      <trkpt lat="41.5053460" lon="-5.7494150">
        <ele>660.0</ele>
        <time>2021-10-13T16:10:35Z</time>
      </trkpt>
      <trkpt lat="41.5052610" lon="-5.7493270">
        <ele>660.2</ele>
        <time>2021-10-13T16:10:37Z</time>
      </trkpt>
      <trkpt lat="41.5051910" lon="-5.7492720">
        <ele>660.4</ele>
        <time>2021-10-13T16:10:39Z</time>
      </trkpt>
      <trkpt lat="41.5051210" lon="-5.7492440">
        <ele>660.4</ele>
        <time>2021-10-13T16:10:41Z</time>
      </trkpt>
      <trkpt lat="41.5050880" lon="-5.7492270">
        <ele>660.6</ele>
        <time>2021-10-13T16:10:42Z</time>
      </trkpt>
      <trkpt lat="41.5050360" lon="-5.7491670">
        <ele>660.8</ele>
        <time>2021-10-13T16:10:44Z</time>
      </trkpt>
      <trkpt lat="41.5050230" lon="-5.7491250">
        <ele>660.8</ele>
        <time>2021-10-13T16:10:45Z</time>
      </trkpt>
      <trkpt lat="41.5050180" lon="-5.7490440">
        <ele>660.8</ele>
        <time>2021-10-13T16:10:47Z</time>
      </trkpt>
      <trkpt lat="41.5050310" lon="-5.7490120">
        <ele>660.8</ele>
        <time>2021-10-13T16:10:48Z</time>
      </trkpt>
      <trkpt lat="41.5050520" lon="-5.7489820">
        <ele>661.0</ele>
        <time>2021-10-13T16:10:49Z</time>
      </trkpt>
      <trkpt lat="41.5051820" lon="-5.7488740">
        <ele>661.2</ele>
        <time>2021-10-13T16:10:54Z</time>
      </trkpt>
      <trkpt lat="41.5052020" lon="-5.7488460">
        <ele>661.2</ele>
        <time>2021-10-13T16:10:55Z</time>
      </trkpt>
      <trkpt lat="41.5052980" lon="-5.7487190">
        <ele>661.4</ele>
        <time>2021-10-13T16:10:59Z</time>
      </trkpt>
      <trkpt lat="41.5053480" lon="-5.7486440">
        <ele>661.6</ele>
        <time>2021-10-13T16:11:01Z</time>
      </trkpt>
      <trkpt lat="41.5053740" lon="-5.7486070">
        <ele>661.6</ele>
        <time>2021-10-13T16:11:02Z</time>
      </trkpt>
      <trkpt lat="41.5054860" lon="-5.7484810">
        <ele>662.0</ele>
        <time>2021-10-13T16:11:06Z</time>
      </trkpt>
      <trkpt lat="41.5055420" lon="-5.7484000">
        <ele>662.0</ele>
        <time>2021-10-13T16:11:08Z</time>
      </trkpt>
      <trkpt lat="41.5056280" lon="-5.7483340">
        <ele>662.2</ele>
        <time>2021-10-13T16:11:10Z</time>
      </trkpt>
      <trkpt lat="41.5058750" lon="-5.7482270">
        <ele>662.6</ele>
        <time>2021-10-13T16:11:16Z</time>
      </trkpt>
      <trkpt lat="41.5059200" lon="-5.7482110">
        <ele>662.6</ele>
        <time>2021-10-13T16:11:17Z</time>
      </trkpt>
      <trkpt lat="41.5060210" lon="-5.7481720">
        <ele>662.6</ele>
        <time>2021-10-13T16:11:19Z</time>
      </trkpt>
      <trkpt lat="41.5061180" lon="-5.7481400">
        <ele>662.4</ele>
        <time>2021-10-13T16:11:21Z</time>
      </trkpt>
      <trkpt lat="41.5062120" lon="-5.7481140">
        <ele>662.4</ele>
        <time>2021-10-13T16:11:23Z</time>
      </trkpt>
      <trkpt lat="41.5062570" lon="-5.7480990">
        <ele>662.4</ele>
        <time>2021-10-13T16:11:24Z</time>
      </trkpt>
      <trkpt lat="41.5065530" lon="-5.7480140">
        <ele>662.4</ele>
        <time>2021-10-13T16:11:30Z</time>
      </trkpt>
      <trkpt lat="41.5067240" lon="-5.7479440">
        <ele>662.4</ele>
        <time>2021-10-13T16:11:34Z</time>
      </trkpt>
      <trkpt lat="41.5067960" lon="-5.7478750">
        <ele>662.6</ele>
        <time>2021-10-13T16:11:36Z</time>
      </trkpt>
      <trkpt lat="41.5068270" lon="-5.7478280">
        <ele>662.6</ele>
        <time>2021-10-13T16:11:37Z</time>
      </trkpt>
      <trkpt lat="41.5069260" lon="-5.7476960">
        <ele>662.8</ele>
        <time>2021-10-13T16:11:40Z</time>
      </trkpt>
      <trkpt lat="41.5069550" lon="-5.7476650">
        <ele>662.8</ele>
        <time>2021-10-13T16:11:41Z</time>
      </trkpt>
      <trkpt lat="41.5069870" lon="-5.7476330">
        <ele>663.0</ele>
        <time>2021-10-13T16:11:42Z</time>
      </trkpt>
      <trkpt lat="41.5070480" lon="-5.7475670">
        <ele>663.4</ele>
        <time>2021-10-13T16:11:44Z</time>
      </trkpt>
      <trkpt lat="41.5071360" lon="-5.7474660">
        <ele>664.0</ele>
        <time>2021-10-13T16:11:47Z</time>
      </trkpt>
      <trkpt lat="41.5072580" lon="-5.7473160">
        <ele>664.6</ele>
        <time>2021-10-13T16:11:51Z</time>
      </trkpt>
      <trkpt lat="41.5072860" lon="-5.7472820">
        <ele>664.6</ele>
        <time>2021-10-13T16:11:52Z</time>
      </trkpt>
      <trkpt lat="41.5073450" lon="-5.7472090">
        <ele>665.0</ele>
        <time>2021-10-13T16:11:54Z</time>
      </trkpt>
      <trkpt lat="41.5074550" lon="-5.7470890">
        <ele>665.6</ele>
        <time>2021-10-13T16:11:58Z</time>
      </trkpt>
      <trkpt lat="41.5075080" lon="-5.7470280">
        <ele>665.6</ele>
        <time>2021-10-13T16:12:00Z</time>
      </trkpt>
      <trkpt lat="41.5075570" lon="-5.7469720">
        <ele>665.8</ele>
        <time>2021-10-13T16:12:02Z</time>
      </trkpt>
      <trkpt lat="41.5076630" lon="-5.7468600">
        <ele>666.6</ele>
        <time>2021-10-13T16:12:07Z</time>
      </trkpt>
      <trkpt lat="41.5076940" lon="-5.7468420">
        <ele>666.8</ele>
        <time>2021-10-13T16:12:09Z</time>
      </trkpt>
      <trkpt lat="41.5077150" lon="-5.7468160">
        <ele>667.2</ele>
        <time>2021-10-13T16:12:11Z</time>
      </trkpt>
      <trkpt lat="41.5077670" lon="-5.7467400">
        <ele>667.4</ele>
        <time>2021-10-13T16:12:14Z</time>
      </trkpt>
      <trkpt lat="41.5078050" lon="-5.7466870">
        <ele>667.8</ele>
        <time>2021-10-13T16:12:16Z</time>
      </trkpt>
      <trkpt lat="41.5078770" lon="-5.7466010">
        <ele>668.0</ele>
        <time>2021-10-13T16:12:19Z</time>
      </trkpt>
      <trkpt lat="41.5078930" lon="-5.7465770">
        <ele>668.0</ele>
        <time>2021-10-13T16:12:20Z</time>
      </trkpt>
      <trkpt lat="41.5080210" lon="-5.7464610">
        <ele>668.6</ele>
        <time>2021-10-13T16:12:25Z</time>
      </trkpt>
      <trkpt lat="41.5080780" lon="-5.7464120">
        <ele>668.8</ele>
        <time>2021-10-13T16:12:27Z</time>
      </trkpt>
      <trkpt lat="41.5081380" lon="-5.7463090">
        <ele>669.4</ele>
        <time>2021-10-13T16:12:30Z</time>
      </trkpt>
      <trkpt lat="41.5081550" lon="-5.7462680">
        <ele>669.4</ele>
        <time>2021-10-13T16:12:31Z</time>
      </trkpt>
      <trkpt lat="41.5081880" lon="-5.7461880">
        <ele>669.8</ele>
        <time>2021-10-13T16:12:33Z</time>
      </trkpt>
      <trkpt lat="41.5082130" lon="-5.7461070">
        <ele>670.0</ele>
        <time>2021-10-13T16:12:35Z</time>
      </trkpt>
      <trkpt lat="41.5082320" lon="-5.7459730">
        <ele>670.6</ele>
        <time>2021-10-13T16:12:38Z</time>
      </trkpt>
      <trkpt lat="41.5082300" lon="-5.7459340">
        <ele>670.8</ele>
        <time>2021-10-13T16:12:39Z</time>
      </trkpt>
      <trkpt lat="41.5081900" lon="-5.7457270">
        <ele>671.8</ele>
        <time>2021-10-13T16:12:44Z</time>
      </trkpt>
      <trkpt lat="41.5081810" lon="-5.7456940">
        <ele>672.0</ele>
        <time>2021-10-13T16:12:45Z</time>
      </trkpt>
      <trkpt lat="41.5081760" lon="-5.7456300">
        <ele>672.6</ele>
        <time>2021-10-13T16:12:47Z</time>
      </trkpt>
      <trkpt lat="41.5081560" lon="-5.7456000">
        <ele>672.6</ele>
        <time>2021-10-13T16:12:48Z</time>
      </trkpt>
      <trkpt lat="41.5081280" lon="-5.7455920">
        <ele>673.0</ele>
        <time>2021-10-13T16:12:49Z</time>
      </trkpt>
      <trkpt lat="41.5079990" lon="-5.7456050">
        <ele>674.0</ele>
        <time>2021-10-13T16:12:54Z</time>
      </trkpt>
      <trkpt lat="41.5079700" lon="-5.7456120">
        <ele>674.2</ele>
        <time>2021-10-13T16:12:55Z</time>
      </trkpt>
      <trkpt lat="41.5079010" lon="-5.7456460">
        <ele>674.6</ele>
        <time>2021-10-13T16:12:58Z</time>
      </trkpt>
      <trkpt lat="41.5078740" lon="-5.7456580">
        <ele>674.8</ele>
        <time>2021-10-13T16:12:59Z</time>
      </trkpt>
      <trkpt lat="41.5077020" lon="-5.7457220">
        <ele>675.2</ele>
        <time>2021-10-13T16:13:04Z</time>
      </trkpt>
      <trkpt lat="41.5076190" lon="-5.7457540">
        <ele>675.2</ele>
        <time>2021-10-13T16:13:07Z</time>
      </trkpt>
      <trkpt lat="41.5075710" lon="-5.7457870">
        <ele>675.4</ele>
        <time>2021-10-13T16:13:09Z</time>
      </trkpt>
      <trkpt lat="41.5075420" lon="-5.7458130">
        <ele>675.6</ele>
        <time>2021-10-13T16:13:10Z</time>
      </trkpt>
      <trkpt lat="41.5075120" lon="-5.7458330">
        <ele>675.6</ele>
        <time>2021-10-13T16:13:11Z</time>
      </trkpt>
      <trkpt lat="41.5074830" lon="-5.7458410">
        <ele>675.8</ele>
        <time>2021-10-13T16:13:12Z</time>
      </trkpt>
      <trkpt lat="41.5074340" lon="-5.7458740">
        <ele>676.0</ele>
        <time>2021-10-13T16:13:14Z</time>
      </trkpt>
      <trkpt lat="41.5074130" lon="-5.7458930">
        <ele>676.2</ele>
        <time>2021-10-13T16:13:15Z</time>
      </trkpt>
      <trkpt lat="41.5073710" lon="-5.7459330">
        <ele>676.4</ele>
        <time>2021-10-13T16:13:17Z</time>
      </trkpt>
      <trkpt lat="41.5072910" lon="-5.7459690">
        <ele>676.6</ele>
        <time>2021-10-13T16:13:20Z</time>
      </trkpt>
      <trkpt lat="41.5072640" lon="-5.7459870">
        <ele>676.6</ele>
        <time>2021-10-13T16:13:21Z</time>
      </trkpt>
      <trkpt lat="41.5072170" lon="-5.7460140">
        <ele>676.6</ele>
        <time>2021-10-13T16:13:23Z</time>
      </trkpt>
      <trkpt lat="41.5071520" lon="-5.7460800">
        <ele>676.6</ele>
        <time>2021-10-13T16:13:26Z</time>
      </trkpt>
      <trkpt lat="41.5069720" lon="-5.7461600">
        <ele>676.0</ele>
        <time>2021-10-13T16:13:33Z</time>
      </trkpt>
      <trkpt lat="41.5068960" lon="-5.7461980">
        <ele>675.6</ele>
        <time>2021-10-13T16:13:36Z</time>
      </trkpt>
      <trkpt lat="41.5068200" lon="-5.7462530">
        <ele>675.4</ele>
        <time>2021-10-13T16:13:39Z</time>
      </trkpt>
      <trkpt lat="41.5067970" lon="-5.7462660">
        <ele>675.4</ele>
        <time>2021-10-13T16:13:40Z</time>
      </trkpt>
      <trkpt lat="41.5066380" lon="-5.7463720">
        <ele>675.0</ele>
        <time>2021-10-13T16:13:45Z</time>
      </trkpt>
      <trkpt lat="41.5065820" lon="-5.7463910">
        <ele>674.8</ele>
        <time>2021-10-13T16:13:47Z</time>
      </trkpt>
      <trkpt lat="41.5064680" lon="-5.7464250">
        <ele>674.4</ele>
        <time>2021-10-13T16:13:51Z</time>
      </trkpt>
      <trkpt lat="41.5064350" lon="-5.7464430">
        <ele>674.4</ele>
        <time>2021-10-13T16:13:52Z</time>
      </trkpt>
      <trkpt lat="41.5063870" lon="-5.7464580">
        <ele>674.0</ele>
        <time>2021-10-13T16:13:54Z</time>
      </trkpt>
      <trkpt lat="41.5063420" lon="-5.7464770">
        <ele>673.8</ele>
        <time>2021-10-13T16:13:56Z</time>
      </trkpt>
      <trkpt lat="41.5061800" lon="-5.7465760">
        <ele>673.0</ele>
        <time>2021-10-13T16:14:00Z</time>
      </trkpt>
      <trkpt lat="41.5061210" lon="-5.7466140">
        <ele>672.8</ele>
        <time>2021-10-13T16:14:02Z</time>
      </trkpt>
      <trkpt lat="41.5060760" lon="-5.7466320">
        <ele>672.6</ele>
        <time>2021-10-13T16:14:04Z</time>
      </trkpt>
      <trkpt lat="41.5060310" lon="-5.7466760">
        <ele>672.4</ele>
        <time>2021-10-13T16:14:06Z</time>
      </trkpt>
      <trkpt lat="41.5058830" lon="-5.7467550">
        <ele>672.2</ele>
        <time>2021-10-13T16:14:12Z</time>
      </trkpt>
      <trkpt lat="41.5058680" lon="-5.7467630">
        <ele>672.2</ele>
        <time>2021-10-13T16:14:13Z</time>
      </trkpt>
      <trkpt lat="41.5057660" lon="-5.7468300">
        <ele>672.2</ele>
        <time>2021-10-13T16:14:19Z</time>
      </trkpt>
      <trkpt lat="41.5056330" lon="-5.7469160">
        <ele>672.2</ele>
        <time>2021-10-13T16:14:22Z</time>
      </trkpt>
      <trkpt lat="41.5055990" lon="-5.7469420">
        <ele>672.2</ele>
        <time>2021-10-13T16:14:24Z</time>
      </trkpt>
      <trkpt lat="41.5055680" lon="-5.7469630">
        <ele>672.2</ele>
        <time>2021-10-13T16:14:25Z</time>
      </trkpt>
      <trkpt lat="41.5055100" lon="-5.7470290">
        <ele>672.2</ele>
        <time>2021-10-13T16:14:27Z</time>
      </trkpt>
      <trkpt lat="41.5054350" lon="-5.7471290">
        <ele>672.0</ele>
        <time>2021-10-13T16:14:30Z</time>
      </trkpt>
      <trkpt lat="41.5053040" lon="-5.7472100">
        <ele>671.0</ele>
        <time>2021-10-13T16:14:35Z</time>
      </trkpt>
      <trkpt lat="41.5052400" lon="-5.7472470">
        <ele>670.8</ele>
        <time>2021-10-13T16:14:36Z</time>
      </trkpt>
      <trkpt lat="41.5051350" lon="-5.7473040">
        <ele>669.4</ele>
        <time>2021-10-13T16:14:40Z</time>
      </trkpt>
      <trkpt lat="41.5051350" lon="-5.7473040">
        <ele>669.2</ele>
        <time>2021-10-13T16:14:41Z</time>
      </trkpt>
      <trkpt lat="41.5051150" lon="-5.7472770">
        <ele>668.0</ele>
        <time>2021-10-13T16:14:43Z</time>
      </trkpt>
      <trkpt lat="41.5051110" lon="-5.7472820">
        <ele>667.0</ele>
        <time>2021-10-13T16:14:45Z</time>
      </trkpt>
      <trkpt lat="41.5051110" lon="-5.7472820">
        <ele>666.6</ele>
        <time>2021-10-13T16:14:46Z</time>
      </trkpt>
      <trkpt lat="41.5050400" lon="-5.7474010">
        <ele>666.0</ele>
        <time>2021-10-13T16:14:49Z</time>
      </trkpt>
      <trkpt lat="41.5049820" lon="-5.7475440">
        <ele>665.2</ele>
        <time>2021-10-13T16:14:52Z</time>
      </trkpt>
      <trkpt lat="41.5049620" lon="-5.7475670">
        <ele>665.0</ele>
        <time>2021-10-13T16:14:53Z</time>
      </trkpt>
      <trkpt lat="41.5049340" lon="-5.7475810">
        <ele>664.8</ele>
        <time>2021-10-13T16:14:54Z</time>
      </trkpt>
      <trkpt lat="41.5048990" lon="-5.7476170">
        <ele>664.4</ele>
        <time>2021-10-13T16:14:57Z</time>
      </trkpt>
      <trkpt lat="41.5048630" lon="-5.7477430">
        <ele>664.0</ele>
        <time>2021-10-13T16:15:03Z</time>
      </trkpt>
      <trkpt lat="41.5048630" lon="-5.7477420">
        <ele>663.8</ele>
        <time>2021-10-13T16:15:05Z</time>
      </trkpt>
      <trkpt lat="41.5045000" lon="-5.7475160">
        <ele>668.0</ele>
        <time>2021-10-13T16:16:57Z</time>
      </trkpt>
      <trkpt lat="41.5044790" lon="-5.7474890">
        <ele>668.4</ele>
        <time>2021-10-13T16:16:59Z</time>
      </trkpt>
      <trkpt lat="41.5044110" lon="-5.7474200">
        <ele>669.2</ele>
        <time>2021-10-13T16:17:06Z</time>
      </trkpt>
      <trkpt lat="41.5043860" lon="-5.7473890">
        <ele>669.4</ele>
        <time>2021-10-13T16:17:09Z</time>
      </trkpt>
      <trkpt lat="41.5043730" lon="-5.7473590">
        <ele>669.6</ele>
        <time>2021-10-13T16:17:11Z</time>
      </trkpt>
      <trkpt lat="41.5043730" lon="-5.7473590">
        <ele>669.8</ele>
        <time>2021-10-13T16:17:12Z</time>
      </trkpt>
      <trkpt lat="41.5043590" lon="-5.7473260">
        <ele>669.8</ele>
        <time>2021-10-13T16:17:13Z</time>
      </trkpt>
      <trkpt lat="41.5043480" lon="-5.7473030">
        <ele>670.2</ele>
        <time>2021-10-13T16:17:15Z</time>
      </trkpt>
      <trkpt lat="41.5043270" lon="-5.7472800">
        <ele>670.4</ele>
        <time>2021-10-13T16:17:17Z</time>
      </trkpt>
      <trkpt lat="41.5043130" lon="-5.7472730">
        <ele>670.6</ele>
        <time>2021-10-13T16:17:18Z</time>
      </trkpt>
      <trkpt lat="41.5042360" lon="-5.7472250">
        <ele>671.0</ele>
        <time>2021-10-13T16:17:24Z</time>
      </trkpt>
      <trkpt lat="41.5041990" lon="-5.7472070">
        <ele>671.4</ele>
        <time>2021-10-13T16:17:28Z</time>
      </trkpt>
      <trkpt lat="41.5041820" lon="-5.7472120">
        <ele>671.6</ele>
        <time>2021-10-13T16:17:30Z</time>
      </trkpt>
      <trkpt lat="41.5041610" lon="-5.7472170">
        <ele>671.8</ele>
        <time>2021-10-13T16:17:35Z</time>
      </trkpt>
      <trkpt lat="41.5041530" lon="-5.7472130">
        <ele>672.0</ele>
        <time>2021-10-13T16:17:36Z</time>
      </trkpt>
      <trkpt lat="41.5041240" lon="-5.7472400">
        <ele>672.6</ele>
        <time>2021-10-13T16:17:41Z</time>
      </trkpt>
      <trkpt lat="41.5041230" lon="-5.7472810">
        <ele>672.6</ele>
        <time>2021-10-13T16:17:43Z</time>
      </trkpt>
      <trkpt lat="41.5041220" lon="-5.7472750">
        <ele>673.0</ele>
        <time>2021-10-13T16:17:46Z</time>
      </trkpt>
      <trkpt lat="41.5040610" lon="-5.7472440">
        <ele>673.6</ele>
        <time>2021-10-13T16:17:56Z</time>
      </trkpt>
      <trkpt lat="41.5038850" lon="-5.7471780">
        <ele>673.8</ele>
        <time>2021-10-13T16:18:02Z</time>
      </trkpt>
      <trkpt lat="41.5038600" lon="-5.7471570">
        <ele>674.0</ele>
        <time>2021-10-13T16:18:03Z</time>
      </trkpt>
      <trkpt lat="41.5037340" lon="-5.7470350">
        <ele>674.0</ele>
        <time>2021-10-13T16:18:08Z</time>
      </trkpt>
      <trkpt lat="41.5036630" lon="-5.7469920">
        <ele>674.2</ele>
        <time>2021-10-13T16:18:12Z</time>
      </trkpt>
      <trkpt lat="41.5036630" lon="-5.7469920">
        <ele>674.0</ele>
        <time>2021-10-13T16:18:13Z</time>
      </trkpt>
      <trkpt lat="41.5036030" lon="-5.7469120">
        <ele>674.0</ele>
        <time>2021-10-13T16:18:16Z</time>
      </trkpt>
      <trkpt lat="41.5035830" lon="-5.7468860">
        <ele>674.0</ele>
        <time>2021-10-13T16:18:18Z</time>
      </trkpt>
      <trkpt lat="41.5035220" lon="-5.7468420">
        <ele>674.0</ele>
        <time>2021-10-13T16:18:21Z</time>
      </trkpt>
      <trkpt lat="41.5034650" lon="-5.7467920">
        <ele>674.0</ele>
        <time>2021-10-13T16:18:24Z</time>
      </trkpt>
      <trkpt lat="41.5033240" lon="-5.7466740">
        <ele>674.0</ele>
        <time>2021-10-13T16:18:30Z</time>
      </trkpt>
      <trkpt lat="41.5033020" lon="-5.7466630">
        <ele>674.0</ele>
        <time>2021-10-13T16:18:31Z</time>
      </trkpt>
      <trkpt lat="41.5032570" lon="-5.7466420">
        <ele>674.0</ele>
        <time>2021-10-13T16:18:33Z</time>
      </trkpt>
      <trkpt lat="41.5032310" lon="-5.7466680">
        <ele>674.0</ele>
        <time>2021-10-13T16:18:35Z</time>
      </trkpt>
      <trkpt lat="41.5031850" lon="-5.7467380">
        <ele>674.0</ele>
        <time>2021-10-13T16:18:39Z</time>
      </trkpt>
      <trkpt lat="41.5031700" lon="-5.7467560">
        <ele>674.0</ele>
        <time>2021-10-13T16:18:40Z</time>
      </trkpt>
      <trkpt lat="41.5031570" lon="-5.7467720">
        <ele>674.0</ele>
        <time>2021-10-13T16:18:41Z</time>
      </trkpt>
      <trkpt lat="41.5030470" lon="-5.7468890">
        <ele>674.2</ele>
        <time>2021-10-13T16:18:48Z</time>
      </trkpt>
      <trkpt lat="41.5030080" lon="-5.7469560">
        <ele>674.2</ele>
        <time>2021-10-13T16:18:52Z</time>
      </trkpt>
      <trkpt lat="41.5029740" lon="-5.7470010">
        <ele>674.2</ele>
        <time>2021-10-13T16:18:55Z</time>
      </trkpt>
      <trkpt lat="41.5029370" lon="-5.7470260">
        <ele>674.2</ele>
        <time>2021-10-13T16:18:58Z</time>
      </trkpt>
      <trkpt lat="41.5029240" lon="-5.7470460">
        <ele>674.2</ele>
        <time>2021-10-13T16:19:00Z</time>
      </trkpt>
      <trkpt lat="41.5029080" lon="-5.7470590">
        <ele>674.2</ele>
        <time>2021-10-13T16:19:02Z</time>
      </trkpt>
      <trkpt lat="41.5028860" lon="-5.7470920">
        <ele>674.2</ele>
        <time>2021-10-13T16:19:04Z</time>
      </trkpt>
      <trkpt lat="41.5028740" lon="-5.7471190">
        <ele>674.0</ele>
        <time>2021-10-13T16:19:05Z</time>
      </trkpt>
      <trkpt lat="41.5028440" lon="-5.7472090">
        <ele>674.0</ele>
        <time>2021-10-13T16:19:08Z</time>
      </trkpt>
      <trkpt lat="41.5028100" lon="-5.7472620">
        <ele>674.0</ele>
        <time>2021-10-13T16:19:10Z</time>
      </trkpt>
      <trkpt lat="41.5027050" lon="-5.7473660">
        <ele>674.0</ele>
        <time>2021-10-13T16:19:16Z</time>
      </trkpt>
      <trkpt lat="41.5026670" lon="-5.7474030">
        <ele>674.0</ele>
        <time>2021-10-13T16:19:18Z</time>
      </trkpt>
      <trkpt lat="41.5026530" lon="-5.7474400">
        <ele>674.0</ele>
        <time>2021-10-13T16:19:20Z</time>
      </trkpt>
      <trkpt lat="41.5025590" lon="-5.7475930">
        <ele>674.0</ele>
        <time>2021-10-13T16:19:27Z</time>
      </trkpt>
      <trkpt lat="41.5025560" lon="-5.7476000">
        <ele>674.0</ele>
        <time>2021-10-13T16:19:29Z</time>
      </trkpt>
      <trkpt lat="41.5025110" lon="-5.7476760">
        <ele>674.0</ele>
        <time>2021-10-13T16:19:38Z</time>
      </trkpt>
      <trkpt lat="41.5024480" lon="-5.7478270">
        <ele>674.0</ele>
        <time>2021-10-13T16:19:43Z</time>
      </trkpt>
      <trkpt lat="41.5024400" lon="-5.7478600">
        <ele>674.0</ele>
        <time>2021-10-13T16:19:44Z</time>
      </trkpt>
      <trkpt lat="41.5023580" lon="-5.7480390">
        <ele>673.8</ele>
        <time>2021-10-13T16:19:50Z</time>
      </trkpt>
      <trkpt lat="41.5022870" lon="-5.7482110">
        <ele>673.6</ele>
        <time>2021-10-13T16:19:57Z</time>
      </trkpt>
      <trkpt lat="41.5021970" lon="-5.7483320">
        <ele>673.6</ele>
        <time>2021-10-13T16:20:02Z</time>
      </trkpt>
      <trkpt lat="41.5021540" lon="-5.7484160">
        <ele>673.6</ele>
        <time>2021-10-13T16:20:05Z</time>
      </trkpt>
      <trkpt lat="41.5020960" lon="-5.7485850">
        <ele>673.4</ele>
        <time>2021-10-13T16:20:11Z</time>
      </trkpt>
      <trkpt lat="41.5019890" lon="-5.7488160">
        <ele>673.6</ele>
        <time>2021-10-13T16:20:16Z</time>
      </trkpt>
      <trkpt lat="41.5019000" lon="-5.7490040">
        <ele>673.6</ele>
        <time>2021-10-13T16:20:21Z</time>
      </trkpt>
      <trkpt lat="41.5018760" lon="-5.7490370">
        <ele>673.6</ele>
        <time>2021-10-13T16:20:22Z</time>
      </trkpt>
      <trkpt lat="41.5018300" lon="-5.7490920">
        <ele>673.6</ele>
        <time>2021-10-13T16:20:24Z</time>
      </trkpt>
      <trkpt lat="41.5017920" lon="-5.7491460">
        <ele>673.6</ele>
        <time>2021-10-13T16:20:26Z</time>
      </trkpt>
      <trkpt lat="41.5016910" lon="-5.7493150">
        <ele>673.6</ele>
        <time>2021-10-13T16:20:31Z</time>
      </trkpt>
      <trkpt lat="41.5016130" lon="-5.7494490">
        <ele>673.6</ele>
        <time>2021-10-13T16:20:35Z</time>
      </trkpt>
      <trkpt lat="41.5015500" lon="-5.7495530">
        <ele>673.6</ele>
        <time>2021-10-13T16:20:38Z</time>
      </trkpt>
      <trkpt lat="41.5014220" lon="-5.7498080">
        <ele>673.4</ele>
        <time>2021-10-13T16:20:46Z</time>
      </trkpt>
      <trkpt lat="41.5013830" lon="-5.7498990">
        <ele>673.4</ele>
        <time>2021-10-13T16:20:49Z</time>
      </trkpt>
      <trkpt lat="41.5013700" lon="-5.7499570">
        <ele>673.4</ele>
        <time>2021-10-13T16:20:51Z</time>
      </trkpt>
      <trkpt lat="41.5013570" lon="-5.7500080">
        <ele>673.2</ele>
        <time>2021-10-13T16:20:53Z</time>
      </trkpt>
      <trkpt lat="41.5013300" lon="-5.7500900">
        <ele>673.0</ele>
        <time>2021-10-13T16:20:56Z</time>
      </trkpt>
      <trkpt lat="41.5012490" lon="-5.7502560">
        <ele>672.8</ele>
        <time>2021-10-13T16:21:01Z</time>
      </trkpt>
      <trkpt lat="41.5011050" lon="-5.7504350">
        <ele>672.6</ele>
        <time>2021-10-13T16:21:07Z</time>
      </trkpt>
      <trkpt lat="41.5009880" lon="-5.7506310">
        <ele>672.4</ele>
        <time>2021-10-13T16:21:13Z</time>
      </trkpt>
      <trkpt lat="41.5009520" lon="-5.7507410">
        <ele>672.2</ele>
        <time>2021-10-13T16:21:16Z</time>
      </trkpt>
      <trkpt lat="41.5008900" lon="-5.7508280">
        <ele>672.0</ele>
        <time>2021-10-13T16:21:19Z</time>
      </trkpt>
      <trkpt lat="41.5008300" lon="-5.7509270">
        <ele>671.8</ele>
        <time>2021-10-13T16:21:23Z</time>
      </trkpt>
      <trkpt lat="41.5007830" lon="-5.7510160">
        <ele>671.6</ele>
        <time>2021-10-13T16:21:28Z</time>
      </trkpt>
      <trkpt lat="41.5007830" lon="-5.7510160">
        <ele>671.8</ele>
        <time>2021-10-13T16:21:30Z</time>
      </trkpt>
      <trkpt lat="41.5007700" lon="-5.7511090">
        <ele>671.8</ele>
        <time>2021-10-13T16:23:38Z</time>
      </trkpt>
      <trkpt lat="41.5007670" lon="-5.7511340">
        <ele>671.8</ele>
        <time>2021-10-13T16:23:39Z</time>
      </trkpt>
      <trkpt lat="41.5007390" lon="-5.7512600">
        <ele>671.6</ele>
        <time>2021-10-13T16:23:43Z</time>
      </trkpt>
      <trkpt lat="41.5007220" lon="-5.7513320">
        <ele>671.6</ele>
        <time>2021-10-13T16:23:45Z</time>
      </trkpt>
      <trkpt lat="41.5007020" lon="-5.7514420">
        <ele>671.6</ele>
        <time>2021-10-13T16:23:49Z</time>
      </trkpt>
      <trkpt lat="41.5006800" lon="-5.7515330">
        <ele>671.6</ele>
        <time>2021-10-13T16:23:52Z</time>
      </trkpt>
      <trkpt lat="41.5006570" lon="-5.7515970">
        <ele>671.6</ele>
        <time>2021-10-13T16:23:54Z</time>
      </trkpt>
      <trkpt lat="41.5005770" lon="-5.7517870">
        <ele>671.6</ele>
        <time>2021-10-13T16:24:00Z</time>
      </trkpt>
      <trkpt lat="41.5005140" lon="-5.7519480">
        <ele>671.4</ele>
        <time>2021-10-13T16:24:05Z</time>
      </trkpt>
      <trkpt lat="41.5004350" lon="-5.7520420">
        <ele>670.8</ele>
        <time>2021-10-13T16:24:10Z</time>
      </trkpt>
      <trkpt lat="41.5004350" lon="-5.7520460">
        <ele>670.8</ele>
        <time>2021-10-13T16:24:11Z</time>
      </trkpt>
      <trkpt lat="41.5004570" lon="-5.7521540">
        <ele>670.6</ele>
        <time>2021-10-13T16:24:15Z</time>
      </trkpt>
      <trkpt lat="41.5004220" lon="-5.7522090">
        <ele>670.6</ele>
        <time>2021-10-13T16:24:17Z</time>
      </trkpt>
      <trkpt lat="41.5002830" lon="-5.7522700">
        <ele>670.4</ele>
        <time>2021-10-13T16:24:20Z</time>
      </trkpt>
      <trkpt lat="41.5001950" lon="-5.7522630">
        <ele>670.4</ele>
        <time>2021-10-13T16:24:22Z</time>
      </trkpt>
      <trkpt lat="41.5000250" lon="-5.7522920">
        <ele>670.6</ele>
        <time>2021-10-13T16:24:25Z</time>
      </trkpt>
      <trkpt lat="41.4998720" lon="-5.7522510">
        <ele>671.0</ele>
        <time>2021-10-13T16:24:30Z</time>
      </trkpt>
      <trkpt lat="41.4998460" lon="-5.7522220">
        <ele>671.4</ele>
        <time>2021-10-13T16:24:32Z</time>
      </trkpt>
      <trkpt lat="41.4998180" lon="-5.7522300">
        <ele>671.8</ele>
        <time>2021-10-13T16:24:34Z</time>
      </trkpt>
      <trkpt lat="41.4998040" lon="-5.7522410">
        <ele>672.0</ele>
        <time>2021-10-13T16:24:35Z</time>
      </trkpt>
      <trkpt lat="41.4997710" lon="-5.7522930">
        <ele>672.4</ele>
        <time>2021-10-13T16:24:38Z</time>
      </trkpt>
      <trkpt lat="41.4997620" lon="-5.7523030">
        <ele>672.6</ele>
        <time>2021-10-13T16:24:39Z</time>
      </trkpt>
      <trkpt lat="41.4997000" lon="-5.7523490">
        <ele>672.8</ele>
        <time>2021-10-13T16:24:42Z</time>
      </trkpt>
      <trkpt lat="41.4995950" lon="-5.7524360">
        <ele>672.8</ele>
        <time>2021-10-13T16:24:46Z</time>
      </trkpt>
      <trkpt lat="41.4994080" lon="-5.7525870">
        <ele>672.8</ele>
        <time>2021-10-13T16:24:52Z</time>
      </trkpt>
      <trkpt lat="41.4993550" lon="-5.7526160">
        <ele>672.8</ele>
        <time>2021-10-13T16:24:54Z</time>
      </trkpt>
      <trkpt lat="41.4993210" lon="-5.7526090">
        <ele>672.8</ele>
        <time>2021-10-13T16:24:56Z</time>
      </trkpt>
      <trkpt lat="41.4993040" lon="-5.7525940">
        <ele>672.8</ele>
        <time>2021-10-13T16:24:57Z</time>
      </trkpt>
      <trkpt lat="41.4993060" lon="-5.7525530">
        <ele>672.6</ele>
        <time>2021-10-13T16:24:59Z</time>
      </trkpt>
      <trkpt lat="41.4993150" lon="-5.7525370">
        <ele>672.6</ele>
        <time>2021-10-13T16:25:00Z</time>
      </trkpt>
      <trkpt lat="41.4993380" lon="-5.7525090">
        <ele>672.6</ele>
        <time>2021-10-13T16:25:02Z</time>
      </trkpt>
      <trkpt lat="41.4993390" lon="-5.7525050">
        <ele>672.4</ele>
        <time>2021-10-13T16:25:08Z</time>
      </trkpt>
      <trkpt lat="41.4993390" lon="-5.7525050">
        <ele>672.4</ele>
        <time>2021-10-13T16:25:10Z</time>
      </trkpt>
      <trkpt lat="41.4992820" lon="-5.7524580">
        <ele>671.8</ele>
        <time>2021-10-13T16:29:03Z</time>
      </trkpt>
      <trkpt lat="41.4992570" lon="-5.7524540">
        <ele>671.8</ele>
        <time>2021-10-13T16:29:04Z</time>
      </trkpt>
      <trkpt lat="41.4992000" lon="-5.7524500">
        <ele>671.8</ele>
        <time>2021-10-13T16:29:07Z</time>
      </trkpt>
      <trkpt lat="41.4991640" lon="-5.7523780">
        <ele>671.8</ele>
        <time>2021-10-13T16:29:10Z</time>
      </trkpt>
      <trkpt lat="41.4991410" lon="-5.7523040">
        <ele>671.8</ele>
        <time>2021-10-13T16:29:14Z</time>
      </trkpt>
      <trkpt lat="41.4990540" lon="-5.7522530">
        <ele>671.8</ele>
        <time>2021-10-13T16:29:17Z</time>
      </trkpt>
      <trkpt lat="41.4990380" lon="-5.7522400">
        <ele>671.6</ele>
        <time>2021-10-13T16:29:18Z</time>
      </trkpt>
      <trkpt lat="41.4990090" lon="-5.7521630">
        <ele>671.6</ele>
        <time>2021-10-13T16:29:22Z</time>
      </trkpt>
      <trkpt lat="41.4990090" lon="-5.7521360">
        <ele>671.6</ele>
        <time>2021-10-13T16:29:23Z</time>
      </trkpt>
      <trkpt lat="41.4990080" lon="-5.7520840">
        <ele>671.6</ele>
        <time>2021-10-13T16:29:26Z</time>
      </trkpt>
      <trkpt lat="41.4990150" lon="-5.7520660">
        <ele>671.6</ele>
        <time>2021-10-13T16:29:30Z</time>
      </trkpt>
      <trkpt lat="41.4990200" lon="-5.7521150">
        <ele>671.6</ele>
        <time>2021-10-13T16:33:15Z</time>
      </trkpt>
      <trkpt lat="41.4990210" lon="-5.7521440">
        <ele>671.6</ele>
        <time>2021-10-13T16:33:16Z</time>
      </trkpt>
      <trkpt lat="41.4990300" lon="-5.7521730">
        <ele>671.6</ele>
        <time>2021-10-13T16:33:17Z</time>
      </trkpt>
      <trkpt lat="41.4991020" lon="-5.7522530">
        <ele>671.4</ele>
        <time>2021-10-13T16:33:21Z</time>
      </trkpt>
      <trkpt lat="41.4991170" lon="-5.7522700">
        <ele>671.4</ele>
        <time>2021-10-13T16:33:22Z</time>
      </trkpt>
      <trkpt lat="41.4991600" lon="-5.7523210">
        <ele>671.4</ele>
        <time>2021-10-13T16:33:25Z</time>
      </trkpt>
      <trkpt lat="41.4991730" lon="-5.7523140">
        <ele>671.4</ele>
        <time>2021-10-13T16:33:26Z</time>
      </trkpt>
      <trkpt lat="41.4991870" lon="-5.7523150">
        <ele>671.4</ele>
        <time>2021-10-13T16:33:27Z</time>
      </trkpt>
      <trkpt lat="41.4992240" lon="-5.7523390">
        <ele>671.2</ele>
        <time>2021-10-13T16:33:29Z</time>
      </trkpt>
      <trkpt lat="41.4992420" lon="-5.7523420">
        <ele>671.2</ele>
        <time>2021-10-13T16:33:30Z</time>
      </trkpt>
      <trkpt lat="41.4993010" lon="-5.7523380">
        <ele>671.4</ele>
        <time>2021-10-13T16:33:33Z</time>
      </trkpt>
      <trkpt lat="41.4994240" lon="-5.7522840">
        <ele>672.0</ele>
        <time>2021-10-13T16:33:39Z</time>
      </trkpt>
      <trkpt lat="41.4994690" lon="-5.7522820">
        <ele>672.2</ele>
        <time>2021-10-13T16:33:41Z</time>
      </trkpt>
      <trkpt lat="41.4994900" lon="-5.7522900">
        <ele>672.2</ele>
        <time>2021-10-13T16:33:42Z</time>
      </trkpt>
      <trkpt lat="41.4995480" lon="-5.7522890">
        <ele>672.4</ele>
        <time>2021-10-13T16:33:44Z</time>
      </trkpt>
      <trkpt lat="41.4996190" lon="-5.7522660">
        <ele>672.4</ele>
        <time>2021-10-13T16:33:46Z</time>
      </trkpt>
      <trkpt lat="41.4997190" lon="-5.7521300">
        <ele>672.6</ele>
        <time>2021-10-13T16:33:49Z</time>
      </trkpt>
      <trkpt lat="41.4997530" lon="-5.7520810">
        <ele>672.6</ele>
        <time>2021-10-13T16:33:50Z</time>
      </trkpt>
      <trkpt lat="41.4998660" lon="-5.7519050">
        <ele>672.4</ele>
        <time>2021-10-13T16:33:54Z</time>
      </trkpt>
      <trkpt lat="41.4998930" lon="-5.7518000">
        <ele>672.2</ele>
        <time>2021-10-13T16:33:56Z</time>
      </trkpt>
      <trkpt lat="41.4999250" lon="-5.7515320">
        <ele>672.0</ele>
        <time>2021-10-13T16:34:02Z</time>
      </trkpt>
      <trkpt lat="41.4999590" lon="-5.7514630">
        <ele>671.8</ele>
        <time>2021-10-13T16:34:04Z</time>
      </trkpt>
      <trkpt lat="41.5000440" lon="-5.7513310">
        <ele>671.6</ele>
        <time>2021-10-13T16:34:08Z</time>
      </trkpt>
      <trkpt lat="41.5001020" lon="-5.7512540">
        <ele>671.2</ele>
        <time>2021-10-13T16:34:10Z</time>
      </trkpt>
      <trkpt lat="41.5001790" lon="-5.7511410">
        <ele>670.8</ele>
        <time>2021-10-13T16:34:13Z</time>
      </trkpt>
      <trkpt lat="41.5002100" lon="-5.7510690">
        <ele>670.6</ele>
        <time>2021-10-13T16:34:16Z</time>
      </trkpt>
      <trkpt lat="41.5002120" lon="-5.7510530">
        <ele>670.4</ele>
        <time>2021-10-13T16:34:17Z</time>
      </trkpt>
      <trkpt lat="41.5002430" lon="-5.7508950">
        <ele>670.0</ele>
        <time>2021-10-13T16:34:21Z</time>
      </trkpt>
      <trkpt lat="41.5002910" lon="-5.7507420">
        <ele>669.4</ele>
        <time>2021-10-13T16:34:24Z</time>
      </trkpt>
      <trkpt lat="41.5002920" lon="-5.7507170">
        <ele>668.8</ele>
        <time>2021-10-13T16:34:26Z</time>
      </trkpt>
      <trkpt lat="41.5002640" lon="-5.7506880">
        <ele>668.2</ele>
        <time>2021-10-13T16:34:28Z</time>
      </trkpt>
      <trkpt lat="41.5002530" lon="-5.7506320">
        <ele>667.8</ele>
        <time>2021-10-13T16:34:30Z</time>
      </trkpt>
      <trkpt lat="41.5002690" lon="-5.7505690">
        <ele>667.6</ele>
        <time>2021-10-13T16:34:31Z</time>
      </trkpt>
      <trkpt lat="41.5003220" lon="-5.7504200">
        <ele>667.0</ele>
        <time>2021-10-13T16:34:33Z</time>
      </trkpt>
      <trkpt lat="41.5003530" lon="-5.7503390">
        <ele>667.0</ele>
        <time>2021-10-13T16:34:34Z</time>
      </trkpt>
      <trkpt lat="41.5003840" lon="-5.7502900">
        <ele>666.8</ele>
        <time>2021-10-13T16:34:35Z</time>
      </trkpt>
      <trkpt lat="41.5004450" lon="-5.7501890">
        <ele>666.2</ele>
        <time>2021-10-13T16:34:37Z</time>
      </trkpt>
      <trkpt lat="41.5004730" lon="-5.7501320">
        <ele>666.0</ele>
        <time>2021-10-13T16:34:38Z</time>
      </trkpt>
      <trkpt lat="41.5005000" lon="-5.7500680">
        <ele>665.4</ele>
        <time>2021-10-13T16:34:39Z</time>
      </trkpt>
      <trkpt lat="41.5005150" lon="-5.7500110">
        <ele>665.2</ele>
        <time>2021-10-13T16:34:40Z</time>
      </trkpt>
      <trkpt lat="41.5005130" lon="-5.7499180">
        <ele>664.6</ele>
        <time>2021-10-13T16:34:41Z</time>
      </trkpt>
      <trkpt lat="41.5004780" lon="-5.7497780">
        <ele>663.6</ele>
        <time>2021-10-13T16:34:43Z</time>
      </trkpt>
      <trkpt lat="41.5004680" lon="-5.7496990">
        <ele>663.0</ele>
        <time>2021-10-13T16:34:44Z</time>
      </trkpt>
      <trkpt lat="41.5004430" lon="-5.7495290">
        <ele>662.0</ele>
        <time>2021-10-13T16:34:46Z</time>
      </trkpt>
      <trkpt lat="41.5004150" lon="-5.7493660">
        <ele>660.6</ele>
        <time>2021-10-13T16:34:48Z</time>
      </trkpt>
      <trkpt lat="41.5004010" lon="-5.7492900">
        <ele>660.2</ele>
        <time>2021-10-13T16:34:49Z</time>
      </trkpt>
      <trkpt lat="41.5003860" lon="-5.7492190">
        <ele>659.2</ele>
        <time>2021-10-13T16:34:50Z</time>
      </trkpt>
      <trkpt lat="41.5003690" lon="-5.7491490">
        <ele>659.0</ele>
        <time>2021-10-13T16:34:51Z</time>
      </trkpt>
      <trkpt lat="41.5003430" lon="-5.7490780">
        <ele>658.0</ele>
        <time>2021-10-13T16:34:52Z</time>
      </trkpt>
      <trkpt lat="41.5003220" lon="-5.7490430">
        <ele>657.2</ele>
        <time>2021-10-13T16:34:53Z</time>
      </trkpt>
      <trkpt lat="41.5002960" lon="-5.7490070">
        <ele>656.6</ele>
        <time>2021-10-13T16:34:54Z</time>
      </trkpt>
      <trkpt lat="41.5002730" lon="-5.7489810">
        <ele>655.6</ele>
        <time>2021-10-13T16:34:55Z</time>
      </trkpt>
      <trkpt lat="41.5002370" lon="-5.7489410">
        <ele>654.6</ele>
        <time>2021-10-13T16:34:57Z</time>
      </trkpt>
      <trkpt lat="41.5002350" lon="-5.7488160">
        <ele>653.4</ele>
        <time>2021-10-13T16:35:00Z</time>
      </trkpt>
      <trkpt lat="41.5002420" lon="-5.7487730">
        <ele>653.0</ele>
        <time>2021-10-13T16:35:01Z</time>
      </trkpt>
      <trkpt lat="41.5003120" lon="-5.7485670">
        <ele>652.8</ele>
        <time>2021-10-13T16:35:07Z</time>
      </trkpt>
      <trkpt lat="41.5003340" lon="-5.7485060">
        <ele>653.0</ele>
        <time>2021-10-13T16:35:10Z</time>
      </trkpt>
      <trkpt lat="41.5003390" lon="-5.7484930">
        <ele>653.0</ele>
        <time>2021-10-13T16:35:11Z</time>
      </trkpt>
      <trkpt lat="41.5003410" lon="-5.7484870">
        <ele>653.2</ele>
        <time>2021-10-13T16:35:14Z</time>
      </trkpt>
      <trkpt lat="41.5003640" lon="-5.7483970">
        <ele>653.4</ele>
        <time>2021-10-13T16:35:24Z</time>
      </trkpt>
      <trkpt lat="41.5003700" lon="-5.7483710">
        <ele>653.4</ele>
        <time>2021-10-13T16:35:25Z</time>
      </trkpt>
      <trkpt lat="41.5003730" lon="-5.7483010">
        <ele>653.4</ele>
        <time>2021-10-13T16:35:27Z</time>
      </trkpt>
      <trkpt lat="41.5003550" lon="-5.7482490">
        <ele>653.6</ele>
        <time>2021-10-13T16:35:29Z</time>
      </trkpt>
      <trkpt lat="41.5002940" lon="-5.7481410">
        <ele>654.0</ele>
        <time>2021-10-13T16:35:35Z</time>
      </trkpt>
      <trkpt lat="41.5002660" lon="-5.7481200">
        <ele>654.2</ele>
        <time>2021-10-13T16:35:37Z</time>
      </trkpt>
      <trkpt lat="41.5002440" lon="-5.7481160">
        <ele>654.2</ele>
        <time>2021-10-13T16:35:38Z</time>
      </trkpt>
      <trkpt lat="41.5001970" lon="-5.7481210">
        <ele>654.2</ele>
        <time>2021-10-13T16:35:40Z</time>
      </trkpt>
      <trkpt lat="41.5001480" lon="-5.7481210">
        <ele>654.4</ele>
        <time>2021-10-13T16:35:42Z</time>
      </trkpt>
      <trkpt lat="41.5000540" lon="-5.7481120">
        <ele>654.6</ele>
        <time>2021-10-13T16:35:46Z</time>
      </trkpt>
      <trkpt lat="41.4998680" lon="-5.7481040">
        <ele>655.4</ele>
        <time>2021-10-13T16:35:55Z</time>
      </trkpt>
      <trkpt lat="41.4997470" lon="-5.7481150">
        <ele>655.8</ele>
        <time>2021-10-13T16:36:02Z</time>
      </trkpt>
      <trkpt lat="41.4997290" lon="-5.7481160">
        <ele>655.8</ele>
        <time>2021-10-13T16:36:03Z</time>
      </trkpt>
      <trkpt lat="41.4996600" lon="-5.7481020">
        <ele>655.8</ele>
        <time>2021-10-13T16:36:07Z</time>
      </trkpt>
      <trkpt lat="41.4996490" lon="-5.7480900">
        <ele>655.8</ele>
        <time>2021-10-13T16:36:09Z</time>
      </trkpt>
      <trkpt lat="41.4996490" lon="-5.7480900">
        <ele>655.8</ele>
        <time>2021-10-13T16:36:10Z</time>
      </trkpt>
      <trkpt lat="41.4995690" lon="-5.7481210">
        <ele>655.6</ele>
        <time>2021-10-13T16:37:12Z</time>
      </trkpt>
      <trkpt lat="41.4995480" lon="-5.7481200">
        <ele>655.6</ele>
        <time>2021-10-13T16:37:13Z</time>
      </trkpt>
      <trkpt lat="41.4995240" lon="-5.7481210">
        <ele>655.6</ele>
        <time>2021-10-13T16:37:14Z</time>
      </trkpt>
      <trkpt lat="41.4993240" lon="-5.7481160">
        <ele>655.8</ele>
        <time>2021-10-13T16:37:22Z</time>
      </trkpt>
      <trkpt lat="41.4991860" lon="-5.7481130">
        <ele>655.8</ele>
        <time>2021-10-13T16:37:27Z</time>
      </trkpt>
      <trkpt lat="41.4990700" lon="-5.7481090">
        <ele>655.6</ele>
        <time>2021-10-13T16:37:31Z</time>
      </trkpt>
      <trkpt lat="41.4988530" lon="-5.7481190">
        <ele>655.8</ele>
        <time>2021-10-13T16:37:39Z</time>
      </trkpt>
      <trkpt lat="41.4987250" lon="-5.7481210">
        <ele>655.8</ele>
        <time>2021-10-13T16:37:44Z</time>
      </trkpt>
      <trkpt lat="41.4986370" lon="-5.7481360">
        <ele>655.8</ele>
        <time>2021-10-13T16:37:49Z</time>
      </trkpt>
      <trkpt lat="41.4986240" lon="-5.7481370">
        <ele>655.8</ele>
        <time>2021-10-13T16:37:50Z</time>
      </trkpt>
      <trkpt lat="41.4986110" lon="-5.7481420">
        <ele>655.8</ele>
        <time>2021-10-13T16:37:53Z</time>
      </trkpt>
      <trkpt lat="41.4985790" lon="-5.7481370">
        <ele>656.0</ele>
        <time>2021-10-13T16:40:46Z</time>
      </trkpt>
      <trkpt lat="41.4985720" lon="-5.7481370">
        <ele>656.0</ele>
        <time>2021-10-13T16:40:47Z</time>
      </trkpt>
      <trkpt lat="41.4985720" lon="-5.7481370">
        <ele>655.8</ele>
        <time>2021-10-13T16:40:49Z</time>
      </trkpt>
      <trkpt lat="41.4985230" lon="-5.7481290">
        <ele>655.8</ele>
        <time>2021-10-13T16:40:52Z</time>
      </trkpt>
      <trkpt lat="41.4984930" lon="-5.7481290">
        <ele>655.6</ele>
        <time>2021-10-13T16:40:53Z</time>
      </trkpt>
      <trkpt lat="41.4982270" lon="-5.7481360">
        <ele>655.0</ele>
        <time>2021-10-13T16:41:00Z</time>
      </trkpt>
      <trkpt lat="41.4981840" lon="-5.7481370">
        <ele>655.0</ele>
        <time>2021-10-13T16:41:01Z</time>
      </trkpt>
      <trkpt lat="41.4980660" lon="-5.7480860">
        <ele>654.8</ele>
        <time>2021-10-13T16:41:04Z</time>
      </trkpt>
      <trkpt lat="41.4979560" lon="-5.7480110">
        <ele>654.4</ele>
        <time>2021-10-13T16:41:07Z</time>
      </trkpt>
      <trkpt lat="41.4978900" lon="-5.7480150">
        <ele>654.2</ele>
        <time>2021-10-13T16:41:09Z</time>
      </trkpt>
      <trkpt lat="41.4978490" lon="-5.7480480">
        <ele>653.8</ele>
        <time>2021-10-13T16:41:12Z</time>
      </trkpt>
      <trkpt lat="41.4978410" lon="-5.7480570">
        <ele>653.8</ele>
        <time>2021-10-13T16:41:13Z</time>
      </trkpt>
      <trkpt lat="41.4978270" lon="-5.7481230">
        <ele>653.2</ele>
        <time>2021-10-13T16:41:19Z</time>
      </trkpt>
      <trkpt lat="41.4978090" lon="-5.7482880">
        <ele>653.0</ele>
        <time>2021-10-13T16:41:24Z</time>
      </trkpt>
      <trkpt lat="41.4978040" lon="-5.7483860">
        <ele>653.0</ele>
        <time>2021-10-13T16:41:26Z</time>
      </trkpt>
      <trkpt lat="41.4977980" lon="-5.7485580">
        <ele>652.8</ele>
        <time>2021-10-13T16:41:29Z</time>
      </trkpt>
      <trkpt lat="41.4977940" lon="-5.7486200">
        <ele>652.8</ele>
        <time>2021-10-13T16:41:31Z</time>
      </trkpt>
      <trkpt lat="41.4977660" lon="-5.7489700">
        <ele>652.6</ele>
        <time>2021-10-13T16:41:35Z</time>
      </trkpt>
      <trkpt lat="41.4977540" lon="-5.7491230">
        <ele>652.4</ele>
        <time>2021-10-13T16:41:37Z</time>
      </trkpt>
      <trkpt lat="41.4977370" lon="-5.7493440">
        <ele>652.0</ele>
        <time>2021-10-13T16:41:40Z</time>
      </trkpt>
      <trkpt lat="41.4977230" lon="-5.7494990">
        <ele>652.0</ele>
        <time>2021-10-13T16:41:42Z</time>
      </trkpt>
      <trkpt lat="41.4977160" lon="-5.7495800">
        <ele>651.8</ele>
        <time>2021-10-13T16:41:43Z</time>
      </trkpt>
      <trkpt lat="41.4976480" lon="-5.7498980">
        <ele>651.4</ele>
        <time>2021-10-13T16:41:47Z</time>
      </trkpt>
      <trkpt lat="41.4976020" lon="-5.7500420">
        <ele>651.2</ele>
        <time>2021-10-13T16:41:49Z</time>
      </trkpt>
      <trkpt lat="41.4974540" lon="-5.7503940">
        <ele>651.0</ele>
        <time>2021-10-13T16:41:54Z</time>
      </trkpt>
      <trkpt lat="41.4973410" lon="-5.7505980">
        <ele>650.8</ele>
        <time>2021-10-13T16:41:57Z</time>
      </trkpt>
      <trkpt lat="41.4970130" lon="-5.7510250">
        <ele>650.6</ele>
        <time>2021-10-13T16:42:04Z</time>
      </trkpt>
      <trkpt lat="41.4969660" lon="-5.7510810">
        <ele>650.4</ele>
        <time>2021-10-13T16:42:05Z</time>
      </trkpt>
      <trkpt lat="41.4965980" lon="-5.7515130">
        <ele>650.0</ele>
        <time>2021-10-13T16:42:13Z</time>
      </trkpt>
      <trkpt lat="41.4965510" lon="-5.7515660">
        <ele>650.0</ele>
        <time>2021-10-13T16:42:14Z</time>
      </trkpt>
      <trkpt lat="41.4961960" lon="-5.7519840">
        <ele>649.6</ele>
        <time>2021-10-13T16:42:22Z</time>
      </trkpt>
      <trkpt lat="41.4958160" lon="-5.7524410">
        <ele>649.6</ele>
        <time>2021-10-13T16:42:31Z</time>
      </trkpt>
      <trkpt lat="41.4955970" lon="-5.7527160">
        <ele>649.6</ele>
        <time>2021-10-13T16:42:37Z</time>
      </trkpt>
      <trkpt lat="41.4954450" lon="-5.7529240">
        <ele>649.6</ele>
        <time>2021-10-13T16:42:43Z</time>
      </trkpt>
      <trkpt lat="41.4954220" lon="-5.7530120">
        <ele>649.6</ele>
        <time>2021-10-13T16:42:47Z</time>
      </trkpt>
      <trkpt lat="41.4953840" lon="-5.7532300">
        <ele>649.8</ele>
        <time>2021-10-13T16:42:52Z</time>
      </trkpt>
      <trkpt lat="41.4953220" lon="-5.7533060">
        <ele>649.8</ele>
        <time>2021-10-13T16:42:54Z</time>
      </trkpt>
      <trkpt lat="41.4952340" lon="-5.7533530">
        <ele>649.8</ele>
        <time>2021-10-13T16:42:56Z</time>
      </trkpt>
      <trkpt lat="41.4951350" lon="-5.7533440">
        <ele>649.6</ele>
        <time>2021-10-13T16:42:58Z</time>
      </trkpt>
      <trkpt lat="41.4951020" lon="-5.7533300">
        <ele>649.6</ele>
        <time>2021-10-13T16:42:59Z</time>
      </trkpt>
      <trkpt lat="41.4950600" lon="-5.7533130">
        <ele>649.6</ele>
        <time>2021-10-13T16:43:00Z</time>
      </trkpt>
      <trkpt lat="41.4949780" lon="-5.7533300">
        <ele>649.8</ele>
        <time>2021-10-13T16:43:02Z</time>
      </trkpt>
      <trkpt lat="41.4944620" lon="-5.7535950">
        <ele>650.4</ele>
        <time>2021-10-13T16:43:14Z</time>
      </trkpt>
      <trkpt lat="41.4940830" lon="-5.7537190">
        <ele>650.8</ele>
        <time>2021-10-13T16:43:23Z</time>
      </trkpt>
      <trkpt lat="41.4940080" lon="-5.7537430">
        <ele>650.8</ele>
        <time>2021-10-13T16:43:25Z</time>
      </trkpt>
      <trkpt lat="41.4938740" lon="-5.7538020">
        <ele>651.0</ele>
        <time>2021-10-13T16:43:29Z</time>
      </trkpt>
      <trkpt lat="41.4937220" lon="-5.7538610">
        <ele>651.2</ele>
        <time>2021-10-13T16:43:34Z</time>
      </trkpt>
      <trkpt lat="41.4936300" lon="-5.7538950">
        <ele>651.2</ele>
        <time>2021-10-13T16:43:37Z</time>
      </trkpt>
      <trkpt lat="41.4935360" lon="-5.7539280">
        <ele>651.4</ele>
        <time>2021-10-13T16:43:40Z</time>
      </trkpt>
      <trkpt lat="41.4934430" lon="-5.7539550">
        <ele>651.6</ele>
        <time>2021-10-13T16:43:43Z</time>
      </trkpt>
      <trkpt lat="41.4933430" lon="-5.7539810">
        <ele>651.8</ele>
        <time>2021-10-13T16:43:46Z</time>
      </trkpt>
      <trkpt lat="41.4933080" lon="-5.7539910">
        <ele>651.8</ele>
        <time>2021-10-13T16:43:47Z</time>
      </trkpt>
      <trkpt lat="41.4931220" lon="-5.7540370">
        <ele>652.0</ele>
        <time>2021-10-13T16:43:52Z</time>
      </trkpt>
      <trkpt lat="41.4930110" lon="-5.7540570">
        <ele>652.0</ele>
        <time>2021-10-13T16:43:55Z</time>
      </trkpt>
      <trkpt lat="41.4929120" lon="-5.7540650">
        <ele>652.2</ele>
        <time>2021-10-13T16:43:58Z</time>
      </trkpt>
      <trkpt lat="41.4928240" lon="-5.7540680">
        <ele>652.4</ele>
        <time>2021-10-13T16:44:01Z</time>
      </trkpt>
      <trkpt lat="41.4927930" lon="-5.7540680">
        <ele>652.6</ele>
        <time>2021-10-13T16:44:02Z</time>
      </trkpt>
      <trkpt lat="41.4925020" lon="-5.7540600">
        <ele>653.4</ele>
        <time>2021-10-13T16:44:11Z</time>
      </trkpt>
      <trkpt lat="41.4922120" lon="-5.7540510">
        <ele>653.8</ele>
        <time>2021-10-13T16:44:20Z</time>
      </trkpt>
      <trkpt lat="41.4921140" lon="-5.7540580">
        <ele>653.8</ele>
        <time>2021-10-13T16:44:23Z</time>
      </trkpt>
      <trkpt lat="41.4920170" lon="-5.7540720">
        <ele>654.2</ele>
        <time>2021-10-13T16:44:26Z</time>
      </trkpt>
      <trkpt lat="41.4919570" lon="-5.7540860">
        <ele>654.4</ele>
        <time>2021-10-13T16:44:28Z</time>
      </trkpt>
      <trkpt lat="41.4917510" lon="-5.7541330">
        <ele>655.0</ele>
        <time>2021-10-13T16:44:35Z</time>
      </trkpt>
      <trkpt lat="41.4916970" lon="-5.7541470">
        <ele>655.4</ele>
        <time>2021-10-13T16:44:37Z</time>
      </trkpt>
      <trkpt lat="41.4915110" lon="-5.7541940">
        <ele>656.4</ele>
        <time>2021-10-13T16:44:44Z</time>
      </trkpt>
      <trkpt lat="41.4914920" lon="-5.7542010">
        <ele>656.6</ele>
        <time>2021-10-13T16:44:45Z</time>
      </trkpt>
      <trkpt lat="41.4914530" lon="-5.7542100">
        <ele>657.0</ele>
        <time>2021-10-13T16:44:47Z</time>
      </trkpt>
      <trkpt lat="41.4913910" lon="-5.7542160">
        <ele>657.4</ele>
        <time>2021-10-13T16:44:50Z</time>
      </trkpt>
      <trkpt lat="41.4913710" lon="-5.7542270">
        <ele>657.6</ele>
        <time>2021-10-13T16:44:51Z</time>
      </trkpt>
      <trkpt lat="41.4912990" lon="-5.7542740">
        <ele>658.2</ele>
        <time>2021-10-13T16:44:55Z</time>
      </trkpt>
      <trkpt lat="41.4912650" lon="-5.7542900">
        <ele>658.6</ele>
        <time>2021-10-13T16:44:57Z</time>
      </trkpt>
      <trkpt lat="41.4912540" lon="-5.7542960">
        <ele>658.8</ele>
        <time>2021-10-13T16:44:58Z</time>
      </trkpt>
      <trkpt lat="41.4912320" lon="-5.7543140">
        <ele>659.0</ele>
        <time>2021-10-13T16:45:00Z</time>
      </trkpt>
      <trkpt lat="41.4912180" lon="-5.7543550">
        <ele>659.4</ele>
        <time>2021-10-13T16:45:02Z</time>
      </trkpt>
      <trkpt lat="41.4911790" lon="-5.7544100">
        <ele>659.8</ele>
        <time>2021-10-13T16:45:05Z</time>
      </trkpt>
      <trkpt lat="41.4911160" lon="-5.7544430">
        <ele>660.4</ele>
        <time>2021-10-13T16:45:08Z</time>
      </trkpt>
      <trkpt lat="41.4910660" lon="-5.7544430">
        <ele>660.8</ele>
        <time>2021-10-13T16:45:10Z</time>
      </trkpt>
      <trkpt lat="41.4910320" lon="-5.7544010">
        <ele>661.2</ele>
        <time>2021-10-13T16:45:12Z</time>
      </trkpt>
      <trkpt lat="41.4909350" lon="-5.7542690">
        <ele>662.0</ele>
        <time>2021-10-13T16:45:18Z</time>
      </trkpt>
      <trkpt lat="41.4909010" lon="-5.7542540">
        <ele>662.2</ele>
        <time>2021-10-13T16:45:20Z</time>
      </trkpt>
      <trkpt lat="41.4908460" lon="-5.7542520">
        <ele>662.6</ele>
        <time>2021-10-13T16:45:23Z</time>
      </trkpt>
      <trkpt lat="41.4908290" lon="-5.7542550">
        <ele>663.0</ele>
        <time>2021-10-13T16:45:24Z</time>
      </trkpt>
      <trkpt lat="41.4907680" lon="-5.7542470">
        <ele>663.6</ele>
        <time>2021-10-13T16:45:27Z</time>
      </trkpt>
      <trkpt lat="41.4907270" lon="-5.7542510">
        <ele>664.4</ele>
        <time>2021-10-13T16:45:29Z</time>
      </trkpt>
      <trkpt lat="41.4906620" lon="-5.7542580">
        <ele>664.8</ele>
        <time>2021-10-13T16:45:32Z</time>
      </trkpt>
      <trkpt lat="41.4905980" lon="-5.7542730">
        <ele>665.2</ele>
        <time>2021-10-13T16:45:35Z</time>
      </trkpt>
      <trkpt lat="41.4905760" lon="-5.7542730">
        <ele>665.4</ele>
        <time>2021-10-13T16:45:36Z</time>
      </trkpt>
      <trkpt lat="41.4905100" lon="-5.7542790">
        <ele>665.6</ele>
        <time>2021-10-13T16:45:39Z</time>
      </trkpt>
      <trkpt lat="41.4903900" lon="-5.7542910">
        <ele>666.0</ele>
        <time>2021-10-13T16:45:45Z</time>
      </trkpt>
      <trkpt lat="41.4903200" lon="-5.7543020">
        <ele>666.2</ele>
        <time>2021-10-13T16:45:48Z</time>
      </trkpt>
      <trkpt lat="41.4902680" lon="-5.7543130">
        <ele>666.6</ele>
        <time>2021-10-13T16:45:51Z</time>
      </trkpt>
      <trkpt lat="41.4902490" lon="-5.7543150">
        <ele>666.6</ele>
        <time>2021-10-13T16:45:52Z</time>
      </trkpt>
      <trkpt lat="41.4901640" lon="-5.7543420">
        <ele>667.2</ele>
        <time>2021-10-13T16:45:57Z</time>
      </trkpt>
      <trkpt lat="41.4901230" lon="-5.7543520">
        <ele>667.2</ele>
        <time>2021-10-13T16:45:59Z</time>
      </trkpt>
      <trkpt lat="41.4901060" lon="-5.7543540">
        <ele>667.4</ele>
        <time>2021-10-13T16:46:00Z</time>
      </trkpt>
      <trkpt lat="41.4900500" lon="-5.7543620">
        <ele>667.8</ele>
        <time>2021-10-13T16:46:03Z</time>
      </trkpt>
      <trkpt lat="41.4900020" lon="-5.7543650">
        <ele>668.4</ele>
        <time>2021-10-13T16:46:06Z</time>
      </trkpt>
      <trkpt lat="41.4899870" lon="-5.7543600">
        <ele>668.6</ele>
        <time>2021-10-13T16:46:07Z</time>
      </trkpt>
      <trkpt lat="41.4899530" lon="-5.7543580">
        <ele>669.0</ele>
        <time>2021-10-13T16:46:09Z</time>
      </trkpt>
      <trkpt lat="41.4898790" lon="-5.7543530">
        <ele>669.2</ele>
        <time>2021-10-13T16:46:12Z</time>
      </trkpt>
      <trkpt lat="41.4898480" lon="-5.7543500">
        <ele>669.2</ele>
        <time>2021-10-13T16:46:13Z</time>
      </trkpt>
      <trkpt lat="41.4898180" lon="-5.7543500">
        <ele>669.2</ele>
        <time>2021-10-13T16:46:14Z</time>
      </trkpt>
      <trkpt lat="41.4897470" lon="-5.7543470">
        <ele>669.4</ele>
        <time>2021-10-13T16:46:18Z</time>
      </trkpt>
      <trkpt lat="41.4897450" lon="-5.7543450">
        <ele>669.4</ele>
        <time>2021-10-13T16:46:19Z</time>
      </trkpt>
      <trkpt lat="41.4897450" lon="-5.7543450">
        <ele>669.4</ele>
        <time>2021-10-13T16:46:20Z</time>
      </trkpt>
      <trkpt lat="41.4896870" lon="-5.7543530">
        <ele>669.4</ele>
        <time>2021-10-13T16:46:32Z</time>
      </trkpt>
      <trkpt lat="41.4896640" lon="-5.7543540">
        <ele>669.2</ele>
        <time>2021-10-13T16:46:33Z</time>
      </trkpt>
      <trkpt lat="41.4896390" lon="-5.7543540">
        <ele>669.2</ele>
        <time>2021-10-13T16:46:34Z</time>
      </trkpt>
      <trkpt lat="41.4896140" lon="-5.7543550">
        <ele>669.2</ele>
        <time>2021-10-13T16:46:35Z</time>
      </trkpt>
      <trkpt lat="41.4895120" lon="-5.7543680">
        <ele>669.4</ele>
        <time>2021-10-13T16:46:39Z</time>
      </trkpt>
      <trkpt lat="41.4894620" lon="-5.7543760">
        <ele>669.4</ele>
        <time>2021-10-13T16:46:41Z</time>
      </trkpt>
      <trkpt lat="41.4893350" lon="-5.7543840">
        <ele>669.8</ele>
        <time>2021-10-13T16:46:46Z</time>
      </trkpt>
      <trkpt lat="41.4892010" lon="-5.7543960">
        <ele>670.4</ele>
        <time>2021-10-13T16:46:51Z</time>
      </trkpt>
      <trkpt lat="41.4891700" lon="-5.7543950">
        <ele>670.4</ele>
        <time>2021-10-13T16:46:52Z</time>
      </trkpt>
      <trkpt lat="41.4889890" lon="-5.7543820">
        <ele>671.0</ele>
        <time>2021-10-13T16:46:58Z</time>
      </trkpt>
      <trkpt lat="41.4889300" lon="-5.7543760">
        <ele>671.2</ele>
        <time>2021-10-13T16:47:00Z</time>
      </trkpt>
      <trkpt lat="41.4888380" lon="-5.7543710">
        <ele>671.4</ele>
        <time>2021-10-13T16:47:03Z</time>
      </trkpt>
      <trkpt lat="41.4887710" lon="-5.7543670">
        <ele>671.6</ele>
        <time>2021-10-13T16:47:05Z</time>
      </trkpt>
      <trkpt lat="41.4886560" lon="-5.7543630">
        <ele>672.0</ele>
        <time>2021-10-13T16:47:09Z</time>
      </trkpt>
      <trkpt lat="41.4886300" lon="-5.7543640">
        <ele>672.2</ele>
        <time>2021-10-13T16:47:10Z</time>
      </trkpt>
      <trkpt lat="41.4886010" lon="-5.7543650">
        <ele>672.2</ele>
        <time>2021-10-13T16:47:11Z</time>
      </trkpt>
      <trkpt lat="41.4884470" lon="-5.7543660">
        <ele>672.6</ele>
        <time>2021-10-13T16:47:16Z</time>
      </trkpt>
      <trkpt lat="41.4883100" lon="-5.7543750">
        <ele>672.8</ele>
        <time>2021-10-13T16:47:20Z</time>
      </trkpt>
      <trkpt lat="41.4882190" lon="-5.7543840">
        <ele>672.8</ele>
        <time>2021-10-13T16:47:23Z</time>
      </trkpt>
      <trkpt lat="41.4881170" lon="-5.7543960">
        <ele>672.8</ele>
        <time>2021-10-13T16:47:26Z</time>
      </trkpt>
      <trkpt lat="41.4880410" lon="-5.7544090">
        <ele>672.8</ele>
        <time>2021-10-13T16:47:28Z</time>
      </trkpt>
      <trkpt lat="41.4879430" lon="-5.7544270">
        <ele>672.8</ele>
        <time>2021-10-13T16:47:31Z</time>
      </trkpt>
      <trkpt lat="41.4876410" lon="-5.7545130">
        <ele>673.0</ele>
        <time>2021-10-13T16:47:39Z</time>
      </trkpt>
      <trkpt lat="41.4874840" lon="-5.7545720">
        <ele>673.0</ele>
        <time>2021-10-13T16:47:43Z</time>
      </trkpt>
      <trkpt lat="41.4874440" lon="-5.7545900">
        <ele>673.2</ele>
        <time>2021-10-13T16:47:44Z</time>
      </trkpt>
      <trkpt lat="41.4873730" lon="-5.7546310">
        <ele>673.2</ele>
        <time>2021-10-13T16:47:46Z</time>
      </trkpt>
      <trkpt lat="41.4873100" lon="-5.7546800">
        <ele>673.2</ele>
        <time>2021-10-13T16:47:48Z</time>
      </trkpt>
      <trkpt lat="41.4870910" lon="-5.7548970">
        <ele>673.8</ele>
        <time>2021-10-13T16:47:56Z</time>
      </trkpt>
      <trkpt lat="41.4870130" lon="-5.7549790">
        <ele>674.0</ele>
        <time>2021-10-13T16:47:59Z</time>
      </trkpt>
      <trkpt lat="41.4869880" lon="-5.7550080">
        <ele>674.2</ele>
        <time>2021-10-13T16:48:00Z</time>
      </trkpt>
      <trkpt lat="41.4869390" lon="-5.7550630">
        <ele>674.4</ele>
        <time>2021-10-13T16:48:02Z</time>
      </trkpt>
      <trkpt lat="41.4868900" lon="-5.7551260">
        <ele>674.4</ele>
        <time>2021-10-13T16:48:04Z</time>
      </trkpt>
      <trkpt lat="41.4868120" lon="-5.7552230">
        <ele>674.8</ele>
        <time>2021-10-13T16:48:07Z</time>
      </trkpt>
      <trkpt lat="41.4867040" lon="-5.7553270">
        <ele>675.4</ele>
        <time>2021-10-13T16:48:11Z</time>
      </trkpt>
      <trkpt lat="41.4866790" lon="-5.7553530">
        <ele>675.2</ele>
        <time>2021-10-13T16:48:12Z</time>
      </trkpt>
      <trkpt lat="41.4863960" lon="-5.7556200">
        <ele>676.2</ele>
        <time>2021-10-13T16:48:23Z</time>
      </trkpt>
      <trkpt lat="41.4862910" lon="-5.7557110">
        <ele>676.2</ele>
        <time>2021-10-13T16:48:27Z</time>
      </trkpt>
      <trkpt lat="41.4862680" lon="-5.7557270">
        <ele>676.4</ele>
        <time>2021-10-13T16:48:28Z</time>
      </trkpt>
      <trkpt lat="41.4861840" lon="-5.7557870">
        <ele>677.0</ele>
        <time>2021-10-13T16:48:31Z</time>
      </trkpt>
      <trkpt lat="41.4861060" lon="-5.7558450">
        <ele>677.4</ele>
        <time>2021-10-13T16:48:34Z</time>
      </trkpt>
      <trkpt lat="41.4859780" lon="-5.7559390">
        <ele>677.8</ele>
        <time>2021-10-13T16:48:39Z</time>
      </trkpt>
      <trkpt lat="41.4859540" lon="-5.7559580">
        <ele>678.0</ele>
        <time>2021-10-13T16:48:40Z</time>
      </trkpt>
      <trkpt lat="41.4858300" lon="-5.7560550">
        <ele>678.6</ele>
        <time>2021-10-13T16:48:45Z</time>
      </trkpt>
      <trkpt lat="41.4857520" lon="-5.7561120">
        <ele>678.6</ele>
        <time>2021-10-13T16:48:48Z</time>
      </trkpt>
      <trkpt lat="41.4856940" lon="-5.7561520">
        <ele>678.8</ele>
        <time>2021-10-13T16:48:50Z</time>
      </trkpt>
      <trkpt lat="41.4854440" lon="-5.7562870">
        <ele>679.4</ele>
        <time>2021-10-13T16:48:59Z</time>
      </trkpt>
      <trkpt lat="41.4853500" lon="-5.7563010">
        <ele>679.8</ele>
        <time>2021-10-13T16:49:02Z</time>
      </trkpt>
      <trkpt lat="41.4851860" lon="-5.7563090">
        <ele>680.0</ele>
        <time>2021-10-13T16:49:07Z</time>
      </trkpt>
      <trkpt lat="41.4851540" lon="-5.7563100">
        <ele>680.2</ele>
        <time>2021-10-13T16:49:08Z</time>
      </trkpt>
      <trkpt lat="41.4848150" lon="-5.7563140">
        <ele>680.8</ele>
        <time>2021-10-13T16:49:18Z</time>
      </trkpt>
      <trkpt lat="41.4846830" lon="-5.7563130">
        <ele>681.2</ele>
        <time>2021-10-13T16:49:22Z</time>
      </trkpt>
      <trkpt lat="41.4845500" lon="-5.7563210">
        <ele>681.2</ele>
        <time>2021-10-13T16:49:26Z</time>
      </trkpt>
      <trkpt lat="41.4844510" lon="-5.7563240">
        <ele>681.4</ele>
        <time>2021-10-13T16:49:29Z</time>
      </trkpt>
      <trkpt lat="41.4843350" lon="-5.7563320">
        <ele>681.4</ele>
        <time>2021-10-13T16:49:32Z</time>
      </trkpt>
      <trkpt lat="41.4841500" lon="-5.7563550">
        <ele>681.6</ele>
        <time>2021-10-13T16:49:37Z</time>
      </trkpt>
      <trkpt lat="41.4840820" lon="-5.7563620">
        <ele>681.4</ele>
        <time>2021-10-13T16:49:39Z</time>
      </trkpt>
      <trkpt lat="41.4838310" lon="-5.7564020">
        <ele>681.8</ele>
        <time>2021-10-13T16:49:45Z</time>
      </trkpt>
      <trkpt lat="41.4837060" lon="-5.7564210">
        <ele>681.6</ele>
        <time>2021-10-13T16:49:48Z</time>
      </trkpt>
      <trkpt lat="41.4836630" lon="-5.7564260">
        <ele>681.6</ele>
        <time>2021-10-13T16:49:49Z</time>
      </trkpt>
      <trkpt lat="41.4835420" lon="-5.7564480">
        <ele>681.8</ele>
        <time>2021-10-13T16:49:52Z</time>
      </trkpt>
      <trkpt lat="41.4834630" lon="-5.7564600">
        <ele>681.8</ele>
        <time>2021-10-13T16:49:54Z</time>
      </trkpt>
      <trkpt lat="41.4833860" lon="-5.7564690">
        <ele>681.8</ele>
        <time>2021-10-13T16:49:56Z</time>
      </trkpt>
      <trkpt lat="41.4833080" lon="-5.7564800">
        <ele>681.8</ele>
        <time>2021-10-13T16:49:58Z</time>
      </trkpt>
      <trkpt lat="41.4832690" lon="-5.7564870">
        <ele>681.8</ele>
        <time>2021-10-13T16:49:59Z</time>
      </trkpt>
      <trkpt lat="41.4831080" lon="-5.7565040">
        <ele>682.0</ele>
        <time>2021-10-13T16:50:03Z</time>
      </trkpt>
      <trkpt lat="41.4829490" lon="-5.7565260">
        <ele>682.2</ele>
        <time>2021-10-13T16:50:07Z</time>
      </trkpt>
      <trkpt lat="41.4828680" lon="-5.7565360">
        <ele>682.2</ele>
        <time>2021-10-13T16:50:09Z</time>
      </trkpt>
      <trkpt lat="41.4827490" lon="-5.7565480">
        <ele>682.2</ele>
        <time>2021-10-13T16:50:12Z</time>
      </trkpt>
      <trkpt lat="41.4825960" lon="-5.7565620">
        <ele>682.4</ele>
        <time>2021-10-13T16:50:16Z</time>
      </trkpt>
      <trkpt lat="41.4824120" lon="-5.7565750">
        <ele>682.8</ele>
        <time>2021-10-13T16:50:21Z</time>
      </trkpt>
      <trkpt lat="41.4822980" lon="-5.7565810">
        <ele>683.0</ele>
        <time>2021-10-13T16:50:24Z</time>
      </trkpt>
      <trkpt lat="41.4820910" lon="-5.7565900">
        <ele>683.8</ele>
        <time>2021-10-13T16:50:30Z</time>
      </trkpt>
      <trkpt lat="41.4819550" lon="-5.7566000">
        <ele>684.0</ele>
        <time>2021-10-13T16:50:34Z</time>
      </trkpt>
      <trkpt lat="41.4818850" lon="-5.7566000">
        <ele>684.2</ele>
        <time>2021-10-13T16:50:36Z</time>
      </trkpt>
      <trkpt lat="41.4818530" lon="-5.7566000">
        <ele>684.2</ele>
        <time>2021-10-13T16:50:37Z</time>
      </trkpt>
      <trkpt lat="41.4817560" lon="-5.7565970">
        <ele>684.4</ele>
        <time>2021-10-13T16:50:40Z</time>
      </trkpt>
      <trkpt lat="41.4816910" lon="-5.7565950">
        <ele>684.6</ele>
        <time>2021-10-13T16:50:42Z</time>
      </trkpt>
      <trkpt lat="41.4816250" lon="-5.7565980">
        <ele>684.8</ele>
        <time>2021-10-13T16:50:44Z</time>
      </trkpt>
      <trkpt lat="41.4814620" lon="-5.7565950">
        <ele>685.0</ele>
        <time>2021-10-13T16:50:49Z</time>
      </trkpt>
      <trkpt lat="41.4813960" lon="-5.7565890">
        <ele>685.4</ele>
        <time>2021-10-13T16:50:51Z</time>
      </trkpt>
      <trkpt lat="41.4813030" lon="-5.7565900">
        <ele>685.6</ele>
        <time>2021-10-13T16:50:54Z</time>
      </trkpt>
      <trkpt lat="41.4812140" lon="-5.7565830">
        <ele>685.8</ele>
        <time>2021-10-13T16:50:57Z</time>
      </trkpt>
      <trkpt lat="41.4810590" lon="-5.7565820">
        <ele>686.2</ele>
        <time>2021-10-13T16:51:02Z</time>
      </trkpt>
      <trkpt lat="41.4809980" lon="-5.7565840">
        <ele>686.4</ele>
        <time>2021-10-13T16:51:04Z</time>
      </trkpt>
      <trkpt lat="41.4809070" lon="-5.7565840">
        <ele>686.8</ele>
        <time>2021-10-13T16:51:07Z</time>
      </trkpt>
      <trkpt lat="41.4808750" lon="-5.7565830">
        <ele>686.8</ele>
        <time>2021-10-13T16:51:08Z</time>
      </trkpt>
      <trkpt lat="41.4807050" lon="-5.7565830">
        <ele>687.0</ele>
        <time>2021-10-13T16:51:13Z</time>
      </trkpt>
      <trkpt lat="41.4805700" lon="-5.7565830">
        <ele>687.0</ele>
        <time>2021-10-13T16:51:17Z</time>
      </trkpt>
      <trkpt lat="41.4803540" lon="-5.7565770">
        <ele>687.2</ele>
        <time>2021-10-13T16:51:23Z</time>
      </trkpt>
      <trkpt lat="41.4802390" lon="-5.7565740">
        <ele>687.4</ele>
        <time>2021-10-13T16:51:26Z</time>
      </trkpt>
      <trkpt lat="41.4800100" lon="-5.7565900">
        <ele>687.6</ele>
        <time>2021-10-13T16:51:32Z</time>
      </trkpt>
      <trkpt lat="41.4799740" lon="-5.7565890">
        <ele>687.6</ele>
        <time>2021-10-13T16:51:33Z</time>
      </trkpt>
      <trkpt lat="41.4798630" lon="-5.7565940">
        <ele>687.8</ele>
        <time>2021-10-13T16:51:36Z</time>
      </trkpt>
      <trkpt lat="41.4796430" lon="-5.7565740">
        <ele>687.8</ele>
        <time>2021-10-13T16:51:42Z</time>
      </trkpt>
      <trkpt lat="41.4792690" lon="-5.7565470">
        <ele>687.8</ele>
        <time>2021-10-13T16:51:51Z</time>
      </trkpt>
      <trkpt lat="41.4791800" lon="-5.7565390">
        <ele>687.6</ele>
        <time>2021-10-13T16:51:53Z</time>
      </trkpt>
      <trkpt lat="41.4788490" lon="-5.7565480">
        <ele>686.8</ele>
        <time>2021-10-13T16:52:00Z</time>
      </trkpt>
      <trkpt lat="41.4786530" lon="-5.7565860">
        <ele>686.2</ele>
        <time>2021-10-13T16:52:04Z</time>
      </trkpt>
      <trkpt lat="41.4785080" lon="-5.7566250">
        <ele>685.8</ele>
        <time>2021-10-13T16:52:07Z</time>
      </trkpt>
      <trkpt lat="41.4783370" lon="-5.7566720">
        <ele>685.4</ele>
        <time>2021-10-13T16:52:10Z</time>
      </trkpt>
      <trkpt lat="41.4782270" lon="-5.7567050">
        <ele>685.0</ele>
        <time>2021-10-13T16:52:12Z</time>
      </trkpt>
      <trkpt lat="41.4780690" lon="-5.7567520">
        <ele>684.6</ele>
        <time>2021-10-13T16:52:15Z</time>
      </trkpt>
      <trkpt lat="41.4777790" lon="-5.7568300">
        <ele>684.2</ele>
        <time>2021-10-13T16:52:20Z</time>
      </trkpt>
      <trkpt lat="41.4776220" lon="-5.7568640">
        <ele>684.0</ele>
        <time>2021-10-13T16:52:23Z</time>
      </trkpt>
      <trkpt lat="41.4775330" lon="-5.7568910">
        <ele>683.8</ele>
        <time>2021-10-13T16:52:25Z</time>
      </trkpt>
      <trkpt lat="41.4771500" lon="-5.7570640">
        <ele>683.4</ele>
        <time>2021-10-13T16:52:33Z</time>
      </trkpt>
      <trkpt lat="41.4769280" lon="-5.7571430">
        <ele>683.2</ele>
        <time>2021-10-13T16:52:39Z</time>
      </trkpt>
      <trkpt lat="41.4768210" lon="-5.7571600">
        <ele>683.2</ele>
        <time>2021-10-13T16:52:43Z</time>
      </trkpt>
      <trkpt lat="41.4768090" lon="-5.7571720">
        <ele>683.2</ele>
        <time>2021-10-13T16:52:44Z</time>
      </trkpt>
      <trkpt lat="41.4767300" lon="-5.7573080">
        <ele>683.0</ele>
        <time>2021-10-13T16:52:50Z</time>
      </trkpt>
      <trkpt lat="41.4766500" lon="-5.7574250">
        <ele>683.0</ele>
        <time>2021-10-13T16:52:54Z</time>
      </trkpt>
      <trkpt lat="41.4766000" lon="-5.7574970">
        <ele>683.0</ele>
        <time>2021-10-13T16:52:56Z</time>
      </trkpt>
      <trkpt lat="41.4765800" lon="-5.7575240">
        <ele>683.0</ele>
        <time>2021-10-13T16:52:57Z</time>
      </trkpt>
      <trkpt lat="41.4764020" lon="-5.7577150">
        <ele>682.8</ele>
        <time>2021-10-13T16:53:02Z</time>
      </trkpt>
      <trkpt lat="41.4761240" lon="-5.7579870">
        <ele>682.2</ele>
        <time>2021-10-13T16:53:09Z</time>
      </trkpt>
      <trkpt lat="41.4760440" lon="-5.7580630">
        <ele>682.0</ele>
        <time>2021-10-13T16:53:11Z</time>
      </trkpt>
      <trkpt lat="41.4758490" lon="-5.7582590">
        <ele>681.6</ele>
        <time>2021-10-13T16:53:16Z</time>
      </trkpt>
      <trkpt lat="41.4757770" lon="-5.7583410">
        <ele>681.4</ele>
        <time>2021-10-13T16:53:18Z</time>
      </trkpt>
      <trkpt lat="41.4756320" lon="-5.7585240">
        <ele>681.2</ele>
        <time>2021-10-13T16:53:22Z</time>
      </trkpt>
      <trkpt lat="41.4755910" lon="-5.7585710">
        <ele>681.2</ele>
        <time>2021-10-13T16:53:23Z</time>
      </trkpt>
      <trkpt lat="41.4754980" lon="-5.7586510">
        <ele>681.0</ele>
        <time>2021-10-13T16:53:25Z</time>
      </trkpt>
      <trkpt lat="41.4754490" lon="-5.7586790">
        <ele>681.0</ele>
        <time>2021-10-13T16:53:26Z</time>
      </trkpt>
      <trkpt lat="41.4752210" lon="-5.7587520">
        <ele>681.0</ele>
        <time>2021-10-13T16:53:30Z</time>
      </trkpt>
      <trkpt lat="41.4751100" lon="-5.7588100">
        <ele>680.8</ele>
        <time>2021-10-13T16:53:32Z</time>
      </trkpt>
      <trkpt lat="41.4747860" lon="-5.7590070">
        <ele>680.4</ele>
        <time>2021-10-13T16:53:38Z</time>
      </trkpt>
      <trkpt lat="41.4744800" lon="-5.7591210">
        <ele>680.2</ele>
        <time>2021-10-13T16:53:44Z</time>
      </trkpt>
      <trkpt lat="41.4744320" lon="-5.7591370">
        <ele>680.2</ele>
        <time>2021-10-13T16:53:45Z</time>
      </trkpt>
      <trkpt lat="41.4743380" lon="-5.7591520">
        <ele>680.4</ele>
        <time>2021-10-13T16:53:47Z</time>
      </trkpt>
      <trkpt lat="41.4742040" lon="-5.7591410">
        <ele>680.2</ele>
        <time>2021-10-13T16:53:50Z</time>
      </trkpt>
      <trkpt lat="41.4741260" lon="-5.7591030">
        <ele>680.2</ele>
        <time>2021-10-13T16:53:52Z</time>
      </trkpt>
      <trkpt lat="41.4740960" lon="-5.7590640">
        <ele>680.2</ele>
        <time>2021-10-13T16:53:53Z</time>
      </trkpt>
      <trkpt lat="41.4740750" lon="-5.7590150">
        <ele>680.2</ele>
        <time>2021-10-13T16:53:54Z</time>
      </trkpt>
      <trkpt lat="41.4740450" lon="-5.7588400">
        <ele>680.2</ele>
        <time>2021-10-13T16:53:57Z</time>
      </trkpt>
      <trkpt lat="41.4740120" lon="-5.7586670">
        <ele>680.0</ele>
        <time>2021-10-13T16:54:00Z</time>
      </trkpt>
      <trkpt lat="41.4739920" lon="-5.7586130">
        <ele>680.2</ele>
        <time>2021-10-13T16:54:01Z</time>
      </trkpt>
      <trkpt lat="41.4739670" lon="-5.7585680">
        <ele>680.2</ele>
        <time>2021-10-13T16:54:02Z</time>
      </trkpt>
      <trkpt lat="41.4738950" lon="-5.7585180">
        <ele>680.4</ele>
        <time>2021-10-13T16:54:04Z</time>
      </trkpt>
      <trkpt lat="41.4738550" lon="-5.7585150">
        <ele>680.4</ele>
        <time>2021-10-13T16:54:05Z</time>
      </trkpt>
      <trkpt lat="41.4736660" lon="-5.7585140">
        <ele>680.8</ele>
        <time>2021-10-13T16:54:10Z</time>
      </trkpt>
      <trkpt lat="41.4735990" lon="-5.7585090">
        <ele>681.0</ele>
        <time>2021-10-13T16:54:12Z</time>
      </trkpt>
      <trkpt lat="41.4733090" lon="-5.7585260">
        <ele>681.0</ele>
        <time>2021-10-13T16:54:19Z</time>
      </trkpt>
      <trkpt lat="41.4732270" lon="-5.7585730">
        <ele>681.0</ele>
        <time>2021-10-13T16:54:21Z</time>
      </trkpt>
      <trkpt lat="41.4731190" lon="-5.7586730">
        <ele>680.8</ele>
        <time>2021-10-13T16:54:24Z</time>
      </trkpt>
      <trkpt lat="41.4730300" lon="-5.7587900">
        <ele>680.6</ele>
        <time>2021-10-13T16:54:27Z</time>
      </trkpt>
      <trkpt lat="41.4729150" lon="-5.7589440">
        <ele>680.8</ele>
        <time>2021-10-13T16:54:31Z</time>
      </trkpt>
      <trkpt lat="41.4728850" lon="-5.7589830">
        <ele>680.8</ele>
        <time>2021-10-13T16:54:32Z</time>
      </trkpt>
      <trkpt lat="41.4725880" lon="-5.7593440">
        <ele>681.0</ele>
        <time>2021-10-13T16:54:41Z</time>
      </trkpt>
      <trkpt lat="41.4724050" lon="-5.7595430">
        <ele>681.2</ele>
        <time>2021-10-13T16:54:46Z</time>
      </trkpt>
      <trkpt lat="41.4722390" lon="-5.7596950">
        <ele>681.6</ele>
        <time>2021-10-13T16:54:50Z</time>
      </trkpt>
      <trkpt lat="41.4720190" lon="-5.7598550">
        <ele>681.8</ele>
        <time>2021-10-13T16:54:55Z</time>
      </trkpt>
      <trkpt lat="41.4718750" lon="-5.7599370">
        <ele>681.8</ele>
        <time>2021-10-13T16:54:58Z</time>
      </trkpt>
      <trkpt lat="41.4717760" lon="-5.7599900">
        <ele>682.0</ele>
        <time>2021-10-13T16:55:00Z</time>
      </trkpt>
      <trkpt lat="41.4713980" lon="-5.7601750">
        <ele>682.0</ele>
        <time>2021-10-13T16:55:08Z</time>
      </trkpt>
      <trkpt lat="41.4712130" lon="-5.7602640">
        <ele>682.4</ele>
        <time>2021-10-13T16:55:12Z</time>
      </trkpt>
      <trkpt lat="41.4709930" lon="-5.7603770">
        <ele>682.8</ele>
        <time>2021-10-13T16:55:17Z</time>
      </trkpt>
      <trkpt lat="41.4709500" lon="-5.7603950">
        <ele>683.0</ele>
        <time>2021-10-13T16:55:18Z</time>
      </trkpt>
      <trkpt lat="41.4708660" lon="-5.7604360">
        <ele>683.2</ele>
        <time>2021-10-13T16:55:20Z</time>
      </trkpt>
      <trkpt lat="41.4704760" lon="-5.7606880">
        <ele>684.0</ele>
        <time>2021-10-13T16:55:29Z</time>
      </trkpt>
      <trkpt lat="41.4704370" lon="-5.7607230">
        <ele>684.0</ele>
        <time>2021-10-13T16:55:30Z</time>
      </trkpt>
      <trkpt lat="41.4700800" lon="-5.7610470">
        <ele>684.4</ele>
        <time>2021-10-13T16:55:39Z</time>
      </trkpt>
      <trkpt lat="41.4700420" lon="-5.7610680">
        <ele>684.4</ele>
        <time>2021-10-13T16:55:40Z</time>
      </trkpt>
      <trkpt lat="41.4699240" lon="-5.7611370">
        <ele>684.6</ele>
        <time>2021-10-13T16:55:43Z</time>
      </trkpt>
      <trkpt lat="41.4697600" lon="-5.7612130">
        <ele>684.8</ele>
        <time>2021-10-13T16:55:47Z</time>
      </trkpt>
      <trkpt lat="41.4696760" lon="-5.7612510">
        <ele>685.0</ele>
        <time>2021-10-13T16:55:49Z</time>
      </trkpt>
      <trkpt lat="41.4695040" lon="-5.7613220">
        <ele>685.2</ele>
        <time>2021-10-13T16:55:53Z</time>
      </trkpt>
      <trkpt lat="41.4693330" lon="-5.7614050">
        <ele>685.2</ele>
        <time>2021-10-13T16:55:57Z</time>
      </trkpt>
      <trkpt lat="41.4692010" lon="-5.7614570">
        <ele>685.2</ele>
        <time>2021-10-13T16:56:00Z</time>
      </trkpt>
      <trkpt lat="41.4690230" lon="-5.7615210">
        <ele>685.2</ele>
        <time>2021-10-13T16:56:04Z</time>
      </trkpt>
      <trkpt lat="41.4687180" lon="-5.7616310">
        <ele>685.4</ele>
        <time>2021-10-13T16:56:11Z</time>
      </trkpt>
      <trkpt lat="41.4686750" lon="-5.7616490">
        <ele>685.4</ele>
        <time>2021-10-13T16:56:12Z</time>
      </trkpt>
      <trkpt lat="41.4685540" lon="-5.7616750">
        <ele>685.6</ele>
        <time>2021-10-13T16:56:15Z</time>
      </trkpt>
      <trkpt lat="41.4684430" lon="-5.7616860">
        <ele>686.0</ele>
        <time>2021-10-13T16:56:18Z</time>
      </trkpt>
      <trkpt lat="41.4684060" lon="-5.7616930">
        <ele>686.2</ele>
        <time>2021-10-13T16:56:19Z</time>
      </trkpt>
      <trkpt lat="41.4681920" lon="-5.7617160">
        <ele>686.6</ele>
        <time>2021-10-13T16:56:24Z</time>
      </trkpt>
      <trkpt lat="41.4680380" lon="-5.7617390">
        <ele>686.6</ele>
        <time>2021-10-13T16:56:27Z</time>
      </trkpt>
      <trkpt lat="41.4677280" lon="-5.7617980">
        <ele>686.2</ele>
        <time>2021-10-13T16:56:33Z</time>
      </trkpt>
      <trkpt lat="41.4676690" lon="-5.7618140">
        <ele>686.0</ele>
        <time>2021-10-13T16:56:34Z</time>
      </trkpt>
      <trkpt lat="41.4674870" lon="-5.7618810">
        <ele>685.8</ele>
        <time>2021-10-13T16:56:38Z</time>
      </trkpt>
      <trkpt lat="41.4673700" lon="-5.7619040">
        <ele>685.8</ele>
        <time>2021-10-13T16:56:41Z</time>
      </trkpt>
      <trkpt lat="41.4672440" lon="-5.7619500">
        <ele>686.2</ele>
        <time>2021-10-13T16:56:46Z</time>
      </trkpt>
      <trkpt lat="41.4671570" lon="-5.7619720">
        <ele>686.2</ele>
        <time>2021-10-13T16:56:49Z</time>
      </trkpt>
      <trkpt lat="41.4670890" lon="-5.7619820">
        <ele>686.4</ele>
        <time>2021-10-13T16:56:51Z</time>
      </trkpt>
      <trkpt lat="41.4668720" lon="-5.7620000">
        <ele>686.4</ele>
        <time>2021-10-13T16:56:56Z</time>
      </trkpt>
      <trkpt lat="41.4667430" lon="-5.7620180">
        <ele>686.8</ele>
        <time>2021-10-13T16:56:59Z</time>
      </trkpt>
      <trkpt lat="41.4665750" lon="-5.7620500">
        <ele>687.0</ele>
        <time>2021-10-13T16:57:03Z</time>
      </trkpt>
      <trkpt lat="41.4663930" lon="-5.7620610">
        <ele>687.4</ele>
        <time>2021-10-13T16:57:07Z</time>
      </trkpt>
      <trkpt lat="41.4661950" lon="-5.7620370">
        <ele>687.6</ele>
        <time>2021-10-13T16:57:11Z</time>
      </trkpt>
      <trkpt lat="41.4659980" lon="-5.7620140">
        <ele>687.8</ele>
        <time>2021-10-13T16:57:15Z</time>
      </trkpt>
      <trkpt lat="41.4658520" lon="-5.7619850">
        <ele>688.0</ele>
        <time>2021-10-13T16:57:18Z</time>
      </trkpt>
      <trkpt lat="41.4656580" lon="-5.7619710">
        <ele>688.0</ele>
        <time>2021-10-13T16:57:22Z</time>
      </trkpt>
      <trkpt lat="41.4655570" lon="-5.7619620">
        <ele>688.2</ele>
        <time>2021-10-13T16:57:24Z</time>
      </trkpt>
      <trkpt lat="41.4655050" lon="-5.7619500">
        <ele>688.2</ele>
        <time>2021-10-13T16:57:25Z</time>
      </trkpt>
      <trkpt lat="41.4654540" lon="-5.7619430">
        <ele>688.2</ele>
        <time>2021-10-13T16:57:26Z</time>
      </trkpt>
      <trkpt lat="41.4652480" lon="-5.7619500">
        <ele>688.2</ele>
        <time>2021-10-13T16:57:30Z</time>
      </trkpt>
      <trkpt lat="41.4650870" lon="-5.7619660">
        <ele>688.4</ele>
        <time>2021-10-13T16:57:33Z</time>
      </trkpt>
      <trkpt lat="41.4647980" lon="-5.7620070">
        <ele>688.4</ele>
        <time>2021-10-13T16:57:38Z</time>
      </trkpt>
      <trkpt lat="41.4647370" lon="-5.7620170">
        <ele>688.4</ele>
        <time>2021-10-13T16:57:39Z</time>
      </trkpt>
      <trkpt lat="41.4645560" lon="-5.7620430">
        <ele>688.2</ele>
        <time>2021-10-13T16:57:42Z</time>
      </trkpt>
      <trkpt lat="41.4644430" lon="-5.7620700">
        <ele>688.0</ele>
        <time>2021-10-13T16:57:44Z</time>
      </trkpt>
      <trkpt lat="41.4643390" lon="-5.7620900">
        <ele>688.0</ele>
        <time>2021-10-13T16:57:46Z</time>
      </trkpt>
      <trkpt lat="41.4642440" lon="-5.7621190">
        <ele>687.8</ele>
        <time>2021-10-13T16:57:48Z</time>
      </trkpt>
      <trkpt lat="41.4640890" lon="-5.7621340">
        <ele>687.6</ele>
        <time>2021-10-13T16:57:51Z</time>
      </trkpt>
      <trkpt lat="41.4638210" lon="-5.7621460">
        <ele>687.4</ele>
        <time>2021-10-13T16:57:56Z</time>
      </trkpt>
      <trkpt lat="41.4637660" lon="-5.7621400">
        <ele>687.4</ele>
        <time>2021-10-13T16:57:57Z</time>
      </trkpt>
      <trkpt lat="41.4636100" lon="-5.7621190">
        <ele>687.6</ele>
        <time>2021-10-13T16:58:00Z</time>
      </trkpt>
      <trkpt lat="41.4631770" lon="-5.7621050">
        <ele>688.4</ele>
        <time>2021-10-13T16:58:09Z</time>
      </trkpt>
      <trkpt lat="41.4630840" lon="-5.7621160">
        <ele>688.6</ele>
        <time>2021-10-13T16:58:11Z</time>
      </trkpt>
      <trkpt lat="41.4627930" lon="-5.7621590">
        <ele>688.8</ele>
        <time>2021-10-13T16:58:17Z</time>
      </trkpt>
      <trkpt lat="41.4626350" lon="-5.7621730">
        <ele>689.0</ele>
        <time>2021-10-13T16:58:20Z</time>
      </trkpt>
      <trkpt lat="41.4623370" lon="-5.7622060">
        <ele>689.4</ele>
        <time>2021-10-13T16:58:26Z</time>
      </trkpt>
      <trkpt lat="41.4621390" lon="-5.7622270">
        <ele>689.4</ele>
        <time>2021-10-13T16:58:30Z</time>
      </trkpt>
      <trkpt lat="41.4619890" lon="-5.7622420">
        <ele>689.4</ele>
        <time>2021-10-13T16:58:33Z</time>
      </trkpt>
      <trkpt lat="41.4618460" lon="-5.7622670">
        <ele>689.4</ele>
        <time>2021-10-13T16:58:36Z</time>
      </trkpt>
      <trkpt lat="41.4617500" lon="-5.7623070">
        <ele>689.4</ele>
        <time>2021-10-13T16:58:38Z</time>
      </trkpt>
      <trkpt lat="41.4615720" lon="-5.7624240">
        <ele>689.6</ele>
        <time>2021-10-13T16:58:42Z</time>
      </trkpt>
      <trkpt lat="41.4614810" lon="-5.7624740">
        <ele>689.6</ele>
        <time>2021-10-13T16:58:44Z</time>
      </trkpt>
      <trkpt lat="41.4613460" lon="-5.7625520">
        <ele>689.8</ele>
        <time>2021-10-13T16:58:47Z</time>
      </trkpt>
      <trkpt lat="41.4610780" lon="-5.7626940">
        <ele>689.8</ele>
        <time>2021-10-13T16:58:53Z</time>
      </trkpt>
      <trkpt lat="41.4606900" lon="-5.7629070">
        <ele>690.2</ele>
        <time>2021-10-13T16:59:02Z</time>
      </trkpt>
      <trkpt lat="41.4606140" lon="-5.7629640">
        <ele>690.4</ele>
        <time>2021-10-13T16:59:04Z</time>
      </trkpt>
      <trkpt lat="41.4605360" lon="-5.7630170">
        <ele>690.4</ele>
        <time>2021-10-13T16:59:06Z</time>
      </trkpt>
      <trkpt lat="41.4604970" lon="-5.7630300">
        <ele>690.4</ele>
        <time>2021-10-13T16:59:07Z</time>
      </trkpt>
      <trkpt lat="41.4604160" lon="-5.7630570">
        <ele>690.4</ele>
        <time>2021-10-13T16:59:09Z</time>
      </trkpt>
      <trkpt lat="41.4603400" lon="-5.7631000">
        <ele>690.6</ele>
        <time>2021-10-13T16:59:11Z</time>
      </trkpt>
      <trkpt lat="41.4602630" lon="-5.7631460">
        <ele>690.6</ele>
        <time>2021-10-13T16:59:13Z</time>
      </trkpt>
      <trkpt lat="41.4601460" lon="-5.7632150">
        <ele>690.8</ele>
        <time>2021-10-13T16:59:16Z</time>
      </trkpt>
      <trkpt lat="41.4600630" lon="-5.7632460">
        <ele>691.0</ele>
        <time>2021-10-13T16:59:18Z</time>
      </trkpt>
      <trkpt lat="41.4600230" lon="-5.7632650">
        <ele>691.0</ele>
        <time>2021-10-13T16:59:19Z</time>
      </trkpt>
      <trkpt lat="41.4599020" lon="-5.7633350">
        <ele>691.2</ele>
        <time>2021-10-13T16:59:22Z</time>
      </trkpt>
      <trkpt lat="41.4597800" lon="-5.7634050">
        <ele>691.4</ele>
        <time>2021-10-13T16:59:25Z</time>
      </trkpt>
      <trkpt lat="41.4596550" lon="-5.7634780">
        <ele>691.4</ele>
        <time>2021-10-13T16:59:28Z</time>
      </trkpt>
      <trkpt lat="41.4596130" lon="-5.7635020">
        <ele>691.6</ele>
        <time>2021-10-13T16:59:29Z</time>
      </trkpt>
      <trkpt lat="41.4593810" lon="-5.7636440">
        <ele>692.2</ele>
        <time>2021-10-13T16:59:35Z</time>
      </trkpt>
      <trkpt lat="41.4592290" lon="-5.7637400">
        <ele>692.6</ele>
        <time>2021-10-13T16:59:39Z</time>
      </trkpt>
      <trkpt lat="41.4591900" lon="-5.7637610">
        <ele>692.6</ele>
        <time>2021-10-13T16:59:40Z</time>
      </trkpt>
      <trkpt lat="41.4588300" lon="-5.7639550">
        <ele>692.8</ele>
        <time>2021-10-13T16:59:49Z</time>
      </trkpt>
      <trkpt lat="41.4587450" lon="-5.7640010">
        <ele>693.0</ele>
        <time>2021-10-13T16:59:51Z</time>
      </trkpt>
      <trkpt lat="41.4586300" lon="-5.7640900">
        <ele>693.2</ele>
        <time>2021-10-13T16:59:54Z</time>
      </trkpt>
      <trkpt lat="41.4585490" lon="-5.7641420">
        <ele>693.4</ele>
        <time>2021-10-13T16:59:56Z</time>
      </trkpt>
      <trkpt lat="41.4583360" lon="-5.7642550">
        <ele>693.6</ele>
        <time>2021-10-13T17:00:01Z</time>
      </trkpt>
      <trkpt lat="41.4582960" lon="-5.7642800">
        <ele>693.6</ele>
        <time>2021-10-13T17:00:02Z</time>
      </trkpt>
      <trkpt lat="41.4581710" lon="-5.7643580">
        <ele>693.8</ele>
        <time>2021-10-13T17:00:05Z</time>
      </trkpt>
      <trkpt lat="41.4580470" lon="-5.7644430">
        <ele>694.0</ele>
        <time>2021-10-13T17:00:08Z</time>
      </trkpt>
      <trkpt lat="41.4577900" lon="-5.7646230">
        <ele>694.2</ele>
        <time>2021-10-13T17:00:14Z</time>
      </trkpt>
      <trkpt lat="41.4576150" lon="-5.7647500">
        <ele>694.4</ele>
        <time>2021-10-13T17:00:18Z</time>
      </trkpt>
      <trkpt lat="41.4575020" lon="-5.7648620">
        <ele>694.4</ele>
        <time>2021-10-13T17:00:21Z</time>
      </trkpt>
      <trkpt lat="41.4574700" lon="-5.7648990">
        <ele>694.4</ele>
        <time>2021-10-13T17:00:22Z</time>
      </trkpt>
      <trkpt lat="41.4574400" lon="-5.7649410">
        <ele>694.4</ele>
        <time>2021-10-13T17:00:23Z</time>
      </trkpt>
      <trkpt lat="41.4572750" lon="-5.7651930">
        <ele>694.4</ele>
        <time>2021-10-13T17:00:28Z</time>
      </trkpt>
      <trkpt lat="41.4569840" lon="-5.7656580">
        <ele>694.2</ele>
        <time>2021-10-13T17:00:36Z</time>
      </trkpt>
      <trkpt lat="41.4569000" lon="-5.7657580">
        <ele>694.2</ele>
        <time>2021-10-13T17:00:38Z</time>
      </trkpt>
      <trkpt lat="41.4567500" lon="-5.7658710">
        <ele>694.4</ele>
        <time>2021-10-13T17:00:41Z</time>
      </trkpt>
      <trkpt lat="41.4566520" lon="-5.7659440">
        <ele>694.2</ele>
        <time>2021-10-13T17:00:43Z</time>
      </trkpt>
      <trkpt lat="41.4564570" lon="-5.7660770">
        <ele>694.2</ele>
        <time>2021-10-13T17:00:47Z</time>
      </trkpt>
      <trkpt lat="41.4564110" lon="-5.7661050">
        <ele>694.2</ele>
        <time>2021-10-13T17:00:48Z</time>
      </trkpt>
      <trkpt lat="41.4561750" lon="-5.7662620">
        <ele>693.6</ele>
        <time>2021-10-13T17:00:53Z</time>
      </trkpt>
      <trkpt lat="41.4560770" lon="-5.7663270">
        <ele>693.6</ele>
        <time>2021-10-13T17:00:55Z</time>
      </trkpt>
      <trkpt lat="41.4559790" lon="-5.7663870">
        <ele>693.8</ele>
        <time>2021-10-13T17:00:57Z</time>
      </trkpt>
      <trkpt lat="41.4557780" lon="-5.7665210">
        <ele>693.8</ele>
        <time>2021-10-13T17:01:01Z</time>
      </trkpt>
      <trkpt lat="41.4556800" lon="-5.7665910">
        <ele>693.8</ele>
        <time>2021-10-13T17:01:03Z</time>
      </trkpt>
      <trkpt lat="41.4555270" lon="-5.7666980">
        <ele>693.8</ele>
        <time>2021-10-13T17:01:06Z</time>
      </trkpt>
      <trkpt lat="41.4553070" lon="-5.7668630">
        <ele>693.8</ele>
        <time>2021-10-13T17:01:11Z</time>
      </trkpt>
      <trkpt lat="41.4551740" lon="-5.7669640">
        <ele>693.6</ele>
        <time>2021-10-13T17:01:14Z</time>
      </trkpt>
      <trkpt lat="41.4550330" lon="-5.7670740">
        <ele>693.4</ele>
        <time>2021-10-13T17:01:17Z</time>
      </trkpt>
      <trkpt lat="41.4549350" lon="-5.7671530">
        <ele>693.2</ele>
        <time>2021-10-13T17:01:19Z</time>
      </trkpt>
      <trkpt lat="41.4545380" lon="-5.7675060">
        <ele>693.0</ele>
        <time>2021-10-13T17:01:27Z</time>
      </trkpt>
      <trkpt lat="41.4544900" lon="-5.7675520">
        <ele>692.6</ele>
        <time>2021-10-13T17:01:28Z</time>
      </trkpt>
      <trkpt lat="41.4543270" lon="-5.7677150">
        <ele>692.4</ele>
        <time>2021-10-13T17:01:32Z</time>
      </trkpt>
      <trkpt lat="41.4542760" lon="-5.7677650">
        <ele>692.4</ele>
        <time>2021-10-13T17:01:34Z</time>
      </trkpt>
      <trkpt lat="41.4541450" lon="-5.7678610">
        <ele>692.2</ele>
        <time>2021-10-13T17:01:40Z</time>
      </trkpt>
      <trkpt lat="41.4539870" lon="-5.7680720">
        <ele>692.0</ele>
        <time>2021-10-13T17:01:47Z</time>
      </trkpt>
      <trkpt lat="41.4539010" lon="-5.7681710">
        <ele>692.0</ele>
        <time>2021-10-13T17:01:50Z</time>
      </trkpt>
      <trkpt lat="41.4538300" lon="-5.7682430">
        <ele>692.2</ele>
        <time>2021-10-13T17:01:52Z</time>
      </trkpt>
      <trkpt lat="41.4536920" lon="-5.7684180">
        <ele>692.2</ele>
        <time>2021-10-13T17:01:56Z</time>
      </trkpt>
      <trkpt lat="41.4536270" lon="-5.7685030">
        <ele>692.2</ele>
        <time>2021-10-13T17:01:58Z</time>
      </trkpt>
      <trkpt lat="41.4534120" lon="-5.7688110">
        <ele>692.2</ele>
        <time>2021-10-13T17:02:05Z</time>
      </trkpt>
      <trkpt lat="41.4533410" lon="-5.7689110">
        <ele>691.8</ele>
        <time>2021-10-13T17:02:07Z</time>
      </trkpt>
      <trkpt lat="41.4531800" lon="-5.7690980">
        <ele>691.8</ele>
        <time>2021-10-13T17:02:11Z</time>
      </trkpt>
      <trkpt lat="41.4531380" lon="-5.7691400">
        <ele>691.6</ele>
        <time>2021-10-13T17:02:12Z</time>
      </trkpt>
      <trkpt lat="41.4529720" lon="-5.7693060">
        <ele>691.6</ele>
        <time>2021-10-13T17:02:16Z</time>
      </trkpt>
      <trkpt lat="41.4529360" lon="-5.7693540">
        <ele>691.6</ele>
        <time>2021-10-13T17:02:17Z</time>
      </trkpt>
      <trkpt lat="41.4529020" lon="-5.7694060">
        <ele>691.6</ele>
        <time>2021-10-13T17:02:18Z</time>
      </trkpt>
      <trkpt lat="41.4528680" lon="-5.7694510">
        <ele>691.6</ele>
        <time>2021-10-13T17:02:19Z</time>
      </trkpt>
      <trkpt lat="41.4527490" lon="-5.7695410">
        <ele>691.4</ele>
        <time>2021-10-13T17:02:22Z</time>
      </trkpt>
      <trkpt lat="41.4527040" lon="-5.7695660">
        <ele>691.4</ele>
        <time>2021-10-13T17:02:23Z</time>
      </trkpt>
      <trkpt lat="41.4525860" lon="-5.7696360">
        <ele>691.2</ele>
        <time>2021-10-13T17:02:26Z</time>
      </trkpt>
      <trkpt lat="41.4525490" lon="-5.7696640">
        <ele>691.2</ele>
        <time>2021-10-13T17:02:27Z</time>
      </trkpt>
      <trkpt lat="41.4524450" lon="-5.7697480">
        <ele>691.4</ele>
        <time>2021-10-13T17:02:30Z</time>
      </trkpt>
      <trkpt lat="41.4523490" lon="-5.7698470">
        <ele>691.6</ele>
        <time>2021-10-13T17:02:33Z</time>
      </trkpt>
      <trkpt lat="41.4523200" lon="-5.7698910">
        <ele>691.6</ele>
        <time>2021-10-13T17:02:34Z</time>
      </trkpt>
      <trkpt lat="41.4522630" lon="-5.7699870">
        <ele>691.8</ele>
        <time>2021-10-13T17:02:36Z</time>
      </trkpt>
      <trkpt lat="41.4521950" lon="-5.7701460">
        <ele>691.8</ele>
        <time>2021-10-13T17:02:39Z</time>
      </trkpt>
      <trkpt lat="41.4521810" lon="-5.7701980">
        <ele>691.8</ele>
        <time>2021-10-13T17:02:40Z</time>
      </trkpt>
      <trkpt lat="41.4521450" lon="-5.7703450">
        <ele>691.8</ele>
        <time>2021-10-13T17:02:43Z</time>
      </trkpt>
      <trkpt lat="41.4520860" lon="-5.7704170">
        <ele>691.8</ele>
        <time>2021-10-13T17:02:45Z</time>
      </trkpt>
      <trkpt lat="41.4520000" lon="-5.7704410">
        <ele>691.8</ele>
        <time>2021-10-13T17:02:47Z</time>
      </trkpt>
      <trkpt lat="41.4519150" lon="-5.7704450">
        <ele>691.8</ele>
        <time>2021-10-13T17:02:49Z</time>
      </trkpt>
      <trkpt lat="41.4517320" lon="-5.7704480">
        <ele>692.0</ele>
        <time>2021-10-13T17:02:54Z</time>
      </trkpt>
      <trkpt lat="41.4516200" lon="-5.7704540">
        <ele>692.0</ele>
        <time>2021-10-13T17:02:57Z</time>
      </trkpt>
      <trkpt lat="41.4515510" lon="-5.7704580">
        <ele>692.0</ele>
        <time>2021-10-13T17:02:59Z</time>
      </trkpt>
      <trkpt lat="41.4513380" lon="-5.7704630">
        <ele>691.6</ele>
        <time>2021-10-13T17:03:05Z</time>
      </trkpt>
      <trkpt lat="41.4512170" lon="-5.7704650">
        <ele>691.6</ele>
        <time>2021-10-13T17:03:08Z</time>
      </trkpt>
      <trkpt lat="41.4508280" lon="-5.7704880">
        <ele>691.8</ele>
        <time>2021-10-13T17:03:17Z</time>
      </trkpt>
      <trkpt lat="41.4506610" lon="-5.7704970">
        <ele>692.0</ele>
        <time>2021-10-13T17:03:21Z</time>
      </trkpt>
      <trkpt lat="41.4504170" lon="-5.7705060">
        <ele>692.4</ele>
        <time>2021-10-13T17:03:27Z</time>
      </trkpt>
      <trkpt lat="41.4502950" lon="-5.7705150">
        <ele>692.6</ele>
        <time>2021-10-13T17:03:30Z</time>
      </trkpt>
      <trkpt lat="41.4501760" lon="-5.7705220">
        <ele>692.8</ele>
        <time>2021-10-13T17:03:33Z</time>
      </trkpt>
      <trkpt lat="41.4500670" lon="-5.7705270">
        <ele>692.8</ele>
        <time>2021-10-13T17:03:36Z</time>
      </trkpt>
      <trkpt lat="41.4500300" lon="-5.7705280">
        <ele>692.8</ele>
        <time>2021-10-13T17:03:37Z</time>
      </trkpt>
      <trkpt lat="41.4498940" lon="-5.7705370">
        <ele>693.4</ele>
        <time>2021-10-13T17:03:41Z</time>
      </trkpt>
      <trkpt lat="41.4498010" lon="-5.7705400">
        <ele>693.8</ele>
        <time>2021-10-13T17:03:44Z</time>
      </trkpt>
      <trkpt lat="41.4495620" lon="-5.7705590">
        <ele>694.6</ele>
        <time>2021-10-13T17:03:52Z</time>
      </trkpt>
      <trkpt lat="41.4495050" lon="-5.7705610">
        <ele>694.8</ele>
        <time>2021-10-13T17:03:54Z</time>
      </trkpt>
      <trkpt lat="41.4493350" lon="-5.7705690">
        <ele>695.8</ele>
        <time>2021-10-13T17:04:00Z</time>
      </trkpt>
      <trkpt lat="41.4493060" lon="-5.7705720">
        <ele>695.8</ele>
        <time>2021-10-13T17:04:01Z</time>
      </trkpt>
      <trkpt lat="41.4492140" lon="-5.7705730">
        <ele>696.0</ele>
        <time>2021-10-13T17:04:04Z</time>
      </trkpt>
      <trkpt lat="41.4490830" lon="-5.7705830">
        <ele>696.0</ele>
        <time>2021-10-13T17:04:08Z</time>
      </trkpt>
      <trkpt lat="41.4489540" lon="-5.7705940">
        <ele>696.0</ele>
        <time>2021-10-13T17:04:12Z</time>
      </trkpt>
      <trkpt lat="41.4487940" lon="-5.7705940">
        <ele>696.2</ele>
        <time>2021-10-13T17:04:17Z</time>
      </trkpt>
      <trkpt lat="41.4486990" lon="-5.7706000">
        <ele>696.4</ele>
        <time>2021-10-13T17:04:20Z</time>
      </trkpt>
      <trkpt lat="41.4486270" lon="-5.7706000">
        <ele>696.4</ele>
        <time>2021-10-13T17:04:22Z</time>
      </trkpt>
      <trkpt lat="41.4485940" lon="-5.7706010">
        <ele>696.4</ele>
        <time>2021-10-13T17:04:23Z</time>
      </trkpt>
      <trkpt lat="41.4484890" lon="-5.7706070">
        <ele>696.6</ele>
        <time>2021-10-13T17:04:26Z</time>
      </trkpt>
      <trkpt lat="41.4483540" lon="-5.7706290">
        <ele>696.8</ele>
        <time>2021-10-13T17:04:30Z</time>
      </trkpt>
      <trkpt lat="41.4482850" lon="-5.7706340">
        <ele>696.8</ele>
        <time>2021-10-13T17:04:32Z</time>
      </trkpt>
      <trkpt lat="41.4481340" lon="-5.7706310">
        <ele>697.0</ele>
        <time>2021-10-13T17:04:36Z</time>
      </trkpt>
      <trkpt lat="41.4479760" lon="-5.7706410">
        <ele>696.8</ele>
        <time>2021-10-13T17:04:40Z</time>
      </trkpt>
      <trkpt lat="41.4476380" lon="-5.7706590">
        <ele>696.8</ele>
        <time>2021-10-13T17:04:48Z</time>
      </trkpt>
      <trkpt lat="41.4473320" lon="-5.7706810">
        <ele>697.4</ele>
        <time>2021-10-13T17:04:56Z</time>
      </trkpt>
      <trkpt lat="41.4472580" lon="-5.7706800">
        <ele>697.6</ele>
        <time>2021-10-13T17:04:58Z</time>
      </trkpt>
      <trkpt lat="41.4472190" lon="-5.7706800">
        <ele>697.8</ele>
        <time>2021-10-13T17:04:59Z</time>
      </trkpt>
      <trkpt lat="41.4468980" lon="-5.7706900">
        <ele>697.6</ele>
        <time>2021-10-13T17:05:07Z</time>
      </trkpt>
      <trkpt lat="41.4467840" lon="-5.7707000">
        <ele>697.6</ele>
        <time>2021-10-13T17:05:10Z</time>
      </trkpt>
      <trkpt lat="41.4466260" lon="-5.7707110">
        <ele>697.8</ele>
        <time>2021-10-13T17:05:14Z</time>
      </trkpt>
      <trkpt lat="41.4465500" lon="-5.7707170">
        <ele>698.0</ele>
        <time>2021-10-13T17:05:16Z</time>
      </trkpt>
      <trkpt lat="41.4464370" lon="-5.7707240">
        <ele>698.0</ele>
        <time>2021-10-13T17:05:19Z</time>
      </trkpt>
      <trkpt lat="41.4462120" lon="-5.7707300">
        <ele>698.6</ele>
        <time>2021-10-13T17:05:25Z</time>
      </trkpt>
      <trkpt lat="41.4461070" lon="-5.7707390">
        <ele>698.8</ele>
        <time>2021-10-13T17:05:28Z</time>
      </trkpt>
      <trkpt lat="41.4460730" lon="-5.7707410">
        <ele>699.0</ele>
        <time>2021-10-13T17:05:29Z</time>
      </trkpt>
      <trkpt lat="41.4459320" lon="-5.7707490">
        <ele>699.2</ele>
        <time>2021-10-13T17:05:33Z</time>
      </trkpt>
      <trkpt lat="41.4457900" lon="-5.7707580">
        <ele>699.4</ele>
        <time>2021-10-13T17:05:37Z</time>
      </trkpt>
      <trkpt lat="41.4455110" lon="-5.7707650">
        <ele>699.6</ele>
        <time>2021-10-13T17:05:45Z</time>
      </trkpt>
      <trkpt lat="41.4453680" lon="-5.7707800">
        <ele>700.2</ele>
        <time>2021-10-13T17:05:49Z</time>
      </trkpt>
      <trkpt lat="41.4452380" lon="-5.7707860">
        <ele>700.4</ele>
        <time>2021-10-13T17:05:53Z</time>
      </trkpt>
      <trkpt lat="41.4450750" lon="-5.7707940">
        <ele>700.4</ele>
        <time>2021-10-13T17:05:58Z</time>
      </trkpt>
      <trkpt lat="41.4449310" lon="-5.7708060">
        <ele>700.4</ele>
        <time>2021-10-13T17:06:02Z</time>
      </trkpt>
      <trkpt lat="41.4448960" lon="-5.7708110">
        <ele>700.4</ele>
        <time>2021-10-13T17:06:03Z</time>
      </trkpt>
      <trkpt lat="41.4446600" lon="-5.7708300">
        <ele>700.8</ele>
        <time>2021-10-13T17:06:10Z</time>
      </trkpt>
      <trkpt lat="41.4445810" lon="-5.7708320">
        <ele>700.8</ele>
        <time>2021-10-13T17:06:12Z</time>
      </trkpt>
      <trkpt lat="41.4445420" lon="-5.7708340">
        <ele>700.8</ele>
        <time>2021-10-13T17:06:13Z</time>
      </trkpt>
      <trkpt lat="41.4444690" lon="-5.7708430">
        <ele>700.8</ele>
        <time>2021-10-13T17:06:15Z</time>
      </trkpt>
      <trkpt lat="41.4442180" lon="-5.7708670">
        <ele>700.8</ele>
        <time>2021-10-13T17:06:22Z</time>
      </trkpt>
      <trkpt lat="41.4440260" lon="-5.7708330">
        <ele>700.6</ele>
        <time>2021-10-13T17:06:28Z</time>
      </trkpt>
      <trkpt lat="41.4439300" lon="-5.7707080">
        <ele>700.6</ele>
        <time>2021-10-13T17:06:33Z</time>
      </trkpt>
      <trkpt lat="41.4438840" lon="-5.7705900">
        <ele>700.6</ele>
        <time>2021-10-13T17:06:37Z</time>
      </trkpt>
      <trkpt lat="41.4438380" lon="-5.7704940">
        <ele>700.4</ele>
        <time>2021-10-13T17:06:40Z</time>
      </trkpt>
      <trkpt lat="41.4437960" lon="-5.7703930">
        <ele>700.2</ele>
        <time>2021-10-13T17:06:43Z</time>
      </trkpt>
      <trkpt lat="41.4437070" lon="-5.7701730">
        <ele>699.8</ele>
        <time>2021-10-13T17:06:49Z</time>
      </trkpt>
      <trkpt lat="41.4436190" lon="-5.7699690">
        <ele>699.6</ele>
        <time>2021-10-13T17:06:55Z</time>
      </trkpt>
      <trkpt lat="41.4435510" lon="-5.7698160">
        <ele>699.4</ele>
        <time>2021-10-13T17:07:00Z</time>
      </trkpt>
      <trkpt lat="41.4433950" lon="-5.7694210">
        <ele>699.2</ele>
        <time>2021-10-13T17:07:10Z</time>
      </trkpt>
      <trkpt lat="41.4433090" lon="-5.7692410">
        <ele>699.4</ele>
        <time>2021-10-13T17:07:15Z</time>
      </trkpt>
      <trkpt lat="41.4432810" lon="-5.7691620">
        <ele>699.4</ele>
        <time>2021-10-13T17:07:17Z</time>
      </trkpt>
      <trkpt lat="41.4431260" lon="-5.7687840">
        <ele>700.0</ele>
        <time>2021-10-13T17:07:27Z</time>
      </trkpt>
      <trkpt lat="41.4430170" lon="-5.7685130">
        <ele>700.4</ele>
        <time>2021-10-13T17:07:34Z</time>
      </trkpt>
      <trkpt lat="41.4429450" lon="-5.7683380">
        <ele>700.2</ele>
        <time>2021-10-13T17:07:38Z</time>
      </trkpt>
      <trkpt lat="41.4427890" lon="-5.7679800">
        <ele>700.0</ele>
        <time>2021-10-13T17:07:46Z</time>
      </trkpt>
      <trkpt lat="41.4426210" lon="-5.7676500">
        <ele>699.6</ele>
        <time>2021-10-13T17:07:54Z</time>
      </trkpt>
      <trkpt lat="41.4425240" lon="-5.7674580">
        <ele>699.4</ele>
        <time>2021-10-13T17:07:59Z</time>
      </trkpt>
      <trkpt lat="41.4424750" lon="-5.7673550">
        <ele>699.2</ele>
        <time>2021-10-13T17:08:02Z</time>
      </trkpt>
      <trkpt lat="41.4424630" lon="-5.7673200">
        <ele>699.2</ele>
        <time>2021-10-13T17:08:03Z</time>
      </trkpt>
      <trkpt lat="41.4423660" lon="-5.7671190">
        <ele>699.0</ele>
        <time>2021-10-13T17:08:10Z</time>
      </trkpt>
      <trkpt lat="41.4423620" lon="-5.7671110">
        <ele>699.0</ele>
        <time>2021-10-13T17:08:13Z</time>
      </trkpt>
      <trkpt lat="41.4423150" lon="-5.7670790">
        <ele>698.8</ele>
        <time>2021-10-13T17:08:27Z</time>
      </trkpt>
      <trkpt lat="41.4422640" lon="-5.7671860">
        <ele>698.8</ele>
        <time>2021-10-13T17:08:31Z</time>
      </trkpt>
      <trkpt lat="41.4422130" lon="-5.7672610">
        <ele>698.2</ele>
        <time>2021-10-13T17:08:37Z</time>
      </trkpt>
      <trkpt lat="41.4422130" lon="-5.7672610">
        <ele>698.2</ele>
        <time>2021-10-13T17:08:38Z</time>
      </trkpt>
      <trkpt lat="41.4421740" lon="-5.7672540">
        <ele>698.6</ele>
        <time>2021-10-13T17:10:27Z</time>
      </trkpt>
      <trkpt lat="41.4421510" lon="-5.7672520">
        <ele>698.8</ele>
        <time>2021-10-13T17:10:28Z</time>
      </trkpt>
      <trkpt lat="41.4421270" lon="-5.7672490">
        <ele>698.8</ele>
        <time>2021-10-13T17:10:29Z</time>
      </trkpt>
      <trkpt lat="41.4419380" lon="-5.7672040">
        <ele>698.4</ele>
        <time>2021-10-13T17:10:36Z</time>
      </trkpt>
      <trkpt lat="41.4417100" lon="-5.7671950">
        <ele>698.4</ele>
        <time>2021-10-13T17:10:44Z</time>
      </trkpt>
      <trkpt lat="41.4415680" lon="-5.7671950">
        <ele>698.6</ele>
        <time>2021-10-13T17:10:49Z</time>
      </trkpt>
      <trkpt lat="41.4414300" lon="-5.7671770">
        <ele>699.2</ele>
        <time>2021-10-13T17:10:54Z</time>
      </trkpt>
      <trkpt lat="41.4413670" lon="-5.7671750">
        <ele>699.4</ele>
        <time>2021-10-13T17:10:56Z</time>
      </trkpt>
      <trkpt lat="41.4411590" lon="-5.7671700">
        <ele>700.0</ele>
        <time>2021-10-13T17:11:03Z</time>
      </trkpt>
      <trkpt lat="41.4411340" lon="-5.7671710">
        <ele>700.2</ele>
        <time>2021-10-13T17:11:04Z</time>
      </trkpt>
      <trkpt lat="41.4409230" lon="-5.7671650">
        <ele>700.8</ele>
        <time>2021-10-13T17:11:11Z</time>
      </trkpt>
      <trkpt lat="41.4408450" lon="-5.7671790">
        <ele>701.4</ele>
        <time>2021-10-13T17:11:14Z</time>
      </trkpt>
      <trkpt lat="41.4407310" lon="-5.7671750">
        <ele>701.8</ele>
        <time>2021-10-13T17:11:18Z</time>
      </trkpt>
      <trkpt lat="41.4405730" lon="-5.7671830">
        <ele>702.0</ele>
        <time>2021-10-13T17:11:23Z</time>
      </trkpt>
      <trkpt lat="41.4405310" lon="-5.7671940">
        <ele>702.0</ele>
        <time>2021-10-13T17:11:24Z</time>
      </trkpt>
      <trkpt lat="41.4403590" lon="-5.7672500">
        <ele>702.0</ele>
        <time>2021-10-13T17:11:29Z</time>
      </trkpt>
      <trkpt lat="41.4403170" lon="-5.7672690">
        <ele>702.0</ele>
        <time>2021-10-13T17:11:30Z</time>
      </trkpt>
      <trkpt lat="41.4401200" lon="-5.7673270">
        <ele>702.4</ele>
        <time>2021-10-13T17:11:36Z</time>
      </trkpt>
      <trkpt lat="41.4400930" lon="-5.7673330">
        <ele>702.4</ele>
        <time>2021-10-13T17:11:37Z</time>
      </trkpt>
      <trkpt lat="41.4398910" lon="-5.7673680">
        <ele>703.2</ele>
        <time>2021-10-13T17:11:44Z</time>
      </trkpt>
      <trkpt lat="41.4398180" lon="-5.7673810">
        <ele>703.4</ele>
        <time>2021-10-13T17:11:47Z</time>
      </trkpt>
      <trkpt lat="41.4396840" lon="-5.7673970">
        <ele>703.8</ele>
        <time>2021-10-13T17:11:52Z</time>
      </trkpt>
      <trkpt lat="41.4395990" lon="-5.7674120">
        <ele>704.0</ele>
        <time>2021-10-13T17:11:55Z</time>
      </trkpt>
      <trkpt lat="41.4395740" lon="-5.7674170">
        <ele>704.0</ele>
        <time>2021-10-13T17:11:56Z</time>
      </trkpt>
      <trkpt lat="41.4394990" lon="-5.7674270">
        <ele>704.2</ele>
        <time>2021-10-13T17:11:59Z</time>
      </trkpt>
      <trkpt lat="41.4393390" lon="-5.7674380">
        <ele>704.4</ele>
        <time>2021-10-13T17:12:05Z</time>
      </trkpt>
      <trkpt lat="41.4392740" lon="-5.7674510">
        <ele>704.6</ele>
        <time>2021-10-13T17:12:08Z</time>
      </trkpt>
      <trkpt lat="41.4390980" lon="-5.7674860">
        <ele>705.0</ele>
        <time>2021-10-13T17:12:15Z</time>
      </trkpt>
      <trkpt lat="41.4390740" lon="-5.7674890">
        <ele>705.0</ele>
        <time>2021-10-13T17:12:16Z</time>
      </trkpt>
      <trkpt lat="41.4389400" lon="-5.7675090">
        <ele>705.4</ele>
        <time>2021-10-13T17:12:22Z</time>
      </trkpt>
      <trkpt lat="41.4388110" lon="-5.7675150">
        <ele>705.8</ele>
        <time>2021-10-13T17:12:28Z</time>
      </trkpt>
      <trkpt lat="41.4387090" lon="-5.7675170">
        <ele>706.0</ele>
        <time>2021-10-13T17:12:32Z</time>
      </trkpt>
      <trkpt lat="41.4386530" lon="-5.7675230">
        <ele>706.0</ele>
        <time>2021-10-13T17:12:34Z</time>
      </trkpt>
      <trkpt lat="41.4384340" lon="-5.7675780">
        <ele>706.4</ele>
        <time>2021-10-13T17:12:42Z</time>
      </trkpt>
      <trkpt lat="41.4383700" lon="-5.7675860">
        <ele>706.6</ele>
        <time>2021-10-13T17:12:44Z</time>
      </trkpt>
      <trkpt lat="41.4382820" lon="-5.7676060">
        <ele>706.8</ele>
        <time>2021-10-13T17:12:47Z</time>
      </trkpt>
      <trkpt lat="41.4381030" lon="-5.7676320">
        <ele>706.8</ele>
        <time>2021-10-13T17:12:53Z</time>
      </trkpt>
      <trkpt lat="41.4380720" lon="-5.7676400">
        <ele>707.0</ele>
        <time>2021-10-13T17:12:54Z</time>
      </trkpt>
      <trkpt lat="41.4380170" lon="-5.7676520">
        <ele>707.2</ele>
        <time>2021-10-13T17:12:56Z</time>
      </trkpt>
      <trkpt lat="41.4378670" lon="-5.7676550">
        <ele>707.4</ele>
        <time>2021-10-13T17:13:01Z</time>
      </trkpt>
      <trkpt lat="41.4378050" lon="-5.7676620">
        <ele>707.8</ele>
        <time>2021-10-13T17:13:03Z</time>
      </trkpt>
      <trkpt lat="41.4377220" lon="-5.7676650">
        <ele>708.0</ele>
        <time>2021-10-13T17:13:06Z</time>
      </trkpt>
      <trkpt lat="41.4374600" lon="-5.7676840">
        <ele>708.2</ele>
        <time>2021-10-13T17:13:14Z</time>
      </trkpt>
      <trkpt lat="41.4371360" lon="-5.7677060">
        <ele>708.6</ele>
        <time>2021-10-13T17:13:23Z</time>
      </trkpt>
      <trkpt lat="41.4369860" lon="-5.7677040">
        <ele>708.8</ele>
        <time>2021-10-13T17:13:27Z</time>
      </trkpt>
      <trkpt lat="41.4368840" lon="-5.7676940">
        <ele>709.0</ele>
        <time>2021-10-13T17:13:30Z</time>
      </trkpt>
      <trkpt lat="41.4367480" lon="-5.7676850">
        <ele>709.0</ele>
        <time>2021-10-13T17:13:34Z</time>
      </trkpt>
      <trkpt lat="41.4367100" lon="-5.7676770">
        <ele>709.0</ele>
        <time>2021-10-13T17:13:35Z</time>
      </trkpt>
      <trkpt lat="41.4364330" lon="-5.7676190">
        <ele>709.2</ele>
        <time>2021-10-13T17:13:43Z</time>
      </trkpt>
      <trkpt lat="41.4362630" lon="-5.7676150">
        <ele>709.2</ele>
        <time>2021-10-13T17:13:48Z</time>
      </trkpt>
      <trkpt lat="41.4362000" lon="-5.7676200">
        <ele>709.2</ele>
        <time>2021-10-13T17:13:50Z</time>
      </trkpt>
      <trkpt lat="41.4361040" lon="-5.7676170">
        <ele>709.6</ele>
        <time>2021-10-13T17:13:53Z</time>
      </trkpt>
      <trkpt lat="41.4360510" lon="-5.7676030">
        <ele>709.8</ele>
        <time>2021-10-13T17:13:55Z</time>
      </trkpt>
      <trkpt lat="41.4360210" lon="-5.7675950">
        <ele>709.8</ele>
        <time>2021-10-13T17:13:56Z</time>
      </trkpt>
      <trkpt lat="41.4359850" lon="-5.7675860">
        <ele>709.8</ele>
        <time>2021-10-13T17:13:57Z</time>
      </trkpt>
      <trkpt lat="41.4359030" lon="-5.7675630">
        <ele>709.8</ele>
        <time>2021-10-13T17:14:00Z</time>
      </trkpt>
      <trkpt lat="41.4357810" lon="-5.7675200">
        <ele>710.0</ele>
        <time>2021-10-13T17:14:04Z</time>
      </trkpt>
      <trkpt lat="41.4357540" lon="-5.7675130">
        <ele>710.0</ele>
        <time>2021-10-13T17:14:05Z</time>
      </trkpt>
      <trkpt lat="41.4356130" lon="-5.7674730">
        <ele>710.0</ele>
        <time>2021-10-13T17:14:09Z</time>
      </trkpt>
      <trkpt lat="41.4355530" lon="-5.7674650">
        <ele>710.0</ele>
        <time>2021-10-13T17:14:11Z</time>
      </trkpt>
      <trkpt lat="41.4355220" lon="-5.7674620">
        <ele>710.0</ele>
        <time>2021-10-13T17:14:12Z</time>
      </trkpt>
      <trkpt lat="41.4352440" lon="-5.7674990">
        <ele>710.4</ele>
        <time>2021-10-13T17:14:20Z</time>
      </trkpt>
      <trkpt lat="41.4350950" lon="-5.7675230">
        <ele>710.6</ele>
        <time>2021-10-13T17:14:25Z</time>
      </trkpt>
      <trkpt lat="41.4350640" lon="-5.7675250">
        <ele>710.8</ele>
        <time>2021-10-13T17:14:26Z</time>
      </trkpt>
      <trkpt lat="41.4349660" lon="-5.7675360">
        <ele>711.0</ele>
        <time>2021-10-13T17:14:29Z</time>
      </trkpt>
      <trkpt lat="41.4349150" lon="-5.7675520">
        <ele>711.2</ele>
        <time>2021-10-13T17:14:31Z</time>
      </trkpt>
      <trkpt lat="41.4347990" lon="-5.7675700">
        <ele>711.4</ele>
        <time>2021-10-13T17:14:35Z</time>
      </trkpt>
      <trkpt lat="41.4347370" lon="-5.7675850">
        <ele>711.4</ele>
        <time>2021-10-13T17:14:37Z</time>
      </trkpt>
      <trkpt lat="41.4346530" lon="-5.7676070">
        <ele>711.6</ele>
        <time>2021-10-13T17:14:40Z</time>
      </trkpt>
      <trkpt lat="41.4345650" lon="-5.7676310">
        <ele>711.8</ele>
        <time>2021-10-13T17:14:43Z</time>
      </trkpt>
      <trkpt lat="41.4345120" lon="-5.7676440">
        <ele>712.0</ele>
        <time>2021-10-13T17:14:45Z</time>
      </trkpt>
      <trkpt lat="41.4344850" lon="-5.7676480">
        <ele>712.0</ele>
        <time>2021-10-13T17:14:46Z</time>
      </trkpt>
      <trkpt lat="41.4343990" lon="-5.7676560">
        <ele>712.2</ele>
        <time>2021-10-13T17:14:49Z</time>
      </trkpt>
      <trkpt lat="41.4342560" lon="-5.7676710">
        <ele>712.8</ele>
        <time>2021-10-13T17:14:54Z</time>
      </trkpt>
      <trkpt lat="41.4341650" lon="-5.7676850">
        <ele>712.8</ele>
        <time>2021-10-13T17:14:57Z</time>
      </trkpt>
      <trkpt lat="41.4341050" lon="-5.7676950">
        <ele>712.8</ele>
        <time>2021-10-13T17:14:59Z</time>
      </trkpt>
      <trkpt lat="41.4339850" lon="-5.7677200">
        <ele>713.0</ele>
        <time>2021-10-13T17:15:03Z</time>
      </trkpt>
      <trkpt lat="41.4339020" lon="-5.7677440">
        <ele>713.0</ele>
        <time>2021-10-13T17:15:06Z</time>
      </trkpt>
      <trkpt lat="41.4337710" lon="-5.7677660">
        <ele>713.4</ele>
        <time>2021-10-13T17:15:11Z</time>
      </trkpt>
      <trkpt lat="41.4336410" lon="-5.7678070">
        <ele>714.0</ele>
        <time>2021-10-13T17:15:16Z</time>
      </trkpt>
      <trkpt lat="41.4335760" lon="-5.7678160">
        <ele>714.2</ele>
        <time>2021-10-13T17:15:18Z</time>
      </trkpt>
      <trkpt lat="41.4334850" lon="-5.7678210">
        <ele>714.4</ele>
        <time>2021-10-13T17:15:21Z</time>
      </trkpt>
      <trkpt lat="41.4333940" lon="-5.7678210">
        <ele>714.6</ele>
        <time>2021-10-13T17:15:24Z</time>
      </trkpt>
      <trkpt lat="41.4333090" lon="-5.7678410">
        <ele>714.8</ele>
        <time>2021-10-13T17:15:27Z</time>
      </trkpt>
      <trkpt lat="41.4330700" lon="-5.7678780">
        <ele>715.0</ele>
        <time>2021-10-13T17:15:34Z</time>
      </trkpt>
      <trkpt lat="41.4330390" lon="-5.7678840">
        <ele>715.0</ele>
        <time>2021-10-13T17:15:35Z</time>
      </trkpt>
      <trkpt lat="41.4329440" lon="-5.7679050">
        <ele>715.2</ele>
        <time>2021-10-13T17:15:38Z</time>
      </trkpt>
      <trkpt lat="41.4327930" lon="-5.7679550">
        <ele>715.2</ele>
        <time>2021-10-13T17:15:43Z</time>
      </trkpt>
      <trkpt lat="41.4325280" lon="-5.7680220">
        <ele>715.6</ele>
        <time>2021-10-13T17:15:51Z</time>
      </trkpt>
      <trkpt lat="41.4323400" lon="-5.7680320">
        <ele>716.0</ele>
        <time>2021-10-13T17:15:57Z</time>
      </trkpt>
      <trkpt lat="41.4323110" lon="-5.7680400">
        <ele>716.2</ele>
        <time>2021-10-13T17:15:58Z</time>
      </trkpt>
      <trkpt lat="41.4321910" lon="-5.7680820">
        <ele>716.4</ele>
        <time>2021-10-13T17:16:02Z</time>
      </trkpt>
      <trkpt lat="41.4321370" lon="-5.7680980">
        <ele>716.6</ele>
        <time>2021-10-13T17:16:04Z</time>
      </trkpt>
      <trkpt lat="41.4320590" lon="-5.7681170">
        <ele>716.8</ele>
        <time>2021-10-13T17:16:07Z</time>
      </trkpt>
      <trkpt lat="41.4319490" lon="-5.7681570">
        <ele>717.0</ele>
        <time>2021-10-13T17:16:11Z</time>
      </trkpt>
      <trkpt lat="41.4316860" lon="-5.7682740">
        <ele>717.0</ele>
        <time>2021-10-13T17:16:20Z</time>
      </trkpt>
      <trkpt lat="41.4316570" lon="-5.7682900">
        <ele>717.0</ele>
        <time>2021-10-13T17:16:21Z</time>
      </trkpt>
      <trkpt lat="41.4315990" lon="-5.7683130">
        <ele>717.0</ele>
        <time>2021-10-13T17:16:23Z</time>
      </trkpt>
      <trkpt lat="41.4315160" lon="-5.7683400">
        <ele>717.2</ele>
        <time>2021-10-13T17:16:26Z</time>
      </trkpt>
      <trkpt lat="41.4314520" lon="-5.7683580">
        <ele>717.2</ele>
        <time>2021-10-13T17:16:28Z</time>
      </trkpt>
      <trkpt lat="41.4313950" lon="-5.7683720">
        <ele>717.2</ele>
        <time>2021-10-13T17:16:30Z</time>
      </trkpt>
      <trkpt lat="41.4312890" lon="-5.7683920">
        <ele>717.8</ele>
        <time>2021-10-13T17:16:34Z</time>
      </trkpt>
      <trkpt lat="41.4312020" lon="-5.7684150">
        <ele>718.0</ele>
        <time>2021-10-13T17:16:37Z</time>
      </trkpt>
      <trkpt lat="41.4311460" lon="-5.7684310">
        <ele>718.2</ele>
        <time>2021-10-13T17:16:39Z</time>
      </trkpt>
      <trkpt lat="41.4310320" lon="-5.7684980">
        <ele>718.4</ele>
        <time>2021-10-13T17:16:44Z</time>
      </trkpt>
      <trkpt lat="41.4308430" lon="-5.7686070">
        <ele>719.0</ele>
        <time>2021-10-13T17:16:52Z</time>
      </trkpt>
      <trkpt lat="41.4307270" lon="-5.7686480">
        <ele>719.2</ele>
        <time>2021-10-13T17:16:57Z</time>
      </trkpt>
      <trkpt lat="41.4306720" lon="-5.7686610">
        <ele>719.6</ele>
        <time>2021-10-13T17:16:59Z</time>
      </trkpt>
      <trkpt lat="41.4305500" lon="-5.7686730">
        <ele>720.4</ele>
        <time>2021-10-13T17:17:04Z</time>
      </trkpt>
      <trkpt lat="41.4304990" lon="-5.7686640">
        <ele>720.6</ele>
        <time>2021-10-13T17:17:06Z</time>
      </trkpt>
      <trkpt lat="41.4303570" lon="-5.7686740">
        <ele>721.2</ele>
        <time>2021-10-13T17:17:12Z</time>
      </trkpt>
      <trkpt lat="41.4303000" lon="-5.7686790">
        <ele>721.4</ele>
        <time>2021-10-13T17:17:15Z</time>
      </trkpt>
      <trkpt lat="41.4302790" lon="-5.7686830">
        <ele>721.4</ele>
        <time>2021-10-13T17:17:16Z</time>
      </trkpt>
      <trkpt lat="41.4302600" lon="-5.7686930">
        <ele>721.6</ele>
        <time>2021-10-13T17:17:17Z</time>
      </trkpt>
      <trkpt lat="41.4301920" lon="-5.7687270">
        <ele>722.0</ele>
        <time>2021-10-13T17:17:20Z</time>
      </trkpt>
      <trkpt lat="41.4301110" lon="-5.7687510">
        <ele>722.4</ele>
        <time>2021-10-13T17:17:23Z</time>
      </trkpt>
      <trkpt lat="41.4299870" lon="-5.7687930">
        <ele>722.6</ele>
        <time>2021-10-13T17:17:28Z</time>
      </trkpt>
      <trkpt lat="41.4298360" lon="-5.7688250">
        <ele>722.6</ele>
        <time>2021-10-13T17:17:34Z</time>
      </trkpt>
      <trkpt lat="41.4297580" lon="-5.7688460">
        <ele>722.8</ele>
        <time>2021-10-13T17:17:37Z</time>
      </trkpt>
      <trkpt lat="41.4295340" lon="-5.7689050">
        <ele>723.6</ele>
        <time>2021-10-13T17:17:46Z</time>
      </trkpt>
      <trkpt lat="41.4294840" lon="-5.7689230">
        <ele>723.6</ele>
        <time>2021-10-13T17:17:48Z</time>
      </trkpt>
      <trkpt lat="41.4294450" lon="-5.7689340">
        <ele>723.6</ele>
        <time>2021-10-13T17:17:50Z</time>
      </trkpt>
      <trkpt lat="41.4293970" lon="-5.7689460">
        <ele>723.8</ele>
        <time>2021-10-13T17:17:52Z</time>
      </trkpt>
      <trkpt lat="41.4293330" lon="-5.7689690">
        <ele>723.8</ele>
        <time>2021-10-13T17:17:55Z</time>
      </trkpt>
      <trkpt lat="41.4292240" lon="-5.7689890">
        <ele>724.0</ele>
        <time>2021-10-13T17:17:59Z</time>
      </trkpt>
      <trkpt lat="41.4291100" lon="-5.7690220">
        <ele>724.4</ele>
        <time>2021-10-13T17:18:03Z</time>
      </trkpt>
      <trkpt lat="41.4290000" lon="-5.7690390">
        <ele>724.6</ele>
        <time>2021-10-13T17:18:07Z</time>
      </trkpt>
      <trkpt lat="41.4289310" lon="-5.7690540">
        <ele>725.0</ele>
        <time>2021-10-13T17:18:10Z</time>
      </trkpt>
      <trkpt lat="41.4288160" lon="-5.7690920">
        <ele>725.0</ele>
        <time>2021-10-13T17:18:14Z</time>
      </trkpt>
      <trkpt lat="41.4286640" lon="-5.7691430">
        <ele>725.2</ele>
        <time>2021-10-13T17:18:19Z</time>
      </trkpt>
      <trkpt lat="41.4284780" lon="-5.7692280">
        <ele>725.0</ele>
        <time>2021-10-13T17:18:26Z</time>
      </trkpt>
      <trkpt lat="41.4284340" lon="-5.7692550">
        <ele>725.2</ele>
        <time>2021-10-13T17:18:28Z</time>
      </trkpt>
      <trkpt lat="41.4283240" lon="-5.7693070">
        <ele>725.4</ele>
        <time>2021-10-13T17:18:32Z</time>
      </trkpt>
      <trkpt lat="41.4283070" lon="-5.7693170">
        <ele>725.6</ele>
        <time>2021-10-13T17:18:33Z</time>
      </trkpt>
      <trkpt lat="41.4281390" lon="-5.7693920">
        <ele>726.2</ele>
        <time>2021-10-13T17:18:40Z</time>
      </trkpt>
      <trkpt lat="41.4279350" lon="-5.7694440">
        <ele>726.4</ele>
        <time>2021-10-13T17:18:47Z</time>
      </trkpt>
      <trkpt lat="41.4278440" lon="-5.7694480">
        <ele>726.4</ele>
        <time>2021-10-13T17:18:50Z</time>
      </trkpt>
      <trkpt lat="41.4277860" lon="-5.7694420">
        <ele>726.6</ele>
        <time>2021-10-13T17:18:52Z</time>
      </trkpt>
      <trkpt lat="41.4277600" lon="-5.7694330">
        <ele>726.6</ele>
        <time>2021-10-13T17:18:53Z</time>
      </trkpt>
      <trkpt lat="41.4277080" lon="-5.7694160">
        <ele>726.8</ele>
        <time>2021-10-13T17:18:55Z</time>
      </trkpt>
      <trkpt lat="41.4276100" lon="-5.7694060">
        <ele>727.0</ele>
        <time>2021-10-13T17:18:59Z</time>
      </trkpt>
      <trkpt lat="41.4275400" lon="-5.7693950">
        <ele>727.4</ele>
        <time>2021-10-13T17:19:02Z</time>
      </trkpt>
      <trkpt lat="41.4275150" lon="-5.7693900">
        <ele>727.6</ele>
        <time>2021-10-13T17:19:03Z</time>
      </trkpt>
      <trkpt lat="41.4274280" lon="-5.7693740">
        <ele>727.8</ele>
        <time>2021-10-13T17:19:06Z</time>
      </trkpt>
      <trkpt lat="41.4272520" lon="-5.7693440">
        <ele>727.6</ele>
        <time>2021-10-13T17:19:13Z</time>
      </trkpt>
      <trkpt lat="41.4272010" lon="-5.7693420">
        <ele>727.6</ele>
        <time>2021-10-13T17:19:15Z</time>
      </trkpt>
      <trkpt lat="41.4271010" lon="-5.7693440">
        <ele>727.8</ele>
        <time>2021-10-13T17:19:19Z</time>
      </trkpt>
      <trkpt lat="41.4270680" lon="-5.7693420">
        <ele>727.8</ele>
        <time>2021-10-13T17:19:20Z</time>
      </trkpt>
      <trkpt lat="41.4268300" lon="-5.7692760">
        <ele>728.6</ele>
        <time>2021-10-13T17:19:29Z</time>
      </trkpt>
      <trkpt lat="41.4268010" lon="-5.7692750">
        <ele>728.6</ele>
        <time>2021-10-13T17:19:30Z</time>
      </trkpt>
      <trkpt lat="41.4267330" lon="-5.7692680">
        <ele>728.6</ele>
        <time>2021-10-13T17:19:32Z</time>
      </trkpt>
      <trkpt lat="41.4265670" lon="-5.7692350">
        <ele>729.2</ele>
        <time>2021-10-13T17:19:38Z</time>
      </trkpt>
      <trkpt lat="41.4265410" lon="-5.7692210">
        <ele>729.8</ele>
        <time>2021-10-13T17:19:39Z</time>
      </trkpt>
      <trkpt lat="41.4264580" lon="-5.7691920">
        <ele>730.0</ele>
        <time>2021-10-13T17:19:42Z</time>
      </trkpt>
      <trkpt lat="41.4263650" lon="-5.7691790">
        <ele>730.0</ele>
        <time>2021-10-13T17:19:46Z</time>
      </trkpt>
      <trkpt lat="41.4263390" lon="-5.7691730">
        <ele>730.0</ele>
        <time>2021-10-13T17:19:47Z</time>
      </trkpt>
      <trkpt lat="41.4261920" lon="-5.7691330">
        <ele>731.0</ele>
        <time>2021-10-13T17:19:54Z</time>
      </trkpt>
      <trkpt lat="41.4260800" lon="-5.7691250">
        <ele>732.0</ele>
        <time>2021-10-13T17:20:00Z</time>
      </trkpt>
      <trkpt lat="41.4260440" lon="-5.7691030">
        <ele>732.2</ele>
        <time>2021-10-13T17:20:02Z</time>
      </trkpt>
      <trkpt lat="41.4260060" lon="-5.7690910">
        <ele>732.4</ele>
        <time>2021-10-13T17:20:04Z</time>
      </trkpt>
      <trkpt lat="41.4259500" lon="-5.7690840">
        <ele>732.8</ele>
        <time>2021-10-13T17:20:07Z</time>
      </trkpt>
      <trkpt lat="41.4259310" lon="-5.7690770">
        <ele>733.2</ele>
        <time>2021-10-13T17:20:08Z</time>
      </trkpt>
      <trkpt lat="41.4258670" lon="-5.7690790">
        <ele>733.6</ele>
        <time>2021-10-13T17:20:11Z</time>
      </trkpt>
      <trkpt lat="41.4258120" lon="-5.7690770">
        <ele>733.6</ele>
        <time>2021-10-13T17:20:14Z</time>
      </trkpt>
      <trkpt lat="41.4257730" lon="-5.7690710">
        <ele>733.8</ele>
        <time>2021-10-13T17:20:16Z</time>
      </trkpt>
      <trkpt lat="41.4257340" lon="-5.7690600">
        <ele>733.8</ele>
        <time>2021-10-13T17:20:18Z</time>
      </trkpt>
      <trkpt lat="41.4256480" lon="-5.7690480">
        <ele>734.2</ele>
        <time>2021-10-13T17:20:22Z</time>
      </trkpt>
      <trkpt lat="41.4256260" lon="-5.7690450">
        <ele>734.2</ele>
        <time>2021-10-13T17:20:23Z</time>
      </trkpt>
      <trkpt lat="41.4255830" lon="-5.7690380">
        <ele>734.4</ele>
        <time>2021-10-13T17:20:25Z</time>
      </trkpt>
      <trkpt lat="41.4254520" lon="-5.7690220">
        <ele>734.6</ele>
        <time>2021-10-13T17:20:30Z</time>
      </trkpt>
      <trkpt lat="41.4254260" lon="-5.7690220">
        <ele>734.6</ele>
        <time>2021-10-13T17:20:31Z</time>
      </trkpt>
      <trkpt lat="41.4253510" lon="-5.7690190">
        <ele>734.8</ele>
        <time>2021-10-13T17:20:34Z</time>
      </trkpt>
      <trkpt lat="41.4251320" lon="-5.7690050">
        <ele>735.2</ele>
        <time>2021-10-13T17:20:43Z</time>
      </trkpt>
      <trkpt lat="41.4250790" lon="-5.7690100">
        <ele>735.2</ele>
        <time>2021-10-13T17:20:45Z</time>
      </trkpt>
      <trkpt lat="41.4248980" lon="-5.7690300">
        <ele>735.8</ele>
        <time>2021-10-13T17:20:53Z</time>
      </trkpt>
      <trkpt lat="41.4248750" lon="-5.7690330">
        <ele>736.0</ele>
        <time>2021-10-13T17:20:54Z</time>
      </trkpt>
      <trkpt lat="41.4248270" lon="-5.7690350">
        <ele>736.2</ele>
        <time>2021-10-13T17:20:56Z</time>
      </trkpt>
      <trkpt lat="41.4247760" lon="-5.7690360">
        <ele>736.4</ele>
        <time>2021-10-13T17:20:58Z</time>
      </trkpt>
      <trkpt lat="41.4246900" lon="-5.7690490">
        <ele>736.4</ele>
        <time>2021-10-13T17:21:02Z</time>
      </trkpt>
      <trkpt lat="41.4245210" lon="-5.7690780">
        <ele>737.0</ele>
        <time>2021-10-13T17:21:09Z</time>
      </trkpt>
      <trkpt lat="41.4244800" lon="-5.7690860">
        <ele>737.2</ele>
        <time>2021-10-13T17:21:11Z</time>
      </trkpt>
      <trkpt lat="41.4244310" lon="-5.7690940">
        <ele>737.4</ele>
        <time>2021-10-13T17:21:13Z</time>
      </trkpt>
      <trkpt lat="41.4243180" lon="-5.7691060">
        <ele>737.8</ele>
        <time>2021-10-13T17:21:18Z</time>
      </trkpt>
      <trkpt lat="41.4241990" lon="-5.7691140">
        <ele>738.2</ele>
        <time>2021-10-13T17:21:23Z</time>
      </trkpt>
      <trkpt lat="41.4241750" lon="-5.7691180">
        <ele>738.2</ele>
        <time>2021-10-13T17:21:24Z</time>
      </trkpt>
      <trkpt lat="41.4241560" lon="-5.7691230">
        <ele>738.4</ele>
        <time>2021-10-13T17:21:25Z</time>
      </trkpt>
      <trkpt lat="41.4241080" lon="-5.7691360">
        <ele>738.4</ele>
        <time>2021-10-13T17:21:27Z</time>
      </trkpt>
      <trkpt lat="41.4240560" lon="-5.7691430">
        <ele>738.6</ele>
        <time>2021-10-13T17:21:29Z</time>
      </trkpt>
      <trkpt lat="41.4239280" lon="-5.7691620">
        <ele>739.0</ele>
        <time>2021-10-13T17:21:34Z</time>
      </trkpt>
      <trkpt lat="41.4239040" lon="-5.7691620">
        <ele>739.0</ele>
        <time>2021-10-13T17:21:35Z</time>
      </trkpt>
      <trkpt lat="41.4237900" lon="-5.7691550">
        <ele>739.4</ele>
        <time>2021-10-13T17:21:40Z</time>
      </trkpt>
      <trkpt lat="41.4236930" lon="-5.7691140">
        <ele>740.4</ele>
        <time>2021-10-13T17:21:45Z</time>
      </trkpt>
      <trkpt lat="41.4236750" lon="-5.7690960">
        <ele>740.6</ele>
        <time>2021-10-13T17:21:46Z</time>
      </trkpt>
      <trkpt lat="41.4236470" lon="-5.7690500">
        <ele>741.0</ele>
        <time>2021-10-13T17:21:48Z</time>
      </trkpt>
      <trkpt lat="41.4236180" lon="-5.7689970">
        <ele>741.4</ele>
        <time>2021-10-13T17:21:50Z</time>
      </trkpt>
      <trkpt lat="41.4235900" lon="-5.7689440">
        <ele>741.8</ele>
        <time>2021-10-13T17:21:52Z</time>
      </trkpt>
      <trkpt lat="41.4235570" lon="-5.7688660">
        <ele>742.2</ele>
        <time>2021-10-13T17:21:55Z</time>
      </trkpt>
      <trkpt lat="41.4235290" lon="-5.7688120">
        <ele>742.4</ele>
        <time>2021-10-13T17:21:57Z</time>
      </trkpt>
      <trkpt lat="41.4234680" lon="-5.7686950">
        <ele>742.6</ele>
        <time>2021-10-13T17:22:01Z</time>
      </trkpt>
      <trkpt lat="41.4234350" lon="-5.7686280">
        <ele>742.8</ele>
        <time>2021-10-13T17:22:03Z</time>
      </trkpt>
      <trkpt lat="41.4234060" lon="-5.7685660">
        <ele>742.8</ele>
        <time>2021-10-13T17:22:05Z</time>
      </trkpt>
      <trkpt lat="41.4233760" lon="-5.7684990">
        <ele>743.0</ele>
        <time>2021-10-13T17:22:07Z</time>
      </trkpt>
      <trkpt lat="41.4233420" lon="-5.7684310">
        <ele>743.0</ele>
        <time>2021-10-13T17:22:09Z</time>
      </trkpt>
      <trkpt lat="41.4233260" lon="-5.7683980">
        <ele>743.0</ele>
        <time>2021-10-13T17:22:10Z</time>
      </trkpt>
      <trkpt lat="41.4232810" lon="-5.7682940">
        <ele>743.0</ele>
        <time>2021-10-13T17:22:13Z</time>
      </trkpt>
      <trkpt lat="41.4232070" lon="-5.7681280">
        <ele>743.2</ele>
        <time>2021-10-13T17:22:18Z</time>
      </trkpt>
      <trkpt lat="41.4231300" lon="-5.7679660">
        <ele>743.0</ele>
        <time>2021-10-13T17:22:23Z</time>
      </trkpt>
      <trkpt lat="41.4230780" lon="-5.7678780">
        <ele>742.8</ele>
        <time>2021-10-13T17:22:26Z</time>
      </trkpt>
      <trkpt lat="41.4230610" lon="-5.7678460">
        <ele>742.6</ele>
        <time>2021-10-13T17:22:27Z</time>
      </trkpt>
      <trkpt lat="41.4229930" lon="-5.7677430">
        <ele>742.6</ele>
        <time>2021-10-13T17:22:32Z</time>
      </trkpt>
      <trkpt lat="41.4229850" lon="-5.7677360">
        <ele>742.6</ele>
        <time>2021-10-13T17:22:33Z</time>
      </trkpt>
      <trkpt lat="41.4229460" lon="-5.7676640">
        <ele>743.0</ele>
        <time>2021-10-13T17:22:38Z</time>
      </trkpt>
      <trkpt lat="41.4228760" lon="-5.7674830">
        <ele>743.2</ele>
        <time>2021-10-13T17:22:45Z</time>
      </trkpt>
      <trkpt lat="41.4228640" lon="-5.7674560">
        <ele>743.2</ele>
        <time>2021-10-13T17:22:46Z</time>
      </trkpt>
      <trkpt lat="41.4227600" lon="-5.7672690">
        <ele>743.4</ele>
        <time>2021-10-13T17:22:53Z</time>
      </trkpt>
      <trkpt lat="41.4227240" lon="-5.7672130">
        <ele>743.6</ele>
        <time>2021-10-13T17:22:55Z</time>
      </trkpt>
      <trkpt lat="41.4226730" lon="-5.7671230">
        <ele>743.8</ele>
        <time>2021-10-13T17:22:58Z</time>
      </trkpt>
      <trkpt lat="41.4225970" lon="-5.7669940">
        <ele>744.4</ele>
        <time>2021-10-13T17:23:02Z</time>
      </trkpt>
      <trkpt lat="41.4225770" lon="-5.7669610">
        <ele>744.4</ele>
        <time>2021-10-13T17:23:03Z</time>
      </trkpt>
      <trkpt lat="41.4225460" lon="-5.7668980">
        <ele>744.4</ele>
        <time>2021-10-13T17:23:05Z</time>
      </trkpt>
      <trkpt lat="41.4225150" lon="-5.7668320">
        <ele>744.6</ele>
        <time>2021-10-13T17:23:07Z</time>
      </trkpt>
      <trkpt lat="41.4224430" lon="-5.7666350">
        <ele>744.6</ele>
        <time>2021-10-13T17:23:12Z</time>
      </trkpt>
      <trkpt lat="41.4223960" lon="-5.7665040">
        <ele>744.4</ele>
        <time>2021-10-13T17:23:15Z</time>
      </trkpt>
      <trkpt lat="41.4223470" lon="-5.7663800">
        <ele>744.2</ele>
        <time>2021-10-13T17:23:18Z</time>
      </trkpt>
      <trkpt lat="41.4223090" lon="-5.7662570">
        <ele>743.8</ele>
        <time>2021-10-13T17:23:21Z</time>
      </trkpt>
      <trkpt lat="41.4222800" lon="-5.7661760">
        <ele>743.6</ele>
        <time>2021-10-13T17:23:23Z</time>
      </trkpt>
      <trkpt lat="41.4222050" lon="-5.7659910">
        <ele>743.4</ele>
        <time>2021-10-13T17:23:27Z</time>
      </trkpt>
      <trkpt lat="41.4220640" lon="-5.7656710">
        <ele>742.6</ele>
        <time>2021-10-13T17:23:33Z</time>
      </trkpt>
      <trkpt lat="41.4220420" lon="-5.7656140">
        <ele>742.4</ele>
        <time>2021-10-13T17:23:34Z</time>
      </trkpt>
      <trkpt lat="41.4219400" lon="-5.7653330">
        <ele>742.0</ele>
        <time>2021-10-13T17:23:39Z</time>
      </trkpt>
      <trkpt lat="41.4219180" lon="-5.7652720">
        <ele>741.8</ele>
        <time>2021-10-13T17:23:40Z</time>
      </trkpt>
      <trkpt lat="41.4218210" lon="-5.7649920">
        <ele>741.4</ele>
        <time>2021-10-13T17:23:45Z</time>
      </trkpt>
      <trkpt lat="41.4218040" lon="-5.7649350">
        <ele>741.4</ele>
        <time>2021-10-13T17:23:46Z</time>
      </trkpt>
      <trkpt lat="41.4217810" lon="-5.7648280">
        <ele>741.4</ele>
        <time>2021-10-13T17:23:48Z</time>
      </trkpt>
      <trkpt lat="41.4217040" lon="-5.7646090">
        <ele>741.6</ele>
        <time>2021-10-13T17:23:52Z</time>
      </trkpt>
      <trkpt lat="41.4216240" lon="-5.7644020">
        <ele>741.6</ele>
        <time>2021-10-13T17:23:56Z</time>
      </trkpt>
      <trkpt lat="41.4214260" lon="-5.7638460">
        <ele>742.2</ele>
        <time>2021-10-13T17:24:07Z</time>
      </trkpt>
      <trkpt lat="41.4213530" lon="-5.7636450">
        <ele>742.4</ele>
        <time>2021-10-13T17:24:11Z</time>
      </trkpt>
      <trkpt lat="41.4212900" lon="-5.7634680">
        <ele>742.2</ele>
        <time>2021-10-13T17:24:15Z</time>
      </trkpt>
      <trkpt lat="41.4212710" lon="-5.7634180">
        <ele>742.2</ele>
        <time>2021-10-13T17:24:16Z</time>
      </trkpt>
      <trkpt lat="41.4211540" lon="-5.7630940">
        <ele>742.0</ele>
        <time>2021-10-13T17:24:23Z</time>
      </trkpt>
      <trkpt lat="41.4211170" lon="-5.7630180">
        <ele>742.0</ele>
        <time>2021-10-13T17:24:25Z</time>
      </trkpt>
      <trkpt lat="41.4210760" lon="-5.7629030">
        <ele>742.0</ele>
        <time>2021-10-13T17:24:28Z</time>
      </trkpt>
      <trkpt lat="41.4210620" lon="-5.7628610">
        <ele>742.0</ele>
        <time>2021-10-13T17:24:29Z</time>
      </trkpt>
      <trkpt lat="41.4209620" lon="-5.7626140">
        <ele>742.4</ele>
        <time>2021-10-13T17:24:35Z</time>
      </trkpt>
      <trkpt lat="41.4209140" lon="-5.7624920">
        <ele>742.4</ele>
        <time>2021-10-13T17:24:38Z</time>
      </trkpt>
      <trkpt lat="41.4208760" lon="-5.7623890">
        <ele>742.2</ele>
        <time>2021-10-13T17:24:40Z</time>
      </trkpt>
      <trkpt lat="41.4208170" lon="-5.7622370">
        <ele>742.0</ele>
        <time>2021-10-13T17:24:43Z</time>
      </trkpt>
      <trkpt lat="41.4207760" lon="-5.7621330">
        <ele>741.6</ele>
        <time>2021-10-13T17:24:45Z</time>
      </trkpt>
      <trkpt lat="41.4207540" lon="-5.7620820">
        <ele>741.2</ele>
        <time>2021-10-13T17:24:46Z</time>
      </trkpt>
      <trkpt lat="41.4206940" lon="-5.7619270">
        <ele>740.4</ele>
        <time>2021-10-13T17:24:49Z</time>
      </trkpt>
      <trkpt lat="41.4206720" lon="-5.7618740">
        <ele>740.0</ele>
        <time>2021-10-13T17:24:50Z</time>
      </trkpt>
      <trkpt lat="41.4206100" lon="-5.7617090">
        <ele>739.6</ele>
        <time>2021-10-13T17:24:53Z</time>
      </trkpt>
      <trkpt lat="41.4205420" lon="-5.7615360">
        <ele>739.2</ele>
        <time>2021-10-13T17:24:56Z</time>
      </trkpt>
      <trkpt lat="41.4205190" lon="-5.7614760">
        <ele>739.0</ele>
        <time>2021-10-13T17:24:57Z</time>
      </trkpt>
      <trkpt lat="41.4204710" lon="-5.7613540">
        <ele>738.8</ele>
        <time>2021-10-13T17:24:59Z</time>
      </trkpt>
      <trkpt lat="41.4203570" lon="-5.7610550">
        <ele>738.0</ele>
        <time>2021-10-13T17:25:04Z</time>
      </trkpt>
      <trkpt lat="41.4202740" lon="-5.7608520">
        <ele>737.4</ele>
        <time>2021-10-13T17:25:07Z</time>
      </trkpt>
      <trkpt lat="41.4202050" lon="-5.7606610">
        <ele>736.6</ele>
        <time>2021-10-13T17:25:10Z</time>
      </trkpt>
      <trkpt lat="41.4200850" lon="-5.7603490">
        <ele>735.6</ele>
        <time>2021-10-13T17:25:15Z</time>
      </trkpt>
      <trkpt lat="41.4199930" lon="-5.7601190">
        <ele>734.6</ele>
        <time>2021-10-13T17:25:19Z</time>
      </trkpt>
      <trkpt lat="41.4199720" lon="-5.7600620">
        <ele>734.4</ele>
        <time>2021-10-13T17:25:20Z</time>
      </trkpt>
      <trkpt lat="41.4199110" lon="-5.7599090">
        <ele>733.8</ele>
        <time>2021-10-13T17:25:23Z</time>
      </trkpt>
      <trkpt lat="41.4198410" lon="-5.7597440">
        <ele>733.2</ele>
        <time>2021-10-13T17:25:26Z</time>
      </trkpt>
      <trkpt lat="41.4197970" lon="-5.7596450">
        <ele>733.0</ele>
        <time>2021-10-13T17:25:28Z</time>
      </trkpt>
      <trkpt lat="41.4196950" lon="-5.7593710">
        <ele>732.6</ele>
        <time>2021-10-13T17:25:34Z</time>
      </trkpt>
      <trkpt lat="41.4196640" lon="-5.7593380">
        <ele>732.2</ele>
        <time>2021-10-13T17:25:36Z</time>
      </trkpt>
      <trkpt lat="41.4196000" lon="-5.7593080">
        <ele>732.0</ele>
        <time>2021-10-13T17:25:39Z</time>
      </trkpt>
      <trkpt lat="41.4194990" lon="-5.7593840">
        <ele>732.0</ele>
        <time>2021-10-13T17:25:44Z</time>
      </trkpt>
      <trkpt lat="41.4193220" lon="-5.7595270">
        <ele>732.2</ele>
        <time>2021-10-13T17:25:52Z</time>
      </trkpt>
      <trkpt lat="41.4192580" lon="-5.7595810">
        <ele>732.2</ele>
        <time>2021-10-13T17:25:55Z</time>
      </trkpt>
      <trkpt lat="41.4191970" lon="-5.7596340">
        <ele>732.6</ele>
        <time>2021-10-13T17:25:58Z</time>
      </trkpt>
      <trkpt lat="41.4191330" lon="-5.7596820">
        <ele>733.0</ele>
        <time>2021-10-13T17:26:01Z</time>
      </trkpt>
      <trkpt lat="41.4190690" lon="-5.7597300">
        <ele>733.2</ele>
        <time>2021-10-13T17:26:04Z</time>
      </trkpt>
      <trkpt lat="41.4189850" lon="-5.7597970">
        <ele>733.4</ele>
        <time>2021-10-13T17:26:08Z</time>
      </trkpt>
      <trkpt lat="41.4188220" lon="-5.7599320">
        <ele>734.2</ele>
        <time>2021-10-13T17:26:15Z</time>
      </trkpt>
      <trkpt lat="41.4187180" lon="-5.7599870">
        <ele>734.8</ele>
        <time>2021-10-13T17:26:19Z</time>
      </trkpt>
      <trkpt lat="41.4186540" lon="-5.7600200">
        <ele>735.0</ele>
        <time>2021-10-13T17:26:21Z</time>
      </trkpt>
      <trkpt lat="41.4184340" lon="-5.7600790">
        <ele>735.4</ele>
        <time>2021-10-13T17:26:28Z</time>
      </trkpt>
      <trkpt lat="41.4184050" lon="-5.7600850">
        <ele>735.4</ele>
        <time>2021-10-13T17:26:29Z</time>
      </trkpt>
      <trkpt lat="41.4182820" lon="-5.7601040">
        <ele>735.6</ele>
        <time>2021-10-13T17:26:33Z</time>
      </trkpt>
      <trkpt lat="41.4180700" lon="-5.7601430">
        <ele>735.6</ele>
        <time>2021-10-13T17:26:39Z</time>
      </trkpt>
      <trkpt lat="41.4177730" lon="-5.7602020">
        <ele>735.4</ele>
        <time>2021-10-13T17:26:47Z</time>
      </trkpt>
      <trkpt lat="41.4176110" lon="-5.7602350">
        <ele>735.2</ele>
        <time>2021-10-13T17:26:51Z</time>
      </trkpt>
      <trkpt lat="41.4174080" lon="-5.7602670">
        <ele>734.8</ele>
        <time>2021-10-13T17:26:56Z</time>
      </trkpt>
      <trkpt lat="41.4170070" lon="-5.7603470">
        <ele>734.6</ele>
        <time>2021-10-13T17:27:06Z</time>
      </trkpt>
      <trkpt lat="41.4169690" lon="-5.7603550">
        <ele>734.6</ele>
        <time>2021-10-13T17:27:07Z</time>
      </trkpt>
      <trkpt lat="41.4167530" lon="-5.7603990">
        <ele>734.8</ele>
        <time>2021-10-13T17:27:13Z</time>
      </trkpt>
      <trkpt lat="41.4165000" lon="-5.7604430">
        <ele>735.4</ele>
        <time>2021-10-13T17:27:20Z</time>
      </trkpt>
      <trkpt lat="41.4164640" lon="-5.7604490">
        <ele>735.2</ele>
        <time>2021-10-13T17:27:21Z</time>
      </trkpt>
      <trkpt lat="41.4160510" lon="-5.7605370">
        <ele>735.6</ele>
        <time>2021-10-13T17:27:32Z</time>
      </trkpt>
      <trkpt lat="41.4157330" lon="-5.7605960">
        <ele>735.4</ele>
        <time>2021-10-13T17:27:40Z</time>
      </trkpt>
      <trkpt lat="41.4156070" lon="-5.7606160">
        <ele>735.2</ele>
        <time>2021-10-13T17:27:43Z</time>
      </trkpt>
      <trkpt lat="41.4154470" lon="-5.7606460">
        <ele>735.0</ele>
        <time>2021-10-13T17:27:47Z</time>
      </trkpt>
      <trkpt lat="41.4154090" lon="-5.7606530">
        <ele>735.0</ele>
        <time>2021-10-13T17:27:48Z</time>
      </trkpt>
      <trkpt lat="41.4152200" lon="-5.7606700">
        <ele>735.2</ele>
        <time>2021-10-13T17:27:53Z</time>
      </trkpt>
      <trkpt lat="41.4150790" lon="-5.7606760">
        <ele>735.4</ele>
        <time>2021-10-13T17:27:57Z</time>
      </trkpt>
      <trkpt lat="41.4150110" lon="-5.7606720">
        <ele>735.6</ele>
        <time>2021-10-13T17:27:59Z</time>
      </trkpt>
      <trkpt lat="41.4149440" lon="-5.7606680">
        <ele>735.6</ele>
        <time>2021-10-13T17:28:01Z</time>
      </trkpt>
      <trkpt lat="41.4147460" lon="-5.7606510">
        <ele>736.0</ele>
        <time>2021-10-13T17:28:07Z</time>
      </trkpt>
      <trkpt lat="41.4146830" lon="-5.7606400">
        <ele>736.2</ele>
        <time>2021-10-13T17:28:09Z</time>
      </trkpt>
      <trkpt lat="41.4145280" lon="-5.7606230">
        <ele>736.8</ele>
        <time>2021-10-13T17:28:14Z</time>
      </trkpt>
      <trkpt lat="41.4143220" lon="-5.7605930">
        <ele>737.0</ele>
        <time>2021-10-13T17:28:20Z</time>
      </trkpt>
      <trkpt lat="41.4141290" lon="-5.7605890">
        <ele>737.4</ele>
        <time>2021-10-13T17:28:26Z</time>
      </trkpt>
      <trkpt lat="41.4141040" lon="-5.7605870">
        <ele>737.4</ele>
        <time>2021-10-13T17:28:27Z</time>
      </trkpt>
      <trkpt lat="41.4140040" lon="-5.7605680">
        <ele>737.6</ele>
        <time>2021-10-13T17:28:31Z</time>
      </trkpt>
      <trkpt lat="41.4139920" lon="-5.7605470">
        <ele>737.6</ele>
        <time>2021-10-13T17:28:32Z</time>
      </trkpt>
      <trkpt lat="41.4139910" lon="-5.7605230">
        <ele>737.6</ele>
        <time>2021-10-13T17:28:33Z</time>
      </trkpt>
      <trkpt lat="41.4140290" lon="-5.7604150">
        <ele>737.6</ele>
        <time>2021-10-13T17:28:36Z</time>
      </trkpt>
      <trkpt lat="41.4141190" lon="-5.7601830">
        <ele>737.4</ele>
        <time>2021-10-13T17:28:41Z</time>
      </trkpt>
      <trkpt lat="41.4141770" lon="-5.7600100">
        <ele>737.2</ele>
        <time>2021-10-13T17:28:44Z</time>
      </trkpt>
      <trkpt lat="41.4141900" lon="-5.7599510">
        <ele>737.0</ele>
        <time>2021-10-13T17:28:45Z</time>
      </trkpt>
      <trkpt lat="41.4142160" lon="-5.7597600">
        <ele>736.4</ele>
        <time>2021-10-13T17:28:48Z</time>
      </trkpt>
      <trkpt lat="41.4142220" lon="-5.7596970">
        <ele>736.0</ele>
        <time>2021-10-13T17:28:49Z</time>
      </trkpt>
      <trkpt lat="41.4142150" lon="-5.7593460">
        <ele>735.4</ele>
        <time>2021-10-13T17:28:55Z</time>
      </trkpt>
      <trkpt lat="41.4142080" lon="-5.7589930">
        <ele>735.2</ele>
        <time>2021-10-13T17:29:01Z</time>
      </trkpt>
      <trkpt lat="41.4141980" lon="-5.7586150">
        <ele>735.4</ele>
        <time>2021-10-13T17:29:08Z</time>
      </trkpt>
      <trkpt lat="41.4141900" lon="-5.7584070">
        <ele>735.8</ele>
        <time>2021-10-13T17:29:13Z</time>
      </trkpt>
      <trkpt lat="41.4141850" lon="-5.7582840">
        <ele>736.0</ele>
        <time>2021-10-13T17:29:17Z</time>
      </trkpt>
      <trkpt lat="41.4141840" lon="-5.7582530">
        <ele>736.2</ele>
        <time>2021-10-13T17:29:18Z</time>
      </trkpt>
      <trkpt lat="41.4141860" lon="-5.7581920">
        <ele>736.6</ele>
        <time>2021-10-13T17:29:20Z</time>
      </trkpt>
      <trkpt lat="41.4141910" lon="-5.7581080">
        <ele>736.8</ele>
        <time>2021-10-13T17:29:23Z</time>
      </trkpt>
      <trkpt lat="41.4141850" lon="-5.7580520">
        <ele>737.2</ele>
        <time>2021-10-13T17:29:25Z</time>
      </trkpt>
      <trkpt lat="41.4141780" lon="-5.7579260">
        <ele>738.0</ele>
        <time>2021-10-13T17:29:30Z</time>
      </trkpt>
      <trkpt lat="41.4141790" lon="-5.7578810">
        <ele>738.4</ele>
        <time>2021-10-13T17:29:32Z</time>
      </trkpt>
      <trkpt lat="41.4141710" lon="-5.7578010">
        <ele>739.0</ele>
        <time>2021-10-13T17:29:35Z</time>
      </trkpt>
      <trkpt lat="41.4141650" lon="-5.7576720">
        <ele>739.6</ele>
        <time>2021-10-13T17:29:40Z</time>
      </trkpt>
      <trkpt lat="41.4141600" lon="-5.7575990">
        <ele>740.0</ele>
        <time>2021-10-13T17:29:43Z</time>
      </trkpt>
      <trkpt lat="41.4141630" lon="-5.7575100">
        <ele>740.6</ele>
        <time>2021-10-13T17:29:47Z</time>
      </trkpt>
      <trkpt lat="41.4141630" lon="-5.7574870">
        <ele>740.8</ele>
        <time>2021-10-13T17:29:48Z</time>
      </trkpt>
      <trkpt lat="41.4141620" lon="-5.7574430">
        <ele>741.0</ele>
        <time>2021-10-13T17:29:50Z</time>
      </trkpt>
      <trkpt lat="41.4141610" lon="-5.7574200">
        <ele>741.2</ele>
        <time>2021-10-13T17:29:51Z</time>
      </trkpt>
      <trkpt lat="41.4141610" lon="-5.7573560">
        <ele>741.6</ele>
        <time>2021-10-13T17:29:54Z</time>
      </trkpt>
      <trkpt lat="41.4141570" lon="-5.7573140">
        <ele>742.2</ele>
        <time>2021-10-13T17:29:56Z</time>
      </trkpt>
      <trkpt lat="41.4141590" lon="-5.7572710">
        <ele>742.4</ele>
        <time>2021-10-13T17:29:58Z</time>
      </trkpt>
      <trkpt lat="41.4141640" lon="-5.7571890">
        <ele>742.8</ele>
        <time>2021-10-13T17:30:02Z</time>
      </trkpt>
      <trkpt lat="41.4141680" lon="-5.7571550">
        <ele>743.2</ele>
        <time>2021-10-13T17:30:04Z</time>
      </trkpt>
      <trkpt lat="41.4141780" lon="-5.7570730">
        <ele>743.6</ele>
        <time>2021-10-13T17:30:08Z</time>
      </trkpt>
      <trkpt lat="41.4141980" lon="-5.7569890">
        <ele>744.2</ele>
        <time>2021-10-13T17:30:12Z</time>
      </trkpt>
      <trkpt lat="41.4142090" lon="-5.7569250">
        <ele>744.4</ele>
        <time>2021-10-13T17:30:15Z</time>
      </trkpt>
      <trkpt lat="41.4142200" lon="-5.7568740">
        <ele>744.6</ele>
        <time>2021-10-13T17:30:17Z</time>
      </trkpt>
      <trkpt lat="41.4142320" lon="-5.7567990">
        <ele>744.8</ele>
        <time>2021-10-13T17:30:20Z</time>
      </trkpt>
      <trkpt lat="41.4142480" lon="-5.7566670">
        <ele>745.2</ele>
        <time>2021-10-13T17:30:26Z</time>
      </trkpt>
      <trkpt lat="41.4142510" lon="-5.7566250">
        <ele>745.6</ele>
        <time>2021-10-13T17:30:28Z</time>
      </trkpt>
      <trkpt lat="41.4142650" lon="-5.7565210">
        <ele>746.4</ele>
        <time>2021-10-13T17:30:33Z</time>
      </trkpt>
      <trkpt lat="41.4142670" lon="-5.7565010">
        <ele>746.4</ele>
        <time>2021-10-13T17:30:34Z</time>
      </trkpt>
      <trkpt lat="41.4142630" lon="-5.7563620">
        <ele>747.0</ele>
        <time>2021-10-13T17:30:41Z</time>
      </trkpt>
      <trkpt lat="41.4142640" lon="-5.7563280">
        <ele>747.2</ele>
        <time>2021-10-13T17:30:43Z</time>
      </trkpt>
      <trkpt lat="41.4142630" lon="-5.7563080">
        <ele>747.4</ele>
        <time>2021-10-13T17:30:44Z</time>
      </trkpt>
      <trkpt lat="41.4142570" lon="-5.7562660">
        <ele>747.8</ele>
        <time>2021-10-13T17:30:46Z</time>
      </trkpt>
      <trkpt lat="41.4142500" lon="-5.7561960">
        <ele>748.2</ele>
        <time>2021-10-13T17:30:50Z</time>
      </trkpt>
      <trkpt lat="41.4142430" lon="-5.7561670">
        <ele>748.4</ele>
        <time>2021-10-13T17:30:52Z</time>
      </trkpt>
      <trkpt lat="41.4142400" lon="-5.7561530">
        <ele>748.6</ele>
        <time>2021-10-13T17:30:53Z</time>
      </trkpt>
      <trkpt lat="41.4142220" lon="-5.7561090">
        <ele>748.8</ele>
        <time>2021-10-13T17:30:56Z</time>
      </trkpt>
      <trkpt lat="41.4142110" lon="-5.7560750">
        <ele>749.0</ele>
        <time>2021-10-13T17:30:58Z</time>
      </trkpt>
      <trkpt lat="41.4141770" lon="-5.7560250">
        <ele>749.2</ele>
        <time>2021-10-13T17:31:02Z</time>
      </trkpt>
      <trkpt lat="41.4141560" lon="-5.7559970">
        <ele>749.2</ele>
        <time>2021-10-13T17:31:04Z</time>
      </trkpt>
      <trkpt lat="41.4141460" lon="-5.7559830">
        <ele>749.2</ele>
        <time>2021-10-13T17:31:05Z</time>
      </trkpt>
      <trkpt lat="41.4141330" lon="-5.7559380">
        <ele>749.4</ele>
        <time>2021-10-13T17:31:07Z</time>
      </trkpt>
      <trkpt lat="41.4141150" lon="-5.7559000">
        <ele>749.4</ele>
        <time>2021-10-13T17:31:09Z</time>
      </trkpt>
      <trkpt lat="41.4141050" lon="-5.7558790">
        <ele>749.4</ele>
        <time>2021-10-13T17:31:10Z</time>
      </trkpt>
      <trkpt lat="41.4140960" lon="-5.7558550">
        <ele>749.6</ele>
        <time>2021-10-13T17:31:11Z</time>
      </trkpt>
      <trkpt lat="41.4140840" lon="-5.7556490">
        <ele>750.2</ele>
        <time>2021-10-13T17:31:19Z</time>
      </trkpt>
      <trkpt lat="41.4140810" lon="-5.7556240">
        <ele>750.2</ele>
        <time>2021-10-13T17:31:20Z</time>
      </trkpt>
      <trkpt lat="41.4140700" lon="-5.7555710">
        <ele>750.4</ele>
        <time>2021-10-13T17:31:22Z</time>
      </trkpt>
      <trkpt lat="41.4140550" lon="-5.7555190">
        <ele>750.6</ele>
        <time>2021-10-13T17:31:24Z</time>
      </trkpt>
      <trkpt lat="41.4140350" lon="-5.7554360">
        <ele>750.8</ele>
        <time>2021-10-13T17:31:27Z</time>
      </trkpt>
      <trkpt lat="41.4140290" lon="-5.7553880">
        <ele>750.8</ele>
        <time>2021-10-13T17:31:29Z</time>
      </trkpt>
      <trkpt lat="41.4140260" lon="-5.7553560">
        <ele>750.8</ele>
        <time>2021-10-13T17:31:31Z</time>
      </trkpt>
      <trkpt lat="41.4140270" lon="-5.7553520">
        <ele>750.8</ele>
        <time>2021-10-13T17:31:33Z</time>
      </trkpt>
      <trkpt lat="41.4140270" lon="-5.7553520">
        <ele>751.0</ele>
        <time>2021-10-13T17:31:34Z</time>
      </trkpt>
      <trkpt lat="41.4139950" lon="-5.7552750">
        <ele>751.2</ele>
        <time>2021-10-13T17:31:46Z</time>
      </trkpt>
      <trkpt lat="41.4139670" lon="-5.7552200">
        <ele>751.2</ele>
        <time>2021-10-13T17:31:48Z</time>
      </trkpt>
      <trkpt lat="41.4139330" lon="-5.7551410">
        <ele>751.2</ele>
        <time>2021-10-13T17:31:51Z</time>
      </trkpt>
      <trkpt lat="41.4138880" lon="-5.7550450">
        <ele>751.4</ele>
        <time>2021-10-13T17:31:55Z</time>
      </trkpt>
      <trkpt lat="41.4138210" lon="-5.7549380">
        <ele>751.4</ele>
        <time>2021-10-13T17:32:01Z</time>
      </trkpt>
      <trkpt lat="41.4137950" lon="-5.7549040">
        <ele>751.6</ele>
        <time>2021-10-13T17:32:03Z</time>
      </trkpt>
      <trkpt lat="41.4136850" lon="-5.7547120">
        <ele>751.2</ele>
        <time>2021-10-13T17:32:12Z</time>
      </trkpt>
      <trkpt lat="41.4136870" lon="-5.7546280">
        <ele>751.0</ele>
        <time>2021-10-13T17:32:16Z</time>
      </trkpt>
      <trkpt lat="41.4136840" lon="-5.7546030">
        <ele>751.0</ele>
        <time>2021-10-13T17:32:17Z</time>
      </trkpt>
      <trkpt lat="41.4136850" lon="-5.7545770">
        <ele>751.0</ele>
        <time>2021-10-13T17:32:18Z</time>
      </trkpt>
      <trkpt lat="41.4136980" lon="-5.7545360">
        <ele>751.0</ele>
        <time>2021-10-13T17:32:20Z</time>
      </trkpt>
      <trkpt lat="41.4137030" lon="-5.7545170">
        <ele>751.0</ele>
        <time>2021-10-13T17:32:21Z</time>
      </trkpt>
      <trkpt lat="41.4137180" lon="-5.7544910">
        <ele>751.0</ele>
        <time>2021-10-13T17:32:23Z</time>
      </trkpt>
      <trkpt lat="41.4137220" lon="-5.7544540">
        <ele>751.0</ele>
        <time>2021-10-13T17:32:26Z</time>
      </trkpt>
      <trkpt lat="41.4137240" lon="-5.7544500">
        <ele>751.0</ele>
        <time>2021-10-13T17:32:29Z</time>
      </trkpt>
      <trkpt lat="41.4138210" lon="-5.7545110">
        <ele>728.2</ele>
        <time>2021-10-14T07:53:28Z</time>
      </trkpt>
      <trkpt lat="41.4138210" lon="-5.7545110">
        <ele>732.0</ele>
        <time>2021-10-14T07:53:29Z</time>
      </trkpt>
      <trkpt lat="41.4137880" lon="-5.7544710">
        <ele>732.2</ele>
        <time>2021-10-14T07:53:40Z</time>
      </trkpt>
      <trkpt lat="41.4137760" lon="-5.7544350">
        <ele>732.2</ele>
        <time>2021-10-14T07:53:43Z</time>
      </trkpt>
      <trkpt lat="41.4137620" lon="-5.7544340">
        <ele>732.4</ele>
        <time>2021-10-14T07:53:47Z</time>
      </trkpt>
      <trkpt lat="41.4137530" lon="-5.7544350">
        <ele>732.6</ele>
        <time>2021-10-14T07:53:48Z</time>
      </trkpt>
      <trkpt lat="41.4137500" lon="-5.7544430">
        <ele>733.0</ele>
        <time>2021-10-14T07:53:52Z</time>
      </trkpt>
      <trkpt lat="41.4137470" lon="-5.7544440">
        <ele>733.2</ele>
        <time>2021-10-14T07:53:53Z</time>
      </trkpt>
      <trkpt lat="41.4137150" lon="-5.7544940">
        <ele>733.6</ele>
        <time>2021-10-14T07:55:22Z</time>
      </trkpt>
      <trkpt lat="41.4137220" lon="-5.7544740">
        <ele>733.6</ele>
        <time>2021-10-14T07:55:23Z</time>
      </trkpt>
      <trkpt lat="41.4137300" lon="-5.7544470">
        <ele>733.6</ele>
        <time>2021-10-14T07:55:24Z</time>
      </trkpt>
      <trkpt lat="41.4137330" lon="-5.7543610">
        <ele>733.6</ele>
        <time>2021-10-14T07:55:27Z</time>
      </trkpt>
      <trkpt lat="41.4137340" lon="-5.7543440">
        <ele>733.6</ele>
        <time>2021-10-14T07:55:28Z</time>
      </trkpt>
      <trkpt lat="41.4137370" lon="-5.7542580">
        <ele>733.8</ele>
        <time>2021-10-14T07:55:32Z</time>
      </trkpt>
      <trkpt lat="41.4137430" lon="-5.7542150">
        <ele>734.0</ele>
        <time>2021-10-14T07:55:34Z</time>
      </trkpt>
      <trkpt lat="41.4137570" lon="-5.7541450">
        <ele>734.0</ele>
        <time>2021-10-14T07:55:37Z</time>
      </trkpt>
      <trkpt lat="41.4137370" lon="-5.7541230">
        <ele>734.0</ele>
        <time>2021-10-14T07:55:39Z</time>
      </trkpt>
      <trkpt lat="41.4136940" lon="-5.7540750">
        <ele>734.0</ele>
        <time>2021-10-14T07:55:43Z</time>
      </trkpt>
      <trkpt lat="41.4136690" lon="-5.7540660">
        <ele>734.0</ele>
        <time>2021-10-14T07:55:45Z</time>
      </trkpt>
      <trkpt lat="41.4135820" lon="-5.7540540">
        <ele>734.2</ele>
        <time>2021-10-14T07:55:51Z</time>
      </trkpt>
      <trkpt lat="41.4135610" lon="-5.7540700">
        <ele>734.2</ele>
        <time>2021-10-14T07:55:53Z</time>
      </trkpt>
      <trkpt lat="41.4135510" lon="-5.7540690">
        <ele>734.4</ele>
        <time>2021-10-14T07:55:54Z</time>
      </trkpt>
      <trkpt lat="41.4135300" lon="-5.7540590">
        <ele>734.4</ele>
        <time>2021-10-14T07:55:56Z</time>
      </trkpt>
      <trkpt lat="41.4135070" lon="-5.7540550">
        <ele>734.4</ele>
        <time>2021-10-14T07:55:58Z</time>
      </trkpt>
      <trkpt lat="41.4134900" lon="-5.7540530">
        <ele>734.6</ele>
        <time>2021-10-14T07:56:00Z</time>
      </trkpt>
      <trkpt lat="41.4134790" lon="-5.7540920">
        <ele>734.8</ele>
        <time>2021-10-14T07:56:03Z</time>
      </trkpt>
      <trkpt lat="41.4134660" lon="-5.7541530">
        <ele>735.0</ele>
        <time>2021-10-14T07:56:06Z</time>
      </trkpt>
      <trkpt lat="41.4134570" lon="-5.7542390">
        <ele>735.0</ele>
        <time>2021-10-14T07:56:11Z</time>
      </trkpt>
      <trkpt lat="41.4134510" lon="-5.7542510">
        <ele>735.2</ele>
        <time>2021-10-14T07:56:14Z</time>
      </trkpt>
      <trkpt lat="41.4133730" lon="-5.7542390">
        <ele>735.0</ele>
        <time>2021-10-14T07:56:23Z</time>
      </trkpt>
      <trkpt lat="41.4133500" lon="-5.7542240">
        <ele>735.0</ele>
        <time>2021-10-14T07:56:24Z</time>
      </trkpt>
      <trkpt lat="41.4132710" lon="-5.7541400">
        <ele>734.8</ele>
        <time>2021-10-14T07:56:28Z</time>
      </trkpt>
      <trkpt lat="41.4131680" lon="-5.7540230">
        <ele>734.6</ele>
        <time>2021-10-14T07:56:35Z</time>
      </trkpt>
      <trkpt lat="41.4131160" lon="-5.7539960">
        <ele>734.6</ele>
        <time>2021-10-14T07:56:40Z</time>
      </trkpt>
      <trkpt lat="41.4131070" lon="-5.7539860">
        <ele>734.6</ele>
        <time>2021-10-14T07:56:41Z</time>
      </trkpt>
      <trkpt lat="41.4130800" lon="-5.7539580">
        <ele>734.8</ele>
        <time>2021-10-14T07:56:46Z</time>
      </trkpt>
      <trkpt lat="41.4130160" lon="-5.7539540">
        <ele>734.8</ele>
        <time>2021-10-14T07:58:05Z</time>
      </trkpt>
      <trkpt lat="41.4129980" lon="-5.7539500">
        <ele>734.8</ele>
        <time>2021-10-14T07:58:06Z</time>
      </trkpt>
      <trkpt lat="41.4129820" lon="-5.7539460">
        <ele>734.8</ele>
        <time>2021-10-14T07:58:07Z</time>
      </trkpt>
      <trkpt lat="41.4129180" lon="-5.7539250">
        <ele>734.6</ele>
        <time>2021-10-14T07:58:10Z</time>
      </trkpt>
      <trkpt lat="41.4128310" lon="-5.7538950">
        <ele>734.6</ele>
        <time>2021-10-14T07:58:13Z</time>
      </trkpt>
      <trkpt lat="41.4126210" lon="-5.7538110">
        <ele>734.2</ele>
        <time>2021-10-14T07:58:19Z</time>
      </trkpt>
      <trkpt lat="41.4125280" lon="-5.7537640">
        <ele>734.0</ele>
        <time>2021-10-14T07:58:22Z</time>
      </trkpt>
      <trkpt lat="41.4124640" lon="-5.7537210">
        <ele>733.6</ele>
        <time>2021-10-14T07:58:25Z</time>
      </trkpt>
      <trkpt lat="41.4123480" lon="-5.7536610">
        <ele>733.0</ele>
        <time>2021-10-14T07:58:32Z</time>
      </trkpt>
      <trkpt lat="41.4123300" lon="-5.7536540">
        <ele>733.0</ele>
        <time>2021-10-14T07:58:33Z</time>
      </trkpt>
      <trkpt lat="41.4123120" lon="-5.7536590">
        <ele>733.0</ele>
        <time>2021-10-14T07:58:36Z</time>
      </trkpt>
      <trkpt lat="41.4123120" lon="-5.7536590">
        <ele>733.0</ele>
        <time>2021-10-14T07:58:37Z</time>
      </trkpt>
      <trkpt lat="41.4122290" lon="-5.7536880">
        <ele>731.6</ele>
        <time>2021-10-14T08:00:33Z</time>
      </trkpt>
      <trkpt lat="41.4122240" lon="-5.7537340">
        <ele>731.6</ele>
        <time>2021-10-14T08:00:35Z</time>
      </trkpt>
      <trkpt lat="41.4121790" lon="-5.7538440">
        <ele>731.6</ele>
        <time>2021-10-14T08:00:39Z</time>
      </trkpt>
      <trkpt lat="41.4121570" lon="-5.7539640">
        <ele>731.6</ele>
        <time>2021-10-14T08:00:43Z</time>
      </trkpt>
      <trkpt lat="41.4121390" lon="-5.7540440">
        <ele>731.6</ele>
        <time>2021-10-14T08:00:46Z</time>
      </trkpt>
      <trkpt lat="41.4121210" lon="-5.7540890">
        <ele>731.6</ele>
        <time>2021-10-14T08:00:48Z</time>
      </trkpt>
      <trkpt lat="41.4121090" lon="-5.7540990">
        <ele>731.6</ele>
        <time>2021-10-14T08:00:49Z</time>
      </trkpt>
      <trkpt lat="41.4119910" lon="-5.7541160">
        <ele>731.4</ele>
        <time>2021-10-14T08:00:54Z</time>
      </trkpt>
      <trkpt lat="41.4119330" lon="-5.7541160">
        <ele>731.2</ele>
        <time>2021-10-14T08:00:56Z</time>
      </trkpt>
      <trkpt lat="41.4117050" lon="-5.7540660">
        <ele>731.2</ele>
        <time>2021-10-14T08:01:03Z</time>
      </trkpt>
      <trkpt lat="41.4115180" lon="-5.7540190">
        <ele>731.0</ele>
        <time>2021-10-14T08:01:09Z</time>
      </trkpt>
      <trkpt lat="41.4114220" lon="-5.7539960">
        <ele>730.8</ele>
        <time>2021-10-14T08:01:12Z</time>
      </trkpt>
      <trkpt lat="41.4113140" lon="-5.7539560">
        <ele>730.4</ele>
        <time>2021-10-14T08:01:15Z</time>
      </trkpt>
      <trkpt lat="41.4111680" lon="-5.7539220">
        <ele>730.2</ele>
        <time>2021-10-14T08:01:19Z</time>
      </trkpt>
      <trkpt lat="41.4109930" lon="-5.7539060">
        <ele>729.8</ele>
        <time>2021-10-14T08:01:25Z</time>
      </trkpt>
      <trkpt lat="41.4108900" lon="-5.7539310">
        <ele>729.6</ele>
        <time>2021-10-14T08:01:30Z</time>
      </trkpt>
      <trkpt lat="41.4108780" lon="-5.7539480">
        <ele>729.4</ele>
        <time>2021-10-14T08:01:31Z</time>
      </trkpt>
      <trkpt lat="41.4108530" lon="-5.7539910">
        <ele>729.4</ele>
        <time>2021-10-14T08:01:33Z</time>
      </trkpt>
      <trkpt lat="41.4108190" lon="-5.7540600">
        <ele>729.2</ele>
        <time>2021-10-14T08:01:35Z</time>
      </trkpt>
      <trkpt lat="41.4107340" lon="-5.7543490">
        <ele>728.8</ele>
        <time>2021-10-14T08:01:42Z</time>
      </trkpt>
      <trkpt lat="41.4106620" lon="-5.7546690">
        <ele>728.4</ele>
        <time>2021-10-14T08:01:48Z</time>
      </trkpt>
      <trkpt lat="41.4105940" lon="-5.7548880">
        <ele>728.0</ele>
        <time>2021-10-14T08:01:53Z</time>
      </trkpt>
      <trkpt lat="41.4105000" lon="-5.7550910">
        <ele>727.4</ele>
        <time>2021-10-14T08:01:57Z</time>
      </trkpt>
      <trkpt lat="41.4104250" lon="-5.7552450">
        <ele>727.0</ele>
        <time>2021-10-14T08:02:00Z</time>
      </trkpt>
      <trkpt lat="41.4102360" lon="-5.7555480">
        <ele>726.6</ele>
        <time>2021-10-14T08:02:07Z</time>
      </trkpt>
      <trkpt lat="41.4102090" lon="-5.7555810">
        <ele>726.6</ele>
        <time>2021-10-14T08:02:08Z</time>
      </trkpt>
      <trkpt lat="41.4101550" lon="-5.7556510">
        <ele>726.2</ele>
        <time>2021-10-14T08:02:10Z</time>
      </trkpt>
      <trkpt lat="41.4100090" lon="-5.7558170">
        <ele>725.8</ele>
        <time>2021-10-14T08:02:15Z</time>
      </trkpt>
      <trkpt lat="41.4098860" lon="-5.7559510">
        <ele>725.8</ele>
        <time>2021-10-14T08:02:19Z</time>
      </trkpt>
      <trkpt lat="41.4097310" lon="-5.7561230">
        <ele>725.6</ele>
        <time>2021-10-14T08:02:24Z</time>
      </trkpt>
      <trkpt lat="41.4095230" lon="-5.7563830">
        <ele>725.4</ele>
        <time>2021-10-14T08:02:31Z</time>
      </trkpt>
      <trkpt lat="41.4094720" lon="-5.7564460">
        <ele>725.2</ele>
        <time>2021-10-14T08:02:33Z</time>
      </trkpt>
      <trkpt lat="41.4093550" lon="-5.7565910">
        <ele>725.0</ele>
        <time>2021-10-14T08:02:38Z</time>
      </trkpt>
      <trkpt lat="41.4092250" lon="-5.7568640">
        <ele>725.2</ele>
        <time>2021-10-14T08:02:45Z</time>
      </trkpt>
      <trkpt lat="41.4091480" lon="-5.7569970">
        <ele>725.4</ele>
        <time>2021-10-14T08:02:49Z</time>
      </trkpt>
      <trkpt lat="41.4090490" lon="-5.7571140">
        <ele>725.4</ele>
        <time>2021-10-14T08:02:53Z</time>
      </trkpt>
      <trkpt lat="41.4089760" lon="-5.7571980">
        <ele>725.6</ele>
        <time>2021-10-14T08:02:56Z</time>
      </trkpt>
      <trkpt lat="41.4088150" lon="-5.7573440">
        <ele>725.8</ele>
        <time>2021-10-14T08:03:02Z</time>
      </trkpt>
      <trkpt lat="41.4086260" lon="-5.7575070">
        <ele>726.2</ele>
        <time>2021-10-14T08:03:09Z</time>
      </trkpt>
      <trkpt lat="41.4084730" lon="-5.7576550">
        <ele>726.4</ele>
        <time>2021-10-14T08:03:15Z</time>
      </trkpt>
      <trkpt lat="41.4084470" lon="-5.7576840">
        <ele>726.4</ele>
        <time>2021-10-14T08:03:16Z</time>
      </trkpt>
      <trkpt lat="41.4082820" lon="-5.7578320">
        <ele>726.6</ele>
        <time>2021-10-14T08:03:22Z</time>
      </trkpt>
      <trkpt lat="41.4082310" lon="-5.7578790">
        <ele>726.6</ele>
        <time>2021-10-14T08:03:24Z</time>
      </trkpt>
      <trkpt lat="41.4082060" lon="-5.7578990">
        <ele>726.6</ele>
        <time>2021-10-14T08:03:25Z</time>
      </trkpt>
      <trkpt lat="41.4080770" lon="-5.7580120">
        <ele>726.8</ele>
        <time>2021-10-14T08:03:30Z</time>
      </trkpt>
      <trkpt lat="41.4079790" lon="-5.7581090">
        <ele>727.0</ele>
        <time>2021-10-14T08:03:34Z</time>
      </trkpt>
      <trkpt lat="41.4079210" lon="-5.7582060">
        <ele>727.0</ele>
        <time>2021-10-14T08:03:37Z</time>
      </trkpt>
      <trkpt lat="41.4079220" lon="-5.7582750">
        <ele>727.2</ele>
        <time>2021-10-14T08:03:39Z</time>
      </trkpt>
      <trkpt lat="41.4080120" lon="-5.7584390">
        <ele>727.2</ele>
        <time>2021-10-14T08:03:45Z</time>
      </trkpt>
      <trkpt lat="41.4081100" lon="-5.7586300">
        <ele>727.6</ele>
        <time>2021-10-14T08:03:51Z</time>
      </trkpt>
      <trkpt lat="41.4081250" lon="-5.7586600">
        <ele>727.6</ele>
        <time>2021-10-14T08:03:52Z</time>
      </trkpt>
      <trkpt lat="41.4081390" lon="-5.7586900">
        <ele>727.6</ele>
        <time>2021-10-14T08:03:53Z</time>
      </trkpt>
      <trkpt lat="41.4082510" lon="-5.7589290">
        <ele>728.0</ele>
        <time>2021-10-14T08:04:01Z</time>
      </trkpt>
      <trkpt lat="41.4082650" lon="-5.7589600">
        <ele>728.0</ele>
        <time>2021-10-14T08:04:02Z</time>
      </trkpt>
      <trkpt lat="41.4083560" lon="-5.7591490">
        <ele>728.4</ele>
        <time>2021-10-14T08:04:08Z</time>
      </trkpt>
      <trkpt lat="41.4084580" lon="-5.7593350">
        <ele>728.6</ele>
        <time>2021-10-14T08:04:14Z</time>
      </trkpt>
      <trkpt lat="41.4084940" lon="-5.7593930">
        <ele>728.6</ele>
        <time>2021-10-14T08:04:16Z</time>
      </trkpt>
      <trkpt lat="41.4085550" lon="-5.7595720">
        <ele>728.6</ele>
        <time>2021-10-14T08:04:22Z</time>
      </trkpt>
      <trkpt lat="41.4085160" lon="-5.7596910">
        <ele>728.6</ele>
        <time>2021-10-14T08:04:26Z</time>
      </trkpt>
      <trkpt lat="41.4084990" lon="-5.7597110">
        <ele>728.8</ele>
        <time>2021-10-14T08:04:27Z</time>
      </trkpt>
      <trkpt lat="41.4084170" lon="-5.7597920">
        <ele>729.0</ele>
        <time>2021-10-14T08:04:31Z</time>
      </trkpt>
      <trkpt lat="41.4083620" lon="-5.7598640">
        <ele>729.0</ele>
        <time>2021-10-14T08:04:34Z</time>
      </trkpt>
      <trkpt lat="41.4083280" lon="-5.7599080">
        <ele>729.2</ele>
        <time>2021-10-14T08:04:36Z</time>
      </trkpt>
      <trkpt lat="41.4082430" lon="-5.7600110">
        <ele>729.4</ele>
        <time>2021-10-14T08:04:41Z</time>
      </trkpt>
      <trkpt lat="41.4081740" lon="-5.7600940">
        <ele>729.8</ele>
        <time>2021-10-14T08:04:45Z</time>
      </trkpt>
      <trkpt lat="41.4081410" lon="-5.7601380">
        <ele>729.8</ele>
        <time>2021-10-14T08:04:47Z</time>
      </trkpt>
      <trkpt lat="41.4080870" lon="-5.7602010">
        <ele>730.0</ele>
        <time>2021-10-14T08:04:50Z</time>
      </trkpt>
      <trkpt lat="41.4080530" lon="-5.7602440">
        <ele>730.2</ele>
        <time>2021-10-14T08:04:52Z</time>
      </trkpt>
      <trkpt lat="41.4080130" lon="-5.7602890">
        <ele>730.2</ele>
        <time>2021-10-14T08:04:54Z</time>
      </trkpt>
      <trkpt lat="41.4079790" lon="-5.7603280">
        <ele>730.4</ele>
        <time>2021-10-14T08:04:56Z</time>
      </trkpt>
      <trkpt lat="41.4079600" lon="-5.7603530">
        <ele>730.4</ele>
        <time>2021-10-14T08:04:57Z</time>
      </trkpt>
      <trkpt lat="41.4077840" lon="-5.7605740">
        <ele>730.8</ele>
        <time>2021-10-14T08:05:07Z</time>
      </trkpt>
      <trkpt lat="41.4077640" lon="-5.7605940">
        <ele>730.8</ele>
        <time>2021-10-14T08:05:08Z</time>
      </trkpt>
      <trkpt lat="41.4076600" lon="-5.7607280">
        <ele>731.2</ele>
        <time>2021-10-14T08:05:14Z</time>
      </trkpt>
      <trkpt lat="41.4076070" lon="-5.7607980">
        <ele>731.4</ele>
        <time>2021-10-14T08:05:17Z</time>
      </trkpt>
      <trkpt lat="41.4075330" lon="-5.7608940">
        <ele>731.8</ele>
        <time>2021-10-14T08:05:21Z</time>
      </trkpt>
      <trkpt lat="41.4075160" lon="-5.7609150">
        <ele>732.0</ele>
        <time>2021-10-14T08:05:22Z</time>
      </trkpt>
      <trkpt lat="41.4074300" lon="-5.7610280">
        <ele>732.4</ele>
        <time>2021-10-14T08:05:27Z</time>
      </trkpt>
      <trkpt lat="41.4072360" lon="-5.7612610">
        <ele>732.8</ele>
        <time>2021-10-14T08:05:38Z</time>
      </trkpt>
      <trkpt lat="41.4071860" lon="-5.7613230">
        <ele>733.2</ele>
        <time>2021-10-14T08:05:41Z</time>
      </trkpt>
      <trkpt lat="41.4070870" lon="-5.7614410">
        <ele>733.6</ele>
        <time>2021-10-14T08:05:47Z</time>
      </trkpt>
      <trkpt lat="41.4069740" lon="-5.7615860">
        <ele>734.2</ele>
        <time>2021-10-14T08:05:54Z</time>
      </trkpt>
      <trkpt lat="41.4069420" lon="-5.7616260">
        <ele>734.4</ele>
        <time>2021-10-14T08:05:56Z</time>
      </trkpt>
      <trkpt lat="41.4068270" lon="-5.7617810">
        <ele>735.0</ele>
        <time>2021-10-14T08:06:04Z</time>
      </trkpt>
      <trkpt lat="41.4067420" lon="-5.7618960">
        <ele>735.2</ele>
        <time>2021-10-14T08:06:10Z</time>
      </trkpt>
      <trkpt lat="41.4067290" lon="-5.7619140">
        <ele>735.4</ele>
        <time>2021-10-14T08:06:11Z</time>
      </trkpt>
      <trkpt lat="41.4066870" lon="-5.7619720">
        <ele>735.6</ele>
        <time>2021-10-14T08:06:14Z</time>
      </trkpt>
      <trkpt lat="41.4066720" lon="-5.7619920">
        <ele>735.6</ele>
        <time>2021-10-14T08:06:15Z</time>
      </trkpt>
      <trkpt lat="41.4066390" lon="-5.7620300">
        <ele>735.8</ele>
        <time>2021-10-14T08:06:17Z</time>
      </trkpt>
      <trkpt lat="41.4065910" lon="-5.7620860">
        <ele>736.4</ele>
        <time>2021-10-14T08:06:20Z</time>
      </trkpt>
      <trkpt lat="41.4065770" lon="-5.7621070">
        <ele>736.4</ele>
        <time>2021-10-14T08:06:21Z</time>
      </trkpt>
      <trkpt lat="41.4064150" lon="-5.7623110">
        <ele>737.4</ele>
        <time>2021-10-14T08:06:32Z</time>
      </trkpt>
      <trkpt lat="41.4063500" lon="-5.7623900">
        <ele>737.6</ele>
        <time>2021-10-14T08:06:36Z</time>
      </trkpt>
      <trkpt lat="41.4063180" lon="-5.7624320">
        <ele>737.6</ele>
        <time>2021-10-14T08:06:38Z</time>
      </trkpt>
      <trkpt lat="41.4063030" lon="-5.7624540">
        <ele>737.6</ele>
        <time>2021-10-14T08:06:39Z</time>
      </trkpt>
      <trkpt lat="41.4062880" lon="-5.7624730">
        <ele>737.8</ele>
        <time>2021-10-14T08:06:40Z</time>
      </trkpt>
      <trkpt lat="41.4061570" lon="-5.7626220">
        <ele>738.0</ele>
        <time>2021-10-14T08:06:48Z</time>
      </trkpt>
      <trkpt lat="41.4061260" lon="-5.7626620">
        <ele>738.0</ele>
        <time>2021-10-14T08:06:50Z</time>
      </trkpt>
      <trkpt lat="41.4060960" lon="-5.7627030">
        <ele>738.0</ele>
        <time>2021-10-14T08:06:52Z</time>
      </trkpt>
      <trkpt lat="41.4059450" lon="-5.7628920">
        <ele>738.0</ele>
        <time>2021-10-14T08:07:01Z</time>
      </trkpt>
      <trkpt lat="41.4058140" lon="-5.7630600">
        <ele>738.6</ele>
        <time>2021-10-14T08:07:09Z</time>
      </trkpt>
      <trkpt lat="41.4057840" lon="-5.7631010">
        <ele>738.6</ele>
        <time>2021-10-14T08:07:11Z</time>
      </trkpt>
      <trkpt lat="41.4056210" lon="-5.7633060">
        <ele>739.0</ele>
        <time>2021-10-14T08:07:21Z</time>
      </trkpt>
      <trkpt lat="41.4056030" lon="-5.7633240">
        <ele>739.0</ele>
        <time>2021-10-14T08:07:22Z</time>
      </trkpt>
      <trkpt lat="41.4054440" lon="-5.7635080">
        <ele>739.2</ele>
        <time>2021-10-14T08:07:31Z</time>
      </trkpt>
      <trkpt lat="41.4052820" lon="-5.7636990">
        <ele>739.4</ele>
        <time>2021-10-14T08:07:40Z</time>
      </trkpt>
      <trkpt lat="41.4052310" lon="-5.7637640">
        <ele>739.6</ele>
        <time>2021-10-14T08:07:43Z</time>
      </trkpt>
      <trkpt lat="41.4051500" lon="-5.7638730">
        <ele>739.6</ele>
        <time>2021-10-14T08:07:48Z</time>
      </trkpt>
      <trkpt lat="41.4051200" lon="-5.7639190">
        <ele>739.8</ele>
        <time>2021-10-14T08:07:50Z</time>
      </trkpt>
      <trkpt lat="41.4050090" lon="-5.7640560">
        <ele>740.4</ele>
        <time>2021-10-14T08:07:57Z</time>
      </trkpt>
      <trkpt lat="41.4049650" lon="-5.7641070">
        <ele>740.6</ele>
        <time>2021-10-14T08:08:00Z</time>
      </trkpt>
      <trkpt lat="41.4049500" lon="-5.7641240">
        <ele>740.6</ele>
        <time>2021-10-14T08:08:01Z</time>
      </trkpt>
      <trkpt lat="41.4049180" lon="-5.7641610">
        <ele>740.6</ele>
        <time>2021-10-14T08:08:03Z</time>
      </trkpt>
      <trkpt lat="41.4048860" lon="-5.7641980">
        <ele>740.8</ele>
        <time>2021-10-14T08:08:05Z</time>
      </trkpt>
      <trkpt lat="41.4048000" lon="-5.7643140">
        <ele>741.6</ele>
        <time>2021-10-14T08:08:11Z</time>
      </trkpt>
      <trkpt lat="41.4047380" lon="-5.7643920">
        <ele>741.8</ele>
        <time>2021-10-14T08:08:15Z</time>
      </trkpt>
      <trkpt lat="41.4047230" lon="-5.7644130">
        <ele>742.0</ele>
        <time>2021-10-14T08:08:16Z</time>
      </trkpt>
      <trkpt lat="41.4047080" lon="-5.7644330">
        <ele>742.0</ele>
        <time>2021-10-14T08:08:17Z</time>
      </trkpt>
      <trkpt lat="41.4046430" lon="-5.7645110">
        <ele>742.4</ele>
        <time>2021-10-14T08:08:21Z</time>
      </trkpt>
      <trkpt lat="41.4046130" lon="-5.7645510">
        <ele>742.6</ele>
        <time>2021-10-14T08:08:23Z</time>
      </trkpt>
      <trkpt lat="41.4045970" lon="-5.7645720">
        <ele>742.6</ele>
        <time>2021-10-14T08:08:24Z</time>
      </trkpt>
      <trkpt lat="41.4045670" lon="-5.7646110">
        <ele>743.0</ele>
        <time>2021-10-14T08:08:26Z</time>
      </trkpt>
      <trkpt lat="41.4045360" lon="-5.7646530">
        <ele>743.2</ele>
        <time>2021-10-14T08:08:28Z</time>
      </trkpt>
      <trkpt lat="41.4045080" lon="-5.7646900">
        <ele>743.2</ele>
        <time>2021-10-14T08:08:30Z</time>
      </trkpt>
      <trkpt lat="41.4044820" lon="-5.7647260">
        <ele>743.4</ele>
        <time>2021-10-14T08:08:32Z</time>
      </trkpt>
      <trkpt lat="41.4044420" lon="-5.7647890">
        <ele>743.6</ele>
        <time>2021-10-14T08:08:35Z</time>
      </trkpt>
      <trkpt lat="41.4043930" lon="-5.7648510">
        <ele>743.6</ele>
        <time>2021-10-14T08:08:38Z</time>
      </trkpt>
      <trkpt lat="41.4043590" lon="-5.7648890">
        <ele>743.8</ele>
        <time>2021-10-14T08:08:40Z</time>
      </trkpt>
      <trkpt lat="41.4043250" lon="-5.7649290">
        <ele>744.0</ele>
        <time>2021-10-14T08:08:42Z</time>
      </trkpt>
      <trkpt lat="41.4043090" lon="-5.7649530">
        <ele>744.0</ele>
        <time>2021-10-14T08:08:43Z</time>
      </trkpt>
      <trkpt lat="41.4042630" lon="-5.7650130">
        <ele>744.4</ele>
        <time>2021-10-14T08:08:46Z</time>
      </trkpt>
      <trkpt lat="41.4041140" lon="-5.7652010">
        <ele>745.0</ele>
        <time>2021-10-14T08:08:55Z</time>
      </trkpt>
      <trkpt lat="41.4039420" lon="-5.7654260">
        <ele>745.6</ele>
        <time>2021-10-14T08:09:06Z</time>
      </trkpt>
      <trkpt lat="41.4038160" lon="-5.7655840">
        <ele>746.0</ele>
        <time>2021-10-14T08:09:14Z</time>
      </trkpt>
      <trkpt lat="41.4038000" lon="-5.7656040">
        <ele>746.2</ele>
        <time>2021-10-14T08:09:15Z</time>
      </trkpt>
      <trkpt lat="41.4036320" lon="-5.7658180">
        <ele>747.4</ele>
        <time>2021-10-14T08:09:26Z</time>
      </trkpt>
      <trkpt lat="41.4036020" lon="-5.7658530">
        <ele>747.6</ele>
        <time>2021-10-14T08:09:28Z</time>
      </trkpt>
      <trkpt lat="41.4034640" lon="-5.7660250">
        <ele>748.2</ele>
        <time>2021-10-14T08:09:37Z</time>
      </trkpt>
      <trkpt lat="41.4034290" lon="-5.7660620">
        <ele>748.4</ele>
        <time>2021-10-14T08:09:39Z</time>
      </trkpt>
      <trkpt lat="41.4033500" lon="-5.7661600">
        <ele>748.8</ele>
        <time>2021-10-14T08:09:44Z</time>
      </trkpt>
      <trkpt lat="41.4033010" lon="-5.7662210">
        <ele>749.0</ele>
        <time>2021-10-14T08:09:47Z</time>
      </trkpt>
      <trkpt lat="41.4032440" lon="-5.7662900">
        <ele>749.4</ele>
        <time>2021-10-14T08:09:53Z</time>
      </trkpt>
      <trkpt lat="41.4032440" lon="-5.7662900">
        <ele>749.4</ele>
        <time>2021-10-14T08:09:54Z</time>
      </trkpt>
      <trkpt lat="41.4032140" lon="-5.7663420">
        <ele>749.4</ele>
        <time>2021-10-14T08:13:16Z</time>
      </trkpt>
      <trkpt lat="41.4031960" lon="-5.7663590">
        <ele>749.4</ele>
        <time>2021-10-14T08:13:17Z</time>
      </trkpt>
      <trkpt lat="41.4031790" lon="-5.7663780">
        <ele>749.4</ele>
        <time>2021-10-14T08:13:18Z</time>
      </trkpt>
      <trkpt lat="41.4031160" lon="-5.7664670">
        <ele>749.8</ele>
        <time>2021-10-14T08:13:22Z</time>
      </trkpt>
      <trkpt lat="41.4030730" lon="-5.7665340">
        <ele>749.8</ele>
        <time>2021-10-14T08:13:25Z</time>
      </trkpt>
      <trkpt lat="41.4029840" lon="-5.7667330">
        <ele>749.6</ele>
        <time>2021-10-14T08:13:32Z</time>
      </trkpt>
      <trkpt lat="41.4028920" lon="-5.7669310">
        <ele>748.8</ele>
        <time>2021-10-14T08:13:37Z</time>
      </trkpt>
      <trkpt lat="41.4028540" lon="-5.7670130">
        <ele>748.4</ele>
        <time>2021-10-14T08:13:39Z</time>
      </trkpt>
      <trkpt lat="41.4027430" lon="-5.7672820">
        <ele>747.2</ele>
        <time>2021-10-14T08:13:45Z</time>
      </trkpt>
      <trkpt lat="41.4026630" lon="-5.7674580">
        <ele>746.0</ele>
        <time>2021-10-14T08:13:49Z</time>
      </trkpt>
      <trkpt lat="41.4026070" lon="-5.7675920">
        <ele>744.8</ele>
        <time>2021-10-14T08:13:52Z</time>
      </trkpt>
      <trkpt lat="41.4025270" lon="-5.7677780">
        <ele>744.2</ele>
        <time>2021-10-14T08:13:56Z</time>
      </trkpt>
      <trkpt lat="41.4025070" lon="-5.7678270">
        <ele>743.6</ele>
        <time>2021-10-14T08:13:57Z</time>
      </trkpt>
      <trkpt lat="41.4024430" lon="-5.7679760">
        <ele>742.4</ele>
        <time>2021-10-14T08:14:00Z</time>
      </trkpt>
      <trkpt lat="41.4023560" lon="-5.7681730">
        <ele>741.2</ele>
        <time>2021-10-14T08:14:04Z</time>
      </trkpt>
      <trkpt lat="41.4023360" lon="-5.7682210">
        <ele>741.0</ele>
        <time>2021-10-14T08:14:05Z</time>
      </trkpt>
      <trkpt lat="41.4022770" lon="-5.7683550">
        <ele>739.8</ele>
        <time>2021-10-14T08:14:08Z</time>
      </trkpt>
      <trkpt lat="41.4022000" lon="-5.7685270">
        <ele>739.0</ele>
        <time>2021-10-14T08:14:12Z</time>
      </trkpt>
      <trkpt lat="41.4021810" lon="-5.7685760">
        <ele>738.8</ele>
        <time>2021-10-14T08:14:13Z</time>
      </trkpt>
      <trkpt lat="41.4020970" lon="-5.7687690">
        <ele>737.4</ele>
        <time>2021-10-14T08:14:17Z</time>
      </trkpt>
      <trkpt lat="41.4020750" lon="-5.7688180">
        <ele>737.2</ele>
        <time>2021-10-14T08:14:18Z</time>
      </trkpt>
      <trkpt lat="41.4020540" lon="-5.7688650">
        <ele>737.0</ele>
        <time>2021-10-14T08:14:19Z</time>
      </trkpt>
      <trkpt lat="41.4020120" lon="-5.7689610">
        <ele>736.2</ele>
        <time>2021-10-14T08:14:21Z</time>
      </trkpt>
      <trkpt lat="41.4019920" lon="-5.7690110">
        <ele>736.0</ele>
        <time>2021-10-14T08:14:22Z</time>
      </trkpt>
      <trkpt lat="41.4019260" lon="-5.7691530">
        <ele>735.0</ele>
        <time>2021-10-14T08:14:25Z</time>
      </trkpt>
      <trkpt lat="41.4018410" lon="-5.7693450">
        <ele>734.0</ele>
        <time>2021-10-14T08:14:29Z</time>
      </trkpt>
      <trkpt lat="41.4018210" lon="-5.7693910">
        <ele>733.8</ele>
        <time>2021-10-14T08:14:30Z</time>
      </trkpt>
      <trkpt lat="41.4018020" lon="-5.7694380">
        <ele>733.6</ele>
        <time>2021-10-14T08:14:31Z</time>
      </trkpt>
      <trkpt lat="41.4017800" lon="-5.7694840">
        <ele>733.4</ele>
        <time>2021-10-14T08:14:32Z</time>
      </trkpt>
      <trkpt lat="41.4017580" lon="-5.7695290">
        <ele>733.2</ele>
        <time>2021-10-14T08:14:33Z</time>
      </trkpt>
      <trkpt lat="41.4017350" lon="-5.7695770">
        <ele>732.8</ele>
        <time>2021-10-14T08:14:34Z</time>
      </trkpt>
      <trkpt lat="41.4017160" lon="-5.7696260">
        <ele>732.4</ele>
        <time>2021-10-14T08:14:35Z</time>
      </trkpt>
      <trkpt lat="41.4016780" lon="-5.7697250">
        <ele>731.6</ele>
        <time>2021-10-14T08:14:37Z</time>
      </trkpt>
      <trkpt lat="41.4016600" lon="-5.7697710">
        <ele>731.4</ele>
        <time>2021-10-14T08:14:38Z</time>
      </trkpt>
      <trkpt lat="41.4016220" lon="-5.7698600">
        <ele>730.8</ele>
        <time>2021-10-14T08:14:40Z</time>
      </trkpt>
      <trkpt lat="41.4015830" lon="-5.7699520">
        <ele>730.6</ele>
        <time>2021-10-14T08:14:42Z</time>
      </trkpt>
      <trkpt lat="41.4015050" lon="-5.7701290">
        <ele>729.6</ele>
        <time>2021-10-14T08:14:46Z</time>
      </trkpt>
      <trkpt lat="41.4014840" lon="-5.7701740">
        <ele>729.2</ele>
        <time>2021-10-14T08:14:47Z</time>
      </trkpt>
      <trkpt lat="41.4014660" lon="-5.7702170">
        <ele>729.2</ele>
        <time>2021-10-14T08:14:48Z</time>
      </trkpt>
      <trkpt lat="41.4014040" lon="-5.7703540">
        <ele>728.8</ele>
        <time>2021-10-14T08:14:51Z</time>
      </trkpt>
      <trkpt lat="41.4013670" lon="-5.7704500">
        <ele>728.8</ele>
        <time>2021-10-14T08:14:53Z</time>
      </trkpt>
      <trkpt lat="41.4013470" lon="-5.7704980">
        <ele>728.4</ele>
        <time>2021-10-14T08:14:54Z</time>
      </trkpt>
      <trkpt lat="41.4013270" lon="-5.7705450">
        <ele>728.2</ele>
        <time>2021-10-14T08:14:55Z</time>
      </trkpt>
      <trkpt lat="41.4012410" lon="-5.7707400">
        <ele>727.4</ele>
        <time>2021-10-14T08:14:59Z</time>
      </trkpt>
      <trkpt lat="41.4011990" lon="-5.7708410">
        <ele>726.8</ele>
        <time>2021-10-14T08:15:01Z</time>
      </trkpt>
      <trkpt lat="41.4011560" lon="-5.7709370">
        <ele>726.4</ele>
        <time>2021-10-14T08:15:03Z</time>
      </trkpt>
      <trkpt lat="41.4011330" lon="-5.7709880">
        <ele>726.6</ele>
        <time>2021-10-14T08:15:04Z</time>
      </trkpt>
      <trkpt lat="41.4010890" lon="-5.7710860">
        <ele>725.8</ele>
        <time>2021-10-14T08:15:06Z</time>
      </trkpt>
      <trkpt lat="41.4010670" lon="-5.7711340">
        <ele>725.4</ele>
        <time>2021-10-14T08:15:07Z</time>
      </trkpt>
      <trkpt lat="41.4010070" lon="-5.7712730">
        <ele>724.8</ele>
        <time>2021-10-14T08:15:10Z</time>
      </trkpt>
      <trkpt lat="41.4009670" lon="-5.7713730">
        <ele>724.2</ele>
        <time>2021-10-14T08:15:12Z</time>
      </trkpt>
      <trkpt lat="41.4008900" lon="-5.7715540">
        <ele>723.8</ele>
        <time>2021-10-14T08:15:16Z</time>
      </trkpt>
      <trkpt lat="41.4008400" lon="-5.7716770">
        <ele>723.6</ele>
        <time>2021-10-14T08:15:19Z</time>
      </trkpt>
      <trkpt lat="41.4008260" lon="-5.7717140">
        <ele>723.4</ele>
        <time>2021-10-14T08:15:20Z</time>
      </trkpt>
      <trkpt lat="41.4008110" lon="-5.7717500">
        <ele>723.0</ele>
        <time>2021-10-14T08:15:21Z</time>
      </trkpt>
      <trkpt lat="41.4007520" lon="-5.7718230">
        <ele>722.4</ele>
        <time>2021-10-14T08:15:24Z</time>
      </trkpt>
      <trkpt lat="41.4007290" lon="-5.7718300">
        <ele>722.0</ele>
        <time>2021-10-14T08:15:25Z</time>
      </trkpt>
      <trkpt lat="41.4007090" lon="-5.7718300">
        <ele>721.8</ele>
        <time>2021-10-14T08:15:26Z</time>
      </trkpt>
      <trkpt lat="41.4006780" lon="-5.7718140">
        <ele>721.4</ele>
        <time>2021-10-14T08:15:28Z</time>
      </trkpt>
      <trkpt lat="41.4005680" lon="-5.7717520">
        <ele>721.4</ele>
        <time>2021-10-14T08:15:35Z</time>
      </trkpt>
      <trkpt lat="41.4005210" lon="-5.7717340">
        <ele>721.4</ele>
        <time>2021-10-14T08:15:38Z</time>
      </trkpt>
      <trkpt lat="41.4004720" lon="-5.7717150">
        <ele>721.4</ele>
        <time>2021-10-14T08:15:41Z</time>
      </trkpt>
      <trkpt lat="41.4003520" lon="-5.7716590">
        <ele>721.6</ele>
        <time>2021-10-14T08:15:48Z</time>
      </trkpt>
      <trkpt lat="41.4002440" lon="-5.7716090">
        <ele>721.8</ele>
        <time>2021-10-14T08:15:54Z</time>
      </trkpt>
      <trkpt lat="41.4000680" lon="-5.7715190">
        <ele>722.0</ele>
        <time>2021-10-14T08:16:01Z</time>
      </trkpt>
      <trkpt lat="41.4000170" lon="-5.7714930">
        <ele>722.0</ele>
        <time>2021-10-14T08:16:03Z</time>
      </trkpt>
      <trkpt lat="41.3997320" lon="-5.7713510">
        <ele>722.6</ele>
        <time>2021-10-14T08:16:14Z</time>
      </trkpt>
      <trkpt lat="41.3996560" lon="-5.7713170">
        <ele>722.6</ele>
        <time>2021-10-14T08:16:17Z</time>
      </trkpt>
      <trkpt lat="41.3996060" lon="-5.7712910">
        <ele>722.6</ele>
        <time>2021-10-14T08:16:19Z</time>
      </trkpt>
      <trkpt lat="41.3995090" lon="-5.7712460">
        <ele>722.8</ele>
        <time>2021-10-14T08:16:23Z</time>
      </trkpt>
      <trkpt lat="41.3994700" lon="-5.7712200">
        <ele>723.0</ele>
        <time>2021-10-14T08:16:25Z</time>
      </trkpt>
      <trkpt lat="41.3993590" lon="-5.7711770">
        <ele>723.2</ele>
        <time>2021-10-14T08:16:30Z</time>
      </trkpt>
      <trkpt lat="41.3992430" lon="-5.7711220">
        <ele>723.8</ele>
        <time>2021-10-14T08:16:35Z</time>
      </trkpt>
      <trkpt lat="41.3991780" lon="-5.7710940">
        <ele>724.0</ele>
        <time>2021-10-14T08:16:38Z</time>
      </trkpt>
      <trkpt lat="41.3991550" lon="-5.7710860">
        <ele>724.2</ele>
        <time>2021-10-14T08:16:39Z</time>
      </trkpt>
      <trkpt lat="41.3990200" lon="-5.7710220">
        <ele>724.4</ele>
        <time>2021-10-14T08:16:45Z</time>
      </trkpt>
      <trkpt lat="41.3989510" lon="-5.7709900">
        <ele>724.6</ele>
        <time>2021-10-14T08:16:48Z</time>
      </trkpt>
      <trkpt lat="41.3988820" lon="-5.7709580">
        <ele>724.8</ele>
        <time>2021-10-14T08:16:51Z</time>
      </trkpt>
      <trkpt lat="41.3988350" lon="-5.7709370">
        <ele>725.0</ele>
        <time>2021-10-14T08:16:53Z</time>
      </trkpt>
      <trkpt lat="41.3987880" lon="-5.7709140">
        <ele>725.2</ele>
        <time>2021-10-14T08:16:55Z</time>
      </trkpt>
      <trkpt lat="41.3986850" lon="-5.7708790">
        <ele>725.4</ele>
        <time>2021-10-14T08:16:59Z</time>
      </trkpt>
      <trkpt lat="41.3986120" lon="-5.7708310">
        <ele>725.6</ele>
        <time>2021-10-14T08:17:02Z</time>
      </trkpt>
      <trkpt lat="41.3984570" lon="-5.7707560">
        <ele>725.8</ele>
        <time>2021-10-14T08:17:08Z</time>
      </trkpt>
      <trkpt lat="41.3984320" lon="-5.7707450">
        <ele>725.8</ele>
        <time>2021-10-14T08:17:09Z</time>
      </trkpt>
      <trkpt lat="41.3983860" lon="-5.7707210">
        <ele>726.0</ele>
        <time>2021-10-14T08:17:11Z</time>
      </trkpt>
      <trkpt lat="41.3982940" lon="-5.7706780">
        <ele>726.0</ele>
        <time>2021-10-14T08:17:15Z</time>
      </trkpt>
      <trkpt lat="41.3982420" lon="-5.7706550">
        <ele>726.0</ele>
        <time>2021-10-14T08:17:17Z</time>
      </trkpt>
      <trkpt lat="41.3981620" lon="-5.7706180">
        <ele>725.8</ele>
        <time>2021-10-14T08:17:20Z</time>
      </trkpt>
      <trkpt lat="41.3980780" lon="-5.7705750">
        <ele>725.6</ele>
        <time>2021-10-14T08:17:23Z</time>
      </trkpt>
      <trkpt lat="41.3980130" lon="-5.7705590">
        <ele>725.6</ele>
        <time>2021-10-14T08:17:25Z</time>
      </trkpt>
      <trkpt lat="41.3978540" lon="-5.7704770">
        <ele>725.4</ele>
        <time>2021-10-14T08:17:30Z</time>
      </trkpt>
      <trkpt lat="41.3977800" lon="-5.7704440">
        <ele>725.2</ele>
        <time>2021-10-14T08:17:32Z</time>
      </trkpt>
      <trkpt lat="41.3974620" lon="-5.7702900">
        <ele>724.4</ele>
        <time>2021-10-14T08:17:40Z</time>
      </trkpt>
      <trkpt lat="41.3974220" lon="-5.7702700">
        <ele>724.4</ele>
        <time>2021-10-14T08:17:41Z</time>
      </trkpt>
      <trkpt lat="41.3973820" lon="-5.7702500">
        <ele>724.2</ele>
        <time>2021-10-14T08:17:42Z</time>
      </trkpt>
      <trkpt lat="41.3972250" lon="-5.7701720">
        <ele>723.8</ele>
        <time>2021-10-14T08:17:46Z</time>
      </trkpt>
      <trkpt lat="41.3971140" lon="-5.7701120">
        <ele>723.8</ele>
        <time>2021-10-14T08:17:49Z</time>
      </trkpt>
      <trkpt lat="41.3970050" lon="-5.7700580">
        <ele>723.6</ele>
        <time>2021-10-14T08:17:52Z</time>
      </trkpt>
      <trkpt lat="41.3968550" lon="-5.7699990">
        <ele>723.2</ele>
        <time>2021-10-14T08:17:56Z</time>
      </trkpt>
      <trkpt lat="41.3967380" lon="-5.7699420">
        <ele>723.2</ele>
        <time>2021-10-14T08:17:59Z</time>
      </trkpt>
      <trkpt lat="41.3966980" lon="-5.7699240">
        <ele>723.2</ele>
        <time>2021-10-14T08:18:00Z</time>
      </trkpt>
      <trkpt lat="41.3964500" lon="-5.7698050">
        <ele>723.0</ele>
        <time>2021-10-14T08:18:06Z</time>
      </trkpt>
      <trkpt lat="41.3963250" lon="-5.7697420">
        <ele>722.8</ele>
        <time>2021-10-14T08:18:09Z</time>
      </trkpt>
      <trkpt lat="41.3962810" lon="-5.7697220">
        <ele>722.8</ele>
        <time>2021-10-14T08:18:10Z</time>
      </trkpt>
      <trkpt lat="41.3960080" lon="-5.7695840">
        <ele>722.2</ele>
        <time>2021-10-14T08:18:17Z</time>
      </trkpt>
      <trkpt lat="41.3958590" lon="-5.7695090">
        <ele>722.0</ele>
        <time>2021-10-14T08:18:21Z</time>
      </trkpt>
      <trkpt lat="41.3958190" lon="-5.7694890">
        <ele>721.8</ele>
        <time>2021-10-14T08:18:22Z</time>
      </trkpt>
      <trkpt lat="41.3956060" lon="-5.7693950">
        <ele>721.6</ele>
        <time>2021-10-14T08:18:27Z</time>
      </trkpt>
      <trkpt lat="41.3954390" lon="-5.7693130">
        <ele>721.4</ele>
        <time>2021-10-14T08:18:31Z</time>
      </trkpt>
      <trkpt lat="41.3950960" lon="-5.7691360">
        <ele>721.4</ele>
        <time>2021-10-14T08:18:40Z</time>
      </trkpt>
      <trkpt lat="41.3950590" lon="-5.7691170">
        <ele>721.4</ele>
        <time>2021-10-14T08:18:41Z</time>
      </trkpt>
      <trkpt lat="41.3949070" lon="-5.7690440">
        <ele>721.4</ele>
        <time>2021-10-14T08:18:45Z</time>
      </trkpt>
      <trkpt lat="41.3948000" lon="-5.7689640">
        <ele>721.6</ele>
        <time>2021-10-14T08:18:48Z</time>
      </trkpt>
      <trkpt lat="41.3947620" lon="-5.7689430">
        <ele>721.6</ele>
        <time>2021-10-14T08:18:49Z</time>
      </trkpt>
      <trkpt lat="41.3945970" lon="-5.7688740">
        <ele>721.6</ele>
        <time>2021-10-14T08:18:53Z</time>
      </trkpt>
      <trkpt lat="41.3944830" lon="-5.7688070">
        <ele>721.8</ele>
        <time>2021-10-14T08:18:56Z</time>
      </trkpt>
      <trkpt lat="41.3944430" lon="-5.7687870">
        <ele>721.8</ele>
        <time>2021-10-14T08:18:57Z</time>
      </trkpt>
      <trkpt lat="41.3941690" lon="-5.7686930">
        <ele>721.8</ele>
        <time>2021-10-14T08:19:04Z</time>
      </trkpt>
      <trkpt lat="41.3940950" lon="-5.7686700">
        <ele>721.8</ele>
        <time>2021-10-14T08:19:06Z</time>
      </trkpt>
      <trkpt lat="41.3938670" lon="-5.7686190">
        <ele>721.8</ele>
        <time>2021-10-14T08:19:12Z</time>
      </trkpt>
      <trkpt lat="41.3937520" lon="-5.7686040">
        <ele>721.8</ele>
        <time>2021-10-14T08:19:15Z</time>
      </trkpt>
      <trkpt lat="41.3936450" lon="-5.7686050">
        <ele>722.2</ele>
        <time>2021-10-14T08:19:18Z</time>
      </trkpt>
      <trkpt lat="41.3936100" lon="-5.7685980">
        <ele>722.2</ele>
        <time>2021-10-14T08:19:19Z</time>
      </trkpt>
      <trkpt lat="41.3932670" lon="-5.7685210">
        <ele>722.6</ele>
        <time>2021-10-14T08:19:28Z</time>
      </trkpt>
      <trkpt lat="41.3931510" lon="-5.7685040">
        <ele>722.8</ele>
        <time>2021-10-14T08:19:31Z</time>
      </trkpt>
      <trkpt lat="41.3930390" lon="-5.7684720">
        <ele>722.8</ele>
        <time>2021-10-14T08:19:34Z</time>
      </trkpt>
      <trkpt lat="41.3929210" lon="-5.7684460">
        <ele>722.8</ele>
        <time>2021-10-14T08:19:37Z</time>
      </trkpt>
      <trkpt lat="41.3928820" lon="-5.7684370">
        <ele>722.8</ele>
        <time>2021-10-14T08:19:38Z</time>
      </trkpt>
      <trkpt lat="41.3924720" lon="-5.7683540">
        <ele>722.6</ele>
        <time>2021-10-14T08:19:49Z</time>
      </trkpt>
      <trkpt lat="41.3923710" lon="-5.7683340">
        <ele>722.6</ele>
        <time>2021-10-14T08:19:52Z</time>
      </trkpt>
      <trkpt lat="41.3922290" lon="-5.7683040">
        <ele>722.6</ele>
        <time>2021-10-14T08:19:56Z</time>
      </trkpt>
      <trkpt lat="41.3921290" lon="-5.7682810">
        <ele>722.6</ele>
        <time>2021-10-14T08:19:59Z</time>
      </trkpt>
      <trkpt lat="41.3920960" lon="-5.7682760">
        <ele>722.6</ele>
        <time>2021-10-14T08:20:00Z</time>
      </trkpt>
      <trkpt lat="41.3919120" lon="-5.7682370">
        <ele>722.8</ele>
        <time>2021-10-14T08:20:06Z</time>
      </trkpt>
      <trkpt lat="41.3917860" lon="-5.7682140">
        <ele>723.0</ele>
        <time>2021-10-14T08:20:10Z</time>
      </trkpt>
      <trkpt lat="41.3916750" lon="-5.7681950">
        <ele>723.0</ele>
        <time>2021-10-14T08:20:14Z</time>
      </trkpt>
      <trkpt lat="41.3915810" lon="-5.7681810">
        <ele>723.4</ele>
        <time>2021-10-14T08:20:18Z</time>
      </trkpt>
      <trkpt lat="41.3915630" lon="-5.7681760">
        <ele>723.6</ele>
        <time>2021-10-14T08:20:19Z</time>
      </trkpt>
      <trkpt lat="41.3915330" lon="-5.7681750">
        <ele>723.8</ele>
        <time>2021-10-14T08:20:21Z</time>
      </trkpt>
      <trkpt lat="41.3914830" lon="-5.7681970">
        <ele>723.8</ele>
        <time>2021-10-14T08:20:25Z</time>
      </trkpt>
      <trkpt lat="41.3914630" lon="-5.7682240">
        <ele>723.8</ele>
        <time>2021-10-14T08:20:27Z</time>
      </trkpt>
      <trkpt lat="41.3914540" lon="-5.7682730">
        <ele>723.8</ele>
        <time>2021-10-14T08:20:30Z</time>
      </trkpt>
      <trkpt lat="41.3914310" lon="-5.7684010">
        <ele>723.6</ele>
        <time>2021-10-14T08:20:36Z</time>
      </trkpt>
      <trkpt lat="41.3914240" lon="-5.7684900">
        <ele>723.4</ele>
        <time>2021-10-14T08:20:39Z</time>
      </trkpt>
      <trkpt lat="41.3914010" lon="-5.7686210">
        <ele>723.0</ele>
        <time>2021-10-14T08:20:44Z</time>
      </trkpt>
      <trkpt lat="41.3913820" lon="-5.7686790">
        <ele>722.6</ele>
        <time>2021-10-14T08:20:47Z</time>
      </trkpt>
      <trkpt lat="41.3913770" lon="-5.7687000">
        <ele>722.4</ele>
        <time>2021-10-14T08:20:48Z</time>
      </trkpt>
      <trkpt lat="41.3913490" lon="-5.7688300">
        <ele>721.8</ele>
        <time>2021-10-14T08:20:53Z</time>
      </trkpt>
      <trkpt lat="41.3913360" lon="-5.7689290">
        <ele>721.4</ele>
        <time>2021-10-14T08:20:57Z</time>
      </trkpt>
      <trkpt lat="41.3913340" lon="-5.7689560">
        <ele>721.2</ele>
        <time>2021-10-14T08:20:58Z</time>
      </trkpt>
      <trkpt lat="41.3912980" lon="-5.7691120">
        <ele>720.8</ele>
        <time>2021-10-14T08:21:04Z</time>
      </trkpt>
      <trkpt lat="41.3912870" lon="-5.7691640">
        <ele>720.6</ele>
        <time>2021-10-14T08:21:06Z</time>
      </trkpt>
      <trkpt lat="41.3912740" lon="-5.7692580">
        <ele>720.2</ele>
        <time>2021-10-14T08:21:10Z</time>
      </trkpt>
      <trkpt lat="41.3912510" lon="-5.7694010">
        <ele>720.0</ele>
        <time>2021-10-14T08:21:14Z</time>
      </trkpt>
      <trkpt lat="41.3911970" lon="-5.7696970">
        <ele>719.6</ele>
        <time>2021-10-14T08:21:20Z</time>
      </trkpt>
      <trkpt lat="41.3911740" lon="-5.7698000">
        <ele>719.2</ele>
        <time>2021-10-14T08:21:22Z</time>
      </trkpt>
      <trkpt lat="41.3911150" lon="-5.7700930">
        <ele>718.8</ele>
        <time>2021-10-14T08:21:28Z</time>
      </trkpt>
      <trkpt lat="41.3910090" lon="-5.7705750">
        <ele>718.2</ele>
        <time>2021-10-14T08:21:37Z</time>
      </trkpt>
      <trkpt lat="41.3909980" lon="-5.7706280">
        <ele>718.2</ele>
        <time>2021-10-14T08:21:38Z</time>
      </trkpt>
      <trkpt lat="41.3909880" lon="-5.7706820">
        <ele>718.2</ele>
        <time>2021-10-14T08:21:39Z</time>
      </trkpt>
      <trkpt lat="41.3909050" lon="-5.7711060">
        <ele>717.8</ele>
        <time>2021-10-14T08:21:47Z</time>
      </trkpt>
      <trkpt lat="41.3908710" lon="-5.7712680">
        <ele>717.8</ele>
        <time>2021-10-14T08:21:50Z</time>
      </trkpt>
      <trkpt lat="41.3908520" lon="-5.7713710">
        <ele>717.4</ele>
        <time>2021-10-14T08:21:52Z</time>
      </trkpt>
      <trkpt lat="41.3908230" lon="-5.7715240">
        <ele>717.4</ele>
        <time>2021-10-14T08:21:55Z</time>
      </trkpt>
      <trkpt lat="41.3907970" lon="-5.7716600">
        <ele>717.6</ele>
        <time>2021-10-14T08:21:58Z</time>
      </trkpt>
      <trkpt lat="41.3907760" lon="-5.7717670">
        <ele>717.6</ele>
        <time>2021-10-14T08:22:00Z</time>
      </trkpt>
      <trkpt lat="41.3907600" lon="-5.7718560">
        <ele>717.6</ele>
        <time>2021-10-14T08:22:02Z</time>
      </trkpt>
      <trkpt lat="41.3907530" lon="-5.7719060">
        <ele>717.6</ele>
        <time>2021-10-14T08:22:03Z</time>
      </trkpt>
      <trkpt lat="41.3906980" lon="-5.7722070">
        <ele>717.8</ele>
        <time>2021-10-14T08:22:09Z</time>
      </trkpt>
      <trkpt lat="41.3906910" lon="-5.7722610">
        <ele>717.8</ele>
        <time>2021-10-14T08:22:10Z</time>
      </trkpt>
      <trkpt lat="41.3906630" lon="-5.7724140">
        <ele>717.8</ele>
        <time>2021-10-14T08:22:13Z</time>
      </trkpt>
      <trkpt lat="41.3906430" lon="-5.7725120">
        <ele>717.8</ele>
        <time>2021-10-14T08:22:15Z</time>
      </trkpt>
      <trkpt lat="41.3905950" lon="-5.7727510">
        <ele>718.0</ele>
        <time>2021-10-14T08:22:20Z</time>
      </trkpt>
      <trkpt lat="41.3905180" lon="-5.7731470">
        <ele>718.2</ele>
        <time>2021-10-14T08:22:28Z</time>
      </trkpt>
      <trkpt lat="41.3905090" lon="-5.7731970">
        <ele>718.2</ele>
        <time>2021-10-14T08:22:29Z</time>
      </trkpt>
      <trkpt lat="41.3904690" lon="-5.7734000">
        <ele>718.2</ele>
        <time>2021-10-14T08:22:33Z</time>
      </trkpt>
      <trkpt lat="41.3904180" lon="-5.7736160">
        <ele>718.6</ele>
        <time>2021-10-14T08:22:38Z</time>
      </trkpt>
      <trkpt lat="41.3903330" lon="-5.7738130">
        <ele>718.8</ele>
        <time>2021-10-14T08:22:44Z</time>
      </trkpt>
      <trkpt lat="41.3902720" lon="-5.7739110">
        <ele>719.4</ele>
        <time>2021-10-14T08:22:48Z</time>
      </trkpt>
      <trkpt lat="41.3902510" lon="-5.7739350">
        <ele>719.6</ele>
        <time>2021-10-14T08:22:49Z</time>
      </trkpt>
      <trkpt lat="41.3901400" lon="-5.7740670">
        <ele>719.6</ele>
        <time>2021-10-14T08:22:54Z</time>
      </trkpt>
      <trkpt lat="41.3900660" lon="-5.7741590">
        <ele>719.8</ele>
        <time>2021-10-14T08:22:57Z</time>
      </trkpt>
      <trkpt lat="41.3899880" lon="-5.7742480">
        <ele>720.0</ele>
        <time>2021-10-14T08:23:00Z</time>
      </trkpt>
      <trkpt lat="41.3899180" lon="-5.7743320">
        <ele>720.0</ele>
        <time>2021-10-14T08:23:03Z</time>
      </trkpt>
      <trkpt lat="41.3898950" lon="-5.7743610">
        <ele>720.2</ele>
        <time>2021-10-14T08:23:04Z</time>
      </trkpt>
      <trkpt lat="41.3897080" lon="-5.7746040">
        <ele>720.4</ele>
        <time>2021-10-14T08:23:12Z</time>
      </trkpt>
      <trkpt lat="41.3896070" lon="-5.7747330">
        <ele>720.4</ele>
        <time>2021-10-14T08:23:16Z</time>
      </trkpt>
      <trkpt lat="41.3895810" lon="-5.7747670">
        <ele>720.6</ele>
        <time>2021-10-14T08:23:17Z</time>
      </trkpt>
      <trkpt lat="41.3895580" lon="-5.7748020">
        <ele>720.6</ele>
        <time>2021-10-14T08:23:18Z</time>
      </trkpt>
      <trkpt lat="41.3895080" lon="-5.7748630">
        <ele>720.6</ele>
        <time>2021-10-14T08:23:20Z</time>
      </trkpt>
      <trkpt lat="41.3894070" lon="-5.7749910">
        <ele>720.8</ele>
        <time>2021-10-14T08:23:24Z</time>
      </trkpt>
      <trkpt lat="41.3893340" lon="-5.7750890">
        <ele>721.0</ele>
        <time>2021-10-14T08:23:27Z</time>
      </trkpt>
      <trkpt lat="41.3892340" lon="-5.7752100">
        <ele>719.0</ele>
        <time>2021-10-14T08:23:31Z</time>
      </trkpt>
      <trkpt lat="41.3892070" lon="-5.7752420">
        <ele>721.2</ele>
        <time>2021-10-14T08:23:32Z</time>
      </trkpt>
      <trkpt lat="41.3891560" lon="-5.7753040">
        <ele>721.2</ele>
        <time>2021-10-14T08:23:34Z</time>
      </trkpt>
      <trkpt lat="41.3890550" lon="-5.7754290">
        <ele>721.2</ele>
        <time>2021-10-14T08:23:38Z</time>
      </trkpt>
      <trkpt lat="41.3890090" lon="-5.7754870">
        <ele>721.2</ele>
        <time>2021-10-14T08:23:40Z</time>
      </trkpt>
      <trkpt lat="41.3888500" lon="-5.7756730">
        <ele>721.4</ele>
        <time>2021-10-14T08:23:48Z</time>
      </trkpt>
      <trkpt lat="41.3888130" lon="-5.7757210">
        <ele>721.4</ele>
        <time>2021-10-14T08:23:51Z</time>
      </trkpt>
      <trkpt lat="41.3888030" lon="-5.7757370">
        <ele>721.4</ele>
        <time>2021-10-14T08:23:52Z</time>
      </trkpt>
      <trkpt lat="41.3887930" lon="-5.7757510">
        <ele>721.6</ele>
        <time>2021-10-14T08:23:53Z</time>
      </trkpt>
      <trkpt lat="41.3887800" lon="-5.7757650">
        <ele>721.6</ele>
        <time>2021-10-14T08:23:54Z</time>
      </trkpt>
      <trkpt lat="41.3886600" lon="-5.7757790">
        <ele>721.6</ele>
        <time>2021-10-14T08:23:59Z</time>
      </trkpt>
      <trkpt lat="41.3886040" lon="-5.7757460">
        <ele>721.8</ele>
        <time>2021-10-14T08:24:01Z</time>
      </trkpt>
      <trkpt lat="41.3884780" lon="-5.7756760">
        <ele>722.0</ele>
        <time>2021-10-14T08:24:05Z</time>
      </trkpt>
      <trkpt lat="41.3884470" lon="-5.7756560">
        <ele>722.0</ele>
        <time>2021-10-14T08:24:06Z</time>
      </trkpt>
      <trkpt lat="41.3881860" lon="-5.7755120">
        <ele>722.4</ele>
        <time>2021-10-14T08:24:14Z</time>
      </trkpt>
      <trkpt lat="41.3880950" lon="-5.7754540">
        <ele>722.4</ele>
        <time>2021-10-14T08:24:17Z</time>
      </trkpt>
      <trkpt lat="41.3880320" lon="-5.7754170">
        <ele>722.6</ele>
        <time>2021-10-14T08:24:19Z</time>
      </trkpt>
      <trkpt lat="41.3878770" lon="-5.7753280">
        <ele>722.6</ele>
        <time>2021-10-14T08:24:24Z</time>
      </trkpt>
      <trkpt lat="41.3877190" lon="-5.7752430">
        <ele>722.6</ele>
        <time>2021-10-14T08:24:29Z</time>
      </trkpt>
      <trkpt lat="41.3876170" lon="-5.7751790">
        <ele>722.6</ele>
        <time>2021-10-14T08:24:32Z</time>
      </trkpt>
      <trkpt lat="41.3875190" lon="-5.7751170">
        <ele>722.8</ele>
        <time>2021-10-14T08:24:35Z</time>
      </trkpt>
      <trkpt lat="41.3874200" lon="-5.7750510">
        <ele>722.8</ele>
        <time>2021-10-14T08:24:38Z</time>
      </trkpt>
      <trkpt lat="41.3873520" lon="-5.7750170">
        <ele>722.8</ele>
        <time>2021-10-14T08:24:40Z</time>
      </trkpt>
      <trkpt lat="41.3870490" lon="-5.7748360">
        <ele>722.4</ele>
        <time>2021-10-14T08:24:48Z</time>
      </trkpt>
      <trkpt lat="41.3869450" lon="-5.7747740">
        <ele>722.0</ele>
        <time>2021-10-14T08:24:51Z</time>
      </trkpt>
      <trkpt lat="41.3868100" lon="-5.7746890">
        <ele>721.8</ele>
        <time>2021-10-14T08:24:55Z</time>
      </trkpt>
      <trkpt lat="41.3866410" lon="-5.7745820">
        <ele>721.8</ele>
        <time>2021-10-14T08:25:00Z</time>
      </trkpt>
      <trkpt lat="41.3865700" lon="-5.7745450">
        <ele>721.8</ele>
        <time>2021-10-14T08:25:02Z</time>
      </trkpt>
      <trkpt lat="41.3864700" lon="-5.7744820">
        <ele>721.8</ele>
        <time>2021-10-14T08:25:05Z</time>
      </trkpt>
      <trkpt lat="41.3863770" lon="-5.7744220">
        <ele>722.4</ele>
        <time>2021-10-14T08:25:08Z</time>
      </trkpt>
      <trkpt lat="41.3862810" lon="-5.7743700">
        <ele>722.6</ele>
        <time>2021-10-14T08:25:11Z</time>
      </trkpt>
      <trkpt lat="41.3859820" lon="-5.7741930">
        <ele>723.2</ele>
        <time>2021-10-14T08:25:20Z</time>
      </trkpt>
      <trkpt lat="41.3858070" lon="-5.7740920">
        <ele>723.6</ele>
        <time>2021-10-14T08:25:25Z</time>
      </trkpt>
      <trkpt lat="41.3857370" lon="-5.7740490">
        <ele>723.8</ele>
        <time>2021-10-14T08:25:27Z</time>
      </trkpt>
      <trkpt lat="41.3856320" lon="-5.7739860">
        <ele>723.6</ele>
        <time>2021-10-14T08:25:30Z</time>
      </trkpt>
      <trkpt lat="41.3853800" lon="-5.7738510">
        <ele>723.8</ele>
        <time>2021-10-14T08:25:37Z</time>
      </trkpt>
      <trkpt lat="41.3851700" lon="-5.7737270">
        <ele>724.2</ele>
        <time>2021-10-14T08:25:43Z</time>
      </trkpt>
      <trkpt lat="41.3850990" lon="-5.7736860">
        <ele>724.2</ele>
        <time>2021-10-14T08:25:45Z</time>
      </trkpt>
      <trkpt lat="41.3849570" lon="-5.7735990">
        <ele>724.4</ele>
        <time>2021-10-14T08:25:49Z</time>
      </trkpt>
      <trkpt lat="41.3848510" lon="-5.7735350">
        <ele>724.4</ele>
        <time>2021-10-14T08:25:52Z</time>
      </trkpt>
      <trkpt lat="41.3847770" lon="-5.7734970">
        <ele>724.2</ele>
        <time>2021-10-14T08:25:54Z</time>
      </trkpt>
      <trkpt lat="41.3846710" lon="-5.7734320">
        <ele>724.4</ele>
        <time>2021-10-14T08:25:57Z</time>
      </trkpt>
      <trkpt lat="41.3845360" lon="-5.7733410">
        <ele>724.2</ele>
        <time>2021-10-14T08:26:01Z</time>
      </trkpt>
      <trkpt lat="41.3841990" lon="-5.7731410">
        <ele>724.0</ele>
        <time>2021-10-14T08:26:11Z</time>
      </trkpt>
      <trkpt lat="41.3840950" lon="-5.7730780">
        <ele>724.0</ele>
        <time>2021-10-14T08:26:14Z</time>
      </trkpt>
      <trkpt lat="41.3840000" lon="-5.7730200">
        <ele>724.0</ele>
        <time>2021-10-14T08:26:17Z</time>
      </trkpt>
      <trkpt lat="41.3839090" lon="-5.7729700">
        <ele>724.0</ele>
        <time>2021-10-14T08:26:20Z</time>
      </trkpt>
      <trkpt lat="41.3838800" lon="-5.7729520">
        <ele>724.0</ele>
        <time>2021-10-14T08:26:21Z</time>
      </trkpt>
      <trkpt lat="41.3837350" lon="-5.7728570">
        <ele>724.0</ele>
        <time>2021-10-14T08:26:26Z</time>
      </trkpt>
      <trkpt lat="41.3836480" lon="-5.7727950">
        <ele>724.2</ele>
        <time>2021-10-14T08:26:29Z</time>
      </trkpt>
      <trkpt lat="41.3834870" lon="-5.7727040">
        <ele>724.4</ele>
        <time>2021-10-14T08:26:34Z</time>
      </trkpt>
      <trkpt lat="41.3833960" lon="-5.7726560">
        <ele>724.4</ele>
        <time>2021-10-14T08:26:37Z</time>
      </trkpt>
      <trkpt lat="41.3831200" lon="-5.7725100">
        <ele>724.2</ele>
        <time>2021-10-14T08:26:46Z</time>
      </trkpt>
      <trkpt lat="41.3830920" lon="-5.7724900">
        <ele>724.2</ele>
        <time>2021-10-14T08:26:47Z</time>
      </trkpt>
      <trkpt lat="41.3829790" lon="-5.7724210">
        <ele>724.2</ele>
        <time>2021-10-14T08:26:51Z</time>
      </trkpt>
      <trkpt lat="41.3828390" lon="-5.7723420">
        <ele>724.2</ele>
        <time>2021-10-14T08:26:56Z</time>
      </trkpt>
      <trkpt lat="41.3826630" lon="-5.7722420">
        <ele>724.4</ele>
        <time>2021-10-14T08:27:02Z</time>
      </trkpt>
      <trkpt lat="41.3825430" lon="-5.7721820">
        <ele>724.4</ele>
        <time>2021-10-14T08:27:06Z</time>
      </trkpt>
      <trkpt lat="41.3822930" lon="-5.7720830">
        <ele>724.2</ele>
        <time>2021-10-14T08:27:14Z</time>
      </trkpt>
      <trkpt lat="41.3819600" lon="-5.7719670">
        <ele>723.8</ele>
        <time>2021-10-14T08:27:23Z</time>
      </trkpt>
      <trkpt lat="41.3816220" lon="-5.7718240">
        <ele>724.0</ele>
        <time>2021-10-14T08:27:32Z</time>
      </trkpt>
      <trkpt lat="41.3815050" lon="-5.7717790">
        <ele>724.0</ele>
        <time>2021-10-14T08:27:35Z</time>
      </trkpt>
      <trkpt lat="41.3814260" lon="-5.7717510">
        <ele>724.0</ele>
        <time>2021-10-14T08:27:37Z</time>
      </trkpt>
      <trkpt lat="41.3813140" lon="-5.7717070">
        <ele>724.0</ele>
        <time>2021-10-14T08:27:40Z</time>
      </trkpt>
      <trkpt lat="41.3811770" lon="-5.7716540">
        <ele>724.0</ele>
        <time>2021-10-14T08:27:44Z</time>
      </trkpt>
      <trkpt lat="41.3810010" lon="-5.7715860">
        <ele>724.0</ele>
        <time>2021-10-14T08:27:49Z</time>
      </trkpt>
      <trkpt lat="41.3807100" lon="-5.7714730">
        <ele>724.0</ele>
        <time>2021-10-14T08:27:57Z</time>
      </trkpt>
      <trkpt lat="41.3804370" lon="-5.7713580">
        <ele>724.0</ele>
        <time>2021-10-14T08:28:05Z</time>
      </trkpt>
      <trkpt lat="41.3803150" lon="-5.7712980">
        <ele>724.2</ele>
        <time>2021-10-14T08:28:09Z</time>
      </trkpt>
      <trkpt lat="41.3802020" lon="-5.7712480">
        <ele>724.4</ele>
        <time>2021-10-14T08:28:13Z</time>
      </trkpt>
      <trkpt lat="41.3801140" lon="-5.7712130">
        <ele>724.8</ele>
        <time>2021-10-14T08:28:16Z</time>
      </trkpt>
      <trkpt lat="41.3799980" lon="-5.7711570">
        <ele>725.2</ele>
        <time>2021-10-14T08:28:20Z</time>
      </trkpt>
      <trkpt lat="41.3796690" lon="-5.7710000">
        <ele>725.6</ele>
        <time>2021-10-14T08:28:30Z</time>
      </trkpt>
      <trkpt lat="41.3794970" lon="-5.7709230">
        <ele>725.6</ele>
        <time>2021-10-14T08:28:35Z</time>
      </trkpt>
      <trkpt lat="41.3793920" lon="-5.7708780">
        <ele>725.6</ele>
        <time>2021-10-14T08:28:38Z</time>
      </trkpt>
      <trkpt lat="41.3793200" lon="-5.7708440">
        <ele>725.6</ele>
        <time>2021-10-14T08:28:40Z</time>
      </trkpt>
      <trkpt lat="41.3792470" lon="-5.7708160">
        <ele>725.6</ele>
        <time>2021-10-14T08:28:42Z</time>
      </trkpt>
      <trkpt lat="41.3791310" lon="-5.7707730">
        <ele>725.8</ele>
        <time>2021-10-14T08:28:45Z</time>
      </trkpt>
      <trkpt lat="41.3790140" lon="-5.7707110">
        <ele>725.8</ele>
        <time>2021-10-14T08:28:48Z</time>
      </trkpt>
      <trkpt lat="41.3787060" lon="-5.7705590">
        <ele>726.0</ele>
        <time>2021-10-14T08:28:56Z</time>
      </trkpt>
      <trkpt lat="41.3786660" lon="-5.7705400">
        <ele>726.0</ele>
        <time>2021-10-14T08:28:57Z</time>
      </trkpt>
      <trkpt lat="41.3784550" lon="-5.7704330">
        <ele>726.0</ele>
        <time>2021-10-14T08:29:03Z</time>
      </trkpt>
      <trkpt lat="41.3783420" lon="-5.7703820">
        <ele>726.2</ele>
        <time>2021-10-14T08:29:06Z</time>
      </trkpt>
      <trkpt lat="41.3780380" lon="-5.7702430">
        <ele>726.2</ele>
        <time>2021-10-14T08:29:14Z</time>
      </trkpt>
      <trkpt lat="41.3779700" lon="-5.7702100">
        <ele>726.2</ele>
        <time>2021-10-14T08:29:16Z</time>
      </trkpt>
      <trkpt lat="41.3777890" lon="-5.7701220">
        <ele>726.4</ele>
        <time>2021-10-14T08:29:21Z</time>
      </trkpt>
      <trkpt lat="41.3776140" lon="-5.7700240">
        <ele>726.4</ele>
        <time>2021-10-14T08:29:26Z</time>
      </trkpt>
      <trkpt lat="41.3773430" lon="-5.7699470">
        <ele>726.2</ele>
        <time>2021-10-14T08:29:33Z</time>
      </trkpt>
      <trkpt lat="41.3771410" lon="-5.7699420">
        <ele>726.2</ele>
        <time>2021-10-14T08:29:38Z</time>
      </trkpt>
      <trkpt lat="41.3769440" lon="-5.7699330">
        <ele>726.2</ele>
        <time>2021-10-14T08:29:43Z</time>
      </trkpt>
      <trkpt lat="41.3767900" lon="-5.7699330">
        <ele>726.4</ele>
        <time>2021-10-14T08:29:47Z</time>
      </trkpt>
      <trkpt lat="41.3766740" lon="-5.7699300">
        <ele>726.6</ele>
        <time>2021-10-14T08:29:50Z</time>
      </trkpt>
      <trkpt lat="41.3765610" lon="-5.7699230">
        <ele>726.6</ele>
        <time>2021-10-14T08:29:53Z</time>
      </trkpt>
      <trkpt lat="41.3762110" lon="-5.7699280">
        <ele>726.8</ele>
        <time>2021-10-14T08:30:03Z</time>
      </trkpt>
      <trkpt lat="41.3761410" lon="-5.7699230">
        <ele>726.8</ele>
        <time>2021-10-14T08:30:05Z</time>
      </trkpt>
      <trkpt lat="41.3758460" lon="-5.7699230">
        <ele>726.8</ele>
        <time>2021-10-14T08:30:13Z</time>
      </trkpt>
      <trkpt lat="41.3755520" lon="-5.7699320">
        <ele>726.8</ele>
        <time>2021-10-14T08:30:21Z</time>
      </trkpt>
      <trkpt lat="41.3754490" lon="-5.7699260">
        <ele>727.0</ele>
        <time>2021-10-14T08:30:24Z</time>
      </trkpt>
      <trkpt lat="41.3753430" lon="-5.7699260">
        <ele>727.2</ele>
        <time>2021-10-14T08:30:27Z</time>
      </trkpt>
      <trkpt lat="41.3752050" lon="-5.7699260">
        <ele>727.2</ele>
        <time>2021-10-14T08:30:31Z</time>
      </trkpt>
      <trkpt lat="41.3751350" lon="-5.7699250">
        <ele>727.2</ele>
        <time>2021-10-14T08:30:33Z</time>
      </trkpt>
      <trkpt lat="41.3748930" lon="-5.7699240">
        <ele>727.4</ele>
        <time>2021-10-14T08:30:40Z</time>
      </trkpt>
      <trkpt lat="41.3747910" lon="-5.7699240">
        <ele>727.6</ele>
        <time>2021-10-14T08:30:43Z</time>
      </trkpt>
      <trkpt lat="41.3745620" lon="-5.7699280">
        <ele>728.2</ele>
        <time>2021-10-14T08:30:50Z</time>
      </trkpt>
      <trkpt lat="41.3744940" lon="-5.7699310">
        <ele>728.4</ele>
        <time>2021-10-14T08:30:52Z</time>
      </trkpt>
      <trkpt lat="41.3743920" lon="-5.7699340">
        <ele>728.4</ele>
        <time>2021-10-14T08:30:55Z</time>
      </trkpt>
      <trkpt lat="41.3743250" lon="-5.7699350">
        <ele>728.6</ele>
        <time>2021-10-14T08:30:57Z</time>
      </trkpt>
      <trkpt lat="41.3742590" lon="-5.7699330">
        <ele>728.6</ele>
        <time>2021-10-14T08:30:59Z</time>
      </trkpt>
      <trkpt lat="41.3741970" lon="-5.7699320">
        <ele>728.8</ele>
        <time>2021-10-14T08:31:01Z</time>
      </trkpt>
      <trkpt lat="41.3741650" lon="-5.7699310">
        <ele>729.0</ele>
        <time>2021-10-14T08:31:02Z</time>
      </trkpt>
      <trkpt lat="41.3740600" lon="-5.7699340">
        <ele>729.2</ele>
        <time>2021-10-14T08:31:05Z</time>
      </trkpt>
      <trkpt lat="41.3739250" lon="-5.7699180">
        <ele>729.6</ele>
        <time>2021-10-14T08:31:09Z</time>
      </trkpt>
      <trkpt lat="41.3738590" lon="-5.7699090">
        <ele>729.6</ele>
        <time>2021-10-14T08:31:11Z</time>
      </trkpt>
      <trkpt lat="41.3737580" lon="-5.7699070">
        <ele>729.8</ele>
        <time>2021-10-14T08:31:14Z</time>
      </trkpt>
      <trkpt lat="41.3736180" lon="-5.7699080">
        <ele>730.0</ele>
        <time>2021-10-14T08:31:18Z</time>
      </trkpt>
      <trkpt lat="41.3735070" lon="-5.7699130">
        <ele>729.8</ele>
        <time>2021-10-14T08:31:21Z</time>
      </trkpt>
      <trkpt lat="41.3732950" lon="-5.7699230">
        <ele>730.0</ele>
        <time>2021-10-14T08:31:27Z</time>
      </trkpt>
      <trkpt lat="41.3732600" lon="-5.7699250">
        <ele>730.0</ele>
        <time>2021-10-14T08:31:28Z</time>
      </trkpt>
      <trkpt lat="41.3731480" lon="-5.7699230">
        <ele>730.0</ele>
        <time>2021-10-14T08:31:31Z</time>
      </trkpt>
      <trkpt lat="41.3729420" lon="-5.7699390">
        <ele>730.2</ele>
        <time>2021-10-14T08:31:37Z</time>
      </trkpt>
      <trkpt lat="41.3727460" lon="-5.7699460">
        <ele>730.4</ele>
        <time>2021-10-14T08:31:43Z</time>
      </trkpt>
      <trkpt lat="41.3726800" lon="-5.7699510">
        <ele>730.4</ele>
        <time>2021-10-14T08:31:45Z</time>
      </trkpt>
      <trkpt lat="41.3726470" lon="-5.7699550">
        <ele>730.4</ele>
        <time>2021-10-14T08:31:46Z</time>
      </trkpt>
      <trkpt lat="41.3724690" lon="-5.7699830">
        <ele>730.6</ele>
        <time>2021-10-14T08:31:52Z</time>
      </trkpt>
      <trkpt lat="41.3723550" lon="-5.7700170">
        <ele>730.6</ele>
        <time>2021-10-14T08:31:57Z</time>
      </trkpt>
      <trkpt lat="41.3723170" lon="-5.7700150">
        <ele>730.6</ele>
        <time>2021-10-14T08:31:59Z</time>
      </trkpt>
      <trkpt lat="41.3722700" lon="-5.7700170">
        <ele>730.6</ele>
        <time>2021-10-14T08:32:01Z</time>
      </trkpt>
      <trkpt lat="41.3721940" lon="-5.7700340">
        <ele>730.6</ele>
        <time>2021-10-14T08:32:04Z</time>
      </trkpt>
      <trkpt lat="41.3720520" lon="-5.7700620">
        <ele>730.8</ele>
        <time>2021-10-14T08:32:09Z</time>
      </trkpt>
      <trkpt lat="41.3720230" lon="-5.7700660">
        <ele>730.8</ele>
        <time>2021-10-14T08:32:10Z</time>
      </trkpt>
      <trkpt lat="41.3719090" lon="-5.7700870">
        <ele>731.0</ele>
        <time>2021-10-14T08:32:14Z</time>
      </trkpt>
      <trkpt lat="41.3717440" lon="-5.7701180">
        <ele>731.2</ele>
        <time>2021-10-14T08:32:20Z</time>
      </trkpt>
      <trkpt lat="41.3714540" lon="-5.7701660">
        <ele>731.2</ele>
        <time>2021-10-14T08:32:29Z</time>
      </trkpt>
      <trkpt lat="41.3711360" lon="-5.7702240">
        <ele>731.2</ele>
        <time>2021-10-14T08:32:38Z</time>
      </trkpt>
      <trkpt lat="41.3709000" lon="-5.7702770">
        <ele>731.2</ele>
        <time>2021-10-14T08:32:45Z</time>
      </trkpt>
      <trkpt lat="41.3704850" lon="-5.7703520">
        <ele>731.0</ele>
        <time>2021-10-14T08:32:56Z</time>
      </trkpt>
      <trkpt lat="41.3701240" lon="-5.7704160">
        <ele>731.0</ele>
        <time>2021-10-14T08:33:05Z</time>
      </trkpt>
      <trkpt lat="41.3697820" lon="-5.7704670">
        <ele>731.2</ele>
        <time>2021-10-14T08:33:14Z</time>
      </trkpt>
      <trkpt lat="41.3694360" lon="-5.7705200">
        <ele>731.4</ele>
        <time>2021-10-14T08:33:23Z</time>
      </trkpt>
      <trkpt lat="41.3692880" lon="-5.7705460">
        <ele>731.4</ele>
        <time>2021-10-14T08:33:27Z</time>
      </trkpt>
      <trkpt lat="41.3691760" lon="-5.7705640">
        <ele>731.4</ele>
        <time>2021-10-14T08:33:30Z</time>
      </trkpt>
      <trkpt lat="41.3689430" lon="-5.7706130">
        <ele>731.6</ele>
        <time>2021-10-14T08:33:36Z</time>
      </trkpt>
      <trkpt lat="41.3688260" lon="-5.7706300">
        <ele>731.6</ele>
        <time>2021-10-14T08:33:39Z</time>
      </trkpt>
      <trkpt lat="41.3686400" lon="-5.7706700">
        <ele>731.4</ele>
        <time>2021-10-14T08:33:44Z</time>
      </trkpt>
      <trkpt lat="41.3685270" lon="-5.7706900">
        <ele>731.6</ele>
        <time>2021-10-14T08:33:47Z</time>
      </trkpt>
      <trkpt lat="41.3681760" lon="-5.7707550">
        <ele>731.6</ele>
        <time>2021-10-14T08:33:56Z</time>
      </trkpt>
      <trkpt lat="41.3679300" lon="-5.7707960">
        <ele>731.8</ele>
        <time>2021-10-14T08:34:03Z</time>
      </trkpt>
      <trkpt lat="41.3676710" lon="-5.7708410">
        <ele>731.8</ele>
        <time>2021-10-14T08:34:10Z</time>
      </trkpt>
      <trkpt lat="41.3675210" lon="-5.7708660">
        <ele>731.8</ele>
        <time>2021-10-14T08:34:14Z</time>
      </trkpt>
      <trkpt lat="41.3673090" lon="-5.7708980">
        <ele>732.2</ele>
        <time>2021-10-14T08:34:20Z</time>
      </trkpt>
      <trkpt lat="41.3672370" lon="-5.7709130">
        <ele>732.2</ele>
        <time>2021-10-14T08:34:22Z</time>
      </trkpt>
      <trkpt lat="41.3669260" lon="-5.7709690">
        <ele>732.4</ele>
        <time>2021-10-14T08:34:31Z</time>
      </trkpt>
      <trkpt lat="41.3668920" lon="-5.7709740">
        <ele>732.8</ele>
        <time>2021-10-14T08:34:32Z</time>
      </trkpt>
      <trkpt lat="41.3667080" lon="-5.7709960">
        <ele>733.0</ele>
        <time>2021-10-14T08:34:39Z</time>
      </trkpt>
      <trkpt lat="41.3667060" lon="-5.7709940">
        <ele>733.0</ele>
        <time>2021-10-14T08:34:41Z</time>
      </trkpt>
      <trkpt lat="41.3666840" lon="-5.7710060">
        <ele>733.2</ele>
        <time>2021-10-14T08:39:02Z</time>
      </trkpt>
      <trkpt lat="41.3666680" lon="-5.7710120">
        <ele>733.0</ele>
        <time>2021-10-14T08:39:03Z</time>
      </trkpt>
      <trkpt lat="41.3665450" lon="-5.7710310">
        <ele>733.0</ele>
        <time>2021-10-14T08:39:08Z</time>
      </trkpt>
      <trkpt lat="41.3664920" lon="-5.7710390">
        <ele>733.0</ele>
        <time>2021-10-14T08:39:10Z</time>
      </trkpt>
      <trkpt lat="41.3663770" lon="-5.7710680">
        <ele>733.0</ele>
        <time>2021-10-14T08:39:14Z</time>
      </trkpt>
      <trkpt lat="41.3661880" lon="-5.7710980">
        <ele>733.2</ele>
        <time>2021-10-14T08:39:20Z</time>
      </trkpt>
      <trkpt lat="41.3659230" lon="-5.7711440">
        <ele>733.8</ele>
        <time>2021-10-14T08:39:28Z</time>
      </trkpt>
      <trkpt lat="41.3658180" lon="-5.7711610">
        <ele>733.8</ele>
        <time>2021-10-14T08:39:31Z</time>
      </trkpt>
      <trkpt lat="41.3657480" lon="-5.7711750">
        <ele>733.8</ele>
        <time>2021-10-14T08:39:34Z</time>
      </trkpt>
      <trkpt lat="41.3655460" lon="-5.7712140">
        <ele>733.8</ele>
        <time>2021-10-14T08:39:39Z</time>
      </trkpt>
      <trkpt lat="41.3654800" lon="-5.7712330">
        <ele>734.0</ele>
        <time>2021-10-14T08:39:41Z</time>
      </trkpt>
      <trkpt lat="41.3652760" lon="-5.7712740">
        <ele>734.4</ele>
        <time>2021-10-14T08:39:47Z</time>
      </trkpt>
      <trkpt lat="41.3650860" lon="-5.7713050">
        <ele>734.2</ele>
        <time>2021-10-14T08:39:53Z</time>
      </trkpt>
      <trkpt lat="41.3648840" lon="-5.7713530">
        <ele>734.2</ele>
        <time>2021-10-14T08:39:57Z</time>
      </trkpt>
      <trkpt lat="41.3646030" lon="-5.7714370">
        <ele>733.6</ele>
        <time>2021-10-14T08:40:03Z</time>
      </trkpt>
      <trkpt lat="41.3643960" lon="-5.7714210">
        <ele>733.0</ele>
        <time>2021-10-14T08:40:08Z</time>
      </trkpt>
      <trkpt lat="41.3643620" lon="-5.7714210">
        <ele>733.0</ele>
        <time>2021-10-14T08:40:09Z</time>
      </trkpt>
      <trkpt lat="41.3641930" lon="-5.7714400">
        <ele>732.6</ele>
        <time>2021-10-14T08:40:14Z</time>
      </trkpt>
      <trkpt lat="41.3640150" lon="-5.7714550">
        <ele>732.8</ele>
        <time>2021-10-14T08:40:20Z</time>
      </trkpt>
      <trkpt lat="41.3639400" lon="-5.7714590">
        <ele>733.2</ele>
        <time>2021-10-14T08:40:23Z</time>
      </trkpt>
      <trkpt lat="41.3638460" lon="-5.7714670">
        <ele>733.8</ele>
        <time>2021-10-14T08:40:27Z</time>
      </trkpt>
      <trkpt lat="41.3637700" lon="-5.7714720">
        <ele>734.2</ele>
        <time>2021-10-14T08:40:30Z</time>
      </trkpt>
      <trkpt lat="41.3637200" lon="-5.7714740">
        <ele>734.4</ele>
        <time>2021-10-14T08:40:32Z</time>
      </trkpt>
      <trkpt lat="41.3636470" lon="-5.7714770">
        <ele>734.8</ele>
        <time>2021-10-14T08:40:36Z</time>
      </trkpt>
      <trkpt lat="41.3635530" lon="-5.7714770">
        <ele>735.0</ele>
        <time>2021-10-14T08:40:39Z</time>
      </trkpt>
      <trkpt lat="41.3635300" lon="-5.7714780">
        <ele>735.2</ele>
        <time>2021-10-14T08:40:40Z</time>
      </trkpt>
      <trkpt lat="41.3634810" lon="-5.7714860">
        <ele>735.4</ele>
        <time>2021-10-14T08:40:42Z</time>
      </trkpt>
      <trkpt lat="41.3632050" lon="-5.7715030">
        <ele>736.2</ele>
        <time>2021-10-14T08:40:54Z</time>
      </trkpt>
      <trkpt lat="41.3631590" lon="-5.7715090">
        <ele>736.4</ele>
        <time>2021-10-14T08:40:56Z</time>
      </trkpt>
      <trkpt lat="41.3630670" lon="-5.7715240">
        <ele>736.8</ele>
        <time>2021-10-14T08:41:00Z</time>
      </trkpt>
      <trkpt lat="41.3629750" lon="-5.7715260">
        <ele>737.0</ele>
        <time>2021-10-14T08:41:04Z</time>
      </trkpt>
      <trkpt lat="41.3629060" lon="-5.7715310">
        <ele>737.4</ele>
        <time>2021-10-14T08:41:07Z</time>
      </trkpt>
      <trkpt lat="41.3628810" lon="-5.7715300">
        <ele>737.6</ele>
        <time>2021-10-14T08:41:09Z</time>
      </trkpt>
      <trkpt lat="41.3627000" lon="-5.7715430">
        <ele>738.2</ele>
        <time>2021-10-14T08:41:16Z</time>
      </trkpt>
      <trkpt lat="41.3626340" lon="-5.7715470">
        <ele>738.4</ele>
        <time>2021-10-14T08:41:19Z</time>
      </trkpt>
      <trkpt lat="41.3625650" lon="-5.7715480">
        <ele>738.6</ele>
        <time>2021-10-14T08:41:22Z</time>
      </trkpt>
      <trkpt lat="41.3625420" lon="-5.7715490">
        <ele>738.8</ele>
        <time>2021-10-14T08:41:23Z</time>
      </trkpt>
      <trkpt lat="41.3624710" lon="-5.7715600">
        <ele>739.0</ele>
        <time>2021-10-14T08:41:26Z</time>
      </trkpt>
      <trkpt lat="41.3622840" lon="-5.7715760">
        <ele>739.8</ele>
        <time>2021-10-14T08:41:34Z</time>
      </trkpt>
      <trkpt lat="41.3622600" lon="-5.7715780">
        <ele>739.8</ele>
        <time>2021-10-14T08:41:35Z</time>
      </trkpt>
      <trkpt lat="41.3621890" lon="-5.7715840">
        <ele>740.2</ele>
        <time>2021-10-14T08:41:38Z</time>
      </trkpt>
      <trkpt lat="41.3620510" lon="-5.7715960">
        <ele>740.8</ele>
        <time>2021-10-14T08:41:44Z</time>
      </trkpt>
      <trkpt lat="41.3619790" lon="-5.7715980">
        <ele>740.8</ele>
        <time>2021-10-14T08:41:47Z</time>
      </trkpt>
      <trkpt lat="41.3617660" lon="-5.7716060">
        <ele>741.4</ele>
        <time>2021-10-14T08:41:56Z</time>
      </trkpt>
      <trkpt lat="41.3617430" lon="-5.7716090">
        <ele>741.6</ele>
        <time>2021-10-14T08:41:57Z</time>
      </trkpt>
      <trkpt lat="41.3616930" lon="-5.7716140">
        <ele>741.6</ele>
        <time>2021-10-14T08:41:59Z</time>
      </trkpt>
      <trkpt lat="41.3616700" lon="-5.7716180">
        <ele>741.8</ele>
        <time>2021-10-14T08:42:00Z</time>
      </trkpt>
      <trkpt lat="41.3615510" lon="-5.7716300">
        <ele>742.2</ele>
        <time>2021-10-14T08:42:05Z</time>
      </trkpt>
      <trkpt lat="41.3614810" lon="-5.7716330">
        <ele>742.4</ele>
        <time>2021-10-14T08:42:08Z</time>
      </trkpt>
      <trkpt lat="41.3613920" lon="-5.7716440">
        <ele>742.6</ele>
        <time>2021-10-14T08:42:12Z</time>
      </trkpt>
      <trkpt lat="41.3613450" lon="-5.7716500">
        <ele>742.8</ele>
        <time>2021-10-14T08:42:14Z</time>
      </trkpt>
      <trkpt lat="41.3612760" lon="-5.7716540">
        <ele>743.2</ele>
        <time>2021-10-14T08:42:17Z</time>
      </trkpt>
      <trkpt lat="41.3612300" lon="-5.7716600">
        <ele>743.4</ele>
        <time>2021-10-14T08:42:19Z</time>
      </trkpt>
      <trkpt lat="41.3611640" lon="-5.7716650">
        <ele>743.8</ele>
        <time>2021-10-14T08:42:22Z</time>
      </trkpt>
      <trkpt lat="41.3609810" lon="-5.7716670">
        <ele>744.4</ele>
        <time>2021-10-14T08:42:30Z</time>
      </trkpt>
      <trkpt lat="41.3609160" lon="-5.7716730">
        <ele>744.6</ele>
        <time>2021-10-14T08:42:33Z</time>
      </trkpt>
      <trkpt lat="41.3608940" lon="-5.7716730">
        <ele>745.0</ele>
        <time>2021-10-14T08:42:35Z</time>
      </trkpt>
      <trkpt lat="41.3607820" lon="-5.7716760">
        <ele>745.4</ele>
        <time>2021-10-14T08:42:39Z</time>
      </trkpt>
      <trkpt lat="41.3607380" lon="-5.7716840">
        <ele>745.4</ele>
        <time>2021-10-14T08:42:41Z</time>
      </trkpt>
      <trkpt lat="41.3606470" lon="-5.7716920">
        <ele>746.0</ele>
        <time>2021-10-14T08:42:46Z</time>
      </trkpt>
      <trkpt lat="41.3605350" lon="-5.7716960">
        <ele>746.4</ele>
        <time>2021-10-14T08:42:50Z</time>
      </trkpt>
      <trkpt lat="41.3603690" lon="-5.7717170">
        <ele>747.0</ele>
        <time>2021-10-14T08:42:57Z</time>
      </trkpt>
      <trkpt lat="41.3602990" lon="-5.7717180">
        <ele>747.2</ele>
        <time>2021-10-14T08:43:00Z</time>
      </trkpt>
      <trkpt lat="41.3602550" lon="-5.7717250">
        <ele>747.4</ele>
        <time>2021-10-14T08:43:02Z</time>
      </trkpt>
      <trkpt lat="41.3601030" lon="-5.7717240">
        <ele>748.0</ele>
        <time>2021-10-14T08:43:09Z</time>
      </trkpt>
      <trkpt lat="41.3600580" lon="-5.7717290">
        <ele>748.0</ele>
        <time>2021-10-14T08:43:11Z</time>
      </trkpt>
      <trkpt lat="41.3599900" lon="-5.7717340">
        <ele>748.2</ele>
        <time>2021-10-14T08:43:14Z</time>
      </trkpt>
      <trkpt lat="41.3598540" lon="-5.7717450">
        <ele>748.8</ele>
        <time>2021-10-14T08:43:20Z</time>
      </trkpt>
      <trkpt lat="41.3596410" lon="-5.7717640">
        <ele>749.2</ele>
        <time>2021-10-14T08:43:29Z</time>
      </trkpt>
      <trkpt lat="41.3596160" lon="-5.7717670">
        <ele>749.4</ele>
        <time>2021-10-14T08:43:30Z</time>
      </trkpt>
      <trkpt lat="41.3595670" lon="-5.7717700">
        <ele>749.4</ele>
        <time>2021-10-14T08:43:32Z</time>
      </trkpt>
      <trkpt lat="41.3594740" lon="-5.7717730">
        <ele>749.6</ele>
        <time>2021-10-14T08:43:36Z</time>
      </trkpt>
      <trkpt lat="41.3594040" lon="-5.7717820">
        <ele>749.8</ele>
        <time>2021-10-14T08:43:39Z</time>
      </trkpt>
      <trkpt lat="41.3593550" lon="-5.7717910">
        <ele>749.8</ele>
        <time>2021-10-14T08:43:41Z</time>
      </trkpt>
      <trkpt lat="41.3592370" lon="-5.7717990">
        <ele>750.2</ele>
        <time>2021-10-14T08:43:46Z</time>
      </trkpt>
      <trkpt lat="41.3591900" lon="-5.7718030">
        <ele>750.2</ele>
        <time>2021-10-14T08:43:48Z</time>
      </trkpt>
      <trkpt lat="41.3591420" lon="-5.7718010">
        <ele>750.4</ele>
        <time>2021-10-14T08:43:50Z</time>
      </trkpt>
      <trkpt lat="41.3590220" lon="-5.7718140">
        <ele>750.6</ele>
        <time>2021-10-14T08:43:55Z</time>
      </trkpt>
      <trkpt lat="41.3589510" lon="-5.7718250">
        <ele>751.0</ele>
        <time>2021-10-14T08:43:58Z</time>
      </trkpt>
      <trkpt lat="41.3587650" lon="-5.7718330">
        <ele>751.4</ele>
        <time>2021-10-14T08:44:06Z</time>
      </trkpt>
      <trkpt lat="41.3586720" lon="-5.7718440">
        <ele>751.6</ele>
        <time>2021-10-14T08:44:10Z</time>
      </trkpt>
      <trkpt lat="41.3584400" lon="-5.7718590">
        <ele>752.2</ele>
        <time>2021-10-14T08:44:20Z</time>
      </trkpt>
      <trkpt lat="41.3583670" lon="-5.7718640">
        <ele>752.4</ele>
        <time>2021-10-14T08:44:24Z</time>
      </trkpt>
      <trkpt lat="41.3582500" lon="-5.7718790">
        <ele>752.6</ele>
        <time>2021-10-14T08:44:28Z</time>
      </trkpt>
      <trkpt lat="41.3580260" lon="-5.7718860">
        <ele>753.6</ele>
        <time>2021-10-14T08:44:37Z</time>
      </trkpt>
      <trkpt lat="41.3580030" lon="-5.7718860">
        <ele>753.6</ele>
        <time>2021-10-14T08:44:38Z</time>
      </trkpt>
      <trkpt lat="41.3579070" lon="-5.7719030">
        <ele>754.0</ele>
        <time>2021-10-14T08:44:43Z</time>
      </trkpt>
      <trkpt lat="41.3579000" lon="-5.7719060">
        <ele>754.0</ele>
        <time>2021-10-14T08:44:44Z</time>
      </trkpt>
      <trkpt lat="41.3578970" lon="-5.7719070">
        <ele>754.2</ele>
        <time>2021-10-14T08:44:45Z</time>
      </trkpt>
      <trkpt lat="41.3578980" lon="-5.7719100">
        <ele>754.2</ele>
        <time>2021-10-14T08:44:46Z</time>
      </trkpt>
      <trkpt lat="41.3578470" lon="-5.7718950">
        <ele>754.2</ele>
        <time>2021-10-14T08:46:47Z</time>
      </trkpt>
      <trkpt lat="41.3578130" lon="-5.7718660">
        <ele>754.2</ele>
        <time>2021-10-14T08:46:49Z</time>
      </trkpt>
      <trkpt lat="41.3577650" lon="-5.7718400">
        <ele>754.2</ele>
        <time>2021-10-14T08:46:51Z</time>
      </trkpt>
      <trkpt lat="41.3576930" lon="-5.7718040">
        <ele>754.4</ele>
        <time>2021-10-14T08:46:54Z</time>
      </trkpt>
      <trkpt lat="41.3576710" lon="-5.7717890">
        <ele>754.4</ele>
        <time>2021-10-14T08:46:55Z</time>
      </trkpt>
      <trkpt lat="41.3575880" lon="-5.7717260">
        <ele>754.4</ele>
        <time>2021-10-14T08:46:59Z</time>
      </trkpt>
      <trkpt lat="41.3575190" lon="-5.7716860">
        <ele>754.4</ele>
        <time>2021-10-14T08:47:02Z</time>
      </trkpt>
      <trkpt lat="41.3573180" lon="-5.7715440">
        <ele>754.6</ele>
        <time>2021-10-14T08:47:10Z</time>
      </trkpt>
      <trkpt lat="41.3572340" lon="-5.7714990">
        <ele>754.6</ele>
        <time>2021-10-14T08:47:13Z</time>
      </trkpt>
      <trkpt lat="41.3571450" lon="-5.7714430">
        <ele>754.6</ele>
        <time>2021-10-14T08:47:16Z</time>
      </trkpt>
      <trkpt lat="41.3570780" lon="-5.7714040">
        <ele>754.8</ele>
        <time>2021-10-14T08:47:18Z</time>
      </trkpt>
      <trkpt lat="41.3570470" lon="-5.7713890">
        <ele>754.8</ele>
        <time>2021-10-14T08:47:19Z</time>
      </trkpt>
      <trkpt lat="41.3569590" lon="-5.7713380">
        <ele>755.0</ele>
        <time>2021-10-14T08:47:22Z</time>
      </trkpt>
      <trkpt lat="41.3568350" lon="-5.7712670">
        <ele>755.0</ele>
        <time>2021-10-14T08:47:26Z</time>
      </trkpt>
      <trkpt lat="41.3567090" lon="-5.7711950">
        <ele>755.6</ele>
        <time>2021-10-14T08:47:30Z</time>
      </trkpt>
      <trkpt lat="41.3564610" lon="-5.7710750">
        <ele>755.8</ele>
        <time>2021-10-14T08:47:38Z</time>
      </trkpt>
      <trkpt lat="41.3563680" lon="-5.7710390">
        <ele>755.8</ele>
        <time>2021-10-14T08:47:41Z</time>
      </trkpt>
      <trkpt lat="41.3561980" lon="-5.7709610">
        <ele>756.0</ele>
        <time>2021-10-14T08:47:47Z</time>
      </trkpt>
      <trkpt lat="41.3560690" lon="-5.7709000">
        <ele>756.2</ele>
        <time>2021-10-14T08:47:53Z</time>
      </trkpt>
      <trkpt lat="41.3559900" lon="-5.7708860">
        <ele>756.6</ele>
        <time>2021-10-14T08:47:57Z</time>
      </trkpt>
      <trkpt lat="41.3559610" lon="-5.7708750">
        <ele>756.8</ele>
        <time>2021-10-14T08:47:59Z</time>
      </trkpt>
      <trkpt lat="41.3559100" lon="-5.7708590">
        <ele>756.8</ele>
        <time>2021-10-14T08:48:04Z</time>
      </trkpt>
      <trkpt lat="41.3558450" lon="-5.7708520">
        <ele>756.8</ele>
        <time>2021-10-14T08:48:10Z</time>
      </trkpt>
      <trkpt lat="41.3557080" lon="-5.7708160">
        <ele>756.8</ele>
        <time>2021-10-14T08:48:15Z</time>
      </trkpt>
      <trkpt lat="41.3556170" lon="-5.7708050">
        <ele>756.8</ele>
        <time>2021-10-14T08:48:18Z</time>
      </trkpt>
      <trkpt lat="41.3553930" lon="-5.7707960">
        <ele>757.0</ele>
        <time>2021-10-14T08:48:25Z</time>
      </trkpt>
      <trkpt lat="41.3553250" lon="-5.7707980">
        <ele>757.0</ele>
        <time>2021-10-14T08:48:27Z</time>
      </trkpt>
      <trkpt lat="41.3550730" lon="-5.7707990">
        <ele>757.6</ele>
        <time>2021-10-14T08:48:35Z</time>
      </trkpt>
      <trkpt lat="41.3548500" lon="-5.7707780">
        <ele>758.0</ele>
        <time>2021-10-14T08:48:42Z</time>
      </trkpt>
      <trkpt lat="41.3548190" lon="-5.7707730">
        <ele>758.0</ele>
        <time>2021-10-14T08:48:43Z</time>
      </trkpt>
      <trkpt lat="41.3546640" lon="-5.7707620">
        <ele>758.2</ele>
        <time>2021-10-14T08:48:48Z</time>
      </trkpt>
      <trkpt lat="41.3543970" lon="-5.7707150">
        <ele>758.8</ele>
        <time>2021-10-14T08:48:56Z</time>
      </trkpt>
      <trkpt lat="41.3542270" lon="-5.7706430">
        <ele>759.0</ele>
        <time>2021-10-14T08:49:02Z</time>
      </trkpt>
      <trkpt lat="41.3542010" lon="-5.7706280">
        <ele>759.0</ele>
        <time>2021-10-14T08:49:03Z</time>
      </trkpt>
      <trkpt lat="41.3540180" lon="-5.7704210">
        <ele>759.6</ele>
        <time>2021-10-14T08:49:12Z</time>
      </trkpt>
      <trkpt lat="41.3539530" lon="-5.7702810">
        <ele>759.8</ele>
        <time>2021-10-14T08:49:17Z</time>
      </trkpt>
      <trkpt lat="41.3539340" lon="-5.7702520">
        <ele>760.0</ele>
        <time>2021-10-14T08:49:18Z</time>
      </trkpt>
      <trkpt lat="41.3539010" lon="-5.7701980">
        <ele>760.0</ele>
        <time>2021-10-14T08:49:20Z</time>
      </trkpt>
      <trkpt lat="41.3538380" lon="-5.7700930">
        <ele>760.2</ele>
        <time>2021-10-14T08:49:25Z</time>
      </trkpt>
      <trkpt lat="41.3538240" lon="-5.7700820">
        <ele>760.4</ele>
        <time>2021-10-14T08:49:26Z</time>
      </trkpt>
      <trkpt lat="41.3537840" lon="-5.7700440">
        <ele>760.6</ele>
        <time>2021-10-14T08:49:29Z</time>
      </trkpt>
      <trkpt lat="41.3537510" lon="-5.7700080">
        <ele>760.6</ele>
        <time>2021-10-14T08:49:31Z</time>
      </trkpt>
      <trkpt lat="41.3536860" lon="-5.7699750">
        <ele>760.6</ele>
        <time>2021-10-14T08:49:34Z</time>
      </trkpt>
      <trkpt lat="41.3536400" lon="-5.7699560">
        <ele>760.8</ele>
        <time>2021-10-14T08:49:36Z</time>
      </trkpt>
      <trkpt lat="41.3534930" lon="-5.7699010">
        <ele>761.0</ele>
        <time>2021-10-14T08:49:42Z</time>
      </trkpt>
      <trkpt lat="41.3534480" lon="-5.7698920">
        <ele>761.0</ele>
        <time>2021-10-14T08:49:44Z</time>
      </trkpt>
      <trkpt lat="41.3533550" lon="-5.7698730">
        <ele>761.2</ele>
        <time>2021-10-14T08:49:48Z</time>
      </trkpt>
      <trkpt lat="41.3531800" lon="-5.7697960">
        <ele>761.4</ele>
        <time>2021-10-14T08:49:55Z</time>
      </trkpt>
      <trkpt lat="41.3529710" lon="-5.7697000">
        <ele>761.8</ele>
        <time>2021-10-14T08:50:03Z</time>
      </trkpt>
      <trkpt lat="41.3528630" lon="-5.7696400">
        <ele>762.0</ele>
        <time>2021-10-14T08:50:07Z</time>
      </trkpt>
      <trkpt lat="41.3527200" lon="-5.7695670">
        <ele>762.2</ele>
        <time>2021-10-14T08:50:12Z</time>
      </trkpt>
      <trkpt lat="41.3526330" lon="-5.7695320">
        <ele>762.4</ele>
        <time>2021-10-14T08:50:15Z</time>
      </trkpt>
      <trkpt lat="41.3524280" lon="-5.7694420">
        <ele>763.0</ele>
        <time>2021-10-14T08:50:22Z</time>
      </trkpt>
      <trkpt lat="41.3523120" lon="-5.7693830">
        <ele>763.2</ele>
        <time>2021-10-14T08:50:26Z</time>
      </trkpt>
      <trkpt lat="41.3522160" lon="-5.7693620">
        <ele>763.2</ele>
        <time>2021-10-14T08:50:29Z</time>
      </trkpt>
      <trkpt lat="41.3521250" lon="-5.7693410">
        <ele>763.4</ele>
        <time>2021-10-14T08:50:32Z</time>
      </trkpt>
      <trkpt lat="41.3520290" lon="-5.7693330">
        <ele>763.6</ele>
        <time>2021-10-14T08:50:35Z</time>
      </trkpt>
      <trkpt lat="41.3519070" lon="-5.7693210">
        <ele>764.0</ele>
        <time>2021-10-14T08:50:39Z</time>
      </trkpt>
      <trkpt lat="41.3517560" lon="-5.7693050">
        <ele>764.2</ele>
        <time>2021-10-14T08:50:44Z</time>
      </trkpt>
      <trkpt lat="41.3516370" lon="-5.7692700">
        <ele>764.6</ele>
        <time>2021-10-14T08:50:48Z</time>
      </trkpt>
      <trkpt lat="41.3515500" lon="-5.7692540">
        <ele>764.8</ele>
        <time>2021-10-14T08:50:51Z</time>
      </trkpt>
      <trkpt lat="41.3514390" lon="-5.7692480">
        <ele>765.4</ele>
        <time>2021-10-14T08:50:55Z</time>
      </trkpt>
      <trkpt lat="41.3514130" lon="-5.7692420">
        <ele>765.4</ele>
        <time>2021-10-14T08:50:56Z</time>
      </trkpt>
      <trkpt lat="41.3512640" lon="-5.7692240">
        <ele>766.0</ele>
        <time>2021-10-14T08:51:03Z</time>
      </trkpt>
      <trkpt lat="41.3512480" lon="-5.7692260">
        <ele>766.4</ele>
        <time>2021-10-14T08:51:05Z</time>
      </trkpt>
      <trkpt lat="41.3512490" lon="-5.7692260">
        <ele>766.4</ele>
        <time>2021-10-14T08:51:06Z</time>
      </trkpt>
      <trkpt lat="41.3512120" lon="-5.7691990">
        <ele>766.4</ele>
        <time>2021-10-14T08:52:00Z</time>
      </trkpt>
      <trkpt lat="41.3511820" lon="-5.7691970">
        <ele>766.4</ele>
        <time>2021-10-14T08:52:01Z</time>
      </trkpt>
      <trkpt lat="41.3510660" lon="-5.7692230">
        <ele>766.4</ele>
        <time>2021-10-14T08:52:05Z</time>
      </trkpt>
      <trkpt lat="41.3510340" lon="-5.7692320">
        <ele>766.4</ele>
        <time>2021-10-14T08:52:06Z</time>
      </trkpt>
      <trkpt lat="41.3509740" lon="-5.7692430">
        <ele>766.4</ele>
        <time>2021-10-14T08:52:08Z</time>
      </trkpt>
      <trkpt lat="41.3508570" lon="-5.7692620">
        <ele>766.6</ele>
        <time>2021-10-14T08:52:12Z</time>
      </trkpt>
      <trkpt lat="41.3506710" lon="-5.7692710">
        <ele>767.6</ele>
        <time>2021-10-14T08:52:19Z</time>
      </trkpt>
      <trkpt lat="41.3506390" lon="-5.7692800">
        <ele>767.6</ele>
        <time>2021-10-14T08:52:20Z</time>
      </trkpt>
      <trkpt lat="41.3505000" lon="-5.7693020">
        <ele>768.0</ele>
        <time>2021-10-14T08:52:25Z</time>
      </trkpt>
      <trkpt lat="41.3504720" lon="-5.7693040">
        <ele>768.0</ele>
        <time>2021-10-14T08:52:26Z</time>
      </trkpt>
      <trkpt lat="41.3503830" lon="-5.7693130">
        <ele>768.4</ele>
        <time>2021-10-14T08:52:29Z</time>
      </trkpt>
      <trkpt lat="41.3503520" lon="-5.7693170">
        <ele>768.8</ele>
        <time>2021-10-14T08:52:30Z</time>
      </trkpt>
      <trkpt lat="41.3502150" lon="-5.7693380">
        <ele>769.4</ele>
        <time>2021-10-14T08:52:35Z</time>
      </trkpt>
      <trkpt lat="41.3501590" lon="-5.7693460">
        <ele>769.8</ele>
        <time>2021-10-14T08:52:37Z</time>
      </trkpt>
      <trkpt lat="41.3500800" lon="-5.7693520">
        <ele>770.2</ele>
        <time>2021-10-14T08:52:40Z</time>
      </trkpt>
      <trkpt lat="41.3500030" lon="-5.7693610">
        <ele>770.4</ele>
        <time>2021-10-14T08:52:43Z</time>
      </trkpt>
      <trkpt lat="41.3499540" lon="-5.7693640">
        <ele>770.8</ele>
        <time>2021-10-14T08:52:45Z</time>
      </trkpt>
      <trkpt lat="41.3499290" lon="-5.7693680">
        <ele>770.8</ele>
        <time>2021-10-14T08:52:46Z</time>
      </trkpt>
      <trkpt lat="41.3498590" lon="-5.7693780">
        <ele>771.2</ele>
        <time>2021-10-14T08:52:49Z</time>
      </trkpt>
      <trkpt lat="41.3497860" lon="-5.7693790">
        <ele>771.8</ele>
        <time>2021-10-14T08:52:52Z</time>
      </trkpt>
      <trkpt lat="41.3497350" lon="-5.7693740">
        <ele>772.0</ele>
        <time>2021-10-14T08:52:54Z</time>
      </trkpt>
      <trkpt lat="41.3495690" lon="-5.7693880">
        <ele>773.0</ele>
        <time>2021-10-14T08:53:01Z</time>
      </trkpt>
      <trkpt lat="41.3495420" lon="-5.7693870">
        <ele>773.0</ele>
        <time>2021-10-14T08:53:02Z</time>
      </trkpt>
      <trkpt lat="41.3494450" lon="-5.7694010">
        <ele>773.6</ele>
        <time>2021-10-14T08:53:06Z</time>
      </trkpt>
      <trkpt lat="41.3493520" lon="-5.7694180">
        <ele>774.0</ele>
        <time>2021-10-14T08:53:10Z</time>
      </trkpt>
      <trkpt lat="41.3493280" lon="-5.7694220">
        <ele>774.2</ele>
        <time>2021-10-14T08:53:11Z</time>
      </trkpt>
      <trkpt lat="41.3493050" lon="-5.7694230">
        <ele>774.2</ele>
        <time>2021-10-14T08:53:12Z</time>
      </trkpt>
      <trkpt lat="41.3492610" lon="-5.7694270">
        <ele>774.4</ele>
        <time>2021-10-14T08:53:14Z</time>
      </trkpt>
      <trkpt lat="41.3492170" lon="-5.7694320">
        <ele>774.8</ele>
        <time>2021-10-14T08:53:16Z</time>
      </trkpt>
      <trkpt lat="41.3491740" lon="-5.7694400">
        <ele>775.4</ele>
        <time>2021-10-14T08:53:18Z</time>
      </trkpt>
      <trkpt lat="41.3490850" lon="-5.7694640">
        <ele>775.6</ele>
        <time>2021-10-14T08:53:22Z</time>
      </trkpt>
      <trkpt lat="41.3489980" lon="-5.7694850">
        <ele>776.2</ele>
        <time>2021-10-14T08:53:26Z</time>
      </trkpt>
      <trkpt lat="41.3489800" lon="-5.7694870">
        <ele>776.4</ele>
        <time>2021-10-14T08:53:27Z</time>
      </trkpt>
      <trkpt lat="41.3489280" lon="-5.7694900">
        <ele>776.6</ele>
        <time>2021-10-14T08:53:29Z</time>
      </trkpt>
      <trkpt lat="41.3488480" lon="-5.7694970">
        <ele>777.0</ele>
        <time>2021-10-14T08:53:33Z</time>
      </trkpt>
      <trkpt lat="41.3488040" lon="-5.7695000">
        <ele>777.2</ele>
        <time>2021-10-14T08:53:35Z</time>
      </trkpt>
      <trkpt lat="41.3487820" lon="-5.7695020">
        <ele>777.4</ele>
        <time>2021-10-14T08:53:36Z</time>
      </trkpt>
      <trkpt lat="41.3487120" lon="-5.7695030">
        <ele>778.0</ele>
        <time>2021-10-14T08:53:39Z</time>
      </trkpt>
      <trkpt lat="41.3486480" lon="-5.7695070">
        <ele>778.4</ele>
        <time>2021-10-14T08:53:42Z</time>
      </trkpt>
      <trkpt lat="41.3485690" lon="-5.7695270">
        <ele>779.2</ele>
        <time>2021-10-14T08:53:46Z</time>
      </trkpt>
      <trkpt lat="41.3485240" lon="-5.7695410">
        <ele>779.4</ele>
        <time>2021-10-14T08:53:48Z</time>
      </trkpt>
      <trkpt lat="41.3485050" lon="-5.7695450">
        <ele>779.6</ele>
        <time>2021-10-14T08:53:49Z</time>
      </trkpt>
      <trkpt lat="41.3484620" lon="-5.7695500">
        <ele>779.8</ele>
        <time>2021-10-14T08:53:51Z</time>
      </trkpt>
      <trkpt lat="41.3483970" lon="-5.7695430">
        <ele>780.2</ele>
        <time>2021-10-14T08:53:54Z</time>
      </trkpt>
      <trkpt lat="41.3483470" lon="-5.7695460">
        <ele>780.4</ele>
        <time>2021-10-14T08:53:56Z</time>
      </trkpt>
      <trkpt lat="41.3482780" lon="-5.7695450">
        <ele>780.6</ele>
        <time>2021-10-14T08:53:59Z</time>
      </trkpt>
      <trkpt lat="41.3482580" lon="-5.7695480">
        <ele>780.8</ele>
        <time>2021-10-14T08:54:00Z</time>
      </trkpt>
      <trkpt lat="41.3481780" lon="-5.7695570">
        <ele>781.2</ele>
        <time>2021-10-14T08:54:03Z</time>
      </trkpt>
      <trkpt lat="41.3481530" lon="-5.7695600">
        <ele>781.2</ele>
        <time>2021-10-14T08:54:04Z</time>
      </trkpt>
      <trkpt lat="41.3481280" lon="-5.7695620">
        <ele>781.2</ele>
        <time>2021-10-14T08:54:05Z</time>
      </trkpt>
      <trkpt lat="41.3480750" lon="-5.7695680">
        <ele>781.6</ele>
        <time>2021-10-14T08:54:07Z</time>
      </trkpt>
      <trkpt lat="41.3479920" lon="-5.7695830">
        <ele>781.4</ele>
        <time>2021-10-14T08:54:10Z</time>
      </trkpt>
      <trkpt lat="41.3479100" lon="-5.7695950">
        <ele>781.4</ele>
        <time>2021-10-14T08:54:13Z</time>
      </trkpt>
      <trkpt lat="41.3476600" lon="-5.7696640">
        <ele>781.6</ele>
        <time>2021-10-14T08:54:22Z</time>
      </trkpt>
      <trkpt lat="41.3475020" lon="-5.7697160">
        <ele>781.8</ele>
        <time>2021-10-14T08:54:28Z</time>
      </trkpt>
      <trkpt lat="41.3474270" lon="-5.7697390">
        <ele>782.2</ele>
        <time>2021-10-14T08:54:31Z</time>
      </trkpt>
      <trkpt lat="41.3472580" lon="-5.7697730">
        <ele>782.8</ele>
        <time>2021-10-14T08:54:38Z</time>
      </trkpt>
      <trkpt lat="41.3472350" lon="-5.7697810">
        <ele>783.0</ele>
        <time>2021-10-14T08:54:39Z</time>
      </trkpt>
      <trkpt lat="41.3470810" lon="-5.7698210">
        <ele>783.6</ele>
        <time>2021-10-14T08:54:46Z</time>
      </trkpt>
      <trkpt lat="41.3469730" lon="-5.7698510">
        <ele>784.0</ele>
        <time>2021-10-14T08:54:51Z</time>
      </trkpt>
      <trkpt lat="41.3468700" lon="-5.7698810">
        <ele>784.8</ele>
        <time>2021-10-14T08:54:56Z</time>
      </trkpt>
      <trkpt lat="41.3468090" lon="-5.7699020">
        <ele>785.2</ele>
        <time>2021-10-14T08:54:59Z</time>
      </trkpt>
      <trkpt lat="41.3467450" lon="-5.7699210">
        <ele>785.6</ele>
        <time>2021-10-14T08:55:02Z</time>
      </trkpt>
      <trkpt lat="41.3466630" lon="-5.7699460">
        <ele>786.2</ele>
        <time>2021-10-14T08:55:06Z</time>
      </trkpt>
      <trkpt lat="41.3466420" lon="-5.7699500">
        <ele>786.2</ele>
        <time>2021-10-14T08:55:07Z</time>
      </trkpt>
      <trkpt lat="41.3465540" lon="-5.7699730">
        <ele>786.8</ele>
        <time>2021-10-14T08:55:11Z</time>
      </trkpt>
      <trkpt lat="41.3464910" lon="-5.7699930">
        <ele>787.0</ele>
        <time>2021-10-14T08:55:14Z</time>
      </trkpt>
      <trkpt lat="41.3464540" lon="-5.7700060">
        <ele>787.4</ele>
        <time>2021-10-14T08:55:16Z</time>
      </trkpt>
      <trkpt lat="41.3463350" lon="-5.7700330">
        <ele>788.0</ele>
        <time>2021-10-14T08:55:22Z</time>
      </trkpt>
      <trkpt lat="41.3463150" lon="-5.7700390">
        <ele>788.2</ele>
        <time>2021-10-14T08:55:23Z</time>
      </trkpt>
      <trkpt lat="41.3462950" lon="-5.7700440">
        <ele>788.4</ele>
        <time>2021-10-14T08:55:24Z</time>
      </trkpt>
      <trkpt lat="41.3460940" lon="-5.7701010">
        <ele>789.6</ele>
        <time>2021-10-14T08:55:33Z</time>
      </trkpt>
      <trkpt lat="41.3458270" lon="-5.7701930">
        <ele>790.6</ele>
        <time>2021-10-14T08:55:45Z</time>
      </trkpt>
      <trkpt lat="41.3457630" lon="-5.7702170">
        <ele>790.8</ele>
        <time>2021-10-14T08:55:48Z</time>
      </trkpt>
      <trkpt lat="41.3456150" lon="-5.7702700">
        <ele>791.4</ele>
        <time>2021-10-14T08:55:55Z</time>
      </trkpt>
      <trkpt lat="41.3455730" lon="-5.7702840">
        <ele>791.6</ele>
        <time>2021-10-14T08:55:57Z</time>
      </trkpt>
      <trkpt lat="41.3455490" lon="-5.7702940">
        <ele>791.6</ele>
        <time>2021-10-14T08:55:58Z</time>
      </trkpt>
      <trkpt lat="41.3454740" lon="-5.7703250">
        <ele>792.0</ele>
        <time>2021-10-14T08:56:02Z</time>
      </trkpt>
      <trkpt lat="41.3453950" lon="-5.7703610">
        <ele>792.6</ele>
        <time>2021-10-14T08:56:06Z</time>
      </trkpt>
      <trkpt lat="41.3453700" lon="-5.7703740">
        <ele>792.8</ele>
        <time>2021-10-14T08:56:07Z</time>
      </trkpt>
      <trkpt lat="41.3452700" lon="-5.7704310">
        <ele>793.4</ele>
        <time>2021-10-14T08:56:12Z</time>
      </trkpt>
      <trkpt lat="41.3452500" lon="-5.7704430">
        <ele>793.4</ele>
        <time>2021-10-14T08:56:13Z</time>
      </trkpt>
      <trkpt lat="41.3452300" lon="-5.7704540">
        <ele>793.4</ele>
        <time>2021-10-14T08:56:14Z</time>
      </trkpt>
      <trkpt lat="41.3451960" lon="-5.7704760">
        <ele>793.6</ele>
        <time>2021-10-14T08:56:16Z</time>
      </trkpt>
      <trkpt lat="41.3451760" lon="-5.7704870">
        <ele>793.8</ele>
        <time>2021-10-14T08:56:17Z</time>
      </trkpt>
      <trkpt lat="41.3450960" lon="-5.7705380">
        <ele>794.4</ele>
        <time>2021-10-14T08:56:21Z</time>
      </trkpt>
      <trkpt lat="41.3449910" lon="-5.7706020">
        <ele>795.0</ele>
        <time>2021-10-14T08:56:26Z</time>
      </trkpt>
      <trkpt lat="41.3449460" lon="-5.7706330">
        <ele>795.0</ele>
        <time>2021-10-14T08:56:28Z</time>
      </trkpt>
      <trkpt lat="41.3447560" lon="-5.7707620">
        <ele>795.8</ele>
        <time>2021-10-14T08:56:37Z</time>
      </trkpt>
      <trkpt lat="41.3447160" lon="-5.7707880">
        <ele>796.0</ele>
        <time>2021-10-14T08:56:39Z</time>
      </trkpt>
      <trkpt lat="41.3445040" lon="-5.7709160">
        <ele>796.0</ele>
        <time>2021-10-14T08:56:47Z</time>
      </trkpt>
      <trkpt lat="41.3444470" lon="-5.7709480">
        <ele>796.0</ele>
        <time>2021-10-14T08:56:49Z</time>
      </trkpt>
      <trkpt lat="41.3444160" lon="-5.7709630">
        <ele>796.0</ele>
        <time>2021-10-14T08:56:50Z</time>
      </trkpt>
      <trkpt lat="41.3443590" lon="-5.7709970">
        <ele>796.0</ele>
        <time>2021-10-14T08:56:52Z</time>
      </trkpt>
      <trkpt lat="41.3443010" lon="-5.7710280">
        <ele>796.2</ele>
        <time>2021-10-14T08:56:54Z</time>
      </trkpt>
      <trkpt lat="41.3442410" lon="-5.7710600">
        <ele>796.2</ele>
        <time>2021-10-14T08:56:56Z</time>
      </trkpt>
      <trkpt lat="41.3441180" lon="-5.7711330">
        <ele>796.2</ele>
        <time>2021-10-14T08:57:00Z</time>
      </trkpt>
      <trkpt lat="41.3439870" lon="-5.7711940">
        <ele>796.4</ele>
        <time>2021-10-14T08:57:04Z</time>
      </trkpt>
      <trkpt lat="41.3436670" lon="-5.7713220">
        <ele>796.6</ele>
        <time>2021-10-14T08:57:13Z</time>
      </trkpt>
      <trkpt lat="41.3435300" lon="-5.7713700">
        <ele>796.6</ele>
        <time>2021-10-14T08:57:17Z</time>
      </trkpt>
      <trkpt lat="41.3434200" lon="-5.7714050">
        <ele>796.6</ele>
        <time>2021-10-14T08:57:20Z</time>
      </trkpt>
      <trkpt lat="41.3430850" lon="-5.7714990">
        <ele>796.4</ele>
        <time>2021-10-14T08:57:28Z</time>
      </trkpt>
      <trkpt lat="41.3430020" lon="-5.7715120">
        <ele>796.4</ele>
        <time>2021-10-14T08:57:30Z</time>
      </trkpt>
      <trkpt lat="41.3428010" lon="-5.7715400">
        <ele>796.2</ele>
        <time>2021-10-14T08:57:35Z</time>
      </trkpt>
      <trkpt lat="41.3426150" lon="-5.7715400">
        <ele>795.8</ele>
        <time>2021-10-14T08:57:39Z</time>
      </trkpt>
      <trkpt lat="41.3422480" lon="-5.7715230">
        <ele>795.4</ele>
        <time>2021-10-14T08:57:47Z</time>
      </trkpt>
      <trkpt lat="41.3421070" lon="-5.7714990">
        <ele>795.0</ele>
        <time>2021-10-14T08:57:50Z</time>
      </trkpt>
      <trkpt lat="41.3420130" lon="-5.7714830">
        <ele>794.8</ele>
        <time>2021-10-14T08:57:52Z</time>
      </trkpt>
      <trkpt lat="41.3417680" lon="-5.7714290">
        <ele>794.2</ele>
        <time>2021-10-14T08:57:58Z</time>
      </trkpt>
      <trkpt lat="41.3415700" lon="-5.7714020">
        <ele>793.6</ele>
        <time>2021-10-14T08:58:03Z</time>
      </trkpt>
      <trkpt lat="41.3414530" lon="-5.7713960">
        <ele>793.2</ele>
        <time>2021-10-14T08:58:06Z</time>
      </trkpt>
      <trkpt lat="41.3412610" lon="-5.7713850">
        <ele>793.0</ele>
        <time>2021-10-14T08:58:10Z</time>
      </trkpt>
      <trkpt lat="41.3410810" lon="-5.7713870">
        <ele>792.6</ele>
        <time>2021-10-14T08:58:14Z</time>
      </trkpt>
      <trkpt lat="41.3410370" lon="-5.7713890">
        <ele>792.6</ele>
        <time>2021-10-14T08:58:15Z</time>
      </trkpt>
      <trkpt lat="41.3408160" lon="-5.7714280">
        <ele>792.2</ele>
        <time>2021-10-14T08:58:20Z</time>
      </trkpt>
      <trkpt lat="41.3407730" lon="-5.7714440">
        <ele>792.2</ele>
        <time>2021-10-14T08:58:21Z</time>
      </trkpt>
      <trkpt lat="41.3404970" lon="-5.7715430">
        <ele>792.0</ele>
        <time>2021-10-14T08:58:27Z</time>
      </trkpt>
      <trkpt lat="41.3403130" lon="-5.7715930">
        <ele>791.8</ele>
        <time>2021-10-14T08:58:31Z</time>
      </trkpt>
      <trkpt lat="41.3399510" lon="-5.7716210">
        <ele>791.6</ele>
        <time>2021-10-14T08:58:39Z</time>
      </trkpt>
      <trkpt lat="41.3397310" lon="-5.7716210">
        <ele>791.6</ele>
        <time>2021-10-14T08:58:44Z</time>
      </trkpt>
      <trkpt lat="41.3396890" lon="-5.7716180">
        <ele>791.6</ele>
        <time>2021-10-14T08:58:45Z</time>
      </trkpt>
      <trkpt lat="41.3396080" lon="-5.7716140">
        <ele>791.6</ele>
        <time>2021-10-14T08:58:47Z</time>
      </trkpt>
      <trkpt lat="41.3393630" lon="-5.7715610">
        <ele>791.6</ele>
        <time>2021-10-14T08:58:53Z</time>
      </trkpt>
      <trkpt lat="41.3391400" lon="-5.7714920">
        <ele>791.6</ele>
        <time>2021-10-14T08:58:58Z</time>
      </trkpt>
      <trkpt lat="41.3390210" lon="-5.7714480">
        <ele>791.4</ele>
        <time>2021-10-14T08:59:00Z</time>
      </trkpt>
      <trkpt lat="41.3387390" lon="-5.7713400">
        <ele>790.4</ele>
        <time>2021-10-14T08:59:05Z</time>
      </trkpt>
      <trkpt lat="41.3386370" lon="-5.7713080">
        <ele>790.0</ele>
        <time>2021-10-14T08:59:07Z</time>
      </trkpt>
      <trkpt lat="41.3384850" lon="-5.7712240">
        <ele>789.4</ele>
        <time>2021-10-14T08:59:10Z</time>
      </trkpt>
      <trkpt lat="41.3383580" lon="-5.7711360">
        <ele>789.2</ele>
        <time>2021-10-14T08:59:13Z</time>
      </trkpt>
      <trkpt lat="41.3381540" lon="-5.7709930">
        <ele>789.0</ele>
        <time>2021-10-14T08:59:18Z</time>
      </trkpt>
      <trkpt lat="41.3380700" lon="-5.7709400">
        <ele>789.0</ele>
        <time>2021-10-14T08:59:20Z</time>
      </trkpt>
      <trkpt lat="41.3380290" lon="-5.7709130">
        <ele>789.0</ele>
        <time>2021-10-14T08:59:21Z</time>
      </trkpt>
      <trkpt lat="41.3377620" lon="-5.7707280">
        <ele>789.0</ele>
        <time>2021-10-14T08:59:28Z</time>
      </trkpt>
      <trkpt lat="41.3377260" lon="-5.7707020">
        <ele>789.2</ele>
        <time>2021-10-14T08:59:29Z</time>
      </trkpt>
      <trkpt lat="41.3376630" lon="-5.7706480">
        <ele>789.6</ele>
        <time>2021-10-14T08:59:31Z</time>
      </trkpt>
      <trkpt lat="41.3376070" lon="-5.7705890">
        <ele>789.8</ele>
        <time>2021-10-14T08:59:33Z</time>
      </trkpt>
      <trkpt lat="41.3375280" lon="-5.7705200">
        <ele>790.0</ele>
        <time>2021-10-14T08:59:36Z</time>
      </trkpt>
      <trkpt lat="41.3374550" lon="-5.7704600">
        <ele>790.2</ele>
        <time>2021-10-14T08:59:39Z</time>
      </trkpt>
      <trkpt lat="41.3374290" lon="-5.7704420">
        <ele>790.4</ele>
        <time>2021-10-14T08:59:40Z</time>
      </trkpt>
      <trkpt lat="41.3374060" lon="-5.7704220">
        <ele>790.4</ele>
        <time>2021-10-14T08:59:41Z</time>
      </trkpt>
      <trkpt lat="41.3373330" lon="-5.7703680">
        <ele>791.0</ele>
        <time>2021-10-14T08:59:44Z</time>
      </trkpt>
      <trkpt lat="41.3372350" lon="-5.7702900">
        <ele>791.6</ele>
        <time>2021-10-14T08:59:48Z</time>
      </trkpt>
      <trkpt lat="41.3372100" lon="-5.7702710">
        <ele>791.6</ele>
        <time>2021-10-14T08:59:49Z</time>
      </trkpt>
      <trkpt lat="41.3371350" lon="-5.7702170">
        <ele>792.0</ele>
        <time>2021-10-14T08:59:52Z</time>
      </trkpt>
      <trkpt lat="41.3369930" lon="-5.7701150">
        <ele>792.8</ele>
        <time>2021-10-14T08:59:58Z</time>
      </trkpt>
      <trkpt lat="41.3369330" lon="-5.7700630">
        <ele>793.0</ele>
        <time>2021-10-14T09:00:02Z</time>
      </trkpt>
      <trkpt lat="41.3369330" lon="-5.7700630">
        <ele>793.2</ele>
        <time>2021-10-14T09:00:04Z</time>
      </trkpt>
      <trkpt lat="41.3368910" lon="-5.7700390">
        <ele>792.8</ele>
        <time>2021-10-14T09:00:33Z</time>
      </trkpt>
      <trkpt lat="41.3368640" lon="-5.7700180">
        <ele>792.8</ele>
        <time>2021-10-14T09:00:34Z</time>
      </trkpt>
      <trkpt lat="41.3368340" lon="-5.7700020">
        <ele>792.8</ele>
        <time>2021-10-14T09:00:35Z</time>
      </trkpt>
      <trkpt lat="41.3366390" lon="-5.7698900">
        <ele>792.6</ele>
        <time>2021-10-14T09:00:41Z</time>
      </trkpt>
      <trkpt lat="41.3363810" lon="-5.7697560">
        <ele>792.0</ele>
        <time>2021-10-14T09:00:47Z</time>
      </trkpt>
      <trkpt lat="41.3361650" lon="-5.7696240">
        <ele>791.8</ele>
        <time>2021-10-14T09:00:52Z</time>
      </trkpt>
      <trkpt lat="41.3360330" lon="-5.7695290">
        <ele>791.4</ele>
        <time>2021-10-14T09:00:55Z</time>
      </trkpt>
      <trkpt lat="41.3359980" lon="-5.7695050">
        <ele>791.4</ele>
        <time>2021-10-14T09:00:56Z</time>
      </trkpt>
      <trkpt lat="41.3358670" lon="-5.7694150">
        <ele>791.0</ele>
        <time>2021-10-14T09:00:59Z</time>
      </trkpt>
      <trkpt lat="41.3356030" lon="-5.7692520">
        <ele>791.0</ele>
        <time>2021-10-14T09:01:05Z</time>
      </trkpt>
      <trkpt lat="41.3353220" lon="-5.7691150">
        <ele>791.2</ele>
        <time>2021-10-14T09:01:11Z</time>
      </trkpt>
      <trkpt lat="41.3351930" lon="-5.7690730">
        <ele>791.2</ele>
        <time>2021-10-14T09:01:14Z</time>
      </trkpt>
      <trkpt lat="41.3351460" lon="-5.7690600">
        <ele>791.2</ele>
        <time>2021-10-14T09:01:15Z</time>
      </trkpt>
      <trkpt lat="41.3350180" lon="-5.7690220">
        <ele>791.2</ele>
        <time>2021-10-14T09:01:18Z</time>
      </trkpt>
      <trkpt lat="41.3349370" lon="-5.7690030">
        <ele>791.2</ele>
        <time>2021-10-14T09:01:20Z</time>
      </trkpt>
      <trkpt lat="41.3348610" lon="-5.7689760">
        <ele>791.2</ele>
        <time>2021-10-14T09:01:22Z</time>
      </trkpt>
      <trkpt lat="41.3344990" lon="-5.7688510">
        <ele>791.4</ele>
        <time>2021-10-14T09:01:31Z</time>
      </trkpt>
      <trkpt lat="41.3344590" lon="-5.7688360">
        <ele>791.4</ele>
        <time>2021-10-14T09:01:32Z</time>
      </trkpt>
      <trkpt lat="41.3343790" lon="-5.7688000">
        <ele>791.6</ele>
        <time>2021-10-14T09:01:34Z</time>
      </trkpt>
      <trkpt lat="41.3342990" lon="-5.7687830">
        <ele>791.8</ele>
        <time>2021-10-14T09:01:36Z</time>
      </trkpt>
      <trkpt lat="41.3339850" lon="-5.7687390">
        <ele>792.2</ele>
        <time>2021-10-14T09:01:44Z</time>
      </trkpt>
      <trkpt lat="41.3337140" lon="-5.7686890">
        <ele>792.4</ele>
        <time>2021-10-14T09:01:51Z</time>
      </trkpt>
      <trkpt lat="41.3334970" lon="-5.7686030">
        <ele>792.6</ele>
        <time>2021-10-14T09:01:57Z</time>
      </trkpt>
      <trkpt lat="41.3334350" lon="-5.7685730">
        <ele>792.8</ele>
        <time>2021-10-14T09:01:59Z</time>
      </trkpt>
      <trkpt lat="41.3333970" lon="-5.7685590">
        <ele>792.8</ele>
        <time>2021-10-14T09:02:00Z</time>
      </trkpt>
      <trkpt lat="41.3333220" lon="-5.7685350">
        <ele>793.0</ele>
        <time>2021-10-14T09:02:04Z</time>
      </trkpt>
      <trkpt lat="41.3333220" lon="-5.7685350">
        <ele>793.0</ele>
        <time>2021-10-14T09:02:06Z</time>
      </trkpt>
      <trkpt lat="41.3332730" lon="-5.7685060">
        <ele>792.8</ele>
        <time>2021-10-14T09:06:24Z</time>
      </trkpt>
      <trkpt lat="41.3332450" lon="-5.7684910">
        <ele>792.8</ele>
        <time>2021-10-14T09:06:25Z</time>
      </trkpt>
      <trkpt lat="41.3331190" lon="-5.7684360">
        <ele>792.6</ele>
        <time>2021-10-14T09:06:30Z</time>
      </trkpt>
      <trkpt lat="41.3330650" lon="-5.7684170">
        <ele>792.6</ele>
        <time>2021-10-14T09:06:32Z</time>
      </trkpt>
      <trkpt lat="41.3329980" lon="-5.7683960">
        <ele>792.8</ele>
        <time>2021-10-14T09:06:35Z</time>
      </trkpt>
      <trkpt lat="41.3329140" lon="-5.7683600">
        <ele>793.2</ele>
        <time>2021-10-14T09:06:39Z</time>
      </trkpt>
      <trkpt lat="41.3328710" lon="-5.7683430">
        <ele>793.2</ele>
        <time>2021-10-14T09:06:41Z</time>
      </trkpt>
      <trkpt lat="41.3327750" lon="-5.7682910">
        <ele>793.2</ele>
        <time>2021-10-14T09:06:46Z</time>
      </trkpt>
      <trkpt lat="41.3326810" lon="-5.7682630">
        <ele>793.4</ele>
        <time>2021-10-14T09:06:51Z</time>
      </trkpt>
      <trkpt lat="41.3326390" lon="-5.7682430">
        <ele>793.8</ele>
        <time>2021-10-14T09:06:53Z</time>
      </trkpt>
      <trkpt lat="41.3324080" lon="-5.7681560">
        <ele>794.4</ele>
        <time>2021-10-14T09:07:02Z</time>
      </trkpt>
      <trkpt lat="41.3323240" lon="-5.7681200">
        <ele>794.6</ele>
        <time>2021-10-14T09:07:05Z</time>
      </trkpt>
      <trkpt lat="41.3322690" lon="-5.7680940">
        <ele>794.8</ele>
        <time>2021-10-14T09:07:07Z</time>
      </trkpt>
      <trkpt lat="41.3321880" lon="-5.7680640">
        <ele>795.4</ele>
        <time>2021-10-14T09:07:10Z</time>
      </trkpt>
      <trkpt lat="41.3321650" lon="-5.7680490">
        <ele>795.6</ele>
        <time>2021-10-14T09:07:11Z</time>
      </trkpt>
      <trkpt lat="41.3321440" lon="-5.7680340">
        <ele>795.6</ele>
        <time>2021-10-14T09:07:12Z</time>
      </trkpt>
      <trkpt lat="41.3320760" lon="-5.7679920">
        <ele>795.8</ele>
        <time>2021-10-14T09:07:15Z</time>
      </trkpt>
      <trkpt lat="41.3319900" lon="-5.7679410">
        <ele>796.0</ele>
        <time>2021-10-14T09:07:18Z</time>
      </trkpt>
      <trkpt lat="41.3317630" lon="-5.7678070">
        <ele>795.8</ele>
        <time>2021-10-14T09:07:25Z</time>
      </trkpt>
      <trkpt lat="41.3314320" lon="-5.7675550">
        <ele>795.6</ele>
        <time>2021-10-14T09:07:35Z</time>
      </trkpt>
      <trkpt lat="41.3312680" lon="-5.7674300">
        <ele>795.6</ele>
        <time>2021-10-14T09:07:40Z</time>
      </trkpt>
      <trkpt lat="41.3311410" lon="-5.7673270">
        <ele>795.6</ele>
        <time>2021-10-14T09:07:44Z</time>
      </trkpt>
      <trkpt lat="41.3311070" lon="-5.7673020">
        <ele>795.6</ele>
        <time>2021-10-14T09:07:45Z</time>
      </trkpt>
      <trkpt lat="41.3308110" lon="-5.7670740">
        <ele>795.8</ele>
        <time>2021-10-14T09:07:54Z</time>
      </trkpt>
      <trkpt lat="41.3307770" lon="-5.7670460">
        <ele>795.8</ele>
        <time>2021-10-14T09:07:55Z</time>
      </trkpt>
      <trkpt lat="41.3305380" lon="-5.7668680">
        <ele>796.2</ele>
        <time>2021-10-14T09:08:02Z</time>
      </trkpt>
      <trkpt lat="41.3302490" lon="-5.7667030">
        <ele>796.6</ele>
        <time>2021-10-14T09:08:11Z</time>
      </trkpt>
      <trkpt lat="41.3301910" lon="-5.7666620">
        <ele>796.6</ele>
        <time>2021-10-14T09:08:13Z</time>
      </trkpt>
      <trkpt lat="41.3301130" lon="-5.7665980">
        <ele>797.0</ele>
        <time>2021-10-14T09:08:16Z</time>
      </trkpt>
      <trkpt lat="41.3299810" lon="-5.7664820">
        <ele>798.0</ele>
        <time>2021-10-14T09:08:22Z</time>
      </trkpt>
      <trkpt lat="41.3299200" lon="-5.7664290">
        <ele>798.2</ele>
        <time>2021-10-14T09:08:25Z</time>
      </trkpt>
      <trkpt lat="41.3298830" lon="-5.7664030">
        <ele>798.6</ele>
        <time>2021-10-14T09:08:27Z</time>
      </trkpt>
      <trkpt lat="41.3298630" lon="-5.7663880">
        <ele>799.0</ele>
        <time>2021-10-14T09:08:28Z</time>
      </trkpt>
      <trkpt lat="41.3298110" lon="-5.7663410">
        <ele>799.8</ele>
        <time>2021-10-14T09:08:31Z</time>
      </trkpt>
      <trkpt lat="41.3297730" lon="-5.7663070">
        <ele>800.2</ele>
        <time>2021-10-14T09:08:33Z</time>
      </trkpt>
      <trkpt lat="41.3297090" lon="-5.7662560">
        <ele>800.4</ele>
        <time>2021-10-14T09:08:36Z</time>
      </trkpt>
      <trkpt lat="41.3296660" lon="-5.7662130">
        <ele>800.6</ele>
        <time>2021-10-14T09:08:38Z</time>
      </trkpt>
      <trkpt lat="41.3295840" lon="-5.7661340">
        <ele>800.6</ele>
        <time>2021-10-14T09:08:41Z</time>
      </trkpt>
      <trkpt lat="41.3295550" lon="-5.7661010">
        <ele>800.6</ele>
        <time>2021-10-14T09:08:42Z</time>
      </trkpt>
      <trkpt lat="41.3294940" lon="-5.7660270">
        <ele>800.4</ele>
        <time>2021-10-14T09:08:44Z</time>
      </trkpt>
      <trkpt lat="41.3294000" lon="-5.7659200">
        <ele>800.2</ele>
        <time>2021-10-14T09:08:47Z</time>
      </trkpt>
      <trkpt lat="41.3291490" lon="-5.7656350">
        <ele>799.8</ele>
        <time>2021-10-14T09:08:56Z</time>
      </trkpt>
      <trkpt lat="41.3290930" lon="-5.7655810">
        <ele>799.8</ele>
        <time>2021-10-14T09:08:58Z</time>
      </trkpt>
      <trkpt lat="41.3289050" lon="-5.7654000">
        <ele>799.8</ele>
        <time>2021-10-14T09:09:05Z</time>
      </trkpt>
      <trkpt lat="41.3288490" lon="-5.7653530">
        <ele>799.8</ele>
        <time>2021-10-14T09:09:07Z</time>
      </trkpt>
      <trkpt lat="41.3286470" lon="-5.7651710">
        <ele>800.2</ele>
        <time>2021-10-14T09:09:14Z</time>
      </trkpt>
      <trkpt lat="41.3284920" lon="-5.7650390">
        <ele>800.4</ele>
        <time>2021-10-14T09:09:19Z</time>
      </trkpt>
      <trkpt lat="41.3283780" lon="-5.7649530">
        <ele>800.6</ele>
        <time>2021-10-14T09:09:23Z</time>
      </trkpt>
      <trkpt lat="41.3282640" lon="-5.7648660">
        <ele>800.8</ele>
        <time>2021-10-14T09:09:27Z</time>
      </trkpt>
      <trkpt lat="41.3281520" lon="-5.7647950">
        <ele>801.2</ele>
        <time>2021-10-14T09:09:31Z</time>
      </trkpt>
      <trkpt lat="41.3280960" lon="-5.7647620">
        <ele>801.6</ele>
        <time>2021-10-14T09:09:33Z</time>
      </trkpt>
      <trkpt lat="41.3279600" lon="-5.7646880">
        <ele>802.2</ele>
        <time>2021-10-14T09:09:38Z</time>
      </trkpt>
      <trkpt lat="41.3279020" lon="-5.7646580">
        <ele>802.4</ele>
        <time>2021-10-14T09:09:40Z</time>
      </trkpt>
      <trkpt lat="41.3278070" lon="-5.7646380">
        <ele>802.4</ele>
        <time>2021-10-14T09:09:43Z</time>
      </trkpt>
      <trkpt lat="41.3277450" lon="-5.7646330">
        <ele>802.6</ele>
        <time>2021-10-14T09:09:45Z</time>
      </trkpt>
      <trkpt lat="41.3276230" lon="-5.7646270">
        <ele>802.8</ele>
        <time>2021-10-14T09:09:49Z</time>
      </trkpt>
      <trkpt lat="41.3275540" lon="-5.7646240">
        <ele>802.8</ele>
        <time>2021-10-14T09:09:51Z</time>
      </trkpt>
      <trkpt lat="41.3274870" lon="-5.7646210">
        <ele>803.0</ele>
        <time>2021-10-14T09:09:53Z</time>
      </trkpt>
      <trkpt lat="41.3274580" lon="-5.7646170">
        <ele>803.0</ele>
        <time>2021-10-14T09:09:54Z</time>
      </trkpt>
      <trkpt lat="41.3271560" lon="-5.7646200">
        <ele>803.0</ele>
        <time>2021-10-14T09:10:03Z</time>
      </trkpt>
      <trkpt lat="41.3270590" lon="-5.7646560">
        <ele>803.0</ele>
        <time>2021-10-14T09:10:06Z</time>
      </trkpt>
      <trkpt lat="41.3269040" lon="-5.7647210">
        <ele>802.6</ele>
        <time>2021-10-14T09:10:11Z</time>
      </trkpt>
      <trkpt lat="41.3267380" lon="-5.7647100">
        <ele>802.8</ele>
        <time>2021-10-14T09:10:16Z</time>
      </trkpt>
      <trkpt lat="41.3264790" lon="-5.7646920">
        <ele>803.2</ele>
        <time>2021-10-14T09:10:25Z</time>
      </trkpt>
      <trkpt lat="41.3264380" lon="-5.7646950">
        <ele>803.4</ele>
        <time>2021-10-14T09:10:27Z</time>
      </trkpt>
      <trkpt lat="41.3263440" lon="-5.7646930">
        <ele>803.8</ele>
        <time>2021-10-14T09:10:31Z</time>
      </trkpt>
      <trkpt lat="41.3261890" lon="-5.7646530">
        <ele>804.4</ele>
        <time>2021-10-14T09:10:38Z</time>
      </trkpt>
      <trkpt lat="41.3260190" lon="-5.7645890">
        <ele>805.0</ele>
        <time>2021-10-14T09:10:46Z</time>
      </trkpt>
      <trkpt lat="41.3258940" lon="-5.7645610">
        <ele>805.4</ele>
        <time>2021-10-14T09:10:51Z</time>
      </trkpt>
      <trkpt lat="41.3258040" lon="-5.7645440">
        <ele>806.0</ele>
        <time>2021-10-14T09:10:55Z</time>
      </trkpt>
      <trkpt lat="41.3256510" lon="-5.7645200">
        <ele>806.2</ele>
        <time>2021-10-14T09:11:01Z</time>
      </trkpt>
      <trkpt lat="41.3255510" lon="-5.7645060">
        <ele>806.6</ele>
        <time>2021-10-14T09:11:05Z</time>
      </trkpt>
      <trkpt lat="41.3255350" lon="-5.7645000">
        <ele>806.6</ele>
        <time>2021-10-14T09:11:06Z</time>
      </trkpt>
      <trkpt lat="41.3253660" lon="-5.7644650">
        <ele>807.6</ele>
        <time>2021-10-14T09:11:14Z</time>
      </trkpt>
      <trkpt lat="41.3253020" lon="-5.7644510">
        <ele>807.8</ele>
        <time>2021-10-14T09:11:17Z</time>
      </trkpt>
      <trkpt lat="41.3252040" lon="-5.7644230">
        <ele>808.8</ele>
        <time>2021-10-14T09:11:22Z</time>
      </trkpt>
      <trkpt lat="41.3251410" lon="-5.7644040">
        <ele>809.0</ele>
        <time>2021-10-14T09:11:25Z</time>
      </trkpt>
      <trkpt lat="41.3250190" lon="-5.7643790">
        <ele>809.8</ele>
        <time>2021-10-14T09:11:31Z</time>
      </trkpt>
      <trkpt lat="41.3249540" lon="-5.7643690">
        <ele>810.0</ele>
        <time>2021-10-14T09:11:34Z</time>
      </trkpt>
      <trkpt lat="41.3249130" lon="-5.7643650">
        <ele>810.6</ele>
        <time>2021-10-14T09:11:36Z</time>
      </trkpt>
      <trkpt lat="41.3248900" lon="-5.7643650">
        <ele>810.8</ele>
        <time>2021-10-14T09:11:37Z</time>
      </trkpt>
      <trkpt lat="41.3248630" lon="-5.7643640">
        <ele>811.0</ele>
        <time>2021-10-14T09:11:38Z</time>
      </trkpt>
      <trkpt lat="41.3248000" lon="-5.7643650">
        <ele>811.0</ele>
        <time>2021-10-14T09:11:41Z</time>
      </trkpt>
      <trkpt lat="41.3247230" lon="-5.7643550">
        <ele>811.6</ele>
        <time>2021-10-14T09:11:45Z</time>
      </trkpt>
      <trkpt lat="41.3246790" lon="-5.7643530">
        <ele>812.0</ele>
        <time>2021-10-14T09:11:47Z</time>
      </trkpt>
      <trkpt lat="41.3245560" lon="-5.7643600">
        <ele>812.8</ele>
        <time>2021-10-14T09:11:53Z</time>
      </trkpt>
      <trkpt lat="41.3245200" lon="-5.7643600">
        <ele>813.0</ele>
        <time>2021-10-14T09:11:55Z</time>
      </trkpt>
      <trkpt lat="41.3243720" lon="-5.7643430">
        <ele>813.6</ele>
        <time>2021-10-14T09:12:02Z</time>
      </trkpt>
      <trkpt lat="41.3242930" lon="-5.7643330">
        <ele>814.0</ele>
        <time>2021-10-14T09:12:06Z</time>
      </trkpt>
      <trkpt lat="41.3241490" lon="-5.7643430">
        <ele>815.0</ele>
        <time>2021-10-14T09:12:13Z</time>
      </trkpt>
      <trkpt lat="41.3241280" lon="-5.7643500">
        <ele>815.0</ele>
        <time>2021-10-14T09:12:14Z</time>
      </trkpt>
      <trkpt lat="41.3239580" lon="-5.7643800">
        <ele>815.8</ele>
        <time>2021-10-14T09:12:22Z</time>
      </trkpt>
      <trkpt lat="41.3238350" lon="-5.7643860">
        <ele>816.0</ele>
        <time>2021-10-14T09:12:27Z</time>
      </trkpt>
      <trkpt lat="41.3237070" lon="-5.7643650">
        <ele>816.4</ele>
        <time>2021-10-14T09:12:32Z</time>
      </trkpt>
      <trkpt lat="41.3234890" lon="-5.7642870">
        <ele>817.2</ele>
        <time>2021-10-14T09:12:41Z</time>
      </trkpt>
      <trkpt lat="41.3232830" lon="-5.7641970">
        <ele>817.4</ele>
        <time>2021-10-14T09:12:50Z</time>
      </trkpt>
      <trkpt lat="41.3231180" lon="-5.7641180">
        <ele>818.2</ele>
        <time>2021-10-14T09:12:57Z</time>
      </trkpt>
      <trkpt lat="41.3230190" lon="-5.7640810">
        <ele>818.2</ele>
        <time>2021-10-14T09:13:01Z</time>
      </trkpt>
      <trkpt lat="41.3229940" lon="-5.7640710">
        <ele>818.4</ele>
        <time>2021-10-14T09:13:02Z</time>
      </trkpt>
      <trkpt lat="41.3227820" lon="-5.7639950">
        <ele>819.0</ele>
        <time>2021-10-14T09:13:11Z</time>
      </trkpt>
      <trkpt lat="41.3226510" lon="-5.7639390">
        <ele>819.2</ele>
        <time>2021-10-14T09:13:17Z</time>
      </trkpt>
      <trkpt lat="41.3226130" lon="-5.7639210">
        <ele>819.4</ele>
        <time>2021-10-14T09:13:19Z</time>
      </trkpt>
      <trkpt lat="41.3224400" lon="-5.7638410">
        <ele>820.2</ele>
        <time>2021-10-14T09:13:27Z</time>
      </trkpt>
      <trkpt lat="41.3224170" lon="-5.7638300">
        <ele>820.4</ele>
        <time>2021-10-14T09:13:28Z</time>
      </trkpt>
      <trkpt lat="41.3223150" lon="-5.7637800">
        <ele>820.6</ele>
        <time>2021-10-14T09:13:33Z</time>
      </trkpt>
      <trkpt lat="41.3222690" lon="-5.7637590">
        <ele>820.8</ele>
        <time>2021-10-14T09:13:35Z</time>
      </trkpt>
      <trkpt lat="41.3222310" lon="-5.7637400">
        <ele>821.0</ele>
        <time>2021-10-14T09:13:37Z</time>
      </trkpt>
      <trkpt lat="41.3221640" lon="-5.7637100">
        <ele>821.2</ele>
        <time>2021-10-14T09:13:40Z</time>
      </trkpt>
      <trkpt lat="41.3221270" lon="-5.7636950">
        <ele>821.4</ele>
        <time>2021-10-14T09:13:42Z</time>
      </trkpt>
      <trkpt lat="41.3220100" lon="-5.7636270">
        <ele>821.8</ele>
        <time>2021-10-14T09:13:48Z</time>
      </trkpt>
      <trkpt lat="41.3219460" lon="-5.7635980">
        <ele>821.8</ele>
        <time>2021-10-14T09:13:51Z</time>
      </trkpt>
      <trkpt lat="41.3218700" lon="-5.7635550">
        <ele>822.4</ele>
        <time>2021-10-14T09:13:55Z</time>
      </trkpt>
      <trkpt lat="41.3218060" lon="-5.7635230">
        <ele>822.8</ele>
        <time>2021-10-14T09:13:58Z</time>
      </trkpt>
      <trkpt lat="41.3217500" lon="-5.7634900">
        <ele>823.2</ele>
        <time>2021-10-14T09:14:01Z</time>
      </trkpt>
      <trkpt lat="41.3216500" lon="-5.7634330">
        <ele>823.6</ele>
        <time>2021-10-14T09:14:06Z</time>
      </trkpt>
      <trkpt lat="41.3216120" lon="-5.7634110">
        <ele>823.8</ele>
        <time>2021-10-14T09:14:08Z</time>
      </trkpt>
      <trkpt lat="41.3215780" lon="-5.7633860">
        <ele>823.8</ele>
        <time>2021-10-14T09:14:10Z</time>
      </trkpt>
      <trkpt lat="41.3215160" lon="-5.7633550">
        <ele>824.0</ele>
        <time>2021-10-14T09:14:13Z</time>
      </trkpt>
      <trkpt lat="41.3214360" lon="-5.7633130">
        <ele>824.4</ele>
        <time>2021-10-14T09:14:17Z</time>
      </trkpt>
      <trkpt lat="41.3214020" lon="-5.7632940">
        <ele>824.6</ele>
        <time>2021-10-14T09:14:19Z</time>
      </trkpt>
      <trkpt lat="41.3213010" lon="-5.7632590">
        <ele>825.2</ele>
        <time>2021-10-14T09:14:24Z</time>
      </trkpt>
      <trkpt lat="41.3212760" lon="-5.7632530">
        <ele>825.2</ele>
        <time>2021-10-14T09:14:25Z</time>
      </trkpt>
      <trkpt lat="41.3212190" lon="-5.7632370">
        <ele>825.8</ele>
        <time>2021-10-14T09:14:28Z</time>
      </trkpt>
      <trkpt lat="41.3211070" lon="-5.7632180">
        <ele>826.4</ele>
        <time>2021-10-14T09:14:34Z</time>
      </trkpt>
      <trkpt lat="41.3210740" lon="-5.7632100">
        <ele>826.8</ele>
        <time>2021-10-14T09:14:36Z</time>
      </trkpt>
      <trkpt lat="41.3210400" lon="-5.7632090">
        <ele>827.2</ele>
        <time>2021-10-14T09:14:38Z</time>
      </trkpt>
      <trkpt lat="41.3209780" lon="-5.7632090">
        <ele>827.8</ele>
        <time>2021-10-14T09:14:41Z</time>
      </trkpt>
      <trkpt lat="41.3209640" lon="-5.7632100">
        <ele>827.8</ele>
        <time>2021-10-14T09:14:42Z</time>
      </trkpt>
      <trkpt lat="41.3209270" lon="-5.7632100">
        <ele>828.2</ele>
        <time>2021-10-14T09:14:44Z</time>
      </trkpt>
      <trkpt lat="41.3209080" lon="-5.7632090">
        <ele>828.2</ele>
        <time>2021-10-14T09:14:45Z</time>
      </trkpt>
      <trkpt lat="41.3208770" lon="-5.7632130">
        <ele>828.4</ele>
        <time>2021-10-14T09:14:47Z</time>
      </trkpt>
      <trkpt lat="41.3208320" lon="-5.7632210">
        <ele>828.6</ele>
        <time>2021-10-14T09:14:49Z</time>
      </trkpt>
      <trkpt lat="41.3207990" lon="-5.7632190">
        <ele>828.8</ele>
        <time>2021-10-14T09:14:51Z</time>
      </trkpt>
      <trkpt lat="41.3207590" lon="-5.7632170">
        <ele>829.0</ele>
        <time>2021-10-14T09:14:53Z</time>
      </trkpt>
      <trkpt lat="41.3206860" lon="-5.7632150">
        <ele>829.6</ele>
        <time>2021-10-14T09:14:57Z</time>
      </trkpt>
      <trkpt lat="41.3206430" lon="-5.7632150">
        <ele>830.0</ele>
        <time>2021-10-14T09:14:59Z</time>
      </trkpt>
      <trkpt lat="41.3206240" lon="-5.7632160">
        <ele>830.0</ele>
        <time>2021-10-14T09:15:00Z</time>
      </trkpt>
      <trkpt lat="41.3204740" lon="-5.7632200">
        <ele>830.8</ele>
        <time>2021-10-14T09:15:07Z</time>
      </trkpt>
      <trkpt lat="41.3204120" lon="-5.7632230">
        <ele>831.0</ele>
        <time>2021-10-14T09:15:10Z</time>
      </trkpt>
      <trkpt lat="41.3203610" lon="-5.7632260">
        <ele>831.0</ele>
        <time>2021-10-14T09:15:12Z</time>
      </trkpt>
      <trkpt lat="41.3203400" lon="-5.7632300">
        <ele>831.2</ele>
        <time>2021-10-14T09:15:13Z</time>
      </trkpt>
      <trkpt lat="41.3202480" lon="-5.7632430">
        <ele>831.2</ele>
        <time>2021-10-14T09:15:17Z</time>
      </trkpt>
      <trkpt lat="41.3200120" lon="-5.7632620">
        <ele>831.6</ele>
        <time>2021-10-14T09:15:27Z</time>
      </trkpt>
      <trkpt lat="41.3198170" lon="-5.7632720">
        <ele>832.0</ele>
        <time>2021-10-14T09:15:35Z</time>
      </trkpt>
      <trkpt lat="41.3197920" lon="-5.7632730">
        <ele>832.0</ele>
        <time>2021-10-14T09:15:36Z</time>
      </trkpt>
      <trkpt lat="41.3195940" lon="-5.7632630">
        <ele>832.4</ele>
        <time>2021-10-14T09:15:44Z</time>
      </trkpt>
      <trkpt lat="41.3194150" lon="-5.7632450">
        <ele>832.8</ele>
        <time>2021-10-14T09:15:52Z</time>
      </trkpt>
      <trkpt lat="41.3193190" lon="-5.7632310">
        <ele>833.0</ele>
        <time>2021-10-14T09:15:56Z</time>
      </trkpt>
      <trkpt lat="41.3191560" lon="-5.7631920">
        <ele>833.6</ele>
        <time>2021-10-14T09:16:03Z</time>
      </trkpt>
      <trkpt lat="41.3190960" lon="-5.7631690">
        <ele>833.8</ele>
        <time>2021-10-14T09:16:06Z</time>
      </trkpt>
      <trkpt lat="41.3190280" lon="-5.7631460">
        <ele>833.8</ele>
        <time>2021-10-14T09:16:09Z</time>
      </trkpt>
      <trkpt lat="41.3189910" lon="-5.7631310">
        <ele>834.0</ele>
        <time>2021-10-14T09:16:11Z</time>
      </trkpt>
      <trkpt lat="41.3189640" lon="-5.7631200">
        <ele>834.2</ele>
        <time>2021-10-14T09:16:12Z</time>
      </trkpt>
      <trkpt lat="41.3189450" lon="-5.7631100">
        <ele>834.4</ele>
        <time>2021-10-14T09:16:13Z</time>
      </trkpt>
      <trkpt lat="41.3188670" lon="-5.7630770">
        <ele>834.8</ele>
        <time>2021-10-14T09:16:17Z</time>
      </trkpt>
      <trkpt lat="41.3187770" lon="-5.7630400">
        <ele>835.0</ele>
        <time>2021-10-14T09:16:21Z</time>
      </trkpt>
      <trkpt lat="41.3186690" lon="-5.7629930">
        <ele>835.4</ele>
        <time>2021-10-14T09:16:26Z</time>
      </trkpt>
      <trkpt lat="41.3185640" lon="-5.7629470">
        <ele>835.8</ele>
        <time>2021-10-14T09:16:31Z</time>
      </trkpt>
      <trkpt lat="41.3183520" lon="-5.7628840">
        <ele>836.4</ele>
        <time>2021-10-14T09:16:41Z</time>
      </trkpt>
      <trkpt lat="41.3183260" lon="-5.7628740">
        <ele>836.4</ele>
        <time>2021-10-14T09:16:42Z</time>
      </trkpt>
      <trkpt lat="41.3181480" lon="-5.7628410">
        <ele>837.4</ele>
        <time>2021-10-14T09:16:50Z</time>
      </trkpt>
      <trkpt lat="41.3180570" lon="-5.7628270">
        <ele>837.6</ele>
        <time>2021-10-14T09:16:54Z</time>
      </trkpt>
      <trkpt lat="41.3179140" lon="-5.7628050">
        <ele>838.2</ele>
        <time>2021-10-14T09:17:01Z</time>
      </trkpt>
      <trkpt lat="41.3178480" lon="-5.7627970">
        <ele>838.6</ele>
        <time>2021-10-14T09:17:04Z</time>
      </trkpt>
      <trkpt lat="41.3177530" lon="-5.7627720">
        <ele>839.0</ele>
        <time>2021-10-14T09:17:09Z</time>
      </trkpt>
      <trkpt lat="41.3176130" lon="-5.7627510">
        <ele>839.8</ele>
        <time>2021-10-14T09:17:16Z</time>
      </trkpt>
      <trkpt lat="41.3174760" lon="-5.7627190">
        <ele>841.0</ele>
        <time>2021-10-14T09:17:23Z</time>
      </trkpt>
      <trkpt lat="41.3174180" lon="-5.7627190">
        <ele>841.6</ele>
        <time>2021-10-14T09:17:26Z</time>
      </trkpt>
      <trkpt lat="41.3174010" lon="-5.7627180">
        <ele>842.0</ele>
        <time>2021-10-14T09:17:27Z</time>
      </trkpt>
      <trkpt lat="41.3173080" lon="-5.7627020">
        <ele>843.2</ele>
        <time>2021-10-14T09:17:33Z</time>
      </trkpt>
      <trkpt lat="41.3172960" lon="-5.7626990">
        <ele>843.2</ele>
        <time>2021-10-14T09:17:34Z</time>
      </trkpt>
      <trkpt lat="41.3172200" lon="-5.7626810">
        <ele>844.2</ele>
        <time>2021-10-14T09:17:39Z</time>
      </trkpt>
      <trkpt lat="41.3171790" lon="-5.7626660">
        <ele>844.8</ele>
        <time>2021-10-14T09:17:41Z</time>
      </trkpt>
      <trkpt lat="41.3171630" lon="-5.7626620">
        <ele>845.0</ele>
        <time>2021-10-14T09:17:42Z</time>
      </trkpt>
      <trkpt lat="41.3171500" lon="-5.7626580">
        <ele>845.0</ele>
        <time>2021-10-14T09:17:43Z</time>
      </trkpt>
      <trkpt lat="41.3171340" lon="-5.7626560">
        <ele>845.2</ele>
        <time>2021-10-14T09:17:44Z</time>
      </trkpt>
      <trkpt lat="41.3171150" lon="-5.7626540">
        <ele>845.2</ele>
        <time>2021-10-14T09:17:45Z</time>
      </trkpt>
      <trkpt lat="41.3171000" lon="-5.7626510">
        <ele>845.4</ele>
        <time>2021-10-14T09:17:46Z</time>
      </trkpt>
      <trkpt lat="41.3170840" lon="-5.7626490">
        <ele>845.4</ele>
        <time>2021-10-14T09:17:47Z</time>
      </trkpt>
      <trkpt lat="41.3170580" lon="-5.7626460">
        <ele>845.6</ele>
        <time>2021-10-14T09:17:49Z</time>
      </trkpt>
      <trkpt lat="41.3170380" lon="-5.7626430">
        <ele>845.6</ele>
        <time>2021-10-14T09:17:50Z</time>
      </trkpt>
      <trkpt lat="41.3169940" lon="-5.7626360">
        <ele>846.0</ele>
        <time>2021-10-14T09:17:53Z</time>
      </trkpt>
      <trkpt lat="41.3169320" lon="-5.7626260">
        <ele>846.4</ele>
        <time>2021-10-14T09:17:57Z</time>
      </trkpt>
      <trkpt lat="41.3169160" lon="-5.7626220">
        <ele>846.4</ele>
        <time>2021-10-14T09:17:58Z</time>
      </trkpt>
      <trkpt lat="41.3167690" lon="-5.7625840">
        <ele>847.0</ele>
        <time>2021-10-14T09:18:07Z</time>
      </trkpt>
      <trkpt lat="41.3166760" lon="-5.7625650">
        <ele>847.4</ele>
        <time>2021-10-14T09:18:12Z</time>
      </trkpt>
      <trkpt lat="41.3165970" lon="-5.7625450">
        <ele>848.0</ele>
        <time>2021-10-14T09:18:16Z</time>
      </trkpt>
      <trkpt lat="41.3164520" lon="-5.7625010">
        <ele>848.4</ele>
        <time>2021-10-14T09:18:24Z</time>
      </trkpt>
      <trkpt lat="41.3162820" lon="-5.7625050">
        <ele>849.2</ele>
        <time>2021-10-14T09:18:33Z</time>
      </trkpt>
      <trkpt lat="41.3162130" lon="-5.7625140">
        <ele>849.6</ele>
        <time>2021-10-14T09:18:37Z</time>
      </trkpt>
      <trkpt lat="41.3161400" lon="-5.7625410">
        <ele>850.0</ele>
        <time>2021-10-14T09:18:41Z</time>
      </trkpt>
      <trkpt lat="41.3160480" lon="-5.7625720">
        <ele>850.6</ele>
        <time>2021-10-14T09:18:46Z</time>
      </trkpt>
      <trkpt lat="41.3159980" lon="-5.7625980">
        <ele>851.0</ele>
        <time>2021-10-14T09:18:49Z</time>
      </trkpt>
      <trkpt lat="41.3158540" lon="-5.7626740">
        <ele>851.6</ele>
        <time>2021-10-14T09:18:56Z</time>
      </trkpt>
      <trkpt lat="41.3158200" lon="-5.7626850">
        <ele>852.0</ele>
        <time>2021-10-14T09:18:58Z</time>
      </trkpt>
      <trkpt lat="41.3157140" lon="-5.7627400">
        <ele>852.8</ele>
        <time>2021-10-14T09:19:04Z</time>
      </trkpt>
      <trkpt lat="41.3156730" lon="-5.7627630">
        <ele>853.0</ele>
        <time>2021-10-14T09:19:06Z</time>
      </trkpt>
      <trkpt lat="41.3155100" lon="-5.7628550">
        <ele>853.8</ele>
        <time>2021-10-14T09:19:15Z</time>
      </trkpt>
      <trkpt lat="41.3154950" lon="-5.7628620">
        <ele>854.0</ele>
        <time>2021-10-14T09:19:16Z</time>
      </trkpt>
      <trkpt lat="41.3153740" lon="-5.7628960">
        <ele>854.4</ele>
        <time>2021-10-14T09:19:22Z</time>
      </trkpt>
      <trkpt lat="41.3153230" lon="-5.7629130">
        <ele>855.0</ele>
        <time>2021-10-14T09:19:25Z</time>
      </trkpt>
      <trkpt lat="41.3152450" lon="-5.7629320">
        <ele>856.0</ele>
        <time>2021-10-14T09:19:30Z</time>
      </trkpt>
      <trkpt lat="41.3152100" lon="-5.7629450">
        <ele>856.2</ele>
        <time>2021-10-14T09:19:32Z</time>
      </trkpt>
      <trkpt lat="41.3151340" lon="-5.7629770">
        <ele>857.0</ele>
        <time>2021-10-14T09:19:37Z</time>
      </trkpt>
      <trkpt lat="41.3150790" lon="-5.7630050">
        <ele>857.8</ele>
        <time>2021-10-14T09:19:41Z</time>
      </trkpt>
      <trkpt lat="41.3150520" lon="-5.7630180">
        <ele>858.2</ele>
        <time>2021-10-14T09:19:43Z</time>
      </trkpt>
      <trkpt lat="41.3149740" lon="-5.7630690">
        <ele>859.2</ele>
        <time>2021-10-14T09:19:49Z</time>
      </trkpt>
      <trkpt lat="41.3149590" lon="-5.7630830">
        <ele>859.2</ele>
        <time>2021-10-14T09:19:50Z</time>
      </trkpt>
      <trkpt lat="41.3148810" lon="-5.7631490">
        <ele>860.0</ele>
        <time>2021-10-14T09:19:56Z</time>
      </trkpt>
      <trkpt lat="41.3148460" lon="-5.7631790">
        <ele>860.4</ele>
        <time>2021-10-14T09:19:59Z</time>
      </trkpt>
      <trkpt lat="41.3147780" lon="-5.7632370">
        <ele>861.0</ele>
        <time>2021-10-14T09:20:04Z</time>
      </trkpt>
      <trkpt lat="41.3147440" lon="-5.7632650">
        <ele>861.4</ele>
        <time>2021-10-14T09:20:07Z</time>
      </trkpt>
      <trkpt lat="41.3146460" lon="-5.7633320">
        <ele>862.2</ele>
        <time>2021-10-14T09:20:14Z</time>
      </trkpt>
      <trkpt lat="41.3146050" lon="-5.7633550">
        <ele>862.2</ele>
        <time>2021-10-14T09:20:17Z</time>
      </trkpt>
      <trkpt lat="41.3144980" lon="-5.7634140">
        <ele>862.8</ele>
        <time>2021-10-14T09:20:24Z</time>
      </trkpt>
      <trkpt lat="41.3144390" lon="-5.7634470">
        <ele>863.4</ele>
        <time>2021-10-14T09:20:28Z</time>
      </trkpt>
      <trkpt lat="41.3143840" lon="-5.7634790">
        <ele>863.8</ele>
        <time>2021-10-14T09:20:32Z</time>
      </trkpt>
      <trkpt lat="41.3143720" lon="-5.7634840">
        <ele>864.0</ele>
        <time>2021-10-14T09:20:33Z</time>
      </trkpt>
      <trkpt lat="41.3143580" lon="-5.7634890">
        <ele>864.0</ele>
        <time>2021-10-14T09:20:34Z</time>
      </trkpt>
      <trkpt lat="41.3143330" lon="-5.7635010">
        <ele>864.2</ele>
        <time>2021-10-14T09:20:36Z</time>
      </trkpt>
      <trkpt lat="41.3142970" lon="-5.7635200">
        <ele>864.4</ele>
        <time>2021-10-14T09:20:38Z</time>
      </trkpt>
      <trkpt lat="41.3142240" lon="-5.7635600">
        <ele>865.0</ele>
        <time>2021-10-14T09:20:43Z</time>
      </trkpt>
      <trkpt lat="41.3141920" lon="-5.7635640">
        <ele>865.6</ele>
        <time>2021-10-14T09:20:45Z</time>
      </trkpt>
      <trkpt lat="41.3141120" lon="-5.7636050">
        <ele>866.0</ele>
        <time>2021-10-14T09:20:50Z</time>
      </trkpt>
      <trkpt lat="41.3140550" lon="-5.7636410">
        <ele>866.6</ele>
        <time>2021-10-14T09:20:54Z</time>
      </trkpt>
      <trkpt lat="41.3139830" lon="-5.7636860">
        <ele>866.8</ele>
        <time>2021-10-14T09:20:59Z</time>
      </trkpt>
      <trkpt lat="41.3139280" lon="-5.7637220">
        <ele>867.8</ele>
        <time>2021-10-14T09:21:03Z</time>
      </trkpt>
      <trkpt lat="41.3138480" lon="-5.7637560">
        <ele>868.2</ele>
        <time>2021-10-14T09:21:08Z</time>
      </trkpt>
      <trkpt lat="41.3138000" lon="-5.7637790">
        <ele>868.8</ele>
        <time>2021-10-14T09:21:11Z</time>
      </trkpt>
      <trkpt lat="41.3137540" lon="-5.7637940">
        <ele>869.2</ele>
        <time>2021-10-14T09:21:14Z</time>
      </trkpt>
      <trkpt lat="41.3137190" lon="-5.7638170">
        <ele>869.6</ele>
        <time>2021-10-14T09:21:16Z</time>
      </trkpt>
      <trkpt lat="41.3137050" lon="-5.7638240">
        <ele>869.6</ele>
        <time>2021-10-14T09:21:17Z</time>
      </trkpt>
      <trkpt lat="41.3136790" lon="-5.7638330">
        <ele>869.8</ele>
        <time>2021-10-14T09:21:18Z</time>
      </trkpt>
      <trkpt lat="41.3136560" lon="-5.7638430">
        <ele>869.8</ele>
        <time>2021-10-14T09:21:19Z</time>
      </trkpt>
      <trkpt lat="41.3136300" lon="-5.7638560">
        <ele>870.0</ele>
        <time>2021-10-14T09:21:20Z</time>
      </trkpt>
      <trkpt lat="41.3135790" lon="-5.7638810">
        <ele>870.2</ele>
        <time>2021-10-14T09:21:22Z</time>
      </trkpt>
      <trkpt lat="41.3135440" lon="-5.7638970">
        <ele>870.2</ele>
        <time>2021-10-14T09:21:23Z</time>
      </trkpt>
      <trkpt lat="41.3133910" lon="-5.7639950">
        <ele>870.0</ele>
        <time>2021-10-14T09:21:29Z</time>
      </trkpt>
      <trkpt lat="41.3132660" lon="-5.7641590">
        <ele>869.8</ele>
        <time>2021-10-14T09:21:36Z</time>
      </trkpt>
      <trkpt lat="41.3130890" lon="-5.7643460">
        <ele>870.0</ele>
        <time>2021-10-14T09:21:46Z</time>
      </trkpt>
      <trkpt lat="41.3130690" lon="-5.7643690">
        <ele>870.2</ele>
        <time>2021-10-14T09:21:47Z</time>
      </trkpt>
      <trkpt lat="41.3130230" lon="-5.7644320">
        <ele>870.4</ele>
        <time>2021-10-14T09:21:50Z</time>
      </trkpt>
      <trkpt lat="41.3129400" lon="-5.7645500">
        <ele>871.0</ele>
        <time>2021-10-14T09:21:55Z</time>
      </trkpt>
      <trkpt lat="41.3128910" lon="-5.7646290">
        <ele>871.2</ele>
        <time>2021-10-14T09:21:58Z</time>
      </trkpt>
      <trkpt lat="41.3128630" lon="-5.7646760">
        <ele>871.4</ele>
        <time>2021-10-14T09:22:00Z</time>
      </trkpt>
      <trkpt lat="41.3128040" lon="-5.7647790">
        <ele>871.6</ele>
        <time>2021-10-14T09:22:04Z</time>
      </trkpt>
      <trkpt lat="41.3127560" lon="-5.7648640">
        <ele>871.6</ele>
        <time>2021-10-14T09:22:07Z</time>
      </trkpt>
      <trkpt lat="41.3126500" lon="-5.7650790">
        <ele>871.8</ele>
        <time>2021-10-14T09:22:15Z</time>
      </trkpt>
      <trkpt lat="41.3125830" lon="-5.7652240">
        <ele>872.0</ele>
        <time>2021-10-14T09:22:20Z</time>
      </trkpt>
      <trkpt lat="41.3125060" lon="-5.7653920">
        <ele>872.0</ele>
        <time>2021-10-14T09:22:26Z</time>
      </trkpt>
      <trkpt lat="41.3124460" lon="-5.7655040">
        <ele>872.2</ele>
        <time>2021-10-14T09:22:30Z</time>
      </trkpt>
      <trkpt lat="41.3123800" lon="-5.7655990">
        <ele>872.2</ele>
        <time>2021-10-14T09:22:34Z</time>
      </trkpt>
      <trkpt lat="41.3123130" lon="-5.7656840">
        <ele>872.4</ele>
        <time>2021-10-14T09:22:38Z</time>
      </trkpt>
      <trkpt lat="41.3122160" lon="-5.7657780">
        <ele>873.2</ele>
        <time>2021-10-14T09:22:43Z</time>
      </trkpt>
      <trkpt lat="41.3121980" lon="-5.7657920">
        <ele>873.2</ele>
        <time>2021-10-14T09:22:44Z</time>
      </trkpt>
      <trkpt lat="41.3121000" lon="-5.7658710">
        <ele>873.8</ele>
        <time>2021-10-14T09:22:49Z</time>
      </trkpt>
      <trkpt lat="41.3120650" lon="-5.7659060">
        <ele>874.0</ele>
        <time>2021-10-14T09:22:51Z</time>
      </trkpt>
      <trkpt lat="41.3120090" lon="-5.7659660">
        <ele>874.4</ele>
        <time>2021-10-14T09:22:54Z</time>
      </trkpt>
      <trkpt lat="41.3119760" lon="-5.7660030">
        <ele>874.6</ele>
        <time>2021-10-14T09:22:56Z</time>
      </trkpt>
      <trkpt lat="41.3119380" lon="-5.7660490">
        <ele>874.8</ele>
        <time>2021-10-14T09:22:58Z</time>
      </trkpt>
      <trkpt lat="41.3119110" lon="-5.7660890">
        <ele>875.0</ele>
        <time>2021-10-14T09:23:00Z</time>
      </trkpt>
      <trkpt lat="41.3118780" lon="-5.7661270">
        <ele>875.2</ele>
        <time>2021-10-14T09:23:02Z</time>
      </trkpt>
      <trkpt lat="41.3118430" lon="-5.7661620">
        <ele>875.2</ele>
        <time>2021-10-14T09:23:04Z</time>
      </trkpt>
      <trkpt lat="41.3118000" lon="-5.7662010">
        <ele>875.4</ele>
        <time>2021-10-14T09:23:06Z</time>
      </trkpt>
      <trkpt lat="41.3117810" lon="-5.7662130">
        <ele>875.6</ele>
        <time>2021-10-14T09:23:07Z</time>
      </trkpt>
      <trkpt lat="41.3117010" lon="-5.7662670">
        <ele>876.0</ele>
        <time>2021-10-14T09:23:11Z</time>
      </trkpt>
      <trkpt lat="41.3116590" lon="-5.7662920">
        <ele>876.4</ele>
        <time>2021-10-14T09:23:13Z</time>
      </trkpt>
      <trkpt lat="41.3116420" lon="-5.7663020">
        <ele>876.6</ele>
        <time>2021-10-14T09:23:14Z</time>
      </trkpt>
      <trkpt lat="41.3115290" lon="-5.7663560">
        <ele>877.4</ele>
        <time>2021-10-14T09:23:19Z</time>
      </trkpt>
      <trkpt lat="41.3114810" lon="-5.7663820">
        <ele>877.6</ele>
        <time>2021-10-14T09:23:21Z</time>
      </trkpt>
      <trkpt lat="41.3114410" lon="-5.7664020">
        <ele>877.8</ele>
        <time>2021-10-14T09:23:23Z</time>
      </trkpt>
      <trkpt lat="41.3113580" lon="-5.7664510">
        <ele>878.0</ele>
        <time>2021-10-14T09:23:27Z</time>
      </trkpt>
      <trkpt lat="41.3111630" lon="-5.7665340">
        <ele>878.0</ele>
        <time>2021-10-14T09:23:35Z</time>
      </trkpt>
      <trkpt lat="41.3111150" lon="-5.7665540">
        <ele>878.2</ele>
        <time>2021-10-14T09:23:37Z</time>
      </trkpt>
      <trkpt lat="41.3108730" lon="-5.7666750">
        <ele>878.4</ele>
        <time>2021-10-14T09:23:46Z</time>
      </trkpt>
      <trkpt lat="41.3108420" lon="-5.7666900">
        <ele>878.4</ele>
        <time>2021-10-14T09:23:47Z</time>
      </trkpt>
      <trkpt lat="41.3107200" lon="-5.7667590">
        <ele>878.2</ele>
        <time>2021-10-14T09:23:51Z</time>
      </trkpt>
      <trkpt lat="41.3106450" lon="-5.7668020">
        <ele>878.2</ele>
        <time>2021-10-14T09:23:53Z</time>
      </trkpt>
      <trkpt lat="41.3104550" lon="-5.7669000">
        <ele>877.6</ele>
        <time>2021-10-14T09:23:58Z</time>
      </trkpt>
      <trkpt lat="41.3104010" lon="-5.7669110">
        <ele>877.4</ele>
        <time>2021-10-14T09:23:59Z</time>
      </trkpt>
      <trkpt lat="41.3103540" lon="-5.7669120">
        <ele>877.4</ele>
        <time>2021-10-14T09:24:00Z</time>
      </trkpt>
      <trkpt lat="41.3101720" lon="-5.7668630">
        <ele>877.2</ele>
        <time>2021-10-14T09:24:04Z</time>
      </trkpt>
      <trkpt lat="41.3099760" lon="-5.7667800">
        <ele>877.0</ele>
        <time>2021-10-14T09:24:10Z</time>
      </trkpt>
      <trkpt lat="41.3098460" lon="-5.7666960">
        <ele>877.8</ele>
        <time>2021-10-14T09:24:16Z</time>
      </trkpt>
      <trkpt lat="41.3097290" lon="-5.7665490">
        <ele>878.6</ele>
        <time>2021-10-14T09:24:23Z</time>
      </trkpt>
      <trkpt lat="41.3097180" lon="-5.7665340">
        <ele>878.6</ele>
        <time>2021-10-14T09:24:24Z</time>
      </trkpt>
      <trkpt lat="41.3097030" lon="-5.7665160">
        <ele>879.0</ele>
        <time>2021-10-14T09:24:25Z</time>
      </trkpt>
      <trkpt lat="41.3096250" lon="-5.7664170">
        <ele>880.2</ele>
        <time>2021-10-14T09:24:30Z</time>
      </trkpt>
      <trkpt lat="41.3096100" lon="-5.7663950">
        <ele>880.2</ele>
        <time>2021-10-14T09:24:31Z</time>
      </trkpt>
      <trkpt lat="41.3095990" lon="-5.7663700">
        <ele>880.4</ele>
        <time>2021-10-14T09:24:32Z</time>
      </trkpt>
      <trkpt lat="41.3095400" lon="-5.7662780">
        <ele>880.8</ele>
        <time>2021-10-14T09:24:36Z</time>
      </trkpt>
      <trkpt lat="41.3094960" lon="-5.7662160">
        <ele>881.0</ele>
        <time>2021-10-14T09:24:39Z</time>
      </trkpt>
      <trkpt lat="41.3094770" lon="-5.7661960">
        <ele>881.2</ele>
        <time>2021-10-14T09:24:40Z</time>
      </trkpt>
      <trkpt lat="41.3094060" lon="-5.7661110">
        <ele>881.4</ele>
        <time>2021-10-14T09:24:44Z</time>
      </trkpt>
      <trkpt lat="41.3093910" lon="-5.7660890">
        <ele>881.6</ele>
        <time>2021-10-14T09:24:45Z</time>
      </trkpt>
      <trkpt lat="41.3093660" lon="-5.7660530">
        <ele>881.6</ele>
        <time>2021-10-14T09:24:47Z</time>
      </trkpt>
      <trkpt lat="41.3093350" lon="-5.7660130">
        <ele>881.8</ele>
        <time>2021-10-14T09:24:49Z</time>
      </trkpt>
      <trkpt lat="41.3092340" lon="-5.7658880">
        <ele>882.2</ele>
        <time>2021-10-14T09:24:55Z</time>
      </trkpt>
      <trkpt lat="41.3091510" lon="-5.7657790">
        <ele>882.6</ele>
        <time>2021-10-14T09:25:00Z</time>
      </trkpt>
      <trkpt lat="41.3090080" lon="-5.7655850">
        <ele>883.0</ele>
        <time>2021-10-14T09:25:09Z</time>
      </trkpt>
      <trkpt lat="41.3089770" lon="-5.7655490">
        <ele>883.2</ele>
        <time>2021-10-14T09:25:11Z</time>
      </trkpt>
      <trkpt lat="41.3089620" lon="-5.7655250">
        <ele>883.2</ele>
        <time>2021-10-14T09:25:12Z</time>
      </trkpt>
      <trkpt lat="41.3089130" lon="-5.7654610">
        <ele>883.4</ele>
        <time>2021-10-14T09:25:15Z</time>
      </trkpt>
      <trkpt lat="41.3088190" lon="-5.7653320">
        <ele>883.6</ele>
        <time>2021-10-14T09:25:21Z</time>
      </trkpt>
      <trkpt lat="41.3087430" lon="-5.7652120">
        <ele>884.0</ele>
        <time>2021-10-14T09:25:26Z</time>
      </trkpt>
      <trkpt lat="41.3086960" lon="-5.7651510">
        <ele>884.2</ele>
        <time>2021-10-14T09:25:29Z</time>
      </trkpt>
      <trkpt lat="41.3086320" lon="-5.7650720">
        <ele>884.6</ele>
        <time>2021-10-14T09:25:33Z</time>
      </trkpt>
      <trkpt lat="41.3085430" lon="-5.7649420">
        <ele>885.0</ele>
        <time>2021-10-14T09:25:40Z</time>
      </trkpt>
      <trkpt lat="41.3085310" lon="-5.7649290">
        <ele>885.0</ele>
        <time>2021-10-14T09:25:43Z</time>
      </trkpt>
      <trkpt lat="41.3085310" lon="-5.7649290">
        <ele>885.0</ele>
        <time>2021-10-14T09:25:44Z</time>
      </trkpt>
      <trkpt lat="41.3084900" lon="-5.7648850">
        <ele>885.0</ele>
        <time>2021-10-14T09:27:52Z</time>
      </trkpt>
      <trkpt lat="41.3084750" lon="-5.7648650">
        <ele>885.0</ele>
        <time>2021-10-14T09:27:53Z</time>
      </trkpt>
      <trkpt lat="41.3084010" lon="-5.7647690">
        <ele>885.0</ele>
        <time>2021-10-14T09:27:58Z</time>
      </trkpt>
      <trkpt lat="41.3083600" lon="-5.7647130">
        <ele>885.0</ele>
        <time>2021-10-14T09:28:01Z</time>
      </trkpt>
      <trkpt lat="41.3082690" lon="-5.7645860">
        <ele>885.0</ele>
        <time>2021-10-14T09:28:06Z</time>
      </trkpt>
      <trkpt lat="41.3081840" lon="-5.7644700">
        <ele>885.0</ele>
        <time>2021-10-14T09:28:10Z</time>
      </trkpt>
      <trkpt lat="41.3081110" lon="-5.7643640">
        <ele>884.8</ele>
        <time>2021-10-14T09:28:13Z</time>
      </trkpt>
      <trkpt lat="41.3080830" lon="-5.7643250">
        <ele>884.8</ele>
        <time>2021-10-14T09:28:14Z</time>
      </trkpt>
      <trkpt lat="41.3079910" lon="-5.7642100">
        <ele>884.6</ele>
        <time>2021-10-14T09:28:17Z</time>
      </trkpt>
      <trkpt lat="41.3078950" lon="-5.7640880">
        <ele>884.4</ele>
        <time>2021-10-14T09:28:20Z</time>
      </trkpt>
      <trkpt lat="41.3077150" lon="-5.7638430">
        <ele>883.4</ele>
        <time>2021-10-14T09:28:25Z</time>
      </trkpt>
      <trkpt lat="41.3076470" lon="-5.7637460">
        <ele>883.4</ele>
        <time>2021-10-14T09:28:27Z</time>
      </trkpt>
      <trkpt lat="41.3076180" lon="-5.7637080">
        <ele>883.2</ele>
        <time>2021-10-14T09:28:28Z</time>
      </trkpt>
      <trkpt lat="41.3072820" lon="-5.7632450">
        <ele>882.4</ele>
        <time>2021-10-14T09:28:37Z</time>
      </trkpt>
      <trkpt lat="41.3071940" lon="-5.7631250">
        <ele>882.0</ele>
        <time>2021-10-14T09:28:39Z</time>
      </trkpt>
      <trkpt lat="41.3069590" lon="-5.7627990">
        <ele>881.4</ele>
        <time>2021-10-14T09:28:45Z</time>
      </trkpt>
      <trkpt lat="41.3067430" lon="-5.7625070">
        <ele>881.0</ele>
        <time>2021-10-14T09:28:51Z</time>
      </trkpt>
      <trkpt lat="41.3065930" lon="-5.7623050">
        <ele>881.2</ele>
        <time>2021-10-14T09:28:55Z</time>
      </trkpt>
      <trkpt lat="41.3065070" lon="-5.7621870">
        <ele>880.6</ele>
        <time>2021-10-14T09:28:57Z</time>
      </trkpt>
      <trkpt lat="41.3064360" lon="-5.7620910">
        <ele>880.6</ele>
        <time>2021-10-14T09:28:59Z</time>
      </trkpt>
      <trkpt lat="41.3062740" lon="-5.7618630">
        <ele>879.8</ele>
        <time>2021-10-14T09:29:03Z</time>
      </trkpt>
      <trkpt lat="41.3060860" lon="-5.7616130">
        <ele>879.4</ele>
        <time>2021-10-14T09:29:08Z</time>
      </trkpt>
      <trkpt lat="41.3060510" lon="-5.7615600">
        <ele>879.4</ele>
        <time>2021-10-14T09:29:09Z</time>
      </trkpt>
      <trkpt lat="41.3059390" lon="-5.7614060">
        <ele>878.6</ele>
        <time>2021-10-14T09:29:12Z</time>
      </trkpt>
      <trkpt lat="41.3057010" lon="-5.7610890">
        <ele>878.0</ele>
        <time>2021-10-14T09:29:18Z</time>
      </trkpt>
      <trkpt lat="41.3056280" lon="-5.7609870">
        <ele>877.6</ele>
        <time>2021-10-14T09:29:20Z</time>
      </trkpt>
      <trkpt lat="41.3053320" lon="-5.7605850">
        <ele>876.8</ele>
        <time>2021-10-14T09:29:27Z</time>
      </trkpt>
      <trkpt lat="41.3052570" lon="-5.7604850">
        <ele>876.6</ele>
        <time>2021-10-14T09:29:29Z</time>
      </trkpt>
      <trkpt lat="41.3050960" lon="-5.7602650">
        <ele>876.2</ele>
        <time>2021-10-14T09:29:33Z</time>
      </trkpt>
      <trkpt lat="41.3049800" lon="-5.7601190">
        <ele>875.8</ele>
        <time>2021-10-14T09:29:36Z</time>
      </trkpt>
      <trkpt lat="41.3049090" lon="-5.7600190">
        <ele>875.6</ele>
        <time>2021-10-14T09:29:38Z</time>
      </trkpt>
      <trkpt lat="41.3047960" lon="-5.7598470">
        <ele>875.2</ele>
        <time>2021-10-14T09:29:41Z</time>
      </trkpt>
      <trkpt lat="41.3045820" lon="-5.7595480">
        <ele>875.0</ele>
        <time>2021-10-14T09:29:47Z</time>
      </trkpt>
      <trkpt lat="41.3045460" lon="-5.7595000">
        <ele>875.0</ele>
        <time>2021-10-14T09:29:48Z</time>
      </trkpt>
      <trkpt lat="41.3045010" lon="-5.7594480">
        <ele>875.0</ele>
        <time>2021-10-14T09:29:49Z</time>
      </trkpt>
      <trkpt lat="41.3042670" lon="-5.7591310">
        <ele>875.0</ele>
        <time>2021-10-14T09:29:56Z</time>
      </trkpt>
      <trkpt lat="41.3040390" lon="-5.7588180">
        <ele>874.8</ele>
        <time>2021-10-14T09:30:03Z</time>
      </trkpt>
      <trkpt lat="41.3039780" lon="-5.7587420">
        <ele>874.8</ele>
        <time>2021-10-14T09:30:05Z</time>
      </trkpt>
      <trkpt lat="41.3035620" lon="-5.7581770">
        <ele>875.0</ele>
        <time>2021-10-14T09:30:17Z</time>
      </trkpt>
      <trkpt lat="41.3034990" lon="-5.7580840">
        <ele>874.6</ele>
        <time>2021-10-14T09:30:19Z</time>
      </trkpt>
      <trkpt lat="41.3034220" lon="-5.7579830">
        <ele>874.4</ele>
        <time>2021-10-14T09:30:21Z</time>
      </trkpt>
      <trkpt lat="41.3032980" lon="-5.7578150">
        <ele>874.0</ele>
        <time>2021-10-14T09:30:24Z</time>
      </trkpt>
      <trkpt lat="41.3032230" lon="-5.7577210">
        <ele>873.6</ele>
        <time>2021-10-14T09:30:26Z</time>
      </trkpt>
      <trkpt lat="41.3031320" lon="-5.7576080">
        <ele>873.2</ele>
        <time>2021-10-14T09:30:28Z</time>
      </trkpt>
      <trkpt lat="41.3029610" lon="-5.7573480">
        <ele>872.8</ele>
        <time>2021-10-14T09:30:33Z</time>
      </trkpt>
      <trkpt lat="41.3029060" lon="-5.7572660">
        <ele>872.4</ele>
        <time>2021-10-14T09:30:35Z</time>
      </trkpt>
      <trkpt lat="41.3028740" lon="-5.7572110">
        <ele>872.2</ele>
        <time>2021-10-14T09:30:36Z</time>
      </trkpt>
      <trkpt lat="41.3028230" lon="-5.7571320">
        <ele>872.0</ele>
        <time>2021-10-14T09:30:38Z</time>
      </trkpt>
      <trkpt lat="41.3027910" lon="-5.7570890">
        <ele>872.0</ele>
        <time>2021-10-14T09:30:39Z</time>
      </trkpt>
      <trkpt lat="41.3025320" lon="-5.7566670">
        <ele>871.8</ele>
        <time>2021-10-14T09:30:47Z</time>
      </trkpt>
      <trkpt lat="41.3022970" lon="-5.7562580">
        <ele>871.4</ele>
        <time>2021-10-14T09:30:54Z</time>
      </trkpt>
      <trkpt lat="41.3022560" lon="-5.7562020">
        <ele>871.4</ele>
        <time>2021-10-14T09:30:55Z</time>
      </trkpt>
      <trkpt lat="41.3022100" lon="-5.7561340">
        <ele>871.0</ele>
        <time>2021-10-14T09:30:56Z</time>
      </trkpt>
      <trkpt lat="41.3020350" lon="-5.7558500">
        <ele>870.2</ele>
        <time>2021-10-14T09:31:01Z</time>
      </trkpt>
      <trkpt lat="41.3020010" lon="-5.7557890">
        <ele>870.0</ele>
        <time>2021-10-14T09:31:02Z</time>
      </trkpt>
      <trkpt lat="41.3019760" lon="-5.7557380">
        <ele>870.0</ele>
        <time>2021-10-14T09:31:03Z</time>
      </trkpt>
      <trkpt lat="41.3018720" lon="-5.7555500">
        <ele>869.6</ele>
        <time>2021-10-14T09:31:06Z</time>
      </trkpt>
      <trkpt lat="41.3017650" lon="-5.7553770">
        <ele>869.2</ele>
        <time>2021-10-14T09:31:09Z</time>
      </trkpt>
      <trkpt lat="41.3015250" lon="-5.7549660">
        <ele>869.0</ele>
        <time>2021-10-14T09:31:17Z</time>
      </trkpt>
      <trkpt lat="41.3013830" lon="-5.7547360">
        <ele>869.2</ele>
        <time>2021-10-14T09:31:22Z</time>
      </trkpt>
      <trkpt lat="41.3012890" lon="-5.7545860">
        <ele>869.4</ele>
        <time>2021-10-14T09:31:25Z</time>
      </trkpt>
      <trkpt lat="41.3011980" lon="-5.7544050">
        <ele>869.4</ele>
        <time>2021-10-14T09:31:29Z</time>
      </trkpt>
      <trkpt lat="41.3011860" lon="-5.7543730">
        <ele>869.2</ele>
        <time>2021-10-14T09:31:31Z</time>
      </trkpt>
      <trkpt lat="41.3011860" lon="-5.7543730">
        <ele>869.2</ele>
        <time>2021-10-14T09:31:33Z</time>
      </trkpt>
      <trkpt lat="41.3011550" lon="-5.7543340">
        <ele>869.0</ele>
        <time>2021-10-14T09:31:52Z</time>
      </trkpt>
      <trkpt lat="41.3011020" lon="-5.7542620">
        <ele>869.2</ele>
        <time>2021-10-14T09:31:55Z</time>
      </trkpt>
      <trkpt lat="41.3010610" lon="-5.7541970">
        <ele>869.2</ele>
        <time>2021-10-14T09:31:57Z</time>
      </trkpt>
      <trkpt lat="41.3008970" lon="-5.7539070">
        <ele>869.2</ele>
        <time>2021-10-14T09:32:04Z</time>
      </trkpt>
      <trkpt lat="41.3007740" lon="-5.7536970">
        <ele>869.0</ele>
        <time>2021-10-14T09:32:08Z</time>
      </trkpt>
      <trkpt lat="41.3006670" lon="-5.7535110">
        <ele>868.8</ele>
        <time>2021-10-14T09:32:11Z</time>
      </trkpt>
      <trkpt lat="41.3005330" lon="-5.7532770">
        <ele>868.6</ele>
        <time>2021-10-14T09:32:15Z</time>
      </trkpt>
      <trkpt lat="41.3004590" lon="-5.7531560">
        <ele>868.4</ele>
        <time>2021-10-14T09:32:17Z</time>
      </trkpt>
      <trkpt lat="41.3004250" lon="-5.7530940">
        <ele>868.2</ele>
        <time>2021-10-14T09:32:18Z</time>
      </trkpt>
      <trkpt lat="41.3003520" lon="-5.7529760">
        <ele>868.0</ele>
        <time>2021-10-14T09:32:20Z</time>
      </trkpt>
      <trkpt lat="41.3002450" lon="-5.7527970">
        <ele>867.8</ele>
        <time>2021-10-14T09:32:23Z</time>
      </trkpt>
      <trkpt lat="41.2999460" lon="-5.7523440">
        <ele>867.6</ele>
        <time>2021-10-14T09:32:31Z</time>
      </trkpt>
      <trkpt lat="41.2999140" lon="-5.7522810">
        <ele>867.6</ele>
        <time>2021-10-14T09:32:32Z</time>
      </trkpt>
      <trkpt lat="41.2998780" lon="-5.7522030">
        <ele>867.6</ele>
        <time>2021-10-14T09:32:33Z</time>
      </trkpt>
      <trkpt lat="41.2997460" lon="-5.7519860">
        <ele>867.4</ele>
        <time>2021-10-14T09:32:37Z</time>
      </trkpt>
      <trkpt lat="41.2997120" lon="-5.7519330">
        <ele>867.4</ele>
        <time>2021-10-14T09:32:38Z</time>
      </trkpt>
      <trkpt lat="41.2996420" lon="-5.7518120">
        <ele>867.2</ele>
        <time>2021-10-14T09:32:40Z</time>
      </trkpt>
      <trkpt lat="41.2995170" lon="-5.7516050">
        <ele>867.2</ele>
        <time>2021-10-14T09:32:44Z</time>
      </trkpt>
      <trkpt lat="41.2994820" lon="-5.7515520">
        <ele>867.2</ele>
        <time>2021-10-14T09:32:45Z</time>
      </trkpt>
      <trkpt lat="41.2993230" lon="-5.7512850">
        <ele>867.2</ele>
        <time>2021-10-14T09:32:50Z</time>
      </trkpt>
      <trkpt lat="41.2991590" lon="-5.7510140">
        <ele>867.0</ele>
        <time>2021-10-14T09:32:55Z</time>
      </trkpt>
      <trkpt lat="41.2991200" lon="-5.7509500">
        <ele>867.0</ele>
        <time>2021-10-14T09:32:56Z</time>
      </trkpt>
      <trkpt lat="41.2989950" lon="-5.7507460">
        <ele>866.8</ele>
        <time>2021-10-14T09:33:00Z</time>
      </trkpt>
      <trkpt lat="41.2989300" lon="-5.7506380">
        <ele>866.8</ele>
        <time>2021-10-14T09:33:02Z</time>
      </trkpt>
      <trkpt lat="41.2988350" lon="-5.7504760">
        <ele>866.8</ele>
        <time>2021-10-14T09:33:05Z</time>
      </trkpt>
      <trkpt lat="41.2987640" lon="-5.7503570">
        <ele>866.6</ele>
        <time>2021-10-14T09:33:07Z</time>
      </trkpt>
      <trkpt lat="41.2985500" lon="-5.7499850">
        <ele>866.4</ele>
        <time>2021-10-14T09:33:14Z</time>
      </trkpt>
      <trkpt lat="41.2984460" lon="-5.7498220">
        <ele>866.4</ele>
        <time>2021-10-14T09:33:17Z</time>
      </trkpt>
      <trkpt lat="41.2983000" lon="-5.7495760">
        <ele>866.2</ele>
        <time>2021-10-14T09:33:22Z</time>
      </trkpt>
      <trkpt lat="41.2982090" lon="-5.7494240">
        <ele>866.0</ele>
        <time>2021-10-14T09:33:25Z</time>
      </trkpt>
      <trkpt lat="41.2980580" lon="-5.7491670">
        <ele>866.0</ele>
        <time>2021-10-14T09:33:30Z</time>
      </trkpt>
      <trkpt lat="41.2979680" lon="-5.7490150">
        <ele>866.0</ele>
        <time>2021-10-14T09:33:33Z</time>
      </trkpt>
      <trkpt lat="41.2979390" lon="-5.7489630">
        <ele>866.0</ele>
        <time>2021-10-14T09:33:34Z</time>
      </trkpt>
      <trkpt lat="41.2978150" lon="-5.7487590">
        <ele>866.0</ele>
        <time>2021-10-14T09:33:38Z</time>
      </trkpt>
      <trkpt lat="41.2975530" lon="-5.7483240">
        <ele>865.8</ele>
        <time>2021-10-14T09:33:46Z</time>
      </trkpt>
      <trkpt lat="41.2974470" lon="-5.7481450">
        <ele>865.6</ele>
        <time>2021-10-14T09:33:49Z</time>
      </trkpt>
      <trkpt lat="41.2973490" lon="-5.7479800">
        <ele>865.2</ele>
        <time>2021-10-14T09:33:52Z</time>
      </trkpt>
      <trkpt lat="41.2972730" lon="-5.7478500">
        <ele>865.0</ele>
        <time>2021-10-14T09:33:54Z</time>
      </trkpt>
      <trkpt lat="41.2972130" lon="-5.7477400">
        <ele>864.8</ele>
        <time>2021-10-14T09:33:56Z</time>
      </trkpt>
      <trkpt lat="41.2971670" lon="-5.7476730">
        <ele>864.8</ele>
        <time>2021-10-14T09:33:57Z</time>
      </trkpt>
      <trkpt lat="41.2970580" lon="-5.7475270">
        <ele>864.8</ele>
        <time>2021-10-14T09:34:00Z</time>
      </trkpt>
      <trkpt lat="41.2970260" lon="-5.7474680">
        <ele>864.8</ele>
        <time>2021-10-14T09:34:01Z</time>
      </trkpt>
      <trkpt lat="41.2969050" lon="-5.7472210">
        <ele>864.4</ele>
        <time>2021-10-14T09:34:05Z</time>
      </trkpt>
      <trkpt lat="41.2967920" lon="-5.7470380">
        <ele>864.0</ele>
        <time>2021-10-14T09:34:08Z</time>
      </trkpt>
      <trkpt lat="41.2967660" lon="-5.7469920">
        <ele>863.8</ele>
        <time>2021-10-14T09:34:09Z</time>
      </trkpt>
      <trkpt lat="41.2966420" lon="-5.7467740">
        <ele>863.6</ele>
        <time>2021-10-14T09:34:13Z</time>
      </trkpt>
      <trkpt lat="41.2964850" lon="-5.7465130">
        <ele>863.4</ele>
        <time>2021-10-14T09:34:18Z</time>
      </trkpt>
      <trkpt lat="41.2963290" lon="-5.7462460">
        <ele>863.0</ele>
        <time>2021-10-14T09:34:24Z</time>
      </trkpt>
      <trkpt lat="41.2963050" lon="-5.7462050">
        <ele>863.0</ele>
        <time>2021-10-14T09:34:25Z</time>
      </trkpt>
      <trkpt lat="41.2962300" lon="-5.7460810">
        <ele>862.8</ele>
        <time>2021-10-14T09:34:28Z</time>
      </trkpt>
      <trkpt lat="41.2962040" lon="-5.7460400">
        <ele>862.8</ele>
        <time>2021-10-14T09:34:29Z</time>
      </trkpt>
      <trkpt lat="41.2961180" lon="-5.7459150">
        <ele>862.6</ele>
        <time>2021-10-14T09:34:32Z</time>
      </trkpt>
      <trkpt lat="41.2960810" lon="-5.7457790">
        <ele>862.4</ele>
        <time>2021-10-14T09:34:35Z</time>
      </trkpt>
      <trkpt lat="41.2960930" lon="-5.7457190">
        <ele>862.4</ele>
        <time>2021-10-14T09:34:36Z</time>
      </trkpt>
      <trkpt lat="41.2962060" lon="-5.7455620">
        <ele>862.2</ele>
        <time>2021-10-14T09:34:40Z</time>
      </trkpt>
      <trkpt lat="41.2963340" lon="-5.7454170">
        <ele>861.6</ele>
        <time>2021-10-14T09:34:44Z</time>
      </trkpt>
      <trkpt lat="41.2964150" lon="-5.7453430">
        <ele>861.4</ele>
        <time>2021-10-14T09:34:46Z</time>
      </trkpt>
      <trkpt lat="41.2964470" lon="-5.7453250">
        <ele>861.4</ele>
        <time>2021-10-14T09:34:47Z</time>
      </trkpt>
      <trkpt lat="41.2965630" lon="-5.7452290">
        <ele>860.6</ele>
        <time>2021-10-14T09:34:51Z</time>
      </trkpt>
      <trkpt lat="41.2965690" lon="-5.7452080">
        <ele>860.6</ele>
        <time>2021-10-14T09:34:52Z</time>
      </trkpt>
      <trkpt lat="41.2965670" lon="-5.7451790">
        <ele>860.4</ele>
        <time>2021-10-14T09:34:53Z</time>
      </trkpt>
      <trkpt lat="41.2965320" lon="-5.7451320">
        <ele>860.2</ele>
        <time>2021-10-14T09:34:55Z</time>
      </trkpt>
      <trkpt lat="41.2964070" lon="-5.7450470">
        <ele>859.6</ele>
        <time>2021-10-14T09:35:01Z</time>
      </trkpt>
      <trkpt lat="41.2963800" lon="-5.7450330">
        <ele>859.6</ele>
        <time>2021-10-14T09:35:02Z</time>
      </trkpt>
      <trkpt lat="41.2962310" lon="-5.7450030">
        <ele>859.4</ele>
        <time>2021-10-14T09:35:07Z</time>
      </trkpt>
      <trkpt lat="41.2959490" lon="-5.7450030">
        <ele>859.4</ele>
        <time>2021-10-14T09:35:16Z</time>
      </trkpt>
      <trkpt lat="41.2958150" lon="-5.7449870">
        <ele>859.4</ele>
        <time>2021-10-14T09:35:21Z</time>
      </trkpt>
      <trkpt lat="41.2958120" lon="-5.7449880">
        <ele>859.4</ele>
        <time>2021-10-14T09:35:22Z</time>
      </trkpt>
      <trkpt lat="41.2958120" lon="-5.7449880">
        <ele>859.4</ele>
        <time>2021-10-14T09:35:23Z</time>
      </trkpt>
      <trkpt lat="41.2957590" lon="-5.7449590">
        <ele>859.2</ele>
        <time>2021-10-14T09:35:59Z</time>
      </trkpt>
      <trkpt lat="41.2957180" lon="-5.7449510">
        <ele>859.2</ele>
        <time>2021-10-14T09:36:01Z</time>
      </trkpt>
      <trkpt lat="41.2955320" lon="-5.7448880">
        <ele>859.4</ele>
        <time>2021-10-14T09:36:07Z</time>
      </trkpt>
      <trkpt lat="41.2953730" lon="-5.7448400">
        <ele>859.6</ele>
        <time>2021-10-14T09:36:11Z</time>
      </trkpt>
      <trkpt lat="41.2953380" lon="-5.7448250">
        <ele>859.6</ele>
        <time>2021-10-14T09:36:12Z</time>
      </trkpt>
      <trkpt lat="41.2950560" lon="-5.7446910">
        <ele>859.4</ele>
        <time>2021-10-14T09:36:18Z</time>
      </trkpt>
      <trkpt lat="41.2946340" lon="-5.7444360">
        <ele>858.8</ele>
        <time>2021-10-14T09:36:27Z</time>
      </trkpt>
      <trkpt lat="41.2944090" lon="-5.7443000">
        <ele>858.6</ele>
        <time>2021-10-14T09:36:32Z</time>
      </trkpt>
      <trkpt lat="41.2942970" lon="-5.7441950">
        <ele>858.4</ele>
        <time>2021-10-14T09:36:35Z</time>
      </trkpt>
      <trkpt lat="41.2941000" lon="-5.7440130">
        <ele>858.6</ele>
        <time>2021-10-14T09:36:40Z</time>
      </trkpt>
      <trkpt lat="41.2938670" lon="-5.7437970">
        <ele>858.6</ele>
        <time>2021-10-14T09:36:46Z</time>
      </trkpt>
      <trkpt lat="41.2935350" lon="-5.7435220">
        <ele>859.0</ele>
        <time>2021-10-14T09:36:55Z</time>
      </trkpt>
      <trkpt lat="41.2934510" lon="-5.7434650">
        <ele>859.0</ele>
        <time>2021-10-14T09:36:57Z</time>
      </trkpt>
      <trkpt lat="41.2933210" lon="-5.7433290">
        <ele>859.0</ele>
        <time>2021-10-14T09:37:01Z</time>
      </trkpt>
      <trkpt lat="41.2932960" lon="-5.7432870">
        <ele>859.0</ele>
        <time>2021-10-14T09:37:02Z</time>
      </trkpt>
      <trkpt lat="41.2930280" lon="-5.7428990">
        <ele>859.2</ele>
        <time>2021-10-14T09:37:11Z</time>
      </trkpt>
      <trkpt lat="41.2929720" lon="-5.7428280">
        <ele>859.2</ele>
        <time>2021-10-14T09:37:13Z</time>
      </trkpt>
      <trkpt lat="41.2928310" lon="-5.7427130">
        <ele>859.4</ele>
        <time>2021-10-14T09:37:17Z</time>
      </trkpt>
      <trkpt lat="41.2927880" lon="-5.7426820">
        <ele>859.6</ele>
        <time>2021-10-14T09:37:18Z</time>
      </trkpt>
      <trkpt lat="41.2927530" lon="-5.7426600">
        <ele>859.8</ele>
        <time>2021-10-14T09:37:19Z</time>
      </trkpt>
      <trkpt lat="41.2926230" lon="-5.7425630">
        <ele>860.2</ele>
        <time>2021-10-14T09:37:23Z</time>
      </trkpt>
      <trkpt lat="41.2925900" lon="-5.7425370">
        <ele>860.2</ele>
        <time>2021-10-14T09:37:24Z</time>
      </trkpt>
      <trkpt lat="41.2924900" lon="-5.7424590">
        <ele>860.4</ele>
        <time>2021-10-14T09:37:27Z</time>
      </trkpt>
      <trkpt lat="41.2923210" lon="-5.7423010">
        <ele>860.6</ele>
        <time>2021-10-14T09:37:31Z</time>
      </trkpt>
      <trkpt lat="41.2922380" lon="-5.7422130">
        <ele>860.6</ele>
        <time>2021-10-14T09:37:33Z</time>
      </trkpt>
      <trkpt lat="41.2921220" lon="-5.7420980">
        <ele>860.4</ele>
        <time>2021-10-14T09:37:36Z</time>
      </trkpt>
      <trkpt lat="41.2920110" lon="-5.7419900">
        <ele>860.6</ele>
        <time>2021-10-14T09:37:39Z</time>
      </trkpt>
      <trkpt lat="41.2919810" lon="-5.7419600">
        <ele>860.6</ele>
        <time>2021-10-14T09:37:40Z</time>
      </trkpt>
      <trkpt lat="41.2919230" lon="-5.7418980">
        <ele>861.0</ele>
        <time>2021-10-14T09:37:42Z</time>
      </trkpt>
      <trkpt lat="41.2918450" lon="-5.7418110">
        <ele>861.8</ele>
        <time>2021-10-14T09:37:45Z</time>
      </trkpt>
      <trkpt lat="41.2917200" lon="-5.7416810">
        <ele>862.0</ele>
        <time>2021-10-14T09:37:49Z</time>
      </trkpt>
      <trkpt lat="41.2915700" lon="-5.7415190">
        <ele>862.4</ele>
        <time>2021-10-14T09:37:54Z</time>
      </trkpt>
      <trkpt lat="41.2914610" lon="-5.7414040">
        <ele>862.8</ele>
        <time>2021-10-14T09:37:57Z</time>
      </trkpt>
      <trkpt lat="41.2914260" lon="-5.7413660">
        <ele>862.8</ele>
        <time>2021-10-14T09:37:58Z</time>
      </trkpt>
      <trkpt lat="41.2913180" lon="-5.7412610">
        <ele>862.8</ele>
        <time>2021-10-14T09:38:01Z</time>
      </trkpt>
      <trkpt lat="41.2912090" lon="-5.7411550">
        <ele>862.8</ele>
        <time>2021-10-14T09:38:04Z</time>
      </trkpt>
      <trkpt lat="41.2910940" lon="-5.7410530">
        <ele>862.8</ele>
        <time>2021-10-14T09:38:07Z</time>
      </trkpt>
      <trkpt lat="41.2909790" lon="-5.7409550">
        <ele>863.0</ele>
        <time>2021-10-14T09:38:10Z</time>
      </trkpt>
      <trkpt lat="41.2907540" lon="-5.7407450">
        <ele>862.6</ele>
        <time>2021-10-14T09:38:16Z</time>
      </trkpt>
      <trkpt lat="41.2906700" lon="-5.7406630">
        <ele>862.6</ele>
        <time>2021-10-14T09:38:18Z</time>
      </trkpt>
      <trkpt lat="41.2903920" lon="-5.7403850">
        <ele>862.2</ele>
        <time>2021-10-14T09:38:25Z</time>
      </trkpt>
      <trkpt lat="41.2903140" lon="-5.7403030">
        <ele>862.2</ele>
        <time>2021-10-14T09:38:27Z</time>
      </trkpt>
      <trkpt lat="41.2902300" lon="-5.7402240">
        <ele>862.2</ele>
        <time>2021-10-14T09:38:29Z</time>
      </trkpt>
      <trkpt lat="41.2900530" lon="-5.7400670">
        <ele>861.8</ele>
        <time>2021-10-14T09:38:33Z</time>
      </trkpt>
      <trkpt lat="41.2898900" lon="-5.7399050">
        <ele>861.6</ele>
        <time>2021-10-14T09:38:37Z</time>
      </trkpt>
      <trkpt lat="41.2898490" lon="-5.7398600">
        <ele>861.4</ele>
        <time>2021-10-14T09:38:38Z</time>
      </trkpt>
      <trkpt lat="41.2896470" lon="-5.7396370">
        <ele>861.0</ele>
        <time>2021-10-14T09:38:43Z</time>
      </trkpt>
      <trkpt lat="41.2894430" lon="-5.7394470">
        <ele>860.8</ele>
        <time>2021-10-14T09:38:48Z</time>
      </trkpt>
      <trkpt lat="41.2891600" lon="-5.7391930">
        <ele>860.6</ele>
        <time>2021-10-14T09:38:54Z</time>
      </trkpt>
      <trkpt lat="41.2891170" lon="-5.7391450">
        <ele>860.4</ele>
        <time>2021-10-14T09:38:55Z</time>
      </trkpt>
      <trkpt lat="41.2889110" lon="-5.7389360">
        <ele>859.6</ele>
        <time>2021-10-14T09:38:59Z</time>
      </trkpt>
      <trkpt lat="41.2888680" lon="-5.7388850">
        <ele>859.4</ele>
        <time>2021-10-14T09:39:00Z</time>
      </trkpt>
      <trkpt lat="41.2888210" lon="-5.7388350">
        <ele>858.6</ele>
        <time>2021-10-14T09:39:01Z</time>
      </trkpt>
      <trkpt lat="41.2887620" lon="-5.7387780">
        <ele>858.2</ele>
        <time>2021-10-14T09:39:03Z</time>
      </trkpt>
      <trkpt lat="41.2887390" lon="-5.7387570">
        <ele>858.2</ele>
        <time>2021-10-14T09:39:05Z</time>
      </trkpt>
      <trkpt lat="41.2887390" lon="-5.7387570">
        <ele>858.2</ele>
        <time>2021-10-14T09:39:06Z</time>
      </trkpt>
      <trkpt lat="41.2887200" lon="-5.7387310">
        <ele>858.2</ele>
        <time>2021-10-14T09:40:10Z</time>
      </trkpt>
      <trkpt lat="41.2887030" lon="-5.7387110">
        <ele>858.2</ele>
        <time>2021-10-14T09:40:11Z</time>
      </trkpt>
      <trkpt lat="41.2886620" lon="-5.7386760">
        <ele>858.2</ele>
        <time>2021-10-14T09:40:13Z</time>
      </trkpt>
      <trkpt lat="41.2885970" lon="-5.7385950">
        <ele>858.6</ele>
        <time>2021-10-14T09:40:16Z</time>
      </trkpt>
      <trkpt lat="41.2885340" lon="-5.7385130">
        <ele>859.0</ele>
        <time>2021-10-14T09:40:19Z</time>
      </trkpt>
      <trkpt lat="41.2884250" lon="-5.7383800">
        <ele>859.0</ele>
        <time>2021-10-14T09:40:23Z</time>
      </trkpt>
      <trkpt lat="41.2883620" lon="-5.7383110">
        <ele>859.0</ele>
        <time>2021-10-14T09:40:25Z</time>
      </trkpt>
      <trkpt lat="41.2880910" lon="-5.7380160">
        <ele>858.6</ele>
        <time>2021-10-14T09:40:34Z</time>
      </trkpt>
      <trkpt lat="41.2877910" lon="-5.7377170">
        <ele>857.6</ele>
        <time>2021-10-14T09:40:42Z</time>
      </trkpt>
      <trkpt lat="41.2876220" lon="-5.7375550">
        <ele>857.2</ele>
        <time>2021-10-14T09:40:46Z</time>
      </trkpt>
      <trkpt lat="41.2875320" lon="-5.7374730">
        <ele>856.6</ele>
        <time>2021-10-14T09:40:48Z</time>
      </trkpt>
      <trkpt lat="41.2871520" lon="-5.7370970">
        <ele>856.2</ele>
        <time>2021-10-14T09:40:58Z</time>
      </trkpt>
      <trkpt lat="41.2869760" lon="-5.7368890">
        <ele>856.0</ele>
        <time>2021-10-14T09:41:03Z</time>
      </trkpt>
      <trkpt lat="41.2868280" lon="-5.7367040">
        <ele>855.6</ele>
        <time>2021-10-14T09:41:07Z</time>
      </trkpt>
      <trkpt lat="41.2866660" lon="-5.7365290">
        <ele>855.0</ele>
        <time>2021-10-14T09:41:11Z</time>
      </trkpt>
      <trkpt lat="41.2865000" lon="-5.7363810">
        <ele>854.6</ele>
        <time>2021-10-14T09:41:15Z</time>
      </trkpt>
      <trkpt lat="41.2862650" lon="-5.7361700">
        <ele>854.0</ele>
        <time>2021-10-14T09:41:20Z</time>
      </trkpt>
      <trkpt lat="41.2861570" lon="-5.7360640">
        <ele>853.6</ele>
        <time>2021-10-14T09:41:22Z</time>
      </trkpt>
      <trkpt lat="41.2861080" lon="-5.7360160">
        <ele>853.4</ele>
        <time>2021-10-14T09:41:23Z</time>
      </trkpt>
      <trkpt lat="41.2858330" lon="-5.7357250">
        <ele>852.6</ele>
        <time>2021-10-14T09:41:29Z</time>
      </trkpt>
      <trkpt lat="41.2857250" lon="-5.7356280">
        <ele>852.2</ele>
        <time>2021-10-14T09:41:31Z</time>
      </trkpt>
      <trkpt lat="41.2855750" lon="-5.7355120">
        <ele>851.4</ele>
        <time>2021-10-14T09:41:34Z</time>
      </trkpt>
      <trkpt lat="41.2853960" lon="-5.7353610">
        <ele>851.2</ele>
        <time>2021-10-14T09:41:38Z</time>
      </trkpt>
      <trkpt lat="41.2852570" lon="-5.7352410">
        <ele>851.0</ele>
        <time>2021-10-14T09:41:41Z</time>
      </trkpt>
      <trkpt lat="41.2851880" lon="-5.7351580">
        <ele>851.0</ele>
        <time>2021-10-14T09:41:43Z</time>
      </trkpt>
      <trkpt lat="41.2851410" lon="-5.7351060">
        <ele>851.0</ele>
        <time>2021-10-14T09:41:44Z</time>
      </trkpt>
      <trkpt lat="41.2849800" lon="-5.7349370">
        <ele>851.0</ele>
        <time>2021-10-14T09:41:48Z</time>
      </trkpt>
      <trkpt lat="41.2847300" lon="-5.7346770">
        <ele>851.2</ele>
        <time>2021-10-14T09:41:55Z</time>
      </trkpt>
      <trkpt lat="41.2847030" lon="-5.7346490">
        <ele>851.2</ele>
        <time>2021-10-14T09:41:56Z</time>
      </trkpt>
      <trkpt lat="41.2846280" lon="-5.7345750">
        <ele>851.4</ele>
        <time>2021-10-14T09:41:58Z</time>
      </trkpt>
      <trkpt lat="41.2844800" lon="-5.7344510">
        <ele>851.6</ele>
        <time>2021-10-14T09:42:02Z</time>
      </trkpt>
      <trkpt lat="41.2844420" lon="-5.7344120">
        <ele>851.6</ele>
        <time>2021-10-14T09:42:03Z</time>
      </trkpt>
      <trkpt lat="41.2843290" lon="-5.7342920">
        <ele>851.6</ele>
        <time>2021-10-14T09:42:06Z</time>
      </trkpt>
      <trkpt lat="41.2842520" lon="-5.7342070">
        <ele>851.6</ele>
        <time>2021-10-14T09:42:08Z</time>
      </trkpt>
      <trkpt lat="41.2842130" lon="-5.7341610">
        <ele>851.6</ele>
        <time>2021-10-14T09:42:09Z</time>
      </trkpt>
      <trkpt lat="41.2839530" lon="-5.7338370">
        <ele>851.4</ele>
        <time>2021-10-14T09:42:16Z</time>
      </trkpt>
      <trkpt lat="41.2836920" lon="-5.7335960">
        <ele>851.0</ele>
        <time>2021-10-14T09:42:22Z</time>
      </trkpt>
      <trkpt lat="41.2836480" lon="-5.7335550">
        <ele>851.0</ele>
        <time>2021-10-14T09:42:23Z</time>
      </trkpt>
      <trkpt lat="41.2835740" lon="-5.7334790">
        <ele>851.0</ele>
        <time>2021-10-14T09:42:25Z</time>
      </trkpt>
      <trkpt lat="41.2833660" lon="-5.7333010">
        <ele>851.2</ele>
        <time>2021-10-14T09:42:30Z</time>
      </trkpt>
      <trkpt lat="41.2832490" lon="-5.7332120">
        <ele>851.4</ele>
        <time>2021-10-14T09:42:33Z</time>
      </trkpt>
      <trkpt lat="41.2830290" lon="-5.7330250">
        <ele>851.4</ele>
        <time>2021-10-14T09:42:38Z</time>
      </trkpt>
      <trkpt lat="41.2829040" lon="-5.7329200">
        <ele>851.4</ele>
        <time>2021-10-14T09:42:41Z</time>
      </trkpt>
      <trkpt lat="41.2826720" lon="-5.7326930">
        <ele>851.4</ele>
        <time>2021-10-14T09:42:47Z</time>
      </trkpt>
      <trkpt lat="41.2825890" lon="-5.7325950">
        <ele>851.4</ele>
        <time>2021-10-14T09:42:49Z</time>
      </trkpt>
      <trkpt lat="41.2825100" lon="-5.7324990">
        <ele>851.4</ele>
        <time>2021-10-14T09:42:51Z</time>
      </trkpt>
      <trkpt lat="41.2824330" lon="-5.7324110">
        <ele>851.2</ele>
        <time>2021-10-14T09:42:53Z</time>
      </trkpt>
      <trkpt lat="41.2823340" lon="-5.7323120">
        <ele>851.2</ele>
        <time>2021-10-14T09:42:55Z</time>
      </trkpt>
      <trkpt lat="41.2822870" lon="-5.7322680">
        <ele>851.2</ele>
        <time>2021-10-14T09:42:56Z</time>
      </trkpt>
      <trkpt lat="41.2822510" lon="-5.7322340">
        <ele>850.8</ele>
        <time>2021-10-14T09:42:57Z</time>
      </trkpt>
      <trkpt lat="41.2822020" lon="-5.7321800">
        <ele>850.8</ele>
        <time>2021-10-14T09:42:58Z</time>
      </trkpt>
      <trkpt lat="41.2820980" lon="-5.7320300">
        <ele>850.4</ele>
        <time>2021-10-14T09:43:01Z</time>
      </trkpt>
      <trkpt lat="41.2820580" lon="-5.7319810">
        <ele>850.4</ele>
        <time>2021-10-14T09:43:02Z</time>
      </trkpt>
      <trkpt lat="41.2817860" lon="-5.7317370">
        <ele>850.2</ele>
        <time>2021-10-14T09:43:08Z</time>
      </trkpt>
      <trkpt lat="41.2817390" lon="-5.7317100">
        <ele>850.2</ele>
        <time>2021-10-14T09:43:09Z</time>
      </trkpt>
      <trkpt lat="41.2814930" lon="-5.7315130">
        <ele>850.4</ele>
        <time>2021-10-14T09:43:15Z</time>
      </trkpt>
      <trkpt lat="41.2813420" lon="-5.7313370">
        <ele>850.6</ele>
        <time>2021-10-14T09:43:19Z</time>
      </trkpt>
      <trkpt lat="41.2811810" lon="-5.7311940">
        <ele>850.6</ele>
        <time>2021-10-14T09:43:23Z</time>
      </trkpt>
      <trkpt lat="41.2810250" lon="-5.7310460">
        <ele>850.8</ele>
        <time>2021-10-14T09:43:27Z</time>
      </trkpt>
      <trkpt lat="41.2809680" lon="-5.7309640">
        <ele>850.8</ele>
        <time>2021-10-14T09:43:29Z</time>
      </trkpt>
      <trkpt lat="41.2808600" lon="-5.7308200">
        <ele>850.8</ele>
        <time>2021-10-14T09:43:32Z</time>
      </trkpt>
      <trkpt lat="41.2806880" lon="-5.7305730">
        <ele>850.8</ele>
        <time>2021-10-14T09:43:37Z</time>
      </trkpt>
      <trkpt lat="41.2806630" lon="-5.7305290">
        <ele>850.8</ele>
        <time>2021-10-14T09:43:38Z</time>
      </trkpt>
      <trkpt lat="41.2806350" lon="-5.7304720">
        <ele>850.6</ele>
        <time>2021-10-14T09:43:39Z</time>
      </trkpt>
      <trkpt lat="41.2805950" lon="-5.7304070">
        <ele>850.6</ele>
        <time>2021-10-14T09:43:40Z</time>
      </trkpt>
      <trkpt lat="41.2804350" lon="-5.7302470">
        <ele>850.6</ele>
        <time>2021-10-14T09:43:44Z</time>
      </trkpt>
      <trkpt lat="41.2803410" lon="-5.7301730">
        <ele>850.6</ele>
        <time>2021-10-14T09:43:46Z</time>
      </trkpt>
      <trkpt lat="41.2802010" lon="-5.7301020">
        <ele>850.6</ele>
        <time>2021-10-14T09:43:49Z</time>
      </trkpt>
      <trkpt lat="41.2801550" lon="-5.7300760">
        <ele>850.6</ele>
        <time>2021-10-14T09:43:50Z</time>
      </trkpt>
      <trkpt lat="41.2799550" lon="-5.7299060">
        <ele>850.6</ele>
        <time>2021-10-14T09:43:55Z</time>
      </trkpt>
      <trkpt lat="41.2799170" lon="-5.7298650">
        <ele>850.6</ele>
        <time>2021-10-14T09:43:56Z</time>
      </trkpt>
      <trkpt lat="41.2798180" lon="-5.7297220">
        <ele>850.8</ele>
        <time>2021-10-14T09:43:59Z</time>
      </trkpt>
      <trkpt lat="41.2797920" lon="-5.7296680">
        <ele>850.8</ele>
        <time>2021-10-14T09:44:00Z</time>
      </trkpt>
      <trkpt lat="41.2797620" lon="-5.7296150">
        <ele>850.8</ele>
        <time>2021-10-14T09:44:01Z</time>
      </trkpt>
      <trkpt lat="41.2796100" lon="-5.7294370">
        <ele>850.8</ele>
        <time>2021-10-14T09:44:05Z</time>
      </trkpt>
      <trkpt lat="41.2794830" lon="-5.7293130">
        <ele>850.8</ele>
        <time>2021-10-14T09:44:08Z</time>
      </trkpt>
      <trkpt lat="41.2793860" lon="-5.7292460">
        <ele>850.8</ele>
        <time>2021-10-14T09:44:10Z</time>
      </trkpt>
      <trkpt lat="41.2792920" lon="-5.7292010">
        <ele>850.8</ele>
        <time>2021-10-14T09:44:12Z</time>
      </trkpt>
      <trkpt lat="41.2791890" lon="-5.7291440">
        <ele>850.6</ele>
        <time>2021-10-14T09:44:14Z</time>
      </trkpt>
      <trkpt lat="41.2791320" lon="-5.7290630">
        <ele>850.4</ele>
        <time>2021-10-14T09:44:16Z</time>
      </trkpt>
      <trkpt lat="41.2789470" lon="-5.7288330">
        <ele>850.4</ele>
        <time>2021-10-14T09:44:21Z</time>
      </trkpt>
      <trkpt lat="41.2788600" lon="-5.7287450">
        <ele>850.4</ele>
        <time>2021-10-14T09:44:23Z</time>
      </trkpt>
      <trkpt lat="41.2788170" lon="-5.7287110">
        <ele>850.4</ele>
        <time>2021-10-14T09:44:24Z</time>
      </trkpt>
      <trkpt lat="41.2786880" lon="-5.7286210">
        <ele>850.6</ele>
        <time>2021-10-14T09:44:27Z</time>
      </trkpt>
      <trkpt lat="41.2786500" lon="-5.7285810">
        <ele>850.6</ele>
        <time>2021-10-14T09:44:28Z</time>
      </trkpt>
      <trkpt lat="41.2784180" lon="-5.7283280">
        <ele>850.8</ele>
        <time>2021-10-14T09:44:34Z</time>
      </trkpt>
      <trkpt lat="41.2783700" lon="-5.7282910">
        <ele>851.0</ele>
        <time>2021-10-14T09:44:35Z</time>
      </trkpt>
      <trkpt lat="41.2782000" lon="-5.7281770">
        <ele>851.0</ele>
        <time>2021-10-14T09:44:38Z</time>
      </trkpt>
      <trkpt lat="41.2781580" lon="-5.7281450">
        <ele>851.0</ele>
        <time>2021-10-14T09:44:39Z</time>
      </trkpt>
      <trkpt lat="41.2781080" lon="-5.7280970">
        <ele>851.0</ele>
        <time>2021-10-14T09:44:40Z</time>
      </trkpt>
      <trkpt lat="41.2779560" lon="-5.7279330">
        <ele>850.4</ele>
        <time>2021-10-14T09:44:43Z</time>
      </trkpt>
      <trkpt lat="41.2778670" lon="-5.7278370">
        <ele>849.8</ele>
        <time>2021-10-14T09:44:45Z</time>
      </trkpt>
      <trkpt lat="41.2777510" lon="-5.7277020">
        <ele>849.4</ele>
        <time>2021-10-14T09:44:48Z</time>
      </trkpt>
      <trkpt lat="41.2777100" lon="-5.7276490">
        <ele>849.4</ele>
        <time>2021-10-14T09:44:49Z</time>
      </trkpt>
      <trkpt lat="41.2775420" lon="-5.7274420">
        <ele>848.8</ele>
        <time>2021-10-14T09:44:53Z</time>
      </trkpt>
      <trkpt lat="41.2771380" lon="-5.7269660">
        <ele>848.4</ele>
        <time>2021-10-14T09:45:02Z</time>
      </trkpt>
      <trkpt lat="41.2770790" lon="-5.7269050">
        <ele>848.2</ele>
        <time>2021-10-14T09:45:03Z</time>
      </trkpt>
      <trkpt lat="41.2769250" lon="-5.7267600">
        <ele>847.8</ele>
        <time>2021-10-14T09:45:06Z</time>
      </trkpt>
      <trkpt lat="41.2767690" lon="-5.7266080">
        <ele>847.6</ele>
        <time>2021-10-14T09:45:09Z</time>
      </trkpt>
      <trkpt lat="41.2765500" lon="-5.7264130">
        <ele>847.2</ele>
        <time>2021-10-14T09:45:13Z</time>
      </trkpt>
      <trkpt lat="41.2763250" lon="-5.7262310">
        <ele>847.2</ele>
        <time>2021-10-14T09:45:17Z</time>
      </trkpt>
      <trkpt lat="41.2760980" lon="-5.7260550">
        <ele>847.0</ele>
        <time>2021-10-14T09:45:21Z</time>
      </trkpt>
      <trkpt lat="41.2758640" lon="-5.7258790">
        <ele>846.8</ele>
        <time>2021-10-14T09:45:25Z</time>
      </trkpt>
      <trkpt lat="41.2755060" lon="-5.7255310">
        <ele>846.2</ele>
        <time>2021-10-14T09:45:32Z</time>
      </trkpt>
      <trkpt lat="41.2753210" lon="-5.7253150">
        <ele>846.2</ele>
        <time>2021-10-14T09:45:36Z</time>
      </trkpt>
      <trkpt lat="41.2751960" lon="-5.7251630">
        <ele>846.2</ele>
        <time>2021-10-14T09:45:39Z</time>
      </trkpt>
      <trkpt lat="41.2751580" lon="-5.7251130">
        <ele>846.2</ele>
        <time>2021-10-14T09:45:40Z</time>
      </trkpt>
      <trkpt lat="41.2750910" lon="-5.7250010">
        <ele>846.4</ele>
        <time>2021-10-14T09:45:42Z</time>
      </trkpt>
      <trkpt lat="41.2750080" lon="-5.7249100">
        <ele>846.6</ele>
        <time>2021-10-14T09:45:44Z</time>
      </trkpt>
      <trkpt lat="41.2747100" lon="-5.7246230">
        <ele>847.0</ele>
        <time>2021-10-14T09:45:51Z</time>
      </trkpt>
      <trkpt lat="41.2744920" lon="-5.7243740">
        <ele>847.2</ele>
        <time>2021-10-14T09:45:57Z</time>
      </trkpt>
      <trkpt lat="41.2744520" lon="-5.7243320">
        <ele>847.2</ele>
        <time>2021-10-14T09:45:58Z</time>
      </trkpt>
      <trkpt lat="41.2743710" lon="-5.7242390">
        <ele>847.2</ele>
        <time>2021-10-14T09:46:00Z</time>
      </trkpt>
      <trkpt lat="41.2742420" lon="-5.7240880">
        <ele>847.2</ele>
        <time>2021-10-14T09:46:03Z</time>
      </trkpt>
      <trkpt lat="41.2741990" lon="-5.7240380">
        <ele>847.2</ele>
        <time>2021-10-14T09:46:04Z</time>
      </trkpt>
      <trkpt lat="41.2740670" lon="-5.7239050">
        <ele>846.8</ele>
        <time>2021-10-14T09:46:07Z</time>
      </trkpt>
      <trkpt lat="41.2739000" lon="-5.7237680">
        <ele>846.8</ele>
        <time>2021-10-14T09:46:11Z</time>
      </trkpt>
      <trkpt lat="41.2737810" lon="-5.7236850">
        <ele>846.8</ele>
        <time>2021-10-14T09:46:14Z</time>
      </trkpt>
      <trkpt lat="41.2736740" lon="-5.7235870">
        <ele>847.0</ele>
        <time>2021-10-14T09:46:17Z</time>
      </trkpt>
      <trkpt lat="41.2736360" lon="-5.7235590">
        <ele>847.0</ele>
        <time>2021-10-14T09:46:18Z</time>
      </trkpt>
      <trkpt lat="41.2735590" lon="-5.7235090">
        <ele>847.2</ele>
        <time>2021-10-14T09:46:20Z</time>
      </trkpt>
      <trkpt lat="41.2734890" lon="-5.7234390">
        <ele>847.4</ele>
        <time>2021-10-14T09:46:22Z</time>
      </trkpt>
      <trkpt lat="41.2734610" lon="-5.7233980">
        <ele>847.4</ele>
        <time>2021-10-14T09:46:23Z</time>
      </trkpt>
      <trkpt lat="41.2733640" lon="-5.7232180">
        <ele>847.6</ele>
        <time>2021-10-14T09:46:27Z</time>
      </trkpt>
      <trkpt lat="41.2733020" lon="-5.7231470">
        <ele>847.8</ele>
        <time>2021-10-14T09:46:29Z</time>
      </trkpt>
      <trkpt lat="41.2732620" lon="-5.7231130">
        <ele>847.8</ele>
        <time>2021-10-14T09:46:30Z</time>
      </trkpt>
      <trkpt lat="41.2731820" lon="-5.7230430">
        <ele>847.8</ele>
        <time>2021-10-14T09:46:32Z</time>
      </trkpt>
      <trkpt lat="41.2730800" lon="-5.7229140">
        <ele>847.6</ele>
        <time>2021-10-14T09:46:35Z</time>
      </trkpt>
      <trkpt lat="41.2729970" lon="-5.7228710">
        <ele>847.4</ele>
        <time>2021-10-14T09:46:37Z</time>
      </trkpt>
      <trkpt lat="41.2729300" lon="-5.7228030">
        <ele>847.4</ele>
        <time>2021-10-14T09:46:39Z</time>
      </trkpt>
      <trkpt lat="41.2728680" lon="-5.7227260">
        <ele>847.2</ele>
        <time>2021-10-14T09:46:41Z</time>
      </trkpt>
      <trkpt lat="41.2728010" lon="-5.7226430">
        <ele>847.0</ele>
        <time>2021-10-14T09:46:43Z</time>
      </trkpt>
      <trkpt lat="41.2727300" lon="-5.7225540">
        <ele>847.0</ele>
        <time>2021-10-14T09:46:45Z</time>
      </trkpt>
      <trkpt lat="41.2725810" lon="-5.7224070">
        <ele>847.2</ele>
        <time>2021-10-14T09:46:49Z</time>
      </trkpt>
      <trkpt lat="41.2725040" lon="-5.7223340">
        <ele>847.2</ele>
        <time>2021-10-14T09:46:51Z</time>
      </trkpt>
      <trkpt lat="41.2724380" lon="-5.7222510">
        <ele>847.2</ele>
        <time>2021-10-14T09:46:53Z</time>
      </trkpt>
      <trkpt lat="41.2724030" lon="-5.7222160">
        <ele>847.2</ele>
        <time>2021-10-14T09:46:54Z</time>
      </trkpt>
      <trkpt lat="41.2723660" lon="-5.7221880">
        <ele>847.4</ele>
        <time>2021-10-14T09:46:55Z</time>
      </trkpt>
      <trkpt lat="41.2722850" lon="-5.7221360">
        <ele>847.4</ele>
        <time>2021-10-14T09:46:57Z</time>
      </trkpt>
      <trkpt lat="41.2722050" lon="-5.7220680">
        <ele>847.6</ele>
        <time>2021-10-14T09:46:59Z</time>
      </trkpt>
      <trkpt lat="41.2721290" lon="-5.7219840">
        <ele>847.6</ele>
        <time>2021-10-14T09:47:01Z</time>
      </trkpt>
      <trkpt lat="41.2720560" lon="-5.7219070">
        <ele>847.6</ele>
        <time>2021-10-14T09:47:03Z</time>
      </trkpt>
      <trkpt lat="41.2719280" lon="-5.7218160">
        <ele>847.6</ele>
        <time>2021-10-14T09:47:06Z</time>
      </trkpt>
      <trkpt lat="41.2718830" lon="-5.7217940">
        <ele>847.6</ele>
        <time>2021-10-14T09:47:07Z</time>
      </trkpt>
      <trkpt lat="41.2718380" lon="-5.7217780">
        <ele>847.6</ele>
        <time>2021-10-14T09:47:08Z</time>
      </trkpt>
      <trkpt lat="41.2717590" lon="-5.7217280">
        <ele>847.8</ele>
        <time>2021-10-14T09:47:10Z</time>
      </trkpt>
      <trkpt lat="41.2717230" lon="-5.7216880">
        <ele>847.8</ele>
        <time>2021-10-14T09:47:11Z</time>
      </trkpt>
      <trkpt lat="41.2715520" lon="-5.7214520">
        <ele>848.2</ele>
        <time>2021-10-14T09:47:16Z</time>
      </trkpt>
      <trkpt lat="41.2715110" lon="-5.7214150">
        <ele>848.2</ele>
        <time>2021-10-14T09:47:17Z</time>
      </trkpt>
      <trkpt lat="41.2714750" lon="-5.7213770">
        <ele>848.2</ele>
        <time>2021-10-14T09:47:18Z</time>
      </trkpt>
      <trkpt lat="41.2713580" lon="-5.7212310">
        <ele>848.2</ele>
        <time>2021-10-14T09:47:22Z</time>
      </trkpt>
      <trkpt lat="41.2712950" lon="-5.7211700">
        <ele>848.0</ele>
        <time>2021-10-14T09:47:24Z</time>
      </trkpt>
      <trkpt lat="41.2712320" lon="-5.7210940">
        <ele>848.0</ele>
        <time>2021-10-14T09:47:26Z</time>
      </trkpt>
      <trkpt lat="41.2711970" lon="-5.7210590">
        <ele>847.8</ele>
        <time>2021-10-14T09:47:27Z</time>
      </trkpt>
      <trkpt lat="41.2711260" lon="-5.7209900">
        <ele>847.8</ele>
        <time>2021-10-14T09:47:29Z</time>
      </trkpt>
      <trkpt lat="41.2710540" lon="-5.7209130">
        <ele>847.6</ele>
        <time>2021-10-14T09:47:31Z</time>
      </trkpt>
      <trkpt lat="41.2710070" lon="-5.7208820">
        <ele>847.4</ele>
        <time>2021-10-14T09:47:32Z</time>
      </trkpt>
      <trkpt lat="41.2709560" lon="-5.7208590">
        <ele>847.4</ele>
        <time>2021-10-14T09:47:33Z</time>
      </trkpt>
      <trkpt lat="41.2708520" lon="-5.7208150">
        <ele>847.0</ele>
        <time>2021-10-14T09:47:35Z</time>
      </trkpt>
      <trkpt lat="41.2707530" lon="-5.7207390">
        <ele>847.0</ele>
        <time>2021-10-14T09:47:37Z</time>
      </trkpt>
      <trkpt lat="41.2706120" lon="-5.7205070">
        <ele>846.4</ele>
        <time>2021-10-14T09:47:41Z</time>
      </trkpt>
      <trkpt lat="41.2705870" lon="-5.7204510">
        <ele>846.2</ele>
        <time>2021-10-14T09:47:42Z</time>
      </trkpt>
      <trkpt lat="41.2705610" lon="-5.7203980">
        <ele>846.2</ele>
        <time>2021-10-14T09:47:43Z</time>
      </trkpt>
      <trkpt lat="41.2704860" lon="-5.7203180">
        <ele>846.0</ele>
        <time>2021-10-14T09:47:45Z</time>
      </trkpt>
      <trkpt lat="41.2704030" lon="-5.7202580">
        <ele>845.8</ele>
        <time>2021-10-14T09:47:47Z</time>
      </trkpt>
      <trkpt lat="41.2703160" lon="-5.7202200">
        <ele>845.6</ele>
        <time>2021-10-14T09:47:49Z</time>
      </trkpt>
      <trkpt lat="41.2701960" lon="-5.7201240">
        <ele>845.6</ele>
        <time>2021-10-14T09:47:52Z</time>
      </trkpt>
      <trkpt lat="41.2700980" lon="-5.7200340">
        <ele>845.6</ele>
        <time>2021-10-14T09:47:55Z</time>
      </trkpt>
      <trkpt lat="41.2698530" lon="-5.7198360">
        <ele>846.8</ele>
        <time>2021-10-14T09:48:02Z</time>
      </trkpt>
      <trkpt lat="41.2697730" lon="-5.7197760">
        <ele>846.8</ele>
        <time>2021-10-14T09:48:04Z</time>
      </trkpt>
      <trkpt lat="41.2697270" lon="-5.7196940">
        <ele>846.8</ele>
        <time>2021-10-14T09:48:06Z</time>
      </trkpt>
      <trkpt lat="41.2696970" lon="-5.7196070">
        <ele>846.8</ele>
        <time>2021-10-14T09:48:08Z</time>
      </trkpt>
      <trkpt lat="41.2696650" lon="-5.7195820">
        <ele>846.8</ele>
        <time>2021-10-14T09:48:09Z</time>
      </trkpt>
      <trkpt lat="41.2695520" lon="-5.7195130">
        <ele>846.4</ele>
        <time>2021-10-14T09:48:12Z</time>
      </trkpt>
      <trkpt lat="41.2694850" lon="-5.7194390">
        <ele>846.4</ele>
        <time>2021-10-14T09:48:14Z</time>
      </trkpt>
      <trkpt lat="41.2693830" lon="-5.7193260">
        <ele>846.4</ele>
        <time>2021-10-14T09:48:17Z</time>
      </trkpt>
      <trkpt lat="41.2693020" lon="-5.7192670">
        <ele>846.4</ele>
        <time>2021-10-14T09:48:19Z</time>
      </trkpt>
      <trkpt lat="41.2692570" lon="-5.7192420">
        <ele>846.4</ele>
        <time>2021-10-14T09:48:20Z</time>
      </trkpt>
      <trkpt lat="41.2690790" lon="-5.7191500">
        <ele>846.6</ele>
        <time>2021-10-14T09:48:24Z</time>
      </trkpt>
      <trkpt lat="41.2689930" lon="-5.7190780">
        <ele>846.8</ele>
        <time>2021-10-14T09:48:26Z</time>
      </trkpt>
      <trkpt lat="41.2689470" lon="-5.7190360">
        <ele>846.8</ele>
        <time>2021-10-14T09:48:27Z</time>
      </trkpt>
      <trkpt lat="41.2688350" lon="-5.7189750">
        <ele>846.8</ele>
        <time>2021-10-14T09:48:29Z</time>
      </trkpt>
      <trkpt lat="41.2687810" lon="-5.7189420">
        <ele>846.6</ele>
        <time>2021-10-14T09:48:30Z</time>
      </trkpt>
      <trkpt lat="41.2686710" lon="-5.7188810">
        <ele>846.4</ele>
        <time>2021-10-14T09:48:32Z</time>
      </trkpt>
      <trkpt lat="41.2685680" lon="-5.7188190">
        <ele>846.2</ele>
        <time>2021-10-14T09:48:34Z</time>
      </trkpt>
      <trkpt lat="41.2684660" lon="-5.7187610">
        <ele>846.2</ele>
        <time>2021-10-14T09:48:36Z</time>
      </trkpt>
      <trkpt lat="41.2681380" lon="-5.7185600">
        <ele>846.0</ele>
        <time>2021-10-14T09:48:43Z</time>
      </trkpt>
      <trkpt lat="41.2678170" lon="-5.7183580">
        <ele>846.2</ele>
        <time>2021-10-14T09:48:50Z</time>
      </trkpt>
      <trkpt lat="41.2677190" lon="-5.7183000">
        <ele>846.2</ele>
        <time>2021-10-14T09:48:52Z</time>
      </trkpt>
      <trkpt lat="41.2675660" lon="-5.7182050">
        <ele>846.0</ele>
        <time>2021-10-14T09:48:55Z</time>
      </trkpt>
      <trkpt lat="41.2673010" lon="-5.7180700">
        <ele>846.0</ele>
        <time>2021-10-14T09:49:00Z</time>
      </trkpt>
      <trkpt lat="41.2670220" lon="-5.7179520">
        <ele>845.8</ele>
        <time>2021-10-14T09:49:05Z</time>
      </trkpt>
      <trkpt lat="41.2669160" lon="-5.7179040">
        <ele>845.4</ele>
        <time>2021-10-14T09:49:07Z</time>
      </trkpt>
      <trkpt lat="41.2665280" lon="-5.7177470">
        <ele>845.2</ele>
        <time>2021-10-14T09:49:15Z</time>
      </trkpt>
      <trkpt lat="41.2662820" lon="-5.7176440">
        <ele>845.4</ele>
        <time>2021-10-14T09:49:20Z</time>
      </trkpt>
      <trkpt lat="41.2660260" lon="-5.7175300">
        <ele>845.4</ele>
        <time>2021-10-14T09:49:25Z</time>
      </trkpt>
      <trkpt lat="41.2658140" lon="-5.7174470">
        <ele>845.2</ele>
        <time>2021-10-14T09:49:29Z</time>
      </trkpt>
      <trkpt lat="41.2657580" lon="-5.7174260">
        <ele>845.0</ele>
        <time>2021-10-14T09:49:30Z</time>
      </trkpt>
      <trkpt lat="41.2656430" lon="-5.7173880">
        <ele>844.8</ele>
        <time>2021-10-14T09:49:32Z</time>
      </trkpt>
      <trkpt lat="41.2654670" lon="-5.7173330">
        <ele>844.6</ele>
        <time>2021-10-14T09:49:35Z</time>
      </trkpt>
      <trkpt lat="41.2648840" lon="-5.7171720">
        <ele>844.0</ele>
        <time>2021-10-14T09:49:45Z</time>
      </trkpt>
      <trkpt lat="41.2648270" lon="-5.7171550">
        <ele>843.8</ele>
        <time>2021-10-14T09:49:46Z</time>
      </trkpt>
      <trkpt lat="41.2646600" lon="-5.7171130">
        <ele>844.0</ele>
        <time>2021-10-14T09:49:49Z</time>
      </trkpt>
      <trkpt lat="41.2643340" lon="-5.7170230">
        <ele>843.4</ele>
        <time>2021-10-14T09:49:55Z</time>
      </trkpt>
      <trkpt lat="41.2642260" lon="-5.7169880">
        <ele>843.0</ele>
        <time>2021-10-14T09:49:57Z</time>
      </trkpt>
      <trkpt lat="41.2639110" lon="-5.7168450">
        <ele>842.6</ele>
        <time>2021-10-14T09:50:03Z</time>
      </trkpt>
      <trkpt lat="41.2638620" lon="-5.7168180">
        <ele>842.6</ele>
        <time>2021-10-14T09:50:04Z</time>
      </trkpt>
      <trkpt lat="41.2636040" lon="-5.7166710">
        <ele>842.4</ele>
        <time>2021-10-14T09:50:09Z</time>
      </trkpt>
      <trkpt lat="41.2632700" lon="-5.7164690">
        <ele>842.2</ele>
        <time>2021-10-14T09:50:15Z</time>
      </trkpt>
      <trkpt lat="41.2631590" lon="-5.7164000">
        <ele>841.8</ele>
        <time>2021-10-14T09:50:17Z</time>
      </trkpt>
      <trkpt lat="41.2630550" lon="-5.7163340">
        <ele>841.2</ele>
        <time>2021-10-14T09:50:19Z</time>
      </trkpt>
      <trkpt lat="41.2627380" lon="-5.7161490">
        <ele>840.8</ele>
        <time>2021-10-14T09:50:25Z</time>
      </trkpt>
      <trkpt lat="41.2625850" lon="-5.7160540">
        <ele>840.8</ele>
        <time>2021-10-14T09:50:28Z</time>
      </trkpt>
      <trkpt lat="41.2625330" lon="-5.7160250">
        <ele>840.6</ele>
        <time>2021-10-14T09:50:29Z</time>
      </trkpt>
      <trkpt lat="41.2620180" lon="-5.7157300">
        <ele>840.4</ele>
        <time>2021-10-14T09:50:39Z</time>
      </trkpt>
      <trkpt lat="41.2619650" lon="-5.7157030">
        <ele>840.4</ele>
        <time>2021-10-14T09:50:40Z</time>
      </trkpt>
      <trkpt lat="41.2618040" lon="-5.7156110">
        <ele>840.2</ele>
        <time>2021-10-14T09:50:43Z</time>
      </trkpt>
      <trkpt lat="41.2616960" lon="-5.7155590">
        <ele>840.2</ele>
        <time>2021-10-14T09:50:45Z</time>
      </trkpt>
      <trkpt lat="41.2612640" lon="-5.7152930">
        <ele>840.0</ele>
        <time>2021-10-14T09:50:53Z</time>
      </trkpt>
      <trkpt lat="41.2611120" lon="-5.7151660">
        <ele>839.6</ele>
        <time>2021-10-14T09:50:56Z</time>
      </trkpt>
      <trkpt lat="41.2608620" lon="-5.7149580">
        <ele>839.2</ele>
        <time>2021-10-14T09:51:01Z</time>
      </trkpt>
      <trkpt lat="41.2606580" lon="-5.7147900">
        <ele>839.2</ele>
        <time>2021-10-14T09:51:05Z</time>
      </trkpt>
      <trkpt lat="41.2604580" lon="-5.7146320">
        <ele>839.4</ele>
        <time>2021-10-14T09:51:09Z</time>
      </trkpt>
      <trkpt lat="41.2601110" lon="-5.7143520">
        <ele>839.4</ele>
        <time>2021-10-14T09:51:16Z</time>
      </trkpt>
      <trkpt lat="41.2596800" lon="-5.7140110">
        <ele>839.0</ele>
        <time>2021-10-14T09:51:25Z</time>
      </trkpt>
      <trkpt lat="41.2595360" lon="-5.7139070">
        <ele>838.8</ele>
        <time>2021-10-14T09:51:28Z</time>
      </trkpt>
      <trkpt lat="41.2593900" lon="-5.7138040">
        <ele>838.6</ele>
        <time>2021-10-14T09:51:31Z</time>
      </trkpt>
      <trkpt lat="41.2593410" lon="-5.7137720">
        <ele>838.6</ele>
        <time>2021-10-14T09:51:32Z</time>
      </trkpt>
      <trkpt lat="41.2592400" lon="-5.7137120">
        <ele>838.4</ele>
        <time>2021-10-14T09:51:34Z</time>
      </trkpt>
      <trkpt lat="41.2590900" lon="-5.7136300">
        <ele>838.4</ele>
        <time>2021-10-14T09:51:37Z</time>
      </trkpt>
      <trkpt lat="41.2588930" lon="-5.7135280">
        <ele>838.4</ele>
        <time>2021-10-14T09:51:41Z</time>
      </trkpt>
      <trkpt lat="41.2586920" lon="-5.7134280">
        <ele>838.2</ele>
        <time>2021-10-14T09:51:45Z</time>
      </trkpt>
      <trkpt lat="41.2584210" lon="-5.7132550">
        <ele>838.0</ele>
        <time>2021-10-14T09:51:51Z</time>
      </trkpt>
      <trkpt lat="41.2581540" lon="-5.7130740">
        <ele>838.0</ele>
        <time>2021-10-14T09:51:57Z</time>
      </trkpt>
      <trkpt lat="41.2580650" lon="-5.7130070">
        <ele>837.8</ele>
        <time>2021-10-14T09:51:59Z</time>
      </trkpt>
      <trkpt lat="41.2580230" lon="-5.7129680">
        <ele>837.8</ele>
        <time>2021-10-14T09:52:00Z</time>
      </trkpt>
      <trkpt lat="41.2579450" lon="-5.7128860">
        <ele>837.8</ele>
        <time>2021-10-14T09:52:02Z</time>
      </trkpt>
      <trkpt lat="41.2578090" lon="-5.7127070">
        <ele>837.8</ele>
        <time>2021-10-14T09:52:06Z</time>
      </trkpt>
      <trkpt lat="41.2576630" lon="-5.7124520">
        <ele>838.0</ele>
        <time>2021-10-14T09:52:11Z</time>
      </trkpt>
      <trkpt lat="41.2576450" lon="-5.7123900">
        <ele>838.0</ele>
        <time>2021-10-14T09:52:12Z</time>
      </trkpt>
      <trkpt lat="41.2576090" lon="-5.7122720">
        <ele>838.0</ele>
        <time>2021-10-14T09:52:14Z</time>
      </trkpt>
      <trkpt lat="41.2575660" lon="-5.7120550">
        <ele>838.2</ele>
        <time>2021-10-14T09:52:18Z</time>
      </trkpt>
      <trkpt lat="41.2575320" lon="-5.7118230">
        <ele>838.4</ele>
        <time>2021-10-14T09:52:23Z</time>
      </trkpt>
      <trkpt lat="41.2575110" lon="-5.7117960">
        <ele>838.4</ele>
        <time>2021-10-14T09:52:24Z</time>
      </trkpt>
      <trkpt lat="41.2574380" lon="-5.7117620">
        <ele>838.8</ele>
        <time>2021-10-14T09:52:26Z</time>
      </trkpt>
      <trkpt lat="41.2573940" lon="-5.7117530">
        <ele>838.8</ele>
        <time>2021-10-14T09:52:27Z</time>
      </trkpt>
      <trkpt lat="41.2572660" lon="-5.7117200">
        <ele>839.0</ele>
        <time>2021-10-14T09:52:30Z</time>
      </trkpt>
      <trkpt lat="41.2571340" lon="-5.7116850">
        <ele>839.2</ele>
        <time>2021-10-14T09:52:33Z</time>
      </trkpt>
      <trkpt lat="41.2570480" lon="-5.7116600">
        <ele>839.4</ele>
        <time>2021-10-14T09:52:35Z</time>
      </trkpt>
      <trkpt lat="41.2568990" lon="-5.7116100">
        <ele>839.4</ele>
        <time>2021-10-14T09:52:39Z</time>
      </trkpt>
      <trkpt lat="41.2568640" lon="-5.7115980">
        <ele>839.4</ele>
        <time>2021-10-14T09:52:40Z</time>
      </trkpt>
      <trkpt lat="41.2568280" lon="-5.7115890">
        <ele>839.4</ele>
        <time>2021-10-14T09:52:41Z</time>
      </trkpt>
      <trkpt lat="41.2567170" lon="-5.7115610">
        <ele>839.6</ele>
        <time>2021-10-14T09:52:44Z</time>
      </trkpt>
      <trkpt lat="41.2565710" lon="-5.7115270">
        <ele>839.6</ele>
        <time>2021-10-14T09:52:48Z</time>
      </trkpt>
      <trkpt lat="41.2564560" lon="-5.7115020">
        <ele>839.6</ele>
        <time>2021-10-14T09:52:51Z</time>
      </trkpt>
      <trkpt lat="41.2563380" lon="-5.7114670">
        <ele>839.6</ele>
        <time>2021-10-14T09:52:54Z</time>
      </trkpt>
      <trkpt lat="41.2562630" lon="-5.7114480">
        <ele>839.6</ele>
        <time>2021-10-14T09:52:56Z</time>
      </trkpt>
      <trkpt lat="41.2560780" lon="-5.7113290">
        <ele>839.4</ele>
        <time>2021-10-14T09:53:02Z</time>
      </trkpt>
      <trkpt lat="41.2559780" lon="-5.7112290">
        <ele>839.4</ele>
        <time>2021-10-14T09:53:06Z</time>
      </trkpt>
      <trkpt lat="41.2558820" lon="-5.7111270">
        <ele>839.4</ele>
        <time>2021-10-14T09:53:10Z</time>
      </trkpt>
      <trkpt lat="41.2556730" lon="-5.7109400">
        <ele>839.8</ele>
        <time>2021-10-14T09:53:18Z</time>
      </trkpt>
      <trkpt lat="41.2556280" lon="-5.7108950">
        <ele>839.8</ele>
        <time>2021-10-14T09:53:20Z</time>
      </trkpt>
      <trkpt lat="41.2555280" lon="-5.7107960">
        <ele>840.2</ele>
        <time>2021-10-14T09:53:25Z</time>
      </trkpt>
      <trkpt lat="41.2553540" lon="-5.7106430">
        <ele>840.4</ele>
        <time>2021-10-14T09:53:33Z</time>
      </trkpt>
      <trkpt lat="41.2553300" lon="-5.7106210">
        <ele>840.4</ele>
        <time>2021-10-14T09:53:34Z</time>
      </trkpt>
      <trkpt lat="41.2552100" lon="-5.7105180">
        <ele>840.4</ele>
        <time>2021-10-14T09:53:40Z</time>
      </trkpt>
      <trkpt lat="41.2551030" lon="-5.7104240">
        <ele>840.4</ele>
        <time>2021-10-14T09:53:45Z</time>
      </trkpt>
      <trkpt lat="41.2549910" lon="-5.7103240">
        <ele>840.2</ele>
        <time>2021-10-14T09:53:50Z</time>
      </trkpt>
      <trkpt lat="41.2549160" lon="-5.7102490">
        <ele>840.2</ele>
        <time>2021-10-14T09:53:53Z</time>
      </trkpt>
      <trkpt lat="41.2547760" lon="-5.7101810">
        <ele>840.2</ele>
        <time>2021-10-14T09:53:58Z</time>
      </trkpt>
      <trkpt lat="41.2547460" lon="-5.7101730">
        <ele>840.2</ele>
        <time>2021-10-14T09:53:59Z</time>
      </trkpt>
      <trkpt lat="41.2545390" lon="-5.7100830">
        <ele>840.2</ele>
        <time>2021-10-14T09:54:06Z</time>
      </trkpt>
      <trkpt lat="41.2542780" lon="-5.7099180">
        <ele>840.2</ele>
        <time>2021-10-14T09:54:16Z</time>
      </trkpt>
      <trkpt lat="41.2540290" lon="-5.7097600">
        <ele>840.4</ele>
        <time>2021-10-14T09:54:25Z</time>
      </trkpt>
      <trkpt lat="41.2539430" lon="-5.7097150">
        <ele>840.4</ele>
        <time>2021-10-14T09:54:28Z</time>
      </trkpt>
      <trkpt lat="41.2538240" lon="-5.7096470">
        <ele>840.4</ele>
        <time>2021-10-14T09:54:32Z</time>
      </trkpt>
      <trkpt lat="41.2537420" lon="-5.7095900">
        <ele>840.4</ele>
        <time>2021-10-14T09:54:35Z</time>
      </trkpt>
      <trkpt lat="41.2536310" lon="-5.7095030">
        <ele>840.4</ele>
        <time>2021-10-14T09:54:39Z</time>
      </trkpt>
      <trkpt lat="41.2534770" lon="-5.7094350">
        <ele>840.6</ele>
        <time>2021-10-14T09:54:44Z</time>
      </trkpt>
      <trkpt lat="41.2533510" lon="-5.7093990">
        <ele>840.8</ele>
        <time>2021-10-14T09:54:48Z</time>
      </trkpt>
      <trkpt lat="41.2530920" lon="-5.7093420">
        <ele>840.8</ele>
        <time>2021-10-14T09:54:56Z</time>
      </trkpt>
      <trkpt lat="41.2530560" lon="-5.7093350">
        <ele>840.8</ele>
        <time>2021-10-14T09:54:57Z</time>
      </trkpt>
      <trkpt lat="41.2527670" lon="-5.7092880">
        <ele>840.8</ele>
        <time>2021-10-14T09:55:06Z</time>
      </trkpt>
      <trkpt lat="41.2525110" lon="-5.7092290">
        <ele>841.0</ele>
        <time>2021-10-14T09:55:14Z</time>
      </trkpt>
      <trkpt lat="41.2523220" lon="-5.7091970">
        <ele>841.0</ele>
        <time>2021-10-14T09:55:19Z</time>
      </trkpt>
      <trkpt lat="41.2522440" lon="-5.7091780">
        <ele>841.0</ele>
        <time>2021-10-14T09:55:21Z</time>
      </trkpt>
      <trkpt lat="41.2519520" lon="-5.7091150">
        <ele>840.8</ele>
        <time>2021-10-14T09:55:29Z</time>
      </trkpt>
      <trkpt lat="41.2517210" lon="-5.7090610">
        <ele>840.8</ele>
        <time>2021-10-14T09:55:37Z</time>
      </trkpt>
      <trkpt lat="41.2517100" lon="-5.7090430">
        <ele>840.8</ele>
        <time>2021-10-14T09:55:38Z</time>
      </trkpt>
      <trkpt lat="41.2517040" lon="-5.7089660">
        <ele>840.8</ele>
        <time>2021-10-14T09:55:41Z</time>
      </trkpt>
      <trkpt lat="41.2517100" lon="-5.7089080">
        <ele>840.8</ele>
        <time>2021-10-14T09:55:43Z</time>
      </trkpt>
      <trkpt lat="41.2516660" lon="-5.7088200">
        <ele>840.8</ele>
        <time>2021-10-14T09:55:46Z</time>
      </trkpt>
      <trkpt lat="41.2515290" lon="-5.7088150">
        <ele>840.0</ele>
        <time>2021-10-14T09:55:51Z</time>
      </trkpt>
      <trkpt lat="41.2513370" lon="-5.7087840">
        <ele>840.4</ele>
        <time>2021-10-14T09:55:59Z</time>
      </trkpt>
      <trkpt lat="41.2511460" lon="-5.7087360">
        <ele>841.2</ele>
        <time>2021-10-14T09:56:07Z</time>
      </trkpt>
      <trkpt lat="41.2510060" lon="-5.7087140">
        <ele>842.0</ele>
        <time>2021-10-14T09:56:13Z</time>
      </trkpt>
      <trkpt lat="41.2509420" lon="-5.7087020">
        <ele>842.4</ele>
        <time>2021-10-14T09:56:16Z</time>
      </trkpt>
      <trkpt lat="41.2508560" lon="-5.7086850">
        <ele>842.8</ele>
        <time>2021-10-14T09:56:20Z</time>
      </trkpt>
      <trkpt lat="41.2508340" lon="-5.7086780">
        <ele>843.0</ele>
        <time>2021-10-14T09:56:21Z</time>
      </trkpt>
      <trkpt lat="41.2507490" lon="-5.7086410">
        <ele>843.2</ele>
        <time>2021-10-14T09:56:25Z</time>
      </trkpt>
      <trkpt lat="41.2506830" lon="-5.7086100">
        <ele>843.4</ele>
        <time>2021-10-14T09:56:28Z</time>
      </trkpt>
      <trkpt lat="41.2506270" lon="-5.7085870">
        <ele>843.6</ele>
        <time>2021-10-14T09:56:31Z</time>
      </trkpt>
      <trkpt lat="41.2505540" lon="-5.7085640">
        <ele>843.6</ele>
        <time>2021-10-14T09:56:34Z</time>
      </trkpt>
      <trkpt lat="41.2504260" lon="-5.7085410">
        <ele>843.6</ele>
        <time>2021-10-14T09:56:38Z</time>
      </trkpt>
      <trkpt lat="41.2502120" lon="-5.7084790">
        <ele>843.0</ele>
        <time>2021-10-14T09:56:44Z</time>
      </trkpt>
      <trkpt lat="41.2500140" lon="-5.7083420">
        <ele>842.4</ele>
        <time>2021-10-14T09:56:49Z</time>
      </trkpt>
      <trkpt lat="41.2499600" lon="-5.7083120">
        <ele>842.2</ele>
        <time>2021-10-14T09:56:50Z</time>
      </trkpt>
      <trkpt lat="41.2498430" lon="-5.7082680">
        <ele>841.6</ele>
        <time>2021-10-14T09:56:52Z</time>
      </trkpt>
      <trkpt lat="41.2497240" lon="-5.7082260">
        <ele>840.8</ele>
        <time>2021-10-14T09:56:54Z</time>
      </trkpt>
      <trkpt lat="41.2496660" lon="-5.7082030">
        <ele>840.6</ele>
        <time>2021-10-14T09:56:55Z</time>
      </trkpt>
      <trkpt lat="41.2495510" lon="-5.7081760">
        <ele>839.4</ele>
        <time>2021-10-14T09:56:57Z</time>
      </trkpt>
      <trkpt lat="41.2493990" lon="-5.7081450">
        <ele>838.6</ele>
        <time>2021-10-14T09:57:00Z</time>
      </trkpt>
      <trkpt lat="41.2493540" lon="-5.7081430">
        <ele>838.4</ele>
        <time>2021-10-14T09:57:01Z</time>
      </trkpt>
      <trkpt lat="41.2493090" lon="-5.7081440">
        <ele>838.4</ele>
        <time>2021-10-14T09:57:02Z</time>
      </trkpt>
      <trkpt lat="41.2492170" lon="-5.7081540">
        <ele>838.2</ele>
        <time>2021-10-14T09:57:04Z</time>
      </trkpt>
      <trkpt lat="41.2491340" lon="-5.7081820">
        <ele>838.0</ele>
        <time>2021-10-14T09:57:06Z</time>
      </trkpt>
      <trkpt lat="41.2490950" lon="-5.7081870">
        <ele>837.8</ele>
        <time>2021-10-14T09:57:07Z</time>
      </trkpt>
      <trkpt lat="41.2489650" lon="-5.7081410">
        <ele>837.4</ele>
        <time>2021-10-14T09:57:11Z</time>
      </trkpt>
      <trkpt lat="41.2489360" lon="-5.7081190">
        <ele>837.2</ele>
        <time>2021-10-14T09:57:15Z</time>
      </trkpt>
      <trkpt lat="41.2488980" lon="-5.7081280">
        <ele>837.0</ele>
        <time>2021-10-14T09:58:19Z</time>
      </trkpt>
      <trkpt lat="41.2488510" lon="-5.7081400">
        <ele>837.0</ele>
        <time>2021-10-14T09:58:21Z</time>
      </trkpt>
      <trkpt lat="41.2487310" lon="-5.7081090">
        <ele>837.2</ele>
        <time>2021-10-14T09:58:25Z</time>
      </trkpt>
      <trkpt lat="41.2485540" lon="-5.7079720">
        <ele>837.0</ele>
        <time>2021-10-14T09:58:31Z</time>
      </trkpt>
      <trkpt lat="41.2484140" lon="-5.7078110">
        <ele>837.2</ele>
        <time>2021-10-14T09:58:37Z</time>
      </trkpt>
      <trkpt lat="41.2483940" lon="-5.7077850">
        <ele>837.2</ele>
        <time>2021-10-14T09:58:38Z</time>
      </trkpt>
      <trkpt lat="41.2483130" lon="-5.7077140">
        <ele>837.6</ele>
        <time>2021-10-14T09:58:42Z</time>
      </trkpt>
      <trkpt lat="41.2482640" lon="-5.7076920">
        <ele>837.8</ele>
        <time>2021-10-14T09:58:44Z</time>
      </trkpt>
      <trkpt lat="41.2482070" lon="-5.7076820">
        <ele>838.2</ele>
        <time>2021-10-14T09:58:46Z</time>
      </trkpt>
      <trkpt lat="41.2481780" lon="-5.7076820">
        <ele>838.2</ele>
        <time>2021-10-14T09:58:47Z</time>
      </trkpt>
      <trkpt lat="41.2480690" lon="-5.7076890">
        <ele>838.8</ele>
        <time>2021-10-14T09:58:51Z</time>
      </trkpt>
      <trkpt lat="41.2479830" lon="-5.7076980">
        <ele>839.0</ele>
        <time>2021-10-14T09:58:55Z</time>
      </trkpt>
      <trkpt lat="41.2479090" lon="-5.7077230">
        <ele>839.4</ele>
        <time>2021-10-14T09:58:58Z</time>
      </trkpt>
      <trkpt lat="41.2478820" lon="-5.7077270">
        <ele>839.4</ele>
        <time>2021-10-14T09:58:59Z</time>
      </trkpt>
      <trkpt lat="41.2477050" lon="-5.7077460">
        <ele>840.4</ele>
        <time>2021-10-14T09:59:06Z</time>
      </trkpt>
      <trkpt lat="41.2476810" lon="-5.7077440">
        <ele>840.4</ele>
        <time>2021-10-14T09:59:07Z</time>
      </trkpt>
      <trkpt lat="41.2476100" lon="-5.7077360">
        <ele>840.6</ele>
        <time>2021-10-14T09:59:10Z</time>
      </trkpt>
      <trkpt lat="41.2475630" lon="-5.7077240">
        <ele>840.8</ele>
        <time>2021-10-14T09:59:12Z</time>
      </trkpt>
      <trkpt lat="41.2474800" lon="-5.7077020">
        <ele>841.4</ele>
        <time>2021-10-14T09:59:16Z</time>
      </trkpt>
      <trkpt lat="41.2473610" lon="-5.7076740">
        <ele>842.4</ele>
        <time>2021-10-14T09:59:22Z</time>
      </trkpt>
      <trkpt lat="41.2473260" lon="-5.7076750">
        <ele>842.8</ele>
        <time>2021-10-14T09:59:24Z</time>
      </trkpt>
      <trkpt lat="41.2472920" lon="-5.7076880">
        <ele>843.2</ele>
        <time>2021-10-14T09:59:26Z</time>
      </trkpt>
      <trkpt lat="41.2472610" lon="-5.7077170">
        <ele>843.4</ele>
        <time>2021-10-14T09:59:28Z</time>
      </trkpt>
      <trkpt lat="41.2472330" lon="-5.7077570">
        <ele>843.8</ele>
        <time>2021-10-14T09:59:30Z</time>
      </trkpt>
      <trkpt lat="41.2471330" lon="-5.7079300">
        <ele>844.2</ele>
        <time>2021-10-14T09:59:37Z</time>
      </trkpt>
      <trkpt lat="41.2470930" lon="-5.7079770">
        <ele>844.2</ele>
        <time>2021-10-14T09:59:39Z</time>
      </trkpt>
      <trkpt lat="41.2470490" lon="-5.7079960">
        <ele>844.4</ele>
        <time>2021-10-14T09:59:41Z</time>
      </trkpt>
      <trkpt lat="41.2469770" lon="-5.7079920">
        <ele>844.4</ele>
        <time>2021-10-14T09:59:44Z</time>
      </trkpt>
      <trkpt lat="41.2469530" lon="-5.7079870">
        <ele>844.6</ele>
        <time>2021-10-14T09:59:45Z</time>
      </trkpt>
      <trkpt lat="41.2468610" lon="-5.7079580">
        <ele>844.8</ele>
        <time>2021-10-14T09:59:49Z</time>
      </trkpt>
      <trkpt lat="41.2468190" lon="-5.7079410">
        <ele>845.0</ele>
        <time>2021-10-14T09:59:51Z</time>
      </trkpt>
      <trkpt lat="41.2467810" lon="-5.7079100">
        <ele>845.2</ele>
        <time>2021-10-14T09:59:53Z</time>
      </trkpt>
      <trkpt lat="41.2467390" lon="-5.7078760">
        <ele>845.4</ele>
        <time>2021-10-14T09:59:55Z</time>
      </trkpt>
      <trkpt lat="41.2466370" lon="-5.7077660">
        <ele>845.4</ele>
        <time>2021-10-14T10:00:01Z</time>
      </trkpt>
      <trkpt lat="41.2465640" lon="-5.7076400">
        <ele>845.4</ele>
        <time>2021-10-14T10:00:08Z</time>
      </trkpt>
      <trkpt lat="41.2465670" lon="-5.7075420">
        <ele>845.4</ele>
        <time>2021-10-14T10:00:11Z</time>
      </trkpt>
      <trkpt lat="41.2465570" lon="-5.7075090">
        <ele>845.4</ele>
        <time>2021-10-14T10:00:14Z</time>
      </trkpt>
      <trkpt lat="41.2465570" lon="-5.7075090">
        <ele>845.4</ele>
        <time>2021-10-14T10:00:15Z</time>
      </trkpt>
      <trkpt lat="41.2465570" lon="-5.7075410">
        <ele>845.2</ele>
        <time>2021-10-14T10:00:40Z</time>
      </trkpt>
      <trkpt lat="41.2465610" lon="-5.7075780">
        <ele>845.2</ele>
        <time>2021-10-14T10:00:41Z</time>
      </trkpt>
      <trkpt lat="41.2465700" lon="-5.7076220">
        <ele>845.2</ele>
        <time>2021-10-14T10:00:42Z</time>
      </trkpt>
      <trkpt lat="41.2466480" lon="-5.7077870">
        <ele>845.4</ele>
        <time>2021-10-14T10:00:46Z</time>
      </trkpt>
      <trkpt lat="41.2466640" lon="-5.7078280">
        <ele>845.6</ele>
        <time>2021-10-14T10:00:47Z</time>
      </trkpt>
      <trkpt lat="41.2466610" lon="-5.7078670">
        <ele>845.6</ele>
        <time>2021-10-14T10:00:48Z</time>
      </trkpt>
      <trkpt lat="41.2466420" lon="-5.7078910">
        <ele>845.6</ele>
        <time>2021-10-14T10:00:49Z</time>
      </trkpt>
      <trkpt lat="41.2465110" lon="-5.7078900">
        <ele>845.8</ele>
        <time>2021-10-14T10:00:53Z</time>
      </trkpt>
      <trkpt lat="41.2464190" lon="-5.7078590">
        <ele>846.0</ele>
        <time>2021-10-14T10:00:56Z</time>
      </trkpt>
      <trkpt lat="41.2463330" lon="-5.7078360">
        <ele>846.0</ele>
        <time>2021-10-14T10:00:59Z</time>
      </trkpt>
      <trkpt lat="41.2462700" lon="-5.7078260">
        <ele>846.2</ele>
        <time>2021-10-14T10:01:01Z</time>
      </trkpt>
      <trkpt lat="41.2461770" lon="-5.7078050">
        <ele>846.4</ele>
        <time>2021-10-14T10:01:04Z</time>
      </trkpt>
      <trkpt lat="41.2460980" lon="-5.7077820">
        <ele>846.4</ele>
        <time>2021-10-14T10:01:07Z</time>
      </trkpt>
      <trkpt lat="41.2460080" lon="-5.7077700">
        <ele>846.4</ele>
        <time>2021-10-14T10:01:10Z</time>
      </trkpt>
      <trkpt lat="41.2458410" lon="-5.7077410">
        <ele>846.4</ele>
        <time>2021-10-14T10:01:15Z</time>
      </trkpt>
      <trkpt lat="41.2456640" lon="-5.7077010">
        <ele>846.6</ele>
        <time>2021-10-14T10:01:20Z</time>
      </trkpt>
      <trkpt lat="41.2456230" lon="-5.7076890">
        <ele>846.6</ele>
        <time>2021-10-14T10:01:21Z</time>
      </trkpt>
      <trkpt lat="41.2454890" lon="-5.7076690">
        <ele>846.8</ele>
        <time>2021-10-14T10:01:24Z</time>
      </trkpt>
      <trkpt lat="41.2454410" lon="-5.7076730">
        <ele>846.8</ele>
        <time>2021-10-14T10:01:25Z</time>
      </trkpt>
      <trkpt lat="41.2453940" lon="-5.7076840">
        <ele>846.6</ele>
        <time>2021-10-14T10:01:26Z</time>
      </trkpt>
      <trkpt lat="41.2452560" lon="-5.7077090">
        <ele>847.0</ele>
        <time>2021-10-14T10:01:29Z</time>
      </trkpt>
      <trkpt lat="41.2452110" lon="-5.7077070">
        <ele>847.0</ele>
        <time>2021-10-14T10:01:30Z</time>
      </trkpt>
      <trkpt lat="41.2448980" lon="-5.7076420">
        <ele>847.0</ele>
        <time>2021-10-14T10:01:38Z</time>
      </trkpt>
      <trkpt lat="41.2447650" lon="-5.7076180">
        <ele>847.0</ele>
        <time>2021-10-14T10:01:42Z</time>
      </trkpt>
      <trkpt lat="41.2446220" lon="-5.7075880">
        <ele>847.2</ele>
        <time>2021-10-14T10:01:46Z</time>
      </trkpt>
      <trkpt lat="41.2445530" lon="-5.7075720">
        <ele>847.0</ele>
        <time>2021-10-14T10:01:48Z</time>
      </trkpt>
      <trkpt lat="41.2443780" lon="-5.7075360">
        <ele>847.4</ele>
        <time>2021-10-14T10:01:53Z</time>
      </trkpt>
      <trkpt lat="41.2442370" lon="-5.7075120">
        <ele>847.4</ele>
        <time>2021-10-14T10:01:57Z</time>
      </trkpt>
      <trkpt lat="41.2440140" lon="-5.7074820">
        <ele>847.4</ele>
        <time>2021-10-14T10:02:04Z</time>
      </trkpt>
      <trkpt lat="41.2438040" lon="-5.7074550">
        <ele>847.6</ele>
        <time>2021-10-14T10:02:10Z</time>
      </trkpt>
      <trkpt lat="41.2436990" lon="-5.7074420">
        <ele>847.8</ele>
        <time>2021-10-14T10:02:13Z</time>
      </trkpt>
      <trkpt lat="41.2436650" lon="-5.7074360">
        <ele>847.8</ele>
        <time>2021-10-14T10:02:14Z</time>
      </trkpt>
      <trkpt lat="41.2434000" lon="-5.7074270">
        <ele>848.2</ele>
        <time>2021-10-14T10:02:22Z</time>
      </trkpt>
      <trkpt lat="41.2431700" lon="-5.7074130">
        <ele>848.6</ele>
        <time>2021-10-14T10:02:29Z</time>
      </trkpt>
      <trkpt lat="41.2431350" lon="-5.7074110">
        <ele>848.8</ele>
        <time>2021-10-14T10:02:30Z</time>
      </trkpt>
      <trkpt lat="41.2428040" lon="-5.7074370">
        <ele>849.4</ele>
        <time>2021-10-14T10:02:39Z</time>
      </trkpt>
      <trkpt lat="41.2426980" lon="-5.7074540">
        <ele>849.6</ele>
        <time>2021-10-14T10:02:42Z</time>
      </trkpt>
      <trkpt lat="41.2423940" lon="-5.7074840">
        <ele>849.8</ele>
        <time>2021-10-14T10:02:50Z</time>
      </trkpt>
      <trkpt lat="41.2421710" lon="-5.7074750">
        <ele>849.6</ele>
        <time>2021-10-14T10:02:56Z</time>
      </trkpt>
      <trkpt lat="41.2420330" lon="-5.7074440">
        <ele>849.8</ele>
        <time>2021-10-14T10:03:00Z</time>
      </trkpt>
      <trkpt lat="41.2418870" lon="-5.7073900">
        <ele>849.4</ele>
        <time>2021-10-14T10:03:03Z</time>
      </trkpt>
      <trkpt lat="41.2416670" lon="-5.7073190">
        <ele>847.2</ele>
        <time>2021-10-14T10:03:08Z</time>
      </trkpt>
      <trkpt lat="41.2416430" lon="-5.7073160">
        <ele>847.0</ele>
        <time>2021-10-14T10:03:09Z</time>
      </trkpt>
      <trkpt lat="41.2415970" lon="-5.7073120">
        <ele>846.0</ele>
        <time>2021-10-14T10:03:11Z</time>
      </trkpt>
      <trkpt lat="41.2414790" lon="-5.7072950">
        <ele>845.2</ele>
        <time>2021-10-14T10:03:14Z</time>
      </trkpt>
      <trkpt lat="41.2413630" lon="-5.7072710">
        <ele>844.8</ele>
        <time>2021-10-14T10:03:16Z</time>
      </trkpt>
      <trkpt lat="41.2412270" lon="-5.7072340">
        <ele>844.2</ele>
        <time>2021-10-14T10:03:18Z</time>
      </trkpt>
      <trkpt lat="41.2411550" lon="-5.7072170">
        <ele>843.4</ele>
        <time>2021-10-14T10:03:19Z</time>
      </trkpt>
      <trkpt lat="41.2410290" lon="-5.7071950">
        <ele>842.0</ele>
        <time>2021-10-14T10:03:21Z</time>
      </trkpt>
      <trkpt lat="41.2409250" lon="-5.7071960">
        <ele>841.0</ele>
        <time>2021-10-14T10:03:23Z</time>
      </trkpt>
      <trkpt lat="41.2408300" lon="-5.7072190">
        <ele>839.8</ele>
        <time>2021-10-14T10:03:25Z</time>
      </trkpt>
      <trkpt lat="41.2407530" lon="-5.7072520">
        <ele>839.2</ele>
        <time>2021-10-14T10:03:27Z</time>
      </trkpt>
      <trkpt lat="41.2407210" lon="-5.7072760">
        <ele>839.0</ele>
        <time>2021-10-14T10:03:28Z</time>
      </trkpt>
      <trkpt lat="41.2405820" lon="-5.7074160">
        <ele>838.8</ele>
        <time>2021-10-14T10:03:33Z</time>
      </trkpt>
      <trkpt lat="41.2405610" lon="-5.7074210">
        <ele>838.8</ele>
        <time>2021-10-14T10:03:34Z</time>
      </trkpt>
      <trkpt lat="41.2405440" lon="-5.7073870">
        <ele>838.8</ele>
        <time>2021-10-14T10:03:36Z</time>
      </trkpt>
      <trkpt lat="41.2405870" lon="-5.7072640">
        <ele>838.8</ele>
        <time>2021-10-14T10:03:41Z</time>
      </trkpt>
      <trkpt lat="41.2406790" lon="-5.7070350">
        <ele>840.8</ele>
        <time>2021-10-14T10:03:52Z</time>
      </trkpt>
      <trkpt lat="41.2406860" lon="-5.7070170">
        <ele>841.0</ele>
        <time>2021-10-14T10:03:53Z</time>
      </trkpt>
      <trkpt lat="41.2407380" lon="-5.7069380">
        <ele>842.0</ele>
        <time>2021-10-14T10:03:58Z</time>
      </trkpt>
      <trkpt lat="41.2407470" lon="-5.7069210">
        <ele>842.2</ele>
        <time>2021-10-14T10:03:59Z</time>
      </trkpt>
      <trkpt lat="41.2407680" lon="-5.7068660">
        <ele>842.8</ele>
        <time>2021-10-14T10:04:02Z</time>
      </trkpt>
      <trkpt lat="41.2407730" lon="-5.7068470">
        <ele>842.8</ele>
        <time>2021-10-14T10:04:03Z</time>
      </trkpt>
      <trkpt lat="41.2407820" lon="-5.7068120">
        <ele>843.0</ele>
        <time>2021-10-14T10:04:05Z</time>
      </trkpt>
      <trkpt lat="41.2407850" lon="-5.7067920">
        <ele>843.2</ele>
        <time>2021-10-14T10:04:06Z</time>
      </trkpt>
      <trkpt lat="41.2407880" lon="-5.7067220">
        <ele>844.0</ele>
        <time>2021-10-14T10:04:10Z</time>
      </trkpt>
      <trkpt lat="41.2407750" lon="-5.7066990">
        <ele>844.4</ele>
        <time>2021-10-14T10:04:12Z</time>
      </trkpt>
      <trkpt lat="41.2407510" lon="-5.7066880">
        <ele>844.8</ele>
        <time>2021-10-14T10:04:14Z</time>
      </trkpt>
      <trkpt lat="41.2407250" lon="-5.7066860">
        <ele>844.8</ele>
        <time>2021-10-14T10:04:16Z</time>
      </trkpt>
      <trkpt lat="41.2406990" lon="-5.7066920">
        <ele>845.0</ele>
        <time>2021-10-14T10:04:18Z</time>
      </trkpt>
      <trkpt lat="41.2406760" lon="-5.7066950">
        <ele>845.0</ele>
        <time>2021-10-14T10:04:21Z</time>
      </trkpt>
      <trkpt lat="41.2406760" lon="-5.7066950">
        <ele>845.0</ele>
        <time>2021-10-14T10:04:23Z</time>
      </trkpt>
      <trkpt lat="41.2407950" lon="-5.7067920">
        <ele>845.2</ele>
        <time>2021-10-14T10:09:35Z</time>
      </trkpt>
      <trkpt lat="41.2407810" lon="-5.7068330">
        <ele>845.2</ele>
        <time>2021-10-14T10:09:36Z</time>
      </trkpt>
      <trkpt lat="41.2407060" lon="-5.7070330">
        <ele>844.8</ele>
        <time>2021-10-14T10:09:40Z</time>
      </trkpt>
      <trkpt lat="41.2406670" lon="-5.7071350">
        <ele>844.2</ele>
        <time>2021-10-14T10:09:42Z</time>
      </trkpt>
      <trkpt lat="41.2406050" lon="-5.7072940">
        <ele>843.4</ele>
        <time>2021-10-14T10:09:45Z</time>
      </trkpt>
      <trkpt lat="41.2405570" lon="-5.7074300">
        <ele>842.8</ele>
        <time>2021-10-14T10:09:47Z</time>
      </trkpt>
      <trkpt lat="41.2405330" lon="-5.7075010">
        <ele>842.0</ele>
        <time>2021-10-14T10:09:48Z</time>
      </trkpt>
      <trkpt lat="41.2405080" lon="-5.7075680">
        <ele>840.8</ele>
        <time>2021-10-14T10:09:49Z</time>
      </trkpt>
      <trkpt lat="41.2404350" lon="-5.7077490">
        <ele>839.8</ele>
        <time>2021-10-14T10:09:52Z</time>
      </trkpt>
      <trkpt lat="41.2403890" lon="-5.7078530">
        <ele>839.4</ele>
        <time>2021-10-14T10:09:54Z</time>
      </trkpt>
      <trkpt lat="41.2402930" lon="-5.7080970">
        <ele>839.4</ele>
        <time>2021-10-14T10:10:00Z</time>
      </trkpt>
      <trkpt lat="41.2402080" lon="-5.7082950">
        <ele>839.2</ele>
        <time>2021-10-14T10:10:06Z</time>
      </trkpt>
      <trkpt lat="41.2400670" lon="-5.7086420">
        <ele>839.4</ele>
        <time>2021-10-14T10:10:15Z</time>
      </trkpt>
      <trkpt lat="41.2399980" lon="-5.7088040">
        <ele>839.8</ele>
        <time>2021-10-14T10:10:19Z</time>
      </trkpt>
      <trkpt lat="41.2399150" lon="-5.7089470">
        <ele>840.0</ele>
        <time>2021-10-14T10:10:23Z</time>
      </trkpt>
      <trkpt lat="41.2398460" lon="-5.7090420">
        <ele>840.0</ele>
        <time>2021-10-14T10:10:26Z</time>
      </trkpt>
      <trkpt lat="41.2398150" lon="-5.7091390">
        <ele>840.2</ele>
        <time>2021-10-14T10:10:29Z</time>
      </trkpt>
      <trkpt lat="41.2398060" lon="-5.7093540">
        <ele>840.2</ele>
        <time>2021-10-14T10:10:34Z</time>
      </trkpt>
      <trkpt lat="41.2398200" lon="-5.7094240">
        <ele>840.2</ele>
        <time>2021-10-14T10:10:36Z</time>
      </trkpt>
      <trkpt lat="41.2398230" lon="-5.7095020">
        <ele>840.4</ele>
        <time>2021-10-14T10:10:39Z</time>
      </trkpt>
      <trkpt lat="41.2398140" lon="-5.7095220">
        <ele>840.4</ele>
        <time>2021-10-14T10:10:40Z</time>
      </trkpt>
      <trkpt lat="41.2396970" lon="-5.7096120">
        <ele>840.2</ele>
        <time>2021-10-14T10:10:45Z</time>
      </trkpt>
      <trkpt lat="41.2396010" lon="-5.7096540">
        <ele>840.4</ele>
        <time>2021-10-14T10:10:48Z</time>
      </trkpt>
      <trkpt lat="41.2394610" lon="-5.7096880">
        <ele>840.4</ele>
        <time>2021-10-14T10:10:52Z</time>
      </trkpt>
      <trkpt lat="41.2393750" lon="-5.7097080">
        <ele>840.6</ele>
        <time>2021-10-14T10:10:55Z</time>
      </trkpt>
      <trkpt lat="41.2392650" lon="-5.7097320">
        <ele>840.8</ele>
        <time>2021-10-14T10:10:59Z</time>
      </trkpt>
      <trkpt lat="41.2391430" lon="-5.7097560">
        <ele>841.0</ele>
        <time>2021-10-14T10:11:05Z</time>
      </trkpt>
      <trkpt lat="41.2390280" lon="-5.7097840">
        <ele>841.8</ele>
        <time>2021-10-14T10:11:11Z</time>
      </trkpt>
      <trkpt lat="41.2390120" lon="-5.7097880">
        <ele>841.8</ele>
        <time>2021-10-14T10:11:12Z</time>
      </trkpt>
      <trkpt lat="41.2389680" lon="-5.7097980">
        <ele>842.2</ele>
        <time>2021-10-14T10:11:15Z</time>
      </trkpt>
      <trkpt lat="41.2388880" lon="-5.7098130">
        <ele>842.6</ele>
        <time>2021-10-14T10:11:20Z</time>
      </trkpt>
      <trkpt lat="41.2388560" lon="-5.7098160">
        <ele>843.0</ele>
        <time>2021-10-14T10:11:22Z</time>
      </trkpt>
      <trkpt lat="41.2388070" lon="-5.7098210">
        <ele>843.6</ele>
        <time>2021-10-14T10:11:25Z</time>
      </trkpt>
      <trkpt lat="41.2387790" lon="-5.7098300">
        <ele>844.0</ele>
        <time>2021-10-14T10:11:27Z</time>
      </trkpt>
      <trkpt lat="41.2387410" lon="-5.7098360">
        <ele>844.2</ele>
        <time>2021-10-14T10:11:30Z</time>
      </trkpt>
      <trkpt lat="41.2386570" lon="-5.7098470">
        <ele>845.2</ele>
        <time>2021-10-14T10:11:36Z</time>
      </trkpt>
      <trkpt lat="41.2386570" lon="-5.7098470">
        <ele>845.4</ele>
        <time>2021-10-14T10:11:37Z</time>
      </trkpt>
      <trkpt lat="41.2385980" lon="-5.7098620">
        <ele>845.6</ele>
        <time>2021-10-14T10:11:40Z</time>
      </trkpt>
      <trkpt lat="41.2385080" lon="-5.7098990">
        <ele>846.0</ele>
        <time>2021-10-14T10:11:46Z</time>
      </trkpt>
      <trkpt lat="41.2384930" lon="-5.7099050">
        <ele>846.0</ele>
        <time>2021-10-14T10:11:47Z</time>
      </trkpt>
      <trkpt lat="41.2384610" lon="-5.7099210">
        <ele>846.2</ele>
        <time>2021-10-14T10:11:49Z</time>
      </trkpt>
      <trkpt lat="41.2384140" lon="-5.7099440">
        <ele>846.4</ele>
        <time>2021-10-14T10:11:52Z</time>
      </trkpt>
      <trkpt lat="41.2383830" lon="-5.7099620">
        <ele>846.6</ele>
        <time>2021-10-14T10:11:54Z</time>
      </trkpt>
      <trkpt lat="41.2383520" lon="-5.7099780">
        <ele>846.6</ele>
        <time>2021-10-14T10:11:56Z</time>
      </trkpt>
      <trkpt lat="41.2383240" lon="-5.7099960">
        <ele>846.8</ele>
        <time>2021-10-14T10:11:58Z</time>
      </trkpt>
      <trkpt lat="41.2383240" lon="-5.7099960">
        <ele>846.8</ele>
        <time>2021-10-14T10:11:59Z</time>
      </trkpt>
      <trkpt lat="41.2382790" lon="-5.7100220">
        <ele>847.0</ele>
        <time>2021-10-14T10:12:01Z</time>
      </trkpt>
      <trkpt lat="41.2382160" lon="-5.7100530">
        <ele>847.2</ele>
        <time>2021-10-14T10:12:05Z</time>
      </trkpt>
      <trkpt lat="41.2381850" lon="-5.7100710">
        <ele>847.4</ele>
        <time>2021-10-14T10:12:07Z</time>
      </trkpt>
      <trkpt lat="41.2381700" lon="-5.7100820">
        <ele>847.4</ele>
        <time>2021-10-14T10:12:08Z</time>
      </trkpt>
      <trkpt lat="41.2381390" lon="-5.7101040">
        <ele>847.6</ele>
        <time>2021-10-14T10:12:10Z</time>
      </trkpt>
      <trkpt lat="41.2380340" lon="-5.7101670">
        <ele>848.2</ele>
        <time>2021-10-14T10:12:17Z</time>
      </trkpt>
      <trkpt lat="41.2380070" lon="-5.7101860">
        <ele>848.4</ele>
        <time>2021-10-14T10:12:19Z</time>
      </trkpt>
      <trkpt lat="41.2379790" lon="-5.7102050">
        <ele>848.6</ele>
        <time>2021-10-14T10:12:21Z</time>
      </trkpt>
      <trkpt lat="41.2379340" lon="-5.7102350">
        <ele>848.8</ele>
        <time>2021-10-14T10:12:24Z</time>
      </trkpt>
      <trkpt lat="41.2379080" lon="-5.7102600">
        <ele>848.8</ele>
        <time>2021-10-14T10:12:26Z</time>
      </trkpt>
      <trkpt lat="41.2378930" lon="-5.7102710">
        <ele>848.8</ele>
        <time>2021-10-14T10:12:27Z</time>
      </trkpt>
      <trkpt lat="41.2378180" lon="-5.7103200">
        <ele>849.2</ele>
        <time>2021-10-14T10:12:32Z</time>
      </trkpt>
      <trkpt lat="41.2377870" lon="-5.7103410">
        <ele>849.4</ele>
        <time>2021-10-14T10:12:34Z</time>
      </trkpt>
      <trkpt lat="41.2377710" lon="-5.7103530">
        <ele>849.6</ele>
        <time>2021-10-14T10:12:35Z</time>
      </trkpt>
      <trkpt lat="41.2377550" lon="-5.7103640">
        <ele>849.4</ele>
        <time>2021-10-14T10:12:36Z</time>
      </trkpt>
      <trkpt lat="41.2377080" lon="-5.7103910">
        <ele>849.6</ele>
        <time>2021-10-14T10:12:39Z</time>
      </trkpt>
      <trkpt lat="41.2376940" lon="-5.7104010">
        <ele>849.8</ele>
        <time>2021-10-14T10:12:41Z</time>
      </trkpt>
      <trkpt lat="41.2376490" lon="-5.7104310">
        <ele>850.0</ele>
        <time>2021-10-14T10:12:43Z</time>
      </trkpt>
      <trkpt lat="41.2375820" lon="-5.7104700">
        <ele>850.4</ele>
        <time>2021-10-14T10:12:47Z</time>
      </trkpt>
      <trkpt lat="41.2374950" lon="-5.7105240">
        <ele>851.6</ele>
        <time>2021-10-14T10:12:53Z</time>
      </trkpt>
      <trkpt lat="41.2374400" lon="-5.7105620">
        <ele>852.2</ele>
        <time>2021-10-14T10:12:57Z</time>
      </trkpt>
      <trkpt lat="41.2373870" lon="-5.7106020">
        <ele>852.6</ele>
        <time>2021-10-14T10:13:01Z</time>
      </trkpt>
      <trkpt lat="41.2373100" lon="-5.7106560">
        <ele>853.0</ele>
        <time>2021-10-14T10:13:06Z</time>
      </trkpt>
      <trkpt lat="41.2372430" lon="-5.7106970">
        <ele>853.6</ele>
        <time>2021-10-14T10:13:10Z</time>
      </trkpt>
      <trkpt lat="41.2372040" lon="-5.7107190">
        <ele>853.6</ele>
        <time>2021-10-14T10:13:12Z</time>
      </trkpt>
      <trkpt lat="41.2371860" lon="-5.7107300">
        <ele>853.8</ele>
        <time>2021-10-14T10:13:13Z</time>
      </trkpt>
      <trkpt lat="41.2371510" lon="-5.7107570">
        <ele>853.8</ele>
        <time>2021-10-14T10:13:15Z</time>
      </trkpt>
      <trkpt lat="41.2371010" lon="-5.7107910">
        <ele>853.8</ele>
        <time>2021-10-14T10:13:18Z</time>
      </trkpt>
      <trkpt lat="41.2370040" lon="-5.7108590">
        <ele>854.0</ele>
        <time>2021-10-14T10:13:23Z</time>
      </trkpt>
      <trkpt lat="41.2369650" lon="-5.7108890">
        <ele>854.2</ele>
        <time>2021-10-14T10:13:25Z</time>
      </trkpt>
      <trkpt lat="41.2368860" lon="-5.7109580">
        <ele>854.2</ele>
        <time>2021-10-14T10:13:29Z</time>
      </trkpt>
      <trkpt lat="41.2367760" lon="-5.7110650">
        <ele>854.4</ele>
        <time>2021-10-14T10:13:35Z</time>
      </trkpt>
      <trkpt lat="41.2367410" lon="-5.7111010">
        <ele>854.8</ele>
        <time>2021-10-14T10:13:37Z</time>
      </trkpt>
      <trkpt lat="41.2367060" lon="-5.7111460">
        <ele>854.8</ele>
        <time>2021-10-14T10:13:40Z</time>
      </trkpt>
      <trkpt lat="41.2364940" lon="-5.7113810">
        <ele>855.4</ele>
        <time>2021-10-14T10:13:51Z</time>
      </trkpt>
      <trkpt lat="41.2364230" lon="-5.7114600">
        <ele>855.8</ele>
        <time>2021-10-14T10:13:55Z</time>
      </trkpt>
      <trkpt lat="41.2363840" lon="-5.7114920">
        <ele>855.8</ele>
        <time>2021-10-14T10:13:58Z</time>
      </trkpt>
      <trkpt lat="41.2363260" lon="-5.7115480">
        <ele>856.0</ele>
        <time>2021-10-14T10:14:00Z</time>
      </trkpt>
      <trkpt lat="41.2362450" lon="-5.7116280">
        <ele>856.2</ele>
        <time>2021-10-14T10:14:04Z</time>
      </trkpt>
      <trkpt lat="41.2361560" lon="-5.7117050">
        <ele>856.2</ele>
        <time>2021-10-14T10:14:08Z</time>
      </trkpt>
      <trkpt lat="41.2360980" lon="-5.7117430">
        <ele>856.4</ele>
        <time>2021-10-14T10:14:10Z</time>
      </trkpt>
      <trkpt lat="41.2359280" lon="-5.7118370">
        <ele>856.4</ele>
        <time>2021-10-14T10:14:16Z</time>
      </trkpt>
      <trkpt lat="41.2358630" lon="-5.7118660">
        <ele>856.4</ele>
        <time>2021-10-14T10:14:18Z</time>
      </trkpt>
      <trkpt lat="41.2357990" lon="-5.7118880">
        <ele>856.6</ele>
        <time>2021-10-14T10:14:20Z</time>
      </trkpt>
      <trkpt lat="41.2356990" lon="-5.7119210">
        <ele>856.6</ele>
        <time>2021-10-14T10:14:23Z</time>
      </trkpt>
      <trkpt lat="41.2355920" lon="-5.7119530">
        <ele>856.8</ele>
        <time>2021-10-14T10:14:26Z</time>
      </trkpt>
      <trkpt lat="41.2354880" lon="-5.7119650">
        <ele>857.0</ele>
        <time>2021-10-14T10:14:30Z</time>
      </trkpt>
      <trkpt lat="41.2353300" lon="-5.7119780">
        <ele>857.0</ele>
        <time>2021-10-14T10:14:34Z</time>
      </trkpt>
      <trkpt lat="41.2352120" lon="-5.7119830">
        <ele>857.4</ele>
        <time>2021-10-14T10:14:39Z</time>
      </trkpt>
      <trkpt lat="41.2351300" lon="-5.7120100">
        <ele>857.8</ele>
        <time>2021-10-14T10:14:41Z</time>
      </trkpt>
      <trkpt lat="41.2351020" lon="-5.7120160">
        <ele>858.0</ele>
        <time>2021-10-14T10:14:42Z</time>
      </trkpt>
      <trkpt lat="41.2349490" lon="-5.7120660">
        <ele>858.4</ele>
        <time>2021-10-14T10:14:48Z</time>
      </trkpt>
      <trkpt lat="41.2348770" lon="-5.7121030">
        <ele>858.8</ele>
        <time>2021-10-14T10:14:51Z</time>
      </trkpt>
      <trkpt lat="41.2348550" lon="-5.7121190">
        <ele>858.8</ele>
        <time>2021-10-14T10:14:52Z</time>
      </trkpt>
      <trkpt lat="41.2347990" lon="-5.7121540">
        <ele>859.0</ele>
        <time>2021-10-14T10:14:55Z</time>
      </trkpt>
      <trkpt lat="41.2347290" lon="-5.7121880">
        <ele>859.2</ele>
        <time>2021-10-14T10:14:59Z</time>
      </trkpt>
      <trkpt lat="41.2346910" lon="-5.7121970">
        <ele>859.2</ele>
        <time>2021-10-14T10:15:01Z</time>
      </trkpt>
      <trkpt lat="41.2346550" lon="-5.7121830">
        <ele>859.2</ele>
        <time>2021-10-14T10:15:04Z</time>
      </trkpt>
      <trkpt lat="41.2346550" lon="-5.7121830">
        <ele>859.4</ele>
        <time>2021-10-14T10:15:07Z</time>
      </trkpt>
      <trkpt lat="41.2345840" lon="-5.7122390">
        <ele>859.4</ele>
        <time>2021-10-14T10:15:22Z</time>
      </trkpt>
      <trkpt lat="41.2345620" lon="-5.7122560">
        <ele>859.4</ele>
        <time>2021-10-14T10:15:23Z</time>
      </trkpt>
      <trkpt lat="41.2343610" lon="-5.7124250">
        <ele>859.4</ele>
        <time>2021-10-14T10:15:31Z</time>
      </trkpt>
      <trkpt lat="41.2342210" lon="-5.7125400">
        <ele>860.0</ele>
        <time>2021-10-14T10:15:36Z</time>
      </trkpt>
      <trkpt lat="41.2340840" lon="-5.7126550">
        <ele>860.2</ele>
        <time>2021-10-14T10:15:41Z</time>
      </trkpt>
      <trkpt lat="41.2340590" lon="-5.7126750">
        <ele>860.2</ele>
        <time>2021-10-14T10:15:42Z</time>
      </trkpt>
      <trkpt lat="41.2339130" lon="-5.7127740">
        <ele>860.4</ele>
        <time>2021-10-14T10:15:48Z</time>
      </trkpt>
      <trkpt lat="41.2337040" lon="-5.7129050">
        <ele>860.8</ele>
        <time>2021-10-14T10:15:55Z</time>
      </trkpt>
      <trkpt lat="41.2335720" lon="-5.7129640">
        <ele>861.0</ele>
        <time>2021-10-14T10:15:59Z</time>
      </trkpt>
      <trkpt lat="41.2335350" lon="-5.7129790">
        <ele>861.0</ele>
        <time>2021-10-14T10:16:00Z</time>
      </trkpt>
      <trkpt lat="41.2335030" lon="-5.7129880">
        <ele>861.0</ele>
        <time>2021-10-14T10:16:01Z</time>
      </trkpt>
      <trkpt lat="41.2332270" lon="-5.7131050">
        <ele>861.4</ele>
        <time>2021-10-14T10:16:08Z</time>
      </trkpt>
      <trkpt lat="41.2331870" lon="-5.7131200">
        <ele>861.4</ele>
        <time>2021-10-14T10:16:09Z</time>
      </trkpt>
      <trkpt lat="41.2330250" lon="-5.7131930">
        <ele>861.4</ele>
        <time>2021-10-14T10:16:13Z</time>
      </trkpt>
      <trkpt lat="41.2329840" lon="-5.7132130">
        <ele>861.4</ele>
        <time>2021-10-14T10:16:14Z</time>
      </trkpt>
      <trkpt lat="41.2329430" lon="-5.7132360">
        <ele>861.2</ele>
        <time>2021-10-14T10:16:15Z</time>
      </trkpt>
      <trkpt lat="41.2329020" lon="-5.7132580">
        <ele>861.2</ele>
        <time>2021-10-14T10:16:16Z</time>
      </trkpt>
      <trkpt lat="41.2327890" lon="-5.7133290">
        <ele>861.2</ele>
        <time>2021-10-14T10:16:19Z</time>
      </trkpt>
      <trkpt lat="41.2327040" lon="-5.7133880">
        <ele>861.2</ele>
        <time>2021-10-14T10:16:21Z</time>
      </trkpt>
      <trkpt lat="41.2325900" lon="-5.7134730">
        <ele>861.2</ele>
        <time>2021-10-14T10:16:24Z</time>
      </trkpt>
      <trkpt lat="41.2324680" lon="-5.7135510">
        <ele>861.2</ele>
        <time>2021-10-14T10:16:27Z</time>
      </trkpt>
      <trkpt lat="41.2323870" lon="-5.7136090">
        <ele>861.4</ele>
        <time>2021-10-14T10:16:30Z</time>
      </trkpt>
      <trkpt lat="41.2321520" lon="-5.7137760">
        <ele>861.4</ele>
        <time>2021-10-14T10:16:35Z</time>
      </trkpt>
      <trkpt lat="41.2320400" lon="-5.7138640">
        <ele>861.4</ele>
        <time>2021-10-14T10:16:38Z</time>
      </trkpt>
      <trkpt lat="41.2319280" lon="-5.7139470">
        <ele>861.4</ele>
        <time>2021-10-14T10:16:41Z</time>
      </trkpt>
      <trkpt lat="41.2318610" lon="-5.7140090">
        <ele>861.2</ele>
        <time>2021-10-14T10:16:43Z</time>
      </trkpt>
      <trkpt lat="41.2315790" lon="-5.7142130">
        <ele>861.4</ele>
        <time>2021-10-14T10:16:51Z</time>
      </trkpt>
      <trkpt lat="41.2314310" lon="-5.7143010">
        <ele>861.8</ele>
        <time>2021-10-14T10:16:55Z</time>
      </trkpt>
      <trkpt lat="41.2311960" lon="-5.7144280">
        <ele>861.8</ele>
        <time>2021-10-14T10:17:02Z</time>
      </trkpt>
      <trkpt lat="41.2310990" lon="-5.7144770">
        <ele>861.8</ele>
        <time>2021-10-14T10:17:05Z</time>
      </trkpt>
      <trkpt lat="41.2309890" lon="-5.7145580">
        <ele>861.8</ele>
        <time>2021-10-14T10:17:09Z</time>
      </trkpt>
      <trkpt lat="41.2309370" lon="-5.7146060">
        <ele>862.0</ele>
        <time>2021-10-14T10:17:13Z</time>
      </trkpt>
      <trkpt lat="41.2309190" lon="-5.7146340">
        <ele>862.0</ele>
        <time>2021-10-14T10:17:14Z</time>
      </trkpt>
      <trkpt lat="41.2309160" lon="-5.7146390">
        <ele>862.0</ele>
        <time>2021-10-14T10:17:18Z</time>
      </trkpt>
      <trkpt lat="41.2309070" lon="-5.7147230">
        <ele>861.6</ele>
        <time>2021-10-14T10:18:05Z</time>
      </trkpt>
      <trkpt lat="41.2308710" lon="-5.7149220">
        <ele>861.8</ele>
        <time>2021-10-14T10:18:12Z</time>
      </trkpt>
      <trkpt lat="41.2308240" lon="-5.7152220">
        <ele>862.2</ele>
        <time>2021-10-14T10:18:20Z</time>
      </trkpt>
      <trkpt lat="41.2308160" lon="-5.7152610">
        <ele>862.2</ele>
        <time>2021-10-14T10:18:21Z</time>
      </trkpt>
      <trkpt lat="41.2307570" lon="-5.7155520">
        <ele>862.2</ele>
        <time>2021-10-14T10:18:28Z</time>
      </trkpt>
      <trkpt lat="41.2307330" lon="-5.7156450">
        <ele>862.4</ele>
        <time>2021-10-14T10:18:30Z</time>
      </trkpt>
      <trkpt lat="41.2306360" lon="-5.7161150">
        <ele>862.8</ele>
        <time>2021-10-14T10:18:40Z</time>
      </trkpt>
      <trkpt lat="41.2305920" lon="-5.7163060">
        <ele>862.8</ele>
        <time>2021-10-14T10:18:44Z</time>
      </trkpt>
      <trkpt lat="41.2305670" lon="-5.7164370">
        <ele>863.0</ele>
        <time>2021-10-14T10:18:47Z</time>
      </trkpt>
      <trkpt lat="41.2305120" lon="-5.7167920">
        <ele>863.2</ele>
        <time>2021-10-14T10:18:54Z</time>
      </trkpt>
      <trkpt lat="41.2305060" lon="-5.7168400">
        <ele>863.2</ele>
        <time>2021-10-14T10:18:55Z</time>
      </trkpt>
      <trkpt lat="41.2304730" lon="-5.7169790">
        <ele>863.2</ele>
        <time>2021-10-14T10:18:58Z</time>
      </trkpt>
      <trkpt lat="41.2304180" lon="-5.7172260">
        <ele>863.2</ele>
        <time>2021-10-14T10:19:03Z</time>
      </trkpt>
      <trkpt lat="41.2303860" lon="-5.7173730">
        <ele>863.2</ele>
        <time>2021-10-14T10:19:06Z</time>
      </trkpt>
      <trkpt lat="41.2303610" lon="-5.7175220">
        <ele>863.2</ele>
        <time>2021-10-14T10:19:09Z</time>
      </trkpt>
      <trkpt lat="41.2302970" lon="-5.7178690">
        <ele>863.4</ele>
        <time>2021-10-14T10:19:16Z</time>
      </trkpt>
      <trkpt lat="41.2302530" lon="-5.7181730">
        <ele>863.4</ele>
        <time>2021-10-14T10:19:22Z</time>
      </trkpt>
      <trkpt lat="41.2302180" lon="-5.7184830">
        <ele>863.6</ele>
        <time>2021-10-14T10:19:28Z</time>
      </trkpt>
      <trkpt lat="41.2301740" lon="-5.7186920">
        <ele>863.6</ele>
        <time>2021-10-14T10:19:32Z</time>
      </trkpt>
      <trkpt lat="41.2301530" lon="-5.7187950">
        <ele>863.8</ele>
        <time>2021-10-14T10:19:34Z</time>
      </trkpt>
      <trkpt lat="41.2300800" lon="-5.7192190">
        <ele>864.2</ele>
        <time>2021-10-14T10:19:43Z</time>
      </trkpt>
      <trkpt lat="41.2300680" lon="-5.7192650">
        <ele>864.2</ele>
        <time>2021-10-14T10:19:44Z</time>
      </trkpt>
      <trkpt lat="41.2300560" lon="-5.7193080">
        <ele>864.2</ele>
        <time>2021-10-14T10:19:45Z</time>
      </trkpt>
      <trkpt lat="41.2299950" lon="-5.7195340">
        <ele>864.6</ele>
        <time>2021-10-14T10:19:50Z</time>
      </trkpt>
      <trkpt lat="41.2299230" lon="-5.7198500">
        <ele>864.8</ele>
        <time>2021-10-14T10:19:57Z</time>
      </trkpt>
      <trkpt lat="41.2298800" lon="-5.7200810">
        <ele>865.0</ele>
        <time>2021-10-14T10:20:02Z</time>
      </trkpt>
      <trkpt lat="41.2298220" lon="-5.7203600">
        <ele>865.0</ele>
        <time>2021-10-14T10:20:08Z</time>
      </trkpt>
      <trkpt lat="41.2298030" lon="-5.7205140">
        <ele>865.0</ele>
        <time>2021-10-14T10:20:11Z</time>
      </trkpt>
      <trkpt lat="41.2297390" lon="-5.7209010">
        <ele>864.2</ele>
        <time>2021-10-14T10:20:18Z</time>
      </trkpt>
      <trkpt lat="41.2297200" lon="-5.7210420">
        <ele>863.0</ele>
        <time>2021-10-14T10:20:21Z</time>
      </trkpt>
      <trkpt lat="41.2297020" lon="-5.7211740">
        <ele>861.8</ele>
        <time>2021-10-14T10:20:24Z</time>
      </trkpt>
      <trkpt lat="41.2296940" lon="-5.7212200">
        <ele>861.2</ele>
        <time>2021-10-14T10:20:25Z</time>
      </trkpt>
      <trkpt lat="41.2296770" lon="-5.7213270">
        <ele>860.2</ele>
        <time>2021-10-14T10:20:27Z</time>
      </trkpt>
      <trkpt lat="41.2296570" lon="-5.7214850">
        <ele>858.6</ele>
        <time>2021-10-14T10:20:30Z</time>
      </trkpt>
      <trkpt lat="41.2296350" lon="-5.7216670">
        <ele>857.6</ele>
        <time>2021-10-14T10:20:33Z</time>
      </trkpt>
      <trkpt lat="41.2296260" lon="-5.7217230">
        <ele>857.2</ele>
        <time>2021-10-14T10:20:34Z</time>
      </trkpt>
      <trkpt lat="41.2296130" lon="-5.7218190">
        <ele>856.4</ele>
        <time>2021-10-14T10:20:36Z</time>
      </trkpt>
      <trkpt lat="41.2295950" lon="-5.7219250">
        <ele>855.6</ele>
        <time>2021-10-14T10:20:39Z</time>
      </trkpt>
      <trkpt lat="41.2295860" lon="-5.7219880">
        <ele>855.2</ele>
        <time>2021-10-14T10:20:41Z</time>
      </trkpt>
      <trkpt lat="41.2295530" lon="-5.7221350">
        <ele>855.2</ele>
        <time>2021-10-14T10:20:46Z</time>
      </trkpt>
      <trkpt lat="41.2295130" lon="-5.7223440">
        <ele>855.4</ele>
        <time>2021-10-14T10:20:54Z</time>
      </trkpt>
      <trkpt lat="41.2294950" lon="-5.7224370">
        <ele>856.2</ele>
        <time>2021-10-14T10:21:00Z</time>
      </trkpt>
      <trkpt lat="41.2294930" lon="-5.7224400">
        <ele>856.4</ele>
        <time>2021-10-14T10:21:01Z</time>
      </trkpt>
      <trkpt lat="41.2294930" lon="-5.7224400">
        <ele>856.4</ele>
        <time>2021-10-14T10:21:02Z</time>
      </trkpt>
      <trkpt lat="41.2294310" lon="-5.7228230">
        <ele>857.8</ele>
        <time>2021-10-14T10:21:51Z</time>
      </trkpt>
      <trkpt lat="41.2294290" lon="-5.7228410">
        <ele>858.0</ele>
        <time>2021-10-14T10:21:52Z</time>
      </trkpt>
      <trkpt lat="41.2294270" lon="-5.7228600">
        <ele>858.0</ele>
        <time>2021-10-14T10:21:53Z</time>
      </trkpt>
      <trkpt lat="41.2293980" lon="-5.7230320">
        <ele>858.4</ele>
        <time>2021-10-14T10:22:04Z</time>
      </trkpt>
      <trkpt lat="41.2293840" lon="-5.7230750">
        <ele>858.8</ele>
        <time>2021-10-14T10:22:07Z</time>
      </trkpt>
      <trkpt lat="41.2293470" lon="-5.7232220">
        <ele>859.0</ele>
        <time>2021-10-14T10:22:15Z</time>
      </trkpt>
      <trkpt lat="41.2293270" lon="-5.7233450">
        <ele>859.4</ele>
        <time>2021-10-14T10:22:24Z</time>
      </trkpt>
      <trkpt lat="41.2293120" lon="-5.7234400">
        <ele>859.8</ele>
        <time>2021-10-14T10:22:30Z</time>
      </trkpt>
      <trkpt lat="41.2292990" lon="-5.7235100">
        <ele>860.0</ele>
        <time>2021-10-14T10:22:34Z</time>
      </trkpt>
      <trkpt lat="41.2292820" lon="-5.7236420">
        <ele>860.4</ele>
        <time>2021-10-14T10:22:43Z</time>
      </trkpt>
      <trkpt lat="41.2292700" lon="-5.7237000">
        <ele>861.0</ele>
        <time>2021-10-14T10:22:57Z</time>
      </trkpt>
      <trkpt lat="41.2292640" lon="-5.7237320">
        <ele>861.2</ele>
        <time>2021-10-14T10:22:59Z</time>
      </trkpt>
      <trkpt lat="41.2292520" lon="-5.7237970">
        <ele>861.0</ele>
        <time>2021-10-14T10:23:03Z</time>
      </trkpt>
      <trkpt lat="41.2292430" lon="-5.7238250">
        <ele>861.2</ele>
        <time>2021-10-14T10:23:05Z</time>
      </trkpt>
      <trkpt lat="41.2292290" lon="-5.7239070">
        <ele>861.4</ele>
        <time>2021-10-14T10:23:11Z</time>
      </trkpt>
      <trkpt lat="41.2292240" lon="-5.7239410">
        <ele>861.8</ele>
        <time>2021-10-14T10:23:14Z</time>
      </trkpt>
      <trkpt lat="41.2292000" lon="-5.7240620">
        <ele>861.8</ele>
        <time>2021-10-14T10:23:23Z</time>
      </trkpt>
      <trkpt lat="41.2291860" lon="-5.7241470">
        <ele>862.0</ele>
        <time>2021-10-14T10:23:28Z</time>
      </trkpt>
      <trkpt lat="41.2291730" lon="-5.7242020">
        <ele>862.0</ele>
        <time>2021-10-14T10:23:32Z</time>
      </trkpt>
      <trkpt lat="41.2291700" lon="-5.7242140">
        <ele>862.2</ele>
        <time>2021-10-14T10:23:33Z</time>
      </trkpt>
      <trkpt lat="41.2291650" lon="-5.7242350">
        <ele>862.4</ele>
        <time>2021-10-14T10:23:38Z</time>
      </trkpt>
      <trkpt lat="41.2291850" lon="-5.7240930">
        <ele>862.2</ele>
        <time>2021-10-14T10:28:40Z</time>
      </trkpt>
      <trkpt lat="41.2291880" lon="-5.7240690">
        <ele>862.2</ele>
        <time>2021-10-14T10:28:41Z</time>
      </trkpt>
      <trkpt lat="41.2292290" lon="-5.7238980">
        <ele>862.0</ele>
        <time>2021-10-14T10:28:51Z</time>
      </trkpt>
      <trkpt lat="41.2292680" lon="-5.7237130">
        <ele>861.6</ele>
        <time>2021-10-14T10:29:01Z</time>
      </trkpt>
      <trkpt lat="41.2292730" lon="-5.7236670">
        <ele>861.2</ele>
        <time>2021-10-14T10:29:05Z</time>
      </trkpt>
      <trkpt lat="41.2292810" lon="-5.7236250">
        <ele>861.2</ele>
        <time>2021-10-14T10:29:07Z</time>
      </trkpt>
      <trkpt lat="41.2293240" lon="-5.7233870">
        <ele>860.8</ele>
        <time>2021-10-14T10:29:14Z</time>
      </trkpt>
      <trkpt lat="41.2293780" lon="-5.7230900">
        <ele>860.4</ele>
        <time>2021-10-14T10:29:21Z</time>
      </trkpt>
      <trkpt lat="41.2293990" lon="-5.7229950">
        <ele>860.2</ele>
        <time>2021-10-14T10:29:23Z</time>
      </trkpt>
      <trkpt lat="41.2294520" lon="-5.7226920">
        <ele>859.6</ele>
        <time>2021-10-14T10:29:29Z</time>
      </trkpt>
      <trkpt lat="41.2294610" lon="-5.7226390">
        <ele>859.2</ele>
        <time>2021-10-14T10:29:30Z</time>
      </trkpt>
      <trkpt lat="41.2295020" lon="-5.7224400">
        <ele>858.0</ele>
        <time>2021-10-14T10:29:34Z</time>
      </trkpt>
      <trkpt lat="41.2295360" lon="-5.7222840">
        <ele>857.2</ele>
        <time>2021-10-14T10:29:37Z</time>
      </trkpt>
      <trkpt lat="41.2295450" lon="-5.7222320">
        <ele>857.0</ele>
        <time>2021-10-14T10:29:38Z</time>
      </trkpt>
      <trkpt lat="41.2296210" lon="-5.7218550">
        <ele>856.4</ele>
        <time>2021-10-14T10:29:45Z</time>
      </trkpt>
      <trkpt lat="41.2296310" lon="-5.7217640">
        <ele>856.4</ele>
        <time>2021-10-14T10:29:47Z</time>
      </trkpt>
      <trkpt lat="41.2296480" lon="-5.7216100">
        <ele>855.8</ele>
        <time>2021-10-14T10:29:51Z</time>
      </trkpt>
      <trkpt lat="41.2296540" lon="-5.7215540">
        <ele>855.8</ele>
        <time>2021-10-14T10:29:53Z</time>
      </trkpt>
      <trkpt lat="41.2296760" lon="-5.7214090">
        <ele>855.8</ele>
        <time>2021-10-14T10:29:59Z</time>
      </trkpt>
      <trkpt lat="41.2297190" lon="-5.7212420">
        <ele>856.8</ele>
        <time>2021-10-14T10:30:07Z</time>
      </trkpt>
      <trkpt lat="41.2297220" lon="-5.7212200">
        <ele>857.0</ele>
        <time>2021-10-14T10:30:08Z</time>
      </trkpt>
      <trkpt lat="41.2297340" lon="-5.7210990">
        <ele>858.2</ele>
        <time>2021-10-14T10:30:14Z</time>
      </trkpt>
      <trkpt lat="41.2297350" lon="-5.7210830">
        <ele>858.2</ele>
        <time>2021-10-14T10:30:15Z</time>
      </trkpt>
      <trkpt lat="41.2297350" lon="-5.7210730">
        <ele>858.8</ele>
        <time>2021-10-14T10:30:18Z</time>
      </trkpt>
      <trkpt lat="41.2297590" lon="-5.7209450">
        <ele>859.8</ele>
        <time>2021-10-14T10:30:26Z</time>
      </trkpt>
      <trkpt lat="41.2297630" lon="-5.7209150">
        <ele>860.0</ele>
        <time>2021-10-14T10:30:28Z</time>
      </trkpt>
      <trkpt lat="41.2297690" lon="-5.7208710">
        <ele>860.2</ele>
        <time>2021-10-14T10:30:31Z</time>
      </trkpt>
      <trkpt lat="41.2297730" lon="-5.7208260">
        <ele>860.4</ele>
        <time>2021-10-14T10:30:34Z</time>
      </trkpt>
      <trkpt lat="41.2297760" lon="-5.7207980">
        <ele>860.8</ele>
        <time>2021-10-14T10:30:36Z</time>
      </trkpt>
      <trkpt lat="41.2297760" lon="-5.7207830">
        <ele>861.0</ele>
        <time>2021-10-14T10:30:37Z</time>
      </trkpt>
      <trkpt lat="41.2297750" lon="-5.7207310">
        <ele>861.4</ele>
        <time>2021-10-14T10:30:40Z</time>
      </trkpt>
      <trkpt lat="41.2297820" lon="-5.7206830">
        <ele>861.8</ele>
        <time>2021-10-14T10:30:43Z</time>
      </trkpt>
      <trkpt lat="41.2297850" lon="-5.7206530">
        <ele>862.2</ele>
        <time>2021-10-14T10:30:45Z</time>
      </trkpt>
      <trkpt lat="41.2297870" lon="-5.7206260">
        <ele>862.6</ele>
        <time>2021-10-14T10:30:47Z</time>
      </trkpt>
      <trkpt lat="41.2298070" lon="-5.7205130">
        <ele>863.4</ele>
        <time>2021-10-14T10:30:54Z</time>
      </trkpt>
      <trkpt lat="41.2298170" lon="-5.7204520">
        <ele>863.8</ele>
        <time>2021-10-14T10:30:58Z</time>
      </trkpt>
      <trkpt lat="41.2298180" lon="-5.7204400">
        <ele>863.8</ele>
        <time>2021-10-14T10:31:00Z</time>
      </trkpt>
      <trkpt lat="41.2298210" lon="-5.7204110">
        <ele>863.8</ele>
        <time>2021-10-14T10:31:02Z</time>
      </trkpt>
      <trkpt lat="41.2298400" lon="-5.7202950">
        <ele>864.2</ele>
        <time>2021-10-14T10:31:07Z</time>
      </trkpt>
      <trkpt lat="41.2298530" lon="-5.7202310">
        <ele>864.4</ele>
        <time>2021-10-14T10:31:10Z</time>
      </trkpt>
      <trkpt lat="41.2298660" lon="-5.7201510">
        <ele>864.6</ele>
        <time>2021-10-14T10:31:14Z</time>
      </trkpt>
      <trkpt lat="41.2298690" lon="-5.7201120">
        <ele>864.8</ele>
        <time>2021-10-14T10:31:16Z</time>
      </trkpt>
      <trkpt lat="41.2298750" lon="-5.7200710">
        <ele>865.0</ele>
        <time>2021-10-14T10:31:18Z</time>
      </trkpt>
      <trkpt lat="41.2298830" lon="-5.7200490">
        <ele>865.0</ele>
        <time>2021-10-14T10:31:19Z</time>
      </trkpt>
      <trkpt lat="41.2299070" lon="-5.7199390">
        <ele>865.0</ele>
        <time>2021-10-14T10:31:23Z</time>
      </trkpt>
      <trkpt lat="41.2299220" lon="-5.7198680">
        <ele>865.0</ele>
        <time>2021-10-14T10:31:25Z</time>
      </trkpt>
      <trkpt lat="41.2299370" lon="-5.7197990">
        <ele>865.0</ele>
        <time>2021-10-14T10:31:27Z</time>
      </trkpt>
      <trkpt lat="41.2299670" lon="-5.7196530">
        <ele>865.0</ele>
        <time>2021-10-14T10:31:31Z</time>
      </trkpt>
      <trkpt lat="41.2300430" lon="-5.7193500">
        <ele>865.2</ele>
        <time>2021-10-14T10:31:39Z</time>
      </trkpt>
      <trkpt lat="41.2300750" lon="-5.7191630">
        <ele>865.2</ele>
        <time>2021-10-14T10:31:44Z</time>
      </trkpt>
      <trkpt lat="41.2300830" lon="-5.7191240">
        <ele>865.2</ele>
        <time>2021-10-14T10:31:45Z</time>
      </trkpt>
      <trkpt lat="41.2301090" lon="-5.7190060">
        <ele>865.0</ele>
        <time>2021-10-14T10:31:48Z</time>
      </trkpt>
      <trkpt lat="41.2301500" lon="-5.7187970">
        <ele>864.8</ele>
        <time>2021-10-14T10:31:53Z</time>
      </trkpt>
      <trkpt lat="41.2301870" lon="-5.7186050">
        <ele>864.6</ele>
        <time>2021-10-14T10:31:58Z</time>
      </trkpt>
      <trkpt lat="41.2302270" lon="-5.7183630">
        <ele>864.6</ele>
        <time>2021-10-14T10:32:04Z</time>
      </trkpt>
      <trkpt lat="41.2302850" lon="-5.7180240">
        <ele>864.6</ele>
        <time>2021-10-14T10:32:12Z</time>
      </trkpt>
      <trkpt lat="41.2303220" lon="-5.7177340">
        <ele>864.4</ele>
        <time>2021-10-14T10:32:18Z</time>
      </trkpt>
      <trkpt lat="41.2304040" lon="-5.7172990">
        <ele>864.2</ele>
        <time>2021-10-14T10:32:27Z</time>
      </trkpt>
      <trkpt lat="41.2304430" lon="-5.7170930">
        <ele>864.2</ele>
        <time>2021-10-14T10:32:31Z</time>
      </trkpt>
      <trkpt lat="41.2304900" lon="-5.7168770">
        <ele>864.2</ele>
        <time>2021-10-14T10:32:35Z</time>
      </trkpt>
      <trkpt lat="41.2304990" lon="-5.7168270">
        <ele>864.0</ele>
        <time>2021-10-14T10:32:36Z</time>
      </trkpt>
      <trkpt lat="41.2306060" lon="-5.7162240">
        <ele>863.8</ele>
        <time>2021-10-14T10:32:48Z</time>
      </trkpt>
      <trkpt lat="41.2306710" lon="-5.7159080">
        <ele>863.6</ele>
        <time>2021-10-14T10:32:54Z</time>
      </trkpt>
      <trkpt lat="41.2306920" lon="-5.7158030">
        <ele>863.6</ele>
        <time>2021-10-14T10:32:56Z</time>
      </trkpt>
      <trkpt lat="41.2307700" lon="-5.7154870">
        <ele>863.6</ele>
        <time>2021-10-14T10:33:02Z</time>
      </trkpt>
      <trkpt lat="41.2308080" lon="-5.7153380">
        <ele>863.4</ele>
        <time>2021-10-14T10:33:05Z</time>
      </trkpt>
      <trkpt lat="41.2308390" lon="-5.7151890">
        <ele>863.4</ele>
        <time>2021-10-14T10:33:08Z</time>
      </trkpt>
      <trkpt lat="41.2309250" lon="-5.7146830">
        <ele>862.6</ele>
        <time>2021-10-14T10:33:18Z</time>
      </trkpt>
      <trkpt lat="41.2309990" lon="-5.7145520">
        <ele>862.4</ele>
        <time>2021-10-14T10:33:21Z</time>
      </trkpt>
      <trkpt lat="41.2310370" lon="-5.7145190">
        <ele>862.2</ele>
        <time>2021-10-14T10:33:22Z</time>
      </trkpt>
      <trkpt lat="41.2310760" lon="-5.7144910">
        <ele>862.2</ele>
        <time>2021-10-14T10:33:23Z</time>
      </trkpt>
      <trkpt lat="41.2312880" lon="-5.7143740">
        <ele>861.8</ele>
        <time>2021-10-14T10:33:28Z</time>
      </trkpt>
      <trkpt lat="41.2317170" lon="-5.7141170">
        <ele>861.4</ele>
        <time>2021-10-14T10:33:38Z</time>
      </trkpt>
      <trkpt lat="41.2317600" lon="-5.7140870">
        <ele>861.4</ele>
        <time>2021-10-14T10:33:39Z</time>
      </trkpt>
      <trkpt lat="41.2320400" lon="-5.7138650">
        <ele>861.2</ele>
        <time>2021-10-14T10:33:46Z</time>
      </trkpt>
      <trkpt lat="41.2320820" lon="-5.7138280">
        <ele>861.2</ele>
        <time>2021-10-14T10:33:47Z</time>
      </trkpt>
      <trkpt lat="41.2323800" lon="-5.7136080">
        <ele>861.0</ele>
        <time>2021-10-14T10:33:54Z</time>
      </trkpt>
      <trkpt lat="41.2325870" lon="-5.7134640">
        <ele>861.0</ele>
        <time>2021-10-14T10:33:59Z</time>
      </trkpt>
      <trkpt lat="41.2326670" lon="-5.7134020">
        <ele>860.8</ele>
        <time>2021-10-14T10:34:01Z</time>
      </trkpt>
      <trkpt lat="41.2327440" lon="-5.7133400">
        <ele>860.8</ele>
        <time>2021-10-14T10:34:03Z</time>
      </trkpt>
      <trkpt lat="41.2329030" lon="-5.7132370">
        <ele>860.8</ele>
        <time>2021-10-14T10:34:07Z</time>
      </trkpt>
      <trkpt lat="41.2329790" lon="-5.7131970">
        <ele>861.0</ele>
        <time>2021-10-14T10:34:09Z</time>
      </trkpt>
      <trkpt lat="41.2330540" lon="-5.7131590">
        <ele>861.0</ele>
        <time>2021-10-14T10:34:11Z</time>
      </trkpt>
      <trkpt lat="41.2331330" lon="-5.7131210">
        <ele>861.0</ele>
        <time>2021-10-14T10:34:13Z</time>
      </trkpt>
      <trkpt lat="41.2333760" lon="-5.7130210">
        <ele>860.8</ele>
        <time>2021-10-14T10:34:19Z</time>
      </trkpt>
      <trkpt lat="41.2334620" lon="-5.7129900">
        <ele>860.8</ele>
        <time>2021-10-14T10:34:21Z</time>
      </trkpt>
      <trkpt lat="41.2337050" lon="-5.7128780">
        <ele>860.8</ele>
        <time>2021-10-14T10:34:27Z</time>
      </trkpt>
      <trkpt lat="41.2338230" lon="-5.7128180">
        <ele>860.8</ele>
        <time>2021-10-14T10:34:30Z</time>
      </trkpt>
      <trkpt lat="41.2338570" lon="-5.7127940">
        <ele>860.8</ele>
        <time>2021-10-14T10:34:31Z</time>
      </trkpt>
      <trkpt lat="41.2339580" lon="-5.7127240">
        <ele>860.8</ele>
        <time>2021-10-14T10:34:34Z</time>
      </trkpt>
      <trkpt lat="41.2340200" lon="-5.7126750">
        <ele>860.8</ele>
        <time>2021-10-14T10:34:36Z</time>
      </trkpt>
      <trkpt lat="41.2341410" lon="-5.7125820">
        <ele>860.6</ele>
        <time>2021-10-14T10:34:40Z</time>
      </trkpt>
      <trkpt lat="41.2342980" lon="-5.7124520">
        <ele>860.4</ele>
        <time>2021-10-14T10:34:45Z</time>
      </trkpt>
      <trkpt lat="41.2343970" lon="-5.7123800">
        <ele>860.4</ele>
        <time>2021-10-14T10:34:48Z</time>
      </trkpt>
      <trkpt lat="41.2344300" lon="-5.7123570">
        <ele>860.4</ele>
        <time>2021-10-14T10:34:49Z</time>
      </trkpt>
      <trkpt lat="41.2344930" lon="-5.7123040">
        <ele>860.2</ele>
        <time>2021-10-14T10:34:51Z</time>
      </trkpt>
      <trkpt lat="41.2346040" lon="-5.7122130">
        <ele>860.2</ele>
        <time>2021-10-14T10:34:55Z</time>
      </trkpt>
      <trkpt lat="41.2346620" lon="-5.7121760">
        <ele>860.0</ele>
        <time>2021-10-14T10:34:59Z</time>
      </trkpt>
      <trkpt lat="41.2346620" lon="-5.7121760">
        <ele>859.8</ele>
        <time>2021-10-14T10:35:00Z</time>
      </trkpt>
      <trkpt lat="41.2346760" lon="-5.7121250">
        <ele>859.4</ele>
        <time>2021-10-14T10:35:42Z</time>
      </trkpt>
      <trkpt lat="41.2346910" lon="-5.7120460">
        <ele>859.2</ele>
        <time>2021-10-14T10:35:44Z</time>
      </trkpt>
      <trkpt lat="41.2347320" lon="-5.7119030">
        <ele>859.2</ele>
        <time>2021-10-14T10:35:47Z</time>
      </trkpt>
      <trkpt lat="41.2347650" lon="-5.7118000">
        <ele>859.2</ele>
        <time>2021-10-14T10:35:49Z</time>
      </trkpt>
      <trkpt lat="41.2348000" lon="-5.7116930">
        <ele>859.0</ele>
        <time>2021-10-14T10:35:51Z</time>
      </trkpt>
      <trkpt lat="41.2348500" lon="-5.7115230">
        <ele>858.8</ele>
        <time>2021-10-14T10:35:54Z</time>
      </trkpt>
      <trkpt lat="41.2348880" lon="-5.7114080">
        <ele>858.8</ele>
        <time>2021-10-14T10:35:56Z</time>
      </trkpt>
      <trkpt lat="41.2350520" lon="-5.7108690">
        <ele>858.2</ele>
        <time>2021-10-14T10:36:05Z</time>
      </trkpt>
      <trkpt lat="41.2350860" lon="-5.7107560">
        <ele>858.2</ele>
        <time>2021-10-14T10:36:07Z</time>
      </trkpt>
      <trkpt lat="41.2352210" lon="-5.7102960">
        <ele>857.8</ele>
        <time>2021-10-14T10:36:15Z</time>
      </trkpt>
      <trkpt lat="41.2352350" lon="-5.7102420">
        <ele>857.6</ele>
        <time>2021-10-14T10:36:16Z</time>
      </trkpt>
      <trkpt lat="41.2352930" lon="-5.7100370">
        <ele>857.6</ele>
        <time>2021-10-14T10:36:20Z</time>
      </trkpt>
      <trkpt lat="41.2354370" lon="-5.7095390">
        <ele>857.0</ele>
        <time>2021-10-14T10:36:29Z</time>
      </trkpt>
      <trkpt lat="41.2356230" lon="-5.7089400">
        <ele>856.8</ele>
        <time>2021-10-14T10:36:40Z</time>
      </trkpt>
      <trkpt lat="41.2356450" lon="-5.7088780">
        <ele>856.8</ele>
        <time>2021-10-14T10:36:41Z</time>
      </trkpt>
      <trkpt lat="41.2357120" lon="-5.7086530">
        <ele>856.4</ele>
        <time>2021-10-14T10:36:45Z</time>
      </trkpt>
      <trkpt lat="41.2357400" lon="-5.7085530">
        <ele>856.2</ele>
        <time>2021-10-14T10:36:47Z</time>
      </trkpt>
      <trkpt lat="41.2358180" lon="-5.7082680">
        <ele>856.0</ele>
        <time>2021-10-14T10:36:52Z</time>
      </trkpt>
      <trkpt lat="41.2359170" lon="-5.7079560">
        <ele>855.8</ele>
        <time>2021-10-14T10:36:58Z</time>
      </trkpt>
      <trkpt lat="41.2360420" lon="-5.7074860">
        <ele>855.4</ele>
        <time>2021-10-14T10:37:06Z</time>
      </trkpt>
      <trkpt lat="41.2361060" lon="-5.7072610">
        <ele>855.0</ele>
        <time>2021-10-14T10:37:10Z</time>
      </trkpt>
      <trkpt lat="41.2361150" lon="-5.7072190">
        <ele>854.8</ele>
        <time>2021-10-14T10:37:11Z</time>
      </trkpt>
      <trkpt lat="41.2361530" lon="-5.7070440">
        <ele>854.6</ele>
        <time>2021-10-14T10:37:14Z</time>
      </trkpt>
      <trkpt lat="41.2361870" lon="-5.7069430">
        <ele>854.4</ele>
        <time>2021-10-14T10:37:16Z</time>
      </trkpt>
      <trkpt lat="41.2362320" lon="-5.7068390">
        <ele>854.4</ele>
        <time>2021-10-14T10:37:18Z</time>
      </trkpt>
      <trkpt lat="41.2362860" lon="-5.7067420">
        <ele>854.2</ele>
        <time>2021-10-14T10:37:20Z</time>
      </trkpt>
      <trkpt lat="41.2363840" lon="-5.7065600">
        <ele>854.2</ele>
        <time>2021-10-14T10:37:24Z</time>
      </trkpt>
      <trkpt lat="41.2363980" lon="-5.7064730">
        <ele>854.0</ele>
        <time>2021-10-14T10:37:26Z</time>
      </trkpt>
      <trkpt lat="41.2364010" lon="-5.7063620">
        <ele>853.8</ele>
        <time>2021-10-14T10:37:28Z</time>
      </trkpt>
      <trkpt lat="41.2363980" lon="-5.7062960">
        <ele>853.8</ele>
        <time>2021-10-14T10:37:29Z</time>
      </trkpt>
      <trkpt lat="41.2363910" lon="-5.7061440">
        <ele>853.8</ele>
        <time>2021-10-14T10:37:32Z</time>
      </trkpt>
      <trkpt lat="41.2363920" lon="-5.7060820">
        <ele>853.8</ele>
        <time>2021-10-14T10:37:33Z</time>
      </trkpt>
      <trkpt lat="41.2364030" lon="-5.7059910">
        <ele>853.8</ele>
        <time>2021-10-14T10:37:35Z</time>
      </trkpt>
      <trkpt lat="41.2364360" lon="-5.7058820">
        <ele>853.8</ele>
        <time>2021-10-14T10:37:38Z</time>
      </trkpt>
      <trkpt lat="41.2364370" lon="-5.7057940">
        <ele>853.6</ele>
        <time>2021-10-14T10:37:42Z</time>
      </trkpt>
      <trkpt lat="41.2363490" lon="-5.7057470">
        <ele>853.4</ele>
        <time>2021-10-14T10:37:47Z</time>
      </trkpt>
      <trkpt lat="41.2362650" lon="-5.7057280">
        <ele>853.2</ele>
        <time>2021-10-14T10:37:50Z</time>
      </trkpt>
      <trkpt lat="41.2361980" lon="-5.7057140">
        <ele>853.2</ele>
        <time>2021-10-14T10:37:52Z</time>
      </trkpt>
      <trkpt lat="41.2361010" lon="-5.7056900">
        <ele>852.8</ele>
        <time>2021-10-14T10:37:55Z</time>
      </trkpt>
      <trkpt lat="41.2360710" lon="-5.7056810">
        <ele>852.6</ele>
        <time>2021-10-14T10:37:56Z</time>
      </trkpt>
      <trkpt lat="41.2360150" lon="-5.7056690">
        <ele>852.6</ele>
        <time>2021-10-14T10:37:58Z</time>
      </trkpt>
      <trkpt lat="41.2358160" lon="-5.7056200">
        <ele>852.4</ele>
        <time>2021-10-14T10:38:04Z</time>
      </trkpt>
      <trkpt lat="41.2355840" lon="-5.7056770">
        <ele>852.6</ele>
        <time>2021-10-14T10:38:12Z</time>
      </trkpt>
      <trkpt lat="41.2354100" lon="-5.7057170">
        <ele>853.2</ele>
        <time>2021-10-14T10:38:18Z</time>
      </trkpt>
      <trkpt lat="41.2353150" lon="-5.7057470">
        <ele>853.4</ele>
        <time>2021-10-14T10:38:22Z</time>
      </trkpt>
      <trkpt lat="41.2351740" lon="-5.7058000">
        <ele>853.8</ele>
        <time>2021-10-14T10:38:27Z</time>
      </trkpt>
      <trkpt lat="41.2350690" lon="-5.7058190">
        <ele>853.8</ele>
        <time>2021-10-14T10:38:30Z</time>
      </trkpt>
      <trkpt lat="41.2349630" lon="-5.7058380">
        <ele>854.0</ele>
        <time>2021-10-14T10:38:33Z</time>
      </trkpt>
      <trkpt lat="41.2347940" lon="-5.7058680">
        <ele>854.2</ele>
        <time>2021-10-14T10:38:38Z</time>
      </trkpt>
      <trkpt lat="41.2346020" lon="-5.7058970">
        <ele>854.6</ele>
        <time>2021-10-14T10:38:44Z</time>
      </trkpt>
      <trkpt lat="41.2345730" lon="-5.7059020">
        <ele>854.8</ele>
        <time>2021-10-14T10:38:45Z</time>
      </trkpt>
      <trkpt lat="41.2345380" lon="-5.7059050">
        <ele>854.8</ele>
        <time>2021-10-14T10:38:46Z</time>
      </trkpt>
      <trkpt lat="41.2342800" lon="-5.7059230">
        <ele>855.0</ele>
        <time>2021-10-14T10:38:54Z</time>
      </trkpt>
      <trkpt lat="41.2341980" lon="-5.7059190">
        <ele>855.0</ele>
        <time>2021-10-14T10:38:56Z</time>
      </trkpt>
      <trkpt lat="41.2340290" lon="-5.7059320">
        <ele>854.8</ele>
        <time>2021-10-14T10:39:00Z</time>
      </trkpt>
      <trkpt lat="41.2339910" lon="-5.7059300">
        <ele>854.8</ele>
        <time>2021-10-14T10:39:01Z</time>
      </trkpt>
      <trkpt lat="41.2338620" lon="-5.7059290">
        <ele>854.6</ele>
        <time>2021-10-14T10:39:04Z</time>
      </trkpt>
      <trkpt lat="41.2336430" lon="-5.7059550">
        <ele>853.8</ele>
        <time>2021-10-14T10:39:08Z</time>
      </trkpt>
      <trkpt lat="41.2335690" lon="-5.7059630">
        <ele>853.4</ele>
        <time>2021-10-14T10:39:09Z</time>
      </trkpt>
      <trkpt lat="41.2333490" lon="-5.7059650">
        <ele>851.8</ele>
        <time>2021-10-14T10:39:12Z</time>
      </trkpt>
      <trkpt lat="41.2332850" lon="-5.7059660">
        <ele>851.4</ele>
        <time>2021-10-14T10:39:13Z</time>
      </trkpt>
      <trkpt lat="41.2332300" lon="-5.7059680">
        <ele>850.4</ele>
        <time>2021-10-14T10:39:14Z</time>
      </trkpt>
      <trkpt lat="41.2330970" lon="-5.7059730">
        <ele>849.6</ele>
        <time>2021-10-14T10:39:17Z</time>
      </trkpt>
      <trkpt lat="41.2329450" lon="-5.7059870">
        <ele>849.8</ele>
        <time>2021-10-14T10:39:21Z</time>
      </trkpt>
      <trkpt lat="41.2328360" lon="-5.7060070">
        <ele>850.8</ele>
        <time>2021-10-14T10:39:24Z</time>
      </trkpt>
      <trkpt lat="41.2327260" lon="-5.7060290">
        <ele>851.4</ele>
        <time>2021-10-14T10:39:27Z</time>
      </trkpt>
      <trkpt lat="41.2324990" lon="-5.7060810">
        <ele>852.0</ele>
        <time>2021-10-14T10:39:32Z</time>
      </trkpt>
      <trkpt lat="41.2321850" lon="-5.7061490">
        <ele>851.6</ele>
        <time>2021-10-14T10:39:37Z</time>
      </trkpt>
      <trkpt lat="41.2319180" lon="-5.7061930">
        <ele>850.2</ele>
        <time>2021-10-14T10:39:41Z</time>
      </trkpt>
      <trkpt lat="41.2317410" lon="-5.7062160">
        <ele>849.4</ele>
        <time>2021-10-14T10:39:44Z</time>
      </trkpt>
      <trkpt lat="41.2316380" lon="-5.7062150">
        <ele>849.2</ele>
        <time>2021-10-14T10:39:46Z</time>
      </trkpt>
      <trkpt lat="41.2315020" lon="-5.7062030">
        <ele>849.0</ele>
        <time>2021-10-14T10:39:49Z</time>
      </trkpt>
      <trkpt lat="41.2312310" lon="-5.7061550">
        <ele>849.6</ele>
        <time>2021-10-14T10:39:55Z</time>
      </trkpt>
      <trkpt lat="41.2309680" lon="-5.7061330">
        <ele>850.4</ele>
        <time>2021-10-14T10:40:02Z</time>
      </trkpt>
      <trkpt lat="41.2309360" lon="-5.7061280">
        <ele>850.6</ele>
        <time>2021-10-14T10:40:03Z</time>
      </trkpt>
      <trkpt lat="41.2308220" lon="-5.7061230">
        <ele>851.6</ele>
        <time>2021-10-14T10:40:07Z</time>
      </trkpt>
      <trkpt lat="41.2307670" lon="-5.7061210">
        <ele>852.0</ele>
        <time>2021-10-14T10:40:09Z</time>
      </trkpt>
      <trkpt lat="41.2306600" lon="-5.7061230">
        <ele>852.8</ele>
        <time>2021-10-14T10:40:13Z</time>
      </trkpt>
      <trkpt lat="41.2304970" lon="-5.7061360">
        <ele>853.4</ele>
        <time>2021-10-14T10:40:19Z</time>
      </trkpt>
      <trkpt lat="41.2303970" lon="-5.7061450">
        <ele>854.0</ele>
        <time>2021-10-14T10:40:23Z</time>
      </trkpt>
      <trkpt lat="41.2302990" lon="-5.7061590">
        <ele>854.4</ele>
        <time>2021-10-14T10:40:27Z</time>
      </trkpt>
      <trkpt lat="41.2302500" lon="-5.7061650">
        <ele>854.6</ele>
        <time>2021-10-14T10:40:29Z</time>
      </trkpt>
      <trkpt lat="41.2301310" lon="-5.7061850">
        <ele>855.0</ele>
        <time>2021-10-14T10:40:34Z</time>
      </trkpt>
      <trkpt lat="41.2300830" lon="-5.7061910">
        <ele>855.2</ele>
        <time>2021-10-14T10:40:36Z</time>
      </trkpt>
      <trkpt lat="41.2300340" lon="-5.7061980">
        <ele>855.2</ele>
        <time>2021-10-14T10:40:38Z</time>
      </trkpt>
      <trkpt lat="41.2298390" lon="-5.7062300">
        <ele>855.8</ele>
        <time>2021-10-14T10:40:46Z</time>
      </trkpt>
      <trkpt lat="41.2297430" lon="-5.7062420">
        <ele>856.2</ele>
        <time>2021-10-14T10:40:50Z</time>
      </trkpt>
      <trkpt lat="41.2296970" lon="-5.7062470">
        <ele>856.4</ele>
        <time>2021-10-14T10:40:52Z</time>
      </trkpt>
      <trkpt lat="41.2296520" lon="-5.7062530">
        <ele>856.6</ele>
        <time>2021-10-14T10:40:54Z</time>
      </trkpt>
      <trkpt lat="41.2295310" lon="-5.7062650">
        <ele>857.2</ele>
        <time>2021-10-14T10:40:59Z</time>
      </trkpt>
      <trkpt lat="41.2294830" lon="-5.7062710">
        <ele>857.4</ele>
        <time>2021-10-14T10:41:01Z</time>
      </trkpt>
      <trkpt lat="41.2294390" lon="-5.7062750">
        <ele>857.6</ele>
        <time>2021-10-14T10:41:03Z</time>
      </trkpt>
      <trkpt lat="41.2293950" lon="-5.7062810">
        <ele>857.8</ele>
        <time>2021-10-14T10:41:05Z</time>
      </trkpt>
      <trkpt lat="41.2293690" lon="-5.7062850">
        <ele>857.8</ele>
        <time>2021-10-14T10:41:06Z</time>
      </trkpt>
      <trkpt lat="41.2293260" lon="-5.7062920">
        <ele>857.8</ele>
        <time>2021-10-14T10:41:08Z</time>
      </trkpt>
      <trkpt lat="41.2292600" lon="-5.7063020">
        <ele>858.2</ele>
        <time>2021-10-14T10:41:11Z</time>
      </trkpt>
      <trkpt lat="41.2292110" lon="-5.7063090">
        <ele>858.4</ele>
        <time>2021-10-14T10:41:13Z</time>
      </trkpt>
      <trkpt lat="41.2291670" lon="-5.7063150">
        <ele>858.6</ele>
        <time>2021-10-14T10:41:15Z</time>
      </trkpt>
      <trkpt lat="41.2289870" lon="-5.7063360">
        <ele>859.2</ele>
        <time>2021-10-14T10:41:23Z</time>
      </trkpt>
      <trkpt lat="41.2289230" lon="-5.7063430">
        <ele>859.4</ele>
        <time>2021-10-14T10:41:26Z</time>
      </trkpt>
      <trkpt lat="41.2288260" lon="-5.7063510">
        <ele>859.8</ele>
        <time>2021-10-14T10:41:30Z</time>
      </trkpt>
      <trkpt lat="41.2288020" lon="-5.7063510">
        <ele>859.8</ele>
        <time>2021-10-14T10:41:31Z</time>
      </trkpt>
      <trkpt lat="41.2286520" lon="-5.7063630">
        <ele>860.2</ele>
        <time>2021-10-14T10:41:37Z</time>
      </trkpt>
      <trkpt lat="41.2286060" lon="-5.7063720">
        <ele>860.4</ele>
        <time>2021-10-14T10:41:39Z</time>
      </trkpt>
      <trkpt lat="41.2284360" lon="-5.7064120">
        <ele>860.8</ele>
        <time>2021-10-14T10:41:46Z</time>
      </trkpt>
      <trkpt lat="41.2284130" lon="-5.7064260">
        <ele>860.8</ele>
        <time>2021-10-14T10:41:47Z</time>
      </trkpt>
      <trkpt lat="41.2282940" lon="-5.7065850">
        <ele>861.4</ele>
        <time>2021-10-14T10:41:54Z</time>
      </trkpt>
      <trkpt lat="41.2282750" lon="-5.7066470">
        <ele>861.6</ele>
        <time>2021-10-14T10:41:56Z</time>
      </trkpt>
      <trkpt lat="41.2282550" lon="-5.7067370">
        <ele>861.8</ele>
        <time>2021-10-14T10:41:59Z</time>
      </trkpt>
      <trkpt lat="41.2282130" lon="-5.7068580">
        <ele>861.8</ele>
        <time>2021-10-14T10:42:03Z</time>
      </trkpt>
      <trkpt lat="41.2281150" lon="-5.7069770">
        <ele>861.8</ele>
        <time>2021-10-14T10:42:08Z</time>
      </trkpt>
      <trkpt lat="41.2280920" lon="-5.7069870">
        <ele>861.8</ele>
        <time>2021-10-14T10:42:09Z</time>
      </trkpt>
      <trkpt lat="41.2280670" lon="-5.7069900">
        <ele>861.8</ele>
        <time>2021-10-14T10:42:10Z</time>
      </trkpt>
      <trkpt lat="41.2280220" lon="-5.7069920">
        <ele>862.0</ele>
        <time>2021-10-14T10:42:12Z</time>
      </trkpt>
      <trkpt lat="41.2279540" lon="-5.7069810">
        <ele>862.0</ele>
        <time>2021-10-14T10:42:16Z</time>
      </trkpt>
      <trkpt lat="41.2279360" lon="-5.7069750">
        <ele>862.2</ele>
        <time>2021-10-14T10:42:19Z</time>
      </trkpt>
      <trkpt lat="41.2278750" lon="-5.7069640">
        <ele>862.2</ele>
        <time>2021-10-14T10:42:29Z</time>
      </trkpt>
      <trkpt lat="41.2278270" lon="-5.7069600">
        <ele>862.2</ele>
        <time>2021-10-14T10:42:31Z</time>
      </trkpt>
      <trkpt lat="41.2277690" lon="-5.7069050">
        <ele>862.0</ele>
        <time>2021-10-14T10:42:34Z</time>
      </trkpt>
      <trkpt lat="41.2277190" lon="-5.7068170">
        <ele>861.8</ele>
        <time>2021-10-14T10:42:37Z</time>
      </trkpt>
      <trkpt lat="41.2276840" lon="-5.7067050">
        <ele>861.8</ele>
        <time>2021-10-14T10:42:40Z</time>
      </trkpt>
      <trkpt lat="41.2275850" lon="-5.7064600">
        <ele>861.6</ele>
        <time>2021-10-14T10:42:46Z</time>
      </trkpt>
      <trkpt lat="41.2275180" lon="-5.7063990">
        <ele>861.4</ele>
        <time>2021-10-14T10:42:48Z</time>
      </trkpt>
      <trkpt lat="41.2274150" lon="-5.7063470">
        <ele>861.4</ele>
        <time>2021-10-14T10:42:50Z</time>
      </trkpt>
      <trkpt lat="41.2273530" lon="-5.7063300">
        <ele>861.2</ele>
        <time>2021-10-14T10:42:51Z</time>
      </trkpt>
      <trkpt lat="41.2272160" lon="-5.7063000">
        <ele>860.6</ele>
        <time>2021-10-14T10:42:53Z</time>
      </trkpt>
      <trkpt lat="41.2270650" lon="-5.7062690">
        <ele>859.8</ele>
        <time>2021-10-14T10:42:55Z</time>
      </trkpt>
      <trkpt lat="41.2269880" lon="-5.7062530">
        <ele>859.4</ele>
        <time>2021-10-14T10:42:56Z</time>
      </trkpt>
      <trkpt lat="41.2268340" lon="-5.7062220">
        <ele>857.8</ele>
        <time>2021-10-14T10:42:58Z</time>
      </trkpt>
      <trkpt lat="41.2267570" lon="-5.7062070">
        <ele>856.6</ele>
        <time>2021-10-14T10:42:59Z</time>
      </trkpt>
      <trkpt lat="41.2265330" lon="-5.7061690">
        <ele>855.2</ele>
        <time>2021-10-14T10:43:02Z</time>
      </trkpt>
      <trkpt lat="41.2264560" lon="-5.7061570">
        <ele>854.6</ele>
        <time>2021-10-14T10:43:03Z</time>
      </trkpt>
      <trkpt lat="41.2263790" lon="-5.7061490">
        <ele>854.0</ele>
        <time>2021-10-14T10:43:04Z</time>
      </trkpt>
      <trkpt lat="41.2262260" lon="-5.7061390">
        <ele>853.0</ele>
        <time>2021-10-14T10:43:06Z</time>
      </trkpt>
      <trkpt lat="41.2260200" lon="-5.7061360">
        <ele>851.6</ele>
        <time>2021-10-14T10:43:09Z</time>
      </trkpt>
      <trkpt lat="41.2258700" lon="-5.7061320">
        <ele>850.4</ele>
        <time>2021-10-14T10:43:12Z</time>
      </trkpt>
      <trkpt lat="41.2258390" lon="-5.7061340">
        <ele>850.4</ele>
        <time>2021-10-14T10:43:13Z</time>
      </trkpt>
      <trkpt lat="41.2257340" lon="-5.7061500">
        <ele>851.0</ele>
        <time>2021-10-14T10:43:18Z</time>
      </trkpt>
      <trkpt lat="41.2257170" lon="-5.7061510">
        <ele>851.6</ele>
        <time>2021-10-14T10:43:19Z</time>
      </trkpt>
      <trkpt lat="41.2256460" lon="-5.7061580">
        <ele>852.6</ele>
        <time>2021-10-14T10:43:23Z</time>
      </trkpt>
      <trkpt lat="41.2256130" lon="-5.7061630">
        <ele>853.4</ele>
        <time>2021-10-14T10:43:25Z</time>
      </trkpt>
      <trkpt lat="41.2255630" lon="-5.7061650">
        <ele>853.8</ele>
        <time>2021-10-14T10:43:28Z</time>
      </trkpt>
      <trkpt lat="41.2254750" lon="-5.7061660">
        <ele>854.8</ele>
        <time>2021-10-14T10:43:33Z</time>
      </trkpt>
      <trkpt lat="41.2254580" lon="-5.7061690">
        <ele>855.0</ele>
        <time>2021-10-14T10:43:34Z</time>
      </trkpt>
      <trkpt lat="41.2253430" lon="-5.7061520">
        <ele>855.2</ele>
        <time>2021-10-14T10:43:38Z</time>
      </trkpt>
      <trkpt lat="41.2252610" lon="-5.7061350">
        <ele>855.4</ele>
        <time>2021-10-14T10:43:40Z</time>
      </trkpt>
      <trkpt lat="41.2251010" lon="-5.7060670">
        <ele>855.2</ele>
        <time>2021-10-14T10:43:43Z</time>
      </trkpt>
      <trkpt lat="41.2248310" lon="-5.7059910">
        <ele>854.4</ele>
        <time>2021-10-14T10:43:47Z</time>
      </trkpt>
      <trkpt lat="41.2247730" lon="-5.7059840">
        <ele>854.2</ele>
        <time>2021-10-14T10:43:48Z</time>
      </trkpt>
      <trkpt lat="41.2247020" lon="-5.7059800">
        <ele>853.6</ele>
        <time>2021-10-14T10:43:49Z</time>
      </trkpt>
      <trkpt lat="41.2245610" lon="-5.7059890">
        <ele>852.4</ele>
        <time>2021-10-14T10:43:51Z</time>
      </trkpt>
      <trkpt lat="41.2245070" lon="-5.7059940">
        <ele>851.6</ele>
        <time>2021-10-14T10:43:52Z</time>
      </trkpt>
      <trkpt lat="41.2244230" lon="-5.7060020">
        <ele>851.2</ele>
        <time>2021-10-14T10:43:54Z</time>
      </trkpt>
      <trkpt lat="41.2242900" lon="-5.7060100">
        <ele>851.2</ele>
        <time>2021-10-14T10:43:57Z</time>
      </trkpt>
      <trkpt lat="41.2240820" lon="-5.7060050">
        <ele>852.0</ele>
        <time>2021-10-14T10:44:03Z</time>
      </trkpt>
      <trkpt lat="41.2240110" lon="-5.7060030">
        <ele>852.4</ele>
        <time>2021-10-14T10:44:05Z</time>
      </trkpt>
      <trkpt lat="41.2238690" lon="-5.7060040">
        <ele>853.4</ele>
        <time>2021-10-14T10:44:09Z</time>
      </trkpt>
      <trkpt lat="41.2237600" lon="-5.7059980">
        <ele>853.8</ele>
        <time>2021-10-14T10:44:12Z</time>
      </trkpt>
      <trkpt lat="41.2235190" lon="-5.7059800">
        <ele>854.2</ele>
        <time>2021-10-14T10:44:18Z</time>
      </trkpt>
      <trkpt lat="41.2234310" lon="-5.7059620">
        <ele>854.2</ele>
        <time>2021-10-14T10:44:20Z</time>
      </trkpt>
      <trkpt lat="41.2233910" lon="-5.7059550">
        <ele>854.2</ele>
        <time>2021-10-14T10:44:21Z</time>
      </trkpt>
      <trkpt lat="41.2232070" lon="-5.7059240">
        <ele>854.2</ele>
        <time>2021-10-14T10:44:24Z</time>
      </trkpt>
      <trkpt lat="41.2231590" lon="-5.7059140">
        <ele>854.2</ele>
        <time>2021-10-14T10:44:25Z</time>
      </trkpt>
      <trkpt lat="41.2230450" lon="-5.7058900">
        <ele>854.0</ele>
        <time>2021-10-14T10:44:27Z</time>
      </trkpt>
      <trkpt lat="41.2229220" lon="-5.7058670">
        <ele>853.4</ele>
        <time>2021-10-14T10:44:29Z</time>
      </trkpt>
      <trkpt lat="41.2228240" lon="-5.7058540">
        <ele>853.0</ele>
        <time>2021-10-14T10:44:31Z</time>
      </trkpt>
      <trkpt lat="41.2226970" lon="-5.7058420">
        <ele>852.6</ele>
        <time>2021-10-14T10:44:33Z</time>
      </trkpt>
      <trkpt lat="41.2226360" lon="-5.7058390">
        <ele>852.4</ele>
        <time>2021-10-14T10:44:34Z</time>
      </trkpt>
      <trkpt lat="41.2225790" lon="-5.7058360">
        <ele>852.2</ele>
        <time>2021-10-14T10:44:35Z</time>
      </trkpt>
      <trkpt lat="41.2223440" lon="-5.7058410">
        <ele>851.8</ele>
        <time>2021-10-14T10:44:40Z</time>
      </trkpt>
      <trkpt lat="41.2221140" lon="-5.7058360">
        <ele>852.0</ele>
        <time>2021-10-14T10:44:45Z</time>
      </trkpt>
      <trkpt lat="41.2220110" lon="-5.7058290">
        <ele>852.0</ele>
        <time>2021-10-14T10:44:47Z</time>
      </trkpt>
      <trkpt lat="41.2219200" lon="-5.7058200">
        <ele>852.0</ele>
        <time>2021-10-14T10:44:49Z</time>
      </trkpt>
      <trkpt lat="41.2215860" lon="-5.7057770">
        <ele>851.4</ele>
        <time>2021-10-14T10:44:55Z</time>
      </trkpt>
      <trkpt lat="41.2215300" lon="-5.7057680">
        <ele>851.2</ele>
        <time>2021-10-14T10:44:56Z</time>
      </trkpt>
      <trkpt lat="41.2212350" lon="-5.7056720">
        <ele>850.2</ele>
        <time>2021-10-14T10:45:01Z</time>
      </trkpt>
      <trkpt lat="41.2211750" lon="-5.7056430">
        <ele>850.0</ele>
        <time>2021-10-14T10:45:02Z</time>
      </trkpt>
      <trkpt lat="41.2210620" lon="-5.7055830">
        <ele>849.2</ele>
        <time>2021-10-14T10:45:04Z</time>
      </trkpt>
      <trkpt lat="41.2209240" lon="-5.7055150">
        <ele>848.8</ele>
        <time>2021-10-14T10:45:06Z</time>
      </trkpt>
      <trkpt lat="41.2208520" lon="-5.7054840">
        <ele>848.2</ele>
        <time>2021-10-14T10:45:07Z</time>
      </trkpt>
      <trkpt lat="41.2207770" lon="-5.7054560">
        <ele>847.8</ele>
        <time>2021-10-14T10:45:08Z</time>
      </trkpt>
      <trkpt lat="41.2205190" lon="-5.7054010">
        <ele>846.0</ele>
        <time>2021-10-14T10:45:11Z</time>
      </trkpt>
      <trkpt lat="41.2204280" lon="-5.7053880">
        <ele>845.2</ele>
        <time>2021-10-14T10:45:12Z</time>
      </trkpt>
      <trkpt lat="41.2203370" lon="-5.7053770">
        <ele>845.0</ele>
        <time>2021-10-14T10:45:13Z</time>
      </trkpt>
      <trkpt lat="41.2201370" lon="-5.7053520">
        <ele>843.4</ele>
        <time>2021-10-14T10:45:15Z</time>
      </trkpt>
      <trkpt lat="41.2200460" lon="-5.7053420">
        <ele>842.0</ele>
        <time>2021-10-14T10:45:16Z</time>
      </trkpt>
      <trkpt lat="41.2198880" lon="-5.7053240">
        <ele>841.0</ele>
        <time>2021-10-14T10:45:18Z</time>
      </trkpt>
      <trkpt lat="41.2195340" lon="-5.7052700">
        <ele>839.8</ele>
        <time>2021-10-14T10:45:22Z</time>
      </trkpt>
      <trkpt lat="41.2192960" lon="-5.7052330">
        <ele>838.4</ele>
        <time>2021-10-14T10:45:25Z</time>
      </trkpt>
      <trkpt lat="41.2190690" lon="-5.7051970">
        <ele>837.4</ele>
        <time>2021-10-14T10:45:28Z</time>
      </trkpt>
      <trkpt lat="41.2188770" lon="-5.7051710">
        <ele>836.2</ele>
        <time>2021-10-14T10:45:31Z</time>
      </trkpt>
      <trkpt lat="41.2186750" lon="-5.7051490">
        <ele>835.6</ele>
        <time>2021-10-14T10:45:34Z</time>
      </trkpt>
      <trkpt lat="41.2185710" lon="-5.7051380">
        <ele>835.2</ele>
        <time>2021-10-14T10:45:36Z</time>
      </trkpt>
      <trkpt lat="41.2182820" lon="-5.7051230">
        <ele>834.6</ele>
        <time>2021-10-14T10:45:41Z</time>
      </trkpt>
      <trkpt lat="41.2179890" lon="-5.7050800">
        <ele>834.2</ele>
        <time>2021-10-14T10:45:46Z</time>
      </trkpt>
      <trkpt lat="41.2179150" lon="-5.7050480">
        <ele>834.2</ele>
        <time>2021-10-14T10:45:47Z</time>
      </trkpt>
      <trkpt lat="41.2175930" lon="-5.7048610">
        <ele>834.4</ele>
        <time>2021-10-14T10:45:53Z</time>
      </trkpt>
      <trkpt lat="41.2173770" lon="-5.7047570">
        <ele>835.4</ele>
        <time>2021-10-14T10:45:58Z</time>
      </trkpt>
      <trkpt lat="41.2172910" lon="-5.7047160">
        <ele>835.8</ele>
        <time>2021-10-14T10:46:00Z</time>
      </trkpt>
      <trkpt lat="41.2170250" lon="-5.7046110">
        <ele>836.4</ele>
        <time>2021-10-14T10:46:05Z</time>
      </trkpt>
      <trkpt lat="41.2169060" lon="-5.7045750">
        <ele>836.6</ele>
        <time>2021-10-14T10:46:07Z</time>
      </trkpt>
      <trkpt lat="41.2166540" lon="-5.7045110">
        <ele>836.6</ele>
        <time>2021-10-14T10:46:12Z</time>
      </trkpt>
      <trkpt lat="41.2164790" lon="-5.7044670">
        <ele>836.4</ele>
        <time>2021-10-14T10:46:16Z</time>
      </trkpt>
      <trkpt lat="41.2161840" lon="-5.7043780">
        <ele>836.4</ele>
        <time>2021-10-14T10:46:23Z</time>
      </trkpt>
      <trkpt lat="41.2160430" lon="-5.7043450">
        <ele>836.4</ele>
        <time>2021-10-14T10:46:26Z</time>
      </trkpt>
      <trkpt lat="41.2157330" lon="-5.7042890">
        <ele>836.4</ele>
        <time>2021-10-14T10:46:33Z</time>
      </trkpt>
      <trkpt lat="41.2153450" lon="-5.7042240">
        <ele>836.8</ele>
        <time>2021-10-14T10:46:42Z</time>
      </trkpt>
      <trkpt lat="41.2152600" lon="-5.7042010">
        <ele>836.8</ele>
        <time>2021-10-14T10:46:44Z</time>
      </trkpt>
      <trkpt lat="41.2149620" lon="-5.7041280">
        <ele>837.0</ele>
        <time>2021-10-14T10:46:51Z</time>
      </trkpt>
      <trkpt lat="41.2148240" lon="-5.7040990">
        <ele>837.0</ele>
        <time>2021-10-14T10:46:54Z</time>
      </trkpt>
      <trkpt lat="41.2147450" lon="-5.7040790">
        <ele>837.0</ele>
        <time>2021-10-14T10:46:56Z</time>
      </trkpt>
      <trkpt lat="41.2144390" lon="-5.7040030">
        <ele>837.4</ele>
        <time>2021-10-14T10:47:03Z</time>
      </trkpt>
      <trkpt lat="41.2143130" lon="-5.7039760">
        <ele>837.6</ele>
        <time>2021-10-14T10:47:06Z</time>
      </trkpt>
      <trkpt lat="41.2140140" lon="-5.7039030">
        <ele>838.0</ele>
        <time>2021-10-14T10:47:13Z</time>
      </trkpt>
      <trkpt lat="41.2139010" lon="-5.7038730">
        <ele>838.0</ele>
        <time>2021-10-14T10:47:16Z</time>
      </trkpt>
      <trkpt lat="41.2137810" lon="-5.7038390">
        <ele>838.2</ele>
        <time>2021-10-14T10:47:19Z</time>
      </trkpt>
      <trkpt lat="41.2136530" lon="-5.7038100">
        <ele>838.2</ele>
        <time>2021-10-14T10:47:22Z</time>
      </trkpt>
      <trkpt lat="41.2132960" lon="-5.7037250">
        <ele>838.4</ele>
        <time>2021-10-14T10:47:31Z</time>
      </trkpt>
      <trkpt lat="41.2132240" lon="-5.7037020">
        <ele>838.4</ele>
        <time>2021-10-14T10:47:33Z</time>
      </trkpt>
      <trkpt lat="41.2130220" lon="-5.7036400">
        <ele>838.6</ele>
        <time>2021-10-14T10:47:38Z</time>
      </trkpt>
      <trkpt lat="41.2129330" lon="-5.7036110">
        <ele>838.8</ele>
        <time>2021-10-14T10:47:40Z</time>
      </trkpt>
      <trkpt lat="41.2128910" lon="-5.7035960">
        <ele>838.8</ele>
        <time>2021-10-14T10:47:41Z</time>
      </trkpt>
      <trkpt lat="41.2127300" lon="-5.7035460">
        <ele>838.8</ele>
        <time>2021-10-14T10:47:45Z</time>
      </trkpt>
      <trkpt lat="41.2126560" lon="-5.7035240">
        <ele>838.8</ele>
        <time>2021-10-14T10:47:47Z</time>
      </trkpt>
      <trkpt lat="41.2125180" lon="-5.7034840">
        <ele>838.8</ele>
        <time>2021-10-14T10:47:50Z</time>
      </trkpt>
      <trkpt lat="41.2123390" lon="-5.7034310">
        <ele>839.2</ele>
        <time>2021-10-14T10:47:54Z</time>
      </trkpt>
      <trkpt lat="41.2122590" lon="-5.7034050">
        <ele>839.2</ele>
        <time>2021-10-14T10:47:56Z</time>
      </trkpt>
      <trkpt lat="41.2120350" lon="-5.7033410">
        <ele>839.0</ele>
        <time>2021-10-14T10:48:01Z</time>
      </trkpt>
      <trkpt lat="41.2118840" lon="-5.7033130">
        <ele>839.0</ele>
        <time>2021-10-14T10:48:04Z</time>
      </trkpt>
      <trkpt lat="41.2114480" lon="-5.7032090">
        <ele>838.8</ele>
        <time>2021-10-14T10:48:14Z</time>
      </trkpt>
      <trkpt lat="41.2111550" lon="-5.7031280">
        <ele>838.4</ele>
        <time>2021-10-14T10:48:20Z</time>
      </trkpt>
      <trkpt lat="41.2110750" lon="-5.7031110">
        <ele>838.4</ele>
        <time>2021-10-14T10:48:22Z</time>
      </trkpt>
      <trkpt lat="41.2109270" lon="-5.7030690">
        <ele>838.2</ele>
        <time>2021-10-14T10:48:26Z</time>
      </trkpt>
      <trkpt lat="41.2108180" lon="-5.7030430">
        <ele>838.4</ele>
        <time>2021-10-14T10:48:29Z</time>
      </trkpt>
      <trkpt lat="41.2106000" lon="-5.7029860">
        <ele>839.0</ele>
        <time>2021-10-14T10:48:36Z</time>
      </trkpt>
      <trkpt lat="41.2103770" lon="-5.7029290">
        <ele>839.6</ele>
        <time>2021-10-14T10:48:43Z</time>
      </trkpt>
      <trkpt lat="41.2102230" lon="-5.7030100">
        <ele>840.2</ele>
        <time>2021-10-14T10:48:48Z</time>
      </trkpt>
      <trkpt lat="41.2101470" lon="-5.7031660">
        <ele>840.2</ele>
        <time>2021-10-14T10:48:52Z</time>
      </trkpt>
      <trkpt lat="41.2101350" lon="-5.7032110">
        <ele>840.2</ele>
        <time>2021-10-14T10:48:53Z</time>
      </trkpt>
      <trkpt lat="41.2100780" lon="-5.7036330">
        <ele>839.8</ele>
        <time>2021-10-14T10:49:02Z</time>
      </trkpt>
      <trkpt lat="41.2100630" lon="-5.7037780">
        <ele>840.2</ele>
        <time>2021-10-14T10:49:05Z</time>
      </trkpt>
      <trkpt lat="41.2100150" lon="-5.7040480">
        <ele>840.4</ele>
        <time>2021-10-14T10:49:11Z</time>
      </trkpt>
      <trkpt lat="41.2099610" lon="-5.7041540">
        <ele>840.4</ele>
        <time>2021-10-14T10:49:14Z</time>
      </trkpt>
      <trkpt lat="41.2099330" lon="-5.7041800">
        <ele>840.4</ele>
        <time>2021-10-14T10:49:15Z</time>
      </trkpt>
      <trkpt lat="41.2098020" lon="-5.7042060">
        <ele>840.4</ele>
        <time>2021-10-14T10:49:19Z</time>
      </trkpt>
      <trkpt lat="41.2097720" lon="-5.7042020">
        <ele>840.4</ele>
        <time>2021-10-14T10:49:20Z</time>
      </trkpt>
      <trkpt lat="41.2096340" lon="-5.7041510">
        <ele>840.6</ele>
        <time>2021-10-14T10:49:25Z</time>
      </trkpt>
      <trkpt lat="41.2096120" lon="-5.7041330">
        <ele>840.6</ele>
        <time>2021-10-14T10:49:26Z</time>
      </trkpt>
      <trkpt lat="41.2095660" lon="-5.7040760">
        <ele>841.2</ele>
        <time>2021-10-14T10:49:28Z</time>
      </trkpt>
      <trkpt lat="41.2095330" lon="-5.7040040">
        <ele>841.2</ele>
        <time>2021-10-14T10:49:30Z</time>
      </trkpt>
      <trkpt lat="41.2095230" lon="-5.7039630">
        <ele>841.4</ele>
        <time>2021-10-14T10:49:31Z</time>
      </trkpt>
      <trkpt lat="41.2095200" lon="-5.7038230">
        <ele>841.4</ele>
        <time>2021-10-14T10:49:34Z</time>
      </trkpt>
      <trkpt lat="41.2095420" lon="-5.7036780">
        <ele>841.4</ele>
        <time>2021-10-14T10:49:37Z</time>
      </trkpt>
      <trkpt lat="41.2096180" lon="-5.7033290">
        <ele>841.2</ele>
        <time>2021-10-14T10:49:44Z</time>
      </trkpt>
      <trkpt lat="41.2096430" lon="-5.7030440">
        <ele>841.2</ele>
        <time>2021-10-14T10:49:49Z</time>
      </trkpt>
      <trkpt lat="41.2096290" lon="-5.7029250">
        <ele>841.2</ele>
        <time>2021-10-14T10:49:51Z</time>
      </trkpt>
      <trkpt lat="41.2095860" lon="-5.7028180">
        <ele>841.0</ele>
        <time>2021-10-14T10:49:53Z</time>
      </trkpt>
      <trkpt lat="41.2095180" lon="-5.7027430">
        <ele>841.0</ele>
        <time>2021-10-14T10:49:55Z</time>
      </trkpt>
      <trkpt lat="41.2094360" lon="-5.7026990">
        <ele>840.8</ele>
        <time>2021-10-14T10:49:57Z</time>
      </trkpt>
      <trkpt lat="41.2092730" lon="-5.7026490">
        <ele>840.8</ele>
        <time>2021-10-14T10:50:01Z</time>
      </trkpt>
      <trkpt lat="41.2091100" lon="-5.7026140">
        <ele>841.0</ele>
        <time>2021-10-14T10:50:05Z</time>
      </trkpt>
      <trkpt lat="41.2089810" lon="-5.7025880">
        <ele>841.2</ele>
        <time>2021-10-14T10:50:08Z</time>
      </trkpt>
      <trkpt lat="41.2087990" lon="-5.7025450">
        <ele>841.2</ele>
        <time>2021-10-14T10:50:12Z</time>
      </trkpt>
      <trkpt lat="41.2086580" lon="-5.7025050">
        <ele>841.2</ele>
        <time>2021-10-14T10:50:15Z</time>
      </trkpt>
      <trkpt lat="41.2085560" lon="-5.7024790">
        <ele>841.0</ele>
        <time>2021-10-14T10:50:17Z</time>
      </trkpt>
      <trkpt lat="41.2084560" lon="-5.7024540">
        <ele>841.0</ele>
        <time>2021-10-14T10:50:19Z</time>
      </trkpt>
      <trkpt lat="41.2081970" lon="-5.7023940">
        <ele>841.0</ele>
        <time>2021-10-14T10:50:25Z</time>
      </trkpt>
      <trkpt lat="41.2081090" lon="-5.7023720">
        <ele>841.2</ele>
        <time>2021-10-14T10:50:27Z</time>
      </trkpt>
      <trkpt lat="41.2079750" lon="-5.7023200">
        <ele>841.4</ele>
        <time>2021-10-14T10:50:30Z</time>
      </trkpt>
      <trkpt lat="41.2078560" lon="-5.7022880">
        <ele>841.6</ele>
        <time>2021-10-14T10:50:33Z</time>
      </trkpt>
      <trkpt lat="41.2077660" lon="-5.7022640">
        <ele>841.6</ele>
        <time>2021-10-14T10:50:35Z</time>
      </trkpt>
      <trkpt lat="41.2075060" lon="-5.7021980">
        <ele>841.6</ele>
        <time>2021-10-14T10:50:41Z</time>
      </trkpt>
      <trkpt lat="41.2073360" lon="-5.7021550">
        <ele>842.0</ele>
        <time>2021-10-14T10:50:45Z</time>
      </trkpt>
      <trkpt lat="41.2072140" lon="-5.7021240">
        <ele>842.4</ele>
        <time>2021-10-14T10:50:48Z</time>
      </trkpt>
      <trkpt lat="41.2070180" lon="-5.7020780">
        <ele>842.6</ele>
        <time>2021-10-14T10:50:53Z</time>
      </trkpt>
      <trkpt lat="41.2069710" lon="-5.7020660">
        <ele>842.8</ele>
        <time>2021-10-14T10:50:54Z</time>
      </trkpt>
      <trkpt lat="41.2065940" lon="-5.7019640">
        <ele>843.4</ele>
        <time>2021-10-14T10:51:04Z</time>
      </trkpt>
      <trkpt lat="41.2063920" lon="-5.7019150">
        <ele>843.6</ele>
        <time>2021-10-14T10:51:10Z</time>
      </trkpt>
      <trkpt lat="41.2062150" lon="-5.7018710">
        <ele>843.6</ele>
        <time>2021-10-14T10:51:13Z</time>
      </trkpt>
      <trkpt lat="41.2057820" lon="-5.7017930">
        <ele>843.4</ele>
        <time>2021-10-14T10:51:22Z</time>
      </trkpt>
      <trkpt lat="41.2054620" lon="-5.7017390">
        <ele>842.8</ele>
        <time>2021-10-14T10:51:28Z</time>
      </trkpt>
      <trkpt lat="41.2053620" lon="-5.7017290">
        <ele>842.4</ele>
        <time>2021-10-14T10:51:30Z</time>
      </trkpt>
      <trkpt lat="41.2052320" lon="-5.7017190">
        <ele>842.2</ele>
        <time>2021-10-14T10:51:32Z</time>
      </trkpt>
      <trkpt lat="41.2050730" lon="-5.7016770">
        <ele>841.6</ele>
        <time>2021-10-14T10:51:35Z</time>
      </trkpt>
      <trkpt lat="41.2050300" lon="-5.7016640">
        <ele>841.6</ele>
        <time>2021-10-14T10:51:36Z</time>
      </trkpt>
      <trkpt lat="41.2048220" lon="-5.7015880">
        <ele>841.2</ele>
        <time>2021-10-14T10:51:42Z</time>
      </trkpt>
      <trkpt lat="41.2046770" lon="-5.7015430">
        <ele>842.8</ele>
        <time>2021-10-14T10:51:47Z</time>
      </trkpt>
      <trkpt lat="41.2046230" lon="-5.7015250">
        <ele>843.0</ele>
        <time>2021-10-14T10:51:49Z</time>
      </trkpt>
      <trkpt lat="41.2045180" lon="-5.7014840">
        <ele>843.8</ele>
        <time>2021-10-14T10:51:53Z</time>
      </trkpt>
      <trkpt lat="41.2044920" lon="-5.7014760">
        <ele>844.0</ele>
        <time>2021-10-14T10:51:54Z</time>
      </trkpt>
      <trkpt lat="41.2044100" lon="-5.7014470">
        <ele>844.4</ele>
        <time>2021-10-14T10:51:57Z</time>
      </trkpt>
      <trkpt lat="41.2043540" lon="-5.7014240">
        <ele>844.6</ele>
        <time>2021-10-14T10:51:59Z</time>
      </trkpt>
      <trkpt lat="41.2040900" lon="-5.7013540">
        <ele>845.0</ele>
        <time>2021-10-14T10:52:07Z</time>
      </trkpt>
      <trkpt lat="41.2038310" lon="-5.7012860">
        <ele>845.4</ele>
        <time>2021-10-14T10:52:14Z</time>
      </trkpt>
      <trkpt lat="41.2037570" lon="-5.7012700">
        <ele>845.4</ele>
        <time>2021-10-14T10:52:16Z</time>
      </trkpt>
      <trkpt lat="41.2035420" lon="-5.7012110">
        <ele>845.6</ele>
        <time>2021-10-14T10:52:22Z</time>
      </trkpt>
      <trkpt lat="41.2032980" lon="-5.7011560">
        <ele>846.0</ele>
        <time>2021-10-14T10:52:29Z</time>
      </trkpt>
      <trkpt lat="41.2031670" lon="-5.7011200">
        <ele>846.2</ele>
        <time>2021-10-14T10:52:33Z</time>
      </trkpt>
      <trkpt lat="41.2030100" lon="-5.7010690">
        <ele>846.4</ele>
        <time>2021-10-14T10:52:38Z</time>
      </trkpt>
      <trkpt lat="41.2029200" lon="-5.7010430">
        <ele>846.6</ele>
        <time>2021-10-14T10:52:41Z</time>
      </trkpt>
      <trkpt lat="41.2027830" lon="-5.7010110">
        <ele>846.8</ele>
        <time>2021-10-14T10:52:45Z</time>
      </trkpt>
      <trkpt lat="41.2026880" lon="-5.7009940">
        <ele>846.8</ele>
        <time>2021-10-14T10:52:48Z</time>
      </trkpt>
      <trkpt lat="41.2025830" lon="-5.7009780">
        <ele>847.2</ele>
        <time>2021-10-14T10:52:51Z</time>
      </trkpt>
      <trkpt lat="41.2025160" lon="-5.7009680">
        <ele>847.2</ele>
        <time>2021-10-14T10:52:53Z</time>
      </trkpt>
      <trkpt lat="41.2023800" lon="-5.7009470">
        <ele>847.6</ele>
        <time>2021-10-14T10:52:57Z</time>
      </trkpt>
      <trkpt lat="41.2019830" lon="-5.7008610">
        <ele>848.2</ele>
        <time>2021-10-14T10:53:08Z</time>
      </trkpt>
      <trkpt lat="41.2019480" lon="-5.7008540">
        <ele>848.2</ele>
        <time>2021-10-14T10:53:09Z</time>
      </trkpt>
      <trkpt lat="41.2015800" lon="-5.7007480">
        <ele>849.2</ele>
        <time>2021-10-14T10:53:19Z</time>
      </trkpt>
      <trkpt lat="41.2015450" lon="-5.7007350">
        <ele>849.2</ele>
        <time>2021-10-14T10:53:20Z</time>
      </trkpt>
      <trkpt lat="41.2012870" lon="-5.7006730">
        <ele>849.6</ele>
        <time>2021-10-14T10:53:27Z</time>
      </trkpt>
      <trkpt lat="41.2010850" lon="-5.7006350">
        <ele>849.6</ele>
        <time>2021-10-14T10:53:32Z</time>
      </trkpt>
      <trkpt lat="41.2009960" lon="-5.7006290">
        <ele>849.4</ele>
        <time>2021-10-14T10:53:34Z</time>
      </trkpt>
      <trkpt lat="41.2009530" lon="-5.7006380">
        <ele>849.4</ele>
        <time>2021-10-14T10:53:35Z</time>
      </trkpt>
      <trkpt lat="41.2008750" lon="-5.7006780">
        <ele>849.2</ele>
        <time>2021-10-14T10:53:37Z</time>
      </trkpt>
      <trkpt lat="41.2008130" lon="-5.7007360">
        <ele>849.2</ele>
        <time>2021-10-14T10:53:39Z</time>
      </trkpt>
      <trkpt lat="41.2007890" lon="-5.7007700">
        <ele>849.2</ele>
        <time>2021-10-14T10:53:40Z</time>
      </trkpt>
      <trkpt lat="41.2007700" lon="-5.7008080">
        <ele>849.2</ele>
        <time>2021-10-14T10:53:41Z</time>
      </trkpt>
      <trkpt lat="41.2007290" lon="-5.7009830">
        <ele>849.2</ele>
        <time>2021-10-14T10:53:45Z</time>
      </trkpt>
      <trkpt lat="41.2007050" lon="-5.7013470">
        <ele>850.4</ele>
        <time>2021-10-14T10:53:53Z</time>
      </trkpt>
      <trkpt lat="41.2007020" lon="-5.7013870">
        <ele>850.4</ele>
        <time>2021-10-14T10:53:54Z</time>
      </trkpt>
      <trkpt lat="41.2006700" lon="-5.7016830">
        <ele>850.8</ele>
        <time>2021-10-14T10:54:01Z</time>
      </trkpt>
      <trkpt lat="41.2005930" lon="-5.7018810">
        <ele>850.8</ele>
        <time>2021-10-14T10:54:06Z</time>
      </trkpt>
      <trkpt lat="41.2005360" lon="-5.7019300">
        <ele>851.0</ele>
        <time>2021-10-14T10:54:08Z</time>
      </trkpt>
      <trkpt lat="41.2004720" lon="-5.7019510">
        <ele>851.2</ele>
        <time>2021-10-14T10:54:10Z</time>
      </trkpt>
      <trkpt lat="41.2004390" lon="-5.7019480">
        <ele>851.2</ele>
        <time>2021-10-14T10:54:11Z</time>
      </trkpt>
      <trkpt lat="41.2004050" lon="-5.7019430">
        <ele>851.4</ele>
        <time>2021-10-14T10:54:12Z</time>
      </trkpt>
      <trkpt lat="41.2002350" lon="-5.7018930">
        <ele>851.8</ele>
        <time>2021-10-14T10:54:17Z</time>
      </trkpt>
      <trkpt lat="41.2002040" lon="-5.7018680">
        <ele>851.8</ele>
        <time>2021-10-14T10:54:18Z</time>
      </trkpt>
      <trkpt lat="41.2001320" lon="-5.7017480">
        <ele>851.8</ele>
        <time>2021-10-14T10:54:21Z</time>
      </trkpt>
      <trkpt lat="41.2001220" lon="-5.7016970">
        <ele>852.0</ele>
        <time>2021-10-14T10:54:22Z</time>
      </trkpt>
      <trkpt lat="41.2001570" lon="-5.7014220">
        <ele>852.0</ele>
        <time>2021-10-14T10:54:27Z</time>
      </trkpt>
      <trkpt lat="41.2002270" lon="-5.7011500">
        <ele>852.0</ele>
        <time>2021-10-14T10:54:32Z</time>
      </trkpt>
      <trkpt lat="41.2002410" lon="-5.7010910">
        <ele>851.8</ele>
        <time>2021-10-14T10:54:33Z</time>
      </trkpt>
      <trkpt lat="41.2002960" lon="-5.7007430">
        <ele>851.0</ele>
        <time>2021-10-14T10:54:39Z</time>
      </trkpt>
      <trkpt lat="41.2002890" lon="-5.7006840">
        <ele>851.0</ele>
        <time>2021-10-14T10:54:40Z</time>
      </trkpt>
      <trkpt lat="41.2002730" lon="-5.7006200">
        <ele>851.0</ele>
        <time>2021-10-14T10:54:41Z</time>
      </trkpt>
      <trkpt lat="41.2002150" lon="-5.7005060">
        <ele>850.8</ele>
        <time>2021-10-14T10:54:43Z</time>
      </trkpt>
      <trkpt lat="41.2001770" lon="-5.7004580">
        <ele>850.6</ele>
        <time>2021-10-14T10:54:44Z</time>
      </trkpt>
      <trkpt lat="41.2001340" lon="-5.7004160">
        <ele>850.6</ele>
        <time>2021-10-14T10:54:45Z</time>
      </trkpt>
      <trkpt lat="41.2000030" lon="-5.7003540">
        <ele>850.4</ele>
        <time>2021-10-14T10:54:48Z</time>
      </trkpt>
      <trkpt lat="41.1998750" lon="-5.7003120">
        <ele>850.4</ele>
        <time>2021-10-14T10:54:51Z</time>
      </trkpt>
      <trkpt lat="41.1998320" lon="-5.7003010">
        <ele>850.4</ele>
        <time>2021-10-14T10:54:52Z</time>
      </trkpt>
      <trkpt lat="41.1997480" lon="-5.7002820">
        <ele>850.6</ele>
        <time>2021-10-14T10:54:54Z</time>
      </trkpt>
      <trkpt lat="41.1993830" lon="-5.7002010">
        <ele>851.6</ele>
        <time>2021-10-14T10:55:03Z</time>
      </trkpt>
      <trkpt lat="41.1991080" lon="-5.7001400">
        <ele>852.0</ele>
        <time>2021-10-14T10:55:10Z</time>
      </trkpt>
      <trkpt lat="41.1988740" lon="-5.7000630">
        <ele>852.2</ele>
        <time>2021-10-14T10:55:17Z</time>
      </trkpt>
      <trkpt lat="41.1988140" lon="-5.7000170">
        <ele>852.4</ele>
        <time>2021-10-14T10:55:19Z</time>
      </trkpt>
      <trkpt lat="41.1987100" lon="-5.6999860">
        <ele>852.6</ele>
        <time>2021-10-14T10:55:22Z</time>
      </trkpt>
      <trkpt lat="41.1986320" lon="-5.6999670">
        <ele>852.8</ele>
        <time>2021-10-14T10:55:24Z</time>
      </trkpt>
      <trkpt lat="41.1985540" lon="-5.6999480">
        <ele>852.8</ele>
        <time>2021-10-14T10:55:26Z</time>
      </trkpt>
      <trkpt lat="41.1982980" lon="-5.6998910">
        <ele>853.4</ele>
        <time>2021-10-14T10:55:33Z</time>
      </trkpt>
      <trkpt lat="41.1982600" lon="-5.6998820">
        <ele>853.4</ele>
        <time>2021-10-14T10:55:34Z</time>
      </trkpt>
      <trkpt lat="41.1980800" lon="-5.6998410">
        <ele>854.0</ele>
        <time>2021-10-14T10:55:39Z</time>
      </trkpt>
      <trkpt lat="41.1979040" lon="-5.6997950">
        <ele>854.4</ele>
        <time>2021-10-14T10:55:44Z</time>
      </trkpt>
      <trkpt lat="41.1978300" lon="-5.6997740">
        <ele>854.6</ele>
        <time>2021-10-14T10:55:46Z</time>
      </trkpt>
      <trkpt lat="41.1976440" lon="-5.6997260">
        <ele>855.0</ele>
        <time>2021-10-14T10:55:51Z</time>
      </trkpt>
      <trkpt lat="41.1974490" lon="-5.6996810">
        <ele>855.4</ele>
        <time>2021-10-14T10:55:56Z</time>
      </trkpt>
      <trkpt lat="41.1973160" lon="-5.6996480">
        <ele>855.4</ele>
        <time>2021-10-14T10:55:59Z</time>
      </trkpt>
      <trkpt lat="41.1971760" lon="-5.6996150">
        <ele>855.2</ele>
        <time>2021-10-14T10:56:02Z</time>
      </trkpt>
      <trkpt lat="41.1970500" lon="-5.6995750">
        <ele>855.0</ele>
        <time>2021-10-14T10:56:05Z</time>
      </trkpt>
      <trkpt lat="41.1969310" lon="-5.6995500">
        <ele>855.0</ele>
        <time>2021-10-14T10:56:08Z</time>
      </trkpt>
      <trkpt lat="41.1968910" lon="-5.6995390">
        <ele>855.0</ele>
        <time>2021-10-14T10:56:09Z</time>
      </trkpt>
      <trkpt lat="41.1966300" lon="-5.6994720">
        <ele>855.6</ele>
        <time>2021-10-14T10:56:15Z</time>
      </trkpt>
      <trkpt lat="41.1965010" lon="-5.6994390">
        <ele>855.8</ele>
        <time>2021-10-14T10:56:18Z</time>
      </trkpt>
      <trkpt lat="41.1962480" lon="-5.6993800">
        <ele>856.2</ele>
        <time>2021-10-14T10:56:24Z</time>
      </trkpt>
      <trkpt lat="41.1960920" lon="-5.6993450">
        <ele>856.2</ele>
        <time>2021-10-14T10:56:28Z</time>
      </trkpt>
      <trkpt lat="41.1959090" lon="-5.6993030">
        <ele>856.8</ele>
        <time>2021-10-14T10:56:33Z</time>
      </trkpt>
      <trkpt lat="41.1957760" lon="-5.6992730">
        <ele>857.2</ele>
        <time>2021-10-14T10:56:37Z</time>
      </trkpt>
      <trkpt lat="41.1956420" lon="-5.6992480">
        <ele>857.8</ele>
        <time>2021-10-14T10:56:41Z</time>
      </trkpt>
      <trkpt lat="41.1953650" lon="-5.6991860">
        <ele>858.4</ele>
        <time>2021-10-14T10:56:49Z</time>
      </trkpt>
      <trkpt lat="41.1953290" lon="-5.6991790">
        <ele>858.6</ele>
        <time>2021-10-14T10:56:50Z</time>
      </trkpt>
      <trkpt lat="41.1952180" lon="-5.6991580">
        <ele>858.8</ele>
        <time>2021-10-14T10:56:53Z</time>
      </trkpt>
      <trkpt lat="41.1951090" lon="-5.6991300">
        <ele>858.8</ele>
        <time>2021-10-14T10:56:56Z</time>
      </trkpt>
      <trkpt lat="41.1950720" lon="-5.6991230">
        <ele>859.0</ele>
        <time>2021-10-14T10:56:57Z</time>
      </trkpt>
      <trkpt lat="41.1946530" lon="-5.6990330">
        <ele>859.6</ele>
        <time>2021-10-14T10:57:08Z</time>
      </trkpt>
      <trkpt lat="41.1945440" lon="-5.6990110">
        <ele>859.8</ele>
        <time>2021-10-14T10:57:12Z</time>
      </trkpt>
      <trkpt lat="41.1944730" lon="-5.6989950">
        <ele>860.0</ele>
        <time>2021-10-14T10:57:13Z</time>
      </trkpt>
      <trkpt lat="41.1943310" lon="-5.6989660">
        <ele>860.2</ele>
        <time>2021-10-14T10:57:17Z</time>
      </trkpt>
      <trkpt lat="41.1942600" lon="-5.6989480">
        <ele>860.2</ele>
        <time>2021-10-14T10:57:19Z</time>
      </trkpt>
      <trkpt lat="41.1940510" lon="-5.6989000">
        <ele>860.6</ele>
        <time>2021-10-14T10:57:25Z</time>
      </trkpt>
      <trkpt lat="41.1939430" lon="-5.6988790">
        <ele>861.0</ele>
        <time>2021-10-14T10:57:28Z</time>
      </trkpt>
      <trkpt lat="41.1939070" lon="-5.6988650">
        <ele>861.0</ele>
        <time>2021-10-14T10:57:29Z</time>
      </trkpt>
      <trkpt lat="41.1937270" lon="-5.6988160">
        <ele>861.4</ele>
        <time>2021-10-14T10:57:34Z</time>
      </trkpt>
      <trkpt lat="41.1936160" lon="-5.6987810">
        <ele>861.4</ele>
        <time>2021-10-14T10:57:37Z</time>
      </trkpt>
      <trkpt lat="41.1933210" lon="-5.6986900">
        <ele>861.6</ele>
        <time>2021-10-14T10:57:45Z</time>
      </trkpt>
      <trkpt lat="41.1931230" lon="-5.6986550">
        <ele>861.2</ele>
        <time>2021-10-14T10:57:51Z</time>
      </trkpt>
      <trkpt lat="41.1928980" lon="-5.6985610">
        <ele>861.0</ele>
        <time>2021-10-14T10:57:56Z</time>
      </trkpt>
      <trkpt lat="41.1927170" lon="-5.6984860">
        <ele>860.2</ele>
        <time>2021-10-14T10:57:59Z</time>
      </trkpt>
      <trkpt lat="41.1925840" lon="-5.6984450">
        <ele>859.4</ele>
        <time>2021-10-14T10:58:01Z</time>
      </trkpt>
      <trkpt lat="41.1925170" lon="-5.6984280">
        <ele>859.0</ele>
        <time>2021-10-14T10:58:02Z</time>
      </trkpt>
      <trkpt lat="41.1923090" lon="-5.6983820">
        <ele>858.2</ele>
        <time>2021-10-14T10:58:06Z</time>
      </trkpt>
      <trkpt lat="41.1922370" lon="-5.6983690">
        <ele>857.6</ele>
        <time>2021-10-14T10:58:07Z</time>
      </trkpt>
      <trkpt lat="41.1919480" lon="-5.6983220">
        <ele>856.6</ele>
        <time>2021-10-14T10:58:11Z</time>
      </trkpt>
      <trkpt lat="41.1917310" lon="-5.6983020">
        <ele>855.4</ele>
        <time>2021-10-14T10:58:14Z</time>
      </trkpt>
      <trkpt lat="41.1915870" lon="-5.6982800">
        <ele>854.4</ele>
        <time>2021-10-14T10:58:16Z</time>
      </trkpt>
      <trkpt lat="41.1913810" lon="-5.6982440">
        <ele>854.0</ele>
        <time>2021-10-14T10:58:19Z</time>
      </trkpt>
      <trkpt lat="41.1911920" lon="-5.6982000">
        <ele>853.2</ele>
        <time>2021-10-14T10:58:22Z</time>
      </trkpt>
      <trkpt lat="41.1910740" lon="-5.6981730">
        <ele>852.8</ele>
        <time>2021-10-14T10:58:24Z</time>
      </trkpt>
      <trkpt lat="41.1906570" lon="-5.6980880">
        <ele>852.4</ele>
        <time>2021-10-14T10:58:31Z</time>
      </trkpt>
      <trkpt lat="41.1905980" lon="-5.6980750">
        <ele>852.4</ele>
        <time>2021-10-14T10:58:32Z</time>
      </trkpt>
      <trkpt lat="41.1904790" lon="-5.6980560">
        <ele>852.0</ele>
        <time>2021-10-14T10:58:34Z</time>
      </trkpt>
      <trkpt lat="41.1902240" lon="-5.6979920">
        <ele>850.8</ele>
        <time>2021-10-14T10:58:38Z</time>
      </trkpt>
      <trkpt lat="41.1901600" lon="-5.6979670">
        <ele>850.4</ele>
        <time>2021-10-14T10:58:39Z</time>
      </trkpt>
      <trkpt lat="41.1900440" lon="-5.6979200">
        <ele>849.8</ele>
        <time>2021-10-14T10:58:41Z</time>
      </trkpt>
      <trkpt lat="41.1899970" lon="-5.6978910">
        <ele>849.6</ele>
        <time>2021-10-14T10:58:42Z</time>
      </trkpt>
      <trkpt lat="41.1899540" lon="-5.6978640">
        <ele>849.6</ele>
        <time>2021-10-14T10:58:43Z</time>
      </trkpt>
      <trkpt lat="41.1897810" lon="-5.6978030">
        <ele>849.4</ele>
        <time>2021-10-14T10:58:48Z</time>
      </trkpt>
      <trkpt lat="41.1896750" lon="-5.6977620">
        <ele>849.8</ele>
        <time>2021-10-14T10:58:52Z</time>
      </trkpt>
      <trkpt lat="41.1896030" lon="-5.6977230">
        <ele>850.6</ele>
        <time>2021-10-14T10:58:55Z</time>
      </trkpt>
      <trkpt lat="41.1895800" lon="-5.6977110">
        <ele>850.8</ele>
        <time>2021-10-14T10:58:56Z</time>
      </trkpt>
      <trkpt lat="41.1894630" lon="-5.6976680">
        <ele>851.6</ele>
        <time>2021-10-14T10:59:01Z</time>
      </trkpt>
      <trkpt lat="41.1893880" lon="-5.6976340">
        <ele>852.0</ele>
        <time>2021-10-14T10:59:04Z</time>
      </trkpt>
      <trkpt lat="41.1892520" lon="-5.6975830">
        <ele>852.8</ele>
        <time>2021-10-14T10:59:10Z</time>
      </trkpt>
      <trkpt lat="41.1892310" lon="-5.6975780">
        <ele>853.0</ele>
        <time>2021-10-14T10:59:11Z</time>
      </trkpt>
      <trkpt lat="41.1891640" lon="-5.6975560">
        <ele>853.2</ele>
        <time>2021-10-14T10:59:14Z</time>
      </trkpt>
      <trkpt lat="41.1891410" lon="-5.6975460">
        <ele>853.4</ele>
        <time>2021-10-14T10:59:15Z</time>
      </trkpt>
      <trkpt lat="41.1890540" lon="-5.6975050">
        <ele>853.6</ele>
        <time>2021-10-14T10:59:19Z</time>
      </trkpt>
      <trkpt lat="41.1889630" lon="-5.6974700">
        <ele>854.0</ele>
        <time>2021-10-14T10:59:23Z</time>
      </trkpt>
      <trkpt lat="41.1889380" lon="-5.6974630">
        <ele>854.0</ele>
        <time>2021-10-14T10:59:24Z</time>
      </trkpt>
      <trkpt lat="41.1887380" lon="-5.6974070">
        <ele>854.4</ele>
        <time>2021-10-14T10:59:32Z</time>
      </trkpt>
      <trkpt lat="41.1885810" lon="-5.6973590">
        <ele>855.0</ele>
        <time>2021-10-14T10:59:39Z</time>
      </trkpt>
      <trkpt lat="41.1885600" lon="-5.6973500">
        <ele>855.0</ele>
        <time>2021-10-14T10:59:40Z</time>
      </trkpt>
      <trkpt lat="41.1884590" lon="-5.6972950">
        <ele>855.4</ele>
        <time>2021-10-14T10:59:45Z</time>
      </trkpt>
      <trkpt lat="41.1884170" lon="-5.6972900">
        <ele>855.6</ele>
        <time>2021-10-14T10:59:47Z</time>
      </trkpt>
      <trkpt lat="41.1882940" lon="-5.6972740">
        <ele>856.2</ele>
        <time>2021-10-14T10:59:53Z</time>
      </trkpt>
      <trkpt lat="41.1882500" lon="-5.6972600">
        <ele>856.4</ele>
        <time>2021-10-14T10:59:55Z</time>
      </trkpt>
      <trkpt lat="41.1881920" lon="-5.6972530">
        <ele>857.0</ele>
        <time>2021-10-14T10:59:58Z</time>
      </trkpt>
      <trkpt lat="41.1881540" lon="-5.6972520">
        <ele>857.2</ele>
        <time>2021-10-14T11:00:00Z</time>
      </trkpt>
      <trkpt lat="41.1880810" lon="-5.6972410">
        <ele>857.6</ele>
        <time>2021-10-14T11:00:04Z</time>
      </trkpt>
      <trkpt lat="41.1880250" lon="-5.6972330">
        <ele>858.2</ele>
        <time>2021-10-14T11:00:07Z</time>
      </trkpt>
      <trkpt lat="41.1879220" lon="-5.6972300">
        <ele>859.0</ele>
        <time>2021-10-14T11:00:12Z</time>
      </trkpt>
      <trkpt lat="41.1878640" lon="-5.6972300">
        <ele>859.2</ele>
        <time>2021-10-14T11:00:15Z</time>
      </trkpt>
      <trkpt lat="41.1877820" lon="-5.6972190">
        <ele>859.4</ele>
        <time>2021-10-14T11:00:19Z</time>
      </trkpt>
      <trkpt lat="41.1877380" lon="-5.6972140">
        <ele>859.6</ele>
        <time>2021-10-14T11:00:21Z</time>
      </trkpt>
      <trkpt lat="41.1876610" lon="-5.6972020">
        <ele>859.8</ele>
        <time>2021-10-14T11:00:24Z</time>
      </trkpt>
      <trkpt lat="41.1874820" lon="-5.6971700">
        <ele>859.8</ele>
        <time>2021-10-14T11:00:30Z</time>
      </trkpt>
      <trkpt lat="41.1874250" lon="-5.6971530">
        <ele>859.8</ele>
        <time>2021-10-14T11:00:32Z</time>
      </trkpt>
      <trkpt lat="41.1873730" lon="-5.6971370">
        <ele>859.8</ele>
        <time>2021-10-14T11:00:34Z</time>
      </trkpt>
      <trkpt lat="41.1873010" lon="-5.6971080">
        <ele>860.0</ele>
        <time>2021-10-14T11:00:37Z</time>
      </trkpt>
      <trkpt lat="41.1872180" lon="-5.6970750">
        <ele>860.2</ele>
        <time>2021-10-14T11:00:41Z</time>
      </trkpt>
      <trkpt lat="41.1871970" lon="-5.6970640">
        <ele>860.2</ele>
        <time>2021-10-14T11:00:45Z</time>
      </trkpt>
      <trkpt lat="41.1871440" lon="-5.6970540">
        <ele>860.8</ele>
        <time>2021-10-14T11:02:40Z</time>
      </trkpt>
      <trkpt lat="41.1871150" lon="-5.6970440">
        <ele>860.8</ele>
        <time>2021-10-14T11:02:41Z</time>
      </trkpt>
      <trkpt lat="41.1870860" lon="-5.6970300">
        <ele>860.6</ele>
        <time>2021-10-14T11:02:42Z</time>
      </trkpt>
      <trkpt lat="41.1868300" lon="-5.6969360">
        <ele>860.4</ele>
        <time>2021-10-14T11:02:48Z</time>
      </trkpt>
      <trkpt lat="41.1866770" lon="-5.6968750">
        <ele>859.8</ele>
        <time>2021-10-14T11:02:51Z</time>
      </trkpt>
      <trkpt lat="41.1866220" lon="-5.6968580">
        <ele>859.6</ele>
        <time>2021-10-14T11:02:52Z</time>
      </trkpt>
      <trkpt lat="41.1864340" lon="-5.6968090">
        <ele>858.8</ele>
        <time>2021-10-14T11:02:55Z</time>
      </trkpt>
      <trkpt lat="41.1862880" lon="-5.6967800">
        <ele>858.2</ele>
        <time>2021-10-14T11:02:57Z</time>
      </trkpt>
      <trkpt lat="41.1860530" lon="-5.6967240">
        <ele>857.2</ele>
        <time>2021-10-14T11:03:00Z</time>
      </trkpt>
      <trkpt lat="41.1859830" lon="-5.6967040">
        <ele>856.4</ele>
        <time>2021-10-14T11:03:01Z</time>
      </trkpt>
      <trkpt lat="41.1858600" lon="-5.6966680">
        <ele>855.2</ele>
        <time>2021-10-14T11:03:03Z</time>
      </trkpt>
      <trkpt lat="41.1857960" lon="-5.6966470">
        <ele>855.0</ele>
        <time>2021-10-14T11:03:04Z</time>
      </trkpt>
      <trkpt lat="41.1854990" lon="-5.6965480">
        <ele>855.2</ele>
        <time>2021-10-14T11:03:10Z</time>
      </trkpt>
      <trkpt lat="41.1851950" lon="-5.6964760">
        <ele>855.8</ele>
        <time>2021-10-14T11:03:16Z</time>
      </trkpt>
      <trkpt lat="41.1851460" lon="-5.6964640">
        <ele>855.8</ele>
        <time>2021-10-14T11:03:17Z</time>
      </trkpt>
      <trkpt lat="41.1847600" lon="-5.6963850">
        <ele>855.8</ele>
        <time>2021-10-14T11:03:25Z</time>
      </trkpt>
      <trkpt lat="41.1845950" lon="-5.6963600">
        <ele>855.6</ele>
        <time>2021-10-14T11:03:28Z</time>
      </trkpt>
      <trkpt lat="41.1844190" lon="-5.6963390">
        <ele>854.8</ele>
        <time>2021-10-14T11:03:31Z</time>
      </trkpt>
      <trkpt lat="41.1842580" lon="-5.6963060">
        <ele>854.4</ele>
        <time>2021-10-14T11:03:34Z</time>
      </trkpt>
      <trkpt lat="41.1842150" lon="-5.6962950">
        <ele>854.2</ele>
        <time>2021-10-14T11:03:35Z</time>
      </trkpt>
      <trkpt lat="41.1841740" lon="-5.6962920">
        <ele>854.2</ele>
        <time>2021-10-14T11:03:36Z</time>
      </trkpt>
      <trkpt lat="41.1839830" lon="-5.6962810">
        <ele>854.4</ele>
        <time>2021-10-14T11:03:42Z</time>
      </trkpt>
      <trkpt lat="41.1839050" lon="-5.6962700">
        <ele>855.2</ele>
        <time>2021-10-14T11:03:45Z</time>
      </trkpt>
      <trkpt lat="41.1838780" lon="-5.6962670">
        <ele>855.4</ele>
        <time>2021-10-14T11:03:46Z</time>
      </trkpt>
      <trkpt lat="41.1838500" lon="-5.6962650">
        <ele>855.6</ele>
        <time>2021-10-14T11:03:47Z</time>
      </trkpt>
      <trkpt lat="41.1837930" lon="-5.6962590">
        <ele>856.0</ele>
        <time>2021-10-14T11:03:49Z</time>
      </trkpt>
      <trkpt lat="41.1837350" lon="-5.6962510">
        <ele>856.4</ele>
        <time>2021-10-14T11:03:51Z</time>
      </trkpt>
      <trkpt lat="41.1836050" lon="-5.6962380">
        <ele>856.8</ele>
        <time>2021-10-14T11:03:55Z</time>
      </trkpt>
      <trkpt lat="41.1835120" lon="-5.6962300">
        <ele>857.0</ele>
        <time>2021-10-14T11:03:58Z</time>
      </trkpt>
      <trkpt lat="41.1832770" lon="-5.6962060">
        <ele>857.4</ele>
        <time>2021-10-14T11:04:05Z</time>
      </trkpt>
      <trkpt lat="41.1831920" lon="-5.6962030">
        <ele>857.6</ele>
        <time>2021-10-14T11:04:08Z</time>
      </trkpt>
      <trkpt lat="41.1829660" lon="-5.6961860">
        <ele>858.4</ele>
        <time>2021-10-14T11:04:16Z</time>
      </trkpt>
      <trkpt lat="41.1829410" lon="-5.6961900">
        <ele>858.6</ele>
        <time>2021-10-14T11:04:17Z</time>
      </trkpt>
      <trkpt lat="41.1828110" lon="-5.6961860">
        <ele>859.8</ele>
        <time>2021-10-14T11:04:22Z</time>
      </trkpt>
      <trkpt lat="41.1827430" lon="-5.6961910">
        <ele>860.2</ele>
        <time>2021-10-14T11:04:25Z</time>
      </trkpt>
      <trkpt lat="41.1826310" lon="-5.6962010">
        <ele>861.0</ele>
        <time>2021-10-14T11:04:30Z</time>
      </trkpt>
      <trkpt lat="41.1825630" lon="-5.6962070">
        <ele>861.6</ele>
        <time>2021-10-14T11:04:33Z</time>
      </trkpt>
      <trkpt lat="41.1824730" lon="-5.6962130">
        <ele>862.0</ele>
        <time>2021-10-14T11:04:37Z</time>
      </trkpt>
      <trkpt lat="41.1823700" lon="-5.6962140">
        <ele>862.8</ele>
        <time>2021-10-14T11:04:42Z</time>
      </trkpt>
      <trkpt lat="41.1823280" lon="-5.6962150">
        <ele>863.2</ele>
        <time>2021-10-14T11:04:44Z</time>
      </trkpt>
      <trkpt lat="41.1823060" lon="-5.6962180">
        <ele>863.4</ele>
        <time>2021-10-14T11:04:45Z</time>
      </trkpt>
      <trkpt lat="41.1821290" lon="-5.6962070">
        <ele>864.2</ele>
        <time>2021-10-14T11:04:53Z</time>
      </trkpt>
      <trkpt lat="41.1820860" lon="-5.6962060">
        <ele>864.4</ele>
        <time>2021-10-14T11:04:55Z</time>
      </trkpt>
      <trkpt lat="41.1820220" lon="-5.6962060">
        <ele>864.8</ele>
        <time>2021-10-14T11:04:58Z</time>
      </trkpt>
      <trkpt lat="41.1819320" lon="-5.6961950">
        <ele>865.2</ele>
        <time>2021-10-14T11:05:02Z</time>
      </trkpt>
      <trkpt lat="41.1818880" lon="-5.6961920">
        <ele>865.4</ele>
        <time>2021-10-14T11:05:04Z</time>
      </trkpt>
      <trkpt lat="41.1818680" lon="-5.6961930">
        <ele>865.4</ele>
        <time>2021-10-14T11:05:05Z</time>
      </trkpt>
      <trkpt lat="41.1817380" lon="-5.6961860">
        <ele>866.0</ele>
        <time>2021-10-14T11:05:11Z</time>
      </trkpt>
      <trkpt lat="41.1816910" lon="-5.6961840">
        <ele>866.4</ele>
        <time>2021-10-14T11:05:13Z</time>
      </trkpt>
      <trkpt lat="41.1816430" lon="-5.6961820">
        <ele>866.4</ele>
        <time>2021-10-14T11:05:15Z</time>
      </trkpt>
      <trkpt lat="41.1815430" lon="-5.6961710">
        <ele>866.8</ele>
        <time>2021-10-14T11:05:19Z</time>
      </trkpt>
      <trkpt lat="41.1814920" lon="-5.6961720">
        <ele>867.0</ele>
        <time>2021-10-14T11:05:21Z</time>
      </trkpt>
      <trkpt lat="41.1814650" lon="-5.6961720">
        <ele>867.2</ele>
        <time>2021-10-14T11:05:22Z</time>
      </trkpt>
      <trkpt lat="41.1812810" lon="-5.6961560">
        <ele>867.4</ele>
        <time>2021-10-14T11:05:28Z</time>
      </trkpt>
      <trkpt lat="41.1811610" lon="-5.6961590">
        <ele>867.6</ele>
        <time>2021-10-14T11:05:31Z</time>
      </trkpt>
      <trkpt lat="41.1811190" lon="-5.6961700">
        <ele>867.6</ele>
        <time>2021-10-14T11:05:32Z</time>
      </trkpt>
      <trkpt lat="41.1810450" lon="-5.6962120">
        <ele>867.6</ele>
        <time>2021-10-14T11:05:34Z</time>
      </trkpt>
      <trkpt lat="41.1810120" lon="-5.6962400">
        <ele>867.6</ele>
        <time>2021-10-14T11:05:35Z</time>
      </trkpt>
      <trkpt lat="41.1809220" lon="-5.6963720">
        <ele>867.6</ele>
        <time>2021-10-14T11:05:39Z</time>
      </trkpt>
      <trkpt lat="41.1809100" lon="-5.6964100">
        <ele>867.6</ele>
        <time>2021-10-14T11:05:40Z</time>
      </trkpt>
      <trkpt lat="41.1808750" lon="-5.6965710">
        <ele>868.0</ele>
        <time>2021-10-14T11:05:44Z</time>
      </trkpt>
      <trkpt lat="41.1808530" lon="-5.6966450">
        <ele>868.2</ele>
        <time>2021-10-14T11:05:46Z</time>
      </trkpt>
      <trkpt lat="41.1808190" lon="-5.6967060">
        <ele>868.6</ele>
        <time>2021-10-14T11:05:48Z</time>
      </trkpt>
      <trkpt lat="41.1807510" lon="-5.6967650">
        <ele>868.6</ele>
        <time>2021-10-14T11:05:51Z</time>
      </trkpt>
      <trkpt lat="41.1806660" lon="-5.6968030">
        <ele>869.0</ele>
        <time>2021-10-14T11:05:55Z</time>
      </trkpt>
      <trkpt lat="41.1806290" lon="-5.6968090">
        <ele>869.2</ele>
        <time>2021-10-14T11:05:57Z</time>
      </trkpt>
      <trkpt lat="41.1805140" lon="-5.6967730">
        <ele>869.4</ele>
        <time>2021-10-14T11:06:03Z</time>
      </trkpt>
      <trkpt lat="41.1805040" lon="-5.6967650">
        <ele>869.2</ele>
        <time>2021-10-14T11:06:06Z</time>
      </trkpt>
      <trkpt lat="41.1804770" lon="-5.6967330">
        <ele>869.2</ele>
        <time>2021-10-14T11:06:14Z</time>
      </trkpt>
      <trkpt lat="41.1804280" lon="-5.6966050">
        <ele>869.2</ele>
        <time>2021-10-14T11:06:18Z</time>
      </trkpt>
      <trkpt lat="41.1804120" lon="-5.6964460">
        <ele>869.0</ele>
        <time>2021-10-14T11:06:21Z</time>
      </trkpt>
      <trkpt lat="41.1803990" lon="-5.6963180">
        <ele>868.6</ele>
        <time>2021-10-14T11:06:23Z</time>
      </trkpt>
      <trkpt lat="41.1803510" lon="-5.6961980">
        <ele>868.0</ele>
        <time>2021-10-14T11:06:25Z</time>
      </trkpt>
      <trkpt lat="41.1802670" lon="-5.6960960">
        <ele>867.6</ele>
        <time>2021-10-14T11:06:27Z</time>
      </trkpt>
      <trkpt lat="41.1802130" lon="-5.6960570">
        <ele>867.4</ele>
        <time>2021-10-14T11:06:28Z</time>
      </trkpt>
      <trkpt lat="41.1801510" lon="-5.6960270">
        <ele>867.2</ele>
        <time>2021-10-14T11:06:29Z</time>
      </trkpt>
      <trkpt lat="41.1800100" lon="-5.6959900">
        <ele>866.8</ele>
        <time>2021-10-14T11:06:31Z</time>
      </trkpt>
      <trkpt lat="41.1799350" lon="-5.6959810">
        <ele>866.2</ele>
        <time>2021-10-14T11:06:32Z</time>
      </trkpt>
      <trkpt lat="41.1797070" lon="-5.6959570">
        <ele>864.6</ele>
        <time>2021-10-14T11:06:35Z</time>
      </trkpt>
      <trkpt lat="41.1794740" lon="-5.6959260">
        <ele>863.4</ele>
        <time>2021-10-14T11:06:38Z</time>
      </trkpt>
      <trkpt lat="41.1792570" lon="-5.6959030">
        <ele>862.4</ele>
        <time>2021-10-14T11:06:41Z</time>
      </trkpt>
      <trkpt lat="41.1789220" lon="-5.6958750">
        <ele>861.4</ele>
        <time>2021-10-14T11:06:46Z</time>
      </trkpt>
      <trkpt lat="41.1788580" lon="-5.6958670">
        <ele>861.2</ele>
        <time>2021-10-14T11:06:47Z</time>
      </trkpt>
      <trkpt lat="41.1785380" lon="-5.6958230">
        <ele>860.0</ele>
        <time>2021-10-14T11:06:52Z</time>
      </trkpt>
      <trkpt lat="41.1784850" lon="-5.6958130">
        <ele>859.8</ele>
        <time>2021-10-14T11:06:53Z</time>
      </trkpt>
      <trkpt lat="41.1781920" lon="-5.6957430">
        <ele>858.6</ele>
        <time>2021-10-14T11:06:57Z</time>
      </trkpt>
      <trkpt lat="41.1781080" lon="-5.6957260">
        <ele>858.4</ele>
        <time>2021-10-14T11:06:58Z</time>
      </trkpt>
      <trkpt lat="41.1778340" lon="-5.6956750">
        <ele>856.8</ele>
        <time>2021-10-14T11:07:01Z</time>
      </trkpt>
      <trkpt lat="41.1776440" lon="-5.6956490">
        <ele>855.6</ele>
        <time>2021-10-14T11:07:03Z</time>
      </trkpt>
      <trkpt lat="41.1775500" lon="-5.6956370">
        <ele>855.0</ele>
        <time>2021-10-14T11:07:04Z</time>
      </trkpt>
      <trkpt lat="41.1774570" lon="-5.6956260">
        <ele>854.6</ele>
        <time>2021-10-14T11:07:05Z</time>
      </trkpt>
      <trkpt lat="41.1771820" lon="-5.6956000">
        <ele>852.6</ele>
        <time>2021-10-14T11:07:08Z</time>
      </trkpt>
      <trkpt lat="41.1770010" lon="-5.6955830">
        <ele>851.6</ele>
        <time>2021-10-14T11:07:10Z</time>
      </trkpt>
      <trkpt lat="41.1766520" lon="-5.6955550">
        <ele>850.0</ele>
        <time>2021-10-14T11:07:14Z</time>
      </trkpt>
      <trkpt lat="41.1765680" lon="-5.6955530">
        <ele>849.2</ele>
        <time>2021-10-14T11:07:15Z</time>
      </trkpt>
      <trkpt lat="41.1764840" lon="-5.6955490">
        <ele>849.0</ele>
        <time>2021-10-14T11:07:16Z</time>
      </trkpt>
      <trkpt lat="41.1761640" lon="-5.6955490">
        <ele>847.8</ele>
        <time>2021-10-14T11:07:20Z</time>
      </trkpt>
      <trkpt lat="41.1760110" lon="-5.6955430">
        <ele>847.4</ele>
        <time>2021-10-14T11:07:22Z</time>
      </trkpt>
      <trkpt lat="41.1757960" lon="-5.6955420">
        <ele>846.6</ele>
        <time>2021-10-14T11:07:25Z</time>
      </trkpt>
      <trkpt lat="41.1756010" lon="-5.6955480">
        <ele>846.2</ele>
        <time>2021-10-14T11:07:28Z</time>
      </trkpt>
      <trkpt lat="41.1754710" lon="-5.6955350">
        <ele>846.0</ele>
        <time>2021-10-14T11:07:30Z</time>
      </trkpt>
      <trkpt lat="41.1753220" lon="-5.6955120">
        <ele>845.4</ele>
        <time>2021-10-14T11:07:33Z</time>
      </trkpt>
      <trkpt lat="41.1751690" lon="-5.6955120">
        <ele>844.8</ele>
        <time>2021-10-14T11:07:36Z</time>
      </trkpt>
      <trkpt lat="41.1750060" lon="-5.6955250">
        <ele>844.6</ele>
        <time>2021-10-14T11:07:39Z</time>
      </trkpt>
      <trkpt lat="41.1749500" lon="-5.6955280">
        <ele>844.4</ele>
        <time>2021-10-14T11:07:40Z</time>
      </trkpt>
      <trkpt lat="41.1744790" lon="-5.6955560">
        <ele>844.0</ele>
        <time>2021-10-14T11:07:48Z</time>
      </trkpt>
      <trkpt lat="41.1742920" lon="-5.6955640">
        <ele>843.8</ele>
        <time>2021-10-14T11:07:51Z</time>
      </trkpt>
      <trkpt lat="41.1741080" lon="-5.6955610">
        <ele>843.4</ele>
        <time>2021-10-14T11:07:54Z</time>
      </trkpt>
      <trkpt lat="41.1740490" lon="-5.6955600">
        <ele>843.4</ele>
        <time>2021-10-14T11:07:55Z</time>
      </trkpt>
      <trkpt lat="41.1739940" lon="-5.6955590">
        <ele>843.2</ele>
        <time>2021-10-14T11:07:56Z</time>
      </trkpt>
      <trkpt lat="41.1738340" lon="-5.6955760">
        <ele>842.8</ele>
        <time>2021-10-14T11:07:59Z</time>
      </trkpt>
      <trkpt lat="41.1737810" lon="-5.6955820">
        <ele>842.8</ele>
        <time>2021-10-14T11:08:00Z</time>
      </trkpt>
      <trkpt lat="41.1733570" lon="-5.6956040">
        <ele>842.8</ele>
        <time>2021-10-14T11:08:08Z</time>
      </trkpt>
      <trkpt lat="41.1733020" lon="-5.6956050">
        <ele>842.6</ele>
        <time>2021-10-14T11:08:09Z</time>
      </trkpt>
      <trkpt lat="41.1730300" lon="-5.6956220">
        <ele>842.6</ele>
        <time>2021-10-14T11:08:14Z</time>
      </trkpt>
      <trkpt lat="41.1727660" lon="-5.6956580">
        <ele>842.6</ele>
        <time>2021-10-14T11:08:19Z</time>
      </trkpt>
      <trkpt lat="41.1724810" lon="-5.6956850">
        <ele>842.8</ele>
        <time>2021-10-14T11:08:25Z</time>
      </trkpt>
      <trkpt lat="41.1723460" lon="-5.6956880">
        <ele>843.0</ele>
        <time>2021-10-14T11:08:28Z</time>
      </trkpt>
      <trkpt lat="41.1719370" lon="-5.6956540">
        <ele>842.8</ele>
        <time>2021-10-14T11:08:36Z</time>
      </trkpt>
      <trkpt lat="41.1715520" lon="-5.6956170">
        <ele>842.8</ele>
        <time>2021-10-14T11:08:44Z</time>
      </trkpt>
      <trkpt lat="41.1710930" lon="-5.6956340">
        <ele>843.0</ele>
        <time>2021-10-14T11:08:54Z</time>
      </trkpt>
      <trkpt lat="41.1707580" lon="-5.6956670">
        <ele>843.6</ele>
        <time>2021-10-14T11:09:01Z</time>
      </trkpt>
      <trkpt lat="41.1706650" lon="-5.6956710">
        <ele>843.6</ele>
        <time>2021-10-14T11:09:03Z</time>
      </trkpt>
      <trkpt lat="41.1705740" lon="-5.6956780">
        <ele>843.6</ele>
        <time>2021-10-14T11:09:05Z</time>
      </trkpt>
      <trkpt lat="41.1704870" lon="-5.6956870">
        <ele>843.6</ele>
        <time>2021-10-14T11:09:07Z</time>
      </trkpt>
      <trkpt lat="41.1703440" lon="-5.6956970">
        <ele>843.6</ele>
        <time>2021-10-14T11:09:10Z</time>
      </trkpt>
      <trkpt lat="41.1702480" lon="-5.6957100">
        <ele>843.2</ele>
        <time>2021-10-14T11:09:12Z</time>
      </trkpt>
      <trkpt lat="41.1701980" lon="-5.6957150">
        <ele>843.2</ele>
        <time>2021-10-14T11:09:13Z</time>
      </trkpt>
      <trkpt lat="41.1700370" lon="-5.6957250">
        <ele>843.0</ele>
        <time>2021-10-14T11:09:16Z</time>
      </trkpt>
      <trkpt lat="41.1699220" lon="-5.6957450">
        <ele>842.8</ele>
        <time>2021-10-14T11:09:18Z</time>
      </trkpt>
      <trkpt lat="41.1698500" lon="-5.6957660">
        <ele>842.8</ele>
        <time>2021-10-14T11:09:19Z</time>
      </trkpt>
      <trkpt lat="41.1697360" lon="-5.6957870">
        <ele>842.2</ele>
        <time>2021-10-14T11:09:21Z</time>
      </trkpt>
      <trkpt lat="41.1696740" lon="-5.6957870">
        <ele>842.0</ele>
        <time>2021-10-14T11:09:22Z</time>
      </trkpt>
      <trkpt lat="41.1695550" lon="-5.6957810">
        <ele>841.6</ele>
        <time>2021-10-14T11:09:24Z</time>
      </trkpt>
      <trkpt lat="41.1691800" lon="-5.6957720">
        <ele>841.4</ele>
        <time>2021-10-14T11:09:31Z</time>
      </trkpt>
      <trkpt lat="41.1691320" lon="-5.6957720">
        <ele>841.4</ele>
        <time>2021-10-14T11:09:32Z</time>
      </trkpt>
      <trkpt lat="41.1688140" lon="-5.6957700">
        <ele>842.0</ele>
        <time>2021-10-14T11:09:39Z</time>
      </trkpt>
      <trkpt lat="41.1684980" lon="-5.6957680">
        <ele>843.0</ele>
        <time>2021-10-14T11:09:47Z</time>
      </trkpt>
      <trkpt lat="41.1684220" lon="-5.6957700">
        <ele>843.4</ele>
        <time>2021-10-14T11:09:49Z</time>
      </trkpt>
      <trkpt lat="41.1682030" lon="-5.6957670">
        <ele>844.0</ele>
        <time>2021-10-14T11:09:55Z</time>
      </trkpt>
      <trkpt lat="41.1680950" lon="-5.6957610">
        <ele>844.4</ele>
        <time>2021-10-14T11:09:58Z</time>
      </trkpt>
      <trkpt lat="41.1680230" lon="-5.6957590">
        <ele>844.4</ele>
        <time>2021-10-14T11:10:00Z</time>
      </trkpt>
      <trkpt lat="41.1676940" lon="-5.6957690">
        <ele>845.2</ele>
        <time>2021-10-14T11:10:09Z</time>
      </trkpt>
      <trkpt lat="41.1675200" lon="-5.6957740">
        <ele>845.6</ele>
        <time>2021-10-14T11:10:14Z</time>
      </trkpt>
      <trkpt lat="41.1673340" lon="-5.6957810">
        <ele>845.8</ele>
        <time>2021-10-14T11:10:19Z</time>
      </trkpt>
      <trkpt lat="41.1670270" lon="-5.6958110">
        <ele>846.4</ele>
        <time>2021-10-14T11:10:27Z</time>
      </trkpt>
      <trkpt lat="41.1669140" lon="-5.6958280">
        <ele>846.6</ele>
        <time>2021-10-14T11:10:30Z</time>
      </trkpt>
      <trkpt lat="41.1668740" lon="-5.6958340">
        <ele>846.6</ele>
        <time>2021-10-14T11:10:31Z</time>
      </trkpt>
      <trkpt lat="41.1666920" lon="-5.6958460">
        <ele>846.4</ele>
        <time>2021-10-14T11:10:35Z</time>
      </trkpt>
      <trkpt lat="41.1665890" lon="-5.6958510">
        <ele>846.4</ele>
        <time>2021-10-14T11:10:37Z</time>
      </trkpt>
      <trkpt lat="41.1663330" lon="-5.6958630">
        <ele>845.6</ele>
        <time>2021-10-14T11:10:42Z</time>
      </trkpt>
      <trkpt lat="41.1662430" lon="-5.6958670">
        <ele>845.2</ele>
        <time>2021-10-14T11:10:44Z</time>
      </trkpt>
      <trkpt lat="41.1658410" lon="-5.6958810">
        <ele>845.2</ele>
        <time>2021-10-14T11:10:53Z</time>
      </trkpt>
      <trkpt lat="41.1656290" lon="-5.6958840">
        <ele>845.6</ele>
        <time>2021-10-14T11:10:58Z</time>
      </trkpt>
      <trkpt lat="41.1655010" lon="-5.6958850">
        <ele>845.8</ele>
        <time>2021-10-14T11:11:01Z</time>
      </trkpt>
      <trkpt lat="41.1652500" lon="-5.6958970">
        <ele>846.0</ele>
        <time>2021-10-14T11:11:07Z</time>
      </trkpt>
      <trkpt lat="41.1651270" lon="-5.6959070">
        <ele>846.0</ele>
        <time>2021-10-14T11:11:10Z</time>
      </trkpt>
      <trkpt lat="41.1649970" lon="-5.6959160">
        <ele>846.2</ele>
        <time>2021-10-14T11:11:13Z</time>
      </trkpt>
      <trkpt lat="41.1648160" lon="-5.6959280">
        <ele>846.2</ele>
        <time>2021-10-14T11:11:17Z</time>
      </trkpt>
      <trkpt lat="41.1646800" lon="-5.6959340">
        <ele>846.0</ele>
        <time>2021-10-14T11:11:20Z</time>
      </trkpt>
      <trkpt lat="41.1645090" lon="-5.6959460">
        <ele>845.8</ele>
        <time>2021-10-14T11:11:24Z</time>
      </trkpt>
      <trkpt lat="41.1643800" lon="-5.6959510">
        <ele>845.4</ele>
        <time>2021-10-14T11:11:27Z</time>
      </trkpt>
      <trkpt lat="41.1642930" lon="-5.6959520">
        <ele>845.2</ele>
        <time>2021-10-14T11:11:29Z</time>
      </trkpt>
      <trkpt lat="41.1639570" lon="-5.6959560">
        <ele>845.0</ele>
        <time>2021-10-14T11:11:36Z</time>
      </trkpt>
      <trkpt lat="41.1637820" lon="-5.6959520">
        <ele>845.0</ele>
        <time>2021-10-14T11:11:40Z</time>
      </trkpt>
      <trkpt lat="41.1633160" lon="-5.6959470">
        <ele>845.4</ele>
        <time>2021-10-14T11:11:51Z</time>
      </trkpt>
      <trkpt lat="41.1629340" lon="-5.6959890">
        <ele>845.8</ele>
        <time>2021-10-14T11:12:00Z</time>
      </trkpt>
      <trkpt lat="41.1625750" lon="-5.6960260">
        <ele>846.4</ele>
        <time>2021-10-14T11:12:09Z</time>
      </trkpt>
      <trkpt lat="41.1623690" lon="-5.6960450">
        <ele>846.6</ele>
        <time>2021-10-14T11:12:14Z</time>
      </trkpt>
      <trkpt lat="41.1622970" lon="-5.6960470">
        <ele>846.8</ele>
        <time>2021-10-14T11:12:16Z</time>
      </trkpt>
      <trkpt lat="41.1622140" lon="-5.6960550">
        <ele>846.8</ele>
        <time>2021-10-14T11:12:18Z</time>
      </trkpt>
      <trkpt lat="41.1620110" lon="-5.6960690">
        <ele>847.0</ele>
        <time>2021-10-14T11:12:23Z</time>
      </trkpt>
      <trkpt lat="41.1618400" lon="-5.6960760">
        <ele>847.2</ele>
        <time>2021-10-14T11:12:27Z</time>
      </trkpt>
      <trkpt lat="41.1616380" lon="-5.6961210">
        <ele>847.2</ele>
        <time>2021-10-14T11:12:32Z</time>
      </trkpt>
      <trkpt lat="41.1615740" lon="-5.6961770">
        <ele>847.2</ele>
        <time>2021-10-14T11:12:34Z</time>
      </trkpt>
      <trkpt lat="41.1615450" lon="-5.6962140">
        <ele>847.2</ele>
        <time>2021-10-14T11:12:35Z</time>
      </trkpt>
      <trkpt lat="41.1615170" lon="-5.6962550">
        <ele>847.2</ele>
        <time>2021-10-14T11:12:36Z</time>
      </trkpt>
      <trkpt lat="41.1614690" lon="-5.6963430">
        <ele>847.0</ele>
        <time>2021-10-14T11:12:38Z</time>
      </trkpt>
      <trkpt lat="41.1613920" lon="-5.6964760">
        <ele>847.0</ele>
        <time>2021-10-14T11:12:41Z</time>
      </trkpt>
      <trkpt lat="41.1613060" lon="-5.6965820">
        <ele>846.8</ele>
        <time>2021-10-14T11:12:44Z</time>
      </trkpt>
      <trkpt lat="41.1612400" lon="-5.6966230">
        <ele>846.8</ele>
        <time>2021-10-14T11:12:46Z</time>
      </trkpt>
      <trkpt lat="41.1610610" lon="-5.6966540">
        <ele>846.8</ele>
        <time>2021-10-14T11:12:51Z</time>
      </trkpt>
      <trkpt lat="41.1607750" lon="-5.6965670">
        <ele>846.6</ele>
        <time>2021-10-14T11:12:59Z</time>
      </trkpt>
      <trkpt lat="41.1606570" lon="-5.6965180">
        <ele>846.4</ele>
        <time>2021-10-14T11:13:02Z</time>
      </trkpt>
      <trkpt lat="41.1605250" lon="-5.6964960">
        <ele>846.2</ele>
        <time>2021-10-14T11:13:05Z</time>
      </trkpt>
      <trkpt lat="41.1604380" lon="-5.6965110">
        <ele>846.0</ele>
        <time>2021-10-14T11:13:07Z</time>
      </trkpt>
      <trkpt lat="41.1603260" lon="-5.6965950">
        <ele>845.8</ele>
        <time>2021-10-14T11:13:10Z</time>
      </trkpt>
      <trkpt lat="41.1602030" lon="-5.6967430">
        <ele>845.4</ele>
        <time>2021-10-14T11:13:14Z</time>
      </trkpt>
      <trkpt lat="41.1601370" lon="-5.6967900">
        <ele>845.0</ele>
        <time>2021-10-14T11:13:16Z</time>
      </trkpt>
      <trkpt lat="41.1600560" lon="-5.6967970">
        <ele>845.0</ele>
        <time>2021-10-14T11:13:18Z</time>
      </trkpt>
      <trkpt lat="41.1600150" lon="-5.6967810">
        <ele>844.8</ele>
        <time>2021-10-14T11:13:19Z</time>
      </trkpt>
      <trkpt lat="41.1599760" lon="-5.6967490">
        <ele>844.8</ele>
        <time>2021-10-14T11:13:20Z</time>
      </trkpt>
      <trkpt lat="41.1599110" lon="-5.6966570">
        <ele>844.6</ele>
        <time>2021-10-14T11:13:22Z</time>
      </trkpt>
      <trkpt lat="41.1598890" lon="-5.6966010">
        <ele>844.6</ele>
        <time>2021-10-14T11:13:23Z</time>
      </trkpt>
      <trkpt lat="41.1598620" lon="-5.6964870">
        <ele>844.2</ele>
        <time>2021-10-14T11:13:25Z</time>
      </trkpt>
      <trkpt lat="41.1598310" lon="-5.6963080">
        <ele>844.0</ele>
        <time>2021-10-14T11:13:28Z</time>
      </trkpt>
      <trkpt lat="41.1598100" lon="-5.6962510">
        <ele>843.8</ele>
        <time>2021-10-14T11:13:29Z</time>
      </trkpt>
      <trkpt lat="41.1597810" lon="-5.6961990">
        <ele>843.8</ele>
        <time>2021-10-14T11:13:30Z</time>
      </trkpt>
      <trkpt lat="41.1597000" lon="-5.6961190">
        <ele>843.6</ele>
        <time>2021-10-14T11:13:32Z</time>
      </trkpt>
      <trkpt lat="41.1596480" lon="-5.6960950">
        <ele>843.4</ele>
        <time>2021-10-14T11:13:33Z</time>
      </trkpt>
      <trkpt lat="41.1595940" lon="-5.6960840">
        <ele>843.2</ele>
        <time>2021-10-14T11:13:34Z</time>
      </trkpt>
      <trkpt lat="41.1594860" lon="-5.6960830">
        <ele>843.0</ele>
        <time>2021-10-14T11:13:36Z</time>
      </trkpt>
      <trkpt lat="41.1594310" lon="-5.6960900">
        <ele>843.0</ele>
        <time>2021-10-14T11:13:37Z</time>
      </trkpt>
      <trkpt lat="41.1589910" lon="-5.6961290">
        <ele>842.2</ele>
        <time>2021-10-14T11:13:45Z</time>
      </trkpt>
      <trkpt lat="41.1588810" lon="-5.6961360">
        <ele>841.8</ele>
        <time>2021-10-14T11:13:47Z</time>
      </trkpt>
      <trkpt lat="41.1584320" lon="-5.6961460">
        <ele>841.2</ele>
        <time>2021-10-14T11:13:55Z</time>
      </trkpt>
      <trkpt lat="41.1583750" lon="-5.6961510">
        <ele>841.0</ele>
        <time>2021-10-14T11:13:56Z</time>
      </trkpt>
      <trkpt lat="41.1581480" lon="-5.6961630">
        <ele>840.8</ele>
        <time>2021-10-14T11:14:00Z</time>
      </trkpt>
      <trkpt lat="41.1578610" lon="-5.6961720">
        <ele>840.4</ele>
        <time>2021-10-14T11:14:05Z</time>
      </trkpt>
      <trkpt lat="41.1575900" lon="-5.6961900">
        <ele>840.4</ele>
        <time>2021-10-14T11:14:10Z</time>
      </trkpt>
      <trkpt lat="41.1574870" lon="-5.6961940">
        <ele>840.2</ele>
        <time>2021-10-14T11:14:12Z</time>
      </trkpt>
      <trkpt lat="41.1573810" lon="-5.6962040">
        <ele>840.2</ele>
        <time>2021-10-14T11:14:14Z</time>
      </trkpt>
      <trkpt lat="41.1571630" lon="-5.6962210">
        <ele>840.0</ele>
        <time>2021-10-14T11:14:18Z</time>
      </trkpt>
      <trkpt lat="41.1569380" lon="-5.6962300">
        <ele>839.8</ele>
        <time>2021-10-14T11:14:22Z</time>
      </trkpt>
      <trkpt lat="41.1566290" lon="-5.6962480">
        <ele>839.6</ele>
        <time>2021-10-14T11:14:28Z</time>
      </trkpt>
      <trkpt lat="41.1564160" lon="-5.6962610">
        <ele>839.6</ele>
        <time>2021-10-14T11:14:32Z</time>
      </trkpt>
      <trkpt lat="41.1561920" lon="-5.6962670">
        <ele>839.0</ele>
        <time>2021-10-14T11:14:36Z</time>
      </trkpt>
      <trkpt lat="41.1559330" lon="-5.6962680">
        <ele>838.8</ele>
        <time>2021-10-14T11:14:41Z</time>
      </trkpt>
      <trkpt lat="41.1558330" lon="-5.6962730">
        <ele>838.8</ele>
        <time>2021-10-14T11:14:43Z</time>
      </trkpt>
      <trkpt lat="41.1552720" lon="-5.6962740">
        <ele>839.4</ele>
        <time>2021-10-14T11:14:54Z</time>
      </trkpt>
      <trkpt lat="41.1551140" lon="-5.6962780">
        <ele>839.4</ele>
        <time>2021-10-14T11:14:57Z</time>
      </trkpt>
      <trkpt lat="41.1548480" lon="-5.6962820">
        <ele>839.2</ele>
        <time>2021-10-14T11:15:02Z</time>
      </trkpt>
      <trkpt lat="41.1546820" lon="-5.6962820">
        <ele>839.0</ele>
        <time>2021-10-14T11:15:05Z</time>
      </trkpt>
      <trkpt lat="41.1545920" lon="-5.6962870">
        <ele>838.8</ele>
        <time>2021-10-14T11:15:07Z</time>
      </trkpt>
      <trkpt lat="41.1544110" lon="-5.6962910">
        <ele>838.4</ele>
        <time>2021-10-14T11:15:11Z</time>
      </trkpt>
      <trkpt lat="41.1542350" lon="-5.6962940">
        <ele>838.4</ele>
        <time>2021-10-14T11:15:15Z</time>
      </trkpt>
      <trkpt lat="41.1537350" lon="-5.6963220">
        <ele>838.6</ele>
        <time>2021-10-14T11:15:26Z</time>
      </trkpt>
      <trkpt lat="41.1532260" lon="-5.6963460">
        <ele>838.8</ele>
        <time>2021-10-14T11:15:37Z</time>
      </trkpt>
      <trkpt lat="41.1529620" lon="-5.6963590">
        <ele>838.8</ele>
        <time>2021-10-14T11:15:43Z</time>
      </trkpt>
      <trkpt lat="41.1528780" lon="-5.6963610">
        <ele>838.6</ele>
        <time>2021-10-14T11:15:45Z</time>
      </trkpt>
      <trkpt lat="41.1527650" lon="-5.6963670">
        <ele>838.2</ele>
        <time>2021-10-14T11:15:47Z</time>
      </trkpt>
      <trkpt lat="41.1526590" lon="-5.6963770">
        <ele>838.0</ele>
        <time>2021-10-14T11:15:49Z</time>
      </trkpt>
      <trkpt lat="41.1524030" lon="-5.6964150">
        <ele>836.6</ele>
        <time>2021-10-14T11:15:53Z</time>
      </trkpt>
      <trkpt lat="41.1522700" lon="-5.6964390">
        <ele>836.0</ele>
        <time>2021-10-14T11:15:55Z</time>
      </trkpt>
      <trkpt lat="41.1522060" lon="-5.6964390">
        <ele>835.4</ele>
        <time>2021-10-14T11:15:56Z</time>
      </trkpt>
      <trkpt lat="41.1520880" lon="-5.6964310">
        <ele>834.8</ele>
        <time>2021-10-14T11:15:58Z</time>
      </trkpt>
      <trkpt lat="41.1518900" lon="-5.6964340">
        <ele>834.4</ele>
        <time>2021-10-14T11:16:02Z</time>
      </trkpt>
      <trkpt lat="41.1518410" lon="-5.6964330">
        <ele>834.2</ele>
        <time>2021-10-14T11:16:03Z</time>
      </trkpt>
      <trkpt lat="41.1513010" lon="-5.6964330">
        <ele>834.4</ele>
        <time>2021-10-14T11:16:13Z</time>
      </trkpt>
      <trkpt lat="41.1509400" lon="-5.6964310">
        <ele>834.4</ele>
        <time>2021-10-14T11:16:20Z</time>
      </trkpt>
      <trkpt lat="41.1509000" lon="-5.6964290">
        <ele>834.4</ele>
        <time>2021-10-14T11:16:21Z</time>
      </trkpt>
      <trkpt lat="41.1506570" lon="-5.6964310">
        <ele>834.4</ele>
        <time>2021-10-14T11:16:26Z</time>
      </trkpt>
      <trkpt lat="41.1503580" lon="-5.6964370">
        <ele>834.6</ele>
        <time>2021-10-14T11:16:32Z</time>
      </trkpt>
      <trkpt lat="41.1498790" lon="-5.6964690">
        <ele>834.2</ele>
        <time>2021-10-14T11:16:42Z</time>
      </trkpt>
      <trkpt lat="41.1497130" lon="-5.6964970">
        <ele>833.8</ele>
        <time>2021-10-14T11:16:45Z</time>
      </trkpt>
      <trkpt lat="41.1495900" lon="-5.6965210">
        <ele>833.0</ele>
        <time>2021-10-14T11:16:47Z</time>
      </trkpt>
      <trkpt lat="41.1494670" lon="-5.6965250">
        <ele>832.2</ele>
        <time>2021-10-14T11:16:49Z</time>
      </trkpt>
      <trkpt lat="41.1494080" lon="-5.6965240">
        <ele>832.0</ele>
        <time>2021-10-14T11:16:50Z</time>
      </trkpt>
      <trkpt lat="41.1492460" lon="-5.6965300">
        <ele>831.6</ele>
        <time>2021-10-14T11:16:53Z</time>
      </trkpt>
      <trkpt lat="41.1489410" lon="-5.6965230">
        <ele>831.8</ele>
        <time>2021-10-14T11:17:00Z</time>
      </trkpt>
      <trkpt lat="41.1488150" lon="-5.6965190">
        <ele>832.0</ele>
        <time>2021-10-14T11:17:03Z</time>
      </trkpt>
      <trkpt lat="41.1485260" lon="-5.6965180">
        <ele>832.6</ele>
        <time>2021-10-14T11:17:10Z</time>
      </trkpt>
      <trkpt lat="41.1483840" lon="-5.6965300">
        <ele>833.0</ele>
        <time>2021-10-14T11:17:14Z</time>
      </trkpt>
      <trkpt lat="41.1483410" lon="-5.6965330">
        <ele>833.2</ele>
        <time>2021-10-14T11:17:15Z</time>
      </trkpt>
      <trkpt lat="41.1480870" lon="-5.6965640">
        <ele>834.2</ele>
        <time>2021-10-14T11:17:23Z</time>
      </trkpt>
      <trkpt lat="41.1479550" lon="-5.6965820">
        <ele>834.4</ele>
        <time>2021-10-14T11:17:27Z</time>
      </trkpt>
      <trkpt lat="41.1478520" lon="-5.6965930">
        <ele>834.6</ele>
        <time>2021-10-14T11:17:30Z</time>
      </trkpt>
      <trkpt lat="41.1476710" lon="-5.6966080">
        <ele>835.0</ele>
        <time>2021-10-14T11:17:35Z</time>
      </trkpt>
      <trkpt lat="41.1475170" lon="-5.6966100">
        <ele>835.0</ele>
        <time>2021-10-14T11:17:39Z</time>
      </trkpt>
      <trkpt lat="41.1471510" lon="-5.6966080">
        <ele>835.0</ele>
        <time>2021-10-14T11:17:47Z</time>
      </trkpt>
      <trkpt lat="41.1469960" lon="-5.6965860">
        <ele>834.8</ele>
        <time>2021-10-14T11:17:50Z</time>
      </trkpt>
      <trkpt lat="41.1467680" lon="-5.6965690">
        <ele>833.0</ele>
        <time>2021-10-14T11:17:54Z</time>
      </trkpt>
      <trkpt lat="41.1466020" lon="-5.6965770">
        <ele>831.8</ele>
        <time>2021-10-14T11:17:58Z</time>
      </trkpt>
      <trkpt lat="41.1465630" lon="-5.6965810">
        <ele>831.8</ele>
        <time>2021-10-14T11:17:59Z</time>
      </trkpt>
      <trkpt lat="41.1463830" lon="-5.6966000">
        <ele>831.0</ele>
        <time>2021-10-14T11:18:03Z</time>
      </trkpt>
      <trkpt lat="41.1463360" lon="-5.6966070">
        <ele>830.6</ele>
        <time>2021-10-14T11:18:04Z</time>
      </trkpt>
      <trkpt lat="41.1462880" lon="-5.6966130">
        <ele>830.2</ele>
        <time>2021-10-14T11:18:05Z</time>
      </trkpt>
      <trkpt lat="41.1461120" lon="-5.6966290">
        <ele>829.6</ele>
        <time>2021-10-14T11:18:09Z</time>
      </trkpt>
      <trkpt lat="41.1459330" lon="-5.6966340">
        <ele>829.4</ele>
        <time>2021-10-14T11:18:13Z</time>
      </trkpt>
      <trkpt lat="41.1455530" lon="-5.6966570">
        <ele>829.4</ele>
        <time>2021-10-14T11:18:21Z</time>
      </trkpt>
      <trkpt lat="41.1454650" lon="-5.6966640">
        <ele>829.4</ele>
        <time>2021-10-14T11:18:23Z</time>
      </trkpt>
      <trkpt lat="41.1453140" lon="-5.6966600">
        <ele>829.4</ele>
        <time>2021-10-14T11:18:26Z</time>
      </trkpt>
      <trkpt lat="41.1451200" lon="-5.6966530">
        <ele>829.0</ele>
        <time>2021-10-14T11:18:30Z</time>
      </trkpt>
      <trkpt lat="41.1448150" lon="-5.6966450">
        <ele>829.2</ele>
        <time>2021-10-14T11:18:38Z</time>
      </trkpt>
      <trkpt lat="41.1446750" lon="-5.6966490">
        <ele>829.8</ele>
        <time>2021-10-14T11:18:42Z</time>
      </trkpt>
      <trkpt lat="41.1445280" lon="-5.6966520">
        <ele>830.2</ele>
        <time>2021-10-14T11:18:46Z</time>
      </trkpt>
      <trkpt lat="41.1444580" lon="-5.6966580">
        <ele>830.4</ele>
        <time>2021-10-14T11:18:48Z</time>
      </trkpt>
      <trkpt lat="41.1443410" lon="-5.6966640">
        <ele>830.6</ele>
        <time>2021-10-14T11:18:51Z</time>
      </trkpt>
      <trkpt lat="41.1440460" lon="-5.6966780">
        <ele>830.6</ele>
        <time>2021-10-14T11:18:58Z</time>
      </trkpt>
      <trkpt lat="41.1439250" lon="-5.6966940">
        <ele>830.6</ele>
        <time>2021-10-14T11:19:01Z</time>
      </trkpt>
      <trkpt lat="41.1438920" lon="-5.6966990">
        <ele>830.6</ele>
        <time>2021-10-14T11:19:02Z</time>
      </trkpt>
      <trkpt lat="41.1438030" lon="-5.6967020">
        <ele>830.4</ele>
        <time>2021-10-14T11:19:04Z</time>
      </trkpt>
      <trkpt lat="41.1437070" lon="-5.6967110">
        <ele>830.2</ele>
        <time>2021-10-14T11:19:06Z</time>
      </trkpt>
      <trkpt lat="41.1434390" lon="-5.6967390">
        <ele>829.8</ele>
        <time>2021-10-14T11:19:11Z</time>
      </trkpt>
      <trkpt lat="41.1433770" lon="-5.6967470">
        <ele>829.4</ele>
        <time>2021-10-14T11:19:12Z</time>
      </trkpt>
      <trkpt lat="41.1431890" lon="-5.6967600">
        <ele>828.6</ele>
        <time>2021-10-14T11:19:16Z</time>
      </trkpt>
      <trkpt lat="41.1431360" lon="-5.6967640">
        <ele>828.6</ele>
        <time>2021-10-14T11:19:17Z</time>
      </trkpt>
      <trkpt lat="41.1431000" lon="-5.6967680">
        <ele>828.4</ele>
        <time>2021-10-14T11:19:18Z</time>
      </trkpt>
      <trkpt lat="41.1430560" lon="-5.6967700">
        <ele>828.2</ele>
        <time>2021-10-14T11:19:19Z</time>
      </trkpt>
      <trkpt lat="41.1428940" lon="-5.6967720">
        <ele>828.0</ele>
        <time>2021-10-14T11:19:23Z</time>
      </trkpt>
      <trkpt lat="41.1425510" lon="-5.6967860">
        <ele>829.2</ele>
        <time>2021-10-14T11:19:32Z</time>
      </trkpt>
      <trkpt lat="41.1425130" lon="-5.6967890">
        <ele>829.4</ele>
        <time>2021-10-14T11:19:33Z</time>
      </trkpt>
      <trkpt lat="41.1424030" lon="-5.6968020">
        <ele>829.6</ele>
        <time>2021-10-14T11:19:36Z</time>
      </trkpt>
      <trkpt lat="41.1421830" lon="-5.6968210">
        <ele>829.8</ele>
        <time>2021-10-14T11:19:41Z</time>
      </trkpt>
      <trkpt lat="41.1418370" lon="-5.6968220">
        <ele>829.4</ele>
        <time>2021-10-14T11:19:48Z</time>
      </trkpt>
      <trkpt lat="41.1416840" lon="-5.6968240">
        <ele>828.8</ele>
        <time>2021-10-14T11:19:51Z</time>
      </trkpt>
      <trkpt lat="41.1415230" lon="-5.6968240">
        <ele>828.6</ele>
        <time>2021-10-14T11:19:54Z</time>
      </trkpt>
      <trkpt lat="41.1414330" lon="-5.6968340">
        <ele>828.2</ele>
        <time>2021-10-14T11:19:56Z</time>
      </trkpt>
      <trkpt lat="41.1413310" lon="-5.6968440">
        <ele>827.8</ele>
        <time>2021-10-14T11:19:58Z</time>
      </trkpt>
      <trkpt lat="41.1411780" lon="-5.6968540">
        <ele>827.8</ele>
        <time>2021-10-14T11:20:01Z</time>
      </trkpt>
      <trkpt lat="41.1410230" lon="-5.6968850">
        <ele>827.4</ele>
        <time>2021-10-14T11:20:04Z</time>
      </trkpt>
      <trkpt lat="41.1408570" lon="-5.6969150">
        <ele>827.2</ele>
        <time>2021-10-14T11:20:07Z</time>
      </trkpt>
      <trkpt lat="41.1405430" lon="-5.6969550">
        <ele>825.8</ele>
        <time>2021-10-14T11:20:13Z</time>
      </trkpt>
      <trkpt lat="41.1404890" lon="-5.6969610">
        <ele>825.6</ele>
        <time>2021-10-14T11:20:14Z</time>
      </trkpt>
      <trkpt lat="41.1403190" lon="-5.6969880">
        <ele>824.6</ele>
        <time>2021-10-14T11:20:17Z</time>
      </trkpt>
      <trkpt lat="41.1402000" lon="-5.6970120">
        <ele>824.4</ele>
        <time>2021-10-14T11:20:19Z</time>
      </trkpt>
      <trkpt lat="41.1399910" lon="-5.6970400">
        <ele>823.6</ele>
        <time>2021-10-14T11:20:22Z</time>
      </trkpt>
      <trkpt lat="41.1397810" lon="-5.6970730">
        <ele>822.6</ele>
        <time>2021-10-14T11:20:25Z</time>
      </trkpt>
      <trkpt lat="41.1395100" lon="-5.6971180">
        <ele>821.0</ele>
        <time>2021-10-14T11:20:29Z</time>
      </trkpt>
      <trkpt lat="41.1392940" lon="-5.6971510">
        <ele>820.0</ele>
        <time>2021-10-14T11:20:32Z</time>
      </trkpt>
      <trkpt lat="41.1390020" lon="-5.6971990">
        <ele>819.0</ele>
        <time>2021-10-14T11:20:36Z</time>
      </trkpt>
      <trkpt lat="41.1387620" lon="-5.6972540">
        <ele>818.2</ele>
        <time>2021-10-14T11:20:39Z</time>
      </trkpt>
      <trkpt lat="41.1386350" lon="-5.6972860">
        <ele>817.8</ele>
        <time>2021-10-14T11:20:41Z</time>
      </trkpt>
      <trkpt lat="41.1384450" lon="-5.6973210">
        <ele>816.6</ele>
        <time>2021-10-14T11:20:44Z</time>
      </trkpt>
      <trkpt lat="41.1383080" lon="-5.6973360">
        <ele>815.6</ele>
        <time>2021-10-14T11:20:46Z</time>
      </trkpt>
      <trkpt lat="41.1382610" lon="-5.6973370">
        <ele>815.6</ele>
        <time>2021-10-14T11:20:47Z</time>
      </trkpt>
      <trkpt lat="41.1380610" lon="-5.6973470">
        <ele>814.4</ele>
        <time>2021-10-14T11:20:51Z</time>
      </trkpt>
      <trkpt lat="41.1380150" lon="-5.6973440">
        <ele>814.2</ele>
        <time>2021-10-14T11:20:52Z</time>
      </trkpt>
      <trkpt lat="41.1378560" lon="-5.6973430">
        <ele>814.4</ele>
        <time>2021-10-14T11:20:57Z</time>
      </trkpt>
      <trkpt lat="41.1377450" lon="-5.6973730">
        <ele>814.6</ele>
        <time>2021-10-14T11:21:01Z</time>
      </trkpt>
      <trkpt lat="41.1375740" lon="-5.6974110">
        <ele>815.0</ele>
        <time>2021-10-14T11:21:06Z</time>
      </trkpt>
      <trkpt lat="41.1374010" lon="-5.6974030">
        <ele>815.4</ele>
        <time>2021-10-14T11:21:11Z</time>
      </trkpt>
      <trkpt lat="41.1373380" lon="-5.6974080">
        <ele>815.4</ele>
        <time>2021-10-14T11:21:13Z</time>
      </trkpt>
      <trkpt lat="41.1370860" lon="-5.6974100">
        <ele>815.6</ele>
        <time>2021-10-14T11:21:21Z</time>
      </trkpt>
      <trkpt lat="41.1368870" lon="-5.6974110">
        <ele>816.4</ele>
        <time>2021-10-14T11:21:28Z</time>
      </trkpt>
      <trkpt lat="41.1368310" lon="-5.6974120">
        <ele>816.6</ele>
        <time>2021-10-14T11:21:30Z</time>
      </trkpt>
      <trkpt lat="41.1366120" lon="-5.6974250">
        <ele>817.0</ele>
        <time>2021-10-14T11:21:38Z</time>
      </trkpt>
      <trkpt lat="41.1365430" lon="-5.6974360">
        <ele>817.6</ele>
        <time>2021-10-14T11:21:41Z</time>
      </trkpt>
      <trkpt lat="41.1365030" lon="-5.6974350">
        <ele>817.8</ele>
        <time>2021-10-14T11:21:44Z</time>
      </trkpt>
      <trkpt lat="41.1365030" lon="-5.6974350">
        <ele>817.8</ele>
        <time>2021-10-14T11:21:46Z</time>
      </trkpt>
      <trkpt lat="41.1364410" lon="-5.6974470">
        <ele>817.4</ele>
        <time>2021-10-14T11:24:13Z</time>
      </trkpt>
      <trkpt lat="41.1364180" lon="-5.6974550">
        <ele>817.4</ele>
        <time>2021-10-14T11:24:14Z</time>
      </trkpt>
      <trkpt lat="41.1363050" lon="-5.6974850">
        <ele>817.4</ele>
        <time>2021-10-14T11:24:18Z</time>
      </trkpt>
      <trkpt lat="41.1362310" lon="-5.6975010">
        <ele>817.2</ele>
        <time>2021-10-14T11:24:20Z</time>
      </trkpt>
      <trkpt lat="41.1359920" lon="-5.6975590">
        <ele>816.6</ele>
        <time>2021-10-14T11:24:25Z</time>
      </trkpt>
      <trkpt lat="41.1359350" lon="-5.6975730">
        <ele>816.6</ele>
        <time>2021-10-14T11:24:26Z</time>
      </trkpt>
      <trkpt lat="41.1357480" lon="-5.6976200">
        <ele>815.6</ele>
        <time>2021-10-14T11:24:29Z</time>
      </trkpt>
      <trkpt lat="41.1355410" lon="-5.6976780">
        <ele>814.4</ele>
        <time>2021-10-14T11:24:32Z</time>
      </trkpt>
      <trkpt lat="41.1354690" lon="-5.6976940">
        <ele>813.6</ele>
        <time>2021-10-14T11:24:33Z</time>
      </trkpt>
      <trkpt lat="41.1353950" lon="-5.6977130">
        <ele>812.8</ele>
        <time>2021-10-14T11:24:34Z</time>
      </trkpt>
      <trkpt lat="41.1352440" lon="-5.6977520">
        <ele>811.8</ele>
        <time>2021-10-14T11:24:36Z</time>
      </trkpt>
      <trkpt lat="41.1350140" lon="-5.6978100">
        <ele>810.4</ele>
        <time>2021-10-14T11:24:39Z</time>
      </trkpt>
      <trkpt lat="41.1347760" lon="-5.6978680">
        <ele>809.0</ele>
        <time>2021-10-14T11:24:42Z</time>
      </trkpt>
      <trkpt lat="41.1346220" lon="-5.6979010">
        <ele>807.8</ele>
        <time>2021-10-14T11:24:44Z</time>
      </trkpt>
      <trkpt lat="41.1344050" lon="-5.6979590">
        <ele>807.0</ele>
        <time>2021-10-14T11:24:47Z</time>
      </trkpt>
      <trkpt lat="41.1343390" lon="-5.6979750">
        <ele>806.4</ele>
        <time>2021-10-14T11:24:48Z</time>
      </trkpt>
      <trkpt lat="41.1341970" lon="-5.6980110">
        <ele>805.4</ele>
        <time>2021-10-14T11:24:51Z</time>
      </trkpt>
      <trkpt lat="41.1341630" lon="-5.6980190">
        <ele>804.8</ele>
        <time>2021-10-14T11:24:52Z</time>
      </trkpt>
      <trkpt lat="41.1340770" lon="-5.6980270">
        <ele>804.2</ele>
        <time>2021-10-14T11:24:55Z</time>
      </trkpt>
      <trkpt lat="41.1339640" lon="-5.6980480">
        <ele>803.8</ele>
        <time>2021-10-14T11:24:59Z</time>
      </trkpt>
      <trkpt lat="41.1338890" lon="-5.6980610">
        <ele>803.6</ele>
        <time>2021-10-14T11:25:01Z</time>
      </trkpt>
      <trkpt lat="41.1337640" lon="-5.6980810">
        <ele>803.6</ele>
        <time>2021-10-14T11:25:04Z</time>
      </trkpt>
      <trkpt lat="41.1335980" lon="-5.6981040">
        <ele>803.4</ele>
        <time>2021-10-14T11:25:08Z</time>
      </trkpt>
      <trkpt lat="41.1334270" lon="-5.6981240">
        <ele>803.4</ele>
        <time>2021-10-14T11:25:12Z</time>
      </trkpt>
      <trkpt lat="41.1333390" lon="-5.6981270">
        <ele>803.2</ele>
        <time>2021-10-14T11:25:14Z</time>
      </trkpt>
      <trkpt lat="41.1332970" lon="-5.6981260">
        <ele>803.0</ele>
        <time>2021-10-14T11:25:15Z</time>
      </trkpt>
      <trkpt lat="41.1331840" lon="-5.6980730">
        <ele>802.8</ele>
        <time>2021-10-14T11:25:18Z</time>
      </trkpt>
      <trkpt lat="41.1331450" lon="-5.6980490">
        <ele>802.8</ele>
        <time>2021-10-14T11:25:19Z</time>
      </trkpt>
      <trkpt lat="41.1331090" lon="-5.6980190">
        <ele>802.8</ele>
        <time>2021-10-14T11:25:20Z</time>
      </trkpt>
      <trkpt lat="41.1330430" lon="-5.6979490">
        <ele>802.6</ele>
        <time>2021-10-14T11:25:22Z</time>
      </trkpt>
      <trkpt lat="41.1329870" lon="-5.6978800">
        <ele>802.4</ele>
        <time>2021-10-14T11:25:24Z</time>
      </trkpt>
      <trkpt lat="41.1329640" lon="-5.6978420">
        <ele>802.4</ele>
        <time>2021-10-14T11:25:25Z</time>
      </trkpt>
      <trkpt lat="41.1329370" lon="-5.6978180">
        <ele>802.4</ele>
        <time>2021-10-14T11:25:26Z</time>
      </trkpt>
      <trkpt lat="41.1328620" lon="-5.6978030">
        <ele>802.2</ele>
        <time>2021-10-14T11:25:28Z</time>
      </trkpt>
      <trkpt lat="41.1328200" lon="-5.6978050">
        <ele>802.2</ele>
        <time>2021-10-14T11:25:29Z</time>
      </trkpt>
      <trkpt lat="41.1327030" lon="-5.6978240">
        <ele>802.0</ele>
        <time>2021-10-14T11:25:32Z</time>
      </trkpt>
      <trkpt lat="41.1326750" lon="-5.6978160">
        <ele>802.0</ele>
        <time>2021-10-14T11:25:33Z</time>
      </trkpt>
      <trkpt lat="41.1326040" lon="-5.6977590">
        <ele>801.6</ele>
        <time>2021-10-14T11:25:37Z</time>
      </trkpt>
      <trkpt lat="41.1324800" lon="-5.6977550">
        <ele>801.4</ele>
        <time>2021-10-14T11:25:42Z</time>
      </trkpt>
      <trkpt lat="41.1323870" lon="-5.6977820">
        <ele>801.6</ele>
        <time>2021-10-14T11:25:47Z</time>
      </trkpt>
      <trkpt lat="41.1322790" lon="-5.6978000">
        <ele>801.6</ele>
        <time>2021-10-14T11:25:52Z</time>
      </trkpt>
      <trkpt lat="41.1321600" lon="-5.6977960">
        <ele>801.4</ele>
        <time>2021-10-14T11:25:57Z</time>
      </trkpt>
      <trkpt lat="41.1320250" lon="-5.6978080">
        <ele>801.4</ele>
        <time>2021-10-14T11:26:02Z</time>
      </trkpt>
      <trkpt lat="41.1320140" lon="-5.6978380">
        <ele>801.4</ele>
        <time>2021-10-14T11:26:03Z</time>
      </trkpt>
      <trkpt lat="41.1320040" lon="-5.6979280">
        <ele>801.4</ele>
        <time>2021-10-14T11:26:06Z</time>
      </trkpt>
      <trkpt lat="41.1319890" lon="-5.6979540">
        <ele>801.4</ele>
        <time>2021-10-14T11:26:07Z</time>
      </trkpt>
      <trkpt lat="41.1318750" lon="-5.6979800">
        <ele>801.2</ele>
        <time>2021-10-14T11:26:11Z</time>
      </trkpt>
      <trkpt lat="41.1318100" lon="-5.6979680">
        <ele>801.0</ele>
        <time>2021-10-14T11:26:13Z</time>
      </trkpt>
      <trkpt lat="41.1316760" lon="-5.6978710">
        <ele>800.6</ele>
        <time>2021-10-14T11:26:17Z</time>
      </trkpt>
      <trkpt lat="41.1316490" lon="-5.6978710">
        <ele>800.6</ele>
        <time>2021-10-14T11:26:18Z</time>
      </trkpt>
      <trkpt lat="41.1316210" lon="-5.6979050">
        <ele>800.4</ele>
        <time>2021-10-14T11:26:20Z</time>
      </trkpt>
      <trkpt lat="41.1315290" lon="-5.6980360">
        <ele>800.4</ele>
        <time>2021-10-14T11:26:26Z</time>
      </trkpt>
      <trkpt lat="41.1315070" lon="-5.6980460">
        <ele>800.4</ele>
        <time>2021-10-14T11:26:27Z</time>
      </trkpt>
      <trkpt lat="41.1314870" lon="-5.6980430">
        <ele>800.4</ele>
        <time>2021-10-14T11:26:28Z</time>
      </trkpt>
      <trkpt lat="41.1314520" lon="-5.6980200">
        <ele>800.4</ele>
        <time>2021-10-14T11:26:30Z</time>
      </trkpt>
      <trkpt lat="41.1313190" lon="-5.6980240">
        <ele>801.2</ele>
        <time>2021-10-14T11:26:35Z</time>
      </trkpt>
      <trkpt lat="41.1310820" lon="-5.6981470">
        <ele>801.6</ele>
        <time>2021-10-14T11:26:43Z</time>
      </trkpt>
      <trkpt lat="41.1309300" lon="-5.6981880">
        <ele>801.6</ele>
        <time>2021-10-14T11:26:49Z</time>
      </trkpt>
      <trkpt lat="41.1309000" lon="-5.6983450">
        <ele>801.6</ele>
        <time>2021-10-14T11:26:54Z</time>
      </trkpt>
      <trkpt lat="41.1308510" lon="-5.6985090">
        <ele>801.8</ele>
        <time>2021-10-14T11:26:59Z</time>
      </trkpt>
      <trkpt lat="41.1308140" lon="-5.6985590">
        <ele>801.8</ele>
        <time>2021-10-14T11:27:01Z</time>
      </trkpt>
      <trkpt lat="41.1306160" lon="-5.6986490">
        <ele>802.0</ele>
        <time>2021-10-14T11:27:08Z</time>
      </trkpt>
      <trkpt lat="41.1304980" lon="-5.6986720">
        <ele>802.0</ele>
        <time>2021-10-14T11:27:12Z</time>
      </trkpt>
      <trkpt lat="41.1304130" lon="-5.6986870">
        <ele>802.2</ele>
        <time>2021-10-14T11:27:15Z</time>
      </trkpt>
      <trkpt lat="41.1303100" lon="-5.6987170">
        <ele>802.4</ele>
        <time>2021-10-14T11:27:19Z</time>
      </trkpt>
      <trkpt lat="41.1301940" lon="-5.6987410">
        <ele>802.6</ele>
        <time>2021-10-14T11:27:23Z</time>
      </trkpt>
      <trkpt lat="41.1300620" lon="-5.6987400">
        <ele>802.4</ele>
        <time>2021-10-14T11:27:29Z</time>
      </trkpt>
      <trkpt lat="41.1298850" lon="-5.6987710">
        <ele>802.2</ele>
        <time>2021-10-14T11:27:35Z</time>
      </trkpt>
      <trkpt lat="41.1296540" lon="-5.6988320">
        <ele>802.4</ele>
        <time>2021-10-14T11:27:42Z</time>
      </trkpt>
      <trkpt lat="41.1293500" lon="-5.6989130">
        <ele>802.6</ele>
        <time>2021-10-14T11:27:50Z</time>
      </trkpt>
      <trkpt lat="41.1290800" lon="-5.6989860">
        <ele>802.8</ele>
        <time>2021-10-14T11:27:58Z</time>
      </trkpt>
      <trkpt lat="41.1289870" lon="-5.6990020">
        <ele>803.0</ele>
        <time>2021-10-14T11:28:01Z</time>
      </trkpt>
      <trkpt lat="41.1287470" lon="-5.6990560">
        <ele>803.6</ele>
        <time>2021-10-14T11:28:09Z</time>
      </trkpt>
      <trkpt lat="41.1286570" lon="-5.6990750">
        <ele>804.0</ele>
        <time>2021-10-14T11:28:12Z</time>
      </trkpt>
      <trkpt lat="41.1285670" lon="-5.6991020">
        <ele>804.0</ele>
        <time>2021-10-14T11:28:15Z</time>
      </trkpt>
      <trkpt lat="41.1284380" lon="-5.6991300">
        <ele>804.4</ele>
        <time>2021-10-14T11:28:19Z</time>
      </trkpt>
      <trkpt lat="41.1282940" lon="-5.6991590">
        <ele>804.6</ele>
        <time>2021-10-14T11:28:26Z</time>
      </trkpt>
      <trkpt lat="41.1282940" lon="-5.6991590">
        <ele>804.6</ele>
        <time>2021-10-14T11:28:27Z</time>
      </trkpt>
      <trkpt lat="41.1282320" lon="-5.6991710">
        <ele>804.6</ele>
        <time>2021-10-14T11:28:50Z</time>
      </trkpt>
      <trkpt lat="41.1282050" lon="-5.6991770">
        <ele>804.6</ele>
        <time>2021-10-14T11:28:51Z</time>
      </trkpt>
      <trkpt lat="41.1281770" lon="-5.6991820">
        <ele>804.6</ele>
        <time>2021-10-14T11:28:52Z</time>
      </trkpt>
      <trkpt lat="41.1279890" lon="-5.6992160">
        <ele>804.6</ele>
        <time>2021-10-14T11:28:58Z</time>
      </trkpt>
      <trkpt lat="41.1278920" lon="-5.6992400">
        <ele>805.0</ele>
        <time>2021-10-14T11:29:01Z</time>
      </trkpt>
      <trkpt lat="41.1277950" lon="-5.6992620">
        <ele>805.2</ele>
        <time>2021-10-14T11:29:04Z</time>
      </trkpt>
      <trkpt lat="41.1276630" lon="-5.6992900">
        <ele>805.4</ele>
        <time>2021-10-14T11:29:08Z</time>
      </trkpt>
      <trkpt lat="41.1275610" lon="-5.6993150">
        <ele>805.6</ele>
        <time>2021-10-14T11:29:11Z</time>
      </trkpt>
      <trkpt lat="41.1273480" lon="-5.6993450">
        <ele>805.8</ele>
        <time>2021-10-14T11:29:18Z</time>
      </trkpt>
      <trkpt lat="41.1272360" lon="-5.6993530">
        <ele>806.2</ele>
        <time>2021-10-14T11:29:22Z</time>
      </trkpt>
      <trkpt lat="41.1271360" lon="-5.6993650">
        <ele>807.0</ele>
        <time>2021-10-14T11:29:26Z</time>
      </trkpt>
      <trkpt lat="41.1271120" lon="-5.6993640">
        <ele>807.2</ele>
        <time>2021-10-14T11:29:27Z</time>
      </trkpt>
      <trkpt lat="41.1270040" lon="-5.6993690">
        <ele>808.0</ele>
        <time>2021-10-14T11:29:32Z</time>
      </trkpt>
      <trkpt lat="41.1269590" lon="-5.6993690">
        <ele>808.6</ele>
        <time>2021-10-14T11:29:34Z</time>
      </trkpt>
      <trkpt lat="41.1268190" lon="-5.6993910">
        <ele>809.6</ele>
        <time>2021-10-14T11:29:41Z</time>
      </trkpt>
      <trkpt lat="41.1268020" lon="-5.6993920">
        <ele>809.8</ele>
        <time>2021-10-14T11:29:42Z</time>
      </trkpt>
      <trkpt lat="41.1267320" lon="-5.6993960">
        <ele>810.8</ele>
        <time>2021-10-14T11:29:46Z</time>
      </trkpt>
      <trkpt lat="41.1266530" lon="-5.6994080">
        <ele>811.4</ele>
        <time>2021-10-14T11:29:50Z</time>
      </trkpt>
      <trkpt lat="41.1265870" lon="-5.6994150">
        <ele>811.8</ele>
        <time>2021-10-14T11:29:53Z</time>
      </trkpt>
      <trkpt lat="41.1265400" lon="-5.6994200">
        <ele>812.0</ele>
        <time>2021-10-14T11:29:55Z</time>
      </trkpt>
      <trkpt lat="41.1264650" lon="-5.6994310">
        <ele>812.2</ele>
        <time>2021-10-14T11:29:58Z</time>
      </trkpt>
      <trkpt lat="41.1264140" lon="-5.6994360">
        <ele>812.4</ele>
        <time>2021-10-14T11:30:00Z</time>
      </trkpt>
      <trkpt lat="41.1262390" lon="-5.6994600">
        <ele>812.6</ele>
        <time>2021-10-14T11:30:07Z</time>
      </trkpt>
      <trkpt lat="41.1262120" lon="-5.6994640">
        <ele>812.8</ele>
        <time>2021-10-14T11:30:08Z</time>
      </trkpt>
      <trkpt lat="41.1261230" lon="-5.6994780">
        <ele>813.0</ele>
        <time>2021-10-14T11:30:11Z</time>
      </trkpt>
      <trkpt lat="41.1260900" lon="-5.6994850">
        <ele>813.0</ele>
        <time>2021-10-14T11:30:12Z</time>
      </trkpt>
      <trkpt lat="41.1259830" lon="-5.6994970">
        <ele>813.0</ele>
        <time>2021-10-14T11:30:15Z</time>
      </trkpt>
      <trkpt lat="41.1258690" lon="-5.6995080">
        <ele>813.0</ele>
        <time>2021-10-14T11:30:18Z</time>
      </trkpt>
      <trkpt lat="41.1257150" lon="-5.6995260">
        <ele>813.2</ele>
        <time>2021-10-14T11:30:22Z</time>
      </trkpt>
      <trkpt lat="41.1255720" lon="-5.6995300">
        <ele>813.2</ele>
        <time>2021-10-14T11:30:26Z</time>
      </trkpt>
      <trkpt lat="41.1254910" lon="-5.6995250">
        <ele>813.2</ele>
        <time>2021-10-14T11:30:28Z</time>
      </trkpt>
      <trkpt lat="41.1254270" lon="-5.6995200">
        <ele>813.2</ele>
        <time>2021-10-14T11:30:30Z</time>
      </trkpt>
      <trkpt lat="41.1253490" lon="-5.6995190">
        <ele>813.4</ele>
        <time>2021-10-14T11:30:32Z</time>
      </trkpt>
      <trkpt lat="41.1251100" lon="-5.6995390">
        <ele>813.6</ele>
        <time>2021-10-14T11:30:39Z</time>
      </trkpt>
      <trkpt lat="41.1250490" lon="-5.6995520">
        <ele>813.8</ele>
        <time>2021-10-14T11:30:41Z</time>
      </trkpt>
      <trkpt lat="41.1249320" lon="-5.6995720">
        <ele>814.2</ele>
        <time>2021-10-14T11:30:45Z</time>
      </trkpt>
      <trkpt lat="41.1249020" lon="-5.6995780">
        <ele>814.2</ele>
        <time>2021-10-14T11:30:46Z</time>
      </trkpt>
      <trkpt lat="41.1247750" lon="-5.6996090">
        <ele>815.0</ele>
        <time>2021-10-14T11:30:51Z</time>
      </trkpt>
      <trkpt lat="41.1246610" lon="-5.6996440">
        <ele>815.6</ele>
        <time>2021-10-14T11:30:55Z</time>
      </trkpt>
      <trkpt lat="41.1245100" lon="-5.6996890">
        <ele>816.0</ele>
        <time>2021-10-14T11:31:01Z</time>
      </trkpt>
      <trkpt lat="41.1244100" lon="-5.6997210">
        <ele>816.2</ele>
        <time>2021-10-14T11:31:05Z</time>
      </trkpt>
      <trkpt lat="41.1242590" lon="-5.6997590">
        <ele>817.2</ele>
        <time>2021-10-14T11:31:11Z</time>
      </trkpt>
      <trkpt lat="41.1241600" lon="-5.6997880">
        <ele>817.6</ele>
        <time>2021-10-14T11:31:15Z</time>
      </trkpt>
      <trkpt lat="41.1241090" lon="-5.6998000">
        <ele>817.8</ele>
        <time>2021-10-14T11:31:17Z</time>
      </trkpt>
      <trkpt lat="41.1240590" lon="-5.6998120">
        <ele>818.0</ele>
        <time>2021-10-14T11:31:19Z</time>
      </trkpt>
      <trkpt lat="41.1240340" lon="-5.6998180">
        <ele>818.2</ele>
        <time>2021-10-14T11:31:20Z</time>
      </trkpt>
      <trkpt lat="41.1239670" lon="-5.6998400">
        <ele>818.6</ele>
        <time>2021-10-14T11:31:23Z</time>
      </trkpt>
      <trkpt lat="41.1239220" lon="-5.6998510">
        <ele>819.0</ele>
        <time>2021-10-14T11:31:25Z</time>
      </trkpt>
      <trkpt lat="41.1238520" lon="-5.6998680">
        <ele>819.2</ele>
        <time>2021-10-14T11:31:28Z</time>
      </trkpt>
      <trkpt lat="41.1237700" lon="-5.6999020">
        <ele>819.6</ele>
        <time>2021-10-14T11:31:32Z</time>
      </trkpt>
      <trkpt lat="41.1237220" lon="-5.6999190">
        <ele>820.0</ele>
        <time>2021-10-14T11:31:34Z</time>
      </trkpt>
      <trkpt lat="41.1236820" lon="-5.6999350">
        <ele>820.4</ele>
        <time>2021-10-14T11:31:36Z</time>
      </trkpt>
      <trkpt lat="41.1235240" lon="-5.7000000">
        <ele>820.8</ele>
        <time>2021-10-14T11:31:44Z</time>
      </trkpt>
      <trkpt lat="41.1234720" lon="-5.7000220">
        <ele>821.4</ele>
        <time>2021-10-14T11:31:47Z</time>
      </trkpt>
      <trkpt lat="41.1233320" lon="-5.7000820">
        <ele>822.0</ele>
        <time>2021-10-14T11:31:54Z</time>
      </trkpt>
      <trkpt lat="41.1232600" lon="-5.7001140">
        <ele>822.4</ele>
        <time>2021-10-14T11:31:58Z</time>
      </trkpt>
      <trkpt lat="41.1231440" lon="-5.7001520">
        <ele>823.2</ele>
        <time>2021-10-14T11:32:04Z</time>
      </trkpt>
      <trkpt lat="41.1231100" lon="-5.7001670">
        <ele>823.4</ele>
        <time>2021-10-14T11:32:06Z</time>
      </trkpt>
      <trkpt lat="41.1229650" lon="-5.7002220">
        <ele>824.4</ele>
        <time>2021-10-14T11:32:14Z</time>
      </trkpt>
      <trkpt lat="41.1229450" lon="-5.7002250">
        <ele>824.4</ele>
        <time>2021-10-14T11:32:15Z</time>
      </trkpt>
      <trkpt lat="41.1228750" lon="-5.7002510">
        <ele>824.8</ele>
        <time>2021-10-14T11:32:19Z</time>
      </trkpt>
      <trkpt lat="41.1227690" lon="-5.7002980">
        <ele>825.4</ele>
        <time>2021-10-14T11:32:24Z</time>
      </trkpt>
      <trkpt lat="41.1226990" lon="-5.7003400">
        <ele>825.6</ele>
        <time>2021-10-14T11:32:27Z</time>
      </trkpt>
      <trkpt lat="41.1225910" lon="-5.7004410">
        <ele>825.8</ele>
        <time>2021-10-14T11:32:32Z</time>
      </trkpt>
      <trkpt lat="41.1223710" lon="-5.7006940">
        <ele>826.4</ele>
        <time>2021-10-14T11:32:41Z</time>
      </trkpt>
      <trkpt lat="41.1223260" lon="-5.7007530">
        <ele>826.4</ele>
        <time>2021-10-14T11:32:43Z</time>
      </trkpt>
      <trkpt lat="41.1222640" lon="-5.7008440">
        <ele>826.4</ele>
        <time>2021-10-14T11:32:46Z</time>
      </trkpt>
      <trkpt lat="41.1221830" lon="-5.7009990">
        <ele>826.2</ele>
        <time>2021-10-14T11:32:50Z</time>
      </trkpt>
      <trkpt lat="41.1221210" lon="-5.7011200">
        <ele>826.2</ele>
        <time>2021-10-14T11:32:53Z</time>
      </trkpt>
      <trkpt lat="41.1220860" lon="-5.7011940">
        <ele>826.2</ele>
        <time>2021-10-14T11:32:55Z</time>
      </trkpt>
      <trkpt lat="41.1220290" lon="-5.7012950">
        <ele>826.0</ele>
        <time>2021-10-14T11:32:58Z</time>
      </trkpt>
      <trkpt lat="41.1219860" lon="-5.7013550">
        <ele>826.0</ele>
        <time>2021-10-14T11:33:00Z</time>
      </trkpt>
      <trkpt lat="41.1218790" lon="-5.7014860">
        <ele>826.0</ele>
        <time>2021-10-14T11:33:04Z</time>
      </trkpt>
      <trkpt lat="41.1218450" lon="-5.7015220">
        <ele>826.0</ele>
        <time>2021-10-14T11:33:05Z</time>
      </trkpt>
      <trkpt lat="41.1218100" lon="-5.7015550">
        <ele>826.0</ele>
        <time>2021-10-14T11:33:06Z</time>
      </trkpt>
      <trkpt lat="41.1216290" lon="-5.7016910">
        <ele>825.8</ele>
        <time>2021-10-14T11:33:11Z</time>
      </trkpt>
      <trkpt lat="41.1215880" lon="-5.7017140">
        <ele>825.8</ele>
        <time>2021-10-14T11:33:12Z</time>
      </trkpt>
      <trkpt lat="41.1214640" lon="-5.7017740">
        <ele>825.6</ele>
        <time>2021-10-14T11:33:15Z</time>
      </trkpt>
      <trkpt lat="41.1213450" lon="-5.7018100">
        <ele>825.6</ele>
        <time>2021-10-14T11:33:18Z</time>
      </trkpt>
      <trkpt lat="41.1213050" lon="-5.7018190">
        <ele>825.6</ele>
        <time>2021-10-14T11:33:19Z</time>
      </trkpt>
      <trkpt lat="41.1209770" lon="-5.7018330">
        <ele>825.6</ele>
        <time>2021-10-14T11:33:27Z</time>
      </trkpt>
      <trkpt lat="41.1209350" lon="-5.7018250">
        <ele>825.6</ele>
        <time>2021-10-14T11:33:28Z</time>
      </trkpt>
      <trkpt lat="41.1208920" lon="-5.7018140">
        <ele>825.4</ele>
        <time>2021-10-14T11:33:29Z</time>
      </trkpt>
      <trkpt lat="41.1206090" lon="-5.7016880">
        <ele>825.4</ele>
        <time>2021-10-14T11:33:35Z</time>
      </trkpt>
      <trkpt lat="41.1203690" lon="-5.7015080">
        <ele>824.6</ele>
        <time>2021-10-14T11:33:40Z</time>
      </trkpt>
      <trkpt lat="41.1202660" lon="-5.7014090">
        <ele>824.4</ele>
        <time>2021-10-14T11:33:42Z</time>
      </trkpt>
      <trkpt lat="41.1202150" lon="-5.7013490">
        <ele>824.2</ele>
        <time>2021-10-14T11:33:43Z</time>
      </trkpt>
      <trkpt lat="41.1200770" lon="-5.7011440">
        <ele>823.6</ele>
        <time>2021-10-14T11:33:46Z</time>
      </trkpt>
      <trkpt lat="41.1200430" lon="-5.7010780">
        <ele>823.2</ele>
        <time>2021-10-14T11:33:47Z</time>
      </trkpt>
      <trkpt lat="41.1199440" lon="-5.7008640">
        <ele>822.6</ele>
        <time>2021-10-14T11:33:51Z</time>
      </trkpt>
      <trkpt lat="41.1197510" lon="-5.7004410">
        <ele>822.6</ele>
        <time>2021-10-14T11:33:59Z</time>
      </trkpt>
      <trkpt lat="41.1196160" lon="-5.7002190">
        <ele>823.2</ele>
        <time>2021-10-14T11:34:04Z</time>
      </trkpt>
      <trkpt lat="41.1195610" lon="-5.7001470">
        <ele>823.4</ele>
        <time>2021-10-14T11:34:06Z</time>
      </trkpt>
      <trkpt lat="41.1193810" lon="-5.6999660">
        <ele>824.4</ele>
        <time>2021-10-14T11:34:13Z</time>
      </trkpt>
      <trkpt lat="41.1192670" lon="-5.6998780">
        <ele>825.2</ele>
        <time>2021-10-14T11:34:17Z</time>
      </trkpt>
      <trkpt lat="41.1192200" lon="-5.6998440">
        <ele>825.6</ele>
        <time>2021-10-14T11:34:19Z</time>
      </trkpt>
      <trkpt lat="41.1191930" lon="-5.6998250">
        <ele>825.8</ele>
        <time>2021-10-14T11:34:20Z</time>
      </trkpt>
      <trkpt lat="41.1190900" lon="-5.6997710">
        <ele>826.8</ele>
        <time>2021-10-14T11:34:24Z</time>
      </trkpt>
      <trkpt lat="41.1189870" lon="-5.6997230">
        <ele>828.0</ele>
        <time>2021-10-14T11:34:28Z</time>
      </trkpt>
      <trkpt lat="41.1187680" lon="-5.6996510">
        <ele>828.8</ele>
        <time>2021-10-14T11:34:36Z</time>
      </trkpt>
      <trkpt lat="41.1186730" lon="-5.6996250">
        <ele>829.0</ele>
        <time>2021-10-14T11:34:39Z</time>
      </trkpt>
      <trkpt lat="41.1184800" lon="-5.6996040">
        <ele>829.4</ele>
        <time>2021-10-14T11:34:45Z</time>
      </trkpt>
      <trkpt lat="41.1184160" lon="-5.6995990">
        <ele>829.4</ele>
        <time>2021-10-14T11:34:47Z</time>
      </trkpt>
      <trkpt lat="41.1183420" lon="-5.6995960">
        <ele>829.4</ele>
        <time>2021-10-14T11:34:49Z</time>
      </trkpt>
      <trkpt lat="41.1182850" lon="-5.6995910">
        <ele>829.4</ele>
        <time>2021-10-14T11:34:51Z</time>
      </trkpt>
      <trkpt lat="41.1182160" lon="-5.6995840">
        <ele>829.4</ele>
        <time>2021-10-14T11:34:53Z</time>
      </trkpt>
      <trkpt lat="41.1181570" lon="-5.6995800">
        <ele>829.4</ele>
        <time>2021-10-14T11:34:55Z</time>
      </trkpt>
      <trkpt lat="41.1181030" lon="-5.6995690">
        <ele>829.4</ele>
        <time>2021-10-14T11:34:57Z</time>
      </trkpt>
      <trkpt lat="41.1179770" lon="-5.6995550">
        <ele>829.4</ele>
        <time>2021-10-14T11:35:01Z</time>
      </trkpt>
      <trkpt lat="41.1179160" lon="-5.6995460">
        <ele>829.4</ele>
        <time>2021-10-14T11:35:03Z</time>
      </trkpt>
      <trkpt lat="41.1176240" lon="-5.6994960">
        <ele>829.0</ele>
        <time>2021-10-14T11:35:11Z</time>
      </trkpt>
      <trkpt lat="41.1175450" lon="-5.6994820">
        <ele>829.0</ele>
        <time>2021-10-14T11:35:13Z</time>
      </trkpt>
      <trkpt lat="41.1173820" lon="-5.6994600">
        <ele>828.8</ele>
        <time>2021-10-14T11:35:16Z</time>
      </trkpt>
      <trkpt lat="41.1173370" lon="-5.6994550">
        <ele>828.4</ele>
        <time>2021-10-14T11:35:17Z</time>
      </trkpt>
      <trkpt lat="41.1172220" lon="-5.6994470">
        <ele>828.0</ele>
        <time>2021-10-14T11:35:19Z</time>
      </trkpt>
      <trkpt lat="41.1169930" lon="-5.6994280">
        <ele>827.2</ele>
        <time>2021-10-14T11:35:23Z</time>
      </trkpt>
      <trkpt lat="41.1169380" lon="-5.6994270">
        <ele>827.0</ele>
        <time>2021-10-14T11:35:24Z</time>
      </trkpt>
      <trkpt lat="41.1168190" lon="-5.6994210">
        <ele>826.8</ele>
        <time>2021-10-14T11:35:26Z</time>
      </trkpt>
      <trkpt lat="41.1165980" lon="-5.6993960">
        <ele>826.4</ele>
        <time>2021-10-14T11:35:30Z</time>
      </trkpt>
      <trkpt lat="41.1164400" lon="-5.6993800">
        <ele>825.8</ele>
        <time>2021-10-14T11:35:33Z</time>
      </trkpt>
      <trkpt lat="41.1163320" lon="-5.6993740">
        <ele>825.6</ele>
        <time>2021-10-14T11:35:35Z</time>
      </trkpt>
      <trkpt lat="41.1161180" lon="-5.6993970">
        <ele>825.8</ele>
        <time>2021-10-14T11:35:41Z</time>
      </trkpt>
      <trkpt lat="41.1160280" lon="-5.6994060">
        <ele>827.0</ele>
        <time>2021-10-14T11:35:44Z</time>
      </trkpt>
      <trkpt lat="41.1158650" lon="-5.6994220">
        <ele>827.8</ele>
        <time>2021-10-14T11:35:49Z</time>
      </trkpt>
      <trkpt lat="41.1157960" lon="-5.6994210">
        <ele>828.0</ele>
        <time>2021-10-14T11:35:51Z</time>
      </trkpt>
      <trkpt lat="41.1157160" lon="-5.6994210">
        <ele>828.0</ele>
        <time>2021-10-14T11:35:53Z</time>
      </trkpt>
      <trkpt lat="41.1155000" lon="-5.6994020">
        <ele>828.2</ele>
        <time>2021-10-14T11:35:59Z</time>
      </trkpt>
      <trkpt lat="41.1154270" lon="-5.6993890">
        <ele>828.0</ele>
        <time>2021-10-14T11:36:01Z</time>
      </trkpt>
      <trkpt lat="41.1152500" lon="-5.6993530">
        <ele>827.4</ele>
        <time>2021-10-14T11:36:05Z</time>
      </trkpt>
      <trkpt lat="41.1151050" lon="-5.6993330">
        <ele>827.2</ele>
        <time>2021-10-14T11:36:08Z</time>
      </trkpt>
      <trkpt lat="41.1150160" lon="-5.6993350">
        <ele>826.4</ele>
        <time>2021-10-14T11:36:10Z</time>
      </trkpt>
      <trkpt lat="41.1149590" lon="-5.6993340">
        <ele>825.2</ele>
        <time>2021-10-14T11:36:11Z</time>
      </trkpt>
      <trkpt lat="41.1147510" lon="-5.6993270">
        <ele>824.2</ele>
        <time>2021-10-14T11:36:14Z</time>
      </trkpt>
      <trkpt lat="41.1146240" lon="-5.6993220">
        <ele>822.8</ele>
        <time>2021-10-14T11:36:16Z</time>
      </trkpt>
      <trkpt lat="41.1144970" lon="-5.6993180">
        <ele>821.8</ele>
        <time>2021-10-14T11:36:18Z</time>
      </trkpt>
      <trkpt lat="41.1143340" lon="-5.6993070">
        <ele>821.2</ele>
        <time>2021-10-14T11:36:21Z</time>
      </trkpt>
      <trkpt lat="41.1140400" lon="-5.6992900">
        <ele>821.0</ele>
        <time>2021-10-14T11:36:27Z</time>
      </trkpt>
      <trkpt lat="41.1138950" lon="-5.6992790">
        <ele>821.2</ele>
        <time>2021-10-14T11:36:30Z</time>
      </trkpt>
      <trkpt lat="41.1137770" lon="-5.6992680">
        <ele>822.0</ele>
        <time>2021-10-14T11:36:33Z</time>
      </trkpt>
      <trkpt lat="41.1136050" lon="-5.6992680">
        <ele>822.8</ele>
        <time>2021-10-14T11:36:38Z</time>
      </trkpt>
      <trkpt lat="41.1135310" lon="-5.6992720">
        <ele>823.0</ele>
        <time>2021-10-14T11:36:40Z</time>
      </trkpt>
      <trkpt lat="41.1134230" lon="-5.6992730">
        <ele>823.2</ele>
        <time>2021-10-14T11:36:43Z</time>
      </trkpt>
      <trkpt lat="41.1131370" lon="-5.6992810">
        <ele>823.6</ele>
        <time>2021-10-14T11:36:51Z</time>
      </trkpt>
      <trkpt lat="41.1129220" lon="-5.6992900">
        <ele>823.8</ele>
        <time>2021-10-14T11:36:57Z</time>
      </trkpt>
      <trkpt lat="41.1128500" lon="-5.6992940">
        <ele>823.8</ele>
        <time>2021-10-14T11:36:59Z</time>
      </trkpt>
      <trkpt lat="41.1127680" lon="-5.6992950">
        <ele>823.8</ele>
        <time>2021-10-14T11:37:01Z</time>
      </trkpt>
      <trkpt lat="41.1125770" lon="-5.6993000">
        <ele>823.8</ele>
        <time>2021-10-14T11:37:06Z</time>
      </trkpt>
      <trkpt lat="41.1125110" lon="-5.6993060">
        <ele>823.8</ele>
        <time>2021-10-14T11:37:08Z</time>
      </trkpt>
      <trkpt lat="41.1124280" lon="-5.6993110">
        <ele>824.0</ele>
        <time>2021-10-14T11:37:10Z</time>
      </trkpt>
      <trkpt lat="41.1123900" lon="-5.6993110">
        <ele>824.0</ele>
        <time>2021-10-14T11:37:11Z</time>
      </trkpt>
      <trkpt lat="41.1120750" lon="-5.6993180">
        <ele>824.6</ele>
        <time>2021-10-14T11:37:20Z</time>
      </trkpt>
      <trkpt lat="41.1119640" lon="-5.6993260">
        <ele>824.8</ele>
        <time>2021-10-14T11:37:23Z</time>
      </trkpt>
      <trkpt lat="41.1117120" lon="-5.6993230">
        <ele>825.4</ele>
        <time>2021-10-14T11:37:30Z</time>
      </trkpt>
      <trkpt lat="41.1115330" lon="-5.6993120">
        <ele>825.4</ele>
        <time>2021-10-14T11:37:35Z</time>
      </trkpt>
      <trkpt lat="41.1114650" lon="-5.6993090">
        <ele>825.6</ele>
        <time>2021-10-14T11:37:37Z</time>
      </trkpt>
      <trkpt lat="41.1114030" lon="-5.6993120">
        <ele>825.8</ele>
        <time>2021-10-14T11:37:39Z</time>
      </trkpt>
      <trkpt lat="41.1113750" lon="-5.6993250">
        <ele>825.8</ele>
        <time>2021-10-14T11:37:40Z</time>
      </trkpt>
      <trkpt lat="41.1113540" lon="-5.6993500">
        <ele>826.0</ele>
        <time>2021-10-14T11:37:41Z</time>
      </trkpt>
      <trkpt lat="41.1113400" lon="-5.6994330">
        <ele>826.4</ele>
        <time>2021-10-14T11:37:43Z</time>
      </trkpt>
      <trkpt lat="41.1113360" lon="-5.6996180">
        <ele>826.4</ele>
        <time>2021-10-14T11:37:47Z</time>
      </trkpt>
      <trkpt lat="41.1113170" lon="-5.6998580">
        <ele>826.4</ele>
        <time>2021-10-14T11:37:52Z</time>
      </trkpt>
      <trkpt lat="41.1112810" lon="-5.7002720">
        <ele>826.4</ele>
        <time>2021-10-14T11:38:00Z</time>
      </trkpt>
      <trkpt lat="41.1112190" lon="-5.7004170">
        <ele>826.2</ele>
        <time>2021-10-14T11:38:04Z</time>
      </trkpt>
      <trkpt lat="41.1111530" lon="-5.7004710">
        <ele>825.8</ele>
        <time>2021-10-14T11:38:06Z</time>
      </trkpt>
      <trkpt lat="41.1110920" lon="-5.7004930">
        <ele>826.0</ele>
        <time>2021-10-14T11:38:08Z</time>
      </trkpt>
      <trkpt lat="41.1109570" lon="-5.7005490">
        <ele>826.4</ele>
        <time>2021-10-14T11:38:12Z</time>
      </trkpt>
      <trkpt lat="41.1108510" lon="-5.7006040">
        <ele>826.6</ele>
        <time>2021-10-14T11:38:15Z</time>
      </trkpt>
      <trkpt lat="41.1107310" lon="-5.7006630">
        <ele>826.8</ele>
        <time>2021-10-14T11:38:19Z</time>
      </trkpt>
      <trkpt lat="41.1106170" lon="-5.7007170">
        <ele>826.8</ele>
        <time>2021-10-14T11:38:22Z</time>
      </trkpt>
      <trkpt lat="41.1105100" lon="-5.7007680">
        <ele>826.8</ele>
        <time>2021-10-14T11:38:25Z</time>
      </trkpt>
      <trkpt lat="41.1103370" lon="-5.7008580">
        <ele>827.2</ele>
        <time>2021-10-14T11:38:30Z</time>
      </trkpt>
      <trkpt lat="41.1102670" lon="-5.7008910">
        <ele>827.2</ele>
        <time>2021-10-14T11:38:32Z</time>
      </trkpt>
      <trkpt lat="41.1102400" lon="-5.7009070">
        <ele>827.4</ele>
        <time>2021-10-14T11:38:33Z</time>
      </trkpt>
      <trkpt lat="41.1101300" lon="-5.7009640">
        <ele>827.6</ele>
        <time>2021-10-14T11:38:36Z</time>
      </trkpt>
      <trkpt lat="41.1100620" lon="-5.7009990">
        <ele>827.8</ele>
        <time>2021-10-14T11:38:38Z</time>
      </trkpt>
      <trkpt lat="41.1099650" lon="-5.7010530">
        <ele>827.8</ele>
        <time>2021-10-14T11:38:41Z</time>
      </trkpt>
      <trkpt lat="41.1099000" lon="-5.7010860">
        <ele>827.8</ele>
        <time>2021-10-14T11:38:43Z</time>
      </trkpt>
      <trkpt lat="41.1097240" lon="-5.7011740">
        <ele>827.8</ele>
        <time>2021-10-14T11:38:48Z</time>
      </trkpt>
      <trkpt lat="41.1096240" lon="-5.7012270">
        <ele>827.8</ele>
        <time>2021-10-14T11:38:51Z</time>
      </trkpt>
      <trkpt lat="41.1095890" lon="-5.7012450">
        <ele>827.8</ele>
        <time>2021-10-14T11:38:52Z</time>
      </trkpt>
      <trkpt lat="41.1095200" lon="-5.7012800">
        <ele>828.0</ele>
        <time>2021-10-14T11:38:54Z</time>
      </trkpt>
      <trkpt lat="41.1094500" lon="-5.7013120">
        <ele>828.0</ele>
        <time>2021-10-14T11:38:56Z</time>
      </trkpt>
      <trkpt lat="41.1092060" lon="-5.7014290">
        <ele>828.2</ele>
        <time>2021-10-14T11:39:03Z</time>
      </trkpt>
      <trkpt lat="41.1091050" lon="-5.7014790">
        <ele>828.4</ele>
        <time>2021-10-14T11:39:06Z</time>
      </trkpt>
      <trkpt lat="41.1090070" lon="-5.7015320">
        <ele>828.4</ele>
        <time>2021-10-14T11:39:09Z</time>
      </trkpt>
      <trkpt lat="41.1089440" lon="-5.7015630">
        <ele>828.6</ele>
        <time>2021-10-14T11:39:11Z</time>
      </trkpt>
      <trkpt lat="41.1087810" lon="-5.7016370">
        <ele>829.0</ele>
        <time>2021-10-14T11:39:16Z</time>
      </trkpt>
      <trkpt lat="41.1087180" lon="-5.7016680">
        <ele>829.2</ele>
        <time>2021-10-14T11:39:18Z</time>
      </trkpt>
      <trkpt lat="41.1086160" lon="-5.7017120">
        <ele>829.4</ele>
        <time>2021-10-14T11:39:21Z</time>
      </trkpt>
      <trkpt lat="41.1085110" lon="-5.7017560">
        <ele>829.4</ele>
        <time>2021-10-14T11:39:24Z</time>
      </trkpt>
      <trkpt lat="41.1084090" lon="-5.7018010">
        <ele>829.6</ele>
        <time>2021-10-14T11:39:27Z</time>
      </trkpt>
      <trkpt lat="41.1082990" lon="-5.7018460">
        <ele>829.8</ele>
        <time>2021-10-14T11:39:30Z</time>
      </trkpt>
      <trkpt lat="41.1080450" lon="-5.7019500">
        <ele>829.8</ele>
        <time>2021-10-14T11:39:37Z</time>
      </trkpt>
      <trkpt lat="41.1079730" lon="-5.7019840">
        <ele>829.8</ele>
        <time>2021-10-14T11:39:39Z</time>
      </trkpt>
      <trkpt lat="41.1078230" lon="-5.7020460">
        <ele>829.8</ele>
        <time>2021-10-14T11:39:43Z</time>
      </trkpt>
      <trkpt lat="41.1077010" lon="-5.7020980">
        <ele>829.8</ele>
        <time>2021-10-14T11:39:46Z</time>
      </trkpt>
      <trkpt lat="41.1074380" lon="-5.7022080">
        <ele>829.6</ele>
        <time>2021-10-14T11:39:53Z</time>
      </trkpt>
      <trkpt lat="41.1072460" lon="-5.7022780">
        <ele>829.6</ele>
        <time>2021-10-14T11:39:58Z</time>
      </trkpt>
      <trkpt lat="41.1071290" lon="-5.7023270">
        <ele>829.6</ele>
        <time>2021-10-14T11:40:01Z</time>
      </trkpt>
      <trkpt lat="41.1069680" lon="-5.7023930">
        <ele>829.6</ele>
        <time>2021-10-14T11:40:05Z</time>
      </trkpt>
      <trkpt lat="41.1066910" lon="-5.7025110">
        <ele>829.6</ele>
        <time>2021-10-14T11:40:12Z</time>
      </trkpt>
      <trkpt lat="41.1065740" lon="-5.7025590">
        <ele>829.6</ele>
        <time>2021-10-14T11:40:15Z</time>
      </trkpt>
      <trkpt lat="41.1063400" lon="-5.7026680">
        <ele>829.8</ele>
        <time>2021-10-14T11:40:21Z</time>
      </trkpt>
      <trkpt lat="41.1060960" lon="-5.7027760">
        <ele>829.8</ele>
        <time>2021-10-14T11:40:27Z</time>
      </trkpt>
      <trkpt lat="41.1060540" lon="-5.7027970">
        <ele>829.8</ele>
        <time>2021-10-14T11:40:28Z</time>
      </trkpt>
      <trkpt lat="41.1058820" lon="-5.7028650">
        <ele>829.8</ele>
        <time>2021-10-14T11:40:32Z</time>
      </trkpt>
      <trkpt lat="41.1058040" lon="-5.7028940">
        <ele>829.8</ele>
        <time>2021-10-14T11:40:34Z</time>
      </trkpt>
      <trkpt lat="41.1056500" lon="-5.7029600">
        <ele>829.8</ele>
        <time>2021-10-14T11:40:38Z</time>
      </trkpt>
      <trkpt lat="41.1055330" lon="-5.7030060">
        <ele>829.8</ele>
        <time>2021-10-14T11:40:41Z</time>
      </trkpt>
      <trkpt lat="41.1054540" lon="-5.7030170">
        <ele>829.8</ele>
        <time>2021-10-14T11:40:43Z</time>
      </trkpt>
      <trkpt lat="41.1054150" lon="-5.7030300">
        <ele>829.8</ele>
        <time>2021-10-14T11:40:44Z</time>
      </trkpt>
      <trkpt lat="41.1052970" lon="-5.7030850">
        <ele>829.8</ele>
        <time>2021-10-14T11:40:47Z</time>
      </trkpt>
      <trkpt lat="41.1052180" lon="-5.7031390">
        <ele>829.8</ele>
        <time>2021-10-14T11:40:49Z</time>
      </trkpt>
      <trkpt lat="41.1051770" lon="-5.7031580">
        <ele>829.8</ele>
        <time>2021-10-14T11:40:50Z</time>
      </trkpt>
      <trkpt lat="41.1047250" lon="-5.7033480">
        <ele>829.6</ele>
        <time>2021-10-14T11:41:01Z</time>
      </trkpt>
      <trkpt lat="41.1045620" lon="-5.7034170">
        <ele>829.8</ele>
        <time>2021-10-14T11:41:05Z</time>
      </trkpt>
      <trkpt lat="41.1044430" lon="-5.7034670">
        <ele>829.8</ele>
        <time>2021-10-14T11:41:08Z</time>
      </trkpt>
      <trkpt lat="41.1043190" lon="-5.7035220">
        <ele>829.8</ele>
        <time>2021-10-14T11:41:11Z</time>
      </trkpt>
      <trkpt lat="41.1039320" lon="-5.7036810">
        <ele>829.8</ele>
        <time>2021-10-14T11:41:20Z</time>
      </trkpt>
      <trkpt lat="41.1038890" lon="-5.7037000">
        <ele>829.8</ele>
        <time>2021-10-14T11:41:21Z</time>
      </trkpt>
      <trkpt lat="41.1035390" lon="-5.7038530">
        <ele>829.4</ele>
        <time>2021-10-14T11:41:29Z</time>
      </trkpt>
      <trkpt lat="41.1032650" lon="-5.7039650">
        <ele>829.0</ele>
        <time>2021-10-14T11:41:37Z</time>
      </trkpt>
      <trkpt lat="41.1030970" lon="-5.7040250">
        <ele>828.8</ele>
        <time>2021-10-14T11:41:40Z</time>
      </trkpt>
      <trkpt lat="41.1028000" lon="-5.7041560">
        <ele>828.4</ele>
        <time>2021-10-14T11:41:48Z</time>
      </trkpt>
      <trkpt lat="41.1025190" lon="-5.7042710">
        <ele>828.2</ele>
        <time>2021-10-14T11:41:53Z</time>
      </trkpt>
      <trkpt lat="41.1022690" lon="-5.7043800">
        <ele>828.0</ele>
        <time>2021-10-14T11:41:58Z</time>
      </trkpt>
      <trkpt lat="41.1020940" lon="-5.7044510">
        <ele>827.8</ele>
        <time>2021-10-14T11:42:02Z</time>
      </trkpt>
      <trkpt lat="41.1015840" lon="-5.7046750">
        <ele>827.6</ele>
        <time>2021-10-14T11:42:13Z</time>
      </trkpt>
      <trkpt lat="41.1015370" lon="-5.7046930">
        <ele>827.6</ele>
        <time>2021-10-14T11:42:14Z</time>
      </trkpt>
      <trkpt lat="41.1014010" lon="-5.7047540">
        <ele>827.4</ele>
        <time>2021-10-14T11:42:17Z</time>
      </trkpt>
      <trkpt lat="41.1012670" lon="-5.7048090">
        <ele>827.0</ele>
        <time>2021-10-14T11:42:20Z</time>
      </trkpt>
      <trkpt lat="41.1011420" lon="-5.7048660">
        <ele>827.0</ele>
        <time>2021-10-14T11:42:23Z</time>
      </trkpt>
      <trkpt lat="41.1010550" lon="-5.7049020">
        <ele>827.0</ele>
        <time>2021-10-14T11:42:26Z</time>
      </trkpt>
      <trkpt lat="41.1009650" lon="-5.7049390">
        <ele>827.2</ele>
        <time>2021-10-14T11:42:27Z</time>
      </trkpt>
      <trkpt lat="41.1008220" lon="-5.7050010">
        <ele>826.8</ele>
        <time>2021-10-14T11:42:31Z</time>
      </trkpt>
      <trkpt lat="41.1003560" lon="-5.7051980">
        <ele>826.4</ele>
        <time>2021-10-14T11:42:40Z</time>
      </trkpt>
      <trkpt lat="41.1002620" lon="-5.7052360">
        <ele>826.0</ele>
        <time>2021-10-14T11:42:43Z</time>
      </trkpt>
      <trkpt lat="41.1001190" lon="-5.7052970">
        <ele>825.6</ele>
        <time>2021-10-14T11:42:46Z</time>
      </trkpt>
      <trkpt lat="41.0999700" lon="-5.7053570">
        <ele>825.4</ele>
        <time>2021-10-14T11:42:48Z</time>
      </trkpt>
      <trkpt lat="41.0998740" lon="-5.7053960">
        <ele>825.4</ele>
        <time>2021-10-14T11:42:50Z</time>
      </trkpt>
      <trkpt lat="41.0997800" lon="-5.7054360">
        <ele>825.2</ele>
        <time>2021-10-14T11:42:52Z</time>
      </trkpt>
      <trkpt lat="41.0996460" lon="-5.7054950">
        <ele>825.0</ele>
        <time>2021-10-14T11:42:55Z</time>
      </trkpt>
      <trkpt lat="41.0995160" lon="-5.7055520">
        <ele>824.6</ele>
        <time>2021-10-14T11:42:59Z</time>
      </trkpt>
      <trkpt lat="41.0993370" lon="-5.7056280">
        <ele>824.4</ele>
        <time>2021-10-14T11:43:02Z</time>
      </trkpt>
      <trkpt lat="41.0991510" lon="-5.7057070">
        <ele>824.2</ele>
        <time>2021-10-14T11:43:06Z</time>
      </trkpt>
      <trkpt lat="41.0988830" lon="-5.7058240">
        <ele>824.0</ele>
        <time>2021-10-14T11:43:12Z</time>
      </trkpt>
      <trkpt lat="41.0987090" lon="-5.7058950">
        <ele>823.6</ele>
        <time>2021-10-14T11:43:16Z</time>
      </trkpt>
      <trkpt lat="41.0984260" lon="-5.7060130">
        <ele>822.8</ele>
        <time>2021-10-14T11:43:22Z</time>
      </trkpt>
      <trkpt lat="41.0982310" lon="-5.7060900">
        <ele>822.6</ele>
        <time>2021-10-14T11:43:26Z</time>
      </trkpt>
      <trkpt lat="41.0981340" lon="-5.7061280">
        <ele>822.6</ele>
        <time>2021-10-14T11:43:29Z</time>
      </trkpt>
      <trkpt lat="41.0979870" lon="-5.7061880">
        <ele>822.6</ele>
        <time>2021-10-14T11:43:31Z</time>
      </trkpt>
      <trkpt lat="41.0978950" lon="-5.7062290">
        <ele>822.4</ele>
        <time>2021-10-14T11:43:33Z</time>
      </trkpt>
      <trkpt lat="41.0977630" lon="-5.7062870">
        <ele>822.2</ele>
        <time>2021-10-14T11:43:36Z</time>
      </trkpt>
      <trkpt lat="41.0974990" lon="-5.7063900">
        <ele>822.0</ele>
        <time>2021-10-14T11:43:42Z</time>
      </trkpt>
      <trkpt lat="41.0974080" lon="-5.7064140">
        <ele>821.8</ele>
        <time>2021-10-14T11:43:44Z</time>
      </trkpt>
      <trkpt lat="41.0972200" lon="-5.7064160">
        <ele>821.8</ele>
        <time>2021-10-14T11:43:48Z</time>
      </trkpt>
      <trkpt lat="41.0971240" lon="-5.7063930">
        <ele>821.6</ele>
        <time>2021-10-14T11:43:50Z</time>
      </trkpt>
      <trkpt lat="41.0968060" lon="-5.7063060">
        <ele>821.2</ele>
        <time>2021-10-14T11:43:56Z</time>
      </trkpt>
      <trkpt lat="41.0966880" lon="-5.7062750">
        <ele>821.0</ele>
        <time>2021-10-14T11:43:58Z</time>
      </trkpt>
      <trkpt lat="41.0965630" lon="-5.7062440">
        <ele>820.6</ele>
        <time>2021-10-14T11:44:00Z</time>
      </trkpt>
      <trkpt lat="41.0963730" lon="-5.7061860">
        <ele>819.6</ele>
        <time>2021-10-14T11:44:03Z</time>
      </trkpt>
      <trkpt lat="41.0962520" lon="-5.7061400">
        <ele>819.0</ele>
        <time>2021-10-14T11:44:05Z</time>
      </trkpt>
      <trkpt lat="41.0961270" lon="-5.7061040">
        <ele>818.6</ele>
        <time>2021-10-14T11:44:07Z</time>
      </trkpt>
      <trkpt lat="41.0957660" lon="-5.7060020">
        <ele>817.4</ele>
        <time>2021-10-14T11:44:13Z</time>
      </trkpt>
      <trkpt lat="41.0956510" lon="-5.7059690">
        <ele>817.2</ele>
        <time>2021-10-14T11:44:15Z</time>
      </trkpt>
      <trkpt lat="41.0953840" lon="-5.7058850">
        <ele>816.4</ele>
        <time>2021-10-14T11:44:20Z</time>
      </trkpt>
      <trkpt lat="41.0951680" lon="-5.7058260">
        <ele>815.8</ele>
        <time>2021-10-14T11:44:24Z</time>
      </trkpt>
      <trkpt lat="41.0948850" lon="-5.7057480">
        <ele>815.4</ele>
        <time>2021-10-14T11:44:29Z</time>
      </trkpt>
      <trkpt lat="41.0946660" lon="-5.7056810">
        <ele>815.0</ele>
        <time>2021-10-14T11:44:33Z</time>
      </trkpt>
      <trkpt lat="41.0943010" lon="-5.7055810">
        <ele>814.6</ele>
        <time>2021-10-14T11:44:40Z</time>
      </trkpt>
      <trkpt lat="41.0942510" lon="-5.7055680">
        <ele>814.4</ele>
        <time>2021-10-14T11:44:41Z</time>
      </trkpt>
      <trkpt lat="41.0942000" lon="-5.7055520">
        <ele>814.4</ele>
        <time>2021-10-14T11:44:42Z</time>
      </trkpt>
      <trkpt lat="41.0936770" lon="-5.7053990">
        <ele>814.0</ele>
        <time>2021-10-14T11:44:52Z</time>
      </trkpt>
      <trkpt lat="41.0935830" lon="-5.7053720">
        <ele>814.0</ele>
        <time>2021-10-14T11:44:54Z</time>
      </trkpt>
      <trkpt lat="41.0932490" lon="-5.7052720">
        <ele>813.6</ele>
        <time>2021-10-14T11:45:00Z</time>
      </trkpt>
      <trkpt lat="41.0931580" lon="-5.7052470">
        <ele>813.4</ele>
        <time>2021-10-14T11:45:01Z</time>
      </trkpt>
      <trkpt lat="41.0930660" lon="-5.7052220">
        <ele>813.0</ele>
        <time>2021-10-14T11:45:03Z</time>
      </trkpt>
      <trkpt lat="41.0929400" lon="-5.7051860">
        <ele>812.0</ele>
        <time>2021-10-14T11:45:06Z</time>
      </trkpt>
      <trkpt lat="41.0926460" lon="-5.7051010">
        <ele>811.2</ele>
        <time>2021-10-14T11:45:10Z</time>
      </trkpt>
      <trkpt lat="41.0925430" lon="-5.7050690">
        <ele>811.0</ele>
        <time>2021-10-14T11:45:12Z</time>
      </trkpt>
      <trkpt lat="41.0924940" lon="-5.7050560">
        <ele>810.8</ele>
        <time>2021-10-14T11:45:13Z</time>
      </trkpt>
      <trkpt lat="41.0921480" lon="-5.7049720">
        <ele>810.4</ele>
        <time>2021-10-14T11:45:20Z</time>
      </trkpt>
      <trkpt lat="41.0919060" lon="-5.7049040">
        <ele>810.4</ele>
        <time>2021-10-14T11:45:25Z</time>
      </trkpt>
      <trkpt lat="41.0918240" lon="-5.7048640">
        <ele>810.4</ele>
        <time>2021-10-14T11:45:27Z</time>
      </trkpt>
      <trkpt lat="41.0917860" lon="-5.7048550">
        <ele>810.6</ele>
        <time>2021-10-14T11:45:28Z</time>
      </trkpt>
      <trkpt lat="41.0915640" lon="-5.7048100">
        <ele>810.8</ele>
        <time>2021-10-14T11:45:34Z</time>
      </trkpt>
      <trkpt lat="41.0912550" lon="-5.7047340">
        <ele>811.8</ele>
        <time>2021-10-14T11:45:42Z</time>
      </trkpt>
      <trkpt lat="41.0911810" lon="-5.7047170">
        <ele>812.0</ele>
        <time>2021-10-14T11:45:44Z</time>
      </trkpt>
      <trkpt lat="41.0910610" lon="-5.7046950">
        <ele>813.0</ele>
        <time>2021-10-14T11:45:49Z</time>
      </trkpt>
      <trkpt lat="41.0909890" lon="-5.7046760">
        <ele>813.2</ele>
        <time>2021-10-14T11:45:51Z</time>
      </trkpt>
      <trkpt lat="41.0909510" lon="-5.7046650">
        <ele>813.6</ele>
        <time>2021-10-14T11:45:55Z</time>
      </trkpt>
      <trkpt lat="41.0909130" lon="-5.7046540">
        <ele>813.8</ele>
        <time>2021-10-14T11:47:31Z</time>
      </trkpt>
      <trkpt lat="41.0908830" lon="-5.7046450">
        <ele>813.8</ele>
        <time>2021-10-14T11:47:32Z</time>
      </trkpt>
      <trkpt lat="41.0908630" lon="-5.7046360">
        <ele>813.8</ele>
        <time>2021-10-14T11:47:33Z</time>
      </trkpt>
      <trkpt lat="41.0906310" lon="-5.7045560">
        <ele>813.4</ele>
        <time>2021-10-14T11:47:41Z</time>
      </trkpt>
      <trkpt lat="41.0904090" lon="-5.7044460">
        <ele>812.8</ele>
        <time>2021-10-14T11:47:47Z</time>
      </trkpt>
      <trkpt lat="41.0902690" lon="-5.7043840">
        <ele>812.2</ele>
        <time>2021-10-14T11:47:50Z</time>
      </trkpt>
      <trkpt lat="41.0901720" lon="-5.7043300">
        <ele>812.0</ele>
        <time>2021-10-14T11:47:52Z</time>
      </trkpt>
      <trkpt lat="41.0899860" lon="-5.7042260">
        <ele>811.0</ele>
        <time>2021-10-14T11:47:55Z</time>
      </trkpt>
      <trkpt lat="41.0899170" lon="-5.7041880">
        <ele>810.6</ele>
        <time>2021-10-14T11:47:56Z</time>
      </trkpt>
      <trkpt lat="41.0898470" lon="-5.7041510">
        <ele>810.0</ele>
        <time>2021-10-14T11:47:57Z</time>
      </trkpt>
      <trkpt lat="41.0897030" lon="-5.7040700">
        <ele>808.8</ele>
        <time>2021-10-14T11:47:59Z</time>
      </trkpt>
      <trkpt lat="41.0894100" lon="-5.7039000">
        <ele>807.2</ele>
        <time>2021-10-14T11:48:03Z</time>
      </trkpt>
      <trkpt lat="41.0893390" lon="-5.7038620">
        <ele>806.8</ele>
        <time>2021-10-14T11:48:04Z</time>
      </trkpt>
      <trkpt lat="41.0891430" lon="-5.7037640">
        <ele>806.0</ele>
        <time>2021-10-14T11:48:07Z</time>
      </trkpt>
      <trkpt lat="41.0890130" lon="-5.7036940">
        <ele>805.8</ele>
        <time>2021-10-14T11:48:09Z</time>
      </trkpt>
      <trkpt lat="41.0888470" lon="-5.7036140">
        <ele>805.0</ele>
        <time>2021-10-14T11:48:13Z</time>
      </trkpt>
      <trkpt lat="41.0886920" lon="-5.7035610">
        <ele>804.4</ele>
        <time>2021-10-14T11:48:16Z</time>
      </trkpt>
      <trkpt lat="41.0885130" lon="-5.7035160">
        <ele>804.2</ele>
        <time>2021-10-14T11:48:18Z</time>
      </trkpt>
      <trkpt lat="41.0884240" lon="-5.7034930">
        <ele>804.0</ele>
        <time>2021-10-14T11:48:20Z</time>
      </trkpt>
      <trkpt lat="41.0883810" lon="-5.7034870">
        <ele>804.0</ele>
        <time>2021-10-14T11:48:21Z</time>
      </trkpt>
      <trkpt lat="41.0883430" lon="-5.7034840">
        <ele>804.0</ele>
        <time>2021-10-14T11:48:22Z</time>
      </trkpt>
      <trkpt lat="41.0882590" lon="-5.7034780">
        <ele>803.8</ele>
        <time>2021-10-14T11:48:25Z</time>
      </trkpt>
      <trkpt lat="41.0880980" lon="-5.7034760">
        <ele>803.6</ele>
        <time>2021-10-14T11:48:32Z</time>
      </trkpt>
      <trkpt lat="41.0878140" lon="-5.7034920">
        <ele>803.6</ele>
        <time>2021-10-14T11:48:42Z</time>
      </trkpt>
      <trkpt lat="41.0876850" lon="-5.7034900">
        <ele>803.6</ele>
        <time>2021-10-14T11:48:47Z</time>
      </trkpt>
      <trkpt lat="41.0876660" lon="-5.7034850">
        <ele>803.6</ele>
        <time>2021-10-14T11:48:48Z</time>
      </trkpt>
      <trkpt lat="41.0874780" lon="-5.7034710">
        <ele>803.8</ele>
        <time>2021-10-14T11:48:55Z</time>
      </trkpt>
      <trkpt lat="41.0873790" lon="-5.7034440">
        <ele>803.8</ele>
        <time>2021-10-14T11:48:59Z</time>
      </trkpt>
      <trkpt lat="41.0872740" lon="-5.7034210">
        <ele>804.0</ele>
        <time>2021-10-14T11:49:03Z</time>
      </trkpt>
      <trkpt lat="41.0870500" lon="-5.7033690">
        <ele>804.0</ele>
        <time>2021-10-14T11:49:11Z</time>
      </trkpt>
      <trkpt lat="41.0869070" lon="-5.7033100">
        <ele>804.2</ele>
        <time>2021-10-14T11:49:16Z</time>
      </trkpt>
      <trkpt lat="41.0867680" lon="-5.7032040">
        <ele>804.4</ele>
        <time>2021-10-14T11:49:22Z</time>
      </trkpt>
      <trkpt lat="41.0867480" lon="-5.7031700">
        <ele>804.6</ele>
        <time>2021-10-14T11:49:27Z</time>
      </trkpt>
      <trkpt lat="41.0866520" lon="-5.7030580">
        <ele>804.2</ele>
        <time>2021-10-14T11:52:19Z</time>
      </trkpt>
      <trkpt lat="41.0865990" lon="-5.7030290">
        <ele>804.2</ele>
        <time>2021-10-14T11:52:22Z</time>
      </trkpt>
      <trkpt lat="41.0865840" lon="-5.7030290">
        <ele>804.2</ele>
        <time>2021-10-14T11:52:23Z</time>
      </trkpt>
      <trkpt lat="41.0865500" lon="-5.7030700">
        <ele>804.2</ele>
        <time>2021-10-14T11:52:26Z</time>
      </trkpt>
      <trkpt lat="41.0865360" lon="-5.7031620">
        <ele>804.4</ele>
        <time>2021-10-14T11:52:31Z</time>
      </trkpt>
      <trkpt lat="41.0865310" lon="-5.7031750">
        <ele>804.4</ele>
        <time>2021-10-14T11:52:32Z</time>
      </trkpt>
      <trkpt lat="41.0865200" lon="-5.7031890">
        <ele>804.4</ele>
        <time>2021-10-14T11:52:33Z</time>
      </trkpt>
      <trkpt lat="41.0864870" lon="-5.7032060">
        <ele>804.4</ele>
        <time>2021-10-14T11:52:35Z</time>
      </trkpt>
      <trkpt lat="41.0864100" lon="-5.7032010">
        <ele>804.6</ele>
        <time>2021-10-14T11:52:38Z</time>
      </trkpt>
      <trkpt lat="41.0863170" lon="-5.7031910">
        <ele>804.6</ele>
        <time>2021-10-14T11:52:42Z</time>
      </trkpt>
      <trkpt lat="41.0862730" lon="-5.7031770">
        <ele>804.8</ele>
        <time>2021-10-14T11:52:45Z</time>
      </trkpt>
      <trkpt lat="41.0860960" lon="-5.7031630">
        <ele>805.2</ele>
        <time>2021-10-14T11:52:52Z</time>
      </trkpt>
      <trkpt lat="41.0859590" lon="-5.7031380">
        <ele>805.6</ele>
        <time>2021-10-14T11:52:59Z</time>
      </trkpt>
      <trkpt lat="41.0858760" lon="-5.7031560">
        <ele>806.0</ele>
        <time>2021-10-14T11:53:04Z</time>
      </trkpt>
      <trkpt lat="41.0858240" lon="-5.7031420">
        <ele>806.0</ele>
        <time>2021-10-14T11:53:06Z</time>
      </trkpt>
      <trkpt lat="41.0855970" lon="-5.7031270">
        <ele>806.2</ele>
        <time>2021-10-14T11:53:14Z</time>
      </trkpt>
      <trkpt lat="41.0854500" lon="-5.7030790">
        <ele>806.4</ele>
        <time>2021-10-14T11:53:20Z</time>
      </trkpt>
      <trkpt lat="41.0853120" lon="-5.7030020">
        <ele>807.0</ele>
        <time>2021-10-14T11:53:26Z</time>
      </trkpt>
      <trkpt lat="41.0852870" lon="-5.7029910">
        <ele>807.0</ele>
        <time>2021-10-14T11:53:27Z</time>
      </trkpt>
      <trkpt lat="41.0852100" lon="-5.7029610">
        <ele>807.4</ele>
        <time>2021-10-14T11:53:30Z</time>
      </trkpt>
      <trkpt lat="41.0850840" lon="-5.7029230">
        <ele>807.4</ele>
        <time>2021-10-14T11:53:35Z</time>
      </trkpt>
      <trkpt lat="41.0849060" lon="-5.7028810">
        <ele>807.8</ele>
        <time>2021-10-14T11:53:43Z</time>
      </trkpt>
      <trkpt lat="41.0848260" lon="-5.7028810">
        <ele>808.0</ele>
        <time>2021-10-14T11:53:47Z</time>
      </trkpt>
      <trkpt lat="41.0847820" lon="-5.7028670">
        <ele>808.4</ele>
        <time>2021-10-14T11:53:50Z</time>
      </trkpt>
      <trkpt lat="41.0846620" lon="-5.7028560">
        <ele>808.6</ele>
        <time>2021-10-14T11:53:56Z</time>
      </trkpt>
      <trkpt lat="41.0845210" lon="-5.7028910">
        <ele>809.0</ele>
        <time>2021-10-14T11:54:01Z</time>
      </trkpt>
      <trkpt lat="41.0844940" lon="-5.7028870">
        <ele>809.0</ele>
        <time>2021-10-14T11:54:02Z</time>
      </trkpt>
      <trkpt lat="41.0844650" lon="-5.7028800">
        <ele>809.0</ele>
        <time>2021-10-14T11:54:03Z</time>
      </trkpt>
      <trkpt lat="41.0843790" lon="-5.7028650">
        <ele>809.4</ele>
        <time>2021-10-14T11:54:06Z</time>
      </trkpt>
      <trkpt lat="41.0842690" lon="-5.7028480">
        <ele>810.0</ele>
        <time>2021-10-14T11:54:10Z</time>
      </trkpt>
      <trkpt lat="41.0842440" lon="-5.7028450">
        <ele>810.2</ele>
        <time>2021-10-14T11:54:11Z</time>
      </trkpt>
      <trkpt lat="41.0841960" lon="-5.7028330">
        <ele>810.4</ele>
        <time>2021-10-14T11:54:13Z</time>
      </trkpt>
      <trkpt lat="41.0841180" lon="-5.7028000">
        <ele>810.6</ele>
        <time>2021-10-14T11:54:16Z</time>
      </trkpt>
      <trkpt lat="41.0840920" lon="-5.7027880">
        <ele>810.6</ele>
        <time>2021-10-14T11:54:17Z</time>
      </trkpt>
      <trkpt lat="41.0840190" lon="-5.7027550">
        <ele>811.0</ele>
        <time>2021-10-14T11:54:20Z</time>
      </trkpt>
      <trkpt lat="41.0839950" lon="-5.7027440">
        <ele>811.2</ele>
        <time>2021-10-14T11:54:21Z</time>
      </trkpt>
      <trkpt lat="41.0838690" lon="-5.7027060">
        <ele>811.6</ele>
        <time>2021-10-14T11:54:26Z</time>
      </trkpt>
      <trkpt lat="41.0838470" lon="-5.7027020">
        <ele>811.8</ele>
        <time>2021-10-14T11:54:27Z</time>
      </trkpt>
      <trkpt lat="41.0837950" lon="-5.7026830">
        <ele>811.8</ele>
        <time>2021-10-14T11:54:30Z</time>
      </trkpt>
      <trkpt lat="41.0837680" lon="-5.7026750">
        <ele>812.0</ele>
        <time>2021-10-14T11:54:33Z</time>
      </trkpt>
      <trkpt lat="41.0837680" lon="-5.7026750">
        <ele>812.2</ele>
        <time>2021-10-14T11:54:34Z</time>
      </trkpt>
      <trkpt lat="41.0837680" lon="-5.7026750">
        <ele>812.2</ele>
        <time>2021-10-14T11:54:35Z</time>
      </trkpt>
      <trkpt lat="41.0838660" lon="-5.7026950">
        <ele>811.0</ele>
        <time>2021-10-14T11:56:38Z</time>
      </trkpt>
      <trkpt lat="41.0838950" lon="-5.7027050">
        <ele>811.0</ele>
        <time>2021-10-14T11:56:39Z</time>
      </trkpt>
      <trkpt lat="41.0840580" lon="-5.7027700">
        <ele>810.8</ele>
        <time>2021-10-14T11:56:44Z</time>
      </trkpt>
      <trkpt lat="41.0840930" lon="-5.7027860">
        <ele>810.8</ele>
        <time>2021-10-14T11:56:45Z</time>
      </trkpt>
      <trkpt lat="41.0843520" lon="-5.7028360">
        <ele>810.6</ele>
        <time>2021-10-14T11:56:51Z</time>
      </trkpt>
      <trkpt lat="41.0845700" lon="-5.7028580">
        <ele>810.4</ele>
        <time>2021-10-14T11:56:55Z</time>
      </trkpt>
      <trkpt lat="41.0846650" lon="-5.7028560">
        <ele>809.8</ele>
        <time>2021-10-14T11:56:57Z</time>
      </trkpt>
      <trkpt lat="41.0848270" lon="-5.7028300">
        <ele>809.4</ele>
        <time>2021-10-14T11:57:00Z</time>
      </trkpt>
      <trkpt lat="41.0849040" lon="-5.7027590">
        <ele>809.2</ele>
        <time>2021-10-14T11:57:02Z</time>
      </trkpt>
      <trkpt lat="41.0849560" lon="-5.7026160">
        <ele>808.8</ele>
        <time>2021-10-14T11:57:05Z</time>
      </trkpt>
      <trkpt lat="41.0849680" lon="-5.7025660">
        <ele>808.8</ele>
        <time>2021-10-14T11:57:06Z</time>
      </trkpt>
      <trkpt lat="41.0850770" lon="-5.7023070">
        <ele>808.8</ele>
        <time>2021-10-14T11:57:12Z</time>
      </trkpt>
      <trkpt lat="41.0851410" lon="-5.7021610">
        <ele>809.0</ele>
        <time>2021-10-14T11:57:15Z</time>
      </trkpt>
      <trkpt lat="41.0851850" lon="-5.7020680">
        <ele>809.0</ele>
        <time>2021-10-14T11:57:17Z</time>
      </trkpt>
      <trkpt lat="41.0852300" lon="-5.7019760">
        <ele>809.0</ele>
        <time>2021-10-14T11:57:19Z</time>
      </trkpt>
      <trkpt lat="41.0852690" lon="-5.7018680">
        <ele>809.0</ele>
        <time>2021-10-14T11:57:21Z</time>
      </trkpt>
      <trkpt lat="41.0853090" lon="-5.7017600">
        <ele>808.8</ele>
        <time>2021-10-14T11:57:23Z</time>
      </trkpt>
      <trkpt lat="41.0853330" lon="-5.7016510">
        <ele>808.8</ele>
        <time>2021-10-14T11:57:25Z</time>
      </trkpt>
      <trkpt lat="41.0853740" lon="-5.7014710">
        <ele>808.4</ele>
        <time>2021-10-14T11:57:30Z</time>
      </trkpt>
      <trkpt lat="41.0853780" lon="-5.7014570">
        <ele>808.4</ele>
        <time>2021-10-14T11:57:31Z</time>
      </trkpt>
      <trkpt lat="41.0853920" lon="-5.7014470">
        <ele>808.2</ele>
        <time>2021-10-14T11:57:33Z</time>
      </trkpt>
      <trkpt lat="41.0854170" lon="-5.7014650">
        <ele>808.2</ele>
        <time>2021-10-14T11:57:34Z</time>
      </trkpt>
      <trkpt lat="41.0855780" lon="-5.7015750">
        <ele>808.0</ele>
        <time>2021-10-14T11:57:40Z</time>
      </trkpt>
      <trkpt lat="41.0856380" lon="-5.7016070">
        <ele>807.8</ele>
        <time>2021-10-14T11:57:42Z</time>
      </trkpt>
      <trkpt lat="41.0856670" lon="-5.7016090">
        <ele>807.8</ele>
        <time>2021-10-14T11:57:43Z</time>
      </trkpt>
      <trkpt lat="41.0856850" lon="-5.7016150">
        <ele>807.8</ele>
        <time>2021-10-14T11:57:44Z</time>
      </trkpt>
      <trkpt lat="41.0858830" lon="-5.7017170">
        <ele>807.4</ele>
        <time>2021-10-14T11:57:51Z</time>
      </trkpt>
      <trkpt lat="41.0860490" lon="-5.7017900">
        <ele>807.2</ele>
        <time>2021-10-14T11:57:56Z</time>
      </trkpt>
      <trkpt lat="41.0862020" lon="-5.7017970">
        <ele>807.0</ele>
        <time>2021-10-14T11:58:01Z</time>
      </trkpt>
      <trkpt lat="41.0864840" lon="-5.7016760">
        <ele>807.4</ele>
        <time>2021-10-14T11:58:10Z</time>
      </trkpt>
      <trkpt lat="41.0867020" lon="-5.7016050">
        <ele>807.2</ele>
        <time>2021-10-14T11:58:17Z</time>
      </trkpt>
      <trkpt lat="41.0867460" lon="-5.7015660">
        <ele>807.2</ele>
        <time>2021-10-14T11:58:19Z</time>
      </trkpt>
      <trkpt lat="41.0867520" lon="-5.7015310">
        <ele>807.2</ele>
        <time>2021-10-14T11:58:20Z</time>
      </trkpt>
      <trkpt lat="41.0868060" lon="-5.7012520">
        <ele>807.0</ele>
        <time>2021-10-14T11:58:26Z</time>
      </trkpt>
      <trkpt lat="41.0868170" lon="-5.7011970">
        <ele>807.0</ele>
        <time>2021-10-14T11:58:27Z</time>
      </trkpt>
      <trkpt lat="41.0868530" lon="-5.7009810">
        <ele>807.2</ele>
        <time>2021-10-14T11:58:31Z</time>
      </trkpt>
      <trkpt lat="41.0868620" lon="-5.7008540">
        <ele>807.2</ele>
        <time>2021-10-14T11:58:33Z</time>
      </trkpt>
      <trkpt lat="41.0868750" lon="-5.7003040">
        <ele>807.4</ele>
        <time>2021-10-14T11:58:42Z</time>
      </trkpt>
      <trkpt lat="41.0868790" lon="-5.6999100">
        <ele>807.4</ele>
        <time>2021-10-14T11:58:48Z</time>
      </trkpt>
      <trkpt lat="41.0868980" lon="-5.6996760">
        <ele>807.2</ele>
        <time>2021-10-14T11:58:52Z</time>
      </trkpt>
      <trkpt lat="41.0869060" lon="-5.6995610">
        <ele>807.0</ele>
        <time>2021-10-14T11:58:54Z</time>
      </trkpt>
      <trkpt lat="41.0869480" lon="-5.6991380">
        <ele>806.8</ele>
        <time>2021-10-14T11:59:01Z</time>
      </trkpt>
      <trkpt lat="41.0869640" lon="-5.6989690">
        <ele>806.8</ele>
        <time>2021-10-14T11:59:04Z</time>
      </trkpt>
      <trkpt lat="41.0870170" lon="-5.6985870">
        <ele>807.0</ele>
        <time>2021-10-14T11:59:11Z</time>
      </trkpt>
      <trkpt lat="41.0870340" lon="-5.6984890">
        <ele>807.0</ele>
        <time>2021-10-14T11:59:13Z</time>
      </trkpt>
      <trkpt lat="41.0870510" lon="-5.6982760">
        <ele>807.4</ele>
        <time>2021-10-14T11:59:17Z</time>
      </trkpt>
      <trkpt lat="41.0870670" lon="-5.6980510">
        <ele>807.8</ele>
        <time>2021-10-14T11:59:23Z</time>
      </trkpt>
      <trkpt lat="41.0871280" lon="-5.6978650">
        <ele>807.8</ele>
        <time>2021-10-14T11:59:30Z</time>
      </trkpt>
      <trkpt lat="41.0871330" lon="-5.6977730">
        <ele>807.8</ele>
        <time>2021-10-14T11:59:34Z</time>
      </trkpt>
      <trkpt lat="41.0871270" lon="-5.6976850">
        <ele>808.0</ele>
        <time>2021-10-14T11:59:37Z</time>
      </trkpt>
      <trkpt lat="41.0871220" lon="-5.6976190">
        <ele>808.0</ele>
        <time>2021-10-14T11:59:39Z</time>
      </trkpt>
      <trkpt lat="41.0870940" lon="-5.6975120">
        <ele>808.2</ele>
        <time>2021-10-14T11:59:44Z</time>
      </trkpt>
      <trkpt lat="41.0870760" lon="-5.6974880">
        <ele>808.2</ele>
        <time>2021-10-14T11:59:45Z</time>
      </trkpt>
      <trkpt lat="41.0869690" lon="-5.6974390">
        <ele>808.2</ele>
        <time>2021-10-14T11:59:49Z</time>
      </trkpt>
      <trkpt lat="41.0867840" lon="-5.6973420">
        <ele>808.4</ele>
        <time>2021-10-14T11:59:55Z</time>
      </trkpt>
      <trkpt lat="41.0865900" lon="-5.6972530">
        <ele>808.8</ele>
        <time>2021-10-14T12:00:01Z</time>
      </trkpt>
      <trkpt lat="41.0864630" lon="-5.6971860">
        <ele>809.0</ele>
        <time>2021-10-14T12:00:05Z</time>
      </trkpt>
      <trkpt lat="41.0864280" lon="-5.6971730">
        <ele>809.0</ele>
        <time>2021-10-14T12:00:06Z</time>
      </trkpt>
      <trkpt lat="41.0863080" lon="-5.6971120">
        <ele>809.0</ele>
        <time>2021-10-14T12:00:10Z</time>
      </trkpt>
      <trkpt lat="41.0861770" lon="-5.6970350">
        <ele>809.2</ele>
        <time>2021-10-14T12:00:15Z</time>
      </trkpt>
      <trkpt lat="41.0861590" lon="-5.6970160">
        <ele>809.2</ele>
        <time>2021-10-14T12:00:16Z</time>
      </trkpt>
      <trkpt lat="41.0861130" lon="-5.6969360">
        <ele>809.2</ele>
        <time>2021-10-14T12:00:19Z</time>
      </trkpt>
      <trkpt lat="41.0860600" lon="-5.6968810">
        <ele>809.4</ele>
        <time>2021-10-14T12:00:24Z</time>
      </trkpt>
      <trkpt lat="41.0861060" lon="-5.6969110">
        <ele>809.2</ele>
        <time>2021-10-14T12:00:53Z</time>
      </trkpt>
      <trkpt lat="41.0861700" lon="-5.6969490">
        <ele>809.2</ele>
        <time>2021-10-14T12:00:55Z</time>
      </trkpt>
      <trkpt lat="41.0862650" lon="-5.6970100">
        <ele>809.4</ele>
        <time>2021-10-14T12:00:58Z</time>
      </trkpt>
      <trkpt lat="41.0863760" lon="-5.6970710">
        <ele>809.4</ele>
        <time>2021-10-14T12:01:01Z</time>
      </trkpt>
      <trkpt lat="41.0866350" lon="-5.6972290">
        <ele>809.2</ele>
        <time>2021-10-14T12:01:09Z</time>
      </trkpt>
      <trkpt lat="41.0868590" lon="-5.6973370">
        <ele>809.2</ele>
        <time>2021-10-14T12:01:16Z</time>
      </trkpt>
      <trkpt lat="41.0871260" lon="-5.6975000">
        <ele>809.2</ele>
        <time>2021-10-14T12:01:25Z</time>
      </trkpt>
      <trkpt lat="41.0871490" lon="-5.6976390">
        <ele>809.0</ele>
        <time>2021-10-14T12:01:28Z</time>
      </trkpt>
      <trkpt lat="41.0871500" lon="-5.6976860">
        <ele>809.0</ele>
        <time>2021-10-14T12:01:29Z</time>
      </trkpt>
      <trkpt lat="41.0871440" lon="-5.6978230">
        <ele>808.6</ele>
        <time>2021-10-14T12:01:32Z</time>
      </trkpt>
      <trkpt lat="41.0871120" lon="-5.6979990">
        <ele>808.2</ele>
        <time>2021-10-14T12:01:37Z</time>
      </trkpt>
      <trkpt lat="41.0871060" lon="-5.6980800">
        <ele>808.2</ele>
        <time>2021-10-14T12:01:40Z</time>
      </trkpt>
      <trkpt lat="41.0871110" lon="-5.6980980">
        <ele>808.2</ele>
        <time>2021-10-14T12:01:41Z</time>
      </trkpt>
      <trkpt lat="41.0871160" lon="-5.6980990">
        <ele>808.2</ele>
        <time>2021-10-14T12:01:42Z</time>
      </trkpt>
      <trkpt lat="41.0871290" lon="-5.6981000">
        <ele>808.2</ele>
        <time>2021-10-14T12:01:44Z</time>
      </trkpt>
      <trkpt lat="41.0871290" lon="-5.6981000">
        <ele>808.2</ele>
        <time>2021-10-14T12:01:46Z</time>
      </trkpt>
      <trkpt lat="41.0871300" lon="-5.6980640">
        <ele>809.2</ele>
        <time>2021-10-14T12:40:53Z</time>
      </trkpt>
      <trkpt lat="41.0871270" lon="-5.6980240">
        <ele>809.2</ele>
        <time>2021-10-14T12:40:54Z</time>
      </trkpt>
      <trkpt lat="41.0871200" lon="-5.6977590">
        <ele>809.2</ele>
        <time>2021-10-14T12:40:59Z</time>
      </trkpt>
      <trkpt lat="41.0870940" lon="-5.6975850">
        <ele>809.4</ele>
        <time>2021-10-14T12:41:03Z</time>
      </trkpt>
      <trkpt lat="41.0870720" lon="-5.6975110">
        <ele>809.6</ele>
        <time>2021-10-14T12:41:05Z</time>
      </trkpt>
      <trkpt lat="41.0870500" lon="-5.6974820">
        <ele>809.6</ele>
        <time>2021-10-14T12:41:06Z</time>
      </trkpt>
      <trkpt lat="41.0869710" lon="-5.6974320">
        <ele>810.0</ele>
        <time>2021-10-14T12:41:09Z</time>
      </trkpt>
      <trkpt lat="41.0867780" lon="-5.6973480">
        <ele>810.2</ele>
        <time>2021-10-14T12:41:15Z</time>
      </trkpt>
      <trkpt lat="41.0865820" lon="-5.6972600">
        <ele>810.4</ele>
        <time>2021-10-14T12:41:21Z</time>
      </trkpt>
      <trkpt lat="41.0864000" lon="-5.6971640">
        <ele>810.8</ele>
        <time>2021-10-14T12:41:27Z</time>
      </trkpt>
      <trkpt lat="41.0863040" lon="-5.6971200">
        <ele>811.0</ele>
        <time>2021-10-14T12:41:30Z</time>
      </trkpt>
      <trkpt lat="41.0860840" lon="-5.6970200">
        <ele>811.2</ele>
        <time>2021-10-14T12:41:37Z</time>
      </trkpt>
      <trkpt lat="41.0859890" lon="-5.6969850">
        <ele>811.2</ele>
        <time>2021-10-14T12:41:40Z</time>
      </trkpt>
      <trkpt lat="41.0857270" lon="-5.6968620">
        <ele>811.6</ele>
        <time>2021-10-14T12:41:49Z</time>
      </trkpt>
      <trkpt lat="41.0855300" lon="-5.6967710">
        <ele>811.8</ele>
        <time>2021-10-14T12:41:56Z</time>
      </trkpt>
      <trkpt lat="41.0853520" lon="-5.6966940">
        <ele>812.2</ele>
        <time>2021-10-14T12:42:02Z</time>
      </trkpt>
      <trkpt lat="41.0852940" lon="-5.6966660">
        <ele>812.2</ele>
        <time>2021-10-14T12:42:04Z</time>
      </trkpt>
      <trkpt lat="41.0851630" lon="-5.6966100">
        <ele>812.4</ele>
        <time>2021-10-14T12:42:10Z</time>
      </trkpt>
      <trkpt lat="41.0850230" lon="-5.6965420">
        <ele>812.6</ele>
        <time>2021-10-14T12:42:16Z</time>
      </trkpt>
      <trkpt lat="41.0848270" lon="-5.6964560">
        <ele>813.2</ele>
        <time>2021-10-14T12:42:23Z</time>
      </trkpt>
      <trkpt lat="41.0847210" lon="-5.6963980">
        <ele>813.2</ele>
        <time>2021-10-14T12:42:27Z</time>
      </trkpt>
      <trkpt lat="41.0846070" lon="-5.6963660">
        <ele>813.8</ele>
        <time>2021-10-14T12:42:31Z</time>
      </trkpt>
      <trkpt lat="41.0843230" lon="-5.6962220">
        <ele>814.4</ele>
        <time>2021-10-14T12:42:41Z</time>
      </trkpt>
      <trkpt lat="41.0842410" lon="-5.6961800">
        <ele>814.4</ele>
        <time>2021-10-14T12:42:44Z</time>
      </trkpt>
      <trkpt lat="41.0841000" lon="-5.6961210">
        <ele>814.8</ele>
        <time>2021-10-14T12:42:49Z</time>
      </trkpt>
      <trkpt lat="41.0839250" lon="-5.6960390">
        <ele>815.2</ele>
        <time>2021-10-14T12:42:55Z</time>
      </trkpt>
      <trkpt lat="41.0838670" lon="-5.6960120">
        <ele>815.4</ele>
        <time>2021-10-14T12:42:57Z</time>
      </trkpt>
      <trkpt lat="41.0837770" lon="-5.6959770">
        <ele>815.6</ele>
        <time>2021-10-14T12:43:00Z</time>
      </trkpt>
      <trkpt lat="41.0835960" lon="-5.6958990">
        <ele>816.2</ele>
        <time>2021-10-14T12:43:06Z</time>
      </trkpt>
      <trkpt lat="41.0834730" lon="-5.6958430">
        <ele>816.6</ele>
        <time>2021-10-14T12:43:10Z</time>
      </trkpt>
      <trkpt lat="41.0833460" lon="-5.6957740">
        <ele>816.8</ele>
        <time>2021-10-14T12:43:14Z</time>
      </trkpt>
      <trkpt lat="41.0830770" lon="-5.6956480">
        <ele>817.4</ele>
        <time>2021-10-14T12:43:23Z</time>
      </trkpt>
      <trkpt lat="41.0829720" lon="-5.6955940">
        <ele>817.8</ele>
        <time>2021-10-14T12:43:27Z</time>
      </trkpt>
      <trkpt lat="41.0829090" lon="-5.6955680">
        <ele>817.8</ele>
        <time>2021-10-14T12:43:30Z</time>
      </trkpt>
      <trkpt lat="41.0828760" lon="-5.6955620">
        <ele>818.0</ele>
        <time>2021-10-14T12:43:33Z</time>
      </trkpt>
      <trkpt lat="41.0828760" lon="-5.6955620">
        <ele>818.0</ele>
        <time>2021-10-14T12:43:35Z</time>
      </trkpt>
      <trkpt lat="41.0828390" lon="-5.6955360">
        <ele>818.0</ele>
        <time>2021-10-14T12:43:58Z</time>
      </trkpt>
      <trkpt lat="41.0827940" lon="-5.6955150">
        <ele>818.0</ele>
        <time>2021-10-14T12:44:00Z</time>
      </trkpt>
      <trkpt lat="41.0826140" lon="-5.6954340">
        <ele>818.2</ele>
        <time>2021-10-14T12:44:06Z</time>
      </trkpt>
      <trkpt lat="41.0824890" lon="-5.6953710">
        <ele>818.4</ele>
        <time>2021-10-14T12:44:10Z</time>
      </trkpt>
      <trkpt lat="41.0824240" lon="-5.6953420">
        <ele>818.6</ele>
        <time>2021-10-14T12:44:12Z</time>
      </trkpt>
      <trkpt lat="41.0822550" lon="-5.6952760">
        <ele>818.8</ele>
        <time>2021-10-14T12:44:17Z</time>
      </trkpt>
      <trkpt lat="41.0821490" lon="-5.6952350">
        <ele>819.0</ele>
        <time>2021-10-14T12:44:20Z</time>
      </trkpt>
      <trkpt lat="41.0820080" lon="-5.6951720">
        <ele>819.0</ele>
        <time>2021-10-14T12:44:24Z</time>
      </trkpt>
      <trkpt lat="41.0818660" lon="-5.6950990">
        <ele>819.2</ele>
        <time>2021-10-14T12:44:28Z</time>
      </trkpt>
      <trkpt lat="41.0818300" lon="-5.6950850">
        <ele>819.2</ele>
        <time>2021-10-14T12:44:29Z</time>
      </trkpt>
      <trkpt lat="41.0815690" lon="-5.6949720">
        <ele>819.8</ele>
        <time>2021-10-14T12:44:36Z</time>
      </trkpt>
      <trkpt lat="41.0814940" lon="-5.6949340">
        <ele>819.8</ele>
        <time>2021-10-14T12:44:38Z</time>
      </trkpt>
      <trkpt lat="41.0813820" lon="-5.6948810">
        <ele>820.0</ele>
        <time>2021-10-14T12:44:41Z</time>
      </trkpt>
      <trkpt lat="41.0810960" lon="-5.6947530">
        <ele>820.4</ele>
        <time>2021-10-14T12:44:48Z</time>
      </trkpt>
      <trkpt lat="41.0810710" lon="-5.6947440">
        <ele>820.4</ele>
        <time>2021-10-14T12:44:49Z</time>
      </trkpt>
      <trkpt lat="41.0809440" lon="-5.6946950">
        <ele>820.6</ele>
        <time>2021-10-14T12:44:52Z</time>
      </trkpt>
      <trkpt lat="41.0808690" lon="-5.6946620">
        <ele>820.6</ele>
        <time>2021-10-14T12:44:54Z</time>
      </trkpt>
      <trkpt lat="41.0807900" lon="-5.6946350">
        <ele>820.6</ele>
        <time>2021-10-14T12:44:56Z</time>
      </trkpt>
      <trkpt lat="41.0807130" lon="-5.6946060">
        <ele>820.6</ele>
        <time>2021-10-14T12:44:58Z</time>
      </trkpt>
      <trkpt lat="41.0805230" lon="-5.6945240">
        <ele>820.8</ele>
        <time>2021-10-14T12:45:03Z</time>
      </trkpt>
      <trkpt lat="41.0803760" lon="-5.6944740">
        <ele>820.8</ele>
        <time>2021-10-14T12:45:07Z</time>
      </trkpt>
      <trkpt lat="41.0803420" lon="-5.6944740">
        <ele>820.8</ele>
        <time>2021-10-14T12:45:08Z</time>
      </trkpt>
      <trkpt lat="41.0802060" lon="-5.6945680">
        <ele>820.8</ele>
        <time>2021-10-14T12:45:12Z</time>
      </trkpt>
      <trkpt lat="41.0801550" lon="-5.6947710">
        <ele>820.8</ele>
        <time>2021-10-14T12:45:16Z</time>
      </trkpt>
      <trkpt lat="41.0802030" lon="-5.6950650">
        <ele>820.8</ele>
        <time>2021-10-14T12:45:22Z</time>
      </trkpt>
      <trkpt lat="41.0802260" lon="-5.6951540">
        <ele>820.8</ele>
        <time>2021-10-14T12:45:24Z</time>
      </trkpt>
      <trkpt lat="41.0802560" lon="-5.6952910">
        <ele>821.0</ele>
        <time>2021-10-14T12:45:27Z</time>
      </trkpt>
      <trkpt lat="41.0802850" lon="-5.6954320">
        <ele>821.0</ele>
        <time>2021-10-14T12:45:30Z</time>
      </trkpt>
      <trkpt lat="41.0803050" lon="-5.6955270">
        <ele>821.0</ele>
        <time>2021-10-14T12:45:32Z</time>
      </trkpt>
      <trkpt lat="41.0803330" lon="-5.6956720">
        <ele>821.4</ele>
        <time>2021-10-14T12:45:35Z</time>
      </trkpt>
      <trkpt lat="41.0803760" lon="-5.6958760">
        <ele>821.6</ele>
        <time>2021-10-14T12:45:39Z</time>
      </trkpt>
      <trkpt lat="41.0803980" lon="-5.6959650">
        <ele>821.6</ele>
        <time>2021-10-14T12:45:41Z</time>
      </trkpt>
      <trkpt lat="41.0804380" lon="-5.6961680">
        <ele>821.8</ele>
        <time>2021-10-14T12:45:45Z</time>
      </trkpt>
      <trkpt lat="41.0804740" lon="-5.6963650">
        <ele>822.0</ele>
        <time>2021-10-14T12:45:49Z</time>
      </trkpt>
      <trkpt lat="41.0804850" lon="-5.6964120">
        <ele>822.0</ele>
        <time>2021-10-14T12:45:50Z</time>
      </trkpt>
      <trkpt lat="41.0805090" lon="-5.6965090">
        <ele>822.0</ele>
        <time>2021-10-14T12:45:52Z</time>
      </trkpt>
      <trkpt lat="41.0805530" lon="-5.6967110">
        <ele>822.0</ele>
        <time>2021-10-14T12:45:56Z</time>
      </trkpt>
      <trkpt lat="41.0805910" lon="-5.6968830">
        <ele>822.0</ele>
        <time>2021-10-14T12:45:59Z</time>
      </trkpt>
      <trkpt lat="41.0806780" lon="-5.6973120">
        <ele>821.6</ele>
        <time>2021-10-14T12:46:07Z</time>
      </trkpt>
      <trkpt lat="41.0807470" lon="-5.6976510">
        <ele>821.4</ele>
        <time>2021-10-14T12:46:13Z</time>
      </trkpt>
      <trkpt lat="41.0807840" lon="-5.6978250">
        <ele>821.4</ele>
        <time>2021-10-14T12:46:16Z</time>
      </trkpt>
      <trkpt lat="41.0808070" lon="-5.6979370">
        <ele>821.2</ele>
        <time>2021-10-14T12:46:18Z</time>
      </trkpt>
      <trkpt lat="41.0808270" lon="-5.6980380">
        <ele>821.2</ele>
        <time>2021-10-14T12:46:20Z</time>
      </trkpt>
      <trkpt lat="41.0808890" lon="-5.6983320">
        <ele>821.0</ele>
        <time>2021-10-14T12:46:26Z</time>
      </trkpt>
      <trkpt lat="41.0809190" lon="-5.6984690">
        <ele>821.0</ele>
        <time>2021-10-14T12:46:29Z</time>
      </trkpt>
      <trkpt lat="41.0809480" lon="-5.6986280">
        <ele>821.2</ele>
        <time>2021-10-14T12:46:33Z</time>
      </trkpt>
      <trkpt lat="41.0809560" lon="-5.6988070">
        <ele>821.2</ele>
        <time>2021-10-14T12:46:38Z</time>
      </trkpt>
      <trkpt lat="41.0809000" lon="-5.6988650">
        <ele>821.2</ele>
        <time>2021-10-14T12:46:42Z</time>
      </trkpt>
      <trkpt lat="41.0808180" lon="-5.6988210">
        <ele>821.2</ele>
        <time>2021-10-14T12:46:47Z</time>
      </trkpt>
      <trkpt lat="41.0807410" lon="-5.6987850">
        <ele>821.2</ele>
        <time>2021-10-14T12:46:52Z</time>
      </trkpt>
      <trkpt lat="41.0806500" lon="-5.6987340">
        <ele>821.2</ele>
        <time>2021-10-14T12:47:00Z</time>
      </trkpt>
      <trkpt lat="41.0806520" lon="-5.6987330">
        <ele>821.0</ele>
        <time>2021-10-14T12:47:01Z</time>
      </trkpt>
      <trkpt lat="41.0806550" lon="-5.6987320">
        <ele>821.0</ele>
        <time>2021-10-14T12:47:03Z</time>
      </trkpt>
      <trkpt lat="41.0807000" lon="-5.6987540">
        <ele>821.0</ele>
        <time>2021-10-14T12:47:12Z</time>
      </trkpt>
      <trkpt lat="41.0807440" lon="-5.6987770">
        <ele>821.0</ele>
        <time>2021-10-14T12:47:14Z</time>
      </trkpt>
      <trkpt lat="41.0808740" lon="-5.6988340">
        <ele>821.0</ele>
        <time>2021-10-14T12:47:19Z</time>
      </trkpt>
      <trkpt lat="41.0809270" lon="-5.6988630">
        <ele>821.2</ele>
        <time>2021-10-14T12:47:21Z</time>
      </trkpt>
      <trkpt lat="41.0810230" lon="-5.6990510">
        <ele>821.4</ele>
        <time>2021-10-14T12:47:27Z</time>
      </trkpt>
      <trkpt lat="41.0810880" lon="-5.6993610">
        <ele>821.4</ele>
        <time>2021-10-14T12:47:34Z</time>
      </trkpt>
      <trkpt lat="41.0811270" lon="-5.6995610">
        <ele>821.4</ele>
        <time>2021-10-14T12:47:38Z</time>
      </trkpt>
      <trkpt lat="41.0811820" lon="-5.6997990">
        <ele>821.6</ele>
        <time>2021-10-14T12:47:43Z</time>
      </trkpt>
      <trkpt lat="41.0812150" lon="-5.6999490">
        <ele>821.6</ele>
        <time>2021-10-14T12:47:46Z</time>
      </trkpt>
      <trkpt lat="41.0812430" lon="-5.7000980">
        <ele>821.6</ele>
        <time>2021-10-14T12:47:49Z</time>
      </trkpt>
      <trkpt lat="41.0812820" lon="-5.7002960">
        <ele>821.6</ele>
        <time>2021-10-14T12:47:53Z</time>
      </trkpt>
      <trkpt lat="41.0813020" lon="-5.7003940">
        <ele>821.4</ele>
        <time>2021-10-14T12:47:55Z</time>
      </trkpt>
      <trkpt lat="41.0813740" lon="-5.7007680">
        <ele>821.2</ele>
        <time>2021-10-14T12:48:02Z</time>
      </trkpt>
      <trkpt lat="41.0813810" lon="-5.7008070">
        <ele>821.2</ele>
        <time>2021-10-14T12:48:03Z</time>
      </trkpt>
      <trkpt lat="41.0814020" lon="-5.7009020">
        <ele>821.0</ele>
        <time>2021-10-14T12:48:05Z</time>
      </trkpt>
      <trkpt lat="41.0814530" lon="-5.7011340">
        <ele>821.0</ele>
        <time>2021-10-14T12:48:10Z</time>
      </trkpt>
      <trkpt lat="41.0814920" lon="-5.7013210">
        <ele>821.0</ele>
        <time>2021-10-14T12:48:14Z</time>
      </trkpt>
      <trkpt lat="41.0815270" lon="-5.7015320">
        <ele>820.8</ele>
        <time>2021-10-14T12:48:19Z</time>
      </trkpt>
      <trkpt lat="41.0815550" lon="-5.7016580">
        <ele>820.8</ele>
        <time>2021-10-14T12:48:22Z</time>
      </trkpt>
      <trkpt lat="41.0816070" lon="-5.7020170">
        <ele>821.0</ele>
        <time>2021-10-14T12:48:30Z</time>
      </trkpt>
      <trkpt lat="41.0815970" lon="-5.7020460">
        <ele>821.0</ele>
        <time>2021-10-14T12:48:31Z</time>
      </trkpt>
      <trkpt lat="41.0815610" lon="-5.7020800">
        <ele>821.0</ele>
        <time>2021-10-14T12:48:33Z</time>
      </trkpt>
      <trkpt lat="41.0815130" lon="-5.7020840">
        <ele>821.0</ele>
        <time>2021-10-14T12:48:35Z</time>
      </trkpt>
      <trkpt lat="41.0812350" lon="-5.7020130">
        <ele>821.0</ele>
        <time>2021-10-14T12:48:44Z</time>
      </trkpt>
      <trkpt lat="41.0810450" lon="-5.7019500">
        <ele>821.0</ele>
        <time>2021-10-14T12:48:49Z</time>
      </trkpt>
      <trkpt lat="41.0809250" lon="-5.7019120">
        <ele>821.0</ele>
        <time>2021-10-14T12:48:52Z</time>
      </trkpt>
      <trkpt lat="41.0806640" lon="-5.7018390">
        <ele>820.4</ele>
        <time>2021-10-14T12:48:58Z</time>
      </trkpt>
      <trkpt lat="41.0805720" lon="-5.7018120">
        <ele>820.2</ele>
        <time>2021-10-14T12:49:00Z</time>
      </trkpt>
      <trkpt lat="41.0801530" lon="-5.7017000">
        <ele>819.0</ele>
        <time>2021-10-14T12:49:08Z</time>
      </trkpt>
      <trkpt lat="41.0797380" lon="-5.7015840">
        <ele>818.0</ele>
        <time>2021-10-14T12:49:15Z</time>
      </trkpt>
      <trkpt lat="41.0796760" lon="-5.7015640">
        <ele>817.8</ele>
        <time>2021-10-14T12:49:16Z</time>
      </trkpt>
      <trkpt lat="41.0793640" lon="-5.7014670">
        <ele>816.8</ele>
        <time>2021-10-14T12:49:21Z</time>
      </trkpt>
      <trkpt lat="41.0791360" lon="-5.7014070">
        <ele>815.8</ele>
        <time>2021-10-14T12:49:25Z</time>
      </trkpt>
      <trkpt lat="41.0790830" lon="-5.7013920">
        <ele>815.8</ele>
        <time>2021-10-14T12:49:26Z</time>
      </trkpt>
      <trkpt lat="41.0787860" lon="-5.7013010">
        <ele>815.8</ele>
        <time>2021-10-14T12:49:32Z</time>
      </trkpt>
      <trkpt lat="41.0784920" lon="-5.7012280">
        <ele>816.0</ele>
        <time>2021-10-14T12:49:39Z</time>
      </trkpt>
      <trkpt lat="41.0782280" lon="-5.7012190">
        <ele>816.0</ele>
        <time>2021-10-14T12:49:45Z</time>
      </trkpt>
      <trkpt lat="41.0781400" lon="-5.7012230">
        <ele>816.2</ele>
        <time>2021-10-14T12:49:47Z</time>
      </trkpt>
      <trkpt lat="41.0777430" lon="-5.7012300">
        <ele>816.2</ele>
        <time>2021-10-14T12:49:56Z</time>
      </trkpt>
      <trkpt lat="41.0773450" lon="-5.7012400">
        <ele>816.4</ele>
        <time>2021-10-14T12:50:05Z</time>
      </trkpt>
      <trkpt lat="41.0771150" lon="-5.7012410">
        <ele>816.6</ele>
        <time>2021-10-14T12:50:10Z</time>
      </trkpt>
      <trkpt lat="41.0769360" lon="-5.7012390">
        <ele>816.6</ele>
        <time>2021-10-14T12:50:14Z</time>
      </trkpt>
      <trkpt lat="41.0765360" lon="-5.7012340">
        <ele>817.0</ele>
        <time>2021-10-14T12:50:23Z</time>
      </trkpt>
      <trkpt lat="41.0764920" lon="-5.7012370">
        <ele>817.0</ele>
        <time>2021-10-14T12:50:24Z</time>
      </trkpt>
      <trkpt lat="41.0764480" lon="-5.7012400">
        <ele>817.0</ele>
        <time>2021-10-14T12:50:25Z</time>
      </trkpt>
      <trkpt lat="41.0762720" lon="-5.7012390">
        <ele>817.0</ele>
        <time>2021-10-14T12:50:29Z</time>
      </trkpt>
      <trkpt lat="41.0761410" lon="-5.7012410">
        <ele>817.4</ele>
        <time>2021-10-14T12:50:32Z</time>
      </trkpt>
      <trkpt lat="41.0760140" lon="-5.7012420">
        <ele>817.4</ele>
        <time>2021-10-14T12:50:35Z</time>
      </trkpt>
      <trkpt lat="41.0759720" lon="-5.7012430">
        <ele>817.4</ele>
        <time>2021-10-14T12:50:36Z</time>
      </trkpt>
      <trkpt lat="41.0757270" lon="-5.7012440">
        <ele>817.6</ele>
        <time>2021-10-14T12:50:42Z</time>
      </trkpt>
      <trkpt lat="41.0755610" lon="-5.7012460">
        <ele>817.6</ele>
        <time>2021-10-14T12:50:46Z</time>
      </trkpt>
      <trkpt lat="41.0754800" lon="-5.7012450">
        <ele>817.6</ele>
        <time>2021-10-14T12:50:48Z</time>
      </trkpt>
      <trkpt lat="41.0753590" lon="-5.7012390">
        <ele>817.8</ele>
        <time>2021-10-14T12:50:51Z</time>
      </trkpt>
      <trkpt lat="41.0753200" lon="-5.7012390">
        <ele>817.8</ele>
        <time>2021-10-14T12:50:52Z</time>
      </trkpt>
      <trkpt lat="41.0752010" lon="-5.7012380">
        <ele>818.0</ele>
        <time>2021-10-14T12:50:55Z</time>
      </trkpt>
      <trkpt lat="41.0750880" lon="-5.7012390">
        <ele>818.2</ele>
        <time>2021-10-14T12:50:58Z</time>
      </trkpt>
      <trkpt lat="41.0749420" lon="-5.7012350">
        <ele>818.6</ele>
        <time>2021-10-14T12:51:02Z</time>
      </trkpt>
      <trkpt lat="41.0747660" lon="-5.7012370">
        <ele>819.0</ele>
        <time>2021-10-14T12:51:07Z</time>
      </trkpt>
      <trkpt lat="41.0746160" lon="-5.7012370">
        <ele>819.4</ele>
        <time>2021-10-14T12:51:11Z</time>
      </trkpt>
      <trkpt lat="41.0745060" lon="-5.7012370">
        <ele>819.8</ele>
        <time>2021-10-14T12:51:14Z</time>
      </trkpt>
      <trkpt lat="41.0743620" lon="-5.7012440">
        <ele>819.8</ele>
        <time>2021-10-14T12:51:18Z</time>
      </trkpt>
      <trkpt lat="41.0742560" lon="-5.7012410">
        <ele>820.0</ele>
        <time>2021-10-14T12:51:21Z</time>
      </trkpt>
      <trkpt lat="41.0741000" lon="-5.7012360">
        <ele>820.4</ele>
        <time>2021-10-14T12:51:26Z</time>
      </trkpt>
      <trkpt lat="41.0740380" lon="-5.7012350">
        <ele>820.6</ele>
        <time>2021-10-14T12:51:28Z</time>
      </trkpt>
      <trkpt lat="41.0739490" lon="-5.7012390">
        <ele>821.0</ele>
        <time>2021-10-14T12:51:31Z</time>
      </trkpt>
      <trkpt lat="41.0739190" lon="-5.7012390">
        <ele>821.0</ele>
        <time>2021-10-14T12:51:32Z</time>
      </trkpt>
      <trkpt lat="41.0738260" lon="-5.7012420">
        <ele>821.2</ele>
        <time>2021-10-14T12:51:35Z</time>
      </trkpt>
      <trkpt lat="41.0737010" lon="-5.7012480">
        <ele>821.4</ele>
        <time>2021-10-14T12:51:39Z</time>
      </trkpt>
      <trkpt lat="41.0735220" lon="-5.7012470">
        <ele>821.6</ele>
        <time>2021-10-14T12:51:45Z</time>
      </trkpt>
      <trkpt lat="41.0734010" lon="-5.7012420">
        <ele>821.8</ele>
        <time>2021-10-14T12:51:49Z</time>
      </trkpt>
      <trkpt lat="41.0732760" lon="-5.7012410">
        <ele>822.0</ele>
        <time>2021-10-14T12:51:53Z</time>
      </trkpt>
      <trkpt lat="41.0732120" lon="-5.7012370">
        <ele>822.4</ele>
        <time>2021-10-14T12:51:55Z</time>
      </trkpt>
      <trkpt lat="41.0731810" lon="-5.7012340">
        <ele>822.4</ele>
        <time>2021-10-14T12:51:56Z</time>
      </trkpt>
      <trkpt lat="41.0731490" lon="-5.7012330">
        <ele>822.4</ele>
        <time>2021-10-14T12:51:57Z</time>
      </trkpt>
      <trkpt lat="41.0730840" lon="-5.7012340">
        <ele>822.6</ele>
        <time>2021-10-14T12:51:59Z</time>
      </trkpt>
      <trkpt lat="41.0729070" lon="-5.7012390">
        <ele>822.6</ele>
        <time>2021-10-14T12:52:04Z</time>
      </trkpt>
      <trkpt lat="41.0728710" lon="-5.7012370">
        <ele>822.6</ele>
        <time>2021-10-14T12:52:05Z</time>
      </trkpt>
      <trkpt lat="41.0728280" lon="-5.7012340">
        <ele>822.6</ele>
        <time>2021-10-14T12:52:06Z</time>
      </trkpt>
      <trkpt lat="41.0727740" lon="-5.7012340">
        <ele>822.8</ele>
        <time>2021-10-14T12:52:08Z</time>
      </trkpt>
      <trkpt lat="41.0727000" lon="-5.7012360">
        <ele>822.8</ele>
        <time>2021-10-14T12:52:10Z</time>
      </trkpt>
      <trkpt lat="41.0725950" lon="-5.7012370">
        <ele>823.0</ele>
        <time>2021-10-14T12:52:13Z</time>
      </trkpt>
      <trkpt lat="41.0724480" lon="-5.7012330">
        <ele>823.2</ele>
        <time>2021-10-14T12:52:17Z</time>
      </trkpt>
      <trkpt lat="41.0720840" lon="-5.7012310">
        <ele>823.2</ele>
        <time>2021-10-14T12:52:27Z</time>
      </trkpt>
      <trkpt lat="41.0720470" lon="-5.7012320">
        <ele>823.2</ele>
        <time>2021-10-14T12:52:28Z</time>
      </trkpt>
      <trkpt lat="41.0719720" lon="-5.7012340">
        <ele>823.2</ele>
        <time>2021-10-14T12:52:30Z</time>
      </trkpt>
      <trkpt lat="41.0719330" lon="-5.7012360">
        <ele>823.2</ele>
        <time>2021-10-14T12:52:31Z</time>
      </trkpt>
      <trkpt lat="41.0717730" lon="-5.7012330">
        <ele>823.2</ele>
        <time>2021-10-14T12:52:35Z</time>
      </trkpt>
      <trkpt lat="41.0716060" lon="-5.7012320">
        <ele>823.2</ele>
        <time>2021-10-14T12:52:39Z</time>
      </trkpt>
      <trkpt lat="41.0713850" lon="-5.7012420">
        <ele>823.4</ele>
        <time>2021-10-14T12:52:44Z</time>
      </trkpt>
      <trkpt lat="41.0712460" lon="-5.7012460">
        <ele>823.4</ele>
        <time>2021-10-14T12:52:47Z</time>
      </trkpt>
      <trkpt lat="41.0711990" lon="-5.7012480">
        <ele>823.4</ele>
        <time>2021-10-14T12:52:48Z</time>
      </trkpt>
      <trkpt lat="41.0710610" lon="-5.7012520">
        <ele>823.4</ele>
        <time>2021-10-14T12:52:51Z</time>
      </trkpt>
      <trkpt lat="41.0708820" lon="-5.7012480">
        <ele>823.4</ele>
        <time>2021-10-14T12:52:55Z</time>
      </trkpt>
      <trkpt lat="41.0708340" lon="-5.7012490">
        <ele>823.4</ele>
        <time>2021-10-14T12:52:56Z</time>
      </trkpt>
      <trkpt lat="41.0704690" lon="-5.7012400">
        <ele>823.2</ele>
        <time>2021-10-14T12:53:04Z</time>
      </trkpt>
      <trkpt lat="41.0703330" lon="-5.7012390">
        <ele>823.0</ele>
        <time>2021-10-14T12:53:07Z</time>
      </trkpt>
      <trkpt lat="41.0702450" lon="-5.7012310">
        <ele>823.0</ele>
        <time>2021-10-14T12:53:09Z</time>
      </trkpt>
      <trkpt lat="41.0702020" lon="-5.7012260">
        <ele>823.0</ele>
        <time>2021-10-14T12:53:10Z</time>
      </trkpt>
      <trkpt lat="41.0701600" lon="-5.7012250">
        <ele>823.0</ele>
        <time>2021-10-14T12:53:11Z</time>
      </trkpt>
      <trkpt lat="41.0700780" lon="-5.7012370">
        <ele>823.2</ele>
        <time>2021-10-14T12:53:13Z</time>
      </trkpt>
      <trkpt lat="41.0699070" lon="-5.7012500">
        <ele>823.4</ele>
        <time>2021-10-14T12:53:17Z</time>
      </trkpt>
      <trkpt lat="41.0697830" lon="-5.7012450">
        <ele>823.6</ele>
        <time>2021-10-14T12:53:20Z</time>
      </trkpt>
      <trkpt lat="41.0697420" lon="-5.7012440">
        <ele>823.6</ele>
        <time>2021-10-14T12:53:21Z</time>
      </trkpt>
      <trkpt lat="41.0696610" lon="-5.7012390">
        <ele>823.8</ele>
        <time>2021-10-14T12:53:23Z</time>
      </trkpt>
      <trkpt lat="41.0694220" lon="-5.7012270">
        <ele>824.2</ele>
        <time>2021-10-14T12:53:29Z</time>
      </trkpt>
      <trkpt lat="41.0693430" lon="-5.7012330">
        <ele>824.2</ele>
        <time>2021-10-14T12:53:31Z</time>
      </trkpt>
      <trkpt lat="41.0692280" lon="-5.7012290">
        <ele>824.8</ele>
        <time>2021-10-14T12:53:34Z</time>
      </trkpt>
      <trkpt lat="41.0690700" lon="-5.7012280">
        <ele>824.8</ele>
        <time>2021-10-14T12:53:38Z</time>
      </trkpt>
      <trkpt lat="41.0688390" lon="-5.7012260">
        <ele>825.2</ele>
        <time>2021-10-14T12:53:44Z</time>
      </trkpt>
      <trkpt lat="41.0686530" lon="-5.7012300">
        <ele>825.2</ele>
        <time>2021-10-14T12:53:49Z</time>
      </trkpt>
      <trkpt lat="41.0684980" lon="-5.7012240">
        <ele>825.4</ele>
        <time>2021-10-14T12:53:53Z</time>
      </trkpt>
      <trkpt lat="41.0683800" lon="-5.7012230">
        <ele>825.4</ele>
        <time>2021-10-14T12:53:56Z</time>
      </trkpt>
      <trkpt lat="41.0681460" lon="-5.7012390">
        <ele>825.4</ele>
        <time>2021-10-14T12:54:02Z</time>
      </trkpt>
      <trkpt lat="41.0681060" lon="-5.7012430">
        <ele>825.6</ele>
        <time>2021-10-14T12:54:03Z</time>
      </trkpt>
      <trkpt lat="41.0680300" lon="-5.7012440">
        <ele>825.8</ele>
        <time>2021-10-14T12:54:05Z</time>
      </trkpt>
      <trkpt lat="41.0679520" lon="-5.7012450">
        <ele>825.8</ele>
        <time>2021-10-14T12:54:07Z</time>
      </trkpt>
      <trkpt lat="41.0678340" lon="-5.7012440">
        <ele>826.2</ele>
        <time>2021-10-14T12:54:10Z</time>
      </trkpt>
      <trkpt lat="41.0676770" lon="-5.7012450">
        <ele>826.6</ele>
        <time>2021-10-14T12:54:14Z</time>
      </trkpt>
      <trkpt lat="41.0675210" lon="-5.7012430">
        <ele>826.8</ele>
        <time>2021-10-14T12:54:18Z</time>
      </trkpt>
      <trkpt lat="41.0672850" lon="-5.7012420">
        <ele>827.2</ele>
        <time>2021-10-14T12:54:24Z</time>
      </trkpt>
      <trkpt lat="41.0668740" lon="-5.7012460">
        <ele>827.4</ele>
        <time>2021-10-14T12:54:34Z</time>
      </trkpt>
      <trkpt lat="41.0668330" lon="-5.7012460">
        <ele>827.4</ele>
        <time>2021-10-14T12:54:35Z</time>
      </trkpt>
      <trkpt lat="41.0666340" lon="-5.7012530">
        <ele>827.6</ele>
        <time>2021-10-14T12:54:40Z</time>
      </trkpt>
      <trkpt lat="41.0665160" lon="-5.7012510">
        <ele>827.6</ele>
        <time>2021-10-14T12:54:43Z</time>
      </trkpt>
      <trkpt lat="41.0664750" lon="-5.7012510">
        <ele>827.6</ele>
        <time>2021-10-14T12:54:44Z</time>
      </trkpt>
      <trkpt lat="41.0662030" lon="-5.7012490">
        <ele>827.6</ele>
        <time>2021-10-14T12:54:51Z</time>
      </trkpt>
      <trkpt lat="41.0661340" lon="-5.7012480">
        <ele>827.8</ele>
        <time>2021-10-14T12:54:53Z</time>
      </trkpt>
      <trkpt lat="41.0661000" lon="-5.7012480">
        <ele>827.8</ele>
        <time>2021-10-14T12:54:54Z</time>
      </trkpt>
      <trkpt lat="41.0659310" lon="-5.7012510">
        <ele>827.8</ele>
        <time>2021-10-14T12:54:59Z</time>
      </trkpt>
      <trkpt lat="41.0658670" lon="-5.7012450">
        <ele>828.0</ele>
        <time>2021-10-14T12:55:01Z</time>
      </trkpt>
      <trkpt lat="41.0657350" lon="-5.7012490">
        <ele>828.2</ele>
        <time>2021-10-14T12:55:05Z</time>
      </trkpt>
      <trkpt lat="41.0656670" lon="-5.7012500">
        <ele>828.8</ele>
        <time>2021-10-14T12:55:08Z</time>
      </trkpt>
      <trkpt lat="41.0655970" lon="-5.7012510">
        <ele>829.0</ele>
        <time>2021-10-14T12:55:09Z</time>
      </trkpt>
      <trkpt lat="41.0654520" lon="-5.7012370">
        <ele>829.2</ele>
        <time>2021-10-14T12:55:13Z</time>
      </trkpt>
      <trkpt lat="41.0653150" lon="-5.7012190">
        <ele>829.0</ele>
        <time>2021-10-14T12:55:17Z</time>
      </trkpt>
      <trkpt lat="41.0649940" lon="-5.7012290">
        <ele>829.6</ele>
        <time>2021-10-14T12:55:27Z</time>
      </trkpt>
      <trkpt lat="41.0649260" lon="-5.7012340">
        <ele>830.0</ele>
        <time>2021-10-14T12:55:29Z</time>
      </trkpt>
      <trkpt lat="41.0648250" lon="-5.7012390">
        <ele>830.2</ele>
        <time>2021-10-14T12:55:32Z</time>
      </trkpt>
      <trkpt lat="41.0647250" lon="-5.7012550">
        <ele>830.6</ele>
        <time>2021-10-14T12:55:35Z</time>
      </trkpt>
      <trkpt lat="41.0646940" lon="-5.7012620">
        <ele>830.6</ele>
        <time>2021-10-14T12:55:36Z</time>
      </trkpt>
      <trkpt lat="41.0645660" lon="-5.7012940">
        <ele>830.8</ele>
        <time>2021-10-14T12:55:40Z</time>
      </trkpt>
      <trkpt lat="41.0644640" lon="-5.7013120">
        <ele>831.0</ele>
        <time>2021-10-14T12:55:43Z</time>
      </trkpt>
      <trkpt lat="41.0644330" lon="-5.7013190">
        <ele>831.0</ele>
        <time>2021-10-14T12:55:44Z</time>
      </trkpt>
      <trkpt lat="41.0641130" lon="-5.7014150">
        <ele>831.8</ele>
        <time>2021-10-14T12:55:54Z</time>
      </trkpt>
      <trkpt lat="41.0639950" lon="-5.7014510">
        <ele>832.0</ele>
        <time>2021-10-14T12:55:58Z</time>
      </trkpt>
      <trkpt lat="41.0639370" lon="-5.7014670">
        <ele>832.0</ele>
        <time>2021-10-14T12:56:00Z</time>
      </trkpt>
      <trkpt lat="41.0638560" lon="-5.7014900">
        <ele>832.2</ele>
        <time>2021-10-14T12:56:03Z</time>
      </trkpt>
      <trkpt lat="41.0637990" lon="-5.7015060">
        <ele>832.4</ele>
        <time>2021-10-14T12:56:05Z</time>
      </trkpt>
      <trkpt lat="41.0637430" lon="-5.7015280">
        <ele>832.4</ele>
        <time>2021-10-14T12:56:07Z</time>
      </trkpt>
      <trkpt lat="41.0636920" lon="-5.7015470">
        <ele>832.6</ele>
        <time>2021-10-14T12:56:09Z</time>
      </trkpt>
      <trkpt lat="41.0636410" lon="-5.7015600">
        <ele>832.8</ele>
        <time>2021-10-14T12:56:11Z</time>
      </trkpt>
      <trkpt lat="41.0636150" lon="-5.7015670">
        <ele>833.2</ele>
        <time>2021-10-14T12:56:12Z</time>
      </trkpt>
      <trkpt lat="41.0635320" lon="-5.7015880">
        <ele>833.4</ele>
        <time>2021-10-14T12:56:15Z</time>
      </trkpt>
      <trkpt lat="41.0634450" lon="-5.7016060">
        <ele>833.6</ele>
        <time>2021-10-14T12:56:18Z</time>
      </trkpt>
      <trkpt lat="41.0633890" lon="-5.7016200">
        <ele>833.6</ele>
        <time>2021-10-14T12:56:20Z</time>
      </trkpt>
      <trkpt lat="41.0633350" lon="-5.7016350">
        <ele>833.6</ele>
        <time>2021-10-14T12:56:22Z</time>
      </trkpt>
      <trkpt lat="41.0630910" lon="-5.7017110">
        <ele>833.6</ele>
        <time>2021-10-14T12:56:31Z</time>
      </trkpt>
      <trkpt lat="41.0630330" lon="-5.7017270">
        <ele>833.8</ele>
        <time>2021-10-14T12:56:33Z</time>
      </trkpt>
      <trkpt lat="41.0630050" lon="-5.7017360">
        <ele>834.0</ele>
        <time>2021-10-14T12:56:34Z</time>
      </trkpt>
      <trkpt lat="41.0629510" lon="-5.7017530">
        <ele>834.2</ele>
        <time>2021-10-14T12:56:36Z</time>
      </trkpt>
      <trkpt lat="41.0627410" lon="-5.7018190">
        <ele>834.4</ele>
        <time>2021-10-14T12:56:43Z</time>
      </trkpt>
      <trkpt lat="41.0626790" lon="-5.7018390">
        <ele>834.4</ele>
        <time>2021-10-14T12:56:45Z</time>
      </trkpt>
      <trkpt lat="41.0626160" lon="-5.7018560">
        <ele>834.4</ele>
        <time>2021-10-14T12:56:47Z</time>
      </trkpt>
      <trkpt lat="41.0623570" lon="-5.7019370">
        <ele>834.2</ele>
        <time>2021-10-14T12:56:55Z</time>
      </trkpt>
      <trkpt lat="41.0620970" lon="-5.7020160">
        <ele>834.2</ele>
        <time>2021-10-14T12:57:03Z</time>
      </trkpt>
      <trkpt lat="41.0619070" lon="-5.7020720">
        <ele>834.2</ele>
        <time>2021-10-14T12:57:08Z</time>
      </trkpt>
      <trkpt lat="41.0618680" lon="-5.7020820">
        <ele>834.2</ele>
        <time>2021-10-14T12:57:09Z</time>
      </trkpt>
      <trkpt lat="41.0617270" lon="-5.7021240">
        <ele>834.2</ele>
        <time>2021-10-14T12:57:13Z</time>
      </trkpt>
      <trkpt lat="41.0616320" lon="-5.7021500">
        <ele>834.6</ele>
        <time>2021-10-14T12:57:16Z</time>
      </trkpt>
      <trkpt lat="41.0615990" lon="-5.7021580">
        <ele>834.6</ele>
        <time>2021-10-14T12:57:17Z</time>
      </trkpt>
      <trkpt lat="41.0614320" lon="-5.7022240">
        <ele>834.6</ele>
        <time>2021-10-14T12:57:24Z</time>
      </trkpt>
      <trkpt lat="41.0614120" lon="-5.7022340">
        <ele>834.2</ele>
        <time>2021-10-14T12:57:28Z</time>
      </trkpt>
      <trkpt lat="41.0614120" lon="-5.7022340">
        <ele>834.4</ele>
        <time>2021-10-14T12:57:29Z</time>
      </trkpt>
      <trkpt lat="41.0613790" lon="-5.7022060">
        <ele>833.8</ele>
        <time>2021-10-14T12:58:40Z</time>
      </trkpt>
      <trkpt lat="41.0613550" lon="-5.7021920">
        <ele>834.0</ele>
        <time>2021-10-14T12:58:41Z</time>
      </trkpt>
      <trkpt lat="41.0613290" lon="-5.7021770">
        <ele>833.8</ele>
        <time>2021-10-14T12:58:42Z</time>
      </trkpt>
      <trkpt lat="41.0611300" lon="-5.7020460">
        <ele>834.4</ele>
        <time>2021-10-14T12:58:49Z</time>
      </trkpt>
      <trkpt lat="41.0611000" lon="-5.7020270">
        <ele>834.4</ele>
        <time>2021-10-14T12:58:50Z</time>
      </trkpt>
      <trkpt lat="41.0608920" lon="-5.7018870">
        <ele>834.8</ele>
        <time>2021-10-14T12:58:57Z</time>
      </trkpt>
      <trkpt lat="41.0607950" lon="-5.7018260">
        <ele>835.0</ele>
        <time>2021-10-14T12:59:00Z</time>
      </trkpt>
      <trkpt lat="41.0605090" lon="-5.7016520">
        <ele>835.2</ele>
        <time>2021-10-14T12:59:09Z</time>
      </trkpt>
      <trkpt lat="41.0602730" lon="-5.7015040">
        <ele>835.6</ele>
        <time>2021-10-14T12:59:17Z</time>
      </trkpt>
      <trkpt lat="41.0602430" lon="-5.7014880">
        <ele>835.6</ele>
        <time>2021-10-14T12:59:18Z</time>
      </trkpt>
      <trkpt lat="41.0601620" lon="-5.7014210">
        <ele>835.6</ele>
        <time>2021-10-14T12:59:21Z</time>
      </trkpt>
      <trkpt lat="41.0601050" lon="-5.7013810">
        <ele>835.6</ele>
        <time>2021-10-14T12:59:23Z</time>
      </trkpt>
      <trkpt lat="41.0600480" lon="-5.7013440">
        <ele>835.6</ele>
        <time>2021-10-14T12:59:25Z</time>
      </trkpt>
      <trkpt lat="41.0599520" lon="-5.7012850">
        <ele>835.6</ele>
        <time>2021-10-14T12:59:28Z</time>
      </trkpt>
      <trkpt lat="41.0598940" lon="-5.7012440">
        <ele>835.6</ele>
        <time>2021-10-14T12:59:30Z</time>
      </trkpt>
      <trkpt lat="41.0597730" lon="-5.7011670">
        <ele>835.8</ele>
        <time>2021-10-14T12:59:34Z</time>
      </trkpt>
      <trkpt lat="41.0596810" lon="-5.7011130">
        <ele>835.8</ele>
        <time>2021-10-14T12:59:37Z</time>
      </trkpt>
      <trkpt lat="41.0594060" lon="-5.7009390">
        <ele>836.8</ele>
        <time>2021-10-14T12:59:46Z</time>
      </trkpt>
      <trkpt lat="41.0591630" lon="-5.7007800">
        <ele>837.6</ele>
        <time>2021-10-14T12:59:54Z</time>
      </trkpt>
      <trkpt lat="41.0591020" lon="-5.7007440">
        <ele>837.8</ele>
        <time>2021-10-14T12:59:56Z</time>
      </trkpt>
      <trkpt lat="41.0590120" lon="-5.7006800">
        <ele>838.0</ele>
        <time>2021-10-14T12:59:59Z</time>
      </trkpt>
      <trkpt lat="41.0589820" lon="-5.7006610">
        <ele>838.0</ele>
        <time>2021-10-14T13:00:00Z</time>
      </trkpt>
      <trkpt lat="41.0589220" lon="-5.7006230">
        <ele>838.2</ele>
        <time>2021-10-14T13:00:02Z</time>
      </trkpt>
      <trkpt lat="41.0587090" lon="-5.7004800">
        <ele>838.4</ele>
        <time>2021-10-14T13:00:09Z</time>
      </trkpt>
      <trkpt lat="41.0584200" lon="-5.7002880">
        <ele>838.8</ele>
        <time>2021-10-14T13:00:18Z</time>
      </trkpt>
      <trkpt lat="41.0583560" lon="-5.7002410">
        <ele>839.0</ele>
        <time>2021-10-14T13:00:20Z</time>
      </trkpt>
      <trkpt lat="41.0581950" lon="-5.7001390">
        <ele>839.0</ele>
        <time>2021-10-14T13:00:25Z</time>
      </trkpt>
      <trkpt lat="41.0580610" lon="-5.7000530">
        <ele>839.6</ele>
        <time>2021-10-14T13:00:29Z</time>
      </trkpt>
      <trkpt lat="41.0579230" lon="-5.6999580">
        <ele>840.0</ele>
        <time>2021-10-14T13:00:33Z</time>
      </trkpt>
      <trkpt lat="41.0577610" lon="-5.6998430">
        <ele>840.2</ele>
        <time>2021-10-14T13:00:38Z</time>
      </trkpt>
      <trkpt lat="41.0576350" lon="-5.6997570">
        <ele>840.4</ele>
        <time>2021-10-14T13:00:42Z</time>
      </trkpt>
      <trkpt lat="41.0575360" lon="-5.6996930">
        <ele>840.8</ele>
        <time>2021-10-14T13:00:45Z</time>
      </trkpt>
      <trkpt lat="41.0574670" lon="-5.6996480">
        <ele>841.0</ele>
        <time>2021-10-14T13:00:47Z</time>
      </trkpt>
      <trkpt lat="41.0571460" lon="-5.6994390">
        <ele>841.4</ele>
        <time>2021-10-14T13:00:56Z</time>
      </trkpt>
      <trkpt lat="41.0570040" lon="-5.6993440">
        <ele>841.6</ele>
        <time>2021-10-14T13:01:00Z</time>
      </trkpt>
      <trkpt lat="41.0567960" lon="-5.6992070">
        <ele>841.8</ele>
        <time>2021-10-14T13:01:06Z</time>
      </trkpt>
      <trkpt lat="41.0567610" lon="-5.6991850">
        <ele>842.2</ele>
        <time>2021-10-14T13:01:07Z</time>
      </trkpt>
      <trkpt lat="41.0566910" lon="-5.6991400">
        <ele>842.0</ele>
        <time>2021-10-14T13:01:09Z</time>
      </trkpt>
      <trkpt lat="41.0564820" lon="-5.6989900">
        <ele>842.6</ele>
        <time>2021-10-14T13:01:15Z</time>
      </trkpt>
      <trkpt lat="41.0562100" lon="-5.6988110">
        <ele>842.8</ele>
        <time>2021-10-14T13:01:22Z</time>
      </trkpt>
      <trkpt lat="41.0560940" lon="-5.6987370">
        <ele>842.8</ele>
        <time>2021-10-14T13:01:25Z</time>
      </trkpt>
      <trkpt lat="41.0557780" lon="-5.6985280">
        <ele>842.4</ele>
        <time>2021-10-14T13:01:33Z</time>
      </trkpt>
      <trkpt lat="41.0556890" lon="-5.6984680">
        <ele>842.4</ele>
        <time>2021-10-14T13:01:35Z</time>
      </trkpt>
      <trkpt lat="41.0555590" lon="-5.6983830">
        <ele>842.4</ele>
        <time>2021-10-14T13:01:38Z</time>
      </trkpt>
      <trkpt lat="41.0554760" lon="-5.6983280">
        <ele>842.4</ele>
        <time>2021-10-14T13:01:40Z</time>
      </trkpt>
      <trkpt lat="41.0553870" lon="-5.6982700">
        <ele>842.4</ele>
        <time>2021-10-14T13:01:42Z</time>
      </trkpt>
      <trkpt lat="41.0552590" lon="-5.6981840">
        <ele>842.4</ele>
        <time>2021-10-14T13:01:45Z</time>
      </trkpt>
      <trkpt lat="41.0549940" lon="-5.6980140">
        <ele>842.2</ele>
        <time>2021-10-14T13:01:51Z</time>
      </trkpt>
      <trkpt lat="41.0548200" lon="-5.6978910">
        <ele>842.0</ele>
        <time>2021-10-14T13:01:55Z</time>
      </trkpt>
      <trkpt lat="41.0547330" lon="-5.6978290">
        <ele>841.8</ele>
        <time>2021-10-14T13:01:57Z</time>
      </trkpt>
      <trkpt lat="41.0545500" lon="-5.6977080">
        <ele>841.6</ele>
        <time>2021-10-14T13:02:01Z</time>
      </trkpt>
      <trkpt lat="41.0543690" lon="-5.6975860">
        <ele>841.4</ele>
        <time>2021-10-14T13:02:05Z</time>
      </trkpt>
      <trkpt lat="41.0542800" lon="-5.6975250">
        <ele>841.0</ele>
        <time>2021-10-14T13:02:07Z</time>
      </trkpt>
      <trkpt lat="41.0540230" lon="-5.6973560">
        <ele>840.4</ele>
        <time>2021-10-14T13:02:12Z</time>
      </trkpt>
      <trkpt lat="41.0539180" lon="-5.6972600">
        <ele>840.2</ele>
        <time>2021-10-14T13:02:14Z</time>
      </trkpt>
      <trkpt lat="41.0538700" lon="-5.6971990">
        <ele>840.0</ele>
        <time>2021-10-14T13:02:15Z</time>
      </trkpt>
      <trkpt lat="41.0538240" lon="-5.6971340">
        <ele>839.6</ele>
        <time>2021-10-14T13:02:16Z</time>
      </trkpt>
      <trkpt lat="41.0537010" lon="-5.6969220">
        <ele>838.8</ele>
        <time>2021-10-14T13:02:19Z</time>
      </trkpt>
      <trkpt lat="41.0535770" lon="-5.6967100">
        <ele>838.0</ele>
        <time>2021-10-14T13:02:22Z</time>
      </trkpt>
      <trkpt lat="41.0535330" lon="-5.6966390">
        <ele>837.6</ele>
        <time>2021-10-14T13:02:23Z</time>
      </trkpt>
      <trkpt lat="41.0533410" lon="-5.6963710">
        <ele>836.4</ele>
        <time>2021-10-14T13:02:27Z</time>
      </trkpt>
      <trkpt lat="41.0532950" lon="-5.6963020">
        <ele>836.2</ele>
        <time>2021-10-14T13:02:28Z</time>
      </trkpt>
      <trkpt lat="41.0531480" lon="-5.6960040">
        <ele>835.4</ele>
        <time>2021-10-14T13:02:33Z</time>
      </trkpt>
      <trkpt lat="41.0530980" lon="-5.6959170">
        <ele>834.8</ele>
        <time>2021-10-14T13:02:36Z</time>
      </trkpt>
      <trkpt lat="41.0530830" lon="-5.6959040">
        <ele>834.6</ele>
        <time>2021-10-14T13:02:37Z</time>
      </trkpt>
      <trkpt lat="41.0530540" lon="-5.6958920">
        <ele>834.4</ele>
        <time>2021-10-14T13:02:39Z</time>
      </trkpt>
      <trkpt lat="41.0530460" lon="-5.6958920">
        <ele>834.0</ele>
        <time>2021-10-14T13:02:42Z</time>
      </trkpt>
      <trkpt lat="41.0530030" lon="-5.6959060">
        <ele>834.2</ele>
        <time>2021-10-14T13:04:06Z</time>
      </trkpt>
      <trkpt lat="41.0529770" lon="-5.6959150">
        <ele>834.2</ele>
        <time>2021-10-14T13:04:07Z</time>
      </trkpt>
      <trkpt lat="41.0529440" lon="-5.6959170">
        <ele>834.2</ele>
        <time>2021-10-14T13:04:08Z</time>
      </trkpt>
      <trkpt lat="41.0528610" lon="-5.6959130">
        <ele>834.2</ele>
        <time>2021-10-14T13:04:10Z</time>
      </trkpt>
      <trkpt lat="41.0527660" lon="-5.6958760">
        <ele>833.8</ele>
        <time>2021-10-14T13:04:12Z</time>
      </trkpt>
      <trkpt lat="41.0526630" lon="-5.6958150">
        <ele>833.0</ele>
        <time>2021-10-14T13:04:15Z</time>
      </trkpt>
      <trkpt lat="41.0526130" lon="-5.6957930">
        <ele>832.4</ele>
        <time>2021-10-14T13:04:17Z</time>
      </trkpt>
      <trkpt lat="41.0525180" lon="-5.6957850">
        <ele>832.0</ele>
        <time>2021-10-14T13:04:20Z</time>
      </trkpt>
      <trkpt lat="41.0523880" lon="-5.6957550">
        <ele>831.8</ele>
        <time>2021-10-14T13:04:23Z</time>
      </trkpt>
      <trkpt lat="41.0522040" lon="-5.6957040">
        <ele>831.2</ele>
        <time>2021-10-14T13:04:27Z</time>
      </trkpt>
      <trkpt lat="41.0521610" lon="-5.6956890">
        <ele>831.2</ele>
        <time>2021-10-14T13:04:28Z</time>
      </trkpt>
      <trkpt lat="41.0521240" lon="-5.6956650">
        <ele>831.0</ele>
        <time>2021-10-14T13:04:29Z</time>
      </trkpt>
      <trkpt lat="41.0520980" lon="-5.6956290">
        <ele>831.0</ele>
        <time>2021-10-14T13:04:30Z</time>
      </trkpt>
      <trkpt lat="41.0520930" lon="-5.6955550">
        <ele>831.0</ele>
        <time>2021-10-14T13:04:32Z</time>
      </trkpt>
      <trkpt lat="41.0521230" lon="-5.6954190">
        <ele>831.4</ele>
        <time>2021-10-14T13:04:37Z</time>
      </trkpt>
      <trkpt lat="41.0521300" lon="-5.6953670">
        <ele>832.0</ele>
        <time>2021-10-14T13:04:39Z</time>
      </trkpt>
      <trkpt lat="41.0521340" lon="-5.6952980">
        <ele>832.6</ele>
        <time>2021-10-14T13:04:41Z</time>
      </trkpt>
      <trkpt lat="41.0521200" lon="-5.6952620">
        <ele>832.6</ele>
        <time>2021-10-14T13:04:42Z</time>
      </trkpt>
      <trkpt lat="41.0520400" lon="-5.6951840">
        <ele>833.2</ele>
        <time>2021-10-14T13:04:45Z</time>
      </trkpt>
      <trkpt lat="41.0520120" lon="-5.6951640">
        <ele>833.2</ele>
        <time>2021-10-14T13:04:46Z</time>
      </trkpt>
      <trkpt lat="41.0519380" lon="-5.6950950">
        <ele>833.8</ele>
        <time>2021-10-14T13:04:49Z</time>
      </trkpt>
      <trkpt lat="41.0518690" lon="-5.6950220">
        <ele>834.2</ele>
        <time>2021-10-14T13:04:52Z</time>
      </trkpt>
      <trkpt lat="41.0518430" lon="-5.6950020">
        <ele>834.2</ele>
        <time>2021-10-14T13:04:53Z</time>
      </trkpt>
      <trkpt lat="41.0517600" lon="-5.6949690">
        <ele>834.4</ele>
        <time>2021-10-14T13:04:56Z</time>
      </trkpt>
      <trkpt lat="41.0517360" lon="-5.6949550">
        <ele>834.6</ele>
        <time>2021-10-14T13:04:57Z</time>
      </trkpt>
      <trkpt lat="41.0516830" lon="-5.6949240">
        <ele>834.8</ele>
        <time>2021-10-14T13:04:59Z</time>
      </trkpt>
      <trkpt lat="41.0516040" lon="-5.6948860">
        <ele>835.2</ele>
        <time>2021-10-14T13:05:02Z</time>
      </trkpt>
      <trkpt lat="41.0515210" lon="-5.6948460">
        <ele>835.6</ele>
        <time>2021-10-14T13:05:05Z</time>
      </trkpt>
      <trkpt lat="41.0514480" lon="-5.6948070">
        <ele>836.0</ele>
        <time>2021-10-14T13:05:08Z</time>
      </trkpt>
      <trkpt lat="41.0513990" lon="-5.6947980">
        <ele>836.2</ele>
        <time>2021-10-14T13:05:10Z</time>
      </trkpt>
      <trkpt lat="41.0513300" lon="-5.6947790">
        <ele>836.6</ele>
        <time>2021-10-14T13:05:13Z</time>
      </trkpt>
      <trkpt lat="41.0512540" lon="-5.6947200">
        <ele>837.0</ele>
        <time>2021-10-14T13:05:17Z</time>
      </trkpt>
      <trkpt lat="41.0512520" lon="-5.6946900">
        <ele>837.0</ele>
        <time>2021-10-14T13:05:18Z</time>
      </trkpt>
      <trkpt lat="41.0512740" lon="-5.6945650">
        <ele>837.2</ele>
        <time>2021-10-14T13:05:23Z</time>
      </trkpt>
      <trkpt lat="41.0512790" lon="-5.6944440">
        <ele>837.2</ele>
        <time>2021-10-14T13:05:29Z</time>
      </trkpt>
      <trkpt lat="41.0512850" lon="-5.6944010">
        <ele>837.2</ele>
        <time>2021-10-14T13:05:31Z</time>
      </trkpt>
      <trkpt lat="41.0512490" lon="-5.6943400">
        <ele>837.0</ele>
        <time>2021-10-14T13:05:34Z</time>
      </trkpt>
      <trkpt lat="41.0511570" lon="-5.6942400">
        <ele>836.8</ele>
        <time>2021-10-14T13:05:39Z</time>
      </trkpt>
      <trkpt lat="41.0510930" lon="-5.6941660">
        <ele>836.6</ele>
        <time>2021-10-14T13:05:42Z</time>
      </trkpt>
      <trkpt lat="41.0510160" lon="-5.6940590">
        <ele>836.4</ele>
        <time>2021-10-14T13:05:45Z</time>
      </trkpt>
      <trkpt lat="41.0509800" lon="-5.6939610">
        <ele>836.2</ele>
        <time>2021-10-14T13:05:47Z</time>
      </trkpt>
      <trkpt lat="41.0509300" lon="-5.6938240">
        <ele>836.0</ele>
        <time>2021-10-14T13:05:50Z</time>
      </trkpt>
      <trkpt lat="41.0509030" lon="-5.6937380">
        <ele>836.0</ele>
        <time>2021-10-14T13:05:52Z</time>
      </trkpt>
      <trkpt lat="41.0508520" lon="-5.6935700">
        <ele>835.8</ele>
        <time>2021-10-14T13:05:56Z</time>
      </trkpt>
      <trkpt lat="41.0508080" lon="-5.6934440">
        <ele>835.8</ele>
        <time>2021-10-14T13:05:59Z</time>
      </trkpt>
      <trkpt lat="41.0507690" lon="-5.6932520">
        <ele>836.0</ele>
        <time>2021-10-14T13:06:04Z</time>
      </trkpt>
      <trkpt lat="41.0506480" lon="-5.6930170">
        <ele>836.0</ele>
        <time>2021-10-14T13:06:11Z</time>
      </trkpt>
      <trkpt lat="41.0504760" lon="-5.6927960">
        <ele>836.0</ele>
        <time>2021-10-14T13:06:17Z</time>
      </trkpt>
      <trkpt lat="41.0501790" lon="-5.6924060">
        <ele>835.8</ele>
        <time>2021-10-14T13:06:26Z</time>
      </trkpt>
      <trkpt lat="41.0499110" lon="-5.6920580">
        <ele>835.6</ele>
        <time>2021-10-14T13:06:34Z</time>
      </trkpt>
      <trkpt lat="41.0496070" lon="-5.6916380">
        <ele>835.2</ele>
        <time>2021-10-14T13:06:43Z</time>
      </trkpt>
      <trkpt lat="41.0495320" lon="-5.6914650">
        <ele>835.0</ele>
        <time>2021-10-14T13:06:46Z</time>
      </trkpt>
      <trkpt lat="41.0494540" lon="-5.6912140">
        <ele>834.8</ele>
        <time>2021-10-14T13:06:50Z</time>
      </trkpt>
      <trkpt lat="41.0493180" lon="-5.6907360">
        <ele>834.6</ele>
        <time>2021-10-14T13:06:57Z</time>
      </trkpt>
      <trkpt lat="41.0492970" lon="-5.6906650">
        <ele>834.4</ele>
        <time>2021-10-14T13:06:58Z</time>
      </trkpt>
      <trkpt lat="41.0492620" lon="-5.6905140">
        <ele>834.0</ele>
        <time>2021-10-14T13:07:00Z</time>
      </trkpt>
      <trkpt lat="41.0492030" lon="-5.6902800">
        <ele>833.8</ele>
        <time>2021-10-14T13:07:03Z</time>
      </trkpt>
      <trkpt lat="41.0491560" lon="-5.6901010">
        <ele>833.2</ele>
        <time>2021-10-14T13:07:05Z</time>
      </trkpt>
      <trkpt lat="41.0491380" lon="-5.6900340">
        <ele>833.0</ele>
        <time>2021-10-14T13:07:06Z</time>
      </trkpt>
      <trkpt lat="41.0490060" lon="-5.6896030">
        <ele>831.8</ele>
        <time>2021-10-14T13:07:11Z</time>
      </trkpt>
      <trkpt lat="41.0489300" lon="-5.6894100">
        <ele>831.6</ele>
        <time>2021-10-14T13:07:13Z</time>
      </trkpt>
      <trkpt lat="41.0488250" lon="-5.6891710">
        <ele>830.8</ele>
        <time>2021-10-14T13:07:16Z</time>
      </trkpt>
      <trkpt lat="41.0486200" lon="-5.6887760">
        <ele>830.0</ele>
        <time>2021-10-14T13:07:21Z</time>
      </trkpt>
      <trkpt lat="41.0485360" lon="-5.6886090">
        <ele>829.8</ele>
        <time>2021-10-14T13:07:23Z</time>
      </trkpt>
      <trkpt lat="41.0483990" lon="-5.6883110">
        <ele>829.4</ele>
        <time>2021-10-14T13:07:27Z</time>
      </trkpt>
      <trkpt lat="41.0483530" lon="-5.6881730">
        <ele>829.4</ele>
        <time>2021-10-14T13:07:29Z</time>
      </trkpt>
      <trkpt lat="41.0483030" lon="-5.6880090">
        <ele>829.4</ele>
        <time>2021-10-14T13:07:31Z</time>
      </trkpt>
      <trkpt lat="41.0482630" lon="-5.6878120">
        <ele>829.2</ele>
        <time>2021-10-14T13:07:34Z</time>
      </trkpt>
      <trkpt lat="41.0482010" lon="-5.6874240">
        <ele>829.8</ele>
        <time>2021-10-14T13:07:40Z</time>
      </trkpt>
      <trkpt lat="41.0481820" lon="-5.6872850">
        <ele>829.8</ele>
        <time>2021-10-14T13:07:42Z</time>
      </trkpt>
      <trkpt lat="41.0481280" lon="-5.6869360">
        <ele>829.8</ele>
        <time>2021-10-14T13:07:47Z</time>
      </trkpt>
      <trkpt lat="41.0480580" lon="-5.6864920">
        <ele>829.6</ele>
        <time>2021-10-14T13:07:53Z</time>
      </trkpt>
      <trkpt lat="41.0480080" lon="-5.6862260">
        <ele>829.2</ele>
        <time>2021-10-14T13:07:56Z</time>
      </trkpt>
      <trkpt lat="41.0479690" lon="-5.6860690">
        <ele>828.6</ele>
        <time>2021-10-14T13:07:58Z</time>
      </trkpt>
      <trkpt lat="41.0479350" lon="-5.6859660">
        <ele>828.6</ele>
        <time>2021-10-14T13:07:59Z</time>
      </trkpt>
      <trkpt lat="41.0478560" lon="-5.6858040">
        <ele>828.2</ele>
        <time>2021-10-14T13:08:01Z</time>
      </trkpt>
      <trkpt lat="41.0477740" lon="-5.6856590">
        <ele>827.4</ele>
        <time>2021-10-14T13:08:03Z</time>
      </trkpt>
      <trkpt lat="41.0475550" lon="-5.6853350">
        <ele>826.2</ele>
        <time>2021-10-14T13:08:07Z</time>
      </trkpt>
      <trkpt lat="41.0473120" lon="-5.6849710">
        <ele>824.6</ele>
        <time>2021-10-14T13:08:11Z</time>
      </trkpt>
      <trkpt lat="41.0471040" lon="-5.6846610">
        <ele>823.6</ele>
        <time>2021-10-14T13:08:14Z</time>
      </trkpt>
      <trkpt lat="41.0469860" lon="-5.6844850">
        <ele>822.4</ele>
        <time>2021-10-14T13:08:16Z</time>
      </trkpt>
      <trkpt lat="41.0468470" lon="-5.6842730">
        <ele>821.2</ele>
        <time>2021-10-14T13:08:18Z</time>
      </trkpt>
      <trkpt lat="41.0466830" lon="-5.6840230">
        <ele>820.0</ele>
        <time>2021-10-14T13:08:21Z</time>
      </trkpt>
      <trkpt lat="41.0466260" lon="-5.6839410">
        <ele>819.4</ele>
        <time>2021-10-14T13:08:22Z</time>
      </trkpt>
      <trkpt lat="41.0463250" lon="-5.6834950">
        <ele>819.2</ele>
        <time>2021-10-14T13:08:28Z</time>
      </trkpt>
      <trkpt lat="41.0460970" lon="-5.6831820">
        <ele>819.6</ele>
        <time>2021-10-14T13:08:34Z</time>
      </trkpt>
      <trkpt lat="41.0459590" lon="-5.6829760">
        <ele>820.8</ele>
        <time>2021-10-14T13:08:39Z</time>
      </trkpt>
      <trkpt lat="41.0459330" lon="-5.6829360">
        <ele>821.0</ele>
        <time>2021-10-14T13:08:40Z</time>
      </trkpt>
      <trkpt lat="41.0457980" lon="-5.6826980">
        <ele>822.0</ele>
        <time>2021-10-14T13:08:46Z</time>
      </trkpt>
      <trkpt lat="41.0457790" lon="-5.6826590">
        <ele>822.2</ele>
        <time>2021-10-14T13:08:47Z</time>
      </trkpt>
      <trkpt lat="41.0457290" lon="-5.6825430">
        <ele>822.8</ele>
        <time>2021-10-14T13:08:50Z</time>
      </trkpt>
      <trkpt lat="41.0456890" lon="-5.6824220">
        <ele>823.4</ele>
        <time>2021-10-14T13:08:53Z</time>
      </trkpt>
      <trkpt lat="41.0456570" lon="-5.6823470">
        <ele>823.6</ele>
        <time>2021-10-14T13:08:55Z</time>
      </trkpt>
      <trkpt lat="41.0455710" lon="-5.6821030">
        <ele>824.6</ele>
        <time>2021-10-14T13:09:02Z</time>
      </trkpt>
      <trkpt lat="41.0455220" lon="-5.6819680">
        <ele>825.0</ele>
        <time>2021-10-14T13:09:06Z</time>
      </trkpt>
      <trkpt lat="41.0454670" lon="-5.6817960">
        <ele>825.6</ele>
        <time>2021-10-14T13:09:11Z</time>
      </trkpt>
      <trkpt lat="41.0454430" lon="-5.6817290">
        <ele>825.8</ele>
        <time>2021-10-14T13:09:13Z</time>
      </trkpt>
      <trkpt lat="41.0453970" lon="-5.6816010">
        <ele>826.4</ele>
        <time>2021-10-14T13:09:17Z</time>
      </trkpt>
      <trkpt lat="41.0453680" lon="-5.6815110">
        <ele>826.8</ele>
        <time>2021-10-14T13:09:20Z</time>
      </trkpt>
      <trkpt lat="41.0453440" lon="-5.6814490">
        <ele>827.2</ele>
        <time>2021-10-14T13:09:22Z</time>
      </trkpt>
      <trkpt lat="41.0453320" lon="-5.6814190">
        <ele>827.4</ele>
        <time>2021-10-14T13:09:23Z</time>
      </trkpt>
      <trkpt lat="41.0453070" lon="-5.6813540">
        <ele>827.6</ele>
        <time>2021-10-14T13:09:25Z</time>
      </trkpt>
      <trkpt lat="41.0452820" lon="-5.6812900">
        <ele>827.8</ele>
        <time>2021-10-14T13:09:27Z</time>
      </trkpt>
      <trkpt lat="41.0452700" lon="-5.6812580">
        <ele>827.8</ele>
        <time>2021-10-14T13:09:28Z</time>
      </trkpt>
      <trkpt lat="41.0452480" lon="-5.6811930">
        <ele>828.0</ele>
        <time>2021-10-14T13:09:30Z</time>
      </trkpt>
      <trkpt lat="41.0452220" lon="-5.6811240">
        <ele>828.2</ele>
        <time>2021-10-14T13:09:32Z</time>
      </trkpt>
      <trkpt lat="41.0451900" lon="-5.6810520">
        <ele>828.2</ele>
        <time>2021-10-14T13:09:34Z</time>
      </trkpt>
      <trkpt lat="41.0451590" lon="-5.6809720">
        <ele>828.4</ele>
        <time>2021-10-14T13:09:36Z</time>
      </trkpt>
      <trkpt lat="41.0451280" lon="-5.6808890">
        <ele>828.4</ele>
        <time>2021-10-14T13:09:38Z</time>
      </trkpt>
      <trkpt lat="41.0450630" lon="-5.6807080">
        <ele>828.6</ele>
        <time>2021-10-14T13:09:42Z</time>
      </trkpt>
      <trkpt lat="41.0450270" lon="-5.6806150">
        <ele>828.6</ele>
        <time>2021-10-14T13:09:44Z</time>
      </trkpt>
      <trkpt lat="41.0449770" lon="-5.6804730">
        <ele>828.6</ele>
        <time>2021-10-14T13:09:47Z</time>
      </trkpt>
      <trkpt lat="41.0449050" lon="-5.6802720">
        <ele>828.6</ele>
        <time>2021-10-14T13:09:51Z</time>
      </trkpt>
      <trkpt lat="41.0447310" lon="-5.6798180">
        <ele>828.6</ele>
        <time>2021-10-14T13:10:00Z</time>
      </trkpt>
      <trkpt lat="41.0446750" lon="-5.6796600">
        <ele>828.6</ele>
        <time>2021-10-14T13:10:03Z</time>
      </trkpt>
      <trkpt lat="41.0446190" lon="-5.6795100">
        <ele>828.6</ele>
        <time>2021-10-14T13:10:06Z</time>
      </trkpt>
      <trkpt lat="41.0445160" lon="-5.6792580">
        <ele>828.6</ele>
        <time>2021-10-14T13:10:11Z</time>
      </trkpt>
      <trkpt lat="41.0444260" lon="-5.6790070">
        <ele>828.4</ele>
        <time>2021-10-14T13:10:16Z</time>
      </trkpt>
      <trkpt lat="41.0443550" lon="-5.6788360">
        <ele>828.4</ele>
        <time>2021-10-14T13:10:20Z</time>
      </trkpt>
      <trkpt lat="41.0443210" lon="-5.6787450">
        <ele>828.4</ele>
        <time>2021-10-14T13:10:22Z</time>
      </trkpt>
      <trkpt lat="41.0442810" lon="-5.6784840">
        <ele>828.4</ele>
        <time>2021-10-14T13:10:27Z</time>
      </trkpt>
      <trkpt lat="41.0442800" lon="-5.6784220">
        <ele>828.4</ele>
        <time>2021-10-14T13:10:28Z</time>
      </trkpt>
      <trkpt lat="41.0442830" lon="-5.6783610">
        <ele>828.4</ele>
        <time>2021-10-14T13:10:29Z</time>
      </trkpt>
      <trkpt lat="41.0442930" lon="-5.6781100">
        <ele>828.2</ele>
        <time>2021-10-14T13:10:33Z</time>
      </trkpt>
      <trkpt lat="41.0442750" lon="-5.6780200">
        <ele>827.6</ele>
        <time>2021-10-14T13:10:35Z</time>
      </trkpt>
      <trkpt lat="41.0441480" lon="-5.6778500">
        <ele>827.0</ele>
        <time>2021-10-14T13:10:40Z</time>
      </trkpt>
      <trkpt lat="41.0440810" lon="-5.6778170">
        <ele>826.8</ele>
        <time>2021-10-14T13:10:42Z</time>
      </trkpt>
      <trkpt lat="41.0438680" lon="-5.6777280">
        <ele>826.8</ele>
        <time>2021-10-14T13:10:47Z</time>
      </trkpt>
      <trkpt lat="41.0434440" lon="-5.6775390">
        <ele>827.2</ele>
        <time>2021-10-14T13:10:56Z</time>
      </trkpt>
      <trkpt lat="41.0429750" lon="-5.6773580">
        <ele>827.0</ele>
        <time>2021-10-14T13:11:05Z</time>
      </trkpt>
      <trkpt lat="41.0429210" lon="-5.6773360">
        <ele>826.8</ele>
        <time>2021-10-14T13:11:06Z</time>
      </trkpt>
      <trkpt lat="41.0425290" lon="-5.6772110">
        <ele>826.2</ele>
        <time>2021-10-14T13:11:13Z</time>
      </trkpt>
      <trkpt lat="41.0424130" lon="-5.6771750">
        <ele>826.0</ele>
        <time>2021-10-14T13:11:15Z</time>
      </trkpt>
      <trkpt lat="41.0422940" lon="-5.6771330">
        <ele>825.8</ele>
        <time>2021-10-14T13:11:17Z</time>
      </trkpt>
      <trkpt lat="41.0419880" lon="-5.6770330">
        <ele>824.8</ele>
        <time>2021-10-14T13:11:22Z</time>
      </trkpt>
      <trkpt lat="41.0418610" lon="-5.6769960">
        <ele>824.6</ele>
        <time>2021-10-14T13:11:24Z</time>
      </trkpt>
      <trkpt lat="41.0416660" lon="-5.6769350">
        <ele>824.0</ele>
        <time>2021-10-14T13:11:27Z</time>
      </trkpt>
      <trkpt lat="41.0412490" lon="-5.6768130">
        <ele>822.6</ele>
        <time>2021-10-14T13:11:33Z</time>
      </trkpt>
      <trkpt lat="41.0407920" lon="-5.6766760">
        <ele>821.6</ele>
        <time>2021-10-14T13:11:39Z</time>
      </trkpt>
      <trkpt lat="41.0405500" lon="-5.6765960">
        <ele>820.2</ele>
        <time>2021-10-14T13:11:42Z</time>
      </trkpt>
      <trkpt lat="41.0402910" lon="-5.6765140">
        <ele>819.2</ele>
        <time>2021-10-14T13:11:45Z</time>
      </trkpt>
      <trkpt lat="41.0402010" lon="-5.6764870">
        <ele>818.8</ele>
        <time>2021-10-14T13:11:46Z</time>
      </trkpt>
      <trkpt lat="41.0400160" lon="-5.6764350">
        <ele>818.2</ele>
        <time>2021-10-14T13:11:48Z</time>
      </trkpt>
      <trkpt lat="41.0397410" lon="-5.6763500">
        <ele>816.6</ele>
        <time>2021-10-14T13:11:51Z</time>
      </trkpt>
      <trkpt lat="41.0394620" lon="-5.6762620">
        <ele>815.4</ele>
        <time>2021-10-14T13:11:54Z</time>
      </trkpt>
      <trkpt lat="41.0391750" lon="-5.6761750">
        <ele>814.0</ele>
        <time>2021-10-14T13:11:57Z</time>
      </trkpt>
      <trkpt lat="41.0388900" lon="-5.6760860">
        <ele>812.8</ele>
        <time>2021-10-14T13:12:00Z</time>
      </trkpt>
      <trkpt lat="41.0386970" lon="-5.6760290">
        <ele>811.4</ele>
        <time>2021-10-14T13:12:02Z</time>
      </trkpt>
      <trkpt lat="41.0384080" lon="-5.6759450">
        <ele>810.6</ele>
        <time>2021-10-14T13:12:05Z</time>
      </trkpt>
      <trkpt lat="41.0383130" lon="-5.6759180">
        <ele>809.8</ele>
        <time>2021-10-14T13:12:06Z</time>
      </trkpt>
      <trkpt lat="41.0380250" lon="-5.6758330">
        <ele>808.6</ele>
        <time>2021-10-14T13:12:09Z</time>
      </trkpt>
      <trkpt lat="41.0377400" lon="-5.6757480">
        <ele>807.4</ele>
        <time>2021-10-14T13:12:12Z</time>
      </trkpt>
      <trkpt lat="41.0375510" lon="-5.6756880">
        <ele>806.4</ele>
        <time>2021-10-14T13:12:14Z</time>
      </trkpt>
      <trkpt lat="41.0372630" lon="-5.6756020">
        <ele>805.2</ele>
        <time>2021-10-14T13:12:17Z</time>
      </trkpt>
      <trkpt lat="41.0370740" lon="-5.6755420">
        <ele>804.4</ele>
        <time>2021-10-14T13:12:19Z</time>
      </trkpt>
      <trkpt lat="41.0369790" lon="-5.6755130">
        <ele>804.2</ele>
        <time>2021-10-14T13:12:20Z</time>
      </trkpt>
      <trkpt lat="41.0367940" lon="-5.6754570">
        <ele>803.2</ele>
        <time>2021-10-14T13:12:22Z</time>
      </trkpt>
      <trkpt lat="41.0364410" lon="-5.6753480">
        <ele>801.8</ele>
        <time>2021-10-14T13:12:26Z</time>
      </trkpt>
      <trkpt lat="41.0363580" lon="-5.6753220">
        <ele>801.6</ele>
        <time>2021-10-14T13:12:27Z</time>
      </trkpt>
      <trkpt lat="41.0360580" lon="-5.6752320">
        <ele>800.8</ele>
        <time>2021-10-14T13:12:31Z</time>
      </trkpt>
      <trkpt lat="41.0359210" lon="-5.6751920">
        <ele>800.6</ele>
        <time>2021-10-14T13:12:33Z</time>
      </trkpt>
      <trkpt lat="41.0355780" lon="-5.6750630">
        <ele>800.4</ele>
        <time>2021-10-14T13:12:39Z</time>
      </trkpt>
      <trkpt lat="41.0352850" lon="-5.6749590">
        <ele>801.0</ele>
        <time>2021-10-14T13:12:45Z</time>
      </trkpt>
      <trkpt lat="41.0349790" lon="-5.6748570">
        <ele>801.8</ele>
        <time>2021-10-14T13:12:52Z</time>
      </trkpt>
      <trkpt lat="41.0349380" lon="-5.6748400">
        <ele>802.0</ele>
        <time>2021-10-14T13:12:53Z</time>
      </trkpt>
      <trkpt lat="41.0349030" lon="-5.6748170">
        <ele>802.0</ele>
        <time>2021-10-14T13:12:54Z</time>
      </trkpt>
      <trkpt lat="41.0348760" lon="-5.6747830">
        <ele>802.2</ele>
        <time>2021-10-14T13:12:55Z</time>
      </trkpt>
      <trkpt lat="41.0348610" lon="-5.6747420">
        <ele>802.4</ele>
        <time>2021-10-14T13:12:56Z</time>
      </trkpt>
      <trkpt lat="41.0348610" lon="-5.6746960">
        <ele>802.6</ele>
        <time>2021-10-14T13:12:57Z</time>
      </trkpt>
      <trkpt lat="41.0348900" lon="-5.6746020">
        <ele>802.6</ele>
        <time>2021-10-14T13:12:59Z</time>
      </trkpt>
      <trkpt lat="41.0349570" lon="-5.6745030">
        <ele>802.8</ele>
        <time>2021-10-14T13:13:01Z</time>
      </trkpt>
      <trkpt lat="41.0350310" lon="-5.6744330">
        <ele>802.8</ele>
        <time>2021-10-14T13:13:03Z</time>
      </trkpt>
      <trkpt lat="41.0351140" lon="-5.6743520">
        <ele>802.6</ele>
        <time>2021-10-14T13:13:05Z</time>
      </trkpt>
      <trkpt lat="41.0351980" lon="-5.6742660">
        <ele>802.2</ele>
        <time>2021-10-14T13:13:07Z</time>
      </trkpt>
      <trkpt lat="41.0353420" lon="-5.6741340">
        <ele>801.4</ele>
        <time>2021-10-14T13:13:11Z</time>
      </trkpt>
      <trkpt lat="41.0353750" lon="-5.6740920">
        <ele>801.0</ele>
        <time>2021-10-14T13:13:13Z</time>
      </trkpt>
      <trkpt lat="41.0353780" lon="-5.6740850">
        <ele>800.6</ele>
        <time>2021-10-14T13:13:15Z</time>
      </trkpt>
      <trkpt lat="41.0354080" lon="-5.6740560">
        <ele>800.4</ele>
        <time>2021-10-14T13:13:22Z</time>
      </trkpt>
      <trkpt lat="41.0354310" lon="-5.6740350">
        <ele>800.4</ele>
        <time>2021-10-14T13:13:23Z</time>
      </trkpt>
      <trkpt lat="41.0354560" lon="-5.6740040">
        <ele>800.2</ele>
        <time>2021-10-14T13:13:24Z</time>
      </trkpt>
      <trkpt lat="41.0356190" lon="-5.6738050">
        <ele>800.2</ele>
        <time>2021-10-14T13:13:29Z</time>
      </trkpt>
      <trkpt lat="41.0356450" lon="-5.6737740">
        <ele>800.0</ele>
        <time>2021-10-14T13:13:30Z</time>
      </trkpt>
      <trkpt lat="41.0357920" lon="-5.6735870">
        <ele>799.4</ele>
        <time>2021-10-14T13:13:35Z</time>
      </trkpt>
      <trkpt lat="41.0358200" lon="-5.6734570">
        <ele>799.0</ele>
        <time>2021-10-14T13:13:39Z</time>
      </trkpt>
      <trkpt lat="41.0357860" lon="-5.6734170">
        <ele>799.0</ele>
        <time>2021-10-14T13:13:41Z</time>
      </trkpt>
      <trkpt lat="41.0357330" lon="-5.6734140">
        <ele>799.0</ele>
        <time>2021-10-14T13:13:43Z</time>
      </trkpt>
      <trkpt lat="41.0355550" lon="-5.6734000">
        <ele>799.6</ele>
        <time>2021-10-14T13:13:50Z</time>
      </trkpt>
      <trkpt lat="41.0354560" lon="-5.6733550">
        <ele>800.0</ele>
        <time>2021-10-14T13:13:55Z</time>
      </trkpt>
      <trkpt lat="41.0354370" lon="-5.6733420">
        <ele>800.2</ele>
        <time>2021-10-14T13:13:56Z</time>
      </trkpt>
      <trkpt lat="41.0353310" lon="-5.6732640">
        <ele>801.2</ele>
        <time>2021-10-14T13:14:02Z</time>
      </trkpt>
      <trkpt lat="41.0352980" lon="-5.6732450">
        <ele>801.8</ele>
        <time>2021-10-14T13:14:04Z</time>
      </trkpt>
      <trkpt lat="41.0352510" lon="-5.6731950">
        <ele>802.2</ele>
        <time>2021-10-14T13:14:07Z</time>
      </trkpt>
      <trkpt lat="41.0352000" lon="-5.6731280">
        <ele>802.8</ele>
        <time>2021-10-14T13:14:11Z</time>
      </trkpt>
      <trkpt lat="41.0351510" lon="-5.6730930">
        <ele>803.2</ele>
        <time>2021-10-14T13:14:14Z</time>
      </trkpt>
      <trkpt lat="41.0351070" lon="-5.6730500">
        <ele>803.6</ele>
        <time>2021-10-14T13:14:17Z</time>
      </trkpt>
      <trkpt lat="41.0350660" lon="-5.6729790">
        <ele>804.4</ele>
        <time>2021-10-14T13:14:21Z</time>
      </trkpt>
      <trkpt lat="41.0350200" lon="-5.6729170">
        <ele>805.2</ele>
        <time>2021-10-14T13:14:25Z</time>
      </trkpt>
      <trkpt lat="41.0350090" lon="-5.6729080">
        <ele>805.6</ele>
        <time>2021-10-14T13:14:26Z</time>
      </trkpt>
      <trkpt lat="41.0349810" lon="-5.6728650">
        <ele>806.0</ele>
        <time>2021-10-14T13:14:29Z</time>
      </trkpt>
      <trkpt lat="41.0349580" lon="-5.6728170">
        <ele>806.6</ele>
        <time>2021-10-14T13:14:32Z</time>
      </trkpt>
      <trkpt lat="41.0349350" lon="-5.6727730">
        <ele>807.2</ele>
        <time>2021-10-14T13:14:35Z</time>
      </trkpt>
      <trkpt lat="41.0349020" lon="-5.6727120">
        <ele>807.8</ele>
        <time>2021-10-14T13:14:39Z</time>
      </trkpt>
      <trkpt lat="41.0348760" lon="-5.6726590">
        <ele>808.4</ele>
        <time>2021-10-14T13:14:43Z</time>
      </trkpt>
      <trkpt lat="41.0348590" lon="-5.6726230">
        <ele>809.0</ele>
        <time>2021-10-14T13:14:46Z</time>
      </trkpt>
      <trkpt lat="41.0348350" lon="-5.6725880">
        <ele>809.2</ele>
        <time>2021-10-14T13:14:49Z</time>
      </trkpt>
      <trkpt lat="41.0348180" lon="-5.6725650">
        <ele>809.4</ele>
        <time>2021-10-14T13:14:51Z</time>
      </trkpt>
      <trkpt lat="41.0348090" lon="-5.6725360">
        <ele>809.6</ele>
        <time>2021-10-14T13:14:53Z</time>
      </trkpt>
      <trkpt lat="41.0347880" lon="-5.6724950">
        <ele>809.6</ele>
        <time>2021-10-14T13:14:56Z</time>
      </trkpt>
      <trkpt lat="41.0347790" lon="-5.6724810">
        <ele>809.8</ele>
        <time>2021-10-14T13:14:57Z</time>
      </trkpt>
      <trkpt lat="41.0347550" lon="-5.6724670">
        <ele>809.8</ele>
        <time>2021-10-14T13:14:59Z</time>
      </trkpt>
      <trkpt lat="41.0347190" lon="-5.6724340">
        <ele>810.0</ele>
        <time>2021-10-14T13:15:02Z</time>
      </trkpt>
      <trkpt lat="41.0347030" lon="-5.6724180">
        <ele>810.0</ele>
        <time>2021-10-14T13:15:03Z</time>
      </trkpt>
      <trkpt lat="41.0346360" lon="-5.6723810">
        <ele>810.2</ele>
        <time>2021-10-14T13:15:08Z</time>
      </trkpt>
      <trkpt lat="41.0346200" lon="-5.6723730">
        <ele>810.2</ele>
        <time>2021-10-14T13:15:09Z</time>
      </trkpt>
      <trkpt lat="41.0344980" lon="-5.6723190">
        <ele>810.4</ele>
        <time>2021-10-14T13:15:16Z</time>
      </trkpt>
      <trkpt lat="41.0344840" lon="-5.6723130">
        <ele>810.6</ele>
        <time>2021-10-14T13:15:17Z</time>
      </trkpt>
      <trkpt lat="41.0344450" lon="-5.6722960">
        <ele>810.6</ele>
        <time>2021-10-14T13:15:19Z</time>
      </trkpt>
      <trkpt lat="41.0344090" lon="-5.6722780">
        <ele>810.6</ele>
        <time>2021-10-14T13:15:21Z</time>
      </trkpt>
      <trkpt lat="41.0343710" lon="-5.6722650">
        <ele>810.8</ele>
        <time>2021-10-14T13:15:23Z</time>
      </trkpt>
      <trkpt lat="41.0343080" lon="-5.6722400">
        <ele>811.2</ele>
        <time>2021-10-14T13:15:26Z</time>
      </trkpt>
      <trkpt lat="41.0341700" lon="-5.6721860">
        <ele>811.6</ele>
        <time>2021-10-14T13:15:32Z</time>
      </trkpt>
      <trkpt lat="41.0339640" lon="-5.6721120">
        <ele>812.0</ele>
        <time>2021-10-14T13:15:41Z</time>
      </trkpt>
      <trkpt lat="41.0339220" lon="-5.6720920">
        <ele>812.0</ele>
        <time>2021-10-14T13:15:43Z</time>
      </trkpt>
      <trkpt lat="41.0339050" lon="-5.6720870">
        <ele>812.0</ele>
        <time>2021-10-14T13:15:44Z</time>
      </trkpt>
      <trkpt lat="41.0338580" lon="-5.6720770">
        <ele>812.0</ele>
        <time>2021-10-14T13:15:46Z</time>
      </trkpt>
      <trkpt lat="41.0338000" lon="-5.6720640">
        <ele>812.2</ele>
        <time>2021-10-14T13:15:49Z</time>
      </trkpt>
      <trkpt lat="41.0337760" lon="-5.6720540">
        <ele>812.2</ele>
        <time>2021-10-14T13:15:50Z</time>
      </trkpt>
      <trkpt lat="41.0337170" lon="-5.6720200">
        <ele>812.6</ele>
        <time>2021-10-14T13:15:53Z</time>
      </trkpt>
      <trkpt lat="41.0336840" lon="-5.6720050">
        <ele>813.0</ele>
        <time>2021-10-14T13:15:55Z</time>
      </trkpt>
      <trkpt lat="41.0336490" lon="-5.6719890">
        <ele>813.2</ele>
        <time>2021-10-14T13:15:57Z</time>
      </trkpt>
      <trkpt lat="41.0336110" lon="-5.6719710">
        <ele>813.4</ele>
        <time>2021-10-14T13:15:59Z</time>
      </trkpt>
      <trkpt lat="41.0335130" lon="-5.6719230">
        <ele>814.0</ele>
        <time>2021-10-14T13:16:04Z</time>
      </trkpt>
      <trkpt lat="41.0334750" lon="-5.6718990">
        <ele>814.4</ele>
        <time>2021-10-14T13:16:06Z</time>
      </trkpt>
      <trkpt lat="41.0334570" lon="-5.6718880">
        <ele>814.4</ele>
        <time>2021-10-14T13:16:07Z</time>
      </trkpt>
      <trkpt lat="41.0334400" lon="-5.6718780">
        <ele>814.6</ele>
        <time>2021-10-14T13:16:08Z</time>
      </trkpt>
      <trkpt lat="41.0333410" lon="-5.6718460">
        <ele>815.0</ele>
        <time>2021-10-14T13:16:13Z</time>
      </trkpt>
      <trkpt lat="41.0333290" lon="-5.6718350">
        <ele>815.2</ele>
        <time>2021-10-14T13:16:14Z</time>
      </trkpt>
      <trkpt lat="41.0333080" lon="-5.6718210">
        <ele>815.4</ele>
        <time>2021-10-14T13:16:15Z</time>
      </trkpt>
      <trkpt lat="41.0332520" lon="-5.6717830">
        <ele>815.8</ele>
        <time>2021-10-14T13:16:18Z</time>
      </trkpt>
      <trkpt lat="41.0331950" lon="-5.6717540">
        <ele>816.2</ele>
        <time>2021-10-14T13:16:21Z</time>
      </trkpt>
      <trkpt lat="41.0331740" lon="-5.6717410">
        <ele>816.2</ele>
        <time>2021-10-14T13:16:22Z</time>
      </trkpt>
      <trkpt lat="41.0331580" lon="-5.6717220">
        <ele>816.4</ele>
        <time>2021-10-14T13:16:23Z</time>
      </trkpt>
      <trkpt lat="41.0331300" lon="-5.6716840">
        <ele>816.6</ele>
        <time>2021-10-14T13:16:25Z</time>
      </trkpt>
      <trkpt lat="41.0331080" lon="-5.6716680">
        <ele>816.8</ele>
        <time>2021-10-14T13:16:26Z</time>
      </trkpt>
      <trkpt lat="41.0330690" lon="-5.6716530">
        <ele>816.8</ele>
        <time>2021-10-14T13:16:28Z</time>
      </trkpt>
      <trkpt lat="41.0330370" lon="-5.6716550">
        <ele>817.0</ele>
        <time>2021-10-14T13:16:30Z</time>
      </trkpt>
      <trkpt lat="41.0330200" lon="-5.6716480">
        <ele>817.0</ele>
        <time>2021-10-14T13:16:31Z</time>
      </trkpt>
      <trkpt lat="41.0328930" lon="-5.6715890">
        <ele>817.4</ele>
        <time>2021-10-14T13:16:37Z</time>
      </trkpt>
      <trkpt lat="41.0327470" lon="-5.6715000">
        <ele>817.6</ele>
        <time>2021-10-14T13:16:44Z</time>
      </trkpt>
      <trkpt lat="41.0326390" lon="-5.6714370">
        <ele>818.0</ele>
        <time>2021-10-14T13:16:49Z</time>
      </trkpt>
      <trkpt lat="41.0325780" lon="-5.6714010">
        <ele>818.4</ele>
        <time>2021-10-14T13:16:52Z</time>
      </trkpt>
      <trkpt lat="41.0325500" lon="-5.6713870">
        <ele>818.4</ele>
        <time>2021-10-14T13:16:53Z</time>
      </trkpt>
      <trkpt lat="41.0325040" lon="-5.6713640">
        <ele>818.6</ele>
        <time>2021-10-14T13:16:55Z</time>
      </trkpt>
      <trkpt lat="41.0324620" lon="-5.6713540">
        <ele>818.8</ele>
        <time>2021-10-14T13:16:57Z</time>
      </trkpt>
      <trkpt lat="41.0323450" lon="-5.6713420">
        <ele>818.8</ele>
        <time>2021-10-14T13:17:02Z</time>
      </trkpt>
      <trkpt lat="41.0322440" lon="-5.6713730">
        <ele>819.0</ele>
        <time>2021-10-14T13:17:06Z</time>
      </trkpt>
      <trkpt lat="41.0321870" lon="-5.6714020">
        <ele>819.0</ele>
        <time>2021-10-14T13:17:08Z</time>
      </trkpt>
      <trkpt lat="41.0319290" lon="-5.6715280">
        <ele>819.0</ele>
        <time>2021-10-14T13:17:17Z</time>
      </trkpt>
      <trkpt lat="41.0317940" lon="-5.6715700">
        <ele>819.0</ele>
        <time>2021-10-14T13:17:22Z</time>
      </trkpt>
      <trkpt lat="41.0317190" lon="-5.6715810">
        <ele>819.2</ele>
        <time>2021-10-14T13:17:25Z</time>
      </trkpt>
      <trkpt lat="41.0315500" lon="-5.6716080">
        <ele>819.8</ele>
        <time>2021-10-14T13:17:32Z</time>
      </trkpt>
      <trkpt lat="41.0315340" lon="-5.6716070">
        <ele>819.8</ele>
        <time>2021-10-14T13:17:33Z</time>
      </trkpt>
      <trkpt lat="41.0314120" lon="-5.6715950">
        <ele>820.8</ele>
        <time>2021-10-14T13:17:39Z</time>
      </trkpt>
      <trkpt lat="41.0313930" lon="-5.6715900">
        <ele>821.0</ele>
        <time>2021-10-14T13:17:40Z</time>
      </trkpt>
      <trkpt lat="41.0312720" lon="-5.6715680">
        <ele>822.0</ele>
        <time>2021-10-14T13:17:47Z</time>
      </trkpt>
      <trkpt lat="41.0312530" lon="-5.6715670">
        <ele>822.6</ele>
        <time>2021-10-14T13:17:48Z</time>
      </trkpt>
      <trkpt lat="41.0312230" lon="-5.6715580">
        <ele>823.0</ele>
        <time>2021-10-14T13:17:50Z</time>
      </trkpt>
      <trkpt lat="41.0312060" lon="-5.6715530">
        <ele>823.2</ele>
        <time>2021-10-14T13:17:51Z</time>
      </trkpt>
      <trkpt lat="41.0311260" lon="-5.6715370">
        <ele>824.0</ele>
        <time>2021-10-14T13:17:56Z</time>
      </trkpt>
      <trkpt lat="41.0311110" lon="-5.6715300">
        <ele>824.0</ele>
        <time>2021-10-14T13:17:57Z</time>
      </trkpt>
      <trkpt lat="41.0310960" lon="-5.6715260">
        <ele>824.2</ele>
        <time>2021-10-14T13:17:58Z</time>
      </trkpt>
      <trkpt lat="41.0310580" lon="-5.6715170">
        <ele>824.8</ele>
        <time>2021-10-14T13:18:01Z</time>
      </trkpt>
      <trkpt lat="41.0310030" lon="-5.6714940">
        <ele>825.2</ele>
        <time>2021-10-14T13:18:05Z</time>
      </trkpt>
      <trkpt lat="41.0309710" lon="-5.6714850">
        <ele>825.6</ele>
        <time>2021-10-14T13:18:07Z</time>
      </trkpt>
      <trkpt lat="41.0309570" lon="-5.6714840">
        <ele>825.6</ele>
        <time>2021-10-14T13:18:08Z</time>
      </trkpt>
      <trkpt lat="41.0309160" lon="-5.6714700">
        <ele>825.8</ele>
        <time>2021-10-14T13:18:11Z</time>
      </trkpt>
      <trkpt lat="41.0308870" lon="-5.6714580">
        <ele>826.2</ele>
        <time>2021-10-14T13:18:13Z</time>
      </trkpt>
      <trkpt lat="41.0308770" lon="-5.6714530">
        <ele>826.4</ele>
        <time>2021-10-14T13:18:14Z</time>
      </trkpt>
      <trkpt lat="41.0308490" lon="-5.6714380">
        <ele>826.6</ele>
        <time>2021-10-14T13:18:16Z</time>
      </trkpt>
      <trkpt lat="41.0308150" lon="-5.6714190">
        <ele>827.0</ele>
        <time>2021-10-14T13:18:19Z</time>
      </trkpt>
      <trkpt lat="41.0307120" lon="-5.6713680">
        <ele>827.4</ele>
        <time>2021-10-14T13:18:25Z</time>
      </trkpt>
      <trkpt lat="41.0306780" lon="-5.6713560">
        <ele>827.8</ele>
        <time>2021-10-14T13:18:27Z</time>
      </trkpt>
      <trkpt lat="41.0305690" lon="-5.6712900">
        <ele>828.2</ele>
        <time>2021-10-14T13:18:33Z</time>
      </trkpt>
      <trkpt lat="41.0305510" lon="-5.6712820">
        <ele>828.2</ele>
        <time>2021-10-14T13:18:34Z</time>
      </trkpt>
      <trkpt lat="41.0304910" lon="-5.6712660">
        <ele>828.2</ele>
        <time>2021-10-14T13:18:37Z</time>
      </trkpt>
      <trkpt lat="41.0304410" lon="-5.6712670">
        <ele>828.2</ele>
        <time>2021-10-14T13:18:39Z</time>
      </trkpt>
      <trkpt lat="41.0303710" lon="-5.6712620">
        <ele>828.4</ele>
        <time>2021-10-14T13:18:42Z</time>
      </trkpt>
      <trkpt lat="41.0303440" lon="-5.6712600">
        <ele>828.4</ele>
        <time>2021-10-14T13:18:43Z</time>
      </trkpt>
      <trkpt lat="41.0303120" lon="-5.6712570">
        <ele>828.4</ele>
        <time>2021-10-14T13:18:44Z</time>
      </trkpt>
      <trkpt lat="41.0302540" lon="-5.6712560">
        <ele>828.4</ele>
        <time>2021-10-14T13:18:46Z</time>
      </trkpt>
      <trkpt lat="41.0301710" lon="-5.6712540">
        <ele>828.4</ele>
        <time>2021-10-14T13:18:49Z</time>
      </trkpt>
      <trkpt lat="41.0299590" lon="-5.6712470">
        <ele>828.8</ele>
        <time>2021-10-14T13:18:57Z</time>
      </trkpt>
      <trkpt lat="41.0297580" lon="-5.6712450">
        <ele>829.4</ele>
        <time>2021-10-14T13:19:04Z</time>
      </trkpt>
      <trkpt lat="41.0297330" lon="-5.6712440">
        <ele>829.6</ele>
        <time>2021-10-14T13:19:05Z</time>
      </trkpt>
      <trkpt lat="41.0294460" lon="-5.6712290">
        <ele>830.0</ele>
        <time>2021-10-14T13:19:14Z</time>
      </trkpt>
      <trkpt lat="41.0292190" lon="-5.6712410">
        <ele>829.8</ele>
        <time>2021-10-14T13:19:21Z</time>
      </trkpt>
      <trkpt lat="41.0289490" lon="-5.6712550">
        <ele>830.2</ele>
        <time>2021-10-14T13:19:30Z</time>
      </trkpt>
      <trkpt lat="41.0288660" lon="-5.6712570">
        <ele>830.4</ele>
        <time>2021-10-14T13:19:33Z</time>
      </trkpt>
      <trkpt lat="41.0287520" lon="-5.6712750">
        <ele>830.4</ele>
        <time>2021-10-14T13:19:37Z</time>
      </trkpt>
      <trkpt lat="41.0287180" lon="-5.6712810">
        <ele>830.6</ele>
        <time>2021-10-14T13:19:38Z</time>
      </trkpt>
      <trkpt lat="41.0286890" lon="-5.6712840">
        <ele>830.8</ele>
        <time>2021-10-14T13:19:39Z</time>
      </trkpt>
      <trkpt lat="41.0286410" lon="-5.6712860">
        <ele>830.8</ele>
        <time>2021-10-14T13:19:41Z</time>
      </trkpt>
      <trkpt lat="41.0285540" lon="-5.6712880">
        <ele>830.8</ele>
        <time>2021-10-14T13:19:44Z</time>
      </trkpt>
      <trkpt lat="41.0284600" lon="-5.6712920">
        <ele>830.8</ele>
        <time>2021-10-14T13:19:47Z</time>
      </trkpt>
      <trkpt lat="41.0283640" lon="-5.6712880">
        <ele>830.8</ele>
        <time>2021-10-14T13:19:50Z</time>
      </trkpt>
      <trkpt lat="41.0282090" lon="-5.6713130">
        <ele>831.0</ele>
        <time>2021-10-14T13:19:55Z</time>
      </trkpt>
      <trkpt lat="41.0281550" lon="-5.6713140">
        <ele>831.0</ele>
        <time>2021-10-14T13:19:57Z</time>
      </trkpt>
      <trkpt lat="41.0279820" lon="-5.6713300">
        <ele>831.0</ele>
        <time>2021-10-14T13:20:03Z</time>
      </trkpt>
      <trkpt lat="41.0279580" lon="-5.6713270">
        <ele>831.0</ele>
        <time>2021-10-14T13:20:04Z</time>
      </trkpt>
      <trkpt lat="41.0278250" lon="-5.6713310">
        <ele>830.8</ele>
        <time>2021-10-14T13:20:08Z</time>
      </trkpt>
      <trkpt lat="41.0277390" lon="-5.6713310">
        <ele>830.6</ele>
        <time>2021-10-14T13:20:11Z</time>
      </trkpt>
      <trkpt lat="41.0276570" lon="-5.6713340">
        <ele>830.6</ele>
        <time>2021-10-14T13:20:14Z</time>
      </trkpt>
      <trkpt lat="41.0274550" lon="-5.6713360">
        <ele>830.6</ele>
        <time>2021-10-14T13:20:20Z</time>
      </trkpt>
      <trkpt lat="41.0272670" lon="-5.6713430">
        <ele>830.6</ele>
        <time>2021-10-14T13:20:26Z</time>
      </trkpt>
      <trkpt lat="41.0271280" lon="-5.6713550">
        <ele>830.6</ele>
        <time>2021-10-14T13:20:30Z</time>
      </trkpt>
      <trkpt lat="41.0267460" lon="-5.6713750">
        <ele>830.4</ele>
        <time>2021-10-14T13:20:40Z</time>
      </trkpt>
      <trkpt lat="41.0263780" lon="-5.6714020">
        <ele>830.0</ele>
        <time>2021-10-14T13:20:49Z</time>
      </trkpt>
      <trkpt lat="41.0261540" lon="-5.6714220">
        <ele>829.6</ele>
        <time>2021-10-14T13:20:55Z</time>
      </trkpt>
      <trkpt lat="41.0261220" lon="-5.6714180">
        <ele>829.6</ele>
        <time>2021-10-14T13:20:56Z</time>
      </trkpt>
      <trkpt lat="41.0259890" lon="-5.6714260">
        <ele>829.4</ele>
        <time>2021-10-14T13:21:00Z</time>
      </trkpt>
      <trkpt lat="41.0259110" lon="-5.6714180">
        <ele>829.2</ele>
        <time>2021-10-14T13:21:02Z</time>
      </trkpt>
      <trkpt lat="41.0256320" lon="-5.6713940">
        <ele>829.2</ele>
        <time>2021-10-14T13:21:09Z</time>
      </trkpt>
      <trkpt lat="41.0252600" lon="-5.6713930">
        <ele>828.8</ele>
        <time>2021-10-14T13:21:18Z</time>
      </trkpt>
      <trkpt lat="41.0251690" lon="-5.6713950">
        <ele>828.4</ele>
        <time>2021-10-14T13:21:20Z</time>
      </trkpt>
      <trkpt lat="41.0251240" lon="-5.6713860">
        <ele>828.4</ele>
        <time>2021-10-14T13:21:21Z</time>
      </trkpt>
      <trkpt lat="41.0249560" lon="-5.6713670">
        <ele>828.6</ele>
        <time>2021-10-14T13:21:25Z</time>
      </trkpt>
      <trkpt lat="41.0247950" lon="-5.6713580">
        <ele>828.4</ele>
        <time>2021-10-14T13:21:29Z</time>
      </trkpt>
      <trkpt lat="41.0247090" lon="-5.6713510">
        <ele>828.4</ele>
        <time>2021-10-14T13:21:31Z</time>
      </trkpt>
      <trkpt lat="41.0246210" lon="-5.6713390">
        <ele>828.2</ele>
        <time>2021-10-14T13:21:33Z</time>
      </trkpt>
      <trkpt lat="41.0245770" lon="-5.6713390">
        <ele>828.4</ele>
        <time>2021-10-14T13:21:34Z</time>
      </trkpt>
      <trkpt lat="41.0243300" lon="-5.6713440">
        <ele>828.4</ele>
        <time>2021-10-14T13:21:40Z</time>
      </trkpt>
      <trkpt lat="41.0240710" lon="-5.6713390">
        <ele>828.0</ele>
        <time>2021-10-14T13:21:46Z</time>
      </trkpt>
      <trkpt lat="41.0239850" lon="-5.6713270">
        <ele>828.0</ele>
        <time>2021-10-14T13:21:48Z</time>
      </trkpt>
      <trkpt lat="41.0238250" lon="-5.6712900">
        <ele>828.0</ele>
        <time>2021-10-14T13:21:52Z</time>
      </trkpt>
      <trkpt lat="41.0236210" lon="-5.6712290">
        <ele>828.0</ele>
        <time>2021-10-14T13:21:57Z</time>
      </trkpt>
      <trkpt lat="41.0234080" lon="-5.6711460">
        <ele>827.6</ele>
        <time>2021-10-14T13:22:02Z</time>
      </trkpt>
      <trkpt lat="41.0233090" lon="-5.6711030">
        <ele>827.4</ele>
        <time>2021-10-14T13:22:05Z</time>
      </trkpt>
      <trkpt lat="41.0232460" lon="-5.6711140">
        <ele>827.2</ele>
        <time>2021-10-14T13:22:08Z</time>
      </trkpt>
      <trkpt lat="41.0232290" lon="-5.6711370">
        <ele>827.2</ele>
        <time>2021-10-14T13:22:09Z</time>
      </trkpt>
      <trkpt lat="41.0231670" lon="-5.6712320">
        <ele>827.2</ele>
        <time>2021-10-14T13:22:15Z</time>
      </trkpt>
      <trkpt lat="41.0230970" lon="-5.6712690">
        <ele>827.2</ele>
        <time>2021-10-14T13:22:18Z</time>
      </trkpt>
      <trkpt lat="41.0230830" lon="-5.6712920">
        <ele>827.2</ele>
        <time>2021-10-14T13:22:19Z</time>
      </trkpt>
      <trkpt lat="41.0230780" lon="-5.6713190">
        <ele>827.2</ele>
        <time>2021-10-14T13:22:20Z</time>
      </trkpt>
      <trkpt lat="41.0230750" lon="-5.6713880">
        <ele>827.2</ele>
        <time>2021-10-14T13:22:22Z</time>
      </trkpt>
      <trkpt lat="41.0230380" lon="-5.6714540">
        <ele>827.2</ele>
        <time>2021-10-14T13:22:24Z</time>
      </trkpt>
      <trkpt lat="41.0229860" lon="-5.6715060">
        <ele>827.0</ele>
        <time>2021-10-14T13:22:26Z</time>
      </trkpt>
      <trkpt lat="41.0228320" lon="-5.6715190">
        <ele>827.0</ele>
        <time>2021-10-14T13:22:30Z</time>
      </trkpt>
      <trkpt lat="41.0227920" lon="-5.6715030">
        <ele>826.8</ele>
        <time>2021-10-14T13:22:31Z</time>
      </trkpt>
      <trkpt lat="41.0226470" lon="-5.6714030">
        <ele>826.6</ele>
        <time>2021-10-14T13:22:35Z</time>
      </trkpt>
      <trkpt lat="41.0226000" lon="-5.6713690">
        <ele>826.6</ele>
        <time>2021-10-14T13:22:36Z</time>
      </trkpt>
      <trkpt lat="41.0225190" lon="-5.6713190">
        <ele>826.6</ele>
        <time>2021-10-14T13:22:38Z</time>
      </trkpt>
      <trkpt lat="41.0224440" lon="-5.6712830">
        <ele>826.4</ele>
        <time>2021-10-14T13:22:40Z</time>
      </trkpt>
      <trkpt lat="41.0223910" lon="-5.6712670">
        <ele>826.4</ele>
        <time>2021-10-14T13:22:41Z</time>
      </trkpt>
      <trkpt lat="41.0222080" lon="-5.6712300">
        <ele>826.2</ele>
        <time>2021-10-14T13:22:45Z</time>
      </trkpt>
      <trkpt lat="41.0220740" lon="-5.6712010">
        <ele>826.2</ele>
        <time>2021-10-14T13:22:48Z</time>
      </trkpt>
      <trkpt lat="41.0219710" lon="-5.6711780">
        <ele>826.2</ele>
        <time>2021-10-14T13:22:50Z</time>
      </trkpt>
      <trkpt lat="41.0219230" lon="-5.6711760">
        <ele>826.4</ele>
        <time>2021-10-14T13:22:51Z</time>
      </trkpt>
      <trkpt lat="41.0218780" lon="-5.6711730">
        <ele>826.4</ele>
        <time>2021-10-14T13:22:52Z</time>
      </trkpt>
      <trkpt lat="41.0217850" lon="-5.6711540">
        <ele>826.4</ele>
        <time>2021-10-14T13:22:54Z</time>
      </trkpt>
      <trkpt lat="41.0216940" lon="-5.6711400">
        <ele>826.4</ele>
        <time>2021-10-14T13:22:56Z</time>
      </trkpt>
      <trkpt lat="41.0214150" lon="-5.6711280">
        <ele>826.4</ele>
        <time>2021-10-14T13:23:03Z</time>
      </trkpt>
      <trkpt lat="41.0213300" lon="-5.6711260">
        <ele>826.8</ele>
        <time>2021-10-14T13:23:06Z</time>
      </trkpt>
      <trkpt lat="41.0213060" lon="-5.6711240">
        <ele>827.0</ele>
        <time>2021-10-14T13:23:08Z</time>
      </trkpt>
      <trkpt lat="41.0213060" lon="-5.6711240">
        <ele>827.0</ele>
        <time>2021-10-14T13:23:10Z</time>
      </trkpt>
      <trkpt lat="41.0212700" lon="-5.6711020">
        <ele>827.0</ele>
        <time>2021-10-14T13:23:36Z</time>
      </trkpt>
      <trkpt lat="41.0212530" lon="-5.6710900">
        <ele>827.0</ele>
        <time>2021-10-14T13:23:37Z</time>
      </trkpt>
      <trkpt lat="41.0211680" lon="-5.6710430">
        <ele>827.0</ele>
        <time>2021-10-14T13:23:41Z</time>
      </trkpt>
      <trkpt lat="41.0211190" lon="-5.6710370">
        <ele>827.0</ele>
        <time>2021-10-14T13:23:43Z</time>
      </trkpt>
      <trkpt lat="41.0210610" lon="-5.6710330">
        <ele>827.0</ele>
        <time>2021-10-14T13:23:45Z</time>
      </trkpt>
      <trkpt lat="41.0209740" lon="-5.6710190">
        <ele>827.0</ele>
        <time>2021-10-14T13:23:48Z</time>
      </trkpt>
      <trkpt lat="41.0209450" lon="-5.6710150">
        <ele>827.0</ele>
        <time>2021-10-14T13:23:49Z</time>
      </trkpt>
      <trkpt lat="41.0207010" lon="-5.6710070">
        <ele>827.4</ele>
        <time>2021-10-14T13:23:57Z</time>
      </trkpt>
      <trkpt lat="41.0204800" lon="-5.6709730">
        <ele>827.8</ele>
        <time>2021-10-14T13:24:04Z</time>
      </trkpt>
      <trkpt lat="41.0203100" lon="-5.6709380">
        <ele>827.6</ele>
        <time>2021-10-14T13:24:09Z</time>
      </trkpt>
      <trkpt lat="41.0201530" lon="-5.6709880">
        <ele>827.6</ele>
        <time>2021-10-14T13:24:13Z</time>
      </trkpt>
      <trkpt lat="41.0200100" lon="-5.6710160">
        <ele>827.2</ele>
        <time>2021-10-14T13:24:17Z</time>
      </trkpt>
      <trkpt lat="41.0199360" lon="-5.6710360">
        <ele>827.0</ele>
        <time>2021-10-14T13:24:19Z</time>
      </trkpt>
      <trkpt lat="41.0198220" lon="-5.6710620">
        <ele>827.0</ele>
        <time>2021-10-14T13:24:22Z</time>
      </trkpt>
      <trkpt lat="41.0197150" lon="-5.6711040">
        <ele>827.0</ele>
        <time>2021-10-14T13:24:25Z</time>
      </trkpt>
      <trkpt lat="41.0195880" lon="-5.6711800">
        <ele>826.8</ele>
        <time>2021-10-14T13:24:29Z</time>
      </trkpt>
      <trkpt lat="41.0193530" lon="-5.6712100">
        <ele>826.6</ele>
        <time>2021-10-14T13:24:35Z</time>
      </trkpt>
      <trkpt lat="41.0191090" lon="-5.6712160">
        <ele>826.2</ele>
        <time>2021-10-14T13:24:41Z</time>
      </trkpt>
      <trkpt lat="41.0190270" lon="-5.6711970">
        <ele>826.0</ele>
        <time>2021-10-14T13:24:43Z</time>
      </trkpt>
      <trkpt lat="41.0189890" lon="-5.6711780">
        <ele>825.6</ele>
        <time>2021-10-14T13:24:44Z</time>
      </trkpt>
      <trkpt lat="41.0187020" lon="-5.6711170">
        <ele>825.4</ele>
        <time>2021-10-14T13:24:51Z</time>
      </trkpt>
      <trkpt lat="41.0184120" lon="-5.6711070">
        <ele>825.6</ele>
        <time>2021-10-14T13:24:58Z</time>
      </trkpt>
      <trkpt lat="41.0182960" lon="-5.6711140">
        <ele>825.6</ele>
        <time>2021-10-14T13:25:01Z</time>
      </trkpt>
      <trkpt lat="41.0179860" lon="-5.6710980">
        <ele>825.6</ele>
        <time>2021-10-14T13:25:09Z</time>
      </trkpt>
      <trkpt lat="41.0177070" lon="-5.6710360">
        <ele>825.6</ele>
        <time>2021-10-14T13:25:16Z</time>
      </trkpt>
      <trkpt lat="41.0173810" lon="-5.6709630">
        <ele>825.0</ele>
        <time>2021-10-14T13:25:25Z</time>
      </trkpt>
      <trkpt lat="41.0172560" lon="-5.6709380">
        <ele>824.6</ele>
        <time>2021-10-14T13:25:29Z</time>
      </trkpt>
      <trkpt lat="41.0171910" lon="-5.6709270">
        <ele>824.6</ele>
        <time>2021-10-14T13:25:31Z</time>
      </trkpt>
      <trkpt lat="41.0170530" lon="-5.6709070">
        <ele>824.6</ele>
        <time>2021-10-14T13:25:35Z</time>
      </trkpt>
      <trkpt lat="41.0169130" lon="-5.6708660">
        <ele>824.6</ele>
        <time>2021-10-14T13:25:39Z</time>
      </trkpt>
      <trkpt lat="41.0167910" lon="-5.6708330">
        <ele>824.4</ele>
        <time>2021-10-14T13:25:43Z</time>
      </trkpt>
      <trkpt lat="41.0167700" lon="-5.6708300">
        <ele>824.4</ele>
        <time>2021-10-14T13:25:44Z</time>
      </trkpt>
      <trkpt lat="41.0167510" lon="-5.6708280">
        <ele>824.4</ele>
        <time>2021-10-14T13:25:47Z</time>
      </trkpt>
      <trkpt lat="41.0167260" lon="-5.6707980">
        <ele>824.4</ele>
        <time>2021-10-14T13:27:06Z</time>
      </trkpt>
      <trkpt lat="41.0167040" lon="-5.6707850">
        <ele>824.4</ele>
        <time>2021-10-14T13:27:07Z</time>
      </trkpt>
      <trkpt lat="41.0166000" lon="-5.6707470">
        <ele>824.4</ele>
        <time>2021-10-14T13:27:11Z</time>
      </trkpt>
      <trkpt lat="41.0165110" lon="-5.6707190">
        <ele>824.4</ele>
        <time>2021-10-14T13:27:14Z</time>
      </trkpt>
      <trkpt lat="41.0164060" lon="-5.6707050">
        <ele>824.4</ele>
        <time>2021-10-14T13:27:17Z</time>
      </trkpt>
      <trkpt lat="41.0161910" lon="-5.6706570">
        <ele>824.4</ele>
        <time>2021-10-14T13:27:23Z</time>
      </trkpt>
      <trkpt lat="41.0161200" lon="-5.6706430">
        <ele>824.4</ele>
        <time>2021-10-14T13:27:25Z</time>
      </trkpt>
      <trkpt lat="41.0160140" lon="-5.6706210">
        <ele>824.4</ele>
        <time>2021-10-14T13:27:28Z</time>
      </trkpt>
      <trkpt lat="41.0156840" lon="-5.6705480">
        <ele>824.2</ele>
        <time>2021-10-14T13:27:36Z</time>
      </trkpt>
      <trkpt lat="41.0154630" lon="-5.6705320">
        <ele>823.6</ele>
        <time>2021-10-14T13:27:40Z</time>
      </trkpt>
      <trkpt lat="41.0152310" lon="-5.6705160">
        <ele>822.6</ele>
        <time>2021-10-14T13:27:44Z</time>
      </trkpt>
      <trkpt lat="41.0150530" lon="-5.6704990">
        <ele>821.8</ele>
        <time>2021-10-14T13:27:47Z</time>
      </trkpt>
      <trkpt lat="41.0149930" lon="-5.6704930">
        <ele>821.2</ele>
        <time>2021-10-14T13:27:48Z</time>
      </trkpt>
      <trkpt lat="41.0146910" lon="-5.6704530">
        <ele>820.2</ele>
        <time>2021-10-14T13:27:53Z</time>
      </trkpt>
      <trkpt lat="41.0145700" lon="-5.6704330">
        <ele>820.0</ele>
        <time>2021-10-14T13:27:55Z</time>
      </trkpt>
      <trkpt lat="41.0140930" lon="-5.6703400">
        <ele>819.2</ele>
        <time>2021-10-14T13:28:03Z</time>
      </trkpt>
      <trkpt lat="41.0139230" lon="-5.6703010">
        <ele>818.8</ele>
        <time>2021-10-14T13:28:06Z</time>
      </trkpt>
      <trkpt lat="41.0137070" lon="-5.6702470">
        <ele>818.0</ele>
        <time>2021-10-14T13:28:10Z</time>
      </trkpt>
      <trkpt lat="41.0135020" lon="-5.6701930">
        <ele>817.6</ele>
        <time>2021-10-14T13:28:14Z</time>
      </trkpt>
      <trkpt lat="41.0132550" lon="-5.6701270">
        <ele>817.4</ele>
        <time>2021-10-14T13:28:19Z</time>
      </trkpt>
      <trkpt lat="41.0131300" lon="-5.6700800">
        <ele>817.4</ele>
        <time>2021-10-14T13:28:22Z</time>
      </trkpt>
      <trkpt lat="41.0129280" lon="-5.6700310">
        <ele>817.0</ele>
        <time>2021-10-14T13:28:26Z</time>
      </trkpt>
      <trkpt lat="41.0128770" lon="-5.6700190">
        <ele>816.8</ele>
        <time>2021-10-14T13:28:27Z</time>
      </trkpt>
      <trkpt lat="41.0126830" lon="-5.6699810">
        <ele>816.6</ele>
        <time>2021-10-14T13:28:31Z</time>
      </trkpt>
      <trkpt lat="41.0124840" lon="-5.6699370">
        <ele>816.6</ele>
        <time>2021-10-14T13:28:35Z</time>
      </trkpt>
      <trkpt lat="41.0123420" lon="-5.6699150">
        <ele>816.6</ele>
        <time>2021-10-14T13:28:38Z</time>
      </trkpt>
      <trkpt lat="41.0122500" lon="-5.6698980">
        <ele>816.6</ele>
        <time>2021-10-14T13:28:40Z</time>
      </trkpt>
      <trkpt lat="41.0120790" lon="-5.6698770">
        <ele>816.6</ele>
        <time>2021-10-14T13:28:44Z</time>
      </trkpt>
      <trkpt lat="41.0118630" lon="-5.6698440">
        <ele>816.8</ele>
        <time>2021-10-14T13:28:49Z</time>
      </trkpt>
      <trkpt lat="41.0116060" lon="-5.6697850">
        <ele>816.8</ele>
        <time>2021-10-14T13:28:55Z</time>
      </trkpt>
      <trkpt lat="41.0114580" lon="-5.6697470">
        <ele>817.0</ele>
        <time>2021-10-14T13:28:59Z</time>
      </trkpt>
      <trkpt lat="41.0112970" lon="-5.6697120">
        <ele>818.0</ele>
        <time>2021-10-14T13:29:04Z</time>
      </trkpt>
      <trkpt lat="41.0112680" lon="-5.6697030">
        <ele>818.2</ele>
        <time>2021-10-14T13:29:05Z</time>
      </trkpt>
      <trkpt lat="41.0112090" lon="-5.6696890">
        <ele>818.8</ele>
        <time>2021-10-14T13:29:07Z</time>
      </trkpt>
      <trkpt lat="41.0111760" lon="-5.6696800">
        <ele>819.4</ele>
        <time>2021-10-14T13:29:08Z</time>
      </trkpt>
      <trkpt lat="41.0110850" lon="-5.6696520">
        <ele>820.2</ele>
        <time>2021-10-14T13:29:11Z</time>
      </trkpt>
      <trkpt lat="41.0110280" lon="-5.6696320">
        <ele>820.4</ele>
        <time>2021-10-14T13:29:13Z</time>
      </trkpt>
      <trkpt lat="41.0108600" lon="-5.6695780">
        <ele>821.0</ele>
        <time>2021-10-14T13:29:19Z</time>
      </trkpt>
      <trkpt lat="41.0107710" lon="-5.6695520">
        <ele>821.2</ele>
        <time>2021-10-14T13:29:22Z</time>
      </trkpt>
      <trkpt lat="41.0107170" lon="-5.6695240">
        <ele>821.4</ele>
        <time>2021-10-14T13:29:24Z</time>
      </trkpt>
      <trkpt lat="41.0106270" lon="-5.6694850">
        <ele>821.4</ele>
        <time>2021-10-14T13:29:27Z</time>
      </trkpt>
      <trkpt lat="41.0105630" lon="-5.6694540">
        <ele>821.4</ele>
        <time>2021-10-14T13:29:29Z</time>
      </trkpt>
      <trkpt lat="41.0104980" lon="-5.6694270">
        <ele>821.6</ele>
        <time>2021-10-14T13:29:31Z</time>
      </trkpt>
      <trkpt lat="41.0104380" lon="-5.6694020">
        <ele>821.6</ele>
        <time>2021-10-14T13:29:33Z</time>
      </trkpt>
      <trkpt lat="41.0103850" lon="-5.6693780">
        <ele>821.6</ele>
        <time>2021-10-14T13:29:35Z</time>
      </trkpt>
      <trkpt lat="41.0103570" lon="-5.6693680">
        <ele>821.6</ele>
        <time>2021-10-14T13:29:36Z</time>
      </trkpt>
      <trkpt lat="41.0100680" lon="-5.6692800">
        <ele>821.8</ele>
        <time>2021-10-14T13:29:45Z</time>
      </trkpt>
      <trkpt lat="41.0097910" lon="-5.6691960">
        <ele>821.6</ele>
        <time>2021-10-14T13:29:53Z</time>
      </trkpt>
      <trkpt lat="41.0095570" lon="-5.6691140">
        <ele>821.6</ele>
        <time>2021-10-14T13:30:00Z</time>
      </trkpt>
      <trkpt lat="41.0094590" lon="-5.6690830">
        <ele>821.6</ele>
        <time>2021-10-14T13:30:03Z</time>
      </trkpt>
      <trkpt lat="41.0092090" lon="-5.6689910">
        <ele>821.6</ele>
        <time>2021-10-14T13:30:11Z</time>
      </trkpt>
      <trkpt lat="41.0091790" lon="-5.6689810">
        <ele>821.6</ele>
        <time>2021-10-14T13:30:12Z</time>
      </trkpt>
      <trkpt lat="41.0090370" lon="-5.6689270">
        <ele>822.0</ele>
        <time>2021-10-14T13:30:17Z</time>
      </trkpt>
      <trkpt lat="41.0089460" lon="-5.6688950">
        <ele>822.2</ele>
        <time>2021-10-14T13:30:20Z</time>
      </trkpt>
      <trkpt lat="41.0089150" lon="-5.6688860">
        <ele>822.2</ele>
        <time>2021-10-14T13:30:21Z</time>
      </trkpt>
      <trkpt lat="41.0087840" lon="-5.6688530">
        <ele>822.4</ele>
        <time>2021-10-14T13:30:26Z</time>
      </trkpt>
      <trkpt lat="41.0087060" lon="-5.6688220">
        <ele>822.4</ele>
        <time>2021-10-14T13:30:29Z</time>
      </trkpt>
      <trkpt lat="41.0085940" lon="-5.6687900">
        <ele>822.4</ele>
        <time>2021-10-14T13:30:33Z</time>
      </trkpt>
      <trkpt lat="41.0084310" lon="-5.6687190">
        <ele>822.4</ele>
        <time>2021-10-14T13:30:38Z</time>
      </trkpt>
      <trkpt lat="41.0083240" lon="-5.6686610">
        <ele>822.0</ele>
        <time>2021-10-14T13:30:41Z</time>
      </trkpt>
      <trkpt lat="41.0082890" lon="-5.6686410">
        <ele>821.6</ele>
        <time>2021-10-14T13:30:42Z</time>
      </trkpt>
      <trkpt lat="41.0081470" lon="-5.6685590">
        <ele>820.4</ele>
        <time>2021-10-14T13:30:46Z</time>
      </trkpt>
      <trkpt lat="41.0080200" lon="-5.6684540">
        <ele>819.2</ele>
        <time>2021-10-14T13:30:50Z</time>
      </trkpt>
      <trkpt lat="41.0079900" lon="-5.6684420">
        <ele>819.0</ele>
        <time>2021-10-14T13:30:51Z</time>
      </trkpt>
      <trkpt lat="41.0078890" lon="-5.6684080">
        <ele>818.4</ele>
        <time>2021-10-14T13:30:56Z</time>
      </trkpt>
      <trkpt lat="41.0078760" lon="-5.6684040">
        <ele>818.4</ele>
        <time>2021-10-14T13:30:59Z</time>
      </trkpt>
      <trkpt lat="41.0078760" lon="-5.6684040">
        <ele>818.4</ele>
        <time>2021-10-14T13:31:00Z</time>
      </trkpt>
      <trkpt lat="41.0078080" lon="-5.6683810">
        <ele>818.8</ele>
        <time>2021-10-14T13:31:53Z</time>
      </trkpt>
      <trkpt lat="41.0076890" lon="-5.6683540">
        <ele>818.6</ele>
        <time>2021-10-14T13:31:57Z</time>
      </trkpt>
      <trkpt lat="41.0075830" lon="-5.6683360">
        <ele>818.6</ele>
        <time>2021-10-14T13:32:00Z</time>
      </trkpt>
      <trkpt lat="41.0073880" lon="-5.6683020">
        <ele>818.4</ele>
        <time>2021-10-14T13:32:05Z</time>
      </trkpt>
      <trkpt lat="41.0073490" lon="-5.6682970">
        <ele>818.2</ele>
        <time>2021-10-14T13:32:06Z</time>
      </trkpt>
      <trkpt lat="41.0070030" lon="-5.6682360">
        <ele>818.0</ele>
        <time>2021-10-14T13:32:15Z</time>
      </trkpt>
      <trkpt lat="41.0066920" lon="-5.6681840">
        <ele>817.8</ele>
        <time>2021-10-14T13:32:24Z</time>
      </trkpt>
      <trkpt lat="41.0066610" lon="-5.6681780">
        <ele>817.8</ele>
        <time>2021-10-14T13:32:25Z</time>
      </trkpt>
      <trkpt lat="41.0063830" lon="-5.6681280">
        <ele>818.0</ele>
        <time>2021-10-14T13:32:35Z</time>
      </trkpt>
      <trkpt lat="41.0062530" lon="-5.6681110">
        <ele>818.2</ele>
        <time>2021-10-14T13:32:42Z</time>
      </trkpt>
      <trkpt lat="41.0062480" lon="-5.6681110">
        <ele>818.2</ele>
        <time>2021-10-14T13:32:45Z</time>
      </trkpt>
      <trkpt lat="41.0061920" lon="-5.6680980">
        <ele>818.6</ele>
        <time>2021-10-14T13:34:03Z</time>
      </trkpt>
      <trkpt lat="41.0061660" lon="-5.6680910">
        <ele>818.6</ele>
        <time>2021-10-14T13:34:04Z</time>
      </trkpt>
      <trkpt lat="41.0060270" lon="-5.6680650">
        <ele>818.8</ele>
        <time>2021-10-14T13:34:08Z</time>
      </trkpt>
      <trkpt lat="41.0059180" lon="-5.6680470">
        <ele>818.8</ele>
        <time>2021-10-14T13:34:11Z</time>
      </trkpt>
      <trkpt lat="41.0057610" lon="-5.6680200">
        <ele>818.6</ele>
        <time>2021-10-14T13:34:15Z</time>
      </trkpt>
      <trkpt lat="41.0054010" lon="-5.6679620">
        <ele>818.8</ele>
        <time>2021-10-14T13:34:24Z</time>
      </trkpt>
      <trkpt lat="41.0053590" lon="-5.6679540">
        <ele>819.0</ele>
        <time>2021-10-14T13:34:25Z</time>
      </trkpt>
      <trkpt lat="41.0052330" lon="-5.6679310">
        <ele>819.0</ele>
        <time>2021-10-14T13:34:28Z</time>
      </trkpt>
      <trkpt lat="41.0050580" lon="-5.6678980">
        <ele>819.2</ele>
        <time>2021-10-14T13:34:32Z</time>
      </trkpt>
      <trkpt lat="41.0050140" lon="-5.6678920">
        <ele>819.2</ele>
        <time>2021-10-14T13:34:33Z</time>
      </trkpt>
      <trkpt lat="41.0045840" lon="-5.6678160">
        <ele>819.8</ele>
        <time>2021-10-14T13:34:43Z</time>
      </trkpt>
      <trkpt lat="41.0045430" lon="-5.6678080">
        <ele>819.8</ele>
        <time>2021-10-14T13:34:44Z</time>
      </trkpt>
      <trkpt lat="41.0044580" lon="-5.6677950">
        <ele>819.8</ele>
        <time>2021-10-14T13:34:46Z</time>
      </trkpt>
      <trkpt lat="41.0043660" lon="-5.6677810">
        <ele>820.0</ele>
        <time>2021-10-14T13:34:48Z</time>
      </trkpt>
      <trkpt lat="41.0042480" lon="-5.6677600">
        <ele>820.0</ele>
        <time>2021-10-14T13:34:51Z</time>
      </trkpt>
      <trkpt lat="41.0040810" lon="-5.6677250">
        <ele>820.2</ele>
        <time>2021-10-14T13:34:55Z</time>
      </trkpt>
      <trkpt lat="41.0039490" lon="-5.6676990">
        <ele>820.2</ele>
        <time>2021-10-14T13:34:58Z</time>
      </trkpt>
      <trkpt lat="41.0038190" lon="-5.6676730">
        <ele>820.6</ele>
        <time>2021-10-14T13:35:01Z</time>
      </trkpt>
      <trkpt lat="41.0037340" lon="-5.6676670">
        <ele>820.6</ele>
        <time>2021-10-14T13:35:03Z</time>
      </trkpt>
      <trkpt lat="41.0036900" lon="-5.6676610">
        <ele>820.8</ele>
        <time>2021-10-14T13:35:04Z</time>
      </trkpt>
      <trkpt lat="41.0036460" lon="-5.6676530">
        <ele>820.8</ele>
        <time>2021-10-14T13:35:05Z</time>
      </trkpt>
      <trkpt lat="41.0035170" lon="-5.6676250">
        <ele>821.0</ele>
        <time>2021-10-14T13:35:08Z</time>
      </trkpt>
      <trkpt lat="41.0033950" lon="-5.6676000">
        <ele>821.2</ele>
        <time>2021-10-14T13:35:11Z</time>
      </trkpt>
      <trkpt lat="41.0033590" lon="-5.6675930">
        <ele>821.2</ele>
        <time>2021-10-14T13:35:12Z</time>
      </trkpt>
      <trkpt lat="41.0032540" lon="-5.6675740">
        <ele>821.4</ele>
        <time>2021-10-14T13:35:15Z</time>
      </trkpt>
      <trkpt lat="41.0031940" lon="-5.6675660">
        <ele>821.6</ele>
        <time>2021-10-14T13:35:17Z</time>
      </trkpt>
      <trkpt lat="41.0030820" lon="-5.6675490">
        <ele>821.8</ele>
        <time>2021-10-14T13:35:21Z</time>
      </trkpt>
      <trkpt lat="41.0029480" lon="-5.6675290">
        <ele>822.2</ele>
        <time>2021-10-14T13:35:25Z</time>
      </trkpt>
      <trkpt lat="41.0028000" lon="-5.6674990">
        <ele>822.2</ele>
        <time>2021-10-14T13:35:29Z</time>
      </trkpt>
      <trkpt lat="41.0026860" lon="-5.6674850">
        <ele>822.2</ele>
        <time>2021-10-14T13:35:32Z</time>
      </trkpt>
      <trkpt lat="41.0024640" lon="-5.6675190">
        <ele>822.2</ele>
        <time>2021-10-14T13:35:38Z</time>
      </trkpt>
      <trkpt lat="41.0023300" lon="-5.6676130">
        <ele>822.4</ele>
        <time>2021-10-14T13:35:43Z</time>
      </trkpt>
      <trkpt lat="41.0022300" lon="-5.6676510">
        <ele>822.6</ele>
        <time>2021-10-14T13:35:46Z</time>
      </trkpt>
      <trkpt lat="41.0021150" lon="-5.6676320">
        <ele>823.0</ele>
        <time>2021-10-14T13:35:49Z</time>
      </trkpt>
      <trkpt lat="41.0020070" lon="-5.6675410">
        <ele>823.0</ele>
        <time>2021-10-14T13:35:52Z</time>
      </trkpt>
      <trkpt lat="41.0019470" lon="-5.6674630">
        <ele>823.0</ele>
        <time>2021-10-14T13:35:54Z</time>
      </trkpt>
      <trkpt lat="41.0018810" lon="-5.6674010">
        <ele>823.0</ele>
        <time>2021-10-14T13:35:56Z</time>
      </trkpt>
      <trkpt lat="41.0018100" lon="-5.6673530">
        <ele>823.0</ele>
        <time>2021-10-14T13:35:58Z</time>
      </trkpt>
      <trkpt lat="41.0017720" lon="-5.6673370">
        <ele>823.0</ele>
        <time>2021-10-14T13:35:59Z</time>
      </trkpt>
      <trkpt lat="41.0017340" lon="-5.6673220">
        <ele>823.0</ele>
        <time>2021-10-14T13:36:00Z</time>
      </trkpt>
      <trkpt lat="41.0015080" lon="-5.6672760">
        <ele>823.6</ele>
        <time>2021-10-14T13:36:06Z</time>
      </trkpt>
      <trkpt lat="41.0011680" lon="-5.6672150">
        <ele>824.2</ele>
        <time>2021-10-14T13:36:15Z</time>
      </trkpt>
      <trkpt lat="41.0011290" lon="-5.6672090">
        <ele>824.2</ele>
        <time>2021-10-14T13:36:16Z</time>
      </trkpt>
      <trkpt lat="41.0008840" lon="-5.6671490">
        <ele>824.6</ele>
        <time>2021-10-14T13:36:22Z</time>
      </trkpt>
      <trkpt lat="41.0006350" lon="-5.6670920">
        <ele>824.6</ele>
        <time>2021-10-14T13:36:28Z</time>
      </trkpt>
      <trkpt lat="41.0004610" lon="-5.6670460">
        <ele>824.6</ele>
        <time>2021-10-14T13:36:32Z</time>
      </trkpt>
      <trkpt lat="41.0003650" lon="-5.6670250">
        <ele>824.6</ele>
        <time>2021-10-14T13:36:34Z</time>
      </trkpt>
      <trkpt lat="41.0000330" lon="-5.6669600">
        <ele>824.0</ele>
        <time>2021-10-14T13:36:41Z</time>
      </trkpt>
      <trkpt lat="40.9997650" lon="-5.6669260">
        <ele>823.8</ele>
        <time>2021-10-14T13:36:46Z</time>
      </trkpt>
      <trkpt lat="40.9996110" lon="-5.6669190">
        <ele>823.6</ele>
        <time>2021-10-14T13:36:49Z</time>
      </trkpt>
      <trkpt lat="40.9994380" lon="-5.6669500">
        <ele>823.0</ele>
        <time>2021-10-14T13:36:52Z</time>
      </trkpt>
      <trkpt lat="40.9993230" lon="-5.6670000">
        <ele>822.4</ele>
        <time>2021-10-14T13:36:54Z</time>
      </trkpt>
      <trkpt lat="40.9992070" lon="-5.6670690">
        <ele>822.0</ele>
        <time>2021-10-14T13:36:56Z</time>
      </trkpt>
      <trkpt lat="40.9989750" lon="-5.6672750">
        <ele>821.6</ele>
        <time>2021-10-14T13:37:00Z</time>
      </trkpt>
      <trkpt lat="40.9988880" lon="-5.6673730">
        <ele>821.4</ele>
        <time>2021-10-14T13:37:02Z</time>
      </trkpt>
      <trkpt lat="40.9987820" lon="-5.6674590">
        <ele>821.2</ele>
        <time>2021-10-14T13:37:04Z</time>
      </trkpt>
      <trkpt lat="40.9987260" lon="-5.6674860">
        <ele>821.2</ele>
        <time>2021-10-14T13:37:05Z</time>
      </trkpt>
      <trkpt lat="40.9986670" lon="-5.6675010">
        <ele>821.0</ele>
        <time>2021-10-14T13:37:06Z</time>
      </trkpt>
      <trkpt lat="40.9986080" lon="-5.6675060">
        <ele>821.0</ele>
        <time>2021-10-14T13:37:07Z</time>
      </trkpt>
      <trkpt lat="40.9984880" lon="-5.6675000">
        <ele>820.8</ele>
        <time>2021-10-14T13:37:09Z</time>
      </trkpt>
      <trkpt lat="40.9982520" lon="-5.6674160">
        <ele>820.4</ele>
        <time>2021-10-14T13:37:12Z</time>
      </trkpt>
      <trkpt lat="40.9982280" lon="-5.6673980">
        <ele>820.4</ele>
        <time>2021-10-14T13:37:13Z</time>
      </trkpt>
      <trkpt lat="40.9982030" lon="-5.6673800">
        <ele>820.4</ele>
        <time>2021-10-14T13:37:14Z</time>
      </trkpt>
      <trkpt lat="40.9981400" lon="-5.6672250">
        <ele>820.4</ele>
        <time>2021-10-14T13:37:16Z</time>
      </trkpt>
      <trkpt lat="40.9981140" lon="-5.6671550">
        <ele>820.4</ele>
        <time>2021-10-14T13:37:17Z</time>
      </trkpt>
      <trkpt lat="40.9980190" lon="-5.6668610">
        <ele>820.6</ele>
        <time>2021-10-14T13:37:21Z</time>
      </trkpt>
      <trkpt lat="40.9979880" lon="-5.6667950">
        <ele>820.6</ele>
        <time>2021-10-14T13:37:22Z</time>
      </trkpt>
      <trkpt lat="40.9978550" lon="-5.6666730">
        <ele>820.6</ele>
        <time>2021-10-14T13:37:24Z</time>
      </trkpt>
      <trkpt lat="40.9977170" lon="-5.6666340">
        <ele>820.6</ele>
        <time>2021-10-14T13:37:27Z</time>
      </trkpt>
      <trkpt lat="40.9977170" lon="-5.6666340">
        <ele>820.6</ele>
        <time>2021-10-14T13:37:28Z</time>
      </trkpt>
      <trkpt lat="40.9976310" lon="-5.6666130">
        <ele>820.6</ele>
        <time>2021-10-14T13:37:30Z</time>
      </trkpt>
      <trkpt lat="40.9974540" lon="-5.6666180">
        <ele>820.8</ele>
        <time>2021-10-14T13:37:33Z</time>
      </trkpt>
      <trkpt lat="40.9973640" lon="-5.6666020">
        <ele>821.0</ele>
        <time>2021-10-14T13:37:35Z</time>
      </trkpt>
      <trkpt lat="40.9972240" lon="-5.6665770">
        <ele>821.4</ele>
        <time>2021-10-14T13:37:38Z</time>
      </trkpt>
      <trkpt lat="40.9969930" lon="-5.6665160">
        <ele>821.6</ele>
        <time>2021-10-14T13:37:43Z</time>
      </trkpt>
      <trkpt lat="40.9969190" lon="-5.6664920">
        <ele>821.8</ele>
        <time>2021-10-14T13:37:45Z</time>
      </trkpt>
      <trkpt lat="40.9967410" lon="-5.6664790">
        <ele>822.0</ele>
        <time>2021-10-14T13:37:51Z</time>
      </trkpt>
      <trkpt lat="40.9966670" lon="-5.6664890">
        <ele>822.0</ele>
        <time>2021-10-14T13:37:53Z</time>
      </trkpt>
      <trkpt lat="40.9965440" lon="-5.6664530">
        <ele>822.2</ele>
        <time>2021-10-14T13:37:56Z</time>
      </trkpt>
      <trkpt lat="40.9964380" lon="-5.6664020">
        <ele>822.4</ele>
        <time>2021-10-14T13:37:59Z</time>
      </trkpt>
      <trkpt lat="40.9963170" lon="-5.6663890">
        <ele>822.4</ele>
        <time>2021-10-14T13:38:02Z</time>
      </trkpt>
      <trkpt lat="40.9960640" lon="-5.6663740">
        <ele>823.0</ele>
        <time>2021-10-14T13:38:08Z</time>
      </trkpt>
      <trkpt lat="40.9960310" lon="-5.6663690">
        <ele>823.0</ele>
        <time>2021-10-14T13:38:09Z</time>
      </trkpt>
      <trkpt lat="40.9959970" lon="-5.6663650">
        <ele>823.2</ele>
        <time>2021-10-14T13:38:10Z</time>
      </trkpt>
      <trkpt lat="40.9959220" lon="-5.6663700">
        <ele>823.4</ele>
        <time>2021-10-14T13:38:12Z</time>
      </trkpt>
      <trkpt lat="40.9957640" lon="-5.6663390">
        <ele>823.6</ele>
        <time>2021-10-14T13:38:16Z</time>
      </trkpt>
      <trkpt lat="40.9955790" lon="-5.6663100">
        <ele>824.2</ele>
        <time>2021-10-14T13:38:21Z</time>
      </trkpt>
      <trkpt lat="40.9955420" lon="-5.6663020">
        <ele>824.2</ele>
        <time>2021-10-14T13:38:22Z</time>
      </trkpt>
      <trkpt lat="40.9952710" lon="-5.6662550">
        <ele>824.8</ele>
        <time>2021-10-14T13:38:29Z</time>
      </trkpt>
      <trkpt lat="40.9950600" lon="-5.6662230">
        <ele>825.2</ele>
        <time>2021-10-14T13:38:36Z</time>
      </trkpt>
      <trkpt lat="40.9949190" lon="-5.6662030">
        <ele>825.6</ele>
        <time>2021-10-14T13:38:39Z</time>
      </trkpt>
      <trkpt lat="40.9948500" lon="-5.6661910">
        <ele>825.8</ele>
        <time>2021-10-14T13:38:41Z</time>
      </trkpt>
      <trkpt lat="40.9946020" lon="-5.6661460">
        <ele>826.4</ele>
        <time>2021-10-14T13:38:48Z</time>
      </trkpt>
      <trkpt lat="40.9945290" lon="-5.6661350">
        <ele>826.4</ele>
        <time>2021-10-14T13:38:50Z</time>
      </trkpt>
      <trkpt lat="40.9942470" lon="-5.6660840">
        <ele>827.2</ele>
        <time>2021-10-14T13:38:58Z</time>
      </trkpt>
      <trkpt lat="40.9942120" lon="-5.6660800">
        <ele>827.4</ele>
        <time>2021-10-14T13:38:59Z</time>
      </trkpt>
      <trkpt lat="40.9941130" lon="-5.6660660">
        <ele>827.8</ele>
        <time>2021-10-14T13:39:02Z</time>
      </trkpt>
      <trkpt lat="40.9940830" lon="-5.6660620">
        <ele>827.8</ele>
        <time>2021-10-14T13:39:03Z</time>
      </trkpt>
      <trkpt lat="40.9940230" lon="-5.6660550">
        <ele>828.2</ele>
        <time>2021-10-14T13:39:05Z</time>
      </trkpt>
      <trkpt lat="40.9938940" lon="-5.6660280">
        <ele>828.4</ele>
        <time>2021-10-14T13:39:09Z</time>
      </trkpt>
      <trkpt lat="40.9938340" lon="-5.6660190">
        <ele>828.6</ele>
        <time>2021-10-14T13:39:11Z</time>
      </trkpt>
      <trkpt lat="40.9936700" lon="-5.6660200">
        <ele>828.8</ele>
        <time>2021-10-14T13:39:16Z</time>
      </trkpt>
      <trkpt lat="40.9936390" lon="-5.6660160">
        <ele>828.8</ele>
        <time>2021-10-14T13:39:17Z</time>
      </trkpt>
      <trkpt lat="40.9934720" lon="-5.6659330">
        <ele>829.2</ele>
        <time>2021-10-14T13:39:23Z</time>
      </trkpt>
      <trkpt lat="40.9933230" lon="-5.6658910">
        <ele>829.4</ele>
        <time>2021-10-14T13:39:28Z</time>
      </trkpt>
      <trkpt lat="40.9932900" lon="-5.6658860">
        <ele>829.6</ele>
        <time>2021-10-14T13:39:29Z</time>
      </trkpt>
      <trkpt lat="40.9930890" lon="-5.6658430">
        <ele>829.8</ele>
        <time>2021-10-14T13:39:36Z</time>
      </trkpt>
      <trkpt lat="40.9927750" lon="-5.6658410">
        <ele>830.4</ele>
        <time>2021-10-14T13:39:45Z</time>
      </trkpt>
      <trkpt lat="40.9927750" lon="-5.6658410">
        <ele>830.6</ele>
        <time>2021-10-14T13:39:46Z</time>
      </trkpt>
      <trkpt lat="40.9925500" lon="-5.6659030">
        <ele>831.2</ele>
        <time>2021-10-14T13:39:52Z</time>
      </trkpt>
      <trkpt lat="40.9924550" lon="-5.6658430">
        <ele>831.4</ele>
        <time>2021-10-14T13:39:55Z</time>
      </trkpt>
      <trkpt lat="40.9924300" lon="-5.6658120">
        <ele>831.4</ele>
        <time>2021-10-14T13:39:56Z</time>
      </trkpt>
      <trkpt lat="40.9922430" lon="-5.6656690">
        <ele>831.6</ele>
        <time>2021-10-14T13:40:02Z</time>
      </trkpt>
      <trkpt lat="40.9922090" lon="-5.6656580">
        <ele>831.6</ele>
        <time>2021-10-14T13:40:03Z</time>
      </trkpt>
      <trkpt lat="40.9921080" lon="-5.6656320">
        <ele>831.8</ele>
        <time>2021-10-14T13:40:06Z</time>
      </trkpt>
      <trkpt lat="40.9919440" lon="-5.6656060">
        <ele>832.0</ele>
        <time>2021-10-14T13:40:11Z</time>
      </trkpt>
      <trkpt lat="40.9916400" lon="-5.6655520">
        <ele>832.6</ele>
        <time>2021-10-14T13:40:21Z</time>
      </trkpt>
      <trkpt lat="40.9916400" lon="-5.6655520">
        <ele>832.6</ele>
        <time>2021-10-14T13:40:22Z</time>
      </trkpt>
      <trkpt lat="40.9913120" lon="-5.6654930">
        <ele>833.2</ele>
        <time>2021-10-14T13:40:32Z</time>
      </trkpt>
      <trkpt lat="40.9912320" lon="-5.6654760">
        <ele>833.4</ele>
        <time>2021-10-14T13:40:35Z</time>
      </trkpt>
      <trkpt lat="40.9911780" lon="-5.6654660">
        <ele>833.6</ele>
        <time>2021-10-14T13:40:37Z</time>
      </trkpt>
      <trkpt lat="40.9910720" lon="-5.6654520">
        <ele>834.0</ele>
        <time>2021-10-14T13:40:41Z</time>
      </trkpt>
      <trkpt lat="40.9908450" lon="-5.6654160">
        <ele>834.4</ele>
        <time>2021-10-14T13:40:50Z</time>
      </trkpt>
      <trkpt lat="40.9907700" lon="-5.6654040">
        <ele>834.6</ele>
        <time>2021-10-14T13:40:53Z</time>
      </trkpt>
      <trkpt lat="40.9907460" lon="-5.6654010">
        <ele>834.6</ele>
        <time>2021-10-14T13:40:54Z</time>
      </trkpt>
      <trkpt lat="40.9906750" lon="-5.6653880">
        <ele>834.8</ele>
        <time>2021-10-14T13:40:57Z</time>
      </trkpt>
      <trkpt lat="40.9906240" lon="-5.6653790">
        <ele>835.0</ele>
        <time>2021-10-14T13:40:59Z</time>
      </trkpt>
      <trkpt lat="40.9904630" lon="-5.6653480">
        <ele>835.8</ele>
        <time>2021-10-14T13:41:05Z</time>
      </trkpt>
      <trkpt lat="40.9903400" lon="-5.6653230">
        <ele>836.2</ele>
        <time>2021-10-14T13:41:10Z</time>
      </trkpt>
      <trkpt lat="40.9901920" lon="-5.6652990">
        <ele>836.4</ele>
        <time>2021-10-14T13:41:16Z</time>
      </trkpt>
      <trkpt lat="40.9901600" lon="-5.6652930">
        <ele>836.4</ele>
        <time>2021-10-14T13:41:18Z</time>
      </trkpt>
      <trkpt lat="40.9901550" lon="-5.6652940">
        <ele>836.4</ele>
        <time>2021-10-14T13:41:19Z</time>
      </trkpt>
      <trkpt lat="40.9901550" lon="-5.6652940">
        <ele>836.4</ele>
        <time>2021-10-14T13:41:20Z</time>
      </trkpt>
      <trkpt lat="40.9901460" lon="-5.6652580">
        <ele>837.0</ele>
        <time>2021-10-14T13:42:32Z</time>
      </trkpt>
      <trkpt lat="40.9901140" lon="-5.6652020">
        <ele>837.0</ele>
        <time>2021-10-14T13:42:34Z</time>
      </trkpt>
      <trkpt lat="40.9900290" lon="-5.6651000">
        <ele>837.0</ele>
        <time>2021-10-14T13:42:39Z</time>
      </trkpt>
      <trkpt lat="40.9900060" lon="-5.6650760">
        <ele>837.0</ele>
        <time>2021-10-14T13:42:44Z</time>
      </trkpt>
      <trkpt lat="40.9900020" lon="-5.6650750">
        <ele>837.2</ele>
        <time>2021-10-14T13:42:49Z</time>
      </trkpt>
      <trkpt lat="40.9899830" lon="-5.6650630">
        <ele>837.4</ele>
        <time>2021-10-14T13:42:51Z</time>
      </trkpt>
      <trkpt lat="40.9899200" lon="-5.6650470">
        <ele>837.6</ele>
        <time>2021-10-14T13:42:54Z</time>
      </trkpt>
      <trkpt lat="40.9897510" lon="-5.6650250">
        <ele>838.0</ele>
        <time>2021-10-14T13:43:00Z</time>
      </trkpt>
      <trkpt lat="40.9897150" lon="-5.6650210">
        <ele>838.0</ele>
        <time>2021-10-14T13:43:01Z</time>
      </trkpt>
      <trkpt lat="40.9895700" lon="-5.6649940">
        <ele>838.6</ele>
        <time>2021-10-14T13:43:06Z</time>
      </trkpt>
      <trkpt lat="40.9895150" lon="-5.6649850">
        <ele>838.8</ele>
        <time>2021-10-14T13:43:08Z</time>
      </trkpt>
      <trkpt lat="40.9894520" lon="-5.6649760">
        <ele>839.0</ele>
        <time>2021-10-14T13:43:10Z</time>
      </trkpt>
      <trkpt lat="40.9893900" lon="-5.6649650">
        <ele>839.4</ele>
        <time>2021-10-14T13:43:12Z</time>
      </trkpt>
      <trkpt lat="40.9892970" lon="-5.6649490">
        <ele>839.8</ele>
        <time>2021-10-14T13:43:15Z</time>
      </trkpt>
      <trkpt lat="40.9891890" lon="-5.6649290">
        <ele>840.2</ele>
        <time>2021-10-14T13:43:19Z</time>
      </trkpt>
      <trkpt lat="40.9891350" lon="-5.6649210">
        <ele>840.4</ele>
        <time>2021-10-14T13:43:21Z</time>
      </trkpt>
      <trkpt lat="40.9891080" lon="-5.6649130">
        <ele>840.4</ele>
        <time>2021-10-14T13:43:22Z</time>
      </trkpt>
      <trkpt lat="40.9889230" lon="-5.6648740">
        <ele>840.8</ele>
        <time>2021-10-14T13:43:29Z</time>
      </trkpt>
      <trkpt lat="40.9888450" lon="-5.6648550">
        <ele>841.0</ele>
        <time>2021-10-14T13:43:32Z</time>
      </trkpt>
      <trkpt lat="40.9887450" lon="-5.6648380">
        <ele>841.4</ele>
        <time>2021-10-14T13:43:36Z</time>
      </trkpt>
      <trkpt lat="40.9887190" lon="-5.6648310">
        <ele>841.6</ele>
        <time>2021-10-14T13:43:37Z</time>
      </trkpt>
      <trkpt lat="40.9886180" lon="-5.6648180">
        <ele>842.0</ele>
        <time>2021-10-14T13:43:41Z</time>
      </trkpt>
      <trkpt lat="40.9885390" lon="-5.6648060">
        <ele>842.2</ele>
        <time>2021-10-14T13:43:44Z</time>
      </trkpt>
      <trkpt lat="40.9884960" lon="-5.6648000">
        <ele>842.4</ele>
        <time>2021-10-14T13:43:46Z</time>
      </trkpt>
      <trkpt lat="40.9884460" lon="-5.6647950">
        <ele>842.6</ele>
        <time>2021-10-14T13:43:48Z</time>
      </trkpt>
      <trkpt lat="40.9883520" lon="-5.6647780">
        <ele>843.0</ele>
        <time>2021-10-14T13:43:52Z</time>
      </trkpt>
      <trkpt lat="40.9882530" lon="-5.6647700">
        <ele>843.6</ele>
        <time>2021-10-14T13:43:56Z</time>
      </trkpt>
      <trkpt lat="40.9882040" lon="-5.6647650">
        <ele>843.6</ele>
        <time>2021-10-14T13:43:58Z</time>
      </trkpt>
      <trkpt lat="40.9881600" lon="-5.6647560">
        <ele>844.0</ele>
        <time>2021-10-14T13:44:00Z</time>
      </trkpt>
      <trkpt lat="40.9879780" lon="-5.6647230">
        <ele>844.8</ele>
        <time>2021-10-14T13:44:07Z</time>
      </trkpt>
      <trkpt lat="40.9879590" lon="-5.6647190">
        <ele>845.0</ele>
        <time>2021-10-14T13:44:08Z</time>
      </trkpt>
      <trkpt lat="40.9879050" lon="-5.6647100">
        <ele>845.2</ele>
        <time>2021-10-14T13:44:10Z</time>
      </trkpt>
      <trkpt lat="40.9878540" lon="-5.6647050">
        <ele>845.4</ele>
        <time>2021-10-14T13:44:12Z</time>
      </trkpt>
      <trkpt lat="40.9878070" lon="-5.6646970">
        <ele>845.6</ele>
        <time>2021-10-14T13:44:14Z</time>
      </trkpt>
      <trkpt lat="40.9877210" lon="-5.6646800">
        <ele>845.8</ele>
        <time>2021-10-14T13:44:17Z</time>
      </trkpt>
      <trkpt lat="40.9876990" lon="-5.6646740">
        <ele>845.8</ele>
        <time>2021-10-14T13:44:18Z</time>
      </trkpt>
      <trkpt lat="40.9876160" lon="-5.6646590">
        <ele>846.2</ele>
        <time>2021-10-14T13:44:21Z</time>
      </trkpt>
      <trkpt lat="40.9875160" lon="-5.6646410">
        <ele>846.6</ele>
        <time>2021-10-14T13:44:25Z</time>
      </trkpt>
      <trkpt lat="40.9874840" lon="-5.6646330">
        <ele>846.8</ele>
        <time>2021-10-14T13:44:26Z</time>
      </trkpt>
      <trkpt lat="40.9874370" lon="-5.6646230">
        <ele>847.0</ele>
        <time>2021-10-14T13:44:28Z</time>
      </trkpt>
      <trkpt lat="40.9873800" lon="-5.6646130">
        <ele>847.2</ele>
        <time>2021-10-14T13:44:30Z</time>
      </trkpt>
      <trkpt lat="40.9873090" lon="-5.6645970">
        <ele>847.6</ele>
        <time>2021-10-14T13:44:33Z</time>
      </trkpt>
      <trkpt lat="40.9872520" lon="-5.6645910">
        <ele>847.8</ele>
        <time>2021-10-14T13:44:35Z</time>
      </trkpt>
      <trkpt lat="40.9872050" lon="-5.6645820">
        <ele>848.0</ele>
        <time>2021-10-14T13:44:37Z</time>
      </trkpt>
      <trkpt lat="40.9871490" lon="-5.6645750">
        <ele>848.2</ele>
        <time>2021-10-14T13:44:39Z</time>
      </trkpt>
      <trkpt lat="40.9870110" lon="-5.6645510">
        <ele>848.8</ele>
        <time>2021-10-14T13:44:44Z</time>
      </trkpt>
      <trkpt lat="40.9869620" lon="-5.6645380">
        <ele>849.0</ele>
        <time>2021-10-14T13:44:46Z</time>
      </trkpt>
      <trkpt lat="40.9869350" lon="-5.6645330">
        <ele>849.2</ele>
        <time>2021-10-14T13:44:47Z</time>
      </trkpt>
      <trkpt lat="40.9867870" lon="-5.6645140">
        <ele>849.8</ele>
        <time>2021-10-14T13:44:52Z</time>
      </trkpt>
      <trkpt lat="40.9867660" lon="-5.6645130">
        <ele>850.0</ele>
        <time>2021-10-14T13:44:53Z</time>
      </trkpt>
      <trkpt lat="40.9867400" lon="-5.6645110">
        <ele>850.2</ele>
        <time>2021-10-14T13:44:54Z</time>
      </trkpt>
      <trkpt lat="40.9867120" lon="-5.6645070">
        <ele>850.2</ele>
        <time>2021-10-14T13:44:55Z</time>
      </trkpt>
      <trkpt lat="40.9865170" lon="-5.6644710">
        <ele>850.8</ele>
        <time>2021-10-14T13:45:02Z</time>
      </trkpt>
      <trkpt lat="40.9864060" lon="-5.6644450">
        <ele>851.2</ele>
        <time>2021-10-14T13:45:06Z</time>
      </trkpt>
      <trkpt lat="40.9863580" lon="-5.6644340">
        <ele>851.4</ele>
        <time>2021-10-14T13:45:08Z</time>
      </trkpt>
      <trkpt lat="40.9863060" lon="-5.6644260">
        <ele>851.6</ele>
        <time>2021-10-14T13:45:10Z</time>
      </trkpt>
      <trkpt lat="40.9862470" lon="-5.6644170">
        <ele>851.8</ele>
        <time>2021-10-14T13:45:12Z</time>
      </trkpt>
      <trkpt lat="40.9862010" lon="-5.6644090">
        <ele>851.8</ele>
        <time>2021-10-14T13:45:14Z</time>
      </trkpt>
      <trkpt lat="40.9861160" lon="-5.6643940">
        <ele>852.0</ele>
        <time>2021-10-14T13:45:17Z</time>
      </trkpt>
      <trkpt lat="40.9860380" lon="-5.6643840">
        <ele>852.4</ele>
        <time>2021-10-14T13:45:20Z</time>
      </trkpt>
      <trkpt lat="40.9859890" lon="-5.6643750">
        <ele>852.8</ele>
        <time>2021-10-14T13:45:22Z</time>
      </trkpt>
      <trkpt lat="40.9857920" lon="-5.6643420">
        <ele>853.4</ele>
        <time>2021-10-14T13:45:29Z</time>
      </trkpt>
      <trkpt lat="40.9857570" lon="-5.6643370">
        <ele>853.6</ele>
        <time>2021-10-14T13:45:30Z</time>
      </trkpt>
      <trkpt lat="40.9857280" lon="-5.6643320">
        <ele>853.6</ele>
        <time>2021-10-14T13:45:31Z</time>
      </trkpt>
      <trkpt lat="40.9856760" lon="-5.6643240">
        <ele>854.0</ele>
        <time>2021-10-14T13:45:33Z</time>
      </trkpt>
      <trkpt lat="40.9855570" lon="-5.6643000">
        <ele>854.4</ele>
        <time>2021-10-14T13:45:37Z</time>
      </trkpt>
      <trkpt lat="40.9854670" lon="-5.6642460">
        <ele>854.6</ele>
        <time>2021-10-14T13:45:40Z</time>
      </trkpt>
      <trkpt lat="40.9854070" lon="-5.6641820">
        <ele>854.6</ele>
        <time>2021-10-14T13:45:43Z</time>
      </trkpt>
      <trkpt lat="40.9853530" lon="-5.6640940">
        <ele>854.8</ele>
        <time>2021-10-14T13:45:46Z</time>
      </trkpt>
      <trkpt lat="40.9853360" lon="-5.6640560">
        <ele>854.8</ele>
        <time>2021-10-14T13:45:47Z</time>
      </trkpt>
      <trkpt lat="40.9852700" lon="-5.6639490">
        <ele>854.8</ele>
        <time>2021-10-14T13:45:50Z</time>
      </trkpt>
      <trkpt lat="40.9852050" lon="-5.6639070">
        <ele>855.0</ele>
        <time>2021-10-14T13:45:52Z</time>
      </trkpt>
      <trkpt lat="40.9851360" lon="-5.6638750">
        <ele>855.0</ele>
        <time>2021-10-14T13:45:54Z</time>
      </trkpt>
      <trkpt lat="40.9850220" lon="-5.6638570">
        <ele>855.0</ele>
        <time>2021-10-14T13:45:58Z</time>
      </trkpt>
      <trkpt lat="40.9849310" lon="-5.6638840">
        <ele>855.2</ele>
        <time>2021-10-14T13:46:01Z</time>
      </trkpt>
      <trkpt lat="40.9848390" lon="-5.6639490">
        <ele>855.2</ele>
        <time>2021-10-14T13:46:04Z</time>
      </trkpt>
      <trkpt lat="40.9847270" lon="-5.6640630">
        <ele>855.2</ele>
        <time>2021-10-14T13:46:09Z</time>
      </trkpt>
      <trkpt lat="40.9847010" lon="-5.6640820">
        <ele>855.2</ele>
        <time>2021-10-14T13:46:10Z</time>
      </trkpt>
      <trkpt lat="40.9845110" lon="-5.6641170">
        <ele>855.2</ele>
        <time>2021-10-14T13:46:16Z</time>
      </trkpt>
      <trkpt lat="40.9842700" lon="-5.6640730">
        <ele>855.0</ele>
        <time>2021-10-14T13:46:23Z</time>
      </trkpt>
      <trkpt lat="40.9840460" lon="-5.6640350">
        <ele>854.8</ele>
        <time>2021-10-14T13:46:28Z</time>
      </trkpt>
      <trkpt lat="40.9838350" lon="-5.6639920">
        <ele>854.2</ele>
        <time>2021-10-14T13:46:32Z</time>
      </trkpt>
      <trkpt lat="40.9836730" lon="-5.6639680">
        <ele>853.6</ele>
        <time>2021-10-14T13:46:35Z</time>
      </trkpt>
      <trkpt lat="40.9836130" lon="-5.6639580">
        <ele>853.4</ele>
        <time>2021-10-14T13:46:36Z</time>
      </trkpt>
      <trkpt lat="40.9833000" lon="-5.6639080">
        <ele>852.2</ele>
        <time>2021-10-14T13:46:41Z</time>
      </trkpt>
      <trkpt lat="40.9831780" lon="-5.6638790">
        <ele>851.8</ele>
        <time>2021-10-14T13:46:43Z</time>
      </trkpt>
      <trkpt lat="40.9829920" lon="-5.6638160">
        <ele>851.2</ele>
        <time>2021-10-14T13:46:46Z</time>
      </trkpt>
      <trkpt lat="40.9829470" lon="-5.6638030">
        <ele>851.0</ele>
        <time>2021-10-14T13:46:47Z</time>
      </trkpt>
      <trkpt lat="40.9827680" lon="-5.6637550">
        <ele>850.2</ele>
        <time>2021-10-14T13:46:50Z</time>
      </trkpt>
      <trkpt lat="40.9826700" lon="-5.6637330">
        <ele>849.6</ele>
        <time>2021-10-14T13:46:52Z</time>
      </trkpt>
      <trkpt lat="40.9825650" lon="-5.6637120">
        <ele>849.2</ele>
        <time>2021-10-14T13:46:54Z</time>
      </trkpt>
      <trkpt lat="40.9824770" lon="-5.6636990">
        <ele>849.0</ele>
        <time>2021-10-14T13:46:56Z</time>
      </trkpt>
      <trkpt lat="40.9823170" lon="-5.6636730">
        <ele>848.6</ele>
        <time>2021-10-14T13:46:59Z</time>
      </trkpt>
      <trkpt lat="40.9820060" lon="-5.6636260">
        <ele>847.8</ele>
        <time>2021-10-14T13:47:04Z</time>
      </trkpt>
      <trkpt lat="40.9819540" lon="-5.6636170">
        <ele>847.6</ele>
        <time>2021-10-14T13:47:05Z</time>
      </trkpt>
      <trkpt lat="40.9816580" lon="-5.6635690">
        <ele>846.4</ele>
        <time>2021-10-14T13:47:10Z</time>
      </trkpt>
      <trkpt lat="40.9814860" lon="-5.6635380">
        <ele>846.2</ele>
        <time>2021-10-14T13:47:13Z</time>
      </trkpt>
      <trkpt lat="40.9811790" lon="-5.6634850">
        <ele>845.2</ele>
        <time>2021-10-14T13:47:18Z</time>
      </trkpt>
      <trkpt lat="40.9809720" lon="-5.6634450">
        <ele>844.6</ele>
        <time>2021-10-14T13:47:21Z</time>
      </trkpt>
      <trkpt lat="40.9808340" lon="-5.6634240">
        <ele>844.4</ele>
        <time>2021-10-14T13:47:23Z</time>
      </trkpt>
      <trkpt lat="40.9804830" lon="-5.6633640">
        <ele>843.2</ele>
        <time>2021-10-14T13:47:28Z</time>
      </trkpt>
      <trkpt lat="40.9804320" lon="-5.6633550">
        <ele>843.2</ele>
        <time>2021-10-14T13:47:29Z</time>
      </trkpt>
      <trkpt lat="40.9801250" lon="-5.6633040">
        <ele>842.2</ele>
        <time>2021-10-14T13:47:34Z</time>
      </trkpt>
      <trkpt lat="40.9799530" lon="-5.6632710">
        <ele>841.8</ele>
        <time>2021-10-14T13:47:37Z</time>
      </trkpt>
      <trkpt lat="40.9798390" lon="-5.6632520">
        <ele>841.0</ele>
        <time>2021-10-14T13:47:39Z</time>
      </trkpt>
      <trkpt lat="40.9796300" lon="-5.6632230">
        <ele>840.2</ele>
        <time>2021-10-14T13:47:43Z</time>
      </trkpt>
      <trkpt lat="40.9795860" lon="-5.6632150">
        <ele>840.0</ele>
        <time>2021-10-14T13:47:44Z</time>
      </trkpt>
      <trkpt lat="40.9795400" lon="-5.6632050">
        <ele>839.6</ele>
        <time>2021-10-14T13:47:45Z</time>
      </trkpt>
      <trkpt lat="40.9794880" lon="-5.6631460">
        <ele>839.2</ele>
        <time>2021-10-14T13:47:47Z</time>
      </trkpt>
      <trkpt lat="40.9793970" lon="-5.6629360">
        <ele>839.0</ele>
        <time>2021-10-14T13:47:52Z</time>
      </trkpt>
      <trkpt lat="40.9793720" lon="-5.6629030">
        <ele>838.6</ele>
        <time>2021-10-14T13:47:53Z</time>
      </trkpt>
      <trkpt lat="40.9793040" lon="-5.6627680">
        <ele>838.2</ele>
        <time>2021-10-14T13:47:57Z</time>
      </trkpt>
      <trkpt lat="40.9792980" lon="-5.6626950">
        <ele>838.0</ele>
        <time>2021-10-14T13:48:00Z</time>
      </trkpt>
      <trkpt lat="40.9792980" lon="-5.6626950">
        <ele>837.6</ele>
        <time>2021-10-14T13:48:02Z</time>
      </trkpt>
      <trkpt lat="40.9792240" lon="-5.6626740">
        <ele>836.8</ele>
        <time>2021-10-14T13:48:47Z</time>
      </trkpt>
      <trkpt lat="40.9791880" lon="-5.6626660">
        <ele>836.8</ele>
        <time>2021-10-14T13:48:48Z</time>
      </trkpt>
      <trkpt lat="40.9790720" lon="-5.6626400">
        <ele>836.6</ele>
        <time>2021-10-14T13:48:51Z</time>
      </trkpt>
      <trkpt lat="40.9789920" lon="-5.6626580">
        <ele>836.6</ele>
        <time>2021-10-14T13:48:54Z</time>
      </trkpt>
      <trkpt lat="40.9789720" lon="-5.6626660">
        <ele>836.4</ele>
        <time>2021-10-14T13:48:58Z</time>
      </trkpt>
      <trkpt lat="40.9789160" lon="-5.6627220">
        <ele>836.6</ele>
        <time>2021-10-14T13:51:55Z</time>
      </trkpt>
      <trkpt lat="40.9788690" lon="-5.6627480">
        <ele>836.6</ele>
        <time>2021-10-14T13:51:57Z</time>
      </trkpt>
      <trkpt lat="40.9787330" lon="-5.6629240">
        <ele>836.2</ele>
        <time>2021-10-14T13:52:03Z</time>
      </trkpt>
      <trkpt lat="40.9786120" lon="-5.6630220">
        <ele>835.8</ele>
        <time>2021-10-14T13:52:07Z</time>
      </trkpt>
      <trkpt lat="40.9785630" lon="-5.6630290">
        <ele>835.4</ele>
        <time>2021-10-14T13:52:09Z</time>
      </trkpt>
      <trkpt lat="40.9785120" lon="-5.6630720">
        <ele>835.2</ele>
        <time>2021-10-14T13:52:11Z</time>
      </trkpt>
      <trkpt lat="40.9784820" lon="-5.6631040">
        <ele>835.0</ele>
        <time>2021-10-14T13:52:13Z</time>
      </trkpt>
      <trkpt lat="40.9784720" lon="-5.6631250">
        <ele>834.8</ele>
        <time>2021-10-14T13:52:15Z</time>
      </trkpt>
      <trkpt lat="40.9784720" lon="-5.6631250">
        <ele>834.8</ele>
        <time>2021-10-14T13:52:16Z</time>
      </trkpt>
      <trkpt lat="40.9784660" lon="-5.6631700">
        <ele>834.2</ele>
        <time>2021-10-14T13:52:55Z</time>
      </trkpt>
      <trkpt lat="40.9784510" lon="-5.6632700">
        <ele>834.2</ele>
        <time>2021-10-14T13:52:58Z</time>
      </trkpt>
      <trkpt lat="40.9784530" lon="-5.6633990">
        <ele>834.2</ele>
        <time>2021-10-14T13:53:01Z</time>
      </trkpt>
      <trkpt lat="40.9784740" lon="-5.6634320">
        <ele>834.2</ele>
        <time>2021-10-14T13:53:02Z</time>
      </trkpt>
      <trkpt lat="40.9785090" lon="-5.6634500">
        <ele>834.2</ele>
        <time>2021-10-14T13:53:03Z</time>
      </trkpt>
      <trkpt lat="40.9785950" lon="-5.6634910">
        <ele>834.2</ele>
        <time>2021-10-14T13:53:06Z</time>
      </trkpt>
      <trkpt lat="40.9786460" lon="-5.6635860">
        <ele>834.2</ele>
        <time>2021-10-14T13:53:09Z</time>
      </trkpt>
      <trkpt lat="40.9786920" lon="-5.6636840">
        <ele>834.6</ele>
        <time>2021-10-14T13:53:12Z</time>
      </trkpt>
      <trkpt lat="40.9787700" lon="-5.6638020">
        <ele>835.0</ele>
        <time>2021-10-14T13:53:16Z</time>
      </trkpt>
      <trkpt lat="40.9788250" lon="-5.6638590">
        <ele>835.4</ele>
        <time>2021-10-14T13:53:19Z</time>
      </trkpt>
      <trkpt lat="40.9788700" lon="-5.6639250">
        <ele>835.6</ele>
        <time>2021-10-14T13:53:22Z</time>
      </trkpt>
      <trkpt lat="40.9788850" lon="-5.6639950">
        <ele>835.8</ele>
        <time>2021-10-14T13:53:24Z</time>
      </trkpt>
      <trkpt lat="40.9788670" lon="-5.6642540">
        <ele>836.2</ele>
        <time>2021-10-14T13:53:31Z</time>
      </trkpt>
      <trkpt lat="40.9788610" lon="-5.6643280">
        <ele>836.4</ele>
        <time>2021-10-14T13:53:33Z</time>
      </trkpt>
      <trkpt lat="40.9788470" lon="-5.6644410">
        <ele>837.0</ele>
        <time>2021-10-14T13:53:36Z</time>
      </trkpt>
      <trkpt lat="40.9788220" lon="-5.6646440">
        <ele>837.8</ele>
        <time>2021-10-14T13:53:42Z</time>
      </trkpt>
      <trkpt lat="40.9788130" lon="-5.6647150">
        <ele>838.0</ele>
        <time>2021-10-14T13:53:44Z</time>
      </trkpt>
      <trkpt lat="40.9788100" lon="-5.6647520">
        <ele>838.0</ele>
        <time>2021-10-14T13:53:45Z</time>
      </trkpt>
      <trkpt lat="40.9787760" lon="-5.6650050">
        <ele>838.8</ele>
        <time>2021-10-14T13:53:52Z</time>
      </trkpt>
      <trkpt lat="40.9787690" lon="-5.6650390">
        <ele>839.0</ele>
        <time>2021-10-14T13:53:53Z</time>
      </trkpt>
      <trkpt lat="40.9786890" lon="-5.6651840">
        <ele>840.2</ele>
        <time>2021-10-14T13:53:58Z</time>
      </trkpt>
      <trkpt lat="40.9786710" lon="-5.6652090">
        <ele>840.2</ele>
        <time>2021-10-14T13:53:59Z</time>
      </trkpt>
      <trkpt lat="40.9786420" lon="-5.6652410">
        <ele>840.2</ele>
        <time>2021-10-14T13:54:01Z</time>
      </trkpt>
      <trkpt lat="40.9786040" lon="-5.6652720">
        <ele>840.4</ele>
        <time>2021-10-14T13:54:03Z</time>
      </trkpt>
      <trkpt lat="40.9785810" lon="-5.6652810">
        <ele>840.4</ele>
        <time>2021-10-14T13:54:04Z</time>
      </trkpt>
      <trkpt lat="40.9785240" lon="-5.6652960">
        <ele>840.4</ele>
        <time>2021-10-14T13:54:06Z</time>
      </trkpt>
      <trkpt lat="40.9783900" lon="-5.6653630">
        <ele>840.2</ele>
        <time>2021-10-14T13:54:10Z</time>
      </trkpt>
      <trkpt lat="40.9782700" lon="-5.6654520">
        <ele>840.2</ele>
        <time>2021-10-14T13:54:14Z</time>
      </trkpt>
      <trkpt lat="40.9782350" lon="-5.6654880">
        <ele>840.2</ele>
        <time>2021-10-14T13:54:15Z</time>
      </trkpt>
      <trkpt lat="40.9780840" lon="-5.6656760">
        <ele>840.0</ele>
        <time>2021-10-14T13:54:21Z</time>
      </trkpt>
      <trkpt lat="40.9779780" lon="-5.6658070">
        <ele>840.2</ele>
        <time>2021-10-14T13:54:25Z</time>
      </trkpt>
      <trkpt lat="40.9779240" lon="-5.6658750">
        <ele>840.2</ele>
        <time>2021-10-14T13:54:27Z</time>
      </trkpt>
      <trkpt lat="40.9778340" lon="-5.6659860">
        <ele>840.4</ele>
        <time>2021-10-14T13:54:31Z</time>
      </trkpt>
      <trkpt lat="40.9777500" lon="-5.6660860">
        <ele>840.6</ele>
        <time>2021-10-14T13:54:34Z</time>
      </trkpt>
      <trkpt lat="40.9775840" lon="-5.6662800">
        <ele>840.6</ele>
        <time>2021-10-14T13:54:40Z</time>
      </trkpt>
      <trkpt lat="40.9775380" lon="-5.6663400">
        <ele>841.0</ele>
        <time>2021-10-14T13:54:42Z</time>
      </trkpt>
      <trkpt lat="40.9775070" lon="-5.6663770">
        <ele>840.8</ele>
        <time>2021-10-14T13:54:43Z</time>
      </trkpt>
      <trkpt lat="40.9774290" lon="-5.6664670">
        <ele>841.2</ele>
        <time>2021-10-14T13:54:46Z</time>
      </trkpt>
      <trkpt lat="40.9774030" lon="-5.6664980">
        <ele>841.0</ele>
        <time>2021-10-14T13:54:47Z</time>
      </trkpt>
      <trkpt lat="40.9773280" lon="-5.6665610">
        <ele>841.0</ele>
        <time>2021-10-14T13:54:50Z</time>
      </trkpt>
      <trkpt lat="40.9771990" lon="-5.6666320">
        <ele>841.6</ele>
        <time>2021-10-14T13:54:55Z</time>
      </trkpt>
      <trkpt lat="40.9771750" lon="-5.6666560">
        <ele>841.6</ele>
        <time>2021-10-14T13:54:56Z</time>
      </trkpt>
      <trkpt lat="40.9770260" lon="-5.6668100">
        <ele>841.8</ele>
        <time>2021-10-14T13:55:03Z</time>
      </trkpt>
      <trkpt lat="40.9769780" lon="-5.6669150">
        <ele>841.6</ele>
        <time>2021-10-14T13:55:08Z</time>
      </trkpt>
      <trkpt lat="40.9769770" lon="-5.6669410">
        <ele>841.6</ele>
        <time>2021-10-14T13:55:09Z</time>
      </trkpt>
      <trkpt lat="40.9769240" lon="-5.6670820">
        <ele>841.4</ele>
        <time>2021-10-14T13:55:13Z</time>
      </trkpt>
      <trkpt lat="40.9768520" lon="-5.6671880">
        <ele>841.4</ele>
        <time>2021-10-14T13:55:19Z</time>
      </trkpt>
      <trkpt lat="40.9767970" lon="-5.6672670">
        <ele>841.4</ele>
        <time>2021-10-14T13:55:22Z</time>
      </trkpt>
      <trkpt lat="40.9767070" lon="-5.6673750">
        <ele>841.4</ele>
        <time>2021-10-14T13:55:26Z</time>
      </trkpt>
      <trkpt lat="40.9766810" lon="-5.6674290">
        <ele>841.2</ele>
        <time>2021-10-14T13:55:28Z</time>
      </trkpt>
      <trkpt lat="40.9766600" lon="-5.6674970">
        <ele>841.0</ele>
        <time>2021-10-14T13:55:30Z</time>
      </trkpt>
      <trkpt lat="40.9765980" lon="-5.6675830">
        <ele>840.8</ele>
        <time>2021-10-14T13:55:33Z</time>
      </trkpt>
      <trkpt lat="40.9765560" lon="-5.6676430">
        <ele>840.6</ele>
        <time>2021-10-14T13:55:35Z</time>
      </trkpt>
      <trkpt lat="40.9765110" lon="-5.6676980">
        <ele>840.4</ele>
        <time>2021-10-14T13:55:37Z</time>
      </trkpt>
      <trkpt lat="40.9764760" lon="-5.6677190">
        <ele>840.2</ele>
        <time>2021-10-14T13:55:38Z</time>
      </trkpt>
      <trkpt lat="40.9764030" lon="-5.6677720">
        <ele>840.0</ele>
        <time>2021-10-14T13:55:40Z</time>
      </trkpt>
      <trkpt lat="40.9763230" lon="-5.6678650">
        <ele>839.8</ele>
        <time>2021-10-14T13:55:42Z</time>
      </trkpt>
      <trkpt lat="40.9762380" lon="-5.6679580">
        <ele>839.4</ele>
        <time>2021-10-14T13:55:44Z</time>
      </trkpt>
      <trkpt lat="40.9761990" lon="-5.6680020">
        <ele>839.2</ele>
        <time>2021-10-14T13:55:45Z</time>
      </trkpt>
      <trkpt lat="40.9761710" lon="-5.6680600">
        <ele>839.0</ele>
        <time>2021-10-14T13:55:46Z</time>
      </trkpt>
      <trkpt lat="40.9761310" lon="-5.6681570">
        <ele>838.8</ele>
        <time>2021-10-14T13:55:48Z</time>
      </trkpt>
      <trkpt lat="40.9759590" lon="-5.6684030">
        <ele>838.0</ele>
        <time>2021-10-14T13:55:53Z</time>
      </trkpt>
      <trkpt lat="40.9758510" lon="-5.6685250">
        <ele>837.4</ele>
        <time>2021-10-14T13:55:56Z</time>
      </trkpt>
      <trkpt lat="40.9757900" lon="-5.6686040">
        <ele>837.0</ele>
        <time>2021-10-14T13:56:00Z</time>
      </trkpt>
      <trkpt lat="40.9757900" lon="-5.6686040">
        <ele>836.8</ele>
        <time>2021-10-14T13:56:01Z</time>
      </trkpt>
      <trkpt lat="40.9757580" lon="-5.6686320">
        <ele>836.6</ele>
        <time>2021-10-14T13:56:09Z</time>
      </trkpt>
      <trkpt lat="40.9757240" lon="-5.6686820">
        <ele>836.6</ele>
        <time>2021-10-14T13:56:11Z</time>
      </trkpt>
      <trkpt lat="40.9756070" lon="-5.6688250">
        <ele>836.4</ele>
        <time>2021-10-14T13:56:16Z</time>
      </trkpt>
      <trkpt lat="40.9755450" lon="-5.6689110">
        <ele>836.2</ele>
        <time>2021-10-14T13:56:18Z</time>
      </trkpt>
      <trkpt lat="40.9753270" lon="-5.6691550">
        <ele>835.8</ele>
        <time>2021-10-14T13:56:24Z</time>
      </trkpt>
      <trkpt lat="40.9752060" lon="-5.6693360">
        <ele>835.0</ele>
        <time>2021-10-14T13:56:29Z</time>
      </trkpt>
      <trkpt lat="40.9751870" lon="-5.6693700">
        <ele>834.8</ele>
        <time>2021-10-14T13:56:31Z</time>
      </trkpt>
      <trkpt lat="40.9751820" lon="-5.6693990">
        <ele>834.6</ele>
        <time>2021-10-14T13:56:33Z</time>
      </trkpt>
      <trkpt lat="40.9751820" lon="-5.6693990">
        <ele>834.4</ele>
        <time>2021-10-14T13:56:36Z</time>
      </trkpt>
      <trkpt lat="40.9751920" lon="-5.6694450">
        <ele>834.0</ele>
        <time>2021-10-14T13:58:27Z</time>
      </trkpt>
      <trkpt lat="40.9752020" lon="-5.6694800">
        <ele>834.0</ele>
        <time>2021-10-14T13:58:28Z</time>
      </trkpt>
      <trkpt lat="40.9752210" lon="-5.6697070">
        <ele>834.0</ele>
        <time>2021-10-14T13:58:33Z</time>
      </trkpt>
      <trkpt lat="40.9752050" lon="-5.6697590">
        <ele>834.0</ele>
        <time>2021-10-14T13:58:35Z</time>
      </trkpt>
      <trkpt lat="40.9752030" lon="-5.6697810">
        <ele>834.0</ele>
        <time>2021-10-14T13:58:37Z</time>
      </trkpt>
      <trkpt lat="40.9752010" lon="-5.6697840">
        <ele>834.0</ele>
        <time>2021-10-14T13:58:39Z</time>
      </trkpt>
      <trkpt lat="40.9751620" lon="-5.6698270">
        <ele>834.2</ele>
        <time>2021-10-14T13:58:44Z</time>
      </trkpt>
      <trkpt lat="40.9751370" lon="-5.6698560">
        <ele>834.2</ele>
        <time>2021-10-14T13:58:45Z</time>
      </trkpt>
      <trkpt lat="40.9749910" lon="-5.6700020">
        <ele>834.0</ele>
        <time>2021-10-14T13:58:51Z</time>
      </trkpt>
      <trkpt lat="40.9748490" lon="-5.6701790">
        <ele>834.6</ele>
        <time>2021-10-14T13:58:58Z</time>
      </trkpt>
      <trkpt lat="40.9747300" lon="-5.6703470">
        <ele>835.6</ele>
        <time>2021-10-14T13:59:04Z</time>
      </trkpt>
      <trkpt lat="40.9747040" lon="-5.6704010">
        <ele>835.8</ele>
        <time>2021-10-14T13:59:06Z</time>
      </trkpt>
      <trkpt lat="40.9745500" lon="-5.6706200">
        <ele>836.6</ele>
        <time>2021-10-14T13:59:12Z</time>
      </trkpt>
      <trkpt lat="40.9744170" lon="-5.6708130">
        <ele>837.8</ele>
        <time>2021-10-14T13:59:18Z</time>
      </trkpt>
      <trkpt lat="40.9743970" lon="-5.6708400">
        <ele>838.0</ele>
        <time>2021-10-14T13:59:19Z</time>
      </trkpt>
      <trkpt lat="40.9742770" lon="-5.6710080">
        <ele>838.8</ele>
        <time>2021-10-14T13:59:25Z</time>
      </trkpt>
      <trkpt lat="40.9742540" lon="-5.6710400">
        <ele>839.0</ele>
        <time>2021-10-14T13:59:26Z</time>
      </trkpt>
      <trkpt lat="40.9742060" lon="-5.6711140">
        <ele>839.4</ele>
        <time>2021-10-14T13:59:29Z</time>
      </trkpt>
      <trkpt lat="40.9741400" lon="-5.6711980">
        <ele>839.8</ele>
        <time>2021-10-14T13:59:32Z</time>
      </trkpt>
      <trkpt lat="40.9741060" lon="-5.6712490">
        <ele>840.2</ele>
        <time>2021-10-14T13:59:34Z</time>
      </trkpt>
      <trkpt lat="40.9740230" lon="-5.6713560">
        <ele>840.8</ele>
        <time>2021-10-14T13:59:39Z</time>
      </trkpt>
      <trkpt lat="40.9739700" lon="-5.6714210">
        <ele>841.2</ele>
        <time>2021-10-14T13:59:42Z</time>
      </trkpt>
      <trkpt lat="40.9738200" lon="-5.6715770">
        <ele>841.6</ele>
        <time>2021-10-14T13:59:48Z</time>
      </trkpt>
      <trkpt lat="40.9737700" lon="-5.6716190">
        <ele>841.6</ele>
        <time>2021-10-14T13:59:49Z</time>
      </trkpt>
      <trkpt lat="40.9737250" lon="-5.6716600">
        <ele>841.6</ele>
        <time>2021-10-14T13:59:50Z</time>
      </trkpt>
      <trkpt lat="40.9736400" lon="-5.6717390">
        <ele>841.6</ele>
        <time>2021-10-14T13:59:52Z</time>
      </trkpt>
      <trkpt lat="40.9735370" lon="-5.6718510">
        <ele>841.2</ele>
        <time>2021-10-14T13:59:54Z</time>
      </trkpt>
      <trkpt lat="40.9734710" lon="-5.6720040">
        <ele>840.4</ele>
        <time>2021-10-14T13:59:56Z</time>
      </trkpt>
      <trkpt lat="40.9734120" lon="-5.6721590">
        <ele>839.8</ele>
        <time>2021-10-14T13:59:58Z</time>
      </trkpt>
      <trkpt lat="40.9733530" lon="-5.6723330">
        <ele>838.6</ele>
        <time>2021-10-14T14:00:01Z</time>
      </trkpt>
      <trkpt lat="40.9733400" lon="-5.6723790">
        <ele>838.4</ele>
        <time>2021-10-14T14:00:02Z</time>
      </trkpt>
      <trkpt lat="40.9732940" lon="-5.6725060">
        <ele>838.0</ele>
        <time>2021-10-14T14:00:06Z</time>
      </trkpt>
      <trkpt lat="40.9732850" lon="-5.6725210">
        <ele>838.0</ele>
        <time>2021-10-14T14:00:07Z</time>
      </trkpt>
      <trkpt lat="40.9731760" lon="-5.6725730">
        <ele>837.6</ele>
        <time>2021-10-14T14:00:13Z</time>
      </trkpt>
      <trkpt lat="40.9731220" lon="-5.6725780">
        <ele>837.4</ele>
        <time>2021-10-14T14:00:15Z</time>
      </trkpt>
      <trkpt lat="40.9730600" lon="-5.6725790">
        <ele>837.0</ele>
        <time>2021-10-14T14:00:17Z</time>
      </trkpt>
      <trkpt lat="40.9730120" lon="-5.6726110">
        <ele>836.8</ele>
        <time>2021-10-14T14:00:19Z</time>
      </trkpt>
      <trkpt lat="40.9730040" lon="-5.6726190">
        <ele>836.4</ele>
        <time>2021-10-14T14:00:22Z</time>
      </trkpt>
      <trkpt lat="40.9729390" lon="-5.6726650">
        <ele>836.0</ele>
        <time>2021-10-14T14:00:32Z</time>
      </trkpt>
      <trkpt lat="40.9728950" lon="-5.6727230">
        <ele>836.0</ele>
        <time>2021-10-14T14:00:34Z</time>
      </trkpt>
      <trkpt lat="40.9728260" lon="-5.6728550">
        <ele>835.6</ele>
        <time>2021-10-14T14:00:39Z</time>
      </trkpt>
      <trkpt lat="40.9728260" lon="-5.6728550">
        <ele>835.0</ele>
        <time>2021-10-14T14:00:41Z</time>
      </trkpt>
      <trkpt lat="40.9727930" lon="-5.6730400">
        <ele>834.2</ele>
        <time>2021-10-14T14:02:03Z</time>
      </trkpt>
      <trkpt lat="40.9727910" lon="-5.6730550">
        <ele>834.2</ele>
        <time>2021-10-14T14:02:04Z</time>
      </trkpt>
      <trkpt lat="40.9727900" lon="-5.6730600">
        <ele>834.2</ele>
        <time>2021-10-14T14:02:06Z</time>
      </trkpt>
      <trkpt lat="40.9728040" lon="-5.6731320">
        <ele>833.8</ele>
        <time>2021-10-14T14:02:20Z</time>
      </trkpt>
      <trkpt lat="40.9728080" lon="-5.6733450">
        <ele>833.6</ele>
        <time>2021-10-14T14:02:25Z</time>
      </trkpt>
      <trkpt lat="40.9728080" lon="-5.6736100">
        <ele>833.4</ele>
        <time>2021-10-14T14:02:30Z</time>
      </trkpt>
      <trkpt lat="40.9728070" lon="-5.6737210">
        <ele>833.2</ele>
        <time>2021-10-14T14:02:32Z</time>
      </trkpt>
      <trkpt lat="40.9728070" lon="-5.6741330">
        <ele>832.6</ele>
        <time>2021-10-14T14:02:39Z</time>
      </trkpt>
      <trkpt lat="40.9727860" lon="-5.6744290">
        <ele>832.4</ele>
        <time>2021-10-14T14:02:45Z</time>
      </trkpt>
      <trkpt lat="40.9727800" lon="-5.6744740">
        <ele>832.2</ele>
        <time>2021-10-14T14:02:46Z</time>
      </trkpt>
      <trkpt lat="40.9727800" lon="-5.6746830">
        <ele>832.0</ele>
        <time>2021-10-14T14:02:50Z</time>
      </trkpt>
      <trkpt lat="40.9727830" lon="-5.6747420">
        <ele>832.0</ele>
        <time>2021-10-14T14:02:51Z</time>
      </trkpt>
      <trkpt lat="40.9727770" lon="-5.6751960">
        <ele>831.6</ele>
        <time>2021-10-14T14:02:58Z</time>
      </trkpt>
      <trkpt lat="40.9727730" lon="-5.6753290">
        <ele>831.4</ele>
        <time>2021-10-14T14:03:00Z</time>
      </trkpt>
      <trkpt lat="40.9727970" lon="-5.6754490">
        <ele>831.0</ele>
        <time>2021-10-14T14:03:02Z</time>
      </trkpt>
      <trkpt lat="40.9728030" lon="-5.6755080">
        <ele>831.0</ele>
        <time>2021-10-14T14:03:03Z</time>
      </trkpt>
      <trkpt lat="40.9727960" lon="-5.6757370">
        <ele>830.6</ele>
        <time>2021-10-14T14:03:07Z</time>
      </trkpt>
      <trkpt lat="40.9728030" lon="-5.6759040">
        <ele>830.6</ele>
        <time>2021-10-14T14:03:10Z</time>
      </trkpt>
      <trkpt lat="40.9727990" lon="-5.6763620">
        <ele>830.0</ele>
        <time>2021-10-14T14:03:18Z</time>
      </trkpt>
      <trkpt lat="40.9727980" lon="-5.6764130">
        <ele>829.8</ele>
        <time>2021-10-14T14:03:19Z</time>
      </trkpt>
      <trkpt lat="40.9727830" lon="-5.6765900">
        <ele>829.6</ele>
        <time>2021-10-14T14:03:23Z</time>
      </trkpt>
      <trkpt lat="40.9727650" lon="-5.6766260">
        <ele>829.4</ele>
        <time>2021-10-14T14:03:24Z</time>
      </trkpt>
      <trkpt lat="40.9727300" lon="-5.6768430">
        <ele>829.2</ele>
        <time>2021-10-14T14:03:29Z</time>
      </trkpt>
      <trkpt lat="40.9726530" lon="-5.6769600">
        <ele>829.0</ele>
        <time>2021-10-14T14:03:32Z</time>
      </trkpt>
      <trkpt lat="40.9726220" lon="-5.6770030">
        <ele>829.0</ele>
        <time>2021-10-14T14:03:33Z</time>
      </trkpt>
      <trkpt lat="40.9725900" lon="-5.6770530">
        <ele>828.8</ele>
        <time>2021-10-14T14:03:34Z</time>
      </trkpt>
      <trkpt lat="40.9725530" lon="-5.6772090">
        <ele>828.4</ele>
        <time>2021-10-14T14:03:38Z</time>
      </trkpt>
      <trkpt lat="40.9725680" lon="-5.6773860">
        <ele>828.0</ele>
        <time>2021-10-14T14:03:44Z</time>
      </trkpt>
      <trkpt lat="40.9725830" lon="-5.6774130">
        <ele>828.0</ele>
        <time>2021-10-14T14:03:48Z</time>
      </trkpt>
      <trkpt lat="40.9725950" lon="-5.6774620">
        <ele>828.2</ele>
        <time>2021-10-14T14:04:31Z</time>
      </trkpt>
      <trkpt lat="40.9726020" lon="-5.6775010">
        <ele>828.2</ele>
        <time>2021-10-14T14:04:32Z</time>
      </trkpt>
      <trkpt lat="40.9726080" lon="-5.6775850">
        <ele>828.4</ele>
        <time>2021-10-14T14:04:34Z</time>
      </trkpt>
      <trkpt lat="40.9725800" lon="-5.6777670">
        <ele>828.2</ele>
        <time>2021-10-14T14:04:37Z</time>
      </trkpt>
      <trkpt lat="40.9725680" lon="-5.6778720">
        <ele>828.0</ele>
        <time>2021-10-14T14:04:39Z</time>
      </trkpt>
      <trkpt lat="40.9725350" lon="-5.6780460">
        <ele>827.8</ele>
        <time>2021-10-14T14:04:42Z</time>
      </trkpt>
      <trkpt lat="40.9725090" lon="-5.6782290">
        <ele>827.6</ele>
        <time>2021-10-14T14:04:45Z</time>
      </trkpt>
      <trkpt lat="40.9724580" lon="-5.6785410">
        <ele>827.2</ele>
        <time>2021-10-14T14:04:50Z</time>
      </trkpt>
      <trkpt lat="40.9724370" lon="-5.6786490">
        <ele>827.0</ele>
        <time>2021-10-14T14:04:52Z</time>
      </trkpt>
      <trkpt lat="40.9724120" lon="-5.6787680">
        <ele>827.0</ele>
        <time>2021-10-14T14:04:54Z</time>
      </trkpt>
      <trkpt lat="40.9723430" lon="-5.6791420">
        <ele>826.4</ele>
        <time>2021-10-14T14:05:00Z</time>
      </trkpt>
      <trkpt lat="40.9722820" lon="-5.6794530">
        <ele>826.0</ele>
        <time>2021-10-14T14:05:05Z</time>
      </trkpt>
      <trkpt lat="40.9722740" lon="-5.6795020">
        <ele>825.8</ele>
        <time>2021-10-14T14:05:06Z</time>
      </trkpt>
      <trkpt lat="40.9722490" lon="-5.6796360">
        <ele>825.6</ele>
        <time>2021-10-14T14:05:08Z</time>
      </trkpt>
      <trkpt lat="40.9721770" lon="-5.6799920">
        <ele>824.8</ele>
        <time>2021-10-14T14:05:14Z</time>
      </trkpt>
      <trkpt lat="40.9721600" lon="-5.6800990">
        <ele>824.6</ele>
        <time>2021-10-14T14:05:16Z</time>
      </trkpt>
      <trkpt lat="40.9721270" lon="-5.6802770">
        <ele>824.4</ele>
        <time>2021-10-14T14:05:19Z</time>
      </trkpt>
      <trkpt lat="40.9720840" lon="-5.6803500">
        <ele>824.2</ele>
        <time>2021-10-14T14:05:21Z</time>
      </trkpt>
      <trkpt lat="40.9720180" lon="-5.6804130">
        <ele>824.0</ele>
        <time>2021-10-14T14:05:23Z</time>
      </trkpt>
      <trkpt lat="40.9719770" lon="-5.6804350">
        <ele>823.8</ele>
        <time>2021-10-14T14:05:24Z</time>
      </trkpt>
      <trkpt lat="40.9719510" lon="-5.6804460">
        <ele>823.6</ele>
        <time>2021-10-14T14:05:25Z</time>
      </trkpt>
      <trkpt lat="40.9717680" lon="-5.6805160">
        <ele>822.6</ele>
        <time>2021-10-14T14:05:30Z</time>
      </trkpt>
      <trkpt lat="40.9717350" lon="-5.6805190">
        <ele>822.6</ele>
        <time>2021-10-14T14:05:31Z</time>
      </trkpt>
      <trkpt lat="40.9717090" lon="-5.6805040">
        <ele>822.2</ele>
        <time>2021-10-14T14:05:32Z</time>
      </trkpt>
      <trkpt lat="40.9716710" lon="-5.6804340">
        <ele>822.0</ele>
        <time>2021-10-14T14:05:34Z</time>
      </trkpt>
      <trkpt lat="40.9716390" lon="-5.6803220">
        <ele>821.8</ele>
        <time>2021-10-14T14:05:37Z</time>
      </trkpt>
      <trkpt lat="40.9716200" lon="-5.6802340">
        <ele>821.6</ele>
        <time>2021-10-14T14:05:39Z</time>
      </trkpt>
      <trkpt lat="40.9715890" lon="-5.6801180">
        <ele>821.2</ele>
        <time>2021-10-14T14:05:42Z</time>
      </trkpt>
      <trkpt lat="40.9715820" lon="-5.6800970">
        <ele>820.8</ele>
        <time>2021-10-14T14:05:45Z</time>
      </trkpt>
      <trkpt lat="40.9715690" lon="-5.6800320">
        <ele>820.2</ele>
        <time>2021-10-14T14:05:50Z</time>
      </trkpt>
      <trkpt lat="40.9715570" lon="-5.6799570">
        <ele>819.8</ele>
        <time>2021-10-14T14:05:53Z</time>
      </trkpt>
      <trkpt lat="40.9715240" lon="-5.6797880">
        <ele>819.4</ele>
        <time>2021-10-14T14:05:57Z</time>
      </trkpt>
      <trkpt lat="40.9714940" lon="-5.6796230">
        <ele>819.0</ele>
        <time>2021-10-14T14:06:00Z</time>
      </trkpt>
      <trkpt lat="40.9714310" lon="-5.6793840">
        <ele>818.6</ele>
        <time>2021-10-14T14:06:04Z</time>
      </trkpt>
      <trkpt lat="40.9712890" lon="-5.6790210">
        <ele>818.0</ele>
        <time>2021-10-14T14:06:09Z</time>
      </trkpt>
      <trkpt lat="40.9712540" lon="-5.6789480">
        <ele>817.6</ele>
        <time>2021-10-14T14:06:10Z</time>
      </trkpt>
      <trkpt lat="40.9711470" lon="-5.6787340">
        <ele>816.8</ele>
        <time>2021-10-14T14:06:13Z</time>
      </trkpt>
      <trkpt lat="40.9709710" lon="-5.6784090">
        <ele>816.0</ele>
        <time>2021-10-14T14:06:18Z</time>
      </trkpt>
      <trkpt lat="40.9709020" lon="-5.6782970">
        <ele>815.8</ele>
        <time>2021-10-14T14:06:20Z</time>
      </trkpt>
      <trkpt lat="40.9707640" lon="-5.6780820">
        <ele>815.4</ele>
        <time>2021-10-14T14:06:24Z</time>
      </trkpt>
      <trkpt lat="40.9706010" lon="-5.6778240">
        <ele>815.2</ele>
        <time>2021-10-14T14:06:29Z</time>
      </trkpt>
      <trkpt lat="40.9704770" lon="-5.6776280">
        <ele>815.2</ele>
        <time>2021-10-14T14:06:33Z</time>
      </trkpt>
      <trkpt lat="40.9703130" lon="-5.6773810">
        <ele>815.4</ele>
        <time>2021-10-14T14:06:39Z</time>
      </trkpt>
      <trkpt lat="40.9701860" lon="-5.6771930">
        <ele>815.8</ele>
        <time>2021-10-14T14:06:45Z</time>
      </trkpt>
      <trkpt lat="40.9701170" lon="-5.6770830">
        <ele>816.2</ele>
        <time>2021-10-14T14:06:49Z</time>
      </trkpt>
      <trkpt lat="40.9700660" lon="-5.6770270">
        <ele>816.2</ele>
        <time>2021-10-14T14:06:52Z</time>
      </trkpt>
      <trkpt lat="40.9699910" lon="-5.6769920">
        <ele>816.4</ele>
        <time>2021-10-14T14:06:57Z</time>
      </trkpt>
      <trkpt lat="40.9699300" lon="-5.6769600">
        <ele>816.6</ele>
        <time>2021-10-14T14:07:03Z</time>
      </trkpt>
      <trkpt lat="40.9698990" lon="-5.6769260">
        <ele>816.8</ele>
        <time>2021-10-14T14:08:22Z</time>
      </trkpt>
      <trkpt lat="40.9698840" lon="-5.6769050">
        <ele>816.8</ele>
        <time>2021-10-14T14:08:23Z</time>
      </trkpt>
      <trkpt lat="40.9698670" lon="-5.6768790">
        <ele>817.0</ele>
        <time>2021-10-14T14:08:24Z</time>
      </trkpt>
      <trkpt lat="40.9698330" lon="-5.6767980">
        <ele>817.0</ele>
        <time>2021-10-14T14:08:26Z</time>
      </trkpt>
      <trkpt lat="40.9698330" lon="-5.6767520">
        <ele>817.0</ele>
        <time>2021-10-14T14:08:27Z</time>
      </trkpt>
      <trkpt lat="40.9698220" lon="-5.6765550">
        <ele>817.0</ele>
        <time>2021-10-14T14:08:32Z</time>
      </trkpt>
      <trkpt lat="40.9698010" lon="-5.6765200">
        <ele>817.0</ele>
        <time>2021-10-14T14:08:33Z</time>
      </trkpt>
      <trkpt lat="40.9696730" lon="-5.6763900">
        <ele>817.2</ele>
        <time>2021-10-14T14:08:37Z</time>
      </trkpt>
      <trkpt lat="40.9695770" lon="-5.6762920">
        <ele>817.2</ele>
        <time>2021-10-14T14:08:40Z</time>
      </trkpt>
      <trkpt lat="40.9692680" lon="-5.6759680">
        <ele>817.2</ele>
        <time>2021-10-14T14:08:50Z</time>
      </trkpt>
      <trkpt lat="40.9690980" lon="-5.6757860">
        <ele>817.2</ele>
        <time>2021-10-14T14:08:57Z</time>
      </trkpt>
      <trkpt lat="40.9690440" lon="-5.6757330">
        <ele>817.2</ele>
        <time>2021-10-14T14:09:02Z</time>
      </trkpt>
      <trkpt lat="40.9690440" lon="-5.6757330">
        <ele>817.0</ele>
        <time>2021-10-14T14:09:03Z</time>
      </trkpt>
      <trkpt lat="40.9690000" lon="-5.6756840">
        <ele>816.6</ele>
        <time>2021-10-14T14:09:32Z</time>
      </trkpt>
      <trkpt lat="40.9689630" lon="-5.6756450">
        <ele>816.6</ele>
        <time>2021-10-14T14:09:34Z</time>
      </trkpt>
      <trkpt lat="40.9688810" lon="-5.6755510">
        <ele>816.4</ele>
        <time>2021-10-14T14:09:39Z</time>
      </trkpt>
      <trkpt lat="40.9688830" lon="-5.6754930">
        <ele>816.4</ele>
        <time>2021-10-14T14:09:41Z</time>
      </trkpt>
      <trkpt lat="40.9689140" lon="-5.6754490">
        <ele>816.6</ele>
        <time>2021-10-14T14:09:43Z</time>
      </trkpt>
      <trkpt lat="40.9689700" lon="-5.6753170">
        <ele>816.8</ele>
        <time>2021-10-14T14:09:49Z</time>
      </trkpt>
      <trkpt lat="40.9689610" lon="-5.6752960">
        <ele>816.8</ele>
        <time>2021-10-14T14:09:50Z</time>
      </trkpt>
      <trkpt lat="40.9688450" lon="-5.6751200">
        <ele>817.4</ele>
        <time>2021-10-14T14:09:56Z</time>
      </trkpt>
      <trkpt lat="40.9686720" lon="-5.6748730">
        <ele>817.6</ele>
        <time>2021-10-14T14:10:03Z</time>
      </trkpt>
      <trkpt lat="40.9685970" lon="-5.6747800">
        <ele>817.6</ele>
        <time>2021-10-14T14:10:06Z</time>
      </trkpt>
      <trkpt lat="40.9685430" lon="-5.6747100">
        <ele>817.6</ele>
        <time>2021-10-14T14:10:10Z</time>
      </trkpt>
      <trkpt lat="40.9685320" lon="-5.6746990">
        <ele>817.8</ele>
        <time>2021-10-14T14:10:15Z</time>
      </trkpt>
      <trkpt lat="40.9685040" lon="-5.6746340">
        <ele>818.0</ele>
        <time>2021-10-14T14:10:31Z</time>
      </trkpt>
      <trkpt lat="40.9684850" lon="-5.6746040">
        <ele>818.0</ele>
        <time>2021-10-14T14:10:32Z</time>
      </trkpt>
      <trkpt lat="40.9684120" lon="-5.6744900">
        <ele>818.0</ele>
        <time>2021-10-14T14:10:36Z</time>
      </trkpt>
      <trkpt lat="40.9682220" lon="-5.6742490">
        <ele>818.2</ele>
        <time>2021-10-14T14:10:43Z</time>
      </trkpt>
      <trkpt lat="40.9681130" lon="-5.6741020">
        <ele>818.2</ele>
        <time>2021-10-14T14:10:47Z</time>
      </trkpt>
      <trkpt lat="40.9679120" lon="-5.6738560">
        <ele>818.2</ele>
        <time>2021-10-14T14:10:53Z</time>
      </trkpt>
      <trkpt lat="40.9677250" lon="-5.6736210">
        <ele>818.6</ele>
        <time>2021-10-14T14:10:59Z</time>
      </trkpt>
      <trkpt lat="40.9676860" lon="-5.6735710">
        <ele>818.6</ele>
        <time>2021-10-14T14:11:00Z</time>
      </trkpt>
      <trkpt lat="40.9675670" lon="-5.6734280">
        <ele>818.8</ele>
        <time>2021-10-14T14:11:04Z</time>
      </trkpt>
      <trkpt lat="40.9674670" lon="-5.6733150">
        <ele>818.8</ele>
        <time>2021-10-14T14:11:07Z</time>
      </trkpt>
      <trkpt lat="40.9673750" lon="-5.6731960">
        <ele>819.0</ele>
        <time>2021-10-14T14:11:10Z</time>
      </trkpt>
      <trkpt lat="40.9672100" lon="-5.6729660">
        <ele>819.0</ele>
        <time>2021-10-14T14:11:16Z</time>
      </trkpt>
      <trkpt lat="40.9671470" lon="-5.6728880">
        <ele>819.0</ele>
        <time>2021-10-14T14:11:18Z</time>
      </trkpt>
      <trkpt lat="40.9670950" lon="-5.6728050">
        <ele>819.0</ele>
        <time>2021-10-14T14:11:20Z</time>
      </trkpt>
      <trkpt lat="40.9670450" lon="-5.6727160">
        <ele>819.2</ele>
        <time>2021-10-14T14:11:22Z</time>
      </trkpt>
      <trkpt lat="40.9670090" lon="-5.6726740">
        <ele>819.2</ele>
        <time>2021-10-14T14:11:23Z</time>
      </trkpt>
      <trkpt lat="40.9668770" lon="-5.6725170">
        <ele>819.2</ele>
        <time>2021-10-14T14:11:27Z</time>
      </trkpt>
      <trkpt lat="40.9666760" lon="-5.6722610">
        <ele>819.2</ele>
        <time>2021-10-14T14:11:33Z</time>
      </trkpt>
      <trkpt lat="40.9664890" lon="-5.6719630">
        <ele>819.6</ele>
        <time>2021-10-14T14:11:40Z</time>
      </trkpt>
      <trkpt lat="40.9664220" lon="-5.6718490">
        <ele>819.8</ele>
        <time>2021-10-14T14:11:43Z</time>
      </trkpt>
      <trkpt lat="40.9663440" lon="-5.6717400">
        <ele>820.0</ele>
        <time>2021-10-14T14:11:46Z</time>
      </trkpt>
      <trkpt lat="40.9662730" lon="-5.6716800">
        <ele>820.2</ele>
        <time>2021-10-14T14:11:49Z</time>
      </trkpt>
      <trkpt lat="40.9662370" lon="-5.6716500">
        <ele>820.6</ele>
        <time>2021-10-14T14:11:51Z</time>
      </trkpt>
      <trkpt lat="40.9661860" lon="-5.6716010">
        <ele>821.2</ele>
        <time>2021-10-14T14:11:54Z</time>
      </trkpt>
      <trkpt lat="40.9661430" lon="-5.6715860">
        <ele>821.4</ele>
        <time>2021-10-14T14:11:56Z</time>
      </trkpt>
      <trkpt lat="40.9660650" lon="-5.6715330">
        <ele>821.8</ele>
        <time>2021-10-14T14:11:59Z</time>
      </trkpt>
      <trkpt lat="40.9660040" lon="-5.6714910">
        <ele>822.2</ele>
        <time>2021-10-14T14:12:02Z</time>
      </trkpt>
      <trkpt lat="40.9660010" lon="-5.6714870">
        <ele>822.4</ele>
        <time>2021-10-14T14:12:04Z</time>
      </trkpt>
      <trkpt lat="40.9660010" lon="-5.6714870">
        <ele>822.6</ele>
        <time>2021-10-14T14:12:05Z</time>
      </trkpt>
      <trkpt lat="40.9659560" lon="-5.6714250">
        <ele>823.0</ele>
        <time>2021-10-14T14:12:30Z</time>
      </trkpt>
      <trkpt lat="40.9659270" lon="-5.6714000">
        <ele>823.2</ele>
        <time>2021-10-14T14:12:31Z</time>
      </trkpt>
      <trkpt lat="40.9658920" lon="-5.6713720">
        <ele>823.2</ele>
        <time>2021-10-14T14:12:32Z</time>
      </trkpt>
      <trkpt lat="40.9658520" lon="-5.6713470">
        <ele>823.2</ele>
        <time>2021-10-14T14:12:33Z</time>
      </trkpt>
      <trkpt lat="40.9657130" lon="-5.6712690">
        <ele>823.4</ele>
        <time>2021-10-14T14:12:36Z</time>
      </trkpt>
      <trkpt lat="40.9656690" lon="-5.6712510">
        <ele>823.4</ele>
        <time>2021-10-14T14:12:37Z</time>
      </trkpt>
      <trkpt lat="40.9656240" lon="-5.6712280">
        <ele>823.2</ele>
        <time>2021-10-14T14:12:38Z</time>
      </trkpt>
      <trkpt lat="40.9655230" lon="-5.6711250">
        <ele>823.2</ele>
        <time>2021-10-14T14:12:41Z</time>
      </trkpt>
      <trkpt lat="40.9652490" lon="-5.6708370">
        <ele>821.8</ele>
        <time>2021-10-14T14:12:47Z</time>
      </trkpt>
      <trkpt lat="40.9651970" lon="-5.6707910">
        <ele>821.6</ele>
        <time>2021-10-14T14:12:48Z</time>
      </trkpt>
      <trkpt lat="40.9650660" lon="-5.6706550">
        <ele>820.4</ele>
        <time>2021-10-14T14:12:51Z</time>
      </trkpt>
      <trkpt lat="40.9649640" lon="-5.6705000">
        <ele>819.6</ele>
        <time>2021-10-14T14:12:54Z</time>
      </trkpt>
      <trkpt lat="40.9649560" lon="-5.6704420">
        <ele>819.4</ele>
        <time>2021-10-14T14:12:55Z</time>
      </trkpt>
      <trkpt lat="40.9649770" lon="-5.6703380">
        <ele>818.6</ele>
        <time>2021-10-14T14:12:57Z</time>
      </trkpt>
      <trkpt lat="40.9650140" lon="-5.6702460">
        <ele>818.2</ele>
        <time>2021-10-14T14:12:59Z</time>
      </trkpt>
      <trkpt lat="40.9651120" lon="-5.6700040">
        <ele>817.2</ele>
        <time>2021-10-14T14:13:04Z</time>
      </trkpt>
      <trkpt lat="40.9651250" lon="-5.6699550">
        <ele>817.0</ele>
        <time>2021-10-14T14:13:05Z</time>
      </trkpt>
      <trkpt lat="40.9651120" lon="-5.6698210">
        <ele>816.6</ele>
        <time>2021-10-14T14:13:08Z</time>
      </trkpt>
      <trkpt lat="40.9650020" lon="-5.6696660">
        <ele>816.2</ele>
        <time>2021-10-14T14:13:12Z</time>
      </trkpt>
      <trkpt lat="40.9648910" lon="-5.6695000">
        <ele>815.8</ele>
        <time>2021-10-14T14:13:15Z</time>
      </trkpt>
      <trkpt lat="40.9647540" lon="-5.6693260">
        <ele>814.8</ele>
        <time>2021-10-14T14:13:18Z</time>
      </trkpt>
      <trkpt lat="40.9647010" lon="-5.6692630">
        <ele>814.4</ele>
        <time>2021-10-14T14:13:19Z</time>
      </trkpt>
      <trkpt lat="40.9646540" lon="-5.6691920">
        <ele>813.8</ele>
        <time>2021-10-14T14:13:20Z</time>
      </trkpt>
      <trkpt lat="40.9646120" lon="-5.6691140">
        <ele>813.4</ele>
        <time>2021-10-14T14:13:21Z</time>
      </trkpt>
      <trkpt lat="40.9645660" lon="-5.6690410">
        <ele>812.2</ele>
        <time>2021-10-14T14:13:22Z</time>
      </trkpt>
      <trkpt lat="40.9644750" lon="-5.6689200">
        <ele>810.6</ele>
        <time>2021-10-14T14:13:24Z</time>
      </trkpt>
      <trkpt lat="40.9644350" lon="-5.6688750">
        <ele>809.8</ele>
        <time>2021-10-14T14:13:25Z</time>
      </trkpt>
      <trkpt lat="40.9643570" lon="-5.6687930">
        <ele>808.6</ele>
        <time>2021-10-14T14:13:27Z</time>
      </trkpt>
      <trkpt lat="40.9643220" lon="-5.6687510">
        <ele>808.2</ele>
        <time>2021-10-14T14:13:28Z</time>
      </trkpt>
      <trkpt lat="40.9642890" lon="-5.6687050">
        <ele>807.2</ele>
        <time>2021-10-14T14:13:29Z</time>
      </trkpt>
      <trkpt lat="40.9642310" lon="-5.6686270">
        <ele>806.0</ele>
        <time>2021-10-14T14:13:31Z</time>
      </trkpt>
      <trkpt lat="40.9642060" lon="-5.6685960">
        <ele>805.8</ele>
        <time>2021-10-14T14:13:32Z</time>
      </trkpt>
      <trkpt lat="40.9640900" lon="-5.6684730">
        <ele>805.2</ele>
        <time>2021-10-14T14:13:37Z</time>
      </trkpt>
      <trkpt lat="40.9640110" lon="-5.6683300">
        <ele>805.0</ele>
        <time>2021-10-14T14:13:41Z</time>
      </trkpt>
      <trkpt lat="40.9639910" lon="-5.6682940">
        <ele>805.0</ele>
        <time>2021-10-14T14:13:42Z</time>
      </trkpt>
      <trkpt lat="40.9638840" lon="-5.6681280">
        <ele>805.2</ele>
        <time>2021-10-14T14:13:48Z</time>
      </trkpt>
      <trkpt lat="40.9637650" lon="-5.6679660">
        <ele>806.0</ele>
        <time>2021-10-14T14:13:55Z</time>
      </trkpt>
      <trkpt lat="40.9637460" lon="-5.6679500">
        <ele>806.2</ele>
        <time>2021-10-14T14:13:56Z</time>
      </trkpt>
      <trkpt lat="40.9636750" lon="-5.6678840">
        <ele>807.0</ele>
        <time>2021-10-14T14:14:00Z</time>
      </trkpt>
      <trkpt lat="40.9636600" lon="-5.6678660">
        <ele>807.2</ele>
        <time>2021-10-14T14:14:01Z</time>
      </trkpt>
      <trkpt lat="40.9636480" lon="-5.6678470">
        <ele>807.2</ele>
        <time>2021-10-14T14:14:02Z</time>
      </trkpt>
      <trkpt lat="40.9635770" lon="-5.6677460">
        <ele>808.0</ele>
        <time>2021-10-14T14:14:08Z</time>
      </trkpt>
      <trkpt lat="40.9635650" lon="-5.6677240">
        <ele>808.2</ele>
        <time>2021-10-14T14:14:09Z</time>
      </trkpt>
      <trkpt lat="40.9635380" lon="-5.6676950">
        <ele>808.2</ele>
        <time>2021-10-14T14:14:11Z</time>
      </trkpt>
      <trkpt lat="40.9635080" lon="-5.6676600">
        <ele>808.8</ele>
        <time>2021-10-14T14:14:13Z</time>
      </trkpt>
      <trkpt lat="40.9634560" lon="-5.6676090">
        <ele>809.4</ele>
        <time>2021-10-14T14:14:16Z</time>
      </trkpt>
      <trkpt lat="40.9634210" lon="-5.6675600">
        <ele>809.6</ele>
        <time>2021-10-14T14:14:19Z</time>
      </trkpt>
      <trkpt lat="40.9634090" lon="-5.6675400">
        <ele>810.0</ele>
        <time>2021-10-14T14:14:21Z</time>
      </trkpt>
      <trkpt lat="40.9633930" lon="-5.6675220">
        <ele>810.2</ele>
        <time>2021-10-14T14:14:24Z</time>
      </trkpt>
      <trkpt lat="40.9633850" lon="-5.6675140">
        <ele>810.4</ele>
        <time>2021-10-14T14:14:26Z</time>
      </trkpt>
      <trkpt lat="40.9633780" lon="-5.6675040">
        <ele>810.6</ele>
        <time>2021-10-14T14:14:27Z</time>
      </trkpt>
      <trkpt lat="40.9633190" lon="-5.6674370">
        <ele>811.2</ele>
        <time>2021-10-14T14:14:31Z</time>
      </trkpt>
      <trkpt lat="40.9633020" lon="-5.6674250">
        <ele>811.2</ele>
        <time>2021-10-14T14:14:32Z</time>
      </trkpt>
      <trkpt lat="40.9632390" lon="-5.6674080">
        <ele>811.6</ele>
        <time>2021-10-14T14:14:35Z</time>
      </trkpt>
      <trkpt lat="40.9631920" lon="-5.6674110">
        <ele>811.8</ele>
        <time>2021-10-14T14:14:37Z</time>
      </trkpt>
      <trkpt lat="40.9631520" lon="-5.6674010">
        <ele>811.8</ele>
        <time>2021-10-14T14:14:39Z</time>
      </trkpt>
      <trkpt lat="40.9631050" lon="-5.6673840">
        <ele>812.2</ele>
        <time>2021-10-14T14:14:43Z</time>
      </trkpt>
      <trkpt lat="40.9630890" lon="-5.6673890">
        <ele>812.2</ele>
        <time>2021-10-14T14:14:44Z</time>
      </trkpt>
      <trkpt lat="40.9630680" lon="-5.6673910">
        <ele>812.2</ele>
        <time>2021-10-14T14:14:45Z</time>
      </trkpt>
      <trkpt lat="40.9629510" lon="-5.6673730">
        <ele>812.6</ele>
        <time>2021-10-14T14:14:49Z</time>
      </trkpt>
      <trkpt lat="40.9629260" lon="-5.6673680">
        <ele>812.6</ele>
        <time>2021-10-14T14:14:50Z</time>
      </trkpt>
      <trkpt lat="40.9628660" lon="-5.6673580">
        <ele>812.8</ele>
        <time>2021-10-14T14:14:52Z</time>
      </trkpt>
      <trkpt lat="40.9627420" lon="-5.6673440">
        <ele>813.2</ele>
        <time>2021-10-14T14:14:57Z</time>
      </trkpt>
      <trkpt lat="40.9626680" lon="-5.6673050">
        <ele>813.4</ele>
        <time>2021-10-14T14:15:00Z</time>
      </trkpt>
      <trkpt lat="40.9626460" lon="-5.6673390">
        <ele>813.6</ele>
        <time>2021-10-14T14:15:02Z</time>
      </trkpt>
      <trkpt lat="40.9626450" lon="-5.6673720">
        <ele>813.6</ele>
        <time>2021-10-14T14:15:03Z</time>
      </trkpt>
      <trkpt lat="40.9625790" lon="-5.6674010">
        <ele>814.2</ele>
        <time>2021-10-14T14:15:07Z</time>
      </trkpt>
      <trkpt lat="40.9624900" lon="-5.6674860">
        <ele>814.6</ele>
        <time>2021-10-14T14:15:14Z</time>
      </trkpt>
      <trkpt lat="40.9624660" lon="-5.6674930">
        <ele>815.0</ele>
        <time>2021-10-14T14:15:17Z</time>
      </trkpt>
      <trkpt lat="40.9624630" lon="-5.6674950">
        <ele>815.2</ele>
        <time>2021-10-14T14:15:18Z</time>
      </trkpt>
      <trkpt lat="40.9624620" lon="-5.6674920">
        <ele>815.2</ele>
        <time>2021-10-14T14:15:19Z</time>
      </trkpt>
      <trkpt lat="40.9624630" lon="-5.6674830">
        <ele>815.4</ele>
        <time>2021-10-14T14:15:20Z</time>
      </trkpt>
      <trkpt lat="40.9624620" lon="-5.6674690">
        <ele>815.6</ele>
        <time>2021-10-14T14:15:21Z</time>
      </trkpt>
      <trkpt lat="40.9624580" lon="-5.6674440">
        <ele>815.6</ele>
        <time>2021-10-14T14:15:23Z</time>
      </trkpt>
      <trkpt lat="40.9624550" lon="-5.6674270">
        <ele>816.0</ele>
        <time>2021-10-14T14:15:26Z</time>
      </trkpt>
      <trkpt lat="40.9624490" lon="-5.6674410">
        <ele>816.2</ele>
        <time>2021-10-14T14:15:27Z</time>
      </trkpt>
      <trkpt lat="40.9624240" lon="-5.6674850">
        <ele>816.2</ele>
        <time>2021-10-14T14:15:29Z</time>
      </trkpt>
      <trkpt lat="40.9623870" lon="-5.6675770">
        <ele>816.4</ele>
        <time>2021-10-14T14:15:32Z</time>
      </trkpt>
      <trkpt lat="40.9623870" lon="-5.6675820">
        <ele>816.6</ele>
        <time>2021-10-14T14:15:35Z</time>
      </trkpt>
      <trkpt lat="40.9623460" lon="-5.6675930">
        <ele>816.6</ele>
        <time>2021-10-14T14:15:43Z</time>
      </trkpt>
      <trkpt lat="40.9623580" lon="-5.6675410">
        <ele>816.6</ele>
        <time>2021-10-14T14:15:45Z</time>
      </trkpt>
      <trkpt lat="40.9623710" lon="-5.6675240">
        <ele>816.6</ele>
        <time>2021-10-14T14:15:46Z</time>
      </trkpt>
      <trkpt lat="40.9624160" lon="-5.6674190">
        <ele>816.6</ele>
        <time>2021-10-14T14:15:51Z</time>
      </trkpt>
      <trkpt lat="40.9624140" lon="-5.6673250">
        <ele>817.0</ele>
        <time>2021-10-14T14:15:55Z</time>
      </trkpt>
      <trkpt lat="40.9624160" lon="-5.6673060">
        <ele>817.0</ele>
        <time>2021-10-14T14:15:56Z</time>
      </trkpt>
      <trkpt lat="40.9624210" lon="-5.6672400">
        <ele>817.2</ele>
        <time>2021-10-14T14:15:59Z</time>
      </trkpt>
      <trkpt lat="40.9624300" lon="-5.6671990">
        <ele>817.6</ele>
        <time>2021-10-14T14:16:01Z</time>
      </trkpt>
      <trkpt lat="40.9624390" lon="-5.6671280">
        <ele>818.2</ele>
        <time>2021-10-14T14:16:04Z</time>
      </trkpt>
      <trkpt lat="40.9624540" lon="-5.6670180">
        <ele>818.8</ele>
        <time>2021-10-14T14:16:08Z</time>
      </trkpt>
      <trkpt lat="40.9624680" lon="-5.6669570">
        <ele>819.0</ele>
        <time>2021-10-14T14:16:11Z</time>
      </trkpt>
      <trkpt lat="40.9624820" lon="-5.6668950">
        <ele>819.2</ele>
        <time>2021-10-14T14:16:14Z</time>
      </trkpt>
      <trkpt lat="40.9624880" lon="-5.6668420">
        <ele>819.4</ele>
        <time>2021-10-14T14:16:17Z</time>
      </trkpt>
      <trkpt lat="40.9624880" lon="-5.6668200">
        <ele>819.4</ele>
        <time>2021-10-14T14:16:18Z</time>
      </trkpt>
      <trkpt lat="40.9624850" lon="-5.6667340">
        <ele>819.4</ele>
        <time>2021-10-14T14:16:23Z</time>
      </trkpt>
      <trkpt lat="40.9624890" lon="-5.6667050">
        <ele>819.4</ele>
        <time>2021-10-14T14:16:24Z</time>
      </trkpt>
      <trkpt lat="40.9625050" lon="-5.6665480">
        <ele>819.4</ele>
        <time>2021-10-14T14:16:30Z</time>
      </trkpt>
      <trkpt lat="40.9624760" lon="-5.6664870">
        <ele>819.2</ele>
        <time>2021-10-14T14:16:33Z</time>
      </trkpt>
      <trkpt lat="40.9624370" lon="-5.6664740">
        <ele>819.2</ele>
        <time>2021-10-14T14:16:35Z</time>
      </trkpt>
      <trkpt lat="40.9624340" lon="-5.6664760">
        <ele>819.2</ele>
        <time>2021-10-14T14:16:38Z</time>
      </trkpt>
      <trkpt lat="40.9625560" lon="-5.6663670">
        <ele>818.8</ele>
        <time>2021-10-14T14:16:55Z</time>
      </trkpt>
      <trkpt lat="40.9625620" lon="-5.6663370">
        <ele>818.8</ele>
        <time>2021-10-14T14:16:56Z</time>
      </trkpt>
      <trkpt lat="40.9625680" lon="-5.6663090">
        <ele>818.8</ele>
        <time>2021-10-14T14:16:57Z</time>
      </trkpt>
      <trkpt lat="40.9625870" lon="-5.6662140">
        <ele>818.6</ele>
        <time>2021-10-14T14:17:00Z</time>
      </trkpt>
      <trkpt lat="40.9626010" lon="-5.6661550">
        <ele>818.4</ele>
        <time>2021-10-14T14:17:02Z</time>
      </trkpt>
      <trkpt lat="40.9626110" lon="-5.6660870">
        <ele>818.0</ele>
        <time>2021-10-14T14:17:05Z</time>
      </trkpt>
      <trkpt lat="40.9626250" lon="-5.6659750">
        <ele>818.0</ele>
        <time>2021-10-14T14:17:10Z</time>
      </trkpt>
      <trkpt lat="40.9626270" lon="-5.6659590">
        <ele>817.8</ele>
        <time>2021-10-14T14:17:11Z</time>
      </trkpt>
      <trkpt lat="40.9626320" lon="-5.6659140">
        <ele>817.6</ele>
        <time>2021-10-14T14:17:14Z</time>
      </trkpt>
      <trkpt lat="40.9626330" lon="-5.6659100">
        <ele>817.4</ele>
        <time>2021-10-14T14:17:15Z</time>
      </trkpt>
      <trkpt lat="40.9626330" lon="-5.6659100">
        <ele>817.4</ele>
        <time>2021-10-14T14:17:16Z</time>
      </trkpt>
      <trkpt lat="40.9626480" lon="-5.6657890">
        <ele>816.8</ele>
        <time>2021-10-14T14:17:53Z</time>
      </trkpt>
      <trkpt lat="40.9626550" lon="-5.6657660">
        <ele>816.8</ele>
        <time>2021-10-14T14:17:54Z</time>
      </trkpt>
      <trkpt lat="40.9626510" lon="-5.6657510">
        <ele>816.8</ele>
        <time>2021-10-14T14:17:56Z</time>
      </trkpt>
      <trkpt lat="40.9626330" lon="-5.6657510">
        <ele>816.8</ele>
        <time>2021-10-14T14:17:57Z</time>
      </trkpt>
      <trkpt lat="40.9625920" lon="-5.6657720">
        <ele>816.2</ele>
        <time>2021-10-14T14:18:01Z</time>
      </trkpt>
      <trkpt lat="40.9625920" lon="-5.6657720">
        <ele>816.2</ele>
        <time>2021-10-14T14:18:02Z</time>
      </trkpt>
      <trkpt lat="40.9632970" lon="-5.6650670">
        <ele>816.6</ele>
        <time>2021-10-14T14:24:28Z</time>
      </trkpt>
      <trkpt lat="40.9633100" lon="-5.6650620">
        <ele>816.6</ele>
        <time>2021-10-14T14:24:29Z</time>
      </trkpt>
      <trkpt lat="40.9633170" lon="-5.6650590">
        <ele>816.6</ele>
        <time>2021-10-14T14:24:30Z</time>
      </trkpt>
      <trkpt lat="40.9633220" lon="-5.6650470">
        <ele>816.4</ele>
        <time>2021-10-14T14:24:31Z</time>
      </trkpt>
      <trkpt lat="40.9633290" lon="-5.6650340">
        <ele>816.4</ele>
        <time>2021-10-14T14:24:32Z</time>
      </trkpt>
      <trkpt lat="40.9633420" lon="-5.6650150">
        <ele>816.4</ele>
        <time>2021-10-14T14:24:34Z</time>
      </trkpt>
      <trkpt lat="40.9633660" lon="-5.6649910">
        <ele>816.4</ele>
        <time>2021-10-14T14:24:36Z</time>
      </trkpt>
      <trkpt lat="40.9633990" lon="-5.6649340">
        <ele>816.4</ele>
        <time>2021-10-14T14:24:40Z</time>
      </trkpt>
      <trkpt lat="40.9634190" lon="-5.6649220">
        <ele>816.4</ele>
        <time>2021-10-14T14:24:43Z</time>
      </trkpt>
      <trkpt lat="40.9634240" lon="-5.6649220">
        <ele>816.2</ele>
        <time>2021-10-14T14:24:44Z</time>
      </trkpt>
      <trkpt lat="40.9634440" lon="-5.6649150">
        <ele>816.2</ele>
        <time>2021-10-14T14:24:49Z</time>
      </trkpt>
      <trkpt lat="40.9634540" lon="-5.6649150">
        <ele>816.0</ele>
        <time>2021-10-14T14:24:50Z</time>
      </trkpt>
      <trkpt lat="40.9634570" lon="-5.6649100">
        <ele>816.0</ele>
        <time>2021-10-14T14:24:53Z</time>
      </trkpt>
      <trkpt lat="40.9635570" lon="-5.6648860">
        <ele>816.2</ele>
        <time>2021-10-14T14:25:07Z</time>
      </trkpt>
      <trkpt lat="40.9636570" lon="-5.6648520">
        <ele>816.2</ele>
        <time>2021-10-14T14:25:13Z</time>
      </trkpt>
      <trkpt lat="40.9637440" lon="-5.6647390">
        <ele>816.0</ele>
        <time>2021-10-14T14:25:18Z</time>
      </trkpt>
      <trkpt lat="40.9638020" lon="-5.6646790">
        <ele>816.0</ele>
        <time>2021-10-14T14:25:22Z</time>
      </trkpt>
      <trkpt lat="40.9638400" lon="-5.6646770">
        <ele>816.2</ele>
        <time>2021-10-14T14:25:26Z</time>
      </trkpt>
      <trkpt lat="40.9639610" lon="-5.6646670">
        <ele>816.2</ele>
        <time>2021-10-14T14:25:32Z</time>
      </trkpt>
      <trkpt lat="40.9640120" lon="-5.6646270">
        <ele>816.4</ele>
        <time>2021-10-14T14:25:35Z</time>
      </trkpt>
      <trkpt lat="40.9640660" lon="-5.6646550">
        <ele>816.4</ele>
        <time>2021-10-14T14:25:41Z</time>
      </trkpt>
      <trkpt lat="40.9641480" lon="-5.6647260">
        <ele>816.4</ele>
        <time>2021-10-14T14:25:48Z</time>
      </trkpt>
      <trkpt lat="40.9641930" lon="-5.6647650">
        <ele>816.4</ele>
        <time>2021-10-14T14:25:52Z</time>
      </trkpt>
      <trkpt lat="40.9642230" lon="-5.6647910">
        <ele>816.4</ele>
        <time>2021-10-14T14:25:55Z</time>
      </trkpt>
      <trkpt lat="40.9642570" lon="-5.6648010">
        <ele>816.4</ele>
        <time>2021-10-14T14:26:00Z</time>
      </trkpt>
      <trkpt lat="40.9642560" lon="-5.6647960">
        <ele>816.4</ele>
        <time>2021-10-14T14:26:01Z</time>
      </trkpt>
      <trkpt lat="40.9642930" lon="-5.6648230">
        <ele>816.2</ele>
        <time>2021-10-14T14:26:07Z</time>
      </trkpt>
      <trkpt lat="40.9643110" lon="-5.6647810">
        <ele>816.0</ele>
        <time>2021-10-14T14:26:13Z</time>
      </trkpt>
      <trkpt lat="40.9643450" lon="-5.6647320">
        <ele>816.0</ele>
        <time>2021-10-14T14:26:16Z</time>
      </trkpt>
      <trkpt lat="40.9643790" lon="-5.6647000">
        <ele>815.8</ele>
        <time>2021-10-14T14:26:18Z</time>
      </trkpt>
      <trkpt lat="40.9644220" lon="-5.6646220">
        <ele>815.4</ele>
        <time>2021-10-14T14:26:23Z</time>
      </trkpt>
      <trkpt lat="40.9644590" lon="-5.6646440">
        <ele>815.0</ele>
        <time>2021-10-14T14:26:26Z</time>
      </trkpt>
      <trkpt lat="40.9644590" lon="-5.6646440">
        <ele>815.0</ele>
        <time>2021-10-14T14:26:29Z</time>
      </trkpt>
      <trkpt lat="40.9643300" lon="-5.6639820">
        <ele>815.2</ele>
        <time>2021-10-14T14:37:48Z</time>
      </trkpt>
      <trkpt lat="40.9643250" lon="-5.6640180">
        <ele>815.2</ele>
        <time>2021-10-14T14:37:49Z</time>
      </trkpt>
      <trkpt lat="40.9642900" lon="-5.6640590">
        <ele>815.2</ele>
        <time>2021-10-14T14:37:52Z</time>
      </trkpt>
      <trkpt lat="40.9642740" lon="-5.6640650">
        <ele>815.4</ele>
        <time>2021-10-14T14:37:53Z</time>
      </trkpt>
      <trkpt lat="40.9642590" lon="-5.6640830">
        <ele>815.4</ele>
        <time>2021-10-14T14:37:54Z</time>
      </trkpt>
      <trkpt lat="40.9641940" lon="-5.6641880">
        <ele>815.6</ele>
        <time>2021-10-14T14:38:00Z</time>
      </trkpt>
      <trkpt lat="40.9641290" lon="-5.6644110">
        <ele>816.0</ele>
        <time>2021-10-14T14:38:10Z</time>
      </trkpt>
      <trkpt lat="40.9641290" lon="-5.6644110">
        <ele>816.2</ele>
        <time>2021-10-14T14:38:11Z</time>
      </trkpt>
      <trkpt lat="40.9640900" lon="-5.6645270">
        <ele>816.4</ele>
        <time>2021-10-14T14:38:18Z</time>
      </trkpt>
      <trkpt lat="40.9640790" lon="-5.6645560">
        <ele>816.4</ele>
        <time>2021-10-14T14:38:19Z</time>
      </trkpt>
      <trkpt lat="40.9640620" lon="-5.6645800">
        <ele>816.4</ele>
        <time>2021-10-14T14:38:21Z</time>
      </trkpt>
      <trkpt lat="40.9640000" lon="-5.6646110">
        <ele>816.4</ele>
        <time>2021-10-14T14:38:27Z</time>
      </trkpt>
      <trkpt lat="40.9639310" lon="-5.6646480">
        <ele>816.4</ele>
        <time>2021-10-14T14:38:34Z</time>
      </trkpt>
      <trkpt lat="40.9639230" lon="-5.6646550">
        <ele>816.4</ele>
        <time>2021-10-14T14:38:35Z</time>
      </trkpt>
      <trkpt lat="40.9639080" lon="-5.6646780">
        <ele>816.4</ele>
        <time>2021-10-14T14:38:40Z</time>
      </trkpt>
      <trkpt lat="40.9639030" lon="-5.6646790">
        <ele>816.4</ele>
        <time>2021-10-14T14:38:41Z</time>
      </trkpt>
      <trkpt lat="40.9638150" lon="-5.6647160">
        <ele>816.6</ele>
        <time>2021-10-14T14:38:47Z</time>
      </trkpt>
      <trkpt lat="40.9637570" lon="-5.6647530">
        <ele>816.6</ele>
        <time>2021-10-14T14:38:50Z</time>
      </trkpt>
      <trkpt lat="40.9637040" lon="-5.6647930">
        <ele>816.6</ele>
        <time>2021-10-14T14:38:53Z</time>
      </trkpt>
      <trkpt lat="40.9636880" lon="-5.6648030">
        <ele>816.6</ele>
        <time>2021-10-14T14:38:54Z</time>
      </trkpt>
      <trkpt lat="40.9636380" lon="-5.6648350">
        <ele>816.4</ele>
        <time>2021-10-14T14:38:57Z</time>
      </trkpt>
      <trkpt lat="40.9636000" lon="-5.6648580">
        <ele>816.4</ele>
        <time>2021-10-14T14:39:00Z</time>
      </trkpt>
      <trkpt lat="40.9635720" lon="-5.6648820">
        <ele>816.6</ele>
        <time>2021-10-14T14:39:02Z</time>
      </trkpt>
      <trkpt lat="40.9635120" lon="-5.6649210">
        <ele>816.6</ele>
        <time>2021-10-14T14:39:06Z</time>
      </trkpt>
      <trkpt lat="40.9634890" lon="-5.6649440">
        <ele>816.6</ele>
        <time>2021-10-14T14:39:08Z</time>
      </trkpt>
      <trkpt lat="40.9634580" lon="-5.6649670">
        <ele>816.8</ele>
        <time>2021-10-14T14:39:10Z</time>
      </trkpt>
      <trkpt lat="40.9634450" lon="-5.6649750">
        <ele>816.8</ele>
        <time>2021-10-14T14:39:11Z</time>
      </trkpt>
      <trkpt lat="40.9633560" lon="-5.6650290">
        <ele>817.0</ele>
        <time>2021-10-14T14:39:18Z</time>
      </trkpt>
      <trkpt lat="40.9633410" lon="-5.6650300">
        <ele>817.0</ele>
        <time>2021-10-14T14:39:19Z</time>
      </trkpt>
      <trkpt lat="40.9632410" lon="-5.6650680">
        <ele>817.0</ele>
        <time>2021-10-14T14:39:28Z</time>
      </trkpt>
      <trkpt lat="40.9632320" lon="-5.6650730">
        <ele>817.0</ele>
        <time>2021-10-14T14:39:29Z</time>
      </trkpt>
      <trkpt lat="40.9632160" lon="-5.6650860">
        <ele>817.0</ele>
        <time>2021-10-14T14:39:31Z</time>
      </trkpt>
      <trkpt lat="40.9631950" lon="-5.6650970">
        <ele>817.0</ele>
        <time>2021-10-14T14:39:33Z</time>
      </trkpt>
      <trkpt lat="40.9631740" lon="-5.6651080">
        <ele>817.2</ele>
        <time>2021-10-14T14:39:35Z</time>
      </trkpt>
      <trkpt lat="40.9631360" lon="-5.6651290">
        <ele>817.2</ele>
        <time>2021-10-14T14:39:40Z</time>
      </trkpt>
      <trkpt lat="40.9630950" lon="-5.6651750">
        <ele>817.2</ele>
        <time>2021-10-14T14:39:47Z</time>
      </trkpt>
      <trkpt lat="40.9630650" lon="-5.6652060">
        <ele>817.2</ele>
        <time>2021-10-14T14:39:52Z</time>
      </trkpt>
      <trkpt lat="40.9630220" lon="-5.6652100">
        <ele>817.4</ele>
        <time>2021-10-14T14:39:58Z</time>
      </trkpt>
      <trkpt lat="40.9629980" lon="-5.6652300">
        <ele>817.4</ele>
        <time>2021-10-14T14:40:01Z</time>
      </trkpt>
      <trkpt lat="40.9629520" lon="-5.6652620">
        <ele>817.6</ele>
        <time>2021-10-14T14:40:04Z</time>
      </trkpt>
      <trkpt lat="40.9627730" lon="-5.6653760">
        <ele>817.6</ele>
        <time>2021-10-14T14:40:13Z</time>
      </trkpt>
      <trkpt lat="40.9627470" lon="-5.6654030">
        <ele>817.6</ele>
        <time>2021-10-14T14:40:15Z</time>
      </trkpt>
      <trkpt lat="40.9627100" lon="-5.6654520">
        <ele>817.4</ele>
        <time>2021-10-14T14:40:19Z</time>
      </trkpt>
      <trkpt lat="40.9626750" lon="-5.6654760">
        <ele>817.2</ele>
        <time>2021-10-14T14:40:21Z</time>
      </trkpt>
      <trkpt lat="40.9626490" lon="-5.6655270">
        <ele>817.2</ele>
        <time>2021-10-14T14:40:24Z</time>
      </trkpt>
      <trkpt lat="40.9625840" lon="-5.6656710">
        <ele>816.8</ele>
        <time>2021-10-14T14:40:34Z</time>
      </trkpt>
      <trkpt lat="40.9625750" lon="-5.6656900">
        <ele>816.8</ele>
        <time>2021-10-14T14:40:39Z</time>
      </trkpt>
      <trkpt lat="40.9625470" lon="-5.6657130">
        <ele>816.8</ele>
        <time>2021-10-14T14:40:46Z</time>
      </trkpt>
      <trkpt lat="40.9625200" lon="-5.6657280">
        <ele>816.8</ele>
        <time>2021-10-14T14:40:49Z</time>
      </trkpt>
      <trkpt lat="40.9625000" lon="-5.6657330">
        <ele>816.8</ele>
        <time>2021-10-14T14:40:52Z</time>
      </trkpt>
      <trkpt lat="40.9624260" lon="-5.6657480">
        <ele>816.8</ele>
        <time>2021-10-14T14:40:59Z</time>
      </trkpt>
      <trkpt lat="40.9624130" lon="-5.6657490">
        <ele>816.8</ele>
        <time>2021-10-14T14:41:00Z</time>
      </trkpt>
      <trkpt lat="40.9623310" lon="-5.6658130">
        <ele>817.0</ele>
        <time>2021-10-14T14:41:08Z</time>
      </trkpt>
      <trkpt lat="40.9623160" lon="-5.6658290">
        <ele>817.0</ele>
        <time>2021-10-14T14:41:10Z</time>
      </trkpt>
      <trkpt lat="40.9623030" lon="-5.6658660">
        <ele>817.0</ele>
        <time>2021-10-14T14:41:14Z</time>
      </trkpt>
      <trkpt lat="40.9619260" lon="-5.6660550">
        <ele>817.2</ele>
        <time>2021-10-14T14:41:55Z</time>
      </trkpt>
      <trkpt lat="40.9619050" lon="-5.6660640">
        <ele>817.2</ele>
        <time>2021-10-14T14:41:56Z</time>
      </trkpt>
      <trkpt lat="40.9618470" lon="-5.6661010">
        <ele>817.2</ele>
        <time>2021-10-14T14:41:59Z</time>
      </trkpt>
      <trkpt lat="40.9618290" lon="-5.6661100">
        <ele>817.2</ele>
        <time>2021-10-14T14:42:00Z</time>
      </trkpt>
      <trkpt lat="40.9618080" lon="-5.6661300">
        <ele>817.2</ele>
        <time>2021-10-14T14:42:02Z</time>
      </trkpt>
      <trkpt lat="40.9618040" lon="-5.6661330">
        <ele>817.2</ele>
        <time>2021-10-14T14:42:04Z</time>
      </trkpt>
      <trkpt lat="40.9618040" lon="-5.6661330">
        <ele>817.2</ele>
        <time>2021-10-14T14:42:07Z</time>
      </trkpt>
      <trkpt lat="40.9613910" lon="-5.6663500">
        <ele>818.6</ele>
        <time>2021-10-14T14:44:22Z</time>
      </trkpt>
      <trkpt lat="40.9614120" lon="-5.6663380">
        <ele>818.4</ele>
        <time>2021-10-14T14:44:24Z</time>
      </trkpt>
      <trkpt lat="40.9614710" lon="-5.6663030">
        <ele>817.8</ele>
        <time>2021-10-14T14:44:30Z</time>
      </trkpt>
      <trkpt lat="40.9614920" lon="-5.6662860">
        <ele>817.4</ele>
        <time>2021-10-14T14:44:33Z</time>
      </trkpt>
      <trkpt lat="40.9614980" lon="-5.6662830">
        <ele>817.4</ele>
        <time>2021-10-14T14:44:34Z</time>
      </trkpt>
      <trkpt lat="40.9615030" lon="-5.6662750">
        <ele>817.4</ele>
        <time>2021-10-14T14:44:37Z</time>
      </trkpt>
      <trkpt lat="40.9615080" lon="-5.6663000">
        <ele>817.4</ele>
        <time>2021-10-14T14:44:38Z</time>
      </trkpt>
      <trkpt lat="40.9615260" lon="-5.6663230">
        <ele>817.2</ele>
        <time>2021-10-14T14:44:40Z</time>
      </trkpt>
      <trkpt lat="40.9614990" lon="-5.6662870">
        <ele>817.2</ele>
        <time>2021-10-14T14:44:46Z</time>
      </trkpt>
      <trkpt lat="40.9614940" lon="-5.6662720">
        <ele>817.2</ele>
        <time>2021-10-14T14:44:48Z</time>
      </trkpt>
      <trkpt lat="40.9614940" lon="-5.6662720">
        <ele>817.2</ele>
        <time>2021-10-14T14:44:50Z</time>
      </trkpt>
      <trkpt lat="40.9614480" lon="-5.6663360">
        <ele>817.4</ele>
        <time>2021-10-14T14:46:13Z</time>
      </trkpt>
      <trkpt lat="40.9614350" lon="-5.6663490">
        <ele>817.4</ele>
        <time>2021-10-14T14:46:14Z</time>
      </trkpt>
      <trkpt lat="40.9613880" lon="-5.6663750">
        <ele>817.6</ele>
        <time>2021-10-14T14:46:17Z</time>
      </trkpt>
      <trkpt lat="40.9613390" lon="-5.6663780">
        <ele>817.6</ele>
        <time>2021-10-14T14:46:20Z</time>
      </trkpt>
      <trkpt lat="40.9612670" lon="-5.6663810">
        <ele>817.6</ele>
        <time>2021-10-14T14:46:25Z</time>
      </trkpt>
      <trkpt lat="40.9612520" lon="-5.6663680">
        <ele>817.6</ele>
        <time>2021-10-14T14:46:26Z</time>
      </trkpt>
      <trkpt lat="40.9612190" lon="-5.6663450">
        <ele>817.8</ele>
        <time>2021-10-14T14:46:29Z</time>
      </trkpt>
      <trkpt lat="40.9611860" lon="-5.6663340">
        <ele>817.8</ele>
        <time>2021-10-14T14:46:32Z</time>
      </trkpt>
      <trkpt lat="40.9611680" lon="-5.6663420">
        <ele>818.2</ele>
        <time>2021-10-14T14:46:37Z</time>
      </trkpt>
      <trkpt lat="40.9611580" lon="-5.6663310">
        <ele>818.4</ele>
        <time>2021-10-14T14:46:38Z</time>
      </trkpt>
      <trkpt lat="40.9611480" lon="-5.6663340">
        <ele>818.2</ele>
        <time>2021-10-14T14:46:39Z</time>
      </trkpt>
      <trkpt lat="40.9611450" lon="-5.6663650">
        <ele>818.4</ele>
        <time>2021-10-14T14:46:42Z</time>
      </trkpt>
      <trkpt lat="40.9610210" lon="-5.6664470">
        <ele>818.4</ele>
        <time>2021-10-14T14:46:47Z</time>
      </trkpt>
      <trkpt lat="40.9609810" lon="-5.6665040">
        <ele>818.2</ele>
        <time>2021-10-14T14:46:51Z</time>
      </trkpt>
      <trkpt lat="40.9609080" lon="-5.6665800">
        <ele>818.8</ele>
        <time>2021-10-14T14:46:57Z</time>
      </trkpt>
      <trkpt lat="40.9608860" lon="-5.6665970">
        <ele>818.6</ele>
        <time>2021-10-14T14:46:59Z</time>
      </trkpt>
      <trkpt lat="40.9608570" lon="-5.6666260">
        <ele>818.8</ele>
        <time>2021-10-14T14:47:02Z</time>
      </trkpt>
      <trkpt lat="40.9608330" lon="-5.6666350">
        <ele>819.0</ele>
        <time>2021-10-14T14:47:04Z</time>
      </trkpt>
      <trkpt lat="40.9608030" lon="-5.6666500">
        <ele>819.0</ele>
        <time>2021-10-14T14:47:06Z</time>
      </trkpt>
      <trkpt lat="40.9607950" lon="-5.6667650">
        <ele>818.8</ele>
        <time>2021-10-14T14:47:10Z</time>
      </trkpt>
      <trkpt lat="40.9607940" lon="-5.6667700">
        <ele>818.8</ele>
        <time>2021-10-14T14:47:14Z</time>
      </trkpt>
      <trkpt lat="40.9608540" lon="-5.6668870">
        <ele>818.6</ele>
        <time>2021-10-14T14:47:28Z</time>
      </trkpt>
      <trkpt lat="40.9608710" lon="-5.6668970">
        <ele>818.6</ele>
        <time>2021-10-14T14:47:29Z</time>
      </trkpt>
      <trkpt lat="40.9608970" lon="-5.6669300">
        <ele>818.6</ele>
        <time>2021-10-14T14:47:31Z</time>
      </trkpt>
      <trkpt lat="40.9609710" lon="-5.6670480">
        <ele>818.8</ele>
        <time>2021-10-14T14:47:35Z</time>
      </trkpt>
      <trkpt lat="40.9609870" lon="-5.6670810">
        <ele>818.8</ele>
        <time>2021-10-14T14:47:36Z</time>
      </trkpt>
      <trkpt lat="40.9610440" lon="-5.6671870">
        <ele>819.0</ele>
        <time>2021-10-14T14:47:40Z</time>
      </trkpt>
      <trkpt lat="40.9611040" lon="-5.6672360">
        <ele>819.2</ele>
        <time>2021-10-14T14:47:44Z</time>
      </trkpt>
      <trkpt lat="40.9611240" lon="-5.6672800">
        <ele>819.2</ele>
        <time>2021-10-14T14:47:46Z</time>
      </trkpt>
      <trkpt lat="40.9611360" lon="-5.6673080">
        <ele>819.2</ele>
        <time>2021-10-14T14:47:48Z</time>
      </trkpt>
      <trkpt lat="40.9611540" lon="-5.6673460">
        <ele>819.4</ele>
        <time>2021-10-14T14:47:50Z</time>
      </trkpt>
      <trkpt lat="40.9611790" lon="-5.6674130">
        <ele>819.4</ele>
        <time>2021-10-14T14:47:53Z</time>
      </trkpt>
      <trkpt lat="40.9611830" lon="-5.6674190">
        <ele>819.2</ele>
        <time>2021-10-14T14:47:56Z</time>
      </trkpt>
      <trkpt lat="40.9612010" lon="-5.6674540">
        <ele>819.2</ele>
        <time>2021-10-14T14:48:03Z</time>
      </trkpt>
      <trkpt lat="40.9612250" lon="-5.6674460">
        <ele>819.2</ele>
        <time>2021-10-14T14:48:05Z</time>
      </trkpt>
      <trkpt lat="40.9612710" lon="-5.6674210">
        <ele>819.4</ele>
        <time>2021-10-14T14:48:08Z</time>
      </trkpt>
      <trkpt lat="40.9613680" lon="-5.6673900">
        <ele>819.6</ele>
        <time>2021-10-14T14:48:15Z</time>
      </trkpt>
      <trkpt lat="40.9613970" lon="-5.6673900">
        <ele>819.6</ele>
        <time>2021-10-14T14:48:16Z</time>
      </trkpt>
      <trkpt lat="40.9614750" lon="-5.6674320">
        <ele>819.8</ele>
        <time>2021-10-14T14:48:19Z</time>
      </trkpt>
      <trkpt lat="40.9615190" lon="-5.6674460">
        <ele>819.8</ele>
        <time>2021-10-14T14:48:21Z</time>
      </trkpt>
      <trkpt lat="40.9615230" lon="-5.6674440">
        <ele>820.0</ele>
        <time>2021-10-14T14:48:23Z</time>
      </trkpt>
      <trkpt lat="40.9615230" lon="-5.6674440">
        <ele>820.0</ele>
        <time>2021-10-14T14:48:24Z</time>
      </trkpt>
      <trkpt lat="40.9613100" lon="-5.6674600">
        <ele>819.8</ele>
        <time>2021-10-14T14:51:43Z</time>
      </trkpt>
      <trkpt lat="40.9612850" lon="-5.6674690">
        <ele>819.8</ele>
        <time>2021-10-14T14:51:44Z</time>
      </trkpt>
      <trkpt lat="40.9612650" lon="-5.6674740">
        <ele>819.8</ele>
        <time>2021-10-14T14:51:45Z</time>
      </trkpt>
      <trkpt lat="40.9611700" lon="-5.6675060">
        <ele>819.6</ele>
        <time>2021-10-14T14:51:49Z</time>
      </trkpt>
      <trkpt lat="40.9611510" lon="-5.6675130">
        <ele>819.6</ele>
        <time>2021-10-14T14:51:50Z</time>
      </trkpt>
      <trkpt lat="40.9611200" lon="-5.6675330">
        <ele>819.2</ele>
        <time>2021-10-14T14:51:52Z</time>
      </trkpt>
      <trkpt lat="40.9610710" lon="-5.6675620">
        <ele>819.0</ele>
        <time>2021-10-14T14:51:55Z</time>
      </trkpt>
      <trkpt lat="40.9609490" lon="-5.6676440">
        <ele>819.0</ele>
        <time>2021-10-14T14:52:00Z</time>
      </trkpt>
      <trkpt lat="40.9609490" lon="-5.6676760">
        <ele>818.8</ele>
        <time>2021-10-14T14:52:04Z</time>
      </trkpt>
      <trkpt lat="40.9609300" lon="-5.6676510">
        <ele>818.6</ele>
        <time>2021-10-14T14:52:06Z</time>
      </trkpt>
      <trkpt lat="40.9609200" lon="-5.6676490">
        <ele>818.6</ele>
        <time>2021-10-14T14:52:08Z</time>
      </trkpt>
      <trkpt lat="40.9608390" lon="-5.6676760">
        <ele>818.2</ele>
        <time>2021-10-14T14:52:13Z</time>
      </trkpt>
      <trkpt lat="40.9608350" lon="-5.6676760">
        <ele>818.2</ele>
        <time>2021-10-14T14:52:14Z</time>
      </trkpt>
      <trkpt lat="40.9608350" lon="-5.6676760">
        <ele>818.2</ele>
        <time>2021-10-14T14:52:16Z</time>
      </trkpt>
      <trkpt lat="40.9604820" lon="-5.6679350">
        <ele>817.8</ele>
        <time>2021-10-14T15:01:22Z</time>
      </trkpt>
      <trkpt lat="40.9604600" lon="-5.6679440">
        <ele>817.8</ele>
        <time>2021-10-14T15:01:23Z</time>
      </trkpt>
      <trkpt lat="40.9604360" lon="-5.6679570">
        <ele>817.6</ele>
        <time>2021-10-14T15:01:24Z</time>
      </trkpt>
      <trkpt lat="40.9603470" lon="-5.6680330">
        <ele>817.2</ele>
        <time>2021-10-14T15:01:28Z</time>
      </trkpt>
      <trkpt lat="40.9602670" lon="-5.6680850">
        <ele>816.8</ele>
        <time>2021-10-14T15:01:31Z</time>
      </trkpt>
      <trkpt lat="40.9601220" lon="-5.6681950">
        <ele>816.0</ele>
        <time>2021-10-14T15:01:36Z</time>
      </trkpt>
      <trkpt lat="40.9600870" lon="-5.6682110">
        <ele>816.0</ele>
        <time>2021-10-14T15:01:37Z</time>
      </trkpt>
      <trkpt lat="40.9600640" lon="-5.6682130">
        <ele>815.8</ele>
        <time>2021-10-14T15:01:38Z</time>
      </trkpt>
      <trkpt lat="40.9600470" lon="-5.6682150">
        <ele>815.8</ele>
        <time>2021-10-14T15:01:39Z</time>
      </trkpt>
      <trkpt lat="40.9600170" lon="-5.6682290">
        <ele>815.4</ele>
        <time>2021-10-14T15:01:41Z</time>
      </trkpt>
      <trkpt lat="40.9599950" lon="-5.6682510">
        <ele>814.8</ele>
        <time>2021-10-14T15:01:45Z</time>
      </trkpt>
      <trkpt lat="40.9599880" lon="-5.6682400">
        <ele>814.6</ele>
        <time>2021-10-14T15:01:46Z</time>
      </trkpt>
      <trkpt lat="40.9599810" lon="-5.6682120">
        <ele>814.4</ele>
        <time>2021-10-14T15:01:48Z</time>
      </trkpt>
      <trkpt lat="40.9599470" lon="-5.6681350">
        <ele>814.0</ele>
        <time>2021-10-14T15:01:51Z</time>
      </trkpt>
      <trkpt lat="40.9599090" lon="-5.6680550">
        <ele>813.6</ele>
        <time>2021-10-14T15:01:54Z</time>
      </trkpt>
      <trkpt lat="40.9598730" lon="-5.6679920">
        <ele>813.0</ele>
        <time>2021-10-14T15:01:56Z</time>
      </trkpt>
      <trkpt lat="40.9598260" lon="-5.6678590">
        <ele>812.6</ele>
        <time>2021-10-14T15:01:59Z</time>
      </trkpt>
      <trkpt lat="40.9597960" lon="-5.6677760">
        <ele>811.8</ele>
        <time>2021-10-14T15:02:01Z</time>
      </trkpt>
      <trkpt lat="40.9597790" lon="-5.6677410">
        <ele>811.6</ele>
        <time>2021-10-14T15:02:02Z</time>
      </trkpt>
      <trkpt lat="40.9597000" lon="-5.6676170">
        <ele>810.4</ele>
        <time>2021-10-14T15:02:06Z</time>
      </trkpt>
      <trkpt lat="40.9596820" lon="-5.6675980">
        <ele>810.0</ele>
        <time>2021-10-14T15:02:07Z</time>
      </trkpt>
      <trkpt lat="40.9596400" lon="-5.6676080">
        <ele>809.4</ele>
        <time>2021-10-14T15:02:09Z</time>
      </trkpt>
      <trkpt lat="40.9595390" lon="-5.6677260">
        <ele>808.2</ele>
        <time>2021-10-14T15:02:13Z</time>
      </trkpt>
      <trkpt lat="40.9595190" lon="-5.6677480">
        <ele>808.0</ele>
        <time>2021-10-14T15:02:14Z</time>
      </trkpt>
      <trkpt lat="40.9594750" lon="-5.6677950">
        <ele>807.0</ele>
        <time>2021-10-14T15:02:16Z</time>
      </trkpt>
      <trkpt lat="40.9594080" lon="-5.6678310">
        <ele>806.2</ele>
        <time>2021-10-14T15:02:19Z</time>
      </trkpt>
      <trkpt lat="40.9593970" lon="-5.6678420">
        <ele>805.8</ele>
        <time>2021-10-14T15:02:20Z</time>
      </trkpt>
      <trkpt lat="40.9593920" lon="-5.6678490">
        <ele>805.2</ele>
        <time>2021-10-14T15:02:23Z</time>
      </trkpt>
      <trkpt lat="40.9593920" lon="-5.6678490">
        <ele>804.6</ele>
        <time>2021-10-14T15:02:24Z</time>
      </trkpt>
      <trkpt lat="40.9593960" lon="-5.6678770">
        <ele>804.8</ele>
        <time>2021-10-14T15:21:07Z</time>
      </trkpt>
      <trkpt lat="40.9594000" lon="-5.6679360">
        <ele>804.6</ele>
        <time>2021-10-14T15:21:09Z</time>
      </trkpt>
      <trkpt lat="40.9594060" lon="-5.6680910">
        <ele>804.6</ele>
        <time>2021-10-14T15:21:13Z</time>
      </trkpt>
      <trkpt lat="40.9594140" lon="-5.6682030">
        <ele>804.2</ele>
        <time>2021-10-14T15:21:16Z</time>
      </trkpt>
      <trkpt lat="40.9594280" lon="-5.6683340">
        <ele>803.6</ele>
        <time>2021-10-14T15:21:20Z</time>
      </trkpt>
      <trkpt lat="40.9594320" lon="-5.6683710">
        <ele>803.4</ele>
        <time>2021-10-14T15:21:21Z</time>
      </trkpt>
      <trkpt lat="40.9594170" lon="-5.6685740">
        <ele>802.4</ele>
        <time>2021-10-14T15:21:25Z</time>
      </trkpt>
      <trkpt lat="40.9594140" lon="-5.6686190">
        <ele>802.0</ele>
        <time>2021-10-14T15:21:26Z</time>
      </trkpt>
      <trkpt lat="40.9594080" lon="-5.6687310">
        <ele>801.2</ele>
        <time>2021-10-14T15:21:29Z</time>
      </trkpt>
      <trkpt lat="40.9594080" lon="-5.6687750">
        <ele>800.6</ele>
        <time>2021-10-14T15:21:31Z</time>
      </trkpt>
      <trkpt lat="40.9594100" lon="-5.6688290">
        <ele>800.2</ele>
        <time>2021-10-14T15:21:33Z</time>
      </trkpt>
      <trkpt lat="40.9594090" lon="-5.6688680">
        <ele>800.0</ele>
        <time>2021-10-14T15:21:35Z</time>
      </trkpt>
      <trkpt lat="40.9593970" lon="-5.6688940">
        <ele>799.8</ele>
        <time>2021-10-14T15:21:37Z</time>
      </trkpt>
      <trkpt lat="40.9593950" lon="-5.6688980">
        <ele>799.6</ele>
        <time>2021-10-14T15:21:38Z</time>
      </trkpt>
      <trkpt lat="40.9593740" lon="-5.6689200">
        <ele>799.6</ele>
        <time>2021-10-14T15:21:41Z</time>
      </trkpt>
      <trkpt lat="40.9593430" lon="-5.6689760">
        <ele>799.4</ele>
        <time>2021-10-14T15:21:45Z</time>
      </trkpt>
      <trkpt lat="40.9593280" lon="-5.6689950">
        <ele>799.4</ele>
        <time>2021-10-14T15:21:46Z</time>
      </trkpt>
      <trkpt lat="40.9592710" lon="-5.6691310">
        <ele>799.2</ele>
        <time>2021-10-14T15:21:51Z</time>
      </trkpt>
      <trkpt lat="40.9592600" lon="-5.6691560">
        <ele>799.0</ele>
        <time>2021-10-14T15:21:52Z</time>
      </trkpt>
      <trkpt lat="40.9591920" lon="-5.6692130">
        <ele>798.6</ele>
        <time>2021-10-14T15:21:56Z</time>
      </trkpt>
      <trkpt lat="40.9591650" lon="-5.6692410">
        <ele>798.6</ele>
        <time>2021-10-14T15:21:58Z</time>
      </trkpt>
      <trkpt lat="40.9591040" lon="-5.6692840">
        <ele>798.2</ele>
        <time>2021-10-14T15:22:02Z</time>
      </trkpt>
      <trkpt lat="40.9590710" lon="-5.6693070">
        <ele>797.8</ele>
        <time>2021-10-14T15:22:04Z</time>
      </trkpt>
      <trkpt lat="40.9589620" lon="-5.6693320">
        <ele>797.2</ele>
        <time>2021-10-14T15:22:11Z</time>
      </trkpt>
      <trkpt lat="40.9588470" lon="-5.6694070">
        <ele>797.2</ele>
        <time>2021-10-14T15:22:18Z</time>
      </trkpt>
      <trkpt lat="40.9587730" lon="-5.6694630">
        <ele>797.4</ele>
        <time>2021-10-14T15:22:22Z</time>
      </trkpt>
      <trkpt lat="40.9586850" lon="-5.6695130">
        <ele>797.4</ele>
        <time>2021-10-14T15:22:26Z</time>
      </trkpt>
      <trkpt lat="40.9586440" lon="-5.6695420">
        <ele>797.2</ele>
        <time>2021-10-14T15:22:28Z</time>
      </trkpt>
      <trkpt lat="40.9585650" lon="-5.6695970">
        <ele>797.4</ele>
        <time>2021-10-14T15:22:32Z</time>
      </trkpt>
      <trkpt lat="40.9585240" lon="-5.6696290">
        <ele>797.4</ele>
        <time>2021-10-14T15:22:34Z</time>
      </trkpt>
      <trkpt lat="40.9583690" lon="-5.6697500">
        <ele>797.6</ele>
        <time>2021-10-14T15:22:41Z</time>
      </trkpt>
      <trkpt lat="40.9583080" lon="-5.6697880">
        <ele>797.4</ele>
        <time>2021-10-14T15:22:44Z</time>
      </trkpt>
      <trkpt lat="40.9581760" lon="-5.6698950">
        <ele>797.4</ele>
        <time>2021-10-14T15:22:51Z</time>
      </trkpt>
      <trkpt lat="40.9579890" lon="-5.6700510">
        <ele>797.8</ele>
        <time>2021-10-14T15:23:02Z</time>
      </trkpt>
      <trkpt lat="40.9578960" lon="-5.6701130">
        <ele>797.6</ele>
        <time>2021-10-14T15:23:07Z</time>
      </trkpt>
      <trkpt lat="40.9578390" lon="-5.6701330">
        <ele>798.0</ele>
        <time>2021-10-14T15:23:12Z</time>
      </trkpt>
      <trkpt lat="40.9577740" lon="-5.6701990">
        <ele>797.8</ele>
        <time>2021-10-14T15:23:18Z</time>
      </trkpt>
      <trkpt lat="40.9576770" lon="-5.6702730">
        <ele>797.6</ele>
        <time>2021-10-14T15:23:24Z</time>
      </trkpt>
      <trkpt lat="40.9575590" lon="-5.6703700">
        <ele>797.8</ele>
        <time>2021-10-14T15:23:31Z</time>
      </trkpt>
      <trkpt lat="40.9574460" lon="-5.6704450">
        <ele>797.4</ele>
        <time>2021-10-14T15:23:39Z</time>
      </trkpt>
      <trkpt lat="40.9573720" lon="-5.6704580">
        <ele>797.2</ele>
        <time>2021-10-14T15:23:47Z</time>
      </trkpt>
      <trkpt lat="40.9573720" lon="-5.6704580">
        <ele>797.2</ele>
        <time>2021-10-14T15:23:48Z</time>
      </trkpt>
      <trkpt lat="40.9573250" lon="-5.6704940">
        <ele>797.4</ele>
        <time>2021-10-14T15:26:53Z</time>
      </trkpt>
      <trkpt lat="40.9572810" lon="-5.6705320">
        <ele>797.4</ele>
        <time>2021-10-14T15:26:55Z</time>
      </trkpt>
      <trkpt lat="40.9570530" lon="-5.6706860">
        <ele>797.2</ele>
        <time>2021-10-14T15:27:05Z</time>
      </trkpt>
      <trkpt lat="40.9569570" lon="-5.6707510">
        <ele>797.2</ele>
        <time>2021-10-14T15:27:09Z</time>
      </trkpt>
      <trkpt lat="40.9568760" lon="-5.6708180">
        <ele>797.2</ele>
        <time>2021-10-14T15:27:13Z</time>
      </trkpt>
      <trkpt lat="40.9568390" lon="-5.6708450">
        <ele>797.0</ele>
        <time>2021-10-14T15:27:15Z</time>
      </trkpt>
      <trkpt lat="40.9566570" lon="-5.6709630">
        <ele>797.2</ele>
        <time>2021-10-14T15:27:23Z</time>
      </trkpt>
      <trkpt lat="40.9565220" lon="-5.6710600">
        <ele>796.8</ele>
        <time>2021-10-14T15:27:28Z</time>
      </trkpt>
      <trkpt lat="40.9564780" lon="-5.6711020">
        <ele>796.6</ele>
        <time>2021-10-14T15:27:30Z</time>
      </trkpt>
      <trkpt lat="40.9564490" lon="-5.6711270">
        <ele>796.6</ele>
        <time>2021-10-14T15:27:31Z</time>
      </trkpt>
      <trkpt lat="40.9563180" lon="-5.6712260">
        <ele>796.0</ele>
        <time>2021-10-14T15:27:36Z</time>
      </trkpt>
      <trkpt lat="40.9562770" lon="-5.6712410">
        <ele>795.8</ele>
        <time>2021-10-14T15:27:38Z</time>
      </trkpt>
      <trkpt lat="40.9562070" lon="-5.6711980">
        <ele>795.4</ele>
        <time>2021-10-14T15:27:41Z</time>
      </trkpt>
      <trkpt lat="40.9561690" lon="-5.6711790">
        <ele>795.4</ele>
        <time>2021-10-14T15:27:43Z</time>
      </trkpt>
      <trkpt lat="40.9561570" lon="-5.6711650">
        <ele>795.4</ele>
        <time>2021-10-14T15:27:44Z</time>
      </trkpt>
      <trkpt lat="40.9561480" lon="-5.6711240">
        <ele>795.2</ele>
        <time>2021-10-14T15:27:46Z</time>
      </trkpt>
      <trkpt lat="40.9561410" lon="-5.6711060">
        <ele>795.2</ele>
        <time>2021-10-14T15:27:49Z</time>
      </trkpt>
      <trkpt lat="40.9561730" lon="-5.6711180">
        <ele>794.8</ele>
        <time>2021-10-14T15:28:46Z</time>
      </trkpt>
      <trkpt lat="40.9561990" lon="-5.6711500">
        <ele>794.8</ele>
        <time>2021-10-14T15:28:48Z</time>
      </trkpt>
      <trkpt lat="40.9562200" lon="-5.6712190">
        <ele>794.6</ele>
        <time>2021-10-14T15:28:52Z</time>
      </trkpt>
      <trkpt lat="40.9562170" lon="-5.6712400">
        <ele>794.6</ele>
        <time>2021-10-14T15:28:56Z</time>
      </trkpt>
      <trkpt lat="40.9562230" lon="-5.6712910">
        <ele>795.2</ele>
        <time>2021-10-14T15:29:09Z</time>
      </trkpt>
      <trkpt lat="40.9562520" lon="-5.6714220">
        <ele>795.2</ele>
        <time>2021-10-14T15:29:13Z</time>
      </trkpt>
      <trkpt lat="40.9562630" lon="-5.6714540">
        <ele>795.2</ele>
        <time>2021-10-14T15:29:14Z</time>
      </trkpt>
      <trkpt lat="40.9562820" lon="-5.6715140">
        <ele>795.2</ele>
        <time>2021-10-14T15:29:16Z</time>
      </trkpt>
      <trkpt lat="40.9562890" lon="-5.6715720">
        <ele>795.2</ele>
        <time>2021-10-14T15:29:18Z</time>
      </trkpt>
      <trkpt lat="40.9562790" lon="-5.6716060">
        <ele>795.4</ele>
        <time>2021-10-14T15:29:19Z</time>
      </trkpt>
      <trkpt lat="40.9561840" lon="-5.6716980">
        <ele>795.4</ele>
        <time>2021-10-14T15:29:24Z</time>
      </trkpt>
      <trkpt lat="40.9560790" lon="-5.6717420">
        <ele>795.4</ele>
        <time>2021-10-14T15:29:30Z</time>
      </trkpt>
      <trkpt lat="40.9560620" lon="-5.6717420">
        <ele>795.2</ele>
        <time>2021-10-14T15:29:33Z</time>
      </trkpt>
      <trkpt lat="40.9560460" lon="-5.6716870">
        <ele>795.0</ele>
        <time>2021-10-14T15:29:53Z</time>
      </trkpt>
      <trkpt lat="40.9560440" lon="-5.6715740">
        <ele>795.0</ele>
        <time>2021-10-14T15:29:57Z</time>
      </trkpt>
      <trkpt lat="40.9560330" lon="-5.6715510">
        <ele>795.2</ele>
        <time>2021-10-14T15:29:58Z</time>
      </trkpt>
      <trkpt lat="40.9560080" lon="-5.6714770">
        <ele>795.2</ele>
        <time>2021-10-14T15:30:01Z</time>
      </trkpt>
      <trkpt lat="40.9559890" lon="-5.6714010">
        <ele>795.2</ele>
        <time>2021-10-14T15:30:04Z</time>
      </trkpt>
      <trkpt lat="40.9559640" lon="-5.6712770">
        <ele>795.6</ele>
        <time>2021-10-14T15:30:08Z</time>
      </trkpt>
      <trkpt lat="40.9559270" lon="-5.6711800">
        <ele>795.6</ele>
        <time>2021-10-14T15:30:11Z</time>
      </trkpt>
      <trkpt lat="40.9557980" lon="-5.6709050">
        <ele>795.6</ele>
        <time>2021-10-14T15:30:19Z</time>
      </trkpt>
      <trkpt lat="40.9557020" lon="-5.6707490">
        <ele>795.6</ele>
        <time>2021-10-14T15:30:25Z</time>
      </trkpt>
      <trkpt lat="40.9556190" lon="-5.6706310">
        <ele>795.6</ele>
        <time>2021-10-14T15:30:28Z</time>
      </trkpt>
      <trkpt lat="40.9554960" lon="-5.6704830">
        <ele>795.6</ele>
        <time>2021-10-14T15:30:33Z</time>
      </trkpt>
      <trkpt lat="40.9553630" lon="-5.6703520">
        <ele>795.8</ele>
        <time>2021-10-14T15:30:39Z</time>
      </trkpt>
      <trkpt lat="40.9552460" lon="-5.6702460">
        <ele>796.0</ele>
        <time>2021-10-14T15:30:46Z</time>
      </trkpt>
      <trkpt lat="40.9552100" lon="-5.6702160">
        <ele>796.2</ele>
        <time>2021-10-14T15:30:49Z</time>
      </trkpt>
      <trkpt lat="40.9551780" lon="-5.6702020">
        <ele>796.8</ele>
        <time>2021-10-14T15:30:52Z</time>
      </trkpt>
      <trkpt lat="40.9551250" lon="-5.6701700">
        <ele>797.0</ele>
        <time>2021-10-14T15:30:56Z</time>
      </trkpt>
      <trkpt lat="40.9550910" lon="-5.6701620">
        <ele>797.0</ele>
        <time>2021-10-14T15:30:58Z</time>
      </trkpt>
      <trkpt lat="40.9550300" lon="-5.6701570">
        <ele>797.2</ele>
        <time>2021-10-14T15:31:02Z</time>
      </trkpt>
      <trkpt lat="40.9549760" lon="-5.6701480">
        <ele>797.4</ele>
        <time>2021-10-14T15:31:05Z</time>
      </trkpt>
      <trkpt lat="40.9549350" lon="-5.6701480">
        <ele>797.4</ele>
        <time>2021-10-14T15:31:07Z</time>
      </trkpt>
      <trkpt lat="40.9547550" lon="-5.6701250">
        <ele>797.8</ele>
        <time>2021-10-14T15:31:15Z</time>
      </trkpt>
      <trkpt lat="40.9545630" lon="-5.6700990">
        <ele>798.6</ele>
        <time>2021-10-14T15:31:23Z</time>
      </trkpt>
      <trkpt lat="40.9544770" lon="-5.6700940">
        <ele>799.0</ele>
        <time>2021-10-14T15:31:26Z</time>
      </trkpt>
      <trkpt lat="40.9543990" lon="-5.6700950">
        <ele>799.2</ele>
        <time>2021-10-14T15:31:29Z</time>
      </trkpt>
      <trkpt lat="40.9543500" lon="-5.6700920">
        <ele>799.4</ele>
        <time>2021-10-14T15:31:31Z</time>
      </trkpt>
      <trkpt lat="40.9542490" lon="-5.6700960">
        <ele>799.6</ele>
        <time>2021-10-14T15:31:35Z</time>
      </trkpt>
      <trkpt lat="40.9541660" lon="-5.6700960">
        <ele>800.0</ele>
        <time>2021-10-14T15:31:38Z</time>
      </trkpt>
      <trkpt lat="40.9540620" lon="-5.6700890">
        <ele>800.6</ele>
        <time>2021-10-14T15:31:42Z</time>
      </trkpt>
      <trkpt lat="40.9538980" lon="-5.6700690">
        <ele>801.0</ele>
        <time>2021-10-14T15:31:49Z</time>
      </trkpt>
      <trkpt lat="40.9537790" lon="-5.6700700">
        <ele>801.6</ele>
        <time>2021-10-14T15:31:54Z</time>
      </trkpt>
      <trkpt lat="40.9536510" lon="-5.6700780">
        <ele>802.2</ele>
        <time>2021-10-14T15:32:00Z</time>
      </trkpt>
      <trkpt lat="40.9535940" lon="-5.6700790">
        <ele>802.6</ele>
        <time>2021-10-14T15:32:03Z</time>
      </trkpt>
      <trkpt lat="40.9535760" lon="-5.6700810">
        <ele>802.6</ele>
        <time>2021-10-14T15:32:04Z</time>
      </trkpt>
      <trkpt lat="40.9535220" lon="-5.6700790">
        <ele>802.8</ele>
        <time>2021-10-14T15:32:06Z</time>
      </trkpt>
      <trkpt lat="40.9534950" lon="-5.6700720">
        <ele>803.0</ele>
        <time>2021-10-14T15:32:07Z</time>
      </trkpt>
      <trkpt lat="40.9534310" lon="-5.6700700">
        <ele>803.2</ele>
        <time>2021-10-14T15:32:10Z</time>
      </trkpt>
      <trkpt lat="40.9533500" lon="-5.6700710">
        <ele>803.8</ele>
        <time>2021-10-14T15:32:14Z</time>
      </trkpt>
      <trkpt lat="40.9533120" lon="-5.6700690">
        <ele>804.0</ele>
        <time>2021-10-14T15:32:16Z</time>
      </trkpt>
      <trkpt lat="40.9532030" lon="-5.6700800">
        <ele>804.4</ele>
        <time>2021-10-14T15:32:21Z</time>
      </trkpt>
      <trkpt lat="40.9531840" lon="-5.6700850">
        <ele>804.4</ele>
        <time>2021-10-14T15:32:22Z</time>
      </trkpt>
      <trkpt lat="40.9531670" lon="-5.6700930">
        <ele>804.6</ele>
        <time>2021-10-14T15:32:23Z</time>
      </trkpt>
      <trkpt lat="40.9531320" lon="-5.6701290">
        <ele>804.8</ele>
        <time>2021-10-14T15:32:25Z</time>
      </trkpt>
      <trkpt lat="40.9530970" lon="-5.6701610">
        <ele>805.0</ele>
        <time>2021-10-14T15:32:27Z</time>
      </trkpt>
      <trkpt lat="40.9530240" lon="-5.6702530">
        <ele>805.6</ele>
        <time>2021-10-14T15:32:32Z</time>
      </trkpt>
      <trkpt lat="40.9529120" lon="-5.6703420">
        <ele>806.0</ele>
        <time>2021-10-14T15:32:38Z</time>
      </trkpt>
      <trkpt lat="40.9528950" lon="-5.6703560">
        <ele>806.2</ele>
        <time>2021-10-14T15:32:39Z</time>
      </trkpt>
      <trkpt lat="40.9528780" lon="-5.6703710">
        <ele>806.4</ele>
        <time>2021-10-14T15:32:40Z</time>
      </trkpt>
      <trkpt lat="40.9528420" lon="-5.6703940">
        <ele>806.6</ele>
        <time>2021-10-14T15:32:42Z</time>
      </trkpt>
      <trkpt lat="40.9528020" lon="-5.6704130">
        <ele>806.8</ele>
        <time>2021-10-14T15:32:44Z</time>
      </trkpt>
      <trkpt lat="40.9527630" lon="-5.6704320">
        <ele>807.0</ele>
        <time>2021-10-14T15:32:46Z</time>
      </trkpt>
      <trkpt lat="40.9527470" lon="-5.6704420">
        <ele>807.2</ele>
        <time>2021-10-14T15:32:47Z</time>
      </trkpt>
      <trkpt lat="40.9526840" lon="-5.6704750">
        <ele>807.6</ele>
        <time>2021-10-14T15:32:51Z</time>
      </trkpt>
      <trkpt lat="40.9526600" lon="-5.6704910">
        <ele>807.8</ele>
        <time>2021-10-14T15:32:53Z</time>
      </trkpt>
      <trkpt lat="40.9525800" lon="-5.6705160">
        <ele>808.2</ele>
        <time>2021-10-14T15:32:58Z</time>
      </trkpt>
      <trkpt lat="40.9525380" lon="-5.6705310">
        <ele>808.4</ele>
        <time>2021-10-14T15:33:00Z</time>
      </trkpt>
      <trkpt lat="40.9525050" lon="-5.6705620">
        <ele>808.6</ele>
        <time>2021-10-14T15:33:02Z</time>
      </trkpt>
      <trkpt lat="40.9524880" lon="-5.6706010">
        <ele>808.6</ele>
        <time>2021-10-14T15:33:04Z</time>
      </trkpt>
      <trkpt lat="40.9524790" lon="-5.6706240">
        <ele>808.8</ele>
        <time>2021-10-14T15:33:05Z</time>
      </trkpt>
      <trkpt lat="40.9524350" lon="-5.6706930">
        <ele>809.0</ele>
        <time>2021-10-14T15:33:08Z</time>
      </trkpt>
      <trkpt lat="40.9524180" lon="-5.6707160">
        <ele>809.4</ele>
        <time>2021-10-14T15:33:09Z</time>
      </trkpt>
      <trkpt lat="40.9523500" lon="-5.6707470">
        <ele>810.0</ele>
        <time>2021-10-14T15:33:12Z</time>
      </trkpt>
      <trkpt lat="40.9522370" lon="-5.6707310">
        <ele>810.4</ele>
        <time>2021-10-14T15:33:16Z</time>
      </trkpt>
      <trkpt lat="40.9521850" lon="-5.6707410">
        <ele>810.6</ele>
        <time>2021-10-14T15:33:18Z</time>
      </trkpt>
      <trkpt lat="40.9520210" lon="-5.6707730">
        <ele>811.2</ele>
        <time>2021-10-14T15:33:25Z</time>
      </trkpt>
      <trkpt lat="40.9519380" lon="-5.6707710">
        <ele>811.4</ele>
        <time>2021-10-14T15:33:28Z</time>
      </trkpt>
      <trkpt lat="40.9518680" lon="-5.6707740">
        <ele>811.6</ele>
        <time>2021-10-14T15:33:31Z</time>
      </trkpt>
      <trkpt lat="40.9518230" lon="-5.6707680">
        <ele>812.0</ele>
        <time>2021-10-14T15:33:33Z</time>
      </trkpt>
      <trkpt lat="40.9517050" lon="-5.6707800">
        <ele>812.8</ele>
        <time>2021-10-14T15:33:38Z</time>
      </trkpt>
      <trkpt lat="40.9516850" lon="-5.6707780">
        <ele>812.8</ele>
        <time>2021-10-14T15:33:39Z</time>
      </trkpt>
      <trkpt lat="40.9516420" lon="-5.6707720">
        <ele>813.0</ele>
        <time>2021-10-14T15:33:41Z</time>
      </trkpt>
      <trkpt lat="40.9515750" lon="-5.6707640">
        <ele>813.2</ele>
        <time>2021-10-14T15:33:44Z</time>
      </trkpt>
      <trkpt lat="40.9515170" lon="-5.6707800">
        <ele>813.4</ele>
        <time>2021-10-14T15:33:47Z</time>
      </trkpt>
      <trkpt lat="40.9514200" lon="-5.6707800">
        <ele>813.8</ele>
        <time>2021-10-14T15:33:51Z</time>
      </trkpt>
      <trkpt lat="40.9513990" lon="-5.6707800">
        <ele>813.8</ele>
        <time>2021-10-14T15:33:52Z</time>
      </trkpt>
      <trkpt lat="40.9513340" lon="-5.6707910">
        <ele>814.0</ele>
        <time>2021-10-14T15:33:55Z</time>
      </trkpt>
      <trkpt lat="40.9511950" lon="-5.6708030">
        <ele>814.8</ele>
        <time>2021-10-14T15:34:01Z</time>
      </trkpt>
      <trkpt lat="40.9511770" lon="-5.6708060">
        <ele>815.0</ele>
        <time>2021-10-14T15:34:02Z</time>
      </trkpt>
      <trkpt lat="40.9511570" lon="-5.6708090">
        <ele>815.0</ele>
        <time>2021-10-14T15:34:03Z</time>
      </trkpt>
      <trkpt lat="40.9510010" lon="-5.6708270">
        <ele>815.8</ele>
        <time>2021-10-14T15:34:11Z</time>
      </trkpt>
      <trkpt lat="40.9509420" lon="-5.6708270">
        <ele>816.0</ele>
        <time>2021-10-14T15:34:14Z</time>
      </trkpt>
      <trkpt lat="40.9508080" lon="-5.6708300">
        <ele>816.6</ele>
        <time>2021-10-14T15:34:19Z</time>
      </trkpt>
      <trkpt lat="40.9507420" lon="-5.6708280">
        <ele>817.0</ele>
        <time>2021-10-14T15:34:22Z</time>
      </trkpt>
      <trkpt lat="40.9506940" lon="-5.6708260">
        <ele>817.2</ele>
        <time>2021-10-14T15:34:24Z</time>
      </trkpt>
      <trkpt lat="40.9505880" lon="-5.6708250">
        <ele>817.4</ele>
        <time>2021-10-14T15:34:28Z</time>
      </trkpt>
      <trkpt lat="40.9504450" lon="-5.6708330">
        <ele>817.8</ele>
        <time>2021-10-14T15:34:34Z</time>
      </trkpt>
      <trkpt lat="40.9503920" lon="-5.6708420">
        <ele>818.0</ele>
        <time>2021-10-14T15:34:36Z</time>
      </trkpt>
      <trkpt lat="40.9503410" lon="-5.6708410">
        <ele>818.2</ele>
        <time>2021-10-14T15:34:38Z</time>
      </trkpt>
      <trkpt lat="40.9502440" lon="-5.6708570">
        <ele>818.4</ele>
        <time>2021-10-14T15:34:42Z</time>
      </trkpt>
      <trkpt lat="40.9501570" lon="-5.6708340">
        <ele>818.6</ele>
        <time>2021-10-14T15:34:45Z</time>
      </trkpt>
      <trkpt lat="40.9500500" lon="-5.6708280">
        <ele>818.8</ele>
        <time>2021-10-14T15:34:49Z</time>
      </trkpt>
      <trkpt lat="40.9499950" lon="-5.6708160">
        <ele>818.8</ele>
        <time>2021-10-14T15:34:51Z</time>
      </trkpt>
      <trkpt lat="40.9499530" lon="-5.6707970">
        <ele>819.0</ele>
        <time>2021-10-14T15:34:53Z</time>
      </trkpt>
      <trkpt lat="40.9499260" lon="-5.6707900">
        <ele>819.0</ele>
        <time>2021-10-14T15:34:54Z</time>
      </trkpt>
      <trkpt lat="40.9498440" lon="-5.6707710">
        <ele>819.2</ele>
        <time>2021-10-14T15:34:57Z</time>
      </trkpt>
      <trkpt lat="40.9498190" lon="-5.6707660">
        <ele>819.2</ele>
        <time>2021-10-14T15:34:58Z</time>
      </trkpt>
      <trkpt lat="40.9497110" lon="-5.6707370">
        <ele>819.4</ele>
        <time>2021-10-14T15:35:02Z</time>
      </trkpt>
      <trkpt lat="40.9496190" lon="-5.6707540">
        <ele>819.4</ele>
        <time>2021-10-14T15:35:07Z</time>
      </trkpt>
      <trkpt lat="40.9496160" lon="-5.6707860">
        <ele>819.4</ele>
        <time>2021-10-14T15:35:08Z</time>
      </trkpt>
      <trkpt lat="40.9495890" lon="-5.6710660">
        <ele>819.4</ele>
        <time>2021-10-14T15:35:16Z</time>
      </trkpt>
      <trkpt lat="40.9495890" lon="-5.6710710">
        <ele>819.4</ele>
        <time>2021-10-14T15:35:19Z</time>
      </trkpt>
      <trkpt lat="40.9495290" lon="-5.6711030">
        <ele>819.4</ele>
        <time>2021-10-14T15:35:36Z</time>
      </trkpt>
      <trkpt lat="40.9494930" lon="-5.6711270">
        <ele>819.2</ele>
        <time>2021-10-14T15:35:39Z</time>
      </trkpt>
      <trkpt lat="40.9494580" lon="-5.6711310">
        <ele>819.2</ele>
        <time>2021-10-14T15:35:41Z</time>
      </trkpt>
      <trkpt lat="40.9494390" lon="-5.6711300">
        <ele>819.2</ele>
        <time>2021-10-14T15:35:42Z</time>
      </trkpt>
      <trkpt lat="40.9493430" lon="-5.6711210">
        <ele>819.4</ele>
        <time>2021-10-14T15:35:47Z</time>
      </trkpt>
      <trkpt lat="40.9493210" lon="-5.6711390">
        <ele>819.4</ele>
        <time>2021-10-14T15:35:48Z</time>
      </trkpt>
      <trkpt lat="40.9491670" lon="-5.6712410">
        <ele>820.0</ele>
        <time>2021-10-14T15:35:55Z</time>
      </trkpt>
      <trkpt lat="40.9490120" lon="-5.6713550">
        <ele>820.2</ele>
        <time>2021-10-14T15:36:04Z</time>
      </trkpt>
      <trkpt lat="40.9489850" lon="-5.6713870">
        <ele>820.0</ele>
        <time>2021-10-14T15:36:07Z</time>
      </trkpt>
      <trkpt lat="40.9489470" lon="-5.6713790">
        <ele>820.0</ele>
        <time>2021-10-14T15:36:10Z</time>
      </trkpt>
      <trkpt lat="40.9488280" lon="-5.6713700">
        <ele>819.8</ele>
        <time>2021-10-14T15:36:15Z</time>
      </trkpt>
      <trkpt lat="40.9486290" lon="-5.6713460">
        <ele>820.2</ele>
        <time>2021-10-14T15:36:22Z</time>
      </trkpt>
      <trkpt lat="40.9484030" lon="-5.6713170">
        <ele>820.4</ele>
        <time>2021-10-14T15:36:29Z</time>
      </trkpt>
      <trkpt lat="40.9483460" lon="-5.6713120">
        <ele>820.4</ele>
        <time>2021-10-14T15:36:31Z</time>
      </trkpt>
      <trkpt lat="40.9482290" lon="-5.6712870">
        <ele>820.6</ele>
        <time>2021-10-14T15:36:35Z</time>
      </trkpt>
      <trkpt lat="40.9481600" lon="-5.6712860">
        <ele>821.0</ele>
        <time>2021-10-14T15:36:38Z</time>
      </trkpt>
      <trkpt lat="40.9481440" lon="-5.6712900">
        <ele>821.0</ele>
        <time>2021-10-14T15:36:39Z</time>
      </trkpt>
      <trkpt lat="40.9481230" lon="-5.6712890">
        <ele>821.2</ele>
        <time>2021-10-14T15:36:41Z</time>
      </trkpt>
      <trkpt lat="40.9480830" lon="-5.6712880">
        <ele>821.2</ele>
        <time>2021-10-14T15:36:43Z</time>
      </trkpt>
      <trkpt lat="40.9480580" lon="-5.6712830">
        <ele>821.4</ele>
        <time>2021-10-14T15:36:44Z</time>
      </trkpt>
      <trkpt lat="40.9480030" lon="-5.6712680">
        <ele>821.6</ele>
        <time>2021-10-14T15:36:46Z</time>
      </trkpt>
      <trkpt lat="40.9479810" lon="-5.6712640">
        <ele>821.6</ele>
        <time>2021-10-14T15:36:47Z</time>
      </trkpt>
      <trkpt lat="40.9477730" lon="-5.6712190">
        <ele>822.2</ele>
        <time>2021-10-14T15:36:55Z</time>
      </trkpt>
      <trkpt lat="40.9475950" lon="-5.6712330">
        <ele>822.4</ele>
        <time>2021-10-14T15:37:01Z</time>
      </trkpt>
      <trkpt lat="40.9474600" lon="-5.6711990">
        <ele>822.4</ele>
        <time>2021-10-14T15:37:05Z</time>
      </trkpt>
      <trkpt lat="40.9473830" lon="-5.6711770">
        <ele>822.8</ele>
        <time>2021-10-14T15:37:07Z</time>
      </trkpt>
      <trkpt lat="40.9473510" lon="-5.6711660">
        <ele>822.8</ele>
        <time>2021-10-14T15:37:08Z</time>
      </trkpt>
      <trkpt lat="40.9471810" lon="-5.6711080">
        <ele>823.0</ele>
        <time>2021-10-14T15:37:13Z</time>
      </trkpt>
      <trkpt lat="40.9469100" lon="-5.6710640">
        <ele>823.2</ele>
        <time>2021-10-14T15:37:22Z</time>
      </trkpt>
      <trkpt lat="40.9467330" lon="-5.6710380">
        <ele>823.4</ele>
        <time>2021-10-14T15:37:28Z</time>
      </trkpt>
      <trkpt lat="40.9465130" lon="-5.6710050">
        <ele>823.6</ele>
        <time>2021-10-14T15:37:34Z</time>
      </trkpt>
      <trkpt lat="40.9463420" lon="-5.6709880">
        <ele>823.8</ele>
        <time>2021-10-14T15:37:40Z</time>
      </trkpt>
      <trkpt lat="40.9462980" lon="-5.6709790">
        <ele>823.8</ele>
        <time>2021-10-14T15:37:42Z</time>
      </trkpt>
      <trkpt lat="40.9461180" lon="-5.6709350">
        <ele>824.0</ele>
        <time>2021-10-14T15:37:47Z</time>
      </trkpt>
      <trkpt lat="40.9459170" lon="-5.6709100">
        <ele>824.0</ele>
        <time>2021-10-14T15:37:54Z</time>
      </trkpt>
      <trkpt lat="40.9456440" lon="-5.6708690">
        <ele>824.4</ele>
        <time>2021-10-14T15:38:03Z</time>
      </trkpt>
      <trkpt lat="40.9455110" lon="-5.6708600">
        <ele>824.6</ele>
        <time>2021-10-14T15:38:07Z</time>
      </trkpt>
      <trkpt lat="40.9454810" lon="-5.6708540">
        <ele>824.6</ele>
        <time>2021-10-14T15:38:08Z</time>
      </trkpt>
      <trkpt lat="40.9454150" lon="-5.6708360">
        <ele>824.8</ele>
        <time>2021-10-14T15:38:10Z</time>
      </trkpt>
      <trkpt lat="40.9452070" lon="-5.6708090">
        <ele>824.8</ele>
        <time>2021-10-14T15:38:16Z</time>
      </trkpt>
      <trkpt lat="40.9450110" lon="-5.6707820">
        <ele>825.2</ele>
        <time>2021-10-14T15:38:21Z</time>
      </trkpt>
      <trkpt lat="40.9448110" lon="-5.6707310">
        <ele>825.0</ele>
        <time>2021-10-14T15:38:26Z</time>
      </trkpt>
      <trkpt lat="40.9447290" lon="-5.6707390">
        <ele>824.6</ele>
        <time>2021-10-14T15:38:29Z</time>
      </trkpt>
      <trkpt lat="40.9446760" lon="-5.6707620">
        <ele>824.2</ele>
        <time>2021-10-14T15:38:32Z</time>
      </trkpt>
      <trkpt lat="40.9446740" lon="-5.6708070">
        <ele>824.2</ele>
        <time>2021-10-14T15:38:33Z</time>
      </trkpt>
      <trkpt lat="40.9446510" lon="-5.6711580">
        <ele>823.8</ele>
        <time>2021-10-14T15:38:40Z</time>
      </trkpt>
      <trkpt lat="40.9446450" lon="-5.6712770">
        <ele>823.6</ele>
        <time>2021-10-14T15:38:42Z</time>
      </trkpt>
      <trkpt lat="40.9446300" lon="-5.6714620">
        <ele>823.2</ele>
        <time>2021-10-14T15:38:45Z</time>
      </trkpt>
      <trkpt lat="40.9446100" lon="-5.6716550">
        <ele>822.8</ele>
        <time>2021-10-14T15:38:49Z</time>
      </trkpt>
      <trkpt lat="40.9446020" lon="-5.6717070">
        <ele>822.6</ele>
        <time>2021-10-14T15:38:50Z</time>
      </trkpt>
      <trkpt lat="40.9445640" lon="-5.6719410">
        <ele>821.6</ele>
        <time>2021-10-14T15:38:54Z</time>
      </trkpt>
      <trkpt lat="40.9445450" lon="-5.6720060">
        <ele>821.2</ele>
        <time>2021-10-14T15:38:55Z</time>
      </trkpt>
      <trkpt lat="40.9444980" lon="-5.6721960">
        <ele>820.4</ele>
        <time>2021-10-14T15:38:58Z</time>
      </trkpt>
      <trkpt lat="40.9444530" lon="-5.6723440">
        <ele>819.4</ele>
        <time>2021-10-14T15:39:00Z</time>
      </trkpt>
      <trkpt lat="40.9444320" lon="-5.6724010">
        <ele>818.6</ele>
        <time>2021-10-14T15:39:01Z</time>
      </trkpt>
      <trkpt lat="40.9443950" lon="-5.6724770">
        <ele>817.8</ele>
        <time>2021-10-14T15:39:02Z</time>
      </trkpt>
      <trkpt lat="40.9443080" lon="-5.6726330">
        <ele>816.8</ele>
        <time>2021-10-14T15:39:04Z</time>
      </trkpt>
      <trkpt lat="40.9442000" lon="-5.6727880">
        <ele>815.6</ele>
        <time>2021-10-14T15:39:06Z</time>
      </trkpt>
      <trkpt lat="40.9440720" lon="-5.6729410">
        <ele>814.4</ele>
        <time>2021-10-14T15:39:08Z</time>
      </trkpt>
      <trkpt lat="40.9439280" lon="-5.6730950">
        <ele>813.2</ele>
        <time>2021-10-14T15:39:10Z</time>
      </trkpt>
      <trkpt lat="40.9437740" lon="-5.6732550">
        <ele>812.0</ele>
        <time>2021-10-14T15:39:12Z</time>
      </trkpt>
      <trkpt lat="40.9436970" lon="-5.6733380">
        <ele>811.0</ele>
        <time>2021-10-14T15:39:13Z</time>
      </trkpt>
      <trkpt lat="40.9436190" lon="-5.6734200">
        <ele>810.4</ele>
        <time>2021-10-14T15:39:14Z</time>
      </trkpt>
      <trkpt lat="40.9435410" lon="-5.6735000">
        <ele>809.8</ele>
        <time>2021-10-14T15:39:15Z</time>
      </trkpt>
      <trkpt lat="40.9433990" lon="-5.6736510">
        <ele>808.8</ele>
        <time>2021-10-14T15:39:17Z</time>
      </trkpt>
      <trkpt lat="40.9432010" lon="-5.6738600">
        <ele>807.6</ele>
        <time>2021-10-14T15:39:20Z</time>
      </trkpt>
      <trkpt lat="40.9429030" lon="-5.6741680">
        <ele>806.6</ele>
        <time>2021-10-14T15:39:25Z</time>
      </trkpt>
      <trkpt lat="40.9428470" lon="-5.6742230">
        <ele>806.2</ele>
        <time>2021-10-14T15:39:26Z</time>
      </trkpt>
      <trkpt lat="40.9424860" lon="-5.6745920">
        <ele>805.6</ele>
        <time>2021-10-14T15:39:33Z</time>
      </trkpt>
      <trkpt lat="40.9424430" lon="-5.6746420">
        <ele>805.6</ele>
        <time>2021-10-14T15:39:34Z</time>
      </trkpt>
      <trkpt lat="40.9423800" lon="-5.6747590">
        <ele>805.6</ele>
        <time>2021-10-14T15:39:36Z</time>
      </trkpt>
      <trkpt lat="40.9423600" lon="-5.6748270">
        <ele>805.4</ele>
        <time>2021-10-14T15:39:37Z</time>
      </trkpt>
      <trkpt lat="40.9423230" lon="-5.6749560">
        <ele>805.4</ele>
        <time>2021-10-14T15:39:39Z</time>
      </trkpt>
      <trkpt lat="40.9422500" lon="-5.6750480">
        <ele>805.4</ele>
        <time>2021-10-14T15:39:41Z</time>
      </trkpt>
      <trkpt lat="40.9421520" lon="-5.6751000">
        <ele>805.2</ele>
        <time>2021-10-14T15:39:43Z</time>
      </trkpt>
      <trkpt lat="40.9421040" lon="-5.6750960">
        <ele>805.2</ele>
        <time>2021-10-14T15:39:44Z</time>
      </trkpt>
      <trkpt lat="40.9420690" lon="-5.6750780">
        <ele>805.0</ele>
        <time>2021-10-14T15:39:45Z</time>
      </trkpt>
      <trkpt lat="40.9419830" lon="-5.6750070">
        <ele>804.8</ele>
        <time>2021-10-14T15:39:47Z</time>
      </trkpt>
      <trkpt lat="40.9419540" lon="-5.6749620">
        <ele>804.8</ele>
        <time>2021-10-14T15:39:48Z</time>
      </trkpt>
      <trkpt lat="40.9419410" lon="-5.6749220">
        <ele>804.6</ele>
        <time>2021-10-14T15:39:49Z</time>
      </trkpt>
      <trkpt lat="40.9418950" lon="-5.6747510">
        <ele>804.8</ele>
        <time>2021-10-14T15:39:52Z</time>
      </trkpt>
      <trkpt lat="40.9418700" lon="-5.6747060">
        <ele>804.8</ele>
        <time>2021-10-14T15:39:53Z</time>
      </trkpt>
      <trkpt lat="40.9418170" lon="-5.6746260">
        <ele>804.8</ele>
        <time>2021-10-14T15:39:55Z</time>
      </trkpt>
      <trkpt lat="40.9416540" lon="-5.6744590">
        <ele>805.0</ele>
        <time>2021-10-14T15:40:00Z</time>
      </trkpt>
      <trkpt lat="40.9415120" lon="-5.6743340">
        <ele>805.6</ele>
        <time>2021-10-14T15:40:05Z</time>
      </trkpt>
      <trkpt lat="40.9414780" lon="-5.6743010">
        <ele>805.8</ele>
        <time>2021-10-14T15:40:06Z</time>
      </trkpt>
      <trkpt lat="40.9414300" lon="-5.6742510">
        <ele>806.0</ele>
        <time>2021-10-14T15:40:08Z</time>
      </trkpt>
      <trkpt lat="40.9413460" lon="-5.6741650">
        <ele>806.4</ele>
        <time>2021-10-14T15:40:11Z</time>
      </trkpt>
      <trkpt lat="40.9412480" lon="-5.6740720">
        <ele>807.0</ele>
        <time>2021-10-14T15:40:15Z</time>
      </trkpt>
      <trkpt lat="40.9412230" lon="-5.6740480">
        <ele>807.2</ele>
        <time>2021-10-14T15:40:16Z</time>
      </trkpt>
      <trkpt lat="40.9411520" lon="-5.6739790">
        <ele>807.6</ele>
        <time>2021-10-14T15:40:19Z</time>
      </trkpt>
      <trkpt lat="40.9410040" lon="-5.6738560">
        <ele>808.2</ele>
        <time>2021-10-14T15:40:25Z</time>
      </trkpt>
      <trkpt lat="40.9409830" lon="-5.6738330">
        <ele>808.2</ele>
        <time>2021-10-14T15:40:26Z</time>
      </trkpt>
      <trkpt lat="40.9408640" lon="-5.6737170">
        <ele>808.8</ele>
        <time>2021-10-14T15:40:31Z</time>
      </trkpt>
      <trkpt lat="40.9408140" lon="-5.6736720">
        <ele>808.8</ele>
        <time>2021-10-14T15:40:33Z</time>
      </trkpt>
      <trkpt lat="40.9407340" lon="-5.6736140">
        <ele>809.0</ele>
        <time>2021-10-14T15:40:36Z</time>
      </trkpt>
      <trkpt lat="40.9405850" lon="-5.6735120">
        <ele>809.2</ele>
        <time>2021-10-14T15:40:41Z</time>
      </trkpt>
      <trkpt lat="40.9405470" lon="-5.6734950">
        <ele>809.4</ele>
        <time>2021-10-14T15:40:43Z</time>
      </trkpt>
      <trkpt lat="40.9405180" lon="-5.6734500">
        <ele>809.4</ele>
        <time>2021-10-14T15:40:46Z</time>
      </trkpt>
      <trkpt lat="40.9405230" lon="-5.6734050">
        <ele>809.4</ele>
        <time>2021-10-14T15:40:47Z</time>
      </trkpt>
      <trkpt lat="40.9405110" lon="-5.6733560">
        <ele>809.4</ele>
        <time>2021-10-14T15:40:50Z</time>
      </trkpt>
      <trkpt lat="40.9404970" lon="-5.6733200">
        <ele>809.6</ele>
        <time>2021-10-14T15:41:44Z</time>
      </trkpt>
      <trkpt lat="40.9404820" lon="-5.6732840">
        <ele>809.6</ele>
        <time>2021-10-14T15:41:45Z</time>
      </trkpt>
      <trkpt lat="40.9403730" lon="-5.6731720">
        <ele>809.6</ele>
        <time>2021-10-14T15:41:48Z</time>
      </trkpt>
      <trkpt lat="40.9403160" lon="-5.6731820">
        <ele>809.6</ele>
        <time>2021-10-14T15:41:49Z</time>
      </trkpt>
      <trkpt lat="40.9402590" lon="-5.6731680">
        <ele>809.6</ele>
        <time>2021-10-14T15:41:50Z</time>
      </trkpt>
      <trkpt lat="40.9402410" lon="-5.6731180">
        <ele>809.8</ele>
        <time>2021-10-14T15:41:53Z</time>
      </trkpt>
      <trkpt lat="40.9400730" lon="-5.6732050">
        <ele>810.2</ele>
        <time>2021-10-14T15:41:58Z</time>
      </trkpt>
      <trkpt lat="40.9400340" lon="-5.6731730">
        <ele>810.6</ele>
        <time>2021-10-14T15:42:01Z</time>
      </trkpt>
      <trkpt lat="40.9399450" lon="-5.6731240">
        <ele>811.2</ele>
        <time>2021-10-14T15:42:05Z</time>
      </trkpt>
      <trkpt lat="40.9398770" lon="-5.6730830">
        <ele>811.6</ele>
        <time>2021-10-14T15:42:08Z</time>
      </trkpt>
      <trkpt lat="40.9398560" lon="-5.6730690">
        <ele>811.8</ele>
        <time>2021-10-14T15:42:09Z</time>
      </trkpt>
      <trkpt lat="40.9398130" lon="-5.6730440">
        <ele>812.2</ele>
        <time>2021-10-14T15:42:11Z</time>
      </trkpt>
      <trkpt lat="40.9397450" lon="-5.6730050">
        <ele>813.0</ele>
        <time>2021-10-14T15:42:14Z</time>
      </trkpt>
      <trkpt lat="40.9397240" lon="-5.6729960">
        <ele>812.8</ele>
        <time>2021-10-14T15:42:15Z</time>
      </trkpt>
      <trkpt lat="40.9396190" lon="-5.6729350">
        <ele>813.4</ele>
        <time>2021-10-14T15:42:20Z</time>
      </trkpt>
      <trkpt lat="40.9394760" lon="-5.6728530">
        <ele>813.4</ele>
        <time>2021-10-14T15:42:25Z</time>
      </trkpt>
      <trkpt lat="40.9394300" lon="-5.6728440">
        <ele>813.4</ele>
        <time>2021-10-14T15:42:26Z</time>
      </trkpt>
      <trkpt lat="40.9393170" lon="-5.6727960">
        <ele>813.2</ele>
        <time>2021-10-14T15:42:28Z</time>
      </trkpt>
      <trkpt lat="40.9392060" lon="-5.6728000">
        <ele>813.0</ele>
        <time>2021-10-14T15:42:30Z</time>
      </trkpt>
      <trkpt lat="40.9391570" lon="-5.6728240">
        <ele>812.8</ele>
        <time>2021-10-14T15:42:31Z</time>
      </trkpt>
      <trkpt lat="40.9390610" lon="-5.6728780">
        <ele>811.8</ele>
        <time>2021-10-14T15:42:33Z</time>
      </trkpt>
      <trkpt lat="40.9389220" lon="-5.6729460">
        <ele>810.8</ele>
        <time>2021-10-14T15:42:36Z</time>
      </trkpt>
      <trkpt lat="40.9388760" lon="-5.6729480">
        <ele>810.8</ele>
        <time>2021-10-14T15:42:37Z</time>
      </trkpt>
      <trkpt lat="40.9387880" lon="-5.6729440">
        <ele>810.6</ele>
        <time>2021-10-14T15:42:39Z</time>
      </trkpt>
      <trkpt lat="40.9386580" lon="-5.6729560">
        <ele>810.6</ele>
        <time>2021-10-14T15:42:42Z</time>
      </trkpt>
      <trkpt lat="40.9385700" lon="-5.6729670">
        <ele>810.6</ele>
        <time>2021-10-14T15:42:44Z</time>
      </trkpt>
      <trkpt lat="40.9383280" lon="-5.6729860">
        <ele>810.6</ele>
        <time>2021-10-14T15:42:50Z</time>
      </trkpt>
      <trkpt lat="40.9382880" lon="-5.6729850">
        <ele>810.6</ele>
        <time>2021-10-14T15:42:51Z</time>
      </trkpt>
      <trkpt lat="40.9380900" lon="-5.6729810">
        <ele>810.8</ele>
        <time>2021-10-14T15:42:56Z</time>
      </trkpt>
      <trkpt lat="40.9379310" lon="-5.6729880">
        <ele>811.0</ele>
        <time>2021-10-14T15:43:00Z</time>
      </trkpt>
      <trkpt lat="40.9377650" lon="-5.6730480">
        <ele>811.0</ele>
        <time>2021-10-14T15:43:04Z</time>
      </trkpt>
      <trkpt lat="40.9376480" lon="-5.6730670">
        <ele>811.0</ele>
        <time>2021-10-14T15:43:07Z</time>
      </trkpt>
      <trkpt lat="40.9375420" lon="-5.6731030">
        <ele>811.0</ele>
        <time>2021-10-14T15:43:10Z</time>
      </trkpt>
      <trkpt lat="40.9372960" lon="-5.6731760">
        <ele>811.6</ele>
        <time>2021-10-14T15:43:17Z</time>
      </trkpt>
      <trkpt lat="40.9370920" lon="-5.6732380">
        <ele>812.0</ele>
        <time>2021-10-14T15:43:24Z</time>
      </trkpt>
      <trkpt lat="40.9369440" lon="-5.6732820">
        <ele>812.4</ele>
        <time>2021-10-14T15:43:30Z</time>
      </trkpt>
      <trkpt lat="40.9367880" lon="-5.6733260">
        <ele>813.0</ele>
        <time>2021-10-14T15:43:36Z</time>
      </trkpt>
      <trkpt lat="40.9367610" lon="-5.6733320">
        <ele>813.0</ele>
        <time>2021-10-14T15:43:37Z</time>
      </trkpt>
      <trkpt lat="40.9366810" lon="-5.6733530">
        <ele>813.4</ele>
        <time>2021-10-14T15:43:40Z</time>
      </trkpt>
      <trkpt lat="40.9366030" lon="-5.6733810">
        <ele>813.6</ele>
        <time>2021-10-14T15:43:43Z</time>
      </trkpt>
      <trkpt lat="40.9365530" lon="-5.6733990">
        <ele>813.8</ele>
        <time>2021-10-14T15:43:45Z</time>
      </trkpt>
      <trkpt lat="40.9364490" lon="-5.6734470">
        <ele>814.0</ele>
        <time>2021-10-14T15:43:49Z</time>
      </trkpt>
      <trkpt lat="40.9363170" lon="-5.6735230">
        <ele>814.4</ele>
        <time>2021-10-14T15:43:54Z</time>
      </trkpt>
      <trkpt lat="40.9360770" lon="-5.6736730">
        <ele>814.8</ele>
        <time>2021-10-14T15:44:03Z</time>
      </trkpt>
      <trkpt lat="40.9358710" lon="-5.6737840">
        <ele>815.2</ele>
        <time>2021-10-14T15:44:11Z</time>
      </trkpt>
      <trkpt lat="40.9355670" lon="-5.6738690">
        <ele>815.8</ele>
        <time>2021-10-14T15:44:21Z</time>
      </trkpt>
      <trkpt lat="40.9353220" lon="-5.6739330">
        <ele>816.2</ele>
        <time>2021-10-14T15:44:29Z</time>
      </trkpt>
      <trkpt lat="40.9352650" lon="-5.6739350">
        <ele>816.4</ele>
        <time>2021-10-14T15:44:31Z</time>
      </trkpt>
      <trkpt lat="40.9351610" lon="-5.6739390">
        <ele>816.8</ele>
        <time>2021-10-14T15:44:35Z</time>
      </trkpt>
      <trkpt lat="40.9350910" lon="-5.6739300">
        <ele>817.2</ele>
        <time>2021-10-14T15:44:38Z</time>
      </trkpt>
      <trkpt lat="40.9350670" lon="-5.6739260">
        <ele>817.4</ele>
        <time>2021-10-14T15:44:39Z</time>
      </trkpt>
      <trkpt lat="40.9348360" lon="-5.6738950">
        <ele>818.0</ele>
        <time>2021-10-14T15:44:47Z</time>
      </trkpt>
      <trkpt lat="40.9347510" lon="-5.6738780">
        <ele>818.0</ele>
        <time>2021-10-14T15:44:50Z</time>
      </trkpt>
      <trkpt lat="40.9346630" lon="-5.6738630">
        <ele>818.4</ele>
        <time>2021-10-14T15:44:53Z</time>
      </trkpt>
      <trkpt lat="40.9346040" lon="-5.6738540">
        <ele>818.4</ele>
        <time>2021-10-14T15:44:55Z</time>
      </trkpt>
      <trkpt lat="40.9345760" lon="-5.6738490">
        <ele>818.6</ele>
        <time>2021-10-14T15:44:56Z</time>
      </trkpt>
      <trkpt lat="40.9344590" lon="-5.6738560">
        <ele>818.6</ele>
        <time>2021-10-14T15:45:00Z</time>
      </trkpt>
      <trkpt lat="40.9344010" lon="-5.6738880">
        <ele>818.6</ele>
        <time>2021-10-14T15:45:02Z</time>
      </trkpt>
      <trkpt lat="40.9343340" lon="-5.6739150">
        <ele>818.8</ele>
        <time>2021-10-14T15:45:04Z</time>
      </trkpt>
      <trkpt lat="40.9342200" lon="-5.6739560">
        <ele>819.2</ele>
        <time>2021-10-14T15:45:08Z</time>
      </trkpt>
      <trkpt lat="40.9341840" lon="-5.6739670">
        <ele>819.4</ele>
        <time>2021-10-14T15:45:09Z</time>
      </trkpt>
      <trkpt lat="40.9340780" lon="-5.6739820">
        <ele>819.4</ele>
        <time>2021-10-14T15:45:12Z</time>
      </trkpt>
      <trkpt lat="40.9340030" lon="-5.6739720">
        <ele>819.4</ele>
        <time>2021-10-14T15:45:14Z</time>
      </trkpt>
      <trkpt lat="40.9337840" lon="-5.6739220">
        <ele>819.4</ele>
        <time>2021-10-14T15:45:20Z</time>
      </trkpt>
      <trkpt lat="40.9337470" lon="-5.6739240">
        <ele>819.4</ele>
        <time>2021-10-14T15:45:21Z</time>
      </trkpt>
      <trkpt lat="40.9334810" lon="-5.6739910">
        <ele>819.8</ele>
        <time>2021-10-14T15:45:29Z</time>
      </trkpt>
      <trkpt lat="40.9333400" lon="-5.6740000">
        <ele>820.2</ele>
        <time>2021-10-14T15:45:33Z</time>
      </trkpt>
      <trkpt lat="40.9332460" lon="-5.6740210">
        <ele>820.4</ele>
        <time>2021-10-14T15:45:36Z</time>
      </trkpt>
      <trkpt lat="40.9332140" lon="-5.6740320">
        <ele>820.6</ele>
        <time>2021-10-14T15:45:37Z</time>
      </trkpt>
      <trkpt lat="40.9331340" lon="-5.6741090">
        <ele>821.0</ele>
        <time>2021-10-14T15:45:40Z</time>
      </trkpt>
      <trkpt lat="40.9331250" lon="-5.6741520">
        <ele>821.0</ele>
        <time>2021-10-14T15:45:41Z</time>
      </trkpt>
      <trkpt lat="40.9331690" lon="-5.6743900">
        <ele>821.0</ele>
        <time>2021-10-14T15:45:46Z</time>
      </trkpt>
      <trkpt lat="40.9332310" lon="-5.6746690">
        <ele>821.0</ele>
        <time>2021-10-14T15:45:52Z</time>
      </trkpt>
      <trkpt lat="40.9332320" lon="-5.6747050">
        <ele>821.2</ele>
        <time>2021-10-14T15:45:53Z</time>
      </trkpt>
      <trkpt lat="40.9331960" lon="-5.6747900">
        <ele>821.4</ele>
        <time>2021-10-14T15:45:56Z</time>
      </trkpt>
      <trkpt lat="40.9331280" lon="-5.6748760">
        <ele>821.8</ele>
        <time>2021-10-14T15:45:59Z</time>
      </trkpt>
      <trkpt lat="40.9330780" lon="-5.6749220">
        <ele>822.0</ele>
        <time>2021-10-14T15:46:01Z</time>
      </trkpt>
      <trkpt lat="40.9329820" lon="-5.6749460">
        <ele>822.2</ele>
        <time>2021-10-14T15:46:04Z</time>
      </trkpt>
      <trkpt lat="40.9329120" lon="-5.6749570">
        <ele>822.2</ele>
        <time>2021-10-14T15:46:06Z</time>
      </trkpt>
      <trkpt lat="40.9327160" lon="-5.6750120">
        <ele>822.4</ele>
        <time>2021-10-14T15:46:12Z</time>
      </trkpt>
      <trkpt lat="40.9325880" lon="-5.6750180">
        <ele>822.4</ele>
        <time>2021-10-14T15:46:16Z</time>
      </trkpt>
      <trkpt lat="40.9324840" lon="-5.6750370">
        <ele>822.2</ele>
        <time>2021-10-14T15:46:19Z</time>
      </trkpt>
      <trkpt lat="40.9323720" lon="-5.6750790">
        <ele>822.0</ele>
        <time>2021-10-14T15:46:22Z</time>
      </trkpt>
      <trkpt lat="40.9323340" lon="-5.6750870">
        <ele>822.0</ele>
        <time>2021-10-14T15:46:23Z</time>
      </trkpt>
      <trkpt lat="40.9322240" lon="-5.6751070">
        <ele>821.6</ele>
        <time>2021-10-14T15:46:26Z</time>
      </trkpt>
      <trkpt lat="40.9320840" lon="-5.6751320">
        <ele>821.4</ele>
        <time>2021-10-14T15:46:30Z</time>
      </trkpt>
      <trkpt lat="40.9320110" lon="-5.6751640">
        <ele>821.2</ele>
        <time>2021-10-14T15:46:32Z</time>
      </trkpt>
      <trkpt lat="40.9317920" lon="-5.6752900">
        <ele>821.4</ele>
        <time>2021-10-14T15:46:38Z</time>
      </trkpt>
      <trkpt lat="40.9316540" lon="-5.6753780">
        <ele>821.4</ele>
        <time>2021-10-14T15:46:42Z</time>
      </trkpt>
      <trkpt lat="40.9315340" lon="-5.6754710">
        <ele>821.6</ele>
        <time>2021-10-14T15:46:46Z</time>
      </trkpt>
      <trkpt lat="40.9314570" lon="-5.6755280">
        <ele>821.8</ele>
        <time>2021-10-14T15:46:49Z</time>
      </trkpt>
      <trkpt lat="40.9313850" lon="-5.6755900">
        <ele>823.0</ele>
        <time>2021-10-14T15:46:52Z</time>
      </trkpt>
      <trkpt lat="40.9313620" lon="-5.6756130">
        <ele>823.0</ele>
        <time>2021-10-14T15:46:53Z</time>
      </trkpt>
      <trkpt lat="40.9312120" lon="-5.6756910">
        <ele>823.4</ele>
        <time>2021-10-14T15:46:58Z</time>
      </trkpt>
      <trkpt lat="40.9310780" lon="-5.6757240">
        <ele>823.6</ele>
        <time>2021-10-14T15:47:02Z</time>
      </trkpt>
      <trkpt lat="40.9308450" lon="-5.6758050">
        <ele>823.6</ele>
        <time>2021-10-14T15:47:09Z</time>
      </trkpt>
      <trkpt lat="40.9306850" lon="-5.6758950">
        <ele>824.0</ele>
        <time>2021-10-14T15:47:15Z</time>
      </trkpt>
      <trkpt lat="40.9306360" lon="-5.6759090">
        <ele>824.0</ele>
        <time>2021-10-14T15:47:17Z</time>
      </trkpt>
      <trkpt lat="40.9305870" lon="-5.6759030">
        <ele>824.2</ele>
        <time>2021-10-14T15:47:19Z</time>
      </trkpt>
      <trkpt lat="40.9305630" lon="-5.6759100">
        <ele>824.2</ele>
        <time>2021-10-14T15:47:20Z</time>
      </trkpt>
      <trkpt lat="40.9304000" lon="-5.6760060">
        <ele>825.4</ele>
        <time>2021-10-14T15:47:28Z</time>
      </trkpt>
      <trkpt lat="40.9303630" lon="-5.6760470">
        <ele>825.8</ele>
        <time>2021-10-14T15:47:30Z</time>
      </trkpt>
      <trkpt lat="40.9302850" lon="-5.6761000">
        <ele>826.4</ele>
        <time>2021-10-14T15:47:34Z</time>
      </trkpt>
      <trkpt lat="40.9302630" lon="-5.6761120">
        <ele>826.8</ele>
        <time>2021-10-14T15:47:35Z</time>
      </trkpt>
      <trkpt lat="40.9301930" lon="-5.6761450">
        <ele>827.0</ele>
        <time>2021-10-14T15:47:38Z</time>
      </trkpt>
      <trkpt lat="40.9301410" lon="-5.6761690">
        <ele>827.0</ele>
        <time>2021-10-14T15:47:40Z</time>
      </trkpt>
      <trkpt lat="40.9300180" lon="-5.6762160">
        <ele>827.2</ele>
        <time>2021-10-14T15:47:44Z</time>
      </trkpt>
      <trkpt lat="40.9298440" lon="-5.6762890">
        <ele>827.4</ele>
        <time>2021-10-14T15:47:50Z</time>
      </trkpt>
      <trkpt lat="40.9297540" lon="-5.6763270">
        <ele>827.4</ele>
        <time>2021-10-14T15:47:53Z</time>
      </trkpt>
      <trkpt lat="40.9297240" lon="-5.6763400">
        <ele>827.4</ele>
        <time>2021-10-14T15:47:54Z</time>
      </trkpt>
      <trkpt lat="40.9296260" lon="-5.6763650">
        <ele>827.4</ele>
        <time>2021-10-14T15:47:57Z</time>
      </trkpt>
      <trkpt lat="40.9295970" lon="-5.6763670">
        <ele>827.4</ele>
        <time>2021-10-14T15:47:58Z</time>
      </trkpt>
      <trkpt lat="40.9294810" lon="-5.6763700">
        <ele>827.4</ele>
        <time>2021-10-14T15:48:02Z</time>
      </trkpt>
      <trkpt lat="40.9293950" lon="-5.6763820">
        <ele>827.2</ele>
        <time>2021-10-14T15:48:05Z</time>
      </trkpt>
      <trkpt lat="40.9293300" lon="-5.6763960">
        <ele>827.2</ele>
        <time>2021-10-14T15:48:07Z</time>
      </trkpt>
      <trkpt lat="40.9292370" lon="-5.6764140">
        <ele>827.4</ele>
        <time>2021-10-14T15:48:10Z</time>
      </trkpt>
      <trkpt lat="40.9291150" lon="-5.6764310">
        <ele>827.8</ele>
        <time>2021-10-14T15:48:14Z</time>
      </trkpt>
      <trkpt lat="40.9290840" lon="-5.6764370">
        <ele>827.8</ele>
        <time>2021-10-14T15:48:15Z</time>
      </trkpt>
      <trkpt lat="40.9289300" lon="-5.6764570">
        <ele>828.2</ele>
        <time>2021-10-14T15:48:20Z</time>
      </trkpt>
      <trkpt lat="40.9288020" lon="-5.6764650">
        <ele>828.2</ele>
        <time>2021-10-14T15:48:24Z</time>
      </trkpt>
      <trkpt lat="40.9285700" lon="-5.6765000">
        <ele>828.4</ele>
        <time>2021-10-14T15:48:31Z</time>
      </trkpt>
      <trkpt lat="40.9285040" lon="-5.6765120">
        <ele>828.4</ele>
        <time>2021-10-14T15:48:33Z</time>
      </trkpt>
      <trkpt lat="40.9284740" lon="-5.6765170">
        <ele>828.4</ele>
        <time>2021-10-14T15:48:34Z</time>
      </trkpt>
      <trkpt lat="40.9283510" lon="-5.6765460">
        <ele>828.6</ele>
        <time>2021-10-14T15:48:38Z</time>
      </trkpt>
      <trkpt lat="40.9282880" lon="-5.6765670">
        <ele>828.8</ele>
        <time>2021-10-14T15:48:40Z</time>
      </trkpt>
      <trkpt lat="40.9282250" lon="-5.6765860">
        <ele>828.8</ele>
        <time>2021-10-14T15:48:42Z</time>
      </trkpt>
      <trkpt lat="40.9281690" lon="-5.6766070">
        <ele>829.0</ele>
        <time>2021-10-14T15:48:44Z</time>
      </trkpt>
      <trkpt lat="40.9281040" lon="-5.6766250">
        <ele>829.2</ele>
        <time>2021-10-14T15:48:47Z</time>
      </trkpt>
      <trkpt lat="40.9280630" lon="-5.6766370">
        <ele>829.2</ele>
        <time>2021-10-14T15:48:49Z</time>
      </trkpt>
      <trkpt lat="40.9280360" lon="-5.6766360">
        <ele>829.4</ele>
        <time>2021-10-14T15:48:50Z</time>
      </trkpt>
      <trkpt lat="40.9279810" lon="-5.6766570">
        <ele>829.4</ele>
        <time>2021-10-14T15:48:52Z</time>
      </trkpt>
      <trkpt lat="40.9279290" lon="-5.6766710">
        <ele>829.4</ele>
        <time>2021-10-14T15:48:53Z</time>
      </trkpt>
      <trkpt lat="40.9278770" lon="-5.6766850">
        <ele>829.4</ele>
        <time>2021-10-14T15:48:54Z</time>
      </trkpt>
      <trkpt lat="40.9278260" lon="-5.6766990">
        <ele>829.4</ele>
        <time>2021-10-14T15:48:55Z</time>
      </trkpt>
      <trkpt lat="40.9277740" lon="-5.6767130">
        <ele>829.6</ele>
        <time>2021-10-14T15:48:56Z</time>
      </trkpt>
      <trkpt lat="40.9277220" lon="-5.6767270">
        <ele>829.6</ele>
        <time>2021-10-14T15:48:58Z</time>
      </trkpt>
      <trkpt lat="40.9276700" lon="-5.6767400">
        <ele>829.6</ele>
        <time>2021-10-14T15:48:59Z</time>
      </trkpt>
      <trkpt lat="40.9276180" lon="-5.6767540">
        <ele>830.0</ele>
        <time>2021-10-14T15:49:02Z</time>
      </trkpt>
      <trkpt lat="40.9275670" lon="-5.6767680">
        <ele>830.0</ele>
        <time>2021-10-14T15:49:03Z</time>
      </trkpt>
      <trkpt lat="40.9275150" lon="-5.6767820">
        <ele>830.2</ele>
        <time>2021-10-14T15:49:04Z</time>
      </trkpt>
      <trkpt lat="40.9274630" lon="-5.6767960">
        <ele>830.6</ele>
        <time>2021-10-14T15:49:07Z</time>
      </trkpt>
      <trkpt lat="40.9274350" lon="-5.6768020">
        <ele>830.8</ele>
        <time>2021-10-14T15:49:08Z</time>
      </trkpt>
      <trkpt lat="40.9273930" lon="-5.6768050">
        <ele>830.6</ele>
        <time>2021-10-14T15:49:10Z</time>
      </trkpt>
      <trkpt lat="40.9272740" lon="-5.6768310">
        <ele>831.8</ele>
        <time>2021-10-14T15:49:15Z</time>
      </trkpt>
      <trkpt lat="40.9272480" lon="-5.6768360">
        <ele>831.8</ele>
        <time>2021-10-14T15:49:16Z</time>
      </trkpt>
      <trkpt lat="40.9271480" lon="-5.6768620">
        <ele>832.4</ele>
        <time>2021-10-14T15:49:20Z</time>
      </trkpt>
      <trkpt lat="40.9271240" lon="-5.6768740">
        <ele>832.6</ele>
        <time>2021-10-14T15:49:21Z</time>
      </trkpt>
      <trkpt lat="40.9270460" lon="-5.6769060">
        <ele>833.0</ele>
        <time>2021-10-14T15:49:24Z</time>
      </trkpt>
      <trkpt lat="40.9269360" lon="-5.6769370">
        <ele>833.4</ele>
        <time>2021-10-14T15:49:28Z</time>
      </trkpt>
      <trkpt lat="40.9268190" lon="-5.6769720">
        <ele>833.8</ele>
        <time>2021-10-14T15:49:32Z</time>
      </trkpt>
      <trkpt lat="40.9267880" lon="-5.6769800">
        <ele>833.8</ele>
        <time>2021-10-14T15:49:33Z</time>
      </trkpt>
      <trkpt lat="40.9266690" lon="-5.6770130">
        <ele>834.0</ele>
        <time>2021-10-14T15:49:37Z</time>
      </trkpt>
      <trkpt lat="40.9265780" lon="-5.6770390">
        <ele>834.0</ele>
        <time>2021-10-14T15:49:40Z</time>
      </trkpt>
      <trkpt lat="40.9265230" lon="-5.6770620">
        <ele>834.2</ele>
        <time>2021-10-14T15:49:42Z</time>
      </trkpt>
      <trkpt lat="40.9264660" lon="-5.6770780">
        <ele>834.2</ele>
        <time>2021-10-14T15:49:44Z</time>
      </trkpt>
      <trkpt lat="40.9264070" lon="-5.6770980">
        <ele>834.6</ele>
        <time>2021-10-14T15:49:46Z</time>
      </trkpt>
      <trkpt lat="40.9263520" lon="-5.6771180">
        <ele>834.8</ele>
        <time>2021-10-14T15:49:48Z</time>
      </trkpt>
      <trkpt lat="40.9262950" lon="-5.6771360">
        <ele>834.8</ele>
        <time>2021-10-14T15:49:50Z</time>
      </trkpt>
      <trkpt lat="40.9262680" lon="-5.6771430">
        <ele>834.8</ele>
        <time>2021-10-14T15:49:51Z</time>
      </trkpt>
      <trkpt lat="40.9262390" lon="-5.6771530">
        <ele>835.0</ele>
        <time>2021-10-14T15:49:52Z</time>
      </trkpt>
      <trkpt lat="40.9260240" lon="-5.6772110">
        <ele>835.6</ele>
        <time>2021-10-14T15:49:59Z</time>
      </trkpt>
      <trkpt lat="40.9259640" lon="-5.6772270">
        <ele>835.6</ele>
        <time>2021-10-14T15:50:01Z</time>
      </trkpt>
      <trkpt lat="40.9258020" lon="-5.6772720">
        <ele>835.6</ele>
        <time>2021-10-14T15:50:06Z</time>
      </trkpt>
      <trkpt lat="40.9256770" lon="-5.6773100">
        <ele>835.8</ele>
        <time>2021-10-14T15:50:10Z</time>
      </trkpt>
      <trkpt lat="40.9255520" lon="-5.6773510">
        <ele>836.2</ele>
        <time>2021-10-14T15:50:14Z</time>
      </trkpt>
      <trkpt lat="40.9253580" lon="-5.6774060">
        <ele>836.8</ele>
        <time>2021-10-14T15:50:20Z</time>
      </trkpt>
      <trkpt lat="40.9253330" lon="-5.6774140">
        <ele>836.8</ele>
        <time>2021-10-14T15:50:21Z</time>
      </trkpt>
      <trkpt lat="40.9253020" lon="-5.6774230">
        <ele>836.8</ele>
        <time>2021-10-14T15:50:22Z</time>
      </trkpt>
      <trkpt lat="40.9252040" lon="-5.6774530">
        <ele>837.2</ele>
        <time>2021-10-14T15:50:25Z</time>
      </trkpt>
      <trkpt lat="40.9251090" lon="-5.6774990">
        <ele>837.4</ele>
        <time>2021-10-14T15:50:29Z</time>
      </trkpt>
      <trkpt lat="40.9249040" lon="-5.6775370">
        <ele>838.0</ele>
        <time>2021-10-14T15:50:36Z</time>
      </trkpt>
      <trkpt lat="40.9247780" lon="-5.6775550">
        <ele>838.4</ele>
        <time>2021-10-14T15:50:40Z</time>
      </trkpt>
      <trkpt lat="40.9246210" lon="-5.6775970">
        <ele>838.6</ele>
        <time>2021-10-14T15:50:45Z</time>
      </trkpt>
      <trkpt lat="40.9243030" lon="-5.6777030">
        <ele>839.2</ele>
        <time>2021-10-14T15:50:55Z</time>
      </trkpt>
      <trkpt lat="40.9240710" lon="-5.6777680">
        <ele>839.4</ele>
        <time>2021-10-14T15:51:02Z</time>
      </trkpt>
      <trkpt lat="40.9240040" lon="-5.6777910">
        <ele>839.4</ele>
        <time>2021-10-14T15:51:04Z</time>
      </trkpt>
      <trkpt lat="40.9239390" lon="-5.6778130">
        <ele>839.4</ele>
        <time>2021-10-14T15:51:06Z</time>
      </trkpt>
      <trkpt lat="40.9237460" lon="-5.6778860">
        <ele>839.6</ele>
        <time>2021-10-14T15:51:12Z</time>
      </trkpt>
      <trkpt lat="40.9236820" lon="-5.6779070">
        <ele>839.8</ele>
        <time>2021-10-14T15:51:14Z</time>
      </trkpt>
      <trkpt lat="40.9235870" lon="-5.6779510">
        <ele>840.0</ele>
        <time>2021-10-14T15:51:17Z</time>
      </trkpt>
      <trkpt lat="40.9233080" lon="-5.6780830">
        <ele>840.4</ele>
        <time>2021-10-14T15:51:26Z</time>
      </trkpt>
      <trkpt lat="40.9231840" lon="-5.6781230">
        <ele>840.8</ele>
        <time>2021-10-14T15:51:30Z</time>
      </trkpt>
      <trkpt lat="40.9230630" lon="-5.6781630">
        <ele>841.4</ele>
        <time>2021-10-14T15:51:34Z</time>
      </trkpt>
      <trkpt lat="40.9229390" lon="-5.6781950">
        <ele>841.4</ele>
        <time>2021-10-14T15:51:38Z</time>
      </trkpt>
      <trkpt lat="40.9227790" lon="-5.6782200">
        <ele>841.8</ele>
        <time>2021-10-14T15:51:43Z</time>
      </trkpt>
      <trkpt lat="40.9227490" lon="-5.6782250">
        <ele>842.0</ele>
        <time>2021-10-14T15:51:44Z</time>
      </trkpt>
      <trkpt lat="40.9226310" lon="-5.6782670">
        <ele>842.2</ele>
        <time>2021-10-14T15:51:48Z</time>
      </trkpt>
      <trkpt lat="40.9225450" lon="-5.6783100">
        <ele>842.6</ele>
        <time>2021-10-14T15:51:51Z</time>
      </trkpt>
      <trkpt lat="40.9225160" lon="-5.6783260">
        <ele>842.6</ele>
        <time>2021-10-14T15:51:52Z</time>
      </trkpt>
      <trkpt lat="40.9223980" lon="-5.6783800">
        <ele>843.0</ele>
        <time>2021-10-14T15:51:56Z</time>
      </trkpt>
      <trkpt lat="40.9221830" lon="-5.6784470">
        <ele>843.4</ele>
        <time>2021-10-14T15:52:03Z</time>
      </trkpt>
      <trkpt lat="40.9221210" lon="-5.6784670">
        <ele>843.6</ele>
        <time>2021-10-14T15:52:05Z</time>
      </trkpt>
      <trkpt lat="40.9220010" lon="-5.6785190">
        <ele>843.8</ele>
        <time>2021-10-14T15:52:09Z</time>
      </trkpt>
      <trkpt lat="40.9218950" lon="-5.6785700">
        <ele>844.4</ele>
        <time>2021-10-14T15:52:13Z</time>
      </trkpt>
      <trkpt lat="40.9218190" lon="-5.6786120">
        <ele>844.6</ele>
        <time>2021-10-14T15:52:16Z</time>
      </trkpt>
      <trkpt lat="40.9217180" lon="-5.6786710">
        <ele>845.4</ele>
        <time>2021-10-14T15:52:20Z</time>
      </trkpt>
      <trkpt lat="40.9216930" lon="-5.6786880">
        <ele>845.4</ele>
        <time>2021-10-14T15:52:21Z</time>
      </trkpt>
      <trkpt lat="40.9216420" lon="-5.6787170">
        <ele>845.8</ele>
        <time>2021-10-14T15:52:23Z</time>
      </trkpt>
      <trkpt lat="40.9215140" lon="-5.6787850">
        <ele>846.0</ele>
        <time>2021-10-14T15:52:28Z</time>
      </trkpt>
      <trkpt lat="40.9214850" lon="-5.6787900">
        <ele>846.0</ele>
        <time>2021-10-14T15:52:29Z</time>
      </trkpt>
      <trkpt lat="40.9214070" lon="-5.6788160">
        <ele>846.4</ele>
        <time>2021-10-14T15:52:32Z</time>
      </trkpt>
      <trkpt lat="40.9213300" lon="-5.6788490">
        <ele>846.8</ele>
        <time>2021-10-14T15:52:35Z</time>
      </trkpt>
      <trkpt lat="40.9213070" lon="-5.6788630">
        <ele>847.0</ele>
        <time>2021-10-14T15:52:36Z</time>
      </trkpt>
      <trkpt lat="40.9212840" lon="-5.6788760">
        <ele>847.0</ele>
        <time>2021-10-14T15:52:37Z</time>
      </trkpt>
      <trkpt lat="40.9212020" lon="-5.6789100">
        <ele>847.2</ele>
        <time>2021-10-14T15:52:40Z</time>
      </trkpt>
      <trkpt lat="40.9211010" lon="-5.6789550">
        <ele>847.4</ele>
        <time>2021-10-14T15:52:44Z</time>
      </trkpt>
      <trkpt lat="40.9209900" lon="-5.6789990">
        <ele>847.8</ele>
        <time>2021-10-14T15:52:48Z</time>
      </trkpt>
      <trkpt lat="40.9208850" lon="-5.6790450">
        <ele>848.2</ele>
        <time>2021-10-14T15:52:52Z</time>
      </trkpt>
      <trkpt lat="40.9208580" lon="-5.6790570">
        <ele>848.4</ele>
        <time>2021-10-14T15:52:53Z</time>
      </trkpt>
      <trkpt lat="40.9207270" lon="-5.6791110">
        <ele>849.0</ele>
        <time>2021-10-14T15:52:58Z</time>
      </trkpt>
      <trkpt lat="40.9206750" lon="-5.6791350">
        <ele>849.2</ele>
        <time>2021-10-14T15:53:00Z</time>
      </trkpt>
      <trkpt lat="40.9206480" lon="-5.6791490">
        <ele>849.2</ele>
        <time>2021-10-14T15:53:01Z</time>
      </trkpt>
      <trkpt lat="40.9205910" lon="-5.6791760">
        <ele>849.2</ele>
        <time>2021-10-14T15:53:03Z</time>
      </trkpt>
      <trkpt lat="40.9205300" lon="-5.6792020">
        <ele>849.4</ele>
        <time>2021-10-14T15:53:05Z</time>
      </trkpt>
      <trkpt lat="40.9204210" lon="-5.6792490">
        <ele>849.4</ele>
        <time>2021-10-14T15:53:09Z</time>
      </trkpt>
      <trkpt lat="40.9202770" lon="-5.6793140">
        <ele>849.4</ele>
        <time>2021-10-14T15:53:14Z</time>
      </trkpt>
      <trkpt lat="40.9202200" lon="-5.6793330">
        <ele>849.6</ele>
        <time>2021-10-14T15:53:16Z</time>
      </trkpt>
      <trkpt lat="40.9200280" lon="-5.6794460">
        <ele>849.8</ele>
        <time>2021-10-14T15:53:23Z</time>
      </trkpt>
      <trkpt lat="40.9199400" lon="-5.6794870">
        <ele>850.2</ele>
        <time>2021-10-14T15:53:26Z</time>
      </trkpt>
      <trkpt lat="40.9198830" lon="-5.6795080">
        <ele>850.2</ele>
        <time>2021-10-14T15:53:28Z</time>
      </trkpt>
      <trkpt lat="40.9198040" lon="-5.6795380">
        <ele>850.4</ele>
        <time>2021-10-14T15:53:31Z</time>
      </trkpt>
      <trkpt lat="40.9195850" lon="-5.6795680">
        <ele>850.8</ele>
        <time>2021-10-14T15:53:38Z</time>
      </trkpt>
      <trkpt lat="40.9193060" lon="-5.6796250">
        <ele>851.2</ele>
        <time>2021-10-14T15:53:47Z</time>
      </trkpt>
      <trkpt lat="40.9191690" lon="-5.6797330">
        <ele>851.2</ele>
        <time>2021-10-14T15:53:52Z</time>
      </trkpt>
      <trkpt lat="40.9191440" lon="-5.6797540">
        <ele>851.2</ele>
        <time>2021-10-14T15:53:53Z</time>
      </trkpt>
      <trkpt lat="40.9190630" lon="-5.6798020">
        <ele>851.4</ele>
        <time>2021-10-14T15:53:56Z</time>
      </trkpt>
      <trkpt lat="40.9190090" lon="-5.6798290">
        <ele>851.4</ele>
        <time>2021-10-14T15:53:58Z</time>
      </trkpt>
      <trkpt lat="40.9189810" lon="-5.6798440">
        <ele>851.4</ele>
        <time>2021-10-14T15:53:59Z</time>
      </trkpt>
      <trkpt lat="40.9188270" lon="-5.6799240">
        <ele>851.8</ele>
        <time>2021-10-14T15:54:05Z</time>
      </trkpt>
      <trkpt lat="40.9187100" lon="-5.6799900">
        <ele>852.4</ele>
        <time>2021-10-14T15:54:10Z</time>
      </trkpt>
      <trkpt lat="40.9186400" lon="-5.6800240">
        <ele>853.0</ele>
        <time>2021-10-14T15:54:13Z</time>
      </trkpt>
      <trkpt lat="40.9185390" lon="-5.6801180">
        <ele>853.4</ele>
        <time>2021-10-14T15:54:18Z</time>
      </trkpt>
      <trkpt lat="40.9184970" lon="-5.6801580">
        <ele>853.6</ele>
        <time>2021-10-14T15:54:20Z</time>
      </trkpt>
      <trkpt lat="40.9184800" lon="-5.6801810">
        <ele>853.6</ele>
        <time>2021-10-14T15:54:21Z</time>
      </trkpt>
      <trkpt lat="40.9182790" lon="-5.6803100">
        <ele>854.2</ele>
        <time>2021-10-14T15:54:30Z</time>
      </trkpt>
      <trkpt lat="40.9181740" lon="-5.6803910">
        <ele>854.6</ele>
        <time>2021-10-14T15:54:35Z</time>
      </trkpt>
      <trkpt lat="40.9181330" lon="-5.6804330">
        <ele>854.8</ele>
        <time>2021-10-14T15:54:37Z</time>
      </trkpt>
      <trkpt lat="40.9181120" lon="-5.6804570">
        <ele>854.8</ele>
        <time>2021-10-14T15:54:38Z</time>
      </trkpt>
      <trkpt lat="40.9180750" lon="-5.6805050">
        <ele>854.8</ele>
        <time>2021-10-14T15:54:40Z</time>
      </trkpt>
      <trkpt lat="40.9180360" lon="-5.6805510">
        <ele>855.0</ele>
        <time>2021-10-14T15:54:42Z</time>
      </trkpt>
      <trkpt lat="40.9179210" lon="-5.6806920">
        <ele>855.2</ele>
        <time>2021-10-14T15:54:48Z</time>
      </trkpt>
      <trkpt lat="40.9178820" lon="-5.6807370">
        <ele>855.2</ele>
        <time>2021-10-14T15:54:50Z</time>
      </trkpt>
      <trkpt lat="40.9178180" lon="-5.6807870">
        <ele>855.4</ele>
        <time>2021-10-14T15:54:53Z</time>
      </trkpt>
      <trkpt lat="40.9177760" lon="-5.6808170">
        <ele>855.6</ele>
        <time>2021-10-14T15:54:55Z</time>
      </trkpt>
      <trkpt lat="40.9177520" lon="-5.6808320">
        <ele>855.8</ele>
        <time>2021-10-14T15:54:56Z</time>
      </trkpt>
      <trkpt lat="40.9175440" lon="-5.6808990">
        <ele>856.2</ele>
        <time>2021-10-14T15:55:04Z</time>
      </trkpt>
      <trkpt lat="40.9174130" lon="-5.6809060">
        <ele>856.0</ele>
        <time>2021-10-14T15:55:08Z</time>
      </trkpt>
      <trkpt lat="40.9173870" lon="-5.6808900">
        <ele>855.8</ele>
        <time>2021-10-14T15:55:09Z</time>
      </trkpt>
      <trkpt lat="40.9172650" lon="-5.6807820">
        <ele>854.4</ele>
        <time>2021-10-14T15:55:14Z</time>
      </trkpt>
      <trkpt lat="40.9172480" lon="-5.6807530">
        <ele>854.2</ele>
        <time>2021-10-14T15:55:15Z</time>
      </trkpt>
      <trkpt lat="40.9172150" lon="-5.6805880">
        <ele>853.4</ele>
        <time>2021-10-14T15:55:19Z</time>
      </trkpt>
      <trkpt lat="40.9171950" lon="-5.6805470">
        <ele>853.2</ele>
        <time>2021-10-14T15:55:20Z</time>
      </trkpt>
      <trkpt lat="40.9171640" lon="-5.6805120">
        <ele>852.6</ele>
        <time>2021-10-14T15:55:21Z</time>
      </trkpt>
      <trkpt lat="40.9170870" lon="-5.6804560">
        <ele>852.0</ele>
        <time>2021-10-14T15:55:23Z</time>
      </trkpt>
      <trkpt lat="40.9170410" lon="-5.6804420">
        <ele>851.6</ele>
        <time>2021-10-14T15:55:24Z</time>
      </trkpt>
      <trkpt lat="40.9169910" lon="-5.6804420">
        <ele>851.4</ele>
        <time>2021-10-14T15:55:25Z</time>
      </trkpt>
      <trkpt lat="40.9169350" lon="-5.6804460">
        <ele>850.8</ele>
        <time>2021-10-14T15:55:26Z</time>
      </trkpt>
      <trkpt lat="40.9167470" lon="-5.6804450">
        <ele>849.8</ele>
        <time>2021-10-14T15:55:29Z</time>
      </trkpt>
      <trkpt lat="40.9166810" lon="-5.6804430">
        <ele>849.2</ele>
        <time>2021-10-14T15:55:30Z</time>
      </trkpt>
      <trkpt lat="40.9165410" lon="-5.6804420">
        <ele>847.8</ele>
        <time>2021-10-14T15:55:32Z</time>
      </trkpt>
      <trkpt lat="40.9163220" lon="-5.6804350">
        <ele>846.8</ele>
        <time>2021-10-14T15:55:35Z</time>
      </trkpt>
      <trkpt lat="40.9162500" lon="-5.6804320">
        <ele>846.6</ele>
        <time>2021-10-14T15:55:36Z</time>
      </trkpt>
      <trkpt lat="40.9161090" lon="-5.6804340">
        <ele>845.8</ele>
        <time>2021-10-14T15:55:38Z</time>
      </trkpt>
      <trkpt lat="40.9160400" lon="-5.6804460">
        <ele>845.4</ele>
        <time>2021-10-14T15:55:39Z</time>
      </trkpt>
      <trkpt lat="40.9159760" lon="-5.6804520">
        <ele>845.2</ele>
        <time>2021-10-14T15:55:40Z</time>
      </trkpt>
      <trkpt lat="40.9158030" lon="-5.6804190">
        <ele>844.2</ele>
        <time>2021-10-14T15:55:43Z</time>
      </trkpt>
      <trkpt lat="40.9157480" lon="-5.6804070">
        <ele>844.0</ele>
        <time>2021-10-14T15:55:44Z</time>
      </trkpt>
      <trkpt lat="40.9156910" lon="-5.6803810">
        <ele>843.8</ele>
        <time>2021-10-14T15:55:45Z</time>
      </trkpt>
      <trkpt lat="40.9155800" lon="-5.6803090">
        <ele>843.6</ele>
        <time>2021-10-14T15:55:47Z</time>
      </trkpt>
      <trkpt lat="40.9155160" lon="-5.6802830">
        <ele>843.4</ele>
        <time>2021-10-14T15:55:48Z</time>
      </trkpt>
      <trkpt lat="40.9154490" lon="-5.6802690">
        <ele>843.2</ele>
        <time>2021-10-14T15:55:49Z</time>
      </trkpt>
      <trkpt lat="40.9153750" lon="-5.6802600">
        <ele>842.6</ele>
        <time>2021-10-14T15:55:50Z</time>
      </trkpt>
      <trkpt lat="40.9151390" lon="-5.6802530">
        <ele>842.0</ele>
        <time>2021-10-14T15:55:53Z</time>
      </trkpt>
      <trkpt lat="40.9148860" lon="-5.6802600">
        <ele>840.6</ele>
        <time>2021-10-14T15:55:56Z</time>
      </trkpt>
      <trkpt lat="40.9146220" lon="-5.6802560">
        <ele>839.0</ele>
        <time>2021-10-14T15:55:59Z</time>
      </trkpt>
      <trkpt lat="40.9145320" lon="-5.6802530">
        <ele>838.6</ele>
        <time>2021-10-14T15:56:00Z</time>
      </trkpt>
      <trkpt lat="40.9144370" lon="-5.6802530">
        <ele>837.8</ele>
        <time>2021-10-14T15:56:01Z</time>
      </trkpt>
      <trkpt lat="40.9142450" lon="-5.6802790">
        <ele>837.4</ele>
        <time>2021-10-14T15:56:03Z</time>
      </trkpt>
      <trkpt lat="40.9141510" lon="-5.6803130">
        <ele>837.0</ele>
        <time>2021-10-14T15:56:04Z</time>
      </trkpt>
      <trkpt lat="40.9140580" lon="-5.6803540">
        <ele>836.2</ele>
        <time>2021-10-14T15:56:05Z</time>
      </trkpt>
      <trkpt lat="40.9138750" lon="-5.6804390">
        <ele>835.2</ele>
        <time>2021-10-14T15:56:07Z</time>
      </trkpt>
      <trkpt lat="40.9137000" lon="-5.6805140">
        <ele>834.2</ele>
        <time>2021-10-14T15:56:09Z</time>
      </trkpt>
      <trkpt lat="40.9135260" lon="-5.6805650">
        <ele>833.0</ele>
        <time>2021-10-14T15:56:11Z</time>
      </trkpt>
      <trkpt lat="40.9133540" lon="-5.6805770">
        <ele>832.0</ele>
        <time>2021-10-14T15:56:13Z</time>
      </trkpt>
      <trkpt lat="40.9131020" lon="-5.6805470">
        <ele>830.8</ele>
        <time>2021-10-14T15:56:16Z</time>
      </trkpt>
      <trkpt lat="40.9125550" lon="-5.6803800">
        <ele>829.8</ele>
        <time>2021-10-14T15:56:23Z</time>
      </trkpt>
      <trkpt lat="40.9122420" lon="-5.6803800">
        <ele>828.6</ele>
        <time>2021-10-14T15:56:27Z</time>
      </trkpt>
      <trkpt lat="40.9120850" lon="-5.6803950">
        <ele>828.4</ele>
        <time>2021-10-14T15:56:29Z</time>
      </trkpt>
      <trkpt lat="40.9120070" lon="-5.6804000">
        <ele>827.4</ele>
        <time>2021-10-14T15:56:30Z</time>
      </trkpt>
      <trkpt lat="40.9117770" lon="-5.6804180">
        <ele>827.0</ele>
        <time>2021-10-14T15:56:33Z</time>
      </trkpt>
      <trkpt lat="40.9117030" lon="-5.6804380">
        <ele>826.8</ele>
        <time>2021-10-14T15:56:34Z</time>
      </trkpt>
      <trkpt lat="40.9116300" lon="-5.6804620">
        <ele>826.6</ele>
        <time>2021-10-14T15:56:35Z</time>
      </trkpt>
      <trkpt lat="40.9112950" lon="-5.6805590">
        <ele>825.6</ele>
        <time>2021-10-14T15:56:40Z</time>
      </trkpt>
      <trkpt lat="40.9112310" lon="-5.6805720">
        <ele>825.6</ele>
        <time>2021-10-14T15:56:41Z</time>
      </trkpt>
      <trkpt lat="40.9109910" lon="-5.6806180">
        <ele>825.0</ele>
        <time>2021-10-14T15:56:45Z</time>
      </trkpt>
      <trkpt lat="40.9106320" lon="-5.6806750">
        <ele>824.6</ele>
        <time>2021-10-14T15:56:52Z</time>
      </trkpt>
      <trkpt lat="40.9105400" lon="-5.6806770">
        <ele>824.6</ele>
        <time>2021-10-14T15:56:54Z</time>
      </trkpt>
      <trkpt lat="40.9102690" lon="-5.6806590">
        <ele>824.6</ele>
        <time>2021-10-14T15:57:00Z</time>
      </trkpt>
      <trkpt lat="40.9101230" lon="-5.6806600">
        <ele>824.6</ele>
        <time>2021-10-14T15:57:03Z</time>
      </trkpt>
      <trkpt lat="40.9098810" lon="-5.6806840">
        <ele>824.8</ele>
        <time>2021-10-14T15:57:08Z</time>
      </trkpt>
      <trkpt lat="40.9096070" lon="-5.6807420">
        <ele>825.2</ele>
        <time>2021-10-14T15:57:14Z</time>
      </trkpt>
      <trkpt lat="40.9095190" lon="-5.6807690">
        <ele>825.2</ele>
        <time>2021-10-14T15:57:16Z</time>
      </trkpt>
      <trkpt lat="40.9091940" lon="-5.6808910">
        <ele>825.6</ele>
        <time>2021-10-14T15:57:24Z</time>
      </trkpt>
      <trkpt lat="40.9089070" lon="-5.6810020">
        <ele>826.4</ele>
        <time>2021-10-14T15:57:32Z</time>
      </trkpt>
      <trkpt lat="40.9087710" lon="-5.6810600">
        <ele>826.6</ele>
        <time>2021-10-14T15:57:36Z</time>
      </trkpt>
      <trkpt lat="40.9087050" lon="-5.6810850">
        <ele>826.8</ele>
        <time>2021-10-14T15:57:38Z</time>
      </trkpt>
      <trkpt lat="40.9084350" lon="-5.6811560">
        <ele>827.8</ele>
        <time>2021-10-14T15:57:46Z</time>
      </trkpt>
      <trkpt lat="40.9083700" lon="-5.6811660">
        <ele>828.2</ele>
        <time>2021-10-14T15:57:48Z</time>
      </trkpt>
      <trkpt lat="40.9081850" lon="-5.6811880">
        <ele>828.6</ele>
        <time>2021-10-14T15:57:53Z</time>
      </trkpt>
      <trkpt lat="40.9080340" lon="-5.6811960">
        <ele>828.8</ele>
        <time>2021-10-14T15:57:57Z</time>
      </trkpt>
      <trkpt lat="40.9080070" lon="-5.6811920">
        <ele>828.8</ele>
        <time>2021-10-14T15:57:58Z</time>
      </trkpt>
      <trkpt lat="40.9079300" lon="-5.6811920">
        <ele>829.0</ele>
        <time>2021-10-14T15:58:00Z</time>
      </trkpt>
      <trkpt lat="40.9078050" lon="-5.6811870">
        <ele>829.0</ele>
        <time>2021-10-14T15:58:03Z</time>
      </trkpt>
      <trkpt lat="40.9074410" lon="-5.6811470">
        <ele>829.6</ele>
        <time>2021-10-14T15:58:13Z</time>
      </trkpt>
      <trkpt lat="40.9073430" lon="-5.6811390">
        <ele>829.8</ele>
        <time>2021-10-14T15:58:16Z</time>
      </trkpt>
      <trkpt lat="40.9072370" lon="-5.6811240">
        <ele>830.2</ele>
        <time>2021-10-14T15:58:19Z</time>
      </trkpt>
      <trkpt lat="40.9071270" lon="-5.6811140">
        <ele>830.4</ele>
        <time>2021-10-14T15:58:22Z</time>
      </trkpt>
      <trkpt lat="40.9068370" lon="-5.6811120">
        <ele>830.6</ele>
        <time>2021-10-14T15:58:29Z</time>
      </trkpt>
      <trkpt lat="40.9067970" lon="-5.6811110">
        <ele>830.6</ele>
        <time>2021-10-14T15:58:30Z</time>
      </trkpt>
      <trkpt lat="40.9066820" lon="-5.6811100">
        <ele>830.2</ele>
        <time>2021-10-14T15:58:32Z</time>
      </trkpt>
      <trkpt lat="40.9065290" lon="-5.6811250">
        <ele>829.8</ele>
        <time>2021-10-14T15:58:35Z</time>
      </trkpt>
      <trkpt lat="40.9064780" lon="-5.6811360">
        <ele>829.6</ele>
        <time>2021-10-14T15:58:36Z</time>
      </trkpt>
      <trkpt lat="40.9064300" lon="-5.6811500">
        <ele>829.4</ele>
        <time>2021-10-14T15:58:37Z</time>
      </trkpt>
      <trkpt lat="40.9063370" lon="-5.6811850">
        <ele>829.4</ele>
        <time>2021-10-14T15:58:39Z</time>
      </trkpt>
      <trkpt lat="40.9061560" lon="-5.6812570">
        <ele>829.4</ele>
        <time>2021-10-14T15:58:43Z</time>
      </trkpt>
      <trkpt lat="40.9060610" lon="-5.6812900">
        <ele>829.2</ele>
        <time>2021-10-14T15:58:45Z</time>
      </trkpt>
      <trkpt lat="40.9059700" lon="-5.6813190">
        <ele>829.2</ele>
        <time>2021-10-14T15:58:47Z</time>
      </trkpt>
      <trkpt lat="40.9058750" lon="-5.6813520">
        <ele>829.2</ele>
        <time>2021-10-14T15:58:49Z</time>
      </trkpt>
      <trkpt lat="40.9056290" lon="-5.6814270">
        <ele>829.0</ele>
        <time>2021-10-14T15:58:54Z</time>
      </trkpt>
      <trkpt lat="40.9052280" lon="-5.6815280">
        <ele>829.2</ele>
        <time>2021-10-14T15:59:02Z</time>
      </trkpt>
      <trkpt lat="40.9046720" lon="-5.6816030">
        <ele>829.0</ele>
        <time>2021-10-14T15:59:13Z</time>
      </trkpt>
      <trkpt lat="40.9046220" lon="-5.6816090">
        <ele>829.0</ele>
        <time>2021-10-14T15:59:14Z</time>
      </trkpt>
      <trkpt lat="40.9044770" lon="-5.6816200">
        <ele>829.0</ele>
        <time>2021-10-14T15:59:17Z</time>
      </trkpt>
      <trkpt lat="40.9042850" lon="-5.6816400">
        <ele>829.2</ele>
        <time>2021-10-14T15:59:20Z</time>
      </trkpt>
      <trkpt lat="40.9042400" lon="-5.6816460">
        <ele>829.2</ele>
        <time>2021-10-14T15:59:21Z</time>
      </trkpt>
      <trkpt lat="40.9039770" lon="-5.6816940">
        <ele>829.8</ele>
        <time>2021-10-14T15:59:27Z</time>
      </trkpt>
      <trkpt lat="40.9038910" lon="-5.6817180">
        <ele>829.8</ele>
        <time>2021-10-14T15:59:29Z</time>
      </trkpt>
      <trkpt lat="40.9037680" lon="-5.6817560">
        <ele>830.0</ele>
        <time>2021-10-14T15:59:33Z</time>
      </trkpt>
      <trkpt lat="40.9035750" lon="-5.6818220">
        <ele>830.4</ele>
        <time>2021-10-14T15:59:37Z</time>
      </trkpt>
      <trkpt lat="40.9034650" lon="-5.6818660">
        <ele>830.8</ele>
        <time>2021-10-14T15:59:40Z</time>
      </trkpt>
      <trkpt lat="40.9034300" lon="-5.6818840">
        <ele>831.0</ele>
        <time>2021-10-14T15:59:42Z</time>
      </trkpt>
      <trkpt lat="40.9032590" lon="-5.6819650">
        <ele>831.6</ele>
        <time>2021-10-14T15:59:47Z</time>
      </trkpt>
      <trkpt lat="40.9031030" lon="-5.6820370">
        <ele>832.0</ele>
        <time>2021-10-14T15:59:51Z</time>
      </trkpt>
      <trkpt lat="40.9030380" lon="-5.6820630">
        <ele>832.0</ele>
        <time>2021-10-14T15:59:53Z</time>
      </trkpt>
      <trkpt lat="40.9029450" lon="-5.6820970">
        <ele>832.6</ele>
        <time>2021-10-14T15:59:56Z</time>
      </trkpt>
      <trkpt lat="40.9027630" lon="-5.6821660">
        <ele>833.2</ele>
        <time>2021-10-14T16:00:02Z</time>
      </trkpt>
      <trkpt lat="40.9026060" lon="-5.6822350">
        <ele>833.6</ele>
        <time>2021-10-14T16:00:07Z</time>
      </trkpt>
      <trkpt lat="40.9025060" lon="-5.6822740">
        <ele>834.0</ele>
        <time>2021-10-14T16:00:10Z</time>
      </trkpt>
      <trkpt lat="40.9023870" lon="-5.6823290">
        <ele>834.2</ele>
        <time>2021-10-14T16:00:14Z</time>
      </trkpt>
      <trkpt lat="40.9022680" lon="-5.6823820">
        <ele>834.6</ele>
        <time>2021-10-14T16:00:18Z</time>
      </trkpt>
      <trkpt lat="40.9021450" lon="-5.6824480">
        <ele>835.0</ele>
        <time>2021-10-14T16:00:22Z</time>
      </trkpt>
      <trkpt lat="40.9020570" lon="-5.6824900">
        <ele>835.2</ele>
        <time>2021-10-14T16:00:25Z</time>
      </trkpt>
      <trkpt lat="40.9019350" lon="-5.6825550">
        <ele>835.8</ele>
        <time>2021-10-14T16:00:29Z</time>
      </trkpt>
      <trkpt lat="40.9018470" lon="-5.6826060">
        <ele>836.0</ele>
        <time>2021-10-14T16:00:32Z</time>
      </trkpt>
      <trkpt lat="40.9017480" lon="-5.6826620">
        <ele>836.4</ele>
        <time>2021-10-14T16:00:35Z</time>
      </trkpt>
      <trkpt lat="40.9016850" lon="-5.6826980">
        <ele>836.6</ele>
        <time>2021-10-14T16:00:37Z</time>
      </trkpt>
      <trkpt lat="40.9016220" lon="-5.6827320">
        <ele>836.8</ele>
        <time>2021-10-14T16:00:39Z</time>
      </trkpt>
      <trkpt lat="40.9015620" lon="-5.6827600">
        <ele>837.0</ele>
        <time>2021-10-14T16:00:41Z</time>
      </trkpt>
      <trkpt lat="40.9015320" lon="-5.6827790">
        <ele>837.0</ele>
        <time>2021-10-14T16:00:42Z</time>
      </trkpt>
      <trkpt lat="40.9015010" lon="-5.6827950">
        <ele>837.0</ele>
        <time>2021-10-14T16:00:43Z</time>
      </trkpt>
      <trkpt lat="40.9014390" lon="-5.6828220">
        <ele>837.2</ele>
        <time>2021-10-14T16:00:45Z</time>
      </trkpt>
      <trkpt lat="40.9013690" lon="-5.6828360">
        <ele>837.4</ele>
        <time>2021-10-14T16:00:47Z</time>
      </trkpt>
      <trkpt lat="40.9013330" lon="-5.6828450">
        <ele>837.4</ele>
        <time>2021-10-14T16:00:49Z</time>
      </trkpt>
      <trkpt lat="40.9012220" lon="-5.6828700">
        <ele>837.6</ele>
        <time>2021-10-14T16:00:51Z</time>
      </trkpt>
      <trkpt lat="40.9011840" lon="-5.6828760">
        <ele>837.6</ele>
        <time>2021-10-14T16:00:52Z</time>
      </trkpt>
      <trkpt lat="40.9011080" lon="-5.6828880">
        <ele>837.6</ele>
        <time>2021-10-14T16:00:54Z</time>
      </trkpt>
      <trkpt lat="40.9010300" lon="-5.6828990">
        <ele>837.8</ele>
        <time>2021-10-14T16:00:56Z</time>
      </trkpt>
      <trkpt lat="40.9006620" lon="-5.6829480">
        <ele>838.2</ele>
        <time>2021-10-14T16:01:06Z</time>
      </trkpt>
      <trkpt lat="40.9006250" lon="-5.6829530">
        <ele>838.2</ele>
        <time>2021-10-14T16:01:07Z</time>
      </trkpt>
      <trkpt lat="40.9004860" lon="-5.6829680">
        <ele>838.4</ele>
        <time>2021-10-14T16:01:11Z</time>
      </trkpt>
      <trkpt lat="40.9002630" lon="-5.6829940">
        <ele>839.2</ele>
        <time>2021-10-14T16:01:18Z</time>
      </trkpt>
      <trkpt lat="40.9002010" lon="-5.6830030">
        <ele>839.6</ele>
        <time>2021-10-14T16:01:20Z</time>
      </trkpt>
      <trkpt lat="40.9000460" lon="-5.6830200">
        <ele>839.8</ele>
        <time>2021-10-14T16:01:25Z</time>
      </trkpt>
      <trkpt lat="40.8999770" lon="-5.6830350">
        <ele>840.2</ele>
        <time>2021-10-14T16:01:27Z</time>
      </trkpt>
      <trkpt lat="40.8998090" lon="-5.6830630">
        <ele>840.6</ele>
        <time>2021-10-14T16:01:32Z</time>
      </trkpt>
      <trkpt lat="40.8997740" lon="-5.6830700">
        <ele>840.6</ele>
        <time>2021-10-14T16:01:33Z</time>
      </trkpt>
      <trkpt lat="40.8997060" lon="-5.6830810">
        <ele>840.8</ele>
        <time>2021-10-14T16:01:35Z</time>
      </trkpt>
      <trkpt lat="40.8996720" lon="-5.6830870">
        <ele>840.8</ele>
        <time>2021-10-14T16:01:36Z</time>
      </trkpt>
      <trkpt lat="40.8996020" lon="-5.6830940">
        <ele>840.8</ele>
        <time>2021-10-14T16:01:38Z</time>
      </trkpt>
      <trkpt lat="40.8994940" lon="-5.6830920">
        <ele>841.0</ele>
        <time>2021-10-14T16:01:42Z</time>
      </trkpt>
      <trkpt lat="40.8994290" lon="-5.6831040">
        <ele>841.0</ele>
        <time>2021-10-14T16:01:43Z</time>
      </trkpt>
      <trkpt lat="40.8993310" lon="-5.6831200">
        <ele>841.4</ele>
        <time>2021-10-14T16:01:47Z</time>
      </trkpt>
      <trkpt lat="40.8991320" lon="-5.6831530">
        <ele>841.6</ele>
        <time>2021-10-14T16:01:52Z</time>
      </trkpt>
      <trkpt lat="40.8989570" lon="-5.6831660">
        <ele>842.0</ele>
        <time>2021-10-14T16:01:57Z</time>
      </trkpt>
      <trkpt lat="40.8988450" lon="-5.6831790">
        <ele>842.4</ele>
        <time>2021-10-14T16:02:00Z</time>
      </trkpt>
      <trkpt lat="40.8986960" lon="-5.6831920">
        <ele>842.8</ele>
        <time>2021-10-14T16:02:04Z</time>
      </trkpt>
      <trkpt lat="40.8985500" lon="-5.6832060">
        <ele>843.0</ele>
        <time>2021-10-14T16:02:09Z</time>
      </trkpt>
      <trkpt lat="40.8984650" lon="-5.6832190">
        <ele>843.0</ele>
        <time>2021-10-14T16:02:10Z</time>
      </trkpt>
      <trkpt lat="40.8982290" lon="-5.6832620">
        <ele>842.8</ele>
        <time>2021-10-14T16:02:15Z</time>
      </trkpt>
      <trkpt lat="40.8979580" lon="-5.6833010">
        <ele>841.6</ele>
        <time>2021-10-14T16:02:20Z</time>
      </trkpt>
      <trkpt lat="40.8978580" lon="-5.6833120">
        <ele>841.0</ele>
        <time>2021-10-14T16:02:22Z</time>
      </trkpt>
      <trkpt lat="40.8976740" lon="-5.6833330">
        <ele>840.6</ele>
        <time>2021-10-14T16:02:26Z</time>
      </trkpt>
      <trkpt lat="40.8974470" lon="-5.6833570">
        <ele>841.2</ele>
        <time>2021-10-14T16:02:31Z</time>
      </trkpt>
      <trkpt lat="40.8971790" lon="-5.6833920">
        <ele>841.6</ele>
        <time>2021-10-14T16:02:37Z</time>
      </trkpt>
      <trkpt lat="40.8971330" lon="-5.6833980">
        <ele>841.8</ele>
        <time>2021-10-14T16:02:38Z</time>
      </trkpt>
      <trkpt lat="40.8970380" lon="-5.6834080">
        <ele>841.8</ele>
        <time>2021-10-14T16:02:41Z</time>
      </trkpt>
      <trkpt lat="40.8969420" lon="-5.6834270">
        <ele>841.8</ele>
        <time>2021-10-14T16:02:42Z</time>
      </trkpt>
      <trkpt lat="40.8967280" lon="-5.6834680">
        <ele>842.0</ele>
        <time>2021-10-14T16:02:47Z</time>
      </trkpt>
      <trkpt lat="40.8966910" lon="-5.6834580">
        <ele>842.0</ele>
        <time>2021-10-14T16:02:48Z</time>
      </trkpt>
      <trkpt lat="40.8966220" lon="-5.6834140">
        <ele>842.0</ele>
        <time>2021-10-14T16:02:50Z</time>
      </trkpt>
      <trkpt lat="40.8965890" lon="-5.6833740">
        <ele>842.2</ele>
        <time>2021-10-14T16:02:51Z</time>
      </trkpt>
      <trkpt lat="40.8965620" lon="-5.6833190">
        <ele>842.2</ele>
        <time>2021-10-14T16:02:52Z</time>
      </trkpt>
      <trkpt lat="40.8965140" lon="-5.6831830">
        <ele>842.2</ele>
        <time>2021-10-14T16:02:54Z</time>
      </trkpt>
      <trkpt lat="40.8964850" lon="-5.6831070">
        <ele>842.2</ele>
        <time>2021-10-14T16:02:55Z</time>
      </trkpt>
      <trkpt lat="40.8964440" lon="-5.6830300">
        <ele>841.8</ele>
        <time>2021-10-14T16:02:56Z</time>
      </trkpt>
      <trkpt lat="40.8963340" lon="-5.6829120">
        <ele>841.2</ele>
        <time>2021-10-14T16:02:58Z</time>
      </trkpt>
      <trkpt lat="40.8962700" lon="-5.6828870">
        <ele>840.6</ele>
        <time>2021-10-14T16:02:59Z</time>
      </trkpt>
      <trkpt lat="40.8961430" lon="-5.6829060">
        <ele>840.4</ele>
        <time>2021-10-14T16:03:01Z</time>
      </trkpt>
      <trkpt lat="40.8960890" lon="-5.6829420">
        <ele>840.2</ele>
        <time>2021-10-14T16:03:02Z</time>
      </trkpt>
      <trkpt lat="40.8958770" lon="-5.6831290">
        <ele>839.8</ele>
        <time>2021-10-14T16:03:07Z</time>
      </trkpt>
      <trkpt lat="40.8958070" lon="-5.6831960">
        <ele>839.8</ele>
        <time>2021-10-14T16:03:09Z</time>
      </trkpt>
      <trkpt lat="40.8957060" lon="-5.6832930">
        <ele>840.2</ele>
        <time>2021-10-14T16:03:13Z</time>
      </trkpt>
      <trkpt lat="40.8955840" lon="-5.6834040">
        <ele>840.8</ele>
        <time>2021-10-14T16:03:16Z</time>
      </trkpt>
      <trkpt lat="40.8954010" lon="-5.6835700">
        <ele>841.8</ele>
        <time>2021-10-14T16:03:23Z</time>
      </trkpt>
      <trkpt lat="40.8953330" lon="-5.6836290">
        <ele>843.2</ele>
        <time>2021-10-14T16:03:26Z</time>
      </trkpt>
      <trkpt lat="40.8952820" lon="-5.6836770">
        <ele>843.6</ele>
        <time>2021-10-14T16:03:28Z</time>
      </trkpt>
      <trkpt lat="40.8952230" lon="-5.6837310">
        <ele>844.2</ele>
        <time>2021-10-14T16:03:30Z</time>
      </trkpt>
      <trkpt lat="40.8951930" lon="-5.6837630">
        <ele>844.2</ele>
        <time>2021-10-14T16:03:31Z</time>
      </trkpt>
      <trkpt lat="40.8950000" lon="-5.6839410">
        <ele>844.4</ele>
        <time>2021-10-14T16:03:36Z</time>
      </trkpt>
      <trkpt lat="40.8949040" lon="-5.6840240">
        <ele>844.2</ele>
        <time>2021-10-14T16:03:38Z</time>
      </trkpt>
      <trkpt lat="40.8948540" lon="-5.6840650">
        <ele>843.8</ele>
        <time>2021-10-14T16:03:40Z</time>
      </trkpt>
      <trkpt lat="40.8946700" lon="-5.6841890">
        <ele>843.4</ele>
        <time>2021-10-14T16:03:42Z</time>
      </trkpt>
      <trkpt lat="40.8945980" lon="-5.6842280">
        <ele>842.8</ele>
        <time>2021-10-14T16:03:43Z</time>
      </trkpt>
      <trkpt lat="40.8945230" lon="-5.6842660">
        <ele>842.4</ele>
        <time>2021-10-14T16:03:44Z</time>
      </trkpt>
      <trkpt lat="40.8944470" lon="-5.6843020">
        <ele>842.0</ele>
        <time>2021-10-14T16:03:45Z</time>
      </trkpt>
      <trkpt lat="40.8943680" lon="-5.6843380">
        <ele>841.6</ele>
        <time>2021-10-14T16:03:46Z</time>
      </trkpt>
      <trkpt lat="40.8942840" lon="-5.6843760">
        <ele>841.4</ele>
        <time>2021-10-14T16:03:47Z</time>
      </trkpt>
      <trkpt lat="40.8940310" lon="-5.6844940">
        <ele>840.2</ele>
        <time>2021-10-14T16:03:50Z</time>
      </trkpt>
      <trkpt lat="40.8938620" lon="-5.6845760">
        <ele>838.0</ele>
        <time>2021-10-14T16:03:52Z</time>
      </trkpt>
      <trkpt lat="40.8936990" lon="-5.6846490">
        <ele>836.8</ele>
        <time>2021-10-14T16:03:54Z</time>
      </trkpt>
      <trkpt lat="40.8936220" lon="-5.6846840">
        <ele>836.4</ele>
        <time>2021-10-14T16:03:55Z</time>
      </trkpt>
      <trkpt lat="40.8934760" lon="-5.6847470">
        <ele>835.6</ele>
        <time>2021-10-14T16:03:57Z</time>
      </trkpt>
      <trkpt lat="40.8933400" lon="-5.6848020">
        <ele>835.2</ele>
        <time>2021-10-14T16:03:59Z</time>
      </trkpt>
      <trkpt lat="40.8932780" lon="-5.6848360">
        <ele>835.2</ele>
        <time>2021-10-14T16:04:00Z</time>
      </trkpt>
      <trkpt lat="40.8931010" lon="-5.6849190">
        <ele>834.4</ele>
        <time>2021-10-14T16:04:03Z</time>
      </trkpt>
      <trkpt lat="40.8929890" lon="-5.6849570">
        <ele>834.0</ele>
        <time>2021-10-14T16:04:05Z</time>
      </trkpt>
      <trkpt lat="40.8927760" lon="-5.6850480">
        <ele>833.8</ele>
        <time>2021-10-14T16:04:09Z</time>
      </trkpt>
      <trkpt lat="40.8927240" lon="-5.6850740">
        <ele>833.8</ele>
        <time>2021-10-14T16:04:10Z</time>
      </trkpt>
      <trkpt lat="40.8926710" lon="-5.6851010">
        <ele>833.6</ele>
        <time>2021-10-14T16:04:12Z</time>
      </trkpt>
      <trkpt lat="40.8924040" lon="-5.6852220">
        <ele>833.4</ele>
        <time>2021-10-14T16:04:16Z</time>
      </trkpt>
      <trkpt lat="40.8921990" lon="-5.6853140">
        <ele>833.4</ele>
        <time>2021-10-14T16:04:20Z</time>
      </trkpt>
      <trkpt lat="40.8918760" lon="-5.6854590">
        <ele>833.4</ele>
        <time>2021-10-14T16:04:27Z</time>
      </trkpt>
      <trkpt lat="40.8916370" lon="-5.6855640">
        <ele>833.4</ele>
        <time>2021-10-14T16:04:32Z</time>
      </trkpt>
      <trkpt lat="40.8914910" lon="-5.6856220">
        <ele>833.4</ele>
        <time>2021-10-14T16:04:35Z</time>
      </trkpt>
      <trkpt lat="40.8914430" lon="-5.6856410">
        <ele>833.4</ele>
        <time>2021-10-14T16:04:36Z</time>
      </trkpt>
      <trkpt lat="40.8913940" lon="-5.6856560">
        <ele>833.4</ele>
        <time>2021-10-14T16:04:37Z</time>
      </trkpt>
      <trkpt lat="40.8912520" lon="-5.6857210">
        <ele>833.4</ele>
        <time>2021-10-14T16:04:40Z</time>
      </trkpt>
      <trkpt lat="40.8911160" lon="-5.6857820">
        <ele>833.6</ele>
        <time>2021-10-14T16:04:43Z</time>
      </trkpt>
      <trkpt lat="40.8910140" lon="-5.6858090">
        <ele>833.8</ele>
        <time>2021-10-14T16:04:45Z</time>
      </trkpt>
      <trkpt lat="40.8908640" lon="-5.6858330">
        <ele>833.8</ele>
        <time>2021-10-14T16:04:48Z</time>
      </trkpt>
      <trkpt lat="40.8907160" lon="-5.6858230">
        <ele>833.8</ele>
        <time>2021-10-14T16:04:51Z</time>
      </trkpt>
      <trkpt lat="40.8904820" lon="-5.6858130">
        <ele>833.8</ele>
        <time>2021-10-14T16:04:56Z</time>
      </trkpt>
      <trkpt lat="40.8903450" lon="-5.6858080">
        <ele>833.8</ele>
        <time>2021-10-14T16:04:59Z</time>
      </trkpt>
      <trkpt lat="40.8902570" lon="-5.6858060">
        <ele>833.8</ele>
        <time>2021-10-14T16:05:01Z</time>
      </trkpt>
      <trkpt lat="40.8899970" lon="-5.6857430">
        <ele>834.0</ele>
        <time>2021-10-14T16:05:07Z</time>
      </trkpt>
      <trkpt lat="40.8899560" lon="-5.6857260">
        <ele>834.0</ele>
        <time>2021-10-14T16:05:08Z</time>
      </trkpt>
      <trkpt lat="40.8899150" lon="-5.6857090">
        <ele>834.0</ele>
        <time>2021-10-14T16:05:09Z</time>
      </trkpt>
      <trkpt lat="40.8898760" lon="-5.6856960">
        <ele>834.2</ele>
        <time>2021-10-14T16:05:10Z</time>
      </trkpt>
      <trkpt lat="40.8898370" lon="-5.6856840">
        <ele>834.2</ele>
        <time>2021-10-14T16:05:11Z</time>
      </trkpt>
      <trkpt lat="40.8898010" lon="-5.6856840">
        <ele>834.4</ele>
        <time>2021-10-14T16:05:12Z</time>
      </trkpt>
      <trkpt lat="40.8897670" lon="-5.6856900">
        <ele>834.4</ele>
        <time>2021-10-14T16:05:13Z</time>
      </trkpt>
      <trkpt lat="40.8896700" lon="-5.6857200">
        <ele>834.6</ele>
        <time>2021-10-14T16:05:16Z</time>
      </trkpt>
      <trkpt lat="40.8895630" lon="-5.6857580">
        <ele>834.8</ele>
        <time>2021-10-14T16:05:19Z</time>
      </trkpt>
      <trkpt lat="40.8895230" lon="-5.6857670">
        <ele>835.0</ele>
        <time>2021-10-14T16:05:20Z</time>
      </trkpt>
      <trkpt lat="40.8893420" lon="-5.6858050">
        <ele>835.6</ele>
        <time>2021-10-14T16:05:25Z</time>
      </trkpt>
      <trkpt lat="40.8892550" lon="-5.6858270">
        <ele>835.8</ele>
        <time>2021-10-14T16:05:28Z</time>
      </trkpt>
      <trkpt lat="40.8891510" lon="-5.6858530">
        <ele>836.6</ele>
        <time>2021-10-14T16:05:32Z</time>
      </trkpt>
      <trkpt lat="40.8890830" lon="-5.6858710">
        <ele>837.0</ele>
        <time>2021-10-14T16:05:35Z</time>
      </trkpt>
      <trkpt lat="40.8889910" lon="-5.6858910">
        <ele>837.6</ele>
        <time>2021-10-14T16:05:39Z</time>
      </trkpt>
      <trkpt lat="40.8889440" lon="-5.6859010">
        <ele>838.4</ele>
        <time>2021-10-14T16:05:41Z</time>
      </trkpt>
      <trkpt lat="40.8888530" lon="-5.6859320">
        <ele>839.0</ele>
        <time>2021-10-14T16:05:45Z</time>
      </trkpt>
      <trkpt lat="40.8888170" lon="-5.6859410">
        <ele>839.2</ele>
        <time>2021-10-14T16:05:47Z</time>
      </trkpt>
      <trkpt lat="40.8887580" lon="-5.6859510">
        <ele>839.8</ele>
        <time>2021-10-14T16:05:50Z</time>
      </trkpt>
      <trkpt lat="40.8887380" lon="-5.6859540">
        <ele>840.0</ele>
        <time>2021-10-14T16:05:51Z</time>
      </trkpt>
      <trkpt lat="40.8885960" lon="-5.6859910">
        <ele>841.2</ele>
        <time>2021-10-14T16:05:58Z</time>
      </trkpt>
      <trkpt lat="40.8885170" lon="-5.6860160">
        <ele>841.8</ele>
        <time>2021-10-14T16:06:02Z</time>
      </trkpt>
      <trkpt lat="40.8884770" lon="-5.6860210">
        <ele>842.0</ele>
        <time>2021-10-14T16:06:04Z</time>
      </trkpt>
      <trkpt lat="40.8884380" lon="-5.6860310">
        <ele>842.2</ele>
        <time>2021-10-14T16:06:06Z</time>
      </trkpt>
      <trkpt lat="40.8883780" lon="-5.6860520">
        <ele>842.6</ele>
        <time>2021-10-14T16:06:09Z</time>
      </trkpt>
      <trkpt lat="40.8883180" lon="-5.6860680">
        <ele>842.8</ele>
        <time>2021-10-14T16:06:12Z</time>
      </trkpt>
      <trkpt lat="40.8882530" lon="-5.6860820">
        <ele>843.2</ele>
        <time>2021-10-14T16:06:15Z</time>
      </trkpt>
      <trkpt lat="40.8882020" lon="-5.6860920">
        <ele>843.6</ele>
        <time>2021-10-14T16:06:17Z</time>
      </trkpt>
      <trkpt lat="40.8881790" lon="-5.6860950">
        <ele>843.6</ele>
        <time>2021-10-14T16:06:18Z</time>
      </trkpt>
      <trkpt lat="40.8881560" lon="-5.6861000">
        <ele>843.8</ele>
        <time>2021-10-14T16:06:19Z</time>
      </trkpt>
      <trkpt lat="40.8881330" lon="-5.6861050">
        <ele>843.8</ele>
        <time>2021-10-14T16:06:20Z</time>
      </trkpt>
      <trkpt lat="40.8880860" lon="-5.6861160">
        <ele>844.0</ele>
        <time>2021-10-14T16:06:22Z</time>
      </trkpt>
      <trkpt lat="40.8880620" lon="-5.6861230">
        <ele>844.2</ele>
        <time>2021-10-14T16:06:23Z</time>
      </trkpt>
      <trkpt lat="40.8880370" lon="-5.6861320">
        <ele>844.4</ele>
        <time>2021-10-14T16:06:24Z</time>
      </trkpt>
      <trkpt lat="40.8879830" lon="-5.6861460">
        <ele>844.6</ele>
        <time>2021-10-14T16:06:26Z</time>
      </trkpt>
      <trkpt lat="40.8879270" lon="-5.6861620">
        <ele>844.8</ele>
        <time>2021-10-14T16:06:28Z</time>
      </trkpt>
      <trkpt lat="40.8876800" lon="-5.6862120">
        <ele>845.2</ele>
        <time>2021-10-14T16:06:36Z</time>
      </trkpt>
      <trkpt lat="40.8876480" lon="-5.6862220">
        <ele>845.4</ele>
        <time>2021-10-14T16:06:37Z</time>
      </trkpt>
      <trkpt lat="40.8874410" lon="-5.6862670">
        <ele>845.6</ele>
        <time>2021-10-14T16:06:43Z</time>
      </trkpt>
      <trkpt lat="40.8874060" lon="-5.6862750">
        <ele>845.6</ele>
        <time>2021-10-14T16:06:44Z</time>
      </trkpt>
      <trkpt lat="40.8871070" lon="-5.6863630">
        <ele>845.6</ele>
        <time>2021-10-14T16:06:53Z</time>
      </trkpt>
      <trkpt lat="40.8868630" lon="-5.6864270">
        <ele>846.2</ele>
        <time>2021-10-14T16:07:00Z</time>
      </trkpt>
      <trkpt lat="40.8867910" lon="-5.6864360">
        <ele>846.4</ele>
        <time>2021-10-14T16:07:02Z</time>
      </trkpt>
      <trkpt lat="40.8867170" lon="-5.6864530">
        <ele>846.4</ele>
        <time>2021-10-14T16:07:04Z</time>
      </trkpt>
      <trkpt lat="40.8866810" lon="-5.6864610">
        <ele>846.4</ele>
        <time>2021-10-14T16:07:05Z</time>
      </trkpt>
      <trkpt lat="40.8866080" lon="-5.6864730">
        <ele>846.4</ele>
        <time>2021-10-14T16:07:07Z</time>
      </trkpt>
      <trkpt lat="40.8865380" lon="-5.6864920">
        <ele>846.4</ele>
        <time>2021-10-14T16:07:09Z</time>
      </trkpt>
      <trkpt lat="40.8864300" lon="-5.6865190">
        <ele>846.4</ele>
        <time>2021-10-14T16:07:12Z</time>
      </trkpt>
      <trkpt lat="40.8863580" lon="-5.6865400">
        <ele>846.4</ele>
        <time>2021-10-14T16:07:14Z</time>
      </trkpt>
      <trkpt lat="40.8863210" lon="-5.6865520">
        <ele>846.4</ele>
        <time>2021-10-14T16:07:15Z</time>
      </trkpt>
      <trkpt lat="40.8862420" lon="-5.6865710">
        <ele>846.4</ele>
        <time>2021-10-14T16:07:17Z</time>
      </trkpt>
      <trkpt lat="40.8861630" lon="-5.6865780">
        <ele>846.2</ele>
        <time>2021-10-14T16:07:19Z</time>
      </trkpt>
      <trkpt lat="40.8860880" lon="-5.6865870">
        <ele>846.0</ele>
        <time>2021-10-14T16:07:21Z</time>
      </trkpt>
      <trkpt lat="40.8860420" lon="-5.6865930">
        <ele>846.0</ele>
        <time>2021-10-14T16:07:22Z</time>
      </trkpt>
      <trkpt lat="40.8859000" lon="-5.6866160">
        <ele>846.0</ele>
        <time>2021-10-14T16:07:26Z</time>
      </trkpt>
      <trkpt lat="40.8858280" lon="-5.6866310">
        <ele>846.0</ele>
        <time>2021-10-14T16:07:28Z</time>
      </trkpt>
      <trkpt lat="40.8857500" lon="-5.6866460">
        <ele>846.2</ele>
        <time>2021-10-14T16:07:30Z</time>
      </trkpt>
      <trkpt lat="40.8856880" lon="-5.6866570">
        <ele>846.4</ele>
        <time>2021-10-14T16:07:32Z</time>
      </trkpt>
      <trkpt lat="40.8855410" lon="-5.6866850">
        <ele>846.2</ele>
        <time>2021-10-14T16:07:36Z</time>
      </trkpt>
      <trkpt lat="40.8853760" lon="-5.6867170">
        <ele>846.8</ele>
        <time>2021-10-14T16:07:41Z</time>
      </trkpt>
      <trkpt lat="40.8851930" lon="-5.6867430">
        <ele>847.6</ele>
        <time>2021-10-14T16:07:47Z</time>
      </trkpt>
      <trkpt lat="40.8850900" lon="-5.6867520">
        <ele>847.8</ele>
        <time>2021-10-14T16:07:50Z</time>
      </trkpt>
      <trkpt lat="40.8848340" lon="-5.6867910">
        <ele>848.6</ele>
        <time>2021-10-14T16:07:58Z</time>
      </trkpt>
      <trkpt lat="40.8847980" lon="-5.6867970">
        <ele>848.6</ele>
        <time>2021-10-14T16:07:59Z</time>
      </trkpt>
      <trkpt lat="40.8846880" lon="-5.6868400">
        <ele>848.8</ele>
        <time>2021-10-14T16:08:02Z</time>
      </trkpt>
      <trkpt lat="40.8846010" lon="-5.6868710">
        <ele>848.6</ele>
        <time>2021-10-14T16:08:04Z</time>
      </trkpt>
      <trkpt lat="40.8845550" lon="-5.6868790">
        <ele>848.6</ele>
        <time>2021-10-14T16:08:05Z</time>
      </trkpt>
      <trkpt lat="40.8843070" lon="-5.6869130">
        <ele>848.2</ele>
        <time>2021-10-14T16:08:10Z</time>
      </trkpt>
      <trkpt lat="40.8842540" lon="-5.6869210">
        <ele>848.2</ele>
        <time>2021-10-14T16:08:12Z</time>
      </trkpt>
      <trkpt lat="40.8841460" lon="-5.6869400">
        <ele>848.0</ele>
        <time>2021-10-14T16:08:13Z</time>
      </trkpt>
      <trkpt lat="40.8840410" lon="-5.6869610">
        <ele>847.8</ele>
        <time>2021-10-14T16:08:15Z</time>
      </trkpt>
      <trkpt lat="40.8839410" lon="-5.6869740">
        <ele>847.4</ele>
        <time>2021-10-14T16:08:17Z</time>
      </trkpt>
      <trkpt lat="40.8838040" lon="-5.6869900">
        <ele>846.8</ele>
        <time>2021-10-14T16:08:20Z</time>
      </trkpt>
      <trkpt lat="40.8837140" lon="-5.6869980">
        <ele>846.2</ele>
        <time>2021-10-14T16:08:22Z</time>
      </trkpt>
      <trkpt lat="40.8836150" lon="-5.6870000">
        <ele>846.0</ele>
        <time>2021-10-14T16:08:24Z</time>
      </trkpt>
      <trkpt lat="40.8835780" lon="-5.6870030">
        <ele>846.0</ele>
        <time>2021-10-14T16:08:25Z</time>
      </trkpt>
      <trkpt lat="40.8835780" lon="-5.6870030">
        <ele>846.2</ele>
        <time>2021-10-14T16:08:26Z</time>
      </trkpt>
      <trkpt lat="40.8834080" lon="-5.6870180">
        <ele>846.4</ele>
        <time>2021-10-14T16:08:29Z</time>
      </trkpt>
      <trkpt lat="40.8831960" lon="-5.6870650">
        <ele>846.6</ele>
        <time>2021-10-14T16:08:34Z</time>
      </trkpt>
      <trkpt lat="40.8831550" lon="-5.6870690">
        <ele>846.8</ele>
        <time>2021-10-14T16:08:35Z</time>
      </trkpt>
      <trkpt lat="40.8830750" lon="-5.6870800">
        <ele>847.0</ele>
        <time>2021-10-14T16:08:37Z</time>
      </trkpt>
      <trkpt lat="40.8829490" lon="-5.6871040">
        <ele>847.4</ele>
        <time>2021-10-14T16:08:40Z</time>
      </trkpt>
      <trkpt lat="40.8828590" lon="-5.6871260">
        <ele>847.4</ele>
        <time>2021-10-14T16:08:42Z</time>
      </trkpt>
      <trkpt lat="40.8828150" lon="-5.6871350">
        <ele>847.4</ele>
        <time>2021-10-14T16:08:43Z</time>
      </trkpt>
      <trkpt lat="40.8827320" lon="-5.6871440">
        <ele>847.4</ele>
        <time>2021-10-14T16:08:45Z</time>
      </trkpt>
      <trkpt lat="40.8826440" lon="-5.6871510">
        <ele>847.4</ele>
        <time>2021-10-14T16:08:47Z</time>
      </trkpt>
      <trkpt lat="40.8826120" lon="-5.6871560">
        <ele>847.4</ele>
        <time>2021-10-14T16:08:48Z</time>
      </trkpt>
      <trkpt lat="40.8822580" lon="-5.6872190">
        <ele>847.4</ele>
        <time>2021-10-14T16:08:57Z</time>
      </trkpt>
      <trkpt lat="40.8820530" lon="-5.6872450">
        <ele>848.0</ele>
        <time>2021-10-14T16:09:03Z</time>
      </trkpt>
      <trkpt lat="40.8819240" lon="-5.6872680">
        <ele>848.6</ele>
        <time>2021-10-14T16:09:07Z</time>
      </trkpt>
      <trkpt lat="40.8818940" lon="-5.6872750">
        <ele>848.8</ele>
        <time>2021-10-14T16:09:08Z</time>
      </trkpt>
      <trkpt lat="40.8817340" lon="-5.6873320">
        <ele>849.6</ele>
        <time>2021-10-14T16:09:14Z</time>
      </trkpt>
      <trkpt lat="40.8816720" lon="-5.6873400">
        <ele>849.8</ele>
        <time>2021-10-14T16:09:16Z</time>
      </trkpt>
      <trkpt lat="40.8815610" lon="-5.6873550">
        <ele>851.0</ele>
        <time>2021-10-14T16:09:21Z</time>
      </trkpt>
      <trkpt lat="40.8814340" lon="-5.6874020">
        <ele>851.2</ele>
        <time>2021-10-14T16:09:25Z</time>
      </trkpt>
      <trkpt lat="40.8812970" lon="-5.6874220">
        <ele>851.6</ele>
        <time>2021-10-14T16:09:30Z</time>
      </trkpt>
      <trkpt lat="40.8812290" lon="-5.6874350">
        <ele>852.0</ele>
        <time>2021-10-14T16:09:33Z</time>
      </trkpt>
      <trkpt lat="40.8811520" lon="-5.6874450">
        <ele>852.2</ele>
        <time>2021-10-14T16:09:36Z</time>
      </trkpt>
      <trkpt lat="40.8811260" lon="-5.6874500">
        <ele>852.4</ele>
        <time>2021-10-14T16:09:37Z</time>
      </trkpt>
      <trkpt lat="40.8810730" lon="-5.6874620">
        <ele>852.8</ele>
        <time>2021-10-14T16:09:39Z</time>
      </trkpt>
      <trkpt lat="40.8810520" lon="-5.6874650">
        <ele>853.0</ele>
        <time>2021-10-14T16:09:40Z</time>
      </trkpt>
      <trkpt lat="40.8809300" lon="-5.6874880">
        <ele>853.6</ele>
        <time>2021-10-14T16:09:45Z</time>
      </trkpt>
      <trkpt lat="40.8808820" lon="-5.6874990">
        <ele>853.8</ele>
        <time>2021-10-14T16:09:47Z</time>
      </trkpt>
      <trkpt lat="40.8808110" lon="-5.6875160">
        <ele>854.0</ele>
        <time>2021-10-14T16:09:51Z</time>
      </trkpt>
      <trkpt lat="40.8805870" lon="-5.6875450">
        <ele>855.2</ele>
        <time>2021-10-14T16:09:59Z</time>
      </trkpt>
      <trkpt lat="40.8805620" lon="-5.6875480">
        <ele>855.4</ele>
        <time>2021-10-14T16:10:00Z</time>
      </trkpt>
      <trkpt lat="40.8803510" lon="-5.6875850">
        <ele>856.4</ele>
        <time>2021-10-14T16:10:08Z</time>
      </trkpt>
      <trkpt lat="40.8802700" lon="-5.6875930">
        <ele>856.8</ele>
        <time>2021-10-14T16:10:11Z</time>
      </trkpt>
      <trkpt lat="40.8802160" lon="-5.6876010">
        <ele>856.8</ele>
        <time>2021-10-14T16:10:13Z</time>
      </trkpt>
      <trkpt lat="40.8801890" lon="-5.6876060">
        <ele>857.0</ele>
        <time>2021-10-14T16:10:14Z</time>
      </trkpt>
      <trkpt lat="40.8801090" lon="-5.6876190">
        <ele>857.2</ele>
        <time>2021-10-14T16:10:17Z</time>
      </trkpt>
      <trkpt lat="40.8800250" lon="-5.6876330">
        <ele>857.4</ele>
        <time>2021-10-14T16:10:20Z</time>
      </trkpt>
      <trkpt lat="40.8798850" lon="-5.6876500">
        <ele>857.8</ele>
        <time>2021-10-14T16:10:25Z</time>
      </trkpt>
      <trkpt lat="40.8796890" lon="-5.6876770">
        <ele>858.6</ele>
        <time>2021-10-14T16:10:32Z</time>
      </trkpt>
      <trkpt lat="40.8796580" lon="-5.6876830">
        <ele>858.6</ele>
        <time>2021-10-14T16:10:33Z</time>
      </trkpt>
      <trkpt lat="40.8796250" lon="-5.6876890">
        <ele>858.8</ele>
        <time>2021-10-14T16:10:34Z</time>
      </trkpt>
      <trkpt lat="40.8796040" lon="-5.6876930">
        <ele>858.8</ele>
        <time>2021-10-14T16:10:35Z</time>
      </trkpt>
      <trkpt lat="40.8795780" lon="-5.6876960">
        <ele>858.8</ele>
        <time>2021-10-14T16:10:36Z</time>
      </trkpt>
      <trkpt lat="40.8795230" lon="-5.6877050">
        <ele>859.2</ele>
        <time>2021-10-14T16:10:38Z</time>
      </trkpt>
      <trkpt lat="40.8794690" lon="-5.6877170">
        <ele>859.4</ele>
        <time>2021-10-14T16:10:40Z</time>
      </trkpt>
      <trkpt lat="40.8794160" lon="-5.6877260">
        <ele>859.6</ele>
        <time>2021-10-14T16:10:42Z</time>
      </trkpt>
      <trkpt lat="40.8793900" lon="-5.6877310">
        <ele>859.6</ele>
        <time>2021-10-14T16:10:43Z</time>
      </trkpt>
      <trkpt lat="40.8792480" lon="-5.6877540">
        <ele>859.8</ele>
        <time>2021-10-14T16:10:48Z</time>
      </trkpt>
      <trkpt lat="40.8790830" lon="-5.6877790">
        <ele>860.4</ele>
        <time>2021-10-14T16:10:54Z</time>
      </trkpt>
      <trkpt lat="40.8790010" lon="-5.6877940">
        <ele>860.6</ele>
        <time>2021-10-14T16:10:57Z</time>
      </trkpt>
      <trkpt lat="40.8789470" lon="-5.6878030">
        <ele>860.8</ele>
        <time>2021-10-14T16:10:59Z</time>
      </trkpt>
      <trkpt lat="40.8788920" lon="-5.6878120">
        <ele>861.0</ele>
        <time>2021-10-14T16:11:01Z</time>
      </trkpt>
      <trkpt lat="40.8788350" lon="-5.6878210">
        <ele>861.0</ele>
        <time>2021-10-14T16:11:03Z</time>
      </trkpt>
      <trkpt lat="40.8788030" lon="-5.6878280">
        <ele>861.2</ele>
        <time>2021-10-14T16:11:04Z</time>
      </trkpt>
      <trkpt lat="40.8787570" lon="-5.6878370">
        <ele>861.8</ele>
        <time>2021-10-14T16:11:06Z</time>
      </trkpt>
      <trkpt lat="40.8786510" lon="-5.6878570">
        <ele>862.2</ele>
        <time>2021-10-14T16:11:10Z</time>
      </trkpt>
      <trkpt lat="40.8785700" lon="-5.6878680">
        <ele>862.4</ele>
        <time>2021-10-14T16:11:13Z</time>
      </trkpt>
      <trkpt lat="40.8784890" lon="-5.6878820">
        <ele>862.6</ele>
        <time>2021-10-14T16:11:16Z</time>
      </trkpt>
      <trkpt lat="40.8784610" lon="-5.6878860">
        <ele>862.8</ele>
        <time>2021-10-14T16:11:17Z</time>
      </trkpt>
      <trkpt lat="40.8784270" lon="-5.6878900">
        <ele>862.8</ele>
        <time>2021-10-14T16:11:18Z</time>
      </trkpt>
      <trkpt lat="40.8782910" lon="-5.6879130">
        <ele>863.2</ele>
        <time>2021-10-14T16:11:23Z</time>
      </trkpt>
      <trkpt lat="40.8782310" lon="-5.6879180">
        <ele>863.2</ele>
        <time>2021-10-14T16:11:25Z</time>
      </trkpt>
      <trkpt lat="40.8780920" lon="-5.6879440">
        <ele>863.6</ele>
        <time>2021-10-14T16:11:30Z</time>
      </trkpt>
      <trkpt lat="40.8780650" lon="-5.6879500">
        <ele>863.8</ele>
        <time>2021-10-14T16:11:31Z</time>
      </trkpt>
      <trkpt lat="40.8779550" lon="-5.6879620">
        <ele>864.0</ele>
        <time>2021-10-14T16:11:35Z</time>
      </trkpt>
      <trkpt lat="40.8779290" lon="-5.6879670">
        <ele>864.2</ele>
        <time>2021-10-14T16:11:37Z</time>
      </trkpt>
      <trkpt lat="40.8778490" lon="-5.6879850">
        <ele>864.8</ele>
        <time>2021-10-14T16:11:39Z</time>
      </trkpt>
      <trkpt lat="40.8777980" lon="-5.6879950">
        <ele>864.8</ele>
        <time>2021-10-14T16:11:41Z</time>
      </trkpt>
      <trkpt lat="40.8776300" lon="-5.6880250">
        <ele>865.4</ele>
        <time>2021-10-14T16:11:47Z</time>
      </trkpt>
      <trkpt lat="40.8774680" lon="-5.6880410">
        <ele>865.8</ele>
        <time>2021-10-14T16:11:53Z</time>
      </trkpt>
      <trkpt lat="40.8774150" lon="-5.6880510">
        <ele>866.0</ele>
        <time>2021-10-14T16:11:55Z</time>
      </trkpt>
      <trkpt lat="40.8773350" lon="-5.6880650">
        <ele>866.6</ele>
        <time>2021-10-14T16:11:58Z</time>
      </trkpt>
      <trkpt lat="40.8772160" lon="-5.6880840">
        <ele>867.0</ele>
        <time>2021-10-14T16:12:02Z</time>
      </trkpt>
      <trkpt lat="40.8770460" lon="-5.6881150">
        <ele>867.6</ele>
        <time>2021-10-14T16:12:08Z</time>
      </trkpt>
      <trkpt lat="40.8768710" lon="-5.6881420">
        <ele>868.2</ele>
        <time>2021-10-14T16:12:14Z</time>
      </trkpt>
      <trkpt lat="40.8768420" lon="-5.6881470">
        <ele>868.2</ele>
        <time>2021-10-14T16:12:15Z</time>
      </trkpt>
      <trkpt lat="40.8768110" lon="-5.6881540">
        <ele>868.2</ele>
        <time>2021-10-14T16:12:16Z</time>
      </trkpt>
      <trkpt lat="40.8767540" lon="-5.6881660">
        <ele>868.4</ele>
        <time>2021-10-14T16:12:18Z</time>
      </trkpt>
      <trkpt lat="40.8766890" lon="-5.6881770">
        <ele>868.4</ele>
        <time>2021-10-14T16:12:20Z</time>
      </trkpt>
      <trkpt lat="40.8766310" lon="-5.6881880">
        <ele>868.6</ele>
        <time>2021-10-14T16:12:22Z</time>
      </trkpt>
      <trkpt lat="40.8765730" lon="-5.6881950">
        <ele>868.6</ele>
        <time>2021-10-14T16:12:24Z</time>
      </trkpt>
      <trkpt lat="40.8764860" lon="-5.6882100">
        <ele>869.0</ele>
        <time>2021-10-14T16:12:27Z</time>
      </trkpt>
      <trkpt lat="40.8764570" lon="-5.6882150">
        <ele>869.0</ele>
        <time>2021-10-14T16:12:29Z</time>
      </trkpt>
      <trkpt lat="40.8763790" lon="-5.6882280">
        <ele>869.2</ele>
        <time>2021-10-14T16:12:31Z</time>
      </trkpt>
      <trkpt lat="40.8762970" lon="-5.6882400">
        <ele>869.4</ele>
        <time>2021-10-14T16:12:34Z</time>
      </trkpt>
      <trkpt lat="40.8762400" lon="-5.6882470">
        <ele>869.6</ele>
        <time>2021-10-14T16:12:36Z</time>
      </trkpt>
      <trkpt lat="40.8761520" lon="-5.6882600">
        <ele>869.8</ele>
        <time>2021-10-14T16:12:39Z</time>
      </trkpt>
      <trkpt lat="40.8760960" lon="-5.6882670">
        <ele>870.2</ele>
        <time>2021-10-14T16:12:41Z</time>
      </trkpt>
      <trkpt lat="40.8760670" lon="-5.6882690">
        <ele>870.2</ele>
        <time>2021-10-14T16:12:42Z</time>
      </trkpt>
      <trkpt lat="40.8760380" lon="-5.6882700">
        <ele>870.4</ele>
        <time>2021-10-14T16:12:43Z</time>
      </trkpt>
      <trkpt lat="40.8759810" lon="-5.6882750">
        <ele>870.4</ele>
        <time>2021-10-14T16:12:45Z</time>
      </trkpt>
      <trkpt lat="40.8758970" lon="-5.6882770">
        <ele>870.6</ele>
        <time>2021-10-14T16:12:48Z</time>
      </trkpt>
      <trkpt lat="40.8758380" lon="-5.6882880">
        <ele>870.6</ele>
        <time>2021-10-14T16:12:50Z</time>
      </trkpt>
      <trkpt lat="40.8757130" lon="-5.6883210">
        <ele>871.2</ele>
        <time>2021-10-14T16:12:54Z</time>
      </trkpt>
      <trkpt lat="40.8755480" lon="-5.6883500">
        <ele>871.6</ele>
        <time>2021-10-14T16:12:59Z</time>
      </trkpt>
      <trkpt lat="40.8755140" lon="-5.6883570">
        <ele>871.6</ele>
        <time>2021-10-14T16:13:00Z</time>
      </trkpt>
      <trkpt lat="40.8754780" lon="-5.6883630">
        <ele>871.6</ele>
        <time>2021-10-14T16:13:01Z</time>
      </trkpt>
      <trkpt lat="40.8754050" lon="-5.6883770">
        <ele>871.6</ele>
        <time>2021-10-14T16:13:03Z</time>
      </trkpt>
      <trkpt lat="40.8753330" lon="-5.6883910">
        <ele>871.6</ele>
        <time>2021-10-14T16:13:05Z</time>
      </trkpt>
      <trkpt lat="40.8752620" lon="-5.6884040">
        <ele>871.6</ele>
        <time>2021-10-14T16:13:07Z</time>
      </trkpt>
      <trkpt lat="40.8751420" lon="-5.6884210">
        <ele>871.6</ele>
        <time>2021-10-14T16:13:10Z</time>
      </trkpt>
      <trkpt lat="40.8750130" lon="-5.6884470">
        <ele>871.4</ele>
        <time>2021-10-14T16:13:13Z</time>
      </trkpt>
      <trkpt lat="40.8748750" lon="-5.6884690">
        <ele>871.4</ele>
        <time>2021-10-14T16:13:16Z</time>
      </trkpt>
      <trkpt lat="40.8744310" lon="-5.6885260">
        <ele>870.2</ele>
        <time>2021-10-14T16:13:25Z</time>
      </trkpt>
      <trkpt lat="40.8741810" lon="-5.6885750">
        <ele>869.8</ele>
        <time>2021-10-14T16:13:31Z</time>
      </trkpt>
      <trkpt lat="40.8741420" lon="-5.6885790">
        <ele>869.8</ele>
        <time>2021-10-14T16:13:32Z</time>
      </trkpt>
      <trkpt lat="40.8741040" lon="-5.6885840">
        <ele>869.8</ele>
        <time>2021-10-14T16:13:33Z</time>
      </trkpt>
      <trkpt lat="40.8739330" lon="-5.6886330">
        <ele>870.0</ele>
        <time>2021-10-14T16:13:38Z</time>
      </trkpt>
      <trkpt lat="40.8739020" lon="-5.6886400">
        <ele>870.0</ele>
        <time>2021-10-14T16:13:39Z</time>
      </trkpt>
      <trkpt lat="40.8738110" lon="-5.6886510">
        <ele>870.6</ele>
        <time>2021-10-14T16:13:42Z</time>
      </trkpt>
      <trkpt lat="40.8737450" lon="-5.6886630">
        <ele>871.0</ele>
        <time>2021-10-14T16:13:44Z</time>
      </trkpt>
      <trkpt lat="40.8736760" lon="-5.6886790">
        <ele>871.2</ele>
        <time>2021-10-14T16:13:46Z</time>
      </trkpt>
      <trkpt lat="40.8735270" lon="-5.6886950">
        <ele>871.8</ele>
        <time>2021-10-14T16:13:50Z</time>
      </trkpt>
      <trkpt lat="40.8734170" lon="-5.6887170">
        <ele>872.2</ele>
        <time>2021-10-14T16:13:53Z</time>
      </trkpt>
      <trkpt lat="40.8733800" lon="-5.6887220">
        <ele>872.4</ele>
        <time>2021-10-14T16:13:54Z</time>
      </trkpt>
      <trkpt lat="40.8730810" lon="-5.6887700">
        <ele>872.4</ele>
        <time>2021-10-14T16:14:02Z</time>
      </trkpt>
      <trkpt lat="40.8727300" lon="-5.6888320">
        <ele>872.8</ele>
        <time>2021-10-14T16:14:12Z</time>
      </trkpt>
      <trkpt lat="40.8724630" lon="-5.6888740">
        <ele>872.8</ele>
        <time>2021-10-14T16:14:19Z</time>
      </trkpt>
      <trkpt lat="40.8722490" lon="-5.6889180">
        <ele>873.0</ele>
        <time>2021-10-14T16:14:25Z</time>
      </trkpt>
      <trkpt lat="40.8721450" lon="-5.6889370">
        <ele>873.2</ele>
        <time>2021-10-14T16:14:28Z</time>
      </trkpt>
      <trkpt lat="40.8721090" lon="-5.6889420">
        <ele>873.2</ele>
        <time>2021-10-14T16:14:29Z</time>
      </trkpt>
      <trkpt lat="40.8720760" lon="-5.6889470">
        <ele>873.2</ele>
        <time>2021-10-14T16:14:30Z</time>
      </trkpt>
      <trkpt lat="40.8719380" lon="-5.6889720">
        <ele>873.2</ele>
        <time>2021-10-14T16:14:34Z</time>
      </trkpt>
      <trkpt lat="40.8718680" lon="-5.6889830">
        <ele>873.2</ele>
        <time>2021-10-14T16:14:36Z</time>
      </trkpt>
      <trkpt lat="40.8717340" lon="-5.6890050">
        <ele>873.2</ele>
        <time>2021-10-14T16:14:40Z</time>
      </trkpt>
      <trkpt lat="40.8716990" lon="-5.6890080">
        <ele>873.4</ele>
        <time>2021-10-14T16:14:41Z</time>
      </trkpt>
      <trkpt lat="40.8716300" lon="-5.6890210">
        <ele>873.4</ele>
        <time>2021-10-14T16:14:43Z</time>
      </trkpt>
      <trkpt lat="40.8715260" lon="-5.6890390">
        <ele>873.4</ele>
        <time>2021-10-14T16:14:46Z</time>
      </trkpt>
      <trkpt lat="40.8714510" lon="-5.6890480">
        <ele>873.6</ele>
        <time>2021-10-14T16:14:48Z</time>
      </trkpt>
      <trkpt lat="40.8713510" lon="-5.6890620">
        <ele>873.8</ele>
        <time>2021-10-14T16:14:51Z</time>
      </trkpt>
      <trkpt lat="40.8712820" lon="-5.6890730">
        <ele>873.8</ele>
        <time>2021-10-14T16:14:53Z</time>
      </trkpt>
      <trkpt lat="40.8711790" lon="-5.6890890">
        <ele>874.0</ele>
        <time>2021-10-14T16:14:56Z</time>
      </trkpt>
      <trkpt lat="40.8711180" lon="-5.6890990">
        <ele>874.2</ele>
        <time>2021-10-14T16:14:58Z</time>
      </trkpt>
      <trkpt lat="40.8710810" lon="-5.6891050">
        <ele>874.2</ele>
        <time>2021-10-14T16:14:59Z</time>
      </trkpt>
      <trkpt lat="40.8709940" lon="-5.6891290">
        <ele>874.6</ele>
        <time>2021-10-14T16:15:02Z</time>
      </trkpt>
      <trkpt lat="40.8709180" lon="-5.6891450">
        <ele>874.8</ele>
        <time>2021-10-14T16:15:05Z</time>
      </trkpt>
      <trkpt lat="40.8708480" lon="-5.6891590">
        <ele>875.0</ele>
        <time>2021-10-14T16:15:08Z</time>
      </trkpt>
      <trkpt lat="40.8707550" lon="-5.6891690">
        <ele>875.2</ele>
        <time>2021-10-14T16:15:12Z</time>
      </trkpt>
      <trkpt lat="40.8706880" lon="-5.6891800">
        <ele>876.2</ele>
        <time>2021-10-14T16:15:15Z</time>
      </trkpt>
      <trkpt lat="40.8706490" lon="-5.6891900">
        <ele>876.4</ele>
        <time>2021-10-14T16:15:17Z</time>
      </trkpt>
      <trkpt lat="40.8704650" lon="-5.6892120">
        <ele>877.0</ele>
        <time>2021-10-14T16:15:25Z</time>
      </trkpt>
      <trkpt lat="40.8703980" lon="-5.6892210">
        <ele>877.6</ele>
        <time>2021-10-14T16:15:28Z</time>
      </trkpt>
      <trkpt lat="40.8702760" lon="-5.6892400">
        <ele>878.2</ele>
        <time>2021-10-14T16:15:33Z</time>
      </trkpt>
      <trkpt lat="40.8702310" lon="-5.6892510">
        <ele>878.4</ele>
        <time>2021-10-14T16:15:35Z</time>
      </trkpt>
      <trkpt lat="40.8701830" lon="-5.6892580">
        <ele>878.6</ele>
        <time>2021-10-14T16:15:37Z</time>
      </trkpt>
      <trkpt lat="40.8701370" lon="-5.6892660">
        <ele>878.6</ele>
        <time>2021-10-14T16:15:39Z</time>
      </trkpt>
      <trkpt lat="40.8700870" lon="-5.6892720">
        <ele>878.8</ele>
        <time>2021-10-14T16:15:41Z</time>
      </trkpt>
      <trkpt lat="40.8700440" lon="-5.6892820">
        <ele>879.0</ele>
        <time>2021-10-14T16:15:43Z</time>
      </trkpt>
      <trkpt lat="40.8700190" lon="-5.6892840">
        <ele>879.0</ele>
        <time>2021-10-14T16:15:44Z</time>
      </trkpt>
      <trkpt lat="40.8698970" lon="-5.6893040">
        <ele>879.4</ele>
        <time>2021-10-14T16:15:49Z</time>
      </trkpt>
      <trkpt lat="40.8698730" lon="-5.6893090">
        <ele>879.4</ele>
        <time>2021-10-14T16:15:50Z</time>
      </trkpt>
      <trkpt lat="40.8698490" lon="-5.6893160">
        <ele>879.6</ele>
        <time>2021-10-14T16:15:51Z</time>
      </trkpt>
      <trkpt lat="40.8698080" lon="-5.6893230">
        <ele>880.0</ele>
        <time>2021-10-14T16:15:53Z</time>
      </trkpt>
      <trkpt lat="40.8697580" lon="-5.6893270">
        <ele>880.2</ele>
        <time>2021-10-14T16:15:55Z</time>
      </trkpt>
      <trkpt lat="40.8696920" lon="-5.6893350">
        <ele>880.4</ele>
        <time>2021-10-14T16:15:58Z</time>
      </trkpt>
      <trkpt lat="40.8696460" lon="-5.6893390">
        <ele>880.6</ele>
        <time>2021-10-14T16:16:00Z</time>
      </trkpt>
      <trkpt lat="40.8696230" lon="-5.6893400">
        <ele>880.6</ele>
        <time>2021-10-14T16:16:01Z</time>
      </trkpt>
      <trkpt lat="40.8695780" lon="-5.6893430">
        <ele>880.8</ele>
        <time>2021-10-14T16:16:03Z</time>
      </trkpt>
      <trkpt lat="40.8694880" lon="-5.6893540">
        <ele>881.2</ele>
        <time>2021-10-14T16:16:07Z</time>
      </trkpt>
      <trkpt lat="40.8694000" lon="-5.6893730">
        <ele>881.6</ele>
        <time>2021-10-14T16:16:11Z</time>
      </trkpt>
      <trkpt lat="40.8693720" lon="-5.6893800">
        <ele>881.6</ele>
        <time>2021-10-14T16:16:12Z</time>
      </trkpt>
      <trkpt lat="40.8693260" lon="-5.6893910">
        <ele>881.8</ele>
        <time>2021-10-14T16:16:14Z</time>
      </trkpt>
      <trkpt lat="40.8691150" lon="-5.6894290">
        <ele>882.6</ele>
        <time>2021-10-14T16:16:23Z</time>
      </trkpt>
      <trkpt lat="40.8690410" lon="-5.6894440">
        <ele>882.8</ele>
        <time>2021-10-14T16:16:26Z</time>
      </trkpt>
      <trkpt lat="40.8689360" lon="-5.6894580">
        <ele>883.2</ele>
        <time>2021-10-14T16:16:30Z</time>
      </trkpt>
      <trkpt lat="40.8688810" lon="-5.6894690">
        <ele>883.2</ele>
        <time>2021-10-14T16:16:32Z</time>
      </trkpt>
      <trkpt lat="40.8688250" lon="-5.6894780">
        <ele>883.2</ele>
        <time>2021-10-14T16:16:34Z</time>
      </trkpt>
      <trkpt lat="40.8687360" lon="-5.6894920">
        <ele>883.2</ele>
        <time>2021-10-14T16:16:37Z</time>
      </trkpt>
      <trkpt lat="40.8685680" lon="-5.6895240">
        <ele>883.4</ele>
        <time>2021-10-14T16:16:42Z</time>
      </trkpt>
      <trkpt lat="40.8684980" lon="-5.6895360">
        <ele>883.4</ele>
        <time>2021-10-14T16:16:44Z</time>
      </trkpt>
      <trkpt lat="40.8684290" lon="-5.6895470">
        <ele>883.4</ele>
        <time>2021-10-14T16:16:46Z</time>
      </trkpt>
      <trkpt lat="40.8682590" lon="-5.6895770">
        <ele>883.6</ele>
        <time>2021-10-14T16:16:51Z</time>
      </trkpt>
      <trkpt lat="40.8682340" lon="-5.6895830">
        <ele>883.6</ele>
        <time>2021-10-14T16:16:52Z</time>
      </trkpt>
      <trkpt lat="40.8680960" lon="-5.6896100">
        <ele>883.6</ele>
        <time>2021-10-14T16:16:56Z</time>
      </trkpt>
      <trkpt lat="40.8680280" lon="-5.6896200">
        <ele>883.8</ele>
        <time>2021-10-14T16:16:58Z</time>
      </trkpt>
      <trkpt lat="40.8678700" lon="-5.6896370">
        <ele>884.2</ele>
        <time>2021-10-14T16:17:03Z</time>
      </trkpt>
      <trkpt lat="40.8678020" lon="-5.6896370">
        <ele>884.6</ele>
        <time>2021-10-14T16:17:08Z</time>
      </trkpt>
      <trkpt lat="40.8678020" lon="-5.6896370">
        <ele>884.6</ele>
        <time>2021-10-14T16:17:09Z</time>
      </trkpt>
      <trkpt lat="40.8677380" lon="-5.6896260">
        <ele>884.4</ele>
        <time>2021-10-14T16:17:50Z</time>
      </trkpt>
      <trkpt lat="40.8677090" lon="-5.6896230">
        <ele>884.4</ele>
        <time>2021-10-14T16:17:51Z</time>
      </trkpt>
      <trkpt lat="40.8676830" lon="-5.6896220">
        <ele>884.4</ele>
        <time>2021-10-14T16:17:52Z</time>
      </trkpt>
      <trkpt lat="40.8675010" lon="-5.6895930">
        <ele>884.6</ele>
        <time>2021-10-14T16:17:57Z</time>
      </trkpt>
      <trkpt lat="40.8674620" lon="-5.6895850">
        <ele>884.6</ele>
        <time>2021-10-14T16:17:58Z</time>
      </trkpt>
      <trkpt lat="40.8673230" lon="-5.6895560">
        <ele>884.8</ele>
        <time>2021-10-14T16:18:02Z</time>
      </trkpt>
      <trkpt lat="40.8671430" lon="-5.6895300">
        <ele>885.4</ele>
        <time>2021-10-14T16:18:07Z</time>
      </trkpt>
      <trkpt lat="40.8669700" lon="-5.6894980">
        <ele>885.8</ele>
        <time>2021-10-14T16:18:12Z</time>
      </trkpt>
      <trkpt lat="40.8669050" lon="-5.6894870">
        <ele>886.2</ele>
        <time>2021-10-14T16:18:14Z</time>
      </trkpt>
      <trkpt lat="40.8668440" lon="-5.6894720">
        <ele>886.4</ele>
        <time>2021-10-14T16:18:16Z</time>
      </trkpt>
      <trkpt lat="40.8667400" lon="-5.6894480">
        <ele>886.8</ele>
        <time>2021-10-14T16:18:19Z</time>
      </trkpt>
      <trkpt lat="40.8666260" lon="-5.6894200">
        <ele>887.4</ele>
        <time>2021-10-14T16:18:23Z</time>
      </trkpt>
      <trkpt lat="40.8665970" lon="-5.6894100">
        <ele>887.6</ele>
        <time>2021-10-14T16:18:24Z</time>
      </trkpt>
      <trkpt lat="40.8665120" lon="-5.6893910">
        <ele>887.8</ele>
        <time>2021-10-14T16:18:27Z</time>
      </trkpt>
      <trkpt lat="40.8663620" lon="-5.6893530">
        <ele>888.4</ele>
        <time>2021-10-14T16:18:32Z</time>
      </trkpt>
      <trkpt lat="40.8662290" lon="-5.6893200">
        <ele>889.0</ele>
        <time>2021-10-14T16:18:36Z</time>
      </trkpt>
      <trkpt lat="40.8660930" lon="-5.6892850">
        <ele>889.4</ele>
        <time>2021-10-14T16:18:41Z</time>
      </trkpt>
      <trkpt lat="40.8660220" lon="-5.6892530">
        <ele>890.0</ele>
        <time>2021-10-14T16:18:44Z</time>
      </trkpt>
      <trkpt lat="40.8659430" lon="-5.6892300">
        <ele>890.6</ele>
        <time>2021-10-14T16:18:47Z</time>
      </trkpt>
      <trkpt lat="40.8658300" lon="-5.6892080">
        <ele>891.2</ele>
        <time>2021-10-14T16:18:52Z</time>
      </trkpt>
      <trkpt lat="40.8657120" lon="-5.6891800">
        <ele>892.4</ele>
        <time>2021-10-14T16:18:57Z</time>
      </trkpt>
      <trkpt lat="40.8656070" lon="-5.6891610">
        <ele>893.4</ele>
        <time>2021-10-14T16:19:02Z</time>
      </trkpt>
      <trkpt lat="40.8655650" lon="-5.6891480">
        <ele>893.6</ele>
        <time>2021-10-14T16:19:04Z</time>
      </trkpt>
      <trkpt lat="40.8654940" lon="-5.6891440">
        <ele>894.6</ele>
        <time>2021-10-14T16:19:08Z</time>
      </trkpt>
      <trkpt lat="40.8654330" lon="-5.6891280">
        <ele>894.8</ele>
        <time>2021-10-14T16:19:12Z</time>
      </trkpt>
      <trkpt lat="40.8654280" lon="-5.6891290">
        <ele>895.2</ele>
        <time>2021-10-14T16:19:15Z</time>
      </trkpt>
      <trkpt lat="40.8653730" lon="-5.6891200">
        <ele>895.2</ele>
        <time>2021-10-14T16:20:42Z</time>
      </trkpt>
      <trkpt lat="40.8653500" lon="-5.6891120">
        <ele>895.2</ele>
        <time>2021-10-14T16:20:43Z</time>
      </trkpt>
      <trkpt lat="40.8651630" lon="-5.6890380">
        <ele>894.8</ele>
        <time>2021-10-14T16:20:48Z</time>
      </trkpt>
      <trkpt lat="40.8648910" lon="-5.6888710">
        <ele>893.6</ele>
        <time>2021-10-14T16:20:53Z</time>
      </trkpt>
      <trkpt lat="40.8648370" lon="-5.6888320">
        <ele>893.2</ele>
        <time>2021-10-14T16:20:54Z</time>
      </trkpt>
      <trkpt lat="40.8646220" lon="-5.6886740">
        <ele>891.8</ele>
        <time>2021-10-14T16:20:58Z</time>
      </trkpt>
      <trkpt lat="40.8645270" lon="-5.6885950">
        <ele>891.4</ele>
        <time>2021-10-14T16:21:00Z</time>
      </trkpt>
      <trkpt lat="40.8644290" lon="-5.6885210">
        <ele>891.2</ele>
        <time>2021-10-14T16:21:02Z</time>
      </trkpt>
      <trkpt lat="40.8643540" lon="-5.6884740">
        <ele>891.0</ele>
        <time>2021-10-14T16:21:04Z</time>
      </trkpt>
      <trkpt lat="40.8640920" lon="-5.6882940">
        <ele>891.0</ele>
        <time>2021-10-14T16:21:11Z</time>
      </trkpt>
      <trkpt lat="40.8639980" lon="-5.6882180">
        <ele>891.2</ele>
        <time>2021-10-14T16:21:14Z</time>
      </trkpt>
      <trkpt lat="40.8638000" lon="-5.6880550">
        <ele>891.6</ele>
        <time>2021-10-14T16:21:20Z</time>
      </trkpt>
      <trkpt lat="40.8637050" lon="-5.6879820">
        <ele>892.0</ele>
        <time>2021-10-14T16:21:23Z</time>
      </trkpt>
      <trkpt lat="40.8634730" lon="-5.6878010">
        <ele>892.6</ele>
        <time>2021-10-14T16:21:31Z</time>
      </trkpt>
      <trkpt lat="40.8634260" lon="-5.6877650">
        <ele>893.0</ele>
        <time>2021-10-14T16:21:33Z</time>
      </trkpt>
      <trkpt lat="40.8632960" lon="-5.6876680">
        <ele>893.6</ele>
        <time>2021-10-14T16:21:38Z</time>
      </trkpt>
      <trkpt lat="40.8632660" lon="-5.6876450">
        <ele>893.8</ele>
        <time>2021-10-14T16:21:39Z</time>
      </trkpt>
      <trkpt lat="40.8632050" lon="-5.6875940">
        <ele>894.0</ele>
        <time>2021-10-14T16:21:42Z</time>
      </trkpt>
      <trkpt lat="40.8631180" lon="-5.6875160">
        <ele>894.6</ele>
        <time>2021-10-14T16:21:46Z</time>
      </trkpt>
      <trkpt lat="40.8631030" lon="-5.6875020">
        <ele>894.8</ele>
        <time>2021-10-14T16:21:47Z</time>
      </trkpt>
      <trkpt lat="40.8630580" lon="-5.6874660">
        <ele>895.2</ele>
        <time>2021-10-14T16:21:49Z</time>
      </trkpt>
      <trkpt lat="40.8630170" lon="-5.6874370">
        <ele>895.4</ele>
        <time>2021-10-14T16:21:51Z</time>
      </trkpt>
      <trkpt lat="40.8629260" lon="-5.6873620">
        <ele>896.0</ele>
        <time>2021-10-14T16:21:55Z</time>
      </trkpt>
      <trkpt lat="40.8628630" lon="-5.6873070">
        <ele>896.2</ele>
        <time>2021-10-14T16:21:58Z</time>
      </trkpt>
      <trkpt lat="40.8628260" lon="-5.6872600">
        <ele>896.2</ele>
        <time>2021-10-14T16:22:00Z</time>
      </trkpt>
      <trkpt lat="40.8627840" lon="-5.6872240">
        <ele>896.0</ele>
        <time>2021-10-14T16:22:02Z</time>
      </trkpt>
      <trkpt lat="40.8627120" lon="-5.6871640">
        <ele>896.4</ele>
        <time>2021-10-14T16:22:05Z</time>
      </trkpt>
      <trkpt lat="40.8626300" lon="-5.6871090">
        <ele>896.6</ele>
        <time>2021-10-14T16:22:08Z</time>
      </trkpt>
      <trkpt lat="40.8626030" lon="-5.6870900">
        <ele>896.6</ele>
        <time>2021-10-14T16:22:09Z</time>
      </trkpt>
      <trkpt lat="40.8625700" lon="-5.6870670">
        <ele>896.6</ele>
        <time>2021-10-14T16:22:10Z</time>
      </trkpt>
      <trkpt lat="40.8625450" lon="-5.6870460">
        <ele>896.8</ele>
        <time>2021-10-14T16:22:11Z</time>
      </trkpt>
      <trkpt lat="40.8624990" lon="-5.6870130">
        <ele>896.8</ele>
        <time>2021-10-14T16:22:13Z</time>
      </trkpt>
      <trkpt lat="40.8623920" lon="-5.6869390">
        <ele>896.8</ele>
        <time>2021-10-14T16:22:17Z</time>
      </trkpt>
      <trkpt lat="40.8622580" lon="-5.6868550">
        <ele>897.0</ele>
        <time>2021-10-14T16:22:22Z</time>
      </trkpt>
      <trkpt lat="40.8622120" lon="-5.6868240">
        <ele>897.0</ele>
        <time>2021-10-14T16:22:24Z</time>
      </trkpt>
      <trkpt lat="40.8619750" lon="-5.6866430">
        <ele>897.6</ele>
        <time>2021-10-14T16:22:33Z</time>
      </trkpt>
      <trkpt lat="40.8618660" lon="-5.6865740">
        <ele>897.8</ele>
        <time>2021-10-14T16:22:37Z</time>
      </trkpt>
      <trkpt lat="40.8618170" lon="-5.6865370">
        <ele>897.8</ele>
        <time>2021-10-14T16:22:39Z</time>
      </trkpt>
      <trkpt lat="40.8617390" lon="-5.6864750">
        <ele>898.0</ele>
        <time>2021-10-14T16:22:42Z</time>
      </trkpt>
      <trkpt lat="40.8617180" lon="-5.6864590">
        <ele>898.0</ele>
        <time>2021-10-14T16:22:43Z</time>
      </trkpt>
      <trkpt lat="40.8615580" lon="-5.6863310">
        <ele>898.2</ele>
        <time>2021-10-14T16:22:49Z</time>
      </trkpt>
      <trkpt lat="40.8615060" lon="-5.6862920">
        <ele>898.4</ele>
        <time>2021-10-14T16:22:51Z</time>
      </trkpt>
      <trkpt lat="40.8614860" lon="-5.6862750">
        <ele>898.4</ele>
        <time>2021-10-14T16:22:52Z</time>
      </trkpt>
      <trkpt lat="40.8614030" lon="-5.6862080">
        <ele>898.6</ele>
        <time>2021-10-14T16:22:55Z</time>
      </trkpt>
      <trkpt lat="40.8613250" lon="-5.6861440">
        <ele>899.0</ele>
        <time>2021-10-14T16:22:58Z</time>
      </trkpt>
      <trkpt lat="40.8612460" lon="-5.6860800">
        <ele>899.2</ele>
        <time>2021-10-14T16:23:01Z</time>
      </trkpt>
      <trkpt lat="40.8610160" lon="-5.6859040">
        <ele>900.2</ele>
        <time>2021-10-14T16:23:10Z</time>
      </trkpt>
      <trkpt lat="40.8609390" lon="-5.6858480">
        <ele>900.2</ele>
        <time>2021-10-14T16:23:13Z</time>
      </trkpt>
      <trkpt lat="40.8609140" lon="-5.6858260">
        <ele>900.2</ele>
        <time>2021-10-14T16:23:14Z</time>
      </trkpt>
      <trkpt lat="40.8608350" lon="-5.6857560">
        <ele>900.4</ele>
        <time>2021-10-14T16:23:17Z</time>
      </trkpt>
      <trkpt lat="40.8608090" lon="-5.6857330">
        <ele>900.6</ele>
        <time>2021-10-14T16:23:18Z</time>
      </trkpt>
      <trkpt lat="40.8607390" lon="-5.6856730">
        <ele>900.6</ele>
        <time>2021-10-14T16:23:21Z</time>
      </trkpt>
      <trkpt lat="40.8606400" lon="-5.6855860">
        <ele>900.8</ele>
        <time>2021-10-14T16:23:25Z</time>
      </trkpt>
      <trkpt lat="40.8605900" lon="-5.6855480">
        <ele>901.0</ele>
        <time>2021-10-14T16:23:27Z</time>
      </trkpt>
      <trkpt lat="40.8604850" lon="-5.6854700">
        <ele>901.4</ele>
        <time>2021-10-14T16:23:31Z</time>
      </trkpt>
      <trkpt lat="40.8603520" lon="-5.6853860">
        <ele>901.6</ele>
        <time>2021-10-14T16:23:36Z</time>
      </trkpt>
      <trkpt lat="40.8602760" lon="-5.6853320">
        <ele>901.8</ele>
        <time>2021-10-14T16:23:39Z</time>
      </trkpt>
      <trkpt lat="40.8601810" lon="-5.6852620">
        <ele>902.2</ele>
        <time>2021-10-14T16:23:43Z</time>
      </trkpt>
      <trkpt lat="40.8601620" lon="-5.6852480">
        <ele>902.2</ele>
        <time>2021-10-14T16:23:44Z</time>
      </trkpt>
      <trkpt lat="40.8601120" lon="-5.6852080">
        <ele>902.4</ele>
        <time>2021-10-14T16:23:46Z</time>
      </trkpt>
      <trkpt lat="40.8599640" lon="-5.6850940">
        <ele>903.0</ele>
        <time>2021-10-14T16:23:52Z</time>
      </trkpt>
      <trkpt lat="40.8599210" lon="-5.6850500">
        <ele>903.0</ele>
        <time>2021-10-14T16:23:54Z</time>
      </trkpt>
      <trkpt lat="40.8597340" lon="-5.6848040">
        <ele>903.0</ele>
        <time>2021-10-14T16:24:03Z</time>
      </trkpt>
      <trkpt lat="40.8595910" lon="-5.6846090">
        <ele>903.4</ele>
        <time>2021-10-14T16:24:09Z</time>
      </trkpt>
      <trkpt lat="40.8595420" lon="-5.6845580">
        <ele>903.2</ele>
        <time>2021-10-14T16:24:11Z</time>
      </trkpt>
      <trkpt lat="40.8594910" lon="-5.6845000">
        <ele>903.4</ele>
        <time>2021-10-14T16:24:13Z</time>
      </trkpt>
      <trkpt lat="40.8594420" lon="-5.6844390">
        <ele>903.6</ele>
        <time>2021-10-14T16:24:15Z</time>
      </trkpt>
      <trkpt lat="40.8593430" lon="-5.6843130">
        <ele>903.4</ele>
        <time>2021-10-14T16:24:19Z</time>
      </trkpt>
      <trkpt lat="40.8593190" lon="-5.6842840">
        <ele>903.6</ele>
        <time>2021-10-14T16:24:20Z</time>
      </trkpt>
      <trkpt lat="40.8592680" lon="-5.6842350">
        <ele>903.6</ele>
        <time>2021-10-14T16:24:22Z</time>
      </trkpt>
      <trkpt lat="40.8591870" lon="-5.6841820">
        <ele>903.8</ele>
        <time>2021-10-14T16:24:25Z</time>
      </trkpt>
      <trkpt lat="40.8591620" lon="-5.6841600">
        <ele>903.8</ele>
        <time>2021-10-14T16:24:26Z</time>
      </trkpt>
      <trkpt lat="40.8590760" lon="-5.6840540">
        <ele>903.8</ele>
        <time>2021-10-14T16:24:30Z</time>
      </trkpt>
      <trkpt lat="40.8590390" lon="-5.6839850">
        <ele>903.8</ele>
        <time>2021-10-14T16:24:32Z</time>
      </trkpt>
      <trkpt lat="40.8589960" lon="-5.6839010">
        <ele>903.6</ele>
        <time>2021-10-14T16:24:34Z</time>
      </trkpt>
      <trkpt lat="40.8589080" lon="-5.6836600">
        <ele>902.2</ele>
        <time>2021-10-14T16:24:40Z</time>
      </trkpt>
      <trkpt lat="40.8588980" lon="-5.6835780">
        <ele>902.2</ele>
        <time>2021-10-14T16:24:43Z</time>
      </trkpt>
      <trkpt lat="40.8588920" lon="-5.6835110">
        <ele>902.0</ele>
        <time>2021-10-14T16:24:45Z</time>
      </trkpt>
      <trkpt lat="40.8588630" lon="-5.6832620">
        <ele>901.8</ele>
        <time>2021-10-14T16:24:50Z</time>
      </trkpt>
      <trkpt lat="40.8588600" lon="-5.6831070">
        <ele>901.8</ele>
        <time>2021-10-14T16:24:53Z</time>
      </trkpt>
      <trkpt lat="40.8588510" lon="-5.6829870">
        <ele>901.8</ele>
        <time>2021-10-14T16:24:55Z</time>
      </trkpt>
      <trkpt lat="40.8588420" lon="-5.6829370">
        <ele>901.8</ele>
        <time>2021-10-14T16:24:56Z</time>
      </trkpt>
      <trkpt lat="40.8588070" lon="-5.6828000">
        <ele>901.8</ele>
        <time>2021-10-14T16:24:59Z</time>
      </trkpt>
      <trkpt lat="40.8587930" lon="-5.6827590">
        <ele>901.8</ele>
        <time>2021-10-14T16:25:00Z</time>
      </trkpt>
      <trkpt lat="40.8587280" lon="-5.6826520">
        <ele>901.8</ele>
        <time>2021-10-14T16:25:03Z</time>
      </trkpt>
      <trkpt lat="40.8585290" lon="-5.6824190">
        <ele>901.6</ele>
        <time>2021-10-14T16:25:09Z</time>
      </trkpt>
      <trkpt lat="40.8584910" lon="-5.6823850">
        <ele>901.6</ele>
        <time>2021-10-14T16:25:10Z</time>
      </trkpt>
      <trkpt lat="40.8582380" lon="-5.6822080">
        <ele>901.2</ele>
        <time>2021-10-14T16:25:16Z</time>
      </trkpt>
      <trkpt lat="40.8581430" lon="-5.6821400">
        <ele>901.0</ele>
        <time>2021-10-14T16:25:18Z</time>
      </trkpt>
      <trkpt lat="40.8580950" lon="-5.6821060">
        <ele>900.8</ele>
        <time>2021-10-14T16:25:19Z</time>
      </trkpt>
      <trkpt lat="40.8579860" lon="-5.6820520">
        <ele>900.2</ele>
        <time>2021-10-14T16:25:21Z</time>
      </trkpt>
      <trkpt lat="40.8579260" lon="-5.6820370">
        <ele>899.8</ele>
        <time>2021-10-14T16:25:22Z</time>
      </trkpt>
      <trkpt lat="40.8578700" lon="-5.6820290">
        <ele>899.6</ele>
        <time>2021-10-14T16:25:23Z</time>
      </trkpt>
      <trkpt lat="40.8575430" lon="-5.6819930">
        <ele>899.0</ele>
        <time>2021-10-14T16:25:30Z</time>
      </trkpt>
      <trkpt lat="40.8573110" lon="-5.6819770">
        <ele>898.8</ele>
        <time>2021-10-14T16:25:36Z</time>
      </trkpt>
      <trkpt lat="40.8572690" lon="-5.6819740">
        <ele>898.8</ele>
        <time>2021-10-14T16:25:37Z</time>
      </trkpt>
      <trkpt lat="40.8570180" lon="-5.6819510">
        <ele>899.6</ele>
        <time>2021-10-14T16:25:45Z</time>
      </trkpt>
      <trkpt lat="40.8569930" lon="-5.6819480">
        <ele>899.8</ele>
        <time>2021-10-14T16:25:46Z</time>
      </trkpt>
      <trkpt lat="40.8569370" lon="-5.6819460">
        <ele>900.0</ele>
        <time>2021-10-14T16:25:48Z</time>
      </trkpt>
      <trkpt lat="40.8568610" lon="-5.6819440">
        <ele>900.2</ele>
        <time>2021-10-14T16:25:51Z</time>
      </trkpt>
      <trkpt lat="40.8568370" lon="-5.6819440">
        <ele>900.4</ele>
        <time>2021-10-14T16:25:52Z</time>
      </trkpt>
      <trkpt lat="40.8567650" lon="-5.6819370">
        <ele>901.0</ele>
        <time>2021-10-14T16:25:55Z</time>
      </trkpt>
      <trkpt lat="40.8566340" lon="-5.6819220">
        <ele>902.0</ele>
        <time>2021-10-14T16:26:01Z</time>
      </trkpt>
      <trkpt lat="40.8565900" lon="-5.6819070">
        <ele>902.0</ele>
        <time>2021-10-14T16:26:03Z</time>
      </trkpt>
      <trkpt lat="40.8565460" lon="-5.6818890">
        <ele>902.4</ele>
        <time>2021-10-14T16:26:05Z</time>
      </trkpt>
      <trkpt lat="40.8564590" lon="-5.6818640">
        <ele>903.0</ele>
        <time>2021-10-14T16:26:09Z</time>
      </trkpt>
      <trkpt lat="40.8564370" lon="-5.6818570">
        <ele>903.2</ele>
        <time>2021-10-14T16:26:10Z</time>
      </trkpt>
      <trkpt lat="40.8563910" lon="-5.6818470">
        <ele>903.2</ele>
        <time>2021-10-14T16:26:12Z</time>
      </trkpt>
      <trkpt lat="40.8562630" lon="-5.6818190">
        <ele>903.8</ele>
        <time>2021-10-14T16:26:18Z</time>
      </trkpt>
      <trkpt lat="40.8561890" lon="-5.6818110">
        <ele>904.2</ele>
        <time>2021-10-14T16:26:22Z</time>
      </trkpt>
      <trkpt lat="40.8561150" lon="-5.6817990">
        <ele>905.0</ele>
        <time>2021-10-14T16:26:26Z</time>
      </trkpt>
      <trkpt lat="40.8560600" lon="-5.6817860">
        <ele>905.4</ele>
        <time>2021-10-14T16:26:29Z</time>
      </trkpt>
      <trkpt lat="40.8559500" lon="-5.6817840">
        <ele>906.2</ele>
        <time>2021-10-14T16:26:35Z</time>
      </trkpt>
      <trkpt lat="40.8559310" lon="-5.6817790">
        <ele>906.4</ele>
        <time>2021-10-14T16:26:36Z</time>
      </trkpt>
      <trkpt lat="40.8558460" lon="-5.6817490">
        <ele>907.2</ele>
        <time>2021-10-14T16:26:41Z</time>
      </trkpt>
      <trkpt lat="40.8558070" lon="-5.6817370">
        <ele>907.6</ele>
        <time>2021-10-14T16:26:43Z</time>
      </trkpt>
      <trkpt lat="40.8557460" lon="-5.6817020">
        <ele>908.0</ele>
        <time>2021-10-14T16:26:47Z</time>
      </trkpt>
      <trkpt lat="40.8557330" lon="-5.6816930">
        <ele>908.2</ele>
        <time>2021-10-14T16:26:48Z</time>
      </trkpt>
      <trkpt lat="40.8557040" lon="-5.6816780">
        <ele>908.6</ele>
        <time>2021-10-14T16:26:50Z</time>
      </trkpt>
      <trkpt lat="40.8556750" lon="-5.6816690">
        <ele>908.8</ele>
        <time>2021-10-14T16:26:52Z</time>
      </trkpt>
      <trkpt lat="40.8556450" lon="-5.6816820">
        <ele>909.0</ele>
        <time>2021-10-14T16:26:54Z</time>
      </trkpt>
      <trkpt lat="40.8556030" lon="-5.6816840">
        <ele>909.2</ele>
        <time>2021-10-14T16:26:57Z</time>
      </trkpt>
      <trkpt lat="40.8555720" lon="-5.6816730">
        <ele>909.4</ele>
        <time>2021-10-14T16:26:59Z</time>
      </trkpt>
      <trkpt lat="40.8555580" lon="-5.6816660">
        <ele>909.6</ele>
        <time>2021-10-14T16:27:00Z</time>
      </trkpt>
      <trkpt lat="40.8555430" lon="-5.6816630">
        <ele>909.8</ele>
        <time>2021-10-14T16:27:01Z</time>
      </trkpt>
      <trkpt lat="40.8554860" lon="-5.6816420">
        <ele>910.4</ele>
        <time>2021-10-14T16:27:05Z</time>
      </trkpt>
      <trkpt lat="40.8554420" lon="-5.6816220">
        <ele>910.8</ele>
        <time>2021-10-14T16:27:08Z</time>
      </trkpt>
      <trkpt lat="40.8553960" lon="-5.6816100">
        <ele>911.0</ele>
        <time>2021-10-14T16:27:11Z</time>
      </trkpt>
      <trkpt lat="40.8553530" lon="-5.6815890">
        <ele>911.4</ele>
        <time>2021-10-14T16:27:14Z</time>
      </trkpt>
      <trkpt lat="40.8553230" lon="-5.6815780">
        <ele>911.8</ele>
        <time>2021-10-14T16:27:16Z</time>
      </trkpt>
      <trkpt lat="40.8552700" lon="-5.6815540">
        <ele>912.4</ele>
        <time>2021-10-14T16:27:20Z</time>
      </trkpt>
      <trkpt lat="40.8552350" lon="-5.6815220">
        <ele>912.8</ele>
        <time>2021-10-14T16:27:23Z</time>
      </trkpt>
      <trkpt lat="40.8551920" lon="-5.6814640">
        <ele>913.4</ele>
        <time>2021-10-14T16:27:27Z</time>
      </trkpt>
      <trkpt lat="40.8551810" lon="-5.6814530">
        <ele>913.8</ele>
        <time>2021-10-14T16:27:28Z</time>
      </trkpt>
      <trkpt lat="40.8551690" lon="-5.6814480">
        <ele>913.8</ele>
        <time>2021-10-14T16:27:29Z</time>
      </trkpt>
      <trkpt lat="40.8551040" lon="-5.6813910">
        <ele>914.6</ele>
        <time>2021-10-14T16:27:35Z</time>
      </trkpt>
      <trkpt lat="40.8550850" lon="-5.6813720">
        <ele>914.8</ele>
        <time>2021-10-14T16:27:37Z</time>
      </trkpt>
      <trkpt lat="40.8549890" lon="-5.6813120">
        <ele>915.6</ele>
        <time>2021-10-14T16:27:44Z</time>
      </trkpt>
      <trkpt lat="40.8549600" lon="-5.6812960">
        <ele>916.0</ele>
        <time>2021-10-14T16:27:46Z</time>
      </trkpt>
      <trkpt lat="40.8549070" lon="-5.6812770">
        <ele>916.2</ele>
        <time>2021-10-14T16:27:50Z</time>
      </trkpt>
      <trkpt lat="40.8548950" lon="-5.6812690">
        <ele>916.4</ele>
        <time>2021-10-14T16:27:51Z</time>
      </trkpt>
      <trkpt lat="40.8548800" lon="-5.6812640">
        <ele>916.4</ele>
        <time>2021-10-14T16:27:52Z</time>
      </trkpt>
      <trkpt lat="40.8548670" lon="-5.6812620">
        <ele>916.4</ele>
        <time>2021-10-14T16:27:53Z</time>
      </trkpt>
      <trkpt lat="40.8548410" lon="-5.6812530">
        <ele>916.6</ele>
        <time>2021-10-14T16:27:55Z</time>
      </trkpt>
      <trkpt lat="40.8548160" lon="-5.6812340">
        <ele>917.0</ele>
        <time>2021-10-14T16:27:57Z</time>
      </trkpt>
      <trkpt lat="40.8547890" lon="-5.6812200">
        <ele>917.2</ele>
        <time>2021-10-14T16:27:59Z</time>
      </trkpt>
      <trkpt lat="40.8547610" lon="-5.6812110">
        <ele>917.4</ele>
        <time>2021-10-14T16:28:01Z</time>
      </trkpt>
      <trkpt lat="40.8547330" lon="-5.6812040">
        <ele>917.6</ele>
        <time>2021-10-14T16:28:03Z</time>
      </trkpt>
      <trkpt lat="40.8546840" lon="-5.6811930">
        <ele>918.0</ele>
        <time>2021-10-14T16:28:07Z</time>
      </trkpt>
      <trkpt lat="40.8546480" lon="-5.6811790">
        <ele>918.4</ele>
        <time>2021-10-14T16:28:10Z</time>
      </trkpt>
      <trkpt lat="40.8545750" lon="-5.6811380">
        <ele>919.2</ele>
        <time>2021-10-14T16:28:15Z</time>
      </trkpt>
      <trkpt lat="40.8545580" lon="-5.6811250">
        <ele>919.2</ele>
        <time>2021-10-14T16:28:16Z</time>
      </trkpt>
      <trkpt lat="40.8545330" lon="-5.6811100">
        <ele>919.4</ele>
        <time>2021-10-14T16:28:18Z</time>
      </trkpt>
      <trkpt lat="40.8545180" lon="-5.6811060">
        <ele>919.6</ele>
        <time>2021-10-14T16:28:19Z</time>
      </trkpt>
      <trkpt lat="40.8545030" lon="-5.6810990">
        <ele>919.6</ele>
        <time>2021-10-14T16:28:20Z</time>
      </trkpt>
      <trkpt lat="40.8544330" lon="-5.6810730">
        <ele>920.0</ele>
        <time>2021-10-14T16:28:25Z</time>
      </trkpt>
      <trkpt lat="40.8544020" lon="-5.6810620">
        <ele>920.2</ele>
        <time>2021-10-14T16:28:27Z</time>
      </trkpt>
      <trkpt lat="40.8543710" lon="-5.6810480">
        <ele>920.2</ele>
        <time>2021-10-14T16:28:29Z</time>
      </trkpt>
      <trkpt lat="40.8543270" lon="-5.6810150">
        <ele>920.6</ele>
        <time>2021-10-14T16:28:32Z</time>
      </trkpt>
      <trkpt lat="40.8543130" lon="-5.6810030">
        <ele>920.6</ele>
        <time>2021-10-14T16:28:33Z</time>
      </trkpt>
      <trkpt lat="40.8542460" lon="-5.6809210">
        <ele>921.0</ele>
        <time>2021-10-14T16:28:39Z</time>
      </trkpt>
      <trkpt lat="40.8541880" lon="-5.6808520">
        <ele>921.6</ele>
        <time>2021-10-14T16:28:44Z</time>
      </trkpt>
      <trkpt lat="40.8541550" lon="-5.6808290">
        <ele>921.8</ele>
        <time>2021-10-14T16:28:46Z</time>
      </trkpt>
      <trkpt lat="40.8541210" lon="-5.6808060">
        <ele>922.0</ele>
        <time>2021-10-14T16:28:48Z</time>
      </trkpt>
      <trkpt lat="40.8541070" lon="-5.6807970">
        <ele>922.0</ele>
        <time>2021-10-14T16:28:49Z</time>
      </trkpt>
      <trkpt lat="40.8540450" lon="-5.6807600">
        <ele>922.4</ele>
        <time>2021-10-14T16:28:53Z</time>
      </trkpt>
      <trkpt lat="40.8540160" lon="-5.6807450">
        <ele>922.4</ele>
        <time>2021-10-14T16:28:55Z</time>
      </trkpt>
      <trkpt lat="40.8539870" lon="-5.6807320">
        <ele>922.6</ele>
        <time>2021-10-14T16:28:57Z</time>
      </trkpt>
      <trkpt lat="40.8539560" lon="-5.6807160">
        <ele>922.8</ele>
        <time>2021-10-14T16:28:59Z</time>
      </trkpt>
      <trkpt lat="40.8539270" lon="-5.6807050">
        <ele>923.2</ele>
        <time>2021-10-14T16:29:01Z</time>
      </trkpt>
      <trkpt lat="40.8538620" lon="-5.6806650">
        <ele>923.8</ele>
        <time>2021-10-14T16:29:05Z</time>
      </trkpt>
      <trkpt lat="40.8538380" lon="-5.6806480">
        <ele>924.0</ele>
        <time>2021-10-14T16:29:07Z</time>
      </trkpt>
      <trkpt lat="40.8538110" lon="-5.6806290">
        <ele>924.2</ele>
        <time>2021-10-14T16:29:09Z</time>
      </trkpt>
      <trkpt lat="40.8537500" lon="-5.6806080">
        <ele>924.8</ele>
        <time>2021-10-14T16:29:13Z</time>
      </trkpt>
      <trkpt lat="40.8537350" lon="-5.6806000">
        <ele>925.0</ele>
        <time>2021-10-14T16:29:14Z</time>
      </trkpt>
      <trkpt lat="40.8537080" lon="-5.6805830">
        <ele>925.0</ele>
        <time>2021-10-14T16:29:16Z</time>
      </trkpt>
      <trkpt lat="40.8536610" lon="-5.6805510">
        <ele>925.2</ele>
        <time>2021-10-14T16:29:19Z</time>
      </trkpt>
      <trkpt lat="40.8536250" lon="-5.6805320">
        <ele>925.2</ele>
        <time>2021-10-14T16:29:21Z</time>
      </trkpt>
      <trkpt lat="40.8536040" lon="-5.6805200">
        <ele>925.2</ele>
        <time>2021-10-14T16:29:22Z</time>
      </trkpt>
      <trkpt lat="40.8535680" lon="-5.6805030">
        <ele>925.4</ele>
        <time>2021-10-14T16:29:24Z</time>
      </trkpt>
      <trkpt lat="40.8535370" lon="-5.6804860">
        <ele>925.6</ele>
        <time>2021-10-14T16:29:26Z</time>
      </trkpt>
      <trkpt lat="40.8534840" lon="-5.6804660">
        <ele>925.6</ele>
        <time>2021-10-14T16:29:29Z</time>
      </trkpt>
      <trkpt lat="40.8534430" lon="-5.6804480">
        <ele>925.8</ele>
        <time>2021-10-14T16:29:31Z</time>
      </trkpt>
      <trkpt lat="40.8533780" lon="-5.6804020">
        <ele>926.2</ele>
        <time>2021-10-14T16:29:35Z</time>
      </trkpt>
      <trkpt lat="40.8533590" lon="-5.6803900">
        <ele>926.4</ele>
        <time>2021-10-14T16:29:36Z</time>
      </trkpt>
      <trkpt lat="40.8532730" lon="-5.6803350">
        <ele>926.6</ele>
        <time>2021-10-14T16:29:41Z</time>
      </trkpt>
      <trkpt lat="40.8531520" lon="-5.6802360">
        <ele>927.4</ele>
        <time>2021-10-14T16:29:49Z</time>
      </trkpt>
      <trkpt lat="40.8531350" lon="-5.6802260">
        <ele>927.4</ele>
        <time>2021-10-14T16:29:50Z</time>
      </trkpt>
      <trkpt lat="40.8530850" lon="-5.6802020">
        <ele>927.8</ele>
        <time>2021-10-14T16:29:55Z</time>
      </trkpt>
      <trkpt lat="40.8530630" lon="-5.6801830">
        <ele>927.4</ele>
        <time>2021-10-14T16:32:20Z</time>
      </trkpt>
      <trkpt lat="40.8530090" lon="-5.6801520">
        <ele>927.4</ele>
        <time>2021-10-14T16:32:22Z</time>
      </trkpt>
      <trkpt lat="40.8528290" lon="-5.6800470">
        <ele>927.0</ele>
        <time>2021-10-14T16:32:27Z</time>
      </trkpt>
      <trkpt lat="40.8526500" lon="-5.6799850">
        <ele>926.0</ele>
        <time>2021-10-14T16:32:31Z</time>
      </trkpt>
      <trkpt lat="40.8526010" lon="-5.6799630">
        <ele>925.8</ele>
        <time>2021-10-14T16:32:32Z</time>
      </trkpt>
      <trkpt lat="40.8524980" lon="-5.6799180">
        <ele>924.6</ele>
        <time>2021-10-14T16:32:34Z</time>
      </trkpt>
      <trkpt lat="40.8523360" lon="-5.6798250">
        <ele>923.6</ele>
        <time>2021-10-14T16:32:37Z</time>
      </trkpt>
      <trkpt lat="40.8522750" lon="-5.6797880">
        <ele>923.0</ele>
        <time>2021-10-14T16:32:38Z</time>
      </trkpt>
      <trkpt lat="40.8521870" lon="-5.6797410">
        <ele>922.0</ele>
        <time>2021-10-14T16:32:40Z</time>
      </trkpt>
      <trkpt lat="40.8520610" lon="-5.6797080">
        <ele>921.2</ele>
        <time>2021-10-14T16:32:42Z</time>
      </trkpt>
      <trkpt lat="40.8520130" lon="-5.6796990">
        <ele>920.8</ele>
        <time>2021-10-14T16:32:43Z</time>
      </trkpt>
      <trkpt lat="40.8518760" lon="-5.6796600">
        <ele>920.2</ele>
        <time>2021-10-14T16:32:45Z</time>
      </trkpt>
      <trkpt lat="40.8518280" lon="-5.6796410">
        <ele>919.6</ele>
        <time>2021-10-14T16:32:46Z</time>
      </trkpt>
      <trkpt lat="40.8517570" lon="-5.6796020">
        <ele>919.4</ele>
        <time>2021-10-14T16:32:47Z</time>
      </trkpt>
      <trkpt lat="40.8517130" lon="-5.6795710">
        <ele>918.6</ele>
        <time>2021-10-14T16:32:48Z</time>
      </trkpt>
      <trkpt lat="40.8515930" lon="-5.6795030">
        <ele>917.8</ele>
        <time>2021-10-14T16:32:50Z</time>
      </trkpt>
      <trkpt lat="40.8515330" lon="-5.6794820">
        <ele>917.2</ele>
        <time>2021-10-14T16:32:51Z</time>
      </trkpt>
      <trkpt lat="40.8514210" lon="-5.6794500">
        <ele>916.4</ele>
        <time>2021-10-14T16:32:53Z</time>
      </trkpt>
      <trkpt lat="40.8512890" lon="-5.6794100">
        <ele>916.0</ele>
        <time>2021-10-14T16:32:55Z</time>
      </trkpt>
      <trkpt lat="40.8510190" lon="-5.6792890">
        <ele>915.4</ele>
        <time>2021-10-14T16:32:59Z</time>
      </trkpt>
      <trkpt lat="40.8508290" lon="-5.6791870">
        <ele>914.4</ele>
        <time>2021-10-14T16:33:02Z</time>
      </trkpt>
      <trkpt lat="40.8506480" lon="-5.6790840">
        <ele>913.4</ele>
        <time>2021-10-14T16:33:05Z</time>
      </trkpt>
      <trkpt lat="40.8505800" lon="-5.6790450">
        <ele>913.2</ele>
        <time>2021-10-14T16:33:06Z</time>
      </trkpt>
      <trkpt lat="40.8504560" lon="-5.6789790">
        <ele>912.8</ele>
        <time>2021-10-14T16:33:09Z</time>
      </trkpt>
      <trkpt lat="40.8504230" lon="-5.6789700">
        <ele>912.8</ele>
        <time>2021-10-14T16:33:10Z</time>
      </trkpt>
      <trkpt lat="40.8503310" lon="-5.6789470">
        <ele>912.8</ele>
        <time>2021-10-14T16:33:15Z</time>
      </trkpt>
      <trkpt lat="40.8502500" lon="-5.6788570">
        <ele>913.0</ele>
        <time>2021-10-14T16:33:21Z</time>
      </trkpt>
      <trkpt lat="40.8501520" lon="-5.6787810">
        <ele>913.2</ele>
        <time>2021-10-14T16:33:26Z</time>
      </trkpt>
      <trkpt lat="40.8500420" lon="-5.6787070">
        <ele>913.8</ele>
        <time>2021-10-14T16:33:31Z</time>
      </trkpt>
      <trkpt lat="40.8499250" lon="-5.6786330">
        <ele>914.0</ele>
        <time>2021-10-14T16:33:37Z</time>
      </trkpt>
      <trkpt lat="40.8498810" lon="-5.6786040">
        <ele>914.0</ele>
        <time>2021-10-14T16:33:39Z</time>
      </trkpt>
      <trkpt lat="40.8497670" lon="-5.6785400">
        <ele>914.2</ele>
        <time>2021-10-14T16:33:43Z</time>
      </trkpt>
      <trkpt lat="40.8497080" lon="-5.6785040">
        <ele>914.2</ele>
        <time>2021-10-14T16:33:45Z</time>
      </trkpt>
      <trkpt lat="40.8495450" lon="-5.6783810">
        <ele>913.8</ele>
        <time>2021-10-14T16:33:50Z</time>
      </trkpt>
      <trkpt lat="40.8495060" lon="-5.6783540">
        <ele>913.6</ele>
        <time>2021-10-14T16:33:51Z</time>
      </trkpt>
      <trkpt lat="40.8492400" lon="-5.6782390">
        <ele>913.0</ele>
        <time>2021-10-14T16:33:57Z</time>
      </trkpt>
      <trkpt lat="40.8491400" lon="-5.6782240">
        <ele>912.8</ele>
        <time>2021-10-14T16:33:59Z</time>
      </trkpt>
      <trkpt lat="40.8490850" lon="-5.6782130">
        <ele>912.6</ele>
        <time>2021-10-14T16:34:00Z</time>
      </trkpt>
      <trkpt lat="40.8489610" lon="-5.6781850">
        <ele>912.2</ele>
        <time>2021-10-14T16:34:02Z</time>
      </trkpt>
      <trkpt lat="40.8488960" lon="-5.6781770">
        <ele>912.0</ele>
        <time>2021-10-14T16:34:04Z</time>
      </trkpt>
      <trkpt lat="40.8486990" lon="-5.6781370">
        <ele>911.4</ele>
        <time>2021-10-14T16:34:06Z</time>
      </trkpt>
      <trkpt lat="40.8486390" lon="-5.6781090">
        <ele>911.4</ele>
        <time>2021-10-14T16:34:07Z</time>
      </trkpt>
      <trkpt lat="40.8485840" lon="-5.6780740">
        <ele>911.0</ele>
        <time>2021-10-14T16:34:08Z</time>
      </trkpt>
      <trkpt lat="40.8484840" lon="-5.6780110">
        <ele>909.8</ele>
        <time>2021-10-14T16:34:10Z</time>
      </trkpt>
      <trkpt lat="40.8484330" lon="-5.6779930">
        <ele>909.6</ele>
        <time>2021-10-14T16:34:11Z</time>
      </trkpt>
      <trkpt lat="40.8483790" lon="-5.6779840">
        <ele>909.2</ele>
        <time>2021-10-14T16:34:12Z</time>
      </trkpt>
      <trkpt lat="40.8482610" lon="-5.6779650">
        <ele>908.8</ele>
        <time>2021-10-14T16:34:14Z</time>
      </trkpt>
      <trkpt lat="40.8481420" lon="-5.6779390">
        <ele>908.2</ele>
        <time>2021-10-14T16:34:16Z</time>
      </trkpt>
      <trkpt lat="40.8480880" lon="-5.6779210">
        <ele>907.8</ele>
        <time>2021-10-14T16:34:17Z</time>
      </trkpt>
      <trkpt lat="40.8480370" lon="-5.6779110">
        <ele>907.4</ele>
        <time>2021-10-14T16:34:18Z</time>
      </trkpt>
      <trkpt lat="40.8478750" lon="-5.6778840">
        <ele>906.8</ele>
        <time>2021-10-14T16:34:21Z</time>
      </trkpt>
      <trkpt lat="40.8478190" lon="-5.6778730">
        <ele>906.4</ele>
        <time>2021-10-14T16:34:22Z</time>
      </trkpt>
      <trkpt lat="40.8477010" lon="-5.6778530">
        <ele>905.6</ele>
        <time>2021-10-14T16:34:24Z</time>
      </trkpt>
      <trkpt lat="40.8476420" lon="-5.6778360">
        <ele>905.2</ele>
        <time>2021-10-14T16:34:25Z</time>
      </trkpt>
      <trkpt lat="40.8475230" lon="-5.6777910">
        <ele>904.0</ele>
        <time>2021-10-14T16:34:27Z</time>
      </trkpt>
      <trkpt lat="40.8473410" lon="-5.6777250">
        <ele>903.0</ele>
        <time>2021-10-14T16:34:30Z</time>
      </trkpt>
      <trkpt lat="40.8471120" lon="-5.6776230">
        <ele>902.0</ele>
        <time>2021-10-14T16:34:34Z</time>
      </trkpt>
      <trkpt lat="40.8468550" lon="-5.6775020">
        <ele>901.6</ele>
        <time>2021-10-14T16:34:39Z</time>
      </trkpt>
      <trkpt lat="40.8468080" lon="-5.6774890">
        <ele>901.6</ele>
        <time>2021-10-14T16:34:40Z</time>
      </trkpt>
      <trkpt lat="40.8465310" lon="-5.6773800">
        <ele>900.8</ele>
        <time>2021-10-14T16:34:46Z</time>
      </trkpt>
      <trkpt lat="40.8464790" lon="-5.6773700">
        <ele>900.8</ele>
        <time>2021-10-14T16:34:47Z</time>
      </trkpt>
      <trkpt lat="40.8462190" lon="-5.6773240">
        <ele>900.8</ele>
        <time>2021-10-14T16:34:53Z</time>
      </trkpt>
      <trkpt lat="40.8461360" lon="-5.6772970">
        <ele>900.8</ele>
        <time>2021-10-14T16:34:55Z</time>
      </trkpt>
      <trkpt lat="40.8459640" lon="-5.6772340">
        <ele>900.8</ele>
        <time>2021-10-14T16:34:59Z</time>
      </trkpt>
      <trkpt lat="40.8458340" lon="-5.6771730">
        <ele>901.0</ele>
        <time>2021-10-14T16:35:02Z</time>
      </trkpt>
      <trkpt lat="40.8457610" lon="-5.6771510">
        <ele>901.0</ele>
        <time>2021-10-14T16:35:04Z</time>
      </trkpt>
      <trkpt lat="40.8455800" lon="-5.6770870">
        <ele>901.4</ele>
        <time>2021-10-14T16:35:09Z</time>
      </trkpt>
      <trkpt lat="40.8455370" lon="-5.6770530">
        <ele>901.4</ele>
        <time>2021-10-14T16:35:10Z</time>
      </trkpt>
      <trkpt lat="40.8454280" lon="-5.6769150">
        <ele>901.4</ele>
        <time>2021-10-14T16:35:13Z</time>
      </trkpt>
      <trkpt lat="40.8452550" lon="-5.6767820">
        <ele>900.6</ele>
        <time>2021-10-14T16:35:17Z</time>
      </trkpt>
      <trkpt lat="40.8452150" lon="-5.6767430">
        <ele>900.6</ele>
        <time>2021-10-14T16:35:18Z</time>
      </trkpt>
      <trkpt lat="40.8450470" lon="-5.6765900">
        <ele>899.8</ele>
        <time>2021-10-14T16:35:22Z</time>
      </trkpt>
      <trkpt lat="40.8449360" lon="-5.6764530">
        <ele>898.0</ele>
        <time>2021-10-14T16:35:25Z</time>
      </trkpt>
      <trkpt lat="40.8448710" lon="-5.6763510">
        <ele>897.6</ele>
        <time>2021-10-14T16:35:27Z</time>
      </trkpt>
      <trkpt lat="40.8447910" lon="-5.6761880">
        <ele>897.0</ele>
        <time>2021-10-14T16:35:30Z</time>
      </trkpt>
      <trkpt lat="40.8447630" lon="-5.6761380">
        <ele>896.8</ele>
        <time>2021-10-14T16:35:31Z</time>
      </trkpt>
      <trkpt lat="40.8447060" lon="-5.6760430">
        <ele>896.8</ele>
        <time>2021-10-14T16:35:33Z</time>
      </trkpt>
      <trkpt lat="40.8446080" lon="-5.6759210">
        <ele>896.8</ele>
        <time>2021-10-14T16:35:36Z</time>
      </trkpt>
      <trkpt lat="40.8445080" lon="-5.6758000">
        <ele>896.6</ele>
        <time>2021-10-14T16:35:39Z</time>
      </trkpt>
      <trkpt lat="40.8444460" lon="-5.6756960">
        <ele>896.2</ele>
        <time>2021-10-14T16:35:41Z</time>
      </trkpt>
      <trkpt lat="40.8444220" lon="-5.6756400">
        <ele>895.8</ele>
        <time>2021-10-14T16:35:42Z</time>
      </trkpt>
      <trkpt lat="40.8443970" lon="-5.6755830">
        <ele>895.2</ele>
        <time>2021-10-14T16:35:43Z</time>
      </trkpt>
      <trkpt lat="40.8443280" lon="-5.6754980">
        <ele>894.8</ele>
        <time>2021-10-14T16:35:45Z</time>
      </trkpt>
      <trkpt lat="40.8442850" lon="-5.6754730">
        <ele>894.6</ele>
        <time>2021-10-14T16:35:46Z</time>
      </trkpt>
      <trkpt lat="40.8442450" lon="-5.6754640">
        <ele>894.4</ele>
        <time>2021-10-14T16:35:47Z</time>
      </trkpt>
      <trkpt lat="40.8441930" lon="-5.6754780">
        <ele>894.2</ele>
        <time>2021-10-14T16:35:49Z</time>
      </trkpt>
      <trkpt lat="40.8441740" lon="-5.6755000">
        <ele>894.0</ele>
        <time>2021-10-14T16:35:51Z</time>
      </trkpt>
      <trkpt lat="40.8441700" lon="-5.6755020">
        <ele>894.0</ele>
        <time>2021-10-14T16:35:52Z</time>
      </trkpt>
      <trkpt lat="40.8441700" lon="-5.6755020">
        <ele>894.0</ele>
        <time>2021-10-14T16:35:53Z</time>
      </trkpt>
      <trkpt lat="40.8440910" lon="-5.6755760">
        <ele>893.8</ele>
        <time>2021-10-14T16:37:40Z</time>
      </trkpt>
      <trkpt lat="40.8440800" lon="-5.6756070">
        <ele>893.8</ele>
        <time>2021-10-14T16:37:41Z</time>
      </trkpt>
      <trkpt lat="40.8440700" lon="-5.6756430">
        <ele>893.8</ele>
        <time>2021-10-14T16:37:42Z</time>
      </trkpt>
      <trkpt lat="40.8440270" lon="-5.6757510">
        <ele>894.0</ele>
        <time>2021-10-14T16:37:45Z</time>
      </trkpt>
      <trkpt lat="40.8439950" lon="-5.6758190">
        <ele>894.0</ele>
        <time>2021-10-14T16:37:47Z</time>
      </trkpt>
      <trkpt lat="40.8439790" lon="-5.6758450">
        <ele>894.0</ele>
        <time>2021-10-14T16:37:48Z</time>
      </trkpt>
      <trkpt lat="40.8438500" lon="-5.6759690">
        <ele>894.8</ele>
        <time>2021-10-14T16:37:55Z</time>
      </trkpt>
      <trkpt lat="40.8437480" lon="-5.6760580">
        <ele>895.6</ele>
        <time>2021-10-14T16:38:01Z</time>
      </trkpt>
      <trkpt lat="40.8437030" lon="-5.6761070">
        <ele>896.2</ele>
        <time>2021-10-14T16:38:04Z</time>
      </trkpt>
      <trkpt lat="40.8436720" lon="-5.6761360">
        <ele>896.6</ele>
        <time>2021-10-14T16:38:06Z</time>
      </trkpt>
      <trkpt lat="40.8435690" lon="-5.6762120">
        <ele>897.4</ele>
        <time>2021-10-14T16:38:11Z</time>
      </trkpt>
      <trkpt lat="40.8435120" lon="-5.6762740">
        <ele>897.4</ele>
        <time>2021-10-14T16:38:14Z</time>
      </trkpt>
      <trkpt lat="40.8434860" lon="-5.6763060">
        <ele>897.4</ele>
        <time>2021-10-14T16:38:16Z</time>
      </trkpt>
      <trkpt lat="40.8434530" lon="-5.6763430">
        <ele>897.4</ele>
        <time>2021-10-14T16:38:18Z</time>
      </trkpt>
      <trkpt lat="40.8434330" lon="-5.6763600">
        <ele>897.4</ele>
        <time>2021-10-14T16:38:19Z</time>
      </trkpt>
      <trkpt lat="40.8434040" lon="-5.6763880">
        <ele>897.4</ele>
        <time>2021-10-14T16:38:21Z</time>
      </trkpt>
      <trkpt lat="40.8433840" lon="-5.6764040">
        <ele>897.4</ele>
        <time>2021-10-14T16:38:22Z</time>
      </trkpt>
      <trkpt lat="40.8433050" lon="-5.6764460">
        <ele>897.4</ele>
        <time>2021-10-14T16:38:26Z</time>
      </trkpt>
      <trkpt lat="40.8431630" lon="-5.6764910">
        <ele>897.2</ele>
        <time>2021-10-14T16:38:31Z</time>
      </trkpt>
      <trkpt lat="40.8429750" lon="-5.6765430">
        <ele>896.4</ele>
        <time>2021-10-14T16:38:36Z</time>
      </trkpt>
      <trkpt lat="40.8428580" lon="-5.6766290">
        <ele>895.6</ele>
        <time>2021-10-14T16:38:40Z</time>
      </trkpt>
      <trkpt lat="40.8427380" lon="-5.6767530">
        <ele>894.6</ele>
        <time>2021-10-14T16:38:43Z</time>
      </trkpt>
      <trkpt lat="40.8427080" lon="-5.6767810">
        <ele>893.8</ele>
        <time>2021-10-14T16:38:44Z</time>
      </trkpt>
      <trkpt lat="40.8426740" lon="-5.6768120">
        <ele>893.6</ele>
        <time>2021-10-14T16:38:45Z</time>
      </trkpt>
      <trkpt lat="40.8425930" lon="-5.6768890">
        <ele>892.6</ele>
        <time>2021-10-14T16:38:48Z</time>
      </trkpt>
      <trkpt lat="40.8425700" lon="-5.6769100">
        <ele>892.4</ele>
        <time>2021-10-14T16:38:49Z</time>
      </trkpt>
      <trkpt lat="40.8424760" lon="-5.6770170">
        <ele>892.2</ele>
        <time>2021-10-14T16:38:54Z</time>
      </trkpt>
      <trkpt lat="40.8423860" lon="-5.6771410">
        <ele>892.8</ele>
        <time>2021-10-14T16:39:00Z</time>
      </trkpt>
      <trkpt lat="40.8423450" lon="-5.6772260">
        <ele>893.4</ele>
        <time>2021-10-14T16:39:04Z</time>
      </trkpt>
      <trkpt lat="40.8423190" lon="-5.6772630">
        <ele>893.6</ele>
        <time>2021-10-14T16:39:06Z</time>
      </trkpt>
      <trkpt lat="40.8422590" lon="-5.6773450">
        <ele>894.2</ele>
        <time>2021-10-14T16:39:11Z</time>
      </trkpt>
      <trkpt lat="40.8422420" lon="-5.6773690">
        <ele>894.4</ele>
        <time>2021-10-14T16:39:13Z</time>
      </trkpt>
      <trkpt lat="40.8422280" lon="-5.6773870">
        <ele>894.6</ele>
        <time>2021-10-14T16:39:14Z</time>
      </trkpt>
      <trkpt lat="40.8421460" lon="-5.6774640">
        <ele>895.6</ele>
        <time>2021-10-14T16:39:20Z</time>
      </trkpt>
      <trkpt lat="40.8420650" lon="-5.6775150">
        <ele>896.4</ele>
        <time>2021-10-14T16:39:26Z</time>
      </trkpt>
      <trkpt lat="40.8420490" lon="-5.6775240">
        <ele>896.4</ele>
        <time>2021-10-14T16:39:27Z</time>
      </trkpt>
      <trkpt lat="40.8420340" lon="-5.6775320">
        <ele>896.6</ele>
        <time>2021-10-14T16:39:28Z</time>
      </trkpt>
      <trkpt lat="40.8419420" lon="-5.6775980">
        <ele>897.4</ele>
        <time>2021-10-14T16:39:35Z</time>
      </trkpt>
      <trkpt lat="40.8419120" lon="-5.6776150">
        <ele>897.4</ele>
        <time>2021-10-14T16:39:37Z</time>
      </trkpt>
      <trkpt lat="40.8418860" lon="-5.6776370">
        <ele>897.6</ele>
        <time>2021-10-14T16:39:39Z</time>
      </trkpt>
      <trkpt lat="40.8418630" lon="-5.6776610">
        <ele>897.8</ele>
        <time>2021-10-14T16:39:41Z</time>
      </trkpt>
      <trkpt lat="40.8418250" lon="-5.6776970">
        <ele>898.2</ele>
        <time>2021-10-14T16:39:44Z</time>
      </trkpt>
      <trkpt lat="40.8418020" lon="-5.6777100">
        <ele>898.6</ele>
        <time>2021-10-14T16:39:46Z</time>
      </trkpt>
      <trkpt lat="40.8417880" lon="-5.6777210">
        <ele>898.8</ele>
        <time>2021-10-14T16:39:47Z</time>
      </trkpt>
      <trkpt lat="40.8417530" lon="-5.6777530">
        <ele>899.0</ele>
        <time>2021-10-14T16:39:50Z</time>
      </trkpt>
      <trkpt lat="40.8416910" lon="-5.6777920">
        <ele>899.6</ele>
        <time>2021-10-14T16:39:55Z</time>
      </trkpt>
      <trkpt lat="40.8416470" lon="-5.6778250">
        <ele>899.8</ele>
        <time>2021-10-14T16:39:58Z</time>
      </trkpt>
      <trkpt lat="40.8415470" lon="-5.6779050">
        <ele>900.4</ele>
        <time>2021-10-14T16:40:05Z</time>
      </trkpt>
      <trkpt lat="40.8415240" lon="-5.6779260">
        <ele>900.6</ele>
        <time>2021-10-14T16:40:07Z</time>
      </trkpt>
      <trkpt lat="40.8415010" lon="-5.6779420">
        <ele>901.0</ele>
        <time>2021-10-14T16:40:09Z</time>
      </trkpt>
      <trkpt lat="40.8414380" lon="-5.6779860">
        <ele>901.8</ele>
        <time>2021-10-14T16:40:13Z</time>
      </trkpt>
      <trkpt lat="40.8414270" lon="-5.6779940">
        <ele>901.8</ele>
        <time>2021-10-14T16:40:14Z</time>
      </trkpt>
      <trkpt lat="40.8414140" lon="-5.6780060">
        <ele>902.0</ele>
        <time>2021-10-14T16:40:15Z</time>
      </trkpt>
      <trkpt lat="40.8413720" lon="-5.6780320">
        <ele>902.2</ele>
        <time>2021-10-14T16:40:18Z</time>
      </trkpt>
      <trkpt lat="40.8413480" lon="-5.6780500">
        <ele>902.4</ele>
        <time>2021-10-14T16:40:20Z</time>
      </trkpt>
      <trkpt lat="40.8413350" lon="-5.6780600">
        <ele>902.4</ele>
        <time>2021-10-14T16:40:21Z</time>
      </trkpt>
      <trkpt lat="40.8412920" lon="-5.6780860">
        <ele>902.8</ele>
        <time>2021-10-14T16:40:24Z</time>
      </trkpt>
      <trkpt lat="40.8412500" lon="-5.6781050">
        <ele>903.2</ele>
        <time>2021-10-14T16:40:27Z</time>
      </trkpt>
      <trkpt lat="40.8412340" lon="-5.6781150">
        <ele>903.4</ele>
        <time>2021-10-14T16:40:28Z</time>
      </trkpt>
      <trkpt lat="40.8411990" lon="-5.6781480">
        <ele>904.0</ele>
        <time>2021-10-14T16:40:31Z</time>
      </trkpt>
      <trkpt lat="40.8411430" lon="-5.6781850">
        <ele>904.4</ele>
        <time>2021-10-14T16:40:35Z</time>
      </trkpt>
      <trkpt lat="40.8410930" lon="-5.6782100">
        <ele>905.0</ele>
        <time>2021-10-14T16:40:39Z</time>
      </trkpt>
      <trkpt lat="40.8410390" lon="-5.6782340">
        <ele>905.6</ele>
        <time>2021-10-14T16:40:43Z</time>
      </trkpt>
      <trkpt lat="40.8409750" lon="-5.6782710">
        <ele>906.2</ele>
        <time>2021-10-14T16:40:48Z</time>
      </trkpt>
      <trkpt lat="40.8409630" lon="-5.6782780">
        <ele>906.2</ele>
        <time>2021-10-14T16:40:49Z</time>
      </trkpt>
      <trkpt lat="40.8409530" lon="-5.6782800">
        <ele>906.4</ele>
        <time>2021-10-14T16:40:50Z</time>
      </trkpt>
      <trkpt lat="40.8409130" lon="-5.6782980">
        <ele>907.2</ele>
        <time>2021-10-14T16:40:53Z</time>
      </trkpt>
      <trkpt lat="40.8408350" lon="-5.6783210">
        <ele>907.8</ele>
        <time>2021-10-14T16:40:59Z</time>
      </trkpt>
      <trkpt lat="40.8407930" lon="-5.6783230">
        <ele>908.0</ele>
        <time>2021-10-14T16:41:02Z</time>
      </trkpt>
      <trkpt lat="40.8407700" lon="-5.6783250">
        <ele>908.4</ele>
        <time>2021-10-14T16:41:04Z</time>
      </trkpt>
      <trkpt lat="40.8407320" lon="-5.6783270">
        <ele>909.0</ele>
        <time>2021-10-14T16:41:08Z</time>
      </trkpt>
      <trkpt lat="40.8407250" lon="-5.6783280">
        <ele>909.0</ele>
        <time>2021-10-14T16:41:09Z</time>
      </trkpt>
      <trkpt lat="40.8407030" lon="-5.6783330">
        <ele>909.4</ele>
        <time>2021-10-14T16:41:12Z</time>
      </trkpt>
      <trkpt lat="40.8406920" lon="-5.6783320">
        <ele>909.6</ele>
        <time>2021-10-14T16:41:14Z</time>
      </trkpt>
      <trkpt lat="40.8406880" lon="-5.6783360">
        <ele>909.6</ele>
        <time>2021-10-14T16:41:15Z</time>
      </trkpt>
      <trkpt lat="40.8406720" lon="-5.6783340">
        <ele>909.6</ele>
        <time>2021-10-14T16:41:18Z</time>
      </trkpt>
      <trkpt lat="40.8406490" lon="-5.6783230">
        <ele>909.6</ele>
        <time>2021-10-14T16:41:20Z</time>
      </trkpt>
      <trkpt lat="40.8405940" lon="-5.6783090">
        <ele>909.8</ele>
        <time>2021-10-14T16:41:24Z</time>
      </trkpt>
      <trkpt lat="40.8405570" lon="-5.6783090">
        <ele>910.0</ele>
        <time>2021-10-14T16:41:27Z</time>
      </trkpt>
      <trkpt lat="40.8405460" lon="-5.6783080">
        <ele>910.0</ele>
        <time>2021-10-14T16:41:28Z</time>
      </trkpt>
      <trkpt lat="40.8404850" lon="-5.6783080">
        <ele>910.4</ele>
        <time>2021-10-14T16:41:33Z</time>
      </trkpt>
      <trkpt lat="40.8404730" lon="-5.6783050">
        <ele>910.4</ele>
        <time>2021-10-14T16:41:34Z</time>
      </trkpt>
      <trkpt lat="40.8404260" lon="-5.6782730">
        <ele>910.6</ele>
        <time>2021-10-14T16:41:40Z</time>
      </trkpt>
      <trkpt lat="40.8404230" lon="-5.6782730">
        <ele>910.6</ele>
        <time>2021-10-14T16:41:43Z</time>
      </trkpt>
      <trkpt lat="40.8402520" lon="-5.6783070">
        <ele>911.2</ele>
        <time>2021-10-14T16:42:54Z</time>
      </trkpt>
      <trkpt lat="40.8402320" lon="-5.6783040">
        <ele>911.2</ele>
        <time>2021-10-14T16:42:55Z</time>
      </trkpt>
      <trkpt lat="40.8401040" lon="-5.6782230">
        <ele>911.2</ele>
        <time>2021-10-14T16:43:01Z</time>
      </trkpt>
      <trkpt lat="40.8400410" lon="-5.6781900">
        <ele>911.0</ele>
        <time>2021-10-14T16:43:04Z</time>
      </trkpt>
      <trkpt lat="40.8399170" lon="-5.6781380">
        <ele>910.8</ele>
        <time>2021-10-14T16:43:09Z</time>
      </trkpt>
      <trkpt lat="40.8398080" lon="-5.6781240">
        <ele>911.0</ele>
        <time>2021-10-14T16:43:13Z</time>
      </trkpt>
      <trkpt lat="40.8397270" lon="-5.6781150">
        <ele>911.2</ele>
        <time>2021-10-14T16:43:16Z</time>
      </trkpt>
      <trkpt lat="40.8396030" lon="-5.6780980">
        <ele>911.4</ele>
        <time>2021-10-14T16:43:21Z</time>
      </trkpt>
      <trkpt lat="40.8395390" lon="-5.6780900">
        <ele>911.6</ele>
        <time>2021-10-14T16:43:24Z</time>
      </trkpt>
      <trkpt lat="40.8394250" lon="-5.6780670">
        <ele>912.2</ele>
        <time>2021-10-14T16:43:29Z</time>
      </trkpt>
      <trkpt lat="40.8393610" lon="-5.6780600">
        <ele>912.4</ele>
        <time>2021-10-14T16:43:32Z</time>
      </trkpt>
      <trkpt lat="40.8393400" lon="-5.6780590">
        <ele>912.4</ele>
        <time>2021-10-14T16:43:33Z</time>
      </trkpt>
      <trkpt lat="40.8393170" lon="-5.6780580">
        <ele>912.6</ele>
        <time>2021-10-14T16:43:34Z</time>
      </trkpt>
      <trkpt lat="40.8392590" lon="-5.6780620">
        <ele>913.0</ele>
        <time>2021-10-14T16:43:37Z</time>
      </trkpt>
      <trkpt lat="40.8392000" lon="-5.6780680">
        <ele>913.6</ele>
        <time>2021-10-14T16:43:40Z</time>
      </trkpt>
      <trkpt lat="40.8391800" lon="-5.6780670">
        <ele>913.6</ele>
        <time>2021-10-14T16:43:41Z</time>
      </trkpt>
      <trkpt lat="40.8390070" lon="-5.6780640">
        <ele>914.4</ele>
        <time>2021-10-14T16:43:50Z</time>
      </trkpt>
      <trkpt lat="40.8389940" lon="-5.6780610">
        <ele>914.6</ele>
        <time>2021-10-14T16:43:51Z</time>
      </trkpt>
      <trkpt lat="40.8388710" lon="-5.6780230">
        <ele>915.6</ele>
        <time>2021-10-14T16:43:58Z</time>
      </trkpt>
      <trkpt lat="40.8388220" lon="-5.6780200">
        <ele>916.2</ele>
        <time>2021-10-14T16:44:01Z</time>
      </trkpt>
      <trkpt lat="40.8387540" lon="-5.6780290">
        <ele>916.8</ele>
        <time>2021-10-14T16:44:05Z</time>
      </trkpt>
      <trkpt lat="40.8386430" lon="-5.6780550">
        <ele>917.6</ele>
        <time>2021-10-14T16:44:12Z</time>
      </trkpt>
      <trkpt lat="40.8386070" lon="-5.6780590">
        <ele>917.8</ele>
        <time>2021-10-14T16:44:14Z</time>
      </trkpt>
      <trkpt lat="40.8384790" lon="-5.6780930">
        <ele>918.6</ele>
        <time>2021-10-14T16:44:21Z</time>
      </trkpt>
      <trkpt lat="40.8384300" lon="-5.6781000">
        <ele>919.0</ele>
        <time>2021-10-14T16:44:24Z</time>
      </trkpt>
      <trkpt lat="40.8382780" lon="-5.6781400">
        <ele>919.8</ele>
        <time>2021-10-14T16:44:32Z</time>
      </trkpt>
      <trkpt lat="40.8382290" lon="-5.6781510">
        <ele>919.8</ele>
        <time>2021-10-14T16:44:34Z</time>
      </trkpt>
      <trkpt lat="40.8381870" lon="-5.6781590">
        <ele>920.0</ele>
        <time>2021-10-14T16:44:36Z</time>
      </trkpt>
      <trkpt lat="40.8381290" lon="-5.6781640">
        <ele>920.0</ele>
        <time>2021-10-14T16:44:39Z</time>
      </trkpt>
      <trkpt lat="40.8380290" lon="-5.6781770">
        <ele>920.6</ele>
        <time>2021-10-14T16:44:44Z</time>
      </trkpt>
      <trkpt lat="40.8379520" lon="-5.6781900">
        <ele>920.8</ele>
        <time>2021-10-14T16:44:48Z</time>
      </trkpt>
      <trkpt lat="40.8379100" lon="-5.6781930">
        <ele>921.0</ele>
        <time>2021-10-14T16:44:50Z</time>
      </trkpt>
      <trkpt lat="40.8378910" lon="-5.6781960">
        <ele>921.0</ele>
        <time>2021-10-14T16:44:51Z</time>
      </trkpt>
      <trkpt lat="40.8378550" lon="-5.6782000">
        <ele>921.4</ele>
        <time>2021-10-14T16:44:53Z</time>
      </trkpt>
      <trkpt lat="40.8378110" lon="-5.6781960">
        <ele>921.6</ele>
        <time>2021-10-14T16:44:55Z</time>
      </trkpt>
      <trkpt lat="40.8377240" lon="-5.6781900">
        <ele>921.8</ele>
        <time>2021-10-14T16:44:59Z</time>
      </trkpt>
      <trkpt lat="40.8376590" lon="-5.6781700">
        <ele>922.0</ele>
        <time>2021-10-14T16:45:02Z</time>
      </trkpt>
      <trkpt lat="40.8375740" lon="-5.6781630">
        <ele>922.4</ele>
        <time>2021-10-14T16:45:06Z</time>
      </trkpt>
      <trkpt lat="40.8375330" lon="-5.6781760">
        <ele>922.6</ele>
        <time>2021-10-14T16:45:08Z</time>
      </trkpt>
      <trkpt lat="40.8374520" lon="-5.6781970">
        <ele>922.8</ele>
        <time>2021-10-14T16:45:12Z</time>
      </trkpt>
      <trkpt lat="40.8374160" lon="-5.6782110">
        <ele>923.0</ele>
        <time>2021-10-14T16:45:14Z</time>
      </trkpt>
      <trkpt lat="40.8373620" lon="-5.6782320">
        <ele>923.4</ele>
        <time>2021-10-14T16:45:17Z</time>
      </trkpt>
      <trkpt lat="40.8372640" lon="-5.6782320">
        <ele>924.2</ele>
        <time>2021-10-14T16:45:22Z</time>
      </trkpt>
      <trkpt lat="40.8372220" lon="-5.6782290">
        <ele>924.4</ele>
        <time>2021-10-14T16:45:24Z</time>
      </trkpt>
      <trkpt lat="40.8371580" lon="-5.6782250">
        <ele>924.4</ele>
        <time>2021-10-14T16:45:27Z</time>
      </trkpt>
      <trkpt lat="40.8370380" lon="-5.6782310">
        <ele>924.6</ele>
        <time>2021-10-14T16:45:33Z</time>
      </trkpt>
      <trkpt lat="40.8370150" lon="-5.6782310">
        <ele>924.8</ele>
        <time>2021-10-14T16:45:34Z</time>
      </trkpt>
      <trkpt lat="40.8369300" lon="-5.6782390">
        <ele>925.2</ele>
        <time>2021-10-14T16:45:38Z</time>
      </trkpt>
      <trkpt lat="40.8369090" lon="-5.6782420">
        <ele>925.2</ele>
        <time>2021-10-14T16:45:39Z</time>
      </trkpt>
      <trkpt lat="40.8367950" lon="-5.6782630">
        <ele>925.8</ele>
        <time>2021-10-14T16:45:44Z</time>
      </trkpt>
      <trkpt lat="40.8367440" lon="-5.6782770">
        <ele>925.8</ele>
        <time>2021-10-14T16:45:46Z</time>
      </trkpt>
      <trkpt lat="40.8366970" lon="-5.6782980">
        <ele>925.8</ele>
        <time>2021-10-14T16:45:48Z</time>
      </trkpt>
      <trkpt lat="40.8366280" lon="-5.6783350">
        <ele>926.0</ele>
        <time>2021-10-14T16:45:51Z</time>
      </trkpt>
      <trkpt lat="40.8365840" lon="-5.6783650">
        <ele>926.2</ele>
        <time>2021-10-14T16:45:53Z</time>
      </trkpt>
      <trkpt lat="40.8365390" lon="-5.6783940">
        <ele>926.2</ele>
        <time>2021-10-14T16:45:55Z</time>
      </trkpt>
      <trkpt lat="40.8364740" lon="-5.6784220">
        <ele>926.4</ele>
        <time>2021-10-14T16:45:58Z</time>
      </trkpt>
      <trkpt lat="40.8364070" lon="-5.6784300">
        <ele>926.4</ele>
        <time>2021-10-14T16:46:01Z</time>
      </trkpt>
      <trkpt lat="40.8363390" lon="-5.6784470">
        <ele>926.6</ele>
        <time>2021-10-14T16:46:04Z</time>
      </trkpt>
      <trkpt lat="40.8362510" lon="-5.6784730">
        <ele>926.6</ele>
        <time>2021-10-14T16:46:08Z</time>
      </trkpt>
      <trkpt lat="40.8360840" lon="-5.6785380">
        <ele>927.2</ele>
        <time>2021-10-14T16:46:16Z</time>
      </trkpt>
      <trkpt lat="40.8360160" lon="-5.6785520">
        <ele>928.0</ele>
        <time>2021-10-14T16:46:19Z</time>
      </trkpt>
      <trkpt lat="40.8359500" lon="-5.6785660">
        <ele>928.2</ele>
        <time>2021-10-14T16:46:22Z</time>
      </trkpt>
      <trkpt lat="40.8359040" lon="-5.6785710">
        <ele>928.4</ele>
        <time>2021-10-14T16:46:24Z</time>
      </trkpt>
      <trkpt lat="40.8357040" lon="-5.6785480">
        <ele>928.8</ele>
        <time>2021-10-14T16:46:32Z</time>
      </trkpt>
      <trkpt lat="40.8356590" lon="-5.6785380">
        <ele>929.0</ele>
        <time>2021-10-14T16:46:34Z</time>
      </trkpt>
      <trkpt lat="40.8356150" lon="-5.6785300">
        <ele>929.0</ele>
        <time>2021-10-14T16:46:36Z</time>
      </trkpt>
      <trkpt lat="40.8355170" lon="-5.6784780">
        <ele>929.2</ele>
        <time>2021-10-14T16:46:41Z</time>
      </trkpt>
      <trkpt lat="40.8354980" lon="-5.6784750">
        <ele>929.2</ele>
        <time>2021-10-14T16:46:42Z</time>
      </trkpt>
      <trkpt lat="40.8354220" lon="-5.6784950">
        <ele>929.8</ele>
        <time>2021-10-14T16:46:46Z</time>
      </trkpt>
      <trkpt lat="40.8353380" lon="-5.6785180">
        <ele>930.2</ele>
        <time>2021-10-14T16:46:50Z</time>
      </trkpt>
      <trkpt lat="40.8353160" lon="-5.6785180">
        <ele>930.4</ele>
        <time>2021-10-14T16:46:51Z</time>
      </trkpt>
      <trkpt lat="40.8352710" lon="-5.6785250">
        <ele>930.6</ele>
        <time>2021-10-14T16:46:53Z</time>
      </trkpt>
      <trkpt lat="40.8351510" lon="-5.6785350">
        <ele>931.0</ele>
        <time>2021-10-14T16:46:58Z</time>
      </trkpt>
      <trkpt lat="40.8351070" lon="-5.6785390">
        <ele>931.2</ele>
        <time>2021-10-14T16:47:00Z</time>
      </trkpt>
      <trkpt lat="40.8350550" lon="-5.6785400">
        <ele>931.2</ele>
        <time>2021-10-14T16:47:02Z</time>
      </trkpt>
      <trkpt lat="40.8349940" lon="-5.6785420">
        <ele>931.4</ele>
        <time>2021-10-14T16:47:05Z</time>
      </trkpt>
      <trkpt lat="40.8347990" lon="-5.6785370">
        <ele>932.2</ele>
        <time>2021-10-14T16:47:14Z</time>
      </trkpt>
      <trkpt lat="40.8347730" lon="-5.6785360">
        <ele>932.2</ele>
        <time>2021-10-14T16:47:15Z</time>
      </trkpt>
      <trkpt lat="40.8346800" lon="-5.6785090">
        <ele>932.4</ele>
        <time>2021-10-14T16:47:19Z</time>
      </trkpt>
      <trkpt lat="40.8346100" lon="-5.6784860">
        <ele>933.0</ele>
        <time>2021-10-14T16:47:22Z</time>
      </trkpt>
      <trkpt lat="40.8345440" lon="-5.6784650">
        <ele>933.2</ele>
        <time>2021-10-14T16:47:25Z</time>
      </trkpt>
      <trkpt lat="40.8345210" lon="-5.6784600">
        <ele>933.2</ele>
        <time>2021-10-14T16:47:26Z</time>
      </trkpt>
      <trkpt lat="40.8344410" lon="-5.6784580">
        <ele>933.6</ele>
        <time>2021-10-14T16:47:30Z</time>
      </trkpt>
      <trkpt lat="40.8343480" lon="-5.6784590">
        <ele>934.4</ele>
        <time>2021-10-14T16:47:35Z</time>
      </trkpt>
      <trkpt lat="40.8342950" lon="-5.6784910">
        <ele>934.4</ele>
        <time>2021-10-14T16:47:38Z</time>
      </trkpt>
      <trkpt lat="40.8341850" lon="-5.6784770">
        <ele>935.4</ele>
        <time>2021-10-14T16:47:44Z</time>
      </trkpt>
      <trkpt lat="40.8340840" lon="-5.6784620">
        <ele>936.0</ele>
        <time>2021-10-14T16:47:51Z</time>
      </trkpt>
      <trkpt lat="40.8340770" lon="-5.6784640">
        <ele>936.0</ele>
        <time>2021-10-14T16:47:52Z</time>
      </trkpt>
      <trkpt lat="40.8340770" lon="-5.6784640">
        <ele>936.2</ele>
        <time>2021-10-14T16:47:54Z</time>
      </trkpt>
      <trkpt lat="40.8340340" lon="-5.6784710">
        <ele>936.6</ele>
        <time>2021-10-14T16:48:00Z</time>
      </trkpt>
      <trkpt lat="40.8340150" lon="-5.6784730">
        <ele>936.8</ele>
        <time>2021-10-14T16:48:02Z</time>
      </trkpt>
      <trkpt lat="40.8339790" lon="-5.6784740">
        <ele>937.2</ele>
        <time>2021-10-14T16:48:07Z</time>
      </trkpt>
      <trkpt lat="40.8339700" lon="-5.6784740">
        <ele>937.8</ele>
        <time>2021-10-14T16:48:09Z</time>
      </trkpt>
      <trkpt lat="40.8339700" lon="-5.6784740">
        <ele>938.0</ele>
        <time>2021-10-14T16:48:10Z</time>
      </trkpt>
      <trkpt lat="40.8339700" lon="-5.6784740">
        <ele>938.2</ele>
        <time>2021-10-14T16:48:11Z</time>
      </trkpt>
      <trkpt lat="40.8339230" lon="-5.6785050">
        <ele>938.8</ele>
        <time>2021-10-14T16:48:48Z</time>
      </trkpt>
      <trkpt lat="40.8338980" lon="-5.6785210">
        <ele>938.8</ele>
        <time>2021-10-14T16:48:49Z</time>
      </trkpt>
      <trkpt lat="40.8338740" lon="-5.6785350">
        <ele>938.8</ele>
        <time>2021-10-14T16:48:50Z</time>
      </trkpt>
      <trkpt lat="40.8337670" lon="-5.6785630">
        <ele>938.6</ele>
        <time>2021-10-14T16:48:55Z</time>
      </trkpt>
      <trkpt lat="40.8337470" lon="-5.6785620">
        <ele>938.6</ele>
        <time>2021-10-14T16:48:56Z</time>
      </trkpt>
      <trkpt lat="40.8337270" lon="-5.6785650">
        <ele>938.6</ele>
        <time>2021-10-14T16:48:57Z</time>
      </trkpt>
      <trkpt lat="40.8336840" lon="-5.6785730">
        <ele>938.8</ele>
        <time>2021-10-14T16:48:59Z</time>
      </trkpt>
      <trkpt lat="40.8336590" lon="-5.6785710">
        <ele>939.0</ele>
        <time>2021-10-14T16:49:00Z</time>
      </trkpt>
      <trkpt lat="40.8336120" lon="-5.6785650">
        <ele>939.0</ele>
        <time>2021-10-14T16:49:02Z</time>
      </trkpt>
      <trkpt lat="40.8334770" lon="-5.6785970">
        <ele>939.4</ele>
        <time>2021-10-14T16:49:09Z</time>
      </trkpt>
      <trkpt lat="40.8333910" lon="-5.6786250">
        <ele>939.8</ele>
        <time>2021-10-14T16:49:13Z</time>
      </trkpt>
      <trkpt lat="40.8333210" lon="-5.6786240">
        <ele>940.0</ele>
        <time>2021-10-14T16:49:16Z</time>
      </trkpt>
      <trkpt lat="40.8332980" lon="-5.6786200">
        <ele>940.0</ele>
        <time>2021-10-14T16:49:17Z</time>
      </trkpt>
      <trkpt lat="40.8331720" lon="-5.6786510">
        <ele>940.2</ele>
        <time>2021-10-14T16:49:23Z</time>
      </trkpt>
      <trkpt lat="40.8330520" lon="-5.6786920">
        <ele>940.8</ele>
        <time>2021-10-14T16:49:29Z</time>
      </trkpt>
      <trkpt lat="40.8330330" lon="-5.6786960">
        <ele>940.8</ele>
        <time>2021-10-14T16:49:30Z</time>
      </trkpt>
      <trkpt lat="40.8330160" lon="-5.6787020">
        <ele>941.0</ele>
        <time>2021-10-14T16:49:31Z</time>
      </trkpt>
      <trkpt lat="40.8329270" lon="-5.6787300">
        <ele>941.4</ele>
        <time>2021-10-14T16:49:36Z</time>
      </trkpt>
      <trkpt lat="40.8328900" lon="-5.6787390">
        <ele>941.6</ele>
        <time>2021-10-14T16:49:38Z</time>
      </trkpt>
      <trkpt lat="40.8328530" lon="-5.6787460">
        <ele>941.8</ele>
        <time>2021-10-14T16:49:40Z</time>
      </trkpt>
      <trkpt lat="40.8327970" lon="-5.6787760">
        <ele>942.0</ele>
        <time>2021-10-14T16:49:43Z</time>
      </trkpt>
      <trkpt lat="40.8327610" lon="-5.6787880">
        <ele>942.2</ele>
        <time>2021-10-14T16:49:45Z</time>
      </trkpt>
      <trkpt lat="40.8327270" lon="-5.6788040">
        <ele>942.6</ele>
        <time>2021-10-14T16:49:47Z</time>
      </trkpt>
      <trkpt lat="40.8326900" lon="-5.6788190">
        <ele>942.8</ele>
        <time>2021-10-14T16:49:49Z</time>
      </trkpt>
      <trkpt lat="40.8326530" lon="-5.6788290">
        <ele>943.0</ele>
        <time>2021-10-14T16:49:51Z</time>
      </trkpt>
      <trkpt lat="40.8324790" lon="-5.6788620">
        <ele>944.2</ele>
        <time>2021-10-14T16:50:00Z</time>
      </trkpt>
      <trkpt lat="40.8324600" lon="-5.6788660">
        <ele>944.4</ele>
        <time>2021-10-14T16:50:01Z</time>
      </trkpt>
      <trkpt lat="40.8322780" lon="-5.6788710">
        <ele>945.2</ele>
        <time>2021-10-14T16:50:11Z</time>
      </trkpt>
      <trkpt lat="40.8322390" lon="-5.6788670">
        <ele>945.4</ele>
        <time>2021-10-14T16:50:13Z</time>
      </trkpt>
      <trkpt lat="40.8321140" lon="-5.6789120">
        <ele>946.2</ele>
        <time>2021-10-14T16:50:20Z</time>
      </trkpt>
      <trkpt lat="40.8321010" lon="-5.6789260">
        <ele>946.4</ele>
        <time>2021-10-14T16:50:21Z</time>
      </trkpt>
      <trkpt lat="40.8320040" lon="-5.6790130">
        <ele>947.4</ele>
        <time>2021-10-14T16:50:28Z</time>
      </trkpt>
      <trkpt lat="40.8319160" lon="-5.6790110">
        <ele>947.8</ele>
        <time>2021-10-14T16:50:33Z</time>
      </trkpt>
      <trkpt lat="40.8318840" lon="-5.6790240">
        <ele>948.0</ele>
        <time>2021-10-14T16:50:35Z</time>
      </trkpt>
      <trkpt lat="40.8318690" lon="-5.6790300">
        <ele>948.4</ele>
        <time>2021-10-14T16:50:36Z</time>
      </trkpt>
      <trkpt lat="40.8317750" lon="-5.6791090">
        <ele>949.4</ele>
        <time>2021-10-14T16:50:43Z</time>
      </trkpt>
      <trkpt lat="40.8316840" lon="-5.6791700">
        <ele>950.2</ele>
        <time>2021-10-14T16:50:49Z</time>
      </trkpt>
      <trkpt lat="40.8316690" lon="-5.6791840">
        <ele>950.6</ele>
        <time>2021-10-14T16:50:50Z</time>
      </trkpt>
      <trkpt lat="40.8315610" lon="-5.6792680">
        <ele>951.6</ele>
        <time>2021-10-14T16:50:58Z</time>
      </trkpt>
      <trkpt lat="40.8315470" lon="-5.6792830">
        <ele>951.6</ele>
        <time>2021-10-14T16:50:59Z</time>
      </trkpt>
      <trkpt lat="40.8314610" lon="-5.6793090">
        <ele>952.2</ele>
        <time>2021-10-14T16:51:04Z</time>
      </trkpt>
      <trkpt lat="40.8314290" lon="-5.6793240">
        <ele>952.4</ele>
        <time>2021-10-14T16:51:06Z</time>
      </trkpt>
      <trkpt lat="40.8313950" lon="-5.6793350">
        <ele>952.8</ele>
        <time>2021-10-14T16:51:08Z</time>
      </trkpt>
      <trkpt lat="40.8313610" lon="-5.6793480">
        <ele>953.2</ele>
        <time>2021-10-14T16:51:10Z</time>
      </trkpt>
      <trkpt lat="40.8312900" lon="-5.6793830">
        <ele>953.4</ele>
        <time>2021-10-14T16:51:14Z</time>
      </trkpt>
      <trkpt lat="40.8312600" lon="-5.6794010">
        <ele>953.8</ele>
        <time>2021-10-14T16:51:16Z</time>
      </trkpt>
      <trkpt lat="40.8312300" lon="-5.6794190">
        <ele>954.0</ele>
        <time>2021-10-14T16:51:18Z</time>
      </trkpt>
      <trkpt lat="40.8312150" lon="-5.6794290">
        <ele>954.0</ele>
        <time>2021-10-14T16:51:19Z</time>
      </trkpt>
      <trkpt lat="40.8311640" lon="-5.6794460">
        <ele>954.4</ele>
        <time>2021-10-14T16:51:22Z</time>
      </trkpt>
      <trkpt lat="40.8311300" lon="-5.6794520">
        <ele>954.6</ele>
        <time>2021-10-14T16:51:24Z</time>
      </trkpt>
      <trkpt lat="40.8310670" lon="-5.6794950">
        <ele>954.8</ele>
        <time>2021-10-14T16:51:28Z</time>
      </trkpt>
      <trkpt lat="40.8310360" lon="-5.6795140">
        <ele>955.0</ele>
        <time>2021-10-14T16:51:30Z</time>
      </trkpt>
      <trkpt lat="40.8310020" lon="-5.6795300">
        <ele>955.2</ele>
        <time>2021-10-14T16:51:32Z</time>
      </trkpt>
      <trkpt lat="40.8309250" lon="-5.6795560">
        <ele>955.6</ele>
        <time>2021-10-14T16:51:36Z</time>
      </trkpt>
      <trkpt lat="40.8308770" lon="-5.6795760">
        <ele>955.8</ele>
        <time>2021-10-14T16:51:39Z</time>
      </trkpt>
      <trkpt lat="40.8308620" lon="-5.6795920">
        <ele>955.8</ele>
        <time>2021-10-14T16:51:40Z</time>
      </trkpt>
      <trkpt lat="40.8307710" lon="-5.6796690">
        <ele>956.8</ele>
        <time>2021-10-14T16:51:46Z</time>
      </trkpt>
      <trkpt lat="40.8307550" lon="-5.6796770">
        <ele>956.8</ele>
        <time>2021-10-14T16:51:47Z</time>
      </trkpt>
      <trkpt lat="40.8307410" lon="-5.6796870">
        <ele>957.0</ele>
        <time>2021-10-14T16:51:48Z</time>
      </trkpt>
      <trkpt lat="40.8306940" lon="-5.6797070">
        <ele>957.2</ele>
        <time>2021-10-14T16:51:51Z</time>
      </trkpt>
      <trkpt lat="40.8306450" lon="-5.6797290">
        <ele>957.8</ele>
        <time>2021-10-14T16:51:54Z</time>
      </trkpt>
      <trkpt lat="40.8306290" lon="-5.6797380">
        <ele>957.8</ele>
        <time>2021-10-14T16:51:55Z</time>
      </trkpt>
      <trkpt lat="40.8306010" lon="-5.6797560">
        <ele>958.2</ele>
        <time>2021-10-14T16:51:57Z</time>
      </trkpt>
      <trkpt lat="40.8305780" lon="-5.6798120">
        <ele>958.4</ele>
        <time>2021-10-14T16:52:00Z</time>
      </trkpt>
      <trkpt lat="40.8305830" lon="-5.6798450">
        <ele>958.6</ele>
        <time>2021-10-14T16:52:02Z</time>
      </trkpt>
      <trkpt lat="40.8305950" lon="-5.6798930">
        <ele>958.8</ele>
        <time>2021-10-14T16:52:05Z</time>
      </trkpt>
      <trkpt lat="40.8305870" lon="-5.6799280">
        <ele>959.0</ele>
        <time>2021-10-14T16:52:07Z</time>
      </trkpt>
      <trkpt lat="40.8305420" lon="-5.6799800">
        <ele>959.4</ele>
        <time>2021-10-14T16:52:11Z</time>
      </trkpt>
      <trkpt lat="40.8304970" lon="-5.6800330">
        <ele>960.0</ele>
        <time>2021-10-14T16:52:15Z</time>
      </trkpt>
      <trkpt lat="40.8304630" lon="-5.6800900">
        <ele>960.4</ele>
        <time>2021-10-14T16:52:19Z</time>
      </trkpt>
      <trkpt lat="40.8304160" lon="-5.6801350">
        <ele>960.8</ele>
        <time>2021-10-14T16:52:23Z</time>
      </trkpt>
      <trkpt lat="40.8303830" lon="-5.6801710">
        <ele>961.0</ele>
        <time>2021-10-14T16:52:26Z</time>
      </trkpt>
      <trkpt lat="40.8303630" lon="-5.6801980">
        <ele>961.2</ele>
        <time>2021-10-14T16:52:28Z</time>
      </trkpt>
      <trkpt lat="40.8303070" lon="-5.6802490">
        <ele>961.6</ele>
        <time>2021-10-14T16:52:33Z</time>
      </trkpt>
      <trkpt lat="40.8302950" lon="-5.6802820">
        <ele>961.8</ele>
        <time>2021-10-14T16:52:35Z</time>
      </trkpt>
      <trkpt lat="40.8302760" lon="-5.6803130">
        <ele>962.2</ele>
        <time>2021-10-14T16:52:37Z</time>
      </trkpt>
      <trkpt lat="40.8302260" lon="-5.6803880">
        <ele>962.8</ele>
        <time>2021-10-14T16:52:42Z</time>
      </trkpt>
      <trkpt lat="40.8301730" lon="-5.6804630">
        <ele>963.4</ele>
        <time>2021-10-14T16:52:47Z</time>
      </trkpt>
      <trkpt lat="40.8301270" lon="-5.6805350">
        <ele>964.0</ele>
        <time>2021-10-14T16:52:52Z</time>
      </trkpt>
      <trkpt lat="40.8301010" lon="-5.6805890">
        <ele>964.4</ele>
        <time>2021-10-14T16:52:55Z</time>
      </trkpt>
      <trkpt lat="40.8300940" lon="-5.6806070">
        <ele>964.4</ele>
        <time>2021-10-14T16:52:56Z</time>
      </trkpt>
      <trkpt lat="40.8300790" lon="-5.6806400">
        <ele>964.6</ele>
        <time>2021-10-14T16:52:58Z</time>
      </trkpt>
      <trkpt lat="40.8300610" lon="-5.6806750">
        <ele>964.8</ele>
        <time>2021-10-14T16:53:00Z</time>
      </trkpt>
      <trkpt lat="40.8300190" lon="-5.6807310">
        <ele>965.2</ele>
        <time>2021-10-14T16:53:04Z</time>
      </trkpt>
      <trkpt lat="40.8299900" lon="-5.6807770">
        <ele>965.2</ele>
        <time>2021-10-14T16:53:07Z</time>
      </trkpt>
      <trkpt lat="40.8299790" lon="-5.6807930">
        <ele>965.4</ele>
        <time>2021-10-14T16:53:08Z</time>
      </trkpt>
      <trkpt lat="40.8299510" lon="-5.6808290">
        <ele>965.6</ele>
        <time>2021-10-14T16:53:10Z</time>
      </trkpt>
      <trkpt lat="40.8299270" lon="-5.6808620">
        <ele>965.8</ele>
        <time>2021-10-14T16:53:12Z</time>
      </trkpt>
      <trkpt lat="40.8299030" lon="-5.6808950">
        <ele>966.0</ele>
        <time>2021-10-14T16:53:14Z</time>
      </trkpt>
      <trkpt lat="40.8298800" lon="-5.6809280">
        <ele>966.0</ele>
        <time>2021-10-14T16:53:16Z</time>
      </trkpt>
      <trkpt lat="40.8298610" lon="-5.6809640">
        <ele>966.2</ele>
        <time>2021-10-14T16:53:18Z</time>
      </trkpt>
      <trkpt lat="40.8298350" lon="-5.6810130">
        <ele>966.4</ele>
        <time>2021-10-14T16:53:21Z</time>
      </trkpt>
      <trkpt lat="40.8298150" lon="-5.6810350">
        <ele>966.6</ele>
        <time>2021-10-14T16:53:23Z</time>
      </trkpt>
      <trkpt lat="40.8298030" lon="-5.6810420">
        <ele>966.8</ele>
        <time>2021-10-14T16:53:24Z</time>
      </trkpt>
      <trkpt lat="40.8297740" lon="-5.6810490">
        <ele>966.8</ele>
        <time>2021-10-14T16:53:26Z</time>
      </trkpt>
      <trkpt lat="40.8297510" lon="-5.6810640">
        <ele>967.0</ele>
        <time>2021-10-14T16:53:28Z</time>
      </trkpt>
      <trkpt lat="40.8297290" lon="-5.6810860">
        <ele>967.2</ele>
        <time>2021-10-14T16:53:30Z</time>
      </trkpt>
      <trkpt lat="40.8297200" lon="-5.6810980">
        <ele>967.2</ele>
        <time>2021-10-14T16:53:31Z</time>
      </trkpt>
      <trkpt lat="40.8296940" lon="-5.6811310">
        <ele>967.4</ele>
        <time>2021-10-14T16:53:34Z</time>
      </trkpt>
      <trkpt lat="40.8296900" lon="-5.6811360">
        <ele>967.6</ele>
        <time>2021-10-14T16:53:37Z</time>
      </trkpt>
      <trkpt lat="40.8296450" lon="-5.6811900">
        <ele>967.4</ele>
        <time>2021-10-14T16:54:33Z</time>
      </trkpt>
      <trkpt lat="40.8296020" lon="-5.6812430">
        <ele>967.4</ele>
        <time>2021-10-14T16:54:36Z</time>
      </trkpt>
      <trkpt lat="40.8295060" lon="-5.6813450">
        <ele>967.4</ele>
        <time>2021-10-14T16:54:42Z</time>
      </trkpt>
      <trkpt lat="40.8293570" lon="-5.6815100">
        <ele>967.8</ele>
        <time>2021-10-14T16:54:50Z</time>
      </trkpt>
      <trkpt lat="40.8291800" lon="-5.6816770">
        <ele>967.8</ele>
        <time>2021-10-14T16:54:57Z</time>
      </trkpt>
      <trkpt lat="40.8289340" lon="-5.6818670">
        <ele>967.4</ele>
        <time>2021-10-14T16:55:05Z</time>
      </trkpt>
      <trkpt lat="40.8287540" lon="-5.6820070">
        <ele>967.2</ele>
        <time>2021-10-14T16:55:10Z</time>
      </trkpt>
      <trkpt lat="40.8286610" lon="-5.6820800">
        <ele>966.8</ele>
        <time>2021-10-14T16:55:12Z</time>
      </trkpt>
      <trkpt lat="40.8285180" lon="-5.6821700">
        <ele>966.2</ele>
        <time>2021-10-14T16:55:15Z</time>
      </trkpt>
      <trkpt lat="40.8284190" lon="-5.6822330">
        <ele>965.8</ele>
        <time>2021-10-14T16:55:17Z</time>
      </trkpt>
      <trkpt lat="40.8282730" lon="-5.6823000">
        <ele>965.0</ele>
        <time>2021-10-14T16:55:20Z</time>
      </trkpt>
      <trkpt lat="40.8281170" lon="-5.6823810">
        <ele>963.8</ele>
        <time>2021-10-14T16:55:23Z</time>
      </trkpt>
      <trkpt lat="40.8280260" lon="-5.6824390">
        <ele>962.6</ele>
        <time>2021-10-14T16:55:25Z</time>
      </trkpt>
      <trkpt lat="40.8279790" lon="-5.6824690">
        <ele>962.4</ele>
        <time>2021-10-14T16:55:26Z</time>
      </trkpt>
      <trkpt lat="40.8278280" lon="-5.6825500">
        <ele>961.0</ele>
        <time>2021-10-14T16:55:29Z</time>
      </trkpt>
      <trkpt lat="40.8277750" lon="-5.6825820">
        <ele>960.6</ele>
        <time>2021-10-14T16:55:30Z</time>
      </trkpt>
      <trkpt lat="40.8277220" lon="-5.6826180">
        <ele>959.8</ele>
        <time>2021-10-14T16:55:31Z</time>
      </trkpt>
      <trkpt lat="40.8276670" lon="-5.6826510">
        <ele>959.2</ele>
        <time>2021-10-14T16:55:32Z</time>
      </trkpt>
      <trkpt lat="40.8276080" lon="-5.6826850">
        <ele>958.2</ele>
        <time>2021-10-14T16:55:33Z</time>
      </trkpt>
      <trkpt lat="40.8274260" lon="-5.6828120">
        <ele>956.6</ele>
        <time>2021-10-14T16:55:36Z</time>
      </trkpt>
      <trkpt lat="40.8273620" lon="-5.6828590">
        <ele>956.2</ele>
        <time>2021-10-14T16:55:37Z</time>
      </trkpt>
      <trkpt lat="40.8273010" lon="-5.6829090">
        <ele>954.8</ele>
        <time>2021-10-14T16:55:38Z</time>
      </trkpt>
      <trkpt lat="40.8271760" lon="-5.6830190">
        <ele>953.6</ele>
        <time>2021-10-14T16:55:40Z</time>
      </trkpt>
      <trkpt lat="40.8269820" lon="-5.6831920">
        <ele>952.0</ele>
        <time>2021-10-14T16:55:43Z</time>
      </trkpt>
      <trkpt lat="40.8268480" lon="-5.6833130">
        <ele>950.6</ele>
        <time>2021-10-14T16:55:45Z</time>
      </trkpt>
      <trkpt lat="40.8267120" lon="-5.6834440">
        <ele>949.0</ele>
        <time>2021-10-14T16:55:47Z</time>
      </trkpt>
      <trkpt lat="40.8265800" lon="-5.6835830">
        <ele>947.8</ele>
        <time>2021-10-14T16:55:49Z</time>
      </trkpt>
      <trkpt lat="40.8265180" lon="-5.6836560">
        <ele>947.2</ele>
        <time>2021-10-14T16:55:50Z</time>
      </trkpt>
      <trkpt lat="40.8264580" lon="-5.6837330">
        <ele>946.6</ele>
        <time>2021-10-14T16:55:51Z</time>
      </trkpt>
      <trkpt lat="40.8262290" lon="-5.6840370">
        <ele>945.2</ele>
        <time>2021-10-14T16:55:55Z</time>
      </trkpt>
      <trkpt lat="40.8261230" lon="-5.6841870">
        <ele>943.8</ele>
        <time>2021-10-14T16:55:57Z</time>
      </trkpt>
      <trkpt lat="40.8260270" lon="-5.6843420">
        <ele>943.2</ele>
        <time>2021-10-14T16:55:59Z</time>
      </trkpt>
      <trkpt lat="40.8259790" lon="-5.6844190">
        <ele>942.8</ele>
        <time>2021-10-14T16:56:00Z</time>
      </trkpt>
      <trkpt lat="40.8257940" lon="-5.6847060">
        <ele>941.6</ele>
        <time>2021-10-14T16:56:04Z</time>
      </trkpt>
      <trkpt lat="40.8257060" lon="-5.6848360">
        <ele>941.2</ele>
        <time>2021-10-14T16:56:06Z</time>
      </trkpt>
      <trkpt lat="40.8255760" lon="-5.6850290">
        <ele>940.2</ele>
        <time>2021-10-14T16:56:09Z</time>
      </trkpt>
      <trkpt lat="40.8254590" lon="-5.6852410">
        <ele>939.6</ele>
        <time>2021-10-14T16:56:12Z</time>
      </trkpt>
      <trkpt lat="40.8253850" lon="-5.6853880">
        <ele>939.0</ele>
        <time>2021-10-14T16:56:14Z</time>
      </trkpt>
      <trkpt lat="40.8252540" lon="-5.6855990">
        <ele>937.2</ele>
        <time>2021-10-14T16:56:17Z</time>
      </trkpt>
      <trkpt lat="40.8251640" lon="-5.6857280">
        <ele>936.0</ele>
        <time>2021-10-14T16:56:19Z</time>
      </trkpt>
      <trkpt lat="40.8251150" lon="-5.6857850">
        <ele>935.6</ele>
        <time>2021-10-14T16:56:20Z</time>
      </trkpt>
      <trkpt lat="40.8248510" lon="-5.6860390">
        <ele>934.8</ele>
        <time>2021-10-14T16:56:25Z</time>
      </trkpt>
      <trkpt lat="40.8247940" lon="-5.6860800">
        <ele>934.6</ele>
        <time>2021-10-14T16:56:26Z</time>
      </trkpt>
      <trkpt lat="40.8244250" lon="-5.6863170">
        <ele>933.2</ele>
        <time>2021-10-14T16:56:33Z</time>
      </trkpt>
      <trkpt lat="40.8242400" lon="-5.6863780">
        <ele>932.4</ele>
        <time>2021-10-14T16:56:37Z</time>
      </trkpt>
      <trkpt lat="40.8241990" lon="-5.6863880">
        <ele>932.4</ele>
        <time>2021-10-14T16:56:38Z</time>
      </trkpt>
      <trkpt lat="40.8239790" lon="-5.6863850">
        <ele>932.4</ele>
        <time>2021-10-14T16:56:44Z</time>
      </trkpt>
      <trkpt lat="40.8237930" lon="-5.6863480">
        <ele>933.0</ele>
        <time>2021-10-14T16:56:50Z</time>
      </trkpt>
      <trkpt lat="40.8236910" lon="-5.6863190">
        <ele>933.2</ele>
        <time>2021-10-14T16:56:54Z</time>
      </trkpt>
      <trkpt lat="40.8235750" lon="-5.6862970">
        <ele>933.8</ele>
        <time>2021-10-14T16:56:59Z</time>
      </trkpt>
      <trkpt lat="40.8235160" lon="-5.6862890">
        <ele>934.2</ele>
        <time>2021-10-14T16:57:02Z</time>
      </trkpt>
      <trkpt lat="40.8233770" lon="-5.6863000">
        <ele>935.4</ele>
        <time>2021-10-14T16:57:10Z</time>
      </trkpt>
      <trkpt lat="40.8233110" lon="-5.6863100">
        <ele>936.2</ele>
        <time>2021-10-14T16:57:14Z</time>
      </trkpt>
      <trkpt lat="40.8232950" lon="-5.6863150">
        <ele>936.4</ele>
        <time>2021-10-14T16:57:15Z</time>
      </trkpt>
      <trkpt lat="40.8232270" lon="-5.6863360">
        <ele>937.0</ele>
        <time>2021-10-14T16:57:19Z</time>
      </trkpt>
      <trkpt lat="40.8231950" lon="-5.6863470">
        <ele>937.2</ele>
        <time>2021-10-14T16:57:21Z</time>
      </trkpt>
      <trkpt lat="40.8231620" lon="-5.6863570">
        <ele>937.6</ele>
        <time>2021-10-14T16:57:23Z</time>
      </trkpt>
      <trkpt lat="40.8231330" lon="-5.6863730">
        <ele>937.8</ele>
        <time>2021-10-14T16:57:25Z</time>
      </trkpt>
      <trkpt lat="40.8231000" lon="-5.6863860">
        <ele>938.0</ele>
        <time>2021-10-14T16:57:27Z</time>
      </trkpt>
      <trkpt lat="40.8230560" lon="-5.6864050">
        <ele>938.6</ele>
        <time>2021-10-14T16:57:30Z</time>
      </trkpt>
      <trkpt lat="40.8230400" lon="-5.6864150">
        <ele>938.6</ele>
        <time>2021-10-14T16:57:31Z</time>
      </trkpt>
      <trkpt lat="40.8229180" lon="-5.6864820">
        <ele>939.8</ele>
        <time>2021-10-14T16:57:39Z</time>
      </trkpt>
      <trkpt lat="40.8228910" lon="-5.6865000">
        <ele>940.0</ele>
        <time>2021-10-14T16:57:41Z</time>
      </trkpt>
      <trkpt lat="40.8227980" lon="-5.6865780">
        <ele>940.8</ele>
        <time>2021-10-14T16:57:48Z</time>
      </trkpt>
      <trkpt lat="40.8227810" lon="-5.6865930">
        <ele>940.8</ele>
        <time>2021-10-14T16:57:49Z</time>
      </trkpt>
      <trkpt lat="40.8226980" lon="-5.6866630">
        <ele>941.6</ele>
        <time>2021-10-14T16:57:55Z</time>
      </trkpt>
      <trkpt lat="40.8226670" lon="-5.6866860">
        <ele>941.8</ele>
        <time>2021-10-14T16:57:57Z</time>
      </trkpt>
      <trkpt lat="40.8226130" lon="-5.6867370">
        <ele>942.2</ele>
        <time>2021-10-14T16:58:01Z</time>
      </trkpt>
      <trkpt lat="40.8225710" lon="-5.6867740">
        <ele>942.6</ele>
        <time>2021-10-14T16:58:04Z</time>
      </trkpt>
      <trkpt lat="40.8225400" lon="-5.6868010">
        <ele>943.0</ele>
        <time>2021-10-14T16:58:06Z</time>
      </trkpt>
      <trkpt lat="40.8224540" lon="-5.6868660">
        <ele>943.4</ele>
        <time>2021-10-14T16:58:12Z</time>
      </trkpt>
      <trkpt lat="40.8223930" lon="-5.6869090">
        <ele>944.0</ele>
        <time>2021-10-14T16:58:16Z</time>
      </trkpt>
      <trkpt lat="40.8223500" lon="-5.6869410">
        <ele>944.2</ele>
        <time>2021-10-14T16:58:19Z</time>
      </trkpt>
      <trkpt lat="40.8223200" lon="-5.6869670">
        <ele>944.4</ele>
        <time>2021-10-14T16:58:21Z</time>
      </trkpt>
      <trkpt lat="40.8222580" lon="-5.6870110">
        <ele>945.0</ele>
        <time>2021-10-14T16:58:25Z</time>
      </trkpt>
      <trkpt lat="40.8221810" lon="-5.6870590">
        <ele>945.2</ele>
        <time>2021-10-14T16:58:29Z</time>
      </trkpt>
      <trkpt lat="40.8221600" lon="-5.6870710">
        <ele>945.4</ele>
        <time>2021-10-14T16:58:30Z</time>
      </trkpt>
      <trkpt lat="40.8220990" lon="-5.6871030">
        <ele>945.6</ele>
        <time>2021-10-14T16:58:33Z</time>
      </trkpt>
      <trkpt lat="40.8220030" lon="-5.6871490">
        <ele>946.0</ele>
        <time>2021-10-14T16:58:38Z</time>
      </trkpt>
      <trkpt lat="40.8219620" lon="-5.6871690">
        <ele>946.2</ele>
        <time>2021-10-14T16:58:40Z</time>
      </trkpt>
      <trkpt lat="40.8218080" lon="-5.6872260">
        <ele>946.8</ele>
        <time>2021-10-14T16:58:47Z</time>
      </trkpt>
      <trkpt lat="40.8217600" lon="-5.6872460">
        <ele>947.0</ele>
        <time>2021-10-14T16:58:49Z</time>
      </trkpt>
      <trkpt lat="40.8217360" lon="-5.6872560">
        <ele>947.2</ele>
        <time>2021-10-14T16:58:50Z</time>
      </trkpt>
      <trkpt lat="40.8216560" lon="-5.6872820">
        <ele>947.2</ele>
        <time>2021-10-14T16:58:53Z</time>
      </trkpt>
      <trkpt lat="40.8214970" lon="-5.6873400">
        <ele>947.4</ele>
        <time>2021-10-14T16:58:59Z</time>
      </trkpt>
      <trkpt lat="40.8213860" lon="-5.6873840">
        <ele>947.6</ele>
        <time>2021-10-14T16:59:03Z</time>
      </trkpt>
      <trkpt lat="40.8212980" lon="-5.6874130">
        <ele>947.6</ele>
        <time>2021-10-14T16:59:06Z</time>
      </trkpt>
      <trkpt lat="40.8210420" lon="-5.6875230">
        <ele>948.0</ele>
        <time>2021-10-14T16:59:15Z</time>
      </trkpt>
      <trkpt lat="40.8210130" lon="-5.6875370">
        <ele>948.2</ele>
        <time>2021-10-14T16:59:16Z</time>
      </trkpt>
      <trkpt lat="40.8208640" lon="-5.6876000">
        <ele>948.4</ele>
        <time>2021-10-14T16:59:21Z</time>
      </trkpt>
      <trkpt lat="40.8207500" lon="-5.6876450">
        <ele>948.6</ele>
        <time>2021-10-14T16:59:25Z</time>
      </trkpt>
      <trkpt lat="40.8204500" lon="-5.6877540">
        <ele>948.6</ele>
        <time>2021-10-14T16:59:35Z</time>
      </trkpt>
      <trkpt lat="40.8202760" lon="-5.6878070">
        <ele>949.2</ele>
        <time>2021-10-14T16:59:41Z</time>
      </trkpt>
      <trkpt lat="40.8201970" lon="-5.6878390">
        <ele>949.2</ele>
        <time>2021-10-14T16:59:44Z</time>
      </trkpt>
      <trkpt lat="40.8199840" lon="-5.6879310">
        <ele>950.0</ele>
        <time>2021-10-14T16:59:52Z</time>
      </trkpt>
      <trkpt lat="40.8198590" lon="-5.6880060">
        <ele>950.6</ele>
        <time>2021-10-14T16:59:57Z</time>
      </trkpt>
      <trkpt lat="40.8197890" lon="-5.6880600">
        <ele>951.0</ele>
        <time>2021-10-14T17:00:00Z</time>
      </trkpt>
      <trkpt lat="40.8196910" lon="-5.6881160">
        <ele>951.2</ele>
        <time>2021-10-14T17:00:04Z</time>
      </trkpt>
      <trkpt lat="40.8195970" lon="-5.6881870">
        <ele>951.6</ele>
        <time>2021-10-14T17:00:08Z</time>
      </trkpt>
      <trkpt lat="40.8194510" lon="-5.6883130">
        <ele>952.2</ele>
        <time>2021-10-14T17:00:14Z</time>
      </trkpt>
      <trkpt lat="40.8193840" lon="-5.6883780">
        <ele>952.4</ele>
        <time>2021-10-14T17:00:17Z</time>
      </trkpt>
      <trkpt lat="40.8192310" lon="-5.6885680">
        <ele>953.2</ele>
        <time>2021-10-14T17:00:25Z</time>
      </trkpt>
      <trkpt lat="40.8191950" lon="-5.6886160">
        <ele>953.4</ele>
        <time>2021-10-14T17:00:27Z</time>
      </trkpt>
      <trkpt lat="40.8190510" lon="-5.6888300">
        <ele>954.2</ele>
        <time>2021-10-14T17:00:35Z</time>
      </trkpt>
      <trkpt lat="40.8189950" lon="-5.6889120">
        <ele>954.6</ele>
        <time>2021-10-14T17:00:38Z</time>
      </trkpt>
      <trkpt lat="40.8188610" lon="-5.6891220">
        <ele>955.4</ele>
        <time>2021-10-14T17:00:45Z</time>
      </trkpt>
      <trkpt lat="40.8187840" lon="-5.6892430">
        <ele>955.6</ele>
        <time>2021-10-14T17:00:49Z</time>
      </trkpt>
      <trkpt lat="40.8186600" lon="-5.6894420">
        <ele>955.8</ele>
        <time>2021-10-14T17:00:55Z</time>
      </trkpt>
      <trkpt lat="40.8185140" lon="-5.6896650">
        <ele>956.0</ele>
        <time>2021-10-14T17:01:02Z</time>
      </trkpt>
      <trkpt lat="40.8183970" lon="-5.6898560">
        <ele>956.0</ele>
        <time>2021-10-14T17:01:07Z</time>
      </trkpt>
      <trkpt lat="40.8183440" lon="-5.6899350">
        <ele>956.0</ele>
        <time>2021-10-14T17:01:09Z</time>
      </trkpt>
      <trkpt lat="40.8182860" lon="-5.6900180">
        <ele>956.2</ele>
        <time>2021-10-14T17:01:11Z</time>
      </trkpt>
      <trkpt lat="40.8181370" lon="-5.6902040">
        <ele>956.4</ele>
        <time>2021-10-14T17:01:16Z</time>
      </trkpt>
      <trkpt lat="40.8178740" lon="-5.6905270">
        <ele>956.6</ele>
        <time>2021-10-14T17:01:25Z</time>
      </trkpt>
      <trkpt lat="40.8178060" lon="-5.6906120">
        <ele>956.6</ele>
        <time>2021-10-14T17:01:28Z</time>
      </trkpt>
      <trkpt lat="40.8177020" lon="-5.6907400">
        <ele>956.6</ele>
        <time>2021-10-14T17:01:32Z</time>
      </trkpt>
      <trkpt lat="40.8175420" lon="-5.6909460">
        <ele>956.4</ele>
        <time>2021-10-14T17:01:38Z</time>
      </trkpt>
      <trkpt lat="40.8174020" lon="-5.6911180">
        <ele>956.2</ele>
        <time>2021-10-14T17:01:43Z</time>
      </trkpt>
      <trkpt lat="40.8172240" lon="-5.6913300">
        <ele>956.4</ele>
        <time>2021-10-14T17:01:50Z</time>
      </trkpt>
      <trkpt lat="40.8169540" lon="-5.6916350">
        <ele>956.2</ele>
        <time>2021-10-14T17:01:59Z</time>
      </trkpt>
      <trkpt lat="40.8168550" lon="-5.6917410">
        <ele>956.2</ele>
        <time>2021-10-14T17:02:02Z</time>
      </trkpt>
      <trkpt lat="40.8167610" lon="-5.6918590">
        <ele>956.0</ele>
        <time>2021-10-14T17:02:05Z</time>
      </trkpt>
      <trkpt lat="40.8166910" lon="-5.6919290">
        <ele>956.0</ele>
        <time>2021-10-14T17:02:07Z</time>
      </trkpt>
      <trkpt lat="40.8166660" lon="-5.6919610">
        <ele>956.0</ele>
        <time>2021-10-14T17:02:08Z</time>
      </trkpt>
      <trkpt lat="40.8164430" lon="-5.6922240">
        <ele>955.4</ele>
        <time>2021-10-14T17:02:14Z</time>
      </trkpt>
      <trkpt lat="40.8163540" lon="-5.6923100">
        <ele>955.2</ele>
        <time>2021-10-14T17:02:16Z</time>
      </trkpt>
      <trkpt lat="40.8161090" lon="-5.6924930">
        <ele>954.2</ele>
        <time>2021-10-14T17:02:21Z</time>
      </trkpt>
      <trkpt lat="40.8160580" lon="-5.6925250">
        <ele>954.0</ele>
        <time>2021-10-14T17:02:22Z</time>
      </trkpt>
      <trkpt lat="40.8158570" lon="-5.6926340">
        <ele>953.6</ele>
        <time>2021-10-14T17:02:26Z</time>
      </trkpt>
      <trkpt lat="40.8157430" lon="-5.6926990">
        <ele>953.0</ele>
        <time>2021-10-14T17:02:28Z</time>
      </trkpt>
      <trkpt lat="40.8155860" lon="-5.6927840">
        <ele>952.6</ele>
        <time>2021-10-14T17:02:31Z</time>
      </trkpt>
      <trkpt lat="40.8152690" lon="-5.6929680">
        <ele>951.8</ele>
        <time>2021-10-14T17:02:37Z</time>
      </trkpt>
      <trkpt lat="40.8152160" lon="-5.6930040">
        <ele>951.8</ele>
        <time>2021-10-14T17:02:38Z</time>
      </trkpt>
      <trkpt lat="40.8150480" lon="-5.6931110">
        <ele>950.6</ele>
        <time>2021-10-14T17:02:41Z</time>
      </trkpt>
      <trkpt lat="40.8147600" lon="-5.6932870">
        <ele>949.4</ele>
        <time>2021-10-14T17:02:46Z</time>
      </trkpt>
      <trkpt lat="40.8147010" lon="-5.6933210">
        <ele>949.2</ele>
        <time>2021-10-14T17:02:47Z</time>
      </trkpt>
      <trkpt lat="40.8145160" lon="-5.6934270">
        <ele>948.0</ele>
        <time>2021-10-14T17:02:50Z</time>
      </trkpt>
      <trkpt lat="40.8142700" lon="-5.6935690">
        <ele>946.6</ele>
        <time>2021-10-14T17:02:54Z</time>
      </trkpt>
      <trkpt lat="40.8140910" lon="-5.6936670">
        <ele>945.4</ele>
        <time>2021-10-14T17:02:57Z</time>
      </trkpt>
      <trkpt lat="40.8138060" lon="-5.6938200">
        <ele>944.2</ele>
        <time>2021-10-14T17:03:02Z</time>
      </trkpt>
      <trkpt lat="40.8136470" lon="-5.6939070">
        <ele>944.0</ele>
        <time>2021-10-14T17:03:05Z</time>
      </trkpt>
      <trkpt lat="40.8134910" lon="-5.6939880">
        <ele>943.2</ele>
        <time>2021-10-14T17:03:08Z</time>
      </trkpt>
      <trkpt lat="40.8133410" lon="-5.6940850">
        <ele>942.4</ele>
        <time>2021-10-14T17:03:11Z</time>
      </trkpt>
      <trkpt lat="40.8132910" lon="-5.6941200">
        <ele>942.2</ele>
        <time>2021-10-14T17:03:12Z</time>
      </trkpt>
      <trkpt lat="40.8131940" lon="-5.6941940">
        <ele>942.0</ele>
        <time>2021-10-14T17:03:14Z</time>
      </trkpt>
      <trkpt lat="40.8130060" lon="-5.6943590">
        <ele>940.8</ele>
        <time>2021-10-14T17:03:18Z</time>
      </trkpt>
      <trkpt lat="40.8129580" lon="-5.6943980">
        <ele>940.6</ele>
        <time>2021-10-14T17:03:19Z</time>
      </trkpt>
      <trkpt lat="40.8128730" lon="-5.6944850">
        <ele>940.4</ele>
        <time>2021-10-14T17:03:21Z</time>
      </trkpt>
      <trkpt lat="40.8127360" lon="-5.6946770">
        <ele>939.8</ele>
        <time>2021-10-14T17:03:25Z</time>
      </trkpt>
      <trkpt lat="40.8126340" lon="-5.6948000">
        <ele>939.6</ele>
        <time>2021-10-14T17:03:28Z</time>
      </trkpt>
      <trkpt lat="40.8125560" lon="-5.6948690">
        <ele>939.6</ele>
        <time>2021-10-14T17:03:30Z</time>
      </trkpt>
      <trkpt lat="40.8121880" lon="-5.6951090">
        <ele>939.8</ele>
        <time>2021-10-14T17:03:39Z</time>
      </trkpt>
      <trkpt lat="40.8120760" lon="-5.6951840">
        <ele>940.0</ele>
        <time>2021-10-14T17:03:42Z</time>
      </trkpt>
      <trkpt lat="40.8120140" lon="-5.6952480">
        <ele>940.2</ele>
        <time>2021-10-14T17:03:44Z</time>
      </trkpt>
      <trkpt lat="40.8119540" lon="-5.6953080">
        <ele>940.4</ele>
        <time>2021-10-14T17:03:46Z</time>
      </trkpt>
      <trkpt lat="40.8118250" lon="-5.6953930">
        <ele>940.4</ele>
        <time>2021-10-14T17:03:50Z</time>
      </trkpt>
      <trkpt lat="40.8116480" lon="-5.6955080">
        <ele>940.4</ele>
        <time>2021-10-14T17:03:55Z</time>
      </trkpt>
      <trkpt lat="40.8115900" lon="-5.6955560">
        <ele>940.6</ele>
        <time>2021-10-14T17:03:57Z</time>
      </trkpt>
      <trkpt lat="40.8115280" lon="-5.6955930">
        <ele>940.6</ele>
        <time>2021-10-14T17:03:59Z</time>
      </trkpt>
      <trkpt lat="40.8113690" lon="-5.6956990">
        <ele>941.0</ele>
        <time>2021-10-14T17:04:04Z</time>
      </trkpt>
      <trkpt lat="40.8112100" lon="-5.6958140">
        <ele>941.2</ele>
        <time>2021-10-14T17:04:09Z</time>
      </trkpt>
      <trkpt lat="40.8110730" lon="-5.6959250">
        <ele>941.4</ele>
        <time>2021-10-14T17:04:13Z</time>
      </trkpt>
      <trkpt lat="40.8108290" lon="-5.6961690">
        <ele>941.4</ele>
        <time>2021-10-14T17:04:21Z</time>
      </trkpt>
      <trkpt lat="40.8106120" lon="-5.6963510">
        <ele>941.4</ele>
        <time>2021-10-14T17:04:28Z</time>
      </trkpt>
      <trkpt lat="40.8104410" lon="-5.6964880">
        <ele>941.6</ele>
        <time>2021-10-14T17:04:34Z</time>
      </trkpt>
      <trkpt lat="40.8104120" lon="-5.6965100">
        <ele>941.6</ele>
        <time>2021-10-14T17:04:35Z</time>
      </trkpt>
      <trkpt lat="40.8102520" lon="-5.6966470">
        <ele>942.2</ele>
        <time>2021-10-14T17:04:41Z</time>
      </trkpt>
      <trkpt lat="40.8100900" lon="-5.6967800">
        <ele>942.4</ele>
        <time>2021-10-14T17:04:47Z</time>
      </trkpt>
      <trkpt lat="40.8100090" lon="-5.6968480">
        <ele>942.8</ele>
        <time>2021-10-14T17:04:50Z</time>
      </trkpt>
      <trkpt lat="40.8099070" lon="-5.6969290">
        <ele>943.0</ele>
        <time>2021-10-14T17:04:54Z</time>
      </trkpt>
      <trkpt lat="40.8097460" lon="-5.6970550">
        <ele>943.8</ele>
        <time>2021-10-14T17:05:01Z</time>
      </trkpt>
      <trkpt lat="40.8096560" lon="-5.6971380">
        <ele>944.2</ele>
        <time>2021-10-14T17:05:05Z</time>
      </trkpt>
      <trkpt lat="40.8096130" lon="-5.6971800">
        <ele>944.4</ele>
        <time>2021-10-14T17:05:07Z</time>
      </trkpt>
      <trkpt lat="40.8095520" lon="-5.6972540">
        <ele>944.6</ele>
        <time>2021-10-14T17:05:10Z</time>
      </trkpt>
      <trkpt lat="40.8094360" lon="-5.6973920">
        <ele>944.8</ele>
        <time>2021-10-14T17:05:16Z</time>
      </trkpt>
      <trkpt lat="40.8094090" lon="-5.6974220">
        <ele>944.8</ele>
        <time>2021-10-14T17:05:18Z</time>
      </trkpt>
      <trkpt lat="40.8094000" lon="-5.6974340">
        <ele>945.0</ele>
        <time>2021-10-14T17:05:19Z</time>
      </trkpt>
      <trkpt lat="40.8093920" lon="-5.6974510">
        <ele>945.2</ele>
        <time>2021-10-14T17:05:23Z</time>
      </trkpt>
      <trkpt lat="40.8093350" lon="-5.6974650">
        <ele>945.0</ele>
        <time>2021-10-14T17:05:55Z</time>
      </trkpt>
      <trkpt lat="40.8093120" lon="-5.6974740">
        <ele>945.0</ele>
        <time>2021-10-14T17:05:56Z</time>
      </trkpt>
      <trkpt lat="40.8092900" lon="-5.6974880">
        <ele>945.0</ele>
        <time>2021-10-14T17:05:57Z</time>
      </trkpt>
      <trkpt lat="40.8091820" lon="-5.6975460">
        <ele>945.2</ele>
        <time>2021-10-14T17:06:02Z</time>
      </trkpt>
      <trkpt lat="40.8091360" lon="-5.6975740">
        <ele>945.4</ele>
        <time>2021-10-14T17:06:04Z</time>
      </trkpt>
      <trkpt lat="40.8089750" lon="-5.6976890">
        <ele>945.6</ele>
        <time>2021-10-14T17:06:11Z</time>
      </trkpt>
      <trkpt lat="40.8088500" lon="-5.6977960">
        <ele>946.0</ele>
        <time>2021-10-14T17:06:16Z</time>
      </trkpt>
      <trkpt lat="40.8088250" lon="-5.6978150">
        <ele>946.0</ele>
        <time>2021-10-14T17:06:17Z</time>
      </trkpt>
      <trkpt lat="40.8087510" lon="-5.6978910">
        <ele>946.0</ele>
        <time>2021-10-14T17:06:20Z</time>
      </trkpt>
      <trkpt lat="40.8086450" lon="-5.6980140">
        <ele>946.0</ele>
        <time>2021-10-14T17:06:24Z</time>
      </trkpt>
      <trkpt lat="40.8085050" lon="-5.6981200">
        <ele>945.6</ele>
        <time>2021-10-14T17:06:28Z</time>
      </trkpt>
      <trkpt lat="40.8084130" lon="-5.6981690">
        <ele>945.2</ele>
        <time>2021-10-14T17:06:30Z</time>
      </trkpt>
      <trkpt lat="40.8083050" lon="-5.6982250">
        <ele>944.8</ele>
        <time>2021-10-14T17:06:32Z</time>
      </trkpt>
      <trkpt lat="40.8082430" lon="-5.6982330">
        <ele>944.6</ele>
        <time>2021-10-14T17:06:33Z</time>
      </trkpt>
      <trkpt lat="40.8081770" lon="-5.6982230">
        <ele>944.4</ele>
        <time>2021-10-14T17:06:34Z</time>
      </trkpt>
      <trkpt lat="40.8081120" lon="-5.6982100">
        <ele>943.6</ele>
        <time>2021-10-14T17:06:35Z</time>
      </trkpt>
      <trkpt lat="40.8080440" lon="-5.6982050">
        <ele>943.2</ele>
        <time>2021-10-14T17:06:36Z</time>
      </trkpt>
      <trkpt lat="40.8079700" lon="-5.6982080">
        <ele>942.8</ele>
        <time>2021-10-14T17:06:37Z</time>
      </trkpt>
      <trkpt lat="40.8078920" lon="-5.6982190">
        <ele>942.4</ele>
        <time>2021-10-14T17:06:38Z</time>
      </trkpt>
      <trkpt lat="40.8077480" lon="-5.6982440">
        <ele>940.8</ele>
        <time>2021-10-14T17:06:40Z</time>
      </trkpt>
      <trkpt lat="40.8076040" lon="-5.6982830">
        <ele>939.8</ele>
        <time>2021-10-14T17:06:42Z</time>
      </trkpt>
      <trkpt lat="40.8075380" lon="-5.6983090">
        <ele>939.6</ele>
        <time>2021-10-14T17:06:43Z</time>
      </trkpt>
      <trkpt lat="40.8073530" lon="-5.6983670">
        <ele>938.2</ele>
        <time>2021-10-14T17:06:46Z</time>
      </trkpt>
      <trkpt lat="40.8072870" lon="-5.6983930">
        <ele>938.2</ele>
        <time>2021-10-14T17:06:47Z</time>
      </trkpt>
      <trkpt lat="40.8071270" lon="-5.6984580">
        <ele>938.2</ele>
        <time>2021-10-14T17:06:51Z</time>
      </trkpt>
      <trkpt lat="40.8069850" lon="-5.6984900">
        <ele>938.2</ele>
        <time>2021-10-14T17:06:56Z</time>
      </trkpt>
      <trkpt lat="40.8069630" lon="-5.6985730">
        <ele>938.4</ele>
        <time>2021-10-14T17:06:59Z</time>
      </trkpt>
      <trkpt lat="40.8069650" lon="-5.6985990">
        <ele>938.4</ele>
        <time>2021-10-14T17:07:00Z</time>
      </trkpt>
      <trkpt lat="40.8069540" lon="-5.6988220">
        <ele>938.8</ele>
        <time>2021-10-14T17:07:06Z</time>
      </trkpt>
      <trkpt lat="40.8069020" lon="-5.6991110">
        <ele>938.8</ele>
        <time>2021-10-14T17:07:13Z</time>
      </trkpt>
      <trkpt lat="40.8067780" lon="-5.6992210">
        <ele>939.4</ele>
        <time>2021-10-14T17:07:18Z</time>
      </trkpt>
      <trkpt lat="40.8067040" lon="-5.6992860">
        <ele>939.4</ele>
        <time>2021-10-14T17:07:21Z</time>
      </trkpt>
      <trkpt lat="40.8066540" lon="-5.6993300">
        <ele>939.4</ele>
        <time>2021-10-14T17:07:23Z</time>
      </trkpt>
      <trkpt lat="40.8064670" lon="-5.6994500">
        <ele>940.0</ele>
        <time>2021-10-14T17:07:30Z</time>
      </trkpt>
      <trkpt lat="40.8063190" lon="-5.6995180">
        <ele>940.4</ele>
        <time>2021-10-14T17:07:35Z</time>
      </trkpt>
      <trkpt lat="40.8062220" lon="-5.6995890">
        <ele>940.4</ele>
        <time>2021-10-14T17:07:39Z</time>
      </trkpt>
      <trkpt lat="40.8062020" lon="-5.6996460">
        <ele>940.6</ele>
        <time>2021-10-14T17:07:41Z</time>
      </trkpt>
      <trkpt lat="40.8061990" lon="-5.6997120">
        <ele>940.8</ele>
        <time>2021-10-14T17:07:43Z</time>
      </trkpt>
      <trkpt lat="40.8061460" lon="-5.6998150">
        <ele>941.0</ele>
        <time>2021-10-14T17:07:47Z</time>
      </trkpt>
      <trkpt lat="40.8060820" lon="-5.6998810">
        <ele>941.4</ele>
        <time>2021-10-14T17:07:51Z</time>
      </trkpt>
      <trkpt lat="40.8060250" lon="-5.6999380">
        <ele>941.8</ele>
        <time>2021-10-14T17:07:54Z</time>
      </trkpt>
      <trkpt lat="40.8059240" lon="-5.7000260">
        <ele>942.4</ele>
        <time>2021-10-14T17:07:59Z</time>
      </trkpt>
      <trkpt lat="40.8058770" lon="-5.7000580">
        <ele>942.4</ele>
        <time>2021-10-14T17:08:01Z</time>
      </trkpt>
      <trkpt lat="40.8058500" lon="-5.7000730">
        <ele>942.4</ele>
        <time>2021-10-14T17:08:02Z</time>
      </trkpt>
      <trkpt lat="40.8057430" lon="-5.7001410">
        <ele>942.6</ele>
        <time>2021-10-14T17:08:06Z</time>
      </trkpt>
      <trkpt lat="40.8056300" lon="-5.7001960">
        <ele>942.8</ele>
        <time>2021-10-14T17:08:10Z</time>
      </trkpt>
      <trkpt lat="40.8055770" lon="-5.7002270">
        <ele>943.0</ele>
        <time>2021-10-14T17:08:12Z</time>
      </trkpt>
      <trkpt lat="40.8054150" lon="-5.7002900">
        <ele>943.2</ele>
        <time>2021-10-14T17:08:18Z</time>
      </trkpt>
      <trkpt lat="40.8053600" lon="-5.7003090">
        <ele>943.4</ele>
        <time>2021-10-14T17:08:20Z</time>
      </trkpt>
      <trkpt lat="40.8052300" lon="-5.7004000">
        <ele>944.0</ele>
        <time>2021-10-14T17:08:25Z</time>
      </trkpt>
      <trkpt lat="40.8052040" lon="-5.7004200">
        <ele>944.2</ele>
        <time>2021-10-14T17:08:26Z</time>
      </trkpt>
      <trkpt lat="40.8051320" lon="-5.7004700">
        <ele>944.4</ele>
        <time>2021-10-14T17:08:29Z</time>
      </trkpt>
      <trkpt lat="40.8051100" lon="-5.7004840">
        <ele>944.4</ele>
        <time>2021-10-14T17:08:30Z</time>
      </trkpt>
      <trkpt lat="40.8050520" lon="-5.7005140">
        <ele>944.6</ele>
        <time>2021-10-14T17:08:33Z</time>
      </trkpt>
      <trkpt lat="40.8050340" lon="-5.7005250">
        <ele>944.6</ele>
        <time>2021-10-14T17:08:34Z</time>
      </trkpt>
      <trkpt lat="40.8049890" lon="-5.7005710">
        <ele>944.8</ele>
        <time>2021-10-14T17:08:37Z</time>
      </trkpt>
      <trkpt lat="40.8049300" lon="-5.7006030">
        <ele>944.8</ele>
        <time>2021-10-14T17:08:40Z</time>
      </trkpt>
      <trkpt lat="40.8048690" lon="-5.7006840">
        <ele>945.0</ele>
        <time>2021-10-14T17:08:44Z</time>
      </trkpt>
      <trkpt lat="40.8048610" lon="-5.7007150">
        <ele>945.0</ele>
        <time>2021-10-14T17:08:45Z</time>
      </trkpt>
      <trkpt lat="40.8048630" lon="-5.7007520">
        <ele>945.0</ele>
        <time>2021-10-14T17:08:46Z</time>
      </trkpt>
      <trkpt lat="40.8049110" lon="-5.7009060">
        <ele>944.8</ele>
        <time>2021-10-14T17:08:50Z</time>
      </trkpt>
      <trkpt lat="40.8049250" lon="-5.7009480">
        <ele>944.8</ele>
        <time>2021-10-14T17:08:51Z</time>
      </trkpt>
      <trkpt lat="40.8050450" lon="-5.7012720">
        <ele>944.0</ele>
        <time>2021-10-14T17:08:58Z</time>
      </trkpt>
      <trkpt lat="40.8051490" lon="-5.7015460">
        <ele>943.6</ele>
        <time>2021-10-14T17:09:04Z</time>
      </trkpt>
      <trkpt lat="40.8051930" lon="-5.7016310">
        <ele>943.6</ele>
        <time>2021-10-14T17:09:06Z</time>
      </trkpt>
      <trkpt lat="40.8053310" lon="-5.7017410">
        <ele>943.6</ele>
        <time>2021-10-14T17:09:10Z</time>
      </trkpt>
      <trkpt lat="40.8054730" lon="-5.7018190">
        <ele>943.4</ele>
        <time>2021-10-14T17:09:14Z</time>
      </trkpt>
      <trkpt lat="40.8054960" lon="-5.7018620">
        <ele>943.4</ele>
        <time>2021-10-14T17:09:15Z</time>
      </trkpt>
      <trkpt lat="40.8055120" lon="-5.7019050">
        <ele>943.2</ele>
        <time>2021-10-14T17:09:16Z</time>
      </trkpt>
      <trkpt lat="40.8055340" lon="-5.7020190">
        <ele>943.2</ele>
        <time>2021-10-14T17:09:19Z</time>
      </trkpt>
      <trkpt lat="40.8054980" lon="-5.7022390">
        <ele>944.4</ele>
        <time>2021-10-14T17:09:27Z</time>
      </trkpt>
      <trkpt lat="40.8053750" lon="-5.7023610">
        <ele>945.4</ele>
        <time>2021-10-14T17:09:34Z</time>
      </trkpt>
      <trkpt lat="40.8051510" lon="-5.7024030">
        <ele>946.4</ele>
        <time>2021-10-14T17:09:43Z</time>
      </trkpt>
      <trkpt lat="40.8051240" lon="-5.7024090">
        <ele>946.6</ele>
        <time>2021-10-14T17:09:44Z</time>
      </trkpt>
      <trkpt lat="40.8049400" lon="-5.7024540">
        <ele>947.0</ele>
        <time>2021-10-14T17:09:51Z</time>
      </trkpt>
      <trkpt lat="40.8047720" lon="-5.7025010">
        <ele>947.4</ele>
        <time>2021-10-14T17:09:57Z</time>
      </trkpt>
      <trkpt lat="40.8047120" lon="-5.7025180">
        <ele>947.6</ele>
        <time>2021-10-14T17:09:59Z</time>
      </trkpt>
      <trkpt lat="40.8045270" lon="-5.7025900">
        <ele>947.8</ele>
        <time>2021-10-14T17:10:05Z</time>
      </trkpt>
      <trkpt lat="40.8042530" lon="-5.7027060">
        <ele>948.0</ele>
        <time>2021-10-14T17:10:14Z</time>
      </trkpt>
      <trkpt lat="40.8040050" lon="-5.7027770">
        <ele>947.8</ele>
        <time>2021-10-14T17:10:21Z</time>
      </trkpt>
      <trkpt lat="40.8037790" lon="-5.7028290">
        <ele>948.2</ele>
        <time>2021-10-14T17:10:28Z</time>
      </trkpt>
      <trkpt lat="40.8036040" lon="-5.7028890">
        <ele>948.6</ele>
        <time>2021-10-14T17:10:34Z</time>
      </trkpt>
      <trkpt lat="40.8035450" lon="-5.7029130">
        <ele>948.8</ele>
        <time>2021-10-14T17:10:36Z</time>
      </trkpt>
      <trkpt lat="40.8034860" lon="-5.7029520">
        <ele>949.0</ele>
        <time>2021-10-14T17:10:38Z</time>
      </trkpt>
      <trkpt lat="40.8034610" lon="-5.7029800">
        <ele>949.2</ele>
        <time>2021-10-14T17:10:39Z</time>
      </trkpt>
      <trkpt lat="40.8033880" lon="-5.7030610">
        <ele>949.4</ele>
        <time>2021-10-14T17:10:42Z</time>
      </trkpt>
      <trkpt lat="40.8033170" lon="-5.7031380">
        <ele>949.8</ele>
        <time>2021-10-14T17:10:45Z</time>
      </trkpt>
      <trkpt lat="40.8031140" lon="-5.7033140">
        <ele>950.2</ele>
        <time>2021-10-14T17:10:53Z</time>
      </trkpt>
      <trkpt lat="40.8029390" lon="-5.7034320">
        <ele>950.6</ele>
        <time>2021-10-14T17:11:00Z</time>
      </trkpt>
      <trkpt lat="40.8028900" lon="-5.7034720">
        <ele>950.8</ele>
        <time>2021-10-14T17:11:02Z</time>
      </trkpt>
      <trkpt lat="40.8028410" lon="-5.7035090">
        <ele>951.0</ele>
        <time>2021-10-14T17:11:04Z</time>
      </trkpt>
      <trkpt lat="40.8028170" lon="-5.7035280">
        <ele>951.0</ele>
        <time>2021-10-14T17:11:05Z</time>
      </trkpt>
      <trkpt lat="40.8027680" lon="-5.7035640">
        <ele>951.2</ele>
        <time>2021-10-14T17:11:07Z</time>
      </trkpt>
      <trkpt lat="40.8027420" lon="-5.7035810">
        <ele>951.4</ele>
        <time>2021-10-14T17:11:08Z</time>
      </trkpt>
      <trkpt lat="40.8026700" lon="-5.7036370">
        <ele>951.6</ele>
        <time>2021-10-14T17:11:11Z</time>
      </trkpt>
      <trkpt lat="40.8025700" lon="-5.7037090">
        <ele>951.8</ele>
        <time>2021-10-14T17:11:15Z</time>
      </trkpt>
      <trkpt lat="40.8024710" lon="-5.7037850">
        <ele>952.0</ele>
        <time>2021-10-14T17:11:19Z</time>
      </trkpt>
      <trkpt lat="40.8022180" lon="-5.7039700">
        <ele>952.4</ele>
        <time>2021-10-14T17:11:29Z</time>
      </trkpt>
      <trkpt lat="40.8020920" lon="-5.7040980">
        <ele>952.4</ele>
        <time>2021-10-14T17:11:35Z</time>
      </trkpt>
      <trkpt lat="40.8020400" lon="-5.7041700">
        <ele>952.8</ele>
        <time>2021-10-14T17:11:38Z</time>
      </trkpt>
      <trkpt lat="40.8019730" lon="-5.7042610">
        <ele>953.2</ele>
        <time>2021-10-14T17:11:42Z</time>
      </trkpt>
      <trkpt lat="40.8019050" lon="-5.7043960">
        <ele>953.8</ele>
        <time>2021-10-14T17:11:47Z</time>
      </trkpt>
      <trkpt lat="40.8018620" lon="-5.7045040">
        <ele>954.2</ele>
        <time>2021-10-14T17:11:51Z</time>
      </trkpt>
      <trkpt lat="40.8018170" lon="-5.7046080">
        <ele>954.8</ele>
        <time>2021-10-14T17:11:55Z</time>
      </trkpt>
      <trkpt lat="40.8017240" lon="-5.7047810">
        <ele>955.4</ele>
        <time>2021-10-14T17:12:02Z</time>
      </trkpt>
      <trkpt lat="40.8016370" lon="-5.7048870">
        <ele>955.8</ele>
        <time>2021-10-14T17:12:07Z</time>
      </trkpt>
      <trkpt lat="40.8016240" lon="-5.7049120">
        <ele>956.0</ele>
        <time>2021-10-14T17:12:08Z</time>
      </trkpt>
      <trkpt lat="40.8015610" lon="-5.7050350">
        <ele>956.4</ele>
        <time>2021-10-14T17:12:13Z</time>
      </trkpt>
      <trkpt lat="40.8014580" lon="-5.7052430">
        <ele>956.8</ele>
        <time>2021-10-14T17:12:21Z</time>
      </trkpt>
      <trkpt lat="40.8014450" lon="-5.7052670">
        <ele>957.0</ele>
        <time>2021-10-14T17:12:22Z</time>
      </trkpt>
      <trkpt lat="40.8013200" lon="-5.7054960">
        <ele>957.4</ele>
        <time>2021-10-14T17:12:31Z</time>
      </trkpt>
      <trkpt lat="40.8012240" lon="-5.7056920">
        <ele>957.8</ele>
        <time>2021-10-14T17:12:38Z</time>
      </trkpt>
      <trkpt lat="40.8011590" lon="-5.7058040">
        <ele>958.0</ele>
        <time>2021-10-14T17:12:42Z</time>
      </trkpt>
      <trkpt lat="40.8011310" lon="-5.7058720">
        <ele>958.2</ele>
        <time>2021-10-14T17:12:44Z</time>
      </trkpt>
      <trkpt lat="40.8010230" lon="-5.7061020">
        <ele>958.6</ele>
        <time>2021-10-14T17:12:51Z</time>
      </trkpt>
      <trkpt lat="40.8010070" lon="-5.7061330">
        <ele>958.8</ele>
        <time>2021-10-14T17:12:52Z</time>
      </trkpt>
      <trkpt lat="40.8009460" lon="-5.7062610">
        <ele>959.0</ele>
        <time>2021-10-14T17:12:56Z</time>
      </trkpt>
      <trkpt lat="40.8008920" lon="-5.7064170">
        <ele>959.2</ele>
        <time>2021-10-14T17:13:00Z</time>
      </trkpt>
      <trkpt lat="40.8008030" lon="-5.7066510">
        <ele>959.2</ele>
        <time>2021-10-14T17:13:06Z</time>
      </trkpt>
      <trkpt lat="40.8007450" lon="-5.7067860">
        <ele>959.2</ele>
        <time>2021-10-14T17:13:09Z</time>
      </trkpt>
      <trkpt lat="40.8006430" lon="-5.7071140">
        <ele>959.0</ele>
        <time>2021-10-14T17:13:14Z</time>
      </trkpt>
      <trkpt lat="40.8005980" lon="-5.7072440">
        <ele>958.8</ele>
        <time>2021-10-14T17:13:16Z</time>
      </trkpt>
      <trkpt lat="40.8005400" lon="-5.7074080">
        <ele>958.4</ele>
        <time>2021-10-14T17:13:18Z</time>
      </trkpt>
      <trkpt lat="40.8004870" lon="-5.7075560">
        <ele>958.2</ele>
        <time>2021-10-14T17:13:20Z</time>
      </trkpt>
      <trkpt lat="40.8004580" lon="-5.7076270">
        <ele>957.4</ele>
        <time>2021-10-14T17:13:21Z</time>
      </trkpt>
      <trkpt lat="40.8002960" lon="-5.7080990">
        <ele>956.4</ele>
        <time>2021-10-14T17:13:27Z</time>
      </trkpt>
      <trkpt lat="40.8002710" lon="-5.7081780">
        <ele>956.4</ele>
        <time>2021-10-14T17:13:28Z</time>
      </trkpt>
      <trkpt lat="40.8002440" lon="-5.7082560">
        <ele>956.2</ele>
        <time>2021-10-14T17:13:29Z</time>
      </trkpt>
      <trkpt lat="40.8001180" lon="-5.7086170">
        <ele>956.2</ele>
        <time>2021-10-14T17:13:34Z</time>
      </trkpt>
      <trkpt lat="40.7999830" lon="-5.7089920">
        <ele>956.8</ele>
        <time>2021-10-14T17:13:40Z</time>
      </trkpt>
      <trkpt lat="40.7999210" lon="-5.7091800">
        <ele>957.4</ele>
        <time>2021-10-14T17:13:44Z</time>
      </trkpt>
      <trkpt lat="40.7999080" lon="-5.7092240">
        <ele>957.6</ele>
        <time>2021-10-14T17:13:45Z</time>
      </trkpt>
      <trkpt lat="40.7998620" lon="-5.7093740">
        <ele>958.6</ele>
        <time>2021-10-14T17:13:49Z</time>
      </trkpt>
      <trkpt lat="40.7998240" lon="-5.7094820">
        <ele>959.2</ele>
        <time>2021-10-14T17:13:52Z</time>
      </trkpt>
      <trkpt lat="40.7998030" lon="-5.7095490">
        <ele>959.8</ele>
        <time>2021-10-14T17:13:54Z</time>
      </trkpt>
      <trkpt lat="40.7997720" lon="-5.7096470">
        <ele>960.2</ele>
        <time>2021-10-14T17:13:57Z</time>
      </trkpt>
      <trkpt lat="40.7997450" lon="-5.7097080">
        <ele>960.4</ele>
        <time>2021-10-14T17:13:59Z</time>
      </trkpt>
      <trkpt lat="40.7997130" lon="-5.7098140">
        <ele>960.8</ele>
        <time>2021-10-14T17:14:02Z</time>
      </trkpt>
      <trkpt lat="40.7996860" lon="-5.7099150">
        <ele>961.4</ele>
        <time>2021-10-14T17:14:05Z</time>
      </trkpt>
      <trkpt lat="40.7996510" lon="-5.7100290">
        <ele>961.8</ele>
        <time>2021-10-14T17:14:09Z</time>
      </trkpt>
      <trkpt lat="40.7996290" lon="-5.7101130">
        <ele>962.4</ele>
        <time>2021-10-14T17:14:12Z</time>
      </trkpt>
      <trkpt lat="40.7996130" lon="-5.7101720">
        <ele>962.6</ele>
        <time>2021-10-14T17:14:14Z</time>
      </trkpt>
      <trkpt lat="40.7995890" lon="-5.7102630">
        <ele>962.8</ele>
        <time>2021-10-14T17:14:17Z</time>
      </trkpt>
      <trkpt lat="40.7995480" lon="-5.7104200">
        <ele>963.0</ele>
        <time>2021-10-14T17:14:22Z</time>
      </trkpt>
      <trkpt lat="40.7995280" lon="-5.7104840">
        <ele>963.0</ele>
        <time>2021-10-14T17:14:24Z</time>
      </trkpt>
      <trkpt lat="40.7995160" lon="-5.7105140">
        <ele>963.2</ele>
        <time>2021-10-14T17:14:25Z</time>
      </trkpt>
      <trkpt lat="40.7994870" lon="-5.7105810">
        <ele>963.2</ele>
        <time>2021-10-14T17:14:27Z</time>
      </trkpt>
      <trkpt lat="40.7994640" lon="-5.7106570">
        <ele>963.4</ele>
        <time>2021-10-14T17:14:29Z</time>
      </trkpt>
      <trkpt lat="40.7994290" lon="-5.7107860">
        <ele>963.4</ele>
        <time>2021-10-14T17:14:32Z</time>
      </trkpt>
      <trkpt lat="40.7994050" lon="-5.7108740">
        <ele>963.4</ele>
        <time>2021-10-14T17:14:34Z</time>
      </trkpt>
      <trkpt lat="40.7993810" lon="-5.7109610">
        <ele>963.4</ele>
        <time>2021-10-14T17:14:36Z</time>
      </trkpt>
      <trkpt lat="40.7993640" lon="-5.7110490">
        <ele>963.4</ele>
        <time>2021-10-14T17:14:38Z</time>
      </trkpt>
      <trkpt lat="40.7993140" lon="-5.7112830">
        <ele>963.2</ele>
        <time>2021-10-14T17:14:42Z</time>
      </trkpt>
      <trkpt lat="40.7992810" lon="-5.7114560">
        <ele>962.8</ele>
        <time>2021-10-14T17:14:45Z</time>
      </trkpt>
      <trkpt lat="40.7992710" lon="-5.7115160">
        <ele>962.6</ele>
        <time>2021-10-14T17:14:46Z</time>
      </trkpt>
      <trkpt lat="40.7992480" lon="-5.7116390">
        <ele>962.6</ele>
        <time>2021-10-14T17:14:48Z</time>
      </trkpt>
      <trkpt lat="40.7992200" lon="-5.7117590">
        <ele>962.4</ele>
        <time>2021-10-14T17:14:50Z</time>
      </trkpt>
      <trkpt lat="40.7992050" lon="-5.7118200">
        <ele>962.4</ele>
        <time>2021-10-14T17:14:51Z</time>
      </trkpt>
      <trkpt lat="40.7991970" lon="-5.7118800">
        <ele>962.4</ele>
        <time>2021-10-14T17:14:52Z</time>
      </trkpt>
      <trkpt lat="40.7991650" lon="-5.7121080">
        <ele>962.0</ele>
        <time>2021-10-14T17:14:56Z</time>
      </trkpt>
      <trkpt lat="40.7991490" lon="-5.7121660">
        <ele>961.8</ele>
        <time>2021-10-14T17:14:57Z</time>
      </trkpt>
      <trkpt lat="40.7991000" lon="-5.7123320">
        <ele>961.4</ele>
        <time>2021-10-14T17:15:00Z</time>
      </trkpt>
      <trkpt lat="40.7990490" lon="-5.7125560">
        <ele>961.2</ele>
        <time>2021-10-14T17:15:04Z</time>
      </trkpt>
      <trkpt lat="40.7989030" lon="-5.7128500">
        <ele>961.6</ele>
        <time>2021-10-14T17:15:10Z</time>
      </trkpt>
      <trkpt lat="40.7988710" lon="-5.7128930">
        <ele>961.8</ele>
        <time>2021-10-14T17:15:11Z</time>
      </trkpt>
      <trkpt lat="40.7987530" lon="-5.7130760">
        <ele>961.8</ele>
        <time>2021-10-14T17:15:15Z</time>
      </trkpt>
      <trkpt lat="40.7986770" lon="-5.7132210">
        <ele>961.8</ele>
        <time>2021-10-14T17:15:18Z</time>
      </trkpt>
      <trkpt lat="40.7984180" lon="-5.7136550">
        <ele>962.0</ele>
        <time>2021-10-14T17:15:28Z</time>
      </trkpt>
      <trkpt lat="40.7981760" lon="-5.7139760">
        <ele>962.4</ele>
        <time>2021-10-14T17:15:37Z</time>
      </trkpt>
      <trkpt lat="40.7980940" lon="-5.7140840">
        <ele>962.8</ele>
        <time>2021-10-14T17:15:40Z</time>
      </trkpt>
      <trkpt lat="40.7979150" lon="-5.7143330">
        <ele>963.2</ele>
        <time>2021-10-14T17:15:47Z</time>
      </trkpt>
      <trkpt lat="40.7976650" lon="-5.7147060">
        <ele>963.6</ele>
        <time>2021-10-14T17:15:57Z</time>
      </trkpt>
      <trkpt lat="40.7975740" lon="-5.7148410">
        <ele>963.8</ele>
        <time>2021-10-14T17:16:01Z</time>
      </trkpt>
      <trkpt lat="40.7974700" lon="-5.7149890">
        <ele>964.4</ele>
        <time>2021-10-14T17:16:05Z</time>
      </trkpt>
      <trkpt lat="40.7972970" lon="-5.7152160">
        <ele>964.6</ele>
        <time>2021-10-14T17:16:12Z</time>
      </trkpt>
      <trkpt lat="40.7971740" lon="-5.7153730">
        <ele>964.8</ele>
        <time>2021-10-14T17:16:17Z</time>
      </trkpt>
      <trkpt lat="40.7970990" lon="-5.7154550">
        <ele>964.8</ele>
        <time>2021-10-14T17:16:20Z</time>
      </trkpt>
      <trkpt lat="40.7970750" lon="-5.7154840">
        <ele>965.0</ele>
        <time>2021-10-14T17:16:21Z</time>
      </trkpt>
      <trkpt lat="40.7969060" lon="-5.7156580">
        <ele>965.8</ele>
        <time>2021-10-14T17:16:28Z</time>
      </trkpt>
      <trkpt lat="40.7968570" lon="-5.7157020">
        <ele>966.0</ele>
        <time>2021-10-14T17:16:30Z</time>
      </trkpt>
      <trkpt lat="40.7966570" lon="-5.7158760">
        <ele>966.8</ele>
        <time>2021-10-14T17:16:38Z</time>
      </trkpt>
      <trkpt lat="40.7965720" lon="-5.7159380">
        <ele>966.8</ele>
        <time>2021-10-14T17:16:41Z</time>
      </trkpt>
      <trkpt lat="40.7965410" lon="-5.7159570">
        <ele>967.0</ele>
        <time>2021-10-14T17:16:42Z</time>
      </trkpt>
      <trkpt lat="40.7964810" lon="-5.7160140">
        <ele>967.0</ele>
        <time>2021-10-14T17:16:44Z</time>
      </trkpt>
      <trkpt lat="40.7962330" lon="-5.7162540">
        <ele>967.2</ele>
        <time>2021-10-14T17:16:52Z</time>
      </trkpt>
      <trkpt lat="40.7961450" lon="-5.7163630">
        <ele>967.2</ele>
        <time>2021-10-14T17:16:55Z</time>
      </trkpt>
      <trkpt lat="40.7959800" lon="-5.7165930">
        <ele>967.0</ele>
        <time>2021-10-14T17:17:01Z</time>
      </trkpt>
      <trkpt lat="40.7958470" lon="-5.7167670">
        <ele>967.0</ele>
        <time>2021-10-14T17:17:06Z</time>
      </trkpt>
      <trkpt lat="40.7956260" lon="-5.7170900">
        <ele>967.4</ele>
        <time>2021-10-14T17:17:15Z</time>
      </trkpt>
      <trkpt lat="40.7954230" lon="-5.7173540">
        <ele>967.8</ele>
        <time>2021-10-14T17:17:23Z</time>
      </trkpt>
      <trkpt lat="40.7953460" lon="-5.7174500">
        <ele>968.0</ele>
        <time>2021-10-14T17:17:26Z</time>
      </trkpt>
      <trkpt lat="40.7951850" lon="-5.7176270">
        <ele>968.4</ele>
        <time>2021-10-14T17:17:32Z</time>
      </trkpt>
      <trkpt lat="40.7949960" lon="-5.7178600">
        <ele>968.8</ele>
        <time>2021-10-14T17:17:40Z</time>
      </trkpt>
      <trkpt lat="40.7949760" lon="-5.7178900">
        <ele>968.8</ele>
        <time>2021-10-14T17:17:41Z</time>
      </trkpt>
      <trkpt lat="40.7948080" lon="-5.7180960">
        <ele>969.0</ele>
        <time>2021-10-14T17:17:48Z</time>
      </trkpt>
      <trkpt lat="40.7946220" lon="-5.7183680">
        <ele>969.0</ele>
        <time>2021-10-14T17:17:56Z</time>
      </trkpt>
      <trkpt lat="40.7944260" lon="-5.7186910">
        <ele>969.6</ele>
        <time>2021-10-14T17:18:05Z</time>
      </trkpt>
      <trkpt lat="40.7943440" lon="-5.7188250">
        <ele>969.6</ele>
        <time>2021-10-14T17:18:09Z</time>
      </trkpt>
      <trkpt lat="40.7942640" lon="-5.7189580">
        <ele>969.8</ele>
        <time>2021-10-14T17:18:13Z</time>
      </trkpt>
      <trkpt lat="40.7940960" lon="-5.7192630">
        <ele>970.4</ele>
        <time>2021-10-14T17:18:22Z</time>
      </trkpt>
      <trkpt lat="40.7940580" lon="-5.7193300">
        <ele>970.8</ele>
        <time>2021-10-14T17:18:24Z</time>
      </trkpt>
      <trkpt lat="40.7939470" lon="-5.7195250">
        <ele>971.2</ele>
        <time>2021-10-14T17:18:30Z</time>
      </trkpt>
      <trkpt lat="40.7938360" lon="-5.7197210">
        <ele>971.8</ele>
        <time>2021-10-14T17:18:36Z</time>
      </trkpt>
      <trkpt lat="40.7938050" lon="-5.7197820">
        <ele>972.2</ele>
        <time>2021-10-14T17:18:38Z</time>
      </trkpt>
      <trkpt lat="40.7936680" lon="-5.7200320">
        <ele>973.0</ele>
        <time>2021-10-14T17:18:46Z</time>
      </trkpt>
      <trkpt lat="40.7935400" lon="-5.7202210">
        <ele>973.6</ele>
        <time>2021-10-14T17:18:53Z</time>
      </trkpt>
      <trkpt lat="40.7935200" lon="-5.7202450">
        <ele>973.8</ele>
        <time>2021-10-14T17:18:54Z</time>
      </trkpt>
      <trkpt lat="40.7934600" lon="-5.7203200">
        <ele>974.0</ele>
        <time>2021-10-14T17:18:57Z</time>
      </trkpt>
      <trkpt lat="40.7933380" lon="-5.7204410">
        <ele>974.6</ele>
        <time>2021-10-14T17:19:03Z</time>
      </trkpt>
      <trkpt lat="40.7932300" lon="-5.7205430">
        <ele>975.2</ele>
        <time>2021-10-14T17:19:08Z</time>
      </trkpt>
      <trkpt lat="40.7931870" lon="-5.7205900">
        <ele>975.2</ele>
        <time>2021-10-14T17:19:10Z</time>
      </trkpt>
      <trkpt lat="40.7931640" lon="-5.7206150">
        <ele>975.4</ele>
        <time>2021-10-14T17:19:11Z</time>
      </trkpt>
      <trkpt lat="40.7931410" lon="-5.7206390">
        <ele>975.4</ele>
        <time>2021-10-14T17:19:12Z</time>
      </trkpt>
      <trkpt lat="40.7930000" lon="-5.7207780">
        <ele>975.8</ele>
        <time>2021-10-14T17:19:18Z</time>
      </trkpt>
      <trkpt lat="40.7929050" lon="-5.7208750">
        <ele>975.8</ele>
        <time>2021-10-14T17:19:22Z</time>
      </trkpt>
      <trkpt lat="40.7928810" lon="-5.7208980">
        <ele>976.0</ele>
        <time>2021-10-14T17:19:23Z</time>
      </trkpt>
      <trkpt lat="40.7927880" lon="-5.7210000">
        <ele>976.2</ele>
        <time>2021-10-14T17:19:27Z</time>
      </trkpt>
      <trkpt lat="40.7926960" lon="-5.7211010">
        <ele>976.4</ele>
        <time>2021-10-14T17:19:31Z</time>
      </trkpt>
      <trkpt lat="40.7925570" lon="-5.7212510">
        <ele>976.8</ele>
        <time>2021-10-14T17:19:37Z</time>
      </trkpt>
      <trkpt lat="40.7924870" lon="-5.7213240">
        <ele>977.0</ele>
        <time>2021-10-14T17:19:40Z</time>
      </trkpt>
      <trkpt lat="40.7924410" lon="-5.7213760">
        <ele>977.2</ele>
        <time>2021-10-14T17:19:42Z</time>
      </trkpt>
      <trkpt lat="40.7922790" lon="-5.7215430">
        <ele>977.6</ele>
        <time>2021-10-14T17:19:49Z</time>
      </trkpt>
      <trkpt lat="40.7921620" lon="-5.7216700">
        <ele>978.0</ele>
        <time>2021-10-14T17:19:54Z</time>
      </trkpt>
      <trkpt lat="40.7920890" lon="-5.7217490">
        <ele>978.0</ele>
        <time>2021-10-14T17:19:57Z</time>
      </trkpt>
      <trkpt lat="40.7920390" lon="-5.7217980">
        <ele>978.2</ele>
        <time>2021-10-14T17:19:59Z</time>
      </trkpt>
      <trkpt lat="40.7919540" lon="-5.7218700">
        <ele>978.2</ele>
        <time>2021-10-14T17:20:02Z</time>
      </trkpt>
      <trkpt lat="40.7918000" lon="-5.7220290">
        <ele>978.4</ele>
        <time>2021-10-14T17:20:08Z</time>
      </trkpt>
      <trkpt lat="40.7915290" lon="-5.7223100">
        <ele>978.6</ele>
        <time>2021-10-14T17:20:18Z</time>
      </trkpt>
      <trkpt lat="40.7913210" lon="-5.7225200">
        <ele>979.0</ele>
        <time>2021-10-14T17:20:26Z</time>
      </trkpt>
      <trkpt lat="40.7910560" lon="-5.7228080">
        <ele>979.4</ele>
        <time>2021-10-14T17:20:36Z</time>
      </trkpt>
      <trkpt lat="40.7910050" lon="-5.7228610">
        <ele>979.6</ele>
        <time>2021-10-14T17:20:38Z</time>
      </trkpt>
      <trkpt lat="40.7908770" lon="-5.7230080">
        <ele>980.0</ele>
        <time>2021-10-14T17:20:43Z</time>
      </trkpt>
      <trkpt lat="40.7908270" lon="-5.7230640">
        <ele>980.0</ele>
        <time>2021-10-14T17:20:45Z</time>
      </trkpt>
      <trkpt lat="40.7907750" lon="-5.7231170">
        <ele>980.2</ele>
        <time>2021-10-14T17:20:47Z</time>
      </trkpt>
      <trkpt lat="40.7907490" lon="-5.7231430">
        <ele>980.2</ele>
        <time>2021-10-14T17:20:48Z</time>
      </trkpt>
      <trkpt lat="40.7906180" lon="-5.7232780">
        <ele>980.4</ele>
        <time>2021-10-14T17:20:53Z</time>
      </trkpt>
      <trkpt lat="40.7903680" lon="-5.7235510">
        <ele>981.0</ele>
        <time>2021-10-14T17:21:03Z</time>
      </trkpt>
      <trkpt lat="40.7903430" lon="-5.7235800">
        <ele>981.0</ele>
        <time>2021-10-14T17:21:04Z</time>
      </trkpt>
      <trkpt lat="40.7903180" lon="-5.7236100">
        <ele>981.2</ele>
        <time>2021-10-14T17:21:05Z</time>
      </trkpt>
      <trkpt lat="40.7901450" lon="-5.7237900">
        <ele>981.8</ele>
        <time>2021-10-14T17:21:12Z</time>
      </trkpt>
      <trkpt lat="40.7900240" lon="-5.7239230">
        <ele>982.2</ele>
        <time>2021-10-14T17:21:17Z</time>
      </trkpt>
      <trkpt lat="40.7899510" lon="-5.7240020">
        <ele>982.4</ele>
        <time>2021-10-14T17:21:20Z</time>
      </trkpt>
      <trkpt lat="40.7898060" lon="-5.7241510">
        <ele>983.0</ele>
        <time>2021-10-14T17:21:26Z</time>
      </trkpt>
      <trkpt lat="40.7897530" lon="-5.7242040">
        <ele>983.2</ele>
        <time>2021-10-14T17:21:28Z</time>
      </trkpt>
      <trkpt lat="40.7897270" lon="-5.7242330">
        <ele>983.4</ele>
        <time>2021-10-14T17:21:29Z</time>
      </trkpt>
      <trkpt lat="40.7894890" lon="-5.7245080">
        <ele>984.2</ele>
        <time>2021-10-14T17:21:39Z</time>
      </trkpt>
      <trkpt lat="40.7894680" lon="-5.7245350">
        <ele>984.2</ele>
        <time>2021-10-14T17:21:40Z</time>
      </trkpt>
      <trkpt lat="40.7894250" lon="-5.7246740">
        <ele>984.8</ele>
        <time>2021-10-14T17:21:44Z</time>
      </trkpt>
      <trkpt lat="40.7894140" lon="-5.7247970">
        <ele>985.2</ele>
        <time>2021-10-14T17:21:47Z</time>
      </trkpt>
      <trkpt lat="40.7893960" lon="-5.7249910">
        <ele>985.6</ele>
        <time>2021-10-14T17:21:52Z</time>
      </trkpt>
      <trkpt lat="40.7893940" lon="-5.7250300">
        <ele>985.8</ele>
        <time>2021-10-14T17:21:53Z</time>
      </trkpt>
      <trkpt lat="40.7893880" lon="-5.7252250">
        <ele>986.2</ele>
        <time>2021-10-14T17:21:58Z</time>
      </trkpt>
      <trkpt lat="40.7893850" lon="-5.7253310">
        <ele>986.4</ele>
        <time>2021-10-14T17:22:01Z</time>
      </trkpt>
      <trkpt lat="40.7894050" lon="-5.7255990">
        <ele>987.2</ele>
        <time>2021-10-14T17:22:08Z</time>
      </trkpt>
      <trkpt lat="40.7894100" lon="-5.7256340">
        <ele>987.2</ele>
        <time>2021-10-14T17:22:09Z</time>
      </trkpt>
      <trkpt lat="40.7894270" lon="-5.7257020">
        <ele>987.4</ele>
        <time>2021-10-14T17:22:11Z</time>
      </trkpt>
      <trkpt lat="40.7894720" lon="-5.7259060">
        <ele>988.0</ele>
        <time>2021-10-14T17:22:17Z</time>
      </trkpt>
      <trkpt lat="40.7895260" lon="-5.7260660">
        <ele>988.4</ele>
        <time>2021-10-14T17:22:22Z</time>
      </trkpt>
      <trkpt lat="40.7895540" lon="-5.7261610">
        <ele>988.8</ele>
        <time>2021-10-14T17:22:25Z</time>
      </trkpt>
      <trkpt lat="40.7896090" lon="-5.7263340">
        <ele>989.4</ele>
        <time>2021-10-14T17:22:31Z</time>
      </trkpt>
      <trkpt lat="40.7896200" lon="-5.7263910">
        <ele>989.8</ele>
        <time>2021-10-14T17:22:33Z</time>
      </trkpt>
      <trkpt lat="40.7896750" lon="-5.7265920">
        <ele>990.6</ele>
        <time>2021-10-14T17:22:40Z</time>
      </trkpt>
      <trkpt lat="40.7896890" lon="-5.7266530">
        <ele>991.0</ele>
        <time>2021-10-14T17:22:42Z</time>
      </trkpt>
      <trkpt lat="40.7897300" lon="-5.7268600">
        <ele>991.8</ele>
        <time>2021-10-14T17:22:49Z</time>
      </trkpt>
      <trkpt lat="40.7897470" lon="-5.7270140">
        <ele>992.2</ele>
        <time>2021-10-14T17:22:54Z</time>
      </trkpt>
      <trkpt lat="40.7897540" lon="-5.7271370">
        <ele>992.6</ele>
        <time>2021-10-14T17:22:58Z</time>
      </trkpt>
      <trkpt lat="40.7897540" lon="-5.7271680">
        <ele>992.8</ele>
        <time>2021-10-14T17:22:59Z</time>
      </trkpt>
      <trkpt lat="40.7897640" lon="-5.7274610">
        <ele>993.6</ele>
        <time>2021-10-14T17:23:08Z</time>
      </trkpt>
      <trkpt lat="40.7897730" lon="-5.7276050">
        <ele>993.8</ele>
        <time>2021-10-14T17:23:12Z</time>
      </trkpt>
      <trkpt lat="40.7897720" lon="-5.7277030">
        <ele>994.0</ele>
        <time>2021-10-14T17:23:15Z</time>
      </trkpt>
      <trkpt lat="40.7897770" lon="-5.7278830">
        <ele>994.0</ele>
        <time>2021-10-14T17:23:20Z</time>
      </trkpt>
      <trkpt lat="40.7897820" lon="-5.7279750">
        <ele>994.0</ele>
        <time>2021-10-14T17:23:23Z</time>
      </trkpt>
      <trkpt lat="40.7898100" lon="-5.7282670">
        <ele>993.6</ele>
        <time>2021-10-14T17:23:31Z</time>
      </trkpt>
      <trkpt lat="40.7898510" lon="-5.7285680">
        <ele>993.2</ele>
        <time>2021-10-14T17:23:37Z</time>
      </trkpt>
      <trkpt lat="40.7898690" lon="-5.7287330">
        <ele>992.8</ele>
        <time>2021-10-14T17:23:40Z</time>
      </trkpt>
      <trkpt lat="40.7898860" lon="-5.7289020">
        <ele>992.6</ele>
        <time>2021-10-14T17:23:43Z</time>
      </trkpt>
      <trkpt lat="40.7898950" lon="-5.7290140">
        <ele>992.2</ele>
        <time>2021-10-14T17:23:45Z</time>
      </trkpt>
      <trkpt lat="40.7899050" lon="-5.7291280">
        <ele>992.0</ele>
        <time>2021-10-14T17:23:47Z</time>
      </trkpt>
      <trkpt lat="40.7899210" lon="-5.7293060">
        <ele>991.8</ele>
        <time>2021-10-14T17:23:50Z</time>
      </trkpt>
      <trkpt lat="40.7899250" lon="-5.7293640">
        <ele>991.8</ele>
        <time>2021-10-14T17:23:51Z</time>
      </trkpt>
      <trkpt lat="40.7899410" lon="-5.7295890">
        <ele>991.2</ele>
        <time>2021-10-14T17:23:55Z</time>
      </trkpt>
      <trkpt lat="40.7899450" lon="-5.7297480">
        <ele>991.0</ele>
        <time>2021-10-14T17:23:58Z</time>
      </trkpt>
      <trkpt lat="40.7899480" lon="-5.7298520">
        <ele>990.6</ele>
        <time>2021-10-14T17:24:00Z</time>
      </trkpt>
      <trkpt lat="40.7899480" lon="-5.7301830">
        <ele>990.4</ele>
        <time>2021-10-14T17:24:06Z</time>
      </trkpt>
      <trkpt lat="40.7899460" lon="-5.7307370">
        <ele>989.4</ele>
        <time>2021-10-14T17:24:15Z</time>
      </trkpt>
      <trkpt lat="40.7899290" lon="-5.7314520">
        <ele>988.2</ele>
        <time>2021-10-14T17:24:26Z</time>
      </trkpt>
      <trkpt lat="40.7899270" lon="-5.7316420">
        <ele>987.8</ele>
        <time>2021-10-14T17:24:29Z</time>
      </trkpt>
      <trkpt lat="40.7899210" lon="-5.7319970">
        <ele>987.2</ele>
        <time>2021-10-14T17:24:35Z</time>
      </trkpt>
      <trkpt lat="40.7899220" lon="-5.7320530">
        <ele>987.2</ele>
        <time>2021-10-14T17:24:36Z</time>
      </trkpt>
      <trkpt lat="40.7899200" lon="-5.7323970">
        <ele>986.8</ele>
        <time>2021-10-14T17:24:42Z</time>
      </trkpt>
      <trkpt lat="40.7899190" lon="-5.7324560">
        <ele>986.8</ele>
        <time>2021-10-14T17:24:43Z</time>
      </trkpt>
      <trkpt lat="40.7899230" lon="-5.7327490">
        <ele>986.4</ele>
        <time>2021-10-14T17:24:48Z</time>
      </trkpt>
      <trkpt lat="40.7899180" lon="-5.7332110">
        <ele>986.2</ele>
        <time>2021-10-14T17:24:57Z</time>
      </trkpt>
      <trkpt lat="40.7899040" lon="-5.7335920">
        <ele>985.8</ele>
        <time>2021-10-14T17:25:05Z</time>
      </trkpt>
      <trkpt lat="40.7899010" lon="-5.7338510">
        <ele>985.6</ele>
        <time>2021-10-14T17:25:11Z</time>
      </trkpt>
      <trkpt lat="40.7898960" lon="-5.7341560">
        <ele>985.6</ele>
        <time>2021-10-14T17:25:18Z</time>
      </trkpt>
      <trkpt lat="40.7899060" lon="-5.7345340">
        <ele>985.2</ele>
        <time>2021-10-14T17:25:26Z</time>
      </trkpt>
      <trkpt lat="40.7899000" lon="-5.7348080">
        <ele>985.0</ele>
        <time>2021-10-14T17:25:32Z</time>
      </trkpt>
      <trkpt lat="40.7898930" lon="-5.7349320">
        <ele>985.0</ele>
        <time>2021-10-14T17:25:35Z</time>
      </trkpt>
      <trkpt lat="40.7898810" lon="-5.7353060">
        <ele>984.8</ele>
        <time>2021-10-14T17:25:43Z</time>
      </trkpt>
      <trkpt lat="40.7899100" lon="-5.7356720">
        <ele>984.6</ele>
        <time>2021-10-14T17:25:51Z</time>
      </trkpt>
      <trkpt lat="40.7899440" lon="-5.7360250">
        <ele>984.4</ele>
        <time>2021-10-14T17:26:00Z</time>
      </trkpt>
      <trkpt lat="40.7899540" lon="-5.7361920">
        <ele>984.2</ele>
        <time>2021-10-14T17:26:06Z</time>
      </trkpt>
      <trkpt lat="40.7899550" lon="-5.7363710">
        <ele>984.0</ele>
        <time>2021-10-14T17:26:14Z</time>
      </trkpt>
      <trkpt lat="40.7899550" lon="-5.7363710">
        <ele>984.0</ele>
        <time>2021-10-14T17:26:16Z</time>
      </trkpt>
      <trkpt lat="40.7899280" lon="-5.7364090">
        <ele>984.2</ele>
        <time>2021-10-14T17:26:37Z</time>
      </trkpt>
      <trkpt lat="40.7899110" lon="-5.7364090">
        <ele>984.2</ele>
        <time>2021-10-14T17:26:38Z</time>
      </trkpt>
      <trkpt lat="40.7898210" lon="-5.7364490">
        <ele>984.2</ele>
        <time>2021-10-14T17:26:43Z</time>
      </trkpt>
      <trkpt lat="40.7898030" lon="-5.7364610">
        <ele>984.2</ele>
        <time>2021-10-14T17:26:44Z</time>
      </trkpt>
      <trkpt lat="40.7897400" lon="-5.7365100">
        <ele>984.0</ele>
        <time>2021-10-14T17:26:48Z</time>
      </trkpt>
      <trkpt lat="40.7896710" lon="-5.7365470">
        <ele>984.0</ele>
        <time>2021-10-14T17:26:51Z</time>
      </trkpt>
      <trkpt lat="40.7896430" lon="-5.7365640">
        <ele>984.0</ele>
        <time>2021-10-14T17:26:52Z</time>
      </trkpt>
      <trkpt lat="40.7894990" lon="-5.7366560">
        <ele>983.6</ele>
        <time>2021-10-14T17:26:58Z</time>
      </trkpt>
      <trkpt lat="40.7893570" lon="-5.7367340">
        <ele>983.0</ele>
        <time>2021-10-14T17:27:05Z</time>
      </trkpt>
      <trkpt lat="40.7893320" lon="-5.7367510">
        <ele>982.4</ele>
        <time>2021-10-14T17:27:09Z</time>
      </trkpt>
      <trkpt lat="40.7893080" lon="-5.7371680">
        <ele>974.4</ele>
        <time>2021-10-15T07:19:01Z</time>
      </trkpt>
      <trkpt lat="40.7893100" lon="-5.7371500">
        <ele>974.2</ele>
        <time>2021-10-15T07:19:02Z</time>
      </trkpt>
      <trkpt lat="40.7893170" lon="-5.7371350">
        <ele>974.2</ele>
        <time>2021-10-15T07:19:04Z</time>
      </trkpt>
      <trkpt lat="40.7892860" lon="-5.7371060">
        <ele>974.2</ele>
        <time>2021-10-15T07:19:09Z</time>
      </trkpt>
      <trkpt lat="40.7892630" lon="-5.7367810">
        <ele>974.8</ele>
        <time>2021-10-15T07:24:53Z</time>
      </trkpt>
      <trkpt lat="40.7892330" lon="-5.7367910">
        <ele>974.6</ele>
        <time>2021-10-15T07:24:56Z</time>
      </trkpt>
      <trkpt lat="40.7891790" lon="-5.7368110">
        <ele>974.6</ele>
        <time>2021-10-15T07:25:00Z</time>
      </trkpt>
      <trkpt lat="40.7891370" lon="-5.7368370">
        <ele>974.2</ele>
        <time>2021-10-15T07:25:02Z</time>
      </trkpt>
      <trkpt lat="40.7889570" lon="-5.7370090">
        <ele>973.2</ele>
        <time>2021-10-15T07:25:09Z</time>
      </trkpt>
      <trkpt lat="40.7887980" lon="-5.7371760">
        <ele>972.2</ele>
        <time>2021-10-15T07:25:15Z</time>
      </trkpt>
      <trkpt lat="40.7887800" lon="-5.7371920">
        <ele>972.0</ele>
        <time>2021-10-15T07:25:16Z</time>
      </trkpt>
      <trkpt lat="40.7887140" lon="-5.7372290">
        <ele>971.2</ele>
        <time>2021-10-15T07:25:21Z</time>
      </trkpt>
      <trkpt lat="40.7886930" lon="-5.7372240">
        <ele>971.2</ele>
        <time>2021-10-15T07:25:22Z</time>
      </trkpt>
      <trkpt lat="40.7886460" lon="-5.7371860">
        <ele>971.0</ele>
        <time>2021-10-15T07:25:24Z</time>
      </trkpt>
      <trkpt lat="40.7886190" lon="-5.7371610">
        <ele>971.0</ele>
        <time>2021-10-15T07:25:25Z</time>
      </trkpt>
      <trkpt lat="40.7884590" lon="-5.7370020">
        <ele>970.8</ele>
        <time>2021-10-15T07:25:31Z</time>
      </trkpt>
      <trkpt lat="40.7882660" lon="-5.7369010">
        <ele>971.0</ele>
        <time>2021-10-15T07:25:37Z</time>
      </trkpt>
      <trkpt lat="40.7880880" lon="-5.7368250">
        <ele>971.6</ele>
        <time>2021-10-15T07:25:42Z</time>
      </trkpt>
      <trkpt lat="40.7879850" lon="-5.7367930">
        <ele>971.8</ele>
        <time>2021-10-15T07:25:45Z</time>
      </trkpt>
      <trkpt lat="40.7879320" lon="-5.7367750">
        <ele>972.0</ele>
        <time>2021-10-15T07:25:47Z</time>
      </trkpt>
      <trkpt lat="40.7878270" lon="-5.7367630">
        <ele>972.2</ele>
        <time>2021-10-15T07:25:51Z</time>
      </trkpt>
      <trkpt lat="40.7877840" lon="-5.7367540">
        <ele>972.4</ele>
        <time>2021-10-15T07:25:54Z</time>
      </trkpt>
      <trkpt lat="40.7877360" lon="-5.7367470">
        <ele>972.8</ele>
        <time>2021-10-15T07:25:57Z</time>
      </trkpt>
      <trkpt lat="40.7877260" lon="-5.7367470">
        <ele>972.8</ele>
        <time>2021-10-15T07:25:58Z</time>
      </trkpt>
      <trkpt lat="40.7876850" lon="-5.7367380">
        <ele>973.2</ele>
        <time>2021-10-15T07:26:01Z</time>
      </trkpt>
      <trkpt lat="40.7876040" lon="-5.7367310">
        <ele>973.4</ele>
        <time>2021-10-15T07:26:05Z</time>
      </trkpt>
      <trkpt lat="40.7874950" lon="-5.7367430">
        <ele>973.6</ele>
        <time>2021-10-15T07:26:10Z</time>
      </trkpt>
      <trkpt lat="40.7874620" lon="-5.7367390">
        <ele>973.8</ele>
        <time>2021-10-15T07:26:12Z</time>
      </trkpt>
      <trkpt lat="40.7874490" lon="-5.7367430">
        <ele>974.0</ele>
        <time>2021-10-15T07:26:16Z</time>
      </trkpt>
      <trkpt lat="40.7874220" lon="-5.7367370">
        <ele>973.6</ele>
        <time>2021-10-15T07:27:40Z</time>
      </trkpt>
      <trkpt lat="40.7873980" lon="-5.7367340">
        <ele>973.4</ele>
        <time>2021-10-15T07:27:41Z</time>
      </trkpt>
      <trkpt lat="40.7873720" lon="-5.7367310">
        <ele>973.4</ele>
        <time>2021-10-15T07:27:42Z</time>
      </trkpt>
      <trkpt lat="40.7872780" lon="-5.7367120">
        <ele>973.6</ele>
        <time>2021-10-15T07:27:45Z</time>
      </trkpt>
      <trkpt lat="40.7871890" lon="-5.7367040">
        <ele>973.8</ele>
        <time>2021-10-15T07:27:48Z</time>
      </trkpt>
      <trkpt lat="40.7870990" lon="-5.7367040">
        <ele>974.2</ele>
        <time>2021-10-15T07:27:51Z</time>
      </trkpt>
      <trkpt lat="40.7869670" lon="-5.7366900">
        <ele>974.6</ele>
        <time>2021-10-15T07:27:55Z</time>
      </trkpt>
      <trkpt lat="40.7869340" lon="-5.7366860">
        <ele>974.6</ele>
        <time>2021-10-15T07:27:56Z</time>
      </trkpt>
      <trkpt lat="40.7868330" lon="-5.7366740">
        <ele>975.0</ele>
        <time>2021-10-15T07:27:59Z</time>
      </trkpt>
      <trkpt lat="40.7868000" lon="-5.7366700">
        <ele>975.2</ele>
        <time>2021-10-15T07:28:00Z</time>
      </trkpt>
      <trkpt lat="40.7867690" lon="-5.7366760">
        <ele>975.2</ele>
        <time>2021-10-15T07:28:01Z</time>
      </trkpt>
      <trkpt lat="40.7867430" lon="-5.7367040">
        <ele>975.2</ele>
        <time>2021-10-15T07:28:02Z</time>
      </trkpt>
      <trkpt lat="40.7867250" lon="-5.7367400">
        <ele>975.4</ele>
        <time>2021-10-15T07:28:03Z</time>
      </trkpt>
      <trkpt lat="40.7867030" lon="-5.7368660">
        <ele>976.0</ele>
        <time>2021-10-15T07:28:06Z</time>
      </trkpt>
      <trkpt lat="40.7866800" lon="-5.7369240">
        <ele>976.2</ele>
        <time>2021-10-15T07:28:08Z</time>
      </trkpt>
      <trkpt lat="40.7866320" lon="-5.7369730">
        <ele>976.4</ele>
        <time>2021-10-15T07:28:10Z</time>
      </trkpt>
      <trkpt lat="40.7865370" lon="-5.7370370">
        <ele>977.2</ele>
        <time>2021-10-15T07:28:14Z</time>
      </trkpt>
      <trkpt lat="40.7863510" lon="-5.7371730">
        <ele>978.0</ele>
        <time>2021-10-15T07:28:21Z</time>
      </trkpt>
      <trkpt lat="40.7861980" lon="-5.7372910">
        <ele>978.2</ele>
        <time>2021-10-15T07:28:27Z</time>
      </trkpt>
      <trkpt lat="40.7861240" lon="-5.7373450">
        <ele>978.6</ele>
        <time>2021-10-15T07:28:30Z</time>
      </trkpt>
      <trkpt lat="40.7859720" lon="-5.7374530">
        <ele>979.2</ele>
        <time>2021-10-15T07:28:36Z</time>
      </trkpt>
      <trkpt lat="40.7859470" lon="-5.7374700">
        <ele>979.2</ele>
        <time>2021-10-15T07:28:37Z</time>
      </trkpt>
      <trkpt lat="40.7858780" lon="-5.7375190">
        <ele>979.4</ele>
        <time>2021-10-15T07:28:40Z</time>
      </trkpt>
      <trkpt lat="40.7858290" lon="-5.7375570">
        <ele>979.6</ele>
        <time>2021-10-15T07:28:42Z</time>
      </trkpt>
      <trkpt lat="40.7857130" lon="-5.7376370">
        <ele>980.2</ele>
        <time>2021-10-15T07:28:47Z</time>
      </trkpt>
      <trkpt lat="40.7856940" lon="-5.7376490">
        <ele>980.2</ele>
        <time>2021-10-15T07:28:48Z</time>
      </trkpt>
      <trkpt lat="40.7856000" lon="-5.7377220">
        <ele>980.6</ele>
        <time>2021-10-15T07:28:52Z</time>
      </trkpt>
      <trkpt lat="40.7854490" lon="-5.7378290">
        <ele>981.6</ele>
        <time>2021-10-15T07:28:59Z</time>
      </trkpt>
      <trkpt lat="40.7853880" lon="-5.7378740">
        <ele>981.8</ele>
        <time>2021-10-15T07:29:02Z</time>
      </trkpt>
      <trkpt lat="40.7853030" lon="-5.7379310">
        <ele>982.4</ele>
        <time>2021-10-15T07:29:06Z</time>
      </trkpt>
      <trkpt lat="40.7851910" lon="-5.7380030">
        <ele>983.2</ele>
        <time>2021-10-15T07:29:11Z</time>
      </trkpt>
      <trkpt lat="40.7851680" lon="-5.7380130">
        <ele>983.2</ele>
        <time>2021-10-15T07:29:12Z</time>
      </trkpt>
      <trkpt lat="40.7851200" lon="-5.7380430">
        <ele>983.6</ele>
        <time>2021-10-15T07:29:14Z</time>
      </trkpt>
      <trkpt lat="40.7851000" lon="-5.7380580">
        <ele>983.6</ele>
        <time>2021-10-15T07:29:15Z</time>
      </trkpt>
      <trkpt lat="40.7850600" lon="-5.7380870">
        <ele>983.8</ele>
        <time>2021-10-15T07:29:17Z</time>
      </trkpt>
      <trkpt lat="40.7850160" lon="-5.7381230">
        <ele>984.2</ele>
        <time>2021-10-15T07:29:19Z</time>
      </trkpt>
      <trkpt lat="40.7849960" lon="-5.7381380">
        <ele>984.4</ele>
        <time>2021-10-15T07:29:20Z</time>
      </trkpt>
      <trkpt lat="40.7849590" lon="-5.7381640">
        <ele>984.8</ele>
        <time>2021-10-15T07:29:22Z</time>
      </trkpt>
      <trkpt lat="40.7848990" lon="-5.7382100">
        <ele>985.2</ele>
        <time>2021-10-15T07:29:25Z</time>
      </trkpt>
      <trkpt lat="40.7847960" lon="-5.7382840">
        <ele>985.6</ele>
        <time>2021-10-15T07:29:30Z</time>
      </trkpt>
      <trkpt lat="40.7847780" lon="-5.7382980">
        <ele>985.6</ele>
        <time>2021-10-15T07:29:31Z</time>
      </trkpt>
      <trkpt lat="40.7847270" lon="-5.7383410">
        <ele>986.2</ele>
        <time>2021-10-15T07:29:34Z</time>
      </trkpt>
      <trkpt lat="40.7846870" lon="-5.7383700">
        <ele>986.4</ele>
        <time>2021-10-15T07:29:36Z</time>
      </trkpt>
      <trkpt lat="40.7846570" lon="-5.7383910">
        <ele>986.8</ele>
        <time>2021-10-15T07:29:38Z</time>
      </trkpt>
      <trkpt lat="40.7846380" lon="-5.7384020">
        <ele>986.8</ele>
        <time>2021-10-15T07:29:39Z</time>
      </trkpt>
      <trkpt lat="40.7845270" lon="-5.7384790">
        <ele>987.4</ele>
        <time>2021-10-15T07:29:45Z</time>
      </trkpt>
      <trkpt lat="40.7844900" lon="-5.7385060">
        <ele>987.6</ele>
        <time>2021-10-15T07:29:47Z</time>
      </trkpt>
      <trkpt lat="40.7844710" lon="-5.7385200">
        <ele>987.6</ele>
        <time>2021-10-15T07:29:48Z</time>
      </trkpt>
      <trkpt lat="40.7844550" lon="-5.7385300">
        <ele>987.8</ele>
        <time>2021-10-15T07:29:49Z</time>
      </trkpt>
      <trkpt lat="40.7843630" lon="-5.7386120">
        <ele>988.6</ele>
        <time>2021-10-15T07:29:55Z</time>
      </trkpt>
      <trkpt lat="40.7843440" lon="-5.7386280">
        <ele>988.8</ele>
        <time>2021-10-15T07:29:56Z</time>
      </trkpt>
      <trkpt lat="40.7843150" lon="-5.7386540">
        <ele>989.0</ele>
        <time>2021-10-15T07:29:58Z</time>
      </trkpt>
      <trkpt lat="40.7842630" lon="-5.7386980">
        <ele>989.4</ele>
        <time>2021-10-15T07:30:01Z</time>
      </trkpt>
      <trkpt lat="40.7841980" lon="-5.7387390">
        <ele>990.0</ele>
        <time>2021-10-15T07:30:05Z</time>
      </trkpt>
      <trkpt lat="40.7840520" lon="-5.7388600">
        <ele>990.8</ele>
        <time>2021-10-15T07:30:15Z</time>
      </trkpt>
      <trkpt lat="40.7840360" lon="-5.7388640">
        <ele>991.0</ele>
        <time>2021-10-15T07:30:16Z</time>
      </trkpt>
      <trkpt lat="40.7839500" lon="-5.7389060">
        <ele>991.6</ele>
        <time>2021-10-15T07:30:21Z</time>
      </trkpt>
      <trkpt lat="40.7839010" lon="-5.7389340">
        <ele>992.0</ele>
        <time>2021-10-15T07:30:24Z</time>
      </trkpt>
      <trkpt lat="40.7838560" lon="-5.7389650">
        <ele>992.4</ele>
        <time>2021-10-15T07:30:27Z</time>
      </trkpt>
      <trkpt lat="40.7838390" lon="-5.7389750">
        <ele>992.4</ele>
        <time>2021-10-15T07:30:28Z</time>
      </trkpt>
      <trkpt lat="40.7838050" lon="-5.7389980">
        <ele>992.6</ele>
        <time>2021-10-15T07:30:30Z</time>
      </trkpt>
      <trkpt lat="40.7837590" lon="-5.7390230">
        <ele>993.2</ele>
        <time>2021-10-15T07:30:33Z</time>
      </trkpt>
      <trkpt lat="40.7837100" lon="-5.7390390">
        <ele>993.4</ele>
        <time>2021-10-15T07:30:36Z</time>
      </trkpt>
      <trkpt lat="40.7836690" lon="-5.7390390">
        <ele>993.6</ele>
        <time>2021-10-15T07:30:38Z</time>
      </trkpt>
      <trkpt lat="40.7835730" lon="-5.7390350">
        <ele>994.4</ele>
        <time>2021-10-15T07:30:43Z</time>
      </trkpt>
      <trkpt lat="40.7835560" lon="-5.7390350">
        <ele>994.4</ele>
        <time>2021-10-15T07:30:44Z</time>
      </trkpt>
      <trkpt lat="40.7835380" lon="-5.7390320">
        <ele>994.4</ele>
        <time>2021-10-15T07:30:45Z</time>
      </trkpt>
      <trkpt lat="40.7835200" lon="-5.7390300">
        <ele>994.4</ele>
        <time>2021-10-15T07:30:46Z</time>
      </trkpt>
      <trkpt lat="40.7834640" lon="-5.7390290">
        <ele>994.8</ele>
        <time>2021-10-15T07:30:49Z</time>
      </trkpt>
      <trkpt lat="40.7833530" lon="-5.7390280">
        <ele>995.2</ele>
        <time>2021-10-15T07:30:55Z</time>
      </trkpt>
      <trkpt lat="40.7832950" lon="-5.7390300">
        <ele>995.6</ele>
        <time>2021-10-15T07:30:58Z</time>
      </trkpt>
      <trkpt lat="40.7831670" lon="-5.7390300">
        <ele>996.4</ele>
        <time>2021-10-15T07:31:05Z</time>
      </trkpt>
      <trkpt lat="40.7831310" lon="-5.7390300">
        <ele>996.4</ele>
        <time>2021-10-15T07:31:07Z</time>
      </trkpt>
      <trkpt lat="40.7831130" lon="-5.7390300">
        <ele>996.6</ele>
        <time>2021-10-15T07:31:08Z</time>
      </trkpt>
      <trkpt lat="40.7830570" lon="-5.7390290">
        <ele>996.8</ele>
        <time>2021-10-15T07:31:11Z</time>
      </trkpt>
      <trkpt lat="40.7829890" lon="-5.7390330">
        <ele>997.2</ele>
        <time>2021-10-15T07:31:15Z</time>
      </trkpt>
      <trkpt lat="40.7829480" lon="-5.7390330">
        <ele>997.4</ele>
        <time>2021-10-15T07:31:17Z</time>
      </trkpt>
      <trkpt lat="40.7829140" lon="-5.7390310">
        <ele>997.6</ele>
        <time>2021-10-15T07:31:19Z</time>
      </trkpt>
      <trkpt lat="40.7828590" lon="-5.7390340">
        <ele>998.2</ele>
        <time>2021-10-15T07:31:22Z</time>
      </trkpt>
      <trkpt lat="40.7828370" lon="-5.7390330">
        <ele>998.2</ele>
        <time>2021-10-15T07:31:23Z</time>
      </trkpt>
      <trkpt lat="40.7828040" lon="-5.7390350">
        <ele>998.4</ele>
        <time>2021-10-15T07:31:25Z</time>
      </trkpt>
      <trkpt lat="40.7827250" lon="-5.7390360">
        <ele>998.6</ele>
        <time>2021-10-15T07:31:29Z</time>
      </trkpt>
      <trkpt lat="40.7826570" lon="-5.7390370">
        <ele>999.2</ele>
        <time>2021-10-15T07:31:33Z</time>
      </trkpt>
      <trkpt lat="40.7826230" lon="-5.7390400">
        <ele>999.6</ele>
        <time>2021-10-15T07:31:35Z</time>
      </trkpt>
      <trkpt lat="40.7826080" lon="-5.7390410">
        <ele>999.8</ele>
        <time>2021-10-15T07:31:36Z</time>
      </trkpt>
      <trkpt lat="40.7825270" lon="-5.7390580">
        <ele>1000.6</ele>
        <time>2021-10-15T07:31:41Z</time>
      </trkpt>
      <trkpt lat="40.7824950" lon="-5.7390640">
        <ele>1000.8</ele>
        <time>2021-10-15T07:31:43Z</time>
      </trkpt>
      <trkpt lat="40.7824770" lon="-5.7390640">
        <ele>1001.0</ele>
        <time>2021-10-15T07:31:44Z</time>
      </trkpt>
      <trkpt lat="40.7823920" lon="-5.7390630">
        <ele>1001.6</ele>
        <time>2021-10-15T07:31:49Z</time>
      </trkpt>
      <trkpt lat="40.7823400" lon="-5.7390640">
        <ele>1001.8</ele>
        <time>2021-10-15T07:31:52Z</time>
      </trkpt>
      <trkpt lat="40.7823230" lon="-5.7390650">
        <ele>1002.0</ele>
        <time>2021-10-15T07:31:53Z</time>
      </trkpt>
      <trkpt lat="40.7822510" lon="-5.7390630">
        <ele>1002.4</ele>
        <time>2021-10-15T07:31:57Z</time>
      </trkpt>
      <trkpt lat="40.7821820" lon="-5.7390650">
        <ele>1003.0</ele>
        <time>2021-10-15T07:32:01Z</time>
      </trkpt>
      <trkpt lat="40.7821460" lon="-5.7390650">
        <ele>1003.2</ele>
        <time>2021-10-15T07:32:03Z</time>
      </trkpt>
      <trkpt lat="40.7819920" lon="-5.7390840">
        <ele>1003.8</ele>
        <time>2021-10-15T07:32:11Z</time>
      </trkpt>
      <trkpt lat="40.7818770" lon="-5.7390850">
        <ele>1004.0</ele>
        <time>2021-10-15T07:32:17Z</time>
      </trkpt>
      <trkpt lat="40.7818570" lon="-5.7390850">
        <ele>1004.0</ele>
        <time>2021-10-15T07:32:18Z</time>
      </trkpt>
      <trkpt lat="40.7817650" lon="-5.7390900">
        <ele>1004.4</ele>
        <time>2021-10-15T07:32:23Z</time>
      </trkpt>
      <trkpt lat="40.7816910" lon="-5.7390960">
        <ele>1004.4</ele>
        <time>2021-10-15T07:32:27Z</time>
      </trkpt>
      <trkpt lat="40.7815280" lon="-5.7391400">
        <ele>1005.0</ele>
        <time>2021-10-15T07:32:35Z</time>
      </trkpt>
      <trkpt lat="40.7813420" lon="-5.7391510">
        <ele>1005.0</ele>
        <time>2021-10-15T07:32:42Z</time>
      </trkpt>
      <trkpt lat="40.7810500" lon="-5.7391590">
        <ele>1004.8</ele>
        <time>2021-10-15T07:32:52Z</time>
      </trkpt>
      <trkpt lat="40.7809750" lon="-5.7391580">
        <ele>1005.0</ele>
        <time>2021-10-15T07:32:55Z</time>
      </trkpt>
      <trkpt lat="40.7808760" lon="-5.7391550">
        <ele>1005.2</ele>
        <time>2021-10-15T07:32:59Z</time>
      </trkpt>
      <trkpt lat="40.7808220" lon="-5.7391480">
        <ele>1005.2</ele>
        <time>2021-10-15T07:33:01Z</time>
      </trkpt>
      <trkpt lat="40.7807950" lon="-5.7391440">
        <ele>1005.2</ele>
        <time>2021-10-15T07:33:02Z</time>
      </trkpt>
      <trkpt lat="40.7807690" lon="-5.7391380">
        <ele>1005.4</ele>
        <time>2021-10-15T07:33:03Z</time>
      </trkpt>
      <trkpt lat="40.7807420" lon="-5.7391310">
        <ele>1005.4</ele>
        <time>2021-10-15T07:33:04Z</time>
      </trkpt>
      <trkpt lat="40.7807190" lon="-5.7391260">
        <ele>1005.4</ele>
        <time>2021-10-15T07:33:05Z</time>
      </trkpt>
      <trkpt lat="40.7806690" lon="-5.7391150">
        <ele>1005.4</ele>
        <time>2021-10-15T07:33:07Z</time>
      </trkpt>
      <trkpt lat="40.7806440" lon="-5.7391120">
        <ele>1005.4</ele>
        <time>2021-10-15T07:33:08Z</time>
      </trkpt>
      <trkpt lat="40.7805690" lon="-5.7390980">
        <ele>1005.4</ele>
        <time>2021-10-15T07:33:11Z</time>
      </trkpt>
      <trkpt lat="40.7804370" lon="-5.7390670">
        <ele>1005.6</ele>
        <time>2021-10-15T07:33:16Z</time>
      </trkpt>
      <trkpt lat="40.7802810" lon="-5.7390110">
        <ele>1006.0</ele>
        <time>2021-10-15T07:33:23Z</time>
      </trkpt>
      <trkpt lat="40.7802410" lon="-5.7389780">
        <ele>1006.2</ele>
        <time>2021-10-15T07:33:25Z</time>
      </trkpt>
      <trkpt lat="40.7800950" lon="-5.7388760">
        <ele>1006.6</ele>
        <time>2021-10-15T07:33:32Z</time>
      </trkpt>
      <trkpt lat="40.7800240" lon="-5.7388270">
        <ele>1007.0</ele>
        <time>2021-10-15T07:33:35Z</time>
      </trkpt>
      <trkpt lat="40.7799850" lon="-5.7387940">
        <ele>1007.2</ele>
        <time>2021-10-15T07:33:37Z</time>
      </trkpt>
      <trkpt lat="40.7799480" lon="-5.7387700">
        <ele>1007.4</ele>
        <time>2021-10-15T07:33:39Z</time>
      </trkpt>
      <trkpt lat="40.7798670" lon="-5.7387190">
        <ele>1007.6</ele>
        <time>2021-10-15T07:33:43Z</time>
      </trkpt>
      <trkpt lat="40.7797440" lon="-5.7386300">
        <ele>1008.4</ele>
        <time>2021-10-15T07:33:50Z</time>
      </trkpt>
      <trkpt lat="40.7796430" lon="-5.7385710">
        <ele>1008.8</ele>
        <time>2021-10-15T07:33:55Z</time>
      </trkpt>
      <trkpt lat="40.7795400" lon="-5.7384900">
        <ele>1009.4</ele>
        <time>2021-10-15T07:34:01Z</time>
      </trkpt>
      <trkpt lat="40.7795020" lon="-5.7384550">
        <ele>1009.8</ele>
        <time>2021-10-15T07:34:03Z</time>
      </trkpt>
      <trkpt lat="40.7794510" lon="-5.7384290">
        <ele>1010.0</ele>
        <time>2021-10-15T07:34:06Z</time>
      </trkpt>
      <trkpt lat="40.7794330" lon="-5.7384170">
        <ele>1010.2</ele>
        <time>2021-10-15T07:34:07Z</time>
      </trkpt>
      <trkpt lat="40.7794120" lon="-5.7384070">
        <ele>1010.4</ele>
        <time>2021-10-15T07:34:08Z</time>
      </trkpt>
      <trkpt lat="40.7793980" lon="-5.7383960">
        <ele>1010.6</ele>
        <time>2021-10-15T07:34:09Z</time>
      </trkpt>
      <trkpt lat="40.7793230" lon="-5.7383550">
        <ele>1011.6</ele>
        <time>2021-10-15T07:34:14Z</time>
      </trkpt>
      <trkpt lat="40.7793020" lon="-5.7383330">
        <ele>1011.6</ele>
        <time>2021-10-15T07:34:16Z</time>
      </trkpt>
      <trkpt lat="40.7792870" lon="-5.7383240">
        <ele>1011.8</ele>
        <time>2021-10-15T07:34:17Z</time>
      </trkpt>
      <trkpt lat="40.7792570" lon="-5.7383000">
        <ele>1012.0</ele>
        <time>2021-10-15T07:34:19Z</time>
      </trkpt>
      <trkpt lat="40.7791990" lon="-5.7382720">
        <ele>1012.6</ele>
        <time>2021-10-15T07:34:23Z</time>
      </trkpt>
      <trkpt lat="40.7791820" lon="-5.7382620">
        <ele>1012.6</ele>
        <time>2021-10-15T07:34:24Z</time>
      </trkpt>
      <trkpt lat="40.7791470" lon="-5.7382410">
        <ele>1013.2</ele>
        <time>2021-10-15T07:34:27Z</time>
      </trkpt>
      <trkpt lat="40.7791190" lon="-5.7382320">
        <ele>1013.4</ele>
        <time>2021-10-15T07:34:29Z</time>
      </trkpt>
      <trkpt lat="40.7791060" lon="-5.7382310">
        <ele>1013.8</ele>
        <time>2021-10-15T07:34:30Z</time>
      </trkpt>
      <trkpt lat="40.7790930" lon="-5.7382270">
        <ele>1013.8</ele>
        <time>2021-10-15T07:34:31Z</time>
      </trkpt>
      <trkpt lat="40.7790810" lon="-5.7382240">
        <ele>1014.0</ele>
        <time>2021-10-15T07:34:32Z</time>
      </trkpt>
      <trkpt lat="40.7790150" lon="-5.7382040">
        <ele>1014.6</ele>
        <time>2021-10-15T07:34:37Z</time>
      </trkpt>
      <trkpt lat="40.7790070" lon="-5.7381980">
        <ele>1014.8</ele>
        <time>2021-10-15T07:34:38Z</time>
      </trkpt>
      <trkpt lat="40.7789940" lon="-5.7381900">
        <ele>1015.0</ele>
        <time>2021-10-15T07:34:39Z</time>
      </trkpt>
      <trkpt lat="40.7789040" lon="-5.7381600">
        <ele>1016.0</ele>
        <time>2021-10-15T07:34:45Z</time>
      </trkpt>
      <trkpt lat="40.7788720" lon="-5.7381500">
        <ele>1016.4</ele>
        <time>2021-10-15T07:34:47Z</time>
      </trkpt>
      <trkpt lat="40.7788260" lon="-5.7381250">
        <ele>1017.0</ele>
        <time>2021-10-15T07:34:51Z</time>
      </trkpt>
      <trkpt lat="40.7787850" lon="-5.7381180">
        <ele>1017.8</ele>
        <time>2021-10-15T07:34:54Z</time>
      </trkpt>
      <trkpt lat="40.7787240" lon="-5.7381040">
        <ele>1018.2</ele>
        <time>2021-10-15T07:34:58Z</time>
      </trkpt>
      <trkpt lat="40.7787020" lon="-5.7380970">
        <ele>1018.4</ele>
        <time>2021-10-15T07:35:00Z</time>
      </trkpt>
      <trkpt lat="40.7786840" lon="-5.7380920">
        <ele>1018.6</ele>
        <time>2021-10-15T07:35:01Z</time>
      </trkpt>
      <trkpt lat="40.7786550" lon="-5.7380850">
        <ele>1018.8</ele>
        <time>2021-10-15T07:35:03Z</time>
      </trkpt>
      <trkpt lat="40.7786280" lon="-5.7380760">
        <ele>1019.0</ele>
        <time>2021-10-15T07:35:05Z</time>
      </trkpt>
      <trkpt lat="40.7785940" lon="-5.7380630">
        <ele>1019.2</ele>
        <time>2021-10-15T07:35:07Z</time>
      </trkpt>
      <trkpt lat="40.7785510" lon="-5.7380460">
        <ele>1019.6</ele>
        <time>2021-10-15T07:35:10Z</time>
      </trkpt>
      <trkpt lat="40.7785170" lon="-5.7380270">
        <ele>1020.2</ele>
        <time>2021-10-15T07:35:12Z</time>
      </trkpt>
      <trkpt lat="40.7785030" lon="-5.7380190">
        <ele>1020.2</ele>
        <time>2021-10-15T07:35:13Z</time>
      </trkpt>
      <trkpt lat="40.7784440" lon="-5.7379830">
        <ele>1020.6</ele>
        <time>2021-10-15T07:35:17Z</time>
      </trkpt>
      <trkpt lat="40.7784140" lon="-5.7379620">
        <ele>1020.8</ele>
        <time>2021-10-15T07:35:19Z</time>
      </trkpt>
      <trkpt lat="40.7784010" lon="-5.7379540">
        <ele>1020.8</ele>
        <time>2021-10-15T07:35:20Z</time>
      </trkpt>
      <trkpt lat="40.7783760" lon="-5.7379390">
        <ele>1021.0</ele>
        <time>2021-10-15T07:35:22Z</time>
      </trkpt>
      <trkpt lat="40.7783480" lon="-5.7379190">
        <ele>1021.2</ele>
        <time>2021-10-15T07:35:24Z</time>
      </trkpt>
      <trkpt lat="40.7783350" lon="-5.7379110">
        <ele>1021.4</ele>
        <time>2021-10-15T07:35:25Z</time>
      </trkpt>
      <trkpt lat="40.7783250" lon="-5.7379040">
        <ele>1021.4</ele>
        <time>2021-10-15T07:35:26Z</time>
      </trkpt>
      <trkpt lat="40.7782970" lon="-5.7378800">
        <ele>1021.6</ele>
        <time>2021-10-15T07:35:28Z</time>
      </trkpt>
      <trkpt lat="40.7782290" lon="-5.7378280">
        <ele>1022.4</ele>
        <time>2021-10-15T07:35:33Z</time>
      </trkpt>
      <trkpt lat="40.7782150" lon="-5.7378170">
        <ele>1022.4</ele>
        <time>2021-10-15T07:35:34Z</time>
      </trkpt>
      <trkpt lat="40.7782020" lon="-5.7378050">
        <ele>1022.6</ele>
        <time>2021-10-15T07:35:35Z</time>
      </trkpt>
      <trkpt lat="40.7781780" lon="-5.7377840">
        <ele>1022.6</ele>
        <time>2021-10-15T07:35:37Z</time>
      </trkpt>
      <trkpt lat="40.7781410" lon="-5.7377750">
        <ele>1022.6</ele>
        <time>2021-10-15T07:35:40Z</time>
      </trkpt>
      <trkpt lat="40.7781360" lon="-5.7377760">
        <ele>1022.8</ele>
        <time>2021-10-15T07:35:43Z</time>
      </trkpt>
      <trkpt lat="40.7781190" lon="-5.7377380">
        <ele>1022.2</ele>
        <time>2021-10-15T07:39:41Z</time>
      </trkpt>
      <trkpt lat="40.7781040" lon="-5.7377280">
        <ele>1022.2</ele>
        <time>2021-10-15T07:39:42Z</time>
      </trkpt>
      <trkpt lat="40.7780600" lon="-5.7377070">
        <ele>1022.2</ele>
        <time>2021-10-15T07:39:44Z</time>
      </trkpt>
      <trkpt lat="40.7779080" lon="-5.7376560">
        <ele>1022.0</ele>
        <time>2021-10-15T07:39:50Z</time>
      </trkpt>
      <trkpt lat="40.7778860" lon="-5.7376490">
        <ele>1022.0</ele>
        <time>2021-10-15T07:39:51Z</time>
      </trkpt>
      <trkpt lat="40.7777910" lon="-5.7376150">
        <ele>1021.6</ele>
        <time>2021-10-15T07:39:54Z</time>
      </trkpt>
      <trkpt lat="40.7776940" lon="-5.7375860">
        <ele>1021.4</ele>
        <time>2021-10-15T07:39:57Z</time>
      </trkpt>
      <trkpt lat="40.7776940" lon="-5.7375860">
        <ele>1021.4</ele>
        <time>2021-10-15T07:39:58Z</time>
      </trkpt>
      <trkpt lat="40.7774050" lon="-5.7375220">
        <ele>1020.8</ele>
        <time>2021-10-15T07:40:05Z</time>
      </trkpt>
      <trkpt lat="40.7772760" lon="-5.7374810">
        <ele>1020.2</ele>
        <time>2021-10-15T07:40:08Z</time>
      </trkpt>
      <trkpt lat="40.7771450" lon="-5.7374720">
        <ele>1019.8</ele>
        <time>2021-10-15T07:40:11Z</time>
      </trkpt>
      <trkpt lat="40.7769590" lon="-5.7374530">
        <ele>1019.2</ele>
        <time>2021-10-15T07:40:15Z</time>
      </trkpt>
      <trkpt lat="40.7768030" lon="-5.7374440">
        <ele>1018.6</ele>
        <time>2021-10-15T07:40:18Z</time>
      </trkpt>
      <trkpt lat="40.7766990" lon="-5.7374260">
        <ele>1018.0</ele>
        <time>2021-10-15T07:40:20Z</time>
      </trkpt>
      <trkpt lat="40.7765540" lon="-5.7374110">
        <ele>1016.6</ele>
        <time>2021-10-15T07:40:23Z</time>
      </trkpt>
      <trkpt lat="40.7765080" lon="-5.7374100">
        <ele>1016.4</ele>
        <time>2021-10-15T07:40:24Z</time>
      </trkpt>
      <trkpt lat="40.7763650" lon="-5.7373930">
        <ele>1015.4</ele>
        <time>2021-10-15T07:40:27Z</time>
      </trkpt>
      <trkpt lat="40.7761560" lon="-5.7373780">
        <ele>1014.4</ele>
        <time>2021-10-15T07:40:31Z</time>
      </trkpt>
      <trkpt lat="40.7758400" lon="-5.7373590">
        <ele>1013.2</ele>
        <time>2021-10-15T07:40:37Z</time>
      </trkpt>
      <trkpt lat="40.7757290" lon="-5.7373510">
        <ele>1012.6</ele>
        <time>2021-10-15T07:40:39Z</time>
      </trkpt>
      <trkpt lat="40.7755160" lon="-5.7373580">
        <ele>1012.0</ele>
        <time>2021-10-15T07:40:43Z</time>
      </trkpt>
      <trkpt lat="40.7752580" lon="-5.7373520">
        <ele>1010.8</ele>
        <time>2021-10-15T07:40:48Z</time>
      </trkpt>
      <trkpt lat="40.7752080" lon="-5.7373510">
        <ele>1010.6</ele>
        <time>2021-10-15T07:40:49Z</time>
      </trkpt>
      <trkpt lat="40.7749360" lon="-5.7373490">
        <ele>1010.0</ele>
        <time>2021-10-15T07:40:54Z</time>
      </trkpt>
      <trkpt lat="40.7748270" lon="-5.7373400">
        <ele>1009.8</ele>
        <time>2021-10-15T07:40:56Z</time>
      </trkpt>
      <trkpt lat="40.7747680" lon="-5.7373350">
        <ele>1009.6</ele>
        <time>2021-10-15T07:40:57Z</time>
      </trkpt>
      <trkpt lat="40.7745920" lon="-5.7373290">
        <ele>1008.6</ele>
        <time>2021-10-15T07:41:00Z</time>
      </trkpt>
      <trkpt lat="40.7743570" lon="-5.7373120">
        <ele>1007.8</ele>
        <time>2021-10-15T07:41:04Z</time>
      </trkpt>
      <trkpt lat="40.7742980" lon="-5.7373070">
        <ele>1007.4</ele>
        <time>2021-10-15T07:41:05Z</time>
      </trkpt>
      <trkpt lat="40.7740640" lon="-5.7373050">
        <ele>1006.4</ele>
        <time>2021-10-15T07:41:09Z</time>
      </trkpt>
      <trkpt lat="40.7737630" lon="-5.7373030">
        <ele>1005.4</ele>
        <time>2021-10-15T07:41:14Z</time>
      </trkpt>
      <trkpt lat="40.7736460" lon="-5.7373030">
        <ele>1005.0</ele>
        <time>2021-10-15T07:41:16Z</time>
      </trkpt>
      <trkpt lat="40.7731950" lon="-5.7372850">
        <ele>1003.8</ele>
        <time>2021-10-15T07:41:23Z</time>
      </trkpt>
      <trkpt lat="40.7730630" lon="-5.7372860">
        <ele>1003.2</ele>
        <time>2021-10-15T07:41:25Z</time>
      </trkpt>
      <trkpt lat="40.7729840" lon="-5.7372850">
        <ele>1002.6</ele>
        <time>2021-10-15T07:41:26Z</time>
      </trkpt>
      <trkpt lat="40.7728030" lon="-5.7372780">
        <ele>1001.6</ele>
        <time>2021-10-15T07:41:29Z</time>
      </trkpt>
      <trkpt lat="40.7726120" lon="-5.7372710">
        <ele>1000.4</ele>
        <time>2021-10-15T07:41:32Z</time>
      </trkpt>
      <trkpt lat="40.7724810" lon="-5.7372630">
        <ele>999.8</ele>
        <time>2021-10-15T07:41:34Z</time>
      </trkpt>
      <trkpt lat="40.7723470" lon="-5.7372570">
        <ele>999.2</ele>
        <time>2021-10-15T07:41:36Z</time>
      </trkpt>
      <trkpt lat="40.7721380" lon="-5.7372470">
        <ele>997.8</ele>
        <time>2021-10-15T07:41:39Z</time>
      </trkpt>
      <trkpt lat="40.7718510" lon="-5.7372510">
        <ele>996.8</ele>
        <time>2021-10-15T07:41:43Z</time>
      </trkpt>
      <trkpt lat="40.7717810" lon="-5.7372510">
        <ele>996.4</ele>
        <time>2021-10-15T07:41:44Z</time>
      </trkpt>
      <trkpt lat="40.7716440" lon="-5.7372510">
        <ele>995.6</ele>
        <time>2021-10-15T07:41:46Z</time>
      </trkpt>
      <trkpt lat="40.7715770" lon="-5.7372560">
        <ele>995.2</ele>
        <time>2021-10-15T07:41:47Z</time>
      </trkpt>
      <trkpt lat="40.7714460" lon="-5.7372720">
        <ele>994.6</ele>
        <time>2021-10-15T07:41:49Z</time>
      </trkpt>
      <trkpt lat="40.7713210" lon="-5.7373010">
        <ele>994.2</ele>
        <time>2021-10-15T07:41:51Z</time>
      </trkpt>
      <trkpt lat="40.7710190" lon="-5.7373850">
        <ele>993.4</ele>
        <time>2021-10-15T07:41:56Z</time>
      </trkpt>
      <trkpt lat="40.7709000" lon="-5.7374100">
        <ele>993.2</ele>
        <time>2021-10-15T07:41:58Z</time>
      </trkpt>
      <trkpt lat="40.7705500" lon="-5.7374920">
        <ele>992.4</ele>
        <time>2021-10-15T07:42:04Z</time>
      </trkpt>
      <trkpt lat="40.7703750" lon="-5.7375290">
        <ele>991.8</ele>
        <time>2021-10-15T07:42:07Z</time>
      </trkpt>
      <trkpt lat="40.7700800" lon="-5.7375900">
        <ele>991.0</ele>
        <time>2021-10-15T07:42:12Z</time>
      </trkpt>
      <trkpt lat="40.7698390" lon="-5.7376150">
        <ele>990.2</ele>
        <time>2021-10-15T07:42:16Z</time>
      </trkpt>
      <trkpt lat="40.7697110" lon="-5.7376200">
        <ele>989.6</ele>
        <time>2021-10-15T07:42:18Z</time>
      </trkpt>
      <trkpt lat="40.7695130" lon="-5.7376430">
        <ele>988.6</ele>
        <time>2021-10-15T07:42:21Z</time>
      </trkpt>
      <trkpt lat="40.7693210" lon="-5.7376850">
        <ele>987.8</ele>
        <time>2021-10-15T07:42:24Z</time>
      </trkpt>
      <trkpt lat="40.7692580" lon="-5.7377020">
        <ele>987.4</ele>
        <time>2021-10-15T07:42:25Z</time>
      </trkpt>
      <trkpt lat="40.7691970" lon="-5.7377230">
        <ele>987.4</ele>
        <time>2021-10-15T07:42:26Z</time>
      </trkpt>
      <trkpt lat="40.7690370" lon="-5.7378270">
        <ele>986.6</ele>
        <time>2021-10-15T07:42:29Z</time>
      </trkpt>
      <trkpt lat="40.7689880" lon="-5.7378670">
        <ele>986.2</ele>
        <time>2021-10-15T07:42:30Z</time>
      </trkpt>
      <trkpt lat="40.7688120" lon="-5.7380320">
        <ele>985.8</ele>
        <time>2021-10-15T07:42:34Z</time>
      </trkpt>
      <trkpt lat="40.7685770" lon="-5.7382490">
        <ele>985.6</ele>
        <time>2021-10-15T07:42:40Z</time>
      </trkpt>
      <trkpt lat="40.7682350" lon="-5.7385690">
        <ele>985.2</ele>
        <time>2021-10-15T07:42:49Z</time>
      </trkpt>
      <trkpt lat="40.7681900" lon="-5.7386060">
        <ele>985.2</ele>
        <time>2021-10-15T07:42:50Z</time>
      </trkpt>
      <trkpt lat="40.7679790" lon="-5.7387990">
        <ele>984.8</ele>
        <time>2021-10-15T07:42:56Z</time>
      </trkpt>
      <trkpt lat="40.7677090" lon="-5.7390390">
        <ele>984.8</ele>
        <time>2021-10-15T07:43:04Z</time>
      </trkpt>
      <trkpt lat="40.7674350" lon="-5.7392810">
        <ele>985.6</ele>
        <time>2021-10-15T07:43:13Z</time>
      </trkpt>
      <trkpt lat="40.7671370" lon="-5.7395450">
        <ele>986.0</ele>
        <time>2021-10-15T07:43:22Z</time>
      </trkpt>
      <trkpt lat="40.7668510" lon="-5.7397950">
        <ele>986.0</ele>
        <time>2021-10-15T07:43:31Z</time>
      </trkpt>
      <trkpt lat="40.7668200" lon="-5.7398230">
        <ele>986.0</ele>
        <time>2021-10-15T07:43:32Z</time>
      </trkpt>
      <trkpt lat="40.7666500" lon="-5.7399750">
        <ele>986.0</ele>
        <time>2021-10-15T07:43:37Z</time>
      </trkpt>
      <trkpt lat="40.7663880" lon="-5.7402120">
        <ele>986.0</ele>
        <time>2021-10-15T07:43:45Z</time>
      </trkpt>
      <trkpt lat="40.7660160" lon="-5.7405430">
        <ele>986.0</ele>
        <time>2021-10-15T07:43:56Z</time>
      </trkpt>
      <trkpt lat="40.7657170" lon="-5.7408080">
        <ele>986.2</ele>
        <time>2021-10-15T07:44:05Z</time>
      </trkpt>
      <trkpt lat="40.7655810" lon="-5.7409370">
        <ele>986.2</ele>
        <time>2021-10-15T07:44:09Z</time>
      </trkpt>
      <trkpt lat="40.7653530" lon="-5.7411390">
        <ele>986.2</ele>
        <time>2021-10-15T07:44:16Z</time>
      </trkpt>
      <trkpt lat="40.7653180" lon="-5.7411700">
        <ele>986.0</ele>
        <time>2021-10-15T07:44:17Z</time>
      </trkpt>
      <trkpt lat="40.7651450" lon="-5.7413250">
        <ele>986.0</ele>
        <time>2021-10-15T07:44:22Z</time>
      </trkpt>
      <trkpt lat="40.7650390" lon="-5.7414180">
        <ele>986.0</ele>
        <time>2021-10-15T07:44:25Z</time>
      </trkpt>
      <trkpt lat="40.7650040" lon="-5.7414500">
        <ele>986.0</ele>
        <time>2021-10-15T07:44:26Z</time>
      </trkpt>
      <trkpt lat="40.7649240" lon="-5.7415170">
        <ele>986.2</ele>
        <time>2021-10-15T07:44:28Z</time>
      </trkpt>
      <trkpt lat="40.7646470" lon="-5.7417530">
        <ele>986.0</ele>
        <time>2021-10-15T07:44:36Z</time>
      </trkpt>
      <trkpt lat="40.7645710" lon="-5.7418180">
        <ele>986.0</ele>
        <time>2021-10-15T07:44:38Z</time>
      </trkpt>
      <trkpt lat="40.7642600" lon="-5.7420860">
        <ele>985.4</ele>
        <time>2021-10-15T07:44:47Z</time>
      </trkpt>
      <trkpt lat="40.7638890" lon="-5.7424110">
        <ele>985.4</ele>
        <time>2021-10-15T07:44:57Z</time>
      </trkpt>
      <trkpt lat="40.7635240" lon="-5.7427410">
        <ele>984.8</ele>
        <time>2021-10-15T07:45:07Z</time>
      </trkpt>
      <trkpt lat="40.7632220" lon="-5.7430140">
        <ele>984.4</ele>
        <time>2021-10-15T07:45:15Z</time>
      </trkpt>
      <trkpt lat="40.7631430" lon="-5.7430890">
        <ele>984.4</ele>
        <time>2021-10-15T07:45:17Z</time>
      </trkpt>
      <trkpt lat="40.7630190" lon="-5.7432000">
        <ele>984.2</ele>
        <time>2021-10-15T07:45:20Z</time>
      </trkpt>
      <trkpt lat="40.7628170" lon="-5.7433890">
        <ele>983.4</ele>
        <time>2021-10-15T07:45:25Z</time>
      </trkpt>
      <trkpt lat="40.7627760" lon="-5.7434250">
        <ele>983.2</ele>
        <time>2021-10-15T07:45:26Z</time>
      </trkpt>
      <trkpt lat="40.7625750" lon="-5.7436060">
        <ele>982.6</ele>
        <time>2021-10-15T07:45:31Z</time>
      </trkpt>
      <trkpt lat="40.7624150" lon="-5.7437510">
        <ele>982.2</ele>
        <time>2021-10-15T07:45:35Z</time>
      </trkpt>
      <trkpt lat="40.7623750" lon="-5.7437860">
        <ele>982.0</ele>
        <time>2021-10-15T07:45:36Z</time>
      </trkpt>
      <trkpt lat="40.7621370" lon="-5.7439960">
        <ele>981.6</ele>
        <time>2021-10-15T07:45:42Z</time>
      </trkpt>
      <trkpt lat="40.7619520" lon="-5.7441680">
        <ele>981.0</ele>
        <time>2021-10-15T07:45:47Z</time>
      </trkpt>
      <trkpt lat="40.7617610" lon="-5.7443310">
        <ele>980.4</ele>
        <time>2021-10-15T07:45:52Z</time>
      </trkpt>
      <trkpt lat="40.7616580" lon="-5.7444240">
        <ele>980.2</ele>
        <time>2021-10-15T07:45:55Z</time>
      </trkpt>
      <trkpt lat="40.7614270" lon="-5.7446360">
        <ele>980.2</ele>
        <time>2021-10-15T07:46:02Z</time>
      </trkpt>
      <trkpt lat="40.7614030" lon="-5.7446460">
        <ele>980.2</ele>
        <time>2021-10-15T07:46:03Z</time>
      </trkpt>
      <trkpt lat="40.7613560" lon="-5.7446260">
        <ele>980.2</ele>
        <time>2021-10-15T07:46:05Z</time>
      </trkpt>
      <trkpt lat="40.7612800" lon="-5.7445450">
        <ele>980.0</ele>
        <time>2021-10-15T07:46:09Z</time>
      </trkpt>
      <trkpt lat="40.7611330" lon="-5.7446550">
        <ele>980.6</ele>
        <time>2021-10-15T07:46:15Z</time>
      </trkpt>
      <trkpt lat="40.7610410" lon="-5.7447420">
        <ele>980.8</ele>
        <time>2021-10-15T07:46:19Z</time>
      </trkpt>
      <trkpt lat="40.7609170" lon="-5.7448560">
        <ele>981.0</ele>
        <time>2021-10-15T07:46:24Z</time>
      </trkpt>
      <trkpt lat="40.7606810" lon="-5.7450490">
        <ele>981.0</ele>
        <time>2021-10-15T07:46:31Z</time>
      </trkpt>
      <trkpt lat="40.7605450" lon="-5.7451760">
        <ele>981.0</ele>
        <time>2021-10-15T07:46:35Z</time>
      </trkpt>
      <trkpt lat="40.7604030" lon="-5.7453000">
        <ele>981.2</ele>
        <time>2021-10-15T07:46:39Z</time>
      </trkpt>
      <trkpt lat="40.7602720" lon="-5.7454110">
        <ele>981.0</ele>
        <time>2021-10-15T07:46:43Z</time>
      </trkpt>
      <trkpt lat="40.7600600" lon="-5.7455980">
        <ele>981.2</ele>
        <time>2021-10-15T07:46:49Z</time>
      </trkpt>
      <trkpt lat="40.7597470" lon="-5.7458800">
        <ele>981.2</ele>
        <time>2021-10-15T07:46:58Z</time>
      </trkpt>
      <trkpt lat="40.7594460" lon="-5.7461530">
        <ele>981.8</ele>
        <time>2021-10-15T07:47:07Z</time>
      </trkpt>
      <trkpt lat="40.7592510" lon="-5.7463200">
        <ele>982.0</ele>
        <time>2021-10-15T07:47:13Z</time>
      </trkpt>
      <trkpt lat="40.7591690" lon="-5.7463970">
        <ele>982.2</ele>
        <time>2021-10-15T07:47:16Z</time>
      </trkpt>
      <trkpt lat="40.7590000" lon="-5.7465440">
        <ele>983.2</ele>
        <time>2021-10-15T07:47:22Z</time>
      </trkpt>
      <trkpt lat="40.7589420" lon="-5.7465920">
        <ele>983.6</ele>
        <time>2021-10-15T07:47:24Z</time>
      </trkpt>
      <trkpt lat="40.7588060" lon="-5.7467240">
        <ele>984.2</ele>
        <time>2021-10-15T07:47:29Z</time>
      </trkpt>
      <trkpt lat="40.7587150" lon="-5.7468110">
        <ele>984.8</ele>
        <time>2021-10-15T07:47:33Z</time>
      </trkpt>
      <trkpt lat="40.7586870" lon="-5.7468400">
        <ele>984.8</ele>
        <time>2021-10-15T07:47:34Z</time>
      </trkpt>
      <trkpt lat="40.7586220" lon="-5.7469130">
        <ele>985.2</ele>
        <time>2021-10-15T07:47:37Z</time>
      </trkpt>
      <trkpt lat="40.7585120" lon="-5.7470740">
        <ele>986.2</ele>
        <time>2021-10-15T07:47:43Z</time>
      </trkpt>
      <trkpt lat="40.7583490" lon="-5.7473690">
        <ele>987.4</ele>
        <time>2021-10-15T07:47:53Z</time>
      </trkpt>
      <trkpt lat="40.7583200" lon="-5.7474250">
        <ele>987.8</ele>
        <time>2021-10-15T07:47:55Z</time>
      </trkpt>
      <trkpt lat="40.7582720" lon="-5.7475230">
        <ele>988.2</ele>
        <time>2021-10-15T07:47:58Z</time>
      </trkpt>
      <trkpt lat="40.7582410" lon="-5.7475850">
        <ele>988.4</ele>
        <time>2021-10-15T07:48:00Z</time>
      </trkpt>
      <trkpt lat="40.7581770" lon="-5.7477090">
        <ele>988.8</ele>
        <time>2021-10-15T07:48:04Z</time>
      </trkpt>
      <trkpt lat="40.7581150" lon="-5.7478360">
        <ele>989.4</ele>
        <time>2021-10-15T07:48:08Z</time>
      </trkpt>
      <trkpt lat="40.7579900" lon="-5.7480530">
        <ele>990.0</ele>
        <time>2021-10-15T07:48:15Z</time>
      </trkpt>
      <trkpt lat="40.7579150" lon="-5.7481970">
        <ele>990.4</ele>
        <time>2021-10-15T07:48:20Z</time>
      </trkpt>
      <trkpt lat="40.7578840" lon="-5.7482580">
        <ele>990.8</ele>
        <time>2021-10-15T07:48:22Z</time>
      </trkpt>
      <trkpt lat="40.7578510" lon="-5.7483190">
        <ele>991.0</ele>
        <time>2021-10-15T07:48:24Z</time>
      </trkpt>
      <trkpt lat="40.7578150" lon="-5.7484010">
        <ele>991.6</ele>
        <time>2021-10-15T07:48:27Z</time>
      </trkpt>
      <trkpt lat="40.7577070" lon="-5.7486040">
        <ele>992.4</ele>
        <time>2021-10-15T07:48:34Z</time>
      </trkpt>
      <trkpt lat="40.7576770" lon="-5.7486560">
        <ele>992.6</ele>
        <time>2021-10-15T07:48:36Z</time>
      </trkpt>
      <trkpt lat="40.7576060" lon="-5.7487970">
        <ele>993.0</ele>
        <time>2021-10-15T07:48:41Z</time>
      </trkpt>
      <trkpt lat="40.7575770" lon="-5.7488510">
        <ele>993.4</ele>
        <time>2021-10-15T07:48:43Z</time>
      </trkpt>
      <trkpt lat="40.7575610" lon="-5.7488820">
        <ele>993.4</ele>
        <time>2021-10-15T07:48:44Z</time>
      </trkpt>
      <trkpt lat="40.7575390" lon="-5.7489320">
        <ele>993.4</ele>
        <time>2021-10-15T07:48:46Z</time>
      </trkpt>
      <trkpt lat="40.7575070" lon="-5.7489860">
        <ele>993.8</ele>
        <time>2021-10-15T07:48:48Z</time>
      </trkpt>
      <trkpt lat="40.7574840" lon="-5.7490370">
        <ele>994.0</ele>
        <time>2021-10-15T07:48:50Z</time>
      </trkpt>
      <trkpt lat="40.7574300" lon="-5.7491400">
        <ele>994.4</ele>
        <time>2021-10-15T07:48:54Z</time>
      </trkpt>
      <trkpt lat="40.7574000" lon="-5.7491910">
        <ele>994.6</ele>
        <time>2021-10-15T07:48:56Z</time>
      </trkpt>
      <trkpt lat="40.7573880" lon="-5.7492170">
        <ele>994.8</ele>
        <time>2021-10-15T07:48:57Z</time>
      </trkpt>
      <trkpt lat="40.7573230" lon="-5.7493590">
        <ele>995.6</ele>
        <time>2021-10-15T07:49:02Z</time>
      </trkpt>
      <trkpt lat="40.7573110" lon="-5.7493790">
        <ele>995.8</ele>
        <time>2021-10-15T07:49:03Z</time>
      </trkpt>
      <trkpt lat="40.7572950" lon="-5.7494010">
        <ele>996.0</ele>
        <time>2021-10-15T07:49:04Z</time>
      </trkpt>
      <trkpt lat="40.7572670" lon="-5.7494510">
        <ele>996.2</ele>
        <time>2021-10-15T07:49:06Z</time>
      </trkpt>
      <trkpt lat="40.7572150" lon="-5.7495480">
        <ele>996.6</ele>
        <time>2021-10-15T07:49:10Z</time>
      </trkpt>
      <trkpt lat="40.7571600" lon="-5.7496240">
        <ele>996.8</ele>
        <time>2021-10-15T07:49:13Z</time>
      </trkpt>
      <trkpt lat="40.7571460" lon="-5.7496410">
        <ele>997.0</ele>
        <time>2021-10-15T07:49:14Z</time>
      </trkpt>
      <trkpt lat="40.7570470" lon="-5.7497270">
        <ele>997.6</ele>
        <time>2021-10-15T07:49:19Z</time>
      </trkpt>
      <trkpt lat="40.7570220" lon="-5.7497460">
        <ele>997.8</ele>
        <time>2021-10-15T07:49:20Z</time>
      </trkpt>
      <trkpt lat="40.7569630" lon="-5.7497870">
        <ele>998.0</ele>
        <time>2021-10-15T07:49:23Z</time>
      </trkpt>
      <trkpt lat="40.7569140" lon="-5.7498060">
        <ele>998.0</ele>
        <time>2021-10-15T07:49:25Z</time>
      </trkpt>
      <trkpt lat="40.7568660" lon="-5.7498260">
        <ele>998.0</ele>
        <time>2021-10-15T07:49:27Z</time>
      </trkpt>
      <trkpt lat="40.7568110" lon="-5.7498470">
        <ele>998.0</ele>
        <time>2021-10-15T07:49:29Z</time>
      </trkpt>
      <trkpt lat="40.7567650" lon="-5.7498620">
        <ele>998.0</ele>
        <time>2021-10-15T07:49:31Z</time>
      </trkpt>
      <trkpt lat="40.7566170" lon="-5.7499120">
        <ele>998.2</ele>
        <time>2021-10-15T07:49:37Z</time>
      </trkpt>
      <trkpt lat="40.7564050" lon="-5.7499810">
        <ele>998.6</ele>
        <time>2021-10-15T07:49:46Z</time>
      </trkpt>
      <trkpt lat="40.7563030" lon="-5.7500170">
        <ele>998.8</ele>
        <time>2021-10-15T07:49:50Z</time>
      </trkpt>
      <trkpt lat="40.7562370" lon="-5.7500400">
        <ele>998.8</ele>
        <time>2021-10-15T07:49:53Z</time>
      </trkpt>
      <trkpt lat="40.7561920" lon="-5.7500560">
        <ele>999.0</ele>
        <time>2021-10-15T07:49:55Z</time>
      </trkpt>
      <trkpt lat="40.7561180" lon="-5.7500810">
        <ele>999.2</ele>
        <time>2021-10-15T07:49:58Z</time>
      </trkpt>
      <trkpt lat="40.7559980" lon="-5.7501240">
        <ele>999.8</ele>
        <time>2021-10-15T07:50:03Z</time>
      </trkpt>
      <trkpt lat="40.7559560" lon="-5.7501360">
        <ele>1000.0</ele>
        <time>2021-10-15T07:50:05Z</time>
      </trkpt>
      <trkpt lat="40.7558340" lon="-5.7501740">
        <ele>1000.4</ele>
        <time>2021-10-15T07:50:10Z</time>
      </trkpt>
      <trkpt lat="40.7558090" lon="-5.7501820">
        <ele>1000.6</ele>
        <time>2021-10-15T07:50:11Z</time>
      </trkpt>
      <trkpt lat="40.7557260" lon="-5.7502080">
        <ele>1000.6</ele>
        <time>2021-10-15T07:50:14Z</time>
      </trkpt>
      <trkpt lat="40.7555920" lon="-5.7502510">
        <ele>1000.8</ele>
        <time>2021-10-15T07:50:18Z</time>
      </trkpt>
      <trkpt lat="40.7555020" lon="-5.7502840">
        <ele>1000.8</ele>
        <time>2021-10-15T07:50:21Z</time>
      </trkpt>
      <trkpt lat="40.7551790" lon="-5.7503880">
        <ele>1000.6</ele>
        <time>2021-10-15T07:50:30Z</time>
      </trkpt>
      <trkpt lat="40.7551310" lon="-5.7504060">
        <ele>1000.6</ele>
        <time>2021-10-15T07:50:31Z</time>
      </trkpt>
      <trkpt lat="40.7549680" lon="-5.7504630">
        <ele>1000.4</ele>
        <time>2021-10-15T07:50:35Z</time>
      </trkpt>
      <trkpt lat="40.7548290" lon="-5.7505080">
        <ele>999.8</ele>
        <time>2021-10-15T07:50:38Z</time>
      </trkpt>
      <trkpt lat="40.7547730" lon="-5.7505290">
        <ele>999.8</ele>
        <time>2021-10-15T07:50:39Z</time>
      </trkpt>
      <trkpt lat="40.7544630" lon="-5.7506360">
        <ele>998.8</ele>
        <time>2021-10-15T07:50:45Z</time>
      </trkpt>
      <trkpt lat="40.7543930" lon="-5.7506580">
        <ele>998.8</ele>
        <time>2021-10-15T07:50:46Z</time>
      </trkpt>
      <trkpt lat="40.7540960" lon="-5.7507620">
        <ele>997.6</ele>
        <time>2021-10-15T07:50:51Z</time>
      </trkpt>
      <trkpt lat="40.7538990" lon="-5.7508280">
        <ele>997.0</ele>
        <time>2021-10-15T07:50:54Z</time>
      </trkpt>
      <trkpt lat="40.7537580" lon="-5.7508730">
        <ele>996.6</ele>
        <time>2021-10-15T07:50:56Z</time>
      </trkpt>
      <trkpt lat="40.7534610" lon="-5.7509780">
        <ele>995.2</ele>
        <time>2021-10-15T07:51:00Z</time>
      </trkpt>
      <trkpt lat="40.7533840" lon="-5.7510060">
        <ele>995.0</ele>
        <time>2021-10-15T07:51:01Z</time>
      </trkpt>
      <trkpt lat="40.7532070" lon="-5.7510660">
        <ele>993.8</ele>
        <time>2021-10-15T07:51:03Z</time>
      </trkpt>
      <trkpt lat="40.7529770" lon="-5.7511390">
        <ele>992.8</ele>
        <time>2021-10-15T07:51:06Z</time>
      </trkpt>
      <trkpt lat="40.7527270" lon="-5.7512270">
        <ele>991.8</ele>
        <time>2021-10-15T07:51:09Z</time>
      </trkpt>
      <trkpt lat="40.7526680" lon="-5.7512470">
        <ele>991.6</ele>
        <time>2021-10-15T07:51:10Z</time>
      </trkpt>
      <trkpt lat="40.7524380" lon="-5.7513240">
        <ele>990.4</ele>
        <time>2021-10-15T07:51:13Z</time>
      </trkpt>
      <trkpt lat="40.7522380" lon="-5.7513890">
        <ele>989.8</ele>
        <time>2021-10-15T07:51:16Z</time>
      </trkpt>
      <trkpt lat="40.7519400" lon="-5.7514850">
        <ele>989.4</ele>
        <time>2021-10-15T07:51:21Z</time>
      </trkpt>
      <trkpt lat="40.7517610" lon="-5.7515460">
        <ele>989.2</ele>
        <time>2021-10-15T07:51:24Z</time>
      </trkpt>
      <trkpt lat="40.7513680" lon="-5.7516860">
        <ele>988.4</ele>
        <time>2021-10-15T07:51:31Z</time>
      </trkpt>
      <trkpt lat="40.7512560" lon="-5.7517260">
        <ele>988.0</ele>
        <time>2021-10-15T07:51:33Z</time>
      </trkpt>
      <trkpt lat="40.7508710" lon="-5.7518560">
        <ele>987.2</ele>
        <time>2021-10-15T07:51:40Z</time>
      </trkpt>
      <trkpt lat="40.7505420" lon="-5.7519730">
        <ele>986.6</ele>
        <time>2021-10-15T07:51:46Z</time>
      </trkpt>
      <trkpt lat="40.7504320" lon="-5.7520090">
        <ele>986.2</ele>
        <time>2021-10-15T07:51:48Z</time>
      </trkpt>
      <trkpt lat="40.7500370" lon="-5.7521030">
        <ele>985.2</ele>
        <time>2021-10-15T07:51:55Z</time>
      </trkpt>
      <trkpt lat="40.7499940" lon="-5.7521080">
        <ele>985.2</ele>
        <time>2021-10-15T07:51:56Z</time>
      </trkpt>
      <trkpt lat="40.7495990" lon="-5.7521220">
        <ele>984.6</ele>
        <time>2021-10-15T07:52:03Z</time>
      </trkpt>
      <trkpt lat="40.7494350" lon="-5.7521270">
        <ele>984.4</ele>
        <time>2021-10-15T07:52:06Z</time>
      </trkpt>
      <trkpt lat="40.7491920" lon="-5.7521270">
        <ele>984.4</ele>
        <time>2021-10-15T07:52:11Z</time>
      </trkpt>
      <trkpt lat="40.7491030" lon="-5.7521290">
        <ele>984.6</ele>
        <time>2021-10-15T07:52:13Z</time>
      </trkpt>
      <trkpt lat="40.7487700" lon="-5.7521360">
        <ele>985.6</ele>
        <time>2021-10-15T07:52:21Z</time>
      </trkpt>
      <trkpt lat="40.7486790" lon="-5.7521400">
        <ele>986.0</ele>
        <time>2021-10-15T07:52:23Z</time>
      </trkpt>
      <trkpt lat="40.7486450" lon="-5.7521400">
        <ele>986.2</ele>
        <time>2021-10-15T07:52:24Z</time>
      </trkpt>
      <trkpt lat="40.7483250" lon="-5.7521470">
        <ele>987.0</ele>
        <time>2021-10-15T07:52:32Z</time>
      </trkpt>
      <trkpt lat="40.7482960" lon="-5.7521470">
        <ele>987.2</ele>
        <time>2021-10-15T07:52:33Z</time>
      </trkpt>
      <trkpt lat="40.7479810" lon="-5.7521610">
        <ele>988.2</ele>
        <time>2021-10-15T07:52:42Z</time>
      </trkpt>
      <trkpt lat="40.7479130" lon="-5.7521640">
        <ele>988.4</ele>
        <time>2021-10-15T07:52:44Z</time>
      </trkpt>
      <trkpt lat="40.7477070" lon="-5.7521600">
        <ele>989.0</ele>
        <time>2021-10-15T07:52:50Z</time>
      </trkpt>
      <trkpt lat="40.7476040" lon="-5.7521750">
        <ele>989.4</ele>
        <time>2021-10-15T07:52:53Z</time>
      </trkpt>
      <trkpt lat="40.7475330" lon="-5.7521760">
        <ele>989.4</ele>
        <time>2021-10-15T07:52:55Z</time>
      </trkpt>
      <trkpt lat="40.7474980" lon="-5.7521770">
        <ele>989.4</ele>
        <time>2021-10-15T07:52:56Z</time>
      </trkpt>
      <trkpt lat="40.7473650" lon="-5.7521800">
        <ele>990.0</ele>
        <time>2021-10-15T07:53:00Z</time>
      </trkpt>
      <trkpt lat="40.7472660" lon="-5.7521810">
        <ele>990.4</ele>
        <time>2021-10-15T07:53:03Z</time>
      </trkpt>
      <trkpt lat="40.7472330" lon="-5.7521830">
        <ele>990.6</ele>
        <time>2021-10-15T07:53:04Z</time>
      </trkpt>
      <trkpt lat="40.7471340" lon="-5.7521940">
        <ele>991.0</ele>
        <time>2021-10-15T07:53:07Z</time>
      </trkpt>
      <trkpt lat="40.7470990" lon="-5.7521970">
        <ele>991.0</ele>
        <time>2021-10-15T07:53:08Z</time>
      </trkpt>
      <trkpt lat="40.7470300" lon="-5.7522140">
        <ele>991.2</ele>
        <time>2021-10-15T07:53:10Z</time>
      </trkpt>
      <trkpt lat="40.7469970" lon="-5.7522270">
        <ele>991.2</ele>
        <time>2021-10-15T07:53:11Z</time>
      </trkpt>
      <trkpt lat="40.7469610" lon="-5.7522390">
        <ele>991.2</ele>
        <time>2021-10-15T07:53:12Z</time>
      </trkpt>
      <trkpt lat="40.7468870" lon="-5.7522660">
        <ele>991.2</ele>
        <time>2021-10-15T07:53:14Z</time>
      </trkpt>
      <trkpt lat="40.7467330" lon="-5.7523390">
        <ele>991.0</ele>
        <time>2021-10-15T07:53:18Z</time>
      </trkpt>
      <trkpt lat="40.7466740" lon="-5.7523820">
        <ele>991.0</ele>
        <time>2021-10-15T07:53:20Z</time>
      </trkpt>
      <trkpt lat="40.7464430" lon="-5.7525790">
        <ele>990.8</ele>
        <time>2021-10-15T07:53:27Z</time>
      </trkpt>
      <trkpt lat="40.7463410" lon="-5.7526600">
        <ele>990.6</ele>
        <time>2021-10-15T07:53:30Z</time>
      </trkpt>
      <trkpt lat="40.7461820" lon="-5.7528000">
        <ele>990.4</ele>
        <time>2021-10-15T07:53:35Z</time>
      </trkpt>
      <trkpt lat="40.7460840" lon="-5.7528980">
        <ele>990.2</ele>
        <time>2021-10-15T07:53:38Z</time>
      </trkpt>
      <trkpt lat="40.7460120" lon="-5.7529630">
        <ele>990.2</ele>
        <time>2021-10-15T07:53:40Z</time>
      </trkpt>
      <trkpt lat="40.7458300" lon="-5.7531190">
        <ele>989.8</ele>
        <time>2021-10-15T07:53:44Z</time>
      </trkpt>
      <trkpt lat="40.7457210" lon="-5.7532150">
        <ele>989.4</ele>
        <time>2021-10-15T07:53:46Z</time>
      </trkpt>
      <trkpt lat="40.7456000" lon="-5.7533190">
        <ele>989.0</ele>
        <time>2021-10-15T07:53:48Z</time>
      </trkpt>
      <trkpt lat="40.7453970" lon="-5.7534960">
        <ele>987.6</ele>
        <time>2021-10-15T07:53:51Z</time>
      </trkpt>
      <trkpt lat="40.7453250" lon="-5.7535580">
        <ele>987.4</ele>
        <time>2021-10-15T07:53:52Z</time>
      </trkpt>
      <trkpt lat="40.7451770" lon="-5.7536910">
        <ele>986.2</ele>
        <time>2021-10-15T07:53:54Z</time>
      </trkpt>
      <trkpt lat="40.7450230" lon="-5.7538290">
        <ele>985.0</ele>
        <time>2021-10-15T07:53:56Z</time>
      </trkpt>
      <trkpt lat="40.7447790" lon="-5.7540480">
        <ele>983.2</ele>
        <time>2021-10-15T07:53:59Z</time>
      </trkpt>
      <trkpt lat="40.7446110" lon="-5.7542010">
        <ele>981.6</ele>
        <time>2021-10-15T07:54:01Z</time>
      </trkpt>
      <trkpt lat="40.7444350" lon="-5.7543560">
        <ele>980.4</ele>
        <time>2021-10-15T07:54:03Z</time>
      </trkpt>
      <trkpt lat="40.7442570" lon="-5.7545130">
        <ele>979.4</ele>
        <time>2021-10-15T07:54:05Z</time>
      </trkpt>
      <trkpt lat="40.7440820" lon="-5.7546760">
        <ele>978.4</ele>
        <time>2021-10-15T07:54:07Z</time>
      </trkpt>
      <trkpt lat="40.7439920" lon="-5.7547540">
        <ele>977.2</ele>
        <time>2021-10-15T07:54:08Z</time>
      </trkpt>
      <trkpt lat="40.7438150" lon="-5.7549090">
        <ele>975.2</ele>
        <time>2021-10-15T07:54:10Z</time>
      </trkpt>
      <trkpt lat="40.7436410" lon="-5.7550610">
        <ele>974.0</ele>
        <time>2021-10-15T07:54:12Z</time>
      </trkpt>
      <trkpt lat="40.7434710" lon="-5.7552160">
        <ele>972.8</ele>
        <time>2021-10-15T07:54:14Z</time>
      </trkpt>
      <trkpt lat="40.7432890" lon="-5.7553860">
        <ele>971.6</ele>
        <time>2021-10-15T07:54:16Z</time>
      </trkpt>
      <trkpt lat="40.7431440" lon="-5.7555190">
        <ele>970.4</ele>
        <time>2021-10-15T07:54:18Z</time>
      </trkpt>
      <trkpt lat="40.7429050" lon="-5.7557300">
        <ele>969.4</ele>
        <time>2021-10-15T07:54:21Z</time>
      </trkpt>
      <trkpt lat="40.7427510" lon="-5.7558700">
        <ele>968.4</ele>
        <time>2021-10-15T07:54:23Z</time>
      </trkpt>
      <trkpt lat="40.7426730" lon="-5.7559390">
        <ele>968.0</ele>
        <time>2021-10-15T07:54:24Z</time>
      </trkpt>
      <trkpt lat="40.7424430" lon="-5.7561430">
        <ele>966.8</ele>
        <time>2021-10-15T07:54:27Z</time>
      </trkpt>
      <trkpt lat="40.7422190" lon="-5.7563390">
        <ele>965.8</ele>
        <time>2021-10-15T07:54:30Z</time>
      </trkpt>
      <trkpt lat="40.7420030" lon="-5.7565380">
        <ele>965.0</ele>
        <time>2021-10-15T07:54:33Z</time>
      </trkpt>
      <trkpt lat="40.7418590" lon="-5.7566670">
        <ele>964.2</ele>
        <time>2021-10-15T07:54:35Z</time>
      </trkpt>
      <trkpt lat="40.7416500" lon="-5.7568510">
        <ele>963.2</ele>
        <time>2021-10-15T07:54:38Z</time>
      </trkpt>
      <trkpt lat="40.7414490" lon="-5.7570290">
        <ele>962.0</ele>
        <time>2021-10-15T07:54:41Z</time>
      </trkpt>
      <trkpt lat="40.7413830" lon="-5.7570890">
        <ele>961.8</ele>
        <time>2021-10-15T07:54:42Z</time>
      </trkpt>
      <trkpt lat="40.7411250" lon="-5.7573150">
        <ele>960.8</ele>
        <time>2021-10-15T07:54:46Z</time>
      </trkpt>
      <trkpt lat="40.7408670" lon="-5.7575400">
        <ele>959.6</ele>
        <time>2021-10-15T07:54:50Z</time>
      </trkpt>
      <trkpt lat="40.7405420" lon="-5.7578230">
        <ele>958.4</ele>
        <time>2021-10-15T07:54:55Z</time>
      </trkpt>
      <trkpt lat="40.7403300" lon="-5.7579850">
        <ele>957.8</ele>
        <time>2021-10-15T07:54:58Z</time>
      </trkpt>
      <trkpt lat="40.7402110" lon="-5.7580700">
        <ele>957.2</ele>
        <time>2021-10-15T07:55:00Z</time>
      </trkpt>
      <trkpt lat="40.7399340" lon="-5.7582460">
        <ele>956.2</ele>
        <time>2021-10-15T07:55:04Z</time>
      </trkpt>
      <trkpt lat="40.7397910" lon="-5.7583280">
        <ele>955.6</ele>
        <time>2021-10-15T07:55:06Z</time>
      </trkpt>
      <trkpt lat="40.7396500" lon="-5.7584120">
        <ele>955.0</ele>
        <time>2021-10-15T07:55:08Z</time>
      </trkpt>
      <trkpt lat="40.7393550" lon="-5.7585870">
        <ele>953.8</ele>
        <time>2021-10-15T07:55:12Z</time>
      </trkpt>
      <trkpt lat="40.7391560" lon="-5.7587050">
        <ele>953.2</ele>
        <time>2021-10-15T07:55:15Z</time>
      </trkpt>
      <trkpt lat="40.7389990" lon="-5.7588000">
        <ele>952.6</ele>
        <time>2021-10-15T07:55:17Z</time>
      </trkpt>
      <trkpt lat="40.7387270" lon="-5.7589590">
        <ele>951.8</ele>
        <time>2021-10-15T07:55:21Z</time>
      </trkpt>
      <trkpt lat="40.7385860" lon="-5.7590460">
        <ele>951.6</ele>
        <time>2021-10-15T07:55:23Z</time>
      </trkpt>
      <trkpt lat="40.7382360" lon="-5.7592610">
        <ele>950.4</ele>
        <time>2021-10-15T07:55:28Z</time>
      </trkpt>
      <trkpt lat="40.7379580" lon="-5.7594320">
        <ele>949.2</ele>
        <time>2021-10-15T07:55:32Z</time>
      </trkpt>
      <trkpt lat="40.7376840" lon="-5.7595970">
        <ele>948.6</ele>
        <time>2021-10-15T07:55:36Z</time>
      </trkpt>
      <trkpt lat="40.7375470" lon="-5.7596780">
        <ele>948.2</ele>
        <time>2021-10-15T07:55:38Z</time>
      </trkpt>
      <trkpt lat="40.7372810" lon="-5.7598090">
        <ele>947.4</ele>
        <time>2021-10-15T07:55:42Z</time>
      </trkpt>
      <trkpt lat="40.7372160" lon="-5.7598220">
        <ele>947.2</ele>
        <time>2021-10-15T07:55:43Z</time>
      </trkpt>
      <trkpt lat="40.7368920" lon="-5.7597900">
        <ele>946.4</ele>
        <time>2021-10-15T07:55:48Z</time>
      </trkpt>
      <trkpt lat="40.7367040" lon="-5.7597360">
        <ele>946.2</ele>
        <time>2021-10-15T07:55:51Z</time>
      </trkpt>
      <trkpt lat="40.7363360" lon="-5.7596130">
        <ele>946.0</ele>
        <time>2021-10-15T07:55:57Z</time>
      </trkpt>
      <trkpt lat="40.7358430" lon="-5.7594630">
        <ele>945.8</ele>
        <time>2021-10-15T07:56:05Z</time>
      </trkpt>
      <trkpt lat="40.7357180" lon="-5.7594500">
        <ele>945.8</ele>
        <time>2021-10-15T07:56:07Z</time>
      </trkpt>
      <trkpt lat="40.7353500" lon="-5.7595040">
        <ele>945.4</ele>
        <time>2021-10-15T07:56:13Z</time>
      </trkpt>
      <trkpt lat="40.7352870" lon="-5.7595100">
        <ele>945.4</ele>
        <time>2021-10-15T07:56:14Z</time>
      </trkpt>
      <trkpt lat="40.7351630" lon="-5.7594980">
        <ele>945.2</ele>
        <time>2021-10-15T07:56:16Z</time>
      </trkpt>
      <trkpt lat="40.7351030" lon="-5.7594760">
        <ele>945.0</ele>
        <time>2021-10-15T07:56:17Z</time>
      </trkpt>
      <trkpt lat="40.7350420" lon="-5.7594410">
        <ele>945.0</ele>
        <time>2021-10-15T07:56:18Z</time>
      </trkpt>
      <trkpt lat="40.7349290" lon="-5.7593530">
        <ele>944.8</ele>
        <time>2021-10-15T07:56:20Z</time>
      </trkpt>
      <trkpt lat="40.7348220" lon="-5.7592580">
        <ele>944.6</ele>
        <time>2021-10-15T07:56:22Z</time>
      </trkpt>
      <trkpt lat="40.7345370" lon="-5.7590200">
        <ele>944.2</ele>
        <time>2021-10-15T07:56:27Z</time>
      </trkpt>
      <trkpt lat="40.7344640" lon="-5.7589900">
        <ele>944.0</ele>
        <time>2021-10-15T07:56:28Z</time>
      </trkpt>
      <trkpt lat="40.7343850" lon="-5.7589770">
        <ele>944.0</ele>
        <time>2021-10-15T07:56:29Z</time>
      </trkpt>
      <trkpt lat="40.7342130" lon="-5.7590030">
        <ele>943.4</ele>
        <time>2021-10-15T07:56:31Z</time>
      </trkpt>
      <trkpt lat="40.7341250" lon="-5.7590340">
        <ele>942.8</ele>
        <time>2021-10-15T07:56:32Z</time>
      </trkpt>
      <trkpt lat="40.7338770" lon="-5.7591370">
        <ele>941.6</ele>
        <time>2021-10-15T07:56:35Z</time>
      </trkpt>
      <trkpt lat="40.7338060" lon="-5.7591620">
        <ele>940.8</ele>
        <time>2021-10-15T07:56:36Z</time>
      </trkpt>
      <trkpt lat="40.7337440" lon="-5.7591850">
        <ele>940.2</ele>
        <time>2021-10-15T07:56:37Z</time>
      </trkpt>
      <trkpt lat="40.7336470" lon="-5.7592210">
        <ele>938.2</ele>
        <time>2021-10-15T07:56:39Z</time>
      </trkpt>
      <trkpt lat="40.7335780" lon="-5.7592360">
        <ele>936.6</ele>
        <time>2021-10-15T07:56:41Z</time>
      </trkpt>
      <trkpt lat="40.7335610" lon="-5.7592310">
        <ele>936.2</ele>
        <time>2021-10-15T07:56:42Z</time>
      </trkpt>
      <trkpt lat="40.7335360" lon="-5.7592220">
        <ele>935.4</ele>
        <time>2021-10-15T07:56:44Z</time>
      </trkpt>
      <trkpt lat="40.7335320" lon="-5.7592210">
        <ele>935.0</ele>
        <time>2021-10-15T07:56:46Z</time>
      </trkpt>
      <trkpt lat="40.7335050" lon="-5.7592700">
        <ele>934.0</ele>
        <time>2021-10-15T07:58:24Z</time>
      </trkpt>
      <trkpt lat="40.7334320" lon="-5.7592830">
        <ele>934.0</ele>
        <time>2021-10-15T07:58:27Z</time>
      </trkpt>
      <trkpt lat="40.7332940" lon="-5.7593390">
        <ele>934.0</ele>
        <time>2021-10-15T07:58:33Z</time>
      </trkpt>
      <trkpt lat="40.7331260" lon="-5.7593930">
        <ele>934.2</ele>
        <time>2021-10-15T07:58:40Z</time>
      </trkpt>
      <trkpt lat="40.7330530" lon="-5.7594150">
        <ele>934.4</ele>
        <time>2021-10-15T07:58:43Z</time>
      </trkpt>
      <trkpt lat="40.7329780" lon="-5.7594470">
        <ele>934.4</ele>
        <time>2021-10-15T07:58:46Z</time>
      </trkpt>
      <trkpt lat="40.7329250" lon="-5.7594650">
        <ele>934.6</ele>
        <time>2021-10-15T07:58:48Z</time>
      </trkpt>
      <trkpt lat="40.7328220" lon="-5.7595040">
        <ele>935.0</ele>
        <time>2021-10-15T07:58:52Z</time>
      </trkpt>
      <trkpt lat="40.7326900" lon="-5.7595430">
        <ele>935.6</ele>
        <time>2021-10-15T07:58:57Z</time>
      </trkpt>
      <trkpt lat="40.7326250" lon="-5.7595640">
        <ele>936.2</ele>
        <time>2021-10-15T07:59:00Z</time>
      </trkpt>
      <trkpt lat="40.7325500" lon="-5.7595890">
        <ele>936.6</ele>
        <time>2021-10-15T07:59:03Z</time>
      </trkpt>
      <trkpt lat="40.7324990" lon="-5.7596030">
        <ele>936.8</ele>
        <time>2021-10-15T07:59:05Z</time>
      </trkpt>
      <trkpt lat="40.7322870" lon="-5.7596810">
        <ele>937.6</ele>
        <time>2021-10-15T07:59:13Z</time>
      </trkpt>
      <trkpt lat="40.7322030" lon="-5.7597070">
        <ele>937.6</ele>
        <time>2021-10-15T07:59:16Z</time>
      </trkpt>
      <trkpt lat="40.7321550" lon="-5.7597240">
        <ele>938.0</ele>
        <time>2021-10-15T07:59:18Z</time>
      </trkpt>
      <trkpt lat="40.7320580" lon="-5.7597600">
        <ele>938.2</ele>
        <time>2021-10-15T07:59:22Z</time>
      </trkpt>
      <trkpt lat="40.7320090" lon="-5.7597760">
        <ele>938.6</ele>
        <time>2021-10-15T07:59:24Z</time>
      </trkpt>
      <trkpt lat="40.7317870" lon="-5.7598460">
        <ele>939.6</ele>
        <time>2021-10-15T07:59:33Z</time>
      </trkpt>
      <trkpt lat="40.7316590" lon="-5.7598940">
        <ele>940.2</ele>
        <time>2021-10-15T07:59:38Z</time>
      </trkpt>
      <trkpt lat="40.7315610" lon="-5.7599250">
        <ele>940.6</ele>
        <time>2021-10-15T07:59:42Z</time>
      </trkpt>
      <trkpt lat="40.7314250" lon="-5.7599720">
        <ele>940.8</ele>
        <time>2021-10-15T07:59:47Z</time>
      </trkpt>
      <trkpt lat="40.7313200" lon="-5.7600100">
        <ele>941.4</ele>
        <time>2021-10-15T07:59:51Z</time>
      </trkpt>
      <trkpt lat="40.7312390" lon="-5.7600430">
        <ele>941.6</ele>
        <time>2021-10-15T07:59:54Z</time>
      </trkpt>
      <trkpt lat="40.7311610" lon="-5.7600670">
        <ele>942.0</ele>
        <time>2021-10-15T07:59:57Z</time>
      </trkpt>
      <trkpt lat="40.7309150" lon="-5.7601430">
        <ele>942.8</ele>
        <time>2021-10-15T08:00:06Z</time>
      </trkpt>
      <trkpt lat="40.7308540" lon="-5.7601650">
        <ele>943.0</ele>
        <time>2021-10-15T08:00:08Z</time>
      </trkpt>
      <trkpt lat="40.7307360" lon="-5.7602080">
        <ele>943.2</ele>
        <time>2021-10-15T08:00:12Z</time>
      </trkpt>
      <trkpt lat="40.7305890" lon="-5.7602600">
        <ele>943.8</ele>
        <time>2021-10-15T08:00:17Z</time>
      </trkpt>
      <trkpt lat="40.7304150" lon="-5.7603440">
        <ele>944.0</ele>
        <time>2021-10-15T08:00:23Z</time>
      </trkpt>
      <trkpt lat="40.7303530" lon="-5.7603760">
        <ele>944.2</ele>
        <time>2021-10-15T08:00:25Z</time>
      </trkpt>
      <trkpt lat="40.7300080" lon="-5.7605800">
        <ele>945.2</ele>
        <time>2021-10-15T08:00:37Z</time>
      </trkpt>
      <trkpt lat="40.7298530" lon="-5.7606780">
        <ele>946.0</ele>
        <time>2021-10-15T08:00:43Z</time>
      </trkpt>
      <trkpt lat="40.7297840" lon="-5.7607200">
        <ele>946.2</ele>
        <time>2021-10-15T08:00:46Z</time>
      </trkpt>
      <trkpt lat="40.7296510" lon="-5.7608010">
        <ele>947.2</ele>
        <time>2021-10-15T08:00:52Z</time>
      </trkpt>
      <trkpt lat="40.7295900" lon="-5.7608330">
        <ele>947.8</ele>
        <time>2021-10-15T08:00:55Z</time>
      </trkpt>
      <trkpt lat="40.7295270" lon="-5.7608760">
        <ele>948.4</ele>
        <time>2021-10-15T08:00:58Z</time>
      </trkpt>
      <trkpt lat="40.7294130" lon="-5.7609480">
        <ele>949.0</ele>
        <time>2021-10-15T08:01:03Z</time>
      </trkpt>
      <trkpt lat="40.7293700" lon="-5.7609730">
        <ele>949.4</ele>
        <time>2021-10-15T08:01:05Z</time>
      </trkpt>
      <trkpt lat="40.7292040" lon="-5.7610690">
        <ele>950.4</ele>
        <time>2021-10-15T08:01:12Z</time>
      </trkpt>
      <trkpt lat="40.7291550" lon="-5.7610960">
        <ele>950.6</ele>
        <time>2021-10-15T08:01:14Z</time>
      </trkpt>
      <trkpt lat="40.7290600" lon="-5.7611540">
        <ele>951.2</ele>
        <time>2021-10-15T08:01:18Z</time>
      </trkpt>
      <trkpt lat="40.7289880" lon="-5.7612040">
        <ele>951.4</ele>
        <time>2021-10-15T08:01:21Z</time>
      </trkpt>
      <trkpt lat="40.7288910" lon="-5.7612680">
        <ele>951.8</ele>
        <time>2021-10-15T08:01:25Z</time>
      </trkpt>
      <trkpt lat="40.7286710" lon="-5.7614040">
        <ele>952.6</ele>
        <time>2021-10-15T08:01:34Z</time>
      </trkpt>
      <trkpt lat="40.7286220" lon="-5.7614340">
        <ele>953.0</ele>
        <time>2021-10-15T08:01:36Z</time>
      </trkpt>
      <trkpt lat="40.7284060" lon="-5.7615640">
        <ele>953.6</ele>
        <time>2021-10-15T08:01:45Z</time>
      </trkpt>
      <trkpt lat="40.7283580" lon="-5.7615910">
        <ele>953.8</ele>
        <time>2021-10-15T08:01:47Z</time>
      </trkpt>
      <trkpt lat="40.7283330" lon="-5.7616030">
        <ele>954.0</ele>
        <time>2021-10-15T08:01:48Z</time>
      </trkpt>
      <trkpt lat="40.7282090" lon="-5.7616810">
        <ele>954.6</ele>
        <time>2021-10-15T08:01:53Z</time>
      </trkpt>
      <trkpt lat="40.7281330" lon="-5.7617250">
        <ele>955.2</ele>
        <time>2021-10-15T08:01:56Z</time>
      </trkpt>
      <trkpt lat="40.7278700" lon="-5.7618810">
        <ele>955.6</ele>
        <time>2021-10-15T08:02:05Z</time>
      </trkpt>
      <trkpt lat="40.7278380" lon="-5.7619000">
        <ele>955.8</ele>
        <time>2021-10-15T08:02:06Z</time>
      </trkpt>
      <trkpt lat="40.7276750" lon="-5.7619960">
        <ele>956.0</ele>
        <time>2021-10-15T08:02:11Z</time>
      </trkpt>
      <trkpt lat="40.7276100" lon="-5.7620320">
        <ele>956.2</ele>
        <time>2021-10-15T08:02:13Z</time>
      </trkpt>
      <trkpt lat="40.7275460" lon="-5.7620710">
        <ele>956.2</ele>
        <time>2021-10-15T08:02:15Z</time>
      </trkpt>
      <trkpt lat="40.7272080" lon="-5.7622790">
        <ele>956.4</ele>
        <time>2021-10-15T08:02:25Z</time>
      </trkpt>
      <trkpt lat="40.7271750" lon="-5.7622990">
        <ele>956.2</ele>
        <time>2021-10-15T08:02:26Z</time>
      </trkpt>
      <trkpt lat="40.7271080" lon="-5.7623420">
        <ele>956.4</ele>
        <time>2021-10-15T08:02:28Z</time>
      </trkpt>
      <trkpt lat="40.7270090" lon="-5.7624040">
        <ele>956.8</ele>
        <time>2021-10-15T08:02:31Z</time>
      </trkpt>
      <trkpt lat="40.7269100" lon="-5.7624660">
        <ele>956.8</ele>
        <time>2021-10-15T08:02:34Z</time>
      </trkpt>
      <trkpt lat="40.7268460" lon="-5.7625030">
        <ele>956.8</ele>
        <time>2021-10-15T08:02:36Z</time>
      </trkpt>
      <trkpt lat="40.7266570" lon="-5.7626210">
        <ele>957.6</ele>
        <time>2021-10-15T08:02:42Z</time>
      </trkpt>
      <trkpt lat="40.7265600" lon="-5.7626770">
        <ele>957.8</ele>
        <time>2021-10-15T08:02:45Z</time>
      </trkpt>
      <trkpt lat="40.7265300" lon="-5.7626960">
        <ele>957.8</ele>
        <time>2021-10-15T08:02:46Z</time>
      </trkpt>
      <trkpt lat="40.7264130" lon="-5.7627720">
        <ele>958.2</ele>
        <time>2021-10-15T08:02:50Z</time>
      </trkpt>
      <trkpt lat="40.7263250" lon="-5.7628170">
        <ele>958.8</ele>
        <time>2021-10-15T08:02:53Z</time>
      </trkpt>
      <trkpt lat="40.7262130" lon="-5.7628810">
        <ele>959.2</ele>
        <time>2021-10-15T08:02:57Z</time>
      </trkpt>
      <trkpt lat="40.7261030" lon="-5.7629490">
        <ele>959.8</ele>
        <time>2021-10-15T08:03:01Z</time>
      </trkpt>
      <trkpt lat="40.7260260" lon="-5.7629950">
        <ele>960.2</ele>
        <time>2021-10-15T08:03:04Z</time>
      </trkpt>
      <trkpt lat="40.7259160" lon="-5.7630580">
        <ele>960.6</ele>
        <time>2021-10-15T08:03:08Z</time>
      </trkpt>
      <trkpt lat="40.7258870" lon="-5.7630760">
        <ele>960.8</ele>
        <time>2021-10-15T08:03:09Z</time>
      </trkpt>
      <trkpt lat="40.7258580" lon="-5.7630950">
        <ele>960.8</ele>
        <time>2021-10-15T08:03:10Z</time>
      </trkpt>
      <trkpt lat="40.7256150" lon="-5.7632540">
        <ele>961.6</ele>
        <time>2021-10-15T08:03:19Z</time>
      </trkpt>
      <trkpt lat="40.7255600" lon="-5.7632860">
        <ele>961.6</ele>
        <time>2021-10-15T08:03:21Z</time>
      </trkpt>
      <trkpt lat="40.7255070" lon="-5.7633180">
        <ele>961.8</ele>
        <time>2021-10-15T08:03:23Z</time>
      </trkpt>
      <trkpt lat="40.7253780" lon="-5.7633940">
        <ele>962.4</ele>
        <time>2021-10-15T08:03:28Z</time>
      </trkpt>
      <trkpt lat="40.7253020" lon="-5.7634380">
        <ele>962.6</ele>
        <time>2021-10-15T08:03:31Z</time>
      </trkpt>
      <trkpt lat="40.7252770" lon="-5.7634540">
        <ele>962.6</ele>
        <time>2021-10-15T08:03:32Z</time>
      </trkpt>
      <trkpt lat="40.7252260" lon="-5.7634840">
        <ele>962.8</ele>
        <time>2021-10-15T08:03:34Z</time>
      </trkpt>
      <trkpt lat="40.7250320" lon="-5.7636000">
        <ele>963.6</ele>
        <time>2021-10-15T08:03:41Z</time>
      </trkpt>
      <trkpt lat="40.7249140" lon="-5.7636730">
        <ele>963.8</ele>
        <time>2021-10-15T08:03:45Z</time>
      </trkpt>
      <trkpt lat="40.7248180" lon="-5.7637310">
        <ele>964.0</ele>
        <time>2021-10-15T08:03:48Z</time>
      </trkpt>
      <trkpt lat="40.7246590" lon="-5.7638270">
        <ele>964.4</ele>
        <time>2021-10-15T08:03:53Z</time>
      </trkpt>
      <trkpt lat="40.7245580" lon="-5.7638820">
        <ele>964.4</ele>
        <time>2021-10-15T08:03:56Z</time>
      </trkpt>
      <trkpt lat="40.7244240" lon="-5.7639660">
        <ele>964.6</ele>
        <time>2021-10-15T08:04:00Z</time>
      </trkpt>
      <trkpt lat="40.7243570" lon="-5.7640070">
        <ele>964.8</ele>
        <time>2021-10-15T08:04:02Z</time>
      </trkpt>
      <trkpt lat="40.7243230" lon="-5.7640280">
        <ele>964.8</ele>
        <time>2021-10-15T08:04:03Z</time>
      </trkpt>
      <trkpt lat="40.7242210" lon="-5.7640880">
        <ele>964.8</ele>
        <time>2021-10-15T08:04:06Z</time>
      </trkpt>
      <trkpt lat="40.7241880" lon="-5.7641110">
        <ele>964.8</ele>
        <time>2021-10-15T08:04:07Z</time>
      </trkpt>
      <trkpt lat="40.7240910" lon="-5.7641700">
        <ele>965.0</ele>
        <time>2021-10-15T08:04:10Z</time>
      </trkpt>
      <trkpt lat="40.7240580" lon="-5.7641870">
        <ele>965.0</ele>
        <time>2021-10-15T08:04:11Z</time>
      </trkpt>
      <trkpt lat="40.7237710" lon="-5.7643490">
        <ele>965.6</ele>
        <time>2021-10-15T08:04:20Z</time>
      </trkpt>
      <trkpt lat="40.7237090" lon="-5.7643900">
        <ele>965.8</ele>
        <time>2021-10-15T08:04:22Z</time>
      </trkpt>
      <trkpt lat="40.7236770" lon="-5.7644090">
        <ele>966.0</ele>
        <time>2021-10-15T08:04:23Z</time>
      </trkpt>
      <trkpt lat="40.7235250" lon="-5.7645020">
        <ele>966.2</ele>
        <time>2021-10-15T08:04:28Z</time>
      </trkpt>
      <trkpt lat="40.7234030" lon="-5.7645730">
        <ele>966.6</ele>
        <time>2021-10-15T08:04:32Z</time>
      </trkpt>
      <trkpt lat="40.7233420" lon="-5.7646110">
        <ele>966.8</ele>
        <time>2021-10-15T08:04:34Z</time>
      </trkpt>
      <trkpt lat="40.7232810" lon="-5.7646490">
        <ele>967.0</ele>
        <time>2021-10-15T08:04:36Z</time>
      </trkpt>
      <trkpt lat="40.7231640" lon="-5.7647140">
        <ele>967.4</ele>
        <time>2021-10-15T08:04:40Z</time>
      </trkpt>
      <trkpt lat="40.7229940" lon="-5.7648190">
        <ele>968.0</ele>
        <time>2021-10-15T08:04:46Z</time>
      </trkpt>
      <trkpt lat="40.7229120" lon="-5.7648750">
        <ele>968.2</ele>
        <time>2021-10-15T08:04:49Z</time>
      </trkpt>
      <trkpt lat="40.7228560" lon="-5.7649100">
        <ele>968.4</ele>
        <time>2021-10-15T08:04:51Z</time>
      </trkpt>
      <trkpt lat="40.7228020" lon="-5.7649420">
        <ele>968.6</ele>
        <time>2021-10-15T08:04:53Z</time>
      </trkpt>
      <trkpt lat="40.7227760" lon="-5.7649580">
        <ele>968.8</ele>
        <time>2021-10-15T08:04:54Z</time>
      </trkpt>
      <trkpt lat="40.7227490" lon="-5.7649750">
        <ele>969.0</ele>
        <time>2021-10-15T08:04:55Z</time>
      </trkpt>
      <trkpt lat="40.7226940" lon="-5.7650080">
        <ele>969.4</ele>
        <time>2021-10-15T08:04:57Z</time>
      </trkpt>
      <trkpt lat="40.7225560" lon="-5.7650890">
        <ele>969.8</ele>
        <time>2021-10-15T08:05:02Z</time>
      </trkpt>
      <trkpt lat="40.7225310" lon="-5.7651070">
        <ele>969.8</ele>
        <time>2021-10-15T08:05:03Z</time>
      </trkpt>
      <trkpt lat="40.7224840" lon="-5.7651420">
        <ele>970.2</ele>
        <time>2021-10-15T08:05:05Z</time>
      </trkpt>
      <trkpt lat="40.7223690" lon="-5.7652370">
        <ele>970.8</ele>
        <time>2021-10-15T08:05:10Z</time>
      </trkpt>
      <trkpt lat="40.7223070" lon="-5.7652940">
        <ele>971.2</ele>
        <time>2021-10-15T08:05:13Z</time>
      </trkpt>
      <trkpt lat="40.7222310" lon="-5.7653890">
        <ele>972.0</ele>
        <time>2021-10-15T08:05:17Z</time>
      </trkpt>
      <trkpt lat="40.7221950" lon="-5.7654410">
        <ele>972.2</ele>
        <time>2021-10-15T08:05:19Z</time>
      </trkpt>
      <trkpt lat="40.7220860" lon="-5.7656170">
        <ele>973.4</ele>
        <time>2021-10-15T08:05:26Z</time>
      </trkpt>
      <trkpt lat="40.7220240" lon="-5.7657270">
        <ele>973.8</ele>
        <time>2021-10-15T08:05:30Z</time>
      </trkpt>
      <trkpt lat="40.7219750" lon="-5.7658060">
        <ele>974.4</ele>
        <time>2021-10-15T08:05:33Z</time>
      </trkpt>
      <trkpt lat="40.7218780" lon="-5.7659710">
        <ele>975.2</ele>
        <time>2021-10-15T08:05:39Z</time>
      </trkpt>
      <trkpt lat="40.7218470" lon="-5.7660120">
        <ele>975.6</ele>
        <time>2021-10-15T08:05:41Z</time>
      </trkpt>
      <trkpt lat="40.7217470" lon="-5.7661310">
        <ele>976.4</ele>
        <time>2021-10-15T08:05:47Z</time>
      </trkpt>
      <trkpt lat="40.7217280" lon="-5.7661440">
        <ele>976.6</ele>
        <time>2021-10-15T08:05:48Z</time>
      </trkpt>
      <trkpt lat="40.7216490" lon="-5.7661990">
        <ele>977.0</ele>
        <time>2021-10-15T08:05:52Z</time>
      </trkpt>
      <trkpt lat="40.7216000" lon="-5.7662180">
        <ele>977.4</ele>
        <time>2021-10-15T08:05:54Z</time>
      </trkpt>
      <trkpt lat="40.7215760" lon="-5.7662240">
        <ele>977.4</ele>
        <time>2021-10-15T08:05:55Z</time>
      </trkpt>
      <trkpt lat="40.7215520" lon="-5.7662290">
        <ele>977.6</ele>
        <time>2021-10-15T08:05:56Z</time>
      </trkpt>
      <trkpt lat="40.7213680" lon="-5.7662380">
        <ele>978.4</ele>
        <time>2021-10-15T08:06:03Z</time>
      </trkpt>
      <trkpt lat="40.7213050" lon="-5.7662320">
        <ele>978.6</ele>
        <time>2021-10-15T08:06:05Z</time>
      </trkpt>
      <trkpt lat="40.7212720" lon="-5.7662310">
        <ele>978.6</ele>
        <time>2021-10-15T08:06:06Z</time>
      </trkpt>
      <trkpt lat="40.7212410" lon="-5.7662290">
        <ele>978.6</ele>
        <time>2021-10-15T08:06:07Z</time>
      </trkpt>
      <trkpt lat="40.7211700" lon="-5.7662270">
        <ele>978.8</ele>
        <time>2021-10-15T08:06:09Z</time>
      </trkpt>
      <trkpt lat="40.7210530" lon="-5.7662250">
        <ele>978.8</ele>
        <time>2021-10-15T08:06:12Z</time>
      </trkpt>
      <trkpt lat="40.7208900" lon="-5.7662190">
        <ele>978.8</ele>
        <time>2021-10-15T08:06:16Z</time>
      </trkpt>
      <trkpt lat="40.7207590" lon="-5.7662150">
        <ele>978.8</ele>
        <time>2021-10-15T08:06:19Z</time>
      </trkpt>
      <trkpt lat="40.7204830" lon="-5.7662080">
        <ele>978.8</ele>
        <time>2021-10-15T08:06:25Z</time>
      </trkpt>
      <trkpt lat="40.7203920" lon="-5.7662060">
        <ele>978.8</ele>
        <time>2021-10-15T08:06:27Z</time>
      </trkpt>
      <trkpt lat="40.7202950" lon="-5.7662020">
        <ele>978.8</ele>
        <time>2021-10-15T08:06:29Z</time>
      </trkpt>
      <trkpt lat="40.7200660" lon="-5.7661970">
        <ele>978.6</ele>
        <time>2021-10-15T08:06:34Z</time>
      </trkpt>
      <trkpt lat="40.7199220" lon="-5.7661920">
        <ele>978.6</ele>
        <time>2021-10-15T08:06:37Z</time>
      </trkpt>
      <trkpt lat="40.7198280" lon="-5.7661890">
        <ele>978.6</ele>
        <time>2021-10-15T08:06:39Z</time>
      </trkpt>
      <trkpt lat="40.7193650" lon="-5.7661820">
        <ele>978.4</ele>
        <time>2021-10-15T08:06:49Z</time>
      </trkpt>
      <trkpt lat="40.7191770" lon="-5.7661770">
        <ele>978.4</ele>
        <time>2021-10-15T08:06:53Z</time>
      </trkpt>
      <trkpt lat="40.7191010" lon="-5.7661780">
        <ele>978.4</ele>
        <time>2021-10-15T08:06:55Z</time>
      </trkpt>
      <trkpt lat="40.7189310" lon="-5.7661770">
        <ele>978.8</ele>
        <time>2021-10-15T08:06:59Z</time>
      </trkpt>
      <trkpt lat="40.7185840" lon="-5.7661760">
        <ele>979.2</ele>
        <time>2021-10-15T08:07:07Z</time>
      </trkpt>
      <trkpt lat="40.7185050" lon="-5.7661790">
        <ele>979.2</ele>
        <time>2021-10-15T08:07:09Z</time>
      </trkpt>
      <trkpt lat="40.7181270" lon="-5.7661700">
        <ele>979.8</ele>
        <time>2021-10-15T08:07:18Z</time>
      </trkpt>
      <trkpt lat="40.7180130" lon="-5.7661660">
        <ele>980.0</ele>
        <time>2021-10-15T08:07:21Z</time>
      </trkpt>
      <trkpt lat="40.7176700" lon="-5.7661570">
        <ele>980.6</ele>
        <time>2021-10-15T08:07:30Z</time>
      </trkpt>
      <trkpt lat="40.7176410" lon="-5.7661570">
        <ele>980.8</ele>
        <time>2021-10-15T08:07:31Z</time>
      </trkpt>
      <trkpt lat="40.7173830" lon="-5.7661590">
        <ele>981.8</ele>
        <time>2021-10-15T08:07:38Z</time>
      </trkpt>
      <trkpt lat="40.7173470" lon="-5.7661570">
        <ele>981.8</ele>
        <time>2021-10-15T08:07:39Z</time>
      </trkpt>
      <trkpt lat="40.7172440" lon="-5.7661550">
        <ele>982.2</ele>
        <time>2021-10-15T08:07:42Z</time>
      </trkpt>
      <trkpt lat="40.7170730" lon="-5.7661530">
        <ele>982.8</ele>
        <time>2021-10-15T08:07:47Z</time>
      </trkpt>
      <trkpt lat="40.7169020" lon="-5.7661470">
        <ele>983.2</ele>
        <time>2021-10-15T08:07:52Z</time>
      </trkpt>
      <trkpt lat="40.7168690" lon="-5.7661480">
        <ele>983.4</ele>
        <time>2021-10-15T08:07:53Z</time>
      </trkpt>
      <trkpt lat="40.7168000" lon="-5.7661490">
        <ele>983.4</ele>
        <time>2021-10-15T08:07:55Z</time>
      </trkpt>
      <trkpt lat="40.7166640" lon="-5.7661450">
        <ele>983.8</ele>
        <time>2021-10-15T08:07:59Z</time>
      </trkpt>
      <trkpt lat="40.7166310" lon="-5.7661430">
        <ele>983.8</ele>
        <time>2021-10-15T08:08:00Z</time>
      </trkpt>
      <trkpt lat="40.7164920" lon="-5.7661420">
        <ele>984.2</ele>
        <time>2021-10-15T08:08:04Z</time>
      </trkpt>
      <trkpt lat="40.7162120" lon="-5.7661350">
        <ele>985.0</ele>
        <time>2021-10-15T08:08:12Z</time>
      </trkpt>
      <trkpt lat="40.7160490" lon="-5.7661310">
        <ele>985.6</ele>
        <time>2021-10-15T08:08:17Z</time>
      </trkpt>
      <trkpt lat="40.7159260" lon="-5.7661290">
        <ele>986.0</ele>
        <time>2021-10-15T08:08:21Z</time>
      </trkpt>
      <trkpt lat="40.7158060" lon="-5.7661250">
        <ele>986.4</ele>
        <time>2021-10-15T08:08:25Z</time>
      </trkpt>
      <trkpt lat="40.7156120" lon="-5.7661300">
        <ele>987.0</ele>
        <time>2021-10-15T08:08:31Z</time>
      </trkpt>
      <trkpt lat="40.7155720" lon="-5.7661290">
        <ele>987.2</ele>
        <time>2021-10-15T08:08:32Z</time>
      </trkpt>
      <trkpt lat="40.7154180" lon="-5.7661270">
        <ele>987.6</ele>
        <time>2021-10-15T08:08:37Z</time>
      </trkpt>
      <trkpt lat="40.7152860" lon="-5.7661270">
        <ele>988.2</ele>
        <time>2021-10-15T08:08:41Z</time>
      </trkpt>
      <trkpt lat="40.7151200" lon="-5.7661280">
        <ele>988.8</ele>
        <time>2021-10-15T08:08:46Z</time>
      </trkpt>
      <trkpt lat="40.7150190" lon="-5.7661220">
        <ele>989.2</ele>
        <time>2021-10-15T08:08:49Z</time>
      </trkpt>
      <trkpt lat="40.7149170" lon="-5.7661150">
        <ele>989.4</ele>
        <time>2021-10-15T08:08:52Z</time>
      </trkpt>
      <trkpt lat="40.7148090" lon="-5.7661120">
        <ele>989.6</ele>
        <time>2021-10-15T08:08:55Z</time>
      </trkpt>
      <trkpt lat="40.7146560" lon="-5.7661120">
        <ele>990.0</ele>
        <time>2021-10-15T08:08:59Z</time>
      </trkpt>
      <trkpt lat="40.7145390" lon="-5.7661090">
        <ele>990.0</ele>
        <time>2021-10-15T08:09:02Z</time>
      </trkpt>
      <trkpt lat="40.7144980" lon="-5.7661070">
        <ele>990.0</ele>
        <time>2021-10-15T08:09:03Z</time>
      </trkpt>
      <trkpt lat="40.7144570" lon="-5.7661040">
        <ele>990.0</ele>
        <time>2021-10-15T08:09:04Z</time>
      </trkpt>
      <trkpt lat="40.7144160" lon="-5.7661030">
        <ele>990.2</ele>
        <time>2021-10-15T08:09:05Z</time>
      </trkpt>
      <trkpt lat="40.7143290" lon="-5.7661020">
        <ele>990.2</ele>
        <time>2021-10-15T08:09:07Z</time>
      </trkpt>
      <trkpt lat="40.7140760" lon="-5.7660860">
        <ele>990.2</ele>
        <time>2021-10-15T08:09:13Z</time>
      </trkpt>
      <trkpt lat="40.7138470" lon="-5.7660580">
        <ele>990.4</ele>
        <time>2021-10-15T08:09:18Z</time>
      </trkpt>
      <trkpt lat="40.7135200" lon="-5.7660170">
        <ele>990.2</ele>
        <time>2021-10-15T08:09:25Z</time>
      </trkpt>
      <trkpt lat="40.7131110" lon="-5.7659490">
        <ele>990.2</ele>
        <time>2021-10-15T08:09:34Z</time>
      </trkpt>
      <trkpt lat="40.7130180" lon="-5.7659340">
        <ele>990.2</ele>
        <time>2021-10-15T08:09:36Z</time>
      </trkpt>
      <trkpt lat="40.7128300" lon="-5.7659080">
        <ele>990.0</ele>
        <time>2021-10-15T08:09:40Z</time>
      </trkpt>
      <trkpt lat="40.7126950" lon="-5.7658920">
        <ele>990.0</ele>
        <time>2021-10-15T08:09:43Z</time>
      </trkpt>
      <trkpt lat="40.7126510" lon="-5.7658860">
        <ele>990.0</ele>
        <time>2021-10-15T08:09:44Z</time>
      </trkpt>
      <trkpt lat="40.7125150" lon="-5.7658690">
        <ele>990.0</ele>
        <time>2021-10-15T08:09:47Z</time>
      </trkpt>
      <trkpt lat="40.7123440" lon="-5.7658360">
        <ele>990.0</ele>
        <time>2021-10-15T08:09:51Z</time>
      </trkpt>
      <trkpt lat="40.7118950" lon="-5.7657740">
        <ele>989.8</ele>
        <time>2021-10-15T08:10:00Z</time>
      </trkpt>
      <trkpt lat="40.7118400" lon="-5.7657670">
        <ele>989.4</ele>
        <time>2021-10-15T08:10:01Z</time>
      </trkpt>
      <trkpt lat="40.7117260" lon="-5.7657520">
        <ele>989.0</ele>
        <time>2021-10-15T08:10:03Z</time>
      </trkpt>
      <trkpt lat="40.7116020" lon="-5.7657370">
        <ele>988.8</ele>
        <time>2021-10-15T08:10:05Z</time>
      </trkpt>
      <trkpt lat="40.7114710" lon="-5.7657180">
        <ele>988.6</ele>
        <time>2021-10-15T08:10:07Z</time>
      </trkpt>
      <trkpt lat="40.7111850" lon="-5.7656720">
        <ele>987.8</ele>
        <time>2021-10-15T08:10:11Z</time>
      </trkpt>
      <trkpt lat="40.7109530" lon="-5.7656370">
        <ele>986.8</ele>
        <time>2021-10-15T08:10:14Z</time>
      </trkpt>
      <trkpt lat="40.7107140" lon="-5.7656020">
        <ele>985.2</ele>
        <time>2021-10-15T08:10:17Z</time>
      </trkpt>
      <trkpt lat="40.7103940" lon="-5.7655580">
        <ele>983.8</ele>
        <time>2021-10-15T08:10:21Z</time>
      </trkpt>
      <trkpt lat="40.7100020" lon="-5.7654950">
        <ele>982.6</ele>
        <time>2021-10-15T08:10:26Z</time>
      </trkpt>
      <trkpt lat="40.7096930" lon="-5.7654480">
        <ele>981.6</ele>
        <time>2021-10-15T08:10:30Z</time>
      </trkpt>
      <trkpt lat="40.7093770" lon="-5.7654040">
        <ele>980.6</ele>
        <time>2021-10-15T08:10:34Z</time>
      </trkpt>
      <trkpt lat="40.7093180" lon="-5.7653970">
        <ele>980.4</ele>
        <time>2021-10-15T08:10:35Z</time>
      </trkpt>
      <trkpt lat="40.7089510" lon="-5.7653500">
        <ele>979.4</ele>
        <time>2021-10-15T08:10:40Z</time>
      </trkpt>
      <trkpt lat="40.7086710" lon="-5.7653070">
        <ele>978.8</ele>
        <time>2021-10-15T08:10:44Z</time>
      </trkpt>
      <trkpt lat="40.7084700" lon="-5.7652730">
        <ele>978.4</ele>
        <time>2021-10-15T08:10:47Z</time>
      </trkpt>
      <trkpt lat="40.7082250" lon="-5.7652420">
        <ele>977.6</ele>
        <time>2021-10-15T08:10:51Z</time>
      </trkpt>
      <trkpt lat="40.7078870" lon="-5.7651900">
        <ele>977.6</ele>
        <time>2021-10-15T08:10:57Z</time>
      </trkpt>
      <trkpt lat="40.7077820" lon="-5.7651750">
        <ele>977.8</ele>
        <time>2021-10-15T08:10:59Z</time>
      </trkpt>
      <trkpt lat="40.7075710" lon="-5.7651450">
        <ele>978.0</ele>
        <time>2021-10-15T08:11:03Z</time>
      </trkpt>
      <trkpt lat="40.7073700" lon="-5.7651130">
        <ele>978.2</ele>
        <time>2021-10-15T08:11:07Z</time>
      </trkpt>
      <trkpt lat="40.7068730" lon="-5.7650490">
        <ele>978.8</ele>
        <time>2021-10-15T08:11:17Z</time>
      </trkpt>
      <trkpt lat="40.7065710" lon="-5.7650080">
        <ele>979.4</ele>
        <time>2021-10-15T08:11:23Z</time>
      </trkpt>
      <trkpt lat="40.7063770" lon="-5.7649810">
        <ele>979.6</ele>
        <time>2021-10-15T08:11:27Z</time>
      </trkpt>
      <trkpt lat="40.7059010" lon="-5.7649100">
        <ele>980.2</ele>
        <time>2021-10-15T08:11:37Z</time>
      </trkpt>
      <trkpt lat="40.7056120" lon="-5.7648670">
        <ele>980.2</ele>
        <time>2021-10-15T08:11:43Z</time>
      </trkpt>
      <trkpt lat="40.7055140" lon="-5.7648550">
        <ele>980.4</ele>
        <time>2021-10-15T08:11:45Z</time>
      </trkpt>
      <trkpt lat="40.7054140" lon="-5.7648440">
        <ele>980.4</ele>
        <time>2021-10-15T08:11:47Z</time>
      </trkpt>
      <trkpt lat="40.7053650" lon="-5.7648380">
        <ele>980.4</ele>
        <time>2021-10-15T08:11:48Z</time>
      </trkpt>
      <trkpt lat="40.7051630" lon="-5.7648060">
        <ele>980.2</ele>
        <time>2021-10-15T08:11:52Z</time>
      </trkpt>
      <trkpt lat="40.7050600" lon="-5.7647880">
        <ele>980.2</ele>
        <time>2021-10-15T08:11:54Z</time>
      </trkpt>
      <trkpt lat="40.7049580" lon="-5.7647690">
        <ele>980.2</ele>
        <time>2021-10-15T08:11:56Z</time>
      </trkpt>
      <trkpt lat="40.7048530" lon="-5.7647550">
        <ele>980.2</ele>
        <time>2021-10-15T08:11:58Z</time>
      </trkpt>
      <trkpt lat="40.7046430" lon="-5.7647200">
        <ele>980.4</ele>
        <time>2021-10-15T08:12:02Z</time>
      </trkpt>
      <trkpt lat="40.7045410" lon="-5.7647000">
        <ele>980.4</ele>
        <time>2021-10-15T08:12:04Z</time>
      </trkpt>
      <trkpt lat="40.7044370" lon="-5.7646820">
        <ele>980.4</ele>
        <time>2021-10-15T08:12:06Z</time>
      </trkpt>
      <trkpt lat="40.7041670" lon="-5.7646420">
        <ele>980.6</ele>
        <time>2021-10-15T08:12:11Z</time>
      </trkpt>
      <trkpt lat="40.7039560" lon="-5.7646120">
        <ele>980.6</ele>
        <time>2021-10-15T08:12:15Z</time>
      </trkpt>
      <trkpt lat="40.7037940" lon="-5.7645810">
        <ele>980.6</ele>
        <time>2021-10-15T08:12:18Z</time>
      </trkpt>
      <trkpt lat="40.7036360" lon="-5.7645560">
        <ele>980.6</ele>
        <time>2021-10-15T08:12:21Z</time>
      </trkpt>
      <trkpt lat="40.7035260" lon="-5.7645370">
        <ele>980.6</ele>
        <time>2021-10-15T08:12:23Z</time>
      </trkpt>
      <trkpt lat="40.7034140" lon="-5.7645260">
        <ele>980.4</ele>
        <time>2021-10-15T08:12:25Z</time>
      </trkpt>
      <trkpt lat="40.7033000" lon="-5.7645080">
        <ele>980.4</ele>
        <time>2021-10-15T08:12:27Z</time>
      </trkpt>
      <trkpt lat="40.7031240" lon="-5.7644770">
        <ele>980.0</ele>
        <time>2021-10-15T08:12:30Z</time>
      </trkpt>
      <trkpt lat="40.7028390" lon="-5.7644280">
        <ele>979.4</ele>
        <time>2021-10-15T08:12:35Z</time>
      </trkpt>
      <trkpt lat="40.7024610" lon="-5.7643840">
        <ele>979.0</ele>
        <time>2021-10-15T08:12:42Z</time>
      </trkpt>
      <trkpt lat="40.7021740" lon="-5.7643990">
        <ele>978.8</ele>
        <time>2021-10-15T08:12:47Z</time>
      </trkpt>
      <trkpt lat="40.7020410" lon="-5.7644270">
        <ele>979.0</ele>
        <time>2021-10-15T08:12:50Z</time>
      </trkpt>
      <trkpt lat="40.7017460" lon="-5.7645230">
        <ele>979.8</ele>
        <time>2021-10-15T08:12:57Z</time>
      </trkpt>
      <trkpt lat="40.7015570" lon="-5.7645900">
        <ele>980.6</ele>
        <time>2021-10-15T08:13:02Z</time>
      </trkpt>
      <trkpt lat="40.7014160" lon="-5.7646390">
        <ele>981.0</ele>
        <time>2021-10-15T08:13:06Z</time>
      </trkpt>
      <trkpt lat="40.7011600" lon="-5.7647190">
        <ele>981.4</ele>
        <time>2021-10-15T08:13:13Z</time>
      </trkpt>
      <trkpt lat="40.7011200" lon="-5.7647330">
        <ele>981.6</ele>
        <time>2021-10-15T08:13:14Z</time>
      </trkpt>
      <trkpt lat="40.7009970" lon="-5.7647670">
        <ele>981.6</ele>
        <time>2021-10-15T08:13:17Z</time>
      </trkpt>
      <trkpt lat="40.7008130" lon="-5.7648370">
        <ele>981.6</ele>
        <time>2021-10-15T08:13:21Z</time>
      </trkpt>
      <trkpt lat="40.7006740" lon="-5.7648890">
        <ele>981.6</ele>
        <time>2021-10-15T08:13:24Z</time>
      </trkpt>
      <trkpt lat="40.7005770" lon="-5.7649220">
        <ele>981.6</ele>
        <time>2021-10-15T08:13:26Z</time>
      </trkpt>
      <trkpt lat="40.7003880" lon="-5.7649870">
        <ele>981.4</ele>
        <time>2021-10-15T08:13:30Z</time>
      </trkpt>
      <trkpt lat="40.7002990" lon="-5.7650130">
        <ele>981.4</ele>
        <time>2021-10-15T08:13:32Z</time>
      </trkpt>
      <trkpt lat="40.7000960" lon="-5.7650790">
        <ele>980.8</ele>
        <time>2021-10-15T08:13:36Z</time>
      </trkpt>
      <trkpt lat="40.6998840" lon="-5.7651480">
        <ele>980.6</ele>
        <time>2021-10-15T08:13:40Z</time>
      </trkpt>
      <trkpt lat="40.6994740" lon="-5.7652800">
        <ele>980.8</ele>
        <time>2021-10-15T08:13:49Z</time>
      </trkpt>
      <trkpt lat="40.6991260" lon="-5.7654080">
        <ele>981.2</ele>
        <time>2021-10-15T08:13:57Z</time>
      </trkpt>
      <trkpt lat="40.6989660" lon="-5.7654670">
        <ele>981.6</ele>
        <time>2021-10-15T08:14:01Z</time>
      </trkpt>
      <trkpt lat="40.6988300" lon="-5.7655130">
        <ele>982.0</ele>
        <time>2021-10-15T08:14:05Z</time>
      </trkpt>
      <trkpt lat="40.6986960" lon="-5.7655590">
        <ele>982.6</ele>
        <time>2021-10-15T08:14:09Z</time>
      </trkpt>
      <trkpt lat="40.6985910" lon="-5.7655940">
        <ele>983.0</ele>
        <time>2021-10-15T08:14:12Z</time>
      </trkpt>
      <trkpt lat="40.6985340" lon="-5.7656190">
        <ele>983.2</ele>
        <time>2021-10-15T08:14:14Z</time>
      </trkpt>
      <trkpt lat="40.6984350" lon="-5.7656460">
        <ele>983.6</ele>
        <time>2021-10-15T08:14:17Z</time>
      </trkpt>
      <trkpt lat="40.6984110" lon="-5.7656520">
        <ele>983.6</ele>
        <time>2021-10-15T08:14:18Z</time>
      </trkpt>
      <trkpt lat="40.6983540" lon="-5.7656740">
        <ele>984.4</ele>
        <time>2021-10-15T08:14:20Z</time>
      </trkpt>
      <trkpt lat="40.6982730" lon="-5.7657020">
        <ele>984.8</ele>
        <time>2021-10-15T08:14:23Z</time>
      </trkpt>
      <trkpt lat="40.6981900" lon="-5.7657380">
        <ele>985.0</ele>
        <time>2021-10-15T08:14:26Z</time>
      </trkpt>
      <trkpt lat="40.6981670" lon="-5.7657450">
        <ele>985.2</ele>
        <time>2021-10-15T08:14:27Z</time>
      </trkpt>
      <trkpt lat="40.6980330" lon="-5.7657900">
        <ele>985.8</ele>
        <time>2021-10-15T08:14:32Z</time>
      </trkpt>
      <trkpt lat="40.6979480" lon="-5.7658160">
        <ele>986.0</ele>
        <time>2021-10-15T08:14:35Z</time>
      </trkpt>
      <trkpt lat="40.6978980" lon="-5.7658380">
        <ele>986.2</ele>
        <time>2021-10-15T08:14:37Z</time>
      </trkpt>
      <trkpt lat="40.6978240" lon="-5.7658670">
        <ele>986.8</ele>
        <time>2021-10-15T08:14:40Z</time>
      </trkpt>
      <trkpt lat="40.6976770" lon="-5.7659080">
        <ele>987.8</ele>
        <time>2021-10-15T08:14:46Z</time>
      </trkpt>
      <trkpt lat="40.6976200" lon="-5.7659300">
        <ele>988.0</ele>
        <time>2021-10-15T08:14:48Z</time>
      </trkpt>
      <trkpt lat="40.6975760" lon="-5.7659460">
        <ele>988.2</ele>
        <time>2021-10-15T08:14:50Z</time>
      </trkpt>
      <trkpt lat="40.6974970" lon="-5.7659710">
        <ele>988.6</ele>
        <time>2021-10-15T08:14:53Z</time>
      </trkpt>
      <trkpt lat="40.6974280" lon="-5.7659940">
        <ele>988.8</ele>
        <time>2021-10-15T08:14:56Z</time>
      </trkpt>
      <trkpt lat="40.6973990" lon="-5.7660020">
        <ele>989.0</ele>
        <time>2021-10-15T08:14:57Z</time>
      </trkpt>
      <trkpt lat="40.6972780" lon="-5.7660280">
        <ele>989.4</ele>
        <time>2021-10-15T08:15:02Z</time>
      </trkpt>
      <trkpt lat="40.6972300" lon="-5.7660480">
        <ele>989.6</ele>
        <time>2021-10-15T08:15:04Z</time>
      </trkpt>
      <trkpt lat="40.6970560" lon="-5.7661210">
        <ele>990.0</ele>
        <time>2021-10-15T08:15:11Z</time>
      </trkpt>
      <trkpt lat="40.6970000" lon="-5.7661360">
        <ele>990.4</ele>
        <time>2021-10-15T08:15:13Z</time>
      </trkpt>
      <trkpt lat="40.6969750" lon="-5.7661420">
        <ele>990.4</ele>
        <time>2021-10-15T08:15:14Z</time>
      </trkpt>
      <trkpt lat="40.6969010" lon="-5.7661710">
        <ele>990.8</ele>
        <time>2021-10-15T08:15:17Z</time>
      </trkpt>
      <trkpt lat="40.6968540" lon="-5.7661840">
        <ele>991.2</ele>
        <time>2021-10-15T08:15:19Z</time>
      </trkpt>
      <trkpt lat="40.6967760" lon="-5.7662090">
        <ele>991.4</ele>
        <time>2021-10-15T08:15:22Z</time>
      </trkpt>
      <trkpt lat="40.6966000" lon="-5.7662690">
        <ele>992.2</ele>
        <time>2021-10-15T08:15:29Z</time>
      </trkpt>
      <trkpt lat="40.6965280" lon="-5.7662990">
        <ele>992.4</ele>
        <time>2021-10-15T08:15:32Z</time>
      </trkpt>
      <trkpt lat="40.6963570" lon="-5.7663540">
        <ele>993.2</ele>
        <time>2021-10-15T08:15:39Z</time>
      </trkpt>
      <trkpt lat="40.6962820" lon="-5.7663760">
        <ele>993.6</ele>
        <time>2021-10-15T08:15:42Z</time>
      </trkpt>
      <trkpt lat="40.6961890" lon="-5.7664090">
        <ele>993.8</ele>
        <time>2021-10-15T08:15:46Z</time>
      </trkpt>
      <trkpt lat="40.6961600" lon="-5.7664160">
        <ele>993.8</ele>
        <time>2021-10-15T08:15:47Z</time>
      </trkpt>
      <trkpt lat="40.6961090" lon="-5.7664360">
        <ele>994.2</ele>
        <time>2021-10-15T08:15:49Z</time>
      </trkpt>
      <trkpt lat="40.6960590" lon="-5.7664520">
        <ele>994.4</ele>
        <time>2021-10-15T08:15:51Z</time>
      </trkpt>
      <trkpt lat="40.6960350" lon="-5.7664640">
        <ele>994.4</ele>
        <time>2021-10-15T08:15:52Z</time>
      </trkpt>
      <trkpt lat="40.6958180" lon="-5.7665280">
        <ele>995.6</ele>
        <time>2021-10-15T08:16:01Z</time>
      </trkpt>
      <trkpt lat="40.6957930" lon="-5.7665340">
        <ele>995.6</ele>
        <time>2021-10-15T08:16:02Z</time>
      </trkpt>
      <trkpt lat="40.6956460" lon="-5.7665840">
        <ele>996.4</ele>
        <time>2021-10-15T08:16:08Z</time>
      </trkpt>
      <trkpt lat="40.6956210" lon="-5.7665950">
        <ele>996.4</ele>
        <time>2021-10-15T08:16:09Z</time>
      </trkpt>
      <trkpt lat="40.6955940" lon="-5.7666030">
        <ele>996.4</ele>
        <time>2021-10-15T08:16:10Z</time>
      </trkpt>
      <trkpt lat="40.6955450" lon="-5.7666120">
        <ele>996.6</ele>
        <time>2021-10-15T08:16:12Z</time>
      </trkpt>
      <trkpt lat="40.6954730" lon="-5.7666340">
        <ele>997.0</ele>
        <time>2021-10-15T08:16:15Z</time>
      </trkpt>
      <trkpt lat="40.6953460" lon="-5.7666860">
        <ele>997.6</ele>
        <time>2021-10-15T08:16:20Z</time>
      </trkpt>
      <trkpt lat="40.6953230" lon="-5.7666930">
        <ele>997.6</ele>
        <time>2021-10-15T08:16:21Z</time>
      </trkpt>
      <trkpt lat="40.6952780" lon="-5.7667040">
        <ele>997.8</ele>
        <time>2021-10-15T08:16:23Z</time>
      </trkpt>
      <trkpt lat="40.6951360" lon="-5.7667570">
        <ele>998.4</ele>
        <time>2021-10-15T08:16:29Z</time>
      </trkpt>
      <trkpt lat="40.6950960" lon="-5.7667730">
        <ele>998.6</ele>
        <time>2021-10-15T08:16:31Z</time>
      </trkpt>
      <trkpt lat="40.6950700" lon="-5.7667830">
        <ele>998.6</ele>
        <time>2021-10-15T08:16:32Z</time>
      </trkpt>
      <trkpt lat="40.6950280" lon="-5.7667970">
        <ele>998.8</ele>
        <time>2021-10-15T08:16:34Z</time>
      </trkpt>
      <trkpt lat="40.6949880" lon="-5.7668100">
        <ele>999.0</ele>
        <time>2021-10-15T08:16:36Z</time>
      </trkpt>
      <trkpt lat="40.6948870" lon="-5.7668440">
        <ele>999.6</ele>
        <time>2021-10-15T08:16:41Z</time>
      </trkpt>
      <trkpt lat="40.6948520" lon="-5.7668610">
        <ele>999.8</ele>
        <time>2021-10-15T08:16:43Z</time>
      </trkpt>
      <trkpt lat="40.6948180" lon="-5.7668930">
        <ele>1000.2</ele>
        <time>2021-10-15T08:16:48Z</time>
      </trkpt>
      <trkpt lat="40.6948180" lon="-5.7668930">
        <ele>1000.4</ele>
        <time>2021-10-15T08:16:50Z</time>
      </trkpt>
      <trkpt lat="40.6947540" lon="-5.7668840">
        <ele>1000.8</ele>
        <time>2021-10-15T08:18:36Z</time>
      </trkpt>
      <trkpt lat="40.6947290" lon="-5.7668830">
        <ele>1001.0</ele>
        <time>2021-10-15T08:18:37Z</time>
      </trkpt>
      <trkpt lat="40.6947080" lon="-5.7668860">
        <ele>1001.0</ele>
        <time>2021-10-15T08:18:38Z</time>
      </trkpt>
      <trkpt lat="40.6945920" lon="-5.7669280">
        <ele>1001.2</ele>
        <time>2021-10-15T08:18:43Z</time>
      </trkpt>
      <trkpt lat="40.6945550" lon="-5.7669400">
        <ele>1001.4</ele>
        <time>2021-10-15T08:18:45Z</time>
      </trkpt>
      <trkpt lat="40.6944120" lon="-5.7669900">
        <ele>1002.0</ele>
        <time>2021-10-15T08:18:51Z</time>
      </trkpt>
      <trkpt lat="40.6943630" lon="-5.7670090">
        <ele>1002.2</ele>
        <time>2021-10-15T08:18:53Z</time>
      </trkpt>
      <trkpt lat="40.6942920" lon="-5.7670360">
        <ele>1002.6</ele>
        <time>2021-10-15T08:18:56Z</time>
      </trkpt>
      <trkpt lat="40.6941980" lon="-5.7670730">
        <ele>1003.0</ele>
        <time>2021-10-15T08:19:00Z</time>
      </trkpt>
      <trkpt lat="40.6941370" lon="-5.7670910">
        <ele>1003.4</ele>
        <time>2021-10-15T08:19:03Z</time>
      </trkpt>
      <trkpt lat="40.6940550" lon="-5.7671140">
        <ele>1004.0</ele>
        <time>2021-10-15T08:19:07Z</time>
      </trkpt>
      <trkpt lat="40.6939910" lon="-5.7671370">
        <ele>1004.4</ele>
        <time>2021-10-15T08:19:10Z</time>
      </trkpt>
      <trkpt lat="40.6938760" lon="-5.7671720">
        <ele>1005.2</ele>
        <time>2021-10-15T08:19:16Z</time>
      </trkpt>
      <trkpt lat="40.6938090" lon="-5.7671940">
        <ele>1005.6</ele>
        <time>2021-10-15T08:19:19Z</time>
      </trkpt>
      <trkpt lat="40.6937240" lon="-5.7672160">
        <ele>1006.2</ele>
        <time>2021-10-15T08:19:23Z</time>
      </trkpt>
      <trkpt lat="40.6935660" lon="-5.7672430">
        <ele>1006.6</ele>
        <time>2021-10-15T08:19:30Z</time>
      </trkpt>
      <trkpt lat="40.6935020" lon="-5.7672540">
        <ele>1007.0</ele>
        <time>2021-10-15T08:19:33Z</time>
      </trkpt>
      <trkpt lat="40.6933540" lon="-5.7672830">
        <ele>1007.6</ele>
        <time>2021-10-15T08:19:40Z</time>
      </trkpt>
      <trkpt lat="40.6932860" lon="-5.7672890">
        <ele>1008.0</ele>
        <time>2021-10-15T08:19:43Z</time>
      </trkpt>
      <trkpt lat="40.6931700" lon="-5.7673030">
        <ele>1009.2</ele>
        <time>2021-10-15T08:19:49Z</time>
      </trkpt>
      <trkpt lat="40.6931230" lon="-5.7673080">
        <ele>1009.4</ele>
        <time>2021-10-15T08:19:51Z</time>
      </trkpt>
      <trkpt lat="40.6931000" lon="-5.7673080">
        <ele>1009.4</ele>
        <time>2021-10-15T08:19:52Z</time>
      </trkpt>
      <trkpt lat="40.6930360" lon="-5.7673150">
        <ele>1009.8</ele>
        <time>2021-10-15T08:19:55Z</time>
      </trkpt>
      <trkpt lat="40.6929710" lon="-5.7673240">
        <ele>1010.2</ele>
        <time>2021-10-15T08:19:58Z</time>
      </trkpt>
      <trkpt lat="40.6928790" lon="-5.7673340">
        <ele>1010.6</ele>
        <time>2021-10-15T08:20:02Z</time>
      </trkpt>
      <trkpt lat="40.6927480" lon="-5.7673500">
        <ele>1011.4</ele>
        <time>2021-10-15T08:20:08Z</time>
      </trkpt>
      <trkpt lat="40.6927290" lon="-5.7673540">
        <ele>1011.6</ele>
        <time>2021-10-15T08:20:09Z</time>
      </trkpt>
      <trkpt lat="40.6926220" lon="-5.7673620">
        <ele>1012.6</ele>
        <time>2021-10-15T08:20:14Z</time>
      </trkpt>
      <trkpt lat="40.6925600" lon="-5.7673730">
        <ele>1013.0</ele>
        <time>2021-10-15T08:20:17Z</time>
      </trkpt>
      <trkpt lat="40.6925330" lon="-5.7673760">
        <ele>1013.2</ele>
        <time>2021-10-15T08:20:18Z</time>
      </trkpt>
      <trkpt lat="40.6924810" lon="-5.7673820">
        <ele>1013.6</ele>
        <time>2021-10-15T08:20:20Z</time>
      </trkpt>
      <trkpt lat="40.6924190" lon="-5.7673880">
        <ele>1014.0</ele>
        <time>2021-10-15T08:20:23Z</time>
      </trkpt>
      <trkpt lat="40.6923550" lon="-5.7674020">
        <ele>1014.2</ele>
        <time>2021-10-15T08:20:26Z</time>
      </trkpt>
      <trkpt lat="40.6922800" lon="-5.7674120">
        <ele>1014.4</ele>
        <time>2021-10-15T08:20:29Z</time>
      </trkpt>
      <trkpt lat="40.6922410" lon="-5.7674150">
        <ele>1014.6</ele>
        <time>2021-10-15T08:20:31Z</time>
      </trkpt>
      <trkpt lat="40.6921010" lon="-5.7674400">
        <ele>1015.4</ele>
        <time>2021-10-15T08:20:37Z</time>
      </trkpt>
      <trkpt lat="40.6920760" lon="-5.7674450">
        <ele>1015.4</ele>
        <time>2021-10-15T08:20:38Z</time>
      </trkpt>
      <trkpt lat="40.6920380" lon="-5.7674470">
        <ele>1015.8</ele>
        <time>2021-10-15T08:20:40Z</time>
      </trkpt>
      <trkpt lat="40.6919910" lon="-5.7674500">
        <ele>1016.0</ele>
        <time>2021-10-15T08:20:42Z</time>
      </trkpt>
      <trkpt lat="40.6918970" lon="-5.7674550">
        <ele>1016.6</ele>
        <time>2021-10-15T08:20:46Z</time>
      </trkpt>
      <trkpt lat="40.6918470" lon="-5.7674560">
        <ele>1016.8</ele>
        <time>2021-10-15T08:20:48Z</time>
      </trkpt>
      <trkpt lat="40.6916530" lon="-5.7674830">
        <ele>1017.8</ele>
        <time>2021-10-15T08:20:56Z</time>
      </trkpt>
      <trkpt lat="40.6916320" lon="-5.7674830">
        <ele>1018.0</ele>
        <time>2021-10-15T08:20:57Z</time>
      </trkpt>
      <trkpt lat="40.6915930" lon="-5.7674870">
        <ele>1018.4</ele>
        <time>2021-10-15T08:20:59Z</time>
      </trkpt>
      <trkpt lat="40.6915340" lon="-5.7674890">
        <ele>1019.0</ele>
        <time>2021-10-15T08:21:02Z</time>
      </trkpt>
      <trkpt lat="40.6914740" lon="-5.7674970">
        <ele>1019.4</ele>
        <time>2021-10-15T08:21:05Z</time>
      </trkpt>
      <trkpt lat="40.6914410" lon="-5.7675020">
        <ele>1019.6</ele>
        <time>2021-10-15T08:21:07Z</time>
      </trkpt>
      <trkpt lat="40.6914220" lon="-5.7675050">
        <ele>1019.8</ele>
        <time>2021-10-15T08:21:08Z</time>
      </trkpt>
      <trkpt lat="40.6913810" lon="-5.7675100">
        <ele>1020.0</ele>
        <time>2021-10-15T08:21:10Z</time>
      </trkpt>
      <trkpt lat="40.6912870" lon="-5.7675200">
        <ele>1020.6</ele>
        <time>2021-10-15T08:21:15Z</time>
      </trkpt>
      <trkpt lat="40.6912360" lon="-5.7675260">
        <ele>1021.2</ele>
        <time>2021-10-15T08:21:18Z</time>
      </trkpt>
      <trkpt lat="40.6911880" lon="-5.7675390">
        <ele>1021.6</ele>
        <time>2021-10-15T08:21:21Z</time>
      </trkpt>
      <trkpt lat="40.6911350" lon="-5.7675610">
        <ele>1022.0</ele>
        <time>2021-10-15T08:21:24Z</time>
      </trkpt>
      <trkpt lat="40.6911180" lon="-5.7675670">
        <ele>1022.2</ele>
        <time>2021-10-15T08:21:25Z</time>
      </trkpt>
      <trkpt lat="40.6909620" lon="-5.7676340">
        <ele>1023.2</ele>
        <time>2021-10-15T08:21:33Z</time>
      </trkpt>
      <trkpt lat="40.6909110" lon="-5.7676740">
        <ele>1023.8</ele>
        <time>2021-10-15T08:21:36Z</time>
      </trkpt>
      <trkpt lat="40.6908430" lon="-5.7677260">
        <ele>1024.4</ele>
        <time>2021-10-15T08:21:40Z</time>
      </trkpt>
      <trkpt lat="40.6907520" lon="-5.7678040">
        <ele>1025.0</ele>
        <time>2021-10-15T08:21:45Z</time>
      </trkpt>
      <trkpt lat="40.6907090" lon="-5.7678510">
        <ele>1025.6</ele>
        <time>2021-10-15T08:21:48Z</time>
      </trkpt>
      <trkpt lat="40.6906490" lon="-5.7679150">
        <ele>1026.0</ele>
        <time>2021-10-15T08:21:52Z</time>
      </trkpt>
      <trkpt lat="40.6906000" lon="-5.7679700">
        <ele>1026.4</ele>
        <time>2021-10-15T08:21:55Z</time>
      </trkpt>
      <trkpt lat="40.6905850" lon="-5.7679870">
        <ele>1026.6</ele>
        <time>2021-10-15T08:21:56Z</time>
      </trkpt>
      <trkpt lat="40.6904870" lon="-5.7680820">
        <ele>1027.2</ele>
        <time>2021-10-15T08:22:03Z</time>
      </trkpt>
      <trkpt lat="40.6904700" lon="-5.7681000">
        <ele>1027.4</ele>
        <time>2021-10-15T08:22:04Z</time>
      </trkpt>
      <trkpt lat="40.6904560" lon="-5.7681150">
        <ele>1027.4</ele>
        <time>2021-10-15T08:22:05Z</time>
      </trkpt>
      <trkpt lat="40.6904130" lon="-5.7681660">
        <ele>1028.0</ele>
        <time>2021-10-15T08:22:08Z</time>
      </trkpt>
      <trkpt lat="40.6903850" lon="-5.7681990">
        <ele>1028.2</ele>
        <time>2021-10-15T08:22:10Z</time>
      </trkpt>
      <trkpt lat="40.6903600" lon="-5.7682310">
        <ele>1028.8</ele>
        <time>2021-10-15T08:22:12Z</time>
      </trkpt>
      <trkpt lat="40.6903080" lon="-5.7682910">
        <ele>1029.4</ele>
        <time>2021-10-15T08:22:15Z</time>
      </trkpt>
      <trkpt lat="40.6902450" lon="-5.7683780">
        <ele>1029.8</ele>
        <time>2021-10-15T08:22:19Z</time>
      </trkpt>
      <trkpt lat="40.6902200" lon="-5.7684120">
        <ele>1030.0</ele>
        <time>2021-10-15T08:22:21Z</time>
      </trkpt>
      <trkpt lat="40.6901880" lon="-5.7684530">
        <ele>1030.2</ele>
        <time>2021-10-15T08:22:23Z</time>
      </trkpt>
      <trkpt lat="40.6901490" lon="-5.7685020">
        <ele>1030.8</ele>
        <time>2021-10-15T08:22:26Z</time>
      </trkpt>
      <trkpt lat="40.6901320" lon="-5.7685200">
        <ele>1031.0</ele>
        <time>2021-10-15T08:22:27Z</time>
      </trkpt>
      <trkpt lat="40.6900540" lon="-5.7686150">
        <ele>1031.8</ele>
        <time>2021-10-15T08:22:32Z</time>
      </trkpt>
      <trkpt lat="40.6900400" lon="-5.7686360">
        <ele>1032.0</ele>
        <time>2021-10-15T08:22:33Z</time>
      </trkpt>
      <trkpt lat="40.6899520" lon="-5.7687650">
        <ele>1033.0</ele>
        <time>2021-10-15T08:22:39Z</time>
      </trkpt>
      <trkpt lat="40.6899380" lon="-5.7687850">
        <ele>1033.0</ele>
        <time>2021-10-15T08:22:40Z</time>
      </trkpt>
      <trkpt lat="40.6899190" lon="-5.7688100">
        <ele>1033.2</ele>
        <time>2021-10-15T08:22:41Z</time>
      </trkpt>
      <trkpt lat="40.6898940" lon="-5.7688550">
        <ele>1033.4</ele>
        <time>2021-10-15T08:22:43Z</time>
      </trkpt>
      <trkpt lat="40.6898490" lon="-5.7689500">
        <ele>1033.8</ele>
        <time>2021-10-15T08:22:47Z</time>
      </trkpt>
      <trkpt lat="40.6898280" lon="-5.7689980">
        <ele>1034.0</ele>
        <time>2021-10-15T08:22:49Z</time>
      </trkpt>
      <trkpt lat="40.6898140" lon="-5.7690250">
        <ele>1034.2</ele>
        <time>2021-10-15T08:22:50Z</time>
      </trkpt>
      <trkpt lat="40.6897330" lon="-5.7692020">
        <ele>1035.2</ele>
        <time>2021-10-15T08:22:57Z</time>
      </trkpt>
      <trkpt lat="40.6897240" lon="-5.7692340">
        <ele>1035.4</ele>
        <time>2021-10-15T08:22:58Z</time>
      </trkpt>
      <trkpt lat="40.6896970" lon="-5.7693610">
        <ele>1036.2</ele>
        <time>2021-10-15T08:23:03Z</time>
      </trkpt>
      <trkpt lat="40.6896910" lon="-5.7693990">
        <ele>1036.4</ele>
        <time>2021-10-15T08:23:06Z</time>
      </trkpt>
      <trkpt lat="40.6896870" lon="-5.7694060">
        <ele>1036.8</ele>
        <time>2021-10-15T08:23:09Z</time>
      </trkpt>
      <trkpt lat="40.6897080" lon="-5.7694580">
        <ele>1036.0</ele>
        <time>2021-10-15T08:31:28Z</time>
      </trkpt>
      <trkpt lat="40.6897070" lon="-5.7694880">
        <ele>1036.0</ele>
        <time>2021-10-15T08:31:29Z</time>
      </trkpt>
      <trkpt lat="40.6897060" lon="-5.7696100">
        <ele>1036.4</ele>
        <time>2021-10-15T08:31:35Z</time>
      </trkpt>
      <trkpt lat="40.6897380" lon="-5.7697730">
        <ele>1037.0</ele>
        <time>2021-10-15T08:31:42Z</time>
      </trkpt>
      <trkpt lat="40.6897430" lon="-5.7697980">
        <ele>1037.0</ele>
        <time>2021-10-15T08:31:43Z</time>
      </trkpt>
      <trkpt lat="40.6897630" lon="-5.7699400">
        <ele>1038.0</ele>
        <time>2021-10-15T08:31:49Z</time>
      </trkpt>
      <trkpt lat="40.6897610" lon="-5.7699640">
        <ele>1038.0</ele>
        <time>2021-10-15T08:31:50Z</time>
      </trkpt>
      <trkpt lat="40.6897700" lon="-5.7700720">
        <ele>1038.4</ele>
        <time>2021-10-15T08:31:54Z</time>
      </trkpt>
      <trkpt lat="40.6897820" lon="-5.7701320">
        <ele>1038.8</ele>
        <time>2021-10-15T08:31:56Z</time>
      </trkpt>
      <trkpt lat="40.6897880" lon="-5.7701910">
        <ele>1039.4</ele>
        <time>2021-10-15T08:31:58Z</time>
      </trkpt>
      <trkpt lat="40.6898210" lon="-5.7703510">
        <ele>1040.4</ele>
        <time>2021-10-15T08:32:04Z</time>
      </trkpt>
      <trkpt lat="40.6898280" lon="-5.7703820">
        <ele>1040.6</ele>
        <time>2021-10-15T08:32:05Z</time>
      </trkpt>
      <trkpt lat="40.6898430" lon="-5.7704450">
        <ele>1041.0</ele>
        <time>2021-10-15T08:32:08Z</time>
      </trkpt>
      <trkpt lat="40.6898510" lon="-5.7705060">
        <ele>1041.2</ele>
        <time>2021-10-15T08:32:10Z</time>
      </trkpt>
      <trkpt lat="40.6898540" lon="-5.7705490">
        <ele>1041.6</ele>
        <time>2021-10-15T08:32:11Z</time>
      </trkpt>
      <trkpt lat="40.6898610" lon="-5.7706120">
        <ele>1041.8</ele>
        <time>2021-10-15T08:32:13Z</time>
      </trkpt>
      <trkpt lat="40.6898450" lon="-5.7707450">
        <ele>1042.2</ele>
        <time>2021-10-15T08:32:18Z</time>
      </trkpt>
      <trkpt lat="40.6898570" lon="-5.7707550">
        <ele>1042.2</ele>
        <time>2021-10-15T08:32:19Z</time>
      </trkpt>
      <trkpt lat="40.6898700" lon="-5.7708030">
        <ele>1042.6</ele>
        <time>2021-10-15T08:32:21Z</time>
      </trkpt>
      <trkpt lat="40.6898770" lon="-5.7709090">
        <ele>1043.2</ele>
        <time>2021-10-15T08:32:25Z</time>
      </trkpt>
      <trkpt lat="40.6898900" lon="-5.7709510">
        <ele>1043.4</ele>
        <time>2021-10-15T08:32:27Z</time>
      </trkpt>
      <trkpt lat="40.6899010" lon="-5.7709990">
        <ele>1043.6</ele>
        <time>2021-10-15T08:32:29Z</time>
      </trkpt>
      <trkpt lat="40.6899030" lon="-5.7711460">
        <ele>1044.4</ele>
        <time>2021-10-15T08:32:34Z</time>
      </trkpt>
      <trkpt lat="40.6899000" lon="-5.7711970">
        <ele>1044.6</ele>
        <time>2021-10-15T08:32:36Z</time>
      </trkpt>
      <trkpt lat="40.6899010" lon="-5.7712210">
        <ele>1044.8</ele>
        <time>2021-10-15T08:32:37Z</time>
      </trkpt>
      <trkpt lat="40.6899010" lon="-5.7712700">
        <ele>1045.0</ele>
        <time>2021-10-15T08:32:39Z</time>
      </trkpt>
      <trkpt lat="40.6899010" lon="-5.7713240">
        <ele>1045.8</ele>
        <time>2021-10-15T08:32:42Z</time>
      </trkpt>
      <trkpt lat="40.6898990" lon="-5.7713430">
        <ele>1046.0</ele>
        <time>2021-10-15T08:32:43Z</time>
      </trkpt>
      <trkpt lat="40.6898750" lon="-5.7714220">
        <ele>1046.8</ele>
        <time>2021-10-15T08:32:48Z</time>
      </trkpt>
      <trkpt lat="40.6898580" lon="-5.7714390">
        <ele>1047.0</ele>
        <time>2021-10-15T08:32:50Z</time>
      </trkpt>
      <trkpt lat="40.6898440" lon="-5.7714630">
        <ele>1047.4</ele>
        <time>2021-10-15T08:32:52Z</time>
      </trkpt>
      <trkpt lat="40.6898120" lon="-5.7714980">
        <ele>1048.0</ele>
        <time>2021-10-15T08:32:55Z</time>
      </trkpt>
      <trkpt lat="40.6897830" lon="-5.7715130">
        <ele>1048.4</ele>
        <time>2021-10-15T08:32:57Z</time>
      </trkpt>
      <trkpt lat="40.6897530" lon="-5.7715280">
        <ele>1048.8</ele>
        <time>2021-10-15T08:32:59Z</time>
      </trkpt>
      <trkpt lat="40.6897180" lon="-5.7715460">
        <ele>1049.0</ele>
        <time>2021-10-15T08:33:01Z</time>
      </trkpt>
      <trkpt lat="40.6896960" lon="-5.7715540">
        <ele>1049.0</ele>
        <time>2021-10-15T08:33:02Z</time>
      </trkpt>
      <trkpt lat="40.6896060" lon="-5.7715740">
        <ele>1049.8</ele>
        <time>2021-10-15T08:33:06Z</time>
      </trkpt>
      <trkpt lat="40.6895600" lon="-5.7715850">
        <ele>1050.0</ele>
        <time>2021-10-15T08:33:08Z</time>
      </trkpt>
      <trkpt lat="40.6895380" lon="-5.7715840">
        <ele>1050.0</ele>
        <time>2021-10-15T08:33:09Z</time>
      </trkpt>
      <trkpt lat="40.6894700" lon="-5.7715800">
        <ele>1050.2</ele>
        <time>2021-10-15T08:33:12Z</time>
      </trkpt>
      <trkpt lat="40.6894250" lon="-5.7715730">
        <ele>1050.4</ele>
        <time>2021-10-15T08:33:14Z</time>
      </trkpt>
      <trkpt lat="40.6893840" lon="-5.7715680">
        <ele>1050.6</ele>
        <time>2021-10-15T08:33:16Z</time>
      </trkpt>
      <trkpt lat="40.6893040" lon="-5.7715580">
        <ele>1051.0</ele>
        <time>2021-10-15T08:33:20Z</time>
      </trkpt>
      <trkpt lat="40.6892370" lon="-5.7715510">
        <ele>1051.2</ele>
        <time>2021-10-15T08:33:23Z</time>
      </trkpt>
      <trkpt lat="40.6891550" lon="-5.7715470">
        <ele>1051.6</ele>
        <time>2021-10-15T08:33:27Z</time>
      </trkpt>
      <trkpt lat="40.6890430" lon="-5.7715380">
        <ele>1052.4</ele>
        <time>2021-10-15T08:33:32Z</time>
      </trkpt>
      <trkpt lat="40.6889370" lon="-5.7715190">
        <ele>1052.8</ele>
        <time>2021-10-15T08:33:37Z</time>
      </trkpt>
      <trkpt lat="40.6888030" lon="-5.7715050">
        <ele>1053.2</ele>
        <time>2021-10-15T08:33:43Z</time>
      </trkpt>
      <trkpt lat="40.6886680" lon="-5.7714870">
        <ele>1053.8</ele>
        <time>2021-10-15T08:33:49Z</time>
      </trkpt>
      <trkpt lat="40.6886490" lon="-5.7714820">
        <ele>1053.8</ele>
        <time>2021-10-15T08:33:50Z</time>
      </trkpt>
      <trkpt lat="40.6886280" lon="-5.7714780">
        <ele>1053.8</ele>
        <time>2021-10-15T08:33:51Z</time>
      </trkpt>
      <trkpt lat="40.6885440" lon="-5.7714590">
        <ele>1054.2</ele>
        <time>2021-10-15T08:33:55Z</time>
      </trkpt>
      <trkpt lat="40.6884510" lon="-5.7714500">
        <ele>1054.8</ele>
        <time>2021-10-15T08:34:00Z</time>
      </trkpt>
      <trkpt lat="40.6883700" lon="-5.7714470">
        <ele>1055.2</ele>
        <time>2021-10-15T08:34:04Z</time>
      </trkpt>
      <trkpt lat="40.6883510" lon="-5.7714480">
        <ele>1055.4</ele>
        <time>2021-10-15T08:34:05Z</time>
      </trkpt>
      <trkpt lat="40.6882480" lon="-5.7714350">
        <ele>1056.0</ele>
        <time>2021-10-15T08:34:10Z</time>
      </trkpt>
      <trkpt lat="40.6882110" lon="-5.7714260">
        <ele>1056.2</ele>
        <time>2021-10-15T08:34:12Z</time>
      </trkpt>
      <trkpt lat="40.6881860" lon="-5.7714220">
        <ele>1056.4</ele>
        <time>2021-10-15T08:34:13Z</time>
      </trkpt>
      <trkpt lat="40.6881350" lon="-5.7714210">
        <ele>1057.0</ele>
        <time>2021-10-15T08:34:16Z</time>
      </trkpt>
      <trkpt lat="40.6880530" lon="-5.7714080">
        <ele>1057.4</ele>
        <time>2021-10-15T08:34:20Z</time>
      </trkpt>
      <trkpt lat="40.6880120" lon="-5.7714050">
        <ele>1057.6</ele>
        <time>2021-10-15T08:34:22Z</time>
      </trkpt>
      <trkpt lat="40.6879630" lon="-5.7713970">
        <ele>1058.0</ele>
        <time>2021-10-15T08:34:25Z</time>
      </trkpt>
      <trkpt lat="40.6879190" lon="-5.7713980">
        <ele>1058.4</ele>
        <time>2021-10-15T08:34:27Z</time>
      </trkpt>
      <trkpt lat="40.6878470" lon="-5.7713840">
        <ele>1059.0</ele>
        <time>2021-10-15T08:34:31Z</time>
      </trkpt>
      <trkpt lat="40.6878220" lon="-5.7713810">
        <ele>1059.2</ele>
        <time>2021-10-15T08:34:32Z</time>
      </trkpt>
      <trkpt lat="40.6877780" lon="-5.7713720">
        <ele>1059.4</ele>
        <time>2021-10-15T08:34:34Z</time>
      </trkpt>
      <trkpt lat="40.6877610" lon="-5.7713690">
        <ele>1059.4</ele>
        <time>2021-10-15T08:34:35Z</time>
      </trkpt>
      <trkpt lat="40.6877190" lon="-5.7713640">
        <ele>1059.8</ele>
        <time>2021-10-15T08:34:37Z</time>
      </trkpt>
      <trkpt lat="40.6876800" lon="-5.7713580">
        <ele>1059.8</ele>
        <time>2021-10-15T08:34:39Z</time>
      </trkpt>
      <trkpt lat="40.6876220" lon="-5.7713460">
        <ele>1060.2</ele>
        <time>2021-10-15T08:34:42Z</time>
      </trkpt>
      <trkpt lat="40.6876050" lon="-5.7713470">
        <ele>1060.4</ele>
        <time>2021-10-15T08:34:43Z</time>
      </trkpt>
      <trkpt lat="40.6875260" lon="-5.7713470">
        <ele>1060.8</ele>
        <time>2021-10-15T08:34:47Z</time>
      </trkpt>
      <trkpt lat="40.6874900" lon="-5.7713430">
        <ele>1060.8</ele>
        <time>2021-10-15T08:34:49Z</time>
      </trkpt>
      <trkpt lat="40.6874740" lon="-5.7713390">
        <ele>1061.0</ele>
        <time>2021-10-15T08:34:50Z</time>
      </trkpt>
      <trkpt lat="40.6874170" lon="-5.7713270">
        <ele>1061.2</ele>
        <time>2021-10-15T08:34:53Z</time>
      </trkpt>
      <trkpt lat="40.6874020" lon="-5.7713280">
        <ele>1061.6</ele>
        <time>2021-10-15T08:34:54Z</time>
      </trkpt>
      <trkpt lat="40.6873600" lon="-5.7713280">
        <ele>1061.8</ele>
        <time>2021-10-15T08:34:56Z</time>
      </trkpt>
      <trkpt lat="40.6873260" lon="-5.7713230">
        <ele>1062.2</ele>
        <time>2021-10-15T08:34:58Z</time>
      </trkpt>
      <trkpt lat="40.6872840" lon="-5.7713190">
        <ele>1062.4</ele>
        <time>2021-10-15T08:35:00Z</time>
      </trkpt>
      <trkpt lat="40.6872640" lon="-5.7713170">
        <ele>1062.6</ele>
        <time>2021-10-15T08:35:01Z</time>
      </trkpt>
      <trkpt lat="40.6872090" lon="-5.7713130">
        <ele>1062.8</ele>
        <time>2021-10-15T08:35:04Z</time>
      </trkpt>
      <trkpt lat="40.6871060" lon="-5.7713020">
        <ele>1063.6</ele>
        <time>2021-10-15T08:35:09Z</time>
      </trkpt>
      <trkpt lat="40.6870850" lon="-5.7713010">
        <ele>1063.8</ele>
        <time>2021-10-15T08:35:10Z</time>
      </trkpt>
      <trkpt lat="40.6869970" lon="-5.7712980">
        <ele>1064.6</ele>
        <time>2021-10-15T08:35:15Z</time>
      </trkpt>
      <trkpt lat="40.6869710" lon="-5.7712950">
        <ele>1065.0</ele>
        <time>2021-10-15T08:35:17Z</time>
      </trkpt>
      <trkpt lat="40.6869140" lon="-5.7712900">
        <ele>1065.2</ele>
        <time>2021-10-15T08:35:20Z</time>
      </trkpt>
      <trkpt lat="40.6868700" lon="-5.7712910">
        <ele>1065.8</ele>
        <time>2021-10-15T08:35:23Z</time>
      </trkpt>
      <trkpt lat="40.6868510" lon="-5.7712930">
        <ele>1065.8</ele>
        <time>2021-10-15T08:35:24Z</time>
      </trkpt>
      <trkpt lat="40.6867530" lon="-5.7712960">
        <ele>1066.8</ele>
        <time>2021-10-15T08:35:30Z</time>
      </trkpt>
      <trkpt lat="40.6867110" lon="-5.7712970">
        <ele>1067.0</ele>
        <time>2021-10-15T08:35:33Z</time>
      </trkpt>
      <trkpt lat="40.6866940" lon="-5.7712970">
        <ele>1067.2</ele>
        <time>2021-10-15T08:35:34Z</time>
      </trkpt>
      <trkpt lat="40.6866690" lon="-5.7713000">
        <ele>1067.4</ele>
        <time>2021-10-15T08:35:36Z</time>
      </trkpt>
      <trkpt lat="40.6866380" lon="-5.7713040">
        <ele>1067.6</ele>
        <time>2021-10-15T08:35:38Z</time>
      </trkpt>
      <trkpt lat="40.6866260" lon="-5.7713050">
        <ele>1067.8</ele>
        <time>2021-10-15T08:35:39Z</time>
      </trkpt>
      <trkpt lat="40.6865560" lon="-5.7713070">
        <ele>1068.2</ele>
        <time>2021-10-15T08:35:43Z</time>
      </trkpt>
      <trkpt lat="40.6864900" lon="-5.7713090">
        <ele>1069.0</ele>
        <time>2021-10-15T08:35:47Z</time>
      </trkpt>
      <trkpt lat="40.6864130" lon="-5.7713220">
        <ele>1069.6</ele>
        <time>2021-10-15T08:35:52Z</time>
      </trkpt>
      <trkpt lat="40.6863830" lon="-5.7713200">
        <ele>1069.8</ele>
        <time>2021-10-15T08:35:54Z</time>
      </trkpt>
      <trkpt lat="40.6863500" lon="-5.7713210">
        <ele>1070.0</ele>
        <time>2021-10-15T08:35:56Z</time>
      </trkpt>
      <trkpt lat="40.6863020" lon="-5.7713280">
        <ele>1070.4</ele>
        <time>2021-10-15T08:35:59Z</time>
      </trkpt>
      <trkpt lat="40.6862160" lon="-5.7713350">
        <ele>1071.0</ele>
        <time>2021-10-15T08:36:04Z</time>
      </trkpt>
      <trkpt lat="40.6861970" lon="-5.7713380">
        <ele>1071.2</ele>
        <time>2021-10-15T08:36:05Z</time>
      </trkpt>
      <trkpt lat="40.6860500" lon="-5.7713620">
        <ele>1072.2</ele>
        <time>2021-10-15T08:36:13Z</time>
      </trkpt>
      <trkpt lat="40.6860360" lon="-5.7713620">
        <ele>1072.2</ele>
        <time>2021-10-15T08:36:14Z</time>
      </trkpt>
      <trkpt lat="40.6859610" lon="-5.7713710">
        <ele>1072.8</ele>
        <time>2021-10-15T08:36:18Z</time>
      </trkpt>
      <trkpt lat="40.6859020" lon="-5.7713810">
        <ele>1073.2</ele>
        <time>2021-10-15T08:36:21Z</time>
      </trkpt>
      <trkpt lat="40.6858720" lon="-5.7713820">
        <ele>1073.2</ele>
        <time>2021-10-15T08:36:23Z</time>
      </trkpt>
      <trkpt lat="40.6858560" lon="-5.7713860">
        <ele>1073.4</ele>
        <time>2021-10-15T08:36:24Z</time>
      </trkpt>
      <trkpt lat="40.6857940" lon="-5.7713920">
        <ele>1073.8</ele>
        <time>2021-10-15T08:36:27Z</time>
      </trkpt>
      <trkpt lat="40.6857410" lon="-5.7713950">
        <ele>1074.0</ele>
        <time>2021-10-15T08:36:30Z</time>
      </trkpt>
      <trkpt lat="40.6856860" lon="-5.7714030">
        <ele>1074.4</ele>
        <time>2021-10-15T08:36:33Z</time>
      </trkpt>
      <trkpt lat="40.6855790" lon="-5.7714280">
        <ele>1074.8</ele>
        <time>2021-10-15T08:36:39Z</time>
      </trkpt>
      <trkpt lat="40.6855290" lon="-5.7714370">
        <ele>1075.2</ele>
        <time>2021-10-15T08:36:42Z</time>
      </trkpt>
      <trkpt lat="40.6854820" lon="-5.7714340">
        <ele>1075.4</ele>
        <time>2021-10-15T08:36:44Z</time>
      </trkpt>
      <trkpt lat="40.6854630" lon="-5.7714330">
        <ele>1075.6</ele>
        <time>2021-10-15T08:36:45Z</time>
      </trkpt>
      <trkpt lat="40.6854430" lon="-5.7714330">
        <ele>1075.8</ele>
        <time>2021-10-15T08:36:46Z</time>
      </trkpt>
      <trkpt lat="40.6854290" lon="-5.7714330">
        <ele>1076.0</ele>
        <time>2021-10-15T08:36:47Z</time>
      </trkpt>
      <trkpt lat="40.6854070" lon="-5.7714290">
        <ele>1076.2</ele>
        <time>2021-10-15T08:36:48Z</time>
      </trkpt>
      <trkpt lat="40.6853900" lon="-5.7714290">
        <ele>1076.2</ele>
        <time>2021-10-15T08:36:49Z</time>
      </trkpt>
      <trkpt lat="40.6853640" lon="-5.7714360">
        <ele>1076.4</ele>
        <time>2021-10-15T08:36:51Z</time>
      </trkpt>
      <trkpt lat="40.6853070" lon="-5.7714360">
        <ele>1076.8</ele>
        <time>2021-10-15T08:36:54Z</time>
      </trkpt>
      <trkpt lat="40.6852890" lon="-5.7714360">
        <ele>1077.0</ele>
        <time>2021-10-15T08:36:55Z</time>
      </trkpt>
      <trkpt lat="40.6852540" lon="-5.7714380">
        <ele>1077.0</ele>
        <time>2021-10-15T08:36:57Z</time>
      </trkpt>
      <trkpt lat="40.6852370" lon="-5.7714410">
        <ele>1077.2</ele>
        <time>2021-10-15T08:36:58Z</time>
      </trkpt>
      <trkpt lat="40.6851690" lon="-5.7714490">
        <ele>1077.6</ele>
        <time>2021-10-15T08:37:02Z</time>
      </trkpt>
      <trkpt lat="40.6851260" lon="-5.7714540">
        <ele>1078.0</ele>
        <time>2021-10-15T08:37:04Z</time>
      </trkpt>
      <trkpt lat="40.6850680" lon="-5.7714640">
        <ele>1078.4</ele>
        <time>2021-10-15T08:37:07Z</time>
      </trkpt>
      <trkpt lat="40.6849630" lon="-5.7714740">
        <ele>1079.4</ele>
        <time>2021-10-15T08:37:13Z</time>
      </trkpt>
      <trkpt lat="40.6849450" lon="-5.7714740">
        <ele>1079.6</ele>
        <time>2021-10-15T08:37:14Z</time>
      </trkpt>
      <trkpt lat="40.6848610" lon="-5.7714840">
        <ele>1080.2</ele>
        <time>2021-10-15T08:37:19Z</time>
      </trkpt>
      <trkpt lat="40.6847940" lon="-5.7714960">
        <ele>1080.6</ele>
        <time>2021-10-15T08:37:23Z</time>
      </trkpt>
      <trkpt lat="40.6847800" lon="-5.7715000">
        <ele>1080.8</ele>
        <time>2021-10-15T08:37:24Z</time>
      </trkpt>
      <trkpt lat="40.6846420" lon="-5.7715130">
        <ele>1081.8</ele>
        <time>2021-10-15T08:37:32Z</time>
      </trkpt>
      <trkpt lat="40.6846250" lon="-5.7715160">
        <ele>1081.8</ele>
        <time>2021-10-15T08:37:33Z</time>
      </trkpt>
      <trkpt lat="40.6845720" lon="-5.7715160">
        <ele>1082.4</ele>
        <time>2021-10-15T08:37:36Z</time>
      </trkpt>
      <trkpt lat="40.6845510" lon="-5.7715190">
        <ele>1082.6</ele>
        <time>2021-10-15T08:37:37Z</time>
      </trkpt>
      <trkpt lat="40.6845360" lon="-5.7715200">
        <ele>1082.8</ele>
        <time>2021-10-15T08:37:38Z</time>
      </trkpt>
      <trkpt lat="40.6844620" lon="-5.7715310">
        <ele>1083.4</ele>
        <time>2021-10-15T08:37:42Z</time>
      </trkpt>
      <trkpt lat="40.6844160" lon="-5.7715360">
        <ele>1083.8</ele>
        <time>2021-10-15T08:37:45Z</time>
      </trkpt>
      <trkpt lat="40.6843290" lon="-5.7715420">
        <ele>1084.4</ele>
        <time>2021-10-15T08:37:50Z</time>
      </trkpt>
      <trkpt lat="40.6842790" lon="-5.7715470">
        <ele>1084.8</ele>
        <time>2021-10-15T08:37:53Z</time>
      </trkpt>
      <trkpt lat="40.6841940" lon="-5.7715450">
        <ele>1085.8</ele>
        <time>2021-10-15T08:37:58Z</time>
      </trkpt>
      <trkpt lat="40.6841730" lon="-5.7715470">
        <ele>1085.8</ele>
        <time>2021-10-15T08:37:59Z</time>
      </trkpt>
      <trkpt lat="40.6841520" lon="-5.7715470">
        <ele>1086.0</ele>
        <time>2021-10-15T08:38:00Z</time>
      </trkpt>
      <trkpt lat="40.6841000" lon="-5.7715480">
        <ele>1086.2</ele>
        <time>2021-10-15T08:38:03Z</time>
      </trkpt>
      <trkpt lat="40.6840260" lon="-5.7715390">
        <ele>1087.0</ele>
        <time>2021-10-15T08:38:07Z</time>
      </trkpt>
      <trkpt lat="40.6840090" lon="-5.7715350">
        <ele>1087.2</ele>
        <time>2021-10-15T08:38:08Z</time>
      </trkpt>
      <trkpt lat="40.6839930" lon="-5.7715280">
        <ele>1087.2</ele>
        <time>2021-10-15T08:38:09Z</time>
      </trkpt>
      <trkpt lat="40.6839600" lon="-5.7715280">
        <ele>1087.2</ele>
        <time>2021-10-15T08:38:11Z</time>
      </trkpt>
      <trkpt lat="40.6839270" lon="-5.7715300">
        <ele>1087.4</ele>
        <time>2021-10-15T08:38:13Z</time>
      </trkpt>
      <trkpt lat="40.6838930" lon="-5.7715300">
        <ele>1087.8</ele>
        <time>2021-10-15T08:38:15Z</time>
      </trkpt>
      <trkpt lat="40.6838750" lon="-5.7715270">
        <ele>1087.6</ele>
        <time>2021-10-15T08:38:16Z</time>
      </trkpt>
      <trkpt lat="40.6837550" lon="-5.7715110">
        <ele>1088.0</ele>
        <time>2021-10-15T08:38:22Z</time>
      </trkpt>
      <trkpt lat="40.6836960" lon="-5.7715020">
        <ele>1088.2</ele>
        <time>2021-10-15T08:38:25Z</time>
      </trkpt>
      <trkpt lat="40.6836220" lon="-5.7715040">
        <ele>1088.6</ele>
        <time>2021-10-15T08:38:29Z</time>
      </trkpt>
      <trkpt lat="40.6835310" lon="-5.7714830">
        <ele>1089.0</ele>
        <time>2021-10-15T08:38:34Z</time>
      </trkpt>
      <trkpt lat="40.6834970" lon="-5.7714840">
        <ele>1089.0</ele>
        <time>2021-10-15T08:38:36Z</time>
      </trkpt>
      <trkpt lat="40.6834330" lon="-5.7715000">
        <ele>1089.2</ele>
        <time>2021-10-15T08:38:41Z</time>
      </trkpt>
      <trkpt lat="40.6834120" lon="-5.7715100">
        <ele>1089.2</ele>
        <time>2021-10-15T08:38:43Z</time>
      </trkpt>
      <trkpt lat="40.6834090" lon="-5.7715130">
        <ele>1089.4</ele>
        <time>2021-10-15T08:38:45Z</time>
      </trkpt>
      <trkpt lat="40.6834090" lon="-5.7715130">
        <ele>1089.4</ele>
        <time>2021-10-15T08:38:46Z</time>
      </trkpt>
      <trkpt lat="40.6833080" lon="-5.7715090">
        <ele>1089.2</ele>
        <time>2021-10-15T08:44:15Z</time>
      </trkpt>
      <trkpt lat="40.6832860" lon="-5.7715060">
        <ele>1089.2</ele>
        <time>2021-10-15T08:44:16Z</time>
      </trkpt>
      <trkpt lat="40.6832600" lon="-5.7715030">
        <ele>1089.2</ele>
        <time>2021-10-15T08:44:17Z</time>
      </trkpt>
      <trkpt lat="40.6831740" lon="-5.7715000">
        <ele>1089.2</ele>
        <time>2021-10-15T08:44:20Z</time>
      </trkpt>
      <trkpt lat="40.6830790" lon="-5.7715040">
        <ele>1089.2</ele>
        <time>2021-10-15T08:44:23Z</time>
      </trkpt>
      <trkpt lat="40.6830080" lon="-5.7715090">
        <ele>1089.0</ele>
        <time>2021-10-15T08:44:25Z</time>
      </trkpt>
      <trkpt lat="40.6827580" lon="-5.7715520">
        <ele>1088.8</ele>
        <time>2021-10-15T08:44:31Z</time>
      </trkpt>
      <trkpt lat="40.6824050" lon="-5.7716220">
        <ele>1088.0</ele>
        <time>2021-10-15T08:44:38Z</time>
      </trkpt>
      <trkpt lat="40.6821700" lon="-5.7716670">
        <ele>1087.4</ele>
        <time>2021-10-15T08:44:42Z</time>
      </trkpt>
      <trkpt lat="40.6819800" lon="-5.7717010">
        <ele>1087.0</ele>
        <time>2021-10-15T08:44:45Z</time>
      </trkpt>
      <trkpt lat="40.6817710" lon="-5.7717430">
        <ele>1086.0</ele>
        <time>2021-10-15T08:44:48Z</time>
      </trkpt>
      <trkpt lat="40.6815660" lon="-5.7717800">
        <ele>1085.2</ele>
        <time>2021-10-15T08:44:51Z</time>
      </trkpt>
      <trkpt lat="40.6814970" lon="-5.7717920">
        <ele>1084.8</ele>
        <time>2021-10-15T08:44:52Z</time>
      </trkpt>
      <trkpt lat="40.6812010" lon="-5.7718530">
        <ele>1083.6</ele>
        <time>2021-10-15T08:44:56Z</time>
      </trkpt>
      <trkpt lat="40.6808170" lon="-5.7719280">
        <ele>1082.6</ele>
        <time>2021-10-15T08:45:01Z</time>
      </trkpt>
      <trkpt lat="40.6807590" lon="-5.7719410">
        <ele>1082.4</ele>
        <time>2021-10-15T08:45:02Z</time>
      </trkpt>
      <trkpt lat="40.6806150" lon="-5.7719690">
        <ele>1081.6</ele>
        <time>2021-10-15T08:45:04Z</time>
      </trkpt>
      <trkpt lat="40.6802590" lon="-5.7720410">
        <ele>1080.4</ele>
        <time>2021-10-15T08:45:09Z</time>
      </trkpt>
      <trkpt lat="40.6801320" lon="-5.7720630">
        <ele>1079.6</ele>
        <time>2021-10-15T08:45:11Z</time>
      </trkpt>
      <trkpt lat="40.6800720" lon="-5.7720750">
        <ele>1079.4</ele>
        <time>2021-10-15T08:45:12Z</time>
      </trkpt>
      <trkpt lat="40.6799140" lon="-5.7720980">
        <ele>1078.2</ele>
        <time>2021-10-15T08:45:15Z</time>
      </trkpt>
      <trkpt lat="40.6798580" lon="-5.7721100">
        <ele>1078.0</ele>
        <time>2021-10-15T08:45:16Z</time>
      </trkpt>
      <trkpt lat="40.6795510" lon="-5.7721670">
        <ele>1077.0</ele>
        <time>2021-10-15T08:45:21Z</time>
      </trkpt>
      <trkpt lat="40.6793550" lon="-5.7722070">
        <ele>1076.4</ele>
        <time>2021-10-15T08:45:24Z</time>
      </trkpt>
      <trkpt lat="40.6791520" lon="-5.7722520">
        <ele>1075.8</ele>
        <time>2021-10-15T08:45:27Z</time>
      </trkpt>
      <trkpt lat="40.6788560" lon="-5.7723020">
        <ele>1074.8</ele>
        <time>2021-10-15T08:45:31Z</time>
      </trkpt>
      <trkpt lat="40.6786450" lon="-5.7723170">
        <ele>1073.8</ele>
        <time>2021-10-15T08:45:34Z</time>
      </trkpt>
      <trkpt lat="40.6785720" lon="-5.7723070">
        <ele>1073.4</ele>
        <time>2021-10-15T08:45:35Z</time>
      </trkpt>
      <trkpt lat="40.6784970" lon="-5.7722910">
        <ele>1073.4</ele>
        <time>2021-10-15T08:45:36Z</time>
      </trkpt>
      <trkpt lat="40.6780910" lon="-5.7721930">
        <ele>1072.0</ele>
        <time>2021-10-15T08:45:41Z</time>
      </trkpt>
      <trkpt lat="40.6780060" lon="-5.7721740">
        <ele>1071.8</ele>
        <time>2021-10-15T08:45:42Z</time>
      </trkpt>
      <trkpt lat="40.6778240" lon="-5.7721330">
        <ele>1071.0</ele>
        <time>2021-10-15T08:45:44Z</time>
      </trkpt>
      <trkpt lat="40.6776450" lon="-5.7720920">
        <ele>1069.6</ele>
        <time>2021-10-15T08:45:46Z</time>
      </trkpt>
      <trkpt lat="40.6773520" lon="-5.7720160">
        <ele>1068.6</ele>
        <time>2021-10-15T08:45:49Z</time>
      </trkpt>
      <trkpt lat="40.6772810" lon="-5.7719990">
        <ele>1068.0</ele>
        <time>2021-10-15T08:45:50Z</time>
      </trkpt>
      <trkpt lat="40.6769220" lon="-5.7719110">
        <ele>1066.6</ele>
        <time>2021-10-15T08:45:54Z</time>
      </trkpt>
      <trkpt lat="40.6767320" lon="-5.7718650">
        <ele>1066.0</ele>
        <time>2021-10-15T08:45:56Z</time>
      </trkpt>
      <trkpt lat="40.6766400" lon="-5.7718380">
        <ele>1065.2</ele>
        <time>2021-10-15T08:45:57Z</time>
      </trkpt>
      <trkpt lat="40.6763690" lon="-5.7717540">
        <ele>1064.0</ele>
        <time>2021-10-15T08:46:00Z</time>
      </trkpt>
      <trkpt lat="40.6761860" lon="-5.7717040">
        <ele>1063.0</ele>
        <time>2021-10-15T08:46:02Z</time>
      </trkpt>
      <trkpt lat="40.6758160" lon="-5.7716070">
        <ele>1061.4</ele>
        <time>2021-10-15T08:46:06Z</time>
      </trkpt>
      <trkpt lat="40.6757230" lon="-5.7715840">
        <ele>1061.2</ele>
        <time>2021-10-15T08:46:07Z</time>
      </trkpt>
      <trkpt lat="40.6755400" lon="-5.7715350">
        <ele>1060.4</ele>
        <time>2021-10-15T08:46:09Z</time>
      </trkpt>
      <trkpt lat="40.6752720" lon="-5.7714690">
        <ele>1059.2</ele>
        <time>2021-10-15T08:46:12Z</time>
      </trkpt>
      <trkpt lat="40.6750090" lon="-5.7714020">
        <ele>1057.8</ele>
        <time>2021-10-15T08:46:15Z</time>
      </trkpt>
      <trkpt lat="40.6748390" lon="-5.7713580">
        <ele>1056.8</ele>
        <time>2021-10-15T08:46:17Z</time>
      </trkpt>
      <trkpt lat="40.6745850" lon="-5.7713230">
        <ele>1055.8</ele>
        <time>2021-10-15T08:46:20Z</time>
      </trkpt>
      <trkpt lat="40.6744970" lon="-5.7713280">
        <ele>1055.4</ele>
        <time>2021-10-15T08:46:21Z</time>
      </trkpt>
      <trkpt lat="40.6742250" lon="-5.7713710">
        <ele>1054.4</ele>
        <time>2021-10-15T08:46:24Z</time>
      </trkpt>
      <trkpt lat="40.6740400" lon="-5.7714050">
        <ele>1053.4</ele>
        <time>2021-10-15T08:46:26Z</time>
      </trkpt>
      <trkpt lat="40.6738530" lon="-5.7714430">
        <ele>1052.0</ele>
        <time>2021-10-15T08:46:28Z</time>
      </trkpt>
      <trkpt lat="40.6735440" lon="-5.7715080">
        <ele>1051.0</ele>
        <time>2021-10-15T08:46:31Z</time>
      </trkpt>
      <trkpt lat="40.6733710" lon="-5.7715450">
        <ele>1049.8</ele>
        <time>2021-10-15T08:46:33Z</time>
      </trkpt>
      <trkpt lat="40.6730960" lon="-5.7715830">
        <ele>1048.4</ele>
        <time>2021-10-15T08:46:36Z</time>
      </trkpt>
      <trkpt lat="40.6728210" lon="-5.7715610">
        <ele>1047.0</ele>
        <time>2021-10-15T08:46:39Z</time>
      </trkpt>
      <trkpt lat="40.6726160" lon="-5.7715240">
        <ele>1046.2</ele>
        <time>2021-10-15T08:46:41Z</time>
      </trkpt>
      <trkpt lat="40.6725400" lon="-5.7715070">
        <ele>1045.8</ele>
        <time>2021-10-15T08:46:42Z</time>
      </trkpt>
      <trkpt lat="40.6722650" lon="-5.7714350">
        <ele>1044.4</ele>
        <time>2021-10-15T08:46:45Z</time>
      </trkpt>
      <trkpt lat="40.6720700" lon="-5.7713460">
        <ele>1043.6</ele>
        <time>2021-10-15T08:46:47Z</time>
      </trkpt>
      <trkpt lat="40.6720040" lon="-5.7712960">
        <ele>1043.2</ele>
        <time>2021-10-15T08:46:48Z</time>
      </trkpt>
      <trkpt lat="40.6717490" lon="-5.7711080">
        <ele>1042.0</ele>
        <time>2021-10-15T08:46:51Z</time>
      </trkpt>
      <trkpt lat="40.6714870" lon="-5.7709070">
        <ele>1040.4</ele>
        <time>2021-10-15T08:46:54Z</time>
      </trkpt>
      <trkpt lat="40.6713980" lon="-5.7708370">
        <ele>1040.2</ele>
        <time>2021-10-15T08:46:55Z</time>
      </trkpt>
      <trkpt lat="40.6713110" lon="-5.7707660">
        <ele>1039.4</ele>
        <time>2021-10-15T08:46:56Z</time>
      </trkpt>
      <trkpt lat="40.6710330" lon="-5.7705430">
        <ele>1038.0</ele>
        <time>2021-10-15T08:46:59Z</time>
      </trkpt>
      <trkpt lat="40.6706920" lon="-5.7703030">
        <ele>1036.2</ele>
        <time>2021-10-15T08:47:03Z</time>
      </trkpt>
      <trkpt lat="40.6706100" lon="-5.7702500">
        <ele>1035.8</ele>
        <time>2021-10-15T08:47:04Z</time>
      </trkpt>
      <trkpt lat="40.6705270" lon="-5.7702020">
        <ele>1035.2</ele>
        <time>2021-10-15T08:47:05Z</time>
      </trkpt>
      <trkpt lat="40.6703520" lon="-5.7701400">
        <ele>1034.4</ele>
        <time>2021-10-15T08:47:07Z</time>
      </trkpt>
      <trkpt lat="40.6702590" lon="-5.7701250">
        <ele>1034.2</ele>
        <time>2021-10-15T08:47:08Z</time>
      </trkpt>
      <trkpt lat="40.6699960" lon="-5.7701120">
        <ele>1033.2</ele>
        <time>2021-10-15T08:47:11Z</time>
      </trkpt>
      <trkpt lat="40.6697990" lon="-5.7701120">
        <ele>1031.8</ele>
        <time>2021-10-15T08:47:13Z</time>
      </trkpt>
      <trkpt lat="40.6695010" lon="-5.7701180">
        <ele>1030.0</ele>
        <time>2021-10-15T08:47:16Z</time>
      </trkpt>
      <trkpt lat="40.6694020" lon="-5.7701160">
        <ele>1029.8</ele>
        <time>2021-10-15T08:47:17Z</time>
      </trkpt>
      <trkpt lat="40.6692820" lon="-5.7701130">
        <ele>1028.8</ele>
        <time>2021-10-15T08:47:18Z</time>
      </trkpt>
      <trkpt lat="40.6691060" lon="-5.7701140">
        <ele>1027.8</ele>
        <time>2021-10-15T08:47:20Z</time>
      </trkpt>
      <trkpt lat="40.6688220" lon="-5.7701270">
        <ele>1025.6</ele>
        <time>2021-10-15T08:47:23Z</time>
      </trkpt>
      <trkpt lat="40.6686360" lon="-5.7701630">
        <ele>1024.6</ele>
        <time>2021-10-15T08:47:25Z</time>
      </trkpt>
      <trkpt lat="40.6685440" lon="-5.7701940">
        <ele>1024.2</ele>
        <time>2021-10-15T08:47:26Z</time>
      </trkpt>
      <trkpt lat="40.6683640" lon="-5.7702660">
        <ele>1023.2</ele>
        <time>2021-10-15T08:47:28Z</time>
      </trkpt>
      <trkpt lat="40.6681710" lon="-5.7703540">
        <ele>1021.6</ele>
        <time>2021-10-15T08:47:30Z</time>
      </trkpt>
      <trkpt lat="40.6680850" lon="-5.7703950">
        <ele>1021.2</ele>
        <time>2021-10-15T08:47:31Z</time>
      </trkpt>
      <trkpt lat="40.6680160" lon="-5.7704280">
        <ele>1020.4</ele>
        <time>2021-10-15T08:47:32Z</time>
      </trkpt>
      <trkpt lat="40.6677530" lon="-5.7705510">
        <ele>1019.2</ele>
        <time>2021-10-15T08:47:35Z</time>
      </trkpt>
      <trkpt lat="40.6674960" lon="-5.7706770">
        <ele>1017.2</ele>
        <time>2021-10-15T08:47:38Z</time>
      </trkpt>
      <trkpt lat="40.6672220" lon="-5.7707960">
        <ele>1015.4</ele>
        <time>2021-10-15T08:47:41Z</time>
      </trkpt>
      <trkpt lat="40.6670640" lon="-5.7708470">
        <ele>1014.2</ele>
        <time>2021-10-15T08:47:43Z</time>
      </trkpt>
      <trkpt lat="40.6667910" lon="-5.7708850">
        <ele>1012.8</ele>
        <time>2021-10-15T08:47:46Z</time>
      </trkpt>
      <trkpt lat="40.6665980" lon="-5.7708760">
        <ele>1011.6</ele>
        <time>2021-10-15T08:47:48Z</time>
      </trkpt>
      <trkpt lat="40.6664030" lon="-5.7708700">
        <ele>1010.2</ele>
        <time>2021-10-15T08:47:50Z</time>
      </trkpt>
      <trkpt lat="40.6662040" lon="-5.7708660">
        <ele>1009.2</ele>
        <time>2021-10-15T08:47:52Z</time>
      </trkpt>
      <trkpt lat="40.6659160" lon="-5.7708550">
        <ele>1008.0</ele>
        <time>2021-10-15T08:47:55Z</time>
      </trkpt>
      <trkpt lat="40.6656330" lon="-5.7708460">
        <ele>1006.8</ele>
        <time>2021-10-15T08:47:58Z</time>
      </trkpt>
      <trkpt lat="40.6653640" lon="-5.7708360">
        <ele>1005.6</ele>
        <time>2021-10-15T08:48:01Z</time>
      </trkpt>
      <trkpt lat="40.6650300" lon="-5.7708270">
        <ele>1004.2</ele>
        <time>2021-10-15T08:48:05Z</time>
      </trkpt>
      <trkpt lat="40.6647790" lon="-5.7708260">
        <ele>1003.4</ele>
        <time>2021-10-15T08:48:08Z</time>
      </trkpt>
      <trkpt lat="40.6645790" lon="-5.7708170">
        <ele>1002.8</ele>
        <time>2021-10-15T08:48:11Z</time>
      </trkpt>
      <trkpt lat="40.6643580" lon="-5.7708310">
        <ele>1002.6</ele>
        <time>2021-10-15T08:48:14Z</time>
      </trkpt>
      <trkpt lat="40.6642200" lon="-5.7708770">
        <ele>1002.4</ele>
        <time>2021-10-15T08:48:16Z</time>
      </trkpt>
      <trkpt lat="40.6640950" lon="-5.7709510">
        <ele>1002.2</ele>
        <time>2021-10-15T08:48:18Z</time>
      </trkpt>
      <trkpt lat="40.6640370" lon="-5.7709990">
        <ele>1002.0</ele>
        <time>2021-10-15T08:48:19Z</time>
      </trkpt>
      <trkpt lat="40.6639480" lon="-5.7711010">
        <ele>1002.0</ele>
        <time>2021-10-15T08:48:21Z</time>
      </trkpt>
      <trkpt lat="40.6638970" lon="-5.7711770">
        <ele>1001.8</ele>
        <time>2021-10-15T08:48:22Z</time>
      </trkpt>
      <trkpt lat="40.6638660" lon="-5.7712300">
        <ele>1001.8</ele>
        <time>2021-10-15T08:48:23Z</time>
      </trkpt>
      <trkpt lat="40.6637390" lon="-5.7714960">
        <ele>1001.6</ele>
        <time>2021-10-15T08:48:27Z</time>
      </trkpt>
      <trkpt lat="40.6636580" lon="-5.7716900">
        <ele>1001.4</ele>
        <time>2021-10-15T08:48:30Z</time>
      </trkpt>
      <trkpt lat="40.6635850" lon="-5.7718740">
        <ele>1001.2</ele>
        <time>2021-10-15T08:48:33Z</time>
      </trkpt>
      <trkpt lat="40.6634960" lon="-5.7721120">
        <ele>1000.8</ele>
        <time>2021-10-15T08:48:37Z</time>
      </trkpt>
      <trkpt lat="40.6634030" lon="-5.7723530">
        <ele>1000.4</ele>
        <time>2021-10-15T08:48:41Z</time>
      </trkpt>
      <trkpt lat="40.6633220" lon="-5.7725780">
        <ele>999.6</ele>
        <time>2021-10-15T08:48:45Z</time>
      </trkpt>
      <trkpt lat="40.6632530" lon="-5.7727340">
        <ele>999.4</ele>
        <time>2021-10-15T08:48:48Z</time>
      </trkpt>
      <trkpt lat="40.6632070" lon="-5.7728370">
        <ele>999.2</ele>
        <time>2021-10-15T08:48:50Z</time>
      </trkpt>
      <trkpt lat="40.6631180" lon="-5.7730580">
        <ele>998.6</ele>
        <time>2021-10-15T08:48:54Z</time>
      </trkpt>
      <trkpt lat="40.6630890" lon="-5.7731250">
        <ele>998.6</ele>
        <time>2021-10-15T08:48:55Z</time>
      </trkpt>
      <trkpt lat="40.6629400" lon="-5.7734780">
        <ele>998.0</ele>
        <time>2021-10-15T08:49:01Z</time>
      </trkpt>
      <trkpt lat="40.6628800" lon="-5.7736050">
        <ele>997.4</ele>
        <time>2021-10-15T08:49:03Z</time>
      </trkpt>
      <trkpt lat="40.6627780" lon="-5.7737930">
        <ele>997.0</ele>
        <time>2021-10-15T08:49:06Z</time>
      </trkpt>
      <trkpt lat="40.6625760" lon="-5.7741140">
        <ele>996.4</ele>
        <time>2021-10-15T08:49:11Z</time>
      </trkpt>
      <trkpt lat="40.6625330" lon="-5.7741780">
        <ele>996.2</ele>
        <time>2021-10-15T08:49:12Z</time>
      </trkpt>
      <trkpt lat="40.6623630" lon="-5.7744440">
        <ele>995.2</ele>
        <time>2021-10-15T08:49:16Z</time>
      </trkpt>
      <trkpt lat="40.6621950" lon="-5.7746980">
        <ele>995.0</ele>
        <time>2021-10-15T08:49:20Z</time>
      </trkpt>
      <trkpt lat="40.6620190" lon="-5.7749520">
        <ele>994.2</ele>
        <time>2021-10-15T08:49:24Z</time>
      </trkpt>
      <trkpt lat="40.6617750" lon="-5.7752360">
        <ele>993.2</ele>
        <time>2021-10-15T08:49:29Z</time>
      </trkpt>
      <trkpt lat="40.6617220" lon="-5.7752880">
        <ele>993.2</ele>
        <time>2021-10-15T08:49:30Z</time>
      </trkpt>
      <trkpt lat="40.6612550" lon="-5.7757250">
        <ele>991.8</ele>
        <time>2021-10-15T08:49:38Z</time>
      </trkpt>
      <trkpt lat="40.6612070" lon="-5.7757680">
        <ele>991.6</ele>
        <time>2021-10-15T08:49:39Z</time>
      </trkpt>
      <trkpt lat="40.6609370" lon="-5.7760110">
        <ele>990.6</ele>
        <time>2021-10-15T08:49:43Z</time>
      </trkpt>
      <trkpt lat="40.6607380" lon="-5.7761940">
        <ele>989.4</ele>
        <time>2021-10-15T08:49:46Z</time>
      </trkpt>
      <trkpt lat="40.6606830" lon="-5.7762400">
        <ele>988.8</ele>
        <time>2021-10-15T08:49:47Z</time>
      </trkpt>
      <trkpt lat="40.6605420" lon="-5.7763650">
        <ele>988.2</ele>
        <time>2021-10-15T08:49:49Z</time>
      </trkpt>
      <trkpt lat="40.6603110" lon="-5.7765810">
        <ele>987.0</ele>
        <time>2021-10-15T08:49:52Z</time>
      </trkpt>
      <trkpt lat="40.6601720" lon="-5.7767100">
        <ele>986.2</ele>
        <time>2021-10-15T08:49:54Z</time>
      </trkpt>
      <trkpt lat="40.6600790" lon="-5.7767970">
        <ele>985.6</ele>
        <time>2021-10-15T08:49:55Z</time>
      </trkpt>
      <trkpt lat="40.6598590" lon="-5.7769940">
        <ele>983.8</ele>
        <time>2021-10-15T08:49:58Z</time>
      </trkpt>
      <trkpt lat="40.6596840" lon="-5.7771520">
        <ele>982.6</ele>
        <time>2021-10-15T08:50:00Z</time>
      </trkpt>
      <trkpt lat="40.6595270" lon="-5.7773010">
        <ele>981.6</ele>
        <time>2021-10-15T08:50:02Z</time>
      </trkpt>
      <trkpt lat="40.6593000" lon="-5.7775130">
        <ele>980.4</ele>
        <time>2021-10-15T08:50:05Z</time>
      </trkpt>
      <trkpt lat="40.6591580" lon="-5.7776440">
        <ele>979.2</ele>
        <time>2021-10-15T08:50:07Z</time>
      </trkpt>
      <trkpt lat="40.6590370" lon="-5.7777520">
        <ele>978.2</ele>
        <time>2021-10-15T08:50:09Z</time>
      </trkpt>
      <trkpt lat="40.6589690" lon="-5.7778130">
        <ele>977.8</ele>
        <time>2021-10-15T08:50:10Z</time>
      </trkpt>
      <trkpt lat="40.6587680" lon="-5.7779870">
        <ele>976.8</ele>
        <time>2021-10-15T08:50:13Z</time>
      </trkpt>
      <trkpt lat="40.6586610" lon="-5.7780870">
        <ele>975.8</ele>
        <time>2021-10-15T08:50:15Z</time>
      </trkpt>
      <trkpt lat="40.6585650" lon="-5.7781780">
        <ele>974.6</ele>
        <time>2021-10-15T08:50:17Z</time>
      </trkpt>
      <trkpt lat="40.6584390" lon="-5.7782970">
        <ele>973.0</ele>
        <time>2021-10-15T08:50:20Z</time>
      </trkpt>
      <trkpt lat="40.6584070" lon="-5.7783310">
        <ele>972.8</ele>
        <time>2021-10-15T08:50:21Z</time>
      </trkpt>
      <trkpt lat="40.6583200" lon="-5.7783820">
        <ele>971.8</ele>
        <time>2021-10-15T08:50:24Z</time>
      </trkpt>
      <trkpt lat="40.6582780" lon="-5.7783650">
        <ele>971.8</ele>
        <time>2021-10-15T08:50:25Z</time>
      </trkpt>
      <trkpt lat="40.6582510" lon="-5.7783340">
        <ele>971.4</ele>
        <time>2021-10-15T08:50:26Z</time>
      </trkpt>
      <trkpt lat="40.6582240" lon="-5.7782580">
        <ele>971.0</ele>
        <time>2021-10-15T08:50:28Z</time>
      </trkpt>
      <trkpt lat="40.6582180" lon="-5.7780780">
        <ele>971.2</ele>
        <time>2021-10-15T08:50:33Z</time>
      </trkpt>
      <trkpt lat="40.6581930" lon="-5.7778690">
        <ele>972.4</ele>
        <time>2021-10-15T08:50:40Z</time>
      </trkpt>
      <trkpt lat="40.6581760" lon="-5.7777830">
        <ele>973.0</ele>
        <time>2021-10-15T08:50:43Z</time>
      </trkpt>
      <trkpt lat="40.6581710" lon="-5.7777510">
        <ele>973.2</ele>
        <time>2021-10-15T08:50:44Z</time>
      </trkpt>
      <trkpt lat="40.6581440" lon="-5.7776320">
        <ele>973.8</ele>
        <time>2021-10-15T08:50:48Z</time>
      </trkpt>
      <trkpt lat="40.6581370" lon="-5.7776040">
        <ele>973.8</ele>
        <time>2021-10-15T08:50:49Z</time>
      </trkpt>
      <trkpt lat="40.6581130" lon="-5.7775310">
        <ele>974.2</ele>
        <time>2021-10-15T08:50:52Z</time>
      </trkpt>
      <trkpt lat="40.6581080" lon="-5.7775000">
        <ele>974.2</ele>
        <time>2021-10-15T08:50:53Z</time>
      </trkpt>
      <trkpt lat="40.6580780" lon="-5.7774060">
        <ele>974.8</ele>
        <time>2021-10-15T08:50:57Z</time>
      </trkpt>
      <trkpt lat="40.6580660" lon="-5.7773580">
        <ele>975.2</ele>
        <time>2021-10-15T08:50:59Z</time>
      </trkpt>
      <trkpt lat="40.6580250" lon="-5.7772730">
        <ele>975.6</ele>
        <time>2021-10-15T08:51:03Z</time>
      </trkpt>
      <trkpt lat="40.6579660" lon="-5.7771660">
        <ele>976.2</ele>
        <time>2021-10-15T08:51:08Z</time>
      </trkpt>
      <trkpt lat="40.6579320" lon="-5.7771040">
        <ele>976.6</ele>
        <time>2021-10-15T08:51:11Z</time>
      </trkpt>
      <trkpt lat="40.6579220" lon="-5.7770830">
        <ele>976.6</ele>
        <time>2021-10-15T08:51:12Z</time>
      </trkpt>
      <trkpt lat="40.6579050" lon="-5.7770440">
        <ele>976.8</ele>
        <time>2021-10-15T08:51:14Z</time>
      </trkpt>
      <trkpt lat="40.6578780" lon="-5.7770040">
        <ele>977.2</ele>
        <time>2021-10-15T08:51:16Z</time>
      </trkpt>
      <trkpt lat="40.6578370" lon="-5.7769260">
        <ele>977.6</ele>
        <time>2021-10-15T08:51:20Z</time>
      </trkpt>
      <trkpt lat="40.6577620" lon="-5.7768060">
        <ele>978.2</ele>
        <time>2021-10-15T08:51:26Z</time>
      </trkpt>
      <trkpt lat="40.6577150" lon="-5.7767270">
        <ele>978.8</ele>
        <time>2021-10-15T08:51:30Z</time>
      </trkpt>
      <trkpt lat="40.6576710" lon="-5.7766510">
        <ele>979.2</ele>
        <time>2021-10-15T08:51:34Z</time>
      </trkpt>
      <trkpt lat="40.6576600" lon="-5.7766350">
        <ele>979.4</ele>
        <time>2021-10-15T08:51:35Z</time>
      </trkpt>
      <trkpt lat="40.6576140" lon="-5.7765540">
        <ele>979.8</ele>
        <time>2021-10-15T08:51:39Z</time>
      </trkpt>
      <trkpt lat="40.6575750" lon="-5.7764690">
        <ele>980.4</ele>
        <time>2021-10-15T08:51:43Z</time>
      </trkpt>
      <trkpt lat="40.6575310" lon="-5.7763810">
        <ele>981.0</ele>
        <time>2021-10-15T08:51:47Z</time>
      </trkpt>
      <trkpt lat="40.6575040" lon="-5.7763190">
        <ele>981.4</ele>
        <time>2021-10-15T08:51:50Z</time>
      </trkpt>
      <trkpt lat="40.6574830" lon="-5.7762820">
        <ele>981.6</ele>
        <time>2021-10-15T08:51:52Z</time>
      </trkpt>
      <trkpt lat="40.6574640" lon="-5.7762320">
        <ele>982.0</ele>
        <time>2021-10-15T08:51:54Z</time>
      </trkpt>
      <trkpt lat="40.6574350" lon="-5.7761430">
        <ele>982.4</ele>
        <time>2021-10-15T08:51:58Z</time>
      </trkpt>
      <trkpt lat="40.6574170" lon="-5.7761020">
        <ele>982.6</ele>
        <time>2021-10-15T08:52:00Z</time>
      </trkpt>
      <trkpt lat="40.6573700" lon="-5.7759810">
        <ele>983.8</ele>
        <time>2021-10-15T08:52:06Z</time>
      </trkpt>
      <trkpt lat="40.6573610" lon="-5.7759560">
        <ele>984.0</ele>
        <time>2021-10-15T08:52:07Z</time>
      </trkpt>
      <trkpt lat="40.6573160" lon="-5.7758490">
        <ele>984.4</ele>
        <time>2021-10-15T08:52:12Z</time>
      </trkpt>
      <trkpt lat="40.6573000" lon="-5.7758010">
        <ele>984.6</ele>
        <time>2021-10-15T08:52:14Z</time>
      </trkpt>
      <trkpt lat="40.6572930" lon="-5.7757810">
        <ele>984.8</ele>
        <time>2021-10-15T08:52:15Z</time>
      </trkpt>
      <trkpt lat="40.6572830" lon="-5.7757590">
        <ele>985.0</ele>
        <time>2021-10-15T08:52:16Z</time>
      </trkpt>
      <trkpt lat="40.6572160" lon="-5.7755990">
        <ele>986.0</ele>
        <time>2021-10-15T08:52:24Z</time>
      </trkpt>
      <trkpt lat="40.6571770" lon="-5.7755120">
        <ele>986.6</ele>
        <time>2021-10-15T08:52:28Z</time>
      </trkpt>
      <trkpt lat="40.6571420" lon="-5.7754120">
        <ele>987.0</ele>
        <time>2021-10-15T08:52:33Z</time>
      </trkpt>
      <trkpt lat="40.6571170" lon="-5.7753540">
        <ele>987.4</ele>
        <time>2021-10-15T08:52:36Z</time>
      </trkpt>
      <trkpt lat="40.6570770" lon="-5.7752520">
        <ele>988.0</ele>
        <time>2021-10-15T08:52:41Z</time>
      </trkpt>
      <trkpt lat="40.6570280" lon="-5.7751300">
        <ele>988.6</ele>
        <time>2021-10-15T08:52:47Z</time>
      </trkpt>
      <trkpt lat="40.6570040" lon="-5.7750680">
        <ele>989.0</ele>
        <time>2021-10-15T08:52:50Z</time>
      </trkpt>
      <trkpt lat="40.6569470" lon="-5.7748910">
        <ele>990.2</ele>
        <time>2021-10-15T08:52:58Z</time>
      </trkpt>
      <trkpt lat="40.6569390" lon="-5.7748700">
        <ele>990.4</ele>
        <time>2021-10-15T08:52:59Z</time>
      </trkpt>
      <trkpt lat="40.6568950" lon="-5.7747610">
        <ele>990.8</ele>
        <time>2021-10-15T08:53:04Z</time>
      </trkpt>
      <trkpt lat="40.6568660" lon="-5.7746670">
        <ele>991.4</ele>
        <time>2021-10-15T08:53:08Z</time>
      </trkpt>
      <trkpt lat="40.6568190" lon="-5.7745410">
        <ele>992.0</ele>
        <time>2021-10-15T08:53:14Z</time>
      </trkpt>
      <trkpt lat="40.6568010" lon="-5.7744880">
        <ele>992.4</ele>
        <time>2021-10-15T08:53:16Z</time>
      </trkpt>
      <trkpt lat="40.6567810" lon="-5.7744390">
        <ele>992.6</ele>
        <time>2021-10-15T08:53:18Z</time>
      </trkpt>
      <trkpt lat="40.6567220" lon="-5.7742550">
        <ele>993.6</ele>
        <time>2021-10-15T08:53:26Z</time>
      </trkpt>
      <trkpt lat="40.6567150" lon="-5.7742320">
        <ele>993.6</ele>
        <time>2021-10-15T08:53:27Z</time>
      </trkpt>
      <trkpt lat="40.6566770" lon="-5.7740990">
        <ele>994.2</ele>
        <time>2021-10-15T08:53:33Z</time>
      </trkpt>
      <trkpt lat="40.6566640" lon="-5.7740450">
        <ele>994.4</ele>
        <time>2021-10-15T08:53:35Z</time>
      </trkpt>
      <trkpt lat="40.6566440" lon="-5.7739740">
        <ele>994.6</ele>
        <time>2021-10-15T08:53:38Z</time>
      </trkpt>
      <trkpt lat="40.6566150" lon="-5.7738600">
        <ele>995.0</ele>
        <time>2021-10-15T08:53:42Z</time>
      </trkpt>
      <trkpt lat="40.6565860" lon="-5.7737400">
        <ele>995.4</ele>
        <time>2021-10-15T08:53:46Z</time>
      </trkpt>
      <trkpt lat="40.6565800" lon="-5.7737180">
        <ele>995.8</ele>
        <time>2021-10-15T08:53:47Z</time>
      </trkpt>
      <trkpt lat="40.6565360" lon="-5.7735510">
        <ele>996.2</ele>
        <time>2021-10-15T08:53:53Z</time>
      </trkpt>
      <trkpt lat="40.6565290" lon="-5.7735230">
        <ele>996.4</ele>
        <time>2021-10-15T08:53:54Z</time>
      </trkpt>
      <trkpt lat="40.6565020" lon="-5.7734080">
        <ele>996.8</ele>
        <time>2021-10-15T08:53:58Z</time>
      </trkpt>
      <trkpt lat="40.6564700" lon="-5.7732690">
        <ele>997.2</ele>
        <time>2021-10-15T08:54:03Z</time>
      </trkpt>
      <trkpt lat="40.6564350" lon="-5.7731250">
        <ele>997.6</ele>
        <time>2021-10-15T08:54:08Z</time>
      </trkpt>
      <trkpt lat="40.6564150" lon="-5.7730360">
        <ele>997.8</ele>
        <time>2021-10-15T08:54:11Z</time>
      </trkpt>
      <trkpt lat="40.6563860" lon="-5.7728970">
        <ele>998.0</ele>
        <time>2021-10-15T08:54:15Z</time>
      </trkpt>
      <trkpt lat="40.6563340" lon="-5.7727150">
        <ele>998.4</ele>
        <time>2021-10-15T08:54:20Z</time>
      </trkpt>
      <trkpt lat="40.6563090" lon="-5.7725990">
        <ele>998.6</ele>
        <time>2021-10-15T08:54:25Z</time>
      </trkpt>
      <trkpt lat="40.6562960" lon="-5.7725800">
        <ele>998.8</ele>
        <time>2021-10-15T08:54:29Z</time>
      </trkpt>
      <trkpt lat="40.6562800" lon="-5.7725410">
        <ele>998.6</ele>
        <time>2021-10-15T08:55:21Z</time>
      </trkpt>
      <trkpt lat="40.6562700" lon="-5.7725110">
        <ele>998.6</ele>
        <time>2021-10-15T08:55:22Z</time>
      </trkpt>
      <trkpt lat="40.6562220" lon="-5.7723980">
        <ele>998.6</ele>
        <time>2021-10-15T08:55:26Z</time>
      </trkpt>
      <trkpt lat="40.6561900" lon="-5.7723370">
        <ele>998.6</ele>
        <time>2021-10-15T08:55:28Z</time>
      </trkpt>
      <trkpt lat="40.6560950" lon="-5.7721050">
        <ele>998.6</ele>
        <time>2021-10-15T08:55:35Z</time>
      </trkpt>
      <trkpt lat="40.6560060" lon="-5.7719120">
        <ele>998.4</ele>
        <time>2021-10-15T08:55:40Z</time>
      </trkpt>
      <trkpt lat="40.6559610" lon="-5.7717870">
        <ele>998.4</ele>
        <time>2021-10-15T08:55:43Z</time>
      </trkpt>
      <trkpt lat="40.6558500" lon="-5.7714370">
        <ele>998.0</ele>
        <time>2021-10-15T08:55:50Z</time>
      </trkpt>
      <trkpt lat="40.6557650" lon="-5.7711450">
        <ele>997.4</ele>
        <time>2021-10-15T08:55:55Z</time>
      </trkpt>
      <trkpt lat="40.6557000" lon="-5.7709010">
        <ele>997.2</ele>
        <time>2021-10-15T08:55:59Z</time>
      </trkpt>
      <trkpt lat="40.6556560" lon="-5.7707320">
        <ele>997.0</ele>
        <time>2021-10-15T08:56:02Z</time>
      </trkpt>
      <trkpt lat="40.6555790" lon="-5.7704660">
        <ele>996.6</ele>
        <time>2021-10-15T08:56:06Z</time>
      </trkpt>
      <trkpt lat="40.6554510" lon="-5.7699350">
        <ele>995.6</ele>
        <time>2021-10-15T08:56:14Z</time>
      </trkpt>
      <trkpt lat="40.6554340" lon="-5.7698680">
        <ele>995.4</ele>
        <time>2021-10-15T08:56:15Z</time>
      </trkpt>
      <trkpt lat="40.6552800" lon="-5.7692240">
        <ele>995.0</ele>
        <time>2021-10-15T08:56:25Z</time>
      </trkpt>
      <trkpt lat="40.6552490" lon="-5.7690340">
        <ele>994.8</ele>
        <time>2021-10-15T08:56:28Z</time>
      </trkpt>
      <trkpt lat="40.6552340" lon="-5.7687930">
        <ele>994.6</ele>
        <time>2021-10-15T08:56:32Z</time>
      </trkpt>
      <trkpt lat="40.6552770" lon="-5.7684040">
        <ele>994.8</ele>
        <time>2021-10-15T08:56:38Z</time>
      </trkpt>
      <trkpt lat="40.6553700" lon="-5.7678550">
        <ele>994.4</ele>
        <time>2021-10-15T08:56:48Z</time>
      </trkpt>
      <trkpt lat="40.6553700" lon="-5.7678470">
        <ele>994.2</ele>
        <time>2021-10-15T08:56:51Z</time>
      </trkpt>
      <trkpt lat="40.6553830" lon="-5.7677660">
        <ele>993.8</ele>
        <time>2021-10-15T08:57:02Z</time>
      </trkpt>
      <trkpt lat="40.6553930" lon="-5.7676890">
        <ele>993.6</ele>
        <time>2021-10-15T08:57:04Z</time>
      </trkpt>
      <trkpt lat="40.6554090" lon="-5.7675420">
        <ele>993.4</ele>
        <time>2021-10-15T08:57:07Z</time>
      </trkpt>
      <trkpt lat="40.6554130" lon="-5.7674840">
        <ele>993.4</ele>
        <time>2021-10-15T08:57:08Z</time>
      </trkpt>
      <trkpt lat="40.6554220" lon="-5.7673580">
        <ele>993.4</ele>
        <time>2021-10-15T08:57:10Z</time>
      </trkpt>
      <trkpt lat="40.6554480" lon="-5.7669790">
        <ele>992.2</ele>
        <time>2021-10-15T08:57:15Z</time>
      </trkpt>
      <trkpt lat="40.6554620" lon="-5.7668010">
        <ele>991.4</ele>
        <time>2021-10-15T08:57:17Z</time>
      </trkpt>
      <trkpt lat="40.6554770" lon="-5.7666100">
        <ele>990.6</ele>
        <time>2021-10-15T08:57:19Z</time>
      </trkpt>
      <trkpt lat="40.6554910" lon="-5.7664060">
        <ele>989.6</ele>
        <time>2021-10-15T08:57:21Z</time>
      </trkpt>
      <trkpt lat="40.6555100" lon="-5.7661970">
        <ele>988.4</ele>
        <time>2021-10-15T08:57:23Z</time>
      </trkpt>
      <trkpt lat="40.6555230" lon="-5.7660900">
        <ele>987.4</ele>
        <time>2021-10-15T08:57:24Z</time>
      </trkpt>
      <trkpt lat="40.6555440" lon="-5.7659760">
        <ele>987.2</ele>
        <time>2021-10-15T08:57:25Z</time>
      </trkpt>
      <trkpt lat="40.6556050" lon="-5.7657380">
        <ele>986.0</ele>
        <time>2021-10-15T08:57:27Z</time>
      </trkpt>
      <trkpt lat="40.6556420" lon="-5.7656150">
        <ele>985.2</ele>
        <time>2021-10-15T08:57:28Z</time>
      </trkpt>
      <trkpt lat="40.6556880" lon="-5.7654640">
        <ele>984.6</ele>
        <time>2021-10-15T08:57:29Z</time>
      </trkpt>
      <trkpt lat="40.6557220" lon="-5.7653610">
        <ele>983.6</ele>
        <time>2021-10-15T08:57:30Z</time>
      </trkpt>
      <trkpt lat="40.6557660" lon="-5.7652300">
        <ele>982.6</ele>
        <time>2021-10-15T08:57:31Z</time>
      </trkpt>
      <trkpt lat="40.6558560" lon="-5.7649620">
        <ele>981.0</ele>
        <time>2021-10-15T08:57:33Z</time>
      </trkpt>
      <trkpt lat="40.6559010" lon="-5.7648260">
        <ele>980.6</ele>
        <time>2021-10-15T08:57:34Z</time>
      </trkpt>
      <trkpt lat="40.6559880" lon="-5.7645590">
        <ele>979.8</ele>
        <time>2021-10-15T08:57:36Z</time>
      </trkpt>
      <trkpt lat="40.6560710" lon="-5.7642990">
        <ele>978.4</ele>
        <time>2021-10-15T08:57:38Z</time>
      </trkpt>
      <trkpt lat="40.6561450" lon="-5.7640430">
        <ele>977.4</ele>
        <time>2021-10-15T08:57:40Z</time>
      </trkpt>
      <trkpt lat="40.6561780" lon="-5.7639190">
        <ele>976.6</ele>
        <time>2021-10-15T08:57:41Z</time>
      </trkpt>
      <trkpt lat="40.6562100" lon="-5.7637970">
        <ele>976.2</ele>
        <time>2021-10-15T08:57:42Z</time>
      </trkpt>
      <trkpt lat="40.6562890" lon="-5.7634430">
        <ele>975.0</ele>
        <time>2021-10-15T08:57:45Z</time>
      </trkpt>
      <trkpt lat="40.6563590" lon="-5.7630980">
        <ele>974.0</ele>
        <time>2021-10-15T08:57:48Z</time>
      </trkpt>
      <trkpt lat="40.6564550" lon="-5.7625460">
        <ele>972.8</ele>
        <time>2021-10-15T08:57:53Z</time>
      </trkpt>
      <trkpt lat="40.6565110" lon="-5.7622300">
        <ele>972.6</ele>
        <time>2021-10-15T08:57:56Z</time>
      </trkpt>
      <trkpt lat="40.6566120" lon="-5.7616400">
        <ele>971.8</ele>
        <time>2021-10-15T08:58:02Z</time>
      </trkpt>
      <trkpt lat="40.6566650" lon="-5.7613630">
        <ele>971.4</ele>
        <time>2021-10-15T08:58:05Z</time>
      </trkpt>
      <trkpt lat="40.6567440" lon="-5.7609130">
        <ele>970.8</ele>
        <time>2021-10-15T08:58:10Z</time>
      </trkpt>
      <trkpt lat="40.6567740" lon="-5.7607330">
        <ele>970.8</ele>
        <time>2021-10-15T08:58:12Z</time>
      </trkpt>
      <trkpt lat="40.6568270" lon="-5.7601670">
        <ele>969.8</ele>
        <time>2021-10-15T08:58:18Z</time>
      </trkpt>
      <trkpt lat="40.6568270" lon="-5.7600680">
        <ele>969.4</ele>
        <time>2021-10-15T08:58:19Z</time>
      </trkpt>
      <trkpt lat="40.6568110" lon="-5.7596460">
        <ele>968.6</ele>
        <time>2021-10-15T08:58:23Z</time>
      </trkpt>
      <trkpt lat="40.6567770" lon="-5.7592290">
        <ele>967.8</ele>
        <time>2021-10-15T08:58:27Z</time>
      </trkpt>
      <trkpt lat="40.6567700" lon="-5.7591430">
        <ele>967.4</ele>
        <time>2021-10-15T08:58:28Z</time>
      </trkpt>
      <trkpt lat="40.6567470" lon="-5.7588160">
        <ele>966.4</ele>
        <time>2021-10-15T08:58:31Z</time>
      </trkpt>
      <trkpt lat="40.6567120" lon="-5.7583790">
        <ele>965.4</ele>
        <time>2021-10-15T08:58:35Z</time>
      </trkpt>
      <trkpt lat="40.6566850" lon="-5.7580480">
        <ele>964.4</ele>
        <time>2021-10-15T08:58:38Z</time>
      </trkpt>
      <trkpt lat="40.6566610" lon="-5.7577190">
        <ele>963.4</ele>
        <time>2021-10-15T08:58:41Z</time>
      </trkpt>
      <trkpt lat="40.6566300" lon="-5.7573010">
        <ele>962.4</ele>
        <time>2021-10-15T08:58:45Z</time>
      </trkpt>
      <trkpt lat="40.6566230" lon="-5.7572030">
        <ele>962.0</ele>
        <time>2021-10-15T08:58:46Z</time>
      </trkpt>
      <trkpt lat="40.6565760" lon="-5.7566560">
        <ele>960.8</ele>
        <time>2021-10-15T08:58:52Z</time>
      </trkpt>
      <trkpt lat="40.6565690" lon="-5.7565670">
        <ele>960.6</ele>
        <time>2021-10-15T08:58:53Z</time>
      </trkpt>
      <trkpt lat="40.6565240" lon="-5.7559770">
        <ele>960.8</ele>
        <time>2021-10-15T08:59:00Z</time>
      </trkpt>
      <trkpt lat="40.6565340" lon="-5.7554180">
        <ele>961.0</ele>
        <time>2021-10-15T08:59:07Z</time>
      </trkpt>
      <trkpt lat="40.6566010" lon="-5.7549240">
        <ele>961.4</ele>
        <time>2021-10-15T08:59:14Z</time>
      </trkpt>
      <trkpt lat="40.6566320" lon="-5.7547260">
        <ele>961.8</ele>
        <time>2021-10-15T08:59:17Z</time>
      </trkpt>
      <trkpt lat="40.6566830" lon="-5.7543760">
        <ele>962.6</ele>
        <time>2021-10-15T08:59:23Z</time>
      </trkpt>
      <trkpt lat="40.6567010" lon="-5.7542520">
        <ele>963.0</ele>
        <time>2021-10-15T08:59:25Z</time>
      </trkpt>
      <trkpt lat="40.6567420" lon="-5.7539350">
        <ele>963.6</ele>
        <time>2021-10-15T08:59:31Z</time>
      </trkpt>
      <trkpt lat="40.6567760" lon="-5.7536610">
        <ele>964.0</ele>
        <time>2021-10-15T08:59:36Z</time>
      </trkpt>
      <trkpt lat="40.6568140" lon="-5.7533980">
        <ele>964.6</ele>
        <time>2021-10-15T08:59:41Z</time>
      </trkpt>
      <trkpt lat="40.6568410" lon="-5.7531870">
        <ele>965.0</ele>
        <time>2021-10-15T08:59:45Z</time>
      </trkpt>
      <trkpt lat="40.6568770" lon="-5.7529280">
        <ele>965.6</ele>
        <time>2021-10-15T08:59:50Z</time>
      </trkpt>
      <trkpt lat="40.6569170" lon="-5.7525270">
        <ele>966.2</ele>
        <time>2021-10-15T08:59:58Z</time>
      </trkpt>
      <trkpt lat="40.6569180" lon="-5.7524170">
        <ele>966.2</ele>
        <time>2021-10-15T09:00:00Z</time>
      </trkpt>
      <trkpt lat="40.6569090" lon="-5.7522430">
        <ele>966.2</ele>
        <time>2021-10-15T09:00:03Z</time>
      </trkpt>
      <trkpt lat="40.6568920" lon="-5.7521030">
        <ele>966.2</ele>
        <time>2021-10-15T09:00:06Z</time>
      </trkpt>
      <trkpt lat="40.6568640" lon="-5.7520010">
        <ele>966.2</ele>
        <time>2021-10-15T09:00:08Z</time>
      </trkpt>
      <trkpt lat="40.6568500" lon="-5.7519500">
        <ele>966.4</ele>
        <time>2021-10-15T09:00:09Z</time>
      </trkpt>
      <trkpt lat="40.6567850" lon="-5.7518060">
        <ele>966.4</ele>
        <time>2021-10-15T09:00:12Z</time>
      </trkpt>
      <trkpt lat="40.6567130" lon="-5.7516700">
        <ele>966.4</ele>
        <time>2021-10-15T09:00:15Z</time>
      </trkpt>
      <trkpt lat="40.6566850" lon="-5.7516220">
        <ele>966.4</ele>
        <time>2021-10-15T09:00:16Z</time>
      </trkpt>
      <trkpt lat="40.6565860" lon="-5.7514560">
        <ele>966.2</ele>
        <time>2021-10-15T09:00:20Z</time>
      </trkpt>
      <trkpt lat="40.6564750" lon="-5.7512760">
        <ele>966.2</ele>
        <time>2021-10-15T09:00:24Z</time>
      </trkpt>
      <trkpt lat="40.6562850" lon="-5.7509330">
        <ele>965.6</ele>
        <time>2021-10-15T09:00:31Z</time>
      </trkpt>
      <trkpt lat="40.6559850" lon="-5.7504380">
        <ele>965.4</ele>
        <time>2021-10-15T09:00:42Z</time>
      </trkpt>
      <trkpt lat="40.6558960" lon="-5.7502820">
        <ele>965.2</ele>
        <time>2021-10-15T09:00:45Z</time>
      </trkpt>
      <trkpt lat="40.6557100" lon="-5.7499800">
        <ele>964.4</ele>
        <time>2021-10-15T09:00:52Z</time>
      </trkpt>
      <trkpt lat="40.6556550" lon="-5.7498590">
        <ele>964.0</ele>
        <time>2021-10-15T09:00:56Z</time>
      </trkpt>
      <trkpt lat="40.6556410" lon="-5.7498370">
        <ele>964.0</ele>
        <time>2021-10-15T09:00:57Z</time>
      </trkpt>
      <trkpt lat="40.6556270" lon="-5.7498170">
        <ele>963.8</ele>
        <time>2021-10-15T09:01:00Z</time>
      </trkpt>
      <trkpt lat="40.6555570" lon="-5.7496770">
        <ele>963.2</ele>
        <time>2021-10-15T09:01:23Z</time>
      </trkpt>
      <trkpt lat="40.6555160" lon="-5.7496210">
        <ele>963.2</ele>
        <time>2021-10-15T09:01:25Z</time>
      </trkpt>
      <trkpt lat="40.6553980" lon="-5.7494760">
        <ele>963.0</ele>
        <time>2021-10-15T09:01:29Z</time>
      </trkpt>
      <trkpt lat="40.6553680" lon="-5.7494480">
        <ele>963.0</ele>
        <time>2021-10-15T09:01:30Z</time>
      </trkpt>
      <trkpt lat="40.6553160" lon="-5.7494120">
        <ele>962.8</ele>
        <time>2021-10-15T09:01:31Z</time>
      </trkpt>
      <trkpt lat="40.6551780" lon="-5.7493550">
        <ele>962.6</ele>
        <time>2021-10-15T09:01:34Z</time>
      </trkpt>
      <trkpt lat="40.6549790" lon="-5.7493130">
        <ele>962.2</ele>
        <time>2021-10-15T09:01:38Z</time>
      </trkpt>
      <trkpt lat="40.6548370" lon="-5.7492960">
        <ele>962.2</ele>
        <time>2021-10-15T09:01:41Z</time>
      </trkpt>
      <trkpt lat="40.6545260" lon="-5.7492140">
        <ele>962.2</ele>
        <time>2021-10-15T09:01:48Z</time>
      </trkpt>
      <trkpt lat="40.6543100" lon="-5.7491630">
        <ele>962.8</ele>
        <time>2021-10-15T09:01:54Z</time>
      </trkpt>
      <trkpt lat="40.6541790" lon="-5.7491260">
        <ele>964.0</ele>
        <time>2021-10-15T09:01:59Z</time>
      </trkpt>
      <trkpt lat="40.6540350" lon="-5.7490920">
        <ele>965.2</ele>
        <time>2021-10-15T09:02:05Z</time>
      </trkpt>
      <trkpt lat="40.6539860" lon="-5.7490860">
        <ele>965.6</ele>
        <time>2021-10-15T09:02:07Z</time>
      </trkpt>
      <trkpt lat="40.6538700" lon="-5.7490340">
        <ele>966.2</ele>
        <time>2021-10-15T09:02:12Z</time>
      </trkpt>
      <trkpt lat="40.6538230" lon="-5.7490050">
        <ele>966.4</ele>
        <time>2021-10-15T09:02:14Z</time>
      </trkpt>
      <trkpt lat="40.6537420" lon="-5.7489300">
        <ele>967.2</ele>
        <time>2021-10-15T09:02:18Z</time>
      </trkpt>
      <trkpt lat="40.6536450" lon="-5.7488450">
        <ele>967.6</ele>
        <time>2021-10-15T09:02:23Z</time>
      </trkpt>
      <trkpt lat="40.6535950" lon="-5.7487890">
        <ele>968.4</ele>
        <time>2021-10-15T09:02:26Z</time>
      </trkpt>
      <trkpt lat="40.6535430" lon="-5.7487340">
        <ele>969.0</ele>
        <time>2021-10-15T09:02:29Z</time>
      </trkpt>
      <trkpt lat="40.6535130" lon="-5.7486990">
        <ele>969.6</ele>
        <time>2021-10-15T09:02:31Z</time>
      </trkpt>
      <trkpt lat="40.6534440" lon="-5.7486190">
        <ele>970.6</ele>
        <time>2021-10-15T09:02:35Z</time>
      </trkpt>
      <trkpt lat="40.6533950" lon="-5.7485710">
        <ele>970.8</ele>
        <time>2021-10-15T09:02:38Z</time>
      </trkpt>
      <trkpt lat="40.6533360" lon="-5.7485350">
        <ele>971.2</ele>
        <time>2021-10-15T09:02:41Z</time>
      </trkpt>
      <trkpt lat="40.6533000" lon="-5.7485230">
        <ele>971.4</ele>
        <time>2021-10-15T09:02:43Z</time>
      </trkpt>
      <trkpt lat="40.6532380" lon="-5.7485040">
        <ele>971.6</ele>
        <time>2021-10-15T09:02:46Z</time>
      </trkpt>
      <trkpt lat="40.6531890" lon="-5.7484920">
        <ele>971.6</ele>
        <time>2021-10-15T09:02:48Z</time>
      </trkpt>
      <trkpt lat="40.6531520" lon="-5.7484830">
        <ele>971.6</ele>
        <time>2021-10-15T09:02:50Z</time>
      </trkpt>
      <trkpt lat="40.6530920" lon="-5.7484670">
        <ele>971.6</ele>
        <time>2021-10-15T09:02:53Z</time>
      </trkpt>
      <trkpt lat="40.6530230" lon="-5.7484470">
        <ele>971.8</ele>
        <time>2021-10-15T09:02:56Z</time>
      </trkpt>
      <trkpt lat="40.6529770" lon="-5.7484320">
        <ele>971.8</ele>
        <time>2021-10-15T09:02:58Z</time>
      </trkpt>
      <trkpt lat="40.6529310" lon="-5.7484160">
        <ele>972.0</ele>
        <time>2021-10-15T09:03:00Z</time>
      </trkpt>
      <trkpt lat="40.6528840" lon="-5.7483980">
        <ele>972.2</ele>
        <time>2021-10-15T09:03:02Z</time>
      </trkpt>
      <trkpt lat="40.6528430" lon="-5.7483860">
        <ele>972.2</ele>
        <time>2021-10-15T09:03:04Z</time>
      </trkpt>
      <trkpt lat="40.6527820" lon="-5.7483440">
        <ele>972.4</ele>
        <time>2021-10-15T09:03:08Z</time>
      </trkpt>
      <trkpt lat="40.6527460" lon="-5.7482940">
        <ele>972.6</ele>
        <time>2021-10-15T09:03:12Z</time>
      </trkpt>
      <trkpt lat="40.6527380" lon="-5.7482760">
        <ele>972.6</ele>
        <time>2021-10-15T09:03:13Z</time>
      </trkpt>
      <trkpt lat="40.6527310" lon="-5.7482650">
        <ele>972.6</ele>
        <time>2021-10-15T09:03:14Z</time>
      </trkpt>
      <trkpt lat="40.6527150" lon="-5.7482230">
        <ele>972.8</ele>
        <time>2021-10-15T09:03:18Z</time>
      </trkpt>
      <trkpt lat="40.6527130" lon="-5.7482210">
        <ele>973.0</ele>
        <time>2021-10-15T09:03:20Z</time>
      </trkpt>
      <trkpt lat="40.6526770" lon="-5.7482350">
        <ele>973.0</ele>
        <time>2021-10-15T09:05:58Z</time>
      </trkpt>
      <trkpt lat="40.6526530" lon="-5.7482460">
        <ele>972.8</ele>
        <time>2021-10-15T09:05:59Z</time>
      </trkpt>
      <trkpt lat="40.6526320" lon="-5.7482580">
        <ele>972.8</ele>
        <time>2021-10-15T09:06:00Z</time>
      </trkpt>
      <trkpt lat="40.6525200" lon="-5.7482510">
        <ele>972.8</ele>
        <time>2021-10-15T09:06:05Z</time>
      </trkpt>
      <trkpt lat="40.6523970" lon="-5.7482290">
        <ele>972.6</ele>
        <time>2021-10-15T09:06:11Z</time>
      </trkpt>
      <trkpt lat="40.6522250" lon="-5.7481580">
        <ele>972.6</ele>
        <time>2021-10-15T09:06:18Z</time>
      </trkpt>
      <trkpt lat="40.6520770" lon="-5.7481090">
        <ele>972.6</ele>
        <time>2021-10-15T09:06:23Z</time>
      </trkpt>
      <trkpt lat="40.6520130" lon="-5.7480900">
        <ele>972.8</ele>
        <time>2021-10-15T09:06:25Z</time>
      </trkpt>
      <trkpt lat="40.6517400" lon="-5.7480060">
        <ele>973.2</ele>
        <time>2021-10-15T09:06:33Z</time>
      </trkpt>
      <trkpt lat="40.6514200" lon="-5.7479100">
        <ele>973.4</ele>
        <time>2021-10-15T09:06:42Z</time>
      </trkpt>
      <trkpt lat="40.6511930" lon="-5.7478310">
        <ele>973.4</ele>
        <time>2021-10-15T09:06:48Z</time>
      </trkpt>
      <trkpt lat="40.6511500" lon="-5.7478230">
        <ele>973.4</ele>
        <time>2021-10-15T09:06:49Z</time>
      </trkpt>
      <trkpt lat="40.6511060" lon="-5.7478120">
        <ele>973.4</ele>
        <time>2021-10-15T09:06:50Z</time>
      </trkpt>
      <trkpt lat="40.6509810" lon="-5.7477680">
        <ele>973.4</ele>
        <time>2021-10-15T09:06:53Z</time>
      </trkpt>
      <trkpt lat="40.6508770" lon="-5.7477360">
        <ele>973.4</ele>
        <time>2021-10-15T09:06:56Z</time>
      </trkpt>
      <trkpt lat="40.6507630" lon="-5.7477050">
        <ele>973.4</ele>
        <time>2021-10-15T09:06:59Z</time>
      </trkpt>
      <trkpt lat="40.6506200" lon="-5.7476610">
        <ele>973.2</ele>
        <time>2021-10-15T09:07:03Z</time>
      </trkpt>
      <trkpt lat="40.6504890" lon="-5.7476320">
        <ele>973.0</ele>
        <time>2021-10-15T09:07:06Z</time>
      </trkpt>
      <trkpt lat="40.6502270" lon="-5.7475480">
        <ele>972.8</ele>
        <time>2021-10-15T09:07:12Z</time>
      </trkpt>
      <trkpt lat="40.6499700" lon="-5.7474610">
        <ele>972.4</ele>
        <time>2021-10-15T09:07:18Z</time>
      </trkpt>
      <trkpt lat="40.6497970" lon="-5.7474030">
        <ele>972.2</ele>
        <time>2021-10-15T09:07:22Z</time>
      </trkpt>
      <trkpt lat="40.6494400" lon="-5.7472830">
        <ele>971.6</ele>
        <time>2021-10-15T09:07:30Z</time>
      </trkpt>
      <trkpt lat="40.6492950" lon="-5.7472340">
        <ele>971.2</ele>
        <time>2021-10-15T09:07:33Z</time>
      </trkpt>
      <trkpt lat="40.6491110" lon="-5.7471650">
        <ele>971.0</ele>
        <time>2021-10-15T09:07:37Z</time>
      </trkpt>
      <trkpt lat="40.6490130" lon="-5.7471100">
        <ele>971.0</ele>
        <time>2021-10-15T09:07:39Z</time>
      </trkpt>
      <trkpt lat="40.6488280" lon="-5.7469680">
        <ele>970.2</ele>
        <time>2021-10-15T09:07:43Z</time>
      </trkpt>
      <trkpt lat="40.6486440" lon="-5.7468070">
        <ele>969.4</ele>
        <time>2021-10-15T09:07:47Z</time>
      </trkpt>
      <trkpt lat="40.6485490" lon="-5.7467250">
        <ele>969.0</ele>
        <time>2021-10-15T09:07:49Z</time>
      </trkpt>
      <trkpt lat="40.6483590" lon="-5.7465510">
        <ele>968.4</ele>
        <time>2021-10-15T09:07:53Z</time>
      </trkpt>
      <trkpt lat="40.6483110" lon="-5.7465060">
        <ele>968.2</ele>
        <time>2021-10-15T09:07:54Z</time>
      </trkpt>
      <trkpt lat="40.6482120" lon="-5.7464170">
        <ele>967.8</ele>
        <time>2021-10-15T09:07:56Z</time>
      </trkpt>
      <trkpt lat="40.6479580" lon="-5.7462010">
        <ele>966.8</ele>
        <time>2021-10-15T09:08:01Z</time>
      </trkpt>
      <trkpt lat="40.6479090" lon="-5.7461560">
        <ele>966.8</ele>
        <time>2021-10-15T09:08:02Z</time>
      </trkpt>
      <trkpt lat="40.6478600" lon="-5.7461100">
        <ele>966.6</ele>
        <time>2021-10-15T09:08:03Z</time>
      </trkpt>
      <trkpt lat="40.6475370" lon="-5.7458430">
        <ele>965.4</ele>
        <time>2021-10-15T09:08:09Z</time>
      </trkpt>
      <trkpt lat="40.6474340" lon="-5.7457400">
        <ele>964.6</ele>
        <time>2021-10-15T09:08:11Z</time>
      </trkpt>
      <trkpt lat="40.6473790" lon="-5.7456910">
        <ele>964.2</ele>
        <time>2021-10-15T09:08:12Z</time>
      </trkpt>
      <trkpt lat="40.6470410" lon="-5.7453910">
        <ele>963.0</ele>
        <time>2021-10-15T09:08:18Z</time>
      </trkpt>
      <trkpt lat="40.6469830" lon="-5.7453400">
        <ele>962.8</ele>
        <time>2021-10-15T09:08:19Z</time>
      </trkpt>
      <trkpt lat="40.6467510" lon="-5.7451320">
        <ele>961.8</ele>
        <time>2021-10-15T09:08:23Z</time>
      </trkpt>
      <trkpt lat="40.6465670" lon="-5.7450050">
        <ele>961.0</ele>
        <time>2021-10-15T09:08:26Z</time>
      </trkpt>
      <trkpt lat="40.6465040" lon="-5.7449760">
        <ele>960.8</ele>
        <time>2021-10-15T09:08:27Z</time>
      </trkpt>
      <trkpt lat="40.6463690" lon="-5.7449350">
        <ele>960.4</ele>
        <time>2021-10-15T09:08:29Z</time>
      </trkpt>
      <trkpt lat="40.6460910" lon="-5.7448780">
        <ele>958.8</ele>
        <time>2021-10-15T09:08:33Z</time>
      </trkpt>
      <trkpt lat="40.6458790" lon="-5.7448320">
        <ele>957.8</ele>
        <time>2021-10-15T09:08:36Z</time>
      </trkpt>
      <trkpt lat="40.6456710" lon="-5.7447850">
        <ele>957.2</ele>
        <time>2021-10-15T09:08:39Z</time>
      </trkpt>
      <trkpt lat="40.6456000" lon="-5.7447690">
        <ele>956.8</ele>
        <time>2021-10-15T09:08:40Z</time>
      </trkpt>
      <trkpt lat="40.6453250" lon="-5.7447090">
        <ele>955.4</ele>
        <time>2021-10-15T09:08:44Z</time>
      </trkpt>
      <trkpt lat="40.6450570" lon="-5.7446530">
        <ele>954.4</ele>
        <time>2021-10-15T09:08:48Z</time>
      </trkpt>
      <trkpt lat="40.6449920" lon="-5.7446400">
        <ele>954.4</ele>
        <time>2021-10-15T09:08:49Z</time>
      </trkpt>
      <trkpt lat="40.6445730" lon="-5.7445430">
        <ele>953.4</ele>
        <time>2021-10-15T09:08:56Z</time>
      </trkpt>
      <trkpt lat="40.6445190" lon="-5.7445310">
        <ele>953.4</ele>
        <time>2021-10-15T09:08:57Z</time>
      </trkpt>
      <trkpt lat="40.6440900" lon="-5.7444330">
        <ele>952.6</ele>
        <time>2021-10-15T09:09:05Z</time>
      </trkpt>
      <trkpt lat="40.6439880" lon="-5.7444110">
        <ele>952.2</ele>
        <time>2021-10-15T09:09:07Z</time>
      </trkpt>
      <trkpt lat="40.6436850" lon="-5.7443300">
        <ele>952.0</ele>
        <time>2021-10-15T09:09:13Z</time>
      </trkpt>
      <trkpt lat="40.6432910" lon="-5.7441770">
        <ele>951.6</ele>
        <time>2021-10-15T09:09:21Z</time>
      </trkpt>
      <trkpt lat="40.6431420" lon="-5.7441150">
        <ele>951.2</ele>
        <time>2021-10-15T09:09:24Z</time>
      </trkpt>
      <trkpt lat="40.6428330" lon="-5.7439980">
        <ele>951.0</ele>
        <time>2021-10-15T09:09:30Z</time>
      </trkpt>
      <trkpt lat="40.6424260" lon="-5.7438500">
        <ele>951.0</ele>
        <time>2021-10-15T09:09:38Z</time>
      </trkpt>
      <trkpt lat="40.6419460" lon="-5.7436530">
        <ele>950.8</ele>
        <time>2021-10-15T09:09:48Z</time>
      </trkpt>
      <trkpt lat="40.6416550" lon="-5.7435500">
        <ele>950.6</ele>
        <time>2021-10-15T09:09:54Z</time>
      </trkpt>
      <trkpt lat="40.6415180" lon="-5.7434990">
        <ele>950.2</ele>
        <time>2021-10-15T09:09:57Z</time>
      </trkpt>
      <trkpt lat="40.6414720" lon="-5.7434820">
        <ele>950.2</ele>
        <time>2021-10-15T09:09:58Z</time>
      </trkpt>
      <trkpt lat="40.6410650" lon="-5.7433300">
        <ele>949.8</ele>
        <time>2021-10-15T09:10:06Z</time>
      </trkpt>
      <trkpt lat="40.6407090" lon="-5.7431850">
        <ele>949.0</ele>
        <time>2021-10-15T09:10:13Z</time>
      </trkpt>
      <trkpt lat="40.6405990" lon="-5.7431390">
        <ele>948.8</ele>
        <time>2021-10-15T09:10:15Z</time>
      </trkpt>
      <trkpt lat="40.6403090" lon="-5.7430260">
        <ele>948.4</ele>
        <time>2021-10-15T09:10:21Z</time>
      </trkpt>
      <trkpt lat="40.6401700" lon="-5.7429570">
        <ele>948.0</ele>
        <time>2021-10-15T09:10:24Z</time>
      </trkpt>
      <trkpt lat="40.6401240" lon="-5.7429340">
        <ele>947.8</ele>
        <time>2021-10-15T09:10:25Z</time>
      </trkpt>
      <trkpt lat="40.6399370" lon="-5.7428260">
        <ele>947.4</ele>
        <time>2021-10-15T09:10:29Z</time>
      </trkpt>
      <trkpt lat="40.6398020" lon="-5.7427220">
        <ele>947.0</ele>
        <time>2021-10-15T09:10:32Z</time>
      </trkpt>
      <trkpt lat="40.6397530" lon="-5.7426850">
        <ele>946.8</ele>
        <time>2021-10-15T09:10:33Z</time>
      </trkpt>
      <trkpt lat="40.6394750" lon="-5.7424380">
        <ele>946.0</ele>
        <time>2021-10-15T09:10:39Z</time>
      </trkpt>
      <trkpt lat="40.6393820" lon="-5.7423430">
        <ele>945.8</ele>
        <time>2021-10-15T09:10:41Z</time>
      </trkpt>
      <trkpt lat="40.6392000" lon="-5.7420450">
        <ele>945.0</ele>
        <time>2021-10-15T09:10:46Z</time>
      </trkpt>
      <trkpt lat="40.6391410" lon="-5.7419160">
        <ele>944.6</ele>
        <time>2021-10-15T09:10:48Z</time>
      </trkpt>
      <trkpt lat="40.6389980" lon="-5.7415850">
        <ele>943.4</ele>
        <time>2021-10-15T09:10:53Z</time>
      </trkpt>
      <trkpt lat="40.6388460" lon="-5.7412550">
        <ele>942.8</ele>
        <time>2021-10-15T09:10:58Z</time>
      </trkpt>
      <trkpt lat="40.6387840" lon="-5.7411290">
        <ele>942.2</ele>
        <time>2021-10-15T09:11:00Z</time>
      </trkpt>
      <trkpt lat="40.6386340" lon="-5.7407980">
        <ele>941.2</ele>
        <time>2021-10-15T09:11:05Z</time>
      </trkpt>
      <trkpt lat="40.6386000" lon="-5.7407170">
        <ele>941.0</ele>
        <time>2021-10-15T09:11:06Z</time>
      </trkpt>
      <trkpt lat="40.6384320" lon="-5.7402510">
        <ele>940.0</ele>
        <time>2021-10-15T09:11:13Z</time>
      </trkpt>
      <trkpt lat="40.6383920" lon="-5.7401300">
        <ele>940.0</ele>
        <time>2021-10-15T09:11:15Z</time>
      </trkpt>
      <trkpt lat="40.6383610" lon="-5.7400160">
        <ele>939.2</ele>
        <time>2021-10-15T09:11:17Z</time>
      </trkpt>
      <trkpt lat="40.6383540" lon="-5.7399600">
        <ele>939.0</ele>
        <time>2021-10-15T09:11:18Z</time>
      </trkpt>
      <trkpt lat="40.6383480" lon="-5.7399090">
        <ele>938.8</ele>
        <time>2021-10-15T09:11:19Z</time>
      </trkpt>
      <trkpt lat="40.6383100" lon="-5.7397710">
        <ele>938.2</ele>
        <time>2021-10-15T09:11:23Z</time>
      </trkpt>
      <trkpt lat="40.6382270" lon="-5.7396990">
        <ele>937.8</ele>
        <time>2021-10-15T09:11:28Z</time>
      </trkpt>
      <trkpt lat="40.6382220" lon="-5.7396960">
        <ele>937.8</ele>
        <time>2021-10-15T09:11:29Z</time>
      </trkpt>
      <trkpt lat="40.6382220" lon="-5.7396960">
        <ele>937.6</ele>
        <time>2021-10-15T09:11:31Z</time>
      </trkpt>
      <trkpt lat="40.6381840" lon="-5.7397350">
        <ele>936.8</ele>
        <time>2021-10-15T09:13:54Z</time>
      </trkpt>
      <trkpt lat="40.6381610" lon="-5.7397310">
        <ele>936.8</ele>
        <time>2021-10-15T09:13:55Z</time>
      </trkpt>
      <trkpt lat="40.6380120" lon="-5.7397210">
        <ele>936.8</ele>
        <time>2021-10-15T09:14:00Z</time>
      </trkpt>
      <trkpt lat="40.6379190" lon="-5.7397140">
        <ele>936.8</ele>
        <time>2021-10-15T09:14:03Z</time>
      </trkpt>
      <trkpt lat="40.6377940" lon="-5.7397150">
        <ele>936.6</ele>
        <time>2021-10-15T09:14:07Z</time>
      </trkpt>
      <trkpt lat="40.6377590" lon="-5.7397170">
        <ele>936.4</ele>
        <time>2021-10-15T09:14:08Z</time>
      </trkpt>
      <trkpt lat="40.6376080" lon="-5.7397200">
        <ele>936.2</ele>
        <time>2021-10-15T09:14:12Z</time>
      </trkpt>
      <trkpt lat="40.6374820" lon="-5.7397290">
        <ele>936.0</ele>
        <time>2021-10-15T09:14:15Z</time>
      </trkpt>
      <trkpt lat="40.6371860" lon="-5.7397780">
        <ele>935.4</ele>
        <time>2021-10-15T09:14:23Z</time>
      </trkpt>
      <trkpt lat="40.6371590" lon="-5.7397820">
        <ele>935.4</ele>
        <time>2021-10-15T09:14:24Z</time>
      </trkpt>
      <trkpt lat="40.6369450" lon="-5.7397850">
        <ele>935.0</ele>
        <time>2021-10-15T09:14:31Z</time>
      </trkpt>
      <trkpt lat="40.6368410" lon="-5.7398030">
        <ele>934.6</ele>
        <time>2021-10-15T09:14:36Z</time>
      </trkpt>
      <trkpt lat="40.6367910" lon="-5.7398190">
        <ele>934.6</ele>
        <time>2021-10-15T09:14:41Z</time>
      </trkpt>
      <trkpt lat="40.6367910" lon="-5.7398190">
        <ele>934.6</ele>
        <time>2021-10-15T09:14:42Z</time>
      </trkpt>
      <trkpt lat="40.6367360" lon="-5.7398220">
        <ele>934.0</ele>
        <time>2021-10-15T09:14:54Z</time>
      </trkpt>
      <trkpt lat="40.6366950" lon="-5.7398150">
        <ele>934.0</ele>
        <time>2021-10-15T09:14:56Z</time>
      </trkpt>
      <trkpt lat="40.6365220" lon="-5.7398390">
        <ele>934.0</ele>
        <time>2021-10-15T09:15:02Z</time>
      </trkpt>
      <trkpt lat="40.6364020" lon="-5.7398620">
        <ele>933.8</ele>
        <time>2021-10-15T09:15:06Z</time>
      </trkpt>
      <trkpt lat="40.6363110" lon="-5.7398890">
        <ele>933.6</ele>
        <time>2021-10-15T09:15:09Z</time>
      </trkpt>
      <trkpt lat="40.6361050" lon="-5.7399710">
        <ele>933.4</ele>
        <time>2021-10-15T09:15:16Z</time>
      </trkpt>
      <trkpt lat="40.6358470" lon="-5.7400510">
        <ele>933.2</ele>
        <time>2021-10-15T09:15:25Z</time>
      </trkpt>
      <trkpt lat="40.6356170" lon="-5.7401150">
        <ele>933.0</ele>
        <time>2021-10-15T09:15:32Z</time>
      </trkpt>
      <trkpt lat="40.6355580" lon="-5.7401370">
        <ele>932.8</ele>
        <time>2021-10-15T09:15:34Z</time>
      </trkpt>
      <trkpt lat="40.6355010" lon="-5.7401600">
        <ele>932.6</ele>
        <time>2021-10-15T09:15:36Z</time>
      </trkpt>
      <trkpt lat="40.6352730" lon="-5.7401970">
        <ele>932.4</ele>
        <time>2021-10-15T09:15:43Z</time>
      </trkpt>
      <trkpt lat="40.6350310" lon="-5.7402350">
        <ele>932.2</ele>
        <time>2021-10-15T09:15:50Z</time>
      </trkpt>
      <trkpt lat="40.6348200" lon="-5.7402730">
        <ele>932.0</ele>
        <time>2021-10-15T09:15:56Z</time>
      </trkpt>
      <trkpt lat="40.6346220" lon="-5.7402850">
        <ele>931.8</ele>
        <time>2021-10-15T09:16:01Z</time>
      </trkpt>
      <trkpt lat="40.6345050" lon="-5.7402690">
        <ele>931.8</ele>
        <time>2021-10-15T09:16:04Z</time>
      </trkpt>
      <trkpt lat="40.6341350" lon="-5.7401830">
        <ele>931.0</ele>
        <time>2021-10-15T09:16:13Z</time>
      </trkpt>
      <trkpt lat="40.6340910" lon="-5.7401750">
        <ele>931.0</ele>
        <time>2021-10-15T09:16:14Z</time>
      </trkpt>
      <trkpt lat="40.6337780" lon="-5.7401210">
        <ele>930.8</ele>
        <time>2021-10-15T09:16:21Z</time>
      </trkpt>
      <trkpt lat="40.6337170" lon="-5.7401130">
        <ele>930.8</ele>
        <time>2021-10-15T09:16:22Z</time>
      </trkpt>
      <trkpt lat="40.6334080" lon="-5.7400570">
        <ele>929.8</ele>
        <time>2021-10-15T09:16:29Z</time>
      </trkpt>
      <trkpt lat="40.6333190" lon="-5.7400440">
        <ele>929.6</ele>
        <time>2021-10-15T09:16:31Z</time>
      </trkpt>
      <trkpt lat="40.6329850" lon="-5.7400160">
        <ele>929.0</ele>
        <time>2021-10-15T09:16:39Z</time>
      </trkpt>
      <trkpt lat="40.6329450" lon="-5.7400140">
        <ele>928.8</ele>
        <time>2021-10-15T09:16:40Z</time>
      </trkpt>
      <trkpt lat="40.6326830" lon="-5.7399670">
        <ele>928.0</ele>
        <time>2021-10-15T09:16:47Z</time>
      </trkpt>
      <trkpt lat="40.6324900" lon="-5.7399130">
        <ele>927.8</ele>
        <time>2021-10-15T09:16:52Z</time>
      </trkpt>
      <trkpt lat="40.6323270" lon="-5.7398680">
        <ele>927.4</ele>
        <time>2021-10-15T09:16:56Z</time>
      </trkpt>
      <trkpt lat="40.6321180" lon="-5.7398150">
        <ele>927.0</ele>
        <time>2021-10-15T09:17:01Z</time>
      </trkpt>
      <trkpt lat="40.6319790" lon="-5.7397870">
        <ele>927.0</ele>
        <time>2021-10-15T09:17:04Z</time>
      </trkpt>
      <trkpt lat="40.6318360" lon="-5.7397570">
        <ele>926.6</ele>
        <time>2021-10-15T09:17:07Z</time>
      </trkpt>
      <trkpt lat="40.6316550" lon="-5.7396900">
        <ele>926.0</ele>
        <time>2021-10-15T09:17:11Z</time>
      </trkpt>
      <trkpt lat="40.6316090" lon="-5.7396790">
        <ele>926.0</ele>
        <time>2021-10-15T09:17:12Z</time>
      </trkpt>
      <trkpt lat="40.6315630" lon="-5.7396720">
        <ele>925.6</ele>
        <time>2021-10-15T09:17:13Z</time>
      </trkpt>
      <trkpt lat="40.6313820" lon="-5.7396410">
        <ele>925.2</ele>
        <time>2021-10-15T09:17:17Z</time>
      </trkpt>
      <trkpt lat="40.6310830" lon="-5.7395790">
        <ele>924.6</ele>
        <time>2021-10-15T09:17:24Z</time>
      </trkpt>
      <trkpt lat="40.6310490" lon="-5.7395760">
        <ele>924.4</ele>
        <time>2021-10-15T09:17:25Z</time>
      </trkpt>
      <trkpt lat="40.6309990" lon="-5.7395740">
        <ele>924.4</ele>
        <time>2021-10-15T09:17:26Z</time>
      </trkpt>
      <trkpt lat="40.6306970" lon="-5.7395810">
        <ele>923.8</ele>
        <time>2021-10-15T09:17:32Z</time>
      </trkpt>
      <trkpt lat="40.6305340" lon="-5.7395640">
        <ele>923.6</ele>
        <time>2021-10-15T09:17:35Z</time>
      </trkpt>
      <trkpt lat="40.6304790" lon="-5.7395500">
        <ele>923.4</ele>
        <time>2021-10-15T09:17:36Z</time>
      </trkpt>
      <trkpt lat="40.6303650" lon="-5.7395300">
        <ele>923.4</ele>
        <time>2021-10-15T09:17:38Z</time>
      </trkpt>
      <trkpt lat="40.6300180" lon="-5.7394420">
        <ele>923.0</ele>
        <time>2021-10-15T09:17:44Z</time>
      </trkpt>
      <trkpt lat="40.6297410" lon="-5.7393670">
        <ele>922.4</ele>
        <time>2021-10-15T09:17:49Z</time>
      </trkpt>
      <trkpt lat="40.6295940" lon="-5.7393240">
        <ele>922.0</ele>
        <time>2021-10-15T09:17:52Z</time>
      </trkpt>
      <trkpt lat="40.6294370" lon="-5.7392710">
        <ele>921.2</ele>
        <time>2021-10-15T09:17:55Z</time>
      </trkpt>
      <trkpt lat="40.6292440" lon="-5.7391920">
        <ele>920.8</ele>
        <time>2021-10-15T09:17:59Z</time>
      </trkpt>
      <trkpt lat="40.6290950" lon="-5.7391350">
        <ele>920.4</ele>
        <time>2021-10-15T09:18:02Z</time>
      </trkpt>
      <trkpt lat="40.6290450" lon="-5.7391260">
        <ele>920.2</ele>
        <time>2021-10-15T09:18:03Z</time>
      </trkpt>
      <trkpt lat="40.6289950" lon="-5.7391150">
        <ele>920.2</ele>
        <time>2021-10-15T09:18:04Z</time>
      </trkpt>
      <trkpt lat="40.6285150" lon="-5.7390630">
        <ele>919.4</ele>
        <time>2021-10-15T09:18:14Z</time>
      </trkpt>
      <trkpt lat="40.6284630" lon="-5.7390580">
        <ele>919.2</ele>
        <time>2021-10-15T09:18:15Z</time>
      </trkpt>
      <trkpt lat="40.6282090" lon="-5.7390400">
        <ele>918.8</ele>
        <time>2021-10-15T09:18:20Z</time>
      </trkpt>
      <trkpt lat="40.6280250" lon="-5.7390100">
        <ele>918.2</ele>
        <time>2021-10-15T09:18:24Z</time>
      </trkpt>
      <trkpt lat="40.6279680" lon="-5.7390030">
        <ele>918.2</ele>
        <time>2021-10-15T09:18:25Z</time>
      </trkpt>
      <trkpt lat="40.6277940" lon="-5.7389720">
        <ele>917.8</ele>
        <time>2021-10-15T09:18:29Z</time>
      </trkpt>
      <trkpt lat="40.6277510" lon="-5.7389600">
        <ele>917.8</ele>
        <time>2021-10-15T09:18:30Z</time>
      </trkpt>
      <trkpt lat="40.6276750" lon="-5.7389400">
        <ele>917.4</ele>
        <time>2021-10-15T09:18:32Z</time>
      </trkpt>
      <trkpt lat="40.6276330" lon="-5.7389390">
        <ele>917.4</ele>
        <time>2021-10-15T09:18:33Z</time>
      </trkpt>
      <trkpt lat="40.6275450" lon="-5.7389210">
        <ele>917.2</ele>
        <time>2021-10-15T09:18:35Z</time>
      </trkpt>
      <trkpt lat="40.6274360" lon="-5.7388910">
        <ele>917.0</ele>
        <time>2021-10-15T09:18:38Z</time>
      </trkpt>
      <trkpt lat="40.6271260" lon="-5.7388470">
        <ele>916.4</ele>
        <time>2021-10-15T09:18:46Z</time>
      </trkpt>
      <trkpt lat="40.6269400" lon="-5.7388190">
        <ele>916.0</ele>
        <time>2021-10-15T09:18:51Z</time>
      </trkpt>
      <trkpt lat="40.6268870" lon="-5.7388140">
        <ele>916.0</ele>
        <time>2021-10-15T09:18:52Z</time>
      </trkpt>
      <trkpt lat="40.6268440" lon="-5.7388070">
        <ele>915.8</ele>
        <time>2021-10-15T09:18:53Z</time>
      </trkpt>
      <trkpt lat="40.6267980" lon="-5.7388030">
        <ele>915.8</ele>
        <time>2021-10-15T09:18:54Z</time>
      </trkpt>
      <trkpt lat="40.6266510" lon="-5.7387890">
        <ele>915.4</ele>
        <time>2021-10-15T09:18:58Z</time>
      </trkpt>
      <trkpt lat="40.6266210" lon="-5.7387840">
        <ele>914.8</ele>
        <time>2021-10-15T09:19:02Z</time>
      </trkpt>
      <trkpt lat="40.6265710" lon="-5.7387780">
        <ele>914.6</ele>
        <time>2021-10-15T09:19:05Z</time>
      </trkpt>
      <trkpt lat="40.6265090" lon="-5.7387540">
        <ele>914.4</ele>
        <time>2021-10-15T09:19:07Z</time>
      </trkpt>
      <trkpt lat="40.6263330" lon="-5.7386670">
        <ele>914.0</ele>
        <time>2021-10-15T09:19:12Z</time>
      </trkpt>
      <trkpt lat="40.6262040" lon="-5.7386380">
        <ele>913.8</ele>
        <time>2021-10-15T09:19:15Z</time>
      </trkpt>
      <trkpt lat="40.6261090" lon="-5.7386310">
        <ele>913.6</ele>
        <time>2021-10-15T09:19:17Z</time>
      </trkpt>
      <trkpt lat="40.6258760" lon="-5.7385970">
        <ele>912.6</ele>
        <time>2021-10-15T09:19:22Z</time>
      </trkpt>
      <trkpt lat="40.6257870" lon="-5.7385730">
        <ele>912.2</ele>
        <time>2021-10-15T09:19:24Z</time>
      </trkpt>
      <trkpt lat="40.6255980" lon="-5.7385130">
        <ele>911.4</ele>
        <time>2021-10-15T09:19:28Z</time>
      </trkpt>
      <trkpt lat="40.6255480" lon="-5.7385020">
        <ele>911.2</ele>
        <time>2021-10-15T09:19:29Z</time>
      </trkpt>
      <trkpt lat="40.6254480" lon="-5.7384800">
        <ele>910.8</ele>
        <time>2021-10-15T09:19:31Z</time>
      </trkpt>
      <trkpt lat="40.6253480" lon="-5.7384370">
        <ele>910.4</ele>
        <time>2021-10-15T09:19:33Z</time>
      </trkpt>
      <trkpt lat="40.6250500" lon="-5.7383190">
        <ele>909.8</ele>
        <time>2021-10-15T09:19:39Z</time>
      </trkpt>
      <trkpt lat="40.6249010" lon="-5.7382490">
        <ele>909.2</ele>
        <time>2021-10-15T09:19:42Z</time>
      </trkpt>
      <trkpt lat="40.6246850" lon="-5.7381660">
        <ele>908.6</ele>
        <time>2021-10-15T09:19:46Z</time>
      </trkpt>
      <trkpt lat="40.6246180" lon="-5.7381460">
        <ele>908.4</ele>
        <time>2021-10-15T09:19:47Z</time>
      </trkpt>
      <trkpt lat="40.6245620" lon="-5.7381300">
        <ele>908.0</ele>
        <time>2021-10-15T09:19:48Z</time>
      </trkpt>
      <trkpt lat="40.6243460" lon="-5.7380730">
        <ele>907.0</ele>
        <time>2021-10-15T09:19:52Z</time>
      </trkpt>
      <trkpt lat="40.6242610" lon="-5.7380600">
        <ele>906.8</ele>
        <time>2021-10-15T09:19:54Z</time>
      </trkpt>
      <trkpt lat="40.6240600" lon="-5.7380280">
        <ele>906.4</ele>
        <time>2021-10-15T09:19:58Z</time>
      </trkpt>
      <trkpt lat="40.6240240" lon="-5.7380160">
        <ele>905.8</ele>
        <time>2021-10-15T09:19:59Z</time>
      </trkpt>
      <trkpt lat="40.6239680" lon="-5.7380020">
        <ele>905.6</ele>
        <time>2021-10-15T09:20:00Z</time>
      </trkpt>
      <trkpt lat="40.6238740" lon="-5.7379750">
        <ele>905.0</ele>
        <time>2021-10-15T09:20:02Z</time>
      </trkpt>
      <trkpt lat="40.6237800" lon="-5.7379560">
        <ele>904.6</ele>
        <time>2021-10-15T09:20:04Z</time>
      </trkpt>
      <trkpt lat="40.6237170" lon="-5.7379450">
        <ele>904.6</ele>
        <time>2021-10-15T09:20:05Z</time>
      </trkpt>
      <trkpt lat="40.6236650" lon="-5.7379310">
        <ele>904.4</ele>
        <time>2021-10-15T09:20:06Z</time>
      </trkpt>
      <trkpt lat="40.6234570" lon="-5.7378950">
        <ele>903.4</ele>
        <time>2021-10-15T09:20:10Z</time>
      </trkpt>
      <trkpt lat="40.6233780" lon="-5.7378780">
        <ele>903.0</ele>
        <time>2021-10-15T09:20:12Z</time>
      </trkpt>
      <trkpt lat="40.6233170" lon="-5.7378740">
        <ele>902.6</ele>
        <time>2021-10-15T09:20:15Z</time>
      </trkpt>
      <trkpt lat="40.6233170" lon="-5.7378740">
        <ele>902.4</ele>
        <time>2021-10-15T09:20:16Z</time>
      </trkpt>
      <trkpt lat="40.6232700" lon="-5.7378410">
        <ele>902.2</ele>
        <time>2021-10-15T09:20:28Z</time>
      </trkpt>
      <trkpt lat="40.6232280" lon="-5.7378290">
        <ele>902.0</ele>
        <time>2021-10-15T09:20:30Z</time>
      </trkpt>
      <trkpt lat="40.6231050" lon="-5.7377050">
        <ele>902.0</ele>
        <time>2021-10-15T09:20:36Z</time>
      </trkpt>
      <trkpt lat="40.6229740" lon="-5.7375130">
        <ele>902.0</ele>
        <time>2021-10-15T09:20:42Z</time>
      </trkpt>
      <trkpt lat="40.6228590" lon="-5.7374980">
        <ele>902.2</ele>
        <time>2021-10-15T09:20:46Z</time>
      </trkpt>
      <trkpt lat="40.6227140" lon="-5.7375240">
        <ele>902.4</ele>
        <time>2021-10-15T09:20:51Z</time>
      </trkpt>
      <trkpt lat="40.6225930" lon="-5.7375300">
        <ele>902.8</ele>
        <time>2021-10-15T09:20:56Z</time>
      </trkpt>
      <trkpt lat="40.6225760" lon="-5.7375260">
        <ele>903.0</ele>
        <time>2021-10-15T09:21:00Z</time>
      </trkpt>
      <trkpt lat="40.6225760" lon="-5.7375260">
        <ele>903.2</ele>
        <time>2021-10-15T09:21:01Z</time>
      </trkpt>
      <trkpt lat="40.6225340" lon="-5.7375280">
        <ele>903.2</ele>
        <time>2021-10-15T09:23:09Z</time>
      </trkpt>
      <trkpt lat="40.6225070" lon="-5.7375320">
        <ele>903.2</ele>
        <time>2021-10-15T09:23:10Z</time>
      </trkpt>
      <trkpt lat="40.6225070" lon="-5.7375320">
        <ele>903.2</ele>
        <time>2021-10-15T09:23:11Z</time>
      </trkpt>
      <trkpt lat="40.6224040" lon="-5.7375200">
        <ele>903.2</ele>
        <time>2021-10-15T09:23:14Z</time>
      </trkpt>
      <trkpt lat="40.6223540" lon="-5.7375180">
        <ele>903.4</ele>
        <time>2021-10-15T09:23:16Z</time>
      </trkpt>
      <trkpt lat="40.6222750" lon="-5.7375130">
        <ele>903.4</ele>
        <time>2021-10-15T09:23:19Z</time>
      </trkpt>
      <trkpt lat="40.6221670" lon="-5.7374910">
        <ele>903.6</ele>
        <time>2021-10-15T09:23:24Z</time>
      </trkpt>
      <trkpt lat="40.6219960" lon="-5.7374520">
        <ele>903.6</ele>
        <time>2021-10-15T09:23:31Z</time>
      </trkpt>
      <trkpt lat="40.6217750" lon="-5.7374260">
        <ele>903.6</ele>
        <time>2021-10-15T09:23:38Z</time>
      </trkpt>
      <trkpt lat="40.6215100" lon="-5.7373500">
        <ele>903.8</ele>
        <time>2021-10-15T09:23:46Z</time>
      </trkpt>
      <trkpt lat="40.6212390" lon="-5.7373190">
        <ele>904.0</ele>
        <time>2021-10-15T09:23:54Z</time>
      </trkpt>
      <trkpt lat="40.6212010" lon="-5.7373180">
        <ele>904.0</ele>
        <time>2021-10-15T09:23:55Z</time>
      </trkpt>
      <trkpt lat="40.6208820" lon="-5.7372920">
        <ele>904.2</ele>
        <time>2021-10-15T09:24:03Z</time>
      </trkpt>
      <trkpt lat="40.6207240" lon="-5.7372930">
        <ele>904.2</ele>
        <time>2021-10-15T09:24:07Z</time>
      </trkpt>
      <trkpt lat="40.6206180" lon="-5.7372740">
        <ele>904.4</ele>
        <time>2021-10-15T09:24:10Z</time>
      </trkpt>
      <trkpt lat="40.6203790" lon="-5.7372490">
        <ele>904.2</ele>
        <time>2021-10-15T09:24:17Z</time>
      </trkpt>
      <trkpt lat="40.6200750" lon="-5.7372070">
        <ele>904.2</ele>
        <time>2021-10-15T09:24:24Z</time>
      </trkpt>
      <trkpt lat="40.6198870" lon="-5.7371630">
        <ele>904.2</ele>
        <time>2021-10-15T09:24:30Z</time>
      </trkpt>
      <trkpt lat="40.6197810" lon="-5.7371630">
        <ele>904.2</ele>
        <time>2021-10-15T09:24:35Z</time>
      </trkpt>
      <trkpt lat="40.6196670" lon="-5.7371640">
        <ele>904.2</ele>
        <time>2021-10-15T09:24:42Z</time>
      </trkpt>
      <trkpt lat="40.6194930" lon="-5.7371780">
        <ele>903.8</ele>
        <time>2021-10-15T09:24:50Z</time>
      </trkpt>
      <trkpt lat="40.6193910" lon="-5.7371460">
        <ele>903.4</ele>
        <time>2021-10-15T09:24:53Z</time>
      </trkpt>
      <trkpt lat="40.6193520" lon="-5.7371490">
        <ele>903.4</ele>
        <time>2021-10-15T09:24:54Z</time>
      </trkpt>
      <trkpt lat="40.6192780" lon="-5.7371570">
        <ele>903.0</ele>
        <time>2021-10-15T09:24:56Z</time>
      </trkpt>
      <trkpt lat="40.6190200" lon="-5.7371780">
        <ele>902.0</ele>
        <time>2021-10-15T09:25:02Z</time>
      </trkpt>
      <trkpt lat="40.6189740" lon="-5.7371780">
        <ele>902.0</ele>
        <time>2021-10-15T09:25:03Z</time>
      </trkpt>
      <trkpt lat="40.6186940" lon="-5.7371560">
        <ele>900.8</ele>
        <time>2021-10-15T09:25:09Z</time>
      </trkpt>
      <trkpt lat="40.6184910" lon="-5.7371600">
        <ele>900.2</ele>
        <time>2021-10-15T09:25:13Z</time>
      </trkpt>
      <trkpt lat="40.6183960" lon="-5.7371530">
        <ele>900.0</ele>
        <time>2021-10-15T09:25:15Z</time>
      </trkpt>
      <trkpt lat="40.6183090" lon="-5.7371330">
        <ele>899.8</ele>
        <time>2021-10-15T09:25:17Z</time>
      </trkpt>
      <trkpt lat="40.6182270" lon="-5.7371280">
        <ele>899.4</ele>
        <time>2021-10-15T09:25:19Z</time>
      </trkpt>
      <trkpt lat="40.6181260" lon="-5.7371360">
        <ele>899.0</ele>
        <time>2021-10-15T09:25:21Z</time>
      </trkpt>
      <trkpt lat="40.6180360" lon="-5.7371240">
        <ele>898.6</ele>
        <time>2021-10-15T09:25:24Z</time>
      </trkpt>
      <trkpt lat="40.6179320" lon="-5.7371170">
        <ele>898.6</ele>
        <time>2021-10-15T09:25:25Z</time>
      </trkpt>
      <trkpt lat="40.6178380" lon="-5.7371210">
        <ele>898.4</ele>
        <time>2021-10-15T09:25:27Z</time>
      </trkpt>
      <trkpt lat="40.6177360" lon="-5.7371230">
        <ele>898.0</ele>
        <time>2021-10-15T09:25:29Z</time>
      </trkpt>
      <trkpt lat="40.6175850" lon="-5.7371350">
        <ele>897.4</ele>
        <time>2021-10-15T09:25:33Z</time>
      </trkpt>
      <trkpt lat="40.6174310" lon="-5.7371440">
        <ele>897.2</ele>
        <time>2021-10-15T09:25:35Z</time>
      </trkpt>
      <trkpt lat="40.6172830" lon="-5.7371040">
        <ele>896.8</ele>
        <time>2021-10-15T09:25:38Z</time>
      </trkpt>
      <trkpt lat="40.6171850" lon="-5.7370670">
        <ele>896.2</ele>
        <time>2021-10-15T09:25:40Z</time>
      </trkpt>
      <trkpt lat="40.6171480" lon="-5.7370530">
        <ele>896.2</ele>
        <time>2021-10-15T09:25:41Z</time>
      </trkpt>
      <trkpt lat="40.6169610" lon="-5.7369940">
        <ele>895.4</ele>
        <time>2021-10-15T09:25:45Z</time>
      </trkpt>
      <trkpt lat="40.6169220" lon="-5.7369870">
        <ele>895.0</ele>
        <time>2021-10-15T09:25:46Z</time>
      </trkpt>
      <trkpt lat="40.6168660" lon="-5.7369820">
        <ele>895.0</ele>
        <time>2021-10-15T09:25:47Z</time>
      </trkpt>
      <trkpt lat="40.6167510" lon="-5.7369830">
        <ele>894.6</ele>
        <time>2021-10-15T09:25:50Z</time>
      </trkpt>
      <trkpt lat="40.6167510" lon="-5.7369830">
        <ele>894.4</ele>
        <time>2021-10-15T09:25:51Z</time>
      </trkpt>
      <trkpt lat="40.6166220" lon="-5.7370280">
        <ele>894.4</ele>
        <time>2021-10-15T09:25:53Z</time>
      </trkpt>
      <trkpt lat="40.6165070" lon="-5.7370970">
        <ele>894.0</ele>
        <time>2021-10-15T09:25:56Z</time>
      </trkpt>
      <trkpt lat="40.6164790" lon="-5.7371250">
        <ele>894.0</ele>
        <time>2021-10-15T09:25:57Z</time>
      </trkpt>
      <trkpt lat="40.6164500" lon="-5.7371510">
        <ele>893.8</ele>
        <time>2021-10-15T09:25:58Z</time>
      </trkpt>
      <trkpt lat="40.6163370" lon="-5.7371840">
        <ele>893.8</ele>
        <time>2021-10-15T09:26:01Z</time>
      </trkpt>
      <trkpt lat="40.6161600" lon="-5.7371520">
        <ele>894.0</ele>
        <time>2021-10-15T09:26:06Z</time>
      </trkpt>
      <trkpt lat="40.6160080" lon="-5.7371360">
        <ele>894.4</ele>
        <time>2021-10-15T09:26:11Z</time>
      </trkpt>
      <trkpt lat="40.6159380" lon="-5.7371380">
        <ele>894.8</ele>
        <time>2021-10-15T09:26:16Z</time>
      </trkpt>
      <trkpt lat="40.6159380" lon="-5.7371380">
        <ele>895.0</ele>
        <time>2021-10-15T09:26:17Z</time>
      </trkpt>
      <trkpt lat="40.6159210" lon="-5.7371340">
        <ele>895.2</ele>
        <time>2021-10-15T09:26:23Z</time>
      </trkpt>
      <trkpt lat="40.6158850" lon="-5.7371270">
        <ele>895.2</ele>
        <time>2021-10-15T09:26:24Z</time>
      </trkpt>
      <trkpt lat="40.6158650" lon="-5.7371250">
        <ele>895.0</ele>
        <time>2021-10-15T09:26:26Z</time>
      </trkpt>
      <trkpt lat="40.6157160" lon="-5.7371130">
        <ele>895.0</ele>
        <time>2021-10-15T09:26:32Z</time>
      </trkpt>
      <trkpt lat="40.6155340" lon="-5.7370660">
        <ele>894.8</ele>
        <time>2021-10-15T09:26:38Z</time>
      </trkpt>
      <trkpt lat="40.6152710" lon="-5.7369760">
        <ele>894.6</ele>
        <time>2021-10-15T09:26:44Z</time>
      </trkpt>
      <trkpt lat="40.6150920" lon="-5.7370140">
        <ele>894.4</ele>
        <time>2021-10-15T09:26:49Z</time>
      </trkpt>
      <trkpt lat="40.6149620" lon="-5.7370790">
        <ele>894.6</ele>
        <time>2021-10-15T09:26:54Z</time>
      </trkpt>
      <trkpt lat="40.6148180" lon="-5.7370800">
        <ele>895.8</ele>
        <time>2021-10-15T09:27:00Z</time>
      </trkpt>
      <trkpt lat="40.6147960" lon="-5.7370800">
        <ele>896.0</ele>
        <time>2021-10-15T09:27:01Z</time>
      </trkpt>
      <trkpt lat="40.6147510" lon="-5.7370700">
        <ele>896.2</ele>
        <time>2021-10-15T09:27:03Z</time>
      </trkpt>
      <trkpt lat="40.6146740" lon="-5.7370300">
        <ele>896.2</ele>
        <time>2021-10-15T09:27:07Z</time>
      </trkpt>
      <trkpt lat="40.6145030" lon="-5.7369540">
        <ele>896.0</ele>
        <time>2021-10-15T09:27:13Z</time>
      </trkpt>
      <trkpt lat="40.6142370" lon="-5.7369480">
        <ele>896.4</ele>
        <time>2021-10-15T09:27:22Z</time>
      </trkpt>
      <trkpt lat="40.6139530" lon="-5.7370390">
        <ele>896.6</ele>
        <time>2021-10-15T09:27:30Z</time>
      </trkpt>
      <trkpt lat="40.6136710" lon="-5.7370760">
        <ele>897.0</ele>
        <time>2021-10-15T09:27:39Z</time>
      </trkpt>
      <trkpt lat="40.6135580" lon="-5.7370840">
        <ele>897.2</ele>
        <time>2021-10-15T09:27:42Z</time>
      </trkpt>
      <trkpt lat="40.6133540" lon="-5.7370860">
        <ele>897.2</ele>
        <time>2021-10-15T09:27:48Z</time>
      </trkpt>
      <trkpt lat="40.6131840" lon="-5.7370790">
        <ele>897.2</ele>
        <time>2021-10-15T09:27:53Z</time>
      </trkpt>
      <trkpt lat="40.6130290" lon="-5.7370890">
        <ele>897.2</ele>
        <time>2021-10-15T09:27:57Z</time>
      </trkpt>
      <trkpt lat="40.6127840" lon="-5.7371150">
        <ele>897.2</ele>
        <time>2021-10-15T09:28:04Z</time>
      </trkpt>
      <trkpt lat="40.6123570" lon="-5.7371180">
        <ele>897.4</ele>
        <time>2021-10-15T09:28:16Z</time>
      </trkpt>
      <trkpt lat="40.6119610" lon="-5.7371310">
        <ele>897.8</ele>
        <time>2021-10-15T09:28:28Z</time>
      </trkpt>
      <trkpt lat="40.6117270" lon="-5.7371360">
        <ele>897.8</ele>
        <time>2021-10-15T09:28:35Z</time>
      </trkpt>
      <trkpt lat="40.6116000" lon="-5.7371310">
        <ele>898.2</ele>
        <time>2021-10-15T09:28:39Z</time>
      </trkpt>
      <trkpt lat="40.6115350" lon="-5.7371270">
        <ele>898.2</ele>
        <time>2021-10-15T09:28:41Z</time>
      </trkpt>
      <trkpt lat="40.6114780" lon="-5.7371270">
        <ele>898.4</ele>
        <time>2021-10-15T09:28:43Z</time>
      </trkpt>
      <trkpt lat="40.6113080" lon="-5.7371460">
        <ele>898.6</ele>
        <time>2021-10-15T09:28:48Z</time>
      </trkpt>
      <trkpt lat="40.6110530" lon="-5.7372160">
        <ele>899.0</ele>
        <time>2021-10-15T09:28:56Z</time>
      </trkpt>
      <trkpt lat="40.6109670" lon="-5.7372400">
        <ele>899.0</ele>
        <time>2021-10-15T09:28:59Z</time>
      </trkpt>
      <trkpt lat="40.6107840" lon="-5.7373160">
        <ele>899.2</ele>
        <time>2021-10-15T09:29:06Z</time>
      </trkpt>
      <trkpt lat="40.6107580" lon="-5.7373380">
        <ele>899.2</ele>
        <time>2021-10-15T09:29:07Z</time>
      </trkpt>
      <trkpt lat="40.6106560" lon="-5.7374340">
        <ele>899.2</ele>
        <time>2021-10-15T09:29:12Z</time>
      </trkpt>
      <trkpt lat="40.6106080" lon="-5.7374740">
        <ele>899.4</ele>
        <time>2021-10-15T09:29:15Z</time>
      </trkpt>
      <trkpt lat="40.6105900" lon="-5.7374860">
        <ele>899.4</ele>
        <time>2021-10-15T09:29:19Z</time>
      </trkpt>
      <trkpt lat="40.6105550" lon="-5.7374690">
        <ele>898.6</ele>
        <time>2021-10-15T09:30:31Z</time>
      </trkpt>
      <trkpt lat="40.6105400" lon="-5.7374620">
        <ele>898.8</ele>
        <time>2021-10-15T09:30:32Z</time>
      </trkpt>
      <trkpt lat="40.6105120" lon="-5.7374540">
        <ele>899.0</ele>
        <time>2021-10-15T09:30:34Z</time>
      </trkpt>
      <trkpt lat="40.6103640" lon="-5.7374140">
        <ele>899.0</ele>
        <time>2021-10-15T09:30:45Z</time>
      </trkpt>
      <trkpt lat="40.6103260" lon="-5.7374180">
        <ele>899.0</ele>
        <time>2021-10-15T09:30:48Z</time>
      </trkpt>
      <trkpt lat="40.6103140" lon="-5.7374540">
        <ele>899.0</ele>
        <time>2021-10-15T09:30:51Z</time>
      </trkpt>
      <trkpt lat="40.6103010" lon="-5.7375170">
        <ele>899.0</ele>
        <time>2021-10-15T09:30:56Z</time>
      </trkpt>
      <trkpt lat="40.6102960" lon="-5.7375190">
        <ele>899.2</ele>
        <time>2021-10-15T09:30:58Z</time>
      </trkpt>
      <trkpt lat="40.6102960" lon="-5.7375190">
        <ele>899.2</ele>
        <time>2021-10-15T09:30:59Z</time>
      </trkpt>
      <trkpt lat="40.6102740" lon="-5.7375050">
        <ele>899.2</ele>
        <time>2021-10-15T09:31:31Z</time>
      </trkpt>
      <trkpt lat="40.6102450" lon="-5.7374910">
        <ele>899.2</ele>
        <time>2021-10-15T09:31:32Z</time>
      </trkpt>
      <trkpt lat="40.6102270" lon="-5.7374820">
        <ele>899.2</ele>
        <time>2021-10-15T09:31:33Z</time>
      </trkpt>
      <trkpt lat="40.6102270" lon="-5.7374820">
        <ele>899.2</ele>
        <time>2021-10-15T09:31:34Z</time>
      </trkpt>
      <trkpt lat="40.6101310" lon="-5.7374370">
        <ele>899.2</ele>
        <time>2021-10-15T09:31:37Z</time>
      </trkpt>
      <trkpt lat="40.6100700" lon="-5.7374320">
        <ele>899.2</ele>
        <time>2021-10-15T09:31:39Z</time>
      </trkpt>
      <trkpt lat="40.6098400" lon="-5.7374790">
        <ele>899.2</ele>
        <time>2021-10-15T09:31:47Z</time>
      </trkpt>
      <trkpt lat="40.6096010" lon="-5.7375210">
        <ele>899.4</ele>
        <time>2021-10-15T09:31:54Z</time>
      </trkpt>
      <trkpt lat="40.6093550" lon="-5.7375290">
        <ele>899.6</ele>
        <time>2021-10-15T09:32:01Z</time>
      </trkpt>
      <trkpt lat="40.6091740" lon="-5.7375560">
        <ele>899.6</ele>
        <time>2021-10-15T09:32:06Z</time>
      </trkpt>
      <trkpt lat="40.6089500" lon="-5.7375560">
        <ele>899.6</ele>
        <time>2021-10-15T09:32:12Z</time>
      </trkpt>
      <trkpt lat="40.6087250" lon="-5.7375420">
        <ele>899.8</ele>
        <time>2021-10-15T09:32:18Z</time>
      </trkpt>
      <trkpt lat="40.6084180" lon="-5.7375680">
        <ele>900.2</ele>
        <time>2021-10-15T09:32:27Z</time>
      </trkpt>
      <trkpt lat="40.6083770" lon="-5.7375710">
        <ele>900.4</ele>
        <time>2021-10-15T09:32:28Z</time>
      </trkpt>
      <trkpt lat="40.6081050" lon="-5.7375700">
        <ele>900.8</ele>
        <time>2021-10-15T09:32:36Z</time>
      </trkpt>
      <trkpt lat="40.6077720" lon="-5.7375680">
        <ele>901.2</ele>
        <time>2021-10-15T09:32:45Z</time>
      </trkpt>
      <trkpt lat="40.6075360" lon="-5.7375750">
        <ele>901.2</ele>
        <time>2021-10-15T09:32:51Z</time>
      </trkpt>
      <trkpt lat="40.6074280" lon="-5.7375780">
        <ele>901.2</ele>
        <time>2021-10-15T09:32:55Z</time>
      </trkpt>
      <trkpt lat="40.6071340" lon="-5.7376310">
        <ele>901.4</ele>
        <time>2021-10-15T09:33:02Z</time>
      </trkpt>
      <trkpt lat="40.6067220" lon="-5.7376530">
        <ele>901.4</ele>
        <time>2021-10-15T09:33:13Z</time>
      </trkpt>
      <trkpt lat="40.6064700" lon="-5.7376620">
        <ele>901.6</ele>
        <time>2021-10-15T09:33:20Z</time>
      </trkpt>
      <trkpt lat="40.6063140" lon="-5.7376740">
        <ele>901.6</ele>
        <time>2021-10-15T09:33:24Z</time>
      </trkpt>
      <trkpt lat="40.6062840" lon="-5.7376760">
        <ele>901.6</ele>
        <time>2021-10-15T09:33:25Z</time>
      </trkpt>
      <trkpt lat="40.6059400" lon="-5.7376850">
        <ele>901.8</ele>
        <time>2021-10-15T09:33:34Z</time>
      </trkpt>
      <trkpt lat="40.6058570" lon="-5.7376850">
        <ele>901.8</ele>
        <time>2021-10-15T09:33:36Z</time>
      </trkpt>
      <trkpt lat="40.6054380" lon="-5.7376940">
        <ele>902.2</ele>
        <time>2021-10-15T09:33:47Z</time>
      </trkpt>
      <trkpt lat="40.6050570" lon="-5.7377070">
        <ele>902.4</ele>
        <time>2021-10-15T09:33:58Z</time>
      </trkpt>
      <trkpt lat="40.6047930" lon="-5.7377190">
        <ele>902.6</ele>
        <time>2021-10-15T09:34:05Z</time>
      </trkpt>
      <trkpt lat="40.6046130" lon="-5.7377350">
        <ele>902.8</ele>
        <time>2021-10-15T09:34:10Z</time>
      </trkpt>
      <trkpt lat="40.6041000" lon="-5.7377690">
        <ele>903.2</ele>
        <time>2021-10-15T09:34:24Z</time>
      </trkpt>
      <trkpt lat="40.6037020" lon="-5.7377750">
        <ele>903.4</ele>
        <time>2021-10-15T09:34:35Z</time>
      </trkpt>
      <trkpt lat="40.6033090" lon="-5.7377940">
        <ele>903.6</ele>
        <time>2021-10-15T09:34:46Z</time>
      </trkpt>
      <trkpt lat="40.6032740" lon="-5.7377920">
        <ele>903.8</ele>
        <time>2021-10-15T09:34:47Z</time>
      </trkpt>
      <trkpt lat="40.6031020" lon="-5.7377480">
        <ele>904.0</ele>
        <time>2021-10-15T09:34:52Z</time>
      </trkpt>
      <trkpt lat="40.6030720" lon="-5.7377440">
        <ele>904.0</ele>
        <time>2021-10-15T09:34:53Z</time>
      </trkpt>
      <trkpt lat="40.6027980" lon="-5.7377550">
        <ele>904.2</ele>
        <time>2021-10-15T09:35:00Z</time>
      </trkpt>
      <trkpt lat="40.6027610" lon="-5.7377610">
        <ele>904.2</ele>
        <time>2021-10-15T09:35:01Z</time>
      </trkpt>
      <trkpt lat="40.6024300" lon="-5.7377950">
        <ele>904.6</ele>
        <time>2021-10-15T09:35:10Z</time>
      </trkpt>
      <trkpt lat="40.6022790" lon="-5.7378210">
        <ele>904.6</ele>
        <time>2021-10-15T09:35:14Z</time>
      </trkpt>
      <trkpt lat="40.6021680" lon="-5.7378370">
        <ele>905.0</ele>
        <time>2021-10-15T09:35:17Z</time>
      </trkpt>
      <trkpt lat="40.6017640" lon="-5.7378450">
        <ele>905.2</ele>
        <time>2021-10-15T09:35:27Z</time>
      </trkpt>
      <trkpt lat="40.6014630" lon="-5.7378570">
        <ele>905.2</ele>
        <time>2021-10-15T09:35:35Z</time>
      </trkpt>
      <trkpt lat="40.6011340" lon="-5.7378760">
        <ele>905.4</ele>
        <time>2021-10-15T09:35:43Z</time>
      </trkpt>
      <trkpt lat="40.6010640" lon="-5.7378810">
        <ele>905.4</ele>
        <time>2021-10-15T09:35:45Z</time>
      </trkpt>
      <trkpt lat="40.6006430" lon="-5.7378880">
        <ele>905.6</ele>
        <time>2021-10-15T09:35:56Z</time>
      </trkpt>
      <trkpt lat="40.6003970" lon="-5.7378960">
        <ele>905.6</ele>
        <time>2021-10-15T09:36:03Z</time>
      </trkpt>
      <trkpt lat="40.6000740" lon="-5.7378970">
        <ele>905.8</ele>
        <time>2021-10-15T09:36:12Z</time>
      </trkpt>
      <trkpt lat="40.6000370" lon="-5.7378970">
        <ele>905.8</ele>
        <time>2021-10-15T09:36:13Z</time>
      </trkpt>
      <trkpt lat="40.5997360" lon="-5.7379050">
        <ele>906.0</ele>
        <time>2021-10-15T09:36:21Z</time>
      </trkpt>
      <trkpt lat="40.5996200" lon="-5.7379210">
        <ele>906.4</ele>
        <time>2021-10-15T09:36:24Z</time>
      </trkpt>
      <trkpt lat="40.5992450" lon="-5.7379240">
        <ele>906.4</ele>
        <time>2021-10-15T09:36:34Z</time>
      </trkpt>
      <trkpt lat="40.5991320" lon="-5.7379280">
        <ele>906.6</ele>
        <time>2021-10-15T09:36:37Z</time>
      </trkpt>
      <trkpt lat="40.5988440" lon="-5.7379430">
        <ele>907.0</ele>
        <time>2021-10-15T09:36:45Z</time>
      </trkpt>
      <trkpt lat="40.5987650" lon="-5.7379440">
        <ele>907.0</ele>
        <time>2021-10-15T09:36:47Z</time>
      </trkpt>
      <trkpt lat="40.5983240" lon="-5.7379580">
        <ele>907.2</ele>
        <time>2021-10-15T09:36:59Z</time>
      </trkpt>
      <trkpt lat="40.5979660" lon="-5.7379860">
        <ele>907.6</ele>
        <time>2021-10-15T09:37:09Z</time>
      </trkpt>
      <trkpt lat="40.5977530" lon="-5.7380030">
        <ele>907.6</ele>
        <time>2021-10-15T09:37:15Z</time>
      </trkpt>
      <trkpt lat="40.5976130" lon="-5.7380000">
        <ele>907.8</ele>
        <time>2021-10-15T09:37:19Z</time>
      </trkpt>
      <trkpt lat="40.5973990" lon="-5.7380110">
        <ele>908.0</ele>
        <time>2021-10-15T09:37:25Z</time>
      </trkpt>
      <trkpt lat="40.5971980" lon="-5.7380220">
        <ele>908.2</ele>
        <time>2021-10-15T09:37:31Z</time>
      </trkpt>
      <trkpt lat="40.5969250" lon="-5.7380210">
        <ele>909.0</ele>
        <time>2021-10-15T09:37:39Z</time>
      </trkpt>
      <trkpt lat="40.5968570" lon="-5.7380230">
        <ele>909.0</ele>
        <time>2021-10-15T09:37:41Z</time>
      </trkpt>
      <trkpt lat="40.5966290" lon="-5.7380520">
        <ele>909.0</ele>
        <time>2021-10-15T09:37:48Z</time>
      </trkpt>
      <trkpt lat="40.5963590" lon="-5.7380760">
        <ele>909.8</ele>
        <time>2021-10-15T09:37:57Z</time>
      </trkpt>
      <trkpt lat="40.5962670" lon="-5.7380670">
        <ele>910.0</ele>
        <time>2021-10-15T09:38:00Z</time>
      </trkpt>
      <trkpt lat="40.5961760" lon="-5.7380630">
        <ele>910.4</ele>
        <time>2021-10-15T09:38:03Z</time>
      </trkpt>
      <trkpt lat="40.5960600" lon="-5.7380750">
        <ele>910.8</ele>
        <time>2021-10-15T09:38:07Z</time>
      </trkpt>
      <trkpt lat="40.5959210" lon="-5.7381080">
        <ele>911.2</ele>
        <time>2021-10-15T09:38:12Z</time>
      </trkpt>
      <trkpt lat="40.5958920" lon="-5.7381140">
        <ele>911.2</ele>
        <time>2021-10-15T09:38:13Z</time>
      </trkpt>
      <trkpt lat="40.5955700" lon="-5.7381300">
        <ele>911.6</ele>
        <time>2021-10-15T09:38:24Z</time>
      </trkpt>
      <trkpt lat="40.5955410" lon="-5.7381290">
        <ele>911.6</ele>
        <time>2021-10-15T09:38:25Z</time>
      </trkpt>
      <trkpt lat="40.5953910" lon="-5.7381300">
        <ele>911.8</ele>
        <time>2021-10-15T09:38:30Z</time>
      </trkpt>
      <trkpt lat="40.5951940" lon="-5.7381290">
        <ele>912.0</ele>
        <time>2021-10-15T09:38:37Z</time>
      </trkpt>
      <trkpt lat="40.5951180" lon="-5.7381330">
        <ele>912.2</ele>
        <time>2021-10-15T09:38:40Z</time>
      </trkpt>
      <trkpt lat="40.5948940" lon="-5.7381310">
        <ele>913.0</ele>
        <time>2021-10-15T09:38:48Z</time>
      </trkpt>
      <trkpt lat="40.5948160" lon="-5.7381230">
        <ele>913.2</ele>
        <time>2021-10-15T09:38:51Z</time>
      </trkpt>
      <trkpt lat="40.5947110" lon="-5.7380990">
        <ele>913.6</ele>
        <time>2021-10-15T09:38:56Z</time>
      </trkpt>
      <trkpt lat="40.5946600" lon="-5.7380900">
        <ele>914.0</ele>
        <time>2021-10-15T09:39:01Z</time>
      </trkpt>
      <trkpt lat="40.5946600" lon="-5.7380900">
        <ele>914.0</ele>
        <time>2021-10-15T09:39:02Z</time>
      </trkpt>
      <trkpt lat="40.5946180" lon="-5.7380810">
        <ele>914.0</ele>
        <time>2021-10-15T09:39:06Z</time>
      </trkpt>
      <trkpt lat="40.5945520" lon="-5.7380780">
        <ele>914.0</ele>
        <time>2021-10-15T09:39:09Z</time>
      </trkpt>
      <trkpt lat="40.5943500" lon="-5.7380570">
        <ele>914.0</ele>
        <time>2021-10-15T09:39:15Z</time>
      </trkpt>
      <trkpt lat="40.5941900" lon="-5.7379850">
        <ele>913.8</ele>
        <time>2021-10-15T09:39:19Z</time>
      </trkpt>
      <trkpt lat="40.5941480" lon="-5.7379740">
        <ele>913.8</ele>
        <time>2021-10-15T09:39:20Z</time>
      </trkpt>
      <trkpt lat="40.5939610" lon="-5.7380330">
        <ele>913.0</ele>
        <time>2021-10-15T09:39:25Z</time>
      </trkpt>
      <trkpt lat="40.5937960" lon="-5.7381130">
        <ele>913.0</ele>
        <time>2021-10-15T09:39:31Z</time>
      </trkpt>
      <trkpt lat="40.5935200" lon="-5.7381170">
        <ele>913.6</ele>
        <time>2021-10-15T09:39:40Z</time>
      </trkpt>
      <trkpt lat="40.5933210" lon="-5.7381340">
        <ele>913.6</ele>
        <time>2021-10-15T09:39:46Z</time>
      </trkpt>
      <trkpt lat="40.5932280" lon="-5.7381410">
        <ele>913.6</ele>
        <time>2021-10-15T09:39:49Z</time>
      </trkpt>
      <trkpt lat="40.5930010" lon="-5.7381570">
        <ele>913.4</ele>
        <time>2021-10-15T09:39:56Z</time>
      </trkpt>
      <trkpt lat="40.5927470" lon="-5.7381570">
        <ele>913.8</ele>
        <time>2021-10-15T09:40:04Z</time>
      </trkpt>
      <trkpt lat="40.5926380" lon="-5.7381680">
        <ele>914.2</ele>
        <time>2021-10-15T09:40:08Z</time>
      </trkpt>
      <trkpt lat="40.5925680" lon="-5.7381760">
        <ele>914.2</ele>
        <time>2021-10-15T09:40:10Z</time>
      </trkpt>
      <trkpt lat="40.5924600" lon="-5.7382000">
        <ele>914.2</ele>
        <time>2021-10-15T09:40:13Z</time>
      </trkpt>
      <trkpt lat="40.5924270" lon="-5.7382010">
        <ele>914.4</ele>
        <time>2021-10-15T09:40:14Z</time>
      </trkpt>
      <trkpt lat="40.5921160" lon="-5.7381910">
        <ele>915.2</ele>
        <time>2021-10-15T09:40:25Z</time>
      </trkpt>
      <trkpt lat="40.5920540" lon="-5.7381900">
        <ele>915.2</ele>
        <time>2021-10-15T09:40:27Z</time>
      </trkpt>
      <trkpt lat="40.5918510" lon="-5.7381840">
        <ele>915.6</ele>
        <time>2021-10-15T09:40:34Z</time>
      </trkpt>
      <trkpt lat="40.5916780" lon="-5.7381850">
        <ele>916.0</ele>
        <time>2021-10-15T09:40:40Z</time>
      </trkpt>
      <trkpt lat="40.5914800" lon="-5.7381990">
        <ele>916.4</ele>
        <time>2021-10-15T09:40:46Z</time>
      </trkpt>
      <trkpt lat="40.5913260" lon="-5.7382060">
        <ele>916.6</ele>
        <time>2021-10-15T09:40:51Z</time>
      </trkpt>
      <trkpt lat="40.5910520" lon="-5.7381750">
        <ele>917.0</ele>
        <time>2021-10-15T09:41:00Z</time>
      </trkpt>
      <trkpt lat="40.5908570" lon="-5.7381760">
        <ele>917.4</ele>
        <time>2021-10-15T09:41:06Z</time>
      </trkpt>
      <trkpt lat="40.5907730" lon="-5.7381850">
        <ele>917.8</ele>
        <time>2021-10-15T09:41:09Z</time>
      </trkpt>
      <trkpt lat="40.5905220" lon="-5.7382650">
        <ele>918.2</ele>
        <time>2021-10-15T09:41:18Z</time>
      </trkpt>
      <trkpt lat="40.5904130" lon="-5.7382730">
        <ele>918.4</ele>
        <time>2021-10-15T09:41:22Z</time>
      </trkpt>
      <trkpt lat="40.5902870" lon="-5.7382610">
        <ele>918.6</ele>
        <time>2021-10-15T09:41:26Z</time>
      </trkpt>
      <trkpt lat="40.5900670" lon="-5.7382650">
        <ele>919.0</ele>
        <time>2021-10-15T09:41:33Z</time>
      </trkpt>
      <trkpt lat="40.5899780" lon="-5.7382750">
        <ele>919.2</ele>
        <time>2021-10-15T09:41:36Z</time>
      </trkpt>
      <trkpt lat="40.5898010" lon="-5.7382750">
        <ele>919.6</ele>
        <time>2021-10-15T09:41:42Z</time>
      </trkpt>
      <trkpt lat="40.5897390" lon="-5.7382740">
        <ele>919.6</ele>
        <time>2021-10-15T09:41:44Z</time>
      </trkpt>
      <trkpt lat="40.5894410" lon="-5.7382820">
        <ele>920.6</ele>
        <time>2021-10-15T09:41:54Z</time>
      </trkpt>
      <trkpt lat="40.5891890" lon="-5.7383250">
        <ele>921.2</ele>
        <time>2021-10-15T09:42:03Z</time>
      </trkpt>
      <trkpt lat="40.5890990" lon="-5.7383340">
        <ele>921.4</ele>
        <time>2021-10-15T09:42:06Z</time>
      </trkpt>
      <trkpt lat="40.5890210" lon="-5.7383390">
        <ele>921.6</ele>
        <time>2021-10-15T09:42:09Z</time>
      </trkpt>
      <trkpt lat="40.5889670" lon="-5.7383360">
        <ele>921.8</ele>
        <time>2021-10-15T09:42:11Z</time>
      </trkpt>
      <trkpt lat="40.5887290" lon="-5.7383330">
        <ele>922.4</ele>
        <time>2021-10-15T09:42:20Z</time>
      </trkpt>
      <trkpt lat="40.5886790" lon="-5.7383370">
        <ele>922.6</ele>
        <time>2021-10-15T09:42:22Z</time>
      </trkpt>
      <trkpt lat="40.5886520" lon="-5.7383390">
        <ele>922.6</ele>
        <time>2021-10-15T09:42:23Z</time>
      </trkpt>
      <trkpt lat="40.5885290" lon="-5.7383480">
        <ele>923.0</ele>
        <time>2021-10-15T09:42:28Z</time>
      </trkpt>
      <trkpt lat="40.5885040" lon="-5.7383510">
        <ele>923.0</ele>
        <time>2021-10-15T09:42:29Z</time>
      </trkpt>
      <trkpt lat="40.5883280" lon="-5.7383740">
        <ele>923.6</ele>
        <time>2021-10-15T09:42:36Z</time>
      </trkpt>
      <trkpt lat="40.5882720" lon="-5.7383790">
        <ele>923.8</ele>
        <time>2021-10-15T09:42:38Z</time>
      </trkpt>
      <trkpt lat="40.5880700" lon="-5.7383830">
        <ele>924.4</ele>
        <time>2021-10-15T09:42:46Z</time>
      </trkpt>
      <trkpt lat="40.5879670" lon="-5.7383940">
        <ele>924.8</ele>
        <time>2021-10-15T09:42:50Z</time>
      </trkpt>
      <trkpt lat="40.5878240" lon="-5.7384090">
        <ele>925.0</ele>
        <time>2021-10-15T09:42:56Z</time>
      </trkpt>
      <trkpt lat="40.5877060" lon="-5.7384350">
        <ele>925.6</ele>
        <time>2021-10-15T09:43:03Z</time>
      </trkpt>
      <trkpt lat="40.5876960" lon="-5.7384650">
        <ele>925.6</ele>
        <time>2021-10-15T09:43:08Z</time>
      </trkpt>
      <trkpt lat="40.5875190" lon="-5.7382600">
        <ele>926.0</ele>
        <time>2021-10-15T09:56:28Z</time>
      </trkpt>
      <trkpt lat="40.5875020" lon="-5.7382540">
        <ele>926.0</ele>
        <time>2021-10-15T09:56:29Z</time>
      </trkpt>
      <trkpt lat="40.5874840" lon="-5.7382520">
        <ele>926.0</ele>
        <time>2021-10-15T09:56:30Z</time>
      </trkpt>
      <trkpt lat="40.5873300" lon="-5.7382760">
        <ele>926.0</ele>
        <time>2021-10-15T09:56:38Z</time>
      </trkpt>
      <trkpt lat="40.5871130" lon="-5.7383060">
        <ele>926.2</ele>
        <time>2021-10-15T09:56:48Z</time>
      </trkpt>
      <trkpt lat="40.5869920" lon="-5.7383320">
        <ele>926.4</ele>
        <time>2021-10-15T09:56:53Z</time>
      </trkpt>
      <trkpt lat="40.5869500" lon="-5.7383420">
        <ele>926.8</ele>
        <time>2021-10-15T09:56:55Z</time>
      </trkpt>
      <trkpt lat="40.5868710" lon="-5.7383570">
        <ele>927.0</ele>
        <time>2021-10-15T09:56:58Z</time>
      </trkpt>
      <trkpt lat="40.5867990" lon="-5.7383690">
        <ele>927.4</ele>
        <time>2021-10-15T09:57:01Z</time>
      </trkpt>
      <trkpt lat="40.5866320" lon="-5.7384090">
        <ele>928.0</ele>
        <time>2021-10-15T09:57:08Z</time>
      </trkpt>
      <trkpt lat="40.5865740" lon="-5.7384210">
        <ele>928.2</ele>
        <time>2021-10-15T09:57:10Z</time>
      </trkpt>
      <trkpt lat="40.5865490" lon="-5.7384260">
        <ele>928.2</ele>
        <time>2021-10-15T09:57:11Z</time>
      </trkpt>
      <trkpt lat="40.5863460" lon="-5.7384580">
        <ele>929.0</ele>
        <time>2021-10-15T09:57:19Z</time>
      </trkpt>
      <trkpt lat="40.5862950" lon="-5.7384670">
        <ele>929.0</ele>
        <time>2021-10-15T09:57:21Z</time>
      </trkpt>
      <trkpt lat="40.5862220" lon="-5.7384770">
        <ele>929.2</ele>
        <time>2021-10-15T09:57:24Z</time>
      </trkpt>
      <trkpt lat="40.5861220" lon="-5.7384920">
        <ele>929.4</ele>
        <time>2021-10-15T09:57:28Z</time>
      </trkpt>
      <trkpt lat="40.5860590" lon="-5.7384970">
        <ele>929.8</ele>
        <time>2021-10-15T09:57:31Z</time>
      </trkpt>
      <trkpt lat="40.5859410" lon="-5.7385010">
        <ele>930.2</ele>
        <time>2021-10-15T09:57:36Z</time>
      </trkpt>
      <trkpt lat="40.5858910" lon="-5.7385040">
        <ele>930.4</ele>
        <time>2021-10-15T09:57:38Z</time>
      </trkpt>
      <trkpt lat="40.5857970" lon="-5.7385100">
        <ele>930.8</ele>
        <time>2021-10-15T09:57:42Z</time>
      </trkpt>
      <trkpt lat="40.5857160" lon="-5.7385200">
        <ele>931.4</ele>
        <time>2021-10-15T09:57:46Z</time>
      </trkpt>
      <trkpt lat="40.5856930" lon="-5.7385240">
        <ele>931.8</ele>
        <time>2021-10-15T09:57:47Z</time>
      </trkpt>
      <trkpt lat="40.5855900" lon="-5.7385320">
        <ele>932.6</ele>
        <time>2021-10-15T09:57:52Z</time>
      </trkpt>
      <trkpt lat="40.5855330" lon="-5.7385320">
        <ele>932.8</ele>
        <time>2021-10-15T09:57:55Z</time>
      </trkpt>
      <trkpt lat="40.5854500" lon="-5.7385480">
        <ele>933.2</ele>
        <time>2021-10-15T09:57:59Z</time>
      </trkpt>
      <trkpt lat="40.5853810" lon="-5.7385620">
        <ele>933.6</ele>
        <time>2021-10-15T09:58:02Z</time>
      </trkpt>
      <trkpt lat="40.5853440" lon="-5.7385700">
        <ele>933.8</ele>
        <time>2021-10-15T09:58:04Z</time>
      </trkpt>
      <trkpt lat="40.5852040" lon="-5.7385860">
        <ele>934.6</ele>
        <time>2021-10-15T09:58:11Z</time>
      </trkpt>
      <trkpt lat="40.5851830" lon="-5.7385870">
        <ele>934.8</ele>
        <time>2021-10-15T09:58:12Z</time>
      </trkpt>
      <trkpt lat="40.5851020" lon="-5.7385840">
        <ele>935.4</ele>
        <time>2021-10-15T09:58:16Z</time>
      </trkpt>
      <trkpt lat="40.5850400" lon="-5.7385700">
        <ele>935.6</ele>
        <time>2021-10-15T09:58:19Z</time>
      </trkpt>
      <trkpt lat="40.5850180" lon="-5.7385640">
        <ele>936.0</ele>
        <time>2021-10-15T09:58:20Z</time>
      </trkpt>
      <trkpt lat="40.5848310" lon="-5.7385310">
        <ele>937.0</ele>
        <time>2021-10-15T09:58:29Z</time>
      </trkpt>
      <trkpt lat="40.5846940" lon="-5.7385150">
        <ele>938.0</ele>
        <time>2021-10-15T09:58:36Z</time>
      </trkpt>
      <trkpt lat="40.5846360" lon="-5.7385110">
        <ele>938.4</ele>
        <time>2021-10-15T09:58:39Z</time>
      </trkpt>
      <trkpt lat="40.5845800" lon="-5.7385090">
        <ele>938.8</ele>
        <time>2021-10-15T09:58:42Z</time>
      </trkpt>
      <trkpt lat="40.5845370" lon="-5.7385040">
        <ele>939.0</ele>
        <time>2021-10-15T09:58:44Z</time>
      </trkpt>
      <trkpt lat="40.5845160" lon="-5.7385020">
        <ele>939.2</ele>
        <time>2021-10-15T09:58:45Z</time>
      </trkpt>
      <trkpt lat="40.5844130" lon="-5.7385110">
        <ele>940.0</ele>
        <time>2021-10-15T09:58:50Z</time>
      </trkpt>
      <trkpt lat="40.5843720" lon="-5.7385110">
        <ele>940.2</ele>
        <time>2021-10-15T09:58:52Z</time>
      </trkpt>
      <trkpt lat="40.5842460" lon="-5.7385160">
        <ele>941.0</ele>
        <time>2021-10-15T09:58:58Z</time>
      </trkpt>
      <trkpt lat="40.5842250" lon="-5.7385160">
        <ele>941.0</ele>
        <time>2021-10-15T09:58:59Z</time>
      </trkpt>
      <trkpt lat="40.5841880" lon="-5.7385180">
        <ele>941.2</ele>
        <time>2021-10-15T09:59:01Z</time>
      </trkpt>
      <trkpt lat="40.5841430" lon="-5.7385230">
        <ele>941.4</ele>
        <time>2021-10-15T09:59:03Z</time>
      </trkpt>
      <trkpt lat="40.5841030" lon="-5.7385230">
        <ele>941.6</ele>
        <time>2021-10-15T09:59:05Z</time>
      </trkpt>
      <trkpt lat="40.5840310" lon="-5.7385240">
        <ele>941.8</ele>
        <time>2021-10-15T09:59:08Z</time>
      </trkpt>
      <trkpt lat="40.5839090" lon="-5.7385410">
        <ele>942.0</ele>
        <time>2021-10-15T09:59:13Z</time>
      </trkpt>
      <trkpt lat="40.5838130" lon="-5.7385520">
        <ele>942.4</ele>
        <time>2021-10-15T09:59:17Z</time>
      </trkpt>
      <trkpt lat="40.5836880" lon="-5.7385610">
        <ele>942.6</ele>
        <time>2021-10-15T09:59:22Z</time>
      </trkpt>
      <trkpt lat="40.5835380" lon="-5.7385810">
        <ele>942.8</ele>
        <time>2021-10-15T09:59:28Z</time>
      </trkpt>
      <trkpt lat="40.5835130" lon="-5.7385820">
        <ele>942.8</ele>
        <time>2021-10-15T09:59:29Z</time>
      </trkpt>
      <trkpt lat="40.5834570" lon="-5.7385850">
        <ele>943.0</ele>
        <time>2021-10-15T09:59:31Z</time>
      </trkpt>
      <trkpt lat="40.5833770" lon="-5.7385880">
        <ele>943.2</ele>
        <time>2021-10-15T09:59:34Z</time>
      </trkpt>
      <trkpt lat="40.5833050" lon="-5.7385930">
        <ele>943.2</ele>
        <time>2021-10-15T09:59:37Z</time>
      </trkpt>
      <trkpt lat="40.5832530" lon="-5.7385970">
        <ele>943.4</ele>
        <time>2021-10-15T09:59:39Z</time>
      </trkpt>
      <trkpt lat="40.5831930" lon="-5.7386010">
        <ele>943.4</ele>
        <time>2021-10-15T09:59:41Z</time>
      </trkpt>
      <trkpt lat="40.5829340" lon="-5.7386310">
        <ele>944.0</ele>
        <time>2021-10-15T09:59:51Z</time>
      </trkpt>
      <trkpt lat="40.5827440" lon="-5.7386840">
        <ele>944.4</ele>
        <time>2021-10-15T09:59:58Z</time>
      </trkpt>
      <trkpt lat="40.5826960" lon="-5.7387030">
        <ele>944.4</ele>
        <time>2021-10-15T10:00:00Z</time>
      </trkpt>
      <trkpt lat="40.5825940" lon="-5.7387360">
        <ele>945.0</ele>
        <time>2021-10-15T10:00:04Z</time>
      </trkpt>
      <trkpt lat="40.5825250" lon="-5.7387520">
        <ele>945.2</ele>
        <time>2021-10-15T10:00:07Z</time>
      </trkpt>
      <trkpt lat="40.5824620" lon="-5.7387660">
        <ele>945.4</ele>
        <time>2021-10-15T10:00:10Z</time>
      </trkpt>
      <trkpt lat="40.5824350" lon="-5.7387650">
        <ele>945.4</ele>
        <time>2021-10-15T10:00:11Z</time>
      </trkpt>
      <trkpt lat="40.5823870" lon="-5.7387610">
        <ele>945.6</ele>
        <time>2021-10-15T10:00:13Z</time>
      </trkpt>
      <trkpt lat="40.5822700" lon="-5.7387720">
        <ele>945.8</ele>
        <time>2021-10-15T10:00:18Z</time>
      </trkpt>
      <trkpt lat="40.5821740" lon="-5.7387670">
        <ele>946.2</ele>
        <time>2021-10-15T10:00:22Z</time>
      </trkpt>
      <trkpt lat="40.5820790" lon="-5.7387720">
        <ele>946.4</ele>
        <time>2021-10-15T10:00:26Z</time>
      </trkpt>
      <trkpt lat="40.5819790" lon="-5.7387670">
        <ele>946.6</ele>
        <time>2021-10-15T10:00:30Z</time>
      </trkpt>
      <trkpt lat="40.5817920" lon="-5.7387800">
        <ele>947.4</ele>
        <time>2021-10-15T10:00:38Z</time>
      </trkpt>
      <trkpt lat="40.5817470" lon="-5.7387890">
        <ele>947.6</ele>
        <time>2021-10-15T10:00:40Z</time>
      </trkpt>
      <trkpt lat="40.5815420" lon="-5.7387940">
        <ele>948.6</ele>
        <time>2021-10-15T10:00:49Z</time>
      </trkpt>
      <trkpt lat="40.5813760" lon="-5.7388020">
        <ele>949.2</ele>
        <time>2021-10-15T10:00:56Z</time>
      </trkpt>
      <trkpt lat="40.5812300" lon="-5.7388100">
        <ele>949.6</ele>
        <time>2021-10-15T10:01:02Z</time>
      </trkpt>
      <trkpt lat="40.5811540" lon="-5.7388120">
        <ele>950.0</ele>
        <time>2021-10-15T10:01:05Z</time>
      </trkpt>
      <trkpt lat="40.5810400" lon="-5.7388140">
        <ele>950.2</ele>
        <time>2021-10-15T10:01:09Z</time>
      </trkpt>
      <trkpt lat="40.5809410" lon="-5.7388280">
        <ele>950.4</ele>
        <time>2021-10-15T10:01:12Z</time>
      </trkpt>
      <trkpt lat="40.5807980" lon="-5.7388160">
        <ele>950.4</ele>
        <time>2021-10-15T10:01:16Z</time>
      </trkpt>
      <trkpt lat="40.5807270" lon="-5.7388100">
        <ele>950.6</ele>
        <time>2021-10-15T10:01:18Z</time>
      </trkpt>
      <trkpt lat="40.5806580" lon="-5.7388250">
        <ele>950.6</ele>
        <time>2021-10-15T10:01:20Z</time>
      </trkpt>
      <trkpt lat="40.5805330" lon="-5.7388370">
        <ele>950.6</ele>
        <time>2021-10-15T10:01:24Z</time>
      </trkpt>
      <trkpt lat="40.5804080" lon="-5.7388380">
        <ele>950.6</ele>
        <time>2021-10-15T10:01:28Z</time>
      </trkpt>
      <trkpt lat="40.5801590" lon="-5.7388490">
        <ele>950.4</ele>
        <time>2021-10-15T10:01:35Z</time>
      </trkpt>
      <trkpt lat="40.5798800" lon="-5.7388190">
        <ele>950.2</ele>
        <time>2021-10-15T10:01:42Z</time>
      </trkpt>
      <trkpt lat="40.5797110" lon="-5.7388050">
        <ele>949.8</ele>
        <time>2021-10-15T10:01:46Z</time>
      </trkpt>
      <trkpt lat="40.5796270" lon="-5.7387990">
        <ele>949.6</ele>
        <time>2021-10-15T10:01:48Z</time>
      </trkpt>
      <trkpt lat="40.5795300" lon="-5.7387960">
        <ele>949.6</ele>
        <time>2021-10-15T10:01:50Z</time>
      </trkpt>
      <trkpt lat="40.5794880" lon="-5.7387930">
        <ele>949.4</ele>
        <time>2021-10-15T10:01:51Z</time>
      </trkpt>
      <trkpt lat="40.5792810" lon="-5.7387780">
        <ele>949.0</ele>
        <time>2021-10-15T10:01:56Z</time>
      </trkpt>
      <trkpt lat="40.5792460" lon="-5.7387780">
        <ele>948.8</ele>
        <time>2021-10-15T10:01:57Z</time>
      </trkpt>
      <trkpt lat="40.5791220" lon="-5.7387730">
        <ele>948.8</ele>
        <time>2021-10-15T10:02:00Z</time>
      </trkpt>
      <trkpt lat="40.5789970" lon="-5.7387690">
        <ele>948.6</ele>
        <time>2021-10-15T10:02:03Z</time>
      </trkpt>
      <trkpt lat="40.5789550" lon="-5.7387700">
        <ele>948.6</ele>
        <time>2021-10-15T10:02:04Z</time>
      </trkpt>
      <trkpt lat="40.5785920" lon="-5.7387580">
        <ele>948.0</ele>
        <time>2021-10-15T10:02:13Z</time>
      </trkpt>
      <trkpt lat="40.5785560" lon="-5.7387550">
        <ele>948.0</ele>
        <time>2021-10-15T10:02:14Z</time>
      </trkpt>
      <trkpt lat="40.5784390" lon="-5.7387660">
        <ele>948.0</ele>
        <time>2021-10-15T10:02:17Z</time>
      </trkpt>
      <trkpt lat="40.5783130" lon="-5.7387590">
        <ele>948.0</ele>
        <time>2021-10-15T10:02:20Z</time>
      </trkpt>
      <trkpt lat="40.5780540" lon="-5.7387280">
        <ele>947.8</ele>
        <time>2021-10-15T10:02:27Z</time>
      </trkpt>
      <trkpt lat="40.5778000" lon="-5.7387040">
        <ele>947.8</ele>
        <time>2021-10-15T10:02:34Z</time>
      </trkpt>
      <trkpt lat="40.5777610" lon="-5.7387060">
        <ele>947.8</ele>
        <time>2021-10-15T10:02:35Z</time>
      </trkpt>
      <trkpt lat="40.5775970" lon="-5.7387310">
        <ele>947.8</ele>
        <time>2021-10-15T10:02:39Z</time>
      </trkpt>
      <trkpt lat="40.5774430" lon="-5.7387840">
        <ele>947.8</ele>
        <time>2021-10-15T10:02:43Z</time>
      </trkpt>
      <trkpt lat="40.5772390" lon="-5.7388740">
        <ele>947.6</ele>
        <time>2021-10-15T10:02:49Z</time>
      </trkpt>
      <trkpt lat="40.5770600" lon="-5.7388680">
        <ele>947.8</ele>
        <time>2021-10-15T10:02:54Z</time>
      </trkpt>
      <trkpt lat="40.5768790" lon="-5.7387910">
        <ele>948.0</ele>
        <time>2021-10-15T10:02:59Z</time>
      </trkpt>
      <trkpt lat="40.5768100" lon="-5.7387430">
        <ele>948.0</ele>
        <time>2021-10-15T10:03:01Z</time>
      </trkpt>
      <trkpt lat="40.5766170" lon="-5.7385670">
        <ele>948.2</ele>
        <time>2021-10-15T10:03:07Z</time>
      </trkpt>
      <trkpt lat="40.5763460" lon="-5.7383610">
        <ele>948.6</ele>
        <time>2021-10-15T10:03:16Z</time>
      </trkpt>
      <trkpt lat="40.5760000" lon="-5.7381310">
        <ele>949.2</ele>
        <time>2021-10-15T10:03:28Z</time>
      </trkpt>
      <trkpt lat="40.5757640" lon="-5.7380030">
        <ele>949.6</ele>
        <time>2021-10-15T10:03:37Z</time>
      </trkpt>
      <trkpt lat="40.5755640" lon="-5.7380160">
        <ele>949.6</ele>
        <time>2021-10-15T10:03:44Z</time>
      </trkpt>
      <trkpt lat="40.5754380" lon="-5.7380600">
        <ele>949.6</ele>
        <time>2021-10-15T10:03:49Z</time>
      </trkpt>
      <trkpt lat="40.5753240" lon="-5.7381200">
        <ele>949.6</ele>
        <time>2021-10-15T10:03:54Z</time>
      </trkpt>
      <trkpt lat="40.5752630" lon="-5.7381550">
        <ele>949.6</ele>
        <time>2021-10-15T10:03:57Z</time>
      </trkpt>
      <trkpt lat="40.5752250" lon="-5.7381670">
        <ele>949.6</ele>
        <time>2021-10-15T10:03:59Z</time>
      </trkpt>
      <trkpt lat="40.5751900" lon="-5.7381590">
        <ele>949.6</ele>
        <time>2021-10-15T10:04:01Z</time>
      </trkpt>
      <trkpt lat="40.5751230" lon="-5.7381090">
        <ele>949.6</ele>
        <time>2021-10-15T10:04:04Z</time>
      </trkpt>
      <trkpt lat="40.5750760" lon="-5.7380550">
        <ele>949.6</ele>
        <time>2021-10-15T10:04:06Z</time>
      </trkpt>
      <trkpt lat="40.5748410" lon="-5.7378580">
        <ele>949.2</ele>
        <time>2021-10-15T10:04:13Z</time>
      </trkpt>
      <trkpt lat="40.5747240" lon="-5.7377800">
        <ele>948.8</ele>
        <time>2021-10-15T10:04:16Z</time>
      </trkpt>
      <trkpt lat="40.5745610" lon="-5.7376920">
        <ele>948.8</ele>
        <time>2021-10-15T10:04:20Z</time>
      </trkpt>
      <trkpt lat="40.5744770" lon="-5.7376540">
        <ele>948.6</ele>
        <time>2021-10-15T10:04:22Z</time>
      </trkpt>
      <trkpt lat="40.5742710" lon="-5.7375630">
        <ele>948.4</ele>
        <time>2021-10-15T10:04:27Z</time>
      </trkpt>
      <trkpt lat="40.5740200" lon="-5.7374640">
        <ele>948.2</ele>
        <time>2021-10-15T10:04:33Z</time>
      </trkpt>
      <trkpt lat="40.5737150" lon="-5.7373380">
        <ele>947.6</ele>
        <time>2021-10-15T10:04:40Z</time>
      </trkpt>
      <trkpt lat="40.5734420" lon="-5.7372290">
        <ele>947.2</ele>
        <time>2021-10-15T10:04:46Z</time>
      </trkpt>
      <trkpt lat="40.5729770" lon="-5.7370330">
        <ele>946.6</ele>
        <time>2021-10-15T10:04:56Z</time>
      </trkpt>
      <trkpt lat="40.5728780" lon="-5.7369930">
        <ele>946.4</ele>
        <time>2021-10-15T10:04:58Z</time>
      </trkpt>
      <trkpt lat="40.5724500" lon="-5.7367740">
        <ele>946.0</ele>
        <time>2021-10-15T10:05:07Z</time>
      </trkpt>
      <trkpt lat="40.5724000" lon="-5.7367480">
        <ele>945.8</ele>
        <time>2021-10-15T10:05:08Z</time>
      </trkpt>
      <trkpt lat="40.5721970" lon="-5.7366370">
        <ele>945.6</ele>
        <time>2021-10-15T10:05:12Z</time>
      </trkpt>
      <trkpt lat="40.5718690" lon="-5.7364520">
        <ele>944.8</ele>
        <time>2021-10-15T10:05:18Z</time>
      </trkpt>
      <trkpt lat="40.5717530" lon="-5.7363860">
        <ele>944.6</ele>
        <time>2021-10-15T10:05:20Z</time>
      </trkpt>
      <trkpt lat="40.5713930" lon="-5.7361810">
        <ele>943.4</ele>
        <time>2021-10-15T10:05:26Z</time>
      </trkpt>
      <trkpt lat="40.5713320" lon="-5.7361460">
        <ele>943.2</ele>
        <time>2021-10-15T10:05:27Z</time>
      </trkpt>
      <trkpt lat="40.5710280" lon="-5.7359770">
        <ele>942.6</ele>
        <time>2021-10-15T10:05:32Z</time>
      </trkpt>
      <trkpt lat="40.5709680" lon="-5.7359430">
        <ele>942.4</ele>
        <time>2021-10-15T10:05:33Z</time>
      </trkpt>
      <trkpt lat="40.5707920" lon="-5.7358460">
        <ele>941.6</ele>
        <time>2021-10-15T10:05:36Z</time>
      </trkpt>
      <trkpt lat="40.5704650" lon="-5.7356650">
        <ele>941.2</ele>
        <time>2021-10-15T10:05:42Z</time>
      </trkpt>
      <trkpt lat="40.5703570" lon="-5.7356040">
        <ele>941.2</ele>
        <time>2021-10-15T10:05:44Z</time>
      </trkpt>
      <trkpt lat="40.5701010" lon="-5.7354540">
        <ele>941.4</ele>
        <time>2021-10-15T10:05:49Z</time>
      </trkpt>
      <trkpt lat="40.5699550" lon="-5.7353710">
        <ele>941.4</ele>
        <time>2021-10-15T10:05:52Z</time>
      </trkpt>
      <trkpt lat="40.5696310" lon="-5.7351800">
        <ele>942.0</ele>
        <time>2021-10-15T10:05:59Z</time>
      </trkpt>
      <trkpt lat="40.5694160" lon="-5.7350160">
        <ele>942.4</ele>
        <time>2021-10-15T10:06:04Z</time>
      </trkpt>
      <trkpt lat="40.5692990" lon="-5.7349150">
        <ele>942.6</ele>
        <time>2021-10-15T10:06:07Z</time>
      </trkpt>
      <trkpt lat="40.5690860" lon="-5.7347000">
        <ele>943.0</ele>
        <time>2021-10-15T10:06:13Z</time>
      </trkpt>
      <trkpt lat="40.5690500" lon="-5.7346610">
        <ele>943.0</ele>
        <time>2021-10-15T10:06:14Z</time>
      </trkpt>
      <trkpt lat="40.5689150" lon="-5.7345120">
        <ele>943.0</ele>
        <time>2021-10-15T10:06:18Z</time>
      </trkpt>
      <trkpt lat="40.5688400" lon="-5.7344120">
        <ele>943.0</ele>
        <time>2021-10-15T10:06:21Z</time>
      </trkpt>
      <trkpt lat="40.5688040" lon="-5.7343770">
        <ele>943.0</ele>
        <time>2021-10-15T10:06:22Z</time>
      </trkpt>
      <trkpt lat="40.5687370" lon="-5.7343550">
        <ele>943.0</ele>
        <time>2021-10-15T10:06:24Z</time>
      </trkpt>
      <trkpt lat="40.5686980" lon="-5.7343620">
        <ele>943.2</ele>
        <time>2021-10-15T10:06:25Z</time>
      </trkpt>
      <trkpt lat="40.5686280" lon="-5.7344240">
        <ele>943.2</ele>
        <time>2021-10-15T10:06:27Z</time>
      </trkpt>
      <trkpt lat="40.5685480" lon="-5.7345590">
        <ele>943.2</ele>
        <time>2021-10-15T10:06:30Z</time>
      </trkpt>
      <trkpt lat="40.5684750" lon="-5.7346300">
        <ele>943.2</ele>
        <time>2021-10-15T10:06:32Z</time>
      </trkpt>
      <trkpt lat="40.5683860" lon="-5.7346700">
        <ele>943.0</ele>
        <time>2021-10-15T10:06:34Z</time>
      </trkpt>
      <trkpt lat="40.5682950" lon="-5.7346540">
        <ele>943.0</ele>
        <time>2021-10-15T10:06:36Z</time>
      </trkpt>
      <trkpt lat="40.5681240" lon="-5.7346140">
        <ele>942.8</ele>
        <time>2021-10-15T10:06:42Z</time>
      </trkpt>
      <trkpt lat="40.5681180" lon="-5.7346140">
        <ele>942.6</ele>
        <time>2021-10-15T10:06:44Z</time>
      </trkpt>
      <trkpt lat="40.5680880" lon="-5.7346500">
        <ele>942.6</ele>
        <time>2021-10-15T10:06:57Z</time>
      </trkpt>
      <trkpt lat="40.5680760" lon="-5.7346590">
        <ele>942.6</ele>
        <time>2021-10-15T10:06:58Z</time>
      </trkpt>
      <trkpt lat="40.5680040" lon="-5.7346500">
        <ele>942.6</ele>
        <time>2021-10-15T10:07:02Z</time>
      </trkpt>
      <trkpt lat="40.5678720" lon="-5.7346210">
        <ele>942.6</ele>
        <time>2021-10-15T10:07:08Z</time>
      </trkpt>
      <trkpt lat="40.5677230" lon="-5.7345890">
        <ele>942.6</ele>
        <time>2021-10-15T10:07:14Z</time>
      </trkpt>
      <trkpt lat="40.5676990" lon="-5.7345830">
        <ele>942.6</ele>
        <time>2021-10-15T10:07:15Z</time>
      </trkpt>
      <trkpt lat="40.5675010" lon="-5.7345470">
        <ele>942.8</ele>
        <time>2021-10-15T10:07:22Z</time>
      </trkpt>
      <trkpt lat="40.5671920" lon="-5.7345000">
        <ele>942.8</ele>
        <time>2021-10-15T10:07:30Z</time>
      </trkpt>
      <trkpt lat="40.5669340" lon="-5.7344620">
        <ele>943.2</ele>
        <time>2021-10-15T10:07:36Z</time>
      </trkpt>
      <trkpt lat="40.5668530" lon="-5.7344380">
        <ele>943.2</ele>
        <time>2021-10-15T10:07:38Z</time>
      </trkpt>
      <trkpt lat="40.5667050" lon="-5.7343900">
        <ele>943.4</ele>
        <time>2021-10-15T10:07:42Z</time>
      </trkpt>
      <trkpt lat="40.5665930" lon="-5.7343680">
        <ele>943.4</ele>
        <time>2021-10-15T10:07:45Z</time>
      </trkpt>
      <trkpt lat="40.5664110" lon="-5.7342990">
        <ele>943.4</ele>
        <time>2021-10-15T10:07:50Z</time>
      </trkpt>
      <trkpt lat="40.5662720" lon="-5.7342430">
        <ele>943.4</ele>
        <time>2021-10-15T10:07:54Z</time>
      </trkpt>
      <trkpt lat="40.5660930" lon="-5.7341310">
        <ele>943.6</ele>
        <time>2021-10-15T10:07:59Z</time>
      </trkpt>
      <trkpt lat="40.5658140" lon="-5.7338300">
        <ele>943.8</ele>
        <time>2021-10-15T10:08:08Z</time>
      </trkpt>
      <trkpt lat="40.5656470" lon="-5.7335680">
        <ele>944.0</ele>
        <time>2021-10-15T10:08:15Z</time>
      </trkpt>
      <trkpt lat="40.5655810" lon="-5.7334520">
        <ele>944.0</ele>
        <time>2021-10-15T10:08:20Z</time>
      </trkpt>
      <trkpt lat="40.5655720" lon="-5.7334410">
        <ele>944.0</ele>
        <time>2021-10-15T10:08:21Z</time>
      </trkpt>
      <trkpt lat="40.5655680" lon="-5.7334350">
        <ele>944.0</ele>
        <time>2021-10-15T10:08:23Z</time>
      </trkpt>
      <trkpt lat="40.5655540" lon="-5.7333880">
        <ele>944.0</ele>
        <time>2021-10-15T10:08:44Z</time>
      </trkpt>
      <trkpt lat="40.5654900" lon="-5.7331870">
        <ele>944.0</ele>
        <time>2021-10-15T10:08:50Z</time>
      </trkpt>
      <trkpt lat="40.5654150" lon="-5.7329630">
        <ele>944.0</ele>
        <time>2021-10-15T10:08:57Z</time>
      </trkpt>
      <trkpt lat="40.5653240" lon="-5.7327160">
        <ele>944.4</ele>
        <time>2021-10-15T10:09:04Z</time>
      </trkpt>
      <trkpt lat="40.5653150" lon="-5.7326820">
        <ele>944.4</ele>
        <time>2021-10-15T10:09:05Z</time>
      </trkpt>
      <trkpt lat="40.5652130" lon="-5.7325130">
        <ele>944.8</ele>
        <time>2021-10-15T10:09:11Z</time>
      </trkpt>
      <trkpt lat="40.5651130" lon="-5.7322800">
        <ele>945.2</ele>
        <time>2021-10-15T10:09:19Z</time>
      </trkpt>
      <trkpt lat="40.5651460" lon="-5.7321030">
        <ele>945.4</ele>
        <time>2021-10-15T10:09:24Z</time>
      </trkpt>
      <trkpt lat="40.5651280" lon="-5.7320390">
        <ele>945.4</ele>
        <time>2021-10-15T10:09:26Z</time>
      </trkpt>
      <trkpt lat="40.5650360" lon="-5.7319210">
        <ele>945.4</ele>
        <time>2021-10-15T10:09:31Z</time>
      </trkpt>
      <trkpt lat="40.5649600" lon="-5.7318440">
        <ele>945.4</ele>
        <time>2021-10-15T10:09:37Z</time>
      </trkpt>
      <trkpt lat="40.5649580" lon="-5.7318420">
        <ele>945.4</ele>
        <time>2021-10-15T10:09:40Z</time>
      </trkpt>
      <trkpt lat="40.5649220" lon="-5.7318890">
        <ele>945.4</ele>
        <time>2021-10-15T10:09:46Z</time>
      </trkpt>
      <trkpt lat="40.5649200" lon="-5.7319080">
        <ele>945.2</ele>
        <time>2021-10-15T10:09:47Z</time>
      </trkpt>
      <trkpt lat="40.5649000" lon="-5.7320060">
        <ele>945.2</ele>
        <time>2021-10-15T10:09:52Z</time>
      </trkpt>
      <trkpt lat="40.5648930" lon="-5.7320200">
        <ele>945.2</ele>
        <time>2021-10-15T10:09:53Z</time>
      </trkpt>
      <trkpt lat="40.5648620" lon="-5.7321010">
        <ele>945.2</ele>
        <time>2021-10-15T10:09:57Z</time>
      </trkpt>
      <trkpt lat="40.5648520" lon="-5.7321400">
        <ele>945.4</ele>
        <time>2021-10-15T10:09:59Z</time>
      </trkpt>
      <trkpt lat="40.5647740" lon="-5.7323120">
        <ele>945.4</ele>
        <time>2021-10-15T10:10:05Z</time>
      </trkpt>
      <trkpt lat="40.5646310" lon="-5.7325360">
        <ele>945.2</ele>
        <time>2021-10-15T10:10:14Z</time>
      </trkpt>
      <trkpt lat="40.5645810" lon="-5.7326320">
        <ele>945.4</ele>
        <time>2021-10-15T10:10:18Z</time>
      </trkpt>
      <trkpt lat="40.5645290" lon="-5.7327130">
        <ele>945.4</ele>
        <time>2021-10-15T10:10:21Z</time>
      </trkpt>
      <trkpt lat="40.5644900" lon="-5.7327750">
        <ele>945.6</ele>
        <time>2021-10-15T10:10:24Z</time>
      </trkpt>
      <trkpt lat="40.5644470" lon="-5.7328360">
        <ele>945.6</ele>
        <time>2021-10-15T10:10:27Z</time>
      </trkpt>
      <trkpt lat="40.5643170" lon="-5.7330480">
        <ele>945.8</ele>
        <time>2021-10-15T10:10:34Z</time>
      </trkpt>
      <trkpt lat="40.5642420" lon="-5.7331870">
        <ele>946.0</ele>
        <time>2021-10-15T10:10:38Z</time>
      </trkpt>
      <trkpt lat="40.5641910" lon="-5.7333250">
        <ele>946.2</ele>
        <time>2021-10-15T10:10:43Z</time>
      </trkpt>
      <trkpt lat="40.5641500" lon="-5.7333980">
        <ele>946.4</ele>
        <time>2021-10-15T10:10:47Z</time>
      </trkpt>
      <trkpt lat="40.5641310" lon="-5.7334250">
        <ele>946.4</ele>
        <time>2021-10-15T10:10:49Z</time>
      </trkpt>
      <trkpt lat="40.5641200" lon="-5.7334420">
        <ele>946.4</ele>
        <time>2021-10-15T10:10:50Z</time>
      </trkpt>
      <trkpt lat="40.5641130" lon="-5.7334590">
        <ele>946.4</ele>
        <time>2021-10-15T10:10:51Z</time>
      </trkpt>
      <trkpt lat="40.5641030" lon="-5.7334870">
        <ele>946.6</ele>
        <time>2021-10-15T10:10:54Z</time>
      </trkpt>
      <trkpt lat="40.5641030" lon="-5.7334870">
        <ele>946.6</ele>
        <time>2021-10-15T10:10:55Z</time>
      </trkpt>
      <trkpt lat="40.5636780" lon="-5.7342030">
        <ele>948.2</ele>
        <time>2021-10-15T10:16:40Z</time>
      </trkpt>
      <trkpt lat="40.5636620" lon="-5.7342230">
        <ele>948.2</ele>
        <time>2021-10-15T10:16:41Z</time>
      </trkpt>
      <trkpt lat="40.5636450" lon="-5.7342420">
        <ele>948.2</ele>
        <time>2021-10-15T10:16:42Z</time>
      </trkpt>
      <trkpt lat="40.5635520" lon="-5.7343850">
        <ele>948.4</ele>
        <time>2021-10-15T10:16:48Z</time>
      </trkpt>
      <trkpt lat="40.5634600" lon="-5.7345010">
        <ele>948.4</ele>
        <time>2021-10-15T10:16:53Z</time>
      </trkpt>
      <trkpt lat="40.5634220" lon="-5.7345440">
        <ele>948.4</ele>
        <time>2021-10-15T10:16:55Z</time>
      </trkpt>
      <trkpt lat="40.5632480" lon="-5.7347680">
        <ele>948.8</ele>
        <time>2021-10-15T10:17:05Z</time>
      </trkpt>
      <trkpt lat="40.5631550" lon="-5.7348760">
        <ele>949.2</ele>
        <time>2021-10-15T10:17:10Z</time>
      </trkpt>
      <trkpt lat="40.5631040" lon="-5.7349470">
        <ele>949.6</ele>
        <time>2021-10-15T10:17:13Z</time>
      </trkpt>
      <trkpt lat="40.5630060" lon="-5.7350940">
        <ele>950.2</ele>
        <time>2021-10-15T10:17:19Z</time>
      </trkpt>
      <trkpt lat="40.5629910" lon="-5.7351120">
        <ele>950.4</ele>
        <time>2021-10-15T10:17:20Z</time>
      </trkpt>
      <trkpt lat="40.5629620" lon="-5.7351540">
        <ele>950.6</ele>
        <time>2021-10-15T10:17:22Z</time>
      </trkpt>
      <trkpt lat="40.5629080" lon="-5.7352200">
        <ele>951.0</ele>
        <time>2021-10-15T10:17:25Z</time>
      </trkpt>
      <trkpt lat="40.5628500" lon="-5.7352940">
        <ele>951.4</ele>
        <time>2021-10-15T10:17:28Z</time>
      </trkpt>
      <trkpt lat="40.5628190" lon="-5.7353410">
        <ele>951.4</ele>
        <time>2021-10-15T10:17:30Z</time>
      </trkpt>
      <trkpt lat="40.5627500" lon="-5.7354230">
        <ele>951.6</ele>
        <time>2021-10-15T10:17:33Z</time>
      </trkpt>
      <trkpt lat="40.5626630" lon="-5.7355370">
        <ele>951.6</ele>
        <time>2021-10-15T10:17:36Z</time>
      </trkpt>
      <trkpt lat="40.5625170" lon="-5.7357180">
        <ele>951.2</ele>
        <time>2021-10-15T10:17:40Z</time>
      </trkpt>
      <trkpt lat="40.5624410" lon="-5.7357860">
        <ele>951.0</ele>
        <time>2021-10-15T10:17:42Z</time>
      </trkpt>
      <trkpt lat="40.5622830" lon="-5.7359450">
        <ele>950.4</ele>
        <time>2021-10-15T10:17:47Z</time>
      </trkpt>
      <trkpt lat="40.5622590" lon="-5.7359710">
        <ele>950.2</ele>
        <time>2021-10-15T10:17:48Z</time>
      </trkpt>
      <trkpt lat="40.5621560" lon="-5.7360430">
        <ele>950.0</ele>
        <time>2021-10-15T10:17:51Z</time>
      </trkpt>
      <trkpt lat="40.5619880" lon="-5.7361310">
        <ele>950.2</ele>
        <time>2021-10-15T10:17:56Z</time>
      </trkpt>
      <trkpt lat="40.5618910" lon="-5.7361770">
        <ele>950.4</ele>
        <time>2021-10-15T10:17:59Z</time>
      </trkpt>
      <trkpt lat="40.5617650" lon="-5.7362480">
        <ele>950.6</ele>
        <time>2021-10-15T10:18:03Z</time>
      </trkpt>
      <trkpt lat="40.5616620" lon="-5.7363160">
        <ele>951.0</ele>
        <time>2021-10-15T10:18:06Z</time>
      </trkpt>
      <trkpt lat="40.5614950" lon="-5.7364320">
        <ele>951.4</ele>
        <time>2021-10-15T10:18:11Z</time>
      </trkpt>
      <trkpt lat="40.5613640" lon="-5.7365320">
        <ele>951.6</ele>
        <time>2021-10-15T10:18:15Z</time>
      </trkpt>
      <trkpt lat="40.5613060" lon="-5.7365790">
        <ele>951.6</ele>
        <time>2021-10-15T10:18:17Z</time>
      </trkpt>
      <trkpt lat="40.5611880" lon="-5.7366880">
        <ele>951.8</ele>
        <time>2021-10-15T10:18:21Z</time>
      </trkpt>
      <trkpt lat="40.5611330" lon="-5.7367420">
        <ele>952.0</ele>
        <time>2021-10-15T10:18:23Z</time>
      </trkpt>
      <trkpt lat="40.5610000" lon="-5.7368670">
        <ele>952.4</ele>
        <time>2021-10-15T10:18:28Z</time>
      </trkpt>
      <trkpt lat="40.5608930" lon="-5.7369760">
        <ele>952.8</ele>
        <time>2021-10-15T10:18:32Z</time>
      </trkpt>
      <trkpt lat="40.5606520" lon="-5.7372220">
        <ele>953.4</ele>
        <time>2021-10-15T10:18:41Z</time>
      </trkpt>
      <trkpt lat="40.5606230" lon="-5.7372490">
        <ele>953.4</ele>
        <time>2021-10-15T10:18:42Z</time>
      </trkpt>
      <trkpt lat="40.5604730" lon="-5.7374140">
        <ele>953.8</ele>
        <time>2021-10-15T10:18:48Z</time>
      </trkpt>
      <trkpt lat="40.5603730" lon="-5.7375200">
        <ele>954.2</ele>
        <time>2021-10-15T10:18:52Z</time>
      </trkpt>
      <trkpt lat="40.5603230" lon="-5.7375740">
        <ele>954.6</ele>
        <time>2021-10-15T10:18:54Z</time>
      </trkpt>
      <trkpt lat="40.5601560" lon="-5.7377640">
        <ele>955.2</ele>
        <time>2021-10-15T10:19:01Z</time>
      </trkpt>
      <trkpt lat="40.5601310" lon="-5.7377940">
        <ele>955.4</ele>
        <time>2021-10-15T10:19:02Z</time>
      </trkpt>
      <trkpt lat="40.5600370" lon="-5.7379120">
        <ele>955.6</ele>
        <time>2021-10-15T10:19:06Z</time>
      </trkpt>
      <trkpt lat="40.5598930" lon="-5.7380920">
        <ele>956.2</ele>
        <time>2021-10-15T10:19:12Z</time>
      </trkpt>
      <trkpt lat="40.5598270" lon="-5.7381910">
        <ele>956.4</ele>
        <time>2021-10-15T10:19:15Z</time>
      </trkpt>
      <trkpt lat="40.5597700" lon="-5.7382920">
        <ele>956.6</ele>
        <time>2021-10-15T10:19:18Z</time>
      </trkpt>
      <trkpt lat="40.5597110" lon="-5.7384000">
        <ele>956.6</ele>
        <time>2021-10-15T10:19:21Z</time>
      </trkpt>
      <trkpt lat="40.5596730" lon="-5.7384800">
        <ele>956.8</ele>
        <time>2021-10-15T10:19:23Z</time>
      </trkpt>
      <trkpt lat="40.5596330" lon="-5.7385560">
        <ele>956.8</ele>
        <time>2021-10-15T10:19:25Z</time>
      </trkpt>
      <trkpt lat="40.5595160" lon="-5.7387670">
        <ele>957.0</ele>
        <time>2021-10-15T10:19:31Z</time>
      </trkpt>
      <trkpt lat="40.5593490" lon="-5.7391000">
        <ele>957.4</ele>
        <time>2021-10-15T10:19:40Z</time>
      </trkpt>
      <trkpt lat="40.5593060" lon="-5.7391760">
        <ele>957.4</ele>
        <time>2021-10-15T10:19:42Z</time>
      </trkpt>
      <trkpt lat="40.5592240" lon="-5.7393350">
        <ele>957.6</ele>
        <time>2021-10-15T10:19:46Z</time>
      </trkpt>
      <trkpt lat="40.5591030" lon="-5.7395610">
        <ele>958.0</ele>
        <time>2021-10-15T10:19:52Z</time>
      </trkpt>
      <trkpt lat="40.5590120" lon="-5.7397430">
        <ele>958.4</ele>
        <time>2021-10-15T10:19:57Z</time>
      </trkpt>
      <trkpt lat="40.5589100" lon="-5.7399460">
        <ele>958.6</ele>
        <time>2021-10-15T10:20:03Z</time>
      </trkpt>
      <trkpt lat="40.5588780" lon="-5.7400080">
        <ele>958.8</ele>
        <time>2021-10-15T10:20:05Z</time>
      </trkpt>
      <trkpt lat="40.5588120" lon="-5.7401400">
        <ele>959.4</ele>
        <time>2021-10-15T10:20:09Z</time>
      </trkpt>
      <trkpt lat="40.5587360" lon="-5.7402760">
        <ele>959.6</ele>
        <time>2021-10-15T10:20:13Z</time>
      </trkpt>
      <trkpt lat="40.5587170" lon="-5.7403110">
        <ele>959.8</ele>
        <time>2021-10-15T10:20:14Z</time>
      </trkpt>
      <trkpt lat="40.5586130" lon="-5.7405180">
        <ele>960.4</ele>
        <time>2021-10-15T10:20:20Z</time>
      </trkpt>
      <trkpt lat="40.5585800" lon="-5.7405850">
        <ele>960.4</ele>
        <time>2021-10-15T10:20:22Z</time>
      </trkpt>
      <trkpt lat="40.5585090" lon="-5.7407180">
        <ele>960.8</ele>
        <time>2021-10-15T10:20:26Z</time>
      </trkpt>
      <trkpt lat="40.5583840" lon="-5.7409660">
        <ele>961.4</ele>
        <time>2021-10-15T10:20:33Z</time>
      </trkpt>
      <trkpt lat="40.5583170" lon="-5.7411030">
        <ele>961.8</ele>
        <time>2021-10-15T10:20:37Z</time>
      </trkpt>
      <trkpt lat="40.5583000" lon="-5.7411370">
        <ele>961.8</ele>
        <time>2021-10-15T10:20:38Z</time>
      </trkpt>
      <trkpt lat="40.5582660" lon="-5.7412030">
        <ele>962.0</ele>
        <time>2021-10-15T10:20:40Z</time>
      </trkpt>
      <trkpt lat="40.5582500" lon="-5.7412360">
        <ele>962.0</ele>
        <time>2021-10-15T10:20:41Z</time>
      </trkpt>
      <trkpt lat="40.5582200" lon="-5.7413020">
        <ele>962.0</ele>
        <time>2021-10-15T10:20:43Z</time>
      </trkpt>
      <trkpt lat="40.5581200" lon="-5.7415120">
        <ele>962.4</ele>
        <time>2021-10-15T10:20:49Z</time>
      </trkpt>
      <trkpt lat="40.5580650" lon="-5.7416170">
        <ele>962.6</ele>
        <time>2021-10-15T10:20:52Z</time>
      </trkpt>
      <trkpt lat="40.5579810" lon="-5.7417970">
        <ele>962.8</ele>
        <time>2021-10-15T10:20:57Z</time>
      </trkpt>
      <trkpt lat="40.5579100" lon="-5.7419400">
        <ele>963.0</ele>
        <time>2021-10-15T10:21:01Z</time>
      </trkpt>
      <trkpt lat="40.5578430" lon="-5.7420820">
        <ele>963.2</ele>
        <time>2021-10-15T10:21:05Z</time>
      </trkpt>
      <trkpt lat="40.5577980" lon="-5.7421790">
        <ele>963.4</ele>
        <time>2021-10-15T10:21:08Z</time>
      </trkpt>
      <trkpt lat="40.5577210" lon="-5.7423340">
        <ele>963.6</ele>
        <time>2021-10-15T10:21:12Z</time>
      </trkpt>
      <trkpt lat="40.5577030" lon="-5.7423720">
        <ele>963.8</ele>
        <time>2021-10-15T10:21:13Z</time>
      </trkpt>
      <trkpt lat="40.5576700" lon="-5.7424450">
        <ele>964.0</ele>
        <time>2021-10-15T10:21:15Z</time>
      </trkpt>
      <trkpt lat="40.5575940" lon="-5.7425820">
        <ele>964.2</ele>
        <time>2021-10-15T10:21:19Z</time>
      </trkpt>
      <trkpt lat="40.5574710" lon="-5.7427850">
        <ele>964.4</ele>
        <time>2021-10-15T10:21:25Z</time>
      </trkpt>
      <trkpt lat="40.5574480" lon="-5.7428160">
        <ele>964.4</ele>
        <time>2021-10-15T10:21:26Z</time>
      </trkpt>
      <trkpt lat="40.5573110" lon="-5.7430070">
        <ele>964.6</ele>
        <time>2021-10-15T10:21:32Z</time>
      </trkpt>
      <trkpt lat="40.5573000" lon="-5.7430880">
        <ele>964.6</ele>
        <time>2021-10-15T10:21:34Z</time>
      </trkpt>
      <trkpt lat="40.5573240" lon="-5.7432970">
        <ele>964.6</ele>
        <time>2021-10-15T10:21:39Z</time>
      </trkpt>
      <trkpt lat="40.5572170" lon="-5.7434300">
        <ele>964.6</ele>
        <time>2021-10-15T10:21:43Z</time>
      </trkpt>
      <trkpt lat="40.5570630" lon="-5.7435620">
        <ele>964.8</ele>
        <time>2021-10-15T10:21:48Z</time>
      </trkpt>
      <trkpt lat="40.5570110" lon="-5.7436070">
        <ele>964.8</ele>
        <time>2021-10-15T10:21:51Z</time>
      </trkpt>
      <trkpt lat="40.5569150" lon="-5.7436860">
        <ele>965.0</ele>
        <time>2021-10-15T10:21:54Z</time>
      </trkpt>
      <trkpt lat="40.5567670" lon="-5.7438240">
        <ele>965.6</ele>
        <time>2021-10-15T10:21:59Z</time>
      </trkpt>
      <trkpt lat="40.5565070" lon="-5.7440480">
        <ele>966.2</ele>
        <time>2021-10-15T10:22:07Z</time>
      </trkpt>
      <trkpt lat="40.5564740" lon="-5.7440780">
        <ele>966.2</ele>
        <time>2021-10-15T10:22:08Z</time>
      </trkpt>
      <trkpt lat="40.5561700" lon="-5.7443630">
        <ele>966.0</ele>
        <time>2021-10-15T10:22:17Z</time>
      </trkpt>
      <trkpt lat="40.5559460" lon="-5.7446050">
        <ele>966.0</ele>
        <time>2021-10-15T10:22:24Z</time>
      </trkpt>
      <trkpt lat="40.5555880" lon="-5.7449750">
        <ele>966.2</ele>
        <time>2021-10-15T10:22:35Z</time>
      </trkpt>
      <trkpt lat="40.5555550" lon="-5.7450080">
        <ele>966.2</ele>
        <time>2021-10-15T10:22:36Z</time>
      </trkpt>
      <trkpt lat="40.5554600" lon="-5.7451070">
        <ele>966.2</ele>
        <time>2021-10-15T10:22:39Z</time>
      </trkpt>
      <trkpt lat="40.5552650" lon="-5.7453000">
        <ele>966.4</ele>
        <time>2021-10-15T10:22:45Z</time>
      </trkpt>
      <trkpt lat="40.5552340" lon="-5.7453330">
        <ele>966.4</ele>
        <time>2021-10-15T10:22:46Z</time>
      </trkpt>
      <trkpt lat="40.5549840" lon="-5.7455850">
        <ele>966.6</ele>
        <time>2021-10-15T10:22:54Z</time>
      </trkpt>
      <trkpt lat="40.5549250" lon="-5.7456460">
        <ele>966.8</ele>
        <time>2021-10-15T10:22:56Z</time>
      </trkpt>
      <trkpt lat="40.5548030" lon="-5.7457640">
        <ele>967.2</ele>
        <time>2021-10-15T10:23:00Z</time>
      </trkpt>
      <trkpt lat="40.5546500" lon="-5.7459150">
        <ele>967.4</ele>
        <time>2021-10-15T10:23:05Z</time>
      </trkpt>
      <trkpt lat="40.5543780" lon="-5.7461590">
        <ele>967.6</ele>
        <time>2021-10-15T10:23:14Z</time>
      </trkpt>
      <trkpt lat="40.5541150" lon="-5.7463810">
        <ele>968.2</ele>
        <time>2021-10-15T10:23:23Z</time>
      </trkpt>
      <trkpt lat="40.5538350" lon="-5.7466030">
        <ele>968.8</ele>
        <time>2021-10-15T10:23:33Z</time>
      </trkpt>
      <trkpt lat="40.5537570" lon="-5.7466620">
        <ele>969.2</ele>
        <time>2021-10-15T10:23:36Z</time>
      </trkpt>
      <trkpt lat="40.5536330" lon="-5.7467550">
        <ele>969.6</ele>
        <time>2021-10-15T10:23:41Z</time>
      </trkpt>
      <trkpt lat="40.5534870" lon="-5.7468660">
        <ele>970.2</ele>
        <time>2021-10-15T10:23:47Z</time>
      </trkpt>
      <trkpt lat="40.5534410" lon="-5.7469020">
        <ele>970.4</ele>
        <time>2021-10-15T10:23:49Z</time>
      </trkpt>
      <trkpt lat="40.5532230" lon="-5.7470840">
        <ele>971.4</ele>
        <time>2021-10-15T10:23:58Z</time>
      </trkpt>
      <trkpt lat="40.5532000" lon="-5.7471010">
        <ele>971.4</ele>
        <time>2021-10-15T10:23:59Z</time>
      </trkpt>
      <trkpt lat="40.5529920" lon="-5.7472350">
        <ele>971.8</ele>
        <time>2021-10-15T10:24:09Z</time>
      </trkpt>
      <trkpt lat="40.5529230" lon="-5.7472820">
        <ele>972.6</ele>
        <time>2021-10-15T10:24:13Z</time>
      </trkpt>
      <trkpt lat="40.5528690" lon="-5.7472980">
        <ele>973.2</ele>
        <time>2021-10-15T10:24:16Z</time>
      </trkpt>
      <trkpt lat="40.5527950" lon="-5.7473240">
        <ele>973.6</ele>
        <time>2021-10-15T10:24:20Z</time>
      </trkpt>
      <trkpt lat="40.5527090" lon="-5.7473520">
        <ele>974.2</ele>
        <time>2021-10-15T10:24:25Z</time>
      </trkpt>
      <trkpt lat="40.5526700" lon="-5.7473580">
        <ele>974.6</ele>
        <time>2021-10-15T10:24:27Z</time>
      </trkpt>
      <trkpt lat="40.5525640" lon="-5.7473970">
        <ele>975.6</ele>
        <time>2021-10-15T10:24:33Z</time>
      </trkpt>
      <trkpt lat="40.5525270" lon="-5.7474130">
        <ele>975.8</ele>
        <time>2021-10-15T10:24:35Z</time>
      </trkpt>
      <trkpt lat="40.5525080" lon="-5.7474200">
        <ele>975.8</ele>
        <time>2021-10-15T10:24:36Z</time>
      </trkpt>
      <trkpt lat="40.5524070" lon="-5.7474530">
        <ele>976.8</ele>
        <time>2021-10-15T10:24:42Z</time>
      </trkpt>
      <trkpt lat="40.5523890" lon="-5.7474600">
        <ele>976.8</ele>
        <time>2021-10-15T10:24:43Z</time>
      </trkpt>
      <trkpt lat="40.5523580" lon="-5.7474720">
        <ele>977.0</ele>
        <time>2021-10-15T10:24:45Z</time>
      </trkpt>
      <trkpt lat="40.5522960" lon="-5.7475040">
        <ele>977.8</ele>
        <time>2021-10-15T10:24:49Z</time>
      </trkpt>
      <trkpt lat="40.5522790" lon="-5.7475120">
        <ele>977.8</ele>
        <time>2021-10-15T10:24:50Z</time>
      </trkpt>
      <trkpt lat="40.5521860" lon="-5.7475610">
        <ele>978.6</ele>
        <time>2021-10-15T10:24:56Z</time>
      </trkpt>
      <trkpt lat="40.5521680" lon="-5.7475650">
        <ele>978.8</ele>
        <time>2021-10-15T10:24:57Z</time>
      </trkpt>
      <trkpt lat="40.5520860" lon="-5.7475900">
        <ele>980.0</ele>
        <time>2021-10-15T10:25:02Z</time>
      </trkpt>
      <trkpt lat="40.5520190" lon="-5.7476120">
        <ele>980.8</ele>
        <time>2021-10-15T10:25:06Z</time>
      </trkpt>
      <trkpt lat="40.5519860" lon="-5.7476270">
        <ele>981.0</ele>
        <time>2021-10-15T10:25:08Z</time>
      </trkpt>
      <trkpt lat="40.5519570" lon="-5.7476400">
        <ele>981.4</ele>
        <time>2021-10-15T10:25:10Z</time>
      </trkpt>
      <trkpt lat="40.5518980" lon="-5.7476770">
        <ele>982.0</ele>
        <time>2021-10-15T10:25:14Z</time>
      </trkpt>
      <trkpt lat="40.5518450" lon="-5.7477070">
        <ele>982.8</ele>
        <time>2021-10-15T10:25:17Z</time>
      </trkpt>
      <trkpt lat="40.5518180" lon="-5.7477280">
        <ele>983.2</ele>
        <time>2021-10-15T10:25:19Z</time>
      </trkpt>
      <trkpt lat="40.5517480" lon="-5.7477770">
        <ele>984.4</ele>
        <time>2021-10-15T10:25:24Z</time>
      </trkpt>
      <trkpt lat="40.5517020" lon="-5.7478090">
        <ele>984.6</ele>
        <time>2021-10-15T10:25:27Z</time>
      </trkpt>
      <trkpt lat="40.5515810" lon="-5.7478790">
        <ele>985.2</ele>
        <time>2021-10-15T10:25:34Z</time>
      </trkpt>
      <trkpt lat="40.5515620" lon="-5.7478850">
        <ele>985.6</ele>
        <time>2021-10-15T10:25:35Z</time>
      </trkpt>
      <trkpt lat="40.5515080" lon="-5.7478970">
        <ele>985.8</ele>
        <time>2021-10-15T10:25:38Z</time>
      </trkpt>
      <trkpt lat="40.5514890" lon="-5.7479000">
        <ele>986.0</ele>
        <time>2021-10-15T10:25:39Z</time>
      </trkpt>
      <trkpt lat="40.5514680" lon="-5.7478980">
        <ele>986.2</ele>
        <time>2021-10-15T10:25:40Z</time>
      </trkpt>
      <trkpt lat="40.5514240" lon="-5.7478870">
        <ele>986.4</ele>
        <time>2021-10-15T10:25:42Z</time>
      </trkpt>
      <trkpt lat="40.5513800" lon="-5.7478780">
        <ele>986.6</ele>
        <time>2021-10-15T10:25:44Z</time>
      </trkpt>
      <trkpt lat="40.5513570" lon="-5.7478760">
        <ele>986.8</ele>
        <time>2021-10-15T10:25:45Z</time>
      </trkpt>
      <trkpt lat="40.5513370" lon="-5.7478770">
        <ele>986.8</ele>
        <time>2021-10-15T10:25:46Z</time>
      </trkpt>
      <trkpt lat="40.5511880" lon="-5.7478720">
        <ele>987.2</ele>
        <time>2021-10-15T10:25:52Z</time>
      </trkpt>
      <trkpt lat="40.5510910" lon="-5.7478710">
        <ele>987.4</ele>
        <time>2021-10-15T10:25:56Z</time>
      </trkpt>
      <trkpt lat="40.5509890" lon="-5.7478720">
        <ele>987.6</ele>
        <time>2021-10-15T10:26:00Z</time>
      </trkpt>
      <trkpt lat="40.5507920" lon="-5.7478790">
        <ele>988.0</ele>
        <time>2021-10-15T10:26:08Z</time>
      </trkpt>
      <trkpt lat="40.5506270" lon="-5.7478780">
        <ele>988.6</ele>
        <time>2021-10-15T10:26:15Z</time>
      </trkpt>
      <trkpt lat="40.5505820" lon="-5.7478790">
        <ele>988.8</ele>
        <time>2021-10-15T10:26:17Z</time>
      </trkpt>
      <trkpt lat="40.5505600" lon="-5.7478810">
        <ele>988.8</ele>
        <time>2021-10-15T10:26:18Z</time>
      </trkpt>
      <trkpt lat="40.5505160" lon="-5.7478920">
        <ele>989.0</ele>
        <time>2021-10-15T10:26:20Z</time>
      </trkpt>
      <trkpt lat="40.5503900" lon="-5.7479240">
        <ele>989.4</ele>
        <time>2021-10-15T10:26:26Z</time>
      </trkpt>
      <trkpt lat="40.5503690" lon="-5.7479330">
        <ele>989.4</ele>
        <time>2021-10-15T10:26:27Z</time>
      </trkpt>
      <trkpt lat="40.5502400" lon="-5.7480010">
        <ele>989.8</ele>
        <time>2021-10-15T10:26:33Z</time>
      </trkpt>
      <trkpt lat="40.5502160" lon="-5.7480150">
        <ele>990.0</ele>
        <time>2021-10-15T10:26:34Z</time>
      </trkpt>
      <trkpt lat="40.5500830" lon="-5.7480970">
        <ele>990.2</ele>
        <time>2021-10-15T10:26:39Z</time>
      </trkpt>
      <trkpt lat="40.5500080" lon="-5.7481440">
        <ele>990.4</ele>
        <time>2021-10-15T10:26:42Z</time>
      </trkpt>
      <trkpt lat="40.5498390" lon="-5.7482090">
        <ele>990.8</ele>
        <time>2021-10-15T10:26:48Z</time>
      </trkpt>
      <trkpt lat="40.5497630" lon="-5.7482380">
        <ele>991.0</ele>
        <time>2021-10-15T10:26:51Z</time>
      </trkpt>
      <trkpt lat="40.5497150" lon="-5.7482560">
        <ele>991.2</ele>
        <time>2021-10-15T10:26:53Z</time>
      </trkpt>
      <trkpt lat="40.5496390" lon="-5.7482900">
        <ele>991.4</ele>
        <time>2021-10-15T10:26:56Z</time>
      </trkpt>
      <trkpt lat="40.5495900" lon="-5.7483130">
        <ele>991.4</ele>
        <time>2021-10-15T10:26:58Z</time>
      </trkpt>
      <trkpt lat="40.5495660" lon="-5.7483250">
        <ele>991.6</ele>
        <time>2021-10-15T10:26:59Z</time>
      </trkpt>
      <trkpt lat="40.5494530" lon="-5.7483860">
        <ele>992.0</ele>
        <time>2021-10-15T10:27:04Z</time>
      </trkpt>
      <trkpt lat="40.5493310" lon="-5.7484390">
        <ele>992.4</ele>
        <time>2021-10-15T10:27:09Z</time>
      </trkpt>
      <trkpt lat="40.5491430" lon="-5.7485060">
        <ele>992.6</ele>
        <time>2021-10-15T10:27:16Z</time>
      </trkpt>
      <trkpt lat="40.5489750" lon="-5.7486150">
        <ele>992.0</ele>
        <time>2021-10-15T10:27:21Z</time>
      </trkpt>
      <trkpt lat="40.5488220" lon="-5.7487240">
        <ele>991.8</ele>
        <time>2021-10-15T10:27:25Z</time>
      </trkpt>
      <trkpt lat="40.5486250" lon="-5.7488640">
        <ele>991.0</ele>
        <time>2021-10-15T10:27:30Z</time>
      </trkpt>
      <trkpt lat="40.5485840" lon="-5.7488920">
        <ele>990.8</ele>
        <time>2021-10-15T10:27:31Z</time>
      </trkpt>
      <trkpt lat="40.5483610" lon="-5.7490240">
        <ele>990.4</ele>
        <time>2021-10-15T10:27:36Z</time>
      </trkpt>
      <trkpt lat="40.5483150" lon="-5.7490490">
        <ele>990.2</ele>
        <time>2021-10-15T10:27:37Z</time>
      </trkpt>
      <trkpt lat="40.5481610" lon="-5.7491210">
        <ele>990.0</ele>
        <time>2021-10-15T10:27:40Z</time>
      </trkpt>
      <trkpt lat="40.5480050" lon="-5.7492070">
        <ele>989.8</ele>
        <time>2021-10-15T10:27:43Z</time>
      </trkpt>
      <trkpt lat="40.5477880" lon="-5.7493180">
        <ele>989.2</ele>
        <time>2021-10-15T10:27:47Z</time>
      </trkpt>
      <trkpt lat="40.5476820" lon="-5.7493660">
        <ele>989.0</ele>
        <time>2021-10-15T10:27:49Z</time>
      </trkpt>
      <trkpt lat="40.5475290" lon="-5.7494320">
        <ele>988.2</ele>
        <time>2021-10-15T10:27:52Z</time>
      </trkpt>
      <trkpt lat="40.5472260" lon="-5.7495340">
        <ele>987.8</ele>
        <time>2021-10-15T10:27:58Z</time>
      </trkpt>
      <trkpt lat="40.5471750" lon="-5.7495490">
        <ele>987.6</ele>
        <time>2021-10-15T10:27:59Z</time>
      </trkpt>
      <trkpt lat="40.5468470" lon="-5.7496270">
        <ele>986.4</ele>
        <time>2021-10-15T10:28:05Z</time>
      </trkpt>
      <trkpt lat="40.5462820" lon="-5.7497250">
        <ele>985.6</ele>
        <time>2021-10-15T10:28:15Z</time>
      </trkpt>
      <trkpt lat="40.5462260" lon="-5.7497370">
        <ele>985.4</ele>
        <time>2021-10-15T10:28:16Z</time>
      </trkpt>
      <trkpt lat="40.5461240" lon="-5.7497690">
        <ele>985.2</ele>
        <time>2021-10-15T10:28:18Z</time>
      </trkpt>
      <trkpt lat="40.5460200" lon="-5.7497900">
        <ele>985.0</ele>
        <time>2021-10-15T10:28:20Z</time>
      </trkpt>
      <trkpt lat="40.5457510" lon="-5.7499060">
        <ele>984.8</ele>
        <time>2021-10-15T10:28:26Z</time>
      </trkpt>
      <trkpt lat="40.5457090" lon="-5.7499330">
        <ele>984.8</ele>
        <time>2021-10-15T10:28:27Z</time>
      </trkpt>
      <trkpt lat="40.5455870" lon="-5.7499930">
        <ele>984.6</ele>
        <time>2021-10-15T10:28:30Z</time>
      </trkpt>
      <trkpt lat="40.5454970" lon="-5.7500340">
        <ele>984.4</ele>
        <time>2021-10-15T10:28:32Z</time>
      </trkpt>
      <trkpt lat="40.5454530" lon="-5.7500590">
        <ele>984.2</ele>
        <time>2021-10-15T10:28:33Z</time>
      </trkpt>
      <trkpt lat="40.5452960" lon="-5.7501650">
        <ele>984.0</ele>
        <time>2021-10-15T10:28:37Z</time>
      </trkpt>
      <trkpt lat="40.5451980" lon="-5.7502650">
        <ele>984.0</ele>
        <time>2021-10-15T10:28:40Z</time>
      </trkpt>
      <trkpt lat="40.5450170" lon="-5.7505430">
        <ele>984.0</ele>
        <time>2021-10-15T10:28:46Z</time>
      </trkpt>
      <trkpt lat="40.5449900" lon="-5.7506000">
        <ele>983.8</ele>
        <time>2021-10-15T10:28:47Z</time>
      </trkpt>
      <trkpt lat="40.5449140" lon="-5.7507870">
        <ele>983.4</ele>
        <time>2021-10-15T10:28:50Z</time>
      </trkpt>
      <trkpt lat="40.5448910" lon="-5.7508530">
        <ele>983.2</ele>
        <time>2021-10-15T10:28:51Z</time>
      </trkpt>
      <trkpt lat="40.5448280" lon="-5.7510600">
        <ele>982.6</ele>
        <time>2021-10-15T10:28:54Z</time>
      </trkpt>
      <trkpt lat="40.5448090" lon="-5.7511300">
        <ele>982.4</ele>
        <time>2021-10-15T10:28:55Z</time>
      </trkpt>
      <trkpt lat="40.5447920" lon="-5.7512010">
        <ele>982.2</ele>
        <time>2021-10-15T10:28:56Z</time>
      </trkpt>
      <trkpt lat="40.5446970" lon="-5.7514870">
        <ele>981.6</ele>
        <time>2021-10-15T10:29:00Z</time>
      </trkpt>
      <trkpt lat="40.5446170" lon="-5.7516080">
        <ele>981.0</ele>
        <time>2021-10-15T10:29:02Z</time>
      </trkpt>
      <trkpt lat="40.5443780" lon="-5.7518360">
        <ele>979.8</ele>
        <time>2021-10-15T10:29:07Z</time>
      </trkpt>
      <trkpt lat="40.5443220" lon="-5.7518860">
        <ele>979.6</ele>
        <time>2021-10-15T10:29:08Z</time>
      </trkpt>
      <trkpt lat="40.5441990" lon="-5.7519990">
        <ele>979.2</ele>
        <time>2021-10-15T10:29:11Z</time>
      </trkpt>
      <trkpt lat="40.5441220" lon="-5.7521020">
        <ele>978.8</ele>
        <time>2021-10-15T10:29:13Z</time>
      </trkpt>
      <trkpt lat="40.5440980" lon="-5.7521600">
        <ele>978.6</ele>
        <time>2021-10-15T10:29:14Z</time>
      </trkpt>
      <trkpt lat="40.5440810" lon="-5.7522220">
        <ele>978.6</ele>
        <time>2021-10-15T10:29:15Z</time>
      </trkpt>
      <trkpt lat="40.5440620" lon="-5.7523400">
        <ele>978.6</ele>
        <time>2021-10-15T10:29:17Z</time>
      </trkpt>
      <trkpt lat="40.5440540" lon="-5.7524490">
        <ele>978.4</ele>
        <time>2021-10-15T10:29:19Z</time>
      </trkpt>
      <trkpt lat="40.5439510" lon="-5.7527980">
        <ele>978.2</ele>
        <time>2021-10-15T10:29:26Z</time>
      </trkpt>
      <trkpt lat="40.5438230" lon="-5.7530760">
        <ele>977.6</ele>
        <time>2021-10-15T10:29:31Z</time>
      </trkpt>
      <trkpt lat="40.5437410" lon="-5.7532570">
        <ele>977.2</ele>
        <time>2021-10-15T10:29:34Z</time>
      </trkpt>
      <trkpt lat="40.5435550" lon="-5.7535740">
        <ele>976.8</ele>
        <time>2021-10-15T10:29:39Z</time>
      </trkpt>
      <trkpt lat="40.5434960" lon="-5.7536370">
        <ele>976.6</ele>
        <time>2021-10-15T10:29:40Z</time>
      </trkpt>
      <trkpt lat="40.5434410" lon="-5.7536810">
        <ele>976.4</ele>
        <time>2021-10-15T10:29:41Z</time>
      </trkpt>
      <trkpt lat="40.5433230" lon="-5.7537620">
        <ele>975.2</ele>
        <time>2021-10-15T10:29:43Z</time>
      </trkpt>
      <trkpt lat="40.5430880" lon="-5.7539220">
        <ele>974.4</ele>
        <time>2021-10-15T10:29:47Z</time>
      </trkpt>
      <trkpt lat="40.5430320" lon="-5.7539610">
        <ele>974.2</ele>
        <time>2021-10-15T10:29:48Z</time>
      </trkpt>
      <trkpt lat="40.5427710" lon="-5.7541180">
        <ele>973.2</ele>
        <time>2021-10-15T10:29:53Z</time>
      </trkpt>
      <trkpt lat="40.5424800" lon="-5.7543240">
        <ele>972.8</ele>
        <time>2021-10-15T10:30:00Z</time>
      </trkpt>
      <trkpt lat="40.5422500" lon="-5.7545010">
        <ele>972.8</ele>
        <time>2021-10-15T10:30:06Z</time>
      </trkpt>
      <trkpt lat="40.5422160" lon="-5.7545210">
        <ele>972.8</ele>
        <time>2021-10-15T10:30:07Z</time>
      </trkpt>
      <trkpt lat="40.5421270" lon="-5.7545750">
        <ele>973.0</ele>
        <time>2021-10-15T10:30:09Z</time>
      </trkpt>
      <trkpt lat="40.5419870" lon="-5.7546590">
        <ele>973.6</ele>
        <time>2021-10-15T10:30:13Z</time>
      </trkpt>
      <trkpt lat="40.5418640" lon="-5.7547170">
        <ele>974.2</ele>
        <time>2021-10-15T10:30:17Z</time>
      </trkpt>
      <trkpt lat="40.5418030" lon="-5.7547410">
        <ele>974.6</ele>
        <time>2021-10-15T10:30:19Z</time>
      </trkpt>
      <trkpt lat="40.5417170" lon="-5.7547700">
        <ele>975.2</ele>
        <time>2021-10-15T10:30:22Z</time>
      </trkpt>
      <trkpt lat="40.5416330" lon="-5.7548130">
        <ele>975.8</ele>
        <time>2021-10-15T10:30:25Z</time>
      </trkpt>
      <trkpt lat="40.5415080" lon="-5.7549140">
        <ele>976.0</ele>
        <time>2021-10-15T10:30:29Z</time>
      </trkpt>
      <trkpt lat="40.5414700" lon="-5.7549420">
        <ele>975.8</ele>
        <time>2021-10-15T10:30:30Z</time>
      </trkpt>
      <trkpt lat="40.5413090" lon="-5.7550460">
        <ele>975.4</ele>
        <time>2021-10-15T10:30:34Z</time>
      </trkpt>
      <trkpt lat="40.5411290" lon="-5.7551550">
        <ele>975.0</ele>
        <time>2021-10-15T10:30:38Z</time>
      </trkpt>
      <trkpt lat="40.5410500" lon="-5.7552050">
        <ele>975.0</ele>
        <time>2021-10-15T10:30:40Z</time>
      </trkpt>
      <trkpt lat="40.5407820" lon="-5.7553620">
        <ele>975.2</ele>
        <time>2021-10-15T10:30:47Z</time>
      </trkpt>
      <trkpt lat="40.5405250" lon="-5.7555110">
        <ele>975.6</ele>
        <time>2021-10-15T10:30:55Z</time>
      </trkpt>
      <trkpt lat="40.5403470" lon="-5.7556130">
        <ele>976.2</ele>
        <time>2021-10-15T10:31:01Z</time>
      </trkpt>
      <trkpt lat="40.5402740" lon="-5.7556540">
        <ele>976.4</ele>
        <time>2021-10-15T10:31:04Z</time>
      </trkpt>
      <trkpt lat="40.5401880" lon="-5.7556990">
        <ele>977.4</ele>
        <time>2021-10-15T10:31:08Z</time>
      </trkpt>
      <trkpt lat="40.5401210" lon="-5.7557400">
        <ele>977.8</ele>
        <time>2021-10-15T10:31:11Z</time>
      </trkpt>
      <trkpt lat="40.5400040" lon="-5.7558150">
        <ele>978.4</ele>
        <time>2021-10-15T10:31:17Z</time>
      </trkpt>
      <trkpt lat="40.5399480" lon="-5.7558550">
        <ele>978.8</ele>
        <time>2021-10-15T10:31:20Z</time>
      </trkpt>
      <trkpt lat="40.5398170" lon="-5.7559350">
        <ele>979.2</ele>
        <time>2021-10-15T10:31:26Z</time>
      </trkpt>
      <trkpt lat="40.5397930" lon="-5.7559540">
        <ele>979.4</ele>
        <time>2021-10-15T10:31:27Z</time>
      </trkpt>
      <trkpt lat="40.5396750" lon="-5.7560860">
        <ele>980.2</ele>
        <time>2021-10-15T10:31:34Z</time>
      </trkpt>
      <trkpt lat="40.5396310" lon="-5.7561190">
        <ele>980.4</ele>
        <time>2021-10-15T10:31:37Z</time>
      </trkpt>
      <trkpt lat="40.5395610" lon="-5.7561790">
        <ele>981.0</ele>
        <time>2021-10-15T10:31:41Z</time>
      </trkpt>
      <trkpt lat="40.5394780" lon="-5.7562600">
        <ele>981.4</ele>
        <time>2021-10-15T10:31:46Z</time>
      </trkpt>
      <trkpt lat="40.5394250" lon="-5.7563030">
        <ele>981.8</ele>
        <time>2021-10-15T10:31:49Z</time>
      </trkpt>
      <trkpt lat="40.5392790" lon="-5.7563910">
        <ele>982.4</ele>
        <time>2021-10-15T10:31:56Z</time>
      </trkpt>
      <trkpt lat="40.5392550" lon="-5.7564010">
        <ele>982.4</ele>
        <time>2021-10-15T10:31:57Z</time>
      </trkpt>
      <trkpt lat="40.5391000" lon="-5.7564930">
        <ele>982.8</ele>
        <time>2021-10-15T10:32:05Z</time>
      </trkpt>
      <trkpt lat="40.5389960" lon="-5.7565680">
        <ele>983.4</ele>
        <time>2021-10-15T10:32:11Z</time>
      </trkpt>
      <trkpt lat="40.5389420" lon="-5.7566140">
        <ele>983.4</ele>
        <time>2021-10-15T10:32:14Z</time>
      </trkpt>
      <trkpt lat="40.5389250" lon="-5.7566270">
        <ele>983.4</ele>
        <time>2021-10-15T10:32:15Z</time>
      </trkpt>
      <trkpt lat="40.5388590" lon="-5.7566890">
        <ele>984.0</ele>
        <time>2021-10-15T10:32:19Z</time>
      </trkpt>
      <trkpt lat="40.5388000" lon="-5.7567520">
        <ele>984.2</ele>
        <time>2021-10-15T10:32:22Z</time>
      </trkpt>
      <trkpt lat="40.5386680" lon="-5.7568790">
        <ele>984.6</ele>
        <time>2021-10-15T10:32:29Z</time>
      </trkpt>
      <trkpt lat="40.5386130" lon="-5.7569320">
        <ele>984.8</ele>
        <time>2021-10-15T10:32:32Z</time>
      </trkpt>
      <trkpt lat="40.5385360" lon="-5.7570040">
        <ele>985.2</ele>
        <time>2021-10-15T10:32:36Z</time>
      </trkpt>
      <trkpt lat="40.5384660" lon="-5.7570760">
        <ele>985.6</ele>
        <time>2021-10-15T10:32:40Z</time>
      </trkpt>
      <trkpt lat="40.5384480" lon="-5.7570950">
        <ele>985.6</ele>
        <time>2021-10-15T10:32:41Z</time>
      </trkpt>
      <trkpt lat="40.5384100" lon="-5.7571320">
        <ele>985.8</ele>
        <time>2021-10-15T10:32:43Z</time>
      </trkpt>
      <trkpt lat="40.5382200" lon="-5.7573110">
        <ele>986.6</ele>
        <time>2021-10-15T10:32:53Z</time>
      </trkpt>
      <trkpt lat="40.5381650" lon="-5.7573650">
        <ele>986.6</ele>
        <time>2021-10-15T10:32:56Z</time>
      </trkpt>
      <trkpt lat="40.5381090" lon="-5.7574220">
        <ele>986.6</ele>
        <time>2021-10-15T10:32:59Z</time>
      </trkpt>
      <trkpt lat="40.5380670" lon="-5.7574600">
        <ele>986.8</ele>
        <time>2021-10-15T10:33:01Z</time>
      </trkpt>
      <trkpt lat="40.5379730" lon="-5.7575580">
        <ele>987.0</ele>
        <time>2021-10-15T10:33:06Z</time>
      </trkpt>
      <trkpt lat="40.5379310" lon="-5.7575910">
        <ele>987.4</ele>
        <time>2021-10-15T10:33:08Z</time>
      </trkpt>
      <trkpt lat="40.5378880" lon="-5.7576240">
        <ele>987.8</ele>
        <time>2021-10-15T10:33:10Z</time>
      </trkpt>
      <trkpt lat="40.5378240" lon="-5.7576630">
        <ele>988.0</ele>
        <time>2021-10-15T10:33:13Z</time>
      </trkpt>
      <trkpt lat="40.5377400" lon="-5.7577380">
        <ele>988.2</ele>
        <time>2021-10-15T10:33:17Z</time>
      </trkpt>
      <trkpt lat="40.5376350" lon="-5.7578530">
        <ele>988.6</ele>
        <time>2021-10-15T10:33:23Z</time>
      </trkpt>
      <trkpt lat="40.5375700" lon="-5.7579130">
        <ele>988.8</ele>
        <time>2021-10-15T10:33:26Z</time>
      </trkpt>
      <trkpt lat="40.5375510" lon="-5.7579360">
        <ele>988.8</ele>
        <time>2021-10-15T10:33:27Z</time>
      </trkpt>
      <trkpt lat="40.5374140" lon="-5.7580910">
        <ele>989.4</ele>
        <time>2021-10-15T10:33:34Z</time>
      </trkpt>
      <trkpt lat="40.5373550" lon="-5.7581470">
        <ele>989.6</ele>
        <time>2021-10-15T10:33:37Z</time>
      </trkpt>
      <trkpt lat="40.5373200" lon="-5.7581890">
        <ele>989.8</ele>
        <time>2021-10-15T10:33:39Z</time>
      </trkpt>
      <trkpt lat="40.5372410" lon="-5.7582760">
        <ele>990.0</ele>
        <time>2021-10-15T10:33:43Z</time>
      </trkpt>
      <trkpt lat="40.5371650" lon="-5.7583860">
        <ele>990.4</ele>
        <time>2021-10-15T10:33:47Z</time>
      </trkpt>
      <trkpt lat="40.5370720" lon="-5.7585030">
        <ele>990.4</ele>
        <time>2021-10-15T10:33:51Z</time>
      </trkpt>
      <trkpt lat="40.5370440" lon="-5.7585360">
        <ele>990.4</ele>
        <time>2021-10-15T10:33:52Z</time>
      </trkpt>
      <trkpt lat="40.5369870" lon="-5.7586090">
        <ele>990.2</ele>
        <time>2021-10-15T10:33:54Z</time>
      </trkpt>
      <trkpt lat="40.5368560" lon="-5.7587750">
        <ele>990.0</ele>
        <time>2021-10-15T10:33:58Z</time>
      </trkpt>
      <trkpt lat="40.5366880" lon="-5.7590220">
        <ele>989.0</ele>
        <time>2021-10-15T10:34:03Z</time>
      </trkpt>
      <trkpt lat="40.5366120" lon="-5.7591220">
        <ele>988.6</ele>
        <time>2021-10-15T10:34:05Z</time>
      </trkpt>
      <trkpt lat="40.5364880" lon="-5.7592680">
        <ele>987.8</ele>
        <time>2021-10-15T10:34:08Z</time>
      </trkpt>
      <trkpt lat="40.5364090" lon="-5.7593570">
        <ele>987.6</ele>
        <time>2021-10-15T10:34:10Z</time>
      </trkpt>
      <trkpt lat="40.5363590" lon="-5.7594030">
        <ele>987.4</ele>
        <time>2021-10-15T10:34:12Z</time>
      </trkpt>
      <trkpt lat="40.5363500" lon="-5.7594100">
        <ele>987.0</ele>
        <time>2021-10-15T10:34:15Z</time>
      </trkpt>
      <trkpt lat="40.5363040" lon="-5.7594880">
        <ele>985.2</ele>
        <time>2021-10-15T10:34:34Z</time>
      </trkpt>
      <trkpt lat="40.5362930" lon="-5.7595080">
        <ele>985.2</ele>
        <time>2021-10-15T10:34:35Z</time>
      </trkpt>
      <trkpt lat="40.5362800" lon="-5.7595280">
        <ele>985.0</ele>
        <time>2021-10-15T10:34:36Z</time>
      </trkpt>
      <trkpt lat="40.5361280" lon="-5.7596980">
        <ele>984.6</ele>
        <time>2021-10-15T10:34:42Z</time>
      </trkpt>
      <trkpt lat="40.5360570" lon="-5.7597680">
        <ele>984.4</ele>
        <time>2021-10-15T10:34:44Z</time>
      </trkpt>
      <trkpt lat="40.5359250" lon="-5.7598910">
        <ele>984.2</ele>
        <time>2021-10-15T10:34:47Z</time>
      </trkpt>
      <trkpt lat="40.5358170" lon="-5.7599760">
        <ele>983.8</ele>
        <time>2021-10-15T10:34:49Z</time>
      </trkpt>
      <trkpt lat="40.5356420" lon="-5.7600690">
        <ele>982.8</ele>
        <time>2021-10-15T10:34:52Z</time>
      </trkpt>
      <trkpt lat="40.5355240" lon="-5.7601350">
        <ele>982.4</ele>
        <time>2021-10-15T10:34:54Z</time>
      </trkpt>
      <trkpt lat="40.5354100" lon="-5.7602230">
        <ele>981.6</ele>
        <time>2021-10-15T10:34:56Z</time>
      </trkpt>
      <trkpt lat="40.5353040" lon="-5.7603080">
        <ele>981.2</ele>
        <time>2021-10-15T10:34:58Z</time>
      </trkpt>
      <trkpt lat="40.5351440" lon="-5.7604360">
        <ele>980.4</ele>
        <time>2021-10-15T10:35:01Z</time>
      </trkpt>
      <trkpt lat="40.5349980" lon="-5.7605750">
        <ele>980.0</ele>
        <time>2021-10-15T10:35:04Z</time>
      </trkpt>
      <trkpt lat="40.5349110" lon="-5.7606570">
        <ele>979.6</ele>
        <time>2021-10-15T10:35:06Z</time>
      </trkpt>
      <trkpt lat="40.5348620" lon="-5.7606950">
        <ele>979.4</ele>
        <time>2021-10-15T10:35:07Z</time>
      </trkpt>
      <trkpt lat="40.5348140" lon="-5.7607280">
        <ele>979.4</ele>
        <time>2021-10-15T10:35:08Z</time>
      </trkpt>
      <trkpt lat="40.5346600" lon="-5.7608040">
        <ele>978.6</ele>
        <time>2021-10-15T10:35:11Z</time>
      </trkpt>
      <trkpt lat="40.5345600" lon="-5.7608720">
        <ele>978.4</ele>
        <time>2021-10-15T10:35:13Z</time>
      </trkpt>
      <trkpt lat="40.5343540" lon="-5.7610010">
        <ele>977.2</ele>
        <time>2021-10-15T10:35:17Z</time>
      </trkpt>
      <trkpt lat="40.5342410" lon="-5.7610720">
        <ele>976.6</ele>
        <time>2021-10-15T10:35:19Z</time>
      </trkpt>
      <trkpt lat="40.5341860" lon="-5.7611170">
        <ele>976.4</ele>
        <time>2021-10-15T10:35:20Z</time>
      </trkpt>
      <trkpt lat="40.5341320" lon="-5.7611700">
        <ele>976.2</ele>
        <time>2021-10-15T10:35:21Z</time>
      </trkpt>
      <trkpt lat="40.5339590" lon="-5.7613350">
        <ele>975.6</ele>
        <time>2021-10-15T10:35:24Z</time>
      </trkpt>
      <trkpt lat="40.5337690" lon="-5.7615310">
        <ele>974.8</ele>
        <time>2021-10-15T10:35:27Z</time>
      </trkpt>
      <trkpt lat="40.5336690" lon="-5.7616580">
        <ele>974.0</ele>
        <time>2021-10-15T10:35:29Z</time>
      </trkpt>
      <trkpt lat="40.5336130" lon="-5.7617470">
        <ele>973.8</ele>
        <time>2021-10-15T10:35:30Z</time>
      </trkpt>
      <trkpt lat="40.5335730" lon="-5.7618220">
        <ele>973.6</ele>
        <time>2021-10-15T10:35:31Z</time>
      </trkpt>
      <trkpt lat="40.5334150" lon="-5.7621020">
        <ele>972.4</ele>
        <time>2021-10-15T10:35:35Z</time>
      </trkpt>
      <trkpt lat="40.5333250" lon="-5.7622220">
        <ele>971.8</ele>
        <time>2021-10-15T10:35:37Z</time>
      </trkpt>
      <trkpt lat="40.5332270" lon="-5.7623430">
        <ele>971.4</ele>
        <time>2021-10-15T10:35:39Z</time>
      </trkpt>
      <trkpt lat="40.5331720" lon="-5.7623960">
        <ele>971.2</ele>
        <time>2021-10-15T10:35:40Z</time>
      </trkpt>
      <trkpt lat="40.5330130" lon="-5.7625400">
        <ele>970.8</ele>
        <time>2021-10-15T10:35:43Z</time>
      </trkpt>
      <trkpt lat="40.5328890" lon="-5.7626430">
        <ele>970.2</ele>
        <time>2021-10-15T10:35:45Z</time>
      </trkpt>
      <trkpt lat="40.5326720" lon="-5.7628500">
        <ele>969.0</ele>
        <time>2021-10-15T10:35:49Z</time>
      </trkpt>
      <trkpt lat="40.5325150" lon="-5.7629910">
        <ele>968.2</ele>
        <time>2021-10-15T10:35:52Z</time>
      </trkpt>
      <trkpt lat="40.5323960" lon="-5.7630930">
        <ele>967.8</ele>
        <time>2021-10-15T10:35:54Z</time>
      </trkpt>
      <trkpt lat="40.5322250" lon="-5.7632120">
        <ele>966.4</ele>
        <time>2021-10-15T10:35:57Z</time>
      </trkpt>
      <trkpt lat="40.5320680" lon="-5.7633050">
        <ele>965.2</ele>
        <time>2021-10-15T10:35:59Z</time>
      </trkpt>
      <trkpt lat="40.5319270" lon="-5.7633850">
        <ele>964.2</ele>
        <time>2021-10-15T10:36:01Z</time>
      </trkpt>
      <trkpt lat="40.5317460" lon="-5.7634890">
        <ele>963.0</ele>
        <time>2021-10-15T10:36:03Z</time>
      </trkpt>
      <trkpt lat="40.5316620" lon="-5.7635360">
        <ele>962.2</ele>
        <time>2021-10-15T10:36:04Z</time>
      </trkpt>
      <trkpt lat="40.5315790" lon="-5.7635840">
        <ele>961.8</ele>
        <time>2021-10-15T10:36:05Z</time>
      </trkpt>
      <trkpt lat="40.5314320" lon="-5.7636730">
        <ele>960.6</ele>
        <time>2021-10-15T10:36:07Z</time>
      </trkpt>
      <trkpt lat="40.5312580" lon="-5.7637860">
        <ele>959.6</ele>
        <time>2021-10-15T10:36:09Z</time>
      </trkpt>
      <trkpt lat="40.5311120" lon="-5.7638700">
        <ele>958.2</ele>
        <time>2021-10-15T10:36:11Z</time>
      </trkpt>
      <trkpt lat="40.5308630" lon="-5.7640060">
        <ele>956.8</ele>
        <time>2021-10-15T10:36:14Z</time>
      </trkpt>
      <trkpt lat="40.5307230" lon="-5.7640650">
        <ele>956.2</ele>
        <time>2021-10-15T10:36:16Z</time>
      </trkpt>
      <trkpt lat="40.5305530" lon="-5.7641040">
        <ele>955.8</ele>
        <time>2021-10-15T10:36:18Z</time>
      </trkpt>
      <trkpt lat="40.5302010" lon="-5.7641480">
        <ele>954.8</ele>
        <time>2021-10-15T10:36:22Z</time>
      </trkpt>
      <trkpt lat="40.5300250" lon="-5.7641690">
        <ele>953.8</ele>
        <time>2021-10-15T10:36:24Z</time>
      </trkpt>
      <trkpt lat="40.5299280" lon="-5.7641810">
        <ele>953.6</ele>
        <time>2021-10-15T10:36:25Z</time>
      </trkpt>
      <trkpt lat="40.5298320" lon="-5.7641960">
        <ele>952.4</ele>
        <time>2021-10-15T10:36:26Z</time>
      </trkpt>
      <trkpt lat="40.5296210" lon="-5.7642320">
        <ele>951.2</ele>
        <time>2021-10-15T10:36:28Z</time>
      </trkpt>
      <trkpt lat="40.5294510" lon="-5.7642540">
        <ele>949.8</ele>
        <time>2021-10-15T10:36:30Z</time>
      </trkpt>
      <trkpt lat="40.5293590" lon="-5.7642690">
        <ele>949.4</ele>
        <time>2021-10-15T10:36:31Z</time>
      </trkpt>
      <trkpt lat="40.5291600" lon="-5.7642920">
        <ele>948.8</ele>
        <time>2021-10-15T10:36:33Z</time>
      </trkpt>
      <trkpt lat="40.5288510" lon="-5.7643300">
        <ele>947.6</ele>
        <time>2021-10-15T10:36:37Z</time>
      </trkpt>
      <trkpt lat="40.5287050" lon="-5.7643620">
        <ele>946.4</ele>
        <time>2021-10-15T10:36:40Z</time>
      </trkpt>
      <trkpt lat="40.5286520" lon="-5.7643840">
        <ele>946.2</ele>
        <time>2021-10-15T10:36:41Z</time>
      </trkpt>
      <trkpt lat="40.5284950" lon="-5.7645360">
        <ele>946.0</ele>
        <time>2021-10-15T10:36:46Z</time>
      </trkpt>
      <trkpt lat="40.5283600" lon="-5.7647490">
        <ele>945.6</ele>
        <time>2021-10-15T10:36:51Z</time>
      </trkpt>
      <trkpt lat="40.5283130" lon="-5.7648280">
        <ele>945.2</ele>
        <time>2021-10-15T10:36:53Z</time>
      </trkpt>
      <trkpt lat="40.5280450" lon="-5.7652520">
        <ele>944.6</ele>
        <time>2021-10-15T10:37:02Z</time>
      </trkpt>
      <trkpt lat="40.5279860" lon="-5.7653450">
        <ele>944.4</ele>
        <time>2021-10-15T10:37:04Z</time>
      </trkpt>
      <trkpt lat="40.5278650" lon="-5.7655290">
        <ele>944.0</ele>
        <time>2021-10-15T10:37:08Z</time>
      </trkpt>
      <trkpt lat="40.5277910" lon="-5.7656390">
        <ele>943.8</ele>
        <time>2021-10-15T10:37:10Z</time>
      </trkpt>
      <trkpt lat="40.5276880" lon="-5.7657670">
        <ele>943.4</ele>
        <time>2021-10-15T10:37:13Z</time>
      </trkpt>
      <trkpt lat="40.5275890" lon="-5.7658450">
        <ele>943.4</ele>
        <time>2021-10-15T10:37:15Z</time>
      </trkpt>
      <trkpt lat="40.5272250" lon="-5.7660710">
        <ele>943.2</ele>
        <time>2021-10-15T10:37:23Z</time>
      </trkpt>
      <trkpt lat="40.5269640" lon="-5.7662270">
        <ele>943.0</ele>
        <time>2021-10-15T10:37:29Z</time>
      </trkpt>
      <trkpt lat="40.5268770" lon="-5.7662760">
        <ele>943.0</ele>
        <time>2021-10-15T10:37:31Z</time>
      </trkpt>
      <trkpt lat="40.5264890" lon="-5.7665410">
        <ele>942.4</ele>
        <time>2021-10-15T10:37:39Z</time>
      </trkpt>
      <trkpt lat="40.5260650" lon="-5.7668630">
        <ele>941.2</ele>
        <time>2021-10-15T10:37:47Z</time>
      </trkpt>
      <trkpt lat="40.5257630" lon="-5.7671600">
        <ele>940.4</ele>
        <time>2021-10-15T10:37:54Z</time>
      </trkpt>
      <trkpt lat="40.5257250" lon="-5.7672000">
        <ele>940.0</ele>
        <time>2021-10-15T10:37:55Z</time>
      </trkpt>
      <trkpt lat="40.5254320" lon="-5.7674950">
        <ele>939.6</ele>
        <time>2021-10-15T10:38:02Z</time>
      </trkpt>
      <trkpt lat="40.5253910" lon="-5.7675450">
        <ele>939.6</ele>
        <time>2021-10-15T10:38:03Z</time>
      </trkpt>
      <trkpt lat="40.5252640" lon="-5.7677010">
        <ele>939.0</ele>
        <time>2021-10-15T10:38:06Z</time>
      </trkpt>
      <trkpt lat="40.5251060" lon="-5.7679450">
        <ele>938.0</ele>
        <time>2021-10-15T10:38:10Z</time>
      </trkpt>
      <trkpt lat="40.5250730" lon="-5.7680050">
        <ele>938.0</ele>
        <time>2021-10-15T10:38:11Z</time>
      </trkpt>
      <trkpt lat="40.5249370" lon="-5.7682400">
        <ele>937.2</ele>
        <time>2021-10-15T10:38:15Z</time>
      </trkpt>
      <trkpt lat="40.5248680" lon="-5.7683640">
        <ele>937.0</ele>
        <time>2021-10-15T10:38:17Z</time>
      </trkpt>
      <trkpt lat="40.5247640" lon="-5.7685490">
        <ele>936.6</ele>
        <time>2021-10-15T10:38:20Z</time>
      </trkpt>
      <trkpt lat="40.5245880" lon="-5.7688600">
        <ele>935.8</ele>
        <time>2021-10-15T10:38:25Z</time>
      </trkpt>
      <trkpt lat="40.5244660" lon="-5.7690950">
        <ele>935.2</ele>
        <time>2021-10-15T10:38:29Z</time>
      </trkpt>
      <trkpt lat="40.5243720" lon="-5.7692640">
        <ele>934.8</ele>
        <time>2021-10-15T10:38:32Z</time>
      </trkpt>
      <trkpt lat="40.5242550" lon="-5.7694760">
        <ele>934.4</ele>
        <time>2021-10-15T10:38:36Z</time>
      </trkpt>
      <trkpt lat="40.5241590" lon="-5.7696130">
        <ele>933.8</ele>
        <time>2021-10-15T10:38:39Z</time>
      </trkpt>
      <trkpt lat="40.5241220" lon="-5.7696440">
        <ele>933.6</ele>
        <time>2021-10-15T10:38:40Z</time>
      </trkpt>
      <trkpt lat="40.5240810" lon="-5.7696590">
        <ele>933.4</ele>
        <time>2021-10-15T10:38:41Z</time>
      </trkpt>
      <trkpt lat="40.5239880" lon="-5.7696480">
        <ele>933.2</ele>
        <time>2021-10-15T10:38:43Z</time>
      </trkpt>
      <trkpt lat="40.5239410" lon="-5.7696200">
        <ele>933.0</ele>
        <time>2021-10-15T10:38:44Z</time>
      </trkpt>
      <trkpt lat="40.5239010" lon="-5.7695800">
        <ele>933.0</ele>
        <time>2021-10-15T10:38:45Z</time>
      </trkpt>
      <trkpt lat="40.5238280" lon="-5.7694760">
        <ele>932.4</ele>
        <time>2021-10-15T10:38:47Z</time>
      </trkpt>
      <trkpt lat="40.5237940" lon="-5.7694270">
        <ele>931.8</ele>
        <time>2021-10-15T10:38:48Z</time>
      </trkpt>
      <trkpt lat="40.5237280" lon="-5.7693350">
        <ele>931.4</ele>
        <time>2021-10-15T10:38:50Z</time>
      </trkpt>
      <trkpt lat="40.5236230" lon="-5.7691670">
        <ele>931.2</ele>
        <time>2021-10-15T10:38:54Z</time>
      </trkpt>
      <trkpt lat="40.5235410" lon="-5.7690240">
        <ele>931.0</ele>
        <time>2021-10-15T10:38:57Z</time>
      </trkpt>
      <trkpt lat="40.5234740" lon="-5.7689270">
        <ele>931.0</ele>
        <time>2021-10-15T10:38:59Z</time>
      </trkpt>
      <trkpt lat="40.5234450" lon="-5.7688730">
        <ele>931.0</ele>
        <time>2021-10-15T10:39:00Z</time>
      </trkpt>
      <trkpt lat="40.5233340" lon="-5.7686070">
        <ele>930.8</ele>
        <time>2021-10-15T10:39:05Z</time>
      </trkpt>
      <trkpt lat="40.5233160" lon="-5.7685520">
        <ele>930.8</ele>
        <time>2021-10-15T10:39:06Z</time>
      </trkpt>
      <trkpt lat="40.5232830" lon="-5.7684430">
        <ele>930.6</ele>
        <time>2021-10-15T10:39:08Z</time>
      </trkpt>
      <trkpt lat="40.5232660" lon="-5.7682310">
        <ele>930.8</ele>
        <time>2021-10-15T10:39:12Z</time>
      </trkpt>
      <trkpt lat="40.5232650" lon="-5.7681800">
        <ele>930.8</ele>
        <time>2021-10-15T10:39:13Z</time>
      </trkpt>
      <trkpt lat="40.5232930" lon="-5.7679080">
        <ele>931.0</ele>
        <time>2021-10-15T10:39:18Z</time>
      </trkpt>
      <trkpt lat="40.5233140" lon="-5.7676240">
        <ele>931.4</ele>
        <time>2021-10-15T10:39:23Z</time>
      </trkpt>
      <trkpt lat="40.5233300" lon="-5.7675160">
        <ele>931.6</ele>
        <time>2021-10-15T10:39:25Z</time>
      </trkpt>
      <trkpt lat="40.5233530" lon="-5.7671400">
        <ele>932.0</ele>
        <time>2021-10-15T10:39:32Z</time>
      </trkpt>
      <trkpt lat="40.5233520" lon="-5.7670350">
        <ele>931.8</ele>
        <time>2021-10-15T10:39:34Z</time>
      </trkpt>
      <trkpt lat="40.5233150" lon="-5.7668260">
        <ele>931.6</ele>
        <time>2021-10-15T10:39:38Z</time>
      </trkpt>
      <trkpt lat="40.5231240" lon="-5.7663700">
        <ele>931.6</ele>
        <time>2021-10-15T10:39:47Z</time>
      </trkpt>
      <trkpt lat="40.5230430" lon="-5.7662030">
        <ele>931.6</ele>
        <time>2021-10-15T10:39:51Z</time>
      </trkpt>
      <trkpt lat="40.5229410" lon="-5.7659140">
        <ele>931.8</ele>
        <time>2021-10-15T10:39:58Z</time>
      </trkpt>
      <trkpt lat="40.5229040" lon="-5.7657620">
        <ele>932.6</ele>
        <time>2021-10-15T10:40:02Z</time>
      </trkpt>
      <trkpt lat="40.5228990" lon="-5.7657230">
        <ele>932.8</ele>
        <time>2021-10-15T10:40:03Z</time>
      </trkpt>
      <trkpt lat="40.5228450" lon="-5.7655410">
        <ele>933.8</ele>
        <time>2021-10-15T10:40:08Z</time>
      </trkpt>
      <trkpt lat="40.5228360" lon="-5.7655040">
        <ele>934.0</ele>
        <time>2021-10-15T10:40:09Z</time>
      </trkpt>
      <trkpt lat="40.5228000" lon="-5.7653170">
        <ele>934.2</ele>
        <time>2021-10-15T10:40:14Z</time>
      </trkpt>
      <trkpt lat="40.5227910" lon="-5.7652860">
        <ele>934.2</ele>
        <time>2021-10-15T10:40:15Z</time>
      </trkpt>
      <trkpt lat="40.5227430" lon="-5.7650280">
        <ele>934.6</ele>
        <time>2021-10-15T10:40:22Z</time>
      </trkpt>
      <trkpt lat="40.5227180" lon="-5.7649080">
        <ele>934.8</ele>
        <time>2021-10-15T10:40:25Z</time>
      </trkpt>
      <trkpt lat="40.5226910" lon="-5.7647510">
        <ele>935.2</ele>
        <time>2021-10-15T10:40:29Z</time>
      </trkpt>
      <trkpt lat="40.5226630" lon="-5.7646130">
        <ele>935.2</ele>
        <time>2021-10-15T10:40:33Z</time>
      </trkpt>
      <trkpt lat="40.5226230" lon="-5.7644920">
        <ele>935.2</ele>
        <time>2021-10-15T10:40:37Z</time>
      </trkpt>
      <trkpt lat="40.5225420" lon="-5.7643780">
        <ele>935.6</ele>
        <time>2021-10-15T10:40:43Z</time>
      </trkpt>
      <trkpt lat="40.5224090" lon="-5.7644200">
        <ele>935.6</ele>
        <time>2021-10-15T10:40:48Z</time>
      </trkpt>
      <trkpt lat="40.5222170" lon="-5.7645420">
        <ele>935.6</ele>
        <time>2021-10-15T10:40:55Z</time>
      </trkpt>
      <trkpt lat="40.5219880" lon="-5.7646710">
        <ele>935.6</ele>
        <time>2021-10-15T10:41:03Z</time>
      </trkpt>
      <trkpt lat="40.5218350" lon="-5.7647880">
        <ele>935.6</ele>
        <time>2021-10-15T10:41:09Z</time>
      </trkpt>
      <trkpt lat="40.5216110" lon="-5.7649570">
        <ele>936.0</ele>
        <time>2021-10-15T10:41:16Z</time>
      </trkpt>
      <trkpt lat="40.5215440" lon="-5.7650130">
        <ele>936.0</ele>
        <time>2021-10-15T10:41:18Z</time>
      </trkpt>
      <trkpt lat="40.5212440" lon="-5.7652280">
        <ele>936.6</ele>
        <time>2021-10-15T10:41:28Z</time>
      </trkpt>
      <trkpt lat="40.5210220" lon="-5.7653130">
        <ele>937.0</ele>
        <time>2021-10-15T10:41:35Z</time>
      </trkpt>
      <trkpt lat="40.5209910" lon="-5.7653250">
        <ele>937.0</ele>
        <time>2021-10-15T10:41:36Z</time>
      </trkpt>
      <trkpt lat="40.5206780" lon="-5.7654030">
        <ele>937.8</ele>
        <time>2021-10-15T10:41:46Z</time>
      </trkpt>
      <trkpt lat="40.5205900" lon="-5.7654270">
        <ele>938.0</ele>
        <time>2021-10-15T10:41:49Z</time>
      </trkpt>
      <trkpt lat="40.5204130" lon="-5.7654730">
        <ele>938.6</ele>
        <time>2021-10-15T10:41:55Z</time>
      </trkpt>
      <trkpt lat="40.5201800" lon="-5.7655030">
        <ele>939.0</ele>
        <time>2021-10-15T10:42:03Z</time>
      </trkpt>
      <trkpt lat="40.5201520" lon="-5.7655060">
        <ele>939.2</ele>
        <time>2021-10-15T10:42:04Z</time>
      </trkpt>
      <trkpt lat="40.5200120" lon="-5.7654980">
        <ele>939.6</ele>
        <time>2021-10-15T10:42:09Z</time>
      </trkpt>
      <trkpt lat="40.5199410" lon="-5.7654950">
        <ele>940.0</ele>
        <time>2021-10-15T10:42:12Z</time>
      </trkpt>
      <trkpt lat="40.5199160" lon="-5.7654950">
        <ele>940.2</ele>
        <time>2021-10-15T10:42:13Z</time>
      </trkpt>
      <trkpt lat="40.5197660" lon="-5.7654800">
        <ele>941.4</ele>
        <time>2021-10-15T10:42:20Z</time>
      </trkpt>
      <trkpt lat="40.5197190" lon="-5.7654740">
        <ele>941.6</ele>
        <time>2021-10-15T10:42:22Z</time>
      </trkpt>
      <trkpt lat="40.5196230" lon="-5.7654670">
        <ele>942.6</ele>
        <time>2021-10-15T10:42:27Z</time>
      </trkpt>
      <trkpt lat="40.5195410" lon="-5.7654490">
        <ele>943.4</ele>
        <time>2021-10-15T10:42:32Z</time>
      </trkpt>
      <trkpt lat="40.5195230" lon="-5.7654450">
        <ele>943.8</ele>
        <time>2021-10-15T10:42:33Z</time>
      </trkpt>
      <trkpt lat="40.5194470" lon="-5.7654330">
        <ele>944.4</ele>
        <time>2021-10-15T10:42:38Z</time>
      </trkpt>
      <trkpt lat="40.5194290" lon="-5.7654340">
        <ele>944.6</ele>
        <time>2021-10-15T10:42:39Z</time>
      </trkpt>
      <trkpt lat="40.5194080" lon="-5.7654320">
        <ele>944.8</ele>
        <time>2021-10-15T10:42:40Z</time>
      </trkpt>
      <trkpt lat="40.5193310" lon="-5.7654110">
        <ele>945.2</ele>
        <time>2021-10-15T10:42:45Z</time>
      </trkpt>
      <trkpt lat="40.5193020" lon="-5.7654040">
        <ele>945.6</ele>
        <time>2021-10-15T10:42:47Z</time>
      </trkpt>
      <trkpt lat="40.5192640" lon="-5.7654020">
        <ele>946.0</ele>
        <time>2021-10-15T10:42:49Z</time>
      </trkpt>
      <trkpt lat="40.5191540" lon="-5.7654030">
        <ele>947.2</ele>
        <time>2021-10-15T10:42:56Z</time>
      </trkpt>
      <trkpt lat="40.5191410" lon="-5.7654030">
        <ele>947.2</ele>
        <time>2021-10-15T10:42:57Z</time>
      </trkpt>
      <trkpt lat="40.5190370" lon="-5.7654260">
        <ele>948.0</ele>
        <time>2021-10-15T10:43:03Z</time>
      </trkpt>
      <trkpt lat="40.5190190" lon="-5.7654290">
        <ele>948.2</ele>
        <time>2021-10-15T10:43:04Z</time>
      </trkpt>
      <trkpt lat="40.5190010" lon="-5.7654280">
        <ele>948.2</ele>
        <time>2021-10-15T10:43:05Z</time>
      </trkpt>
      <trkpt lat="40.5189690" lon="-5.7654250">
        <ele>948.4</ele>
        <time>2021-10-15T10:43:07Z</time>
      </trkpt>
      <trkpt lat="40.5189170" lon="-5.7654390">
        <ele>948.6</ele>
        <time>2021-10-15T10:43:10Z</time>
      </trkpt>
      <trkpt lat="40.5187880" lon="-5.7655300">
        <ele>949.2</ele>
        <time>2021-10-15T10:43:18Z</time>
      </trkpt>
      <trkpt lat="40.5187690" lon="-5.7655380">
        <ele>949.2</ele>
        <time>2021-10-15T10:43:19Z</time>
      </trkpt>
      <trkpt lat="40.5187370" lon="-5.7655500">
        <ele>949.4</ele>
        <time>2021-10-15T10:43:21Z</time>
      </trkpt>
      <trkpt lat="40.5186980" lon="-5.7655700">
        <ele>949.4</ele>
        <time>2021-10-15T10:43:23Z</time>
      </trkpt>
      <trkpt lat="40.5186660" lon="-5.7655870">
        <ele>949.6</ele>
        <time>2021-10-15T10:43:25Z</time>
      </trkpt>
      <trkpt lat="40.5186090" lon="-5.7656270">
        <ele>949.6</ele>
        <time>2021-10-15T10:43:28Z</time>
      </trkpt>
      <trkpt lat="40.5185760" lon="-5.7656460">
        <ele>949.8</ele>
        <time>2021-10-15T10:43:30Z</time>
      </trkpt>
      <trkpt lat="40.5185560" lon="-5.7656590">
        <ele>949.8</ele>
        <time>2021-10-15T10:43:31Z</time>
      </trkpt>
      <trkpt lat="40.5185070" lon="-5.7656940">
        <ele>949.8</ele>
        <time>2021-10-15T10:43:34Z</time>
      </trkpt>
      <trkpt lat="40.5184180" lon="-5.7657620">
        <ele>950.2</ele>
        <time>2021-10-15T10:43:39Z</time>
      </trkpt>
      <trkpt lat="40.5182380" lon="-5.7659070">
        <ele>951.0</ele>
        <time>2021-10-15T10:43:49Z</time>
      </trkpt>
      <trkpt lat="40.5180900" lon="-5.7660270">
        <ele>951.2</ele>
        <time>2021-10-15T10:43:57Z</time>
      </trkpt>
      <trkpt lat="40.5180700" lon="-5.7660460">
        <ele>951.2</ele>
        <time>2021-10-15T10:43:58Z</time>
      </trkpt>
      <trkpt lat="40.5179880" lon="-5.7661170">
        <ele>951.4</ele>
        <time>2021-10-15T10:44:02Z</time>
      </trkpt>
      <trkpt lat="40.5178910" lon="-5.7662080">
        <ele>951.8</ele>
        <time>2021-10-15T10:44:07Z</time>
      </trkpt>
      <trkpt lat="40.5178110" lon="-5.7662750">
        <ele>951.8</ele>
        <time>2021-10-15T10:44:11Z</time>
      </trkpt>
      <trkpt lat="40.5177190" lon="-5.7663560">
        <ele>952.2</ele>
        <time>2021-10-15T10:44:16Z</time>
      </trkpt>
      <trkpt lat="40.5176760" lon="-5.7663930">
        <ele>952.2</ele>
        <time>2021-10-15T10:44:18Z</time>
      </trkpt>
      <trkpt lat="40.5176560" lon="-5.7664080">
        <ele>952.4</ele>
        <time>2021-10-15T10:44:19Z</time>
      </trkpt>
      <trkpt lat="40.5175530" lon="-5.7664870">
        <ele>952.6</ele>
        <time>2021-10-15T10:44:24Z</time>
      </trkpt>
      <trkpt lat="40.5174660" lon="-5.7665610">
        <ele>953.0</ele>
        <time>2021-10-15T10:44:28Z</time>
      </trkpt>
      <trkpt lat="40.5173780" lon="-5.7666310">
        <ele>953.2</ele>
        <time>2021-10-15T10:44:32Z</time>
      </trkpt>
      <trkpt lat="40.5173530" lon="-5.7666480">
        <ele>953.2</ele>
        <time>2021-10-15T10:44:33Z</time>
      </trkpt>
      <trkpt lat="40.5172820" lon="-5.7667030">
        <ele>953.4</ele>
        <time>2021-10-15T10:44:36Z</time>
      </trkpt>
      <trkpt lat="40.5170940" lon="-5.7668310">
        <ele>954.4</ele>
        <time>2021-10-15T10:44:44Z</time>
      </trkpt>
      <trkpt lat="40.5168660" lon="-5.7669370">
        <ele>954.8</ele>
        <time>2021-10-15T10:44:52Z</time>
      </trkpt>
      <trkpt lat="40.5166980" lon="-5.7669830">
        <ele>955.0</ele>
        <time>2021-10-15T10:44:57Z</time>
      </trkpt>
      <trkpt lat="40.5164940" lon="-5.7670240">
        <ele>955.0</ele>
        <time>2021-10-15T10:45:02Z</time>
      </trkpt>
      <trkpt lat="40.5162150" lon="-5.7670850">
        <ele>954.6</ele>
        <time>2021-10-15T10:45:08Z</time>
      </trkpt>
      <trkpt lat="40.5161150" lon="-5.7671060">
        <ele>954.2</ele>
        <time>2021-10-15T10:45:10Z</time>
      </trkpt>
      <trkpt lat="40.5157830" lon="-5.7671590">
        <ele>953.2</ele>
        <time>2021-10-15T10:45:16Z</time>
      </trkpt>
      <trkpt lat="40.5155880" lon="-5.7672000">
        <ele>952.6</ele>
        <time>2021-10-15T10:45:19Z</time>
      </trkpt>
      <trkpt lat="40.5154750" lon="-5.7672320">
        <ele>952.2</ele>
        <time>2021-10-15T10:45:21Z</time>
      </trkpt>
      <trkpt lat="40.5153970" lon="-5.7672460">
        <ele>952.2</ele>
        <time>2021-10-15T10:45:22Z</time>
      </trkpt>
      <trkpt lat="40.5152680" lon="-5.7672510">
        <ele>951.6</ele>
        <time>2021-10-15T10:45:24Z</time>
      </trkpt>
      <trkpt lat="40.5151420" lon="-5.7672330">
        <ele>951.4</ele>
        <time>2021-10-15T10:45:26Z</time>
      </trkpt>
      <trkpt lat="40.5150720" lon="-5.7672110">
        <ele>951.2</ele>
        <time>2021-10-15T10:45:27Z</time>
      </trkpt>
      <trkpt lat="40.5149920" lon="-5.7671790">
        <ele>951.0</ele>
        <time>2021-10-15T10:45:28Z</time>
      </trkpt>
      <trkpt lat="40.5146750" lon="-5.7669960">
        <ele>949.8</ele>
        <time>2021-10-15T10:45:33Z</time>
      </trkpt>
      <trkpt lat="40.5144550" lon="-5.7668290">
        <ele>948.8</ele>
        <time>2021-10-15T10:45:37Z</time>
      </trkpt>
      <trkpt lat="40.5141830" lon="-5.7666090">
        <ele>948.4</ele>
        <time>2021-10-15T10:45:42Z</time>
      </trkpt>
      <trkpt lat="40.5139130" lon="-5.7664180">
        <ele>947.6</ele>
        <time>2021-10-15T10:45:47Z</time>
      </trkpt>
      <trkpt lat="40.5138050" lon="-5.7663670">
        <ele>947.4</ele>
        <time>2021-10-15T10:45:49Z</time>
      </trkpt>
      <trkpt lat="40.5134000" lon="-5.7662710">
        <ele>946.8</ele>
        <time>2021-10-15T10:45:56Z</time>
      </trkpt>
      <trkpt lat="40.5133470" lon="-5.7662670">
        <ele>946.8</ele>
        <time>2021-10-15T10:45:57Z</time>
      </trkpt>
      <trkpt lat="40.5131410" lon="-5.7662860">
        <ele>946.6</ele>
        <time>2021-10-15T10:46:01Z</time>
      </trkpt>
      <trkpt lat="40.5130930" lon="-5.7662950">
        <ele>946.6</ele>
        <time>2021-10-15T10:46:02Z</time>
      </trkpt>
      <trkpt lat="40.5128040" lon="-5.7664030">
        <ele>946.4</ele>
        <time>2021-10-15T10:46:08Z</time>
      </trkpt>
      <trkpt lat="40.5125590" lon="-5.7665290">
        <ele>946.0</ele>
        <time>2021-10-15T10:46:13Z</time>
      </trkpt>
      <trkpt lat="40.5124370" lon="-5.7665560">
        <ele>945.8</ele>
        <time>2021-10-15T10:46:15Z</time>
      </trkpt>
      <trkpt lat="40.5123010" lon="-5.7665450">
        <ele>945.4</ele>
        <time>2021-10-15T10:46:17Z</time>
      </trkpt>
      <trkpt lat="40.5121540" lon="-5.7665020">
        <ele>945.0</ele>
        <time>2021-10-15T10:46:19Z</time>
      </trkpt>
      <trkpt lat="40.5119200" lon="-5.7664030">
        <ele>944.2</ele>
        <time>2021-10-15T10:46:22Z</time>
      </trkpt>
      <trkpt lat="40.5117600" lon="-5.7663290">
        <ele>943.0</ele>
        <time>2021-10-15T10:46:24Z</time>
      </trkpt>
      <trkpt lat="40.5116810" lon="-5.7662910">
        <ele>942.4</ele>
        <time>2021-10-15T10:46:25Z</time>
      </trkpt>
      <trkpt lat="40.5115260" lon="-5.7662150">
        <ele>941.6</ele>
        <time>2021-10-15T10:46:27Z</time>
      </trkpt>
      <trkpt lat="40.5112940" lon="-5.7661230">
        <ele>940.4</ele>
        <time>2021-10-15T10:46:30Z</time>
      </trkpt>
      <trkpt lat="40.5111410" lon="-5.7660820">
        <ele>939.8</ele>
        <time>2021-10-15T10:46:32Z</time>
      </trkpt>
      <trkpt lat="40.5108540" lon="-5.7660330">
        <ele>939.4</ele>
        <time>2021-10-15T10:46:36Z</time>
      </trkpt>
      <trkpt lat="40.5104200" lon="-5.7659590">
        <ele>938.8</ele>
        <time>2021-10-15T10:46:43Z</time>
      </trkpt>
      <trkpt lat="40.5101230" lon="-5.7658770">
        <ele>938.8</ele>
        <time>2021-10-15T10:46:49Z</time>
      </trkpt>
      <trkpt lat="40.5095710" lon="-5.7657040">
        <ele>938.6</ele>
        <time>2021-10-15T10:46:58Z</time>
      </trkpt>
      <trkpt lat="40.5095710" lon="-5.7657040">
        <ele>938.6</ele>
        <time>2021-10-15T10:46:59Z</time>
      </trkpt>
      <trkpt lat="40.5091770" lon="-5.7655490">
        <ele>938.8</ele>
        <time>2021-10-15T10:47:06Z</time>
      </trkpt>
      <trkpt lat="40.5087990" lon="-5.7653220">
        <ele>939.4</ele>
        <time>2021-10-15T10:47:15Z</time>
      </trkpt>
      <trkpt lat="40.5084670" lon="-5.7651070">
        <ele>939.8</ele>
        <time>2021-10-15T10:47:24Z</time>
      </trkpt>
      <trkpt lat="40.5084330" lon="-5.7650870">
        <ele>940.0</ele>
        <time>2021-10-15T10:47:25Z</time>
      </trkpt>
      <trkpt lat="40.5081690" lon="-5.7649740">
        <ele>940.2</ele>
        <time>2021-10-15T10:47:32Z</time>
      </trkpt>
      <trkpt lat="40.5080620" lon="-5.7649590">
        <ele>940.4</ele>
        <time>2021-10-15T10:47:35Z</time>
      </trkpt>
      <trkpt lat="40.5078550" lon="-5.7649300">
        <ele>940.6</ele>
        <time>2021-10-15T10:47:42Z</time>
      </trkpt>
      <trkpt lat="40.5078010" lon="-5.7649270">
        <ele>940.8</ele>
        <time>2021-10-15T10:47:44Z</time>
      </trkpt>
      <trkpt lat="40.5076130" lon="-5.7649300">
        <ele>940.8</ele>
        <time>2021-10-15T10:47:50Z</time>
      </trkpt>
      <trkpt lat="40.5072500" lon="-5.7649370">
        <ele>940.6</ele>
        <time>2021-10-15T10:48:01Z</time>
      </trkpt>
      <trkpt lat="40.5070550" lon="-5.7649570">
        <ele>940.6</ele>
        <time>2021-10-15T10:48:08Z</time>
      </trkpt>
      <trkpt lat="40.5070010" lon="-5.7649730">
        <ele>940.4</ele>
        <time>2021-10-15T10:48:10Z</time>
      </trkpt>
      <trkpt lat="40.5069580" lon="-5.7649740">
        <ele>940.4</ele>
        <time>2021-10-15T10:48:14Z</time>
      </trkpt>
      <trkpt lat="40.5069020" lon="-5.7649710">
        <ele>940.4</ele>
        <time>2021-10-15T10:48:53Z</time>
      </trkpt>
      <trkpt lat="40.5068880" lon="-5.7649760">
        <ele>940.4</ele>
        <time>2021-10-15T10:48:54Z</time>
      </trkpt>
      <trkpt lat="40.5068370" lon="-5.7649830">
        <ele>940.6</ele>
        <time>2021-10-15T10:48:56Z</time>
      </trkpt>
      <trkpt lat="40.5067450" lon="-5.7650080">
        <ele>940.6</ele>
        <time>2021-10-15T10:49:00Z</time>
      </trkpt>
      <trkpt lat="40.5067280" lon="-5.7650080">
        <ele>940.8</ele>
        <time>2021-10-15T10:49:01Z</time>
      </trkpt>
      <trkpt lat="40.5065980" lon="-5.7650210">
        <ele>941.0</ele>
        <time>2021-10-15T10:49:06Z</time>
      </trkpt>
      <trkpt lat="40.5065130" lon="-5.7650230">
        <ele>941.2</ele>
        <time>2021-10-15T10:49:09Z</time>
      </trkpt>
      <trkpt lat="40.5064330" lon="-5.7650340">
        <ele>941.4</ele>
        <time>2021-10-15T10:49:12Z</time>
      </trkpt>
      <trkpt lat="40.5062850" lon="-5.7650490">
        <ele>941.8</ele>
        <time>2021-10-15T10:49:17Z</time>
      </trkpt>
      <trkpt lat="40.5060800" lon="-5.7650280">
        <ele>942.2</ele>
        <time>2021-10-15T10:49:24Z</time>
      </trkpt>
      <trkpt lat="40.5060370" lon="-5.7649850">
        <ele>942.6</ele>
        <time>2021-10-15T10:49:26Z</time>
      </trkpt>
      <trkpt lat="40.5059670" lon="-5.7648730">
        <ele>943.4</ele>
        <time>2021-10-15T10:49:31Z</time>
      </trkpt>
      <trkpt lat="40.5059480" lon="-5.7648620">
        <ele>943.6</ele>
        <time>2021-10-15T10:49:32Z</time>
      </trkpt>
      <trkpt lat="40.5059280" lon="-5.7648600">
        <ele>943.8</ele>
        <time>2021-10-15T10:49:33Z</time>
      </trkpt>
      <trkpt lat="40.5058900" lon="-5.7648700">
        <ele>944.0</ele>
        <time>2021-10-15T10:49:35Z</time>
      </trkpt>
      <trkpt lat="40.5057910" lon="-5.7649260">
        <ele>944.2</ele>
        <time>2021-10-15T10:49:40Z</time>
      </trkpt>
      <trkpt lat="40.5057470" lon="-5.7649660">
        <ele>944.2</ele>
        <time>2021-10-15T10:49:42Z</time>
      </trkpt>
      <trkpt lat="40.5056790" lon="-5.7650460">
        <ele>944.2</ele>
        <time>2021-10-15T10:49:45Z</time>
      </trkpt>
      <trkpt lat="40.5055970" lon="-5.7651260">
        <ele>944.0</ele>
        <time>2021-10-15T10:49:48Z</time>
      </trkpt>
      <trkpt lat="40.5054860" lon="-5.7653050">
        <ele>943.8</ele>
        <time>2021-10-15T10:49:52Z</time>
      </trkpt>
      <trkpt lat="40.5054530" lon="-5.7653560">
        <ele>943.6</ele>
        <time>2021-10-15T10:49:53Z</time>
      </trkpt>
      <trkpt lat="40.5052660" lon="-5.7656390">
        <ele>942.8</ele>
        <time>2021-10-15T10:49:58Z</time>
      </trkpt>
      <trkpt lat="40.5051670" lon="-5.7657490">
        <ele>942.0</ele>
        <time>2021-10-15T10:50:00Z</time>
      </trkpt>
      <trkpt lat="40.5050610" lon="-5.7658150">
        <ele>941.6</ele>
        <time>2021-10-15T10:50:02Z</time>
      </trkpt>
      <trkpt lat="40.5048790" lon="-5.7658550">
        <ele>941.2</ele>
        <time>2021-10-15T10:50:05Z</time>
      </trkpt>
      <trkpt lat="40.5048060" lon="-5.7658550">
        <ele>940.6</ele>
        <time>2021-10-15T10:50:06Z</time>
      </trkpt>
      <trkpt lat="40.5047320" lon="-5.7658450">
        <ele>940.4</ele>
        <time>2021-10-15T10:50:07Z</time>
      </trkpt>
      <trkpt lat="40.5045770" lon="-5.7658350">
        <ele>939.4</ele>
        <time>2021-10-15T10:50:09Z</time>
      </trkpt>
      <trkpt lat="40.5044990" lon="-5.7658520">
        <ele>939.0</ele>
        <time>2021-10-15T10:50:10Z</time>
      </trkpt>
      <trkpt lat="40.5044190" lon="-5.7658780">
        <ele>938.6</ele>
        <time>2021-10-15T10:50:11Z</time>
      </trkpt>
      <trkpt lat="40.5042530" lon="-5.7659300">
        <ele>937.4</ele>
        <time>2021-10-15T10:50:13Z</time>
      </trkpt>
      <trkpt lat="40.5041710" lon="-5.7659490">
        <ele>937.0</ele>
        <time>2021-10-15T10:50:14Z</time>
      </trkpt>
      <trkpt lat="40.5040850" lon="-5.7659520">
        <ele>936.4</ele>
        <time>2021-10-15T10:50:15Z</time>
      </trkpt>
      <trkpt lat="40.5039980" lon="-5.7659410">
        <ele>936.2</ele>
        <time>2021-10-15T10:50:16Z</time>
      </trkpt>
      <trkpt lat="40.5037240" lon="-5.7659010">
        <ele>934.4</ele>
        <time>2021-10-15T10:50:19Z</time>
      </trkpt>
      <trkpt lat="40.5035540" lon="-5.7658830">
        <ele>933.4</ele>
        <time>2021-10-15T10:50:21Z</time>
      </trkpt>
      <trkpt lat="40.5034770" lon="-5.7658700">
        <ele>932.2</ele>
        <time>2021-10-15T10:50:22Z</time>
      </trkpt>
      <trkpt lat="40.5034070" lon="-5.7658450">
        <ele>931.8</ele>
        <time>2021-10-15T10:50:23Z</time>
      </trkpt>
      <trkpt lat="40.5033440" lon="-5.7658040">
        <ele>931.4</ele>
        <time>2021-10-15T10:50:24Z</time>
      </trkpt>
      <trkpt lat="40.5032970" lon="-5.7657580">
        <ele>930.8</ele>
        <time>2021-10-15T10:50:25Z</time>
      </trkpt>
      <trkpt lat="40.5031490" lon="-5.7655530">
        <ele>929.6</ele>
        <time>2021-10-15T10:50:28Z</time>
      </trkpt>
      <trkpt lat="40.5030320" lon="-5.7654960">
        <ele>928.2</ele>
        <time>2021-10-15T10:50:30Z</time>
      </trkpt>
      <trkpt lat="40.5029590" lon="-5.7655000">
        <ele>927.2</ele>
        <time>2021-10-15T10:50:31Z</time>
      </trkpt>
      <trkpt lat="40.5028800" lon="-5.7655270">
        <ele>926.8</ele>
        <time>2021-10-15T10:50:32Z</time>
      </trkpt>
      <trkpt lat="40.5028010" lon="-5.7655600">
        <ele>926.2</ele>
        <time>2021-10-15T10:50:33Z</time>
      </trkpt>
      <trkpt lat="40.5026390" lon="-5.7656390">
        <ele>925.2</ele>
        <time>2021-10-15T10:50:35Z</time>
      </trkpt>
      <trkpt lat="40.5024730" lon="-5.7657170">
        <ele>923.8</ele>
        <time>2021-10-15T10:50:37Z</time>
      </trkpt>
      <trkpt lat="40.5022350" lon="-5.7658690">
        <ele>922.4</ele>
        <time>2021-10-15T10:50:40Z</time>
      </trkpt>
      <trkpt lat="40.5021610" lon="-5.7659310">
        <ele>921.8</ele>
        <time>2021-10-15T10:50:41Z</time>
      </trkpt>
      <trkpt lat="40.5020880" lon="-5.7659990">
        <ele>921.2</ele>
        <time>2021-10-15T10:50:42Z</time>
      </trkpt>
      <trkpt lat="40.5019430" lon="-5.7661400">
        <ele>920.2</ele>
        <time>2021-10-15T10:50:44Z</time>
      </trkpt>
      <trkpt lat="40.5017290" lon="-5.7663420">
        <ele>919.2</ele>
        <time>2021-10-15T10:50:47Z</time>
      </trkpt>
      <trkpt lat="40.5015010" lon="-5.7665290">
        <ele>918.2</ele>
        <time>2021-10-15T10:50:50Z</time>
      </trkpt>
      <trkpt lat="40.5014230" lon="-5.7665920">
        <ele>918.0</ele>
        <time>2021-10-15T10:50:51Z</time>
      </trkpt>
      <trkpt lat="40.5012740" lon="-5.7667340">
        <ele>916.8</ele>
        <time>2021-10-15T10:50:53Z</time>
      </trkpt>
      <trkpt lat="40.5010650" lon="-5.7669790">
        <ele>915.4</ele>
        <time>2021-10-15T10:50:56Z</time>
      </trkpt>
      <trkpt lat="40.5009310" lon="-5.7671410">
        <ele>914.2</ele>
        <time>2021-10-15T10:50:58Z</time>
      </trkpt>
      <trkpt lat="40.5008050" lon="-5.7673050">
        <ele>913.6</ele>
        <time>2021-10-15T10:51:00Z</time>
      </trkpt>
      <trkpt lat="40.5007480" lon="-5.7673870">
        <ele>912.8</ele>
        <time>2021-10-15T10:51:01Z</time>
      </trkpt>
      <trkpt lat="40.5005400" lon="-5.7677070">
        <ele>911.6</ele>
        <time>2021-10-15T10:51:05Z</time>
      </trkpt>
      <trkpt lat="40.5004470" lon="-5.7678230">
        <ele>910.6</ele>
        <time>2021-10-15T10:51:07Z</time>
      </trkpt>
      <trkpt lat="40.5003720" lon="-5.7679200">
        <ele>909.8</ele>
        <time>2021-10-15T10:51:09Z</time>
      </trkpt>
      <trkpt lat="40.5002240" lon="-5.7680850">
        <ele>909.6</ele>
        <time>2021-10-15T10:51:13Z</time>
      </trkpt>
      <trkpt lat="40.5001560" lon="-5.7681620">
        <ele>908.6</ele>
        <time>2021-10-15T10:51:15Z</time>
      </trkpt>
      <trkpt lat="40.5000880" lon="-5.7682310">
        <ele>908.4</ele>
        <time>2021-10-15T10:51:17Z</time>
      </trkpt>
      <trkpt lat="40.5000550" lon="-5.7682700">
        <ele>908.2</ele>
        <time>2021-10-15T10:51:18Z</time>
      </trkpt>
      <trkpt lat="40.4999540" lon="-5.7684270">
        <ele>907.6</ele>
        <time>2021-10-15T10:51:21Z</time>
      </trkpt>
      <trkpt lat="40.4998920" lon="-5.7685610">
        <ele>907.2</ele>
        <time>2021-10-15T10:51:23Z</time>
      </trkpt>
      <trkpt lat="40.4997970" lon="-5.7688050">
        <ele>906.2</ele>
        <time>2021-10-15T10:51:26Z</time>
      </trkpt>
      <trkpt lat="40.4996940" lon="-5.7690910">
        <ele>905.0</ele>
        <time>2021-10-15T10:51:29Z</time>
      </trkpt>
      <trkpt lat="40.4996270" lon="-5.7693020">
        <ele>903.8</ele>
        <time>2021-10-15T10:51:31Z</time>
      </trkpt>
      <trkpt lat="40.4995880" lon="-5.7695380">
        <ele>902.8</ele>
        <time>2021-10-15T10:51:33Z</time>
      </trkpt>
      <trkpt lat="40.4995810" lon="-5.7696620">
        <ele>902.2</ele>
        <time>2021-10-15T10:51:34Z</time>
      </trkpt>
      <trkpt lat="40.4995740" lon="-5.7697880">
        <ele>901.8</ele>
        <time>2021-10-15T10:51:35Z</time>
      </trkpt>
      <trkpt lat="40.4995580" lon="-5.7700510">
        <ele>900.0</ele>
        <time>2021-10-15T10:51:37Z</time>
      </trkpt>
      <trkpt lat="40.4995390" lon="-5.7703150">
        <ele>898.6</ele>
        <time>2021-10-15T10:51:39Z</time>
      </trkpt>
      <trkpt lat="40.4994970" lon="-5.7705760">
        <ele>897.4</ele>
        <time>2021-10-15T10:51:41Z</time>
      </trkpt>
      <trkpt lat="40.4993930" lon="-5.7709500">
        <ele>896.0</ele>
        <time>2021-10-15T10:51:44Z</time>
      </trkpt>
      <trkpt lat="40.4993050" lon="-5.7711820">
        <ele>894.8</ele>
        <time>2021-10-15T10:51:46Z</time>
      </trkpt>
      <trkpt lat="40.4992220" lon="-5.7714100">
        <ele>893.2</ele>
        <time>2021-10-15T10:51:48Z</time>
      </trkpt>
      <trkpt lat="40.4991310" lon="-5.7716270">
        <ele>891.8</ele>
        <time>2021-10-15T10:51:50Z</time>
      </trkpt>
      <trkpt lat="40.4990340" lon="-5.7718300">
        <ele>890.8</ele>
        <time>2021-10-15T10:51:52Z</time>
      </trkpt>
      <trkpt lat="40.4989860" lon="-5.7719300">
        <ele>890.4</ele>
        <time>2021-10-15T10:51:53Z</time>
      </trkpt>
      <trkpt lat="40.4988960" lon="-5.7721350">
        <ele>889.8</ele>
        <time>2021-10-15T10:51:55Z</time>
      </trkpt>
      <trkpt lat="40.4987850" lon="-5.7724710">
        <ele>888.8</ele>
        <time>2021-10-15T10:51:58Z</time>
      </trkpt>
      <trkpt lat="40.4987580" lon="-5.7725900">
        <ele>888.2</ele>
        <time>2021-10-15T10:51:59Z</time>
      </trkpt>
      <trkpt lat="40.4986930" lon="-5.7728400">
        <ele>886.8</ele>
        <time>2021-10-15T10:52:01Z</time>
      </trkpt>
      <trkpt lat="40.4986160" lon="-5.7730830">
        <ele>885.0</ele>
        <time>2021-10-15T10:52:03Z</time>
      </trkpt>
      <trkpt lat="40.4985710" lon="-5.7732010">
        <ele>884.0</ele>
        <time>2021-10-15T10:52:04Z</time>
      </trkpt>
      <trkpt lat="40.4985190" lon="-5.7733150">
        <ele>883.2</ele>
        <time>2021-10-15T10:52:05Z</time>
      </trkpt>
      <trkpt lat="40.4983930" lon="-5.7735370">
        <ele>881.6</ele>
        <time>2021-10-15T10:52:07Z</time>
      </trkpt>
      <trkpt lat="40.4983220" lon="-5.7736390">
        <ele>880.8</ele>
        <time>2021-10-15T10:52:08Z</time>
      </trkpt>
      <trkpt lat="40.4982490" lon="-5.7737430">
        <ele>880.4</ele>
        <time>2021-10-15T10:52:09Z</time>
      </trkpt>
      <trkpt lat="40.4980280" lon="-5.7740470">
        <ele>878.2</ele>
        <time>2021-10-15T10:52:12Z</time>
      </trkpt>
      <trkpt lat="40.4978800" lon="-5.7742440">
        <ele>876.6</ele>
        <time>2021-10-15T10:52:14Z</time>
      </trkpt>
      <trkpt lat="40.4977980" lon="-5.7743310">
        <ele>876.2</ele>
        <time>2021-10-15T10:52:15Z</time>
      </trkpt>
      <trkpt lat="40.4977130" lon="-5.7744120">
        <ele>875.0</ele>
        <time>2021-10-15T10:52:16Z</time>
      </trkpt>
      <trkpt lat="40.4976400" lon="-5.7744670">
        <ele>874.2</ele>
        <time>2021-10-15T10:52:17Z</time>
      </trkpt>
      <trkpt lat="40.4975220" lon="-5.7745340">
        <ele>872.6</ele>
        <time>2021-10-15T10:52:18Z</time>
      </trkpt>
      <trkpt lat="40.4974220" lon="-5.7745730">
        <ele>871.8</ele>
        <time>2021-10-15T10:52:19Z</time>
      </trkpt>
      <trkpt lat="40.4972170" lon="-5.7746230">
        <ele>870.4</ele>
        <time>2021-10-15T10:52:21Z</time>
      </trkpt>
      <trkpt lat="40.4970170" lon="-5.7746650">
        <ele>869.0</ele>
        <time>2021-10-15T10:52:23Z</time>
      </trkpt>
      <trkpt lat="40.4968260" lon="-5.7747030">
        <ele>868.0</ele>
        <time>2021-10-15T10:52:25Z</time>
      </trkpt>
      <trkpt lat="40.4966430" lon="-5.7747380">
        <ele>866.8</ele>
        <time>2021-10-15T10:52:27Z</time>
      </trkpt>
      <trkpt lat="40.4963820" lon="-5.7747920">
        <ele>865.6</ele>
        <time>2021-10-15T10:52:30Z</time>
      </trkpt>
      <trkpt lat="40.4963000" lon="-5.7748200">
        <ele>865.2</ele>
        <time>2021-10-15T10:52:31Z</time>
      </trkpt>
      <trkpt lat="40.4961530" lon="-5.7748970">
        <ele>864.6</ele>
        <time>2021-10-15T10:52:33Z</time>
      </trkpt>
      <trkpt lat="40.4960200" lon="-5.7750010">
        <ele>864.0</ele>
        <time>2021-10-15T10:52:35Z</time>
      </trkpt>
      <trkpt lat="40.4959060" lon="-5.7751230">
        <ele>863.6</ele>
        <time>2021-10-15T10:52:37Z</time>
      </trkpt>
      <trkpt lat="40.4958060" lon="-5.7752700">
        <ele>863.0</ele>
        <time>2021-10-15T10:52:39Z</time>
      </trkpt>
      <trkpt lat="40.4957150" lon="-5.7754400">
        <ele>862.2</ele>
        <time>2021-10-15T10:52:41Z</time>
      </trkpt>
      <trkpt lat="40.4955420" lon="-5.7758250">
        <ele>861.0</ele>
        <time>2021-10-15T10:52:45Z</time>
      </trkpt>
      <trkpt lat="40.4954060" lon="-5.7761380">
        <ele>859.8</ele>
        <time>2021-10-15T10:52:48Z</time>
      </trkpt>
      <trkpt lat="40.4953140" lon="-5.7763560">
        <ele>858.0</ele>
        <time>2021-10-15T10:52:50Z</time>
      </trkpt>
      <trkpt lat="40.4951220" lon="-5.7767930">
        <ele>856.4</ele>
        <time>2021-10-15T10:52:54Z</time>
      </trkpt>
      <trkpt lat="40.4950210" lon="-5.7769910">
        <ele>855.2</ele>
        <time>2021-10-15T10:52:56Z</time>
      </trkpt>
      <trkpt lat="40.4949610" lon="-5.7770760">
        <ele>854.8</ele>
        <time>2021-10-15T10:52:57Z</time>
      </trkpt>
      <trkpt lat="40.4947530" lon="-5.7772820">
        <ele>853.6</ele>
        <time>2021-10-15T10:53:00Z</time>
      </trkpt>
      <trkpt lat="40.4946760" lon="-5.7773410">
        <ele>853.2</ele>
        <time>2021-10-15T10:53:01Z</time>
      </trkpt>
      <trkpt lat="40.4945120" lon="-5.7774450">
        <ele>852.4</ele>
        <time>2021-10-15T10:53:03Z</time>
      </trkpt>
      <trkpt lat="40.4943500" lon="-5.7775440">
        <ele>851.4</ele>
        <time>2021-10-15T10:53:05Z</time>
      </trkpt>
      <trkpt lat="40.4942750" lon="-5.7776080">
        <ele>851.0</ele>
        <time>2021-10-15T10:53:06Z</time>
      </trkpt>
      <trkpt lat="40.4942050" lon="-5.7776850">
        <ele>850.4</ele>
        <time>2021-10-15T10:53:07Z</time>
      </trkpt>
      <trkpt lat="40.4941410" lon="-5.7777710">
        <ele>850.0</ele>
        <time>2021-10-15T10:53:08Z</time>
      </trkpt>
      <trkpt lat="40.4940200" lon="-5.7779580">
        <ele>849.0</ele>
        <time>2021-10-15T10:53:10Z</time>
      </trkpt>
      <trkpt lat="40.4938950" lon="-5.7781520">
        <ele>847.6</ele>
        <time>2021-10-15T10:53:12Z</time>
      </trkpt>
      <trkpt lat="40.4937690" lon="-5.7783520">
        <ele>846.4</ele>
        <time>2021-10-15T10:53:14Z</time>
      </trkpt>
      <trkpt lat="40.4936380" lon="-5.7785510">
        <ele>845.4</ele>
        <time>2021-10-15T10:53:16Z</time>
      </trkpt>
      <trkpt lat="40.4935170" lon="-5.7787540">
        <ele>844.4</ele>
        <time>2021-10-15T10:53:18Z</time>
      </trkpt>
      <trkpt lat="40.4934490" lon="-5.7788450">
        <ele>844.0</ele>
        <time>2021-10-15T10:53:19Z</time>
      </trkpt>
      <trkpt lat="40.4933660" lon="-5.7789210">
        <ele>843.0</ele>
        <time>2021-10-15T10:53:20Z</time>
      </trkpt>
      <trkpt lat="40.4932750" lon="-5.7789820">
        <ele>842.6</ele>
        <time>2021-10-15T10:53:21Z</time>
      </trkpt>
      <trkpt lat="40.4931820" lon="-5.7790340">
        <ele>842.0</ele>
        <time>2021-10-15T10:53:22Z</time>
      </trkpt>
      <trkpt lat="40.4929920" lon="-5.7791330">
        <ele>840.8</ele>
        <time>2021-10-15T10:53:24Z</time>
      </trkpt>
      <trkpt lat="40.4928130" lon="-5.7792330">
        <ele>839.6</ele>
        <time>2021-10-15T10:53:26Z</time>
      </trkpt>
      <trkpt lat="40.4926310" lon="-5.7793260">
        <ele>838.6</ele>
        <time>2021-10-15T10:53:28Z</time>
      </trkpt>
      <trkpt lat="40.4925320" lon="-5.7793610">
        <ele>837.6</ele>
        <time>2021-10-15T10:53:29Z</time>
      </trkpt>
      <trkpt lat="40.4923220" lon="-5.7793910">
        <ele>836.4</ele>
        <time>2021-10-15T10:53:31Z</time>
      </trkpt>
      <trkpt lat="40.4920910" lon="-5.7793950">
        <ele>835.2</ele>
        <time>2021-10-15T10:53:33Z</time>
      </trkpt>
      <trkpt lat="40.4918610" lon="-5.7793970">
        <ele>834.0</ele>
        <time>2021-10-15T10:53:35Z</time>
      </trkpt>
      <trkpt lat="40.4916430" lon="-5.7794160">
        <ele>832.4</ele>
        <time>2021-10-15T10:53:37Z</time>
      </trkpt>
      <trkpt lat="40.4915410" lon="-5.7794490">
        <ele>830.8</ele>
        <time>2021-10-15T10:53:38Z</time>
      </trkpt>
      <trkpt lat="40.4914460" lon="-5.7795060">
        <ele>830.2</ele>
        <time>2021-10-15T10:53:39Z</time>
      </trkpt>
      <trkpt lat="40.4913600" lon="-5.7795810">
        <ele>829.0</ele>
        <time>2021-10-15T10:53:40Z</time>
      </trkpt>
      <trkpt lat="40.4911920" lon="-5.7797490">
        <ele>827.4</ele>
        <time>2021-10-15T10:53:42Z</time>
      </trkpt>
      <trkpt lat="40.4910240" lon="-5.7799120">
        <ele>826.0</ele>
        <time>2021-10-15T10:53:44Z</time>
      </trkpt>
      <trkpt lat="40.4907810" lon="-5.7801610">
        <ele>824.6</ele>
        <time>2021-10-15T10:53:47Z</time>
      </trkpt>
      <trkpt lat="40.4906990" lon="-5.7802380">
        <ele>824.2</ele>
        <time>2021-10-15T10:53:48Z</time>
      </trkpt>
      <trkpt lat="40.4905270" lon="-5.7803570">
        <ele>823.4</ele>
        <time>2021-10-15T10:53:50Z</time>
      </trkpt>
      <trkpt lat="40.4904370" lon="-5.7803970">
        <ele>822.8</ele>
        <time>2021-10-15T10:53:51Z</time>
      </trkpt>
      <trkpt lat="40.4902540" lon="-5.7804510">
        <ele>822.2</ele>
        <time>2021-10-15T10:53:53Z</time>
      </trkpt>
      <trkpt lat="40.4900690" lon="-5.7804940">
        <ele>821.2</ele>
        <time>2021-10-15T10:53:55Z</time>
      </trkpt>
      <trkpt lat="40.4899770" lon="-5.7805200">
        <ele>820.6</ele>
        <time>2021-10-15T10:53:56Z</time>
      </trkpt>
      <trkpt lat="40.4897000" lon="-5.7806010">
        <ele>820.0</ele>
        <time>2021-10-15T10:53:59Z</time>
      </trkpt>
      <trkpt lat="40.4894360" lon="-5.7807060">
        <ele>818.4</ele>
        <time>2021-10-15T10:54:02Z</time>
      </trkpt>
      <trkpt lat="40.4893560" lon="-5.7807510">
        <ele>818.2</ele>
        <time>2021-10-15T10:54:03Z</time>
      </trkpt>
      <trkpt lat="40.4892080" lon="-5.7808500">
        <ele>817.4</ele>
        <time>2021-10-15T10:54:05Z</time>
      </trkpt>
      <trkpt lat="40.4890040" lon="-5.7809980">
        <ele>816.6</ele>
        <time>2021-10-15T10:54:08Z</time>
      </trkpt>
      <trkpt lat="40.4889420" lon="-5.7810450">
        <ele>816.2</ele>
        <time>2021-10-15T10:54:09Z</time>
      </trkpt>
      <trkpt lat="40.4886580" lon="-5.7812610">
        <ele>816.0</ele>
        <time>2021-10-15T10:54:14Z</time>
      </trkpt>
      <trkpt lat="40.4883230" lon="-5.7814980">
        <ele>815.8</ele>
        <time>2021-10-15T10:54:21Z</time>
      </trkpt>
      <trkpt lat="40.4880460" lon="-5.7815980">
        <ele>815.8</ele>
        <time>2021-10-15T10:54:27Z</time>
      </trkpt>
      <trkpt lat="40.4877860" lon="-5.7816220">
        <ele>816.4</ele>
        <time>2021-10-15T10:54:33Z</time>
      </trkpt>
      <trkpt lat="40.4874640" lon="-5.7816060">
        <ele>816.2</ele>
        <time>2021-10-15T10:54:39Z</time>
      </trkpt>
      <trkpt lat="40.4870930" lon="-5.7814940">
        <ele>815.4</ele>
        <time>2021-10-15T10:54:45Z</time>
      </trkpt>
      <trkpt lat="40.4867140" lon="-5.7813600">
        <ele>814.4</ele>
        <time>2021-10-15T10:54:51Z</time>
      </trkpt>
      <trkpt lat="40.4865340" lon="-5.7812960">
        <ele>814.0</ele>
        <time>2021-10-15T10:54:54Z</time>
      </trkpt>
      <trkpt lat="40.4862480" lon="-5.7812000">
        <ele>813.4</ele>
        <time>2021-10-15T10:54:59Z</time>
      </trkpt>
      <trkpt lat="40.4860740" lon="-5.7811610">
        <ele>813.0</ele>
        <time>2021-10-15T10:55:02Z</time>
      </trkpt>
      <trkpt lat="40.4856590" lon="-5.7811970">
        <ele>812.8</ele>
        <time>2021-10-15T10:55:09Z</time>
      </trkpt>
      <trkpt lat="40.4853260" lon="-5.7812450">
        <ele>812.2</ele>
        <time>2021-10-15T10:55:15Z</time>
      </trkpt>
      <trkpt lat="40.4851050" lon="-5.7812960">
        <ele>811.8</ele>
        <time>2021-10-15T10:55:19Z</time>
      </trkpt>
      <trkpt lat="40.4849350" lon="-5.7813220">
        <ele>811.2</ele>
        <time>2021-10-15T10:55:22Z</time>
      </trkpt>
      <trkpt lat="40.4846370" lon="-5.7813570">
        <ele>810.8</ele>
        <time>2021-10-15T10:55:27Z</time>
      </trkpt>
      <trkpt lat="40.4843940" lon="-5.7813950">
        <ele>810.0</ele>
        <time>2021-10-15T10:55:31Z</time>
      </trkpt>
      <trkpt lat="40.4841000" lon="-5.7814310">
        <ele>809.4</ele>
        <time>2021-10-15T10:55:36Z</time>
      </trkpt>
      <trkpt lat="40.4839240" lon="-5.7814450">
        <ele>809.0</ele>
        <time>2021-10-15T10:55:39Z</time>
      </trkpt>
      <trkpt lat="40.4835610" lon="-5.7814390">
        <ele>808.2</ele>
        <time>2021-10-15T10:55:45Z</time>
      </trkpt>
      <trkpt lat="40.4834970" lon="-5.7814380">
        <ele>807.8</ele>
        <time>2021-10-15T10:55:46Z</time>
      </trkpt>
      <trkpt lat="40.4832400" lon="-5.7814300">
        <ele>806.8</ele>
        <time>2021-10-15T10:55:50Z</time>
      </trkpt>
      <trkpt lat="40.4830650" lon="-5.7814300">
        <ele>806.4</ele>
        <time>2021-10-15T10:55:53Z</time>
      </trkpt>
      <trkpt lat="40.4828730" lon="-5.7814190">
        <ele>805.8</ele>
        <time>2021-10-15T10:55:57Z</time>
      </trkpt>
      <trkpt lat="40.4827320" lon="-5.7814150">
        <ele>805.4</ele>
        <time>2021-10-15T10:56:00Z</time>
      </trkpt>
      <trkpt lat="40.4825490" lon="-5.7813630">
        <ele>805.0</ele>
        <time>2021-10-15T10:56:05Z</time>
      </trkpt>
      <trkpt lat="40.4824700" lon="-5.7813430">
        <ele>804.8</ele>
        <time>2021-10-15T10:56:08Z</time>
      </trkpt>
      <trkpt lat="40.4824170" lon="-5.7813300">
        <ele>804.4</ele>
        <time>2021-10-15T10:56:11Z</time>
      </trkpt>
      <trkpt lat="40.4824130" lon="-5.7813280">
        <ele>804.2</ele>
        <time>2021-10-15T10:56:13Z</time>
      </trkpt>
      <trkpt lat="40.4823690" lon="-5.7813010">
        <ele>804.0</ele>
        <time>2021-10-15T10:56:18Z</time>
      </trkpt>
      <trkpt lat="40.4822470" lon="-5.7812190">
        <ele>803.8</ele>
        <time>2021-10-15T10:56:23Z</time>
      </trkpt>
      <trkpt lat="40.4821970" lon="-5.7811870">
        <ele>803.6</ele>
        <time>2021-10-15T10:56:25Z</time>
      </trkpt>
      <trkpt lat="40.4819590" lon="-5.7810240">
        <ele>803.0</ele>
        <time>2021-10-15T10:56:34Z</time>
      </trkpt>
      <trkpt lat="40.4818870" lon="-5.7809460">
        <ele>802.8</ele>
        <time>2021-10-15T10:56:37Z</time>
      </trkpt>
      <trkpt lat="40.4818360" lon="-5.7808400">
        <ele>802.4</ele>
        <time>2021-10-15T10:56:40Z</time>
      </trkpt>
      <trkpt lat="40.4818080" lon="-5.7806830">
        <ele>801.6</ele>
        <time>2021-10-15T10:56:44Z</time>
      </trkpt>
      <trkpt lat="40.4817750" lon="-5.7805130">
        <ele>801.4</ele>
        <time>2021-10-15T10:56:48Z</time>
      </trkpt>
      <trkpt lat="40.4817270" lon="-5.7804060">
        <ele>801.2</ele>
        <time>2021-10-15T10:56:51Z</time>
      </trkpt>
      <trkpt lat="40.4816790" lon="-5.7803270">
        <ele>800.8</ele>
        <time>2021-10-15T10:56:54Z</time>
      </trkpt>
      <trkpt lat="40.4816280" lon="-5.7802110">
        <ele>800.6</ele>
        <time>2021-10-15T10:56:59Z</time>
      </trkpt>
      <trkpt lat="40.4816250" lon="-5.7801960">
        <ele>800.4</ele>
        <time>2021-10-15T10:57:00Z</time>
      </trkpt>
      <trkpt lat="40.4816170" lon="-5.7801810">
        <ele>800.4</ele>
        <time>2021-10-15T10:57:01Z</time>
      </trkpt>
      <trkpt lat="40.4815890" lon="-5.7801750">
        <ele>800.4</ele>
        <time>2021-10-15T10:57:03Z</time>
      </trkpt>
      <trkpt lat="40.4815750" lon="-5.7801810">
        <ele>800.4</ele>
        <time>2021-10-15T10:57:04Z</time>
      </trkpt>
      <trkpt lat="40.4815540" lon="-5.7801930">
        <ele>800.2</ele>
        <time>2021-10-15T10:57:07Z</time>
      </trkpt>
      <trkpt lat="40.4814880" lon="-5.7802010">
        <ele>799.8</ele>
        <time>2021-10-15T10:57:24Z</time>
      </trkpt>
      <trkpt lat="40.4815150" lon="-5.7802370">
        <ele>799.8</ele>
        <time>2021-10-15T10:57:26Z</time>
      </trkpt>
      <trkpt lat="40.4815510" lon="-5.7802360">
        <ele>799.8</ele>
        <time>2021-10-15T10:57:28Z</time>
      </trkpt>
      <trkpt lat="40.4815670" lon="-5.7801790">
        <ele>799.8</ele>
        <time>2021-10-15T10:57:31Z</time>
      </trkpt>
      <trkpt lat="40.4815770" lon="-5.7801660">
        <ele>799.8</ele>
        <time>2021-10-15T10:57:32Z</time>
      </trkpt>
      <trkpt lat="40.4815920" lon="-5.7802140">
        <ele>799.8</ele>
        <time>2021-10-15T10:57:35Z</time>
      </trkpt>
      <trkpt lat="40.4815800" lon="-5.7802360">
        <ele>799.8</ele>
        <time>2021-10-15T10:57:36Z</time>
      </trkpt>
      <trkpt lat="40.4815100" lon="-5.7803110">
        <ele>799.8</ele>
        <time>2021-10-15T10:57:40Z</time>
      </trkpt>
      <trkpt lat="40.4814950" lon="-5.7803320">
        <ele>799.8</ele>
        <time>2021-10-15T10:57:41Z</time>
      </trkpt>
      <trkpt lat="40.4814390" lon="-5.7804270">
        <ele>799.8</ele>
        <time>2021-10-15T10:57:45Z</time>
      </trkpt>
      <trkpt lat="40.4814080" lon="-5.7805100">
        <ele>799.8</ele>
        <time>2021-10-15T10:57:48Z</time>
      </trkpt>
      <trkpt lat="40.4813870" lon="-5.7806200">
        <ele>800.0</ele>
        <time>2021-10-15T10:57:52Z</time>
      </trkpt>
      <trkpt lat="40.4813960" lon="-5.7806410">
        <ele>800.0</ele>
        <time>2021-10-15T10:57:53Z</time>
      </trkpt>
      <trkpt lat="40.4815080" lon="-5.7807180">
        <ele>800.0</ele>
        <time>2021-10-15T10:57:58Z</time>
      </trkpt>
      <trkpt lat="40.4815910" lon="-5.7807960">
        <ele>800.4</ele>
        <time>2021-10-15T10:58:02Z</time>
      </trkpt>
      <trkpt lat="40.4815890" lon="-5.7808240">
        <ele>800.4</ele>
        <time>2021-10-15T10:58:03Z</time>
      </trkpt>
      <trkpt lat="40.4815760" lon="-5.7808490">
        <ele>800.4</ele>
        <time>2021-10-15T10:58:04Z</time>
      </trkpt>
      <trkpt lat="40.4815260" lon="-5.7809080">
        <ele>800.6</ele>
        <time>2021-10-15T10:58:07Z</time>
      </trkpt>
      <trkpt lat="40.4815020" lon="-5.7809770">
        <ele>800.8</ele>
        <time>2021-10-15T10:58:10Z</time>
      </trkpt>
      <trkpt lat="40.4814890" lon="-5.7809890">
        <ele>800.8</ele>
        <time>2021-10-15T10:58:11Z</time>
      </trkpt>
      <trkpt lat="40.4814820" lon="-5.7809920">
        <ele>801.0</ele>
        <time>2021-10-15T10:58:13Z</time>
      </trkpt>
      <trkpt lat="40.4814380" lon="-5.7810190">
        <ele>801.0</ele>
        <time>2021-10-15T10:58:22Z</time>
      </trkpt>
      <trkpt lat="40.4813170" lon="-5.7811150">
        <ele>801.0</ele>
        <time>2021-10-15T10:58:29Z</time>
      </trkpt>
      <trkpt lat="40.4811910" lon="-5.7811380">
        <ele>801.4</ele>
        <time>2021-10-15T10:58:34Z</time>
      </trkpt>
      <trkpt lat="40.4811660" lon="-5.7811280">
        <ele>801.4</ele>
        <time>2021-10-15T10:58:35Z</time>
      </trkpt>
      <trkpt lat="40.4810300" lon="-5.7809820">
        <ele>801.6</ele>
        <time>2021-10-15T10:58:42Z</time>
      </trkpt>
      <trkpt lat="40.4809710" lon="-5.7809430">
        <ele>801.4</ele>
        <time>2021-10-15T10:58:45Z</time>
      </trkpt>
      <trkpt lat="40.4809490" lon="-5.7809470">
        <ele>801.4</ele>
        <time>2021-10-15T10:58:46Z</time>
      </trkpt>
      <trkpt lat="40.4809060" lon="-5.7810100">
        <ele>801.2</ele>
        <time>2021-10-15T10:58:49Z</time>
      </trkpt>
      <trkpt lat="40.4808670" lon="-5.7810560">
        <ele>801.2</ele>
        <time>2021-10-15T10:58:51Z</time>
      </trkpt>
      <trkpt lat="40.4807640" lon="-5.7812140">
        <ele>801.2</ele>
        <time>2021-10-15T10:58:56Z</time>
      </trkpt>
      <trkpt lat="40.4806830" lon="-5.7814530">
        <ele>801.0</ele>
        <time>2021-10-15T10:59:02Z</time>
      </trkpt>
      <trkpt lat="40.4806750" lon="-5.7815240">
        <ele>800.8</ele>
        <time>2021-10-15T10:59:04Z</time>
      </trkpt>
      <trkpt lat="40.4806780" lon="-5.7815510">
        <ele>800.8</ele>
        <time>2021-10-15T10:59:05Z</time>
      </trkpt>
      <trkpt lat="40.4806830" lon="-5.7815780">
        <ele>800.8</ele>
        <time>2021-10-15T10:59:07Z</time>
      </trkpt>
      <trkpt lat="40.4806780" lon="-5.7815920">
        <ele>800.8</ele>
        <time>2021-10-15T10:59:08Z</time>
      </trkpt>
      <trkpt lat="40.4806130" lon="-5.7817170">
        <ele>800.6</ele>
        <time>2021-10-15T10:59:14Z</time>
      </trkpt>
      <trkpt lat="40.4805980" lon="-5.7817410">
        <ele>800.6</ele>
        <time>2021-10-15T10:59:15Z</time>
      </trkpt>
      <trkpt lat="40.4805180" lon="-5.7817750">
        <ele>800.4</ele>
        <time>2021-10-15T10:59:19Z</time>
      </trkpt>
      <trkpt lat="40.4804980" lon="-5.7817730">
        <ele>800.4</ele>
        <time>2021-10-15T10:59:20Z</time>
      </trkpt>
      <trkpt lat="40.4804720" lon="-5.7817720">
        <ele>800.0</ele>
        <time>2021-10-15T10:59:24Z</time>
      </trkpt>
      <trkpt lat="40.4804720" lon="-5.7817720">
        <ele>800.0</ele>
        <time>2021-10-15T10:59:25Z</time>
      </trkpt>
      <trkpt lat="40.4805570" lon="-5.7819170">
        <ele>800.0</ele>
        <time>2021-10-15T11:00:34Z</time>
      </trkpt>
      <trkpt lat="40.4805530" lon="-5.7819780">
        <ele>800.0</ele>
        <time>2021-10-15T11:00:36Z</time>
      </trkpt>
      <trkpt lat="40.4804980" lon="-5.7821820">
        <ele>800.0</ele>
        <time>2021-10-15T11:00:42Z</time>
      </trkpt>
      <trkpt lat="40.4804670" lon="-5.7824170">
        <ele>800.2</ele>
        <time>2021-10-15T11:00:49Z</time>
      </trkpt>
      <trkpt lat="40.4804030" lon="-5.7826370">
        <ele>800.0</ele>
        <time>2021-10-15T11:00:56Z</time>
      </trkpt>
      <trkpt lat="40.4803630" lon="-5.7827630">
        <ele>799.8</ele>
        <time>2021-10-15T11:01:00Z</time>
      </trkpt>
      <trkpt lat="40.4803120" lon="-5.7830220">
        <ele>799.4</ele>
        <time>2021-10-15T11:01:07Z</time>
      </trkpt>
      <trkpt lat="40.4802870" lon="-5.7832550">
        <ele>799.2</ele>
        <time>2021-10-15T11:01:13Z</time>
      </trkpt>
      <trkpt lat="40.4802760" lon="-5.7832980">
        <ele>799.2</ele>
        <time>2021-10-15T11:01:14Z</time>
      </trkpt>
      <trkpt lat="40.4802150" lon="-5.7835340">
        <ele>798.8</ele>
        <time>2021-10-15T11:01:20Z</time>
      </trkpt>
      <trkpt lat="40.4801810" lon="-5.7836550">
        <ele>798.8</ele>
        <time>2021-10-15T11:01:23Z</time>
      </trkpt>
      <trkpt lat="40.4801060" lon="-5.7838700">
        <ele>798.4</ele>
        <time>2021-10-15T11:01:28Z</time>
      </trkpt>
      <trkpt lat="40.4800760" lon="-5.7839890">
        <ele>798.2</ele>
        <time>2021-10-15T11:01:31Z</time>
      </trkpt>
      <trkpt lat="40.4800400" lon="-5.7843080">
        <ele>797.2</ele>
        <time>2021-10-15T11:01:38Z</time>
      </trkpt>
      <trkpt lat="40.4799950" lon="-5.7846280">
        <ele>797.0</ele>
        <time>2021-10-15T11:01:43Z</time>
      </trkpt>
      <trkpt lat="40.4799310" lon="-5.7850600">
        <ele>796.2</ele>
        <time>2021-10-15T11:01:48Z</time>
      </trkpt>
      <trkpt lat="40.4799270" lon="-5.7851370">
        <ele>795.6</ele>
        <time>2021-10-15T11:01:49Z</time>
      </trkpt>
      <trkpt lat="40.4799160" lon="-5.7853160">
        <ele>794.6</ele>
        <time>2021-10-15T11:01:51Z</time>
      </trkpt>
      <trkpt lat="40.4799070" lon="-5.7853960">
        <ele>794.4</ele>
        <time>2021-10-15T11:01:52Z</time>
      </trkpt>
      <trkpt lat="40.4798680" lon="-5.7855460">
        <ele>794.0</ele>
        <time>2021-10-15T11:01:54Z</time>
      </trkpt>
      <trkpt lat="40.4797990" lon="-5.7856450">
        <ele>793.6</ele>
        <time>2021-10-15T11:01:56Z</time>
      </trkpt>
      <trkpt lat="40.4797650" lon="-5.7856820">
        <ele>793.2</ele>
        <time>2021-10-15T11:01:57Z</time>
      </trkpt>
      <trkpt lat="40.4795300" lon="-5.7859490">
        <ele>793.2</ele>
        <time>2021-10-15T11:02:05Z</time>
      </trkpt>
      <trkpt lat="40.4793440" lon="-5.7861820">
        <ele>794.6</ele>
        <time>2021-10-15T11:02:13Z</time>
      </trkpt>
      <trkpt lat="40.4793020" lon="-5.7862310">
        <ele>794.8</ele>
        <time>2021-10-15T11:02:15Z</time>
      </trkpt>
      <trkpt lat="40.4791650" lon="-5.7863730">
        <ele>795.8</ele>
        <time>2021-10-15T11:02:21Z</time>
      </trkpt>
      <trkpt lat="40.4791070" lon="-5.7864390">
        <ele>796.0</ele>
        <time>2021-10-15T11:02:24Z</time>
      </trkpt>
      <trkpt lat="40.4789790" lon="-5.7865740">
        <ele>796.6</ele>
        <time>2021-10-15T11:02:30Z</time>
      </trkpt>
      <trkpt lat="40.4788430" lon="-5.7867040">
        <ele>797.0</ele>
        <time>2021-10-15T11:02:35Z</time>
      </trkpt>
      <trkpt lat="40.4788120" lon="-5.7867330">
        <ele>797.0</ele>
        <time>2021-10-15T11:02:36Z</time>
      </trkpt>
      <trkpt lat="40.4785460" lon="-5.7869730">
        <ele>796.8</ele>
        <time>2021-10-15T11:02:44Z</time>
      </trkpt>
      <trkpt lat="40.4783440" lon="-5.7871340">
        <ele>796.4</ele>
        <time>2021-10-15T11:02:49Z</time>
      </trkpt>
      <trkpt lat="40.4783070" lon="-5.7871670">
        <ele>796.4</ele>
        <time>2021-10-15T11:02:50Z</time>
      </trkpt>
      <trkpt lat="40.4779750" lon="-5.7874180">
        <ele>795.6</ele>
        <time>2021-10-15T11:02:58Z</time>
      </trkpt>
      <trkpt lat="40.4778190" lon="-5.7875350">
        <ele>795.0</ele>
        <time>2021-10-15T11:03:02Z</time>
      </trkpt>
      <trkpt lat="40.4777000" lon="-5.7876140">
        <ele>794.8</ele>
        <time>2021-10-15T11:03:05Z</time>
      </trkpt>
      <trkpt lat="40.4774800" lon="-5.7877200">
        <ele>794.4</ele>
        <time>2021-10-15T11:03:10Z</time>
      </trkpt>
      <trkpt lat="40.4773880" lon="-5.7877540">
        <ele>794.4</ele>
        <time>2021-10-15T11:03:12Z</time>
      </trkpt>
      <trkpt lat="40.4772630" lon="-5.7878270">
        <ele>793.8</ele>
        <time>2021-10-15T11:03:15Z</time>
      </trkpt>
      <trkpt lat="40.4771470" lon="-5.7879210">
        <ele>793.4</ele>
        <time>2021-10-15T11:03:18Z</time>
      </trkpt>
      <trkpt lat="40.4769270" lon="-5.7881080">
        <ele>792.8</ele>
        <time>2021-10-15T11:03:23Z</time>
      </trkpt>
      <trkpt lat="40.4768850" lon="-5.7881500">
        <ele>792.6</ele>
        <time>2021-10-15T11:03:24Z</time>
      </trkpt>
      <trkpt lat="40.4768450" lon="-5.7881920">
        <ele>792.6</ele>
        <time>2021-10-15T11:03:25Z</time>
      </trkpt>
      <trkpt lat="40.4768040" lon="-5.7882350">
        <ele>792.4</ele>
        <time>2021-10-15T11:03:26Z</time>
      </trkpt>
      <trkpt lat="40.4767620" lon="-5.7882780">
        <ele>792.2</ele>
        <time>2021-10-15T11:03:27Z</time>
      </trkpt>
      <trkpt lat="40.4766230" lon="-5.7884100">
        <ele>791.6</ele>
        <time>2021-10-15T11:03:30Z</time>
      </trkpt>
      <trkpt lat="40.4765210" lon="-5.7884980">
        <ele>791.2</ele>
        <time>2021-10-15T11:03:32Z</time>
      </trkpt>
      <trkpt lat="40.4764130" lon="-5.7885870">
        <ele>790.4</ele>
        <time>2021-10-15T11:03:34Z</time>
      </trkpt>
      <trkpt lat="40.4762950" lon="-5.7886710">
        <ele>789.4</ele>
        <time>2021-10-15T11:03:36Z</time>
      </trkpt>
      <trkpt lat="40.4762380" lon="-5.7887190">
        <ele>788.8</ele>
        <time>2021-10-15T11:03:37Z</time>
      </trkpt>
      <trkpt lat="40.4760130" lon="-5.7889060">
        <ele>787.8</ele>
        <time>2021-10-15T11:03:41Z</time>
      </trkpt>
      <trkpt lat="40.4758370" lon="-5.7890470">
        <ele>786.8</ele>
        <time>2021-10-15T11:03:44Z</time>
      </trkpt>
      <trkpt lat="40.4757220" lon="-5.7891480">
        <ele>786.4</ele>
        <time>2021-10-15T11:03:46Z</time>
      </trkpt>
      <trkpt lat="40.4756070" lon="-5.7892490">
        <ele>785.6</ele>
        <time>2021-10-15T11:03:48Z</time>
      </trkpt>
      <trkpt lat="40.4753720" lon="-5.7894600">
        <ele>784.2</ele>
        <time>2021-10-15T11:03:52Z</time>
      </trkpt>
      <trkpt lat="40.4752600" lon="-5.7895530">
        <ele>783.2</ele>
        <time>2021-10-15T11:03:54Z</time>
      </trkpt>
      <trkpt lat="40.4752090" lon="-5.7895940">
        <ele>782.8</ele>
        <time>2021-10-15T11:03:55Z</time>
      </trkpt>
      <trkpt lat="40.4751080" lon="-5.7896710">
        <ele>782.0</ele>
        <time>2021-10-15T11:03:57Z</time>
      </trkpt>
      <trkpt lat="40.4750600" lon="-5.7897060">
        <ele>781.8</ele>
        <time>2021-10-15T11:03:58Z</time>
      </trkpt>
      <trkpt lat="40.4749240" lon="-5.7898160">
        <ele>781.0</ele>
        <time>2021-10-15T11:04:01Z</time>
      </trkpt>
      <trkpt lat="40.4748850" lon="-5.7898500">
        <ele>781.0</ele>
        <time>2021-10-15T11:04:02Z</time>
      </trkpt>
      <trkpt lat="40.4746930" lon="-5.7900110">
        <ele>781.0</ele>
        <time>2021-10-15T11:04:07Z</time>
      </trkpt>
      <trkpt lat="40.4744320" lon="-5.7902400">
        <ele>780.8</ele>
        <time>2021-10-15T11:04:14Z</time>
      </trkpt>
      <trkpt lat="40.4743600" lon="-5.7902920">
        <ele>780.8</ele>
        <time>2021-10-15T11:04:16Z</time>
      </trkpt>
      <trkpt lat="40.4742210" lon="-5.7903740">
        <ele>780.6</ele>
        <time>2021-10-15T11:04:20Z</time>
      </trkpt>
      <trkpt lat="40.4739200" lon="-5.7905200">
        <ele>780.6</ele>
        <time>2021-10-15T11:04:28Z</time>
      </trkpt>
      <trkpt lat="40.4736220" lon="-5.7906180">
        <ele>781.0</ele>
        <time>2021-10-15T11:04:36Z</time>
      </trkpt>
      <trkpt lat="40.4733060" lon="-5.7907570">
        <ele>782.2</ele>
        <time>2021-10-15T11:04:46Z</time>
      </trkpt>
      <trkpt lat="40.4732740" lon="-5.7907710">
        <ele>782.2</ele>
        <time>2021-10-15T11:04:47Z</time>
      </trkpt>
      <trkpt lat="40.4730120" lon="-5.7909020">
        <ele>783.2</ele>
        <time>2021-10-15T11:04:56Z</time>
      </trkpt>
      <trkpt lat="40.4729860" lon="-5.7909200">
        <ele>783.4</ele>
        <time>2021-10-15T11:04:57Z</time>
      </trkpt>
      <trkpt lat="40.4728260" lon="-5.7910290">
        <ele>783.6</ele>
        <time>2021-10-15T11:05:04Z</time>
      </trkpt>
      <trkpt lat="40.4726530" lon="-5.7911130">
        <ele>784.2</ele>
        <time>2021-10-15T11:05:12Z</time>
      </trkpt>
      <trkpt lat="40.4726320" lon="-5.7911200">
        <ele>784.2</ele>
        <time>2021-10-15T11:05:13Z</time>
      </trkpt>
      <trkpt lat="40.4726110" lon="-5.7911320">
        <ele>784.2</ele>
        <time>2021-10-15T11:05:14Z</time>
      </trkpt>
      <trkpt lat="40.4725440" lon="-5.7911670">
        <ele>784.6</ele>
        <time>2021-10-15T11:05:17Z</time>
      </trkpt>
      <trkpt lat="40.4724820" lon="-5.7911970">
        <ele>784.6</ele>
        <time>2021-10-15T11:05:20Z</time>
      </trkpt>
      <trkpt lat="40.4724370" lon="-5.7912130">
        <ele>784.8</ele>
        <time>2021-10-15T11:05:22Z</time>
      </trkpt>
      <trkpt lat="40.4723040" lon="-5.7912810">
        <ele>785.4</ele>
        <time>2021-10-15T11:05:28Z</time>
      </trkpt>
      <trkpt lat="40.4722620" lon="-5.7913070">
        <ele>785.4</ele>
        <time>2021-10-15T11:05:30Z</time>
      </trkpt>
      <trkpt lat="40.4721220" lon="-5.7914080">
        <ele>785.8</ele>
        <time>2021-10-15T11:05:36Z</time>
      </trkpt>
      <trkpt lat="40.4719910" lon="-5.7914720">
        <ele>786.0</ele>
        <time>2021-10-15T11:05:41Z</time>
      </trkpt>
      <trkpt lat="40.4718530" lon="-5.7915130">
        <ele>786.0</ele>
        <time>2021-10-15T11:05:46Z</time>
      </trkpt>
      <trkpt lat="40.4716830" lon="-5.7915810">
        <ele>786.0</ele>
        <time>2021-10-15T11:05:52Z</time>
      </trkpt>
      <trkpt lat="40.4716570" lon="-5.7915930">
        <ele>786.0</ele>
        <time>2021-10-15T11:05:53Z</time>
      </trkpt>
      <trkpt lat="40.4715580" lon="-5.7916440">
        <ele>786.2</ele>
        <time>2021-10-15T11:05:57Z</time>
      </trkpt>
      <trkpt lat="40.4715180" lon="-5.7916740">
        <ele>786.4</ele>
        <time>2021-10-15T11:05:59Z</time>
      </trkpt>
      <trkpt lat="40.4714600" lon="-5.7917150">
        <ele>786.6</ele>
        <time>2021-10-15T11:06:02Z</time>
      </trkpt>
      <trkpt lat="40.4713240" lon="-5.7917830">
        <ele>787.6</ele>
        <time>2021-10-15T11:06:09Z</time>
      </trkpt>
      <trkpt lat="40.4711910" lon="-5.7918530">
        <ele>788.4</ele>
        <time>2021-10-15T11:06:16Z</time>
      </trkpt>
      <trkpt lat="40.4711720" lon="-5.7918650">
        <ele>788.8</ele>
        <time>2021-10-15T11:06:17Z</time>
      </trkpt>
      <trkpt lat="40.4710600" lon="-5.7919400">
        <ele>789.2</ele>
        <time>2021-10-15T11:06:23Z</time>
      </trkpt>
      <trkpt lat="40.4708540" lon="-5.7920390">
        <ele>789.8</ele>
        <time>2021-10-15T11:06:32Z</time>
      </trkpt>
      <trkpt lat="40.4708040" lon="-5.7920660">
        <ele>789.8</ele>
        <time>2021-10-15T11:06:34Z</time>
      </trkpt>
      <trkpt lat="40.4707300" lon="-5.7921000">
        <ele>790.0</ele>
        <time>2021-10-15T11:06:37Z</time>
      </trkpt>
      <trkpt lat="40.4705640" lon="-5.7921880">
        <ele>790.0</ele>
        <time>2021-10-15T11:06:43Z</time>
      </trkpt>
      <trkpt lat="40.4703510" lon="-5.7923000">
        <ele>789.8</ele>
        <time>2021-10-15T11:06:50Z</time>
      </trkpt>
      <trkpt lat="40.4700830" lon="-5.7924480">
        <ele>790.0</ele>
        <time>2021-10-15T11:06:59Z</time>
      </trkpt>
      <trkpt lat="40.4699200" lon="-5.7925220">
        <ele>790.4</ele>
        <time>2021-10-15T11:07:05Z</time>
      </trkpt>
      <trkpt lat="40.4697930" lon="-5.7925940">
        <ele>790.8</ele>
        <time>2021-10-15T11:07:10Z</time>
      </trkpt>
      <trkpt lat="40.4697670" lon="-5.7926060">
        <ele>790.8</ele>
        <time>2021-10-15T11:07:11Z</time>
      </trkpt>
      <trkpt lat="40.4695530" lon="-5.7926790">
        <ele>791.2</ele>
        <time>2021-10-15T11:07:19Z</time>
      </trkpt>
      <trkpt lat="40.4692930" lon="-5.7927460">
        <ele>791.4</ele>
        <time>2021-10-15T11:07:28Z</time>
      </trkpt>
      <trkpt lat="40.4690410" lon="-5.7928460">
        <ele>791.0</ele>
        <time>2021-10-15T11:07:36Z</time>
      </trkpt>
      <trkpt lat="40.4689100" lon="-5.7929430">
        <ele>791.0</ele>
        <time>2021-10-15T11:07:39Z</time>
      </trkpt>
      <trkpt lat="40.4688550" lon="-5.7929810">
        <ele>790.8</ele>
        <time>2021-10-15T11:07:40Z</time>
      </trkpt>
      <trkpt lat="40.4687970" lon="-5.7930150">
        <ele>790.6</ele>
        <time>2021-10-15T11:07:41Z</time>
      </trkpt>
      <trkpt lat="40.4686670" lon="-5.7930690">
        <ele>789.8</ele>
        <time>2021-10-15T11:07:43Z</time>
      </trkpt>
      <trkpt lat="40.4685990" lon="-5.7930850">
        <ele>789.4</ele>
        <time>2021-10-15T11:07:44Z</time>
      </trkpt>
      <trkpt lat="40.4685300" lon="-5.7930980">
        <ele>788.6</ele>
        <time>2021-10-15T11:07:45Z</time>
      </trkpt>
      <trkpt lat="40.4683140" lon="-5.7931340">
        <ele>787.4</ele>
        <time>2021-10-15T11:07:48Z</time>
      </trkpt>
      <trkpt lat="40.4682420" lon="-5.7931510">
        <ele>787.0</ele>
        <time>2021-10-15T11:07:49Z</time>
      </trkpt>
      <trkpt lat="40.4681750" lon="-5.7931790">
        <ele>786.6</ele>
        <time>2021-10-15T11:07:50Z</time>
      </trkpt>
      <trkpt lat="40.4681080" lon="-5.7932170">
        <ele>786.0</ele>
        <time>2021-10-15T11:07:51Z</time>
      </trkpt>
      <trkpt lat="40.4680480" lon="-5.7932630">
        <ele>785.0</ele>
        <time>2021-10-15T11:07:52Z</time>
      </trkpt>
      <trkpt lat="40.4679290" lon="-5.7933580">
        <ele>783.8</ele>
        <time>2021-10-15T11:07:54Z</time>
      </trkpt>
      <trkpt lat="40.4677970" lon="-5.7934060">
        <ele>782.4</ele>
        <time>2021-10-15T11:07:56Z</time>
      </trkpt>
      <trkpt lat="40.4676800" lon="-5.7934350">
        <ele>781.4</ele>
        <time>2021-10-15T11:07:58Z</time>
      </trkpt>
      <trkpt lat="40.4676300" lon="-5.7934460">
        <ele>781.2</ele>
        <time>2021-10-15T11:07:59Z</time>
      </trkpt>
      <trkpt lat="40.4675040" lon="-5.7934750">
        <ele>780.0</ele>
        <time>2021-10-15T11:08:02Z</time>
      </trkpt>
      <trkpt lat="40.4673760" lon="-5.7934870">
        <ele>779.2</ele>
        <time>2021-10-15T11:08:05Z</time>
      </trkpt>
      <trkpt lat="40.4672990" lon="-5.7935300">
        <ele>778.8</ele>
        <time>2021-10-15T11:08:07Z</time>
      </trkpt>
      <trkpt lat="40.4672660" lon="-5.7935560">
        <ele>778.8</ele>
        <time>2021-10-15T11:08:08Z</time>
      </trkpt>
      <trkpt lat="40.4671180" lon="-5.7936980">
        <ele>778.0</ele>
        <time>2021-10-15T11:08:13Z</time>
      </trkpt>
      <trkpt lat="40.4670860" lon="-5.7937270">
        <ele>777.8</ele>
        <time>2021-10-15T11:08:14Z</time>
      </trkpt>
      <trkpt lat="40.4668930" lon="-5.7938820">
        <ele>777.6</ele>
        <time>2021-10-15T11:08:19Z</time>
      </trkpt>
      <trkpt lat="40.4665360" lon="-5.7941720">
        <ele>777.2</ele>
        <time>2021-10-15T11:08:27Z</time>
      </trkpt>
      <trkpt lat="40.4662310" lon="-5.7944210">
        <ele>776.8</ele>
        <time>2021-10-15T11:08:34Z</time>
      </trkpt>
      <trkpt lat="40.4661030" lon="-5.7945190">
        <ele>776.8</ele>
        <time>2021-10-15T11:08:37Z</time>
      </trkpt>
      <trkpt lat="40.4660630" lon="-5.7945520">
        <ele>776.8</ele>
        <time>2021-10-15T11:08:38Z</time>
      </trkpt>
      <trkpt lat="40.4659280" lon="-5.7946600">
        <ele>776.6</ele>
        <time>2021-10-15T11:08:42Z</time>
      </trkpt>
      <trkpt lat="40.4658460" lon="-5.7946710">
        <ele>776.6</ele>
        <time>2021-10-15T11:08:44Z</time>
      </trkpt>
      <trkpt lat="40.4657560" lon="-5.7946640">
        <ele>776.6</ele>
        <time>2021-10-15T11:08:46Z</time>
      </trkpt>
      <trkpt lat="40.4654450" lon="-5.7946870">
        <ele>775.8</ele>
        <time>2021-10-15T11:08:52Z</time>
      </trkpt>
      <trkpt lat="40.4653970" lon="-5.7946940">
        <ele>775.6</ele>
        <time>2021-10-15T11:08:53Z</time>
      </trkpt>
      <trkpt lat="40.4651450" lon="-5.7947190">
        <ele>775.4</ele>
        <time>2021-10-15T11:08:58Z</time>
      </trkpt>
      <trkpt lat="40.4647580" lon="-5.7947740">
        <ele>774.8</ele>
        <time>2021-10-15T11:09:06Z</time>
      </trkpt>
      <trkpt lat="40.4645840" lon="-5.7947740">
        <ele>774.6</ele>
        <time>2021-10-15T11:09:09Z</time>
      </trkpt>
      <trkpt lat="40.4644690" lon="-5.7947690">
        <ele>774.2</ele>
        <time>2021-10-15T11:09:11Z</time>
      </trkpt>
      <trkpt lat="40.4643660" lon="-5.7947460">
        <ele>773.2</ele>
        <time>2021-10-15T11:09:14Z</time>
      </trkpt>
      <trkpt lat="40.4643590" lon="-5.7947410">
        <ele>772.4</ele>
        <time>2021-10-15T11:09:17Z</time>
      </trkpt>
      <trkpt lat="40.4641630" lon="-5.7947080">
        <ele>772.6</ele>
        <time>2021-10-15T11:09:37Z</time>
      </trkpt>
      <trkpt lat="40.4641200" lon="-5.7946910">
        <ele>772.6</ele>
        <time>2021-10-15T11:09:39Z</time>
      </trkpt>
      <trkpt lat="40.4640970" lon="-5.7946870">
        <ele>772.8</ele>
        <time>2021-10-15T11:09:40Z</time>
      </trkpt>
      <trkpt lat="40.4639770" lon="-5.7946650">
        <ele>773.2</ele>
        <time>2021-10-15T11:09:45Z</time>
      </trkpt>
      <trkpt lat="40.4639200" lon="-5.7946670">
        <ele>773.2</ele>
        <time>2021-10-15T11:09:47Z</time>
      </trkpt>
      <trkpt lat="40.4637560" lon="-5.7947290">
        <ele>773.2</ele>
        <time>2021-10-15T11:09:52Z</time>
      </trkpt>
      <trkpt lat="40.4637170" lon="-5.7947390">
        <ele>773.2</ele>
        <time>2021-10-15T11:09:53Z</time>
      </trkpt>
      <trkpt lat="40.4634670" lon="-5.7947330">
        <ele>773.0</ele>
        <time>2021-10-15T11:09:59Z</time>
      </trkpt>
      <trkpt lat="40.4632010" lon="-5.7947300">
        <ele>773.0</ele>
        <time>2021-10-15T11:10:05Z</time>
      </trkpt>
      <trkpt lat="40.4631560" lon="-5.7947390">
        <ele>773.0</ele>
        <time>2021-10-15T11:10:06Z</time>
      </trkpt>
      <trkpt lat="40.4630110" lon="-5.7947730">
        <ele>772.8</ele>
        <time>2021-10-15T11:10:09Z</time>
      </trkpt>
      <trkpt lat="40.4628090" lon="-5.7948110">
        <ele>772.8</ele>
        <time>2021-10-15T11:10:13Z</time>
      </trkpt>
      <trkpt lat="40.4627260" lon="-5.7948620">
        <ele>772.8</ele>
        <time>2021-10-15T11:10:15Z</time>
      </trkpt>
      <trkpt lat="40.4625640" lon="-5.7949540">
        <ele>772.8</ele>
        <time>2021-10-15T11:10:19Z</time>
      </trkpt>
      <trkpt lat="40.4624290" lon="-5.7950240">
        <ele>773.4</ele>
        <time>2021-10-15T11:10:23Z</time>
      </trkpt>
      <trkpt lat="40.4624010" lon="-5.7950400">
        <ele>773.6</ele>
        <time>2021-10-15T11:10:24Z</time>
      </trkpt>
      <trkpt lat="40.4622460" lon="-5.7951180">
        <ele>774.4</ele>
        <time>2021-10-15T11:10:29Z</time>
      </trkpt>
      <trkpt lat="40.4622130" lon="-5.7951350">
        <ele>774.4</ele>
        <time>2021-10-15T11:10:30Z</time>
      </trkpt>
      <trkpt lat="40.4621070" lon="-5.7951890">
        <ele>774.6</ele>
        <time>2021-10-15T11:10:33Z</time>
      </trkpt>
      <trkpt lat="40.4618330" lon="-5.7953590">
        <ele>774.6</ele>
        <time>2021-10-15T11:10:40Z</time>
      </trkpt>
      <trkpt lat="40.4617550" lon="-5.7953970">
        <ele>774.6</ele>
        <time>2021-10-15T11:10:42Z</time>
      </trkpt>
      <trkpt lat="40.4616710" lon="-5.7954320">
        <ele>774.6</ele>
        <time>2021-10-15T11:10:44Z</time>
      </trkpt>
      <trkpt lat="40.4613660" lon="-5.7955000">
        <ele>774.4</ele>
        <time>2021-10-15T11:10:51Z</time>
      </trkpt>
      <trkpt lat="40.4611980" lon="-5.7955410">
        <ele>774.2</ele>
        <time>2021-10-15T11:10:55Z</time>
      </trkpt>
      <trkpt lat="40.4610470" lon="-5.7955890">
        <ele>774.2</ele>
        <time>2021-10-15T11:10:59Z</time>
      </trkpt>
      <trkpt lat="40.4607070" lon="-5.7957050">
        <ele>774.4</ele>
        <time>2021-10-15T11:11:08Z</time>
      </trkpt>
      <trkpt lat="40.4604710" lon="-5.7957960">
        <ele>774.2</ele>
        <time>2021-10-15T11:11:14Z</time>
      </trkpt>
      <trkpt lat="40.4601760" lon="-5.7958780">
        <ele>774.2</ele>
        <time>2021-10-15T11:11:21Z</time>
      </trkpt>
      <trkpt lat="40.4598600" lon="-5.7960000">
        <ele>774.2</ele>
        <time>2021-10-15T11:11:29Z</time>
      </trkpt>
      <trkpt lat="40.4595390" lon="-5.7960780">
        <ele>774.2</ele>
        <time>2021-10-15T11:11:37Z</time>
      </trkpt>
      <trkpt lat="40.4591780" lon="-5.7962300">
        <ele>774.2</ele>
        <time>2021-10-15T11:11:46Z</time>
      </trkpt>
      <trkpt lat="40.4589580" lon="-5.7962880">
        <ele>774.0</ele>
        <time>2021-10-15T11:11:51Z</time>
      </trkpt>
      <trkpt lat="40.4588670" lon="-5.7963170">
        <ele>773.8</ele>
        <time>2021-10-15T11:11:53Z</time>
      </trkpt>
      <trkpt lat="40.4586110" lon="-5.7964090">
        <ele>773.8</ele>
        <time>2021-10-15T11:12:00Z</time>
      </trkpt>
      <trkpt lat="40.4583860" lon="-5.7964830">
        <ele>774.2</ele>
        <time>2021-10-15T11:12:06Z</time>
      </trkpt>
      <trkpt lat="40.4583140" lon="-5.7965070">
        <ele>774.4</ele>
        <time>2021-10-15T11:12:08Z</time>
      </trkpt>
      <trkpt lat="40.4579300" lon="-5.7966240">
        <ele>774.6</ele>
        <time>2021-10-15T11:12:17Z</time>
      </trkpt>
      <trkpt lat="40.4575340" lon="-5.7967460">
        <ele>774.6</ele>
        <time>2021-10-15T11:12:26Z</time>
      </trkpt>
      <trkpt lat="40.4571990" lon="-5.7968470">
        <ele>775.2</ele>
        <time>2021-10-15T11:12:34Z</time>
      </trkpt>
      <trkpt lat="40.4570140" lon="-5.7969090">
        <ele>775.8</ele>
        <time>2021-10-15T11:12:39Z</time>
      </trkpt>
      <trkpt lat="40.4569000" lon="-5.7969280">
        <ele>776.0</ele>
        <time>2021-10-15T11:12:42Z</time>
      </trkpt>
      <trkpt lat="40.4567160" lon="-5.7969880">
        <ele>776.6</ele>
        <time>2021-10-15T11:12:47Z</time>
      </trkpt>
      <trkpt lat="40.4566830" lon="-5.7969970">
        <ele>776.8</ele>
        <time>2021-10-15T11:12:48Z</time>
      </trkpt>
      <trkpt lat="40.4566180" lon="-5.7970130">
        <ele>777.6</ele>
        <time>2021-10-15T11:12:50Z</time>
      </trkpt>
      <trkpt lat="40.4563930" lon="-5.7970920">
        <ele>778.0</ele>
        <time>2021-10-15T11:12:56Z</time>
      </trkpt>
      <trkpt lat="40.4563070" lon="-5.7971350">
        <ele>777.8</ele>
        <time>2021-10-15T11:12:58Z</time>
      </trkpt>
      <trkpt lat="40.4562240" lon="-5.7971710">
        <ele>777.6</ele>
        <time>2021-10-15T11:13:00Z</time>
      </trkpt>
      <trkpt lat="40.4561810" lon="-5.7971760">
        <ele>777.6</ele>
        <time>2021-10-15T11:13:01Z</time>
      </trkpt>
      <trkpt lat="40.4561370" lon="-5.7971800">
        <ele>777.4</ele>
        <time>2021-10-15T11:13:02Z</time>
      </trkpt>
      <trkpt lat="40.4560550" lon="-5.7972270">
        <ele>777.2</ele>
        <time>2021-10-15T11:13:04Z</time>
      </trkpt>
      <trkpt lat="40.4560150" lon="-5.7972520">
        <ele>777.0</ele>
        <time>2021-10-15T11:13:05Z</time>
      </trkpt>
      <trkpt lat="40.4559700" lon="-5.7972630">
        <ele>776.8</ele>
        <time>2021-10-15T11:13:06Z</time>
      </trkpt>
      <trkpt lat="40.4558790" lon="-5.7972790">
        <ele>776.6</ele>
        <time>2021-10-15T11:13:08Z</time>
      </trkpt>
      <trkpt lat="40.4557880" lon="-5.7973150">
        <ele>776.6</ele>
        <time>2021-10-15T11:13:10Z</time>
      </trkpt>
      <trkpt lat="40.4557460" lon="-5.7973390">
        <ele>776.6</ele>
        <time>2021-10-15T11:13:11Z</time>
      </trkpt>
      <trkpt lat="40.4556630" lon="-5.7973960">
        <ele>776.6</ele>
        <time>2021-10-15T11:13:13Z</time>
      </trkpt>
      <trkpt lat="40.4555770" lon="-5.7974310">
        <ele>776.6</ele>
        <time>2021-10-15T11:13:15Z</time>
      </trkpt>
      <trkpt lat="40.4553420" lon="-5.7975140">
        <ele>776.8</ele>
        <time>2021-10-15T11:13:21Z</time>
      </trkpt>
      <trkpt lat="40.4552670" lon="-5.7975350">
        <ele>777.0</ele>
        <time>2021-10-15T11:13:23Z</time>
      </trkpt>
      <trkpt lat="40.4550880" lon="-5.7975980">
        <ele>777.4</ele>
        <time>2021-10-15T11:13:29Z</time>
      </trkpt>
      <trkpt lat="40.4550570" lon="-5.7976120">
        <ele>777.4</ele>
        <time>2021-10-15T11:13:30Z</time>
      </trkpt>
      <trkpt lat="40.4548520" lon="-5.7977000">
        <ele>778.2</ele>
        <time>2021-10-15T11:13:36Z</time>
      </trkpt>
      <trkpt lat="40.4548150" lon="-5.7977110">
        <ele>778.2</ele>
        <time>2021-10-15T11:13:37Z</time>
      </trkpt>
      <trkpt lat="40.4545860" lon="-5.7977530">
        <ele>778.2</ele>
        <time>2021-10-15T11:13:43Z</time>
      </trkpt>
      <trkpt lat="40.4544360" lon="-5.7978150">
        <ele>778.6</ele>
        <time>2021-10-15T11:13:47Z</time>
      </trkpt>
      <trkpt lat="40.4542820" lon="-5.7978650">
        <ele>778.8</ele>
        <time>2021-10-15T11:13:51Z</time>
      </trkpt>
      <trkpt lat="40.4539470" lon="-5.7980050">
        <ele>779.2</ele>
        <time>2021-10-15T11:14:00Z</time>
      </trkpt>
      <trkpt lat="40.4538040" lon="-5.7980700">
        <ele>779.4</ele>
        <time>2021-10-15T11:14:04Z</time>
      </trkpt>
      <trkpt lat="40.4536550" lon="-5.7981220">
        <ele>779.6</ele>
        <time>2021-10-15T11:14:08Z</time>
      </trkpt>
      <trkpt lat="40.4535400" lon="-5.7981660">
        <ele>779.6</ele>
        <time>2021-10-15T11:14:11Z</time>
      </trkpt>
      <trkpt lat="40.4533530" lon="-5.7982240">
        <ele>780.0</ele>
        <time>2021-10-15T11:14:16Z</time>
      </trkpt>
      <trkpt lat="40.4530770" lon="-5.7983020">
        <ele>780.4</ele>
        <time>2021-10-15T11:14:23Z</time>
      </trkpt>
      <trkpt lat="40.4530350" lon="-5.7983130">
        <ele>780.4</ele>
        <time>2021-10-15T11:14:24Z</time>
      </trkpt>
      <trkpt lat="40.4529530" lon="-5.7983470">
        <ele>780.4</ele>
        <time>2021-10-15T11:14:26Z</time>
      </trkpt>
      <trkpt lat="40.4528680" lon="-5.7983800">
        <ele>780.2</ele>
        <time>2021-10-15T11:14:28Z</time>
      </trkpt>
      <trkpt lat="40.4527840" lon="-5.7984190">
        <ele>780.2</ele>
        <time>2021-10-15T11:14:30Z</time>
      </trkpt>
      <trkpt lat="40.4527420" lon="-5.7984320">
        <ele>780.2</ele>
        <time>2021-10-15T11:14:31Z</time>
      </trkpt>
      <trkpt lat="40.4526180" lon="-5.7984520">
        <ele>780.0</ele>
        <time>2021-10-15T11:14:34Z</time>
      </trkpt>
      <trkpt lat="40.4525760" lon="-5.7984740">
        <ele>780.0</ele>
        <time>2021-10-15T11:14:35Z</time>
      </trkpt>
      <trkpt lat="40.4525070" lon="-5.7985090">
        <ele>780.0</ele>
        <time>2021-10-15T11:14:37Z</time>
      </trkpt>
      <trkpt lat="40.4524240" lon="-5.7985420">
        <ele>780.2</ele>
        <time>2021-10-15T11:14:39Z</time>
      </trkpt>
      <trkpt lat="40.4523850" lon="-5.7985680">
        <ele>780.2</ele>
        <time>2021-10-15T11:14:40Z</time>
      </trkpt>
      <trkpt lat="40.4523450" lon="-5.7985920">
        <ele>780.2</ele>
        <time>2021-10-15T11:14:41Z</time>
      </trkpt>
      <trkpt lat="40.4522190" lon="-5.7986460">
        <ele>780.2</ele>
        <time>2021-10-15T11:14:44Z</time>
      </trkpt>
      <trkpt lat="40.4521310" lon="-5.7986610">
        <ele>780.2</ele>
        <time>2021-10-15T11:14:46Z</time>
      </trkpt>
      <trkpt lat="40.4518830" lon="-5.7987220">
        <ele>780.4</ele>
        <time>2021-10-15T11:14:52Z</time>
      </trkpt>
      <trkpt lat="40.4517980" lon="-5.7987290">
        <ele>780.6</ele>
        <time>2021-10-15T11:14:54Z</time>
      </trkpt>
      <trkpt lat="40.4515640" lon="-5.7987940">
        <ele>780.8</ele>
        <time>2021-10-15T11:15:00Z</time>
      </trkpt>
      <trkpt lat="40.4514880" lon="-5.7988300">
        <ele>781.0</ele>
        <time>2021-10-15T11:15:02Z</time>
      </trkpt>
      <trkpt lat="40.4513000" lon="-5.7989150">
        <ele>781.0</ele>
        <time>2021-10-15T11:15:07Z</time>
      </trkpt>
      <trkpt lat="40.4512560" lon="-5.7989300">
        <ele>781.0</ele>
        <time>2021-10-15T11:15:08Z</time>
      </trkpt>
      <trkpt lat="40.4510550" lon="-5.7989940">
        <ele>781.0</ele>
        <time>2021-10-15T11:15:13Z</time>
      </trkpt>
      <trkpt lat="40.4509290" lon="-5.7990280">
        <ele>781.2</ele>
        <time>2021-10-15T11:15:16Z</time>
      </trkpt>
      <trkpt lat="40.4508470" lon="-5.7990580">
        <ele>781.0</ele>
        <time>2021-10-15T11:15:18Z</time>
      </trkpt>
      <trkpt lat="40.4507750" lon="-5.7990910">
        <ele>781.0</ele>
        <time>2021-10-15T11:15:20Z</time>
      </trkpt>
      <trkpt lat="40.4506860" lon="-5.7991230">
        <ele>781.0</ele>
        <time>2021-10-15T11:15:22Z</time>
      </trkpt>
      <trkpt lat="40.4505560" lon="-5.7991330">
        <ele>781.0</ele>
        <time>2021-10-15T11:15:25Z</time>
      </trkpt>
      <trkpt lat="40.4505110" lon="-5.7991500">
        <ele>781.0</ele>
        <time>2021-10-15T11:15:26Z</time>
      </trkpt>
      <trkpt lat="40.4503080" lon="-5.7992350">
        <ele>781.0</ele>
        <time>2021-10-15T11:15:31Z</time>
      </trkpt>
      <trkpt lat="40.4501340" lon="-5.7992960">
        <ele>781.0</ele>
        <time>2021-10-15T11:15:35Z</time>
      </trkpt>
      <trkpt lat="40.4498620" lon="-5.7994040">
        <ele>781.2</ele>
        <time>2021-10-15T11:15:41Z</time>
      </trkpt>
      <trkpt lat="40.4497800" lon="-5.7994320">
        <ele>781.2</ele>
        <time>2021-10-15T11:15:43Z</time>
      </trkpt>
      <trkpt lat="40.4496060" lon="-5.7995150">
        <ele>781.2</ele>
        <time>2021-10-15T11:15:47Z</time>
      </trkpt>
      <trkpt lat="40.4494380" lon="-5.7996170">
        <ele>781.2</ele>
        <time>2021-10-15T11:15:51Z</time>
      </trkpt>
      <trkpt lat="40.4492370" lon="-5.7997010">
        <ele>781.2</ele>
        <time>2021-10-15T11:15:56Z</time>
      </trkpt>
      <trkpt lat="40.4491540" lon="-5.7997420">
        <ele>781.2</ele>
        <time>2021-10-15T11:15:58Z</time>
      </trkpt>
      <trkpt lat="40.4488420" lon="-5.7998830">
        <ele>781.6</ele>
        <time>2021-10-15T11:16:05Z</time>
      </trkpt>
      <trkpt lat="40.4487950" lon="-5.7998980">
        <ele>781.6</ele>
        <time>2021-10-15T11:16:06Z</time>
      </trkpt>
      <trkpt lat="40.4485260" lon="-5.8000260">
        <ele>781.8</ele>
        <time>2021-10-15T11:16:13Z</time>
      </trkpt>
      <trkpt lat="40.4484930" lon="-5.8000390">
        <ele>782.0</ele>
        <time>2021-10-15T11:16:14Z</time>
      </trkpt>
      <trkpt lat="40.4480440" lon="-5.8002450">
        <ele>782.2</ele>
        <time>2021-10-15T11:16:25Z</time>
      </trkpt>
      <trkpt lat="40.4476050" lon="-5.8004460">
        <ele>782.6</ele>
        <time>2021-10-15T11:16:36Z</time>
      </trkpt>
      <trkpt lat="40.4474390" lon="-5.8005150">
        <ele>782.8</ele>
        <time>2021-10-15T11:16:40Z</time>
      </trkpt>
      <trkpt lat="40.4473280" lon="-5.8005850">
        <ele>782.8</ele>
        <time>2021-10-15T11:16:43Z</time>
      </trkpt>
      <trkpt lat="40.4472890" lon="-5.8006060">
        <ele>782.8</ele>
        <time>2021-10-15T11:16:44Z</time>
      </trkpt>
      <trkpt lat="40.4469120" lon="-5.8008260">
        <ele>783.4</ele>
        <time>2021-10-15T11:16:54Z</time>
      </trkpt>
      <trkpt lat="40.4466060" lon="-5.8009940">
        <ele>783.6</ele>
        <time>2021-10-15T11:17:02Z</time>
      </trkpt>
      <trkpt lat="40.4465680" lon="-5.8010180">
        <ele>783.6</ele>
        <time>2021-10-15T11:17:03Z</time>
      </trkpt>
      <trkpt lat="40.4464980" lon="-5.8010630">
        <ele>783.6</ele>
        <time>2021-10-15T11:17:05Z</time>
      </trkpt>
      <trkpt lat="40.4464570" lon="-5.8010890">
        <ele>783.6</ele>
        <time>2021-10-15T11:17:06Z</time>
      </trkpt>
      <trkpt lat="40.4463390" lon="-5.8011570">
        <ele>783.6</ele>
        <time>2021-10-15T11:17:09Z</time>
      </trkpt>
      <trkpt lat="40.4462470" lon="-5.8011970">
        <ele>783.8</ele>
        <time>2021-10-15T11:17:11Z</time>
      </trkpt>
      <trkpt lat="40.4461250" lon="-5.8012920">
        <ele>783.8</ele>
        <time>2021-10-15T11:17:15Z</time>
      </trkpt>
      <trkpt lat="40.4459520" lon="-5.8014180">
        <ele>783.8</ele>
        <time>2021-10-15T11:17:18Z</time>
      </trkpt>
      <trkpt lat="40.4457730" lon="-5.8015210">
        <ele>783.8</ele>
        <time>2021-10-15T11:17:22Z</time>
      </trkpt>
      <trkpt lat="40.4456390" lon="-5.8016070">
        <ele>784.2</ele>
        <time>2021-10-15T11:17:25Z</time>
      </trkpt>
      <trkpt lat="40.4454180" lon="-5.8017520">
        <ele>784.2</ele>
        <time>2021-10-15T11:17:30Z</time>
      </trkpt>
      <trkpt lat="40.4453710" lon="-5.8017760">
        <ele>784.0</ele>
        <time>2021-10-15T11:17:31Z</time>
      </trkpt>
      <trkpt lat="40.4452420" lon="-5.8018510">
        <ele>783.8</ele>
        <time>2021-10-15T11:17:34Z</time>
      </trkpt>
      <trkpt lat="40.4451590" lon="-5.8019140">
        <ele>783.8</ele>
        <time>2021-10-15T11:17:36Z</time>
      </trkpt>
      <trkpt lat="40.4450750" lon="-5.8019730">
        <ele>784.0</ele>
        <time>2021-10-15T11:17:38Z</time>
      </trkpt>
      <trkpt lat="40.4448500" lon="-5.8021120">
        <ele>784.0</ele>
        <time>2021-10-15T11:17:43Z</time>
      </trkpt>
      <trkpt lat="40.4448010" lon="-5.8021330">
        <ele>784.0</ele>
        <time>2021-10-15T11:17:44Z</time>
      </trkpt>
      <trkpt lat="40.4446550" lon="-5.8021590">
        <ele>784.0</ele>
        <time>2021-10-15T11:17:47Z</time>
      </trkpt>
      <trkpt lat="40.4446080" lon="-5.8021620">
        <ele>784.0</ele>
        <time>2021-10-15T11:17:48Z</time>
      </trkpt>
      <trkpt lat="40.4443210" lon="-5.8021640">
        <ele>783.6</ele>
        <time>2021-10-15T11:17:54Z</time>
      </trkpt>
      <trkpt lat="40.4442890" lon="-5.8021550">
        <ele>783.6</ele>
        <time>2021-10-15T11:17:56Z</time>
      </trkpt>
      <trkpt lat="40.4441760" lon="-5.8021170">
        <ele>783.6</ele>
        <time>2021-10-15T11:17:58Z</time>
      </trkpt>
      <trkpt lat="40.4440940" lon="-5.8020990">
        <ele>783.6</ele>
        <time>2021-10-15T11:18:02Z</time>
      </trkpt>
      <trkpt lat="40.4440420" lon="-5.8020870">
        <ele>784.0</ele>
        <time>2021-10-15T11:18:07Z</time>
      </trkpt>
      <trkpt lat="40.4439920" lon="-5.8021090">
        <ele>783.6</ele>
        <time>2021-10-15T11:21:49Z</time>
      </trkpt>
      <trkpt lat="40.4439660" lon="-5.8021140">
        <ele>783.6</ele>
        <time>2021-10-15T11:21:50Z</time>
      </trkpt>
      <trkpt lat="40.4439420" lon="-5.8021180">
        <ele>783.6</ele>
        <time>2021-10-15T11:21:51Z</time>
      </trkpt>
      <trkpt lat="40.4437640" lon="-5.8021090">
        <ele>783.0</ele>
        <time>2021-10-15T11:21:57Z</time>
      </trkpt>
      <trkpt lat="40.4435540" lon="-5.8021120">
        <ele>782.4</ele>
        <time>2021-10-15T11:22:03Z</time>
      </trkpt>
      <trkpt lat="40.4435180" lon="-5.8021210">
        <ele>782.2</ele>
        <time>2021-10-15T11:22:04Z</time>
      </trkpt>
      <trkpt lat="40.4433890" lon="-5.8021270">
        <ele>781.8</ele>
        <time>2021-10-15T11:22:07Z</time>
      </trkpt>
      <trkpt lat="40.4432940" lon="-5.8021010">
        <ele>781.6</ele>
        <time>2021-10-15T11:22:09Z</time>
      </trkpt>
      <trkpt lat="40.4431970" lon="-5.8020630">
        <ele>781.4</ele>
        <time>2021-10-15T11:22:11Z</time>
      </trkpt>
      <trkpt lat="40.4430090" lon="-5.8019790">
        <ele>780.4</ele>
        <time>2021-10-15T11:22:15Z</time>
      </trkpt>
      <trkpt lat="40.4429620" lon="-5.8019550">
        <ele>780.4</ele>
        <time>2021-10-15T11:22:16Z</time>
      </trkpt>
      <trkpt lat="40.4428730" lon="-5.8019380">
        <ele>780.0</ele>
        <time>2021-10-15T11:22:18Z</time>
      </trkpt>
      <trkpt lat="40.4427910" lon="-5.8019520">
        <ele>779.8</ele>
        <time>2021-10-15T11:22:20Z</time>
      </trkpt>
      <trkpt lat="40.4427490" lon="-5.8019630">
        <ele>779.8</ele>
        <time>2021-10-15T11:22:21Z</time>
      </trkpt>
      <trkpt lat="40.4426720" lon="-5.8019970">
        <ele>779.8</ele>
        <time>2021-10-15T11:22:23Z</time>
      </trkpt>
      <trkpt lat="40.4426000" lon="-5.8020380">
        <ele>779.8</ele>
        <time>2021-10-15T11:22:25Z</time>
      </trkpt>
      <trkpt lat="40.4423490" lon="-5.8022210">
        <ele>780.0</ele>
        <time>2021-10-15T11:22:33Z</time>
      </trkpt>
      <trkpt lat="40.4422220" lon="-5.8023120">
        <ele>780.4</ele>
        <time>2021-10-15T11:22:38Z</time>
      </trkpt>
      <trkpt lat="40.4420530" lon="-5.8024310">
        <ele>781.4</ele>
        <time>2021-10-15T11:22:45Z</time>
      </trkpt>
      <trkpt lat="40.4418480" lon="-5.8025890">
        <ele>782.4</ele>
        <time>2021-10-15T11:22:54Z</time>
      </trkpt>
      <trkpt lat="40.4418260" lon="-5.8026110">
        <ele>782.4</ele>
        <time>2021-10-15T11:22:55Z</time>
      </trkpt>
      <trkpt lat="40.4416170" lon="-5.8028220">
        <ele>783.6</ele>
        <time>2021-10-15T11:23:05Z</time>
      </trkpt>
      <trkpt lat="40.4414860" lon="-5.8029460">
        <ele>784.0</ele>
        <time>2021-10-15T11:23:11Z</time>
      </trkpt>
      <trkpt lat="40.4413760" lon="-5.8030410">
        <ele>784.4</ele>
        <time>2021-10-15T11:23:16Z</time>
      </trkpt>
      <trkpt lat="40.4412830" lon="-5.8031130">
        <ele>784.6</ele>
        <time>2021-10-15T11:23:20Z</time>
      </trkpt>
      <trkpt lat="40.4412660" lon="-5.8031290">
        <ele>784.8</ele>
        <time>2021-10-15T11:23:21Z</time>
      </trkpt>
      <trkpt lat="40.4410830" lon="-5.8032820">
        <ele>785.4</ele>
        <time>2021-10-15T11:23:29Z</time>
      </trkpt>
      <trkpt lat="40.4409740" lon="-5.8033760">
        <ele>785.8</ele>
        <time>2021-10-15T11:23:34Z</time>
      </trkpt>
      <trkpt lat="40.4408780" lon="-5.8034480">
        <ele>786.2</ele>
        <time>2021-10-15T11:23:38Z</time>
      </trkpt>
      <trkpt lat="40.4406650" lon="-5.8036250">
        <ele>786.6</ele>
        <time>2021-10-15T11:23:47Z</time>
      </trkpt>
      <trkpt lat="40.4405680" lon="-5.8037010">
        <ele>786.6</ele>
        <time>2021-10-15T11:23:51Z</time>
      </trkpt>
      <trkpt lat="40.4404970" lon="-5.8037610">
        <ele>786.8</ele>
        <time>2021-10-15T11:23:54Z</time>
      </trkpt>
      <trkpt lat="40.4404710" lon="-5.8037780">
        <ele>786.8</ele>
        <time>2021-10-15T11:23:55Z</time>
      </trkpt>
      <trkpt lat="40.4403960" lon="-5.8038380">
        <ele>787.0</ele>
        <time>2021-10-15T11:23:58Z</time>
      </trkpt>
      <trkpt lat="40.4403270" lon="-5.8038970">
        <ele>787.2</ele>
        <time>2021-10-15T11:24:01Z</time>
      </trkpt>
      <trkpt lat="40.4402250" lon="-5.8039650">
        <ele>787.6</ele>
        <time>2021-10-15T11:24:05Z</time>
      </trkpt>
      <trkpt lat="40.4399910" lon="-5.8040740">
        <ele>788.2</ele>
        <time>2021-10-15T11:24:14Z</time>
      </trkpt>
      <trkpt lat="40.4399380" lon="-5.8041000">
        <ele>788.2</ele>
        <time>2021-10-15T11:24:16Z</time>
      </trkpt>
      <trkpt lat="40.4397590" lon="-5.8042220">
        <ele>788.2</ele>
        <time>2021-10-15T11:24:23Z</time>
      </trkpt>
      <trkpt lat="40.4395770" lon="-5.8043090">
        <ele>788.2</ele>
        <time>2021-10-15T11:24:29Z</time>
      </trkpt>
      <trkpt lat="40.4392850" lon="-5.8044100">
        <ele>788.2</ele>
        <time>2021-10-15T11:24:38Z</time>
      </trkpt>
      <trkpt lat="40.4389970" lon="-5.8045240">
        <ele>788.4</ele>
        <time>2021-10-15T11:24:46Z</time>
      </trkpt>
      <trkpt lat="40.4387300" lon="-5.8046340">
        <ele>788.4</ele>
        <time>2021-10-15T11:24:53Z</time>
      </trkpt>
      <trkpt lat="40.4384310" lon="-5.8047270">
        <ele>788.4</ele>
        <time>2021-10-15T11:25:00Z</time>
      </trkpt>
      <trkpt lat="40.4381130" lon="-5.8048340">
        <ele>787.8</ele>
        <time>2021-10-15T11:25:07Z</time>
      </trkpt>
      <trkpt lat="40.4380300" lon="-5.8048670">
        <ele>787.8</ele>
        <time>2021-10-15T11:25:09Z</time>
      </trkpt>
      <trkpt lat="40.4377240" lon="-5.8049730">
        <ele>787.6</ele>
        <time>2021-10-15T11:25:16Z</time>
      </trkpt>
      <trkpt lat="40.4374610" lon="-5.8051000">
        <ele>787.6</ele>
        <time>2021-10-15T11:25:22Z</time>
      </trkpt>
      <trkpt lat="40.4373680" lon="-5.8051420">
        <ele>787.4</ele>
        <time>2021-10-15T11:25:24Z</time>
      </trkpt>
      <trkpt lat="40.4371580" lon="-5.8052240">
        <ele>787.2</ele>
        <time>2021-10-15T11:25:29Z</time>
      </trkpt>
      <trkpt lat="40.4370810" lon="-5.8052510">
        <ele>787.2</ele>
        <time>2021-10-15T11:25:31Z</time>
      </trkpt>
      <trkpt lat="40.4366460" lon="-5.8054160">
        <ele>787.0</ele>
        <time>2021-10-15T11:25:41Z</time>
      </trkpt>
      <trkpt lat="40.4363880" lon="-5.8055040">
        <ele>787.2</ele>
        <time>2021-10-15T11:25:47Z</time>
      </trkpt>
      <trkpt lat="40.4363090" lon="-5.8055410">
        <ele>787.2</ele>
        <time>2021-10-15T11:25:49Z</time>
      </trkpt>
      <trkpt lat="40.4362130" lon="-5.8055670">
        <ele>787.2</ele>
        <time>2021-10-15T11:25:51Z</time>
      </trkpt>
      <trkpt lat="40.4360480" lon="-5.8056300">
        <ele>787.0</ele>
        <time>2021-10-15T11:25:55Z</time>
      </trkpt>
      <trkpt lat="40.4355720" lon="-5.8058350">
        <ele>786.4</ele>
        <time>2021-10-15T11:26:06Z</time>
      </trkpt>
      <trkpt lat="40.4353280" lon="-5.8058990">
        <ele>786.2</ele>
        <time>2021-10-15T11:26:11Z</time>
      </trkpt>
      <trkpt lat="40.4352250" lon="-5.8059250">
        <ele>786.0</ele>
        <time>2021-10-15T11:26:13Z</time>
      </trkpt>
      <trkpt lat="40.4348630" lon="-5.8060660">
        <ele>785.4</ele>
        <time>2021-10-15T11:26:20Z</time>
      </trkpt>
      <trkpt lat="40.4348090" lon="-5.8060860">
        <ele>785.4</ele>
        <time>2021-10-15T11:26:21Z</time>
      </trkpt>
      <trkpt lat="40.4345350" lon="-5.8061870">
        <ele>784.4</ele>
        <time>2021-10-15T11:26:26Z</time>
      </trkpt>
      <trkpt lat="40.4344280" lon="-5.8062410">
        <ele>784.0</ele>
        <time>2021-10-15T11:26:28Z</time>
      </trkpt>
      <trkpt lat="40.4343750" lon="-5.8062660">
        <ele>784.0</ele>
        <time>2021-10-15T11:26:29Z</time>
      </trkpt>
      <trkpt lat="40.4340360" lon="-5.8063880">
        <ele>783.4</ele>
        <time>2021-10-15T11:26:36Z</time>
      </trkpt>
      <trkpt lat="40.4336570" lon="-5.8065390">
        <ele>783.4</ele>
        <time>2021-10-15T11:26:44Z</time>
      </trkpt>
      <trkpt lat="40.4332680" lon="-5.8066830">
        <ele>783.6</ele>
        <time>2021-10-15T11:26:52Z</time>
      </trkpt>
      <trkpt lat="40.4328760" lon="-5.8068300">
        <ele>783.2</ele>
        <time>2021-10-15T11:27:00Z</time>
      </trkpt>
      <trkpt lat="40.4328150" lon="-5.8068510">
        <ele>783.2</ele>
        <time>2021-10-15T11:27:01Z</time>
      </trkpt>
      <trkpt lat="40.4323530" lon="-5.8070320">
        <ele>782.6</ele>
        <time>2021-10-15T11:27:10Z</time>
      </trkpt>
      <trkpt lat="40.4318740" lon="-5.8072080">
        <ele>782.4</ele>
        <time>2021-10-15T11:27:19Z</time>
      </trkpt>
      <trkpt lat="40.4318200" lon="-5.8072290">
        <ele>782.2</ele>
        <time>2021-10-15T11:27:20Z</time>
      </trkpt>
      <trkpt lat="40.4312990" lon="-5.8074310">
        <ele>781.4</ele>
        <time>2021-10-15T11:27:30Z</time>
      </trkpt>
      <trkpt lat="40.4308850" lon="-5.8075910">
        <ele>781.4</ele>
        <time>2021-10-15T11:27:38Z</time>
      </trkpt>
      <trkpt lat="40.4307030" lon="-5.8076750">
        <ele>781.4</ele>
        <time>2021-10-15T11:27:42Z</time>
      </trkpt>
      <trkpt lat="40.4306140" lon="-5.8077260">
        <ele>781.2</ele>
        <time>2021-10-15T11:27:44Z</time>
      </trkpt>
      <trkpt lat="40.4305740" lon="-5.8077470">
        <ele>781.2</ele>
        <time>2021-10-15T11:27:45Z</time>
      </trkpt>
      <trkpt lat="40.4302900" lon="-5.8078400">
        <ele>780.8</ele>
        <time>2021-10-15T11:27:51Z</time>
      </trkpt>
      <trkpt lat="40.4299800" lon="-5.8079390">
        <ele>781.2</ele>
        <time>2021-10-15T11:27:58Z</time>
      </trkpt>
      <trkpt lat="40.4296420" lon="-5.8080760">
        <ele>781.8</ele>
        <time>2021-10-15T11:28:06Z</time>
      </trkpt>
      <trkpt lat="40.4292780" lon="-5.8082390">
        <ele>782.0</ele>
        <time>2021-10-15T11:28:15Z</time>
      </trkpt>
      <trkpt lat="40.4291240" lon="-5.8083070">
        <ele>782.2</ele>
        <time>2021-10-15T11:28:19Z</time>
      </trkpt>
      <trkpt lat="40.4290150" lon="-5.8083470">
        <ele>782.4</ele>
        <time>2021-10-15T11:28:22Z</time>
      </trkpt>
      <trkpt lat="40.4289810" lon="-5.8083600">
        <ele>782.4</ele>
        <time>2021-10-15T11:28:23Z</time>
      </trkpt>
      <trkpt lat="40.4286650" lon="-5.8084820">
        <ele>783.0</ele>
        <time>2021-10-15T11:28:33Z</time>
      </trkpt>
      <trkpt lat="40.4285470" lon="-5.8085290">
        <ele>783.6</ele>
        <time>2021-10-15T11:28:37Z</time>
      </trkpt>
      <trkpt lat="40.4283870" lon="-5.8085880">
        <ele>784.4</ele>
        <time>2021-10-15T11:28:43Z</time>
      </trkpt>
      <trkpt lat="40.4283110" lon="-5.8086180">
        <ele>784.6</ele>
        <time>2021-10-15T11:28:46Z</time>
      </trkpt>
      <trkpt lat="40.4282350" lon="-5.8086470">
        <ele>785.0</ele>
        <time>2021-10-15T11:28:49Z</time>
      </trkpt>
      <trkpt lat="40.4281330" lon="-5.8086850">
        <ele>785.8</ele>
        <time>2021-10-15T11:28:53Z</time>
      </trkpt>
      <trkpt lat="40.4279560" lon="-5.8087440">
        <ele>786.8</ele>
        <time>2021-10-15T11:29:00Z</time>
      </trkpt>
      <trkpt lat="40.4278770" lon="-5.8087780">
        <ele>787.0</ele>
        <time>2021-10-15T11:29:03Z</time>
      </trkpt>
      <trkpt lat="40.4277220" lon="-5.8088310">
        <ele>787.4</ele>
        <time>2021-10-15T11:29:09Z</time>
      </trkpt>
      <trkpt lat="40.4276000" lon="-5.8088810">
        <ele>787.6</ele>
        <time>2021-10-15T11:29:13Z</time>
      </trkpt>
      <trkpt lat="40.4275650" lon="-5.8088990">
        <ele>787.6</ele>
        <time>2021-10-15T11:29:14Z</time>
      </trkpt>
      <trkpt lat="40.4274500" lon="-5.8089450">
        <ele>787.6</ele>
        <time>2021-10-15T11:29:17Z</time>
      </trkpt>
      <trkpt lat="40.4273380" lon="-5.8089890">
        <ele>787.4</ele>
        <time>2021-10-15T11:29:20Z</time>
      </trkpt>
      <trkpt lat="40.4271640" lon="-5.8090610">
        <ele>787.0</ele>
        <time>2021-10-15T11:29:24Z</time>
      </trkpt>
      <trkpt lat="40.4270110" lon="-5.8091180">
        <ele>786.4</ele>
        <time>2021-10-15T11:29:27Z</time>
      </trkpt>
      <trkpt lat="40.4269040" lon="-5.8091650">
        <ele>785.8</ele>
        <time>2021-10-15T11:29:29Z</time>
      </trkpt>
      <trkpt lat="40.4267880" lon="-5.8092250">
        <ele>784.4</ele>
        <time>2021-10-15T11:29:31Z</time>
      </trkpt>
      <trkpt lat="40.4266700" lon="-5.8092970">
        <ele>784.0</ele>
        <time>2021-10-15T11:29:33Z</time>
      </trkpt>
      <trkpt lat="40.4264200" lon="-5.8094010">
        <ele>783.2</ele>
        <time>2021-10-15T11:29:37Z</time>
      </trkpt>
      <trkpt lat="40.4262900" lon="-5.8094370">
        <ele>782.8</ele>
        <time>2021-10-15T11:29:39Z</time>
      </trkpt>
      <trkpt lat="40.4260280" lon="-5.8095110">
        <ele>782.0</ele>
        <time>2021-10-15T11:29:43Z</time>
      </trkpt>
      <trkpt lat="40.4258300" lon="-5.8095810">
        <ele>781.0</ele>
        <time>2021-10-15T11:29:46Z</time>
      </trkpt>
      <trkpt lat="40.4257660" lon="-5.8096060">
        <ele>780.8</ele>
        <time>2021-10-15T11:29:47Z</time>
      </trkpt>
      <trkpt lat="40.4255820" lon="-5.8096830">
        <ele>780.0</ele>
        <time>2021-10-15T11:29:50Z</time>
      </trkpt>
      <trkpt lat="40.4255200" lon="-5.8097060">
        <ele>779.8</ele>
        <time>2021-10-15T11:29:51Z</time>
      </trkpt>
      <trkpt lat="40.4253980" lon="-5.8097490">
        <ele>778.8</ele>
        <time>2021-10-15T11:29:53Z</time>
      </trkpt>
      <trkpt lat="40.4253390" lon="-5.8097700">
        <ele>778.8</ele>
        <time>2021-10-15T11:29:54Z</time>
      </trkpt>
      <trkpt lat="40.4249580" lon="-5.8099130">
        <ele>777.8</ele>
        <time>2021-10-15T11:30:01Z</time>
      </trkpt>
      <trkpt lat="40.4249120" lon="-5.8099250">
        <ele>777.6</ele>
        <time>2021-10-15T11:30:02Z</time>
      </trkpt>
      <trkpt lat="40.4247830" lon="-5.8099670">
        <ele>777.4</ele>
        <time>2021-10-15T11:30:05Z</time>
      </trkpt>
      <trkpt lat="40.4247010" lon="-5.8100060">
        <ele>777.4</ele>
        <time>2021-10-15T11:30:07Z</time>
      </trkpt>
      <trkpt lat="40.4244630" lon="-5.8100990">
        <ele>777.6</ele>
        <time>2021-10-15T11:30:13Z</time>
      </trkpt>
      <trkpt lat="40.4244200" lon="-5.8101140">
        <ele>777.6</ele>
        <time>2021-10-15T11:30:14Z</time>
      </trkpt>
      <trkpt lat="40.4242840" lon="-5.8101670">
        <ele>777.8</ele>
        <time>2021-10-15T11:30:17Z</time>
      </trkpt>
      <trkpt lat="40.4242400" lon="-5.8101900">
        <ele>777.8</ele>
        <time>2021-10-15T11:30:18Z</time>
      </trkpt>
      <trkpt lat="40.4241240" lon="-5.8102650">
        <ele>777.8</ele>
        <time>2021-10-15T11:30:21Z</time>
      </trkpt>
      <trkpt lat="40.4240830" lon="-5.8102790">
        <ele>777.8</ele>
        <time>2021-10-15T11:30:22Z</time>
      </trkpt>
      <trkpt lat="40.4237930" lon="-5.8103660">
        <ele>777.8</ele>
        <time>2021-10-15T11:30:29Z</time>
      </trkpt>
      <trkpt lat="40.4234890" lon="-5.8104970">
        <ele>778.2</ele>
        <time>2021-10-15T11:30:37Z</time>
      </trkpt>
      <trkpt lat="40.4233790" lon="-5.8105380">
        <ele>778.2</ele>
        <time>2021-10-15T11:30:40Z</time>
      </trkpt>
      <trkpt lat="40.4231560" lon="-5.8106200">
        <ele>778.4</ele>
        <time>2021-10-15T11:30:46Z</time>
      </trkpt>
      <trkpt lat="40.4230570" lon="-5.8106610">
        <ele>778.6</ele>
        <time>2021-10-15T11:30:49Z</time>
      </trkpt>
      <trkpt lat="40.4229160" lon="-5.8107100">
        <ele>778.8</ele>
        <time>2021-10-15T11:30:53Z</time>
      </trkpt>
      <trkpt lat="40.4228440" lon="-5.8107390">
        <ele>778.8</ele>
        <time>2021-10-15T11:30:55Z</time>
      </trkpt>
      <trkpt lat="40.4228080" lon="-5.8107550">
        <ele>778.8</ele>
        <time>2021-10-15T11:30:56Z</time>
      </trkpt>
      <trkpt lat="40.4225340" lon="-5.8108620">
        <ele>779.2</ele>
        <time>2021-10-15T11:31:04Z</time>
      </trkpt>
      <trkpt lat="40.4224060" lon="-5.8109090">
        <ele>779.2</ele>
        <time>2021-10-15T11:31:08Z</time>
      </trkpt>
      <trkpt lat="40.4223120" lon="-5.8109390">
        <ele>779.2</ele>
        <time>2021-10-15T11:31:11Z</time>
      </trkpt>
      <trkpt lat="40.4221360" lon="-5.8110050">
        <ele>779.2</ele>
        <time>2021-10-15T11:31:16Z</time>
      </trkpt>
      <trkpt lat="40.4220030" lon="-5.8110580">
        <ele>779.4</ele>
        <time>2021-10-15T11:31:20Z</time>
      </trkpt>
      <trkpt lat="40.4218590" lon="-5.8110900">
        <ele>779.4</ele>
        <time>2021-10-15T11:31:24Z</time>
      </trkpt>
      <trkpt lat="40.4216170" lon="-5.8111670">
        <ele>779.6</ele>
        <time>2021-10-15T11:31:31Z</time>
      </trkpt>
      <trkpt lat="40.4214580" lon="-5.8112410">
        <ele>779.8</ele>
        <time>2021-10-15T11:31:37Z</time>
      </trkpt>
      <trkpt lat="40.4214470" lon="-5.8112440">
        <ele>779.8</ele>
        <time>2021-10-15T11:31:38Z</time>
      </trkpt>
      <trkpt lat="40.4214000" lon="-5.8112680">
        <ele>780.0</ele>
        <time>2021-10-15T11:31:41Z</time>
      </trkpt>
      <trkpt lat="40.4213530" lon="-5.8112590">
        <ele>780.0</ele>
        <time>2021-10-15T11:31:43Z</time>
      </trkpt>
      <trkpt lat="40.4212270" lon="-5.8113160">
        <ele>780.2</ele>
        <time>2021-10-15T11:31:47Z</time>
      </trkpt>
      <trkpt lat="40.4211060" lon="-5.8113690">
        <ele>780.2</ele>
        <time>2021-10-15T11:31:52Z</time>
      </trkpt>
      <trkpt lat="40.4208660" lon="-5.8114580">
        <ele>780.0</ele>
        <time>2021-10-15T11:32:00Z</time>
      </trkpt>
      <trkpt lat="40.4205990" lon="-5.8115480">
        <ele>780.0</ele>
        <time>2021-10-15T11:32:08Z</time>
      </trkpt>
      <trkpt lat="40.4203550" lon="-5.8116380">
        <ele>780.4</ele>
        <time>2021-10-15T11:32:16Z</time>
      </trkpt>
      <trkpt lat="40.4201390" lon="-5.8117410">
        <ele>780.6</ele>
        <time>2021-10-15T11:32:23Z</time>
      </trkpt>
      <trkpt lat="40.4198540" lon="-5.8118850">
        <ele>780.8</ele>
        <time>2021-10-15T11:32:32Z</time>
      </trkpt>
      <trkpt lat="40.4197580" lon="-5.8119280">
        <ele>781.0</ele>
        <time>2021-10-15T11:32:35Z</time>
      </trkpt>
      <trkpt lat="40.4194910" lon="-5.8120130">
        <ele>781.2</ele>
        <time>2021-10-15T11:32:43Z</time>
      </trkpt>
      <trkpt lat="40.4193930" lon="-5.8120480">
        <ele>781.2</ele>
        <time>2021-10-15T11:32:46Z</time>
      </trkpt>
      <trkpt lat="40.4192150" lon="-5.8121210">
        <ele>781.2</ele>
        <time>2021-10-15T11:32:51Z</time>
      </trkpt>
      <trkpt lat="40.4189350" lon="-5.8122210">
        <ele>781.2</ele>
        <time>2021-10-15T11:32:59Z</time>
      </trkpt>
      <trkpt lat="40.4186220" lon="-5.8123680">
        <ele>781.6</ele>
        <time>2021-10-15T11:33:08Z</time>
      </trkpt>
      <trkpt lat="40.4183060" lon="-5.8124850">
        <ele>781.8</ele>
        <time>2021-10-15T11:33:17Z</time>
      </trkpt>
      <trkpt lat="40.4182430" lon="-5.8125150">
        <ele>781.8</ele>
        <time>2021-10-15T11:33:19Z</time>
      </trkpt>
      <trkpt lat="40.4180930" lon="-5.8125930">
        <ele>782.0</ele>
        <time>2021-10-15T11:33:25Z</time>
      </trkpt>
      <trkpt lat="40.4180900" lon="-5.8125960">
        <ele>782.0</ele>
        <time>2021-10-15T11:33:27Z</time>
      </trkpt>
      <trkpt lat="40.4180200" lon="-5.8126120">
        <ele>782.2</ele>
        <time>2021-10-15T11:33:51Z</time>
      </trkpt>
      <trkpt lat="40.4179960" lon="-5.8126190">
        <ele>782.4</ele>
        <time>2021-10-15T11:33:52Z</time>
      </trkpt>
      <trkpt lat="40.4178400" lon="-5.8126810">
        <ele>782.4</ele>
        <time>2021-10-15T11:33:58Z</time>
      </trkpt>
      <trkpt lat="40.4176650" lon="-5.8127550">
        <ele>782.4</ele>
        <time>2021-10-15T11:34:05Z</time>
      </trkpt>
      <trkpt lat="40.4174360" lon="-5.8128330">
        <ele>782.4</ele>
        <time>2021-10-15T11:34:13Z</time>
      </trkpt>
      <trkpt lat="40.4172210" lon="-5.8129170">
        <ele>782.6</ele>
        <time>2021-10-15T11:34:21Z</time>
      </trkpt>
      <trkpt lat="40.4171180" lon="-5.8129690">
        <ele>782.6</ele>
        <time>2021-10-15T11:34:25Z</time>
      </trkpt>
      <trkpt lat="40.4170090" lon="-5.8130110">
        <ele>782.8</ele>
        <time>2021-10-15T11:34:29Z</time>
      </trkpt>
      <trkpt lat="40.4167120" lon="-5.8131040">
        <ele>783.0</ele>
        <time>2021-10-15T11:34:39Z</time>
      </trkpt>
      <trkpt lat="40.4165530" lon="-5.8131670">
        <ele>783.0</ele>
        <time>2021-10-15T11:34:44Z</time>
      </trkpt>
      <trkpt lat="40.4164620" lon="-5.8132010">
        <ele>783.2</ele>
        <time>2021-10-15T11:34:47Z</time>
      </trkpt>
      <trkpt lat="40.4162120" lon="-5.8132970">
        <ele>783.6</ele>
        <time>2021-10-15T11:34:55Z</time>
      </trkpt>
      <trkpt lat="40.4159030" lon="-5.8134380">
        <ele>783.8</ele>
        <time>2021-10-15T11:35:04Z</time>
      </trkpt>
      <trkpt lat="40.4156130" lon="-5.8135140">
        <ele>783.8</ele>
        <time>2021-10-15T11:35:12Z</time>
      </trkpt>
      <trkpt lat="40.4153540" lon="-5.8136250">
        <ele>784.2</ele>
        <time>2021-10-15T11:35:19Z</time>
      </trkpt>
      <trkpt lat="40.4151320" lon="-5.8137050">
        <ele>784.6</ele>
        <time>2021-10-15T11:35:25Z</time>
      </trkpt>
      <trkpt lat="40.4149440" lon="-5.8137750">
        <ele>784.8</ele>
        <time>2021-10-15T11:35:30Z</time>
      </trkpt>
      <trkpt lat="40.4147210" lon="-5.8138620">
        <ele>785.2</ele>
        <time>2021-10-15T11:35:36Z</time>
      </trkpt>
      <trkpt lat="40.4145710" lon="-5.8139330">
        <ele>785.2</ele>
        <time>2021-10-15T11:35:40Z</time>
      </trkpt>
      <trkpt lat="40.4142530" lon="-5.8140400">
        <ele>785.4</ele>
        <time>2021-10-15T11:35:49Z</time>
      </trkpt>
      <trkpt lat="40.4139340" lon="-5.8141500">
        <ele>786.2</ele>
        <time>2021-10-15T11:35:59Z</time>
      </trkpt>
      <trkpt lat="40.4136320" lon="-5.8142460">
        <ele>786.8</ele>
        <time>2021-10-15T11:36:09Z</time>
      </trkpt>
      <trkpt lat="40.4135000" lon="-5.8143010">
        <ele>787.2</ele>
        <time>2021-10-15T11:36:14Z</time>
      </trkpt>
      <trkpt lat="40.4134750" lon="-5.8143210">
        <ele>787.4</ele>
        <time>2021-10-15T11:36:15Z</time>
      </trkpt>
      <trkpt lat="40.4132350" lon="-5.8145060">
        <ele>787.8</ele>
        <time>2021-10-15T11:36:23Z</time>
      </trkpt>
      <trkpt lat="40.4130760" lon="-5.8145970">
        <ele>788.2</ele>
        <time>2021-10-15T11:36:28Z</time>
      </trkpt>
      <trkpt lat="40.4130120" lon="-5.8146530">
        <ele>788.2</ele>
        <time>2021-10-15T11:36:30Z</time>
      </trkpt>
      <trkpt lat="40.4128100" lon="-5.8147970">
        <ele>788.4</ele>
        <time>2021-10-15T11:36:36Z</time>
      </trkpt>
      <trkpt lat="40.4127740" lon="-5.8148150">
        <ele>788.4</ele>
        <time>2021-10-15T11:36:37Z</time>
      </trkpt>
      <trkpt lat="40.4126440" lon="-5.8148930">
        <ele>788.4</ele>
        <time>2021-10-15T11:36:41Z</time>
      </trkpt>
      <trkpt lat="40.4125800" lon="-5.8149330">
        <ele>788.6</ele>
        <time>2021-10-15T11:36:43Z</time>
      </trkpt>
      <trkpt lat="40.4124350" lon="-5.8150290">
        <ele>789.0</ele>
        <time>2021-10-15T11:36:48Z</time>
      </trkpt>
      <trkpt lat="40.4123220" lon="-5.8151080">
        <ele>789.2</ele>
        <time>2021-10-15T11:36:52Z</time>
      </trkpt>
      <trkpt lat="40.4122900" lon="-5.8151270">
        <ele>789.2</ele>
        <time>2021-10-15T11:36:53Z</time>
      </trkpt>
      <trkpt lat="40.4120930" lon="-5.8152500">
        <ele>789.8</ele>
        <time>2021-10-15T11:37:00Z</time>
      </trkpt>
      <trkpt lat="40.4119210" lon="-5.8153590">
        <ele>790.2</ele>
        <time>2021-10-15T11:37:07Z</time>
      </trkpt>
      <trkpt lat="40.4119010" lon="-5.8153770">
        <ele>790.2</ele>
        <time>2021-10-15T11:37:08Z</time>
      </trkpt>
      <trkpt lat="40.4118460" lon="-5.8154050">
        <ele>790.4</ele>
        <time>2021-10-15T11:37:10Z</time>
      </trkpt>
      <trkpt lat="40.4118030" lon="-5.8154260">
        <ele>790.4</ele>
        <time>2021-10-15T11:37:12Z</time>
      </trkpt>
      <trkpt lat="40.4117590" lon="-5.8154530">
        <ele>790.4</ele>
        <time>2021-10-15T11:37:14Z</time>
      </trkpt>
      <trkpt lat="40.4116220" lon="-5.8155140">
        <ele>790.8</ele>
        <time>2021-10-15T11:37:20Z</time>
      </trkpt>
      <trkpt lat="40.4115560" lon="-5.8155370">
        <ele>791.0</ele>
        <time>2021-10-15T11:37:23Z</time>
      </trkpt>
      <trkpt lat="40.4114430" lon="-5.8155800">
        <ele>791.4</ele>
        <time>2021-10-15T11:37:28Z</time>
      </trkpt>
      <trkpt lat="40.4114190" lon="-5.8155940">
        <ele>791.4</ele>
        <time>2021-10-15T11:37:29Z</time>
      </trkpt>
      <trkpt lat="40.4113440" lon="-5.8156450">
        <ele>791.6</ele>
        <time>2021-10-15T11:37:35Z</time>
      </trkpt>
      <trkpt lat="40.4113110" lon="-5.8156480">
        <ele>791.6</ele>
        <time>2021-10-15T11:38:05Z</time>
      </trkpt>
      <trkpt lat="40.4112660" lon="-5.8156590">
        <ele>791.6</ele>
        <time>2021-10-15T11:38:08Z</time>
      </trkpt>
      <trkpt lat="40.4112320" lon="-5.8156690">
        <ele>791.8</ele>
        <time>2021-10-15T11:38:13Z</time>
      </trkpt>
      <trkpt lat="40.4112320" lon="-5.8156690">
        <ele>791.8</ele>
        <time>2021-10-15T11:38:14Z</time>
      </trkpt>
      <trkpt lat="40.4111760" lon="-5.8156840">
        <ele>792.8</ele>
        <time>2021-10-15T11:39:16Z</time>
      </trkpt>
      <trkpt lat="40.4111570" lon="-5.8156890">
        <ele>792.8</ele>
        <time>2021-10-15T11:39:17Z</time>
      </trkpt>
      <trkpt lat="40.4111120" lon="-5.8157050">
        <ele>792.8</ele>
        <time>2021-10-15T11:39:19Z</time>
      </trkpt>
      <trkpt lat="40.4109310" lon="-5.8157070">
        <ele>793.6</ele>
        <time>2021-10-15T11:39:27Z</time>
      </trkpt>
      <trkpt lat="40.4108180" lon="-5.8157120">
        <ele>793.8</ele>
        <time>2021-10-15T11:39:31Z</time>
      </trkpt>
      <trkpt lat="40.4107450" lon="-5.8157440">
        <ele>794.0</ele>
        <time>2021-10-15T11:39:34Z</time>
      </trkpt>
      <trkpt lat="40.4106550" lon="-5.8157900">
        <ele>794.4</ele>
        <time>2021-10-15T11:39:39Z</time>
      </trkpt>
      <trkpt lat="40.4106230" lon="-5.8158030">
        <ele>794.4</ele>
        <time>2021-10-15T11:39:41Z</time>
      </trkpt>
      <trkpt lat="40.4105510" lon="-5.8158380">
        <ele>794.6</ele>
        <time>2021-10-15T11:39:47Z</time>
      </trkpt>
      <trkpt lat="40.4104950" lon="-5.8158450">
        <ele>795.0</ele>
        <time>2021-10-15T11:40:36Z</time>
      </trkpt>
      <trkpt lat="40.4104420" lon="-5.8158830">
        <ele>795.0</ele>
        <time>2021-10-15T11:40:39Z</time>
      </trkpt>
      <trkpt lat="40.4102700" lon="-5.8159470">
        <ele>794.8</ele>
        <time>2021-10-15T11:40:46Z</time>
      </trkpt>
      <trkpt lat="40.4102170" lon="-5.8160010">
        <ele>794.6</ele>
        <time>2021-10-15T11:40:50Z</time>
      </trkpt>
      <trkpt lat="40.4102110" lon="-5.8160240">
        <ele>794.6</ele>
        <time>2021-10-15T11:40:51Z</time>
      </trkpt>
      <trkpt lat="40.4102030" lon="-5.8160710">
        <ele>794.4</ele>
        <time>2021-10-15T11:40:53Z</time>
      </trkpt>
      <trkpt lat="40.4102290" lon="-5.8161260">
        <ele>794.4</ele>
        <time>2021-10-15T11:40:56Z</time>
      </trkpt>
      <trkpt lat="40.4102640" lon="-5.8162080">
        <ele>794.4</ele>
        <time>2021-10-15T11:41:00Z</time>
      </trkpt>
      <trkpt lat="40.4102840" lon="-5.8162450">
        <ele>794.6</ele>
        <time>2021-10-15T11:41:02Z</time>
      </trkpt>
      <trkpt lat="40.4103050" lon="-5.8162710">
        <ele>794.8</ele>
        <time>2021-10-15T11:41:04Z</time>
      </trkpt>
      <trkpt lat="40.4103660" lon="-5.8163170">
        <ele>795.4</ele>
        <time>2021-10-15T11:41:08Z</time>
      </trkpt>
      <trkpt lat="40.4104480" lon="-5.8164220">
        <ele>795.6</ele>
        <time>2021-10-15T11:41:14Z</time>
      </trkpt>
      <trkpt lat="40.4104530" lon="-5.8164420">
        <ele>795.8</ele>
        <time>2021-10-15T11:41:15Z</time>
      </trkpt>
      <trkpt lat="40.4104580" lon="-5.8164590">
        <ele>795.8</ele>
        <time>2021-10-15T11:41:16Z</time>
      </trkpt>
      <trkpt lat="40.4105050" lon="-5.8164870">
        <ele>796.0</ele>
        <time>2021-10-15T11:41:19Z</time>
      </trkpt>
      <trkpt lat="40.4105180" lon="-5.8164940">
        <ele>796.0</ele>
        <time>2021-10-15T11:41:20Z</time>
      </trkpt>
      <trkpt lat="40.4105630" lon="-5.8165350">
        <ele>796.0</ele>
        <time>2021-10-15T11:41:24Z</time>
      </trkpt>
      <trkpt lat="40.4105750" lon="-5.8165410">
        <ele>796.0</ele>
        <time>2021-10-15T11:41:25Z</time>
      </trkpt>
      <trkpt lat="40.4106100" lon="-5.8165490">
        <ele>796.2</ele>
        <time>2021-10-15T11:41:28Z</time>
      </trkpt>
      <trkpt lat="40.4106210" lon="-5.8165690">
        <ele>796.2</ele>
        <time>2021-10-15T11:41:30Z</time>
      </trkpt>
      <trkpt lat="40.4106260" lon="-5.8165760">
        <ele>796.2</ele>
        <time>2021-10-15T11:41:31Z</time>
      </trkpt>
      <trkpt lat="40.4106290" lon="-5.8165790">
        <ele>796.2</ele>
        <time>2021-10-15T11:41:32Z</time>
      </trkpt>
      <trkpt lat="40.4106540" lon="-5.8166020">
        <ele>796.2</ele>
        <time>2021-10-15T11:41:34Z</time>
      </trkpt>
      <trkpt lat="40.4106860" lon="-5.8166120">
        <ele>796.2</ele>
        <time>2021-10-15T11:41:36Z</time>
      </trkpt>
      <trkpt lat="40.4106920" lon="-5.8165960">
        <ele>796.2</ele>
        <time>2021-10-15T11:41:41Z</time>
      </trkpt>
      <trkpt lat="40.4106680" lon="-5.8166240">
        <ele>796.0</ele>
        <time>2021-10-15T11:42:11Z</time>
      </trkpt>
      <trkpt lat="40.4106470" lon="-5.8166460">
        <ele>796.0</ele>
        <time>2021-10-15T11:42:13Z</time>
      </trkpt>
      <trkpt lat="40.4106290" lon="-5.8166560">
        <ele>796.0</ele>
        <time>2021-10-15T11:42:17Z</time>
      </trkpt>
      <trkpt lat="40.4106630" lon="-5.8166050">
        <ele>796.0</ele>
        <time>2021-10-15T11:42:40Z</time>
      </trkpt>
      <trkpt lat="40.4106730" lon="-5.8165920">
        <ele>796.0</ele>
        <time>2021-10-15T11:42:41Z</time>
      </trkpt>
      <trkpt lat="40.4107010" lon="-5.8165570">
        <ele>796.0</ele>
        <time>2021-10-15T11:42:46Z</time>
      </trkpt>
      <trkpt lat="40.4107010" lon="-5.8165570">
        <ele>796.0</ele>
        <time>2021-10-15T11:42:47Z</time>
      </trkpt>
      <trkpt lat="40.4105990" lon="-5.8165690">
        <ele>799.0</ele>
        <time>2021-10-15T12:25:50Z</time>
      </trkpt>
      <trkpt lat="40.4105820" lon="-5.8165550">
        <ele>799.0</ele>
        <time>2021-10-15T12:25:51Z</time>
      </trkpt>
      <trkpt lat="40.4105630" lon="-5.8165360">
        <ele>799.0</ele>
        <time>2021-10-15T12:25:52Z</time>
      </trkpt>
      <trkpt lat="40.4104790" lon="-5.8164980">
        <ele>799.0</ele>
        <time>2021-10-15T12:25:56Z</time>
      </trkpt>
      <trkpt lat="40.4104600" lon="-5.8164920">
        <ele>799.0</ele>
        <time>2021-10-15T12:25:57Z</time>
      </trkpt>
      <trkpt lat="40.4103700" lon="-5.8164000">
        <ele>798.8</ele>
        <time>2021-10-15T12:26:01Z</time>
      </trkpt>
      <trkpt lat="40.4103320" lon="-5.8163390">
        <ele>798.8</ele>
        <time>2021-10-15T12:26:03Z</time>
      </trkpt>
      <trkpt lat="40.4102100" lon="-5.8161050">
        <ele>798.4</ele>
        <time>2021-10-15T12:26:09Z</time>
      </trkpt>
      <trkpt lat="40.4101510" lon="-5.8160650">
        <ele>798.0</ele>
        <time>2021-10-15T12:26:11Z</time>
      </trkpt>
      <trkpt lat="40.4101190" lon="-5.8160660">
        <ele>798.0</ele>
        <time>2021-10-15T12:26:12Z</time>
      </trkpt>
      <trkpt lat="40.4099740" lon="-5.8161510">
        <ele>797.0</ele>
        <time>2021-10-15T12:26:17Z</time>
      </trkpt>
      <trkpt lat="40.4099490" lon="-5.8161740">
        <ele>796.8</ele>
        <time>2021-10-15T12:26:18Z</time>
      </trkpt>
      <trkpt lat="40.4098290" lon="-5.8162990">
        <ele>796.2</ele>
        <time>2021-10-15T12:26:23Z</time>
      </trkpt>
      <trkpt lat="40.4096490" lon="-5.8164220">
        <ele>795.8</ele>
        <time>2021-10-15T12:26:29Z</time>
      </trkpt>
      <trkpt lat="40.4096170" lon="-5.8164460">
        <ele>795.6</ele>
        <time>2021-10-15T12:26:30Z</time>
      </trkpt>
      <trkpt lat="40.4094170" lon="-5.8165480">
        <ele>795.2</ele>
        <time>2021-10-15T12:26:36Z</time>
      </trkpt>
      <trkpt lat="40.4093800" lon="-5.8165680">
        <ele>795.2</ele>
        <time>2021-10-15T12:26:37Z</time>
      </trkpt>
      <trkpt lat="40.4092110" lon="-5.8166710">
        <ele>794.6</ele>
        <time>2021-10-15T12:26:41Z</time>
      </trkpt>
      <trkpt lat="40.4091640" lon="-5.8167030">
        <ele>794.4</ele>
        <time>2021-10-15T12:26:42Z</time>
      </trkpt>
      <trkpt lat="40.4089290" lon="-5.8168710">
        <ele>793.2</ele>
        <time>2021-10-15T12:26:47Z</time>
      </trkpt>
      <trkpt lat="40.4088430" lon="-5.8169320">
        <ele>792.4</ele>
        <time>2021-10-15T12:26:49Z</time>
      </trkpt>
      <trkpt lat="40.4088030" lon="-5.8169670">
        <ele>792.2</ele>
        <time>2021-10-15T12:26:50Z</time>
      </trkpt>
      <trkpt lat="40.4087610" lon="-5.8170070">
        <ele>792.0</ele>
        <time>2021-10-15T12:26:51Z</time>
      </trkpt>
      <trkpt lat="40.4087190" lon="-5.8170420">
        <ele>792.0</ele>
        <time>2021-10-15T12:26:52Z</time>
      </trkpt>
      <trkpt lat="40.4086280" lon="-5.8171050">
        <ele>791.6</ele>
        <time>2021-10-15T12:26:54Z</time>
      </trkpt>
      <trkpt lat="40.4085290" lon="-5.8171540">
        <ele>791.0</ele>
        <time>2021-10-15T12:26:56Z</time>
      </trkpt>
      <trkpt lat="40.4084760" lon="-5.8171680">
        <ele>790.8</ele>
        <time>2021-10-15T12:26:57Z</time>
      </trkpt>
      <trkpt lat="40.4083560" lon="-5.8171830">
        <ele>790.2</ele>
        <time>2021-10-15T12:26:59Z</time>
      </trkpt>
      <trkpt lat="40.4082310" lon="-5.8171970">
        <ele>789.4</ele>
        <time>2021-10-15T12:27:01Z</time>
      </trkpt>
      <trkpt lat="40.4080430" lon="-5.8172080">
        <ele>788.0</ele>
        <time>2021-10-15T12:27:04Z</time>
      </trkpt>
      <trkpt lat="40.4079830" lon="-5.8172160">
        <ele>787.8</ele>
        <time>2021-10-15T12:27:05Z</time>
      </trkpt>
      <trkpt lat="40.4078680" lon="-5.8172470">
        <ele>786.6</ele>
        <time>2021-10-15T12:27:07Z</time>
      </trkpt>
      <trkpt lat="40.4076960" lon="-5.8173340">
        <ele>785.8</ele>
        <time>2021-10-15T12:27:10Z</time>
      </trkpt>
      <trkpt lat="40.4076390" lon="-5.8173710">
        <ele>785.4</ele>
        <time>2021-10-15T12:27:11Z</time>
      </trkpt>
      <trkpt lat="40.4075240" lon="-5.8174560">
        <ele>784.4</ele>
        <time>2021-10-15T12:27:13Z</time>
      </trkpt>
      <trkpt lat="40.4074080" lon="-5.8175270">
        <ele>782.6</ele>
        <time>2021-10-15T12:27:15Z</time>
      </trkpt>
      <trkpt lat="40.4072950" lon="-5.8176000">
        <ele>781.8</ele>
        <time>2021-10-15T12:27:17Z</time>
      </trkpt>
      <trkpt lat="40.4071400" lon="-5.8177140">
        <ele>781.4</ele>
        <time>2021-10-15T12:27:20Z</time>
      </trkpt>
      <trkpt lat="40.4069510" lon="-5.8178520">
        <ele>780.4</ele>
        <time>2021-10-15T12:27:24Z</time>
      </trkpt>
      <trkpt lat="40.4068640" lon="-5.8179250">
        <ele>780.2</ele>
        <time>2021-10-15T12:27:26Z</time>
      </trkpt>
      <trkpt lat="40.4066520" lon="-5.8181120">
        <ele>779.8</ele>
        <time>2021-10-15T12:27:31Z</time>
      </trkpt>
      <trkpt lat="40.4065180" lon="-5.8182280">
        <ele>779.6</ele>
        <time>2021-10-15T12:27:34Z</time>
      </trkpt>
      <trkpt lat="40.4064250" lon="-5.8183050">
        <ele>779.6</ele>
        <time>2021-10-15T12:27:36Z</time>
      </trkpt>
      <trkpt lat="40.4063830" lon="-5.8183560">
        <ele>779.6</ele>
        <time>2021-10-15T12:27:37Z</time>
      </trkpt>
      <trkpt lat="40.4063090" lon="-5.8184670">
        <ele>779.2</ele>
        <time>2021-10-15T12:27:39Z</time>
      </trkpt>
      <trkpt lat="40.4062690" lon="-5.8185140">
        <ele>779.2</ele>
        <time>2021-10-15T12:27:40Z</time>
      </trkpt>
      <trkpt lat="40.4061560" lon="-5.8186420">
        <ele>778.8</ele>
        <time>2021-10-15T12:27:43Z</time>
      </trkpt>
      <trkpt lat="40.4060610" lon="-5.8187450">
        <ele>778.4</ele>
        <time>2021-10-15T12:27:46Z</time>
      </trkpt>
      <trkpt lat="40.4060100" lon="-5.8188090">
        <ele>778.2</ele>
        <time>2021-10-15T12:27:48Z</time>
      </trkpt>
      <trkpt lat="40.4059860" lon="-5.8188410">
        <ele>778.2</ele>
        <time>2021-10-15T12:27:49Z</time>
      </trkpt>
      <trkpt lat="40.4058040" lon="-5.8190280">
        <ele>778.2</ele>
        <time>2021-10-15T12:27:56Z</time>
      </trkpt>
      <trkpt lat="40.4057600" lon="-5.8190850">
        <ele>778.2</ele>
        <time>2021-10-15T12:27:58Z</time>
      </trkpt>
      <trkpt lat="40.4057400" lon="-5.8191140">
        <ele>778.4</ele>
        <time>2021-10-15T12:27:59Z</time>
      </trkpt>
      <trkpt lat="40.4056540" lon="-5.8191990">
        <ele>778.4</ele>
        <time>2021-10-15T12:28:03Z</time>
      </trkpt>
      <trkpt lat="40.4055030" lon="-5.8193600">
        <ele>778.4</ele>
        <time>2021-10-15T12:28:08Z</time>
      </trkpt>
      <trkpt lat="40.4054720" lon="-5.8193920">
        <ele>778.4</ele>
        <time>2021-10-15T12:28:09Z</time>
      </trkpt>
      <trkpt lat="40.4053220" lon="-5.8195630">
        <ele>778.2</ele>
        <time>2021-10-15T12:28:13Z</time>
      </trkpt>
      <trkpt lat="40.4052300" lon="-5.8197100">
        <ele>778.0</ele>
        <time>2021-10-15T12:28:16Z</time>
      </trkpt>
      <trkpt lat="40.4050540" lon="-5.8200300">
        <ele>777.4</ele>
        <time>2021-10-15T12:28:22Z</time>
      </trkpt>
      <trkpt lat="40.4050130" lon="-5.8201050">
        <ele>777.2</ele>
        <time>2021-10-15T12:28:24Z</time>
      </trkpt>
      <trkpt lat="40.4049470" lon="-5.8202320">
        <ele>777.4</ele>
        <time>2021-10-15T12:28:27Z</time>
      </trkpt>
      <trkpt lat="40.4047880" lon="-5.8205290">
        <ele>777.6</ele>
        <time>2021-10-15T12:28:34Z</time>
      </trkpt>
      <trkpt lat="40.4046340" lon="-5.8208280">
        <ele>777.6</ele>
        <time>2021-10-15T12:28:40Z</time>
      </trkpt>
      <trkpt lat="40.4045700" lon="-5.8209260">
        <ele>777.4</ele>
        <time>2021-10-15T12:28:42Z</time>
      </trkpt>
      <trkpt lat="40.4044490" lon="-5.8210450">
        <ele>777.0</ele>
        <time>2021-10-15T12:28:45Z</time>
      </trkpt>
      <trkpt lat="40.4043150" lon="-5.8211560">
        <ele>776.2</ele>
        <time>2021-10-15T12:28:48Z</time>
      </trkpt>
      <trkpt lat="40.4041940" lon="-5.8212550">
        <ele>776.0</ele>
        <time>2021-10-15T12:28:51Z</time>
      </trkpt>
      <trkpt lat="40.4041570" lon="-5.8212730">
        <ele>775.8</ele>
        <time>2021-10-15T12:28:52Z</time>
      </trkpt>
      <trkpt lat="40.4040270" lon="-5.8213350">
        <ele>775.2</ele>
        <time>2021-10-15T12:28:56Z</time>
      </trkpt>
      <trkpt lat="40.4039990" lon="-5.8213600">
        <ele>775.0</ele>
        <time>2021-10-15T12:28:57Z</time>
      </trkpt>
      <trkpt lat="40.4038480" lon="-5.8215490">
        <ele>774.2</ele>
        <time>2021-10-15T12:29:02Z</time>
      </trkpt>
      <trkpt lat="40.4038090" lon="-5.8215970">
        <ele>774.2</ele>
        <time>2021-10-15T12:29:03Z</time>
      </trkpt>
      <trkpt lat="40.4037290" lon="-5.8217010">
        <ele>773.2</ele>
        <time>2021-10-15T12:29:05Z</time>
      </trkpt>
      <trkpt lat="40.4036810" lon="-5.8217720">
        <ele>772.8</ele>
        <time>2021-10-15T12:29:06Z</time>
      </trkpt>
      <trkpt lat="40.4036130" lon="-5.8219200">
        <ele>771.8</ele>
        <time>2021-10-15T12:29:08Z</time>
      </trkpt>
      <trkpt lat="40.4035680" lon="-5.8220570">
        <ele>770.6</ele>
        <time>2021-10-15T12:29:10Z</time>
      </trkpt>
      <trkpt lat="40.4035370" lon="-5.8221210">
        <ele>770.4</ele>
        <time>2021-10-15T12:29:11Z</time>
      </trkpt>
      <trkpt lat="40.4034450" lon="-5.8222190">
        <ele>769.4</ele>
        <time>2021-10-15T12:29:13Z</time>
      </trkpt>
      <trkpt lat="40.4033130" lon="-5.8222970">
        <ele>768.6</ele>
        <time>2021-10-15T12:29:16Z</time>
      </trkpt>
      <trkpt lat="40.4032640" lon="-5.8223260">
        <ele>768.2</ele>
        <time>2021-10-15T12:29:17Z</time>
      </trkpt>
      <trkpt lat="40.4031660" lon="-5.8223850">
        <ele>768.2</ele>
        <time>2021-10-15T12:29:19Z</time>
      </trkpt>
      <trkpt lat="40.4029730" lon="-5.8224920">
        <ele>767.8</ele>
        <time>2021-10-15T12:29:23Z</time>
      </trkpt>
      <trkpt lat="40.4028310" lon="-5.8225900">
        <ele>767.4</ele>
        <time>2021-10-15T12:29:26Z</time>
      </trkpt>
      <trkpt lat="40.4027480" lon="-5.8226520">
        <ele>767.2</ele>
        <time>2021-10-15T12:29:28Z</time>
      </trkpt>
      <trkpt lat="40.4025740" lon="-5.8227990">
        <ele>766.8</ele>
        <time>2021-10-15T12:29:33Z</time>
      </trkpt>
      <trkpt lat="40.4024720" lon="-5.8228800">
        <ele>766.6</ele>
        <time>2021-10-15T12:29:36Z</time>
      </trkpt>
      <trkpt lat="40.4023590" lon="-5.8230200">
        <ele>766.4</ele>
        <time>2021-10-15T12:29:39Z</time>
      </trkpt>
      <trkpt lat="40.4022660" lon="-5.8231290">
        <ele>766.2</ele>
        <time>2021-10-15T12:29:41Z</time>
      </trkpt>
      <trkpt lat="40.4021130" lon="-5.8232920">
        <ele>764.8</ele>
        <time>2021-10-15T12:29:44Z</time>
      </trkpt>
      <trkpt lat="40.4018980" lon="-5.8234680">
        <ele>763.6</ele>
        <time>2021-10-15T12:29:48Z</time>
      </trkpt>
      <trkpt lat="40.4018580" lon="-5.8234920">
        <ele>763.2</ele>
        <time>2021-10-15T12:29:49Z</time>
      </trkpt>
      <trkpt lat="40.4018090" lon="-5.8235180">
        <ele>762.8</ele>
        <time>2021-10-15T12:29:50Z</time>
      </trkpt>
      <trkpt lat="40.4016660" lon="-5.8236050">
        <ele>762.4</ele>
        <time>2021-10-15T12:29:53Z</time>
      </trkpt>
      <trkpt lat="40.4015100" lon="-5.8236780">
        <ele>762.2</ele>
        <time>2021-10-15T12:29:56Z</time>
      </trkpt>
      <trkpt lat="40.4014250" lon="-5.8237120">
        <ele>762.0</ele>
        <time>2021-10-15T12:29:58Z</time>
      </trkpt>
      <trkpt lat="40.4013540" lon="-5.8237230">
        <ele>761.8</ele>
        <time>2021-10-15T12:30:00Z</time>
      </trkpt>
      <trkpt lat="40.4012410" lon="-5.8237730">
        <ele>761.4</ele>
        <time>2021-10-15T12:30:03Z</time>
      </trkpt>
      <trkpt lat="40.4011960" lon="-5.8237940">
        <ele>761.2</ele>
        <time>2021-10-15T12:30:04Z</time>
      </trkpt>
      <trkpt lat="40.4010390" lon="-5.8238440">
        <ele>760.4</ele>
        <time>2021-10-15T12:30:07Z</time>
      </trkpt>
      <trkpt lat="40.4009820" lon="-5.8238510">
        <ele>759.8</ele>
        <time>2021-10-15T12:30:08Z</time>
      </trkpt>
      <trkpt lat="40.4009240" lon="-5.8238570">
        <ele>759.6</ele>
        <time>2021-10-15T12:30:09Z</time>
      </trkpt>
      <trkpt lat="40.4006810" lon="-5.8238620">
        <ele>758.8</ele>
        <time>2021-10-15T12:30:13Z</time>
      </trkpt>
      <trkpt lat="40.4004950" lon="-5.8238850">
        <ele>757.8</ele>
        <time>2021-10-15T12:30:16Z</time>
      </trkpt>
      <trkpt lat="40.4004360" lon="-5.8238940">
        <ele>757.4</ele>
        <time>2021-10-15T12:30:17Z</time>
      </trkpt>
      <trkpt lat="40.4002080" lon="-5.8239420">
        <ele>756.6</ele>
        <time>2021-10-15T12:30:21Z</time>
      </trkpt>
      <trkpt lat="40.4000870" lon="-5.8239610">
        <ele>755.8</ele>
        <time>2021-10-15T12:30:23Z</time>
      </trkpt>
      <trkpt lat="40.3998950" lon="-5.8239950">
        <ele>754.6</ele>
        <time>2021-10-15T12:30:26Z</time>
      </trkpt>
      <trkpt lat="40.3996230" lon="-5.8240540">
        <ele>753.4</ele>
        <time>2021-10-15T12:30:30Z</time>
      </trkpt>
      <trkpt lat="40.3995590" lon="-5.8240730">
        <ele>753.2</ele>
        <time>2021-10-15T12:30:31Z</time>
      </trkpt>
      <trkpt lat="40.3993830" lon="-5.8241580">
        <ele>752.2</ele>
        <time>2021-10-15T12:30:34Z</time>
      </trkpt>
      <trkpt lat="40.3992750" lon="-5.8242360">
        <ele>751.4</ele>
        <time>2021-10-15T12:30:36Z</time>
      </trkpt>
      <trkpt lat="40.3992250" lon="-5.8242790">
        <ele>751.2</ele>
        <time>2021-10-15T12:30:37Z</time>
      </trkpt>
      <trkpt lat="40.3991790" lon="-5.8243260">
        <ele>751.0</ele>
        <time>2021-10-15T12:30:38Z</time>
      </trkpt>
      <trkpt lat="40.3990880" lon="-5.8244240">
        <ele>750.0</ele>
        <time>2021-10-15T12:30:40Z</time>
      </trkpt>
      <trkpt lat="40.3990410" lon="-5.8244650">
        <ele>749.4</ele>
        <time>2021-10-15T12:30:41Z</time>
      </trkpt>
      <trkpt lat="40.3989430" lon="-5.8245370">
        <ele>748.8</ele>
        <time>2021-10-15T12:30:43Z</time>
      </trkpt>
      <trkpt lat="40.3987970" lon="-5.8246490">
        <ele>747.6</ele>
        <time>2021-10-15T12:30:46Z</time>
      </trkpt>
      <trkpt lat="40.3987100" lon="-5.8247170">
        <ele>746.4</ele>
        <time>2021-10-15T12:30:48Z</time>
      </trkpt>
      <trkpt lat="40.3986670" lon="-5.8247430">
        <ele>746.0</ele>
        <time>2021-10-15T12:30:49Z</time>
      </trkpt>
      <trkpt lat="40.3986200" lon="-5.8247550">
        <ele>745.0</ele>
        <time>2021-10-15T12:30:50Z</time>
      </trkpt>
      <trkpt lat="40.3985180" lon="-5.8247550">
        <ele>744.0</ele>
        <time>2021-10-15T12:30:52Z</time>
      </trkpt>
      <trkpt lat="40.3984640" lon="-5.8247510">
        <ele>743.8</ele>
        <time>2021-10-15T12:30:53Z</time>
      </trkpt>
      <trkpt lat="40.3984100" lon="-5.8247570">
        <ele>743.4</ele>
        <time>2021-10-15T12:30:54Z</time>
      </trkpt>
      <trkpt lat="40.3983110" lon="-5.8247750">
        <ele>742.8</ele>
        <time>2021-10-15T12:30:56Z</time>
      </trkpt>
      <trkpt lat="40.3982660" lon="-5.8247830">
        <ele>742.6</ele>
        <time>2021-10-15T12:30:57Z</time>
      </trkpt>
      <trkpt lat="40.3981280" lon="-5.8247970">
        <ele>741.8</ele>
        <time>2021-10-15T12:31:00Z</time>
      </trkpt>
      <trkpt lat="40.3980430" lon="-5.8247960">
        <ele>740.4</ele>
        <time>2021-10-15T12:31:02Z</time>
      </trkpt>
      <trkpt lat="40.3979620" lon="-5.8247930">
        <ele>739.4</ele>
        <time>2021-10-15T12:31:04Z</time>
      </trkpt>
      <trkpt lat="40.3979220" lon="-5.8248040">
        <ele>738.4</ele>
        <time>2021-10-15T12:31:05Z</time>
      </trkpt>
      <trkpt lat="40.3978400" lon="-5.8248370">
        <ele>737.0</ele>
        <time>2021-10-15T12:31:07Z</time>
      </trkpt>
      <trkpt lat="40.3977260" lon="-5.8248860">
        <ele>735.6</ele>
        <time>2021-10-15T12:31:10Z</time>
      </trkpt>
      <trkpt lat="40.3976480" lon="-5.8249320">
        <ele>734.0</ele>
        <time>2021-10-15T12:31:12Z</time>
      </trkpt>
      <trkpt lat="40.3976060" lon="-5.8249530">
        <ele>733.8</ele>
        <time>2021-10-15T12:31:13Z</time>
      </trkpt>
      <trkpt lat="40.3975640" lon="-5.8249690">
        <ele>732.4</ele>
        <time>2021-10-15T12:31:14Z</time>
      </trkpt>
      <trkpt lat="40.3975250" lon="-5.8249800">
        <ele>732.0</ele>
        <time>2021-10-15T12:31:15Z</time>
      </trkpt>
      <trkpt lat="40.3974910" lon="-5.8249910">
        <ele>730.6</ele>
        <time>2021-10-15T12:31:16Z</time>
      </trkpt>
      <trkpt lat="40.3974570" lon="-5.8250060">
        <ele>729.2</ele>
        <time>2021-10-15T12:31:17Z</time>
      </trkpt>
      <trkpt lat="40.3973890" lon="-5.8250300">
        <ele>727.6</ele>
        <time>2021-10-15T12:31:19Z</time>
      </trkpt>
      <trkpt lat="40.3972880" lon="-5.8250540">
        <ele>726.2</ele>
        <time>2021-10-15T12:31:22Z</time>
      </trkpt>
      <trkpt lat="40.3972550" lon="-5.8250660">
        <ele>725.6</ele>
        <time>2021-10-15T12:31:23Z</time>
      </trkpt>
      <trkpt lat="40.3971950" lon="-5.8250880">
        <ele>724.6</ele>
        <time>2021-10-15T12:31:25Z</time>
      </trkpt>
      <trkpt lat="40.3971200" lon="-5.8250990">
        <ele>723.4</ele>
        <time>2021-10-15T12:31:28Z</time>
      </trkpt>
      <trkpt lat="40.3970970" lon="-5.8250920">
        <ele>723.0</ele>
        <time>2021-10-15T12:31:29Z</time>
      </trkpt>
      <trkpt lat="40.3970810" lon="-5.8250720">
        <ele>722.2</ele>
        <time>2021-10-15T12:31:30Z</time>
      </trkpt>
      <trkpt lat="40.3970520" lon="-5.8250200">
        <ele>721.2</ele>
        <time>2021-10-15T12:31:33Z</time>
      </trkpt>
      <trkpt lat="40.3970470" lon="-5.8250120">
        <ele>720.6</ele>
        <time>2021-10-15T12:31:34Z</time>
      </trkpt>
      <trkpt lat="40.3970470" lon="-5.8250120">
        <ele>720.4</ele>
        <time>2021-10-15T12:31:35Z</time>
      </trkpt>
      <trkpt lat="40.3970470" lon="-5.8250120">
        <ele>719.8</ele>
        <time>2021-10-15T12:31:36Z</time>
      </trkpt>
      <trkpt lat="40.3970460" lon="-5.8249200">
        <ele>718.4</ele>
        <time>2021-10-15T12:31:43Z</time>
      </trkpt>
      <trkpt lat="40.3969820" lon="-5.8248190">
        <ele>717.8</ele>
        <time>2021-10-15T12:31:48Z</time>
      </trkpt>
      <trkpt lat="40.3969450" lon="-5.8248520">
        <ele>717.0</ele>
        <time>2021-10-15T12:31:52Z</time>
      </trkpt>
      <trkpt lat="40.3969210" lon="-5.8248980">
        <ele>716.2</ele>
        <time>2021-10-15T12:31:55Z</time>
      </trkpt>
      <trkpt lat="40.3969150" lon="-5.8249170">
        <ele>716.0</ele>
        <time>2021-10-15T12:31:56Z</time>
      </trkpt>
      <trkpt lat="40.3968870" lon="-5.8250150">
        <ele>714.8</ele>
        <time>2021-10-15T12:32:01Z</time>
      </trkpt>
      <trkpt lat="40.3968770" lon="-5.8250340">
        <ele>714.8</ele>
        <time>2021-10-15T12:32:02Z</time>
      </trkpt>
      <trkpt lat="40.3968570" lon="-5.8251160">
        <ele>713.4</ele>
        <time>2021-10-15T12:32:05Z</time>
      </trkpt>
      <trkpt lat="40.3968210" lon="-5.8251880">
        <ele>712.8</ele>
        <time>2021-10-15T12:32:07Z</time>
      </trkpt>
      <trkpt lat="40.3967810" lon="-5.8252820">
        <ele>712.4</ele>
        <time>2021-10-15T12:32:09Z</time>
      </trkpt>
      <trkpt lat="40.3967610" lon="-5.8253320">
        <ele>712.2</ele>
        <time>2021-10-15T12:32:10Z</time>
      </trkpt>
      <trkpt lat="40.3967450" lon="-5.8253800">
        <ele>712.0</ele>
        <time>2021-10-15T12:32:11Z</time>
      </trkpt>
      <trkpt lat="40.3967320" lon="-5.8254350">
        <ele>711.8</ele>
        <time>2021-10-15T12:32:12Z</time>
      </trkpt>
      <trkpt lat="40.3967230" lon="-5.8254940">
        <ele>711.8</ele>
        <time>2021-10-15T12:32:13Z</time>
      </trkpt>
      <trkpt lat="40.3966920" lon="-5.8256760">
        <ele>711.2</ele>
        <time>2021-10-15T12:32:16Z</time>
      </trkpt>
      <trkpt lat="40.3966780" lon="-5.8257310">
        <ele>711.0</ele>
        <time>2021-10-15T12:32:17Z</time>
      </trkpt>
      <trkpt lat="40.3966090" lon="-5.8259480">
        <ele>710.0</ele>
        <time>2021-10-15T12:32:21Z</time>
      </trkpt>
      <trkpt lat="40.3965590" lon="-5.8260520">
        <ele>709.6</ele>
        <time>2021-10-15T12:32:23Z</time>
      </trkpt>
      <trkpt lat="40.3964510" lon="-5.8262400">
        <ele>709.0</ele>
        <time>2021-10-15T12:32:27Z</time>
      </trkpt>
      <trkpt lat="40.3964280" lon="-5.8262840">
        <ele>708.8</ele>
        <time>2021-10-15T12:32:28Z</time>
      </trkpt>
      <trkpt lat="40.3963710" lon="-5.8263600">
        <ele>707.8</ele>
        <time>2021-10-15T12:32:30Z</time>
      </trkpt>
      <trkpt lat="40.3963020" lon="-5.8264200">
        <ele>707.0</ele>
        <time>2021-10-15T12:32:32Z</time>
      </trkpt>
      <trkpt lat="40.3962700" lon="-5.8264500">
        <ele>707.0</ele>
        <time>2021-10-15T12:32:33Z</time>
      </trkpt>
      <trkpt lat="40.3962410" lon="-5.8264820">
        <ele>706.8</ele>
        <time>2021-10-15T12:32:34Z</time>
      </trkpt>
      <trkpt lat="40.3961770" lon="-5.8265750">
        <ele>706.4</ele>
        <time>2021-10-15T12:32:37Z</time>
      </trkpt>
      <trkpt lat="40.3961080" lon="-5.8266590">
        <ele>706.4</ele>
        <time>2021-10-15T12:32:40Z</time>
      </trkpt>
      <trkpt lat="40.3960360" lon="-5.8267530">
        <ele>706.4</ele>
        <time>2021-10-15T12:32:43Z</time>
      </trkpt>
      <trkpt lat="40.3958710" lon="-5.8270710">
        <ele>706.6</ele>
        <time>2021-10-15T12:32:50Z</time>
      </trkpt>
      <trkpt lat="40.3958120" lon="-5.8272170">
        <ele>707.0</ele>
        <time>2021-10-15T12:32:53Z</time>
      </trkpt>
      <trkpt lat="40.3957450" lon="-5.8273890">
        <ele>707.2</ele>
        <time>2021-10-15T12:32:57Z</time>
      </trkpt>
      <trkpt lat="40.3957010" lon="-5.8274990">
        <ele>707.8</ele>
        <time>2021-10-15T12:33:00Z</time>
      </trkpt>
      <trkpt lat="40.3956750" lon="-5.8275560">
        <ele>708.2</ele>
        <time>2021-10-15T12:33:02Z</time>
      </trkpt>
      <trkpt lat="40.3956100" lon="-5.8276720">
        <ele>709.2</ele>
        <time>2021-10-15T12:33:07Z</time>
      </trkpt>
      <trkpt lat="40.3955850" lon="-5.8277140">
        <ele>709.4</ele>
        <time>2021-10-15T12:33:09Z</time>
      </trkpt>
      <trkpt lat="40.3955640" lon="-5.8277530">
        <ele>709.6</ele>
        <time>2021-10-15T12:33:11Z</time>
      </trkpt>
      <trkpt lat="40.3955310" lon="-5.8278160">
        <ele>710.0</ele>
        <time>2021-10-15T12:33:14Z</time>
      </trkpt>
      <trkpt lat="40.3954940" lon="-5.8278800">
        <ele>710.2</ele>
        <time>2021-10-15T12:33:17Z</time>
      </trkpt>
      <trkpt lat="40.3954830" lon="-5.8279080">
        <ele>710.2</ele>
        <time>2021-10-15T12:33:18Z</time>
      </trkpt>
      <trkpt lat="40.3954540" lon="-5.8279600">
        <ele>710.2</ele>
        <time>2021-10-15T12:33:20Z</time>
      </trkpt>
      <trkpt lat="40.3953880" lon="-5.8280990">
        <ele>710.2</ele>
        <time>2021-10-15T12:33:24Z</time>
      </trkpt>
      <trkpt lat="40.3953730" lon="-5.8281400">
        <ele>710.2</ele>
        <time>2021-10-15T12:33:25Z</time>
      </trkpt>
      <trkpt lat="40.3953170" lon="-5.8282650">
        <ele>710.2</ele>
        <time>2021-10-15T12:33:28Z</time>
      </trkpt>
      <trkpt lat="40.3952550" lon="-5.8283960">
        <ele>710.0</ele>
        <time>2021-10-15T12:33:31Z</time>
      </trkpt>
      <trkpt lat="40.3952350" lon="-5.8284380">
        <ele>709.8</ele>
        <time>2021-10-15T12:33:32Z</time>
      </trkpt>
      <trkpt lat="40.3951050" lon="-5.8286220">
        <ele>709.4</ele>
        <time>2021-10-15T12:33:37Z</time>
      </trkpt>
      <trkpt lat="40.3950470" lon="-5.8287150">
        <ele>709.2</ele>
        <time>2021-10-15T12:33:39Z</time>
      </trkpt>
      <trkpt lat="40.3949300" lon="-5.8288950">
        <ele>708.2</ele>
        <time>2021-10-15T12:33:43Z</time>
      </trkpt>
      <trkpt lat="40.3949010" lon="-5.8289370">
        <ele>708.0</ele>
        <time>2021-10-15T12:33:44Z</time>
      </trkpt>
      <trkpt lat="40.3947900" lon="-5.8291040">
        <ele>707.6</ele>
        <time>2021-10-15T12:33:48Z</time>
      </trkpt>
      <trkpt lat="40.3947640" lon="-5.8291400">
        <ele>707.6</ele>
        <time>2021-10-15T12:33:49Z</time>
      </trkpt>
      <trkpt lat="40.3945980" lon="-5.8292380">
        <ele>707.2</ele>
        <time>2021-10-15T12:33:54Z</time>
      </trkpt>
      <trkpt lat="40.3945410" lon="-5.8292690">
        <ele>706.8</ele>
        <time>2021-10-15T12:33:56Z</time>
      </trkpt>
      <trkpt lat="40.3944220" lon="-5.8293450">
        <ele>706.2</ele>
        <time>2021-10-15T12:34:00Z</time>
      </trkpt>
      <trkpt lat="40.3943550" lon="-5.8293890">
        <ele>706.0</ele>
        <time>2021-10-15T12:34:02Z</time>
      </trkpt>
      <trkpt lat="40.3941770" lon="-5.8295220">
        <ele>705.8</ele>
        <time>2021-10-15T12:34:07Z</time>
      </trkpt>
      <trkpt lat="40.3939670" lon="-5.8296670">
        <ele>704.8</ele>
        <time>2021-10-15T12:34:13Z</time>
      </trkpt>
      <trkpt lat="40.3938970" lon="-5.8297030">
        <ele>704.4</ele>
        <time>2021-10-15T12:34:15Z</time>
      </trkpt>
      <trkpt lat="40.3937420" lon="-5.8297890">
        <ele>703.6</ele>
        <time>2021-10-15T12:34:20Z</time>
      </trkpt>
      <trkpt lat="40.3937150" lon="-5.8298060">
        <ele>703.6</ele>
        <time>2021-10-15T12:34:21Z</time>
      </trkpt>
      <trkpt lat="40.3935660" lon="-5.8299610">
        <ele>703.2</ele>
        <time>2021-10-15T12:34:26Z</time>
      </trkpt>
      <trkpt lat="40.3934310" lon="-5.8301450">
        <ele>703.2</ele>
        <time>2021-10-15T12:34:31Z</time>
      </trkpt>
      <trkpt lat="40.3933910" lon="-5.8302160">
        <ele>703.0</ele>
        <time>2021-10-15T12:34:33Z</time>
      </trkpt>
      <trkpt lat="40.3932810" lon="-5.8304180">
        <ele>703.0</ele>
        <time>2021-10-15T12:34:38Z</time>
      </trkpt>
      <trkpt lat="40.3932150" lon="-5.8305410">
        <ele>702.8</ele>
        <time>2021-10-15T12:34:41Z</time>
      </trkpt>
      <trkpt lat="40.3931750" lon="-5.8306220">
        <ele>702.6</ele>
        <time>2021-10-15T12:34:43Z</time>
      </trkpt>
      <trkpt lat="40.3930280" lon="-5.8308660">
        <ele>702.4</ele>
        <time>2021-10-15T12:34:50Z</time>
      </trkpt>
      <trkpt lat="40.3928640" lon="-5.8310120">
        <ele>701.8</ele>
        <time>2021-10-15T12:34:57Z</time>
      </trkpt>
      <trkpt lat="40.3928250" lon="-5.8310530">
        <ele>701.6</ele>
        <time>2021-10-15T12:34:59Z</time>
      </trkpt>
      <trkpt lat="40.3927650" lon="-5.8311460">
        <ele>701.4</ele>
        <time>2021-10-15T12:35:02Z</time>
      </trkpt>
      <trkpt lat="40.3925710" lon="-5.8312500">
        <ele>701.4</ele>
        <time>2021-10-15T12:35:08Z</time>
      </trkpt>
      <trkpt lat="40.3924720" lon="-5.8313170">
        <ele>700.6</ele>
        <time>2021-10-15T12:35:11Z</time>
      </trkpt>
      <trkpt lat="40.3922540" lon="-5.8314530">
        <ele>699.8</ele>
        <time>2021-10-15T12:35:18Z</time>
      </trkpt>
      <trkpt lat="40.3922190" lon="-5.8314700">
        <ele>699.6</ele>
        <time>2021-10-15T12:35:19Z</time>
      </trkpt>
      <trkpt lat="40.3921040" lon="-5.8315290">
        <ele>698.6</ele>
        <time>2021-10-15T12:35:22Z</time>
      </trkpt>
      <trkpt lat="40.3920370" lon="-5.8315910">
        <ele>698.4</ele>
        <time>2021-10-15T12:35:24Z</time>
      </trkpt>
      <trkpt lat="40.3918990" lon="-5.8316840">
        <ele>698.0</ele>
        <time>2021-10-15T12:35:28Z</time>
      </trkpt>
      <trkpt lat="40.3917720" lon="-5.8317850">
        <ele>697.6</ele>
        <time>2021-10-15T12:35:32Z</time>
      </trkpt>
      <trkpt lat="40.3916460" lon="-5.8319280">
        <ele>696.6</ele>
        <time>2021-10-15T12:35:37Z</time>
      </trkpt>
      <trkpt lat="40.3915770" lon="-5.8320020">
        <ele>696.4</ele>
        <time>2021-10-15T12:35:40Z</time>
      </trkpt>
      <trkpt lat="40.3914850" lon="-5.8320810">
        <ele>696.4</ele>
        <time>2021-10-15T12:35:43Z</time>
      </trkpt>
      <trkpt lat="40.3914380" lon="-5.8321600">
        <ele>696.4</ele>
        <time>2021-10-15T12:35:45Z</time>
      </trkpt>
      <trkpt lat="40.3914060" lon="-5.8321940">
        <ele>696.4</ele>
        <time>2021-10-15T12:35:46Z</time>
      </trkpt>
      <trkpt lat="40.3912410" lon="-5.8322870">
        <ele>696.0</ele>
        <time>2021-10-15T12:35:50Z</time>
      </trkpt>
      <trkpt lat="40.3911540" lon="-5.8323340">
        <ele>695.8</ele>
        <time>2021-10-15T12:35:52Z</time>
      </trkpt>
      <trkpt lat="40.3911130" lon="-5.8323700">
        <ele>695.6</ele>
        <time>2021-10-15T12:35:53Z</time>
      </trkpt>
      <trkpt lat="40.3910760" lon="-5.8324130">
        <ele>695.6</ele>
        <time>2021-10-15T12:35:54Z</time>
      </trkpt>
      <trkpt lat="40.3910400" lon="-5.8324550">
        <ele>695.6</ele>
        <time>2021-10-15T12:35:55Z</time>
      </trkpt>
      <trkpt lat="40.3908930" lon="-5.8326090">
        <ele>694.6</ele>
        <time>2021-10-15T12:35:59Z</time>
      </trkpt>
      <trkpt lat="40.3908580" lon="-5.8326510">
        <ele>694.8</ele>
        <time>2021-10-15T12:36:00Z</time>
      </trkpt>
      <trkpt lat="40.3907870" lon="-5.8327240">
        <ele>694.4</ele>
        <time>2021-10-15T12:36:02Z</time>
      </trkpt>
      <trkpt lat="40.3907200" lon="-5.8328000">
        <ele>694.2</ele>
        <time>2021-10-15T12:36:04Z</time>
      </trkpt>
      <trkpt lat="40.3905900" lon="-5.8329580">
        <ele>694.0</ele>
        <time>2021-10-15T12:36:08Z</time>
      </trkpt>
      <trkpt lat="40.3905270" lon="-5.8330610">
        <ele>694.0</ele>
        <time>2021-10-15T12:36:10Z</time>
      </trkpt>
      <trkpt lat="40.3904440" lon="-5.8332310">
        <ele>693.6</ele>
        <time>2021-10-15T12:36:13Z</time>
      </trkpt>
      <trkpt lat="40.3904170" lon="-5.8332880">
        <ele>693.4</ele>
        <time>2021-10-15T12:36:14Z</time>
      </trkpt>
      <trkpt lat="40.3902640" lon="-5.8335660">
        <ele>692.6</ele>
        <time>2021-10-15T12:36:20Z</time>
      </trkpt>
      <trkpt lat="40.3900770" lon="-5.8337550">
        <ele>692.2</ele>
        <time>2021-10-15T12:36:27Z</time>
      </trkpt>
      <trkpt lat="40.3900150" lon="-5.8337880">
        <ele>692.0</ele>
        <time>2021-10-15T12:36:29Z</time>
      </trkpt>
      <trkpt lat="40.3898380" lon="-5.8339070">
        <ele>692.0</ele>
        <time>2021-10-15T12:36:34Z</time>
      </trkpt>
      <trkpt lat="40.3895220" lon="-5.8341090">
        <ele>692.4</ele>
        <time>2021-10-15T12:36:43Z</time>
      </trkpt>
      <trkpt lat="40.3894310" lon="-5.8341800">
        <ele>692.6</ele>
        <time>2021-10-15T12:36:46Z</time>
      </trkpt>
      <trkpt lat="40.3892240" lon="-5.8343960">
        <ele>693.2</ele>
        <time>2021-10-15T12:36:53Z</time>
      </trkpt>
      <trkpt lat="40.3890620" lon="-5.8346180">
        <ele>693.4</ele>
        <time>2021-10-15T12:37:00Z</time>
      </trkpt>
      <trkpt lat="40.3889630" lon="-5.8347190">
        <ele>693.6</ele>
        <time>2021-10-15T12:37:04Z</time>
      </trkpt>
      <trkpt lat="40.3889380" lon="-5.8347500">
        <ele>693.6</ele>
        <time>2021-10-15T12:37:05Z</time>
      </trkpt>
      <trkpt lat="40.3888560" lon="-5.8348480">
        <ele>694.0</ele>
        <time>2021-10-15T12:37:09Z</time>
      </trkpt>
      <trkpt lat="40.3887390" lon="-5.8350250">
        <ele>694.8</ele>
        <time>2021-10-15T12:37:16Z</time>
      </trkpt>
      <trkpt lat="40.3886370" lon="-5.8352100">
        <ele>695.6</ele>
        <time>2021-10-15T12:37:22Z</time>
      </trkpt>
      <trkpt lat="40.3886150" lon="-5.8352680">
        <ele>695.8</ele>
        <time>2021-10-15T12:37:24Z</time>
      </trkpt>
      <trkpt lat="40.3885910" lon="-5.8353560">
        <ele>696.0</ele>
        <time>2021-10-15T12:37:27Z</time>
      </trkpt>
      <trkpt lat="40.3885750" lon="-5.8354190">
        <ele>696.2</ele>
        <time>2021-10-15T12:37:29Z</time>
      </trkpt>
      <trkpt lat="40.3885150" lon="-5.8356060">
        <ele>696.4</ele>
        <time>2021-10-15T12:37:34Z</time>
      </trkpt>
      <trkpt lat="40.3884970" lon="-5.8356370">
        <ele>696.4</ele>
        <time>2021-10-15T12:37:35Z</time>
      </trkpt>
      <trkpt lat="40.3883960" lon="-5.8357710">
        <ele>696.2</ele>
        <time>2021-10-15T12:37:39Z</time>
      </trkpt>
      <trkpt lat="40.3883390" lon="-5.8358380">
        <ele>696.2</ele>
        <time>2021-10-15T12:37:41Z</time>
      </trkpt>
      <trkpt lat="40.3883050" lon="-5.8358570">
        <ele>696.0</ele>
        <time>2021-10-15T12:37:42Z</time>
      </trkpt>
      <trkpt lat="40.3881500" lon="-5.8359800">
        <ele>695.8</ele>
        <time>2021-10-15T12:37:46Z</time>
      </trkpt>
      <trkpt lat="40.3880900" lon="-5.8360420">
        <ele>695.4</ele>
        <time>2021-10-15T12:37:48Z</time>
      </trkpt>
      <trkpt lat="40.3879720" lon="-5.8361250">
        <ele>695.0</ele>
        <time>2021-10-15T12:37:51Z</time>
      </trkpt>
      <trkpt lat="40.3879300" lon="-5.8361490">
        <ele>695.0</ele>
        <time>2021-10-15T12:37:52Z</time>
      </trkpt>
      <trkpt lat="40.3876450" lon="-5.8363710">
        <ele>694.0</ele>
        <time>2021-10-15T12:37:59Z</time>
      </trkpt>
      <trkpt lat="40.3876020" lon="-5.8364080">
        <ele>694.0</ele>
        <time>2021-10-15T12:38:00Z</time>
      </trkpt>
      <trkpt lat="40.3872960" lon="-5.8366540">
        <ele>693.8</ele>
        <time>2021-10-15T12:38:07Z</time>
      </trkpt>
      <trkpt lat="40.3871630" lon="-5.8367850">
        <ele>693.6</ele>
        <time>2021-10-15T12:38:10Z</time>
      </trkpt>
      <trkpt lat="40.3869180" lon="-5.8370110">
        <ele>693.4</ele>
        <time>2021-10-15T12:38:16Z</time>
      </trkpt>
      <trkpt lat="40.3868050" lon="-5.8371180">
        <ele>693.0</ele>
        <time>2021-10-15T12:38:19Z</time>
      </trkpt>
      <trkpt lat="40.3867240" lon="-5.8371840">
        <ele>693.0</ele>
        <time>2021-10-15T12:38:21Z</time>
      </trkpt>
      <trkpt lat="40.3866810" lon="-5.8372110">
        <ele>692.8</ele>
        <time>2021-10-15T12:38:22Z</time>
      </trkpt>
      <trkpt lat="40.3864290" lon="-5.8373540">
        <ele>692.8</ele>
        <time>2021-10-15T12:38:30Z</time>
      </trkpt>
      <trkpt lat="40.3863260" lon="-5.8374100">
        <ele>692.8</ele>
        <time>2021-10-15T12:38:34Z</time>
      </trkpt>
      <trkpt lat="40.3861550" lon="-5.8375280">
        <ele>693.6</ele>
        <time>2021-10-15T12:38:39Z</time>
      </trkpt>
      <trkpt lat="40.3859870" lon="-5.8376720">
        <ele>693.6</ele>
        <time>2021-10-15T12:38:44Z</time>
      </trkpt>
      <trkpt lat="40.3859550" lon="-5.8377150">
        <ele>693.6</ele>
        <time>2021-10-15T12:38:45Z</time>
      </trkpt>
      <trkpt lat="40.3858830" lon="-5.8378210">
        <ele>693.4</ele>
        <time>2021-10-15T12:38:47Z</time>
      </trkpt>
      <trkpt lat="40.3858510" lon="-5.8378560">
        <ele>693.4</ele>
        <time>2021-10-15T12:38:48Z</time>
      </trkpt>
      <trkpt lat="40.3858080" lon="-5.8378950">
        <ele>693.4</ele>
        <time>2021-10-15T12:38:49Z</time>
      </trkpt>
      <trkpt lat="40.3856800" lon="-5.8379960">
        <ele>693.2</ele>
        <time>2021-10-15T12:38:52Z</time>
      </trkpt>
      <trkpt lat="40.3856390" lon="-5.8380350">
        <ele>693.0</ele>
        <time>2021-10-15T12:38:53Z</time>
      </trkpt>
      <trkpt lat="40.3855460" lon="-5.8381070">
        <ele>692.2</ele>
        <time>2021-10-15T12:38:55Z</time>
      </trkpt>
      <trkpt lat="40.3854040" lon="-5.8382260">
        <ele>691.0</ele>
        <time>2021-10-15T12:38:58Z</time>
      </trkpt>
      <trkpt lat="40.3853100" lon="-5.8383100">
        <ele>690.4</ele>
        <time>2021-10-15T12:39:00Z</time>
      </trkpt>
      <trkpt lat="40.3852630" lon="-5.8383500">
        <ele>690.0</ele>
        <time>2021-10-15T12:39:01Z</time>
      </trkpt>
      <trkpt lat="40.3850820" lon="-5.8385140">
        <ele>689.6</ele>
        <time>2021-10-15T12:39:05Z</time>
      </trkpt>
      <trkpt lat="40.3849870" lon="-5.8385810">
        <ele>689.6</ele>
        <time>2021-10-15T12:39:07Z</time>
      </trkpt>
      <trkpt lat="40.3849370" lon="-5.8386080">
        <ele>689.6</ele>
        <time>2021-10-15T12:39:08Z</time>
      </trkpt>
      <trkpt lat="40.3847670" lon="-5.8386630">
        <ele>689.2</ele>
        <time>2021-10-15T12:39:11Z</time>
      </trkpt>
      <trkpt lat="40.3847100" lon="-5.8386890">
        <ele>688.6</ele>
        <time>2021-10-15T12:39:12Z</time>
      </trkpt>
      <trkpt lat="40.3844380" lon="-5.8388530">
        <ele>687.8</ele>
        <time>2021-10-15T12:39:17Z</time>
      </trkpt>
      <trkpt lat="40.3843480" lon="-5.8389360">
        <ele>687.4</ele>
        <time>2021-10-15T12:39:19Z</time>
      </trkpt>
      <trkpt lat="40.3842620" lon="-5.8390160">
        <ele>687.2</ele>
        <time>2021-10-15T12:39:21Z</time>
      </trkpt>
      <trkpt lat="40.3841820" lon="-5.8390790">
        <ele>687.0</ele>
        <time>2021-10-15T12:39:23Z</time>
      </trkpt>
      <trkpt lat="40.3840380" lon="-5.8392160">
        <ele>686.8</ele>
        <time>2021-10-15T12:39:27Z</time>
      </trkpt>
      <trkpt lat="40.3839710" lon="-5.8392980">
        <ele>686.8</ele>
        <time>2021-10-15T12:39:29Z</time>
      </trkpt>
      <trkpt lat="40.3838680" lon="-5.8394040">
        <ele>687.0</ele>
        <time>2021-10-15T12:39:32Z</time>
      </trkpt>
      <trkpt lat="40.3837590" lon="-5.8394730">
        <ele>687.0</ele>
        <time>2021-10-15T12:39:35Z</time>
      </trkpt>
      <trkpt lat="40.3836890" lon="-5.8395170">
        <ele>687.2</ele>
        <time>2021-10-15T12:39:37Z</time>
      </trkpt>
      <trkpt lat="40.3835720" lon="-5.8396290">
        <ele>687.4</ele>
        <time>2021-10-15T12:39:41Z</time>
      </trkpt>
      <trkpt lat="40.3833640" lon="-5.8398100">
        <ele>688.8</ele>
        <time>2021-10-15T12:39:49Z</time>
      </trkpt>
      <trkpt lat="40.3832400" lon="-5.8399210">
        <ele>689.4</ele>
        <time>2021-10-15T12:39:54Z</time>
      </trkpt>
      <trkpt lat="40.3831020" lon="-5.8400520">
        <ele>690.0</ele>
        <time>2021-10-15T12:39:59Z</time>
      </trkpt>
      <trkpt lat="40.3829330" lon="-5.8401960">
        <ele>690.0</ele>
        <time>2021-10-15T12:40:04Z</time>
      </trkpt>
      <trkpt lat="40.3828560" lon="-5.8402480">
        <ele>689.8</ele>
        <time>2021-10-15T12:40:06Z</time>
      </trkpt>
      <trkpt lat="40.3827420" lon="-5.8403220">
        <ele>689.6</ele>
        <time>2021-10-15T12:40:09Z</time>
      </trkpt>
      <trkpt lat="40.3826720" lon="-5.8403850">
        <ele>689.4</ele>
        <time>2021-10-15T12:40:11Z</time>
      </trkpt>
      <trkpt lat="40.3825980" lon="-5.8404550">
        <ele>689.2</ele>
        <time>2021-10-15T12:40:13Z</time>
      </trkpt>
      <trkpt lat="40.3823830" lon="-5.8405440">
        <ele>689.4</ele>
        <time>2021-10-15T12:40:18Z</time>
      </trkpt>
      <trkpt lat="40.3823450" lon="-5.8405660">
        <ele>689.4</ele>
        <time>2021-10-15T12:40:19Z</time>
      </trkpt>
      <trkpt lat="40.3822690" lon="-5.8406190">
        <ele>689.4</ele>
        <time>2021-10-15T12:40:21Z</time>
      </trkpt>
      <trkpt lat="40.3821510" lon="-5.8406990">
        <ele>689.2</ele>
        <time>2021-10-15T12:40:24Z</time>
      </trkpt>
      <trkpt lat="40.3820610" lon="-5.8407470">
        <ele>689.2</ele>
        <time>2021-10-15T12:40:26Z</time>
      </trkpt>
      <trkpt lat="40.3819160" lon="-5.8408060">
        <ele>689.0</ele>
        <time>2021-10-15T12:40:29Z</time>
      </trkpt>
      <trkpt lat="40.3818110" lon="-5.8408450">
        <ele>688.8</ele>
        <time>2021-10-15T12:40:31Z</time>
      </trkpt>
      <trkpt lat="40.3817580" lon="-5.8408610">
        <ele>688.8</ele>
        <time>2021-10-15T12:40:32Z</time>
      </trkpt>
      <trkpt lat="40.3816600" lon="-5.8408940">
        <ele>688.6</ele>
        <time>2021-10-15T12:40:34Z</time>
      </trkpt>
      <trkpt lat="40.3815120" lon="-5.8409380">
        <ele>687.8</ele>
        <time>2021-10-15T12:40:37Z</time>
      </trkpt>
      <trkpt lat="40.3813660" lon="-5.8410020">
        <ele>687.6</ele>
        <time>2021-10-15T12:40:40Z</time>
      </trkpt>
      <trkpt lat="40.3813210" lon="-5.8410190">
        <ele>687.2</ele>
        <time>2021-10-15T12:40:41Z</time>
      </trkpt>
      <trkpt lat="40.3812260" lon="-5.8410440">
        <ele>686.6</ele>
        <time>2021-10-15T12:40:43Z</time>
      </trkpt>
      <trkpt lat="40.3810930" lon="-5.8410950">
        <ele>686.2</ele>
        <time>2021-10-15T12:40:46Z</time>
      </trkpt>
      <trkpt lat="40.3809200" lon="-5.8411820">
        <ele>685.8</ele>
        <time>2021-10-15T12:40:50Z</time>
      </trkpt>
      <trkpt lat="40.3807890" lon="-5.8412580">
        <ele>685.6</ele>
        <time>2021-10-15T12:40:53Z</time>
      </trkpt>
      <trkpt lat="40.3807000" lon="-5.8413120">
        <ele>685.6</ele>
        <time>2021-10-15T12:40:55Z</time>
      </trkpt>
      <trkpt lat="40.3806090" lon="-5.8413490">
        <ele>685.6</ele>
        <time>2021-10-15T12:40:57Z</time>
      </trkpt>
      <trkpt lat="40.3805210" lon="-5.8413680">
        <ele>685.4</ele>
        <time>2021-10-15T12:40:59Z</time>
      </trkpt>
      <trkpt lat="40.3802140" lon="-5.8414350">
        <ele>685.4</ele>
        <time>2021-10-15T12:41:05Z</time>
      </trkpt>
      <trkpt lat="40.3800560" lon="-5.8414900">
        <ele>685.0</ele>
        <time>2021-10-15T12:41:08Z</time>
      </trkpt>
      <trkpt lat="40.3799500" lon="-5.8415310">
        <ele>684.8</ele>
        <time>2021-10-15T12:41:10Z</time>
      </trkpt>
      <trkpt lat="40.3798460" lon="-5.8415740">
        <ele>684.4</ele>
        <time>2021-10-15T12:41:12Z</time>
      </trkpt>
      <trkpt lat="40.3796510" lon="-5.8416610">
        <ele>683.6</ele>
        <time>2021-10-15T12:41:16Z</time>
      </trkpt>
      <trkpt lat="40.3794700" lon="-5.8417600">
        <ele>683.0</ele>
        <time>2021-10-15T12:41:20Z</time>
      </trkpt>
      <trkpt lat="40.3792330" lon="-5.8418600">
        <ele>682.8</ele>
        <time>2021-10-15T12:41:25Z</time>
      </trkpt>
      <trkpt lat="40.3791880" lon="-5.8418790">
        <ele>682.8</ele>
        <time>2021-10-15T12:41:26Z</time>
      </trkpt>
      <trkpt lat="40.3791010" lon="-5.8419260">
        <ele>682.8</ele>
        <time>2021-10-15T12:41:28Z</time>
      </trkpt>
      <trkpt lat="40.3790560" lon="-5.8419460">
        <ele>682.8</ele>
        <time>2021-10-15T12:41:29Z</time>
      </trkpt>
      <trkpt lat="40.3789740" lon="-5.8419910">
        <ele>682.8</ele>
        <time>2021-10-15T12:41:31Z</time>
      </trkpt>
      <trkpt lat="40.3789430" lon="-5.8420310">
        <ele>682.8</ele>
        <time>2021-10-15T12:41:32Z</time>
      </trkpt>
      <trkpt lat="40.3789110" lon="-5.8420690">
        <ele>682.8</ele>
        <time>2021-10-15T12:41:33Z</time>
      </trkpt>
      <trkpt lat="40.3788380" lon="-5.8421270">
        <ele>682.8</ele>
        <time>2021-10-15T12:41:35Z</time>
      </trkpt>
      <trkpt lat="40.3787950" lon="-5.8421500">
        <ele>682.8</ele>
        <time>2021-10-15T12:41:36Z</time>
      </trkpt>
      <trkpt lat="40.3787470" lon="-5.8421650">
        <ele>683.0</ele>
        <time>2021-10-15T12:41:37Z</time>
      </trkpt>
      <trkpt lat="40.3785650" lon="-5.8421840">
        <ele>683.2</ele>
        <time>2021-10-15T12:41:41Z</time>
      </trkpt>
      <trkpt lat="40.3784470" lon="-5.8422250">
        <ele>683.2</ele>
        <time>2021-10-15T12:41:44Z</time>
      </trkpt>
      <trkpt lat="40.3782550" lon="-5.8423180">
        <ele>683.4</ele>
        <time>2021-10-15T12:41:49Z</time>
      </trkpt>
      <trkpt lat="40.3780330" lon="-5.8424440">
        <ele>684.4</ele>
        <time>2021-10-15T12:41:56Z</time>
      </trkpt>
      <trkpt lat="40.3779690" lon="-5.8424840">
        <ele>684.8</ele>
        <time>2021-10-15T12:41:58Z</time>
      </trkpt>
      <trkpt lat="40.3777790" lon="-5.8426470">
        <ele>685.2</ele>
        <time>2021-10-15T12:42:05Z</time>
      </trkpt>
      <trkpt lat="40.3776910" lon="-5.8427360">
        <ele>685.8</ele>
        <time>2021-10-15T12:42:09Z</time>
      </trkpt>
      <trkpt lat="40.3775820" lon="-5.8428550">
        <ele>686.8</ele>
        <time>2021-10-15T12:42:14Z</time>
      </trkpt>
      <trkpt lat="40.3775400" lon="-5.8429150">
        <ele>687.0</ele>
        <time>2021-10-15T12:42:16Z</time>
      </trkpt>
      <trkpt lat="40.3774840" lon="-5.8430120">
        <ele>687.4</ele>
        <time>2021-10-15T12:42:19Z</time>
      </trkpt>
      <trkpt lat="40.3774210" lon="-5.8431000">
        <ele>687.6</ele>
        <time>2021-10-15T12:42:22Z</time>
      </trkpt>
      <trkpt lat="40.3773090" lon="-5.8432250">
        <ele>688.0</ele>
        <time>2021-10-15T12:42:27Z</time>
      </trkpt>
      <trkpt lat="40.3772860" lon="-5.8432490">
        <ele>688.0</ele>
        <time>2021-10-15T12:42:28Z</time>
      </trkpt>
      <trkpt lat="40.3772330" lon="-5.8432820">
        <ele>688.2</ele>
        <time>2021-10-15T12:42:30Z</time>
      </trkpt>
      <trkpt lat="40.3771490" lon="-5.8433450">
        <ele>688.4</ele>
        <time>2021-10-15T12:42:33Z</time>
      </trkpt>
      <trkpt lat="40.3770380" lon="-5.8434390">
        <ele>688.6</ele>
        <time>2021-10-15T12:42:37Z</time>
      </trkpt>
      <trkpt lat="40.3767500" lon="-5.8436810">
        <ele>688.4</ele>
        <time>2021-10-15T12:42:46Z</time>
      </trkpt>
      <trkpt lat="40.3766150" lon="-5.8437820">
        <ele>688.2</ele>
        <time>2021-10-15T12:42:50Z</time>
      </trkpt>
      <trkpt lat="40.3764890" lon="-5.8438690">
        <ele>688.4</ele>
        <time>2021-10-15T12:42:54Z</time>
      </trkpt>
      <trkpt lat="40.3764590" lon="-5.8438920">
        <ele>688.4</ele>
        <time>2021-10-15T12:42:55Z</time>
      </trkpt>
      <trkpt lat="40.3763060" lon="-5.8439910">
        <ele>688.6</ele>
        <time>2021-10-15T12:43:00Z</time>
      </trkpt>
      <trkpt lat="40.3762740" lon="-5.8440160">
        <ele>688.8</ele>
        <time>2021-10-15T12:43:01Z</time>
      </trkpt>
      <trkpt lat="40.3760970" lon="-5.8441630">
        <ele>689.0</ele>
        <time>2021-10-15T12:43:07Z</time>
      </trkpt>
      <trkpt lat="40.3760690" lon="-5.8441870">
        <ele>689.0</ele>
        <time>2021-10-15T12:43:08Z</time>
      </trkpt>
      <trkpt lat="40.3758430" lon="-5.8443480">
        <ele>689.8</ele>
        <time>2021-10-15T12:43:16Z</time>
      </trkpt>
      <trkpt lat="40.3757430" lon="-5.8444130">
        <ele>689.8</ele>
        <time>2021-10-15T12:43:20Z</time>
      </trkpt>
      <trkpt lat="40.3756410" lon="-5.8444820">
        <ele>690.0</ele>
        <time>2021-10-15T12:43:24Z</time>
      </trkpt>
      <trkpt lat="40.3756160" lon="-5.8445010">
        <ele>690.2</ele>
        <time>2021-10-15T12:43:25Z</time>
      </trkpt>
      <trkpt lat="40.3754330" lon="-5.8446330">
        <ele>691.0</ele>
        <time>2021-10-15T12:43:33Z</time>
      </trkpt>
      <trkpt lat="40.3753810" lon="-5.8446730">
        <ele>691.4</ele>
        <time>2021-10-15T12:43:36Z</time>
      </trkpt>
      <trkpt lat="40.3753280" lon="-5.8447150">
        <ele>692.0</ele>
        <time>2021-10-15T12:43:40Z</time>
      </trkpt>
      <trkpt lat="40.3752870" lon="-5.8447360">
        <ele>692.2</ele>
        <time>2021-10-15T12:43:46Z</time>
      </trkpt>
      <trkpt lat="40.3752330" lon="-5.8447460">
        <ele>692.6</ele>
        <time>2021-10-15T12:44:45Z</time>
      </trkpt>
      <trkpt lat="40.3752110" lon="-5.8447610">
        <ele>692.6</ele>
        <time>2021-10-15T12:44:46Z</time>
      </trkpt>
      <trkpt lat="40.3751830" lon="-5.8447780">
        <ele>692.6</ele>
        <time>2021-10-15T12:44:47Z</time>
      </trkpt>
      <trkpt lat="40.3750340" lon="-5.8448390">
        <ele>692.4</ele>
        <time>2021-10-15T12:44:52Z</time>
      </trkpt>
      <trkpt lat="40.3749590" lon="-5.8449300">
        <ele>691.2</ele>
        <time>2021-10-15T12:44:56Z</time>
      </trkpt>
      <trkpt lat="40.3749440" lon="-5.8449690">
        <ele>690.4</ele>
        <time>2021-10-15T12:44:58Z</time>
      </trkpt>
      <trkpt lat="40.3749450" lon="-5.8449820">
        <ele>690.2</ele>
        <time>2021-10-15T12:44:59Z</time>
      </trkpt>
      <trkpt lat="40.3749490" lon="-5.8449950">
        <ele>690.0</ele>
        <time>2021-10-15T12:45:01Z</time>
      </trkpt>
      <trkpt lat="40.3749490" lon="-5.8449950">
        <ele>689.8</ele>
        <time>2021-10-15T12:45:03Z</time>
      </trkpt>
      <trkpt lat="40.3749160" lon="-5.8450340">
        <ele>689.8</ele>
        <time>2021-10-15T12:49:07Z</time>
      </trkpt>
      <trkpt lat="40.3748950" lon="-5.8450560">
        <ele>689.8</ele>
        <time>2021-10-15T12:49:08Z</time>
      </trkpt>
      <trkpt lat="40.3747810" lon="-5.8451820">
        <ele>689.8</ele>
        <time>2021-10-15T12:49:13Z</time>
      </trkpt>
      <trkpt lat="40.3747420" lon="-5.8452480">
        <ele>689.6</ele>
        <time>2021-10-15T12:49:15Z</time>
      </trkpt>
      <trkpt lat="40.3745810" lon="-5.8454260">
        <ele>688.8</ele>
        <time>2021-10-15T12:49:21Z</time>
      </trkpt>
      <trkpt lat="40.3745500" lon="-5.8454610">
        <ele>688.8</ele>
        <time>2021-10-15T12:49:22Z</time>
      </trkpt>
      <trkpt lat="40.3744010" lon="-5.8456430">
        <ele>688.0</ele>
        <time>2021-10-15T12:49:27Z</time>
      </trkpt>
      <trkpt lat="40.3742960" lon="-5.8457440">
        <ele>687.8</ele>
        <time>2021-10-15T12:49:30Z</time>
      </trkpt>
      <trkpt lat="40.3741030" lon="-5.8459370">
        <ele>687.0</ele>
        <time>2021-10-15T12:49:36Z</time>
      </trkpt>
      <trkpt lat="40.3740430" lon="-5.8460020">
        <ele>686.6</ele>
        <time>2021-10-15T12:49:38Z</time>
      </trkpt>
      <trkpt lat="40.3738990" lon="-5.8461890">
        <ele>686.4</ele>
        <time>2021-10-15T12:49:43Z</time>
      </trkpt>
      <trkpt lat="40.3738680" lon="-5.8462210">
        <ele>686.4</ele>
        <time>2021-10-15T12:49:44Z</time>
      </trkpt>
      <trkpt lat="40.3737250" lon="-5.8463740">
        <ele>686.2</ele>
        <time>2021-10-15T12:49:49Z</time>
      </trkpt>
      <trkpt lat="40.3736160" lon="-5.8464980">
        <ele>686.0</ele>
        <time>2021-10-15T12:49:53Z</time>
      </trkpt>
      <trkpt lat="40.3735160" lon="-5.8466230">
        <ele>685.6</ele>
        <time>2021-10-15T12:49:57Z</time>
      </trkpt>
      <trkpt lat="40.3734630" lon="-5.8466960">
        <ele>685.6</ele>
        <time>2021-10-15T12:49:59Z</time>
      </trkpt>
      <trkpt lat="40.3733310" lon="-5.8468650">
        <ele>685.4</ele>
        <time>2021-10-15T12:50:04Z</time>
      </trkpt>
      <trkpt lat="40.3730610" lon="-5.8471350">
        <ele>685.0</ele>
        <time>2021-10-15T12:50:12Z</time>
      </trkpt>
      <trkpt lat="40.3727360" lon="-5.8473810">
        <ele>684.8</ele>
        <time>2021-10-15T12:50:21Z</time>
      </trkpt>
      <trkpt lat="40.3726990" lon="-5.8474130">
        <ele>684.8</ele>
        <time>2021-10-15T12:50:22Z</time>
      </trkpt>
      <trkpt lat="40.3725860" lon="-5.8475220">
        <ele>684.4</ele>
        <time>2021-10-15T12:50:25Z</time>
      </trkpt>
      <trkpt lat="40.3725050" lon="-5.8475860">
        <ele>684.2</ele>
        <time>2021-10-15T12:50:27Z</time>
      </trkpt>
      <trkpt lat="40.3724290" lon="-5.8476580">
        <ele>683.6</ele>
        <time>2021-10-15T12:50:29Z</time>
      </trkpt>
      <trkpt lat="40.3723920" lon="-5.8476870">
        <ele>683.2</ele>
        <time>2021-10-15T12:50:30Z</time>
      </trkpt>
      <trkpt lat="40.3723170" lon="-5.8477330">
        <ele>682.8</ele>
        <time>2021-10-15T12:50:32Z</time>
      </trkpt>
      <trkpt lat="40.3722830" lon="-5.8477570">
        <ele>682.6</ele>
        <time>2021-10-15T12:50:33Z</time>
      </trkpt>
      <trkpt lat="40.3722480" lon="-5.8477830">
        <ele>682.4</ele>
        <time>2021-10-15T12:50:34Z</time>
      </trkpt>
      <trkpt lat="40.3721020" lon="-5.8478810">
        <ele>681.6</ele>
        <time>2021-10-15T12:50:38Z</time>
      </trkpt>
      <trkpt lat="40.3720660" lon="-5.8479070">
        <ele>681.4</ele>
        <time>2021-10-15T12:50:39Z</time>
      </trkpt>
      <trkpt lat="40.3720280" lon="-5.8479300">
        <ele>681.2</ele>
        <time>2021-10-15T12:50:40Z</time>
      </trkpt>
      <trkpt lat="40.3718180" lon="-5.8480800">
        <ele>680.6</ele>
        <time>2021-10-15T12:50:46Z</time>
      </trkpt>
      <trkpt lat="40.3717210" lon="-5.8481630">
        <ele>680.2</ele>
        <time>2021-10-15T12:50:49Z</time>
      </trkpt>
      <trkpt lat="40.3716350" lon="-5.8482490">
        <ele>679.8</ele>
        <time>2021-10-15T12:50:52Z</time>
      </trkpt>
      <trkpt lat="40.3715090" lon="-5.8483630">
        <ele>679.4</ele>
        <time>2021-10-15T12:50:57Z</time>
      </trkpt>
      <trkpt lat="40.3714850" lon="-5.8483840">
        <ele>679.2</ele>
        <time>2021-10-15T12:50:58Z</time>
      </trkpt>
      <trkpt lat="40.3713540" lon="-5.8484730">
        <ele>679.0</ele>
        <time>2021-10-15T12:51:04Z</time>
      </trkpt>
      <trkpt lat="40.3712550" lon="-5.8485240">
        <ele>678.4</ele>
        <time>2021-10-15T12:51:08Z</time>
      </trkpt>
      <trkpt lat="40.3711490" lon="-5.8485550">
        <ele>678.0</ele>
        <time>2021-10-15T12:51:12Z</time>
      </trkpt>
      <trkpt lat="40.3710750" lon="-5.8485660">
        <ele>677.6</ele>
        <time>2021-10-15T12:51:15Z</time>
      </trkpt>
      <trkpt lat="40.3710540" lon="-5.8485460">
        <ele>677.4</ele>
        <time>2021-10-15T12:51:16Z</time>
      </trkpt>
      <trkpt lat="40.3710150" lon="-5.8484420">
        <ele>677.0</ele>
        <time>2021-10-15T12:51:20Z</time>
      </trkpt>
      <trkpt lat="40.3709860" lon="-5.8484320">
        <ele>676.8</ele>
        <time>2021-10-15T12:51:22Z</time>
      </trkpt>
      <trkpt lat="40.3709750" lon="-5.8484360">
        <ele>676.6</ele>
        <time>2021-10-15T12:51:24Z</time>
      </trkpt>
      <trkpt lat="40.3709750" lon="-5.8484360">
        <ele>676.6</ele>
        <time>2021-10-15T12:51:26Z</time>
      </trkpt>
      <trkpt lat="40.3709360" lon="-5.8484340">
        <ele>676.0</ele>
        <time>2021-10-15T12:51:43Z</time>
      </trkpt>
      <trkpt lat="40.3709170" lon="-5.8484310">
        <ele>676.0</ele>
        <time>2021-10-15T12:51:44Z</time>
      </trkpt>
      <trkpt lat="40.3708990" lon="-5.8484350">
        <ele>676.0</ele>
        <time>2021-10-15T12:51:45Z</time>
      </trkpt>
      <trkpt lat="40.3708730" lon="-5.8484600">
        <ele>675.8</ele>
        <time>2021-10-15T12:51:47Z</time>
      </trkpt>
      <trkpt lat="40.3708710" lon="-5.8484630">
        <ele>675.6</ele>
        <time>2021-10-15T12:51:48Z</time>
      </trkpt>
      <trkpt lat="40.3708680" lon="-5.8484630">
        <ele>675.4</ele>
        <time>2021-10-15T12:51:50Z</time>
      </trkpt>
      <trkpt lat="40.3707650" lon="-5.8485300">
        <ele>674.8</ele>
        <time>2021-10-15T12:53:17Z</time>
      </trkpt>
      <trkpt lat="40.3707330" lon="-5.8485140">
        <ele>674.6</ele>
        <time>2021-10-15T12:53:18Z</time>
      </trkpt>
      <trkpt lat="40.3705550" lon="-5.8484060">
        <ele>674.4</ele>
        <time>2021-10-15T12:53:22Z</time>
      </trkpt>
      <trkpt lat="40.3704090" lon="-5.8483230">
        <ele>673.6</ele>
        <time>2021-10-15T12:53:25Z</time>
      </trkpt>
      <trkpt lat="40.3703370" lon="-5.8482870">
        <ele>673.2</ele>
        <time>2021-10-15T12:53:27Z</time>
      </trkpt>
      <trkpt lat="40.3702580" lon="-5.8482470">
        <ele>673.0</ele>
        <time>2021-10-15T12:53:31Z</time>
      </trkpt>
      <trkpt lat="40.3702390" lon="-5.8482280">
        <ele>673.0</ele>
        <time>2021-10-15T12:53:33Z</time>
      </trkpt>
      <trkpt lat="40.3702380" lon="-5.8482240">
        <ele>673.0</ele>
        <time>2021-10-15T12:53:35Z</time>
      </trkpt>
      <trkpt lat="40.3702090" lon="-5.8482200">
        <ele>673.4</ele>
        <time>2021-10-15T12:55:08Z</time>
      </trkpt>
      <trkpt lat="40.3701580" lon="-5.8482160">
        <ele>673.4</ele>
        <time>2021-10-15T12:55:10Z</time>
      </trkpt>
      <trkpt lat="40.3700610" lon="-5.8482070">
        <ele>673.6</ele>
        <time>2021-10-15T12:55:14Z</time>
      </trkpt>
      <trkpt lat="40.3699960" lon="-5.8482160">
        <ele>673.8</ele>
        <time>2021-10-15T12:55:17Z</time>
      </trkpt>
      <trkpt lat="40.3698570" lon="-5.8481990">
        <ele>674.0</ele>
        <time>2021-10-15T12:55:23Z</time>
      </trkpt>
      <trkpt lat="40.3697240" lon="-5.8481940">
        <ele>674.4</ele>
        <time>2021-10-15T12:55:28Z</time>
      </trkpt>
      <trkpt lat="40.3696250" lon="-5.8481960">
        <ele>674.8</ele>
        <time>2021-10-15T12:55:33Z</time>
      </trkpt>
      <trkpt lat="40.3695540" lon="-5.8481890">
        <ele>675.0</ele>
        <time>2021-10-15T12:55:37Z</time>
      </trkpt>
      <trkpt lat="40.3694920" lon="-5.8481920">
        <ele>675.6</ele>
        <time>2021-10-15T12:55:41Z</time>
      </trkpt>
      <trkpt lat="40.3694470" lon="-5.8482040">
        <ele>676.2</ele>
        <time>2021-10-15T12:55:44Z</time>
      </trkpt>
      <trkpt lat="40.3693850" lon="-5.8482080">
        <ele>676.8</ele>
        <time>2021-10-15T12:55:48Z</time>
      </trkpt>
      <trkpt lat="40.3693400" lon="-5.8482010">
        <ele>677.4</ele>
        <time>2021-10-15T12:55:51Z</time>
      </trkpt>
      <trkpt lat="40.3692980" lon="-5.8481930">
        <ele>677.6</ele>
        <time>2021-10-15T12:55:54Z</time>
      </trkpt>
      <trkpt lat="40.3692770" lon="-5.8481880">
        <ele>677.8</ele>
        <time>2021-10-15T12:55:56Z</time>
      </trkpt>
      <trkpt lat="40.3692340" lon="-5.8481860">
        <ele>678.2</ele>
        <time>2021-10-15T12:55:59Z</time>
      </trkpt>
      <trkpt lat="40.3692190" lon="-5.8481840">
        <ele>678.4</ele>
        <time>2021-10-15T12:56:00Z</time>
      </trkpt>
      <trkpt lat="40.3691630" lon="-5.8481880">
        <ele>679.0</ele>
        <time>2021-10-15T12:56:04Z</time>
      </trkpt>
      <trkpt lat="40.3691220" lon="-5.8481890">
        <ele>679.4</ele>
        <time>2021-10-15T12:56:07Z</time>
      </trkpt>
      <trkpt lat="40.3690330" lon="-5.8481890">
        <ele>680.6</ele>
        <time>2021-10-15T12:56:13Z</time>
      </trkpt>
      <trkpt lat="40.3690210" lon="-5.8481830">
        <ele>680.8</ele>
        <time>2021-10-15T12:56:14Z</time>
      </trkpt>
      <trkpt lat="40.3689980" lon="-5.8481680">
        <ele>681.2</ele>
        <time>2021-10-15T12:56:16Z</time>
      </trkpt>
      <trkpt lat="40.3689810" lon="-5.8481440">
        <ele>681.6</ele>
        <time>2021-10-15T12:56:18Z</time>
      </trkpt>
      <trkpt lat="40.3689730" lon="-5.8481280">
        <ele>681.6</ele>
        <time>2021-10-15T12:56:19Z</time>
      </trkpt>
      <trkpt lat="40.3689530" lon="-5.8480750">
        <ele>682.2</ele>
        <time>2021-10-15T12:56:23Z</time>
      </trkpt>
      <trkpt lat="40.3689520" lon="-5.8480080">
        <ele>682.6</ele>
        <time>2021-10-15T12:56:27Z</time>
      </trkpt>
      <trkpt lat="40.3689570" lon="-5.8479880">
        <ele>682.8</ele>
        <time>2021-10-15T12:56:28Z</time>
      </trkpt>
      <trkpt lat="40.3689670" lon="-5.8479390">
        <ele>683.2</ele>
        <time>2021-10-15T12:56:31Z</time>
      </trkpt>
      <trkpt lat="40.3689710" lon="-5.8479080">
        <ele>683.4</ele>
        <time>2021-10-15T12:56:33Z</time>
      </trkpt>
      <trkpt lat="40.3689830" lon="-5.8478570">
        <ele>683.6</ele>
        <time>2021-10-15T12:56:36Z</time>
      </trkpt>
      <trkpt lat="40.3689840" lon="-5.8478220">
        <ele>683.8</ele>
        <time>2021-10-15T12:56:38Z</time>
      </trkpt>
      <trkpt lat="40.3689610" lon="-5.8477250">
        <ele>684.6</ele>
        <time>2021-10-15T12:56:44Z</time>
      </trkpt>
      <trkpt lat="40.3689530" lon="-5.8476830">
        <ele>685.0</ele>
        <time>2021-10-15T12:56:47Z</time>
      </trkpt>
      <trkpt lat="40.3689440" lon="-5.8476490">
        <ele>685.2</ele>
        <time>2021-10-15T12:56:49Z</time>
      </trkpt>
      <trkpt lat="40.3689340" lon="-5.8476130">
        <ele>685.2</ele>
        <time>2021-10-15T12:56:51Z</time>
      </trkpt>
      <trkpt lat="40.3689290" lon="-5.8475950">
        <ele>685.4</ele>
        <time>2021-10-15T12:56:52Z</time>
      </trkpt>
      <trkpt lat="40.3689140" lon="-5.8475630">
        <ele>685.6</ele>
        <time>2021-10-15T12:56:54Z</time>
      </trkpt>
      <trkpt lat="40.3688930" lon="-5.8475390">
        <ele>685.6</ele>
        <time>2021-10-15T12:56:56Z</time>
      </trkpt>
      <trkpt lat="40.3688630" lon="-5.8474980">
        <ele>685.8</ele>
        <time>2021-10-15T12:56:59Z</time>
      </trkpt>
      <trkpt lat="40.3688520" lon="-5.8474910">
        <ele>686.0</ele>
        <time>2021-10-15T12:57:00Z</time>
      </trkpt>
      <trkpt lat="40.3688220" lon="-5.8474640">
        <ele>686.0</ele>
        <time>2021-10-15T12:57:03Z</time>
      </trkpt>
      <trkpt lat="40.3688040" lon="-5.8474500">
        <ele>686.2</ele>
        <time>2021-10-15T12:57:05Z</time>
      </trkpt>
      <trkpt lat="40.3687780" lon="-5.8474360">
        <ele>686.4</ele>
        <time>2021-10-15T12:57:07Z</time>
      </trkpt>
      <trkpt lat="40.3686790" lon="-5.8473720">
        <ele>687.0</ele>
        <time>2021-10-15T12:57:15Z</time>
      </trkpt>
      <trkpt lat="40.3686390" lon="-5.8473380">
        <ele>687.2</ele>
        <time>2021-10-15T12:57:18Z</time>
      </trkpt>
      <trkpt lat="40.3686250" lon="-5.8473240">
        <ele>687.2</ele>
        <time>2021-10-15T12:57:19Z</time>
      </trkpt>
      <trkpt lat="40.3685900" lon="-5.8472950">
        <ele>687.4</ele>
        <time>2021-10-15T12:57:22Z</time>
      </trkpt>
      <trkpt lat="40.3685590" lon="-5.8472500">
        <ele>687.4</ele>
        <time>2021-10-15T12:57:25Z</time>
      </trkpt>
      <trkpt lat="40.3685160" lon="-5.8471800">
        <ele>688.0</ele>
        <time>2021-10-15T12:57:29Z</time>
      </trkpt>
      <trkpt lat="40.3685010" lon="-5.8471330">
        <ele>688.0</ele>
        <time>2021-10-15T12:57:31Z</time>
      </trkpt>
      <trkpt lat="40.3684870" lon="-5.8470890">
        <ele>688.4</ele>
        <time>2021-10-15T12:57:33Z</time>
      </trkpt>
      <trkpt lat="40.3684890" lon="-5.8469300">
        <ele>688.8</ele>
        <time>2021-10-15T12:57:40Z</time>
      </trkpt>
      <trkpt lat="40.3684920" lon="-5.8468360">
        <ele>689.2</ele>
        <time>2021-10-15T12:57:44Z</time>
      </trkpt>
      <trkpt lat="40.3684950" lon="-5.8467600">
        <ele>689.4</ele>
        <time>2021-10-15T12:57:47Z</time>
      </trkpt>
      <trkpt lat="40.3684800" lon="-5.8467270">
        <ele>689.6</ele>
        <time>2021-10-15T12:57:49Z</time>
      </trkpt>
      <trkpt lat="40.3684740" lon="-5.8466980">
        <ele>689.8</ele>
        <time>2021-10-15T12:57:51Z</time>
      </trkpt>
      <trkpt lat="40.3684630" lon="-5.8466460">
        <ele>690.0</ele>
        <time>2021-10-15T12:57:54Z</time>
      </trkpt>
      <trkpt lat="40.3684490" lon="-5.8466210">
        <ele>690.2</ele>
        <time>2021-10-15T12:57:56Z</time>
      </trkpt>
      <trkpt lat="40.3684410" lon="-5.8466070">
        <ele>690.4</ele>
        <time>2021-10-15T12:57:57Z</time>
      </trkpt>
      <trkpt lat="40.3684130" lon="-5.8465730">
        <ele>690.8</ele>
        <time>2021-10-15T12:58:00Z</time>
      </trkpt>
      <trkpt lat="40.3683870" lon="-5.8465650">
        <ele>691.0</ele>
        <time>2021-10-15T12:58:02Z</time>
      </trkpt>
      <trkpt lat="40.3683600" lon="-5.8465730">
        <ele>691.6</ele>
        <time>2021-10-15T12:58:04Z</time>
      </trkpt>
      <trkpt lat="40.3682840" lon="-5.8465490">
        <ele>692.8</ele>
        <time>2021-10-15T12:58:10Z</time>
      </trkpt>
      <trkpt lat="40.3682450" lon="-5.8464990">
        <ele>693.8</ele>
        <time>2021-10-15T12:58:15Z</time>
      </trkpt>
      <trkpt lat="40.3682260" lon="-5.8464550">
        <ele>694.2</ele>
        <time>2021-10-15T12:58:18Z</time>
      </trkpt>
      <trkpt lat="40.3682030" lon="-5.8464280">
        <ele>695.0</ele>
        <time>2021-10-15T12:58:20Z</time>
      </trkpt>
      <trkpt lat="40.3681750" lon="-5.8463800">
        <ele>696.0</ele>
        <time>2021-10-15T12:58:24Z</time>
      </trkpt>
      <trkpt lat="40.3681690" lon="-5.8463360">
        <ele>696.6</ele>
        <time>2021-10-15T12:58:27Z</time>
      </trkpt>
      <trkpt lat="40.3681600" lon="-5.8462860">
        <ele>697.2</ele>
        <time>2021-10-15T12:58:30Z</time>
      </trkpt>
      <trkpt lat="40.3681430" lon="-5.8462180">
        <ele>697.8</ele>
        <time>2021-10-15T12:58:35Z</time>
      </trkpt>
      <trkpt lat="40.3681390" lon="-5.8461860">
        <ele>698.0</ele>
        <time>2021-10-15T12:58:37Z</time>
      </trkpt>
      <trkpt lat="40.3681310" lon="-5.8461600">
        <ele>698.4</ele>
        <time>2021-10-15T12:58:39Z</time>
      </trkpt>
      <trkpt lat="40.3681180" lon="-5.8461040">
        <ele>699.0</ele>
        <time>2021-10-15T12:58:43Z</time>
      </trkpt>
      <trkpt lat="40.3681180" lon="-5.8460630">
        <ele>699.4</ele>
        <time>2021-10-15T12:58:46Z</time>
      </trkpt>
      <trkpt lat="40.3681120" lon="-5.8460340">
        <ele>699.8</ele>
        <time>2021-10-15T12:58:48Z</time>
      </trkpt>
      <trkpt lat="40.3680910" lon="-5.8460090">
        <ele>700.2</ele>
        <time>2021-10-15T12:58:51Z</time>
      </trkpt>
      <trkpt lat="40.3680730" lon="-5.8459920">
        <ele>700.8</ele>
        <time>2021-10-15T12:58:53Z</time>
      </trkpt>
      <trkpt lat="40.3680290" lon="-5.8459490">
        <ele>701.4</ele>
        <time>2021-10-15T12:58:58Z</time>
      </trkpt>
      <trkpt lat="40.3680180" lon="-5.8459470">
        <ele>701.6</ele>
        <time>2021-10-15T12:58:59Z</time>
      </trkpt>
      <trkpt lat="40.3680060" lon="-5.8459480">
        <ele>701.8</ele>
        <time>2021-10-15T12:59:00Z</time>
      </trkpt>
      <trkpt lat="40.3679990" lon="-5.8459490">
        <ele>702.0</ele>
        <time>2021-10-15T12:59:01Z</time>
      </trkpt>
      <trkpt lat="40.3679800" lon="-5.8459540">
        <ele>702.4</ele>
        <time>2021-10-15T12:59:03Z</time>
      </trkpt>
      <trkpt lat="40.3679520" lon="-5.8459610">
        <ele>703.0</ele>
        <time>2021-10-15T12:59:06Z</time>
      </trkpt>
      <trkpt lat="40.3679440" lon="-5.8459680">
        <ele>703.0</ele>
        <time>2021-10-15T12:59:07Z</time>
      </trkpt>
      <trkpt lat="40.3679240" lon="-5.8459800">
        <ele>703.6</ele>
        <time>2021-10-15T12:59:13Z</time>
      </trkpt>
      <trkpt lat="40.3679080" lon="-5.8459930">
        <ele>704.0</ele>
        <time>2021-10-15T12:59:16Z</time>
      </trkpt>
      <trkpt lat="40.3679020" lon="-5.8459950">
        <ele>704.0</ele>
        <time>2021-10-15T12:59:17Z</time>
      </trkpt>
      <trkpt lat="40.3678970" lon="-5.8459950">
        <ele>704.2</ele>
        <time>2021-10-15T12:59:18Z</time>
      </trkpt>
      <trkpt lat="40.3678820" lon="-5.8459990">
        <ele>704.2</ele>
        <time>2021-10-15T12:59:20Z</time>
      </trkpt>
      <trkpt lat="40.3678610" lon="-5.8460040">
        <ele>704.8</ele>
        <time>2021-10-15T12:59:23Z</time>
      </trkpt>
      <trkpt lat="40.3678350" lon="-5.8460180">
        <ele>705.2</ele>
        <time>2021-10-15T12:59:28Z</time>
      </trkpt>
      <trkpt lat="40.3678310" lon="-5.8460210">
        <ele>705.2</ele>
        <time>2021-10-15T12:59:29Z</time>
      </trkpt>
      <trkpt lat="40.3677820" lon="-5.8460490">
        <ele>706.2</ele>
        <time>2021-10-15T12:59:37Z</time>
      </trkpt>
      <trkpt lat="40.3677810" lon="-5.8460500">
        <ele>706.4</ele>
        <time>2021-10-15T12:59:38Z</time>
      </trkpt>
      <trkpt lat="40.3677380" lon="-5.8460730">
        <ele>707.0</ele>
        <time>2021-10-15T12:59:45Z</time>
      </trkpt>
      <trkpt lat="40.3677040" lon="-5.8460950">
        <ele>707.4</ele>
        <time>2021-10-15T12:59:49Z</time>
      </trkpt>
      <trkpt lat="40.3676740" lon="-5.8461060">
        <ele>707.8</ele>
        <time>2021-10-15T12:59:52Z</time>
      </trkpt>
      <trkpt lat="40.3676310" lon="-5.8461140">
        <ele>708.4</ele>
        <time>2021-10-15T12:59:57Z</time>
      </trkpt>
      <trkpt lat="40.3675930" lon="-5.8461190">
        <ele>708.6</ele>
        <time>2021-10-15T13:00:01Z</time>
      </trkpt>
      <trkpt lat="40.3675300" lon="-5.8461530">
        <ele>709.4</ele>
        <time>2021-10-15T13:00:09Z</time>
      </trkpt>
      <trkpt lat="40.3675210" lon="-5.8461590">
        <ele>709.6</ele>
        <time>2021-10-15T13:00:10Z</time>
      </trkpt>
      <trkpt lat="40.3674640" lon="-5.8461890">
        <ele>710.2</ele>
        <time>2021-10-15T13:00:18Z</time>
      </trkpt>
      <trkpt lat="40.3674570" lon="-5.8461920">
        <ele>710.4</ele>
        <time>2021-10-15T13:00:19Z</time>
      </trkpt>
      <trkpt lat="40.3674320" lon="-5.8462060">
        <ele>710.8</ele>
        <time>2021-10-15T13:00:22Z</time>
      </trkpt>
      <trkpt lat="40.3673860" lon="-5.8462420">
        <ele>711.6</ele>
        <time>2021-10-15T13:00:29Z</time>
      </trkpt>
      <trkpt lat="40.3673660" lon="-5.8462670">
        <ele>712.0</ele>
        <time>2021-10-15T13:00:32Z</time>
      </trkpt>
      <trkpt lat="40.3673550" lon="-5.8462870">
        <ele>712.6</ele>
        <time>2021-10-15T13:00:35Z</time>
      </trkpt>
      <trkpt lat="40.3673440" lon="-5.8463230">
        <ele>713.2</ele>
        <time>2021-10-15T13:00:40Z</time>
      </trkpt>
      <trkpt lat="40.3673290" lon="-5.8463580">
        <ele>713.6</ele>
        <time>2021-10-15T13:00:45Z</time>
      </trkpt>
      <trkpt lat="40.3673220" lon="-5.8463830">
        <ele>714.4</ele>
        <time>2021-10-15T13:00:49Z</time>
      </trkpt>
      <trkpt lat="40.3673230" lon="-5.8464070">
        <ele>714.8</ele>
        <time>2021-10-15T13:00:51Z</time>
      </trkpt>
      <trkpt lat="40.3673200" lon="-5.8464490">
        <ele>715.2</ele>
        <time>2021-10-15T13:00:56Z</time>
      </trkpt>
      <trkpt lat="40.3673000" lon="-5.8464950">
        <ele>715.8</ele>
        <time>2021-10-15T13:01:01Z</time>
      </trkpt>
      <trkpt lat="40.3672860" lon="-5.8465060">
        <ele>716.2</ele>
        <time>2021-10-15T13:01:03Z</time>
      </trkpt>
      <trkpt lat="40.3672540" lon="-5.8465270">
        <ele>716.6</ele>
        <time>2021-10-15T13:01:09Z</time>
      </trkpt>
      <trkpt lat="40.3672460" lon="-5.8465280">
        <ele>717.0</ele>
        <time>2021-10-15T13:01:12Z</time>
      </trkpt>
      <trkpt lat="40.3672270" lon="-5.8465280">
        <ele>717.6</ele>
        <time>2021-10-15T13:01:16Z</time>
      </trkpt>
      <trkpt lat="40.3672070" lon="-5.8465310">
        <ele>717.8</ele>
        <time>2021-10-15T13:01:18Z</time>
      </trkpt>
      <trkpt lat="40.3671940" lon="-5.8465280">
        <ele>718.2</ele>
        <time>2021-10-15T13:01:21Z</time>
      </trkpt>
      <trkpt lat="40.3671370" lon="-5.8465080">
        <ele>719.2</ele>
        <time>2021-10-15T13:01:28Z</time>
      </trkpt>
      <trkpt lat="40.3670920" lon="-5.8464830">
        <ele>720.4</ele>
        <time>2021-10-15T13:01:36Z</time>
      </trkpt>
      <trkpt lat="40.3670190" lon="-5.8464220">
        <ele>721.4</ele>
        <time>2021-10-15T13:01:45Z</time>
      </trkpt>
      <trkpt lat="40.3670140" lon="-5.8464150">
        <ele>721.4</ele>
        <time>2021-10-15T13:01:46Z</time>
      </trkpt>
      <trkpt lat="40.3669440" lon="-5.8463560">
        <ele>722.4</ele>
        <time>2021-10-15T13:01:53Z</time>
      </trkpt>
      <trkpt lat="40.3669340" lon="-5.8463480">
        <ele>722.6</ele>
        <time>2021-10-15T13:01:55Z</time>
      </trkpt>
      <trkpt lat="40.3668760" lon="-5.8463010">
        <ele>723.4</ele>
        <time>2021-10-15T13:02:02Z</time>
      </trkpt>
      <trkpt lat="40.3668680" lon="-5.8462940">
        <ele>723.4</ele>
        <time>2021-10-15T13:02:03Z</time>
      </trkpt>
      <trkpt lat="40.3668370" lon="-5.8462510">
        <ele>724.0</ele>
        <time>2021-10-15T13:02:09Z</time>
      </trkpt>
      <trkpt lat="40.3668320" lon="-5.8462260">
        <ele>724.4</ele>
        <time>2021-10-15T13:02:12Z</time>
      </trkpt>
      <trkpt lat="40.3667930" lon="-5.8461750">
        <ele>725.2</ele>
        <time>2021-10-15T13:02:19Z</time>
      </trkpt>
      <trkpt lat="40.3667800" lon="-5.8461440">
        <ele>725.4</ele>
        <time>2021-10-15T13:02:22Z</time>
      </trkpt>
      <trkpt lat="40.3667730" lon="-5.8461250">
        <ele>725.8</ele>
        <time>2021-10-15T13:02:24Z</time>
      </trkpt>
      <trkpt lat="40.3667620" lon="-5.8461060">
        <ele>726.0</ele>
        <time>2021-10-15T13:02:26Z</time>
      </trkpt>
      <trkpt lat="40.3667440" lon="-5.8460800">
        <ele>726.6</ele>
        <time>2021-10-15T13:02:29Z</time>
      </trkpt>
      <trkpt lat="40.3667250" lon="-5.8460440">
        <ele>727.0</ele>
        <time>2021-10-15T13:02:33Z</time>
      </trkpt>
      <trkpt lat="40.3666930" lon="-5.8459850">
        <ele>727.6</ele>
        <time>2021-10-15T13:02:39Z</time>
      </trkpt>
      <trkpt lat="40.3666740" lon="-5.8459430">
        <ele>728.4</ele>
        <time>2021-10-15T13:02:44Z</time>
      </trkpt>
      <trkpt lat="40.3666610" lon="-5.8459140">
        <ele>728.6</ele>
        <time>2021-10-15T13:02:47Z</time>
      </trkpt>
      <trkpt lat="40.3666480" lon="-5.8458670">
        <ele>729.2</ele>
        <time>2021-10-15T13:02:51Z</time>
      </trkpt>
      <trkpt lat="40.3666330" lon="-5.8458220">
        <ele>729.6</ele>
        <time>2021-10-15T13:02:55Z</time>
      </trkpt>
      <trkpt lat="40.3666120" lon="-5.8457420">
        <ele>730.4</ele>
        <time>2021-10-15T13:03:02Z</time>
      </trkpt>
      <trkpt lat="40.3666060" lon="-5.8457200">
        <ele>730.6</ele>
        <time>2021-10-15T13:03:04Z</time>
      </trkpt>
      <trkpt lat="40.3666040" lon="-5.8457070">
        <ele>730.8</ele>
        <time>2021-10-15T13:03:05Z</time>
      </trkpt>
      <trkpt lat="40.3666040" lon="-5.8457020">
        <ele>731.0</ele>
        <time>2021-10-15T13:03:09Z</time>
      </trkpt>
      <trkpt lat="40.3662370" lon="-5.8453300">
        <ele>737.0</ele>
        <time>2021-10-15T13:04:54Z</time>
      </trkpt>
      <trkpt lat="40.3662300" lon="-5.8453140">
        <ele>737.2</ele>
        <time>2021-10-15T13:04:55Z</time>
      </trkpt>
      <trkpt lat="40.3662160" lon="-5.8452820">
        <ele>737.4</ele>
        <time>2021-10-15T13:04:57Z</time>
      </trkpt>
      <trkpt lat="40.3662060" lon="-5.8452700">
        <ele>737.6</ele>
        <time>2021-10-15T13:04:58Z</time>
      </trkpt>
      <trkpt lat="40.3661980" lon="-5.8452560">
        <ele>737.8</ele>
        <time>2021-10-15T13:04:59Z</time>
      </trkpt>
      <trkpt lat="40.3661940" lon="-5.8452400">
        <ele>738.0</ele>
        <time>2021-10-15T13:05:00Z</time>
      </trkpt>
      <trkpt lat="40.3661840" lon="-5.8452050">
        <ele>738.2</ele>
        <time>2021-10-15T13:05:02Z</time>
      </trkpt>
      <trkpt lat="40.3661500" lon="-5.8451170">
        <ele>738.6</ele>
        <time>2021-10-15T13:05:08Z</time>
      </trkpt>
      <trkpt lat="40.3661370" lon="-5.8450940">
        <ele>739.0</ele>
        <time>2021-10-15T13:05:10Z</time>
      </trkpt>
      <trkpt lat="40.3661250" lon="-5.8450530">
        <ele>739.2</ele>
        <time>2021-10-15T13:05:13Z</time>
      </trkpt>
      <trkpt lat="40.3661200" lon="-5.8450200">
        <ele>739.4</ele>
        <time>2021-10-15T13:05:15Z</time>
      </trkpt>
      <trkpt lat="40.3660900" lon="-5.8449500">
        <ele>740.0</ele>
        <time>2021-10-15T13:05:21Z</time>
      </trkpt>
      <trkpt lat="40.3660880" lon="-5.8449120">
        <ele>740.2</ele>
        <time>2021-10-15T13:05:23Z</time>
      </trkpt>
      <trkpt lat="40.3660860" lon="-5.8448970">
        <ele>740.4</ele>
        <time>2021-10-15T13:05:24Z</time>
      </trkpt>
      <trkpt lat="40.3660700" lon="-5.8448190">
        <ele>740.8</ele>
        <time>2021-10-15T13:05:28Z</time>
      </trkpt>
      <trkpt lat="40.3660530" lon="-5.8447810">
        <ele>741.0</ele>
        <time>2021-10-15T13:05:30Z</time>
      </trkpt>
      <trkpt lat="40.3660450" lon="-5.8447660">
        <ele>741.2</ele>
        <time>2021-10-15T13:05:31Z</time>
      </trkpt>
      <trkpt lat="40.3659900" lon="-5.8447110">
        <ele>741.4</ele>
        <time>2021-10-15T13:05:35Z</time>
      </trkpt>
      <trkpt lat="40.3659210" lon="-5.8446620">
        <ele>741.8</ele>
        <time>2021-10-15T13:05:40Z</time>
      </trkpt>
      <trkpt lat="40.3658680" lon="-5.8446550">
        <ele>742.2</ele>
        <time>2021-10-15T13:05:44Z</time>
      </trkpt>
      <trkpt lat="40.3658550" lon="-5.8446610">
        <ele>742.2</ele>
        <time>2021-10-15T13:05:45Z</time>
      </trkpt>
      <trkpt lat="40.3658410" lon="-5.8446680">
        <ele>742.4</ele>
        <time>2021-10-15T13:05:46Z</time>
      </trkpt>
      <trkpt lat="40.3658170" lon="-5.8446680">
        <ele>742.4</ele>
        <time>2021-10-15T13:05:48Z</time>
      </trkpt>
      <trkpt lat="40.3658040" lon="-5.8446670">
        <ele>742.4</ele>
        <time>2021-10-15T13:05:49Z</time>
      </trkpt>
      <trkpt lat="40.3657860" lon="-5.8446650">
        <ele>742.6</ele>
        <time>2021-10-15T13:05:50Z</time>
      </trkpt>
      <trkpt lat="40.3657040" lon="-5.8446560">
        <ele>743.0</ele>
        <time>2021-10-15T13:05:55Z</time>
      </trkpt>
      <trkpt lat="40.3656290" lon="-5.8446220">
        <ele>743.4</ele>
        <time>2021-10-15T13:06:00Z</time>
      </trkpt>
      <trkpt lat="40.3656150" lon="-5.8446210">
        <ele>743.6</ele>
        <time>2021-10-15T13:06:01Z</time>
      </trkpt>
      <trkpt lat="40.3655820" lon="-5.8446170">
        <ele>744.0</ele>
        <time>2021-10-15T13:06:03Z</time>
      </trkpt>
      <trkpt lat="40.3655540" lon="-5.8446110">
        <ele>744.2</ele>
        <time>2021-10-15T13:06:05Z</time>
      </trkpt>
      <trkpt lat="40.3654960" lon="-5.8445970">
        <ele>744.6</ele>
        <time>2021-10-15T13:06:09Z</time>
      </trkpt>
      <trkpt lat="40.3654660" lon="-5.8445940">
        <ele>745.0</ele>
        <time>2021-10-15T13:06:11Z</time>
      </trkpt>
      <trkpt lat="40.3654040" lon="-5.8445650">
        <ele>745.4</ele>
        <time>2021-10-15T13:06:15Z</time>
      </trkpt>
      <trkpt lat="40.3653660" lon="-5.8445610">
        <ele>745.8</ele>
        <time>2021-10-15T13:06:18Z</time>
      </trkpt>
      <trkpt lat="40.3653520" lon="-5.8445570">
        <ele>746.0</ele>
        <time>2021-10-15T13:06:19Z</time>
      </trkpt>
      <trkpt lat="40.3653250" lon="-5.8445470">
        <ele>746.2</ele>
        <time>2021-10-15T13:06:21Z</time>
      </trkpt>
      <trkpt lat="40.3652820" lon="-5.8445290">
        <ele>746.4</ele>
        <time>2021-10-15T13:06:24Z</time>
      </trkpt>
      <trkpt lat="40.3652150" lon="-5.8445000">
        <ele>746.8</ele>
        <time>2021-10-15T13:06:28Z</time>
      </trkpt>
      <trkpt lat="40.3652020" lon="-5.8444980">
        <ele>747.0</ele>
        <time>2021-10-15T13:06:29Z</time>
      </trkpt>
      <trkpt lat="40.3651840" lon="-5.8444960">
        <ele>747.0</ele>
        <time>2021-10-15T13:06:30Z</time>
      </trkpt>
      <trkpt lat="40.3651560" lon="-5.8444820">
        <ele>747.2</ele>
        <time>2021-10-15T13:06:32Z</time>
      </trkpt>
      <trkpt lat="40.3651410" lon="-5.8444730">
        <ele>747.4</ele>
        <time>2021-10-15T13:06:33Z</time>
      </trkpt>
      <trkpt lat="40.3650680" lon="-5.8444270">
        <ele>748.0</ele>
        <time>2021-10-15T13:06:38Z</time>
      </trkpt>
      <trkpt lat="40.3650340" lon="-5.8444110">
        <ele>748.0</ele>
        <time>2021-10-15T13:06:40Z</time>
      </trkpt>
      <trkpt lat="40.3649140" lon="-5.8443420">
        <ele>748.8</ele>
        <time>2021-10-15T13:06:47Z</time>
      </trkpt>
      <trkpt lat="40.3648930" lon="-5.8443310">
        <ele>748.8</ele>
        <time>2021-10-15T13:06:48Z</time>
      </trkpt>
      <trkpt lat="40.3648290" lon="-5.8442950">
        <ele>749.0</ele>
        <time>2021-10-15T13:06:52Z</time>
      </trkpt>
      <trkpt lat="40.3647510" lon="-5.8442480">
        <ele>749.2</ele>
        <time>2021-10-15T13:06:56Z</time>
      </trkpt>
      <trkpt lat="40.3647250" lon="-5.8442360">
        <ele>749.4</ele>
        <time>2021-10-15T13:06:57Z</time>
      </trkpt>
      <trkpt lat="40.3645790" lon="-5.8441130">
        <ele>749.8</ele>
        <time>2021-10-15T13:07:02Z</time>
      </trkpt>
      <trkpt lat="40.3645090" lon="-5.8440650">
        <ele>750.0</ele>
        <time>2021-10-15T13:07:06Z</time>
      </trkpt>
      <trkpt lat="40.3644680" lon="-5.8440330">
        <ele>750.0</ele>
        <time>2021-10-15T13:07:07Z</time>
      </trkpt>
      <trkpt lat="40.3642160" lon="-5.8438210">
        <ele>751.0</ele>
        <time>2021-10-15T13:07:18Z</time>
      </trkpt>
      <trkpt lat="40.3641590" lon="-5.8437730">
        <ele>751.2</ele>
        <time>2021-10-15T13:07:20Z</time>
      </trkpt>
      <trkpt lat="40.3639750" lon="-5.8436440">
        <ele>752.2</ele>
        <time>2021-10-15T13:07:29Z</time>
      </trkpt>
      <trkpt lat="40.3639420" lon="-5.8436250">
        <ele>752.2</ele>
        <time>2021-10-15T13:07:30Z</time>
      </trkpt>
      <trkpt lat="40.3637680" lon="-5.8435750">
        <ele>753.2</ele>
        <time>2021-10-15T13:07:39Z</time>
      </trkpt>
      <trkpt lat="40.3636650" lon="-5.8435330">
        <ele>753.6</ele>
        <time>2021-10-15T13:07:43Z</time>
      </trkpt>
      <trkpt lat="40.3634160" lon="-5.8434400">
        <ele>753.6</ele>
        <time>2021-10-15T13:07:50Z</time>
      </trkpt>
      <trkpt lat="40.3631860" lon="-5.8433610">
        <ele>753.8</ele>
        <time>2021-10-15T13:07:56Z</time>
      </trkpt>
      <trkpt lat="40.3631860" lon="-5.8433610">
        <ele>753.8</ele>
        <time>2021-10-15T13:07:57Z</time>
      </trkpt>
      <trkpt lat="40.3630020" lon="-5.8433490">
        <ele>753.8</ele>
        <time>2021-10-15T13:08:01Z</time>
      </trkpt>
      <trkpt lat="40.3629710" lon="-5.8433450">
        <ele>753.8</ele>
        <time>2021-10-15T13:08:02Z</time>
      </trkpt>
      <trkpt lat="40.3628490" lon="-5.8433340">
        <ele>754.0</ele>
        <time>2021-10-15T13:08:06Z</time>
      </trkpt>
      <trkpt lat="40.3627630" lon="-5.8433270">
        <ele>754.4</ele>
        <time>2021-10-15T13:08:09Z</time>
      </trkpt>
      <trkpt lat="40.3626440" lon="-5.8433020">
        <ele>755.0</ele>
        <time>2021-10-15T13:08:14Z</time>
      </trkpt>
      <trkpt lat="40.3625150" lon="-5.8432770">
        <ele>755.6</ele>
        <time>2021-10-15T13:08:19Z</time>
      </trkpt>
      <trkpt lat="40.3624930" lon="-5.8432740">
        <ele>755.8</ele>
        <time>2021-10-15T13:08:21Z</time>
      </trkpt>
      <trkpt lat="40.3623980" lon="-5.8432550">
        <ele>756.0</ele>
        <time>2021-10-15T13:08:24Z</time>
      </trkpt>
      <trkpt lat="40.3623520" lon="-5.8432520">
        <ele>756.6</ele>
        <time>2021-10-15T13:08:26Z</time>
      </trkpt>
      <trkpt lat="40.3622650" lon="-5.8432300">
        <ele>757.2</ele>
        <time>2021-10-15T13:08:30Z</time>
      </trkpt>
      <trkpt lat="40.3622220" lon="-5.8432110">
        <ele>757.6</ele>
        <time>2021-10-15T13:08:33Z</time>
      </trkpt>
      <trkpt lat="40.3621260" lon="-5.8431800">
        <ele>757.8</ele>
        <time>2021-10-15T13:08:36Z</time>
      </trkpt>
      <trkpt lat="40.3620770" lon="-5.8431430">
        <ele>757.8</ele>
        <time>2021-10-15T13:08:38Z</time>
      </trkpt>
      <trkpt lat="40.3620500" lon="-5.8431160">
        <ele>757.8</ele>
        <time>2021-10-15T13:08:39Z</time>
      </trkpt>
      <trkpt lat="40.3619770" lon="-5.8430520">
        <ele>758.0</ele>
        <time>2021-10-15T13:08:42Z</time>
      </trkpt>
      <trkpt lat="40.3619110" lon="-5.8429930">
        <ele>758.2</ele>
        <time>2021-10-15T13:08:45Z</time>
      </trkpt>
      <trkpt lat="40.3618980" lon="-5.8429730">
        <ele>758.4</ele>
        <time>2021-10-15T13:08:46Z</time>
      </trkpt>
      <trkpt lat="40.3618120" lon="-5.8428950">
        <ele>758.6</ele>
        <time>2021-10-15T13:08:50Z</time>
      </trkpt>
      <trkpt lat="40.3617650" lon="-5.8428580">
        <ele>758.8</ele>
        <time>2021-10-15T13:08:52Z</time>
      </trkpt>
      <trkpt lat="40.3616600" lon="-5.8427620">
        <ele>759.4</ele>
        <time>2021-10-15T13:08:57Z</time>
      </trkpt>
      <trkpt lat="40.3616370" lon="-5.8427480">
        <ele>759.8</ele>
        <time>2021-10-15T13:08:59Z</time>
      </trkpt>
      <trkpt lat="40.3615490" lon="-5.8427120">
        <ele>760.2</ele>
        <time>2021-10-15T13:09:03Z</time>
      </trkpt>
      <trkpt lat="40.3614860" lon="-5.8426580">
        <ele>760.6</ele>
        <time>2021-10-15T13:09:06Z</time>
      </trkpt>
      <trkpt lat="40.3613700" lon="-5.8425960">
        <ele>761.6</ele>
        <time>2021-10-15T13:09:13Z</time>
      </trkpt>
      <trkpt lat="40.3612980" lon="-5.8425240">
        <ele>762.4</ele>
        <time>2021-10-15T13:09:18Z</time>
      </trkpt>
      <trkpt lat="40.3612530" lon="-5.8424850">
        <ele>762.8</ele>
        <time>2021-10-15T13:09:21Z</time>
      </trkpt>
      <trkpt lat="40.3612160" lon="-5.8424640">
        <ele>762.8</ele>
        <time>2021-10-15T13:09:23Z</time>
      </trkpt>
      <trkpt lat="40.3612050" lon="-5.8424490">
        <ele>763.0</ele>
        <time>2021-10-15T13:09:24Z</time>
      </trkpt>
      <trkpt lat="40.3611630" lon="-5.8423960">
        <ele>763.2</ele>
        <time>2021-10-15T13:09:27Z</time>
      </trkpt>
      <trkpt lat="40.3611500" lon="-5.8423800">
        <ele>763.4</ele>
        <time>2021-10-15T13:09:28Z</time>
      </trkpt>
      <trkpt lat="40.3610630" lon="-5.8422820">
        <ele>763.8</ele>
        <time>2021-10-15T13:09:34Z</time>
      </trkpt>
      <trkpt lat="40.3610450" lon="-5.8422620">
        <ele>763.8</ele>
        <time>2021-10-15T13:09:35Z</time>
      </trkpt>
      <trkpt lat="40.3609700" lon="-5.8421870">
        <ele>764.2</ele>
        <time>2021-10-15T13:09:39Z</time>
      </trkpt>
      <trkpt lat="40.3609110" lon="-5.8420960">
        <ele>764.6</ele>
        <time>2021-10-15T13:09:43Z</time>
      </trkpt>
      <trkpt lat="40.3608760" lon="-5.8420530">
        <ele>765.0</ele>
        <time>2021-10-15T13:09:45Z</time>
      </trkpt>
      <trkpt lat="40.3607510" lon="-5.8419140">
        <ele>765.8</ele>
        <time>2021-10-15T13:09:53Z</time>
      </trkpt>
      <trkpt lat="40.3607450" lon="-5.8419000">
        <ele>766.2</ele>
        <time>2021-10-15T13:09:54Z</time>
      </trkpt>
      <trkpt lat="40.3607020" lon="-5.8418670">
        <ele>767.2</ele>
        <time>2021-10-15T13:09:59Z</time>
      </trkpt>
      <trkpt lat="40.3606860" lon="-5.8418590">
        <ele>767.2</ele>
        <time>2021-10-15T13:10:00Z</time>
      </trkpt>
      <trkpt lat="40.3606350" lon="-5.8418390">
        <ele>768.2</ele>
        <time>2021-10-15T13:10:04Z</time>
      </trkpt>
      <trkpt lat="40.3605810" lon="-5.8418440">
        <ele>768.8</ele>
        <time>2021-10-15T13:10:08Z</time>
      </trkpt>
      <trkpt lat="40.3605240" lon="-5.8418390">
        <ele>769.4</ele>
        <time>2021-10-15T13:10:12Z</time>
      </trkpt>
      <trkpt lat="40.3604730" lon="-5.8418460">
        <ele>770.0</ele>
        <time>2021-10-15T13:10:16Z</time>
      </trkpt>
      <trkpt lat="40.3604730" lon="-5.8418460">
        <ele>770.0</ele>
        <time>2021-10-15T13:10:17Z</time>
      </trkpt>
      <trkpt lat="40.3604260" lon="-5.8418540">
        <ele>770.4</ele>
        <time>2021-10-15T13:10:19Z</time>
      </trkpt>
      <trkpt lat="40.3603930" lon="-5.8418490">
        <ele>770.4</ele>
        <time>2021-10-15T13:10:21Z</time>
      </trkpt>
      <trkpt lat="40.3603400" lon="-5.8418470">
        <ele>770.6</ele>
        <time>2021-10-15T13:10:24Z</time>
      </trkpt>
      <trkpt lat="40.3602990" lon="-5.8418490">
        <ele>771.0</ele>
        <time>2021-10-15T13:10:27Z</time>
      </trkpt>
      <trkpt lat="40.3602720" lon="-5.8418510">
        <ele>771.0</ele>
        <time>2021-10-15T13:10:29Z</time>
      </trkpt>
      <trkpt lat="40.3602520" lon="-5.8418530">
        <ele>771.2</ele>
        <time>2021-10-15T13:10:30Z</time>
      </trkpt>
      <trkpt lat="40.3602360" lon="-5.8418570">
        <ele>771.2</ele>
        <time>2021-10-15T13:10:31Z</time>
      </trkpt>
      <trkpt lat="40.3602230" lon="-5.8418620">
        <ele>771.0</ele>
        <time>2021-10-15T13:10:32Z</time>
      </trkpt>
      <trkpt lat="40.3601630" lon="-5.8418810">
        <ele>771.4</ele>
        <time>2021-10-15T13:10:35Z</time>
      </trkpt>
      <trkpt lat="40.3601290" lon="-5.8418900">
        <ele>771.4</ele>
        <time>2021-10-15T13:10:37Z</time>
      </trkpt>
      <trkpt lat="40.3600840" lon="-5.8419000">
        <ele>771.6</ele>
        <time>2021-10-15T13:10:39Z</time>
      </trkpt>
      <trkpt lat="40.3600630" lon="-5.8419040">
        <ele>771.8</ele>
        <time>2021-10-15T13:10:40Z</time>
      </trkpt>
      <trkpt lat="40.3600240" lon="-5.8419110">
        <ele>771.8</ele>
        <time>2021-10-15T13:10:42Z</time>
      </trkpt>
      <trkpt lat="40.3599700" lon="-5.8419030">
        <ele>772.2</ele>
        <time>2021-10-15T13:10:45Z</time>
      </trkpt>
      <trkpt lat="40.3599490" lon="-5.8418970">
        <ele>772.2</ele>
        <time>2021-10-15T13:10:46Z</time>
      </trkpt>
      <trkpt lat="40.3599340" lon="-5.8418950">
        <ele>772.2</ele>
        <time>2021-10-15T13:10:47Z</time>
      </trkpt>
      <trkpt lat="40.3599000" lon="-5.8419020">
        <ele>772.4</ele>
        <time>2021-10-15T13:10:49Z</time>
      </trkpt>
      <trkpt lat="40.3598450" lon="-5.8419250">
        <ele>772.6</ele>
        <time>2021-10-15T13:10:52Z</time>
      </trkpt>
      <trkpt lat="40.3597940" lon="-5.8419440">
        <ele>772.8</ele>
        <time>2021-10-15T13:10:55Z</time>
      </trkpt>
      <trkpt lat="40.3597770" lon="-5.8419520">
        <ele>773.0</ele>
        <time>2021-10-15T13:10:56Z</time>
      </trkpt>
      <trkpt lat="40.3597040" lon="-5.8419790">
        <ele>773.2</ele>
        <time>2021-10-15T13:11:01Z</time>
      </trkpt>
      <trkpt lat="40.3596940" lon="-5.8419770">
        <ele>773.4</ele>
        <time>2021-10-15T13:11:03Z</time>
      </trkpt>
      <trkpt lat="40.3596830" lon="-5.8419760">
        <ele>773.4</ele>
        <time>2021-10-15T13:11:04Z</time>
      </trkpt>
      <trkpt lat="40.3596490" lon="-5.8419830">
        <ele>773.4</ele>
        <time>2021-10-15T13:11:05Z</time>
      </trkpt>
      <trkpt lat="40.3596040" lon="-5.8419810">
        <ele>773.8</ele>
        <time>2021-10-15T13:11:09Z</time>
      </trkpt>
      <trkpt lat="40.3595680" lon="-5.8419890">
        <ele>773.8</ele>
        <time>2021-10-15T13:11:10Z</time>
      </trkpt>
      <trkpt lat="40.3595200" lon="-5.8420080">
        <ele>774.2</ele>
        <time>2021-10-15T13:11:13Z</time>
      </trkpt>
      <trkpt lat="40.3595050" lon="-5.8420120">
        <ele>774.2</ele>
        <time>2021-10-15T13:11:14Z</time>
      </trkpt>
      <trkpt lat="40.3594840" lon="-5.8420100">
        <ele>774.4</ele>
        <time>2021-10-15T13:11:15Z</time>
      </trkpt>
      <trkpt lat="40.3593750" lon="-5.8420420">
        <ele>775.2</ele>
        <time>2021-10-15T13:11:21Z</time>
      </trkpt>
      <trkpt lat="40.3593300" lon="-5.8420620">
        <ele>775.4</ele>
        <time>2021-10-15T13:11:24Z</time>
      </trkpt>
      <trkpt lat="40.3592870" lon="-5.8420770">
        <ele>775.6</ele>
        <time>2021-10-15T13:11:27Z</time>
      </trkpt>
      <trkpt lat="40.3591680" lon="-5.8421410">
        <ele>776.4</ele>
        <time>2021-10-15T13:11:33Z</time>
      </trkpt>
      <trkpt lat="40.3591190" lon="-5.8421790">
        <ele>776.8</ele>
        <time>2021-10-15T13:11:36Z</time>
      </trkpt>
      <trkpt lat="40.3590470" lon="-5.8422210">
        <ele>777.2</ele>
        <time>2021-10-15T13:11:40Z</time>
      </trkpt>
      <trkpt lat="40.3590340" lon="-5.8422460">
        <ele>777.6</ele>
        <time>2021-10-15T13:11:42Z</time>
      </trkpt>
      <trkpt lat="40.3590230" lon="-5.8422560">
        <ele>777.8</ele>
        <time>2021-10-15T13:11:43Z</time>
      </trkpt>
      <trkpt lat="40.3589450" lon="-5.8423050">
        <ele>778.6</ele>
        <time>2021-10-15T13:11:49Z</time>
      </trkpt>
      <trkpt lat="40.3589320" lon="-5.8423180">
        <ele>778.6</ele>
        <time>2021-10-15T13:11:50Z</time>
      </trkpt>
      <trkpt lat="40.3588450" lon="-5.8423750">
        <ele>779.4</ele>
        <time>2021-10-15T13:11:57Z</time>
      </trkpt>
      <trkpt lat="40.3588340" lon="-5.8423820">
        <ele>779.6</ele>
        <time>2021-10-15T13:11:58Z</time>
      </trkpt>
      <trkpt lat="40.3587610" lon="-5.8424210">
        <ele>780.4</ele>
        <time>2021-10-15T13:12:04Z</time>
      </trkpt>
      <trkpt lat="40.3587340" lon="-5.8424420">
        <ele>780.6</ele>
        <time>2021-10-15T13:12:06Z</time>
      </trkpt>
      <trkpt lat="40.3586930" lon="-5.8424710">
        <ele>780.8</ele>
        <time>2021-10-15T13:12:09Z</time>
      </trkpt>
      <trkpt lat="40.3586460" lon="-5.8425050">
        <ele>781.6</ele>
        <time>2021-10-15T13:12:13Z</time>
      </trkpt>
      <trkpt lat="40.3585240" lon="-5.8425650">
        <ele>782.8</ele>
        <time>2021-10-15T13:12:22Z</time>
      </trkpt>
      <trkpt lat="40.3584070" lon="-5.8426170">
        <ele>783.8</ele>
        <time>2021-10-15T13:12:30Z</time>
      </trkpt>
      <trkpt lat="40.3583570" lon="-5.8426330">
        <ele>784.2</ele>
        <time>2021-10-15T13:12:33Z</time>
      </trkpt>
      <trkpt lat="40.3583160" lon="-5.8426430">
        <ele>784.8</ele>
        <time>2021-10-15T13:12:36Z</time>
      </trkpt>
      <trkpt lat="40.3583030" lon="-5.8426500">
        <ele>785.0</ele>
        <time>2021-10-15T13:12:38Z</time>
      </trkpt>
      <trkpt lat="40.3582610" lon="-5.8426640">
        <ele>785.4</ele>
        <time>2021-10-15T13:12:40Z</time>
      </trkpt>
      <trkpt lat="40.3582340" lon="-5.8426960">
        <ele>785.8</ele>
        <time>2021-10-15T13:12:43Z</time>
      </trkpt>
      <trkpt lat="40.3582110" lon="-5.8427360">
        <ele>786.0</ele>
        <time>2021-10-15T13:12:44Z</time>
      </trkpt>
      <trkpt lat="40.3581990" lon="-5.8427430">
        <ele>786.2</ele>
        <time>2021-10-15T13:12:45Z</time>
      </trkpt>
      <trkpt lat="40.3581800" lon="-5.8427920">
        <ele>786.6</ele>
        <time>2021-10-15T13:12:48Z</time>
      </trkpt>
      <trkpt lat="40.3581720" lon="-5.8428080">
        <ele>786.6</ele>
        <time>2021-10-15T13:12:49Z</time>
      </trkpt>
      <trkpt lat="40.3581500" lon="-5.8428300">
        <ele>787.2</ele>
        <time>2021-10-15T13:12:52Z</time>
      </trkpt>
      <trkpt lat="40.3581190" lon="-5.8428590">
        <ele>788.0</ele>
        <time>2021-10-15T13:12:56Z</time>
      </trkpt>
      <trkpt lat="40.3581010" lon="-5.8428730">
        <ele>788.2</ele>
        <time>2021-10-15T13:12:58Z</time>
      </trkpt>
      <trkpt lat="40.3580910" lon="-5.8428900">
        <ele>788.4</ele>
        <time>2021-10-15T13:13:00Z</time>
      </trkpt>
      <trkpt lat="40.3580670" lon="-5.8429110">
        <ele>788.6</ele>
        <time>2021-10-15T13:13:02Z</time>
      </trkpt>
      <trkpt lat="40.3580370" lon="-5.8429590">
        <ele>789.2</ele>
        <time>2021-10-15T13:13:06Z</time>
      </trkpt>
      <trkpt lat="40.3580240" lon="-5.8429980">
        <ele>789.8</ele>
        <time>2021-10-15T13:13:09Z</time>
      </trkpt>
      <trkpt lat="40.3580180" lon="-5.8430030">
        <ele>790.0</ele>
        <time>2021-10-15T13:13:10Z</time>
      </trkpt>
      <trkpt lat="40.3580030" lon="-5.8430190">
        <ele>790.4</ele>
        <time>2021-10-15T13:13:12Z</time>
      </trkpt>
      <trkpt lat="40.3579560" lon="-5.8430620">
        <ele>791.4</ele>
        <time>2021-10-15T13:13:17Z</time>
      </trkpt>
      <trkpt lat="40.3579460" lon="-5.8430770">
        <ele>791.4</ele>
        <time>2021-10-15T13:13:18Z</time>
      </trkpt>
      <trkpt lat="40.3579070" lon="-5.8431410">
        <ele>792.6</ele>
        <time>2021-10-15T13:13:23Z</time>
      </trkpt>
      <trkpt lat="40.3578950" lon="-5.8431560">
        <ele>792.8</ele>
        <time>2021-10-15T13:13:25Z</time>
      </trkpt>
      <trkpt lat="40.3578570" lon="-5.8432050">
        <ele>793.0</ele>
        <time>2021-10-15T13:13:28Z</time>
      </trkpt>
      <trkpt lat="40.3578140" lon="-5.8432580">
        <ele>793.6</ele>
        <time>2021-10-15T13:13:32Z</time>
      </trkpt>
      <trkpt lat="40.3577950" lon="-5.8432810">
        <ele>794.0</ele>
        <time>2021-10-15T13:13:34Z</time>
      </trkpt>
      <trkpt lat="40.3577690" lon="-5.8433240">
        <ele>794.6</ele>
        <time>2021-10-15T13:13:37Z</time>
      </trkpt>
      <trkpt lat="40.3577540" lon="-5.8433480">
        <ele>795.0</ele>
        <time>2021-10-15T13:13:39Z</time>
      </trkpt>
      <trkpt lat="40.3577490" lon="-5.8433600">
        <ele>795.2</ele>
        <time>2021-10-15T13:13:40Z</time>
      </trkpt>
      <trkpt lat="40.3577410" lon="-5.8433670">
        <ele>795.2</ele>
        <time>2021-10-15T13:13:41Z</time>
      </trkpt>
      <trkpt lat="40.3577340" lon="-5.8433760">
        <ele>795.4</ele>
        <time>2021-10-15T13:13:42Z</time>
      </trkpt>
      <trkpt lat="40.3577300" lon="-5.8433850">
        <ele>796.0</ele>
        <time>2021-10-15T13:13:43Z</time>
      </trkpt>
      <trkpt lat="40.3577160" lon="-5.8434030">
        <ele>796.2</ele>
        <time>2021-10-15T13:13:45Z</time>
      </trkpt>
      <trkpt lat="40.3576760" lon="-5.8434340">
        <ele>797.0</ele>
        <time>2021-10-15T13:13:49Z</time>
      </trkpt>
      <trkpt lat="40.3576660" lon="-5.8434390">
        <ele>797.2</ele>
        <time>2021-10-15T13:13:50Z</time>
      </trkpt>
      <trkpt lat="40.3576420" lon="-5.8434520">
        <ele>797.6</ele>
        <time>2021-10-15T13:13:52Z</time>
      </trkpt>
      <trkpt lat="40.3576240" lon="-5.8434750">
        <ele>798.0</ele>
        <time>2021-10-15T13:13:54Z</time>
      </trkpt>
      <trkpt lat="40.3576180" lon="-5.8434860">
        <ele>798.0</ele>
        <time>2021-10-15T13:13:55Z</time>
      </trkpt>
      <trkpt lat="40.3576050" lon="-5.8435030">
        <ele>798.4</ele>
        <time>2021-10-15T13:13:57Z</time>
      </trkpt>
      <trkpt lat="40.3575910" lon="-5.8435250">
        <ele>798.8</ele>
        <time>2021-10-15T13:13:59Z</time>
      </trkpt>
      <trkpt lat="40.3575840" lon="-5.8435390">
        <ele>799.2</ele>
        <time>2021-10-15T13:14:01Z</time>
      </trkpt>
      <trkpt lat="40.3575770" lon="-5.8435510">
        <ele>799.4</ele>
        <time>2021-10-15T13:14:02Z</time>
      </trkpt>
      <trkpt lat="40.3575700" lon="-5.8435810">
        <ele>799.6</ele>
        <time>2021-10-15T13:14:04Z</time>
      </trkpt>
      <trkpt lat="40.3575510" lon="-5.8436330">
        <ele>800.2</ele>
        <time>2021-10-15T13:14:08Z</time>
      </trkpt>
      <trkpt lat="40.3575480" lon="-5.8436620">
        <ele>800.6</ele>
        <time>2021-10-15T13:14:10Z</time>
      </trkpt>
      <trkpt lat="40.3575390" lon="-5.8436920">
        <ele>800.8</ele>
        <time>2021-10-15T13:14:12Z</time>
      </trkpt>
      <trkpt lat="40.3575280" lon="-5.8437200">
        <ele>801.0</ele>
        <time>2021-10-15T13:14:14Z</time>
      </trkpt>
      <trkpt lat="40.3575240" lon="-5.8437350">
        <ele>801.0</ele>
        <time>2021-10-15T13:14:15Z</time>
      </trkpt>
      <trkpt lat="40.3575200" lon="-5.8437490">
        <ele>801.2</ele>
        <time>2021-10-15T13:14:16Z</time>
      </trkpt>
      <trkpt lat="40.3575170" lon="-5.8437620">
        <ele>801.2</ele>
        <time>2021-10-15T13:14:17Z</time>
      </trkpt>
      <trkpt lat="40.3575170" lon="-5.8437830">
        <ele>801.6</ele>
        <time>2021-10-15T13:14:19Z</time>
      </trkpt>
      <trkpt lat="40.3575170" lon="-5.8438380">
        <ele>802.2</ele>
        <time>2021-10-15T13:14:23Z</time>
      </trkpt>
      <trkpt lat="40.3575180" lon="-5.8438500">
        <ele>802.2</ele>
        <time>2021-10-15T13:14:24Z</time>
      </trkpt>
      <trkpt lat="40.3575000" lon="-5.8439320">
        <ele>803.2</ele>
        <time>2021-10-15T13:14:30Z</time>
      </trkpt>
      <trkpt lat="40.3574990" lon="-5.8439450">
        <ele>803.4</ele>
        <time>2021-10-15T13:14:31Z</time>
      </trkpt>
      <trkpt lat="40.3574890" lon="-5.8439730">
        <ele>803.8</ele>
        <time>2021-10-15T13:14:33Z</time>
      </trkpt>
      <trkpt lat="40.3574760" lon="-5.8440380">
        <ele>804.6</ele>
        <time>2021-10-15T13:14:38Z</time>
      </trkpt>
      <trkpt lat="40.3574710" lon="-5.8440620">
        <ele>804.8</ele>
        <time>2021-10-15T13:14:40Z</time>
      </trkpt>
      <trkpt lat="40.3574620" lon="-5.8440740">
        <ele>804.8</ele>
        <time>2021-10-15T13:14:41Z</time>
      </trkpt>
      <trkpt lat="40.3574480" lon="-5.8441320">
        <ele>805.6</ele>
        <time>2021-10-15T13:14:46Z</time>
      </trkpt>
      <trkpt lat="40.3574460" lon="-5.8441430">
        <ele>805.6</ele>
        <time>2021-10-15T13:14:47Z</time>
      </trkpt>
      <trkpt lat="40.3574340" lon="-5.8441620">
        <ele>805.8</ele>
        <time>2021-10-15T13:14:49Z</time>
      </trkpt>
      <trkpt lat="40.3574320" lon="-5.8441720">
        <ele>806.0</ele>
        <time>2021-10-15T13:14:50Z</time>
      </trkpt>
      <trkpt lat="40.3574280" lon="-5.8441950">
        <ele>806.4</ele>
        <time>2021-10-15T13:14:54Z</time>
      </trkpt>
      <trkpt lat="40.3574230" lon="-5.8442100">
        <ele>806.6</ele>
        <time>2021-10-15T13:14:55Z</time>
      </trkpt>
      <trkpt lat="40.3574100" lon="-5.8442730">
        <ele>807.2</ele>
        <time>2021-10-15T13:14:59Z</time>
      </trkpt>
      <trkpt lat="40.3574000" lon="-5.8443040">
        <ele>807.6</ele>
        <time>2021-10-15T13:15:01Z</time>
      </trkpt>
      <trkpt lat="40.3573970" lon="-5.8443190">
        <ele>807.8</ele>
        <time>2021-10-15T13:15:02Z</time>
      </trkpt>
      <trkpt lat="40.3573790" lon="-5.8443770">
        <ele>808.2</ele>
        <time>2021-10-15T13:15:06Z</time>
      </trkpt>
      <trkpt lat="40.3573650" lon="-5.8444700">
        <ele>808.8</ele>
        <time>2021-10-15T13:15:11Z</time>
      </trkpt>
      <trkpt lat="40.3573570" lon="-5.8444950">
        <ele>808.8</ele>
        <time>2021-10-15T13:15:12Z</time>
      </trkpt>
      <trkpt lat="40.3573460" lon="-5.8445370">
        <ele>809.2</ele>
        <time>2021-10-15T13:15:14Z</time>
      </trkpt>
      <trkpt lat="40.3573340" lon="-5.8445790">
        <ele>809.6</ele>
        <time>2021-10-15T13:15:16Z</time>
      </trkpt>
      <trkpt lat="40.3573290" lon="-5.8446280">
        <ele>809.8</ele>
        <time>2021-10-15T13:15:18Z</time>
      </trkpt>
      <trkpt lat="40.3573300" lon="-5.8446510">
        <ele>809.8</ele>
        <time>2021-10-15T13:15:19Z</time>
      </trkpt>
      <trkpt lat="40.3573210" lon="-5.8446740">
        <ele>810.0</ele>
        <time>2021-10-15T13:15:20Z</time>
      </trkpt>
      <trkpt lat="40.3573040" lon="-5.8447000">
        <ele>810.4</ele>
        <time>2021-10-15T13:15:22Z</time>
      </trkpt>
      <trkpt lat="40.3573030" lon="-5.8447100">
        <ele>810.6</ele>
        <time>2021-10-15T13:15:23Z</time>
      </trkpt>
      <trkpt lat="40.3572880" lon="-5.8447680">
        <ele>811.0</ele>
        <time>2021-10-15T13:15:26Z</time>
      </trkpt>
      <trkpt lat="40.3572750" lon="-5.8447910">
        <ele>811.4</ele>
        <time>2021-10-15T13:15:28Z</time>
      </trkpt>
      <trkpt lat="40.3572420" lon="-5.8448370">
        <ele>811.8</ele>
        <time>2021-10-15T13:15:32Z</time>
      </trkpt>
      <trkpt lat="40.3572330" lon="-5.8448490">
        <ele>812.0</ele>
        <time>2021-10-15T13:15:33Z</time>
      </trkpt>
      <trkpt lat="40.3572230" lon="-5.8448570">
        <ele>812.2</ele>
        <time>2021-10-15T13:15:34Z</time>
      </trkpt>
      <trkpt lat="40.3572030" lon="-5.8448740">
        <ele>812.4</ele>
        <time>2021-10-15T13:15:36Z</time>
      </trkpt>
      <trkpt lat="40.3571980" lon="-5.8448810">
        <ele>812.6</ele>
        <time>2021-10-15T13:15:37Z</time>
      </trkpt>
      <trkpt lat="40.3571880" lon="-5.8448980">
        <ele>812.8</ele>
        <time>2021-10-15T13:15:39Z</time>
      </trkpt>
      <trkpt lat="40.3571840" lon="-5.8449030">
        <ele>813.0</ele>
        <time>2021-10-15T13:15:40Z</time>
      </trkpt>
      <trkpt lat="40.3571690" lon="-5.8449220">
        <ele>813.4</ele>
        <time>2021-10-15T13:15:42Z</time>
      </trkpt>
      <trkpt lat="40.3571510" lon="-5.8449560">
        <ele>814.0</ele>
        <time>2021-10-15T13:15:45Z</time>
      </trkpt>
      <trkpt lat="40.3571460" lon="-5.8449660">
        <ele>814.2</ele>
        <time>2021-10-15T13:15:46Z</time>
      </trkpt>
      <trkpt lat="40.3571310" lon="-5.8450090">
        <ele>815.0</ele>
        <time>2021-10-15T13:15:49Z</time>
      </trkpt>
      <trkpt lat="40.3571280" lon="-5.8450360">
        <ele>815.4</ele>
        <time>2021-10-15T13:15:51Z</time>
      </trkpt>
      <trkpt lat="40.3571280" lon="-5.8450500">
        <ele>815.4</ele>
        <time>2021-10-15T13:15:52Z</time>
      </trkpt>
      <trkpt lat="40.3571220" lon="-5.8450750">
        <ele>815.6</ele>
        <time>2021-10-15T13:15:54Z</time>
      </trkpt>
      <trkpt lat="40.3571000" lon="-5.8451270">
        <ele>816.4</ele>
        <time>2021-10-15T13:15:58Z</time>
      </trkpt>
      <trkpt lat="40.3571010" lon="-5.8451390">
        <ele>816.6</ele>
        <time>2021-10-15T13:15:59Z</time>
      </trkpt>
      <trkpt lat="40.3571120" lon="-5.8451830">
        <ele>817.4</ele>
        <time>2021-10-15T13:16:04Z</time>
      </trkpt>
      <trkpt lat="40.3571170" lon="-5.8451890">
        <ele>817.4</ele>
        <time>2021-10-15T13:16:05Z</time>
      </trkpt>
      <trkpt lat="40.3571210" lon="-5.8451980">
        <ele>817.6</ele>
        <time>2021-10-15T13:16:06Z</time>
      </trkpt>
      <trkpt lat="40.3571330" lon="-5.8452130">
        <ele>817.8</ele>
        <time>2021-10-15T13:16:08Z</time>
      </trkpt>
      <trkpt lat="40.3571410" lon="-5.8452270">
        <ele>818.0</ele>
        <time>2021-10-15T13:16:09Z</time>
      </trkpt>
      <trkpt lat="40.3571550" lon="-5.8452600">
        <ele>818.4</ele>
        <time>2021-10-15T13:16:11Z</time>
      </trkpt>
      <trkpt lat="40.3571660" lon="-5.8452940">
        <ele>818.8</ele>
        <time>2021-10-15T13:16:13Z</time>
      </trkpt>
      <trkpt lat="40.3571760" lon="-5.8453590">
        <ele>819.2</ele>
        <time>2021-10-15T13:16:18Z</time>
      </trkpt>
      <trkpt lat="40.3571770" lon="-5.8453880">
        <ele>819.4</ele>
        <time>2021-10-15T13:16:20Z</time>
      </trkpt>
      <trkpt lat="40.3571890" lon="-5.8454510">
        <ele>819.8</ele>
        <time>2021-10-15T13:16:24Z</time>
      </trkpt>
      <trkpt lat="40.3572010" lon="-5.8455060">
        <ele>820.0</ele>
        <time>2021-10-15T13:16:27Z</time>
      </trkpt>
      <trkpt lat="40.3572200" lon="-5.8455690">
        <ele>820.6</ele>
        <time>2021-10-15T13:16:31Z</time>
      </trkpt>
      <trkpt lat="40.3572260" lon="-5.8456010">
        <ele>821.0</ele>
        <time>2021-10-15T13:16:33Z</time>
      </trkpt>
      <trkpt lat="40.3572320" lon="-5.8456420">
        <ele>821.4</ele>
        <time>2021-10-15T13:16:36Z</time>
      </trkpt>
      <trkpt lat="40.3572350" lon="-5.8456550">
        <ele>821.6</ele>
        <time>2021-10-15T13:16:37Z</time>
      </trkpt>
      <trkpt lat="40.3572460" lon="-5.8456950">
        <ele>822.0</ele>
        <time>2021-10-15T13:16:40Z</time>
      </trkpt>
      <trkpt lat="40.3572570" lon="-5.8457310">
        <ele>822.2</ele>
        <time>2021-10-15T13:16:43Z</time>
      </trkpt>
      <trkpt lat="40.3572540" lon="-5.8457470">
        <ele>822.4</ele>
        <time>2021-10-15T13:16:44Z</time>
      </trkpt>
      <trkpt lat="40.3572520" lon="-5.8457590">
        <ele>822.6</ele>
        <time>2021-10-15T13:16:45Z</time>
      </trkpt>
      <trkpt lat="40.3572490" lon="-5.8458010">
        <ele>823.0</ele>
        <time>2021-10-15T13:16:48Z</time>
      </trkpt>
      <trkpt lat="40.3572490" lon="-5.8458170">
        <ele>823.2</ele>
        <time>2021-10-15T13:16:49Z</time>
      </trkpt>
      <trkpt lat="40.3572510" lon="-5.8458300">
        <ele>823.2</ele>
        <time>2021-10-15T13:16:50Z</time>
      </trkpt>
      <trkpt lat="40.3572550" lon="-5.8458440">
        <ele>823.4</ele>
        <time>2021-10-15T13:16:51Z</time>
      </trkpt>
      <trkpt lat="40.3572580" lon="-5.8458640">
        <ele>823.6</ele>
        <time>2021-10-15T13:16:52Z</time>
      </trkpt>
      <trkpt lat="40.3572610" lon="-5.8458760">
        <ele>823.6</ele>
        <time>2021-10-15T13:16:53Z</time>
      </trkpt>
      <trkpt lat="40.3572670" lon="-5.8459260">
        <ele>824.2</ele>
        <time>2021-10-15T13:16:57Z</time>
      </trkpt>
      <trkpt lat="40.3572620" lon="-5.8459560">
        <ele>824.4</ele>
        <time>2021-10-15T13:16:59Z</time>
      </trkpt>
      <trkpt lat="40.3572590" lon="-5.8459740">
        <ele>824.6</ele>
        <time>2021-10-15T13:17:00Z</time>
      </trkpt>
      <trkpt lat="40.3572580" lon="-5.8459910">
        <ele>824.8</ele>
        <time>2021-10-15T13:17:01Z</time>
      </trkpt>
      <trkpt lat="40.3572590" lon="-5.8460240">
        <ele>825.2</ele>
        <time>2021-10-15T13:17:04Z</time>
      </trkpt>
      <trkpt lat="40.3572550" lon="-5.8460400">
        <ele>825.4</ele>
        <time>2021-10-15T13:17:05Z</time>
      </trkpt>
      <trkpt lat="40.3572460" lon="-5.8461090">
        <ele>825.8</ele>
        <time>2021-10-15T13:17:09Z</time>
      </trkpt>
      <trkpt lat="40.3572340" lon="-5.8461550">
        <ele>826.4</ele>
        <time>2021-10-15T13:17:12Z</time>
      </trkpt>
      <trkpt lat="40.3572230" lon="-5.8462170">
        <ele>826.8</ele>
        <time>2021-10-15T13:17:17Z</time>
      </trkpt>
      <trkpt lat="40.3572190" lon="-5.8462310">
        <ele>827.0</ele>
        <time>2021-10-15T13:17:18Z</time>
      </trkpt>
      <trkpt lat="40.3572170" lon="-5.8462450">
        <ele>827.0</ele>
        <time>2021-10-15T13:17:19Z</time>
      </trkpt>
      <trkpt lat="40.3572150" lon="-5.8462720">
        <ele>827.2</ele>
        <time>2021-10-15T13:17:21Z</time>
      </trkpt>
      <trkpt lat="40.3572110" lon="-5.8462870">
        <ele>827.2</ele>
        <time>2021-10-15T13:17:22Z</time>
      </trkpt>
      <trkpt lat="40.3572040" lon="-5.8462990">
        <ele>827.4</ele>
        <time>2021-10-15T13:17:23Z</time>
      </trkpt>
      <trkpt lat="40.3571900" lon="-5.8463250">
        <ele>827.8</ele>
        <time>2021-10-15T13:17:25Z</time>
      </trkpt>
      <trkpt lat="40.3571720" lon="-5.8463540">
        <ele>828.0</ele>
        <time>2021-10-15T13:17:27Z</time>
      </trkpt>
      <trkpt lat="40.3571640" lon="-5.8463690">
        <ele>828.2</ele>
        <time>2021-10-15T13:17:28Z</time>
      </trkpt>
      <trkpt lat="40.3571400" lon="-5.8463930">
        <ele>828.4</ele>
        <time>2021-10-15T13:17:30Z</time>
      </trkpt>
      <trkpt lat="40.3571050" lon="-5.8464540">
        <ele>828.8</ele>
        <time>2021-10-15T13:17:34Z</time>
      </trkpt>
      <trkpt lat="40.3571000" lon="-5.8464700">
        <ele>828.8</ele>
        <time>2021-10-15T13:17:35Z</time>
      </trkpt>
      <trkpt lat="40.3570600" lon="-5.8465080">
        <ele>829.2</ele>
        <time>2021-10-15T13:17:39Z</time>
      </trkpt>
      <trkpt lat="40.3570490" lon="-5.8465210">
        <ele>829.2</ele>
        <time>2021-10-15T13:17:40Z</time>
      </trkpt>
      <trkpt lat="40.3570400" lon="-5.8465330">
        <ele>829.4</ele>
        <time>2021-10-15T13:17:41Z</time>
      </trkpt>
      <trkpt lat="40.3570340" lon="-5.8465450">
        <ele>829.6</ele>
        <time>2021-10-15T13:17:42Z</time>
      </trkpt>
      <trkpt lat="40.3569940" lon="-5.8465950">
        <ele>829.8</ele>
        <time>2021-10-15T13:17:46Z</time>
      </trkpt>
      <trkpt lat="40.3569780" lon="-5.8466190">
        <ele>830.0</ele>
        <time>2021-10-15T13:17:48Z</time>
      </trkpt>
      <trkpt lat="40.3569720" lon="-5.8466310">
        <ele>830.2</ele>
        <time>2021-10-15T13:17:49Z</time>
      </trkpt>
      <trkpt lat="40.3569410" lon="-5.8466990">
        <ele>830.4</ele>
        <time>2021-10-15T13:17:54Z</time>
      </trkpt>
      <trkpt lat="40.3569310" lon="-5.8467540">
        <ele>830.8</ele>
        <time>2021-10-15T13:17:57Z</time>
      </trkpt>
      <trkpt lat="40.3568690" lon="-5.8469170">
        <ele>831.4</ele>
        <time>2021-10-15T13:18:06Z</time>
      </trkpt>
      <trkpt lat="40.3568410" lon="-5.8469690">
        <ele>831.6</ele>
        <time>2021-10-15T13:18:08Z</time>
      </trkpt>
      <trkpt lat="40.3568210" lon="-5.8470160">
        <ele>831.8</ele>
        <time>2021-10-15T13:18:10Z</time>
      </trkpt>
      <trkpt lat="40.3568120" lon="-5.8470430">
        <ele>832.0</ele>
        <time>2021-10-15T13:18:12Z</time>
      </trkpt>
      <trkpt lat="40.3568140" lon="-5.8470620">
        <ele>832.2</ele>
        <time>2021-10-15T13:18:13Z</time>
      </trkpt>
      <trkpt lat="40.3568220" lon="-5.8470840">
        <ele>832.2</ele>
        <time>2021-10-15T13:18:14Z</time>
      </trkpt>
      <trkpt lat="40.3568070" lon="-5.8471090">
        <ele>832.4</ele>
        <time>2021-10-15T13:18:16Z</time>
      </trkpt>
      <trkpt lat="40.3567990" lon="-5.8471270">
        <ele>832.6</ele>
        <time>2021-10-15T13:18:17Z</time>
      </trkpt>
      <trkpt lat="40.3567770" lon="-5.8471800">
        <ele>832.8</ele>
        <time>2021-10-15T13:18:19Z</time>
      </trkpt>
      <trkpt lat="40.3567830" lon="-5.8471820">
        <ele>832.8</ele>
        <time>2021-10-15T13:18:21Z</time>
      </trkpt>
      <trkpt lat="40.3567390" lon="-5.8472460">
        <ele>833.4</ele>
        <time>2021-10-15T13:18:24Z</time>
      </trkpt>
      <trkpt lat="40.3567230" lon="-5.8472750">
        <ele>833.6</ele>
        <time>2021-10-15T13:18:25Z</time>
      </trkpt>
      <trkpt lat="40.3567130" lon="-5.8473130">
        <ele>834.2</ele>
        <time>2021-10-15T13:18:28Z</time>
      </trkpt>
      <trkpt lat="40.3567040" lon="-5.8473350">
        <ele>834.4</ele>
        <time>2021-10-15T13:18:30Z</time>
      </trkpt>
      <trkpt lat="40.3567030" lon="-5.8473490">
        <ele>834.6</ele>
        <time>2021-10-15T13:18:31Z</time>
      </trkpt>
      <trkpt lat="40.3567010" lon="-5.8473610">
        <ele>834.4</ele>
        <time>2021-10-15T13:18:32Z</time>
      </trkpt>
      <trkpt lat="40.3566760" lon="-5.8474220">
        <ele>834.8</ele>
        <time>2021-10-15T13:18:36Z</time>
      </trkpt>
      <trkpt lat="40.3566690" lon="-5.8474380">
        <ele>835.0</ele>
        <time>2021-10-15T13:18:37Z</time>
      </trkpt>
      <trkpt lat="40.3566630" lon="-5.8474550">
        <ele>835.0</ele>
        <time>2021-10-15T13:18:38Z</time>
      </trkpt>
      <trkpt lat="40.3566500" lon="-5.8474910">
        <ele>835.2</ele>
        <time>2021-10-15T13:18:40Z</time>
      </trkpt>
      <trkpt lat="40.3566420" lon="-5.8475310">
        <ele>835.6</ele>
        <time>2021-10-15T13:18:42Z</time>
      </trkpt>
      <trkpt lat="40.3566120" lon="-5.8476030">
        <ele>835.8</ele>
        <time>2021-10-15T13:18:46Z</time>
      </trkpt>
      <trkpt lat="40.3566000" lon="-5.8476530">
        <ele>836.2</ele>
        <time>2021-10-15T13:18:48Z</time>
      </trkpt>
      <trkpt lat="40.3565820" lon="-5.8477190">
        <ele>836.4</ele>
        <time>2021-10-15T13:18:51Z</time>
      </trkpt>
      <trkpt lat="40.3565690" lon="-5.8477940">
        <ele>836.6</ele>
        <time>2021-10-15T13:18:54Z</time>
      </trkpt>
      <trkpt lat="40.3565560" lon="-5.8478230">
        <ele>836.8</ele>
        <time>2021-10-15T13:18:55Z</time>
      </trkpt>
      <trkpt lat="40.3565330" lon="-5.8478720">
        <ele>836.8</ele>
        <time>2021-10-15T13:18:57Z</time>
      </trkpt>
      <trkpt lat="40.3565210" lon="-5.8479120">
        <ele>837.0</ele>
        <time>2021-10-15T13:18:59Z</time>
      </trkpt>
      <trkpt lat="40.3565190" lon="-5.8479390">
        <ele>837.2</ele>
        <time>2021-10-15T13:19:01Z</time>
      </trkpt>
      <trkpt lat="40.3565180" lon="-5.8479600">
        <ele>837.2</ele>
        <time>2021-10-15T13:19:02Z</time>
      </trkpt>
      <trkpt lat="40.3564980" lon="-5.8480130">
        <ele>837.2</ele>
        <time>2021-10-15T13:19:04Z</time>
      </trkpt>
      <trkpt lat="40.3564630" lon="-5.8481630">
        <ele>837.4</ele>
        <time>2021-10-15T13:19:11Z</time>
      </trkpt>
      <trkpt lat="40.3564550" lon="-5.8481860">
        <ele>837.4</ele>
        <time>2021-10-15T13:19:12Z</time>
      </trkpt>
      <trkpt lat="40.3564050" lon="-5.8483620">
        <ele>837.4</ele>
        <time>2021-10-15T13:19:19Z</time>
      </trkpt>
      <trkpt lat="40.3563710" lon="-5.8484900">
        <ele>837.2</ele>
        <time>2021-10-15T13:19:24Z</time>
      </trkpt>
      <trkpt lat="40.3563680" lon="-5.8485060">
        <ele>837.2</ele>
        <time>2021-10-15T13:19:25Z</time>
      </trkpt>
      <trkpt lat="40.3563390" lon="-5.8485980">
        <ele>837.2</ele>
        <time>2021-10-15T13:19:29Z</time>
      </trkpt>
      <trkpt lat="40.3563220" lon="-5.8486880">
        <ele>837.2</ele>
        <time>2021-10-15T13:19:32Z</time>
      </trkpt>
      <trkpt lat="40.3562950" lon="-5.8487590">
        <ele>837.2</ele>
        <time>2021-10-15T13:19:35Z</time>
      </trkpt>
      <trkpt lat="40.3562370" lon="-5.8488680">
        <ele>837.2</ele>
        <time>2021-10-15T13:19:39Z</time>
      </trkpt>
      <trkpt lat="40.3561500" lon="-5.8490130">
        <ele>837.4</ele>
        <time>2021-10-15T13:19:45Z</time>
      </trkpt>
      <trkpt lat="40.3561080" lon="-5.8490830">
        <ele>837.6</ele>
        <time>2021-10-15T13:19:48Z</time>
      </trkpt>
      <trkpt lat="40.3560790" lon="-5.8491200">
        <ele>837.8</ele>
        <time>2021-10-15T13:19:50Z</time>
      </trkpt>
      <trkpt lat="40.3560140" lon="-5.8492300">
        <ele>838.2</ele>
        <time>2021-10-15T13:19:55Z</time>
      </trkpt>
      <trkpt lat="40.3559720" lon="-5.8492810">
        <ele>838.8</ele>
        <time>2021-10-15T13:19:58Z</time>
      </trkpt>
      <trkpt lat="40.3559230" lon="-5.8493210">
        <ele>839.0</ele>
        <time>2021-10-15T13:20:01Z</time>
      </trkpt>
      <trkpt lat="40.3558940" lon="-5.8493410">
        <ele>839.4</ele>
        <time>2021-10-15T13:20:03Z</time>
      </trkpt>
      <trkpt lat="40.3558600" lon="-5.8493640">
        <ele>839.8</ele>
        <time>2021-10-15T13:20:05Z</time>
      </trkpt>
      <trkpt lat="40.3557600" lon="-5.8494050">
        <ele>840.6</ele>
        <time>2021-10-15T13:20:11Z</time>
      </trkpt>
      <trkpt lat="40.3557210" lon="-5.8494290">
        <ele>840.8</ele>
        <time>2021-10-15T13:20:14Z</time>
      </trkpt>
      <trkpt lat="40.3556640" lon="-5.8494600">
        <ele>841.2</ele>
        <time>2021-10-15T13:20:18Z</time>
      </trkpt>
      <trkpt lat="40.3556190" lon="-5.8494750">
        <ele>841.8</ele>
        <time>2021-10-15T13:20:21Z</time>
      </trkpt>
      <trkpt lat="40.3555530" lon="-5.8495080">
        <ele>842.6</ele>
        <time>2021-10-15T13:20:25Z</time>
      </trkpt>
      <trkpt lat="40.3555190" lon="-5.8495220">
        <ele>842.8</ele>
        <time>2021-10-15T13:20:27Z</time>
      </trkpt>
      <trkpt lat="40.3555020" lon="-5.8495260">
        <ele>842.8</ele>
        <time>2021-10-15T13:20:28Z</time>
      </trkpt>
      <trkpt lat="40.3554050" lon="-5.8495440">
        <ele>843.4</ele>
        <time>2021-10-15T13:20:34Z</time>
      </trkpt>
      <trkpt lat="40.3553690" lon="-5.8495460">
        <ele>843.6</ele>
        <time>2021-10-15T13:20:36Z</time>
      </trkpt>
      <trkpt lat="40.3553360" lon="-5.8495560">
        <ele>844.0</ele>
        <time>2021-10-15T13:20:38Z</time>
      </trkpt>
      <trkpt lat="40.3552670" lon="-5.8495720">
        <ele>844.2</ele>
        <time>2021-10-15T13:20:42Z</time>
      </trkpt>
      <trkpt lat="40.3552010" lon="-5.8495830">
        <ele>844.6</ele>
        <time>2021-10-15T13:20:46Z</time>
      </trkpt>
      <trkpt lat="40.3551490" lon="-5.8495900">
        <ele>845.0</ele>
        <time>2021-10-15T13:20:49Z</time>
      </trkpt>
      <trkpt lat="40.3551150" lon="-5.8495900">
        <ele>845.2</ele>
        <time>2021-10-15T13:20:51Z</time>
      </trkpt>
      <trkpt lat="40.3550390" lon="-5.8495920">
        <ele>845.4</ele>
        <time>2021-10-15T13:20:55Z</time>
      </trkpt>
      <trkpt lat="40.3549310" lon="-5.8495910">
        <ele>845.8</ele>
        <time>2021-10-15T13:21:01Z</time>
      </trkpt>
      <trkpt lat="40.3548740" lon="-5.8495790">
        <ele>846.0</ele>
        <time>2021-10-15T13:21:04Z</time>
      </trkpt>
      <trkpt lat="40.3547940" lon="-5.8495710">
        <ele>846.4</ele>
        <time>2021-10-15T13:21:09Z</time>
      </trkpt>
      <trkpt lat="40.3547020" lon="-5.8495590">
        <ele>847.0</ele>
        <time>2021-10-15T13:21:15Z</time>
      </trkpt>
      <trkpt lat="40.3546690" lon="-5.8495530">
        <ele>847.4</ele>
        <time>2021-10-15T13:21:17Z</time>
      </trkpt>
      <trkpt lat="40.3545200" lon="-5.8495330">
        <ele>848.2</ele>
        <time>2021-10-15T13:21:27Z</time>
      </trkpt>
      <trkpt lat="40.3544310" lon="-5.8495320">
        <ele>848.8</ele>
        <time>2021-10-15T13:21:33Z</time>
      </trkpt>
      <trkpt lat="40.3543870" lon="-5.8495520">
        <ele>849.2</ele>
        <time>2021-10-15T13:21:36Z</time>
      </trkpt>
      <trkpt lat="40.3543600" lon="-5.8495560">
        <ele>849.2</ele>
        <time>2021-10-15T13:21:37Z</time>
      </trkpt>
      <trkpt lat="40.3542780" lon="-5.8496050">
        <ele>850.2</ele>
        <time>2021-10-15T13:21:43Z</time>
      </trkpt>
      <trkpt lat="40.3542720" lon="-5.8496150">
        <ele>850.2</ele>
        <time>2021-10-15T13:21:44Z</time>
      </trkpt>
      <trkpt lat="40.3542620" lon="-5.8496260">
        <ele>850.4</ele>
        <time>2021-10-15T13:21:45Z</time>
      </trkpt>
      <trkpt lat="40.3541960" lon="-5.8496760">
        <ele>851.0</ele>
        <time>2021-10-15T13:21:50Z</time>
      </trkpt>
      <trkpt lat="40.3541830" lon="-5.8496900">
        <ele>851.2</ele>
        <time>2021-10-15T13:21:51Z</time>
      </trkpt>
      <trkpt lat="40.3541730" lon="-5.8497030">
        <ele>851.4</ele>
        <time>2021-10-15T13:21:52Z</time>
      </trkpt>
      <trkpt lat="40.3541430" lon="-5.8497280">
        <ele>851.8</ele>
        <time>2021-10-15T13:21:55Z</time>
      </trkpt>
      <trkpt lat="40.3541100" lon="-5.8497600">
        <ele>852.4</ele>
        <time>2021-10-15T13:21:58Z</time>
      </trkpt>
      <trkpt lat="40.3540660" lon="-5.8497760">
        <ele>852.6</ele>
        <time>2021-10-15T13:22:01Z</time>
      </trkpt>
      <trkpt lat="40.3540510" lon="-5.8497970">
        <ele>853.2</ele>
        <time>2021-10-15T13:22:03Z</time>
      </trkpt>
      <trkpt lat="40.3540360" lon="-5.8498220">
        <ele>853.6</ele>
        <time>2021-10-15T13:22:05Z</time>
      </trkpt>
      <trkpt lat="40.3539880" lon="-5.8498630">
        <ele>854.2</ele>
        <time>2021-10-15T13:22:09Z</time>
      </trkpt>
      <trkpt lat="40.3539460" lon="-5.8498880">
        <ele>854.6</ele>
        <time>2021-10-15T13:22:12Z</time>
      </trkpt>
      <trkpt lat="40.3539150" lon="-5.8498940">
        <ele>854.8</ele>
        <time>2021-10-15T13:22:15Z</time>
      </trkpt>
      <trkpt lat="40.3538710" lon="-5.8499060">
        <ele>855.4</ele>
        <time>2021-10-15T13:22:18Z</time>
      </trkpt>
      <trkpt lat="40.3538410" lon="-5.8499040">
        <ele>855.8</ele>
        <time>2021-10-15T13:22:20Z</time>
      </trkpt>
      <trkpt lat="40.3538280" lon="-5.8499070">
        <ele>855.8</ele>
        <time>2021-10-15T13:22:21Z</time>
      </trkpt>
      <trkpt lat="40.3537950" lon="-5.8499100">
        <ele>856.0</ele>
        <time>2021-10-15T13:22:23Z</time>
      </trkpt>
      <trkpt lat="40.3537530" lon="-5.8498850">
        <ele>856.4</ele>
        <time>2021-10-15T13:22:26Z</time>
      </trkpt>
      <trkpt lat="40.3536730" lon="-5.8498630">
        <ele>856.8</ele>
        <time>2021-10-15T13:22:31Z</time>
      </trkpt>
      <trkpt lat="40.3536460" lon="-5.8498630">
        <ele>856.8</ele>
        <time>2021-10-15T13:22:33Z</time>
      </trkpt>
      <trkpt lat="40.3535880" lon="-5.8498540">
        <ele>856.8</ele>
        <time>2021-10-15T13:22:37Z</time>
      </trkpt>
      <trkpt lat="40.3535060" lon="-5.8498560">
        <ele>857.2</ele>
        <time>2021-10-15T13:22:41Z</time>
      </trkpt>
      <trkpt lat="40.3534720" lon="-5.8498520">
        <ele>857.4</ele>
        <time>2021-10-15T13:22:43Z</time>
      </trkpt>
      <trkpt lat="40.3534280" lon="-5.8498350">
        <ele>857.4</ele>
        <time>2021-10-15T13:22:45Z</time>
      </trkpt>
      <trkpt lat="40.3533820" lon="-5.8498160">
        <ele>857.6</ele>
        <time>2021-10-15T13:22:47Z</time>
      </trkpt>
      <trkpt lat="40.3533540" lon="-5.8497990">
        <ele>857.6</ele>
        <time>2021-10-15T13:22:50Z</time>
      </trkpt>
      <trkpt lat="40.3533380" lon="-5.8497920">
        <ele>857.8</ele>
        <time>2021-10-15T13:22:51Z</time>
      </trkpt>
      <trkpt lat="40.3533120" lon="-5.8497840">
        <ele>857.8</ele>
        <time>2021-10-15T13:22:53Z</time>
      </trkpt>
      <trkpt lat="40.3532920" lon="-5.8497850">
        <ele>857.8</ele>
        <time>2021-10-15T13:22:55Z</time>
      </trkpt>
      <trkpt lat="40.3532700" lon="-5.8497800">
        <ele>858.0</ele>
        <time>2021-10-15T13:22:57Z</time>
      </trkpt>
      <trkpt lat="40.3532550" lon="-5.8497770">
        <ele>858.2</ele>
        <time>2021-10-15T13:22:58Z</time>
      </trkpt>
      <trkpt lat="40.3532410" lon="-5.8497780">
        <ele>858.2</ele>
        <time>2021-10-15T13:22:59Z</time>
      </trkpt>
      <trkpt lat="40.3531350" lon="-5.8497550">
        <ele>858.8</ele>
        <time>2021-10-15T13:23:07Z</time>
      </trkpt>
      <trkpt lat="40.3530300" lon="-5.8497260">
        <ele>859.4</ele>
        <time>2021-10-15T13:23:13Z</time>
      </trkpt>
      <trkpt lat="40.3529720" lon="-5.8497040">
        <ele>859.8</ele>
        <time>2021-10-15T13:23:16Z</time>
      </trkpt>
      <trkpt lat="40.3529300" lon="-5.8496980">
        <ele>860.2</ele>
        <time>2021-10-15T13:23:18Z</time>
      </trkpt>
      <trkpt lat="40.3527990" lon="-5.8496780">
        <ele>860.6</ele>
        <time>2021-10-15T13:23:25Z</time>
      </trkpt>
      <trkpt lat="40.3527120" lon="-5.8496620">
        <ele>860.8</ele>
        <time>2021-10-15T13:23:29Z</time>
      </trkpt>
      <trkpt lat="40.3526040" lon="-5.8496370">
        <ele>861.2</ele>
        <time>2021-10-15T13:23:34Z</time>
      </trkpt>
      <trkpt lat="40.3525070" lon="-5.8495940">
        <ele>861.4</ele>
        <time>2021-10-15T13:23:39Z</time>
      </trkpt>
      <trkpt lat="40.3524340" lon="-5.8495630">
        <ele>861.8</ele>
        <time>2021-10-15T13:23:43Z</time>
      </trkpt>
      <trkpt lat="40.3524180" lon="-5.8495560">
        <ele>861.8</ele>
        <time>2021-10-15T13:23:44Z</time>
      </trkpt>
      <trkpt lat="40.3523830" lon="-5.8495340">
        <ele>862.0</ele>
        <time>2021-10-15T13:23:46Z</time>
      </trkpt>
      <trkpt lat="40.3523220" lon="-5.8495030">
        <ele>862.2</ele>
        <time>2021-10-15T13:23:49Z</time>
      </trkpt>
      <trkpt lat="40.3522830" lon="-5.8494840">
        <ele>862.4</ele>
        <time>2021-10-15T13:23:51Z</time>
      </trkpt>
      <trkpt lat="40.3522440" lon="-5.8494660">
        <ele>862.6</ele>
        <time>2021-10-15T13:23:53Z</time>
      </trkpt>
      <trkpt lat="40.3522140" lon="-5.8494510">
        <ele>862.6</ele>
        <time>2021-10-15T13:23:55Z</time>
      </trkpt>
      <trkpt lat="40.3521320" lon="-5.8494070">
        <ele>862.8</ele>
        <time>2021-10-15T13:23:59Z</time>
      </trkpt>
      <trkpt lat="40.3520660" lon="-5.8493730">
        <ele>863.0</ele>
        <time>2021-10-15T13:24:02Z</time>
      </trkpt>
      <trkpt lat="40.3520220" lon="-5.8493540">
        <ele>863.0</ele>
        <time>2021-10-15T13:24:04Z</time>
      </trkpt>
      <trkpt lat="40.3519330" lon="-5.8493140">
        <ele>863.2</ele>
        <time>2021-10-15T13:24:08Z</time>
      </trkpt>
      <trkpt lat="40.3517860" lon="-5.8492040">
        <ele>863.6</ele>
        <time>2021-10-15T13:24:16Z</time>
      </trkpt>
      <trkpt lat="40.3517530" lon="-5.8491760">
        <ele>864.0</ele>
        <time>2021-10-15T13:24:18Z</time>
      </trkpt>
      <trkpt lat="40.3517050" lon="-5.8491340">
        <ele>864.0</ele>
        <time>2021-10-15T13:24:21Z</time>
      </trkpt>
      <trkpt lat="40.3516260" lon="-5.8490670">
        <ele>864.4</ele>
        <time>2021-10-15T13:24:26Z</time>
      </trkpt>
      <trkpt lat="40.3515670" lon="-5.8489910">
        <ele>865.0</ele>
        <time>2021-10-15T13:24:31Z</time>
      </trkpt>
      <trkpt lat="40.3515440" lon="-5.8489650">
        <ele>865.2</ele>
        <time>2021-10-15T13:24:33Z</time>
      </trkpt>
      <trkpt lat="40.3515290" lon="-5.8489490">
        <ele>865.4</ele>
        <time>2021-10-15T13:24:34Z</time>
      </trkpt>
      <trkpt lat="40.3514550" lon="-5.8488510">
        <ele>866.4</ele>
        <time>2021-10-15T13:24:40Z</time>
      </trkpt>
      <trkpt lat="40.3514360" lon="-5.8488160">
        <ele>866.6</ele>
        <time>2021-10-15T13:24:42Z</time>
      </trkpt>
      <trkpt lat="40.3513480" lon="-5.8486840">
        <ele>867.4</ele>
        <time>2021-10-15T13:24:49Z</time>
      </trkpt>
      <trkpt lat="40.3513300" lon="-5.8486620">
        <ele>867.4</ele>
        <time>2021-10-15T13:24:50Z</time>
      </trkpt>
      <trkpt lat="40.3513200" lon="-5.8486420">
        <ele>867.4</ele>
        <time>2021-10-15T13:24:51Z</time>
      </trkpt>
      <trkpt lat="40.3512850" lon="-5.8485350">
        <ele>868.4</ele>
        <time>2021-10-15T13:24:57Z</time>
      </trkpt>
      <trkpt lat="40.3512850" lon="-5.8485350">
        <ele>868.6</ele>
        <time>2021-10-15T13:24:59Z</time>
      </trkpt>
      <trkpt lat="40.3512850" lon="-5.8485350">
        <ele>868.8</ele>
        <time>2021-10-15T13:25:01Z</time>
      </trkpt>
      <trkpt lat="40.3512870" lon="-5.8485330">
        <ele>869.0</ele>
        <time>2021-10-15T13:25:03Z</time>
      </trkpt>
      <trkpt lat="40.3512620" lon="-5.8484860">
        <ele>869.2</ele>
        <time>2021-10-15T13:25:08Z</time>
      </trkpt>
      <trkpt lat="40.3507250" lon="-5.8476670">
        <ele>876.2</ele>
        <time>2021-10-15T13:28:19Z</time>
      </trkpt>
      <trkpt lat="40.3507070" lon="-5.8476590">
        <ele>876.2</ele>
        <time>2021-10-15T13:28:20Z</time>
      </trkpt>
      <trkpt lat="40.3506250" lon="-5.8476170">
        <ele>876.6</ele>
        <time>2021-10-15T13:28:26Z</time>
      </trkpt>
      <trkpt lat="40.3505920" lon="-5.8476050">
        <ele>876.8</ele>
        <time>2021-10-15T13:28:28Z</time>
      </trkpt>
      <trkpt lat="40.3505540" lon="-5.8475800">
        <ele>876.8</ele>
        <time>2021-10-15T13:28:31Z</time>
      </trkpt>
      <trkpt lat="40.3505160" lon="-5.8475680">
        <ele>876.8</ele>
        <time>2021-10-15T13:28:33Z</time>
      </trkpt>
      <trkpt lat="40.3504940" lon="-5.8475550">
        <ele>877.0</ele>
        <time>2021-10-15T13:28:35Z</time>
      </trkpt>
      <trkpt lat="40.3504270" lon="-5.8475320">
        <ele>877.4</ele>
        <time>2021-10-15T13:28:39Z</time>
      </trkpt>
      <trkpt lat="40.3503560" lon="-5.8475120">
        <ele>877.4</ele>
        <time>2021-10-15T13:28:43Z</time>
      </trkpt>
      <trkpt lat="40.3502650" lon="-5.8474820">
        <ele>877.8</ele>
        <time>2021-10-15T13:28:47Z</time>
      </trkpt>
      <trkpt lat="40.3502040" lon="-5.8474400">
        <ele>878.0</ele>
        <time>2021-10-15T13:28:50Z</time>
      </trkpt>
      <trkpt lat="40.3501720" lon="-5.8474160">
        <ele>878.2</ele>
        <time>2021-10-15T13:28:52Z</time>
      </trkpt>
      <trkpt lat="40.3501420" lon="-5.8474090">
        <ele>878.4</ele>
        <time>2021-10-15T13:28:54Z</time>
      </trkpt>
      <trkpt lat="40.3500810" lon="-5.8473740">
        <ele>878.6</ele>
        <time>2021-10-15T13:28:58Z</time>
      </trkpt>
      <trkpt lat="40.3500370" lon="-5.8473660">
        <ele>878.8</ele>
        <time>2021-10-15T13:29:01Z</time>
      </trkpt>
      <trkpt lat="40.3499800" lon="-5.8473490">
        <ele>879.4</ele>
        <time>2021-10-15T13:29:05Z</time>
      </trkpt>
      <trkpt lat="40.3499590" lon="-5.8473290">
        <ele>879.6</ele>
        <time>2021-10-15T13:29:07Z</time>
      </trkpt>
      <trkpt lat="40.3499500" lon="-5.8473250">
        <ele>879.8</ele>
        <time>2021-10-15T13:29:08Z</time>
      </trkpt>
      <trkpt lat="40.3499410" lon="-5.8473240">
        <ele>880.0</ele>
        <time>2021-10-15T13:29:09Z</time>
      </trkpt>
      <trkpt lat="40.3499190" lon="-5.8473440">
        <ele>880.0</ele>
        <time>2021-10-15T13:29:11Z</time>
      </trkpt>
      <trkpt lat="40.3499020" lon="-5.8473620">
        <ele>880.2</ele>
        <time>2021-10-15T13:29:13Z</time>
      </trkpt>
      <trkpt lat="40.3498960" lon="-5.8473660">
        <ele>880.2</ele>
        <time>2021-10-15T13:29:14Z</time>
      </trkpt>
      <trkpt lat="40.3498960" lon="-5.8473660">
        <ele>880.2</ele>
        <time>2021-10-15T13:29:15Z</time>
      </trkpt>
      <trkpt lat="40.3498840" lon="-5.8473100">
        <ele>880.4</ele>
        <time>2021-10-15T13:29:36Z</time>
      </trkpt>
      <trkpt lat="40.3498720" lon="-5.8472770">
        <ele>880.4</ele>
        <time>2021-10-15T13:29:37Z</time>
      </trkpt>
      <trkpt lat="40.3497640" lon="-5.8471690">
        <ele>880.2</ele>
        <time>2021-10-15T13:29:42Z</time>
      </trkpt>
      <trkpt lat="40.3496820" lon="-5.8471210">
        <ele>880.2</ele>
        <time>2021-10-15T13:29:47Z</time>
      </trkpt>
      <trkpt lat="40.3496560" lon="-5.8471020">
        <ele>880.4</ele>
        <time>2021-10-15T13:29:49Z</time>
      </trkpt>
      <trkpt lat="40.3496190" lon="-5.8470680">
        <ele>880.4</ele>
        <time>2021-10-15T13:29:52Z</time>
      </trkpt>
      <trkpt lat="40.3495890" lon="-5.8470350">
        <ele>880.6</ele>
        <time>2021-10-15T13:29:56Z</time>
      </trkpt>
      <trkpt lat="40.3495780" lon="-5.8470270">
        <ele>880.6</ele>
        <time>2021-10-15T13:29:58Z</time>
      </trkpt>
      <trkpt lat="40.3493140" lon="-5.8468940">
        <ele>881.8</ele>
        <time>2021-10-15T13:37:32Z</time>
      </trkpt>
      <trkpt lat="40.3492920" lon="-5.8468870">
        <ele>881.8</ele>
        <time>2021-10-15T13:37:33Z</time>
      </trkpt>
      <trkpt lat="40.3491440" lon="-5.8468190">
        <ele>881.8</ele>
        <time>2021-10-15T13:37:40Z</time>
      </trkpt>
      <trkpt lat="40.3490170" lon="-5.8467890">
        <ele>881.8</ele>
        <time>2021-10-15T13:37:45Z</time>
      </trkpt>
      <trkpt lat="40.3488900" lon="-5.8467490">
        <ele>882.0</ele>
        <time>2021-10-15T13:37:50Z</time>
      </trkpt>
      <trkpt lat="40.3487820" lon="-5.8467300">
        <ele>882.0</ele>
        <time>2021-10-15T13:37:55Z</time>
      </trkpt>
      <trkpt lat="40.3485730" lon="-5.8467070">
        <ele>882.2</ele>
        <time>2021-10-15T13:38:02Z</time>
      </trkpt>
      <trkpt lat="40.3484110" lon="-5.8466950">
        <ele>882.2</ele>
        <time>2021-10-15T13:38:08Z</time>
      </trkpt>
      <trkpt lat="40.3483180" lon="-5.8466870">
        <ele>882.2</ele>
        <time>2021-10-15T13:38:11Z</time>
      </trkpt>
      <trkpt lat="40.3481900" lon="-5.8466830">
        <ele>882.2</ele>
        <time>2021-10-15T13:38:15Z</time>
      </trkpt>
      <trkpt lat="40.3479920" lon="-5.8466970">
        <ele>882.4</ele>
        <time>2021-10-15T13:38:22Z</time>
      </trkpt>
      <trkpt lat="40.3479660" lon="-5.8467000">
        <ele>882.4</ele>
        <time>2021-10-15T13:38:23Z</time>
      </trkpt>
      <trkpt lat="40.3478270" lon="-5.8467300">
        <ele>882.6</ele>
        <time>2021-10-15T13:38:28Z</time>
      </trkpt>
      <trkpt lat="40.3477380" lon="-5.8467550">
        <ele>882.6</ele>
        <time>2021-10-15T13:38:31Z</time>
      </trkpt>
      <trkpt lat="40.3475990" lon="-5.8467950">
        <ele>882.8</ele>
        <time>2021-10-15T13:38:36Z</time>
      </trkpt>
      <trkpt lat="40.3475430" lon="-5.8467950">
        <ele>882.8</ele>
        <time>2021-10-15T13:38:38Z</time>
      </trkpt>
      <trkpt lat="40.3473480" lon="-5.8467560">
        <ele>883.0</ele>
        <time>2021-10-15T13:38:45Z</time>
      </trkpt>
      <trkpt lat="40.3472380" lon="-5.8466840">
        <ele>883.2</ele>
        <time>2021-10-15T13:38:50Z</time>
      </trkpt>
      <trkpt lat="40.3470640" lon="-5.8466810">
        <ele>883.4</ele>
        <time>2021-10-15T13:38:56Z</time>
      </trkpt>
      <trkpt lat="40.3468820" lon="-5.8466760">
        <ele>883.4</ele>
        <time>2021-10-15T13:39:03Z</time>
      </trkpt>
      <trkpt lat="40.3467910" lon="-5.8467070">
        <ele>883.6</ele>
        <time>2021-10-15T13:39:08Z</time>
      </trkpt>
      <trkpt lat="40.3467030" lon="-5.8466830">
        <ele>883.8</ele>
        <time>2021-10-15T13:39:11Z</time>
      </trkpt>
      <trkpt lat="40.3466630" lon="-5.8466750">
        <ele>884.0</ele>
        <time>2021-10-15T13:39:14Z</time>
      </trkpt>
      <trkpt lat="40.3466830" lon="-5.8466610">
        <ele>884.2</ele>
        <time>2021-10-15T13:39:19Z</time>
      </trkpt>
      <trkpt lat="40.3466860" lon="-5.8466530">
        <ele>884.2</ele>
        <time>2021-10-15T13:39:20Z</time>
      </trkpt>
      <trkpt lat="40.3466940" lon="-5.8466380">
        <ele>884.2</ele>
        <time>2021-10-15T13:39:21Z</time>
      </trkpt>
      <trkpt lat="40.3467180" lon="-5.8466340">
        <ele>884.2</ele>
        <time>2021-10-15T13:39:24Z</time>
      </trkpt>
      <trkpt lat="40.3467610" lon="-5.8466440">
        <ele>884.2</ele>
        <time>2021-10-15T13:39:26Z</time>
      </trkpt>
      <trkpt lat="40.3468490" lon="-5.8466420">
        <ele>884.0</ele>
        <time>2021-10-15T13:39:31Z</time>
      </trkpt>
      <trkpt lat="40.3468650" lon="-5.8466300">
        <ele>883.8</ele>
        <time>2021-10-15T13:39:35Z</time>
      </trkpt>
      <trkpt lat="40.3467880" lon="-5.8466910">
        <ele>884.2</ele>
        <time>2021-10-15T13:41:53Z</time>
      </trkpt>
      <trkpt lat="40.3467140" lon="-5.8466980">
        <ele>884.2</ele>
        <time>2021-10-15T13:41:57Z</time>
      </trkpt>
      <trkpt lat="40.3466300" lon="-5.8466620">
        <ele>884.2</ele>
        <time>2021-10-15T13:42:01Z</time>
      </trkpt>
      <trkpt lat="40.3465860" lon="-5.8466540">
        <ele>884.4</ele>
        <time>2021-10-15T13:42:04Z</time>
      </trkpt>
      <trkpt lat="40.3465150" lon="-5.8466870">
        <ele>884.6</ele>
        <time>2021-10-15T13:42:09Z</time>
      </trkpt>
      <trkpt lat="40.3463270" lon="-5.8466440">
        <ele>884.8</ele>
        <time>2021-10-15T13:42:17Z</time>
      </trkpt>
      <trkpt lat="40.3462520" lon="-5.8466190">
        <ele>885.0</ele>
        <time>2021-10-15T13:42:21Z</time>
      </trkpt>
      <trkpt lat="40.3462280" lon="-5.8466150">
        <ele>885.0</ele>
        <time>2021-10-15T13:42:22Z</time>
      </trkpt>
      <trkpt lat="40.3462030" lon="-5.8466090">
        <ele>885.0</ele>
        <time>2021-10-15T13:42:23Z</time>
      </trkpt>
      <trkpt lat="40.3460360" lon="-5.8466090">
        <ele>885.2</ele>
        <time>2021-10-15T13:42:30Z</time>
      </trkpt>
      <trkpt lat="40.3458910" lon="-5.8466130">
        <ele>885.6</ele>
        <time>2021-10-15T13:42:37Z</time>
      </trkpt>
      <trkpt lat="40.3457210" lon="-5.8466160">
        <ele>886.0</ele>
        <time>2021-10-15T13:42:44Z</time>
      </trkpt>
      <trkpt lat="40.3456920" lon="-5.8466180">
        <ele>886.0</ele>
        <time>2021-10-15T13:42:45Z</time>
      </trkpt>
      <trkpt lat="40.3455260" lon="-5.8466240">
        <ele>886.2</ele>
        <time>2021-10-15T13:42:51Z</time>
      </trkpt>
      <trkpt lat="40.3453740" lon="-5.8466090">
        <ele>886.6</ele>
        <time>2021-10-15T13:42:57Z</time>
      </trkpt>
      <trkpt lat="40.3452420" lon="-5.8466140">
        <ele>887.0</ele>
        <time>2021-10-15T13:43:03Z</time>
      </trkpt>
      <trkpt lat="40.3452220" lon="-5.8466150">
        <ele>887.0</ele>
        <time>2021-10-15T13:43:04Z</time>
      </trkpt>
      <trkpt lat="40.3450830" lon="-5.8466290">
        <ele>888.2</ele>
        <time>2021-10-15T13:43:11Z</time>
      </trkpt>
      <trkpt lat="40.3450620" lon="-5.8466340">
        <ele>888.2</ele>
        <time>2021-10-15T13:43:12Z</time>
      </trkpt>
      <trkpt lat="40.3448780" lon="-5.8466610">
        <ele>889.2</ele>
        <time>2021-10-15T13:43:21Z</time>
      </trkpt>
      <trkpt lat="40.3448590" lon="-5.8466660">
        <ele>889.4</ele>
        <time>2021-10-15T13:43:22Z</time>
      </trkpt>
      <trkpt lat="40.3447670" lon="-5.8466840">
        <ele>890.2</ele>
        <time>2021-10-15T13:43:27Z</time>
      </trkpt>
      <trkpt lat="40.3447170" lon="-5.8467030">
        <ele>890.6</ele>
        <time>2021-10-15T13:43:30Z</time>
      </trkpt>
      <trkpt lat="40.3447000" lon="-5.8467070">
        <ele>890.8</ele>
        <time>2021-10-15T13:43:31Z</time>
      </trkpt>
      <trkpt lat="40.3446140" lon="-5.8467160">
        <ele>891.0</ele>
        <time>2021-10-15T13:43:35Z</time>
      </trkpt>
      <trkpt lat="40.3445300" lon="-5.8467470">
        <ele>891.2</ele>
        <time>2021-10-15T13:43:39Z</time>
      </trkpt>
      <trkpt lat="40.3444830" lon="-5.8467710">
        <ele>891.2</ele>
        <time>2021-10-15T13:43:41Z</time>
      </trkpt>
      <trkpt lat="40.3444590" lon="-5.8467810">
        <ele>891.2</ele>
        <time>2021-10-15T13:43:42Z</time>
      </trkpt>
      <trkpt lat="40.3443920" lon="-5.8468070">
        <ele>891.4</ele>
        <time>2021-10-15T13:43:45Z</time>
      </trkpt>
      <trkpt lat="40.3443330" lon="-5.8468330">
        <ele>891.2</ele>
        <time>2021-10-15T13:43:48Z</time>
      </trkpt>
      <trkpt lat="40.3442950" lon="-5.8468510">
        <ele>891.2</ele>
        <time>2021-10-15T13:43:50Z</time>
      </trkpt>
      <trkpt lat="40.3442780" lon="-5.8468570">
        <ele>891.2</ele>
        <time>2021-10-15T13:43:51Z</time>
      </trkpt>
      <trkpt lat="40.3441600" lon="-5.8469150">
        <ele>891.4</ele>
        <time>2021-10-15T13:43:57Z</time>
      </trkpt>
      <trkpt lat="40.3441390" lon="-5.8469290">
        <ele>891.4</ele>
        <time>2021-10-15T13:43:58Z</time>
      </trkpt>
      <trkpt lat="40.3440830" lon="-5.8469470">
        <ele>891.4</ele>
        <time>2021-10-15T13:44:01Z</time>
      </trkpt>
      <trkpt lat="40.3440710" lon="-5.8469460">
        <ele>891.4</ele>
        <time>2021-10-15T13:44:03Z</time>
      </trkpt>
      <trkpt lat="40.3440710" lon="-5.8469460">
        <ele>891.4</ele>
        <time>2021-10-15T13:44:04Z</time>
      </trkpt>
      <trkpt lat="40.3440140" lon="-5.8469830">
        <ele>891.4</ele>
        <time>2021-10-15T13:44:11Z</time>
      </trkpt>
      <trkpt lat="40.3439740" lon="-5.8470080">
        <ele>891.2</ele>
        <time>2021-10-15T13:44:13Z</time>
      </trkpt>
      <trkpt lat="40.3438270" lon="-5.8470740">
        <ele>891.2</ele>
        <time>2021-10-15T13:44:19Z</time>
      </trkpt>
      <trkpt lat="40.3437750" lon="-5.8470930">
        <ele>891.2</ele>
        <time>2021-10-15T13:44:21Z</time>
      </trkpt>
      <trkpt lat="40.3436360" lon="-5.8471780">
        <ele>891.4</ele>
        <time>2021-10-15T13:44:27Z</time>
      </trkpt>
      <trkpt lat="40.3435830" lon="-5.8472230">
        <ele>891.4</ele>
        <time>2021-10-15T13:44:29Z</time>
      </trkpt>
      <trkpt lat="40.3434960" lon="-5.8472940">
        <ele>891.8</ele>
        <time>2021-10-15T13:44:33Z</time>
      </trkpt>
      <trkpt lat="40.3434060" lon="-5.8473520">
        <ele>891.8</ele>
        <time>2021-10-15T13:44:37Z</time>
      </trkpt>
      <trkpt lat="40.3432930" lon="-5.8474190">
        <ele>892.2</ele>
        <time>2021-10-15T13:44:42Z</time>
      </trkpt>
      <trkpt lat="40.3432160" lon="-5.8474500">
        <ele>892.4</ele>
        <time>2021-10-15T13:44:45Z</time>
      </trkpt>
      <trkpt lat="40.3430610" lon="-5.8474790">
        <ele>892.8</ele>
        <time>2021-10-15T13:44:52Z</time>
      </trkpt>
      <trkpt lat="40.3430400" lon="-5.8474800">
        <ele>892.8</ele>
        <time>2021-10-15T13:44:53Z</time>
      </trkpt>
      <trkpt lat="40.3430070" lon="-5.8474810">
        <ele>892.8</ele>
        <time>2021-10-15T13:44:55Z</time>
      </trkpt>
      <trkpt lat="40.3429930" lon="-5.8474870">
        <ele>892.8</ele>
        <time>2021-10-15T13:44:56Z</time>
      </trkpt>
      <trkpt lat="40.3429430" lon="-5.8475220">
        <ele>893.0</ele>
        <time>2021-10-15T13:44:59Z</time>
      </trkpt>
      <trkpt lat="40.3428930" lon="-5.8475610">
        <ele>893.2</ele>
        <time>2021-10-15T13:45:02Z</time>
      </trkpt>
      <trkpt lat="40.3428530" lon="-5.8475910">
        <ele>893.4</ele>
        <time>2021-10-15T13:45:04Z</time>
      </trkpt>
      <trkpt lat="40.3426780" lon="-5.8477090">
        <ele>894.0</ele>
        <time>2021-10-15T13:45:12Z</time>
      </trkpt>
      <trkpt lat="40.3425630" lon="-5.8477700">
        <ele>894.2</ele>
        <time>2021-10-15T13:45:17Z</time>
      </trkpt>
      <trkpt lat="40.3425090" lon="-5.8477950">
        <ele>894.2</ele>
        <time>2021-10-15T13:45:19Z</time>
      </trkpt>
      <trkpt lat="40.3423550" lon="-5.8478980">
        <ele>894.4</ele>
        <time>2021-10-15T13:45:25Z</time>
      </trkpt>
      <trkpt lat="40.3422400" lon="-5.8479680">
        <ele>894.6</ele>
        <time>2021-10-15T13:45:29Z</time>
      </trkpt>
      <trkpt lat="40.3421390" lon="-5.8480260">
        <ele>895.0</ele>
        <time>2021-10-15T13:45:33Z</time>
      </trkpt>
      <trkpt lat="40.3420140" lon="-5.8481010">
        <ele>895.2</ele>
        <time>2021-10-15T13:45:37Z</time>
      </trkpt>
      <trkpt lat="40.3419240" lon="-5.8481480">
        <ele>895.2</ele>
        <time>2021-10-15T13:45:40Z</time>
      </trkpt>
      <trkpt lat="40.3418770" lon="-5.8481770">
        <ele>895.4</ele>
        <time>2021-10-15T13:45:42Z</time>
      </trkpt>
      <trkpt lat="40.3418220" lon="-5.8482070">
        <ele>895.4</ele>
        <time>2021-10-15T13:45:44Z</time>
      </trkpt>
      <trkpt lat="40.3416210" lon="-5.8483270">
        <ele>895.8</ele>
        <time>2021-10-15T13:45:51Z</time>
      </trkpt>
      <trkpt lat="40.3414510" lon="-5.8483870">
        <ele>896.2</ele>
        <time>2021-10-15T13:45:57Z</time>
      </trkpt>
      <trkpt lat="40.3414200" lon="-5.8483980">
        <ele>896.2</ele>
        <time>2021-10-15T13:45:58Z</time>
      </trkpt>
      <trkpt lat="40.3413810" lon="-5.8484180">
        <ele>896.4</ele>
        <time>2021-10-15T13:46:00Z</time>
      </trkpt>
      <trkpt lat="40.3412440" lon="-5.8485310">
        <ele>896.6</ele>
        <time>2021-10-15T13:46:06Z</time>
      </trkpt>
      <trkpt lat="40.3409920" lon="-5.8486870">
        <ele>897.2</ele>
        <time>2021-10-15T13:46:15Z</time>
      </trkpt>
      <trkpt lat="40.3409300" lon="-5.8487190">
        <ele>897.4</ele>
        <time>2021-10-15T13:46:17Z</time>
      </trkpt>
      <trkpt lat="40.3408490" lon="-5.8487640">
        <ele>897.4</ele>
        <time>2021-10-15T13:46:20Z</time>
      </trkpt>
      <trkpt lat="40.3407660" lon="-5.8488250">
        <ele>897.6</ele>
        <time>2021-10-15T13:46:23Z</time>
      </trkpt>
      <trkpt lat="40.3406510" lon="-5.8488860">
        <ele>897.6</ele>
        <time>2021-10-15T13:46:27Z</time>
      </trkpt>
      <trkpt lat="40.3405130" lon="-5.8489670">
        <ele>898.0</ele>
        <time>2021-10-15T13:46:32Z</time>
      </trkpt>
      <trkpt lat="40.3404320" lon="-5.8489980">
        <ele>898.0</ele>
        <time>2021-10-15T13:46:35Z</time>
      </trkpt>
      <trkpt lat="40.3404030" lon="-5.8490090">
        <ele>898.2</ele>
        <time>2021-10-15T13:46:36Z</time>
      </trkpt>
      <trkpt lat="40.3402690" lon="-5.8490710">
        <ele>898.4</ele>
        <time>2021-10-15T13:46:41Z</time>
      </trkpt>
      <trkpt lat="40.3401810" lon="-5.8491070">
        <ele>898.4</ele>
        <time>2021-10-15T13:46:44Z</time>
      </trkpt>
      <trkpt lat="40.3400800" lon="-5.8491460">
        <ele>898.6</ele>
        <time>2021-10-15T13:46:47Z</time>
      </trkpt>
      <trkpt lat="40.3399230" lon="-5.8491950">
        <ele>898.8</ele>
        <time>2021-10-15T13:46:52Z</time>
      </trkpt>
      <trkpt lat="40.3397120" lon="-5.8492340">
        <ele>898.8</ele>
        <time>2021-10-15T13:46:59Z</time>
      </trkpt>
      <trkpt lat="40.3395620" lon="-5.8492610">
        <ele>898.8</ele>
        <time>2021-10-15T13:47:04Z</time>
      </trkpt>
      <trkpt lat="40.3395000" lon="-5.8492670">
        <ele>898.8</ele>
        <time>2021-10-15T13:47:06Z</time>
      </trkpt>
      <trkpt lat="40.3393200" lon="-5.8493060">
        <ele>898.6</ele>
        <time>2021-10-15T13:47:11Z</time>
      </trkpt>
      <trkpt lat="40.3391990" lon="-5.8493380">
        <ele>898.4</ele>
        <time>2021-10-15T13:47:14Z</time>
      </trkpt>
      <trkpt lat="40.3390050" lon="-5.8493740">
        <ele>898.0</ele>
        <time>2021-10-15T13:47:19Z</time>
      </trkpt>
      <trkpt lat="40.3389370" lon="-5.8493930">
        <ele>898.0</ele>
        <time>2021-10-15T13:47:21Z</time>
      </trkpt>
      <trkpt lat="40.3386460" lon="-5.8494620">
        <ele>897.4</ele>
        <time>2021-10-15T13:47:28Z</time>
      </trkpt>
      <trkpt lat="40.3385040" lon="-5.8494910">
        <ele>896.8</ele>
        <time>2021-10-15T13:47:31Z</time>
      </trkpt>
      <trkpt lat="40.3382240" lon="-5.8495400">
        <ele>896.2</ele>
        <time>2021-10-15T13:47:36Z</time>
      </trkpt>
      <trkpt lat="40.3380540" lon="-5.8495780">
        <ele>895.2</ele>
        <time>2021-10-15T13:47:39Z</time>
      </trkpt>
      <trkpt lat="40.3377820" lon="-5.8496290">
        <ele>893.8</ele>
        <time>2021-10-15T13:47:43Z</time>
      </trkpt>
      <trkpt lat="40.3375010" lon="-5.8496820">
        <ele>892.8</ele>
        <time>2021-10-15T13:47:47Z</time>
      </trkpt>
      <trkpt lat="40.3372790" lon="-5.8497280">
        <ele>891.8</ele>
        <time>2021-10-15T13:47:50Z</time>
      </trkpt>
      <trkpt lat="40.3372030" lon="-5.8497440">
        <ele>891.8</ele>
        <time>2021-10-15T13:47:51Z</time>
      </trkpt>
      <trkpt lat="40.3368990" lon="-5.8498440">
        <ele>891.0</ele>
        <time>2021-10-15T13:47:55Z</time>
      </trkpt>
      <trkpt lat="40.3368260" lon="-5.8498840">
        <ele>890.6</ele>
        <time>2021-10-15T13:47:56Z</time>
      </trkpt>
      <trkpt lat="40.3366160" lon="-5.8500160">
        <ele>889.6</ele>
        <time>2021-10-15T13:47:59Z</time>
      </trkpt>
      <trkpt lat="40.3363570" lon="-5.8501840">
        <ele>888.4</ele>
        <time>2021-10-15T13:48:02Z</time>
      </trkpt>
      <trkpt lat="40.3361080" lon="-5.8503430">
        <ele>887.0</ele>
        <time>2021-10-15T13:48:05Z</time>
      </trkpt>
      <trkpt lat="40.3358740" lon="-5.8504950">
        <ele>885.6</ele>
        <time>2021-10-15T13:48:08Z</time>
      </trkpt>
      <trkpt lat="40.3357750" lon="-5.8505590">
        <ele>885.4</ele>
        <time>2021-10-15T13:48:09Z</time>
      </trkpt>
      <trkpt lat="40.3356930" lon="-5.8506150">
        <ele>884.6</ele>
        <time>2021-10-15T13:48:10Z</time>
      </trkpt>
      <trkpt lat="40.3354600" lon="-5.8507750">
        <ele>883.2</ele>
        <time>2021-10-15T13:48:13Z</time>
      </trkpt>
      <trkpt lat="40.3351840" lon="-5.8509460">
        <ele>881.8</ele>
        <time>2021-10-15T13:48:16Z</time>
      </trkpt>
      <trkpt lat="40.3350090" lon="-5.8510570">
        <ele>880.6</ele>
        <time>2021-10-15T13:48:18Z</time>
      </trkpt>
      <trkpt lat="40.3349190" lon="-5.8511170">
        <ele>880.2</ele>
        <time>2021-10-15T13:48:19Z</time>
      </trkpt>
      <trkpt lat="40.3347560" lon="-5.8512250">
        <ele>879.2</ele>
        <time>2021-10-15T13:48:21Z</time>
      </trkpt>
      <trkpt lat="40.3345570" lon="-5.8513580">
        <ele>878.0</ele>
        <time>2021-10-15T13:48:23Z</time>
      </trkpt>
      <trkpt lat="40.3343780" lon="-5.8514720">
        <ele>876.8</ele>
        <time>2021-10-15T13:48:25Z</time>
      </trkpt>
      <trkpt lat="40.3343090" lon="-5.8515150">
        <ele>876.4</ele>
        <time>2021-10-15T13:48:26Z</time>
      </trkpt>
      <trkpt lat="40.3341270" lon="-5.8516300">
        <ele>875.8</ele>
        <time>2021-10-15T13:48:28Z</time>
      </trkpt>
      <trkpt lat="40.3339710" lon="-5.8517180">
        <ele>874.4</ele>
        <time>2021-10-15T13:48:30Z</time>
      </trkpt>
      <trkpt lat="40.3339100" lon="-5.8517480">
        <ele>874.2</ele>
        <time>2021-10-15T13:48:31Z</time>
      </trkpt>
      <trkpt lat="40.3338220" lon="-5.8517890">
        <ele>873.4</ele>
        <time>2021-10-15T13:48:32Z</time>
      </trkpt>
      <trkpt lat="40.3336990" lon="-5.8518390">
        <ele>872.0</ele>
        <time>2021-10-15T13:48:34Z</time>
      </trkpt>
      <trkpt lat="40.3336660" lon="-5.8518520">
        <ele>871.6</ele>
        <time>2021-10-15T13:48:35Z</time>
      </trkpt>
      <trkpt lat="40.3336390" lon="-5.8518640">
        <ele>870.6</ele>
        <time>2021-10-15T13:48:36Z</time>
      </trkpt>
      <trkpt lat="40.3336260" lon="-5.8518750">
        <ele>870.4</ele>
        <time>2021-10-15T13:48:37Z</time>
      </trkpt>
      <trkpt lat="40.3336250" lon="-5.8518780">
        <ele>869.8</ele>
        <time>2021-10-15T13:48:38Z</time>
      </trkpt>
      <trkpt lat="40.3336250" lon="-5.8518780">
        <ele>869.2</ele>
        <time>2021-10-15T13:48:39Z</time>
      </trkpt>
      <trkpt lat="40.3335460" lon="-5.8520260">
        <ele>866.0</ele>
        <time>2021-10-15T13:50:00Z</time>
      </trkpt>
      <trkpt lat="40.3335290" lon="-5.8520520">
        <ele>866.0</ele>
        <time>2021-10-15T13:50:01Z</time>
      </trkpt>
      <trkpt lat="40.3335040" lon="-5.8520900">
        <ele>866.0</ele>
        <time>2021-10-15T13:50:02Z</time>
      </trkpt>
      <trkpt lat="40.3334050" lon="-5.8522050">
        <ele>865.8</ele>
        <time>2021-10-15T13:50:06Z</time>
      </trkpt>
      <trkpt lat="40.3333660" lon="-5.8522610">
        <ele>865.4</ele>
        <time>2021-10-15T13:50:08Z</time>
      </trkpt>
      <trkpt lat="40.3333030" lon="-5.8523370">
        <ele>865.0</ele>
        <time>2021-10-15T13:50:11Z</time>
      </trkpt>
      <trkpt lat="40.3332280" lon="-5.8524200">
        <ele>864.2</ele>
        <time>2021-10-15T13:50:14Z</time>
      </trkpt>
      <trkpt lat="40.3332060" lon="-5.8524580">
        <ele>863.8</ele>
        <time>2021-10-15T13:50:15Z</time>
      </trkpt>
      <trkpt lat="40.3330680" lon="-5.8525880">
        <ele>863.0</ele>
        <time>2021-10-15T13:50:19Z</time>
      </trkpt>
      <trkpt lat="40.3330110" lon="-5.8526350">
        <ele>862.6</ele>
        <time>2021-10-15T13:50:20Z</time>
      </trkpt>
      <trkpt lat="40.3328220" lon="-5.8527270">
        <ele>861.8</ele>
        <time>2021-10-15T13:50:24Z</time>
      </trkpt>
      <trkpt lat="40.3327320" lon="-5.8527370">
        <ele>861.4</ele>
        <time>2021-10-15T13:50:26Z</time>
      </trkpt>
      <trkpt lat="40.3326580" lon="-5.8527580">
        <ele>860.8</ele>
        <time>2021-10-15T13:50:29Z</time>
      </trkpt>
      <trkpt lat="40.3325510" lon="-5.8527520">
        <ele>860.4</ele>
        <time>2021-10-15T13:50:32Z</time>
      </trkpt>
      <trkpt lat="40.3324500" lon="-5.8527710">
        <ele>860.0</ele>
        <time>2021-10-15T13:50:35Z</time>
      </trkpt>
      <trkpt lat="40.3323530" lon="-5.8528030">
        <ele>859.0</ele>
        <time>2021-10-15T13:50:38Z</time>
      </trkpt>
      <trkpt lat="40.3322710" lon="-5.8528460">
        <ele>858.2</ele>
        <time>2021-10-15T13:50:41Z</time>
      </trkpt>
      <trkpt lat="40.3322520" lon="-5.8528580">
        <ele>857.6</ele>
        <time>2021-10-15T13:50:42Z</time>
      </trkpt>
      <trkpt lat="40.3321490" lon="-5.8529080">
        <ele>856.6</ele>
        <time>2021-10-15T13:50:46Z</time>
      </trkpt>
      <trkpt lat="40.3320390" lon="-5.8529650">
        <ele>855.8</ele>
        <time>2021-10-15T13:50:52Z</time>
      </trkpt>
      <trkpt lat="40.3320160" lon="-5.8529720">
        <ele>855.4</ele>
        <time>2021-10-15T13:50:53Z</time>
      </trkpt>
      <trkpt lat="40.3319520" lon="-5.8530130">
        <ele>854.2</ele>
        <time>2021-10-15T13:50:56Z</time>
      </trkpt>
      <trkpt lat="40.3319340" lon="-5.8530250">
        <ele>854.0</ele>
        <time>2021-10-15T13:50:57Z</time>
      </trkpt>
      <trkpt lat="40.3318320" lon="-5.8530980">
        <ele>853.0</ele>
        <time>2021-10-15T13:51:02Z</time>
      </trkpt>
      <trkpt lat="40.3318090" lon="-5.8531160">
        <ele>852.8</ele>
        <time>2021-10-15T13:51:03Z</time>
      </trkpt>
      <trkpt lat="40.3317240" lon="-5.8531590">
        <ele>851.6</ele>
        <time>2021-10-15T13:51:07Z</time>
      </trkpt>
      <trkpt lat="40.3316920" lon="-5.8531730">
        <ele>851.6</ele>
        <time>2021-10-15T13:51:08Z</time>
      </trkpt>
      <trkpt lat="40.3316640" lon="-5.8531910">
        <ele>851.2</ele>
        <time>2021-10-15T13:51:09Z</time>
      </trkpt>
      <trkpt lat="40.3315780" lon="-5.8532480">
        <ele>850.6</ele>
        <time>2021-10-15T13:51:12Z</time>
      </trkpt>
      <trkpt lat="40.3315580" lon="-5.8532620">
        <ele>850.2</ele>
        <time>2021-10-15T13:51:13Z</time>
      </trkpt>
      <trkpt lat="40.3314750" lon="-5.8533190">
        <ele>850.0</ele>
        <time>2021-10-15T13:51:16Z</time>
      </trkpt>
      <trkpt lat="40.3313710" lon="-5.8533960">
        <ele>849.6</ele>
        <time>2021-10-15T13:51:20Z</time>
      </trkpt>
      <trkpt lat="40.3313320" lon="-5.8534360">
        <ele>849.0</ele>
        <time>2021-10-15T13:51:23Z</time>
      </trkpt>
      <trkpt lat="40.3313300" lon="-5.8534390">
        <ele>848.6</ele>
        <time>2021-10-15T13:51:26Z</time>
      </trkpt>
      <trkpt lat="40.3312600" lon="-5.8534940">
        <ele>848.0</ele>
        <time>2021-10-15T13:51:40Z</time>
      </trkpt>
      <trkpt lat="40.3312390" lon="-5.8535060">
        <ele>848.0</ele>
        <time>2021-10-15T13:51:41Z</time>
      </trkpt>
      <trkpt lat="40.3311030" lon="-5.8535620">
        <ele>847.8</ele>
        <time>2021-10-15T13:51:47Z</time>
      </trkpt>
      <trkpt lat="40.3310280" lon="-5.8536240">
        <ele>847.4</ele>
        <time>2021-10-15T13:51:51Z</time>
      </trkpt>
      <trkpt lat="40.3310180" lon="-5.8536340">
        <ele>847.2</ele>
        <time>2021-10-15T13:51:52Z</time>
      </trkpt>
      <trkpt lat="40.3310130" lon="-5.8536430">
        <ele>847.0</ele>
        <time>2021-10-15T13:51:53Z</time>
      </trkpt>
      <trkpt lat="40.3309930" lon="-5.8536680">
        <ele>846.6</ele>
        <time>2021-10-15T13:51:57Z</time>
      </trkpt>
      <trkpt lat="40.3309320" lon="-5.8537080">
        <ele>846.2</ele>
        <time>2021-10-15T13:52:39Z</time>
      </trkpt>
      <trkpt lat="40.3309090" lon="-5.8537210">
        <ele>846.2</ele>
        <time>2021-10-15T13:52:40Z</time>
      </trkpt>
      <trkpt lat="40.3307620" lon="-5.8537950">
        <ele>845.8</ele>
        <time>2021-10-15T13:52:45Z</time>
      </trkpt>
      <trkpt lat="40.3305910" lon="-5.8538760">
        <ele>845.2</ele>
        <time>2021-10-15T13:52:51Z</time>
      </trkpt>
      <trkpt lat="40.3304360" lon="-5.8539560">
        <ele>845.2</ele>
        <time>2021-10-15T13:52:57Z</time>
      </trkpt>
      <trkpt lat="40.3302870" lon="-5.8541010">
        <ele>845.6</ele>
        <time>2021-10-15T13:53:03Z</time>
      </trkpt>
      <trkpt lat="40.3301300" lon="-5.8542050">
        <ele>845.6</ele>
        <time>2021-10-15T13:53:09Z</time>
      </trkpt>
      <trkpt lat="40.3299880" lon="-5.8543090">
        <ele>845.4</ele>
        <time>2021-10-15T13:53:15Z</time>
      </trkpt>
      <trkpt lat="40.3298950" lon="-5.8543880">
        <ele>845.6</ele>
        <time>2021-10-15T13:53:20Z</time>
      </trkpt>
      <trkpt lat="40.3298740" lon="-5.8543920">
        <ele>845.6</ele>
        <time>2021-10-15T13:53:21Z</time>
      </trkpt>
      <trkpt lat="40.3297800" lon="-5.8544210">
        <ele>845.6</ele>
        <time>2021-10-15T13:53:27Z</time>
      </trkpt>
      <trkpt lat="40.3297660" lon="-5.8544300">
        <ele>845.2</ele>
        <time>2021-10-15T13:53:32Z</time>
      </trkpt>
      <trkpt lat="40.3297660" lon="-5.8544300">
        <ele>845.2</ele>
        <time>2021-10-15T13:53:33Z</time>
      </trkpt>
      <trkpt lat="40.3297330" lon="-5.8544450">
        <ele>845.0</ele>
        <time>2021-10-15T13:53:37Z</time>
      </trkpt>
      <trkpt lat="40.3296830" lon="-5.8544700">
        <ele>844.8</ele>
        <time>2021-10-15T13:53:39Z</time>
      </trkpt>
      <trkpt lat="40.3295070" lon="-5.8545840">
        <ele>844.8</ele>
        <time>2021-10-15T13:53:45Z</time>
      </trkpt>
      <trkpt lat="40.3292880" lon="-5.8547040">
        <ele>844.6</ele>
        <time>2021-10-15T13:53:52Z</time>
      </trkpt>
      <trkpt lat="40.3291310" lon="-5.8548040">
        <ele>844.2</ele>
        <time>2021-10-15T13:53:56Z</time>
      </trkpt>
      <trkpt lat="40.3290360" lon="-5.8548570">
        <ele>844.0</ele>
        <time>2021-10-15T13:53:58Z</time>
      </trkpt>
      <trkpt lat="40.3289520" lon="-5.8549140">
        <ele>843.6</ele>
        <time>2021-10-15T13:54:00Z</time>
      </trkpt>
      <trkpt lat="40.3287810" lon="-5.8550110">
        <ele>842.4</ele>
        <time>2021-10-15T13:54:04Z</time>
      </trkpt>
      <trkpt lat="40.3287340" lon="-5.8550300">
        <ele>842.4</ele>
        <time>2021-10-15T13:54:05Z</time>
      </trkpt>
      <trkpt lat="40.3286010" lon="-5.8550750">
        <ele>841.2</ele>
        <time>2021-10-15T13:54:08Z</time>
      </trkpt>
      <trkpt lat="40.3285590" lon="-5.8550910">
        <ele>840.8</ele>
        <time>2021-10-15T13:54:09Z</time>
      </trkpt>
      <trkpt lat="40.3284810" lon="-5.8551300">
        <ele>840.2</ele>
        <time>2021-10-15T13:54:11Z</time>
      </trkpt>
      <trkpt lat="40.3284430" lon="-5.8551490">
        <ele>840.0</ele>
        <time>2021-10-15T13:54:12Z</time>
      </trkpt>
      <trkpt lat="40.3281870" lon="-5.8552610">
        <ele>839.2</ele>
        <time>2021-10-15T13:54:19Z</time>
      </trkpt>
      <trkpt lat="40.3279050" lon="-5.8554010">
        <ele>839.0</ele>
        <time>2021-10-15T13:54:27Z</time>
      </trkpt>
      <trkpt lat="40.3277890" lon="-5.8554280">
        <ele>838.6</ele>
        <time>2021-10-15T13:54:30Z</time>
      </trkpt>
      <trkpt lat="40.3277070" lon="-5.8554270">
        <ele>838.0</ele>
        <time>2021-10-15T13:54:32Z</time>
      </trkpt>
      <trkpt lat="40.3276790" lon="-5.8554180">
        <ele>837.8</ele>
        <time>2021-10-15T13:54:33Z</time>
      </trkpt>
      <trkpt lat="40.3276210" lon="-5.8553990">
        <ele>837.2</ele>
        <time>2021-10-15T13:54:36Z</time>
      </trkpt>
      <trkpt lat="40.3276060" lon="-5.8553980">
        <ele>837.0</ele>
        <time>2021-10-15T13:54:37Z</time>
      </trkpt>
      <trkpt lat="40.3275040" lon="-5.8553500">
        <ele>836.4</ele>
        <time>2021-10-15T13:54:41Z</time>
      </trkpt>
      <trkpt lat="40.3273870" lon="-5.8553010">
        <ele>835.8</ele>
        <time>2021-10-15T13:54:44Z</time>
      </trkpt>
      <trkpt lat="40.3272600" lon="-5.8552490">
        <ele>834.8</ele>
        <time>2021-10-15T13:54:47Z</time>
      </trkpt>
      <trkpt lat="40.3271380" lon="-5.8552090">
        <ele>833.6</ele>
        <time>2021-10-15T13:54:50Z</time>
      </trkpt>
      <trkpt lat="40.3270100" lon="-5.8551690">
        <ele>832.6</ele>
        <time>2021-10-15T13:54:53Z</time>
      </trkpt>
      <trkpt lat="40.3269660" lon="-5.8551510">
        <ele>832.2</ele>
        <time>2021-10-15T13:54:54Z</time>
      </trkpt>
      <trkpt lat="40.3268350" lon="-5.8551010">
        <ele>831.0</ele>
        <time>2021-10-15T13:54:57Z</time>
      </trkpt>
      <trkpt lat="40.3266640" lon="-5.8550130">
        <ele>829.8</ele>
        <time>2021-10-15T13:55:01Z</time>
      </trkpt>
      <trkpt lat="40.3266210" lon="-5.8549870">
        <ele>829.4</ele>
        <time>2021-10-15T13:55:02Z</time>
      </trkpt>
      <trkpt lat="40.3265340" lon="-5.8549280">
        <ele>828.6</ele>
        <time>2021-10-15T13:55:04Z</time>
      </trkpt>
      <trkpt lat="40.3264470" lon="-5.8548660">
        <ele>827.2</ele>
        <time>2021-10-15T13:55:06Z</time>
      </trkpt>
      <trkpt lat="40.3263050" lon="-5.8547870">
        <ele>825.8</ele>
        <time>2021-10-15T13:55:09Z</time>
      </trkpt>
      <trkpt lat="40.3262490" lon="-5.8547620">
        <ele>825.4</ele>
        <time>2021-10-15T13:55:10Z</time>
      </trkpt>
      <trkpt lat="40.3261980" lon="-5.8547510">
        <ele>824.6</ele>
        <time>2021-10-15T13:55:11Z</time>
      </trkpt>
      <trkpt lat="40.3260480" lon="-5.8547360">
        <ele>823.4</ele>
        <time>2021-10-15T13:55:14Z</time>
      </trkpt>
      <trkpt lat="40.3259240" lon="-5.8547470">
        <ele>822.2</ele>
        <time>2021-10-15T13:55:16Z</time>
      </trkpt>
      <trkpt lat="40.3258260" lon="-5.8547470">
        <ele>820.6</ele>
        <time>2021-10-15T13:55:18Z</time>
      </trkpt>
      <trkpt lat="40.3257020" lon="-5.8547330">
        <ele>819.0</ele>
        <time>2021-10-15T13:55:20Z</time>
      </trkpt>
      <trkpt lat="40.3255980" lon="-5.8547230">
        <ele>817.8</ele>
        <time>2021-10-15T13:55:22Z</time>
      </trkpt>
      <trkpt lat="40.3255560" lon="-5.8547220">
        <ele>817.4</ele>
        <time>2021-10-15T13:55:23Z</time>
      </trkpt>
      <trkpt lat="40.3254350" lon="-5.8547330">
        <ele>816.6</ele>
        <time>2021-10-15T13:55:25Z</time>
      </trkpt>
      <trkpt lat="40.3253440" lon="-5.8547470">
        <ele>815.6</ele>
        <time>2021-10-15T13:55:27Z</time>
      </trkpt>
      <trkpt lat="40.3252920" lon="-5.8547480">
        <ele>815.0</ele>
        <time>2021-10-15T13:55:28Z</time>
      </trkpt>
      <trkpt lat="40.3251460" lon="-5.8547570">
        <ele>813.8</ele>
        <time>2021-10-15T13:55:31Z</time>
      </trkpt>
      <trkpt lat="40.3250120" lon="-5.8547660">
        <ele>813.2</ele>
        <time>2021-10-15T13:55:34Z</time>
      </trkpt>
      <trkpt lat="40.3249610" lon="-5.8547720">
        <ele>812.4</ele>
        <time>2021-10-15T13:55:35Z</time>
      </trkpt>
      <trkpt lat="40.3249230" lon="-5.8547760">
        <ele>812.0</ele>
        <time>2021-10-15T13:55:36Z</time>
      </trkpt>
      <trkpt lat="40.3248860" lon="-5.8547750">
        <ele>811.0</ele>
        <time>2021-10-15T13:55:37Z</time>
      </trkpt>
      <trkpt lat="40.3248270" lon="-5.8547690">
        <ele>809.8</ele>
        <time>2021-10-15T13:55:39Z</time>
      </trkpt>
      <trkpt lat="40.3247370" lon="-5.8547490">
        <ele>808.8</ele>
        <time>2021-10-15T13:55:42Z</time>
      </trkpt>
      <trkpt lat="40.3247160" lon="-5.8547440">
        <ele>808.4</ele>
        <time>2021-10-15T13:55:43Z</time>
      </trkpt>
      <trkpt lat="40.3246480" lon="-5.8547240">
        <ele>807.6</ele>
        <time>2021-10-15T13:55:46Z</time>
      </trkpt>
      <trkpt lat="40.3245800" lon="-5.8547000">
        <ele>806.6</ele>
        <time>2021-10-15T13:55:51Z</time>
      </trkpt>
      <trkpt lat="40.3245700" lon="-5.8546960">
        <ele>806.4</ele>
        <time>2021-10-15T13:55:52Z</time>
      </trkpt>
      <trkpt lat="40.3245700" lon="-5.8546960">
        <ele>806.2</ele>
        <time>2021-10-15T13:55:54Z</time>
      </trkpt>
      <trkpt lat="40.3245120" lon="-5.8546760">
        <ele>806.0</ele>
        <time>2021-10-15T13:57:40Z</time>
      </trkpt>
      <trkpt lat="40.3244170" lon="-5.8545810">
        <ele>806.0</ele>
        <time>2021-10-15T13:57:44Z</time>
      </trkpt>
      <trkpt lat="40.3243460" lon="-5.8545230">
        <ele>805.6</ele>
        <time>2021-10-15T13:57:46Z</time>
      </trkpt>
      <trkpt lat="40.3242480" lon="-5.8544600">
        <ele>805.0</ele>
        <time>2021-10-15T13:57:49Z</time>
      </trkpt>
      <trkpt lat="40.3241260" lon="-5.8543960">
        <ele>804.4</ele>
        <time>2021-10-15T13:57:52Z</time>
      </trkpt>
      <trkpt lat="40.3240460" lon="-5.8543730">
        <ele>804.0</ele>
        <time>2021-10-15T13:57:54Z</time>
      </trkpt>
      <trkpt lat="40.3239500" lon="-5.8543530">
        <ele>803.4</ele>
        <time>2021-10-15T13:57:56Z</time>
      </trkpt>
      <trkpt lat="40.3238650" lon="-5.8543490">
        <ele>803.0</ele>
        <time>2021-10-15T13:57:58Z</time>
      </trkpt>
      <trkpt lat="40.3237950" lon="-5.8543690">
        <ele>802.4</ele>
        <time>2021-10-15T13:58:00Z</time>
      </trkpt>
      <trkpt lat="40.3237580" lon="-5.8543760">
        <ele>801.6</ele>
        <time>2021-10-15T13:58:01Z</time>
      </trkpt>
      <trkpt lat="40.3237130" lon="-5.8543920">
        <ele>801.0</ele>
        <time>2021-10-15T13:58:02Z</time>
      </trkpt>
      <trkpt lat="40.3236490" lon="-5.8544180">
        <ele>800.2</ele>
        <time>2021-10-15T13:58:04Z</time>
      </trkpt>
      <trkpt lat="40.3236060" lon="-5.8544390">
        <ele>800.0</ele>
        <time>2021-10-15T13:58:05Z</time>
      </trkpt>
      <trkpt lat="40.3235260" lon="-5.8544720">
        <ele>799.0</ele>
        <time>2021-10-15T13:58:07Z</time>
      </trkpt>
      <trkpt lat="40.3234460" lon="-5.8545050">
        <ele>797.6</ele>
        <time>2021-10-15T13:58:09Z</time>
      </trkpt>
      <trkpt lat="40.3233180" lon="-5.8545560">
        <ele>796.0</ele>
        <time>2021-10-15T13:58:12Z</time>
      </trkpt>
      <trkpt lat="40.3231900" lon="-5.8546060">
        <ele>794.4</ele>
        <time>2021-10-15T13:58:15Z</time>
      </trkpt>
      <trkpt lat="40.3231470" lon="-5.8546160">
        <ele>793.8</ele>
        <time>2021-10-15T13:58:16Z</time>
      </trkpt>
      <trkpt lat="40.3231020" lon="-5.8546240">
        <ele>793.2</ele>
        <time>2021-10-15T13:58:17Z</time>
      </trkpt>
      <trkpt lat="40.3230260" lon="-5.8546500">
        <ele>792.2</ele>
        <time>2021-10-15T13:58:19Z</time>
      </trkpt>
      <trkpt lat="40.3228630" lon="-5.8547140">
        <ele>790.4</ele>
        <time>2021-10-15T13:58:23Z</time>
      </trkpt>
      <trkpt lat="40.3228270" lon="-5.8547290">
        <ele>789.6</ele>
        <time>2021-10-15T13:58:24Z</time>
      </trkpt>
      <trkpt lat="40.3227470" lon="-5.8547540">
        <ele>789.0</ele>
        <time>2021-10-15T13:58:26Z</time>
      </trkpt>
      <trkpt lat="40.3226930" lon="-5.8547750">
        <ele>788.6</ele>
        <time>2021-10-15T13:58:27Z</time>
      </trkpt>
      <trkpt lat="40.3226110" lon="-5.8548130">
        <ele>788.0</ele>
        <time>2021-10-15T13:58:29Z</time>
      </trkpt>
      <trkpt lat="40.3225160" lon="-5.8548520">
        <ele>787.6</ele>
        <time>2021-10-15T13:58:31Z</time>
      </trkpt>
      <trkpt lat="40.3224540" lon="-5.8548750">
        <ele>786.8</ele>
        <time>2021-10-15T13:58:32Z</time>
      </trkpt>
      <trkpt lat="40.3224110" lon="-5.8548890">
        <ele>785.6</ele>
        <time>2021-10-15T13:58:33Z</time>
      </trkpt>
      <trkpt lat="40.3222510" lon="-5.8549330">
        <ele>784.4</ele>
        <time>2021-10-15T13:58:36Z</time>
      </trkpt>
      <trkpt lat="40.3221540" lon="-5.8549660">
        <ele>783.2</ele>
        <time>2021-10-15T13:58:38Z</time>
      </trkpt>
      <trkpt lat="40.3220540" lon="-5.8549950">
        <ele>781.8</ele>
        <time>2021-10-15T13:58:40Z</time>
      </trkpt>
      <trkpt lat="40.3220080" lon="-5.8550090">
        <ele>781.0</ele>
        <time>2021-10-15T13:58:41Z</time>
      </trkpt>
      <trkpt lat="40.3219550" lon="-5.8550250">
        <ele>780.6</ele>
        <time>2021-10-15T13:58:42Z</time>
      </trkpt>
      <trkpt lat="40.3218780" lon="-5.8550460">
        <ele>779.0</ele>
        <time>2021-10-15T13:58:44Z</time>
      </trkpt>
      <trkpt lat="40.3217870" lon="-5.8550690">
        <ele>778.4</ele>
        <time>2021-10-15T13:58:46Z</time>
      </trkpt>
      <trkpt lat="40.3217330" lon="-5.8550980">
        <ele>777.8</ele>
        <time>2021-10-15T13:58:48Z</time>
      </trkpt>
      <trkpt lat="40.3217170" lon="-5.8551150">
        <ele>777.6</ele>
        <time>2021-10-15T13:58:49Z</time>
      </trkpt>
      <trkpt lat="40.3217100" lon="-5.8551210">
        <ele>777.0</ele>
        <time>2021-10-15T13:58:51Z</time>
      </trkpt>
      <trkpt lat="40.3216460" lon="-5.8551500">
        <ele>773.8</ele>
        <time>2021-10-15T13:59:24Z</time>
      </trkpt>
      <trkpt lat="40.3216210" lon="-5.8551670">
        <ele>773.6</ele>
        <time>2021-10-15T13:59:25Z</time>
      </trkpt>
      <trkpt lat="40.3215040" lon="-5.8552360">
        <ele>773.0</ele>
        <time>2021-10-15T13:59:29Z</time>
      </trkpt>
      <trkpt lat="40.3214690" lon="-5.8552540">
        <ele>772.6</ele>
        <time>2021-10-15T13:59:30Z</time>
      </trkpt>
      <trkpt lat="40.3213370" lon="-5.8553250">
        <ele>770.8</ele>
        <time>2021-10-15T13:59:34Z</time>
      </trkpt>
      <trkpt lat="40.3212870" lon="-5.8553890">
        <ele>769.8</ele>
        <time>2021-10-15T13:59:36Z</time>
      </trkpt>
      <trkpt lat="40.3212780" lon="-5.8554230">
        <ele>769.2</ele>
        <time>2021-10-15T13:59:37Z</time>
      </trkpt>
      <trkpt lat="40.3212560" lon="-5.8554570">
        <ele>768.2</ele>
        <time>2021-10-15T13:59:39Z</time>
      </trkpt>
      <trkpt lat="40.3212500" lon="-5.8554630">
        <ele>767.4</ele>
        <time>2021-10-15T13:59:41Z</time>
      </trkpt>
      <trkpt lat="40.3212060" lon="-5.8554480">
        <ele>766.2</ele>
        <time>2021-10-15T14:02:11Z</time>
      </trkpt>
      <trkpt lat="40.3211510" lon="-5.8554600">
        <ele>766.0</ele>
        <time>2021-10-15T14:02:13Z</time>
      </trkpt>
      <trkpt lat="40.3210350" lon="-5.8554970">
        <ele>765.2</ele>
        <time>2021-10-15T14:02:17Z</time>
      </trkpt>
      <trkpt lat="40.3209670" lon="-5.8555190">
        <ele>764.8</ele>
        <time>2021-10-15T14:02:19Z</time>
      </trkpt>
      <trkpt lat="40.3209310" lon="-5.8555340">
        <ele>763.8</ele>
        <time>2021-10-15T14:02:20Z</time>
      </trkpt>
      <trkpt lat="40.3208580" lon="-5.8555620">
        <ele>762.4</ele>
        <time>2021-10-15T14:02:22Z</time>
      </trkpt>
      <trkpt lat="40.3207860" lon="-5.8555820">
        <ele>761.8</ele>
        <time>2021-10-15T14:02:24Z</time>
      </trkpt>
      <trkpt lat="40.3207130" lon="-5.8556100">
        <ele>761.2</ele>
        <time>2021-10-15T14:02:26Z</time>
      </trkpt>
      <trkpt lat="40.3205920" lon="-5.8556620">
        <ele>759.8</ele>
        <time>2021-10-15T14:02:29Z</time>
      </trkpt>
      <trkpt lat="40.3205200" lon="-5.8556870">
        <ele>758.8</ele>
        <time>2021-10-15T14:02:31Z</time>
      </trkpt>
      <trkpt lat="40.3204050" lon="-5.8557310">
        <ele>757.6</ele>
        <time>2021-10-15T14:02:34Z</time>
      </trkpt>
      <trkpt lat="40.3203320" lon="-5.8557490">
        <ele>756.8</ele>
        <time>2021-10-15T14:02:36Z</time>
      </trkpt>
      <trkpt lat="40.3202930" lon="-5.8557600">
        <ele>756.2</ele>
        <time>2021-10-15T14:02:37Z</time>
      </trkpt>
      <trkpt lat="40.3202180" lon="-5.8557880">
        <ele>755.0</ele>
        <time>2021-10-15T14:02:39Z</time>
      </trkpt>
      <trkpt lat="40.3201420" lon="-5.8558290">
        <ele>754.4</ele>
        <time>2021-10-15T14:02:41Z</time>
      </trkpt>
      <trkpt lat="40.3201180" lon="-5.8558400">
        <ele>753.8</ele>
        <time>2021-10-15T14:02:42Z</time>
      </trkpt>
      <trkpt lat="40.3200350" lon="-5.8558710">
        <ele>753.0</ele>
        <time>2021-10-15T14:02:45Z</time>
      </trkpt>
      <trkpt lat="40.3200090" lon="-5.8558750">
        <ele>752.8</ele>
        <time>2021-10-15T14:02:46Z</time>
      </trkpt>
      <trkpt lat="40.3198960" lon="-5.8559140">
        <ele>751.4</ele>
        <time>2021-10-15T14:02:50Z</time>
      </trkpt>
      <trkpt lat="40.3198310" lon="-5.8559550">
        <ele>751.0</ele>
        <time>2021-10-15T14:02:52Z</time>
      </trkpt>
      <trkpt lat="40.3197930" lon="-5.8559770">
        <ele>750.4</ele>
        <time>2021-10-15T14:02:53Z</time>
      </trkpt>
      <trkpt lat="40.3197560" lon="-5.8559830">
        <ele>750.0</ele>
        <time>2021-10-15T14:02:54Z</time>
      </trkpt>
      <trkpt lat="40.3196700" lon="-5.8559970">
        <ele>749.0</ele>
        <time>2021-10-15T14:02:56Z</time>
      </trkpt>
      <trkpt lat="40.3195510" lon="-5.8560540">
        <ele>747.4</ele>
        <time>2021-10-15T14:02:59Z</time>
      </trkpt>
      <trkpt lat="40.3195080" lon="-5.8560730">
        <ele>747.0</ele>
        <time>2021-10-15T14:03:00Z</time>
      </trkpt>
      <trkpt lat="40.3194590" lon="-5.8560870">
        <ele>746.8</ele>
        <time>2021-10-15T14:03:01Z</time>
      </trkpt>
      <trkpt lat="40.3194050" lon="-5.8561020">
        <ele>746.4</ele>
        <time>2021-10-15T14:03:02Z</time>
      </trkpt>
      <trkpt lat="40.3192940" lon="-5.8561250">
        <ele>745.4</ele>
        <time>2021-10-15T14:03:04Z</time>
      </trkpt>
      <trkpt lat="40.3192380" lon="-5.8561260">
        <ele>745.2</ele>
        <time>2021-10-15T14:03:05Z</time>
      </trkpt>
      <trkpt lat="40.3191830" lon="-5.8561240">
        <ele>745.0</ele>
        <time>2021-10-15T14:03:06Z</time>
      </trkpt>
      <trkpt lat="40.3190460" lon="-5.8561140">
        <ele>744.2</ele>
        <time>2021-10-15T14:03:09Z</time>
      </trkpt>
      <trkpt lat="40.3189770" lon="-5.8561160">
        <ele>744.0</ele>
        <time>2021-10-15T14:03:11Z</time>
      </trkpt>
      <trkpt lat="40.3187700" lon="-5.8560810">
        <ele>744.4</ele>
        <time>2021-10-15T14:03:18Z</time>
      </trkpt>
      <trkpt lat="40.3186440" lon="-5.8559940">
        <ele>745.4</ele>
        <time>2021-10-15T14:03:22Z</time>
      </trkpt>
      <trkpt lat="40.3185910" lon="-5.8559330">
        <ele>745.8</ele>
        <time>2021-10-15T14:03:24Z</time>
      </trkpt>
      <trkpt lat="40.3185290" lon="-5.8558460">
        <ele>746.6</ele>
        <time>2021-10-15T14:03:27Z</time>
      </trkpt>
      <trkpt lat="40.3185000" lon="-5.8557510">
        <ele>747.2</ele>
        <time>2021-10-15T14:03:30Z</time>
      </trkpt>
      <trkpt lat="40.3184950" lon="-5.8556330">
        <ele>747.6</ele>
        <time>2021-10-15T14:03:33Z</time>
      </trkpt>
      <trkpt lat="40.3184960" lon="-5.8555650">
        <ele>748.0</ele>
        <time>2021-10-15T14:03:36Z</time>
      </trkpt>
      <trkpt lat="40.3184970" lon="-5.8555640">
        <ele>748.0</ele>
        <time>2021-10-15T14:03:38Z</time>
      </trkpt>
      <trkpt lat="40.3185250" lon="-5.8556170">
        <ele>748.4</ele>
        <time>2021-10-15T14:03:42Z</time>
      </trkpt>
      <trkpt lat="40.3185190" lon="-5.8556530">
        <ele>748.4</ele>
        <time>2021-10-15T14:03:43Z</time>
      </trkpt>
      <trkpt lat="40.3185160" lon="-5.8557420">
        <ele>748.4</ele>
        <time>2021-10-15T14:03:45Z</time>
      </trkpt>
      <trkpt lat="40.3185410" lon="-5.8558310">
        <ele>748.2</ele>
        <time>2021-10-15T14:03:47Z</time>
      </trkpt>
      <trkpt lat="40.3185900" lon="-5.8559050">
        <ele>747.8</ele>
        <time>2021-10-15T14:03:49Z</time>
      </trkpt>
      <trkpt lat="40.3186600" lon="-5.8559720">
        <ele>747.4</ele>
        <time>2021-10-15T14:03:51Z</time>
      </trkpt>
      <trkpt lat="40.3186970" lon="-5.8559960">
        <ele>747.2</ele>
        <time>2021-10-15T14:03:52Z</time>
      </trkpt>
      <trkpt lat="40.3188270" lon="-5.8560670">
        <ele>746.6</ele>
        <time>2021-10-15T14:03:55Z</time>
      </trkpt>
      <trkpt lat="40.3188750" lon="-5.8560830">
        <ele>746.4</ele>
        <time>2021-10-15T14:03:56Z</time>
      </trkpt>
      <trkpt lat="40.3189260" lon="-5.8560810">
        <ele>746.0</ele>
        <time>2021-10-15T14:03:57Z</time>
      </trkpt>
      <trkpt lat="40.3190360" lon="-5.8560580">
        <ele>745.6</ele>
        <time>2021-10-15T14:03:59Z</time>
      </trkpt>
      <trkpt lat="40.3191420" lon="-5.8560590">
        <ele>745.2</ele>
        <time>2021-10-15T14:04:01Z</time>
      </trkpt>
      <trkpt lat="40.3191960" lon="-5.8560660">
        <ele>745.0</ele>
        <time>2021-10-15T14:04:02Z</time>
      </trkpt>
      <trkpt lat="40.3192920" lon="-5.8560820">
        <ele>744.4</ele>
        <time>2021-10-15T14:04:04Z</time>
      </trkpt>
      <trkpt lat="40.3193290" lon="-5.8560830">
        <ele>744.0</ele>
        <time>2021-10-15T14:04:05Z</time>
      </trkpt>
      <trkpt lat="40.3193580" lon="-5.8560860">
        <ele>743.8</ele>
        <time>2021-10-15T14:04:06Z</time>
      </trkpt>
      <trkpt lat="40.3193500" lon="-5.8561270">
        <ele>743.6</ele>
        <time>2021-10-15T14:04:08Z</time>
      </trkpt>
      <trkpt lat="40.3193390" lon="-5.8561410">
        <ele>743.4</ele>
        <time>2021-10-15T14:04:09Z</time>
      </trkpt>
      <trkpt lat="40.3192300" lon="-5.8561580">
        <ele>743.0</ele>
        <time>2021-10-15T14:04:12Z</time>
      </trkpt>
      <trkpt lat="40.3190640" lon="-5.8561800">
        <ele>742.2</ele>
        <time>2021-10-15T14:04:16Z</time>
      </trkpt>
      <trkpt lat="40.3190100" lon="-5.8561890">
        <ele>741.8</ele>
        <time>2021-10-15T14:04:17Z</time>
      </trkpt>
      <trkpt lat="40.3188300" lon="-5.8562110">
        <ele>741.2</ele>
        <time>2021-10-15T14:04:20Z</time>
      </trkpt>
      <trkpt lat="40.3187780" lon="-5.8562080">
        <ele>741.0</ele>
        <time>2021-10-15T14:04:21Z</time>
      </trkpt>
      <trkpt lat="40.3187340" lon="-5.8562000">
        <ele>740.8</ele>
        <time>2021-10-15T14:04:22Z</time>
      </trkpt>
      <trkpt lat="40.3186380" lon="-5.8561960">
        <ele>739.8</ele>
        <time>2021-10-15T14:04:24Z</time>
      </trkpt>
      <trkpt lat="40.3185830" lon="-5.8562030">
        <ele>739.6</ele>
        <time>2021-10-15T14:04:25Z</time>
      </trkpt>
      <trkpt lat="40.3185320" lon="-5.8562260">
        <ele>738.8</ele>
        <time>2021-10-15T14:04:26Z</time>
      </trkpt>
      <trkpt lat="40.3184820" lon="-5.8562530">
        <ele>738.6</ele>
        <time>2021-10-15T14:04:27Z</time>
      </trkpt>
      <trkpt lat="40.3183940" lon="-5.8563180">
        <ele>737.8</ele>
        <time>2021-10-15T14:04:29Z</time>
      </trkpt>
      <trkpt lat="40.3183570" lon="-5.8563680">
        <ele>737.2</ele>
        <time>2021-10-15T14:04:30Z</time>
      </trkpt>
      <trkpt lat="40.3182910" lon="-5.8564770">
        <ele>736.0</ele>
        <time>2021-10-15T14:04:32Z</time>
      </trkpt>
      <trkpt lat="40.3182510" lon="-5.8565300">
        <ele>735.0</ele>
        <time>2021-10-15T14:04:33Z</time>
      </trkpt>
      <trkpt lat="40.3181940" lon="-5.8566350">
        <ele>733.4</ele>
        <time>2021-10-15T14:04:35Z</time>
      </trkpt>
      <trkpt lat="40.3181750" lon="-5.8567520">
        <ele>731.4</ele>
        <time>2021-10-15T14:04:37Z</time>
      </trkpt>
      <trkpt lat="40.3181720" lon="-5.8568020">
        <ele>731.0</ele>
        <time>2021-10-15T14:04:38Z</time>
      </trkpt>
      <trkpt lat="40.3181780" lon="-5.8568470">
        <ele>729.8</ele>
        <time>2021-10-15T14:04:39Z</time>
      </trkpt>
      <trkpt lat="40.3181910" lon="-5.8568900">
        <ele>728.0</ele>
        <time>2021-10-15T14:04:41Z</time>
      </trkpt>
      <trkpt lat="40.3181910" lon="-5.8568900">
        <ele>727.4</ele>
        <time>2021-10-15T14:04:42Z</time>
      </trkpt>
      <trkpt lat="40.3181770" lon="-5.8568960">
        <ele>726.8</ele>
        <time>2021-10-15T14:04:43Z</time>
      </trkpt>
      <trkpt lat="40.3181530" lon="-5.8569080">
        <ele>725.8</ele>
        <time>2021-10-15T14:04:44Z</time>
      </trkpt>
      <trkpt lat="40.3180890" lon="-5.8569050">
        <ele>725.0</ele>
        <time>2021-10-15T14:04:46Z</time>
      </trkpt>
      <trkpt lat="40.3180490" lon="-5.8569120">
        <ele>724.8</ele>
        <time>2021-10-15T14:04:47Z</time>
      </trkpt>
      <trkpt lat="40.3180000" lon="-5.8570060">
        <ele>724.2</ele>
        <time>2021-10-15T14:04:49Z</time>
      </trkpt>
      <trkpt lat="40.3179940" lon="-5.8570680">
        <ele>723.8</ele>
        <time>2021-10-15T14:04:50Z</time>
      </trkpt>
      <trkpt lat="40.3179850" lon="-5.8572050">
        <ele>722.6</ele>
        <time>2021-10-15T14:04:52Z</time>
      </trkpt>
      <trkpt lat="40.3179610" lon="-5.8573410">
        <ele>721.8</ele>
        <time>2021-10-15T14:04:54Z</time>
      </trkpt>
      <trkpt lat="40.3179360" lon="-5.8574230">
        <ele>721.6</ele>
        <time>2021-10-15T14:04:55Z</time>
      </trkpt>
      <trkpt lat="40.3178700" lon="-5.8575460">
        <ele>720.8</ele>
        <time>2021-10-15T14:04:57Z</time>
      </trkpt>
      <trkpt lat="40.3177880" lon="-5.8576590">
        <ele>720.4</ele>
        <time>2021-10-15T14:04:59Z</time>
      </trkpt>
      <trkpt lat="40.3177680" lon="-5.8578160">
        <ele>719.6</ele>
        <time>2021-10-15T14:05:01Z</time>
      </trkpt>
      <trkpt lat="40.3177730" lon="-5.8579030">
        <ele>719.4</ele>
        <time>2021-10-15T14:05:02Z</time>
      </trkpt>
      <trkpt lat="40.3177690" lon="-5.8579690">
        <ele>718.8</ele>
        <time>2021-10-15T14:05:03Z</time>
      </trkpt>
      <trkpt lat="40.3177550" lon="-5.8580370">
        <ele>718.2</ele>
        <time>2021-10-15T14:05:04Z</time>
      </trkpt>
      <trkpt lat="40.3177380" lon="-5.8580940">
        <ele>718.2</ele>
        <time>2021-10-15T14:05:05Z</time>
      </trkpt>
      <trkpt lat="40.3177250" lon="-5.8581340">
        <ele>717.8</ele>
        <time>2021-10-15T14:05:06Z</time>
      </trkpt>
      <trkpt lat="40.3177010" lon="-5.8581610">
        <ele>717.8</ele>
        <time>2021-10-15T14:05:09Z</time>
      </trkpt>
      <trkpt lat="40.3177010" lon="-5.8581610">
        <ele>717.8</ele>
        <time>2021-10-15T14:05:12Z</time>
      </trkpt>
      <trkpt lat="40.3176780" lon="-5.8582200">
        <ele>718.0</ele>
        <time>2021-10-15T14:05:20Z</time>
      </trkpt>
      <trkpt lat="40.3176630" lon="-5.8582440">
        <ele>718.0</ele>
        <time>2021-10-15T14:05:21Z</time>
      </trkpt>
      <trkpt lat="40.3175830" lon="-5.8584590">
        <ele>718.2</ele>
        <time>2021-10-15T14:05:27Z</time>
      </trkpt>
      <trkpt lat="40.3175510" lon="-5.8585770">
        <ele>718.2</ele>
        <time>2021-10-15T14:05:30Z</time>
      </trkpt>
      <trkpt lat="40.3175380" lon="-5.8586530">
        <ele>718.8</ele>
        <time>2021-10-15T14:05:32Z</time>
      </trkpt>
      <trkpt lat="40.3175190" lon="-5.8586760">
        <ele>718.8</ele>
        <time>2021-10-15T14:05:33Z</time>
      </trkpt>
      <trkpt lat="40.3174790" lon="-5.8587060">
        <ele>719.2</ele>
        <time>2021-10-15T14:05:35Z</time>
      </trkpt>
      <trkpt lat="40.3173710" lon="-5.8587740">
        <ele>719.0</ele>
        <time>2021-10-15T14:05:39Z</time>
      </trkpt>
      <trkpt lat="40.3173470" lon="-5.8587960">
        <ele>718.8</ele>
        <time>2021-10-15T14:05:40Z</time>
      </trkpt>
      <trkpt lat="40.3173160" lon="-5.8588060">
        <ele>719.0</ele>
        <time>2021-10-15T14:05:41Z</time>
      </trkpt>
      <trkpt lat="40.3172100" lon="-5.8588570">
        <ele>718.8</ele>
        <time>2021-10-15T14:05:44Z</time>
      </trkpt>
      <trkpt lat="40.3171020" lon="-5.8589110">
        <ele>718.6</ele>
        <time>2021-10-15T14:05:47Z</time>
      </trkpt>
      <trkpt lat="40.3169920" lon="-5.8589580">
        <ele>718.2</ele>
        <time>2021-10-15T14:05:50Z</time>
      </trkpt>
      <trkpt lat="40.3167720" lon="-5.8589490">
        <ele>717.4</ele>
        <time>2021-10-15T14:05:56Z</time>
      </trkpt>
      <trkpt lat="40.3166690" lon="-5.8589310">
        <ele>717.0</ele>
        <time>2021-10-15T14:05:58Z</time>
      </trkpt>
      <trkpt lat="40.3165410" lon="-5.8589870">
        <ele>716.4</ele>
        <time>2021-10-15T14:06:01Z</time>
      </trkpt>
      <trkpt lat="40.3163970" lon="-5.8590790">
        <ele>715.8</ele>
        <time>2021-10-15T14:06:04Z</time>
      </trkpt>
      <trkpt lat="40.3163640" lon="-5.8591070">
        <ele>715.4</ele>
        <time>2021-10-15T14:06:05Z</time>
      </trkpt>
      <trkpt lat="40.3163350" lon="-5.8591290">
        <ele>715.0</ele>
        <time>2021-10-15T14:06:06Z</time>
      </trkpt>
      <trkpt lat="40.3162210" lon="-5.8592390">
        <ele>714.2</ele>
        <time>2021-10-15T14:06:10Z</time>
      </trkpt>
      <trkpt lat="40.3161700" lon="-5.8593300">
        <ele>713.8</ele>
        <time>2021-10-15T14:06:12Z</time>
      </trkpt>
      <trkpt lat="40.3161240" lon="-5.8594340">
        <ele>713.4</ele>
        <time>2021-10-15T14:06:14Z</time>
      </trkpt>
      <trkpt lat="40.3160670" lon="-5.8595300">
        <ele>713.0</ele>
        <time>2021-10-15T14:06:16Z</time>
      </trkpt>
      <trkpt lat="40.3159440" lon="-5.8596160">
        <ele>711.8</ele>
        <time>2021-10-15T14:06:19Z</time>
      </trkpt>
      <trkpt lat="40.3158510" lon="-5.8596740">
        <ele>711.4</ele>
        <time>2021-10-15T14:06:21Z</time>
      </trkpt>
      <trkpt lat="40.3156830" lon="-5.8598000">
        <ele>710.8</ele>
        <time>2021-10-15T14:06:25Z</time>
      </trkpt>
      <trkpt lat="40.3155820" lon="-5.8598900">
        <ele>709.2</ele>
        <time>2021-10-15T14:06:28Z</time>
      </trkpt>
      <trkpt lat="40.3155730" lon="-5.8599120">
        <ele>709.0</ele>
        <time>2021-10-15T14:06:29Z</time>
      </trkpt>
      <trkpt lat="40.3155700" lon="-5.8599570">
        <ele>708.6</ele>
        <time>2021-10-15T14:06:31Z</time>
      </trkpt>
      <trkpt lat="40.3155710" lon="-5.8599630">
        <ele>708.0</ele>
        <time>2021-10-15T14:06:32Z</time>
      </trkpt>
      <trkpt lat="40.3155710" lon="-5.8599630">
        <ele>707.4</ele>
        <time>2021-10-15T14:06:34Z</time>
      </trkpt>
      <trkpt lat="40.3156320" lon="-5.8599800">
        <ele>706.4</ele>
        <time>2021-10-15T14:06:45Z</time>
      </trkpt>
      <trkpt lat="40.3157480" lon="-5.8599390">
        <ele>706.6</ele>
        <time>2021-10-15T14:06:50Z</time>
      </trkpt>
      <trkpt lat="40.3159950" lon="-5.8598480">
        <ele>707.4</ele>
        <time>2021-10-15T14:06:59Z</time>
      </trkpt>
      <trkpt lat="40.3160520" lon="-5.8598290">
        <ele>707.6</ele>
        <time>2021-10-15T14:07:01Z</time>
      </trkpt>
      <trkpt lat="40.3162120" lon="-5.8597880">
        <ele>708.2</ele>
        <time>2021-10-15T14:07:07Z</time>
      </trkpt>
      <trkpt lat="40.3163110" lon="-5.8597380">
        <ele>708.6</ele>
        <time>2021-10-15T14:07:11Z</time>
      </trkpt>
      <trkpt lat="40.3164170" lon="-5.8596840">
        <ele>709.0</ele>
        <time>2021-10-15T14:07:15Z</time>
      </trkpt>
      <trkpt lat="40.3164620" lon="-5.8596610">
        <ele>709.2</ele>
        <time>2021-10-15T14:07:17Z</time>
      </trkpt>
      <trkpt lat="40.3165330" lon="-5.8596220">
        <ele>709.4</ele>
        <time>2021-10-15T14:07:20Z</time>
      </trkpt>
      <trkpt lat="40.3166570" lon="-5.8595570">
        <ele>709.8</ele>
        <time>2021-10-15T14:07:25Z</time>
      </trkpt>
      <trkpt lat="40.3167130" lon="-5.8595350">
        <ele>709.8</ele>
        <time>2021-10-15T14:07:27Z</time>
      </trkpt>
      <trkpt lat="40.3167920" lon="-5.8594990">
        <ele>710.0</ele>
        <time>2021-10-15T14:07:30Z</time>
      </trkpt>
      <trkpt lat="40.3169290" lon="-5.8594370">
        <ele>710.4</ele>
        <time>2021-10-15T14:07:35Z</time>
      </trkpt>
      <trkpt lat="40.3170090" lon="-5.8594000">
        <ele>710.6</ele>
        <time>2021-10-15T14:07:38Z</time>
      </trkpt>
      <trkpt lat="40.3170580" lon="-5.8593710">
        <ele>710.8</ele>
        <time>2021-10-15T14:07:40Z</time>
      </trkpt>
      <trkpt lat="40.3171630" lon="-5.8593300">
        <ele>711.0</ele>
        <time>2021-10-15T14:07:44Z</time>
      </trkpt>
      <trkpt lat="40.3173310" lon="-5.8592620">
        <ele>711.2</ele>
        <time>2021-10-15T14:07:51Z</time>
      </trkpt>
      <trkpt lat="40.3174170" lon="-5.8592350">
        <ele>711.6</ele>
        <time>2021-10-15T14:07:55Z</time>
      </trkpt>
      <trkpt lat="40.3174770" lon="-5.8592300">
        <ele>711.6</ele>
        <time>2021-10-15T14:07:57Z</time>
      </trkpt>
      <trkpt lat="40.3175260" lon="-5.8591780">
        <ele>711.8</ele>
        <time>2021-10-15T14:07:59Z</time>
      </trkpt>
      <trkpt lat="40.3176870" lon="-5.8591060">
        <ele>712.2</ele>
        <time>2021-10-15T14:08:04Z</time>
      </trkpt>
      <trkpt lat="40.3177710" lon="-5.8590470">
        <ele>712.4</ele>
        <time>2021-10-15T14:08:07Z</time>
      </trkpt>
      <trkpt lat="40.3178420" lon="-5.8590070">
        <ele>712.6</ele>
        <time>2021-10-15T14:08:10Z</time>
      </trkpt>
      <trkpt lat="40.3179040" lon="-5.8589750">
        <ele>713.0</ele>
        <time>2021-10-15T14:08:13Z</time>
      </trkpt>
      <trkpt lat="40.3179240" lon="-5.8589670">
        <ele>713.0</ele>
        <time>2021-10-15T14:08:14Z</time>
      </trkpt>
      <trkpt lat="40.3180300" lon="-5.8589190">
        <ele>713.2</ele>
        <time>2021-10-15T14:08:20Z</time>
      </trkpt>
      <trkpt lat="40.3180430" lon="-5.8589110">
        <ele>713.4</ele>
        <time>2021-10-15T14:08:21Z</time>
      </trkpt>
      <trkpt lat="40.3180820" lon="-5.8588900">
        <ele>713.4</ele>
        <time>2021-10-15T14:08:24Z</time>
      </trkpt>
      <trkpt lat="40.3181260" lon="-5.8588780">
        <ele>713.4</ele>
        <time>2021-10-15T14:08:27Z</time>
      </trkpt>
      <trkpt lat="40.3181410" lon="-5.8588690">
        <ele>713.8</ele>
        <time>2021-10-15T14:08:31Z</time>
      </trkpt>
      <trkpt lat="40.3182050" lon="-5.8588580">
        <ele>713.8</ele>
        <time>2021-10-15T14:08:40Z</time>
      </trkpt>
      <trkpt lat="40.3183170" lon="-5.8587850">
        <ele>713.8</ele>
        <time>2021-10-15T14:08:45Z</time>
      </trkpt>
      <trkpt lat="40.3183820" lon="-5.8587420">
        <ele>713.8</ele>
        <time>2021-10-15T14:08:48Z</time>
      </trkpt>
      <trkpt lat="40.3184210" lon="-5.8587110">
        <ele>714.2</ele>
        <time>2021-10-15T14:08:50Z</time>
      </trkpt>
      <trkpt lat="40.3184840" lon="-5.8586600">
        <ele>714.2</ele>
        <time>2021-10-15T14:08:53Z</time>
      </trkpt>
      <trkpt lat="40.3186110" lon="-5.8585540">
        <ele>714.8</ele>
        <time>2021-10-15T14:08:59Z</time>
      </trkpt>
      <trkpt lat="40.3187270" lon="-5.8585110">
        <ele>715.2</ele>
        <time>2021-10-15T14:09:04Z</time>
      </trkpt>
      <trkpt lat="40.3187570" lon="-5.8584960">
        <ele>715.4</ele>
        <time>2021-10-15T14:09:06Z</time>
      </trkpt>
      <trkpt lat="40.3187880" lon="-5.8584850">
        <ele>715.4</ele>
        <time>2021-10-15T14:09:08Z</time>
      </trkpt>
      <trkpt lat="40.3188030" lon="-5.8584870">
        <ele>715.6</ele>
        <time>2021-10-15T14:09:09Z</time>
      </trkpt>
      <trkpt lat="40.3188110" lon="-5.8584960">
        <ele>715.6</ele>
        <time>2021-10-15T14:09:10Z</time>
      </trkpt>
      <trkpt lat="40.3188170" lon="-5.8585060">
        <ele>715.6</ele>
        <time>2021-10-15T14:09:13Z</time>
      </trkpt>
      <trkpt lat="40.3188170" lon="-5.8585080">
        <ele>715.6</ele>
        <time>2021-10-15T14:09:14Z</time>
      </trkpt>
      <trkpt lat="40.3188820" lon="-5.8584150">
        <ele>717.2</ele>
        <time>2021-10-15T14:12:42Z</time>
      </trkpt>
      <trkpt lat="40.3188950" lon="-5.8583910">
        <ele>717.2</ele>
        <time>2021-10-15T14:12:44Z</time>
      </trkpt>
      <trkpt lat="40.3189040" lon="-5.8583710">
        <ele>717.2</ele>
        <time>2021-10-15T14:12:48Z</time>
      </trkpt>
      <trkpt lat="40.3189670" lon="-5.8583140">
        <ele>717.2</ele>
        <time>2021-10-15T14:12:59Z</time>
      </trkpt>
      <trkpt lat="40.3189800" lon="-5.8582980">
        <ele>717.2</ele>
        <time>2021-10-15T14:13:00Z</time>
      </trkpt>
      <trkpt lat="40.3190720" lon="-5.8582100">
        <ele>717.4</ele>
        <time>2021-10-15T14:13:05Z</time>
      </trkpt>
      <trkpt lat="40.3191830" lon="-5.8581170">
        <ele>717.8</ele>
        <time>2021-10-15T14:13:11Z</time>
      </trkpt>
      <trkpt lat="40.3193160" lon="-5.8580150">
        <ele>718.4</ele>
        <time>2021-10-15T14:13:18Z</time>
      </trkpt>
      <trkpt lat="40.3193490" lon="-5.8579680">
        <ele>718.4</ele>
        <time>2021-10-15T14:13:20Z</time>
      </trkpt>
      <trkpt lat="40.3194730" lon="-5.8578340">
        <ele>719.0</ele>
        <time>2021-10-15T14:13:27Z</time>
      </trkpt>
      <trkpt lat="40.3195800" lon="-5.8577520">
        <ele>719.4</ele>
        <time>2021-10-15T14:13:33Z</time>
      </trkpt>
      <trkpt lat="40.3196210" lon="-5.8577180">
        <ele>719.4</ele>
        <time>2021-10-15T14:13:36Z</time>
      </trkpt>
      <trkpt lat="40.3196450" lon="-5.8577100">
        <ele>719.6</ele>
        <time>2021-10-15T14:13:38Z</time>
      </trkpt>
      <trkpt lat="40.3196460" lon="-5.8577060">
        <ele>719.6</ele>
        <time>2021-10-15T14:13:41Z</time>
      </trkpt>
      <trkpt lat="40.3197140" lon="-5.8576790">
        <ele>720.0</ele>
        <time>2021-10-15T14:14:11Z</time>
      </trkpt>
      <trkpt lat="40.3197290" lon="-5.8576740">
        <ele>720.2</ele>
        <time>2021-10-15T14:14:12Z</time>
      </trkpt>
      <trkpt lat="40.3197840" lon="-5.8576440">
        <ele>720.4</ele>
        <time>2021-10-15T14:14:16Z</time>
      </trkpt>
      <trkpt lat="40.3198450" lon="-5.8576050">
        <ele>720.4</ele>
        <time>2021-10-15T14:14:19Z</time>
      </trkpt>
      <trkpt lat="40.3199450" lon="-5.8575520">
        <ele>720.6</ele>
        <time>2021-10-15T14:14:25Z</time>
      </trkpt>
      <trkpt lat="40.3199630" lon="-5.8575500">
        <ele>720.8</ele>
        <time>2021-10-15T14:14:26Z</time>
      </trkpt>
      <trkpt lat="40.3200460" lon="-5.8575350">
        <ele>720.8</ele>
        <time>2021-10-15T14:14:30Z</time>
      </trkpt>
      <trkpt lat="40.3200660" lon="-5.8575470">
        <ele>721.0</ele>
        <time>2021-10-15T14:14:31Z</time>
      </trkpt>
      <trkpt lat="40.3201130" lon="-5.8576040">
        <ele>721.2</ele>
        <time>2021-10-15T14:14:34Z</time>
      </trkpt>
      <trkpt lat="40.3201240" lon="-5.8576370">
        <ele>721.2</ele>
        <time>2021-10-15T14:14:35Z</time>
      </trkpt>
      <trkpt lat="40.3201780" lon="-5.8576510">
        <ele>721.2</ele>
        <time>2021-10-15T14:14:38Z</time>
      </trkpt>
      <trkpt lat="40.3201820" lon="-5.8576480">
        <ele>721.4</ele>
        <time>2021-10-15T14:14:40Z</time>
      </trkpt>
      <trkpt lat="40.3202160" lon="-5.8576230">
        <ele>721.4</ele>
        <time>2021-10-15T14:14:44Z</time>
      </trkpt>
      <trkpt lat="40.3202610" lon="-5.8575750">
        <ele>721.4</ele>
        <time>2021-10-15T14:14:46Z</time>
      </trkpt>
      <trkpt lat="40.3204400" lon="-5.8574680">
        <ele>721.4</ele>
        <time>2021-10-15T14:14:52Z</time>
      </trkpt>
      <trkpt lat="40.3204970" lon="-5.8574130">
        <ele>721.8</ele>
        <time>2021-10-15T14:14:55Z</time>
      </trkpt>
      <trkpt lat="40.3205150" lon="-5.8574100">
        <ele>721.8</ele>
        <time>2021-10-15T14:14:56Z</time>
      </trkpt>
      <trkpt lat="40.3205250" lon="-5.8574090">
        <ele>721.8</ele>
        <time>2021-10-15T14:14:57Z</time>
      </trkpt>
      <trkpt lat="40.3205280" lon="-5.8574080">
        <ele>722.0</ele>
        <time>2021-10-15T14:14:58Z</time>
      </trkpt>
      <trkpt lat="40.3204910" lon="-5.8574350">
        <ele>722.0</ele>
        <time>2021-10-15T14:15:00Z</time>
      </trkpt>
      <trkpt lat="40.3203060" lon="-5.8574550">
        <ele>722.0</ele>
        <time>2021-10-15T14:15:05Z</time>
      </trkpt>
      <trkpt lat="40.3201390" lon="-5.8575420">
        <ele>721.8</ele>
        <time>2021-10-15T14:15:10Z</time>
      </trkpt>
      <trkpt lat="40.3200940" lon="-5.8575620">
        <ele>721.8</ele>
        <time>2021-10-15T14:15:12Z</time>
      </trkpt>
      <trkpt lat="40.3199400" lon="-5.8576140">
        <ele>721.2</ele>
        <time>2021-10-15T14:15:18Z</time>
      </trkpt>
      <trkpt lat="40.3198970" lon="-5.8576410">
        <ele>721.2</ele>
        <time>2021-10-15T14:15:23Z</time>
      </trkpt>
      <trkpt lat="40.3199210" lon="-5.8577330">
        <ele>720.4</ele>
        <time>2021-10-15T14:15:40Z</time>
      </trkpt>
      <trkpt lat="40.3199330" lon="-5.8577350">
        <ele>720.4</ele>
        <time>2021-10-15T14:15:41Z</time>
      </trkpt>
      <trkpt lat="40.3199470" lon="-5.8577320">
        <ele>720.4</ele>
        <time>2021-10-15T14:15:43Z</time>
      </trkpt>
      <trkpt lat="40.3199990" lon="-5.8577170">
        <ele>720.4</ele>
        <time>2021-10-15T14:15:48Z</time>
      </trkpt>
      <trkpt lat="40.3200260" lon="-5.8576940">
        <ele>720.6</ele>
        <time>2021-10-15T14:15:51Z</time>
      </trkpt>
      <trkpt lat="40.3200330" lon="-5.8576970">
        <ele>720.6</ele>
        <time>2021-10-15T14:15:56Z</time>
      </trkpt>
      <trkpt lat="40.3200240" lon="-5.8576380">
        <ele>720.2</ele>
        <time>2021-10-15T14:22:41Z</time>
      </trkpt>
      <trkpt lat="40.3200240" lon="-5.8576380">
        <ele>720.2</ele>
        <time>2021-10-15T14:22:42Z</time>
      </trkpt>
      <trkpt lat="40.3201910" lon="-5.8578080">
        <ele>722.4</ele>
        <time>2021-10-15T14:54:41Z</time>
      </trkpt>
      <trkpt lat="40.3201750" lon="-5.8578380">
        <ele>722.0</ele>
        <time>2021-10-15T14:54:44Z</time>
      </trkpt>
      <trkpt lat="40.3201750" lon="-5.8578410">
        <ele>721.8</ele>
        <time>2021-10-15T14:54:45Z</time>
      </trkpt>
      <trkpt lat="40.3201660" lon="-5.8578450">
        <ele>721.2</ele>
        <time>2021-10-15T14:54:48Z</time>
      </trkpt>
      <trkpt lat="40.3201660" lon="-5.8578450">
        <ele>721.0</ele>
        <time>2021-10-15T14:54:49Z</time>
      </trkpt>
      <trkpt lat="40.3201560" lon="-5.8578170">
        <ele>720.8</ele>
        <time>2021-10-15T14:54:52Z</time>
      </trkpt>
      <trkpt lat="40.3201560" lon="-5.8578170">
        <ele>720.8</ele>
        <time>2021-10-15T14:55:57Z</time>
      </trkpt>
      <trkpt lat="40.3201560" lon="-5.8578170">
        <ele>720.8</ele>
        <time>2021-10-15T14:55:58Z</time>
      </trkpt>
      <trkpt lat="40.3201560" lon="-5.8578170">
        <ele>720.6</ele>
        <time>2021-10-15T14:56:01Z</time>
      </trkpt>
      <trkpt lat="40.3201560" lon="-5.8578170">
        <ele>720.6</ele>
        <time>2021-10-15T14:56:02Z</time>
      </trkpt>
      <trkpt lat="40.3201560" lon="-5.8578170">
        <ele>720.6</ele>
        <time>2021-10-15T14:56:03Z</time>
      </trkpt>
      <trkpt lat="40.3201560" lon="-5.8578170">
        <ele>720.6</ele>
        <time>2021-10-15T14:56:05Z</time>
      </trkpt>
      <trkpt lat="40.3201560" lon="-5.8578170">
        <ele>720.6</ele>
        <time>2021-10-15T14:56:06Z</time>
      </trkpt>
      <trkpt lat="40.3201560" lon="-5.8578170">
        <ele>720.6</ele>
        <time>2021-10-15T14:56:07Z</time>
      </trkpt>
      <trkpt lat="40.3201560" lon="-5.8578170">
        <ele>720.6</ele>
        <time>2021-10-15T14:56:08Z</time>
      </trkpt>
      <trkpt lat="40.3201560" lon="-5.8578170">
        <ele>720.6</ele>
        <time>2021-10-15T14:56:09Z</time>
      </trkpt>
      <trkpt lat="40.3201560" lon="-5.8578170">
        <ele>720.6</ele>
        <time>2021-10-15T14:56:10Z</time>
      </trkpt>
      <trkpt lat="40.3201560" lon="-5.8578170">
        <ele>720.6</ele>
        <time>2021-10-15T14:56:11Z</time>
      </trkpt>
      <trkpt lat="40.3201560" lon="-5.8578170">
        <ele>720.6</ele>
        <time>2021-10-15T14:56:12Z</time>
      </trkpt>
      <trkpt lat="40.3201560" lon="-5.8578170">
        <ele>720.6</ele>
        <time>2021-10-15T14:56:13Z</time>
      </trkpt>
      <trkpt lat="40.3201560" lon="-5.8578170">
        <ele>720.6</ele>
        <time>2021-10-15T14:56:14Z</time>
      </trkpt>
      <trkpt lat="40.3201560" lon="-5.8578170">
        <ele>720.6</ele>
        <time>2021-10-15T14:56:15Z</time>
      </trkpt>
      <trkpt lat="40.3201560" lon="-5.8578170">
        <ele>720.6</ele>
        <time>2021-10-15T14:56:16Z</time>
      </trkpt>
      <trkpt lat="40.3201560" lon="-5.8578170">
        <ele>720.8</ele>
        <time>2021-10-15T14:56:18Z</time>
      </trkpt>
      <trkpt lat="40.3201560" lon="-5.8578170">
        <ele>720.8</ele>
        <time>2021-10-15T14:56:20Z</time>
      </trkpt>
      <trkpt lat="40.3201560" lon="-5.8578170">
        <ele>720.2</ele>
        <time>2021-10-15T14:56:34Z</time>
      </trkpt>
      <trkpt lat="40.3201560" lon="-5.8578170">
        <ele>719.8</ele>
        <time>2021-10-15T14:56:52Z</time>
      </trkpt>
      <trkpt lat="40.3201560" lon="-5.8578170">
        <ele>719.8</ele>
        <time>2021-10-15T14:56:53Z</time>
      </trkpt>
      <trkpt lat="40.3201560" lon="-5.8578170">
        <ele>721.2</ele>
        <time>2021-10-15T14:58:02Z</time>
      </trkpt>
      <trkpt lat="40.3201450" lon="-5.8578370">
        <ele>721.4</ele>
        <time>2021-10-15T14:58:26Z</time>
      </trkpt>
      <trkpt lat="40.3201880" lon="-5.8577780">
        <ele>721.8</ele>
        <time>2021-10-15T14:58:30Z</time>
      </trkpt>
      <trkpt lat="40.3202130" lon="-5.8577430">
        <ele>722.2</ele>
        <time>2021-10-15T14:58:32Z</time>
      </trkpt>
      <trkpt lat="40.3202080" lon="-5.8577260">
        <ele>722.4</ele>
        <time>2021-10-15T14:58:33Z</time>
      </trkpt>
      <trkpt lat="40.3201770" lon="-5.8577030">
        <ele>722.6</ele>
        <time>2021-10-15T14:58:35Z</time>
      </trkpt>
      <trkpt lat="40.3201520" lon="-5.8576850">
        <ele>722.8</ele>
        <time>2021-10-15T14:58:36Z</time>
      </trkpt>
      <trkpt lat="40.3200790" lon="-5.8576080">
        <ele>723.4</ele>
        <time>2021-10-15T14:58:43Z</time>
      </trkpt>
      <trkpt lat="40.3200680" lon="-5.8576050">
        <ele>723.4</ele>
        <time>2021-10-15T14:58:45Z</time>
      </trkpt>
      <trkpt lat="40.3200580" lon="-5.8576020">
        <ele>723.2</ele>
        <time>2021-10-15T14:58:54Z</time>
      </trkpt>
      <trkpt lat="40.3200480" lon="-5.8575990">
        <ele>723.2</ele>
        <time>2021-10-15T14:59:01Z</time>
      </trkpt>
      <trkpt lat="40.3200370" lon="-5.8575960">
        <ele>723.2</ele>
        <time>2021-10-15T14:59:08Z</time>
      </trkpt>
      <trkpt lat="40.3200270" lon="-5.8575930">
        <ele>722.8</ele>
        <time>2021-10-15T14:59:14Z</time>
      </trkpt>
      <trkpt lat="40.3200170" lon="-5.8575900">
        <ele>722.6</ele>
        <time>2021-10-15T14:59:16Z</time>
      </trkpt>
      <trkpt lat="40.3200070" lon="-5.8575870">
        <ele>722.6</ele>
        <time>2021-10-15T14:59:17Z</time>
      </trkpt>
      <trkpt lat="40.3199960" lon="-5.8575840">
        <ele>722.4</ele>
        <time>2021-10-15T14:59:21Z</time>
      </trkpt>
      <trkpt lat="40.3199860" lon="-5.8575810">
        <ele>722.2</ele>
        <time>2021-10-15T14:59:23Z</time>
      </trkpt>
      <trkpt lat="40.3199760" lon="-5.8575770">
        <ele>722.0</ele>
        <time>2021-10-15T14:59:25Z</time>
      </trkpt>
      <trkpt lat="40.3199650" lon="-5.8575740">
        <ele>722.0</ele>
        <time>2021-10-15T14:59:31Z</time>
      </trkpt>
      <trkpt lat="40.3199550" lon="-5.8575710">
        <ele>722.0</ele>
        <time>2021-10-15T14:59:32Z</time>
      </trkpt>
      <trkpt lat="40.3199450" lon="-5.8575680">
        <ele>722.0</ele>
        <time>2021-10-15T14:59:35Z</time>
      </trkpt>
      <trkpt lat="40.3199340" lon="-5.8575650">
        <ele>722.2</ele>
        <time>2021-10-15T15:00:23Z</time>
      </trkpt>
      <trkpt lat="40.3199240" lon="-5.8575620">
        <ele>722.2</ele>
        <time>2021-10-15T15:00:24Z</time>
      </trkpt>
      <trkpt lat="40.3199140" lon="-5.8575590">
        <ele>722.2</ele>
        <time>2021-10-15T15:00:25Z</time>
      </trkpt>
      <trkpt lat="40.3199040" lon="-5.8575560">
        <ele>722.2</ele>
        <time>2021-10-15T15:00:26Z</time>
      </trkpt>
      <trkpt lat="40.3198930" lon="-5.8575530">
        <ele>722.2</ele>
        <time>2021-10-15T15:00:27Z</time>
      </trkpt>
      <trkpt lat="40.3198830" lon="-5.8575500">
        <ele>722.2</ele>
        <time>2021-10-15T15:00:28Z</time>
      </trkpt>
      <trkpt lat="40.3198730" lon="-5.8575470">
        <ele>722.2</ele>
        <time>2021-10-15T15:00:29Z</time>
      </trkpt>
      <trkpt lat="40.3198620" lon="-5.8575440">
        <ele>722.0</ele>
        <time>2021-10-15T15:00:33Z</time>
      </trkpt>
      <trkpt lat="40.3198520" lon="-5.8575410">
        <ele>722.0</ele>
        <time>2021-10-15T15:00:34Z</time>
      </trkpt>
      <trkpt lat="40.3198420" lon="-5.8575380">
        <ele>722.0</ele>
        <time>2021-10-15T15:00:35Z</time>
      </trkpt>
      <trkpt lat="40.3198310" lon="-5.8575350">
        <ele>722.0</ele>
        <time>2021-10-15T15:00:41Z</time>
      </trkpt>
      <trkpt lat="40.3198210" lon="-5.8575320">
        <ele>722.0</ele>
        <time>2021-10-15T15:00:42Z</time>
      </trkpt>
      <trkpt lat="40.3198110" lon="-5.8575290">
        <ele>722.0</ele>
        <time>2021-10-15T15:00:44Z</time>
      </trkpt>
      <trkpt lat="40.3198010" lon="-5.8575260">
        <ele>722.0</ele>
        <time>2021-10-15T15:00:45Z</time>
      </trkpt>
      <trkpt lat="40.3197900" lon="-5.8575230">
        <ele>722.0</ele>
        <time>2021-10-15T15:00:47Z</time>
      </trkpt>
      <trkpt lat="40.3197800" lon="-5.8575200">
        <ele>722.0</ele>
        <time>2021-10-15T15:00:49Z</time>
      </trkpt>
      <trkpt lat="40.3197700" lon="-5.8575170">
        <ele>722.0</ele>
        <time>2021-10-15T15:00:52Z</time>
      </trkpt>
      <trkpt lat="40.3197590" lon="-5.8575140">
        <ele>722.2</ele>
        <time>2021-10-15T15:00:54Z</time>
      </trkpt>
      <trkpt lat="40.3197490" lon="-5.8575100">
        <ele>722.2</ele>
        <time>2021-10-15T15:00:56Z</time>
      </trkpt>
      <trkpt lat="40.3197390" lon="-5.8575070">
        <ele>722.2</ele>
        <time>2021-10-15T15:00:58Z</time>
      </trkpt>
      <trkpt lat="40.3197280" lon="-5.8575040">
        <ele>722.4</ele>
        <time>2021-10-15T15:01:04Z</time>
      </trkpt>
      <trkpt lat="40.3197180" lon="-5.8575010">
        <ele>722.4</ele>
        <time>2021-10-15T15:01:08Z</time>
      </trkpt>
      <trkpt lat="40.3197080" lon="-5.8574980">
        <ele>722.4</ele>
        <time>2021-10-15T15:01:12Z</time>
      </trkpt>
      <trkpt lat="40.3196980" lon="-5.8574950">
        <ele>722.4</ele>
        <time>2021-10-15T15:01:14Z</time>
      </trkpt>
      <trkpt lat="40.3196870" lon="-5.8574920">
        <ele>722.4</ele>
        <time>2021-10-15T15:01:15Z</time>
      </trkpt>
      <trkpt lat="40.3196770" lon="-5.8574890">
        <ele>722.4</ele>
        <time>2021-10-15T15:01:17Z</time>
      </trkpt>
      <trkpt lat="40.3196670" lon="-5.8574860">
        <ele>722.0</ele>
        <time>2021-10-15T15:01:23Z</time>
      </trkpt>
      <trkpt lat="40.3196560" lon="-5.8574830">
        <ele>722.0</ele>
        <time>2021-10-15T15:01:24Z</time>
      </trkpt>
      <trkpt lat="40.3196460" lon="-5.8574800">
        <ele>721.8</ele>
        <time>2021-10-15T15:01:26Z</time>
      </trkpt>
      <trkpt lat="40.3197040" lon="-5.8573680">
        <ele>721.8</ele>
        <time>2021-10-15T15:01:31Z</time>
      </trkpt>
      <trkpt lat="40.3197120" lon="-5.8573670">
        <ele>722.0</ele>
        <time>2021-10-15T15:01:32Z</time>
      </trkpt>
      <trkpt lat="40.3197120" lon="-5.8573660">
        <ele>722.0</ele>
        <time>2021-10-15T15:01:34Z</time>
      </trkpt>
      <trkpt lat="40.3197030" lon="-5.8573680">
        <ele>722.2</ele>
        <time>2021-10-15T15:01:36Z</time>
      </trkpt>
      <trkpt lat="40.3197090" lon="-5.8573200">
        <ele>722.4</ele>
        <time>2021-10-15T15:01:38Z</time>
      </trkpt>
      <trkpt lat="40.3196870" lon="-5.8572850">
        <ele>722.6</ele>
        <time>2021-10-15T15:01:42Z</time>
      </trkpt>
      <trkpt lat="40.3196410" lon="-5.8573670">
        <ele>722.4</ele>
        <time>2021-10-15T15:01:48Z</time>
      </trkpt>
      <trkpt lat="40.3196170" lon="-5.8573800">
        <ele>722.2</ele>
        <time>2021-10-15T15:01:52Z</time>
      </trkpt>
      <trkpt lat="40.3195900" lon="-5.8573770">
        <ele>722.2</ele>
        <time>2021-10-15T15:01:53Z</time>
      </trkpt>
      <trkpt lat="40.3194940" lon="-5.8573800">
        <ele>722.0</ele>
        <time>2021-10-15T15:02:00Z</time>
      </trkpt>
      <trkpt lat="40.3194900" lon="-5.8574340">
        <ele>721.8</ele>
        <time>2021-10-15T15:02:05Z</time>
      </trkpt>
      <trkpt lat="40.3194860" lon="-5.8575000">
        <ele>721.8</ele>
        <time>2021-10-15T15:02:07Z</time>
      </trkpt>
      <trkpt lat="40.3194880" lon="-5.8575220">
        <ele>721.8</ele>
        <time>2021-10-15T15:02:08Z</time>
      </trkpt>
      <trkpt lat="40.3194940" lon="-5.8575430">
        <ele>721.8</ele>
        <time>2021-10-15T15:02:09Z</time>
      </trkpt>
      <trkpt lat="40.3195120" lon="-5.8575930">
        <ele>721.8</ele>
        <time>2021-10-15T15:02:11Z</time>
      </trkpt>
      <trkpt lat="40.3195220" lon="-5.8575800">
        <ele>722.0</ele>
        <time>2021-10-15T15:02:13Z</time>
      </trkpt>
      <trkpt lat="40.3195160" lon="-5.8575400">
        <ele>722.0</ele>
        <time>2021-10-15T15:02:14Z</time>
      </trkpt>
      <trkpt lat="40.3195300" lon="-5.8573750">
        <ele>722.0</ele>
        <time>2021-10-15T15:02:17Z</time>
      </trkpt>
      <trkpt lat="40.3195370" lon="-5.8573600">
        <ele>722.0</ele>
        <time>2021-10-15T15:02:18Z</time>
      </trkpt>
      <trkpt lat="40.3195360" lon="-5.8573560">
        <ele>722.0</ele>
        <time>2021-10-15T15:02:20Z</time>
      </trkpt>
      <trkpt lat="40.3195130" lon="-5.8574060">
        <ele>722.0</ele>
        <time>2021-10-15T15:02:23Z</time>
      </trkpt>
      <trkpt lat="40.3195170" lon="-5.8574430">
        <ele>722.0</ele>
        <time>2021-10-15T15:02:24Z</time>
      </trkpt>
      <trkpt lat="40.3195360" lon="-5.8575610">
        <ele>721.8</ele>
        <time>2021-10-15T15:02:26Z</time>
      </trkpt>
      <trkpt lat="40.3196980" lon="-5.8574690">
        <ele>722.6</ele>
        <time>2021-10-15T15:02:42Z</time>
      </trkpt>
      <trkpt lat="40.3196990" lon="-5.8574450">
        <ele>722.6</ele>
        <time>2021-10-15T15:02:43Z</time>
      </trkpt>
      <trkpt lat="40.3197090" lon="-5.8574660">
        <ele>722.8</ele>
        <time>2021-10-15T15:02:44Z</time>
      </trkpt>
      <trkpt lat="40.3197290" lon="-5.8574560">
        <ele>722.8</ele>
        <time>2021-10-15T15:02:47Z</time>
      </trkpt>
      <trkpt lat="40.3197320" lon="-5.8574480">
        <ele>723.0</ele>
        <time>2021-10-15T15:02:48Z</time>
      </trkpt>
      <trkpt lat="40.3197390" lon="-5.8574130">
        <ele>723.0</ele>
        <time>2021-10-15T15:02:50Z</time>
      </trkpt>
      <trkpt lat="40.3197360" lon="-5.8573750">
        <ele>723.0</ele>
        <time>2021-10-15T15:02:52Z</time>
      </trkpt>
      <trkpt lat="40.3197080" lon="-5.8573310">
        <ele>723.2</ele>
        <time>2021-10-15T15:02:56Z</time>
      </trkpt>
      <trkpt lat="40.3196930" lon="-5.8573840">
        <ele>723.2</ele>
        <time>2021-10-15T15:02:58Z</time>
      </trkpt>
      <trkpt lat="40.3196490" lon="-5.8575460">
        <ele>723.2</ele>
        <time>2021-10-15T15:03:01Z</time>
      </trkpt>
      <trkpt lat="40.3196340" lon="-5.8575150">
        <ele>723.2</ele>
        <time>2021-10-15T15:03:03Z</time>
      </trkpt>
      <trkpt lat="40.3196400" lon="-5.8574890">
        <ele>723.2</ele>
        <time>2021-10-15T15:03:04Z</time>
      </trkpt>
      <trkpt lat="40.3196470" lon="-5.8574640">
        <ele>723.2</ele>
        <time>2021-10-15T15:03:05Z</time>
      </trkpt>
      <trkpt lat="40.3196530" lon="-5.8574380">
        <ele>723.2</ele>
        <time>2021-10-15T15:03:06Z</time>
      </trkpt>
      <trkpt lat="40.3196590" lon="-5.8574130">
        <ele>723.2</ele>
        <time>2021-10-15T15:03:09Z</time>
      </trkpt>
      <trkpt lat="40.3196650" lon="-5.8573880">
        <ele>723.0</ele>
        <time>2021-10-15T15:03:11Z</time>
      </trkpt>
      <trkpt lat="40.3196710" lon="-5.8573620">
        <ele>723.0</ele>
        <time>2021-10-15T15:03:12Z</time>
      </trkpt>
      <trkpt lat="40.3196780" lon="-5.8573370">
        <ele>723.0</ele>
        <time>2021-10-15T15:03:13Z</time>
      </trkpt>
      <trkpt lat="40.3196840" lon="-5.8573110">
        <ele>723.0</ele>
        <time>2021-10-15T15:03:14Z</time>
      </trkpt>
      <trkpt lat="40.3196900" lon="-5.8572860">
        <ele>723.0</ele>
        <time>2021-10-15T15:03:15Z</time>
      </trkpt>
      <trkpt lat="40.3197340" lon="-5.8572640">
        <ele>723.0</ele>
        <time>2021-10-15T15:03:16Z</time>
      </trkpt>
      <trkpt lat="40.3198120" lon="-5.8571630">
        <ele>723.0</ele>
        <time>2021-10-15T15:03:19Z</time>
      </trkpt>
      <trkpt lat="40.3198120" lon="-5.8571380">
        <ele>723.0</ele>
        <time>2021-10-15T15:03:20Z</time>
      </trkpt>
      <trkpt lat="40.3198990" lon="-5.8572260">
        <ele>723.0</ele>
        <time>2021-10-15T15:03:22Z</time>
      </trkpt>
      <trkpt lat="40.3199030" lon="-5.8572700">
        <ele>723.0</ele>
        <time>2021-10-15T15:03:25Z</time>
      </trkpt>
      <trkpt lat="40.3199460" lon="-5.8572790">
        <ele>723.0</ele>
        <time>2021-10-15T15:03:27Z</time>
      </trkpt>
      <trkpt lat="40.3199520" lon="-5.8572690">
        <ele>723.0</ele>
        <time>2021-10-15T15:03:28Z</time>
      </trkpt>
      <trkpt lat="40.3199960" lon="-5.8572690">
        <ele>723.0</ele>
        <time>2021-10-15T15:03:30Z</time>
      </trkpt>
      <trkpt lat="40.3200670" lon="-5.8572460">
        <ele>723.0</ele>
        <time>2021-10-15T15:03:34Z</time>
      </trkpt>
      <trkpt lat="40.3200510" lon="-5.8572360">
        <ele>723.0</ele>
        <time>2021-10-15T15:03:35Z</time>
      </trkpt>
      <trkpt lat="40.3199960" lon="-5.8572330">
        <ele>723.0</ele>
        <time>2021-10-15T15:03:37Z</time>
      </trkpt>
      <trkpt lat="40.3199210" lon="-5.8572200">
        <ele>723.2</ele>
        <time>2021-10-15T15:03:41Z</time>
      </trkpt>
      <trkpt lat="40.3199060" lon="-5.8572270">
        <ele>723.2</ele>
        <time>2021-10-15T15:03:42Z</time>
      </trkpt>
      <trkpt lat="40.3198840" lon="-5.8572250">
        <ele>723.2</ele>
        <time>2021-10-15T15:03:45Z</time>
      </trkpt>
      <trkpt lat="40.3198980" lon="-5.8572870">
        <ele>723.0</ele>
        <time>2021-10-15T15:03:50Z</time>
      </trkpt>
      <trkpt lat="40.3198910" lon="-5.8572950">
        <ele>723.0</ele>
        <time>2021-10-15T15:03:51Z</time>
      </trkpt>
      <trkpt lat="40.3198200" lon="-5.8573500">
        <ele>723.0</ele>
        <time>2021-10-15T15:03:54Z</time>
      </trkpt>
      <trkpt lat="40.3199090" lon="-5.8574340">
        <ele>723.0</ele>
        <time>2021-10-15T15:03:59Z</time>
      </trkpt>
      <trkpt lat="40.3198780" lon="-5.8573870">
        <ele>723.0</ele>
        <time>2021-10-15T15:04:02Z</time>
      </trkpt>
      <trkpt lat="40.3198430" lon="-5.8573800">
        <ele>723.0</ele>
        <time>2021-10-15T15:04:03Z</time>
      </trkpt>
      <trkpt lat="40.3198260" lon="-5.8573690">
        <ele>723.0</ele>
        <time>2021-10-15T15:04:04Z</time>
      </trkpt>
      <trkpt lat="40.3198540" lon="-5.8573330">
        <ele>723.0</ele>
        <time>2021-10-15T15:04:07Z</time>
      </trkpt>
      <trkpt lat="40.3198900" lon="-5.8572890">
        <ele>723.0</ele>
        <time>2021-10-15T15:04:12Z</time>
      </trkpt>
      <trkpt lat="40.3198570" lon="-5.8572710">
        <ele>723.2</ele>
        <time>2021-10-15T15:04:17Z</time>
      </trkpt>
      <trkpt lat="40.3198510" lon="-5.8572640">
        <ele>723.2</ele>
        <time>2021-10-15T15:04:18Z</time>
      </trkpt>
      <trkpt lat="40.3198490" lon="-5.8572430">
        <ele>723.2</ele>
        <time>2021-10-15T15:04:24Z</time>
      </trkpt>
      <trkpt lat="40.3198450" lon="-5.8572440">
        <ele>723.2</ele>
        <time>2021-10-15T15:04:26Z</time>
      </trkpt>
      <trkpt lat="40.3198450" lon="-5.8572450">
        <ele>723.2</ele>
        <time>2021-10-15T15:04:27Z</time>
      </trkpt>
      <trkpt lat="40.3198330" lon="-5.8573830">
        <ele>723.2</ele>
        <time>2021-10-15T15:05:29Z</time>
      </trkpt>
      <trkpt lat="40.3198410" lon="-5.8573600">
        <ele>723.2</ele>
        <time>2021-10-15T15:05:32Z</time>
      </trkpt>
      <trkpt lat="40.3198250" lon="-5.8573350">
        <ele>723.2</ele>
        <time>2021-10-15T15:05:36Z</time>
      </trkpt>
      <trkpt lat="40.3198290" lon="-5.8573500">
        <ele>723.2</ele>
        <time>2021-10-15T15:05:38Z</time>
      </trkpt>
      <trkpt lat="40.3198220" lon="-5.8573550">
        <ele>723.2</ele>
        <time>2021-10-15T15:05:39Z</time>
      </trkpt>
      <trkpt lat="40.3198260" lon="-5.8573640">
        <ele>723.2</ele>
        <time>2021-10-15T15:05:43Z</time>
      </trkpt>
      <trkpt lat="40.3198390" lon="-5.8573960">
        <ele>723.0</ele>
        <time>2021-10-15T15:05:47Z</time>
      </trkpt>
      <trkpt lat="40.3198530" lon="-5.8574050">
        <ele>723.0</ele>
        <time>2021-10-15T15:05:53Z</time>
      </trkpt>
      <trkpt lat="40.3198360" lon="-5.8574190">
        <ele>722.8</ele>
        <time>2021-10-15T15:06:01Z</time>
      </trkpt>
      <trkpt lat="40.3198390" lon="-5.8574150">
        <ele>722.8</ele>
        <time>2021-10-15T15:06:05Z</time>
      </trkpt>
      <trkpt lat="40.3197840" lon="-5.8572850">
        <ele>723.0</ele>
        <time>2021-10-15T15:09:00Z</time>
      </trkpt>
      <trkpt lat="40.3198220" lon="-5.8572850">
        <ele>723.0</ele>
        <time>2021-10-15T15:09:03Z</time>
      </trkpt>
      <trkpt lat="40.3198310" lon="-5.8572940">
        <ele>723.2</ele>
        <time>2021-10-15T15:09:06Z</time>
      </trkpt>
      <trkpt lat="40.3197570" lon="-5.8572800">
        <ele>723.6</ele>
        <time>2021-10-15T15:10:42Z</time>
      </trkpt>
      <trkpt lat="40.3197570" lon="-5.8572800">
        <ele>723.6</ele>
        <time>2021-10-15T15:10:43Z</time>
      </trkpt>
      <trkpt lat="40.3196030" lon="-5.8573100">
        <ele>723.6</ele>
        <time>2021-10-15T15:10:47Z</time>
      </trkpt>
      <trkpt lat="40.3195770" lon="-5.8573200">
        <ele>723.6</ele>
        <time>2021-10-15T15:10:48Z</time>
      </trkpt>
      <trkpt lat="40.3194770" lon="-5.8573180">
        <ele>723.6</ele>
        <time>2021-10-15T15:10:52Z</time>
      </trkpt>
      <trkpt lat="40.3194910" lon="-5.8573150">
        <ele>723.4</ele>
        <time>2021-10-15T15:10:54Z</time>
      </trkpt>
      <trkpt lat="40.3194690" lon="-5.8573270">
        <ele>723.4</ele>
        <time>2021-10-15T15:10:57Z</time>
      </trkpt>
      <trkpt lat="40.3194720" lon="-5.8573260">
        <ele>723.4</ele>
        <time>2021-10-15T15:10:58Z</time>
      </trkpt>
      <trkpt lat="40.3194960" lon="-5.8573310">
        <ele>723.4</ele>
        <time>2021-10-15T15:11:02Z</time>
      </trkpt>
      <trkpt lat="40.3195190" lon="-5.8573310">
        <ele>723.4</ele>
        <time>2021-10-15T15:11:03Z</time>
      </trkpt>
      <trkpt lat="40.3195360" lon="-5.8573340">
        <ele>723.4</ele>
        <time>2021-10-15T15:11:04Z</time>
      </trkpt>
      <trkpt lat="40.3195910" lon="-5.8573340">
        <ele>723.4</ele>
        <time>2021-10-15T15:11:07Z</time>
      </trkpt>
      <trkpt lat="40.3196140" lon="-5.8573420">
        <ele>723.4</ele>
        <time>2021-10-15T15:11:10Z</time>
      </trkpt>
      <trkpt lat="40.3195890" lon="-5.8573590">
        <ele>723.2</ele>
        <time>2021-10-15T15:11:14Z</time>
      </trkpt>
      <trkpt lat="40.3195330" lon="-5.8573910">
        <ele>723.6</ele>
        <time>2021-10-15T15:11:23Z</time>
      </trkpt>
      <trkpt lat="40.3197080" lon="-5.8573590">
        <ele>724.2</ele>
        <time>2021-10-15T15:14:52Z</time>
      </trkpt>
      <trkpt lat="40.3196790" lon="-5.8573640">
        <ele>724.2</ele>
        <time>2021-10-15T15:14:54Z</time>
      </trkpt>
      <trkpt lat="40.3196950" lon="-5.8573570">
        <ele>724.0</ele>
        <time>2021-10-15T15:14:57Z</time>
      </trkpt>
      <trkpt lat="40.3197000" lon="-5.8573510">
        <ele>724.0</ele>
        <time>2021-10-15T15:15:00Z</time>
      </trkpt>
      <trkpt lat="40.3199090" lon="-5.8573270">
        <ele>724.2</ele>
        <time>2021-10-15T15:16:01Z</time>
      </trkpt>
      <trkpt lat="40.3199070" lon="-5.8573260">
        <ele>724.2</ele>
        <time>2021-10-15T15:16:02Z</time>
      </trkpt>
      <trkpt lat="40.3198630" lon="-5.8573210">
        <ele>724.0</ele>
        <time>2021-10-15T15:16:06Z</time>
      </trkpt>
      <trkpt lat="40.3196250" lon="-5.8573610">
        <ele>724.6</ele>
        <time>2021-10-15T15:24:44Z</time>
      </trkpt>
      <trkpt lat="40.3196540" lon="-5.8573370">
        <ele>724.6</ele>
        <time>2021-10-15T15:24:47Z</time>
      </trkpt>
      <trkpt lat="40.3196460" lon="-5.8573380">
        <ele>724.6</ele>
        <time>2021-10-15T15:24:48Z</time>
      </trkpt>
      <trkpt lat="40.3197440" lon="-5.8573490">
        <ele>724.0</ele>
        <time>2021-10-15T15:56:42Z</time>
      </trkpt>
      <trkpt lat="40.3197320" lon="-5.8573480">
        <ele>724.0</ele>
        <time>2021-10-15T15:56:45Z</time>
      </trkpt>
      <trkpt lat="40.3197440" lon="-5.8573460">
        <ele>724.0</ele>
        <time>2021-10-15T15:56:47Z</time>
      </trkpt>
      <trkpt lat="40.3197680" lon="-5.8573730">
        <ele>723.8</ele>
        <time>2021-10-15T16:00:41Z</time>
      </trkpt>
      <trkpt lat="40.3197310" lon="-5.8573540">
        <ele>723.8</ele>
        <time>2021-10-15T16:00:43Z</time>
      </trkpt>
      <trkpt lat="40.3197060" lon="-5.8573630">
        <ele>723.8</ele>
        <time>2021-10-15T16:00:45Z</time>
      </trkpt>
      <trkpt lat="40.3197160" lon="-5.8573680">
        <ele>723.8</ele>
        <time>2021-10-15T16:00:47Z</time>
      </trkpt>
      <trkpt lat="40.3198490" lon="-5.8575020">
        <ele>723.8</ele>
        <time>2021-10-15T16:01:04Z</time>
      </trkpt>
      <trkpt lat="40.3198420" lon="-5.8575030">
        <ele>723.8</ele>
        <time>2021-10-15T16:01:06Z</time>
      </trkpt>
      <trkpt lat="40.3198360" lon="-5.8574940">
        <ele>723.8</ele>
        <time>2021-10-15T16:01:07Z</time>
      </trkpt>
      <trkpt lat="40.3198410" lon="-5.8574850">
        <ele>723.8</ele>
        <time>2021-10-15T16:01:09Z</time>
      </trkpt>
      <trkpt lat="40.3198870" lon="-5.8574110">
        <ele>724.0</ele>
        <time>2021-10-15T16:01:27Z</time>
      </trkpt>
      <trkpt lat="40.3198880" lon="-5.8573770">
        <ele>724.0</ele>
        <time>2021-10-15T16:01:29Z</time>
      </trkpt>
      <trkpt lat="40.3198800" lon="-5.8573800">
        <ele>724.0</ele>
        <time>2021-10-15T16:01:33Z</time>
      </trkpt>
      <trkpt lat="40.3198770" lon="-5.8573960">
        <ele>724.0</ele>
        <time>2021-10-15T16:01:34Z</time>
      </trkpt>
      <trkpt lat="40.3197840" lon="-5.8573420">
        <ele>724.0</ele>
        <time>2021-10-15T16:01:46Z</time>
      </trkpt>
      <trkpt lat="40.3198090" lon="-5.8573420">
        <ele>724.0</ele>
        <time>2021-10-15T16:01:48Z</time>
      </trkpt>
      <trkpt lat="40.3199150" lon="-5.8573270">
        <ele>724.0</ele>
        <time>2021-10-15T16:01:52Z</time>
      </trkpt>
      <trkpt lat="40.3198980" lon="-5.8572700">
        <ele>724.0</ele>
        <time>2021-10-15T16:01:57Z</time>
      </trkpt>
      <trkpt lat="40.3197220" lon="-5.8572800">
        <ele>723.0</ele>
        <time>2021-10-15T16:23:38Z</time>
      </trkpt>
      <trkpt lat="40.3197260" lon="-5.8572760">
        <ele>723.0</ele>
        <time>2021-10-15T16:23:40Z</time>
      </trkpt>
      <trkpt lat="40.3197370" lon="-5.8572450">
        <ele>723.0</ele>
        <time>2021-10-15T16:23:42Z</time>
      </trkpt>
      <trkpt lat="40.3197580" lon="-5.8572700">
        <ele>722.8</ele>
        <time>2021-10-15T16:23:44Z</time>
      </trkpt>
      <trkpt lat="40.3196940" lon="-5.8572790">
        <ele>722.8</ele>
        <time>2021-10-15T16:23:56Z</time>
      </trkpt>
      <trkpt lat="40.3196970" lon="-5.8572670">
        <ele>723.0</ele>
        <time>2021-10-15T16:23:57Z</time>
      </trkpt>
      <trkpt lat="40.3197230" lon="-5.8572410">
        <ele>723.0</ele>
        <time>2021-10-15T16:24:01Z</time>
      </trkpt>
      <trkpt lat="40.3197370" lon="-5.8572200">
        <ele>723.0</ele>
        <time>2021-10-15T16:24:03Z</time>
      </trkpt>
      <trkpt lat="40.3197230" lon="-5.8572450">
        <ele>723.0</ele>
        <time>2021-10-15T16:24:09Z</time>
      </trkpt>
      <trkpt lat="40.3197480" lon="-5.8572970">
        <ele>723.2</ele>
        <time>2021-10-15T16:24:12Z</time>
      </trkpt>
      <trkpt lat="40.3197650" lon="-5.8572670">
        <ele>723.2</ele>
        <time>2021-10-15T16:24:13Z</time>
      </trkpt>
      <trkpt lat="40.3197990" lon="-5.8572460">
        <ele>723.2</ele>
        <time>2021-10-15T16:24:16Z</time>
      </trkpt>
      <trkpt lat="40.3198060" lon="-5.8570100">
        <ele>723.2</ele>
        <time>2021-10-15T16:24:28Z</time>
      </trkpt>
      <trkpt lat="40.3199360" lon="-5.8569740">
        <ele>723.2</ele>
        <time>2021-10-15T16:24:33Z</time>
      </trkpt>
      <trkpt lat="40.3198730" lon="-5.8569700">
        <ele>723.4</ele>
        <time>2021-10-15T16:24:39Z</time>
      </trkpt>
      <trkpt lat="40.3198380" lon="-5.8570050">
        <ele>723.4</ele>
        <time>2021-10-15T16:24:42Z</time>
      </trkpt>
      <trkpt lat="40.3198720" lon="-5.8570120">
        <ele>723.4</ele>
        <time>2021-10-15T16:24:44Z</time>
      </trkpt>
      <trkpt lat="40.3199080" lon="-5.8570290">
        <ele>723.4</ele>
        <time>2021-10-15T16:24:46Z</time>
      </trkpt>
      <trkpt lat="40.3199260" lon="-5.8570390">
        <ele>723.4</ele>
        <time>2021-10-15T16:24:47Z</time>
      </trkpt>
      <trkpt lat="40.3198570" lon="-5.8572080">
        <ele>723.6</ele>
        <time>2021-10-15T16:24:51Z</time>
      </trkpt>
      <trkpt lat="40.3198410" lon="-5.8571620">
        <ele>723.4</ele>
        <time>2021-10-15T16:24:58Z</time>
      </trkpt>
      <trkpt lat="40.3198410" lon="-5.8571680">
        <ele>723.4</ele>
        <time>2021-10-15T16:25:01Z</time>
      </trkpt>
      <trkpt lat="40.3198580" lon="-5.8572540">
        <ele>723.2</ele>
        <time>2021-10-15T16:25:19Z</time>
      </trkpt>
      <trkpt lat="40.3198450" lon="-5.8572860">
        <ele>723.2</ele>
        <time>2021-10-15T16:25:20Z</time>
      </trkpt>
      <trkpt lat="40.3197560" lon="-5.8573490">
        <ele>723.2</ele>
        <time>2021-10-15T16:25:26Z</time>
      </trkpt>
      <trkpt lat="40.3197170" lon="-5.8573550">
        <ele>723.2</ele>
        <time>2021-10-15T16:25:28Z</time>
      </trkpt>
      <trkpt lat="40.3197160" lon="-5.8574200">
        <ele>723.2</ele>
        <time>2021-10-15T16:25:32Z</time>
      </trkpt>
      <trkpt lat="40.3197110" lon="-5.8574120">
        <ele>723.2</ele>
        <time>2021-10-15T16:25:33Z</time>
      </trkpt>
      <trkpt lat="40.3196320" lon="-5.8574000">
        <ele>723.2</ele>
        <time>2021-10-15T16:25:35Z</time>
      </trkpt>
      <trkpt lat="40.3198410" lon="-5.8572080">
        <ele>723.0</ele>
        <time>2021-10-15T16:26:00Z</time>
      </trkpt>
      <trkpt lat="40.3198360" lon="-5.8572200">
        <ele>723.0</ele>
        <time>2021-10-15T16:26:01Z</time>
      </trkpt>
      <trkpt lat="40.3197970" lon="-5.8573480">
        <ele>723.0</ele>
        <time>2021-10-15T16:26:07Z</time>
      </trkpt>
      <trkpt lat="40.3197800" lon="-5.8573730">
        <ele>723.0</ele>
        <time>2021-10-15T16:26:08Z</time>
      </trkpt>
      <trkpt lat="40.3198040" lon="-5.8575600">
        <ele>723.2</ele>
        <time>2021-10-15T16:27:27Z</time>
      </trkpt>
      <trkpt lat="40.3198270" lon="-5.8576670">
        <ele>723.2</ele>
        <time>2021-10-15T16:27:30Z</time>
      </trkpt>
      <trkpt lat="40.3198010" lon="-5.8576890">
        <ele>723.2</ele>
        <time>2021-10-15T16:27:34Z</time>
      </trkpt>
      <trkpt lat="40.3197930" lon="-5.8576720">
        <ele>723.2</ele>
        <time>2021-10-15T16:27:35Z</time>
      </trkpt>
      <trkpt lat="40.3198000" lon="-5.8576220">
        <ele>723.2</ele>
        <time>2021-10-15T16:27:37Z</time>
      </trkpt>
      <trkpt lat="40.3197980" lon="-5.8576000">
        <ele>723.2</ele>
        <time>2021-10-15T16:27:40Z</time>
      </trkpt>
      <trkpt lat="40.3198780" lon="-5.8573540">
        <ele>723.4</ele>
        <time>2021-10-15T16:28:48Z</time>
      </trkpt>
      <trkpt lat="40.3198230" lon="-5.8574050">
        <ele>723.4</ele>
        <time>2021-10-15T16:28:51Z</time>
      </trkpt>
      <trkpt lat="40.3197860" lon="-5.8574590">
        <ele>723.2</ele>
        <time>2021-10-15T16:28:57Z</time>
      </trkpt>
      <trkpt lat="40.3197920" lon="-5.8574260">
        <ele>723.0</ele>
        <time>2021-10-15T16:29:00Z</time>
      </trkpt>
      <trkpt lat="40.3197640" lon="-5.8574530">
        <ele>722.8</ele>
        <time>2021-10-15T16:29:02Z</time>
      </trkpt>
      <trkpt lat="40.3197810" lon="-5.8575180">
        <ele>722.6</ele>
        <time>2021-10-15T16:29:08Z</time>
      </trkpt>
      <trkpt lat="40.3197670" lon="-5.8575600">
        <ele>722.6</ele>
        <time>2021-10-15T16:29:10Z</time>
      </trkpt>
      <trkpt lat="40.3197040" lon="-5.8575800">
        <ele>722.4</ele>
        <time>2021-10-15T16:29:13Z</time>
      </trkpt>
      <trkpt lat="40.3196840" lon="-5.8575910">
        <ele>722.4</ele>
        <time>2021-10-15T16:29:15Z</time>
      </trkpt>
      <trkpt lat="40.3196870" lon="-5.8576130">
        <ele>722.4</ele>
        <time>2021-10-15T16:29:16Z</time>
      </trkpt>
      <trkpt lat="40.3196240" lon="-5.8576700">
        <ele>722.4</ele>
        <time>2021-10-15T16:29:20Z</time>
      </trkpt>
      <trkpt lat="40.3196080" lon="-5.8576370">
        <ele>722.2</ele>
        <time>2021-10-15T16:29:24Z</time>
      </trkpt>
      <trkpt lat="40.3196220" lon="-5.8576410">
        <ele>722.2</ele>
        <time>2021-10-15T16:29:28Z</time>
      </trkpt>
      <trkpt lat="40.3196390" lon="-5.8576560">
        <ele>722.4</ele>
        <time>2021-10-15T16:29:30Z</time>
      </trkpt>
      <trkpt lat="40.3196790" lon="-5.8577120">
        <ele>722.6</ele>
        <time>2021-10-15T16:29:36Z</time>
      </trkpt>
      <trkpt lat="40.3197160" lon="-5.8577150">
        <ele>722.8</ele>
        <time>2021-10-15T16:29:39Z</time>
      </trkpt>
      <trkpt lat="40.3197700" lon="-5.8577090">
        <ele>723.0</ele>
        <time>2021-10-15T16:29:43Z</time>
      </trkpt>
      <trkpt lat="40.3198740" lon="-5.8576700">
        <ele>723.0</ele>
        <time>2021-10-15T16:29:51Z</time>
      </trkpt>
      <trkpt lat="40.3199590" lon="-5.8576560">
        <ele>723.6</ele>
        <time>2021-10-15T16:29:59Z</time>
      </trkpt>
      <trkpt lat="40.3200070" lon="-5.8576350">
        <ele>723.8</ele>
        <time>2021-10-15T16:30:04Z</time>
      </trkpt>
      <trkpt lat="40.3200280" lon="-5.8576140">
        <ele>723.8</ele>
        <time>2021-10-15T16:30:06Z</time>
      </trkpt>
      <trkpt lat="40.3200380" lon="-5.8576060">
        <ele>723.8</ele>
        <time>2021-10-15T16:30:07Z</time>
      </trkpt>
      <trkpt lat="40.3200680" lon="-5.8575960">
        <ele>724.2</ele>
        <time>2021-10-15T16:30:10Z</time>
      </trkpt>
      <trkpt lat="40.3200830" lon="-5.8576220">
        <ele>724.2</ele>
        <time>2021-10-15T16:30:12Z</time>
      </trkpt>
      <trkpt lat="40.3200940" lon="-5.8576300">
        <ele>724.2</ele>
        <time>2021-10-15T16:30:13Z</time>
      </trkpt>
      <trkpt lat="40.3201620" lon="-5.8576850">
        <ele>724.2</ele>
        <time>2021-10-15T16:30:19Z</time>
      </trkpt>
      <trkpt lat="40.3202210" lon="-5.8577860">
        <ele>723.8</ele>
        <time>2021-10-15T16:30:26Z</time>
      </trkpt>
      <trkpt lat="40.3202470" lon="-5.8578180">
        <ele>723.4</ele>
        <time>2021-10-15T16:30:30Z</time>
      </trkpt>
      <trkpt lat="40.3202610" lon="-5.8578310">
        <ele>723.0</ele>
        <time>2021-10-15T16:30:32Z</time>
      </trkpt>
      <trkpt lat="40.3202560" lon="-5.8578280">
        <ele>723.0</ele>
        <time>2021-10-15T16:30:33Z</time>
      </trkpt>
      <trkpt lat="40.3202080" lon="-5.8578210">
        <ele>722.8</ele>
        <time>2021-10-15T16:30:35Z</time>
      </trkpt>
      <trkpt lat="40.3202080" lon="-5.8578210">
        <ele>722.2</ele>
        <time>2021-10-15T16:30:51Z</time>
      </trkpt>
      <trkpt lat="40.3202080" lon="-5.8578210">
        <ele>723.0</ele>
        <time>2021-10-15T16:32:05Z</time>
      </trkpt>
      <trkpt lat="40.3202080" lon="-5.8578210">
        <ele>722.8</ele>
        <time>2021-10-15T16:33:25Z</time>
      </trkpt>
      <trkpt lat="40.3202080" lon="-5.8578210">
        <ele>722.6</ele>
        <time>2021-10-15T16:34:33Z</time>
      </trkpt>
      <trkpt lat="40.3201640" lon="-5.8577070">
        <ele>723.8</ele>
        <time>2021-10-15T16:35:22Z</time>
      </trkpt>
      <trkpt lat="40.3201820" lon="-5.8576850">
        <ele>723.8</ele>
        <time>2021-10-15T16:35:23Z</time>
      </trkpt>
      <trkpt lat="40.3201550" lon="-5.8576530">
        <ele>724.6</ele>
        <time>2021-10-15T16:35:26Z</time>
      </trkpt>
      <trkpt lat="40.3201340" lon="-5.8576230">
        <ele>725.0</ele>
        <time>2021-10-15T16:35:28Z</time>
      </trkpt>
      <trkpt lat="40.3200990" lon="-5.8576070">
        <ele>725.4</ele>
        <time>2021-10-15T16:35:31Z</time>
      </trkpt>
      <trkpt lat="40.3200070" lon="-5.8575960">
        <ele>724.8</ele>
        <time>2021-10-15T16:37:30Z</time>
      </trkpt>
      <trkpt lat="40.3199890" lon="-5.8575970">
        <ele>724.8</ele>
        <time>2021-10-15T16:37:31Z</time>
      </trkpt>
      <trkpt lat="40.3198460" lon="-5.8576350">
        <ele>724.6</ele>
        <time>2021-10-15T16:37:36Z</time>
      </trkpt>
      <trkpt lat="40.3196790" lon="-5.8577180">
        <ele>724.0</ele>
        <time>2021-10-15T16:37:41Z</time>
      </trkpt>
      <trkpt lat="40.3196140" lon="-5.8577660">
        <ele>723.8</ele>
        <time>2021-10-15T16:37:43Z</time>
      </trkpt>
      <trkpt lat="40.3195350" lon="-5.8578410">
        <ele>723.4</ele>
        <time>2021-10-15T16:37:45Z</time>
      </trkpt>
      <trkpt lat="40.3193780" lon="-5.8579730">
        <ele>723.0</ele>
        <time>2021-10-15T16:37:49Z</time>
      </trkpt>
      <trkpt lat="40.3193400" lon="-5.8580080">
        <ele>723.0</ele>
        <time>2021-10-15T16:37:50Z</time>
      </trkpt>
      <trkpt lat="40.3192620" lon="-5.8580740">
        <ele>722.8</ele>
        <time>2021-10-15T16:37:52Z</time>
      </trkpt>
      <trkpt lat="40.3191940" lon="-5.8581310">
        <ele>722.4</ele>
        <time>2021-10-15T16:37:54Z</time>
      </trkpt>
      <trkpt lat="40.3191190" lon="-5.8582070">
        <ele>722.2</ele>
        <time>2021-10-15T16:37:56Z</time>
      </trkpt>
      <trkpt lat="40.3190860" lon="-5.8582330">
        <ele>721.8</ele>
        <time>2021-10-15T16:37:57Z</time>
      </trkpt>
      <trkpt lat="40.3189460" lon="-5.8583640">
        <ele>721.0</ele>
        <time>2021-10-15T16:38:02Z</time>
      </trkpt>
      <trkpt lat="40.3189110" lon="-5.8584050">
        <ele>720.8</ele>
        <time>2021-10-15T16:38:04Z</time>
      </trkpt>
      <trkpt lat="40.3188870" lon="-5.8584370">
        <ele>720.6</ele>
        <time>2021-10-15T16:38:06Z</time>
      </trkpt>
      <trkpt lat="40.3188660" lon="-5.8584700">
        <ele>720.4</ele>
        <time>2021-10-15T16:38:09Z</time>
      </trkpt>
      <trkpt lat="40.3188690" lon="-5.8584750">
        <ele>720.4</ele>
        <time>2021-10-15T16:38:10Z</time>
      </trkpt>
      <trkpt lat="40.3188700" lon="-5.8584790">
        <ele>720.2</ele>
        <time>2021-10-15T16:38:11Z</time>
      </trkpt>
      <trkpt lat="40.3187220" lon="-5.8585700">
        <ele>719.2</ele>
        <time>2021-10-15T16:41:47Z</time>
      </trkpt>
      <trkpt lat="40.3186800" lon="-5.8585880">
        <ele>719.2</ele>
        <time>2021-10-15T16:41:49Z</time>
      </trkpt>
      <trkpt lat="40.3185530" lon="-5.8586740">
        <ele>719.0</ele>
        <time>2021-10-15T16:41:54Z</time>
      </trkpt>
      <trkpt lat="40.3184210" lon="-5.8587700">
        <ele>718.8</ele>
        <time>2021-10-15T16:41:59Z</time>
      </trkpt>
      <trkpt lat="40.3182070" lon="-5.8589100">
        <ele>718.4</ele>
        <time>2021-10-15T16:42:05Z</time>
      </trkpt>
      <trkpt lat="40.3180830" lon="-5.8589760">
        <ele>718.2</ele>
        <time>2021-10-15T16:42:08Z</time>
      </trkpt>
      <trkpt lat="40.3179140" lon="-5.8590760">
        <ele>717.6</ele>
        <time>2021-10-15T16:42:12Z</time>
      </trkpt>
      <trkpt lat="40.3176410" lon="-5.8592090">
        <ele>717.0</ele>
        <time>2021-10-15T16:42:18Z</time>
      </trkpt>
      <trkpt lat="40.3175040" lon="-5.8592780">
        <ele>717.0</ele>
        <time>2021-10-15T16:42:21Z</time>
      </trkpt>
      <trkpt lat="40.3174590" lon="-5.8593010">
        <ele>717.0</ele>
        <time>2021-10-15T16:42:22Z</time>
      </trkpt>
      <trkpt lat="40.3172160" lon="-5.8594170">
        <ele>716.4</ele>
        <time>2021-10-15T16:42:27Z</time>
      </trkpt>
      <trkpt lat="40.3170770" lon="-5.8594750">
        <ele>716.0</ele>
        <time>2021-10-15T16:42:30Z</time>
      </trkpt>
      <trkpt lat="40.3169880" lon="-5.8595080">
        <ele>715.8</ele>
        <time>2021-10-15T16:42:32Z</time>
      </trkpt>
      <trkpt lat="40.3169450" lon="-5.8595300">
        <ele>715.8</ele>
        <time>2021-10-15T16:42:33Z</time>
      </trkpt>
      <trkpt lat="40.3166360" lon="-5.8596740">
        <ele>715.0</ele>
        <time>2021-10-15T16:42:40Z</time>
      </trkpt>
      <trkpt lat="40.3165880" lon="-5.8596970">
        <ele>714.8</ele>
        <time>2021-10-15T16:42:41Z</time>
      </trkpt>
      <trkpt lat="40.3163370" lon="-5.8598200">
        <ele>714.2</ele>
        <time>2021-10-15T16:42:46Z</time>
      </trkpt>
      <trkpt lat="40.3162840" lon="-5.8598460">
        <ele>714.0</ele>
        <time>2021-10-15T16:42:47Z</time>
      </trkpt>
      <trkpt lat="40.3161160" lon="-5.8599170">
        <ele>713.4</ele>
        <time>2021-10-15T16:42:50Z</time>
      </trkpt>
      <trkpt lat="40.3158080" lon="-5.8600280">
        <ele>712.8</ele>
        <time>2021-10-15T16:42:56Z</time>
      </trkpt>
      <trkpt lat="40.3157580" lon="-5.8600430">
        <ele>712.8</ele>
        <time>2021-10-15T16:42:57Z</time>
      </trkpt>
      <trkpt lat="40.3155680" lon="-5.8601310">
        <ele>711.6</ele>
        <time>2021-10-15T16:43:01Z</time>
      </trkpt>
      <trkpt lat="40.3154740" lon="-5.8601710">
        <ele>711.2</ele>
        <time>2021-10-15T16:43:03Z</time>
      </trkpt>
      <trkpt lat="40.3152860" lon="-5.8602390">
        <ele>710.4</ele>
        <time>2021-10-15T16:43:07Z</time>
      </trkpt>
      <trkpt lat="40.3151950" lon="-5.8602740">
        <ele>710.2</ele>
        <time>2021-10-15T16:43:09Z</time>
      </trkpt>
      <trkpt lat="40.3151110" lon="-5.8603270">
        <ele>709.8</ele>
        <time>2021-10-15T16:43:11Z</time>
      </trkpt>
      <trkpt lat="40.3149800" lon="-5.8603900">
        <ele>709.4</ele>
        <time>2021-10-15T16:43:14Z</time>
      </trkpt>
      <trkpt lat="40.3148450" lon="-5.8604660">
        <ele>709.0</ele>
        <time>2021-10-15T16:43:17Z</time>
      </trkpt>
      <trkpt lat="40.3147990" lon="-5.8604920">
        <ele>708.8</ele>
        <time>2021-10-15T16:43:18Z</time>
      </trkpt>
      <trkpt lat="40.3145710" lon="-5.8606450">
        <ele>708.4</ele>
        <time>2021-10-15T16:43:23Z</time>
      </trkpt>
      <trkpt lat="40.3143080" lon="-5.8608370">
        <ele>708.0</ele>
        <time>2021-10-15T16:43:29Z</time>
      </trkpt>
      <trkpt lat="40.3140170" lon="-5.8610560">
        <ele>707.6</ele>
        <time>2021-10-15T16:43:36Z</time>
      </trkpt>
      <trkpt lat="40.3139450" lon="-5.8611250">
        <ele>707.4</ele>
        <time>2021-10-15T16:43:38Z</time>
      </trkpt>
      <trkpt lat="40.3137620" lon="-5.8613290">
        <ele>707.0</ele>
        <time>2021-10-15T16:43:43Z</time>
      </trkpt>
      <trkpt lat="40.3135410" lon="-5.8617040">
        <ele>706.8</ele>
        <time>2021-10-15T16:43:50Z</time>
      </trkpt>
      <trkpt lat="40.3134410" lon="-5.8618950">
        <ele>706.4</ele>
        <time>2021-10-15T16:43:54Z</time>
      </trkpt>
      <trkpt lat="40.3134200" lon="-5.8619430">
        <ele>706.4</ele>
        <time>2021-10-15T16:43:55Z</time>
      </trkpt>
      <trkpt lat="40.3133810" lon="-5.8620400">
        <ele>706.4</ele>
        <time>2021-10-15T16:43:57Z</time>
      </trkpt>
      <trkpt lat="40.3131870" lon="-5.8623550">
        <ele>706.2</ele>
        <time>2021-10-15T16:44:04Z</time>
      </trkpt>
      <trkpt lat="40.3131580" lon="-5.8623820">
        <ele>706.2</ele>
        <time>2021-10-15T16:44:05Z</time>
      </trkpt>
      <trkpt lat="40.3129890" lon="-5.8625380">
        <ele>706.0</ele>
        <time>2021-10-15T16:44:11Z</time>
      </trkpt>
      <trkpt lat="40.3129290" lon="-5.8625850">
        <ele>705.6</ele>
        <time>2021-10-15T16:44:16Z</time>
      </trkpt>
      <trkpt lat="40.3129090" lon="-5.8626040">
        <ele>705.4</ele>
        <time>2021-10-15T16:44:18Z</time>
      </trkpt>
      <trkpt lat="40.3129060" lon="-5.8626070">
        <ele>705.2</ele>
        <time>2021-10-15T16:44:20Z</time>
      </trkpt>
      <trkpt lat="40.3128620" lon="-5.8626170">
        <ele>703.8</ele>
        <time>2021-10-15T16:44:57Z</time>
      </trkpt>
      <trkpt lat="40.3127200" lon="-5.8627190">
        <ele>703.6</ele>
        <time>2021-10-15T16:45:02Z</time>
      </trkpt>
      <trkpt lat="40.3126470" lon="-5.8627760">
        <ele>703.4</ele>
        <time>2021-10-15T16:45:04Z</time>
      </trkpt>
      <trkpt lat="40.3125720" lon="-5.8628340">
        <ele>703.2</ele>
        <time>2021-10-15T16:45:06Z</time>
      </trkpt>
      <trkpt lat="40.3124970" lon="-5.8628960">
        <ele>703.0</ele>
        <time>2021-10-15T16:45:08Z</time>
      </trkpt>
      <trkpt lat="40.3124620" lon="-5.8629310">
        <ele>702.6</ele>
        <time>2021-10-15T16:45:09Z</time>
      </trkpt>
      <trkpt lat="40.3123790" lon="-5.8629970">
        <ele>702.4</ele>
        <time>2021-10-15T16:45:11Z</time>
      </trkpt>
      <trkpt lat="40.3122140" lon="-5.8631290">
        <ele>701.8</ele>
        <time>2021-10-15T16:45:15Z</time>
      </trkpt>
      <trkpt lat="40.3121650" lon="-5.8631470">
        <ele>701.4</ele>
        <time>2021-10-15T16:45:16Z</time>
      </trkpt>
      <trkpt lat="40.3121120" lon="-5.8631600">
        <ele>701.2</ele>
        <time>2021-10-15T16:45:17Z</time>
      </trkpt>
      <trkpt lat="40.3120140" lon="-5.8631950">
        <ele>700.6</ele>
        <time>2021-10-15T16:45:19Z</time>
      </trkpt>
      <trkpt lat="40.3119670" lon="-5.8632170">
        <ele>699.8</ele>
        <time>2021-10-15T16:45:20Z</time>
      </trkpt>
      <trkpt lat="40.3118730" lon="-5.8632650">
        <ele>698.4</ele>
        <time>2021-10-15T16:45:22Z</time>
      </trkpt>
      <trkpt lat="40.3118220" lon="-5.8632810">
        <ele>698.0</ele>
        <time>2021-10-15T16:45:23Z</time>
      </trkpt>
      <trkpt lat="40.3117220" lon="-5.8633100">
        <ele>697.0</ele>
        <time>2021-10-15T16:45:25Z</time>
      </trkpt>
      <trkpt lat="40.3116010" lon="-5.8633750">
        <ele>696.4</ele>
        <time>2021-10-15T16:45:28Z</time>
      </trkpt>
      <trkpt lat="40.3115620" lon="-5.8633970">
        <ele>695.6</ele>
        <time>2021-10-15T16:45:29Z</time>
      </trkpt>
      <trkpt lat="40.3114310" lon="-5.8634840">
        <ele>693.8</ele>
        <time>2021-10-15T16:45:33Z</time>
      </trkpt>
      <trkpt lat="40.3114030" lon="-5.8635090">
        <ele>693.4</ele>
        <time>2021-10-15T16:45:34Z</time>
      </trkpt>
      <trkpt lat="40.3112340" lon="-5.8636770">
        <ele>692.8</ele>
        <time>2021-10-15T16:45:39Z</time>
      </trkpt>
      <trkpt lat="40.3111760" lon="-5.8637410">
        <ele>691.8</ele>
        <time>2021-10-15T16:45:42Z</time>
      </trkpt>
      <trkpt lat="40.3111710" lon="-5.8637460">
        <ele>691.8</ele>
        <time>2021-10-15T16:45:43Z</time>
      </trkpt>
      <trkpt lat="40.3111710" lon="-5.8637460">
        <ele>691.0</ele>
        <time>2021-10-15T16:45:46Z</time>
      </trkpt>
      <trkpt lat="40.3111440" lon="-5.8637660">
        <ele>690.2</ele>
        <time>2021-10-15T16:47:06Z</time>
      </trkpt>
      <trkpt lat="40.3110890" lon="-5.8638040">
        <ele>690.0</ele>
        <time>2021-10-15T16:47:08Z</time>
      </trkpt>
      <trkpt lat="40.3109070" lon="-5.8639370">
        <ele>689.4</ele>
        <time>2021-10-15T16:47:13Z</time>
      </trkpt>
      <trkpt lat="40.3108300" lon="-5.8639940">
        <ele>688.6</ele>
        <time>2021-10-15T16:47:15Z</time>
      </trkpt>
      <trkpt lat="40.3107450" lon="-5.8640530">
        <ele>687.4</ele>
        <time>2021-10-15T16:47:18Z</time>
      </trkpt>
      <trkpt lat="40.3106360" lon="-5.8641070">
        <ele>686.4</ele>
        <time>2021-10-15T16:47:22Z</time>
      </trkpt>
      <trkpt lat="40.3105780" lon="-5.8641330">
        <ele>685.8</ele>
        <time>2021-10-15T16:47:24Z</time>
      </trkpt>
      <trkpt lat="40.3104330" lon="-5.8642210">
        <ele>685.2</ele>
        <time>2021-10-15T16:47:28Z</time>
      </trkpt>
      <trkpt lat="40.3103970" lon="-5.8642500">
        <ele>684.8</ele>
        <time>2021-10-15T16:47:29Z</time>
      </trkpt>
      <trkpt lat="40.3102650" lon="-5.8643310">
        <ele>684.2</ele>
        <time>2021-10-15T16:47:32Z</time>
      </trkpt>
      <trkpt lat="40.3101660" lon="-5.8643990">
        <ele>683.6</ele>
        <time>2021-10-15T16:47:34Z</time>
      </trkpt>
      <trkpt lat="40.3100760" lon="-5.8644670">
        <ele>682.8</ele>
        <time>2021-10-15T16:47:36Z</time>
      </trkpt>
      <trkpt lat="40.3099880" lon="-5.8645410">
        <ele>682.2</ele>
        <time>2021-10-15T16:47:38Z</time>
      </trkpt>
      <trkpt lat="40.3098970" lon="-5.8645910">
        <ele>682.0</ele>
        <time>2021-10-15T16:47:40Z</time>
      </trkpt>
      <trkpt lat="40.3098590" lon="-5.8646120">
        <ele>681.8</ele>
        <time>2021-10-15T16:47:41Z</time>
      </trkpt>
      <trkpt lat="40.3097770" lon="-5.8646590">
        <ele>681.4</ele>
        <time>2021-10-15T16:47:43Z</time>
      </trkpt>
      <trkpt lat="40.3097000" lon="-5.8647210">
        <ele>681.0</ele>
        <time>2021-10-15T16:47:45Z</time>
      </trkpt>
      <trkpt lat="40.3096650" lon="-5.8647550">
        <ele>680.6</ele>
        <time>2021-10-15T16:47:46Z</time>
      </trkpt>
      <trkpt lat="40.3095780" lon="-5.8648220">
        <ele>680.2</ele>
        <time>2021-10-15T16:47:48Z</time>
      </trkpt>
      <trkpt lat="40.3094830" lon="-5.8648790">
        <ele>679.6</ele>
        <time>2021-10-15T16:47:50Z</time>
      </trkpt>
      <trkpt lat="40.3094400" lon="-5.8649020">
        <ele>679.2</ele>
        <time>2021-10-15T16:47:51Z</time>
      </trkpt>
      <trkpt lat="40.3093690" lon="-5.8649290">
        <ele>678.4</ele>
        <time>2021-10-15T16:47:53Z</time>
      </trkpt>
      <trkpt lat="40.3093240" lon="-5.8649560">
        <ele>678.2</ele>
        <time>2021-10-15T16:47:55Z</time>
      </trkpt>
      <trkpt lat="40.3092470" lon="-5.8649940">
        <ele>678.4</ele>
        <time>2021-10-15T16:48:00Z</time>
      </trkpt>
      <trkpt lat="40.3091760" lon="-5.8650270">
        <ele>678.6</ele>
        <time>2021-10-15T16:48:07Z</time>
      </trkpt>
      <trkpt lat="40.3091640" lon="-5.8650220">
        <ele>678.6</ele>
        <time>2021-10-15T16:48:08Z</time>
      </trkpt>
      <trkpt lat="40.3091520" lon="-5.8650210">
        <ele>678.6</ele>
        <time>2021-10-15T16:48:09Z</time>
      </trkpt>
      <trkpt lat="40.3091190" lon="-5.8650370">
        <ele>678.8</ele>
        <time>2021-10-15T16:48:12Z</time>
      </trkpt>
      <trkpt lat="40.3091160" lon="-5.8650410">
        <ele>678.8</ele>
        <time>2021-10-15T16:48:13Z</time>
      </trkpt>
      <trkpt lat="40.3091160" lon="-5.8650410">
        <ele>678.8</ele>
        <time>2021-10-15T16:48:15Z</time>
      </trkpt>
      <trkpt lat="40.3090930" lon="-5.8650590">
        <ele>678.6</ele>
        <time>2021-10-15T16:48:46Z</time>
      </trkpt>
      <trkpt lat="40.3090680" lon="-5.8650780">
        <ele>678.6</ele>
        <time>2021-10-15T16:48:47Z</time>
      </trkpt>
      <trkpt lat="40.3088260" lon="-5.8652050">
        <ele>678.6</ele>
        <time>2021-10-15T16:48:54Z</time>
      </trkpt>
      <trkpt lat="40.3086180" lon="-5.8653590">
        <ele>679.2</ele>
        <time>2021-10-15T16:49:00Z</time>
      </trkpt>
      <trkpt lat="40.3084010" lon="-5.8655840">
        <ele>679.2</ele>
        <time>2021-10-15T16:49:07Z</time>
      </trkpt>
      <trkpt lat="40.3081760" lon="-5.8658710">
        <ele>679.4</ele>
        <time>2021-10-15T16:49:15Z</time>
      </trkpt>
      <trkpt lat="40.3081060" lon="-5.8659670">
        <ele>679.6</ele>
        <time>2021-10-15T16:49:18Z</time>
      </trkpt>
      <trkpt lat="40.3080570" lon="-5.8660520">
        <ele>679.8</ele>
        <time>2021-10-15T16:49:21Z</time>
      </trkpt>
      <trkpt lat="40.3079250" lon="-5.8662710">
        <ele>680.8</ele>
        <time>2021-10-15T16:49:28Z</time>
      </trkpt>
      <trkpt lat="40.3079060" lon="-5.8662960">
        <ele>681.0</ele>
        <time>2021-10-15T16:49:29Z</time>
      </trkpt>
      <trkpt lat="40.3077980" lon="-5.8664420">
        <ele>682.0</ele>
        <time>2021-10-15T16:49:35Z</time>
      </trkpt>
      <trkpt lat="40.3077830" lon="-5.8664680">
        <ele>682.0</ele>
        <time>2021-10-15T16:49:36Z</time>
      </trkpt>
      <trkpt lat="40.3077620" lon="-5.8664880">
        <ele>682.2</ele>
        <time>2021-10-15T16:49:37Z</time>
      </trkpt>
      <trkpt lat="40.3077180" lon="-5.8664980">
        <ele>682.4</ele>
        <time>2021-10-15T16:49:39Z</time>
      </trkpt>
      <trkpt lat="40.3076580" lon="-5.8665500">
        <ele>683.0</ele>
        <time>2021-10-15T16:49:42Z</time>
      </trkpt>
      <trkpt lat="40.3075930" lon="-5.8666210">
        <ele>683.4</ele>
        <time>2021-10-15T16:49:45Z</time>
      </trkpt>
      <trkpt lat="40.3073830" lon="-5.8668700">
        <ele>684.0</ele>
        <time>2021-10-15T16:49:54Z</time>
      </trkpt>
      <trkpt lat="40.3073320" lon="-5.8669290">
        <ele>684.0</ele>
        <time>2021-10-15T16:49:56Z</time>
      </trkpt>
      <trkpt lat="40.3071350" lon="-5.8671610">
        <ele>684.6</ele>
        <time>2021-10-15T16:50:04Z</time>
      </trkpt>
      <trkpt lat="40.3068400" lon="-5.8674910">
        <ele>684.8</ele>
        <time>2021-10-15T16:50:15Z</time>
      </trkpt>
      <trkpt lat="40.3067280" lon="-5.8675840">
        <ele>685.0</ele>
        <time>2021-10-15T16:50:19Z</time>
      </trkpt>
      <trkpt lat="40.3067040" lon="-5.8676140">
        <ele>685.0</ele>
        <time>2021-10-15T16:50:20Z</time>
      </trkpt>
      <trkpt lat="40.3065730" lon="-5.8677570">
        <ele>685.2</ele>
        <time>2021-10-15T16:50:25Z</time>
      </trkpt>
      <trkpt lat="40.3064350" lon="-5.8678960">
        <ele>685.4</ele>
        <time>2021-10-15T16:50:30Z</time>
      </trkpt>
      <trkpt lat="40.3061130" lon="-5.8681570">
        <ele>685.6</ele>
        <time>2021-10-15T16:50:40Z</time>
      </trkpt>
      <trkpt lat="40.3058250" lon="-5.8683990">
        <ele>685.8</ele>
        <time>2021-10-15T16:50:49Z</time>
      </trkpt>
      <trkpt lat="40.3055250" lon="-5.8686440">
        <ele>686.4</ele>
        <time>2021-10-15T16:50:59Z</time>
      </trkpt>
      <trkpt lat="40.3054950" lon="-5.8686660">
        <ele>686.4</ele>
        <time>2021-10-15T16:51:00Z</time>
      </trkpt>
      <trkpt lat="40.3051940" lon="-5.8688630">
        <ele>687.0</ele>
        <time>2021-10-15T16:51:10Z</time>
      </trkpt>
      <trkpt lat="40.3049220" lon="-5.8689830">
        <ele>687.0</ele>
        <time>2021-10-15T16:51:17Z</time>
      </trkpt>
      <trkpt lat="40.3045940" lon="-5.8691180">
        <ele>686.0</ele>
        <time>2021-10-15T16:51:23Z</time>
      </trkpt>
      <trkpt lat="40.3044010" lon="-5.8691790">
        <ele>685.2</ele>
        <time>2021-10-15T16:51:26Z</time>
      </trkpt>
      <trkpt lat="40.3041860" lon="-5.8692280">
        <ele>684.6</ele>
        <time>2021-10-15T16:51:29Z</time>
      </trkpt>
      <trkpt lat="40.3041090" lon="-5.8692420">
        <ele>684.2</ele>
        <time>2021-10-15T16:51:30Z</time>
      </trkpt>
      <trkpt lat="40.3037830" lon="-5.8692910">
        <ele>683.0</ele>
        <time>2021-10-15T16:51:34Z</time>
      </trkpt>
      <trkpt lat="40.3037030" lon="-5.8693090">
        <ele>682.6</ele>
        <time>2021-10-15T16:51:35Z</time>
      </trkpt>
      <trkpt lat="40.3035490" lon="-5.8693580">
        <ele>681.6</ele>
        <time>2021-10-15T16:51:37Z</time>
      </trkpt>
      <trkpt lat="40.3033270" lon="-5.8694520">
        <ele>680.6</ele>
        <time>2021-10-15T16:51:40Z</time>
      </trkpt>
      <trkpt lat="40.3031850" lon="-5.8695210">
        <ele>680.0</ele>
        <time>2021-10-15T16:51:42Z</time>
      </trkpt>
      <trkpt lat="40.3029740" lon="-5.8696250">
        <ele>679.8</ele>
        <time>2021-10-15T16:51:45Z</time>
      </trkpt>
      <trkpt lat="40.3026280" lon="-5.8697760">
        <ele>678.6</ele>
        <time>2021-10-15T16:51:50Z</time>
      </trkpt>
      <trkpt lat="40.3021650" lon="-5.8699920">
        <ele>677.6</ele>
        <time>2021-10-15T16:51:57Z</time>
      </trkpt>
      <trkpt lat="40.3019000" lon="-5.8701150">
        <ele>676.8</ele>
        <time>2021-10-15T16:52:01Z</time>
      </trkpt>
      <trkpt lat="40.3018470" lon="-5.8701390">
        <ele>676.4</ele>
        <time>2021-10-15T16:52:02Z</time>
      </trkpt>
      <trkpt lat="40.3014410" lon="-5.8703200">
        <ele>675.6</ele>
        <time>2021-10-15T16:52:08Z</time>
      </trkpt>
      <trkpt lat="40.3013180" lon="-5.8703750">
        <ele>675.4</ele>
        <time>2021-10-15T16:52:10Z</time>
      </trkpt>
      <trkpt lat="40.3008210" lon="-5.8706050">
        <ele>674.4</ele>
        <time>2021-10-15T16:52:18Z</time>
      </trkpt>
      <trkpt lat="40.3005280" lon="-5.8707430">
        <ele>674.4</ele>
        <time>2021-10-15T16:52:23Z</time>
      </trkpt>
      <trkpt lat="40.3001610" lon="-5.8709110">
        <ele>674.2</ele>
        <time>2021-10-15T16:52:29Z</time>
      </trkpt>
      <trkpt lat="40.2997630" lon="-5.8711730">
        <ele>674.4</ele>
        <time>2021-10-15T16:52:37Z</time>
      </trkpt>
      <trkpt lat="40.2994660" lon="-5.8714490">
        <ele>675.0</ele>
        <time>2021-10-15T16:52:44Z</time>
      </trkpt>
      <trkpt lat="40.2991550" lon="-5.8717750">
        <ele>675.4</ele>
        <time>2021-10-15T16:52:52Z</time>
      </trkpt>
      <trkpt lat="40.2990360" lon="-5.8718960">
        <ele>675.6</ele>
        <time>2021-10-15T16:52:55Z</time>
      </trkpt>
      <trkpt lat="40.2989000" lon="-5.8720020">
        <ele>676.2</ele>
        <time>2021-10-15T16:52:59Z</time>
      </trkpt>
      <trkpt lat="40.2988330" lon="-5.8720490">
        <ele>676.8</ele>
        <time>2021-10-15T16:53:01Z</time>
      </trkpt>
      <trkpt lat="40.2987020" lon="-5.8721120">
        <ele>677.4</ele>
        <time>2021-10-15T16:53:05Z</time>
      </trkpt>
      <trkpt lat="40.2983560" lon="-5.8722690">
        <ele>677.2</ele>
        <time>2021-10-15T16:53:13Z</time>
      </trkpt>
      <trkpt lat="40.2978600" lon="-5.8724960">
        <ele>676.2</ele>
        <time>2021-10-15T16:53:24Z</time>
      </trkpt>
      <trkpt lat="40.2976220" lon="-5.8727110">
        <ele>675.6</ele>
        <time>2021-10-15T16:53:30Z</time>
      </trkpt>
      <trkpt lat="40.2975890" lon="-5.8727500">
        <ele>675.6</ele>
        <time>2021-10-15T16:53:31Z</time>
      </trkpt>
      <trkpt lat="40.2973200" lon="-5.8731180">
        <ele>675.8</ele>
        <time>2021-10-15T16:53:40Z</time>
      </trkpt>
      <trkpt lat="40.2972620" lon="-5.8731950">
        <ele>676.2</ele>
        <time>2021-10-15T16:53:42Z</time>
      </trkpt>
      <trkpt lat="40.2971130" lon="-5.8733810">
        <ele>676.6</ele>
        <time>2021-10-15T16:53:47Z</time>
      </trkpt>
      <trkpt lat="40.2969940" lon="-5.8735070">
        <ele>677.0</ele>
        <time>2021-10-15T16:53:51Z</time>
      </trkpt>
      <trkpt lat="40.2968740" lon="-5.8736020">
        <ele>677.2</ele>
        <time>2021-10-15T16:53:55Z</time>
      </trkpt>
      <trkpt lat="40.2966450" lon="-5.8737330">
        <ele>677.6</ele>
        <time>2021-10-15T16:54:02Z</time>
      </trkpt>
      <trkpt lat="40.2963360" lon="-5.8738470">
        <ele>677.4</ele>
        <time>2021-10-15T16:54:09Z</time>
      </trkpt>
      <trkpt lat="40.2959260" lon="-5.8739560">
        <ele>676.2</ele>
        <time>2021-10-15T16:54:16Z</time>
      </trkpt>
      <trkpt lat="40.2957940" lon="-5.8739810">
        <ele>675.8</ele>
        <time>2021-10-15T16:54:18Z</time>
      </trkpt>
      <trkpt lat="40.2955820" lon="-5.8739990">
        <ele>674.6</ele>
        <time>2021-10-15T16:54:21Z</time>
      </trkpt>
      <trkpt lat="40.2955080" lon="-5.8739970">
        <ele>674.4</ele>
        <time>2021-10-15T16:54:22Z</time>
      </trkpt>
      <trkpt lat="40.2952850" lon="-5.8739820">
        <ele>673.2</ele>
        <time>2021-10-15T16:54:25Z</time>
      </trkpt>
      <trkpt lat="40.2949800" lon="-5.8739770">
        <ele>672.0</ele>
        <time>2021-10-15T16:54:29Z</time>
      </trkpt>
      <trkpt lat="40.2949010" lon="-5.8739820">
        <ele>671.4</ele>
        <time>2021-10-15T16:54:30Z</time>
      </trkpt>
      <trkpt lat="40.2947280" lon="-5.8740070">
        <ele>670.8</ele>
        <time>2021-10-15T16:54:32Z</time>
      </trkpt>
      <trkpt lat="40.2945010" lon="-5.8740740">
        <ele>669.6</ele>
        <time>2021-10-15T16:54:35Z</time>
      </trkpt>
      <trkpt lat="40.2944210" lon="-5.8741030">
        <ele>669.4</ele>
        <time>2021-10-15T16:54:36Z</time>
      </trkpt>
      <trkpt lat="40.2941780" lon="-5.8741870">
        <ele>668.6</ele>
        <time>2021-10-15T16:54:39Z</time>
      </trkpt>
      <trkpt lat="40.2938460" lon="-5.8743020">
        <ele>667.4</ele>
        <time>2021-10-15T16:54:43Z</time>
      </trkpt>
      <trkpt lat="40.2935370" lon="-5.8744170">
        <ele>666.4</ele>
        <time>2021-10-15T16:54:47Z</time>
      </trkpt>
      <trkpt lat="40.2931750" lon="-5.8746380">
        <ele>665.2</ele>
        <time>2021-10-15T16:54:52Z</time>
      </trkpt>
      <trkpt lat="40.2931050" lon="-5.8746900">
        <ele>665.0</ele>
        <time>2021-10-15T16:54:53Z</time>
      </trkpt>
      <trkpt lat="40.2928400" lon="-5.8749000">
        <ele>663.6</ele>
        <time>2021-10-15T16:54:57Z</time>
      </trkpt>
      <trkpt lat="40.2924750" lon="-5.8751860">
        <ele>662.6</ele>
        <time>2021-10-15T16:55:02Z</time>
      </trkpt>
      <trkpt lat="40.2923230" lon="-5.8753080">
        <ele>662.0</ele>
        <time>2021-10-15T16:55:04Z</time>
      </trkpt>
      <trkpt lat="40.2922470" lon="-5.8753710">
        <ele>661.2</ele>
        <time>2021-10-15T16:55:05Z</time>
      </trkpt>
      <trkpt lat="40.2920120" lon="-5.8755560">
        <ele>660.2</ele>
        <time>2021-10-15T16:55:08Z</time>
      </trkpt>
      <trkpt lat="40.2917650" lon="-5.8757530">
        <ele>659.0</ele>
        <time>2021-10-15T16:55:11Z</time>
      </trkpt>
      <trkpt lat="40.2916800" lon="-5.8758190">
        <ele>658.2</ele>
        <time>2021-10-15T16:55:12Z</time>
      </trkpt>
      <trkpt lat="40.2915950" lon="-5.8758860">
        <ele>657.6</ele>
        <time>2021-10-15T16:55:13Z</time>
      </trkpt>
      <trkpt lat="40.2914230" lon="-5.8760190">
        <ele>656.4</ele>
        <time>2021-10-15T16:55:15Z</time>
      </trkpt>
      <trkpt lat="40.2912530" lon="-5.8761590">
        <ele>654.8</ele>
        <time>2021-10-15T16:55:17Z</time>
      </trkpt>
      <trkpt lat="40.2910780" lon="-5.8762930">
        <ele>653.8</ele>
        <time>2021-10-15T16:55:19Z</time>
      </trkpt>
      <trkpt lat="40.2909910" lon="-5.8763610">
        <ele>653.6</ele>
        <time>2021-10-15T16:55:20Z</time>
      </trkpt>
      <trkpt lat="40.2908210" lon="-5.8764960">
        <ele>652.4</ele>
        <time>2021-10-15T16:55:22Z</time>
      </trkpt>
      <trkpt lat="40.2906550" lon="-5.8766260">
        <ele>651.4</ele>
        <time>2021-10-15T16:55:24Z</time>
      </trkpt>
      <trkpt lat="40.2904100" lon="-5.8768160">
        <ele>650.4</ele>
        <time>2021-10-15T16:55:27Z</time>
      </trkpt>
      <trkpt lat="40.2901740" lon="-5.8770000">
        <ele>649.6</ele>
        <time>2021-10-15T16:55:30Z</time>
      </trkpt>
      <trkpt lat="40.2900210" lon="-5.8771190">
        <ele>649.0</ele>
        <time>2021-10-15T16:55:32Z</time>
      </trkpt>
      <trkpt lat="40.2896330" lon="-5.8774180">
        <ele>647.6</ele>
        <time>2021-10-15T16:55:37Z</time>
      </trkpt>
      <trkpt lat="40.2894210" lon="-5.8775910">
        <ele>647.0</ele>
        <time>2021-10-15T16:55:40Z</time>
      </trkpt>
      <trkpt lat="40.2892130" lon="-5.8777500">
        <ele>646.4</ele>
        <time>2021-10-15T16:55:43Z</time>
      </trkpt>
      <trkpt lat="40.2889520" lon="-5.8779500">
        <ele>645.6</ele>
        <time>2021-10-15T16:55:47Z</time>
      </trkpt>
      <trkpt lat="40.2888300" lon="-5.8780500">
        <ele>645.2</ele>
        <time>2021-10-15T16:55:49Z</time>
      </trkpt>
      <trkpt lat="40.2885840" lon="-5.8782430">
        <ele>644.4</ele>
        <time>2021-10-15T16:55:53Z</time>
      </trkpt>
      <trkpt lat="40.2882750" lon="-5.8784960">
        <ele>643.4</ele>
        <time>2021-10-15T16:55:58Z</time>
      </trkpt>
      <trkpt lat="40.2882140" lon="-5.8785500">
        <ele>643.2</ele>
        <time>2021-10-15T16:55:59Z</time>
      </trkpt>
      <trkpt lat="40.2879560" lon="-5.8787760">
        <ele>642.4</ele>
        <time>2021-10-15T16:56:03Z</time>
      </trkpt>
      <trkpt lat="40.2876820" lon="-5.8790310">
        <ele>641.4</ele>
        <time>2021-10-15T16:56:07Z</time>
      </trkpt>
      <trkpt lat="40.2876110" lon="-5.8791000">
        <ele>641.2</ele>
        <time>2021-10-15T16:56:08Z</time>
      </trkpt>
      <trkpt lat="40.2873930" lon="-5.8793030">
        <ele>639.8</ele>
        <time>2021-10-15T16:56:11Z</time>
      </trkpt>
      <trkpt lat="40.2871750" lon="-5.8795110">
        <ele>638.2</ele>
        <time>2021-10-15T16:56:14Z</time>
      </trkpt>
      <trkpt lat="40.2871020" lon="-5.8795810">
        <ele>638.0</ele>
        <time>2021-10-15T16:56:15Z</time>
      </trkpt>
      <trkpt lat="40.2869580" lon="-5.8797190">
        <ele>637.2</ele>
        <time>2021-10-15T16:56:17Z</time>
      </trkpt>
      <trkpt lat="40.2867440" lon="-5.8799230">
        <ele>636.0</ele>
        <time>2021-10-15T16:56:20Z</time>
      </trkpt>
      <trkpt lat="40.2864640" lon="-5.8801890">
        <ele>634.8</ele>
        <time>2021-10-15T16:56:24Z</time>
      </trkpt>
      <trkpt lat="40.2863260" lon="-5.8803150">
        <ele>634.0</ele>
        <time>2021-10-15T16:56:26Z</time>
      </trkpt>
      <trkpt lat="40.2862580" lon="-5.8803780">
        <ele>633.4</ele>
        <time>2021-10-15T16:56:27Z</time>
      </trkpt>
      <trkpt lat="40.2859320" lon="-5.8806880">
        <ele>632.2</ele>
        <time>2021-10-15T16:56:32Z</time>
      </trkpt>
      <trkpt lat="40.2858070" lon="-5.8808080">
        <ele>631.8</ele>
        <time>2021-10-15T16:56:34Z</time>
      </trkpt>
      <trkpt lat="40.2856180" lon="-5.8809840">
        <ele>631.2</ele>
        <time>2021-10-15T16:56:37Z</time>
      </trkpt>
      <trkpt lat="40.2854350" lon="-5.8811600">
        <ele>630.0</ele>
        <time>2021-10-15T16:56:40Z</time>
      </trkpt>
      <trkpt lat="40.2851430" lon="-5.8814280">
        <ele>629.0</ele>
        <time>2021-10-15T16:56:45Z</time>
      </trkpt>
      <trkpt lat="40.2850880" lon="-5.8814810">
        <ele>629.0</ele>
        <time>2021-10-15T16:56:46Z</time>
      </trkpt>
      <trkpt lat="40.2847100" lon="-5.8818360">
        <ele>628.0</ele>
        <time>2021-10-15T16:56:53Z</time>
      </trkpt>
      <trkpt lat="40.2843430" lon="-5.8822010">
        <ele>626.8</ele>
        <time>2021-10-15T16:57:00Z</time>
      </trkpt>
      <trkpt lat="40.2840050" lon="-5.8826170">
        <ele>625.8</ele>
        <time>2021-10-15T16:57:07Z</time>
      </trkpt>
      <trkpt lat="40.2839080" lon="-5.8827490">
        <ele>625.6</ele>
        <time>2021-10-15T16:57:09Z</time>
      </trkpt>
      <trkpt lat="40.2837560" lon="-5.8829590">
        <ele>624.8</ele>
        <time>2021-10-15T16:57:12Z</time>
      </trkpt>
      <trkpt lat="40.2834960" lon="-5.8833000">
        <ele>623.8</ele>
        <time>2021-10-15T16:57:17Z</time>
      </trkpt>
      <trkpt lat="40.2834430" lon="-5.8833700">
        <ele>623.6</ele>
        <time>2021-10-15T16:57:18Z</time>
      </trkpt>
      <trkpt lat="40.2831820" lon="-5.8837080">
        <ele>622.4</ele>
        <time>2021-10-15T16:57:23Z</time>
      </trkpt>
      <trkpt lat="40.2831300" lon="-5.8837730">
        <ele>622.4</ele>
        <time>2021-10-15T16:57:24Z</time>
      </trkpt>
      <trkpt lat="40.2827340" lon="-5.8842910">
        <ele>621.6</ele>
        <time>2021-10-15T16:57:32Z</time>
      </trkpt>
      <trkpt lat="40.2826850" lon="-5.8843520">
        <ele>621.6</ele>
        <time>2021-10-15T16:57:33Z</time>
      </trkpt>
      <trkpt lat="40.2825870" lon="-5.8844780">
        <ele>621.4</ele>
        <time>2021-10-15T16:57:35Z</time>
      </trkpt>
      <trkpt lat="40.2823270" lon="-5.8848220">
        <ele>621.4</ele>
        <time>2021-10-15T16:57:41Z</time>
      </trkpt>
      <trkpt lat="40.2819860" lon="-5.8852620">
        <ele>621.6</ele>
        <time>2021-10-15T16:57:49Z</time>
      </trkpt>
      <trkpt lat="40.2815860" lon="-5.8857940">
        <ele>621.2</ele>
        <time>2021-10-15T16:57:59Z</time>
      </trkpt>
      <trkpt lat="40.2812320" lon="-5.8862660">
        <ele>621.2</ele>
        <time>2021-10-15T16:58:08Z</time>
      </trkpt>
      <trkpt lat="40.2808820" lon="-5.8867290">
        <ele>621.0</ele>
        <time>2021-10-15T16:58:17Z</time>
      </trkpt>
      <trkpt lat="40.2805120" lon="-5.8871940">
        <ele>620.8</ele>
        <time>2021-10-15T16:58:26Z</time>
      </trkpt>
      <trkpt lat="40.2803910" lon="-5.8873530">
        <ele>620.8</ele>
        <time>2021-10-15T16:58:29Z</time>
      </trkpt>
      <trkpt lat="40.2802590" lon="-5.8875020">
        <ele>620.4</ele>
        <time>2021-10-15T16:58:32Z</time>
      </trkpt>
      <trkpt lat="40.2802210" lon="-5.8875560">
        <ele>620.0</ele>
        <time>2021-10-15T16:58:33Z</time>
      </trkpt>
      <trkpt lat="40.2801840" lon="-5.8876110">
        <ele>619.8</ele>
        <time>2021-10-15T16:58:34Z</time>
      </trkpt>
      <trkpt lat="40.2799340" lon="-5.8879400">
        <ele>619.0</ele>
        <time>2021-10-15T16:58:40Z</time>
      </trkpt>
      <trkpt lat="40.2798120" lon="-5.8881110">
        <ele>618.6</ele>
        <time>2021-10-15T16:58:43Z</time>
      </trkpt>
      <trkpt lat="40.2795730" lon="-5.8884280">
        <ele>617.4</ele>
        <time>2021-10-15T16:58:49Z</time>
      </trkpt>
      <trkpt lat="40.2794520" lon="-5.8885800">
        <ele>616.8</ele>
        <time>2021-10-15T16:58:52Z</time>
      </trkpt>
      <trkpt lat="40.2792890" lon="-5.8887940">
        <ele>616.2</ele>
        <time>2021-10-15T16:58:56Z</time>
      </trkpt>
      <trkpt lat="40.2790180" lon="-5.8891450">
        <ele>615.8</ele>
        <time>2021-10-15T16:59:02Z</time>
      </trkpt>
      <trkpt lat="40.2787690" lon="-5.8894690">
        <ele>615.0</ele>
        <time>2021-10-15T16:59:07Z</time>
      </trkpt>
      <trkpt lat="40.2786240" lon="-5.8896820">
        <ele>614.4</ele>
        <time>2021-10-15T16:59:10Z</time>
      </trkpt>
      <trkpt lat="40.2785750" lon="-5.8897540">
        <ele>613.8</ele>
        <time>2021-10-15T16:59:11Z</time>
      </trkpt>
      <trkpt lat="40.2783510" lon="-5.8901240">
        <ele>612.4</ele>
        <time>2021-10-15T16:59:16Z</time>
      </trkpt>
      <trkpt lat="40.2782250" lon="-5.8903530">
        <ele>611.6</ele>
        <time>2021-10-15T16:59:19Z</time>
      </trkpt>
      <trkpt lat="40.2781830" lon="-5.8904300">
        <ele>611.0</ele>
        <time>2021-10-15T16:59:20Z</time>
      </trkpt>
      <trkpt lat="40.2779770" lon="-5.8908160">
        <ele>610.0</ele>
        <time>2021-10-15T16:59:25Z</time>
      </trkpt>
      <trkpt lat="40.2778130" lon="-5.8911180">
        <ele>609.0</ele>
        <time>2021-10-15T16:59:29Z</time>
      </trkpt>
      <trkpt lat="40.2777320" lon="-5.8912610">
        <ele>608.6</ele>
        <time>2021-10-15T16:59:31Z</time>
      </trkpt>
      <trkpt lat="40.2775420" lon="-5.8916060">
        <ele>607.6</ele>
        <time>2021-10-15T16:59:36Z</time>
      </trkpt>
      <trkpt lat="40.2774690" lon="-5.8917360">
        <ele>607.4</ele>
        <time>2021-10-15T16:59:38Z</time>
      </trkpt>
      <trkpt lat="40.2772240" lon="-5.8921790">
        <ele>607.0</ele>
        <time>2021-10-15T16:59:45Z</time>
      </trkpt>
      <trkpt lat="40.2769190" lon="-5.8927190">
        <ele>607.2</ele>
        <time>2021-10-15T16:59:54Z</time>
      </trkpt>
      <trkpt lat="40.2766230" lon="-5.8932470">
        <ele>607.0</ele>
        <time>2021-10-15T17:00:03Z</time>
      </trkpt>
      <trkpt lat="40.2765890" lon="-5.8933150">
        <ele>606.8</ele>
        <time>2021-10-15T17:00:04Z</time>
      </trkpt>
      <trkpt lat="40.2763220" lon="-5.8938020">
        <ele>605.4</ele>
        <time>2021-10-15T17:00:11Z</time>
      </trkpt>
      <trkpt lat="40.2762850" lon="-5.8938750">
        <ele>605.2</ele>
        <time>2021-10-15T17:00:12Z</time>
      </trkpt>
      <trkpt lat="40.2760460" lon="-5.8943050">
        <ele>604.0</ele>
        <time>2021-10-15T17:00:18Z</time>
      </trkpt>
      <trkpt lat="40.2758430" lon="-5.8946710">
        <ele>603.0</ele>
        <time>2021-10-15T17:00:23Z</time>
      </trkpt>
      <trkpt lat="40.2756700" lon="-5.8949810">
        <ele>602.0</ele>
        <time>2021-10-15T17:00:27Z</time>
      </trkpt>
      <trkpt lat="40.2754940" lon="-5.8953000">
        <ele>600.8</ele>
        <time>2021-10-15T17:00:31Z</time>
      </trkpt>
      <trkpt lat="40.2754070" lon="-5.8954580">
        <ele>600.4</ele>
        <time>2021-10-15T17:00:33Z</time>
      </trkpt>
      <trkpt lat="40.2751880" lon="-5.8958400">
        <ele>599.6</ele>
        <time>2021-10-15T17:00:38Z</time>
      </trkpt>
      <trkpt lat="40.2750270" lon="-5.8961290">
        <ele>598.4</ele>
        <time>2021-10-15T17:00:42Z</time>
      </trkpt>
      <trkpt lat="40.2747860" lon="-5.8965710">
        <ele>597.6</ele>
        <time>2021-10-15T17:00:49Z</time>
      </trkpt>
      <trkpt lat="40.2746450" lon="-5.8968200">
        <ele>597.4</ele>
        <time>2021-10-15T17:00:54Z</time>
      </trkpt>
      <trkpt lat="40.2745870" lon="-5.8969220">
        <ele>597.4</ele>
        <time>2021-10-15T17:00:56Z</time>
      </trkpt>
      <trkpt lat="40.2745580" lon="-5.8969770">
        <ele>597.2</ele>
        <time>2021-10-15T17:00:57Z</time>
      </trkpt>
      <trkpt lat="40.2743910" lon="-5.8972720">
        <ele>597.0</ele>
        <time>2021-10-15T17:01:02Z</time>
      </trkpt>
      <trkpt lat="40.2742110" lon="-5.8975960">
        <ele>596.4</ele>
        <time>2021-10-15T17:01:07Z</time>
      </trkpt>
      <trkpt lat="40.2740590" lon="-5.8978700">
        <ele>595.4</ele>
        <time>2021-10-15T17:01:11Z</time>
      </trkpt>
      <trkpt lat="40.2739830" lon="-5.8980100">
        <ele>595.2</ele>
        <time>2021-10-15T17:01:13Z</time>
      </trkpt>
      <trkpt lat="40.2737840" lon="-5.8983670">
        <ele>594.0</ele>
        <time>2021-10-15T17:01:18Z</time>
      </trkpt>
      <trkpt lat="40.2737430" lon="-5.8984360">
        <ele>593.8</ele>
        <time>2021-10-15T17:01:19Z</time>
      </trkpt>
      <trkpt lat="40.2736260" lon="-5.8986490">
        <ele>593.0</ele>
        <time>2021-10-15T17:01:22Z</time>
      </trkpt>
      <trkpt lat="40.2733830" lon="-5.8990910">
        <ele>592.0</ele>
        <time>2021-10-15T17:01:28Z</time>
      </trkpt>
      <trkpt lat="40.2733420" lon="-5.8991670">
        <ele>591.8</ele>
        <time>2021-10-15T17:01:29Z</time>
      </trkpt>
      <trkpt lat="40.2732210" lon="-5.8993960">
        <ele>591.0</ele>
        <time>2021-10-15T17:01:32Z</time>
      </trkpt>
      <trkpt lat="40.2730170" lon="-5.8997770">
        <ele>589.8</ele>
        <time>2021-10-15T17:01:37Z</time>
      </trkpt>
      <trkpt lat="40.2728880" lon="-5.9000180">
        <ele>589.4</ele>
        <time>2021-10-15T17:01:40Z</time>
      </trkpt>
      <trkpt lat="40.2728000" lon="-5.9001810">
        <ele>589.0</ele>
        <time>2021-10-15T17:01:42Z</time>
      </trkpt>
      <trkpt lat="40.2726430" lon="-5.9005410">
        <ele>587.8</ele>
        <time>2021-10-15T17:01:46Z</time>
      </trkpt>
      <trkpt lat="40.2725700" lon="-5.9007290">
        <ele>587.6</ele>
        <time>2021-10-15T17:01:48Z</time>
      </trkpt>
      <trkpt lat="40.2725010" lon="-5.9009230">
        <ele>586.6</ele>
        <time>2021-10-15T17:01:50Z</time>
      </trkpt>
      <trkpt lat="40.2723950" lon="-5.9012250">
        <ele>585.4</ele>
        <time>2021-10-15T17:01:53Z</time>
      </trkpt>
      <trkpt lat="40.2722880" lon="-5.9015390">
        <ele>584.4</ele>
        <time>2021-10-15T17:01:56Z</time>
      </trkpt>
      <trkpt lat="40.2722170" lon="-5.9017550">
        <ele>583.4</ele>
        <time>2021-10-15T17:01:58Z</time>
      </trkpt>
      <trkpt lat="40.2721790" lon="-5.9018650">
        <ele>583.2</ele>
        <time>2021-10-15T17:01:59Z</time>
      </trkpt>
      <trkpt lat="40.2721020" lon="-5.9020830">
        <ele>582.0</ele>
        <time>2021-10-15T17:02:01Z</time>
      </trkpt>
      <trkpt lat="40.2720280" lon="-5.9023020">
        <ele>581.0</ele>
        <time>2021-10-15T17:02:03Z</time>
      </trkpt>
      <trkpt lat="40.2719180" lon="-5.9026320">
        <ele>579.8</ele>
        <time>2021-10-15T17:02:06Z</time>
      </trkpt>
      <trkpt lat="40.2718070" lon="-5.9029580">
        <ele>578.2</ele>
        <time>2021-10-15T17:02:09Z</time>
      </trkpt>
      <trkpt lat="40.2716980" lon="-5.9032810">
        <ele>577.2</ele>
        <time>2021-10-15T17:02:12Z</time>
      </trkpt>
      <trkpt lat="40.2716270" lon="-5.9034890">
        <ele>576.2</ele>
        <time>2021-10-15T17:02:14Z</time>
      </trkpt>
      <trkpt lat="40.2715890" lon="-5.9035910">
        <ele>575.8</ele>
        <time>2021-10-15T17:02:15Z</time>
      </trkpt>
      <trkpt lat="40.2715100" lon="-5.9037830">
        <ele>575.0</ele>
        <time>2021-10-15T17:02:17Z</time>
      </trkpt>
      <trkpt lat="40.2713780" lon="-5.9040280">
        <ele>574.4</ele>
        <time>2021-10-15T17:02:20Z</time>
      </trkpt>
      <trkpt lat="40.2711860" lon="-5.9042890">
        <ele>574.2</ele>
        <time>2021-10-15T17:02:24Z</time>
      </trkpt>
      <trkpt lat="40.2711370" lon="-5.9043430">
        <ele>574.0</ele>
        <time>2021-10-15T17:02:25Z</time>
      </trkpt>
      <trkpt lat="40.2708220" lon="-5.9046310">
        <ele>573.4</ele>
        <time>2021-10-15T17:02:31Z</time>
      </trkpt>
      <trkpt lat="40.2707110" lon="-5.9047160">
        <ele>573.0</ele>
        <time>2021-10-15T17:02:33Z</time>
      </trkpt>
      <trkpt lat="40.2703320" lon="-5.9050030">
        <ele>572.0</ele>
        <time>2021-10-15T17:02:40Z</time>
      </trkpt>
      <trkpt lat="40.2699080" lon="-5.9054920">
        <ele>571.4</ele>
        <time>2021-10-15T17:02:49Z</time>
      </trkpt>
      <trkpt lat="40.2695750" lon="-5.9059700">
        <ele>571.0</ele>
        <time>2021-10-15T17:02:57Z</time>
      </trkpt>
      <trkpt lat="40.2694150" lon="-5.9062010">
        <ele>571.0</ele>
        <time>2021-10-15T17:03:01Z</time>
      </trkpt>
      <trkpt lat="40.2690230" lon="-5.9067880">
        <ele>570.4</ele>
        <time>2021-10-15T17:03:11Z</time>
      </trkpt>
      <trkpt lat="40.2689850" lon="-5.9068440">
        <ele>570.4</ele>
        <time>2021-10-15T17:03:12Z</time>
      </trkpt>
      <trkpt lat="40.2686830" lon="-5.9073070">
        <ele>570.4</ele>
        <time>2021-10-15T17:03:20Z</time>
      </trkpt>
      <trkpt lat="40.2684170" lon="-5.9078470">
        <ele>570.6</ele>
        <time>2021-10-15T17:03:29Z</time>
      </trkpt>
      <trkpt lat="40.2681920" lon="-5.9083740">
        <ele>570.6</ele>
        <time>2021-10-15T17:03:38Z</time>
      </trkpt>
      <trkpt lat="40.2679850" lon="-5.9088590">
        <ele>571.4</ele>
        <time>2021-10-15T17:03:47Z</time>
      </trkpt>
      <trkpt lat="40.2677570" lon="-5.9093630">
        <ele>572.0</ele>
        <time>2021-10-15T17:03:57Z</time>
      </trkpt>
      <trkpt lat="40.2676410" lon="-5.9096210">
        <ele>572.0</ele>
        <time>2021-10-15T17:04:02Z</time>
      </trkpt>
      <trkpt lat="40.2675720" lon="-5.9097720">
        <ele>571.8</ele>
        <time>2021-10-15T17:04:05Z</time>
      </trkpt>
      <trkpt lat="40.2673520" lon="-5.9102870">
        <ele>572.0</ele>
        <time>2021-10-15T17:04:15Z</time>
      </trkpt>
      <trkpt lat="40.2670990" lon="-5.9108670">
        <ele>572.0</ele>
        <time>2021-10-15T17:04:26Z</time>
      </trkpt>
      <trkpt lat="40.2667870" lon="-5.9114740">
        <ele>571.8</ele>
        <time>2021-10-15T17:04:37Z</time>
      </trkpt>
      <trkpt lat="40.2663860" lon="-5.9120080">
        <ele>571.4</ele>
        <time>2021-10-15T17:04:48Z</time>
      </trkpt>
      <trkpt lat="40.2660540" lon="-5.9123920">
        <ele>571.2</ele>
        <time>2021-10-15T17:04:57Z</time>
      </trkpt>
      <trkpt lat="40.2659850" lon="-5.9124750">
        <ele>571.2</ele>
        <time>2021-10-15T17:04:59Z</time>
      </trkpt>
      <trkpt lat="40.2658250" lon="-5.9126900">
        <ele>571.4</ele>
        <time>2021-10-15T17:05:04Z</time>
      </trkpt>
      <trkpt lat="40.2655660" lon="-5.9131310">
        <ele>571.4</ele>
        <time>2021-10-15T17:05:13Z</time>
      </trkpt>
      <trkpt lat="40.2653490" lon="-5.9135540">
        <ele>571.6</ele>
        <time>2021-10-15T17:05:21Z</time>
      </trkpt>
      <trkpt lat="40.2650380" lon="-5.9139480">
        <ele>571.8</ele>
        <time>2021-10-15T17:05:30Z</time>
      </trkpt>
      <trkpt lat="40.2647540" lon="-5.9141320">
        <ele>572.0</ele>
        <time>2021-10-15T17:05:37Z</time>
      </trkpt>
      <trkpt lat="40.2644090" lon="-5.9142080">
        <ele>572.8</ele>
        <time>2021-10-15T17:05:45Z</time>
      </trkpt>
      <trkpt lat="40.2639680" lon="-5.9141590">
        <ele>573.6</ele>
        <time>2021-10-15T17:05:55Z</time>
      </trkpt>
      <trkpt lat="40.2637990" lon="-5.9141560">
        <ele>574.0</ele>
        <time>2021-10-15T17:05:59Z</time>
      </trkpt>
      <trkpt lat="40.2637200" lon="-5.9141950">
        <ele>574.0</ele>
        <time>2021-10-15T17:06:01Z</time>
      </trkpt>
      <trkpt lat="40.2636590" lon="-5.9142780">
        <ele>574.0</ele>
        <time>2021-10-15T17:06:03Z</time>
      </trkpt>
      <trkpt lat="40.2636260" lon="-5.9143890">
        <ele>574.2</ele>
        <time>2021-10-15T17:06:05Z</time>
      </trkpt>
      <trkpt lat="40.2636250" lon="-5.9145200">
        <ele>574.2</ele>
        <time>2021-10-15T17:06:07Z</time>
      </trkpt>
      <trkpt lat="40.2636570" lon="-5.9146540">
        <ele>574.2</ele>
        <time>2021-10-15T17:06:09Z</time>
      </trkpt>
      <trkpt lat="40.2637840" lon="-5.9151030">
        <ele>574.0</ele>
        <time>2021-10-15T17:06:16Z</time>
      </trkpt>
      <trkpt lat="40.2639340" lon="-5.9156950">
        <ele>573.0</ele>
        <time>2021-10-15T17:06:24Z</time>
      </trkpt>
      <trkpt lat="40.2639540" lon="-5.9157810">
        <ele>573.0</ele>
        <time>2021-10-15T17:06:25Z</time>
      </trkpt>
      <trkpt lat="40.2640450" lon="-5.9161400">
        <ele>571.8</ele>
        <time>2021-10-15T17:06:29Z</time>
      </trkpt>
      <trkpt lat="40.2641170" lon="-5.9163940">
        <ele>570.8</ele>
        <time>2021-10-15T17:06:32Z</time>
      </trkpt>
      <trkpt lat="40.2641990" lon="-5.9165030">
        <ele>570.2</ele>
        <time>2021-10-15T17:06:34Z</time>
      </trkpt>
      <trkpt lat="40.2642550" lon="-5.9165340">
        <ele>570.2</ele>
        <time>2021-10-15T17:06:35Z</time>
      </trkpt>
      <trkpt lat="40.2643040" lon="-5.9165700">
        <ele>570.0</ele>
        <time>2021-10-15T17:06:36Z</time>
      </trkpt>
      <trkpt lat="40.2643440" lon="-5.9166200">
        <ele>569.6</ele>
        <time>2021-10-15T17:06:37Z</time>
      </trkpt>
      <trkpt lat="40.2643680" lon="-5.9166800">
        <ele>569.8</ele>
        <time>2021-10-15T17:06:38Z</time>
      </trkpt>
      <trkpt lat="40.2643700" lon="-5.9168180">
        <ele>569.4</ele>
        <time>2021-10-15T17:06:40Z</time>
      </trkpt>
      <trkpt lat="40.2643480" lon="-5.9168830">
        <ele>569.2</ele>
        <time>2021-10-15T17:06:41Z</time>
      </trkpt>
      <trkpt lat="40.2643180" lon="-5.9169430">
        <ele>569.0</ele>
        <time>2021-10-15T17:06:42Z</time>
      </trkpt>
      <trkpt lat="40.2642740" lon="-5.9169880">
        <ele>568.8</ele>
        <time>2021-10-15T17:06:43Z</time>
      </trkpt>
      <trkpt lat="40.2642230" lon="-5.9170190">
        <ele>568.8</ele>
        <time>2021-10-15T17:06:44Z</time>
      </trkpt>
      <trkpt lat="40.2641120" lon="-5.9170660">
        <ele>568.6</ele>
        <time>2021-10-15T17:06:46Z</time>
      </trkpt>
      <trkpt lat="40.2640260" lon="-5.9171690">
        <ele>568.2</ele>
        <time>2021-10-15T17:06:48Z</time>
      </trkpt>
      <trkpt lat="40.2638670" lon="-5.9175690">
        <ele>567.8</ele>
        <time>2021-10-15T17:06:53Z</time>
      </trkpt>
      <trkpt lat="40.2637250" lon="-5.9179300">
        <ele>566.8</ele>
        <time>2021-10-15T17:06:57Z</time>
      </trkpt>
      <trkpt lat="40.2636150" lon="-5.9182090">
        <ele>565.6</ele>
        <time>2021-10-15T17:07:00Z</time>
      </trkpt>
      <trkpt lat="40.2635050" lon="-5.9184790">
        <ele>564.2</ele>
        <time>2021-10-15T17:07:03Z</time>
      </trkpt>
      <trkpt lat="40.2634330" lon="-5.9186560">
        <ele>563.8</ele>
        <time>2021-10-15T17:07:05Z</time>
      </trkpt>
      <trkpt lat="40.2633270" lon="-5.9189140">
        <ele>563.2</ele>
        <time>2021-10-15T17:07:08Z</time>
      </trkpt>
      <trkpt lat="40.2631090" lon="-5.9194450">
        <ele>562.0</ele>
        <time>2021-10-15T17:07:14Z</time>
      </trkpt>
      <trkpt lat="40.2630010" lon="-5.9197070">
        <ele>561.4</ele>
        <time>2021-10-15T17:07:17Z</time>
      </trkpt>
      <trkpt lat="40.2628950" lon="-5.9199540">
        <ele>561.0</ele>
        <time>2021-10-15T17:07:20Z</time>
      </trkpt>
      <trkpt lat="40.2627960" lon="-5.9201970">
        <ele>560.0</ele>
        <time>2021-10-15T17:07:23Z</time>
      </trkpt>
      <trkpt lat="40.2627370" lon="-5.9203500">
        <ele>559.8</ele>
        <time>2021-10-15T17:07:25Z</time>
      </trkpt>
      <trkpt lat="40.2625840" lon="-5.9207270">
        <ele>559.2</ele>
        <time>2021-10-15T17:07:30Z</time>
      </trkpt>
      <trkpt lat="40.2624660" lon="-5.9210380">
        <ele>558.6</ele>
        <time>2021-10-15T17:07:34Z</time>
      </trkpt>
      <trkpt lat="40.2622930" lon="-5.9214270">
        <ele>557.8</ele>
        <time>2021-10-15T17:07:39Z</time>
      </trkpt>
      <trkpt lat="40.2622590" lon="-5.9215080">
        <ele>557.6</ele>
        <time>2021-10-15T17:07:40Z</time>
      </trkpt>
      <trkpt lat="40.2621540" lon="-5.9217590">
        <ele>556.4</ele>
        <time>2021-10-15T17:07:43Z</time>
      </trkpt>
      <trkpt lat="40.2620530" lon="-5.9220030">
        <ele>555.8</ele>
        <time>2021-10-15T17:07:46Z</time>
      </trkpt>
      <trkpt lat="40.2619910" lon="-5.9221600">
        <ele>555.4</ele>
        <time>2021-10-15T17:07:48Z</time>
      </trkpt>
      <trkpt lat="40.2619010" lon="-5.9223850">
        <ele>554.2</ele>
        <time>2021-10-15T17:07:51Z</time>
      </trkpt>
      <trkpt lat="40.2618420" lon="-5.9225180">
        <ele>554.0</ele>
        <time>2021-10-15T17:07:53Z</time>
      </trkpt>
      <trkpt lat="40.2617910" lon="-5.9226420">
        <ele>553.4</ele>
        <time>2021-10-15T17:07:55Z</time>
      </trkpt>
      <trkpt lat="40.2617230" lon="-5.9227970">
        <ele>552.4</ele>
        <time>2021-10-15T17:07:58Z</time>
      </trkpt>
      <trkpt lat="40.2617000" lon="-5.9228430">
        <ele>552.4</ele>
        <time>2021-10-15T17:07:59Z</time>
      </trkpt>
      <trkpt lat="40.2616710" lon="-5.9228830">
        <ele>552.2</ele>
        <time>2021-10-15T17:08:00Z</time>
      </trkpt>
      <trkpt lat="40.2616400" lon="-5.9229080">
        <ele>552.0</ele>
        <time>2021-10-15T17:08:01Z</time>
      </trkpt>
      <trkpt lat="40.2615930" lon="-5.9229400">
        <ele>551.8</ele>
        <time>2021-10-15T17:08:02Z</time>
      </trkpt>
      <trkpt lat="40.2615520" lon="-5.9229700">
        <ele>551.8</ele>
        <time>2021-10-15T17:08:03Z</time>
      </trkpt>
      <trkpt lat="40.2614380" lon="-5.9231110">
        <ele>551.4</ele>
        <time>2021-10-15T17:08:06Z</time>
      </trkpt>
      <trkpt lat="40.2613970" lon="-5.9231590">
        <ele>551.2</ele>
        <time>2021-10-15T17:08:07Z</time>
      </trkpt>
      <trkpt lat="40.2612100" lon="-5.9234000">
        <ele>550.0</ele>
        <time>2021-10-15T17:08:12Z</time>
      </trkpt>
      <trkpt lat="40.2611010" lon="-5.9235380">
        <ele>549.6</ele>
        <time>2021-10-15T17:08:15Z</time>
      </trkpt>
      <trkpt lat="40.2609820" lon="-5.9236300">
        <ele>549.6</ele>
        <time>2021-10-15T17:08:18Z</time>
      </trkpt>
      <trkpt lat="40.2607990" lon="-5.9237550">
        <ele>549.0</ele>
        <time>2021-10-15T17:08:23Z</time>
      </trkpt>
      <trkpt lat="40.2607440" lon="-5.9238290">
        <ele>548.8</ele>
        <time>2021-10-15T17:08:25Z</time>
      </trkpt>
      <trkpt lat="40.2606660" lon="-5.9240870">
        <ele>548.6</ele>
        <time>2021-10-15T17:08:31Z</time>
      </trkpt>
      <trkpt lat="40.2606190" lon="-5.9244280">
        <ele>548.4</ele>
        <time>2021-10-15T17:08:39Z</time>
      </trkpt>
      <trkpt lat="40.2605650" lon="-5.9246500">
        <ele>549.0</ele>
        <time>2021-10-15T17:08:44Z</time>
      </trkpt>
      <trkpt lat="40.2605130" lon="-5.9249590">
        <ele>549.2</ele>
        <time>2021-10-15T17:08:51Z</time>
      </trkpt>
      <trkpt lat="40.2604960" lon="-5.9252350">
        <ele>549.6</ele>
        <time>2021-10-15T17:08:58Z</time>
      </trkpt>
      <trkpt lat="40.2604620" lon="-5.9255090">
        <ele>549.6</ele>
        <time>2021-10-15T17:09:04Z</time>
      </trkpt>
      <trkpt lat="40.2604240" lon="-5.9257050">
        <ele>549.6</ele>
        <time>2021-10-15T17:09:09Z</time>
      </trkpt>
      <trkpt lat="40.2603880" lon="-5.9259830">
        <ele>549.2</ele>
        <time>2021-10-15T17:09:16Z</time>
      </trkpt>
      <trkpt lat="40.2603690" lon="-5.9262800">
        <ele>549.0</ele>
        <time>2021-10-15T17:09:24Z</time>
      </trkpt>
      <trkpt lat="40.2603590" lon="-5.9262880">
        <ele>549.0</ele>
        <time>2021-10-15T17:09:25Z</time>
      </trkpt>
      <trkpt lat="40.2603600" lon="-5.9262810">
        <ele>549.0</ele>
        <time>2021-10-15T17:09:29Z</time>
      </trkpt>
      <trkpt lat="40.2603510" lon="-5.9262240">
        <ele>549.0</ele>
        <time>2021-10-15T17:09:31Z</time>
      </trkpt>
      <trkpt lat="40.2603560" lon="-5.9261630">
        <ele>549.0</ele>
        <time>2021-10-15T17:09:33Z</time>
      </trkpt>
      <trkpt lat="40.2603560" lon="-5.9261100">
        <ele>549.0</ele>
        <time>2021-10-15T17:09:35Z</time>
      </trkpt>
      <trkpt lat="40.2603290" lon="-5.9260940">
        <ele>549.0</ele>
        <time>2021-10-15T17:09:37Z</time>
      </trkpt>
      <trkpt lat="40.2602720" lon="-5.9260990">
        <ele>549.0</ele>
        <time>2021-10-15T17:09:40Z</time>
      </trkpt>
      <trkpt lat="40.2602520" lon="-5.9261470">
        <ele>549.0</ele>
        <time>2021-10-15T17:09:42Z</time>
      </trkpt>
      <trkpt lat="40.2601970" lon="-5.9263580">
        <ele>549.6</ele>
        <time>2021-10-15T17:09:49Z</time>
      </trkpt>
      <trkpt lat="40.2601090" lon="-5.9265610">
        <ele>549.8</ele>
        <time>2021-10-15T17:09:55Z</time>
      </trkpt>
      <trkpt lat="40.2600140" lon="-5.9267610">
        <ele>550.2</ele>
        <time>2021-10-15T17:10:02Z</time>
      </trkpt>
      <trkpt lat="40.2599870" lon="-5.9267840">
        <ele>550.4</ele>
        <time>2021-10-15T17:10:03Z</time>
      </trkpt>
      <trkpt lat="40.2598930" lon="-5.9269090">
        <ele>551.0</ele>
        <time>2021-10-15T17:10:09Z</time>
      </trkpt>
      <trkpt lat="40.2598540" lon="-5.9269530">
        <ele>551.4</ele>
        <time>2021-10-15T17:10:12Z</time>
      </trkpt>
      <trkpt lat="40.2598370" lon="-5.9269610">
        <ele>551.6</ele>
        <time>2021-10-15T17:10:13Z</time>
      </trkpt>
      <trkpt lat="40.2598060" lon="-5.9269670">
        <ele>551.8</ele>
        <time>2021-10-15T17:10:15Z</time>
      </trkpt>
      <trkpt lat="40.2597480" lon="-5.9270290">
        <ele>552.2</ele>
        <time>2021-10-15T17:10:19Z</time>
      </trkpt>
      <trkpt lat="40.2597380" lon="-5.9270670">
        <ele>552.2</ele>
        <time>2021-10-15T17:10:20Z</time>
      </trkpt>
      <trkpt lat="40.2597300" lon="-5.9271130">
        <ele>552.6</ele>
        <time>2021-10-15T17:10:22Z</time>
      </trkpt>
      <trkpt lat="40.2597190" lon="-5.9271590">
        <ele>552.8</ele>
        <time>2021-10-15T17:10:24Z</time>
      </trkpt>
      <trkpt lat="40.2596950" lon="-5.9272010">
        <ele>553.0</ele>
        <time>2021-10-15T17:10:26Z</time>
      </trkpt>
      <trkpt lat="40.2596280" lon="-5.9273330">
        <ele>553.4</ele>
        <time>2021-10-15T17:10:32Z</time>
      </trkpt>
      <trkpt lat="40.2596050" lon="-5.9274420">
        <ele>553.6</ele>
        <time>2021-10-15T17:10:36Z</time>
      </trkpt>
      <trkpt lat="40.2595940" lon="-5.9274740">
        <ele>553.8</ele>
        <time>2021-10-15T17:10:38Z</time>
      </trkpt>
      <trkpt lat="40.2595880" lon="-5.9274880">
        <ele>554.0</ele>
        <time>2021-10-15T17:10:39Z</time>
      </trkpt>
      <trkpt lat="40.2595750" lon="-5.9275170">
        <ele>554.2</ele>
        <time>2021-10-15T17:10:41Z</time>
      </trkpt>
      <trkpt lat="40.2595700" lon="-5.9275530">
        <ele>554.4</ele>
        <time>2021-10-15T17:10:43Z</time>
      </trkpt>
      <trkpt lat="40.2595490" lon="-5.9276240">
        <ele>554.4</ele>
        <time>2021-10-15T17:10:49Z</time>
      </trkpt>
      <trkpt lat="40.2595690" lon="-5.9277120">
        <ele>554.2</ele>
        <time>2021-10-15T17:10:58Z</time>
      </trkpt>
      <trkpt lat="40.2595580" lon="-5.9277790">
        <ele>554.0</ele>
        <time>2021-10-15T17:11:00Z</time>
      </trkpt>
      <trkpt lat="40.2594780" lon="-5.9279710">
        <ele>553.2</ele>
        <time>2021-10-15T17:11:06Z</time>
      </trkpt>
      <trkpt lat="40.2594340" lon="-5.9280340">
        <ele>552.6</ele>
        <time>2021-10-15T17:11:11Z</time>
      </trkpt>
      <trkpt lat="40.2594340" lon="-5.9280340">
        <ele>552.4</ele>
        <time>2021-10-15T17:11:12Z</time>
      </trkpt>
      <trkpt lat="40.2592930" lon="-5.9280910">
        <ele>524.8</ele>
        <time>2021-10-16T07:34:42Z</time>
      </trkpt>
      <trkpt lat="40.2592950" lon="-5.9280910">
        <ele>527.4</ele>
        <time>2021-10-16T07:34:43Z</time>
      </trkpt>
      <trkpt lat="40.2594110" lon="-5.9281140">
        <ele>527.6</ele>
        <time>2021-10-16T07:43:02Z</time>
      </trkpt>
      <trkpt lat="40.2594160" lon="-5.9281580">
        <ele>527.6</ele>
        <time>2021-10-16T07:43:04Z</time>
      </trkpt>
      <trkpt lat="40.2594130" lon="-5.9281770">
        <ele>527.6</ele>
        <time>2021-10-16T07:43:05Z</time>
      </trkpt>
      <trkpt lat="40.2593830" lon="-5.9282280">
        <ele>527.2</ele>
        <time>2021-10-16T07:43:08Z</time>
      </trkpt>
      <trkpt lat="40.2593790" lon="-5.9282520">
        <ele>527.0</ele>
        <time>2021-10-16T07:43:09Z</time>
      </trkpt>
      <trkpt lat="40.2593260" lon="-5.9283630">
        <ele>526.6</ele>
        <time>2021-10-16T07:43:14Z</time>
      </trkpt>
      <trkpt lat="40.2593240" lon="-5.9283880">
        <ele>526.6</ele>
        <time>2021-10-16T07:43:15Z</time>
      </trkpt>
      <trkpt lat="40.2593220" lon="-5.9284180">
        <ele>526.4</ele>
        <time>2021-10-16T07:43:16Z</time>
      </trkpt>
      <trkpt lat="40.2593210" lon="-5.9285330">
        <ele>526.4</ele>
        <time>2021-10-16T07:43:19Z</time>
      </trkpt>
      <trkpt lat="40.2593090" lon="-5.9285670">
        <ele>526.2</ele>
        <time>2021-10-16T07:43:20Z</time>
      </trkpt>
      <trkpt lat="40.2592760" lon="-5.9286820">
        <ele>526.0</ele>
        <time>2021-10-16T07:43:23Z</time>
      </trkpt>
      <trkpt lat="40.2592380" lon="-5.9287470">
        <ele>525.8</ele>
        <time>2021-10-16T07:43:26Z</time>
      </trkpt>
      <trkpt lat="40.2592220" lon="-5.9287610">
        <ele>525.8</ele>
        <time>2021-10-16T07:43:27Z</time>
      </trkpt>
      <trkpt lat="40.2591620" lon="-5.9289070">
        <ele>525.8</ele>
        <time>2021-10-16T07:43:33Z</time>
      </trkpt>
      <trkpt lat="40.2590730" lon="-5.9290670">
        <ele>525.8</ele>
        <time>2021-10-16T07:43:39Z</time>
      </trkpt>
      <trkpt lat="40.2590620" lon="-5.9290970">
        <ele>525.8</ele>
        <time>2021-10-16T07:43:40Z</time>
      </trkpt>
      <trkpt lat="40.2590480" lon="-5.9291560">
        <ele>526.2</ele>
        <time>2021-10-16T07:43:43Z</time>
      </trkpt>
      <trkpt lat="40.2590350" lon="-5.9292150">
        <ele>526.8</ele>
        <time>2021-10-16T07:43:46Z</time>
      </trkpt>
      <trkpt lat="40.2590320" lon="-5.9293310">
        <ele>527.0</ele>
        <time>2021-10-16T07:43:48Z</time>
      </trkpt>
      <trkpt lat="40.2590090" lon="-5.9294520">
        <ele>527.2</ele>
        <time>2021-10-16T07:43:50Z</time>
      </trkpt>
      <trkpt lat="40.2589560" lon="-5.9296150">
        <ele>527.2</ele>
        <time>2021-10-16T07:43:53Z</time>
      </trkpt>
      <trkpt lat="40.2589260" lon="-5.9296750">
        <ele>527.2</ele>
        <time>2021-10-16T07:43:55Z</time>
      </trkpt>
      <trkpt lat="40.2588980" lon="-5.9297780">
        <ele>527.2</ele>
        <time>2021-10-16T07:43:59Z</time>
      </trkpt>
      <trkpt lat="40.2588730" lon="-5.9298570">
        <ele>527.6</ele>
        <time>2021-10-16T07:44:02Z</time>
      </trkpt>
      <trkpt lat="40.2588490" lon="-5.9299030">
        <ele>527.8</ele>
        <time>2021-10-16T07:44:04Z</time>
      </trkpt>
      <trkpt lat="40.2588130" lon="-5.9299400">
        <ele>528.0</ele>
        <time>2021-10-16T07:44:06Z</time>
      </trkpt>
      <trkpt lat="40.2587650" lon="-5.9300070">
        <ele>528.4</ele>
        <time>2021-10-16T07:44:09Z</time>
      </trkpt>
      <trkpt lat="40.2586950" lon="-5.9301130">
        <ele>528.6</ele>
        <time>2021-10-16T07:44:14Z</time>
      </trkpt>
      <trkpt lat="40.2586740" lon="-5.9301620">
        <ele>528.8</ele>
        <time>2021-10-16T07:44:16Z</time>
      </trkpt>
      <trkpt lat="40.2586270" lon="-5.9302900">
        <ele>529.2</ele>
        <time>2021-10-16T07:44:22Z</time>
      </trkpt>
      <trkpt lat="40.2586140" lon="-5.9303020">
        <ele>529.2</ele>
        <time>2021-10-16T07:44:23Z</time>
      </trkpt>
      <trkpt lat="40.2585910" lon="-5.9303410">
        <ele>529.4</ele>
        <time>2021-10-16T07:44:25Z</time>
      </trkpt>
      <trkpt lat="40.2585730" lon="-5.9303820">
        <ele>529.4</ele>
        <time>2021-10-16T07:44:27Z</time>
      </trkpt>
      <trkpt lat="40.2585180" lon="-5.9305230">
        <ele>529.8</ele>
        <time>2021-10-16T07:44:35Z</time>
      </trkpt>
      <trkpt lat="40.2584720" lon="-5.9306630">
        <ele>529.8</ele>
        <time>2021-10-16T07:44:39Z</time>
      </trkpt>
      <trkpt lat="40.2584550" lon="-5.9307510">
        <ele>530.0</ele>
        <time>2021-10-16T07:44:42Z</time>
      </trkpt>
      <trkpt lat="40.2584170" lon="-5.9309220">
        <ele>530.6</ele>
        <time>2021-10-16T07:44:48Z</time>
      </trkpt>
      <trkpt lat="40.2583800" lon="-5.9310470">
        <ele>531.0</ele>
        <time>2021-10-16T07:44:53Z</time>
      </trkpt>
      <trkpt lat="40.2583700" lon="-5.9310680">
        <ele>531.2</ele>
        <time>2021-10-16T07:44:54Z</time>
      </trkpt>
      <trkpt lat="40.2583630" lon="-5.9310890">
        <ele>531.4</ele>
        <time>2021-10-16T07:44:55Z</time>
      </trkpt>
      <trkpt lat="40.2583260" lon="-5.9312620">
        <ele>532.0</ele>
        <time>2021-10-16T07:45:03Z</time>
      </trkpt>
      <trkpt lat="40.2582600" lon="-5.9314420">
        <ele>533.0</ele>
        <time>2021-10-16T07:45:11Z</time>
      </trkpt>
      <trkpt lat="40.2582500" lon="-5.9314610">
        <ele>533.2</ele>
        <time>2021-10-16T07:45:12Z</time>
      </trkpt>
      <trkpt lat="40.2582210" lon="-5.9315280">
        <ele>534.0</ele>
        <time>2021-10-16T07:45:17Z</time>
      </trkpt>
      <trkpt lat="40.2582180" lon="-5.9315280">
        <ele>534.0</ele>
        <time>2021-10-16T07:45:18Z</time>
      </trkpt>
      <trkpt lat="40.2581970" lon="-5.9316050">
        <ele>534.0</ele>
        <time>2021-10-16T07:45:42Z</time>
      </trkpt>
      <trkpt lat="40.2581890" lon="-5.9316270">
        <ele>534.0</ele>
        <time>2021-10-16T07:45:43Z</time>
      </trkpt>
      <trkpt lat="40.2581830" lon="-5.9316460">
        <ele>534.0</ele>
        <time>2021-10-16T07:45:44Z</time>
      </trkpt>
      <trkpt lat="40.2581510" lon="-5.9317350">
        <ele>534.2</ele>
        <time>2021-10-16T07:45:48Z</time>
      </trkpt>
      <trkpt lat="40.2581310" lon="-5.9317940">
        <ele>534.4</ele>
        <time>2021-10-16T07:45:51Z</time>
      </trkpt>
      <trkpt lat="40.2581160" lon="-5.9318380">
        <ele>534.8</ele>
        <time>2021-10-16T07:45:53Z</time>
      </trkpt>
      <trkpt lat="40.2580770" lon="-5.9319310">
        <ele>535.2</ele>
        <time>2021-10-16T07:45:57Z</time>
      </trkpt>
      <trkpt lat="40.2580660" lon="-5.9319510">
        <ele>535.4</ele>
        <time>2021-10-16T07:45:58Z</time>
      </trkpt>
      <trkpt lat="40.2580380" lon="-5.9320200">
        <ele>535.6</ele>
        <time>2021-10-16T07:46:01Z</time>
      </trkpt>
      <trkpt lat="40.2580080" lon="-5.9320860">
        <ele>536.0</ele>
        <time>2021-10-16T07:46:04Z</time>
      </trkpt>
      <trkpt lat="40.2579600" lon="-5.9321680">
        <ele>536.4</ele>
        <time>2021-10-16T07:46:08Z</time>
      </trkpt>
      <trkpt lat="40.2579030" lon="-5.9322730">
        <ele>536.6</ele>
        <time>2021-10-16T07:46:13Z</time>
      </trkpt>
      <trkpt lat="40.2578550" lon="-5.9324240">
        <ele>537.2</ele>
        <time>2021-10-16T07:46:18Z</time>
      </trkpt>
      <trkpt lat="40.2578290" lon="-5.9325080">
        <ele>537.2</ele>
        <time>2021-10-16T07:46:21Z</time>
      </trkpt>
      <trkpt lat="40.2577880" lon="-5.9326230">
        <ele>537.4</ele>
        <time>2021-10-16T07:46:25Z</time>
      </trkpt>
      <trkpt lat="40.2577520" lon="-5.9327110">
        <ele>537.6</ele>
        <time>2021-10-16T07:46:28Z</time>
      </trkpt>
      <trkpt lat="40.2576610" lon="-5.9329030">
        <ele>537.8</ele>
        <time>2021-10-16T07:46:35Z</time>
      </trkpt>
      <trkpt lat="40.2575240" lon="-5.9331860">
        <ele>538.2</ele>
        <time>2021-10-16T07:46:44Z</time>
      </trkpt>
      <trkpt lat="40.2574600" lon="-5.9333520">
        <ele>538.2</ele>
        <time>2021-10-16T07:46:48Z</time>
      </trkpt>
      <trkpt lat="40.2573880" lon="-5.9335160">
        <ele>538.2</ele>
        <time>2021-10-16T07:46:52Z</time>
      </trkpt>
      <trkpt lat="40.2572950" lon="-5.9337200">
        <ele>538.2</ele>
        <time>2021-10-16T07:46:57Z</time>
      </trkpt>
      <trkpt lat="40.2572380" lon="-5.9338250">
        <ele>538.0</ele>
        <time>2021-10-16T07:47:00Z</time>
      </trkpt>
      <trkpt lat="40.2571770" lon="-5.9339840">
        <ele>537.8</ele>
        <time>2021-10-16T07:47:04Z</time>
      </trkpt>
      <trkpt lat="40.2571630" lon="-5.9340200">
        <ele>537.8</ele>
        <time>2021-10-16T07:47:05Z</time>
      </trkpt>
      <trkpt lat="40.2570810" lon="-5.9341740">
        <ele>537.6</ele>
        <time>2021-10-16T07:47:09Z</time>
      </trkpt>
      <trkpt lat="40.2570500" lon="-5.9342480">
        <ele>537.4</ele>
        <time>2021-10-16T07:47:11Z</time>
      </trkpt>
      <trkpt lat="40.2569570" lon="-5.9344680">
        <ele>537.4</ele>
        <time>2021-10-16T07:47:16Z</time>
      </trkpt>
      <trkpt lat="40.2568370" lon="-5.9348440">
        <ele>537.2</ele>
        <time>2021-10-16T07:47:24Z</time>
      </trkpt>
      <trkpt lat="40.2567080" lon="-5.9351550">
        <ele>537.2</ele>
        <time>2021-10-16T07:47:31Z</time>
      </trkpt>
      <trkpt lat="40.2566770" lon="-5.9352350">
        <ele>537.2</ele>
        <time>2021-10-16T07:47:33Z</time>
      </trkpt>
      <trkpt lat="40.2565780" lon="-5.9354640">
        <ele>537.4</ele>
        <time>2021-10-16T07:47:39Z</time>
      </trkpt>
      <trkpt lat="40.2565330" lon="-5.9355800">
        <ele>537.4</ele>
        <time>2021-10-16T07:47:44Z</time>
      </trkpt>
      <trkpt lat="40.2565300" lon="-5.9356050">
        <ele>537.0</ele>
        <time>2021-10-16T07:47:48Z</time>
      </trkpt>
      <trkpt lat="40.2565040" lon="-5.9356730">
        <ele>536.6</ele>
        <time>2021-10-16T07:47:52Z</time>
      </trkpt>
      <trkpt lat="40.2564790" lon="-5.9356880">
        <ele>536.6</ele>
        <time>2021-10-16T07:47:54Z</time>
      </trkpt>
      <trkpt lat="40.2564700" lon="-5.9356960">
        <ele>536.4</ele>
        <time>2021-10-16T07:47:55Z</time>
      </trkpt>
      <trkpt lat="40.2564570" lon="-5.9357360">
        <ele>536.2</ele>
        <time>2021-10-16T07:47:57Z</time>
      </trkpt>
      <trkpt lat="40.2564550" lon="-5.9357840">
        <ele>536.2</ele>
        <time>2021-10-16T07:47:59Z</time>
      </trkpt>
      <trkpt lat="40.2564360" lon="-5.9358700">
        <ele>536.2</ele>
        <time>2021-10-16T07:48:02Z</time>
      </trkpt>
      <trkpt lat="40.2563330" lon="-5.9361280">
        <ele>536.2</ele>
        <time>2021-10-16T07:48:09Z</time>
      </trkpt>
      <trkpt lat="40.2562170" lon="-5.9363990">
        <ele>536.0</ele>
        <time>2021-10-16T07:48:16Z</time>
      </trkpt>
      <trkpt lat="40.2560980" lon="-5.9367020">
        <ele>535.8</ele>
        <time>2021-10-16T07:48:23Z</time>
      </trkpt>
      <trkpt lat="40.2560310" lon="-5.9368860">
        <ele>535.4</ele>
        <time>2021-10-16T07:48:27Z</time>
      </trkpt>
      <trkpt lat="40.2559810" lon="-5.9370370">
        <ele>535.0</ele>
        <time>2021-10-16T07:48:30Z</time>
      </trkpt>
      <trkpt lat="40.2558700" lon="-5.9373060">
        <ele>534.4</ele>
        <time>2021-10-16T07:48:35Z</time>
      </trkpt>
      <trkpt lat="40.2558450" lon="-5.9373610">
        <ele>534.2</ele>
        <time>2021-10-16T07:48:36Z</time>
      </trkpt>
      <trkpt lat="40.2557860" lon="-5.9374670">
        <ele>533.8</ele>
        <time>2021-10-16T07:48:38Z</time>
      </trkpt>
      <trkpt lat="40.2556650" lon="-5.9377670">
        <ele>533.2</ele>
        <time>2021-10-16T07:48:43Z</time>
      </trkpt>
      <trkpt lat="40.2556160" lon="-5.9378940">
        <ele>532.8</ele>
        <time>2021-10-16T07:48:45Z</time>
      </trkpt>
      <trkpt lat="40.2554810" lon="-5.9382510">
        <ele>532.2</ele>
        <time>2021-10-16T07:48:51Z</time>
      </trkpt>
      <trkpt lat="40.2554590" lon="-5.9383090">
        <ele>532.0</ele>
        <time>2021-10-16T07:48:52Z</time>
      </trkpt>
      <trkpt lat="40.2553820" lon="-5.9384810">
        <ele>531.4</ele>
        <time>2021-10-16T07:48:55Z</time>
      </trkpt>
      <trkpt lat="40.2553350" lon="-5.9386050">
        <ele>531.0</ele>
        <time>2021-10-16T07:48:57Z</time>
      </trkpt>
      <trkpt lat="40.2553110" lon="-5.9386650">
        <ele>530.6</ele>
        <time>2021-10-16T07:48:58Z</time>
      </trkpt>
      <trkpt lat="40.2552560" lon="-5.9388310">
        <ele>530.0</ele>
        <time>2021-10-16T07:49:01Z</time>
      </trkpt>
      <trkpt lat="40.2552370" lon="-5.9388850">
        <ele>529.8</ele>
        <time>2021-10-16T07:49:02Z</time>
      </trkpt>
      <trkpt lat="40.2551990" lon="-5.9389920">
        <ele>529.6</ele>
        <time>2021-10-16T07:49:04Z</time>
      </trkpt>
      <trkpt lat="40.2551880" lon="-5.9390460">
        <ele>529.4</ele>
        <time>2021-10-16T07:49:05Z</time>
      </trkpt>
      <trkpt lat="40.2551100" lon="-5.9392870">
        <ele>528.8</ele>
        <time>2021-10-16T07:49:10Z</time>
      </trkpt>
      <trkpt lat="40.2550730" lon="-5.9393750">
        <ele>528.8</ele>
        <time>2021-10-16T07:49:12Z</time>
      </trkpt>
      <trkpt lat="40.2550310" lon="-5.9395220">
        <ele>528.2</ele>
        <time>2021-10-16T07:49:15Z</time>
      </trkpt>
      <trkpt lat="40.2550410" lon="-5.9395640">
        <ele>527.8</ele>
        <time>2021-10-16T07:49:16Z</time>
      </trkpt>
      <trkpt lat="40.2550610" lon="-5.9395970">
        <ele>527.6</ele>
        <time>2021-10-16T07:49:17Z</time>
      </trkpt>
      <trkpt lat="40.2551090" lon="-5.9396270">
        <ele>527.2</ele>
        <time>2021-10-16T07:49:19Z</time>
      </trkpt>
      <trkpt lat="40.2551430" lon="-5.9396480">
        <ele>526.6</ele>
        <time>2021-10-16T07:49:21Z</time>
      </trkpt>
      <trkpt lat="40.2551700" lon="-5.9396850">
        <ele>526.2</ele>
        <time>2021-10-16T07:49:24Z</time>
      </trkpt>
      <trkpt lat="40.2551550" lon="-5.9398110">
        <ele>526.0</ele>
        <time>2021-10-16T07:49:28Z</time>
      </trkpt>
      <trkpt lat="40.2550170" lon="-5.9400580">
        <ele>525.6</ele>
        <time>2021-10-16T07:49:34Z</time>
      </trkpt>
      <trkpt lat="40.2549830" lon="-5.9401010">
        <ele>525.6</ele>
        <time>2021-10-16T07:49:35Z</time>
      </trkpt>
      <trkpt lat="40.2549520" lon="-5.9401420">
        <ele>525.6</ele>
        <time>2021-10-16T07:49:36Z</time>
      </trkpt>
      <trkpt lat="40.2548980" lon="-5.9402390">
        <ele>525.4</ele>
        <time>2021-10-16T07:49:38Z</time>
      </trkpt>
      <trkpt lat="40.2547000" lon="-5.9405990">
        <ele>524.6</ele>
        <time>2021-10-16T07:49:45Z</time>
      </trkpt>
      <trkpt lat="40.2546310" lon="-5.9407080">
        <ele>524.4</ele>
        <time>2021-10-16T07:49:47Z</time>
      </trkpt>
      <trkpt lat="40.2544040" lon="-5.9410480">
        <ele>524.0</ele>
        <time>2021-10-16T07:49:53Z</time>
      </trkpt>
      <trkpt lat="40.2542920" lon="-5.9412220">
        <ele>523.4</ele>
        <time>2021-10-16T07:49:56Z</time>
      </trkpt>
      <trkpt lat="40.2540620" lon="-5.9415740">
        <ele>522.6</ele>
        <time>2021-10-16T07:50:02Z</time>
      </trkpt>
      <trkpt lat="40.2540210" lon="-5.9416370">
        <ele>522.4</ele>
        <time>2021-10-16T07:50:03Z</time>
      </trkpt>
      <trkpt lat="40.2538590" lon="-5.9418900">
        <ele>522.0</ele>
        <time>2021-10-16T07:50:07Z</time>
      </trkpt>
      <trkpt lat="40.2537760" lon="-5.9420260">
        <ele>521.8</ele>
        <time>2021-10-16T07:50:09Z</time>
      </trkpt>
      <trkpt lat="40.2536610" lon="-5.9422480">
        <ele>521.2</ele>
        <time>2021-10-16T07:50:12Z</time>
      </trkpt>
      <trkpt lat="40.2535160" lon="-5.9425770">
        <ele>520.2</ele>
        <time>2021-10-16T07:50:16Z</time>
      </trkpt>
      <trkpt lat="40.2533690" lon="-5.9430430">
        <ele>518.8</ele>
        <time>2021-10-16T07:50:21Z</time>
      </trkpt>
      <trkpt lat="40.2533160" lon="-5.9432450">
        <ele>518.2</ele>
        <time>2021-10-16T07:50:23Z</time>
      </trkpt>
      <trkpt lat="40.2532660" lon="-5.9434510">
        <ele>517.8</ele>
        <time>2021-10-16T07:50:25Z</time>
      </trkpt>
      <trkpt lat="40.2531920" lon="-5.9437710">
        <ele>516.6</ele>
        <time>2021-10-16T07:50:28Z</time>
      </trkpt>
      <trkpt lat="40.2531160" lon="-5.9440920">
        <ele>515.6</ele>
        <time>2021-10-16T07:50:31Z</time>
      </trkpt>
      <trkpt lat="40.2530880" lon="-5.9441990">
        <ele>514.8</ele>
        <time>2021-10-16T07:50:32Z</time>
      </trkpt>
      <trkpt lat="40.2530240" lon="-5.9444170">
        <ele>514.2</ele>
        <time>2021-10-16T07:50:34Z</time>
      </trkpt>
      <trkpt lat="40.2529160" lon="-5.9447580">
        <ele>513.0</ele>
        <time>2021-10-16T07:50:37Z</time>
      </trkpt>
      <trkpt lat="40.2527980" lon="-5.9450940">
        <ele>511.8</ele>
        <time>2021-10-16T07:50:40Z</time>
      </trkpt>
      <trkpt lat="40.2527560" lon="-5.9452060">
        <ele>511.0</ele>
        <time>2021-10-16T07:50:41Z</time>
      </trkpt>
      <trkpt lat="40.2526680" lon="-5.9454280">
        <ele>510.2</ele>
        <time>2021-10-16T07:50:43Z</time>
      </trkpt>
      <trkpt lat="40.2525210" lon="-5.9457640">
        <ele>509.0</ele>
        <time>2021-10-16T07:50:46Z</time>
      </trkpt>
      <trkpt lat="40.2524090" lon="-5.9459780">
        <ele>507.8</ele>
        <time>2021-10-16T07:50:48Z</time>
      </trkpt>
      <trkpt lat="40.2523040" lon="-5.9461820">
        <ele>506.4</ele>
        <time>2021-10-16T07:50:50Z</time>
      </trkpt>
      <trkpt lat="40.2522010" lon="-5.9463820">
        <ele>505.4</ele>
        <time>2021-10-16T07:50:52Z</time>
      </trkpt>
      <trkpt lat="40.2521010" lon="-5.9465760">
        <ele>504.2</ele>
        <time>2021-10-16T07:50:54Z</time>
      </trkpt>
      <trkpt lat="40.2520040" lon="-5.9467560">
        <ele>502.6</ele>
        <time>2021-10-16T07:50:56Z</time>
      </trkpt>
      <trkpt lat="40.2519590" lon="-5.9468380">
        <ele>502.2</ele>
        <time>2021-10-16T07:50:57Z</time>
      </trkpt>
      <trkpt lat="40.2519190" lon="-5.9469110">
        <ele>501.6</ele>
        <time>2021-10-16T07:50:58Z</time>
      </trkpt>
      <trkpt lat="40.2518520" lon="-5.9470420">
        <ele>500.4</ele>
        <time>2021-10-16T07:51:00Z</time>
      </trkpt>
      <trkpt lat="40.2517950" lon="-5.9471480">
        <ele>499.6</ele>
        <time>2021-10-16T07:51:02Z</time>
      </trkpt>
      <trkpt lat="40.2517560" lon="-5.9471840">
        <ele>499.0</ele>
        <time>2021-10-16T07:51:03Z</time>
      </trkpt>
      <trkpt lat="40.2517090" lon="-5.9471930">
        <ele>498.6</ele>
        <time>2021-10-16T07:51:04Z</time>
      </trkpt>
      <trkpt lat="40.2516300" lon="-5.9471580">
        <ele>498.2</ele>
        <time>2021-10-16T07:51:06Z</time>
      </trkpt>
      <trkpt lat="40.2515960" lon="-5.9471290">
        <ele>498.0</ele>
        <time>2021-10-16T07:51:07Z</time>
      </trkpt>
      <trkpt lat="40.2514550" lon="-5.9469880">
        <ele>497.6</ele>
        <time>2021-10-16T07:51:13Z</time>
      </trkpt>
      <trkpt lat="40.2514550" lon="-5.9469880">
        <ele>497.6</ele>
        <time>2021-10-16T07:51:14Z</time>
      </trkpt>
      <trkpt lat="40.2514550" lon="-5.9469880">
        <ele>497.6</ele>
        <time>2021-10-16T07:51:15Z</time>
      </trkpt>
      <trkpt lat="40.2514550" lon="-5.9469880">
        <ele>497.6</ele>
        <time>2021-10-16T07:51:18Z</time>
      </trkpt>
      <trkpt lat="40.2514550" lon="-5.9469880">
        <ele>497.6</ele>
        <time>2021-10-16T07:51:22Z</time>
      </trkpt>
      <trkpt lat="40.2514550" lon="-5.9469880">
        <ele>497.8</ele>
        <time>2021-10-16T07:51:24Z</time>
      </trkpt>
      <trkpt lat="40.2511070" lon="-5.9465870">
        <ele>498.0</ele>
        <time>2021-10-16T07:51:27Z</time>
      </trkpt>
      <trkpt lat="40.2510850" lon="-5.9465890">
        <ele>498.0</ele>
        <time>2021-10-16T07:51:28Z</time>
      </trkpt>
      <trkpt lat="40.2509590" lon="-5.9464880">
        <ele>499.0</ele>
        <time>2021-10-16T07:51:36Z</time>
      </trkpt>
      <trkpt lat="40.2508840" lon="-5.9463920">
        <ele>500.0</ele>
        <time>2021-10-16T07:51:41Z</time>
      </trkpt>
      <trkpt lat="40.2508440" lon="-5.9463370">
        <ele>500.6</ele>
        <time>2021-10-16T07:51:44Z</time>
      </trkpt>
      <trkpt lat="40.2508030" lon="-5.9462950">
        <ele>501.2</ele>
        <time>2021-10-16T07:51:47Z</time>
      </trkpt>
      <trkpt lat="40.2507360" lon="-5.9462430">
        <ele>502.4</ele>
        <time>2021-10-16T07:51:51Z</time>
      </trkpt>
      <trkpt lat="40.2506530" lon="-5.9461700">
        <ele>503.4</ele>
        <time>2021-10-16T07:51:56Z</time>
      </trkpt>
      <trkpt lat="40.2506210" lon="-5.9461420">
        <ele>503.8</ele>
        <time>2021-10-16T07:51:58Z</time>
      </trkpt>
      <trkpt lat="40.2505060" lon="-5.9460580">
        <ele>504.6</ele>
        <time>2021-10-16T07:52:04Z</time>
      </trkpt>
      <trkpt lat="40.2504500" lon="-5.9460140">
        <ele>505.0</ele>
        <time>2021-10-16T07:52:07Z</time>
      </trkpt>
      <trkpt lat="40.2503140" lon="-5.9459250">
        <ele>505.6</ele>
        <time>2021-10-16T07:52:14Z</time>
      </trkpt>
      <trkpt lat="40.2502720" lon="-5.9459030">
        <ele>505.6</ele>
        <time>2021-10-16T07:52:16Z</time>
      </trkpt>
      <trkpt lat="40.2502040" lon="-5.9458690">
        <ele>505.6</ele>
        <time>2021-10-16T07:52:19Z</time>
      </trkpt>
      <trkpt lat="40.2501870" lon="-5.9458540">
        <ele>505.8</ele>
        <time>2021-10-16T07:52:20Z</time>
      </trkpt>
      <trkpt lat="40.2501700" lon="-5.9458410">
        <ele>505.8</ele>
        <time>2021-10-16T07:52:21Z</time>
      </trkpt>
      <trkpt lat="40.2501320" lon="-5.9458210">
        <ele>506.0</ele>
        <time>2021-10-16T07:52:23Z</time>
      </trkpt>
      <trkpt lat="40.2500850" lon="-5.9457990">
        <ele>506.0</ele>
        <time>2021-10-16T07:52:25Z</time>
      </trkpt>
      <trkpt lat="40.2500400" lon="-5.9457870">
        <ele>505.8</ele>
        <time>2021-10-16T07:52:27Z</time>
      </trkpt>
      <trkpt lat="40.2500210" lon="-5.9457840">
        <ele>505.8</ele>
        <time>2021-10-16T07:52:28Z</time>
      </trkpt>
      <trkpt lat="40.2499830" lon="-5.9457890">
        <ele>505.8</ele>
        <time>2021-10-16T07:52:30Z</time>
      </trkpt>
      <trkpt lat="40.2499300" lon="-5.9458270">
        <ele>505.6</ele>
        <time>2021-10-16T07:52:33Z</time>
      </trkpt>
      <trkpt lat="40.2499160" lon="-5.9458500">
        <ele>505.6</ele>
        <time>2021-10-16T07:52:34Z</time>
      </trkpt>
      <trkpt lat="40.2498910" lon="-5.9459610">
        <ele>505.6</ele>
        <time>2021-10-16T07:52:38Z</time>
      </trkpt>
      <trkpt lat="40.2498640" lon="-5.9461620">
        <ele>505.4</ele>
        <time>2021-10-16T07:52:44Z</time>
      </trkpt>
      <trkpt lat="40.2498600" lon="-5.9462520">
        <ele>505.4</ele>
        <time>2021-10-16T07:52:47Z</time>
      </trkpt>
      <trkpt lat="40.2498530" lon="-5.9463380">
        <ele>505.4</ele>
        <time>2021-10-16T07:52:50Z</time>
      </trkpt>
      <trkpt lat="40.2498390" lon="-5.9464730">
        <ele>505.4</ele>
        <time>2021-10-16T07:52:54Z</time>
      </trkpt>
      <trkpt lat="40.2498110" lon="-5.9466030">
        <ele>505.2</ele>
        <time>2021-10-16T07:52:57Z</time>
      </trkpt>
      <trkpt lat="40.2497420" lon="-5.9469470">
        <ele>504.4</ele>
        <time>2021-10-16T07:53:03Z</time>
      </trkpt>
      <trkpt lat="40.2496710" lon="-5.9471800">
        <ele>503.2</ele>
        <time>2021-10-16T07:53:07Z</time>
      </trkpt>
      <trkpt lat="40.2496240" lon="-5.9472660">
        <ele>502.6</ele>
        <time>2021-10-16T07:53:09Z</time>
      </trkpt>
      <trkpt lat="40.2495930" lon="-5.9473010">
        <ele>502.6</ele>
        <time>2021-10-16T07:53:10Z</time>
      </trkpt>
      <trkpt lat="40.2494550" lon="-5.9474190">
        <ele>501.8</ele>
        <time>2021-10-16T07:53:14Z</time>
      </trkpt>
      <trkpt lat="40.2493860" lon="-5.9474670">
        <ele>501.2</ele>
        <time>2021-10-16T07:53:16Z</time>
      </trkpt>
      <trkpt lat="40.2493280" lon="-5.9475070">
        <ele>500.2</ele>
        <time>2021-10-16T07:53:18Z</time>
      </trkpt>
      <trkpt lat="40.2492810" lon="-5.9475400">
        <ele>498.6</ele>
        <time>2021-10-16T07:53:20Z</time>
      </trkpt>
      <trkpt lat="40.2492650" lon="-5.9475540">
        <ele>498.2</ele>
        <time>2021-10-16T07:53:21Z</time>
      </trkpt>
      <trkpt lat="40.2492320" lon="-5.9475680">
        <ele>497.2</ele>
        <time>2021-10-16T07:53:23Z</time>
      </trkpt>
      <trkpt lat="40.2491620" lon="-5.9476090">
        <ele>496.0</ele>
        <time>2021-10-16T07:53:27Z</time>
      </trkpt>
      <trkpt lat="40.2490710" lon="-5.9476770">
        <ele>494.6</ele>
        <time>2021-10-16T07:53:32Z</time>
      </trkpt>
      <trkpt lat="40.2490190" lon="-5.9477320">
        <ele>493.6</ele>
        <time>2021-10-16T07:53:35Z</time>
      </trkpt>
      <trkpt lat="40.2489300" lon="-5.9478360">
        <ele>492.4</ele>
        <time>2021-10-16T07:53:40Z</time>
      </trkpt>
      <trkpt lat="40.2488970" lon="-5.9478690">
        <ele>492.0</ele>
        <time>2021-10-16T07:53:42Z</time>
      </trkpt>
      <trkpt lat="40.2488790" lon="-5.9478840">
        <ele>491.6</ele>
        <time>2021-10-16T07:53:43Z</time>
      </trkpt>
      <trkpt lat="40.2488600" lon="-5.9478990">
        <ele>491.2</ele>
        <time>2021-10-16T07:53:44Z</time>
      </trkpt>
      <trkpt lat="40.2488360" lon="-5.9479140">
        <ele>489.8</ele>
        <time>2021-10-16T07:53:45Z</time>
      </trkpt>
      <trkpt lat="40.2487780" lon="-5.9479450">
        <ele>488.4</ele>
        <time>2021-10-16T07:53:47Z</time>
      </trkpt>
      <trkpt lat="40.2487450" lon="-5.9479660">
        <ele>488.2</ele>
        <time>2021-10-16T07:53:48Z</time>
      </trkpt>
      <trkpt lat="40.2487130" lon="-5.9479950">
        <ele>487.4</ele>
        <time>2021-10-16T07:53:49Z</time>
      </trkpt>
      <trkpt lat="40.2485910" lon="-5.9481090">
        <ele>486.2</ele>
        <time>2021-10-16T07:53:53Z</time>
      </trkpt>
      <trkpt lat="40.2485100" lon="-5.9481820">
        <ele>485.2</ele>
        <time>2021-10-16T07:53:56Z</time>
      </trkpt>
      <trkpt lat="40.2483960" lon="-5.9482330">
        <ele>484.6</ele>
        <time>2021-10-16T07:53:59Z</time>
      </trkpt>
      <trkpt lat="40.2482260" lon="-5.9483020">
        <ele>484.0</ele>
        <time>2021-10-16T07:54:03Z</time>
      </trkpt>
      <trkpt lat="40.2481850" lon="-5.9483220">
        <ele>484.0</ele>
        <time>2021-10-16T07:54:04Z</time>
      </trkpt>
      <trkpt lat="40.2480530" lon="-5.9484400">
        <ele>483.2</ele>
        <time>2021-10-16T07:54:08Z</time>
      </trkpt>
      <trkpt lat="40.2480170" lon="-5.9484680">
        <ele>482.8</ele>
        <time>2021-10-16T07:54:09Z</time>
      </trkpt>
      <trkpt lat="40.2478970" lon="-5.9485310">
        <ele>481.8</ele>
        <time>2021-10-16T07:54:12Z</time>
      </trkpt>
      <trkpt lat="40.2477690" lon="-5.9485830">
        <ele>481.2</ele>
        <time>2021-10-16T07:54:15Z</time>
      </trkpt>
      <trkpt lat="40.2477240" lon="-5.9485950">
        <ele>481.0</ele>
        <time>2021-10-16T07:54:16Z</time>
      </trkpt>
      <trkpt lat="40.2476820" lon="-5.9486070">
        <ele>481.0</ele>
        <time>2021-10-16T07:54:17Z</time>
      </trkpt>
      <trkpt lat="40.2476430" lon="-5.9486200">
        <ele>480.4</ele>
        <time>2021-10-16T07:54:18Z</time>
      </trkpt>
      <trkpt lat="40.2475580" lon="-5.9486440">
        <ele>479.6</ele>
        <time>2021-10-16T07:54:20Z</time>
      </trkpt>
      <trkpt lat="40.2475260" lon="-5.9486580">
        <ele>479.2</ele>
        <time>2021-10-16T07:54:21Z</time>
      </trkpt>
      <trkpt lat="40.2474870" lon="-5.9486800">
        <ele>478.8</ele>
        <time>2021-10-16T07:54:22Z</time>
      </trkpt>
      <trkpt lat="40.2473780" lon="-5.9487680">
        <ele>478.0</ele>
        <time>2021-10-16T07:54:25Z</time>
      </trkpt>
      <trkpt lat="40.2473420" lon="-5.9487940">
        <ele>477.6</ele>
        <time>2021-10-16T07:54:26Z</time>
      </trkpt>
      <trkpt lat="40.2473040" lon="-5.9488120">
        <ele>477.4</ele>
        <time>2021-10-16T07:54:27Z</time>
      </trkpt>
      <trkpt lat="40.2471840" lon="-5.9488480">
        <ele>477.0</ele>
        <time>2021-10-16T07:54:30Z</time>
      </trkpt>
      <trkpt lat="40.2470450" lon="-5.9488710">
        <ele>476.2</ele>
        <time>2021-10-16T07:54:33Z</time>
      </trkpt>
      <trkpt lat="40.2470020" lon="-5.9488790">
        <ele>475.8</ele>
        <time>2021-10-16T07:54:34Z</time>
      </trkpt>
      <trkpt lat="40.2468610" lon="-5.9489110">
        <ele>475.0</ele>
        <time>2021-10-16T07:54:37Z</time>
      </trkpt>
      <trkpt lat="40.2468120" lon="-5.9489210">
        <ele>474.8</ele>
        <time>2021-10-16T07:54:38Z</time>
      </trkpt>
      <trkpt lat="40.2467640" lon="-5.9489340">
        <ele>474.6</ele>
        <time>2021-10-16T07:54:39Z</time>
      </trkpt>
      <trkpt lat="40.2465940" lon="-5.9490350">
        <ele>473.6</ele>
        <time>2021-10-16T07:54:43Z</time>
      </trkpt>
      <trkpt lat="40.2465150" lon="-5.9490810">
        <ele>473.4</ele>
        <time>2021-10-16T07:54:45Z</time>
      </trkpt>
      <trkpt lat="40.2464300" lon="-5.9490940">
        <ele>473.4</ele>
        <time>2021-10-16T07:54:47Z</time>
      </trkpt>
      <trkpt lat="40.2463530" lon="-5.9490730">
        <ele>473.2</ele>
        <time>2021-10-16T07:54:49Z</time>
      </trkpt>
      <trkpt lat="40.2462050" lon="-5.9490700">
        <ele>473.2</ele>
        <time>2021-10-16T07:54:53Z</time>
      </trkpt>
      <trkpt lat="40.2461700" lon="-5.9491010">
        <ele>473.2</ele>
        <time>2021-10-16T07:54:54Z</time>
      </trkpt>
      <trkpt lat="40.2461400" lon="-5.9491380">
        <ele>473.2</ele>
        <time>2021-10-16T07:54:55Z</time>
      </trkpt>
      <trkpt lat="40.2460750" lon="-5.9492690">
        <ele>473.4</ele>
        <time>2021-10-16T07:54:58Z</time>
      </trkpt>
      <trkpt lat="40.2459060" lon="-5.9495310">
        <ele>474.0</ele>
        <time>2021-10-16T07:55:05Z</time>
      </trkpt>
      <trkpt lat="40.2458110" lon="-5.9496250">
        <ele>474.0</ele>
        <time>2021-10-16T07:55:08Z</time>
      </trkpt>
      <trkpt lat="40.2457060" lon="-5.9497130">
        <ele>474.2</ele>
        <time>2021-10-16T07:55:11Z</time>
      </trkpt>
      <trkpt lat="40.2454390" lon="-5.9500130">
        <ele>474.4</ele>
        <time>2021-10-16T07:55:20Z</time>
      </trkpt>
      <trkpt lat="40.2453370" lon="-5.9501660">
        <ele>474.8</ele>
        <time>2021-10-16T07:55:25Z</time>
      </trkpt>
      <trkpt lat="40.2453030" lon="-5.9502360">
        <ele>475.0</ele>
        <time>2021-10-16T07:55:27Z</time>
      </trkpt>
      <trkpt lat="40.2451710" lon="-5.9504410">
        <ele>475.8</ele>
        <time>2021-10-16T07:55:34Z</time>
      </trkpt>
      <trkpt lat="40.2451500" lon="-5.9504720">
        <ele>475.8</ele>
        <time>2021-10-16T07:55:35Z</time>
      </trkpt>
      <trkpt lat="40.2450730" lon="-5.9505740">
        <ele>476.6</ele>
        <time>2021-10-16T07:55:39Z</time>
      </trkpt>
      <trkpt lat="40.2450590" lon="-5.9505990">
        <ele>476.8</ele>
        <time>2021-10-16T07:55:40Z</time>
      </trkpt>
      <trkpt lat="40.2450330" lon="-5.9506400">
        <ele>477.0</ele>
        <time>2021-10-16T07:55:42Z</time>
      </trkpt>
      <trkpt lat="40.2449060" lon="-5.9507740">
        <ele>477.6</ele>
        <time>2021-10-16T07:55:49Z</time>
      </trkpt>
      <trkpt lat="40.2448190" lon="-5.9508250">
        <ele>478.2</ele>
        <time>2021-10-16T07:55:53Z</time>
      </trkpt>
      <trkpt lat="40.2447960" lon="-5.9508380">
        <ele>478.4</ele>
        <time>2021-10-16T07:55:54Z</time>
      </trkpt>
      <trkpt lat="40.2445750" lon="-5.9510100">
        <ele>479.0</ele>
        <time>2021-10-16T07:56:04Z</time>
      </trkpt>
      <trkpt lat="40.2445290" lon="-5.9510430">
        <ele>479.2</ele>
        <time>2021-10-16T07:56:06Z</time>
      </trkpt>
      <trkpt lat="40.2443790" lon="-5.9511000">
        <ele>479.8</ele>
        <time>2021-10-16T07:56:12Z</time>
      </trkpt>
      <trkpt lat="40.2443010" lon="-5.9511230">
        <ele>479.8</ele>
        <time>2021-10-16T07:56:15Z</time>
      </trkpt>
      <trkpt lat="40.2442130" lon="-5.9511660">
        <ele>479.8</ele>
        <time>2021-10-16T07:56:18Z</time>
      </trkpt>
      <trkpt lat="40.2441500" lon="-5.9512130">
        <ele>479.8</ele>
        <time>2021-10-16T07:56:20Z</time>
      </trkpt>
      <trkpt lat="40.2440440" lon="-5.9512980">
        <ele>479.2</ele>
        <time>2021-10-16T07:56:23Z</time>
      </trkpt>
      <trkpt lat="40.2439670" lon="-5.9513710">
        <ele>478.4</ele>
        <time>2021-10-16T07:56:25Z</time>
      </trkpt>
      <trkpt lat="40.2439250" lon="-5.9514120">
        <ele>478.2</ele>
        <time>2021-10-16T07:56:26Z</time>
      </trkpt>
      <trkpt lat="40.2438810" lon="-5.9514540">
        <ele>477.6</ele>
        <time>2021-10-16T07:56:27Z</time>
      </trkpt>
      <trkpt lat="40.2437790" lon="-5.9515290">
        <ele>476.4</ele>
        <time>2021-10-16T07:56:29Z</time>
      </trkpt>
      <trkpt lat="40.2437240" lon="-5.9515600">
        <ele>476.2</ele>
        <time>2021-10-16T07:56:30Z</time>
      </trkpt>
      <trkpt lat="40.2436130" lon="-5.9516190">
        <ele>475.4</ele>
        <time>2021-10-16T07:56:32Z</time>
      </trkpt>
      <trkpt lat="40.2435640" lon="-5.9516520">
        <ele>474.8</ele>
        <time>2021-10-16T07:56:33Z</time>
      </trkpt>
      <trkpt lat="40.2434790" lon="-5.9517220">
        <ele>474.2</ele>
        <time>2021-10-16T07:56:35Z</time>
      </trkpt>
      <trkpt lat="40.2434100" lon="-5.9517850">
        <ele>474.2</ele>
        <time>2021-10-16T07:56:37Z</time>
      </trkpt>
      <trkpt lat="40.2433240" lon="-5.9518800">
        <ele>474.2</ele>
        <time>2021-10-16T07:56:40Z</time>
      </trkpt>
      <trkpt lat="40.2431670" lon="-5.9520410">
        <ele>474.8</ele>
        <time>2021-10-16T07:56:47Z</time>
      </trkpt>
      <trkpt lat="40.2430740" lon="-5.9520870">
        <ele>475.4</ele>
        <time>2021-10-16T07:56:51Z</time>
      </trkpt>
      <trkpt lat="40.2430360" lon="-5.9521240">
        <ele>475.8</ele>
        <time>2021-10-16T07:56:53Z</time>
      </trkpt>
      <trkpt lat="40.2429690" lon="-5.9522180">
        <ele>476.8</ele>
        <time>2021-10-16T07:56:57Z</time>
      </trkpt>
      <trkpt lat="40.2429030" lon="-5.9522990">
        <ele>477.2</ele>
        <time>2021-10-16T07:57:01Z</time>
      </trkpt>
      <trkpt lat="40.2427580" lon="-5.9524450">
        <ele>477.8</ele>
        <time>2021-10-16T07:57:09Z</time>
      </trkpt>
      <trkpt lat="40.2427410" lon="-5.9524650">
        <ele>477.8</ele>
        <time>2021-10-16T07:57:10Z</time>
      </trkpt>
      <trkpt lat="40.2426160" lon="-5.9526050">
        <ele>478.6</ele>
        <time>2021-10-16T07:57:17Z</time>
      </trkpt>
      <trkpt lat="40.2425840" lon="-5.9526400">
        <ele>478.6</ele>
        <time>2021-10-16T07:57:19Z</time>
      </trkpt>
      <trkpt lat="40.2425290" lon="-5.9527100">
        <ele>479.0</ele>
        <time>2021-10-16T07:57:23Z</time>
      </trkpt>
      <trkpt lat="40.2424550" lon="-5.9527910">
        <ele>479.6</ele>
        <time>2021-10-16T07:57:28Z</time>
      </trkpt>
      <trkpt lat="40.2423930" lon="-5.9528710">
        <ele>479.6</ele>
        <time>2021-10-16T07:57:32Z</time>
      </trkpt>
      <trkpt lat="40.2423330" lon="-5.9529210">
        <ele>479.8</ele>
        <time>2021-10-16T07:57:35Z</time>
      </trkpt>
      <trkpt lat="40.2422730" lon="-5.9529910">
        <ele>479.8</ele>
        <time>2021-10-16T07:57:38Z</time>
      </trkpt>
      <trkpt lat="40.2422020" lon="-5.9530850">
        <ele>479.8</ele>
        <time>2021-10-16T07:57:42Z</time>
      </trkpt>
      <trkpt lat="40.2421300" lon="-5.9531900">
        <ele>480.0</ele>
        <time>2021-10-16T07:57:46Z</time>
      </trkpt>
      <trkpt lat="40.2420730" lon="-5.9532690">
        <ele>480.0</ele>
        <time>2021-10-16T07:57:49Z</time>
      </trkpt>
      <trkpt lat="40.2418930" lon="-5.9534500">
        <ele>480.0</ele>
        <time>2021-10-16T07:57:57Z</time>
      </trkpt>
      <trkpt lat="40.2418710" lon="-5.9534690">
        <ele>480.0</ele>
        <time>2021-10-16T07:57:58Z</time>
      </trkpt>
      <trkpt lat="40.2417160" lon="-5.9535560">
        <ele>480.2</ele>
        <time>2021-10-16T07:58:04Z</time>
      </trkpt>
      <trkpt lat="40.2415370" lon="-5.9537060">
        <ele>480.6</ele>
        <time>2021-10-16T07:58:12Z</time>
      </trkpt>
      <trkpt lat="40.2414030" lon="-5.9538500">
        <ele>480.8</ele>
        <time>2021-10-16T07:58:18Z</time>
      </trkpt>
      <trkpt lat="40.2413400" lon="-5.9539070">
        <ele>481.0</ele>
        <time>2021-10-16T07:58:21Z</time>
      </trkpt>
      <trkpt lat="40.2412680" lon="-5.9539900">
        <ele>481.4</ele>
        <time>2021-10-16T07:58:25Z</time>
      </trkpt>
      <trkpt lat="40.2411420" lon="-5.9541110">
        <ele>482.0</ele>
        <time>2021-10-16T07:58:32Z</time>
      </trkpt>
      <trkpt lat="40.2411040" lon="-5.9541540">
        <ele>482.0</ele>
        <time>2021-10-16T07:58:34Z</time>
      </trkpt>
      <trkpt lat="40.2410130" lon="-5.9542590">
        <ele>482.6</ele>
        <time>2021-10-16T07:58:39Z</time>
      </trkpt>
      <trkpt lat="40.2409920" lon="-5.9542790">
        <ele>482.6</ele>
        <time>2021-10-16T07:58:40Z</time>
      </trkpt>
      <trkpt lat="40.2408740" lon="-5.9543950">
        <ele>483.2</ele>
        <time>2021-10-16T07:58:46Z</time>
      </trkpt>
      <trkpt lat="40.2408580" lon="-5.9544200">
        <ele>483.2</ele>
        <time>2021-10-16T07:58:47Z</time>
      </trkpt>
      <trkpt lat="40.2408090" lon="-5.9544860">
        <ele>483.6</ele>
        <time>2021-10-16T07:58:50Z</time>
      </trkpt>
      <trkpt lat="40.2406910" lon="-5.9546080">
        <ele>483.8</ele>
        <time>2021-10-16T07:58:56Z</time>
      </trkpt>
      <trkpt lat="40.2406260" lon="-5.9546560">
        <ele>484.0</ele>
        <time>2021-10-16T07:58:59Z</time>
      </trkpt>
      <trkpt lat="40.2405770" lon="-5.9546820">
        <ele>484.2</ele>
        <time>2021-10-16T07:59:01Z</time>
      </trkpt>
      <trkpt lat="40.2405050" lon="-5.9547130">
        <ele>484.4</ele>
        <time>2021-10-16T07:59:04Z</time>
      </trkpt>
      <trkpt lat="40.2404810" lon="-5.9547300">
        <ele>484.6</ele>
        <time>2021-10-16T07:59:05Z</time>
      </trkpt>
      <trkpt lat="40.2403260" lon="-5.9548170">
        <ele>485.2</ele>
        <time>2021-10-16T07:59:12Z</time>
      </trkpt>
      <trkpt lat="40.2403030" lon="-5.9548360">
        <ele>485.2</ele>
        <time>2021-10-16T07:59:13Z</time>
      </trkpt>
      <trkpt lat="40.2401950" lon="-5.9549300">
        <ele>485.8</ele>
        <time>2021-10-16T07:59:18Z</time>
      </trkpt>
      <trkpt lat="40.2399860" lon="-5.9551460">
        <ele>486.0</ele>
        <time>2021-10-16T07:59:27Z</time>
      </trkpt>
      <trkpt lat="40.2398330" lon="-5.9552900">
        <ele>486.0</ele>
        <time>2021-10-16T07:59:33Z</time>
      </trkpt>
      <trkpt lat="40.2397780" lon="-5.9553360">
        <ele>486.0</ele>
        <time>2021-10-16T07:59:35Z</time>
      </trkpt>
      <trkpt lat="40.2396410" lon="-5.9555240">
        <ele>485.8</ele>
        <time>2021-10-16T07:59:41Z</time>
      </trkpt>
      <trkpt lat="40.2394390" lon="-5.9557630">
        <ele>485.8</ele>
        <time>2021-10-16T07:59:49Z</time>
      </trkpt>
      <trkpt lat="40.2391620" lon="-5.9560770">
        <ele>485.4</ele>
        <time>2021-10-16T08:00:00Z</time>
      </trkpt>
      <trkpt lat="40.2390400" lon="-5.9562160">
        <ele>485.4</ele>
        <time>2021-10-16T08:00:05Z</time>
      </trkpt>
      <trkpt lat="40.2389960" lon="-5.9562670">
        <ele>485.4</ele>
        <time>2021-10-16T08:00:07Z</time>
      </trkpt>
      <trkpt lat="40.2387360" lon="-5.9565170">
        <ele>485.8</ele>
        <time>2021-10-16T08:00:17Z</time>
      </trkpt>
      <trkpt lat="40.2386260" lon="-5.9566350">
        <ele>486.0</ele>
        <time>2021-10-16T08:00:22Z</time>
      </trkpt>
      <trkpt lat="40.2385370" lon="-5.9567330">
        <ele>486.2</ele>
        <time>2021-10-16T08:00:26Z</time>
      </trkpt>
      <trkpt lat="40.2383240" lon="-5.9569590">
        <ele>486.2</ele>
        <time>2021-10-16T08:00:34Z</time>
      </trkpt>
      <trkpt lat="40.2381630" lon="-5.9571890">
        <ele>485.6</ele>
        <time>2021-10-16T08:00:40Z</time>
      </trkpt>
      <trkpt lat="40.2379430" lon="-5.9573790">
        <ele>485.2</ele>
        <time>2021-10-16T08:00:47Z</time>
      </trkpt>
      <trkpt lat="40.2377520" lon="-5.9574970">
        <ele>485.0</ele>
        <time>2021-10-16T08:00:53Z</time>
      </trkpt>
      <trkpt lat="40.2375740" lon="-5.9576720">
        <ele>485.0</ele>
        <time>2021-10-16T08:00:59Z</time>
      </trkpt>
      <trkpt lat="40.2374260" lon="-5.9577360">
        <ele>485.0</ele>
        <time>2021-10-16T08:01:04Z</time>
      </trkpt>
      <trkpt lat="40.2372530" lon="-5.9579070">
        <ele>485.2</ele>
        <time>2021-10-16T08:01:11Z</time>
      </trkpt>
      <trkpt lat="40.2371590" lon="-5.9579910">
        <ele>485.2</ele>
        <time>2021-10-16T08:01:15Z</time>
      </trkpt>
      <trkpt lat="40.2371450" lon="-5.9580240">
        <ele>485.2</ele>
        <time>2021-10-16T08:01:16Z</time>
      </trkpt>
      <trkpt lat="40.2370800" lon="-5.9581530">
        <ele>485.4</ele>
        <time>2021-10-16T08:01:20Z</time>
      </trkpt>
      <trkpt lat="40.2370270" lon="-5.9582150">
        <ele>485.2</ele>
        <time>2021-10-16T08:01:22Z</time>
      </trkpt>
      <trkpt lat="40.2368860" lon="-5.9583180">
        <ele>485.2</ele>
        <time>2021-10-16T08:01:27Z</time>
      </trkpt>
      <trkpt lat="40.2368040" lon="-5.9583750">
        <ele>485.2</ele>
        <time>2021-10-16T08:01:30Z</time>
      </trkpt>
      <trkpt lat="40.2367320" lon="-5.9584360">
        <ele>485.6</ele>
        <time>2021-10-16T08:01:33Z</time>
      </trkpt>
      <trkpt lat="40.2366820" lon="-5.9584960">
        <ele>485.4</ele>
        <time>2021-10-16T08:01:35Z</time>
      </trkpt>
      <trkpt lat="40.2365280" lon="-5.9587200">
        <ele>485.6</ele>
        <time>2021-10-16T08:01:42Z</time>
      </trkpt>
      <trkpt lat="40.2364060" lon="-5.9587660">
        <ele>485.4</ele>
        <time>2021-10-16T08:01:46Z</time>
      </trkpt>
      <trkpt lat="40.2363500" lon="-5.9587700">
        <ele>485.2</ele>
        <time>2021-10-16T08:01:48Z</time>
      </trkpt>
      <trkpt lat="40.2361950" lon="-5.9588910">
        <ele>484.8</ele>
        <time>2021-10-16T08:01:53Z</time>
      </trkpt>
      <trkpt lat="40.2361640" lon="-5.9589310">
        <ele>484.6</ele>
        <time>2021-10-16T08:01:54Z</time>
      </trkpt>
      <trkpt lat="40.2360610" lon="-5.9590490">
        <ele>484.4</ele>
        <time>2021-10-16T08:01:57Z</time>
      </trkpt>
      <trkpt lat="40.2360310" lon="-5.9590680">
        <ele>484.4</ele>
        <time>2021-10-16T08:01:58Z</time>
      </trkpt>
      <trkpt lat="40.2359840" lon="-5.9591060">
        <ele>484.4</ele>
        <time>2021-10-16T08:01:59Z</time>
      </trkpt>
      <trkpt lat="40.2359040" lon="-5.9591850">
        <ele>484.2</ele>
        <time>2021-10-16T08:02:01Z</time>
      </trkpt>
      <trkpt lat="40.2358320" lon="-5.9592600">
        <ele>483.4</ele>
        <time>2021-10-16T08:02:03Z</time>
      </trkpt>
      <trkpt lat="40.2356990" lon="-5.9593900">
        <ele>483.0</ele>
        <time>2021-10-16T08:02:06Z</time>
      </trkpt>
      <trkpt lat="40.2355110" lon="-5.9596540">
        <ele>482.2</ele>
        <time>2021-10-16T08:02:11Z</time>
      </trkpt>
      <trkpt lat="40.2354410" lon="-5.9597660">
        <ele>481.8</ele>
        <time>2021-10-16T08:02:13Z</time>
      </trkpt>
      <trkpt lat="40.2353550" lon="-5.9599400">
        <ele>481.2</ele>
        <time>2021-10-16T08:02:16Z</time>
      </trkpt>
      <trkpt lat="40.2351850" lon="-5.9600980">
        <ele>480.6</ele>
        <time>2021-10-16T08:02:20Z</time>
      </trkpt>
      <trkpt lat="40.2350270" lon="-5.9602700">
        <ele>480.0</ele>
        <time>2021-10-16T08:02:24Z</time>
      </trkpt>
      <trkpt lat="40.2349700" lon="-5.9603970">
        <ele>479.8</ele>
        <time>2021-10-16T08:02:26Z</time>
      </trkpt>
      <trkpt lat="40.2349160" lon="-5.9605180">
        <ele>479.6</ele>
        <time>2021-10-16T08:02:28Z</time>
      </trkpt>
      <trkpt lat="40.2348460" lon="-5.9606150">
        <ele>479.2</ele>
        <time>2021-10-16T08:02:30Z</time>
      </trkpt>
      <trkpt lat="40.2347320" lon="-5.9607720">
        <ele>478.8</ele>
        <time>2021-10-16T08:02:33Z</time>
      </trkpt>
      <trkpt lat="40.2346610" lon="-5.9608250">
        <ele>478.6</ele>
        <time>2021-10-16T08:02:35Z</time>
      </trkpt>
      <trkpt lat="40.2345510" lon="-5.9609130">
        <ele>477.4</ele>
        <time>2021-10-16T08:02:38Z</time>
      </trkpt>
      <trkpt lat="40.2344970" lon="-5.9609370">
        <ele>476.8</ele>
        <time>2021-10-16T08:02:40Z</time>
      </trkpt>
      <trkpt lat="40.2344460" lon="-5.9609390">
        <ele>476.4</ele>
        <time>2021-10-16T08:02:42Z</time>
      </trkpt>
      <trkpt lat="40.2342990" lon="-5.9609740">
        <ele>476.4</ele>
        <time>2021-10-16T08:02:48Z</time>
      </trkpt>
      <trkpt lat="40.2342380" lon="-5.9609910">
        <ele>476.6</ele>
        <time>2021-10-16T08:02:51Z</time>
      </trkpt>
      <trkpt lat="40.2341980" lon="-5.9610240">
        <ele>477.0</ele>
        <time>2021-10-16T08:02:53Z</time>
      </trkpt>
      <trkpt lat="40.2340820" lon="-5.9611390">
        <ele>477.4</ele>
        <time>2021-10-16T08:02:58Z</time>
      </trkpt>
      <trkpt lat="40.2340620" lon="-5.9611610">
        <ele>477.6</ele>
        <time>2021-10-16T08:02:59Z</time>
      </trkpt>
      <trkpt lat="40.2339130" lon="-5.9613100">
        <ele>478.0</ele>
        <time>2021-10-16T08:03:05Z</time>
      </trkpt>
      <trkpt lat="40.2337770" lon="-5.9614400">
        <ele>478.2</ele>
        <time>2021-10-16T08:03:10Z</time>
      </trkpt>
      <trkpt lat="40.2337250" lon="-5.9615230">
        <ele>478.2</ele>
        <time>2021-10-16T08:03:12Z</time>
      </trkpt>
      <trkpt lat="40.2335480" lon="-5.9617460">
        <ele>478.0</ele>
        <time>2021-10-16T08:03:18Z</time>
      </trkpt>
      <trkpt lat="40.2334500" lon="-5.9618400">
        <ele>477.8</ele>
        <time>2021-10-16T08:03:21Z</time>
      </trkpt>
      <trkpt lat="40.2333250" lon="-5.9619650">
        <ele>477.4</ele>
        <time>2021-10-16T08:03:25Z</time>
      </trkpt>
      <trkpt lat="40.2331810" lon="-5.9620960">
        <ele>477.0</ele>
        <time>2021-10-16T08:03:29Z</time>
      </trkpt>
      <trkpt lat="40.2330990" lon="-5.9621790">
        <ele>476.8</ele>
        <time>2021-10-16T08:03:32Z</time>
      </trkpt>
      <trkpt lat="40.2329140" lon="-5.9623870">
        <ele>476.6</ele>
        <time>2021-10-16T08:03:38Z</time>
      </trkpt>
      <trkpt lat="40.2328540" lon="-5.9624690">
        <ele>476.4</ele>
        <time>2021-10-16T08:03:40Z</time>
      </trkpt>
      <trkpt lat="40.2326900" lon="-5.9626330">
        <ele>476.2</ele>
        <time>2021-10-16T08:03:45Z</time>
      </trkpt>
      <trkpt lat="40.2325980" lon="-5.9627440">
        <ele>476.2</ele>
        <time>2021-10-16T08:03:48Z</time>
      </trkpt>
      <trkpt lat="40.2324740" lon="-5.9628910">
        <ele>476.0</ele>
        <time>2021-10-16T08:03:52Z</time>
      </trkpt>
      <trkpt lat="40.2322970" lon="-5.9631200">
        <ele>475.6</ele>
        <time>2021-10-16T08:03:58Z</time>
      </trkpt>
      <trkpt lat="40.2322330" lon="-5.9631870">
        <ele>475.4</ele>
        <time>2021-10-16T08:04:00Z</time>
      </trkpt>
      <trkpt lat="40.2321800" lon="-5.9632450">
        <ele>475.4</ele>
        <time>2021-10-16T08:04:02Z</time>
      </trkpt>
      <trkpt lat="40.2321000" lon="-5.9633540">
        <ele>475.2</ele>
        <time>2021-10-16T08:04:05Z</time>
      </trkpt>
      <trkpt lat="40.2320710" lon="-5.9633750">
        <ele>475.0</ele>
        <time>2021-10-16T08:04:06Z</time>
      </trkpt>
      <trkpt lat="40.2318620" lon="-5.9635590">
        <ele>475.0</ele>
        <time>2021-10-16T08:04:13Z</time>
      </trkpt>
      <trkpt lat="40.2315580" lon="-5.9637450">
        <ele>475.0</ele>
        <time>2021-10-16T08:04:21Z</time>
      </trkpt>
      <trkpt lat="40.2313560" lon="-5.9638850">
        <ele>475.2</ele>
        <time>2021-10-16T08:04:27Z</time>
      </trkpt>
      <trkpt lat="40.2311010" lon="-5.9640310">
        <ele>475.2</ele>
        <time>2021-10-16T08:04:35Z</time>
      </trkpt>
      <trkpt lat="40.2309640" lon="-5.9641100">
        <ele>475.6</ele>
        <time>2021-10-16T08:04:40Z</time>
      </trkpt>
      <trkpt lat="40.2308620" lon="-5.9641980">
        <ele>475.0</ele>
        <time>2021-10-16T08:04:44Z</time>
      </trkpt>
      <trkpt lat="40.2307970" lon="-5.9642650">
        <ele>476.6</ele>
        <time>2021-10-16T08:04:47Z</time>
      </trkpt>
      <trkpt lat="40.2306580" lon="-5.9645130">
        <ele>476.8</ele>
        <time>2021-10-16T08:04:54Z</time>
      </trkpt>
      <trkpt lat="40.2305690" lon="-5.9646530">
        <ele>476.6</ele>
        <time>2021-10-16T08:04:59Z</time>
      </trkpt>
      <trkpt lat="40.2305440" lon="-5.9646840">
        <ele>476.6</ele>
        <time>2021-10-16T08:05:00Z</time>
      </trkpt>
      <trkpt lat="40.2304400" lon="-5.9648620">
        <ele>476.0</ele>
        <time>2021-10-16T08:05:06Z</time>
      </trkpt>
      <trkpt lat="40.2304030" lon="-5.9649380">
        <ele>475.8</ele>
        <time>2021-10-16T08:05:12Z</time>
      </trkpt>
      <trkpt lat="40.2303910" lon="-5.9649780">
        <ele>474.6</ele>
        <time>2021-10-16T08:09:22Z</time>
      </trkpt>
      <trkpt lat="40.2303700" lon="-5.9649910">
        <ele>474.6</ele>
        <time>2021-10-16T08:09:23Z</time>
      </trkpt>
      <trkpt lat="40.2303200" lon="-5.9650240">
        <ele>474.4</ele>
        <time>2021-10-16T08:09:25Z</time>
      </trkpt>
      <trkpt lat="40.2302070" lon="-5.9651410">
        <ele>474.2</ele>
        <time>2021-10-16T08:09:29Z</time>
      </trkpt>
      <trkpt lat="40.2301330" lon="-5.9652130">
        <ele>473.6</ele>
        <time>2021-10-16T08:09:32Z</time>
      </trkpt>
      <trkpt lat="40.2301090" lon="-5.9652360">
        <ele>473.2</ele>
        <time>2021-10-16T08:09:33Z</time>
      </trkpt>
      <trkpt lat="40.2300110" lon="-5.9653070">
        <ele>472.2</ele>
        <time>2021-10-16T08:09:36Z</time>
      </trkpt>
      <trkpt lat="40.2299700" lon="-5.9653310">
        <ele>471.6</ele>
        <time>2021-10-16T08:09:37Z</time>
      </trkpt>
      <trkpt lat="40.2299300" lon="-5.9653550">
        <ele>471.2</ele>
        <time>2021-10-16T08:09:38Z</time>
      </trkpt>
      <trkpt lat="40.2297880" lon="-5.9654270">
        <ele>470.0</ele>
        <time>2021-10-16T08:09:41Z</time>
      </trkpt>
      <trkpt lat="40.2296870" lon="-5.9654830">
        <ele>469.2</ele>
        <time>2021-10-16T08:09:43Z</time>
      </trkpt>
      <trkpt lat="40.2296360" lon="-5.9655110">
        <ele>468.8</ele>
        <time>2021-10-16T08:09:44Z</time>
      </trkpt>
      <trkpt lat="40.2295090" lon="-5.9656360">
        <ele>468.0</ele>
        <time>2021-10-16T08:09:47Z</time>
      </trkpt>
      <trkpt lat="40.2294650" lon="-5.9656750">
        <ele>467.6</ele>
        <time>2021-10-16T08:09:48Z</time>
      </trkpt>
      <trkpt lat="40.2294190" lon="-5.9657050">
        <ele>467.0</ele>
        <time>2021-10-16T08:09:49Z</time>
      </trkpt>
      <trkpt lat="40.2293190" lon="-5.9657530">
        <ele>466.4</ele>
        <time>2021-10-16T08:09:51Z</time>
      </trkpt>
      <trkpt lat="40.2289890" lon="-5.9659830">
        <ele>465.4</ele>
        <time>2021-10-16T08:09:58Z</time>
      </trkpt>
      <trkpt lat="40.2289420" lon="-5.9660220">
        <ele>465.2</ele>
        <time>2021-10-16T08:09:59Z</time>
      </trkpt>
      <trkpt lat="40.2288220" lon="-5.9661290">
        <ele>464.6</ele>
        <time>2021-10-16T08:10:02Z</time>
      </trkpt>
      <trkpt lat="40.2287730" lon="-5.9661850">
        <ele>464.2</ele>
        <time>2021-10-16T08:10:04Z</time>
      </trkpt>
      <trkpt lat="40.2287560" lon="-5.9662030">
        <ele>464.2</ele>
        <time>2021-10-16T08:10:05Z</time>
      </trkpt>
      <trkpt lat="40.2286960" lon="-5.9662640">
        <ele>463.6</ele>
        <time>2021-10-16T08:10:09Z</time>
      </trkpt>
      <trkpt lat="40.2286290" lon="-5.9663300">
        <ele>463.2</ele>
        <time>2021-10-16T08:10:13Z</time>
      </trkpt>
      <trkpt lat="40.2285670" lon="-5.9663920">
        <ele>462.0</ele>
        <time>2021-10-16T08:10:16Z</time>
      </trkpt>
      <trkpt lat="40.2284850" lon="-5.9664910">
        <ele>461.2</ele>
        <time>2021-10-16T08:10:19Z</time>
      </trkpt>
      <trkpt lat="40.2284610" lon="-5.9665390">
        <ele>461.0</ele>
        <time>2021-10-16T08:10:20Z</time>
      </trkpt>
      <trkpt lat="40.2283850" lon="-5.9667080">
        <ele>460.0</ele>
        <time>2021-10-16T08:10:23Z</time>
      </trkpt>
      <trkpt lat="40.2283600" lon="-5.9667710">
        <ele>459.6</ele>
        <time>2021-10-16T08:10:24Z</time>
      </trkpt>
      <trkpt lat="40.2283410" lon="-5.9668410">
        <ele>459.4</ele>
        <time>2021-10-16T08:10:25Z</time>
      </trkpt>
      <trkpt lat="40.2282600" lon="-5.9671180">
        <ele>458.6</ele>
        <time>2021-10-16T08:10:29Z</time>
      </trkpt>
      <trkpt lat="40.2282120" lon="-5.9672410">
        <ele>458.0</ele>
        <time>2021-10-16T08:10:31Z</time>
      </trkpt>
      <trkpt lat="40.2281490" lon="-5.9673450">
        <ele>457.6</ele>
        <time>2021-10-16T08:10:33Z</time>
      </trkpt>
      <trkpt lat="40.2281100" lon="-5.9673870">
        <ele>457.2</ele>
        <time>2021-10-16T08:10:34Z</time>
      </trkpt>
      <trkpt lat="40.2280720" lon="-5.9674300">
        <ele>456.6</ele>
        <time>2021-10-16T08:10:35Z</time>
      </trkpt>
      <trkpt lat="40.2280340" lon="-5.9674660">
        <ele>456.4</ele>
        <time>2021-10-16T08:10:36Z</time>
      </trkpt>
      <trkpt lat="40.2279910" lon="-5.9674920">
        <ele>455.8</ele>
        <time>2021-10-16T08:10:37Z</time>
      </trkpt>
      <trkpt lat="40.2279450" lon="-5.9675180">
        <ele>455.6</ele>
        <time>2021-10-16T08:10:38Z</time>
      </trkpt>
      <trkpt lat="40.2278020" lon="-5.9675870">
        <ele>454.6</ele>
        <time>2021-10-16T08:10:41Z</time>
      </trkpt>
      <trkpt lat="40.2277530" lon="-5.9676060">
        <ele>454.0</ele>
        <time>2021-10-16T08:10:42Z</time>
      </trkpt>
      <trkpt lat="40.2276530" lon="-5.9676330">
        <ele>453.2</ele>
        <time>2021-10-16T08:10:44Z</time>
      </trkpt>
      <trkpt lat="40.2273210" lon="-5.9676330">
        <ele>452.4</ele>
        <time>2021-10-16T08:10:51Z</time>
      </trkpt>
      <trkpt lat="40.2272760" lon="-5.9676240">
        <ele>452.2</ele>
        <time>2021-10-16T08:10:52Z</time>
      </trkpt>
      <trkpt lat="40.2272320" lon="-5.9676130">
        <ele>452.2</ele>
        <time>2021-10-16T08:10:53Z</time>
      </trkpt>
      <trkpt lat="40.2271880" lon="-5.9676070">
        <ele>452.2</ele>
        <time>2021-10-16T08:10:54Z</time>
      </trkpt>
      <trkpt lat="40.2271080" lon="-5.9676100">
        <ele>451.8</ele>
        <time>2021-10-16T08:10:56Z</time>
      </trkpt>
      <trkpt lat="40.2269680" lon="-5.9675730">
        <ele>451.0</ele>
        <time>2021-10-16T08:11:00Z</time>
      </trkpt>
      <trkpt lat="40.2267510" lon="-5.9674900">
        <ele>450.2</ele>
        <time>2021-10-16T08:11:05Z</time>
      </trkpt>
      <trkpt lat="40.2267080" lon="-5.9674690">
        <ele>450.0</ele>
        <time>2021-10-16T08:11:06Z</time>
      </trkpt>
      <trkpt lat="40.2266190" lon="-5.9674460">
        <ele>449.8</ele>
        <time>2021-10-16T08:11:08Z</time>
      </trkpt>
      <trkpt lat="40.2265740" lon="-5.9674460">
        <ele>449.8</ele>
        <time>2021-10-16T08:11:09Z</time>
      </trkpt>
      <trkpt lat="40.2265280" lon="-5.9674460">
        <ele>449.6</ele>
        <time>2021-10-16T08:11:10Z</time>
      </trkpt>
      <trkpt lat="40.2263020" lon="-5.9674180">
        <ele>448.8</ele>
        <time>2021-10-16T08:11:15Z</time>
      </trkpt>
      <trkpt lat="40.2261030" lon="-5.9674060">
        <ele>448.2</ele>
        <time>2021-10-16T08:11:20Z</time>
      </trkpt>
      <trkpt lat="40.2259360" lon="-5.9674300">
        <ele>447.8</ele>
        <time>2021-10-16T08:11:24Z</time>
      </trkpt>
      <trkpt lat="40.2258540" lon="-5.9674370">
        <ele>447.8</ele>
        <time>2021-10-16T08:11:26Z</time>
      </trkpt>
      <trkpt lat="40.2256580" lon="-5.9674390">
        <ele>447.6</ele>
        <time>2021-10-16T08:11:31Z</time>
      </trkpt>
      <trkpt lat="40.2255080" lon="-5.9674440">
        <ele>446.8</ele>
        <time>2021-10-16T08:11:35Z</time>
      </trkpt>
      <trkpt lat="40.2254510" lon="-5.9674270">
        <ele>446.8</ele>
        <time>2021-10-16T08:11:37Z</time>
      </trkpt>
      <trkpt lat="40.2254240" lon="-5.9674320">
        <ele>446.6</ele>
        <time>2021-10-16T08:11:38Z</time>
      </trkpt>
      <trkpt lat="40.2253420" lon="-5.9674860">
        <ele>446.2</ele>
        <time>2021-10-16T08:11:41Z</time>
      </trkpt>
      <trkpt lat="40.2251920" lon="-5.9675200">
        <ele>445.6</ele>
        <time>2021-10-16T08:11:46Z</time>
      </trkpt>
      <trkpt lat="40.2249750" lon="-5.9676110">
        <ele>445.0</ele>
        <time>2021-10-16T08:11:53Z</time>
      </trkpt>
      <trkpt lat="40.2248130" lon="-5.9676910">
        <ele>444.6</ele>
        <time>2021-10-16T08:11:58Z</time>
      </trkpt>
      <trkpt lat="40.2247880" lon="-5.9677050">
        <ele>444.4</ele>
        <time>2021-10-16T08:11:59Z</time>
      </trkpt>
      <trkpt lat="40.2247680" lon="-5.9677240">
        <ele>444.4</ele>
        <time>2021-10-16T08:12:00Z</time>
      </trkpt>
      <trkpt lat="40.2247520" lon="-5.9677700">
        <ele>444.2</ele>
        <time>2021-10-16T08:12:02Z</time>
      </trkpt>
      <trkpt lat="40.2247570" lon="-5.9677930">
        <ele>444.2</ele>
        <time>2021-10-16T08:12:03Z</time>
      </trkpt>
      <trkpt lat="40.2248520" lon="-5.9679670">
        <ele>444.0</ele>
        <time>2021-10-16T08:12:10Z</time>
      </trkpt>
      <trkpt lat="40.2249870" lon="-5.9681280">
        <ele>443.8</ele>
        <time>2021-10-16T08:12:15Z</time>
      </trkpt>
      <trkpt lat="40.2251360" lon="-5.9683280">
        <ele>443.6</ele>
        <time>2021-10-16T08:12:21Z</time>
      </trkpt>
      <trkpt lat="40.2252600" lon="-5.9685180">
        <ele>443.6</ele>
        <time>2021-10-16T08:12:26Z</time>
      </trkpt>
      <trkpt lat="40.2252920" lon="-5.9685520">
        <ele>443.6</ele>
        <time>2021-10-16T08:12:27Z</time>
      </trkpt>
      <trkpt lat="40.2255210" lon="-5.9688080">
        <ele>443.0</ele>
        <time>2021-10-16T08:12:34Z</time>
      </trkpt>
      <trkpt lat="40.2257000" lon="-5.9690020">
        <ele>442.4</ele>
        <time>2021-10-16T08:12:39Z</time>
      </trkpt>
      <trkpt lat="40.2258030" lon="-5.9691370">
        <ele>441.8</ele>
        <time>2021-10-16T08:12:42Z</time>
      </trkpt>
      <trkpt lat="40.2258700" lon="-5.9692210">
        <ele>441.6</ele>
        <time>2021-10-16T08:12:44Z</time>
      </trkpt>
      <trkpt lat="40.2259590" lon="-5.9693250">
        <ele>441.4</ele>
        <time>2021-10-16T08:12:47Z</time>
      </trkpt>
      <trkpt lat="40.2259880" lon="-5.9693580">
        <ele>441.4</ele>
        <time>2021-10-16T08:12:48Z</time>
      </trkpt>
      <trkpt lat="40.2261390" lon="-5.9695320">
        <ele>441.4</ele>
        <time>2021-10-16T08:12:54Z</time>
      </trkpt>
      <trkpt lat="40.2262750" lon="-5.9696080">
        <ele>442.0</ele>
        <time>2021-10-16T08:12:59Z</time>
      </trkpt>
      <trkpt lat="40.2263640" lon="-5.9696290">
        <ele>442.4</ele>
        <time>2021-10-16T08:13:02Z</time>
      </trkpt>
      <trkpt lat="40.2264880" lon="-5.9696650">
        <ele>443.0</ele>
        <time>2021-10-16T08:13:06Z</time>
      </trkpt>
      <trkpt lat="40.2266150" lon="-5.9697180">
        <ele>443.0</ele>
        <time>2021-10-16T08:13:10Z</time>
      </trkpt>
      <trkpt lat="40.2267820" lon="-5.9697860">
        <ele>443.0</ele>
        <time>2021-10-16T08:13:15Z</time>
      </trkpt>
      <trkpt lat="40.2270070" lon="-5.9698550">
        <ele>442.6</ele>
        <time>2021-10-16T08:13:21Z</time>
      </trkpt>
      <trkpt lat="40.2270450" lon="-5.9698670">
        <ele>442.6</ele>
        <time>2021-10-16T08:13:22Z</time>
      </trkpt>
      <trkpt lat="40.2271590" lon="-5.9698880">
        <ele>442.4</ele>
        <time>2021-10-16T08:13:25Z</time>
      </trkpt>
      <trkpt lat="40.2272910" lon="-5.9699320">
        <ele>442.2</ele>
        <time>2021-10-16T08:13:29Z</time>
      </trkpt>
      <trkpt lat="40.2274700" lon="-5.9701350">
        <ele>441.6</ele>
        <time>2021-10-16T08:13:35Z</time>
      </trkpt>
      <trkpt lat="40.2275070" lon="-5.9701780">
        <ele>441.4</ele>
        <time>2021-10-16T08:13:36Z</time>
      </trkpt>
      <trkpt lat="40.2277290" lon="-5.9704490">
        <ele>441.0</ele>
        <time>2021-10-16T08:13:43Z</time>
      </trkpt>
      <trkpt lat="40.2278080" lon="-5.9705240">
        <ele>440.6</ele>
        <time>2021-10-16T08:13:45Z</time>
      </trkpt>
      <trkpt lat="40.2279520" lon="-5.9706310">
        <ele>440.2</ele>
        <time>2021-10-16T08:13:48Z</time>
      </trkpt>
      <trkpt lat="40.2280690" lon="-5.9706930">
        <ele>439.8</ele>
        <time>2021-10-16T08:13:50Z</time>
      </trkpt>
      <trkpt lat="40.2281990" lon="-5.9707420">
        <ele>439.0</ele>
        <time>2021-10-16T08:13:52Z</time>
      </trkpt>
      <trkpt lat="40.2284780" lon="-5.9708120">
        <ele>438.0</ele>
        <time>2021-10-16T08:13:56Z</time>
      </trkpt>
      <trkpt lat="40.2287000" lon="-5.9708140">
        <ele>436.8</ele>
        <time>2021-10-16T08:13:59Z</time>
      </trkpt>
      <trkpt lat="40.2288490" lon="-5.9708020">
        <ele>436.0</ele>
        <time>2021-10-16T08:14:01Z</time>
      </trkpt>
      <trkpt lat="40.2289950" lon="-5.9707840">
        <ele>435.4</ele>
        <time>2021-10-16T08:14:03Z</time>
      </trkpt>
      <trkpt lat="40.2290670" lon="-5.9707850">
        <ele>435.2</ele>
        <time>2021-10-16T08:14:04Z</time>
      </trkpt>
      <trkpt lat="40.2291970" lon="-5.9708310">
        <ele>434.6</ele>
        <time>2021-10-16T08:14:06Z</time>
      </trkpt>
      <trkpt lat="40.2292490" lon="-5.9708750">
        <ele>434.2</ele>
        <time>2021-10-16T08:14:07Z</time>
      </trkpt>
      <trkpt lat="40.2292940" lon="-5.9709280">
        <ele>434.2</ele>
        <time>2021-10-16T08:14:08Z</time>
      </trkpt>
      <trkpt lat="40.2293680" lon="-5.9710350">
        <ele>433.6</ele>
        <time>2021-10-16T08:14:10Z</time>
      </trkpt>
      <trkpt lat="40.2295150" lon="-5.9712530">
        <ele>433.6</ele>
        <time>2021-10-16T08:14:15Z</time>
      </trkpt>
      <trkpt lat="40.2297070" lon="-5.9715430">
        <ele>434.0</ele>
        <time>2021-10-16T08:14:22Z</time>
      </trkpt>
      <trkpt lat="40.2298520" lon="-5.9717400">
        <ele>434.2</ele>
        <time>2021-10-16T08:14:27Z</time>
      </trkpt>
      <trkpt lat="40.2299340" lon="-5.9718560">
        <ele>434.2</ele>
        <time>2021-10-16T08:14:30Z</time>
      </trkpt>
      <trkpt lat="40.2301770" lon="-5.9721860">
        <ele>433.8</ele>
        <time>2021-10-16T08:14:38Z</time>
      </trkpt>
      <trkpt lat="40.2303260" lon="-5.9723200">
        <ele>433.6</ele>
        <time>2021-10-16T08:14:42Z</time>
      </trkpt>
      <trkpt lat="40.2303990" lon="-5.9723530">
        <ele>433.4</ele>
        <time>2021-10-16T08:14:44Z</time>
      </trkpt>
      <trkpt lat="40.2306070" lon="-5.9723310">
        <ele>433.4</ele>
        <time>2021-10-16T08:14:50Z</time>
      </trkpt>
      <trkpt lat="40.2308520" lon="-5.9722790">
        <ele>433.8</ele>
        <time>2021-10-16T08:14:57Z</time>
      </trkpt>
      <trkpt lat="40.2310810" lon="-5.9721910">
        <ele>433.6</ele>
        <time>2021-10-16T08:15:02Z</time>
      </trkpt>
      <trkpt lat="40.2312310" lon="-5.9721250">
        <ele>433.2</ele>
        <time>2021-10-16T08:15:05Z</time>
      </trkpt>
      <trkpt lat="40.2312810" lon="-5.9721090">
        <ele>433.0</ele>
        <time>2021-10-16T08:15:06Z</time>
      </trkpt>
      <trkpt lat="40.2313790" lon="-5.9721160">
        <ele>432.6</ele>
        <time>2021-10-16T08:15:08Z</time>
      </trkpt>
      <trkpt lat="40.2314960" lon="-5.9722180">
        <ele>432.2</ele>
        <time>2021-10-16T08:15:11Z</time>
      </trkpt>
      <trkpt lat="40.2315220" lon="-5.9722570">
        <ele>432.0</ele>
        <time>2021-10-16T08:15:12Z</time>
      </trkpt>
      <trkpt lat="40.2316440" lon="-5.9724500">
        <ele>432.0</ele>
        <time>2021-10-16T08:15:18Z</time>
      </trkpt>
      <trkpt lat="40.2317830" lon="-5.9726550">
        <ele>432.2</ele>
        <time>2021-10-16T08:15:24Z</time>
      </trkpt>
      <trkpt lat="40.2320240" lon="-5.9728910">
        <ele>432.2</ele>
        <time>2021-10-16T08:15:31Z</time>
      </trkpt>
      <trkpt lat="40.2322160" lon="-5.9730940">
        <ele>431.4</ele>
        <time>2021-10-16T08:15:36Z</time>
      </trkpt>
      <trkpt lat="40.2322900" lon="-5.9731880">
        <ele>431.2</ele>
        <time>2021-10-16T08:15:38Z</time>
      </trkpt>
      <trkpt lat="40.2325250" lon="-5.9736310">
        <ele>430.2</ele>
        <time>2021-10-16T08:15:46Z</time>
      </trkpt>
      <trkpt lat="40.2325560" lon="-5.9736880">
        <ele>430.0</ele>
        <time>2021-10-16T08:15:47Z</time>
      </trkpt>
      <trkpt lat="40.2327450" lon="-5.9741020">
        <ele>429.0</ele>
        <time>2021-10-16T08:15:54Z</time>
      </trkpt>
      <trkpt lat="40.2327530" lon="-5.9741520">
        <ele>428.8</ele>
        <time>2021-10-16T08:15:55Z</time>
      </trkpt>
      <trkpt lat="40.2327460" lon="-5.9742030">
        <ele>428.4</ele>
        <time>2021-10-16T08:15:56Z</time>
      </trkpt>
      <trkpt lat="40.2326890" lon="-5.9742810">
        <ele>428.0</ele>
        <time>2021-10-16T08:15:58Z</time>
      </trkpt>
      <trkpt lat="40.2326070" lon="-5.9743290">
        <ele>427.8</ele>
        <time>2021-10-16T08:16:00Z</time>
      </trkpt>
      <trkpt lat="40.2323980" lon="-5.9744370">
        <ele>426.8</ele>
        <time>2021-10-16T08:16:05Z</time>
      </trkpt>
      <trkpt lat="40.2320750" lon="-5.9746340">
        <ele>426.8</ele>
        <time>2021-10-16T08:16:14Z</time>
      </trkpt>
      <trkpt lat="40.2317280" lon="-5.9748540">
        <ele>427.0</ele>
        <time>2021-10-16T08:16:24Z</time>
      </trkpt>
      <trkpt lat="40.2313520" lon="-5.9751030">
        <ele>426.8</ele>
        <time>2021-10-16T08:16:34Z</time>
      </trkpt>
      <trkpt lat="40.2313140" lon="-5.9751280">
        <ele>426.6</ele>
        <time>2021-10-16T08:16:35Z</time>
      </trkpt>
      <trkpt lat="40.2310750" lon="-5.9752940">
        <ele>426.4</ele>
        <time>2021-10-16T08:16:41Z</time>
      </trkpt>
      <trkpt lat="40.2308960" lon="-5.9754200">
        <ele>426.0</ele>
        <time>2021-10-16T08:16:45Z</time>
      </trkpt>
      <trkpt lat="40.2307930" lon="-5.9754910">
        <ele>425.4</ele>
        <time>2021-10-16T08:16:47Z</time>
      </trkpt>
      <trkpt lat="40.2306270" lon="-5.9756010">
        <ele>424.8</ele>
        <time>2021-10-16T08:16:50Z</time>
      </trkpt>
      <trkpt lat="40.2304560" lon="-5.9757140">
        <ele>423.6</ele>
        <time>2021-10-16T08:16:53Z</time>
      </trkpt>
      <trkpt lat="40.2302850" lon="-5.9758380">
        <ele>422.8</ele>
        <time>2021-10-16T08:16:56Z</time>
      </trkpt>
      <trkpt lat="40.2302280" lon="-5.9758800">
        <ele>422.4</ele>
        <time>2021-10-16T08:16:57Z</time>
      </trkpt>
      <trkpt lat="40.2299320" lon="-5.9760770">
        <ele>421.2</ele>
        <time>2021-10-16T08:17:02Z</time>
      </trkpt>
      <trkpt lat="40.2298140" lon="-5.9761340">
        <ele>420.8</ele>
        <time>2021-10-16T08:17:04Z</time>
      </trkpt>
      <trkpt lat="40.2295240" lon="-5.9762280">
        <ele>419.6</ele>
        <time>2021-10-16T08:17:08Z</time>
      </trkpt>
      <trkpt lat="40.2294000" lon="-5.9762670">
        <ele>419.0</ele>
        <time>2021-10-16T08:17:10Z</time>
      </trkpt>
      <trkpt lat="40.2293470" lon="-5.9762900">
        <ele>418.4</ele>
        <time>2021-10-16T08:17:11Z</time>
      </trkpt>
      <trkpt lat="40.2292080" lon="-5.9763840">
        <ele>417.0</ele>
        <time>2021-10-16T08:17:15Z</time>
      </trkpt>
      <trkpt lat="40.2291930" lon="-5.9764040">
        <ele>416.0</ele>
        <time>2021-10-16T08:17:18Z</time>
      </trkpt>
      <trkpt lat="40.2291940" lon="-5.9764070">
        <ele>415.4</ele>
        <time>2021-10-16T08:17:19Z</time>
      </trkpt>
      <trkpt lat="40.2292100" lon="-5.9764570">
        <ele>414.6</ele>
        <time>2021-10-16T08:17:22Z</time>
      </trkpt>
      <trkpt lat="40.2292360" lon="-5.9765070">
        <ele>414.6</ele>
        <time>2021-10-16T08:17:24Z</time>
      </trkpt>
      <trkpt lat="40.2292420" lon="-5.9765420">
        <ele>414.4</ele>
        <time>2021-10-16T08:17:25Z</time>
      </trkpt>
      <trkpt lat="40.2293050" lon="-5.9767070">
        <ele>414.0</ele>
        <time>2021-10-16T08:17:30Z</time>
      </trkpt>
      <trkpt lat="40.2293200" lon="-5.9767470">
        <ele>414.0</ele>
        <time>2021-10-16T08:17:31Z</time>
      </trkpt>
      <trkpt lat="40.2293400" lon="-5.9768820">
        <ele>413.8</ele>
        <time>2021-10-16T08:17:34Z</time>
      </trkpt>
      <trkpt lat="40.2293730" lon="-5.9769410">
        <ele>413.8</ele>
        <time>2021-10-16T08:17:36Z</time>
      </trkpt>
      <trkpt lat="40.2294640" lon="-5.9770520">
        <ele>413.8</ele>
        <time>2021-10-16T08:17:38Z</time>
      </trkpt>
      <trkpt lat="40.2294750" lon="-5.9771060">
        <ele>413.8</ele>
        <time>2021-10-16T08:17:39Z</time>
      </trkpt>
      <trkpt lat="40.2295720" lon="-5.9773720">
        <ele>414.0</ele>
        <time>2021-10-16T08:17:45Z</time>
      </trkpt>
      <trkpt lat="40.2296420" lon="-5.9776030">
        <ele>414.6</ele>
        <time>2021-10-16T08:17:51Z</time>
      </trkpt>
      <trkpt lat="40.2295360" lon="-5.9777250">
        <ele>414.6</ele>
        <time>2021-10-16T08:17:55Z</time>
      </trkpt>
      <trkpt lat="40.2294130" lon="-5.9778070">
        <ele>414.4</ele>
        <time>2021-10-16T08:17:58Z</time>
      </trkpt>
      <trkpt lat="40.2292800" lon="-5.9778870">
        <ele>413.8</ele>
        <time>2021-10-16T08:18:01Z</time>
      </trkpt>
      <trkpt lat="40.2291870" lon="-5.9779490">
        <ele>413.4</ele>
        <time>2021-10-16T08:18:03Z</time>
      </trkpt>
      <trkpt lat="40.2288380" lon="-5.9782100">
        <ele>412.6</ele>
        <time>2021-10-16T08:18:10Z</time>
      </trkpt>
      <trkpt lat="40.2287280" lon="-5.9782790">
        <ele>412.2</ele>
        <time>2021-10-16T08:18:12Z</time>
      </trkpt>
      <trkpt lat="40.2285030" lon="-5.9784180">
        <ele>411.6</ele>
        <time>2021-10-16T08:18:16Z</time>
      </trkpt>
      <trkpt lat="40.2284490" lon="-5.9784560">
        <ele>411.4</ele>
        <time>2021-10-16T08:18:17Z</time>
      </trkpt>
      <trkpt lat="40.2283390" lon="-5.9785330">
        <ele>411.0</ele>
        <time>2021-10-16T08:18:19Z</time>
      </trkpt>
      <trkpt lat="40.2279480" lon="-5.9787880">
        <ele>409.8</ele>
        <time>2021-10-16T08:18:26Z</time>
      </trkpt>
      <trkpt lat="40.2276980" lon="-5.9789470">
        <ele>409.2</ele>
        <time>2021-10-16T08:18:31Z</time>
      </trkpt>
      <trkpt lat="40.2276600" lon="-5.9789780">
        <ele>409.0</ele>
        <time>2021-10-16T08:18:32Z</time>
      </trkpt>
      <trkpt lat="40.2276300" lon="-5.9790140">
        <ele>409.0</ele>
        <time>2021-10-16T08:18:33Z</time>
      </trkpt>
      <trkpt lat="40.2276070" lon="-5.9790500">
        <ele>408.6</ele>
        <time>2021-10-16T08:18:34Z</time>
      </trkpt>
      <trkpt lat="40.2275950" lon="-5.9790820">
        <ele>408.6</ele>
        <time>2021-10-16T08:18:35Z</time>
      </trkpt>
      <trkpt lat="40.2275940" lon="-5.9791080">
        <ele>408.6</ele>
        <time>2021-10-16T08:18:36Z</time>
      </trkpt>
      <trkpt lat="40.2276080" lon="-5.9792120">
        <ele>408.4</ele>
        <time>2021-10-16T08:18:40Z</time>
      </trkpt>
      <trkpt lat="40.2276030" lon="-5.9792430">
        <ele>408.4</ele>
        <time>2021-10-16T08:18:41Z</time>
      </trkpt>
      <trkpt lat="40.2275010" lon="-5.9793560">
        <ele>408.4</ele>
        <time>2021-10-16T08:18:45Z</time>
      </trkpt>
      <trkpt lat="40.2272440" lon="-5.9795250">
        <ele>408.4</ele>
        <time>2021-10-16T08:18:52Z</time>
      </trkpt>
      <trkpt lat="40.2269280" lon="-5.9797340">
        <ele>408.2</ele>
        <time>2021-10-16T08:19:00Z</time>
      </trkpt>
      <trkpt lat="40.2267550" lon="-5.9798360">
        <ele>408.0</ele>
        <time>2021-10-16T08:19:04Z</time>
      </trkpt>
      <trkpt lat="40.2262900" lon="-5.9800960">
        <ele>407.8</ele>
        <time>2021-10-16T08:19:14Z</time>
      </trkpt>
      <trkpt lat="40.2258410" lon="-5.9803490">
        <ele>407.8</ele>
        <time>2021-10-16T08:19:24Z</time>
      </trkpt>
      <trkpt lat="40.2257110" lon="-5.9804310">
        <ele>407.8</ele>
        <time>2021-10-16T08:19:27Z</time>
      </trkpt>
      <trkpt lat="40.2253540" lon="-5.9805900">
        <ele>407.8</ele>
        <time>2021-10-16T08:19:35Z</time>
      </trkpt>
      <trkpt lat="40.2248440" lon="-5.9807680">
        <ele>407.8</ele>
        <time>2021-10-16T08:19:46Z</time>
      </trkpt>
      <trkpt lat="40.2245760" lon="-5.9808520">
        <ele>407.6</ele>
        <time>2021-10-16T08:19:52Z</time>
      </trkpt>
      <trkpt lat="40.2245010" lon="-5.9808750">
        <ele>407.6</ele>
        <time>2021-10-16T08:19:54Z</time>
      </trkpt>
      <trkpt lat="40.2244650" lon="-5.9808870">
        <ele>407.6</ele>
        <time>2021-10-16T08:19:55Z</time>
      </trkpt>
      <trkpt lat="40.2243300" lon="-5.9809360">
        <ele>407.4</ele>
        <time>2021-10-16T08:19:59Z</time>
      </trkpt>
      <trkpt lat="40.2242520" lon="-5.9809410">
        <ele>407.4</ele>
        <time>2021-10-16T08:20:01Z</time>
      </trkpt>
      <trkpt lat="40.2242010" lon="-5.9809440">
        <ele>407.4</ele>
        <time>2021-10-16T08:20:03Z</time>
      </trkpt>
      <trkpt lat="40.2241540" lon="-5.9809750">
        <ele>407.4</ele>
        <time>2021-10-16T08:20:05Z</time>
      </trkpt>
      <trkpt lat="40.2238790" lon="-5.9810520">
        <ele>407.4</ele>
        <time>2021-10-16T08:20:10Z</time>
      </trkpt>
      <trkpt lat="40.2237580" lon="-5.9810970">
        <ele>407.4</ele>
        <time>2021-10-16T08:20:12Z</time>
      </trkpt>
      <trkpt lat="40.2235260" lon="-5.9811180">
        <ele>407.2</ele>
        <time>2021-10-16T08:20:15Z</time>
      </trkpt>
      <trkpt lat="40.2234720" lon="-5.9811190">
        <ele>407.2</ele>
        <time>2021-10-16T08:20:16Z</time>
      </trkpt>
      <trkpt lat="40.2231790" lon="-5.9811930">
        <ele>407.2</ele>
        <time>2021-10-16T08:20:22Z</time>
      </trkpt>
      <trkpt lat="40.2228500" lon="-5.9812880">
        <ele>407.2</ele>
        <time>2021-10-16T08:20:29Z</time>
      </trkpt>
      <trkpt lat="40.2227620" lon="-5.9813110">
        <ele>407.2</ele>
        <time>2021-10-16T08:20:31Z</time>
      </trkpt>
      <trkpt lat="40.2223870" lon="-5.9813980">
        <ele>406.8</ele>
        <time>2021-10-16T08:20:39Z</time>
      </trkpt>
      <trkpt lat="40.2223410" lon="-5.9814130">
        <ele>406.8</ele>
        <time>2021-10-16T08:20:40Z</time>
      </trkpt>
      <trkpt lat="40.2219410" lon="-5.9815240">
        <ele>406.8</ele>
        <time>2021-10-16T08:20:49Z</time>
      </trkpt>
      <trkpt lat="40.2217580" lon="-5.9815910">
        <ele>406.8</ele>
        <time>2021-10-16T08:20:53Z</time>
      </trkpt>
      <trkpt lat="40.2214990" lon="-5.9816920">
        <ele>406.8</ele>
        <time>2021-10-16T08:20:59Z</time>
      </trkpt>
      <trkpt lat="40.2210850" lon="-5.9818770">
        <ele>406.8</ele>
        <time>2021-10-16T08:21:09Z</time>
      </trkpt>
      <trkpt lat="40.2207230" lon="-5.9820940">
        <ele>406.8</ele>
        <time>2021-10-16T08:21:19Z</time>
      </trkpt>
      <trkpt lat="40.2207320" lon="-5.9821760">
        <ele>406.8</ele>
        <time>2021-10-16T08:21:21Z</time>
      </trkpt>
      <trkpt lat="40.2207580" lon="-5.9822060">
        <ele>406.8</ele>
        <time>2021-10-16T08:21:22Z</time>
      </trkpt>
      <trkpt lat="40.2209110" lon="-5.9822180">
        <ele>406.4</ele>
        <time>2021-10-16T08:21:26Z</time>
      </trkpt>
      <trkpt lat="40.2210010" lon="-5.9821870">
        <ele>405.8</ele>
        <time>2021-10-16T08:21:28Z</time>
      </trkpt>
      <trkpt lat="40.2210960" lon="-5.9821470">
        <ele>405.2</ele>
        <time>2021-10-16T08:21:30Z</time>
      </trkpt>
      <trkpt lat="40.2211960" lon="-5.9821080">
        <ele>404.8</ele>
        <time>2021-10-16T08:21:32Z</time>
      </trkpt>
      <trkpt lat="40.2214970" lon="-5.9819770">
        <ele>403.8</ele>
        <time>2021-10-16T08:21:38Z</time>
      </trkpt>
      <trkpt lat="40.2216010" lon="-5.9819350">
        <ele>403.8</ele>
        <time>2021-10-16T08:21:40Z</time>
      </trkpt>
      <trkpt lat="40.2219140" lon="-5.9818110">
        <ele>402.6</ele>
        <time>2021-10-16T08:21:46Z</time>
      </trkpt>
      <trkpt lat="40.2220160" lon="-5.9817780">
        <ele>402.4</ele>
        <time>2021-10-16T08:21:48Z</time>
      </trkpt>
      <trkpt lat="40.2220670" lon="-5.9817680">
        <ele>402.4</ele>
        <time>2021-10-16T08:21:49Z</time>
      </trkpt>
      <trkpt lat="40.2221700" lon="-5.9817770">
        <ele>402.4</ele>
        <time>2021-10-16T08:21:51Z</time>
      </trkpt>
      <trkpt lat="40.2222160" lon="-5.9817940">
        <ele>402.4</ele>
        <time>2021-10-16T08:21:52Z</time>
      </trkpt>
      <trkpt lat="40.2222650" lon="-5.9818150">
        <ele>402.2</ele>
        <time>2021-10-16T08:21:53Z</time>
      </trkpt>
      <trkpt lat="40.2223610" lon="-5.9818750">
        <ele>402.0</ele>
        <time>2021-10-16T08:21:55Z</time>
      </trkpt>
      <trkpt lat="40.2224450" lon="-5.9819670">
        <ele>402.0</ele>
        <time>2021-10-16T08:21:57Z</time>
      </trkpt>
      <trkpt lat="40.2224810" lon="-5.9820230">
        <ele>401.8</ele>
        <time>2021-10-16T08:21:58Z</time>
      </trkpt>
      <trkpt lat="40.2225470" lon="-5.9821450">
        <ele>401.6</ele>
        <time>2021-10-16T08:22:00Z</time>
      </trkpt>
      <trkpt lat="40.2225750" lon="-5.9822110">
        <ele>401.4</ele>
        <time>2021-10-16T08:22:01Z</time>
      </trkpt>
      <trkpt lat="40.2225990" lon="-5.9822820">
        <ele>401.2</ele>
        <time>2021-10-16T08:22:02Z</time>
      </trkpt>
      <trkpt lat="40.2226200" lon="-5.9823500">
        <ele>401.0</ele>
        <time>2021-10-16T08:22:03Z</time>
      </trkpt>
      <trkpt lat="40.2226620" lon="-5.9825570">
        <ele>400.8</ele>
        <time>2021-10-16T08:22:06Z</time>
      </trkpt>
      <trkpt lat="40.2226620" lon="-5.9826240">
        <ele>400.6</ele>
        <time>2021-10-16T08:22:07Z</time>
      </trkpt>
      <trkpt lat="40.2226560" lon="-5.9826940">
        <ele>400.4</ele>
        <time>2021-10-16T08:22:08Z</time>
      </trkpt>
      <trkpt lat="40.2225870" lon="-5.9829630">
        <ele>400.2</ele>
        <time>2021-10-16T08:22:12Z</time>
      </trkpt>
      <trkpt lat="40.2224900" lon="-5.9831690">
        <ele>400.0</ele>
        <time>2021-10-16T08:22:15Z</time>
      </trkpt>
      <trkpt lat="40.2224090" lon="-5.9832840">
        <ele>399.8</ele>
        <time>2021-10-16T08:22:17Z</time>
      </trkpt>
      <trkpt lat="40.2222360" lon="-5.9834760">
        <ele>399.4</ele>
        <time>2021-10-16T08:22:21Z</time>
      </trkpt>
      <trkpt lat="40.2220600" lon="-5.9836470">
        <ele>399.2</ele>
        <time>2021-10-16T08:22:25Z</time>
      </trkpt>
      <trkpt lat="40.2218430" lon="-5.9838580">
        <ele>398.8</ele>
        <time>2021-10-16T08:22:31Z</time>
      </trkpt>
      <trkpt lat="40.2217250" lon="-5.9839760">
        <ele>398.4</ele>
        <time>2021-10-16T08:22:35Z</time>
      </trkpt>
      <trkpt lat="40.2216630" lon="-5.9840370">
        <ele>398.2</ele>
        <time>2021-10-16T08:22:37Z</time>
      </trkpt>
      <trkpt lat="40.2215250" lon="-5.9841710">
        <ele>398.2</ele>
        <time>2021-10-16T08:22:41Z</time>
      </trkpt>
      <trkpt lat="40.2214670" lon="-5.9842260">
        <ele>398.2</ele>
        <time>2021-10-16T08:22:43Z</time>
      </trkpt>
      <trkpt lat="40.2214090" lon="-5.9843080">
        <ele>397.8</ele>
        <time>2021-10-16T08:22:47Z</time>
      </trkpt>
      <trkpt lat="40.2214070" lon="-5.9843140">
        <ele>397.6</ele>
        <time>2021-10-16T08:22:49Z</time>
      </trkpt>
      <trkpt lat="40.2213790" lon="-5.9843350">
        <ele>397.0</ele>
        <time>2021-10-16T08:23:42Z</time>
      </trkpt>
      <trkpt lat="40.2213650" lon="-5.9843450">
        <ele>397.0</ele>
        <time>2021-10-16T08:23:43Z</time>
      </trkpt>
      <trkpt lat="40.2212320" lon="-5.9844270">
        <ele>397.2</ele>
        <time>2021-10-16T08:23:51Z</time>
      </trkpt>
      <trkpt lat="40.2210470" lon="-5.9845550">
        <ele>397.4</ele>
        <time>2021-10-16T08:23:59Z</time>
      </trkpt>
      <trkpt lat="40.2208550" lon="-5.9846720">
        <ele>397.8</ele>
        <time>2021-10-16T08:24:06Z</time>
      </trkpt>
      <trkpt lat="40.2207050" lon="-5.9847460">
        <ele>398.2</ele>
        <time>2021-10-16T08:24:11Z</time>
      </trkpt>
      <trkpt lat="40.2206000" lon="-5.9848560">
        <ele>398.4</ele>
        <time>2021-10-16T08:24:15Z</time>
      </trkpt>
      <trkpt lat="40.2205050" lon="-5.9850070">
        <ele>398.6</ele>
        <time>2021-10-16T08:24:19Z</time>
      </trkpt>
      <trkpt lat="40.2204110" lon="-5.9851710">
        <ele>398.8</ele>
        <time>2021-10-16T08:24:23Z</time>
      </trkpt>
      <trkpt lat="40.2202470" lon="-5.9854490">
        <ele>399.2</ele>
        <time>2021-10-16T08:24:30Z</time>
      </trkpt>
      <trkpt lat="40.2202010" lon="-5.9855300">
        <ele>399.4</ele>
        <time>2021-10-16T08:24:32Z</time>
      </trkpt>
      <trkpt lat="40.2200720" lon="-5.9857080">
        <ele>399.6</ele>
        <time>2021-10-16T08:24:37Z</time>
      </trkpt>
      <trkpt lat="40.2199640" lon="-5.9858500">
        <ele>399.6</ele>
        <time>2021-10-16T08:24:41Z</time>
      </trkpt>
      <trkpt lat="40.2197600" lon="-5.9861050">
        <ele>400.0</ele>
        <time>2021-10-16T08:24:48Z</time>
      </trkpt>
      <trkpt lat="40.2196670" lon="-5.9862150">
        <ele>400.0</ele>
        <time>2021-10-16T08:24:51Z</time>
      </trkpt>
      <trkpt lat="40.2195060" lon="-5.9864040">
        <ele>400.0</ele>
        <time>2021-10-16T08:24:56Z</time>
      </trkpt>
      <trkpt lat="40.2193350" lon="-5.9865970">
        <ele>400.0</ele>
        <time>2021-10-16T08:25:01Z</time>
      </trkpt>
      <trkpt lat="40.2192680" lon="-5.9866750">
        <ele>400.0</ele>
        <time>2021-10-16T08:25:03Z</time>
      </trkpt>
      <trkpt lat="40.2189190" lon="-5.9870780">
        <ele>399.6</ele>
        <time>2021-10-16T08:25:13Z</time>
      </trkpt>
      <trkpt lat="40.2185910" lon="-5.9874890">
        <ele>398.8</ele>
        <time>2021-10-16T08:25:22Z</time>
      </trkpt>
      <trkpt lat="40.2184430" lon="-5.9876990">
        <ele>398.6</ele>
        <time>2021-10-16T08:25:26Z</time>
      </trkpt>
      <trkpt lat="40.2182920" lon="-5.9879180">
        <ele>398.0</ele>
        <time>2021-10-16T08:25:30Z</time>
      </trkpt>
      <trkpt lat="40.2182140" lon="-5.9880360">
        <ele>397.8</ele>
        <time>2021-10-16T08:25:32Z</time>
      </trkpt>
      <trkpt lat="40.2179820" lon="-5.9883730">
        <ele>397.0</ele>
        <time>2021-10-16T08:25:38Z</time>
      </trkpt>
      <trkpt lat="40.2179410" lon="-5.9884270">
        <ele>396.8</ele>
        <time>2021-10-16T08:25:39Z</time>
      </trkpt>
      <trkpt lat="40.2177340" lon="-5.9887390">
        <ele>396.2</ele>
        <time>2021-10-16T08:25:44Z</time>
      </trkpt>
      <trkpt lat="40.2176480" lon="-5.9888660">
        <ele>396.0</ele>
        <time>2021-10-16T08:25:46Z</time>
      </trkpt>
      <trkpt lat="40.2175580" lon="-5.9889970">
        <ele>395.6</ele>
        <time>2021-10-16T08:25:48Z</time>
      </trkpt>
      <trkpt lat="40.2174240" lon="-5.9891950">
        <ele>395.0</ele>
        <time>2021-10-16T08:25:51Z</time>
      </trkpt>
      <trkpt lat="40.2173800" lon="-5.9892560">
        <ele>394.6</ele>
        <time>2021-10-16T08:25:52Z</time>
      </trkpt>
      <trkpt lat="40.2172200" lon="-5.9894850">
        <ele>393.8</ele>
        <time>2021-10-16T08:25:56Z</time>
      </trkpt>
      <trkpt lat="40.2171070" lon="-5.9896490">
        <ele>393.6</ele>
        <time>2021-10-16T08:25:59Z</time>
      </trkpt>
      <trkpt lat="40.2170300" lon="-5.9897550">
        <ele>393.6</ele>
        <time>2021-10-16T08:26:01Z</time>
      </trkpt>
      <trkpt lat="40.2169180" lon="-5.9899090">
        <ele>393.2</ele>
        <time>2021-10-16T08:26:04Z</time>
      </trkpt>
      <trkpt lat="40.2166100" lon="-5.9903500">
        <ele>392.8</ele>
        <time>2021-10-16T08:26:12Z</time>
      </trkpt>
      <trkpt lat="40.2164910" lon="-5.9905190">
        <ele>392.4</ele>
        <time>2021-10-16T08:26:15Z</time>
      </trkpt>
      <trkpt lat="40.2163750" lon="-5.9906950">
        <ele>392.4</ele>
        <time>2021-10-16T08:26:18Z</time>
      </trkpt>
      <trkpt lat="40.2161090" lon="-5.9910850">
        <ele>392.0</ele>
        <time>2021-10-16T08:26:25Z</time>
      </trkpt>
      <trkpt lat="40.2159940" lon="-5.9912510">
        <ele>391.8</ele>
        <time>2021-10-16T08:26:28Z</time>
      </trkpt>
      <trkpt lat="40.2158440" lon="-5.9914710">
        <ele>391.6</ele>
        <time>2021-10-16T08:26:32Z</time>
      </trkpt>
      <trkpt lat="40.2158080" lon="-5.9915260">
        <ele>391.4</ele>
        <time>2021-10-16T08:26:33Z</time>
      </trkpt>
      <trkpt lat="40.2155870" lon="-5.9918600">
        <ele>391.4</ele>
        <time>2021-10-16T08:26:39Z</time>
      </trkpt>
      <trkpt lat="40.2152940" lon="-5.9923160">
        <ele>391.0</ele>
        <time>2021-10-16T08:26:47Z</time>
      </trkpt>
      <trkpt lat="40.2152180" lon="-5.9924300">
        <ele>390.8</ele>
        <time>2021-10-16T08:26:49Z</time>
      </trkpt>
      <trkpt lat="40.2150700" lon="-5.9926620">
        <ele>390.6</ele>
        <time>2021-10-16T08:26:53Z</time>
      </trkpt>
      <trkpt lat="40.2149210" lon="-5.9928830">
        <ele>390.4</ele>
        <time>2021-10-16T08:26:57Z</time>
      </trkpt>
      <trkpt lat="40.2148850" lon="-5.9929390">
        <ele>390.2</ele>
        <time>2021-10-16T08:26:58Z</time>
      </trkpt>
      <trkpt lat="40.2145300" lon="-5.9935000">
        <ele>390.0</ele>
        <time>2021-10-16T08:27:08Z</time>
      </trkpt>
      <trkpt lat="40.2141810" lon="-5.9940370">
        <ele>389.8</ele>
        <time>2021-10-16T08:27:18Z</time>
      </trkpt>
      <trkpt lat="40.2139030" lon="-5.9944480">
        <ele>389.6</ele>
        <time>2021-10-16T08:27:26Z</time>
      </trkpt>
      <trkpt lat="40.2136570" lon="-5.9948300">
        <ele>389.6</ele>
        <time>2021-10-16T08:27:34Z</time>
      </trkpt>
      <trkpt lat="40.2133490" lon="-5.9953590">
        <ele>390.2</ele>
        <time>2021-10-16T08:27:45Z</time>
      </trkpt>
      <trkpt lat="40.2130990" lon="-5.9958700">
        <ele>390.0</ele>
        <time>2021-10-16T08:27:54Z</time>
      </trkpt>
      <trkpt lat="40.2128950" lon="-5.9963140">
        <ele>390.0</ele>
        <time>2021-10-16T08:28:02Z</time>
      </trkpt>
      <trkpt lat="40.2126690" lon="-5.9967700">
        <ele>390.4</ele>
        <time>2021-10-16T08:28:11Z</time>
      </trkpt>
      <trkpt lat="40.2125740" lon="-5.9969620">
        <ele>390.4</ele>
        <time>2021-10-16T08:28:15Z</time>
      </trkpt>
      <trkpt lat="40.2124420" lon="-5.9972160">
        <ele>390.6</ele>
        <time>2021-10-16T08:28:20Z</time>
      </trkpt>
      <trkpt lat="40.2123860" lon="-5.9973250">
        <ele>390.6</ele>
        <time>2021-10-16T08:28:22Z</time>
      </trkpt>
      <trkpt lat="40.2123040" lon="-5.9974900">
        <ele>390.6</ele>
        <time>2021-10-16T08:28:25Z</time>
      </trkpt>
      <trkpt lat="40.2122150" lon="-5.9976630">
        <ele>390.6</ele>
        <time>2021-10-16T08:28:28Z</time>
      </trkpt>
      <trkpt lat="40.2120970" lon="-5.9978940">
        <ele>390.2</ele>
        <time>2021-10-16T08:28:32Z</time>
      </trkpt>
      <trkpt lat="40.2118090" lon="-5.9984490">
        <ele>390.0</ele>
        <time>2021-10-16T08:28:42Z</time>
      </trkpt>
      <trkpt lat="40.2116410" lon="-5.9987720">
        <ele>389.6</ele>
        <time>2021-10-16T08:28:48Z</time>
      </trkpt>
      <trkpt lat="40.2115310" lon="-5.9989760">
        <ele>389.8</ele>
        <time>2021-10-16T08:28:52Z</time>
      </trkpt>
      <trkpt lat="40.2115050" lon="-5.9990300">
        <ele>389.8</ele>
        <time>2021-10-16T08:28:53Z</time>
      </trkpt>
      <trkpt lat="40.2112810" lon="-5.9994550">
        <ele>389.8</ele>
        <time>2021-10-16T08:29:01Z</time>
      </trkpt>
      <trkpt lat="40.2111710" lon="-5.9996590">
        <ele>389.6</ele>
        <time>2021-10-16T08:29:05Z</time>
      </trkpt>
      <trkpt lat="40.2111390" lon="-5.9997020">
        <ele>389.6</ele>
        <time>2021-10-16T08:29:06Z</time>
      </trkpt>
      <trkpt lat="40.2110640" lon="-5.9997680">
        <ele>389.6</ele>
        <time>2021-10-16T08:29:08Z</time>
      </trkpt>
      <trkpt lat="40.2110290" lon="-5.9997950">
        <ele>389.6</ele>
        <time>2021-10-16T08:29:09Z</time>
      </trkpt>
      <trkpt lat="40.2109950" lon="-5.9998240">
        <ele>389.6</ele>
        <time>2021-10-16T08:29:10Z</time>
      </trkpt>
      <trkpt lat="40.2109340" lon="-5.9999040">
        <ele>389.4</ele>
        <time>2021-10-16T08:29:12Z</time>
      </trkpt>
      <trkpt lat="40.2109130" lon="-5.9999580">
        <ele>389.4</ele>
        <time>2021-10-16T08:29:13Z</time>
      </trkpt>
      <trkpt lat="40.2108120" lon="-6.0002750">
        <ele>389.2</ele>
        <time>2021-10-16T08:29:18Z</time>
      </trkpt>
      <trkpt lat="40.2107850" lon="-6.0003410">
        <ele>389.2</ele>
        <time>2021-10-16T08:29:19Z</time>
      </trkpt>
      <trkpt lat="40.2104980" lon="-6.0008420">
        <ele>388.2</ele>
        <time>2021-10-16T08:29:27Z</time>
      </trkpt>
      <trkpt lat="40.2104610" lon="-6.0009010">
        <ele>388.2</ele>
        <time>2021-10-16T08:29:28Z</time>
      </trkpt>
      <trkpt lat="40.2103550" lon="-6.0010770">
        <ele>387.6</ele>
        <time>2021-10-16T08:29:31Z</time>
      </trkpt>
      <trkpt lat="40.2101900" lon="-6.0013780">
        <ele>386.8</ele>
        <time>2021-10-16T08:29:36Z</time>
      </trkpt>
      <trkpt lat="40.2101210" lon="-6.0015270">
        <ele>386.6</ele>
        <time>2021-10-16T08:29:38Z</time>
      </trkpt>
      <trkpt lat="40.2099310" lon="-6.0020450">
        <ele>386.2</ele>
        <time>2021-10-16T08:29:46Z</time>
      </trkpt>
      <trkpt lat="40.2097090" lon="-6.0025490">
        <ele>385.8</ele>
        <time>2021-10-16T08:29:54Z</time>
      </trkpt>
      <trkpt lat="40.2096780" lon="-6.0026040">
        <ele>385.8</ele>
        <time>2021-10-16T08:29:55Z</time>
      </trkpt>
      <trkpt lat="40.2094600" lon="-6.0029630">
        <ele>385.6</ele>
        <time>2021-10-16T08:30:02Z</time>
      </trkpt>
      <trkpt lat="40.2093670" lon="-6.0031220">
        <ele>385.8</ele>
        <time>2021-10-16T08:30:05Z</time>
      </trkpt>
      <trkpt lat="40.2092530" lon="-6.0033180">
        <ele>385.6</ele>
        <time>2021-10-16T08:30:09Z</time>
      </trkpt>
      <trkpt lat="40.2091930" lon="-6.0034200">
        <ele>385.6</ele>
        <time>2021-10-16T08:30:11Z</time>
      </trkpt>
      <trkpt lat="40.2089060" lon="-6.0038830">
        <ele>385.6</ele>
        <time>2021-10-16T08:30:20Z</time>
      </trkpt>
      <trkpt lat="40.2086960" lon="-6.0042450">
        <ele>386.0</ele>
        <time>2021-10-16T08:30:27Z</time>
      </trkpt>
      <trkpt lat="40.2085710" lon="-6.0046020">
        <ele>386.8</ele>
        <time>2021-10-16T08:30:33Z</time>
      </trkpt>
      <trkpt lat="40.2085610" lon="-6.0046660">
        <ele>386.8</ele>
        <time>2021-10-16T08:30:34Z</time>
      </trkpt>
      <trkpt lat="40.2085250" lon="-6.0050370">
        <ele>386.6</ele>
        <time>2021-10-16T08:30:40Z</time>
      </trkpt>
      <trkpt lat="40.2085000" lon="-6.0052720">
        <ele>386.6</ele>
        <time>2021-10-16T08:30:44Z</time>
      </trkpt>
      <trkpt lat="40.2084890" lon="-6.0054550">
        <ele>386.6</ele>
        <time>2021-10-16T08:30:47Z</time>
      </trkpt>
      <trkpt lat="40.2084560" lon="-6.0057740">
        <ele>386.2</ele>
        <time>2021-10-16T08:30:52Z</time>
      </trkpt>
      <trkpt lat="40.2084460" lon="-6.0058390">
        <ele>386.2</ele>
        <time>2021-10-16T08:30:53Z</time>
      </trkpt>
      <trkpt lat="40.2084150" lon="-6.0061210">
        <ele>385.8</ele>
        <time>2021-10-16T08:30:57Z</time>
      </trkpt>
      <trkpt lat="40.2083990" lon="-6.0061880">
        <ele>385.8</ele>
        <time>2021-10-16T08:30:58Z</time>
      </trkpt>
      <trkpt lat="40.2082380" lon="-6.0065370">
        <ele>385.6</ele>
        <time>2021-10-16T08:31:04Z</time>
      </trkpt>
      <trkpt lat="40.2081640" lon="-6.0066770">
        <ele>385.6</ele>
        <time>2021-10-16T08:31:07Z</time>
      </trkpt>
      <trkpt lat="40.2080420" lon="-6.0069000">
        <ele>385.6</ele>
        <time>2021-10-16T08:31:12Z</time>
      </trkpt>
      <trkpt lat="40.2077990" lon="-6.0073540">
        <ele>385.8</ele>
        <time>2021-10-16T08:31:21Z</time>
      </trkpt>
      <trkpt lat="40.2076560" lon="-6.0076240">
        <ele>385.8</ele>
        <time>2021-10-16T08:31:26Z</time>
      </trkpt>
      <trkpt lat="40.2075680" lon="-6.0077870">
        <ele>386.0</ele>
        <time>2021-10-16T08:31:29Z</time>
      </trkpt>
      <trkpt lat="40.2074820" lon="-6.0079550">
        <ele>386.0</ele>
        <time>2021-10-16T08:31:32Z</time>
      </trkpt>
      <trkpt lat="40.2073700" lon="-6.0081820">
        <ele>386.2</ele>
        <time>2021-10-16T08:31:36Z</time>
      </trkpt>
      <trkpt lat="40.2072580" lon="-6.0084030">
        <ele>386.2</ele>
        <time>2021-10-16T08:31:40Z</time>
      </trkpt>
      <trkpt lat="40.2069910" lon="-6.0089200">
        <ele>386.2</ele>
        <time>2021-10-16T08:31:49Z</time>
      </trkpt>
      <trkpt lat="40.2069570" lon="-6.0089790">
        <ele>386.2</ele>
        <time>2021-10-16T08:31:50Z</time>
      </trkpt>
      <trkpt lat="40.2068640" lon="-6.0091580">
        <ele>386.2</ele>
        <time>2021-10-16T08:31:53Z</time>
      </trkpt>
      <trkpt lat="40.2067400" lon="-6.0094070">
        <ele>386.2</ele>
        <time>2021-10-16T08:31:57Z</time>
      </trkpt>
      <trkpt lat="40.2066440" lon="-6.0095780">
        <ele>386.0</ele>
        <time>2021-10-16T08:32:00Z</time>
      </trkpt>
      <trkpt lat="40.2063980" lon="-6.0100480">
        <ele>385.8</ele>
        <time>2021-10-16T08:32:08Z</time>
      </trkpt>
      <trkpt lat="40.2060800" lon="-6.0106680">
        <ele>385.6</ele>
        <time>2021-10-16T08:32:18Z</time>
      </trkpt>
      <trkpt lat="40.2057820" lon="-6.0112940">
        <ele>385.2</ele>
        <time>2021-10-16T08:32:28Z</time>
      </trkpt>
      <trkpt lat="40.2054950" lon="-6.0118990">
        <ele>385.0</ele>
        <time>2021-10-16T08:32:38Z</time>
      </trkpt>
      <trkpt lat="40.2054650" lon="-6.0119600">
        <ele>385.0</ele>
        <time>2021-10-16T08:32:39Z</time>
      </trkpt>
      <trkpt lat="40.2053230" lon="-6.0122630">
        <ele>385.0</ele>
        <time>2021-10-16T08:32:44Z</time>
      </trkpt>
      <trkpt lat="40.2052420" lon="-6.0124450">
        <ele>385.0</ele>
        <time>2021-10-16T08:32:47Z</time>
      </trkpt>
      <trkpt lat="40.2049390" lon="-6.0130890">
        <ele>385.0</ele>
        <time>2021-10-16T08:32:58Z</time>
      </trkpt>
      <trkpt lat="40.2049120" lon="-6.0131470">
        <ele>385.0</ele>
        <time>2021-10-16T08:32:59Z</time>
      </trkpt>
      <trkpt lat="40.2047970" lon="-6.0133740">
        <ele>385.0</ele>
        <time>2021-10-16T08:33:03Z</time>
      </trkpt>
      <trkpt lat="40.2046900" lon="-6.0136070">
        <ele>385.0</ele>
        <time>2021-10-16T08:33:07Z</time>
      </trkpt>
      <trkpt lat="40.2046370" lon="-6.0137250">
        <ele>385.2</ele>
        <time>2021-10-16T08:33:09Z</time>
      </trkpt>
      <trkpt lat="40.2043730" lon="-6.0142730">
        <ele>385.2</ele>
        <time>2021-10-16T08:33:19Z</time>
      </trkpt>
      <trkpt lat="40.2041600" lon="-6.0147140">
        <ele>385.4</ele>
        <time>2021-10-16T08:33:27Z</time>
      </trkpt>
      <trkpt lat="40.2040810" lon="-6.0148830">
        <ele>385.4</ele>
        <time>2021-10-16T08:33:30Z</time>
      </trkpt>
      <trkpt lat="40.2040280" lon="-6.0149990">
        <ele>385.4</ele>
        <time>2021-10-16T08:33:32Z</time>
      </trkpt>
      <trkpt lat="40.2037270" lon="-6.0156330">
        <ele>385.4</ele>
        <time>2021-10-16T08:33:43Z</time>
      </trkpt>
      <trkpt lat="40.2034250" lon="-6.0162720">
        <ele>385.4</ele>
        <time>2021-10-16T08:33:54Z</time>
      </trkpt>
      <trkpt lat="40.2033470" lon="-6.0164410">
        <ele>385.4</ele>
        <time>2021-10-16T08:33:57Z</time>
      </trkpt>
      <trkpt lat="40.2032140" lon="-6.0167200">
        <ele>385.6</ele>
        <time>2021-10-16T08:34:02Z</time>
      </trkpt>
      <trkpt lat="40.2031330" lon="-6.0168930">
        <ele>385.4</ele>
        <time>2021-10-16T08:34:05Z</time>
      </trkpt>
      <trkpt lat="40.2029950" lon="-6.0171850">
        <ele>385.4</ele>
        <time>2021-10-16T08:34:10Z</time>
      </trkpt>
      <trkpt lat="40.2027720" lon="-6.0176650">
        <ele>385.2</ele>
        <time>2021-10-16T08:34:18Z</time>
      </trkpt>
      <trkpt lat="40.2024980" lon="-6.0182410">
        <ele>385.0</ele>
        <time>2021-10-16T08:34:28Z</time>
      </trkpt>
      <trkpt lat="40.2023880" lon="-6.0184760">
        <ele>384.8</ele>
        <time>2021-10-16T08:34:32Z</time>
      </trkpt>
      <trkpt lat="40.2021950" lon="-6.0188760">
        <ele>384.8</ele>
        <time>2021-10-16T08:34:39Z</time>
      </trkpt>
      <trkpt lat="40.2020550" lon="-6.0191640">
        <ele>384.8</ele>
        <time>2021-10-16T08:34:44Z</time>
      </trkpt>
      <trkpt lat="40.2019510" lon="-6.0193890">
        <ele>384.8</ele>
        <time>2021-10-16T08:34:48Z</time>
      </trkpt>
      <trkpt lat="40.2019000" lon="-6.0194960">
        <ele>385.0</ele>
        <time>2021-10-16T08:34:50Z</time>
      </trkpt>
      <trkpt lat="40.2018500" lon="-6.0196010">
        <ele>385.0</ele>
        <time>2021-10-16T08:34:52Z</time>
      </trkpt>
      <trkpt lat="40.2017470" lon="-6.0198110">
        <ele>385.4</ele>
        <time>2021-10-16T08:34:56Z</time>
      </trkpt>
      <trkpt lat="40.2014490" lon="-6.0204240">
        <ele>386.2</ele>
        <time>2021-10-16T08:35:08Z</time>
      </trkpt>
      <trkpt lat="40.2013020" lon="-6.0207370">
        <ele>386.6</ele>
        <time>2021-10-16T08:35:14Z</time>
      </trkpt>
      <trkpt lat="40.2012000" lon="-6.0209470">
        <ele>386.8</ele>
        <time>2021-10-16T08:35:18Z</time>
      </trkpt>
      <trkpt lat="40.2011270" lon="-6.0210930">
        <ele>387.0</ele>
        <time>2021-10-16T08:35:21Z</time>
      </trkpt>
      <trkpt lat="40.2010500" lon="-6.0212490">
        <ele>387.0</ele>
        <time>2021-10-16T08:35:24Z</time>
      </trkpt>
      <trkpt lat="40.2009390" lon="-6.0214580">
        <ele>387.0</ele>
        <time>2021-10-16T08:35:28Z</time>
      </trkpt>
      <trkpt lat="40.2009100" lon="-6.0215150">
        <ele>387.0</ele>
        <time>2021-10-16T08:35:29Z</time>
      </trkpt>
      <trkpt lat="40.2007990" lon="-6.0217430">
        <ele>387.0</ele>
        <time>2021-10-16T08:35:33Z</time>
      </trkpt>
      <trkpt lat="40.2006460" lon="-6.0220250">
        <ele>386.8</ele>
        <time>2021-10-16T08:35:38Z</time>
      </trkpt>
      <trkpt lat="40.2002830" lon="-6.0226440">
        <ele>386.4</ele>
        <time>2021-10-16T08:35:49Z</time>
      </trkpt>
      <trkpt lat="40.2002490" lon="-6.0227020">
        <ele>386.4</ele>
        <time>2021-10-16T08:35:50Z</time>
      </trkpt>
      <trkpt lat="40.1999150" lon="-6.0232670">
        <ele>385.8</ele>
        <time>2021-10-16T08:36:00Z</time>
      </trkpt>
      <trkpt lat="40.1998830" lon="-6.0233200">
        <ele>385.8</ele>
        <time>2021-10-16T08:36:01Z</time>
      </trkpt>
      <trkpt lat="40.1995800" lon="-6.0238070">
        <ele>385.8</ele>
        <time>2021-10-16T08:36:10Z</time>
      </trkpt>
      <trkpt lat="40.1995480" lon="-6.0238580">
        <ele>386.0</ele>
        <time>2021-10-16T08:36:11Z</time>
      </trkpt>
      <trkpt lat="40.1994520" lon="-6.0240150">
        <ele>386.0</ele>
        <time>2021-10-16T08:36:14Z</time>
      </trkpt>
      <trkpt lat="40.1993320" lon="-6.0242110">
        <ele>386.2</ele>
        <time>2021-10-16T08:36:18Z</time>
      </trkpt>
      <trkpt lat="40.1992730" lon="-6.0243040">
        <ele>386.4</ele>
        <time>2021-10-16T08:36:20Z</time>
      </trkpt>
      <trkpt lat="40.1991190" lon="-6.0245420">
        <ele>386.4</ele>
        <time>2021-10-16T08:36:25Z</time>
      </trkpt>
      <trkpt lat="40.1989730" lon="-6.0247790">
        <ele>386.6</ele>
        <time>2021-10-16T08:36:30Z</time>
      </trkpt>
      <trkpt lat="40.1987690" lon="-6.0251150">
        <ele>387.0</ele>
        <time>2021-10-16T08:36:37Z</time>
      </trkpt>
      <trkpt lat="40.1986190" lon="-6.0253590">
        <ele>387.2</ele>
        <time>2021-10-16T08:36:42Z</time>
      </trkpt>
      <trkpt lat="40.1984710" lon="-6.0256110">
        <ele>387.2</ele>
        <time>2021-10-16T08:36:47Z</time>
      </trkpt>
      <trkpt lat="40.1982840" lon="-6.0259180">
        <ele>387.4</ele>
        <time>2021-10-16T08:36:53Z</time>
      </trkpt>
      <trkpt lat="40.1980700" lon="-6.0262860">
        <ele>387.2</ele>
        <time>2021-10-16T08:37:00Z</time>
      </trkpt>
      <trkpt lat="40.1979130" lon="-6.0265510">
        <ele>387.0</ele>
        <time>2021-10-16T08:37:05Z</time>
      </trkpt>
      <trkpt lat="40.1977620" lon="-6.0268170">
        <ele>387.0</ele>
        <time>2021-10-16T08:37:10Z</time>
      </trkpt>
      <trkpt lat="40.1976430" lon="-6.0270220">
        <ele>387.0</ele>
        <time>2021-10-16T08:37:14Z</time>
      </trkpt>
      <trkpt lat="40.1975060" lon="-6.0272660">
        <ele>387.0</ele>
        <time>2021-10-16T08:37:19Z</time>
      </trkpt>
      <trkpt lat="40.1973420" lon="-6.0275590">
        <ele>387.2</ele>
        <time>2021-10-16T08:37:25Z</time>
      </trkpt>
      <trkpt lat="40.1972250" lon="-6.0277660">
        <ele>387.4</ele>
        <time>2021-10-16T08:37:29Z</time>
      </trkpt>
      <trkpt lat="40.1971710" lon="-6.0278670">
        <ele>387.4</ele>
        <time>2021-10-16T08:37:31Z</time>
      </trkpt>
      <trkpt lat="40.1970850" lon="-6.0280230">
        <ele>387.4</ele>
        <time>2021-10-16T08:37:34Z</time>
      </trkpt>
      <trkpt lat="40.1968840" lon="-6.0283920">
        <ele>387.6</ele>
        <time>2021-10-16T08:37:41Z</time>
      </trkpt>
      <trkpt lat="40.1968310" lon="-6.0284940">
        <ele>387.6</ele>
        <time>2021-10-16T08:37:43Z</time>
      </trkpt>
      <trkpt lat="40.1965810" lon="-6.0289480">
        <ele>388.2</ele>
        <time>2021-10-16T08:37:52Z</time>
      </trkpt>
      <trkpt lat="40.1964990" lon="-6.0290940">
        <ele>388.2</ele>
        <time>2021-10-16T08:37:55Z</time>
      </trkpt>
      <trkpt lat="40.1964180" lon="-6.0292430">
        <ele>388.4</ele>
        <time>2021-10-16T08:37:58Z</time>
      </trkpt>
      <trkpt lat="40.1962550" lon="-6.0295570">
        <ele>388.4</ele>
        <time>2021-10-16T08:38:04Z</time>
      </trkpt>
      <trkpt lat="40.1960980" lon="-6.0298740">
        <ele>388.4</ele>
        <time>2021-10-16T08:38:10Z</time>
      </trkpt>
      <trkpt lat="40.1959770" lon="-6.0301080">
        <ele>388.0</ele>
        <time>2021-10-16T08:38:14Z</time>
      </trkpt>
      <trkpt lat="40.1956410" lon="-6.0307240">
        <ele>386.6</ele>
        <time>2021-10-16T08:38:24Z</time>
      </trkpt>
      <trkpt lat="40.1954690" lon="-6.0310610">
        <ele>385.4</ele>
        <time>2021-10-16T08:38:29Z</time>
      </trkpt>
      <trkpt lat="40.1953270" lon="-6.0313360">
        <ele>384.6</ele>
        <time>2021-10-16T08:38:33Z</time>
      </trkpt>
      <trkpt lat="40.1952600" lon="-6.0314740">
        <ele>384.2</ele>
        <time>2021-10-16T08:38:35Z</time>
      </trkpt>
      <trkpt lat="40.1951430" lon="-6.0316840">
        <ele>383.6</ele>
        <time>2021-10-16T08:38:38Z</time>
      </trkpt>
      <trkpt lat="40.1950290" lon="-6.0318960">
        <ele>382.8</ele>
        <time>2021-10-16T08:38:41Z</time>
      </trkpt>
      <trkpt lat="40.1949930" lon="-6.0319690">
        <ele>382.6</ele>
        <time>2021-10-16T08:38:42Z</time>
      </trkpt>
      <trkpt lat="40.1947990" lon="-6.0323360">
        <ele>381.6</ele>
        <time>2021-10-16T08:38:46Z</time>
      </trkpt>
      <trkpt lat="40.1946740" lon="-6.0325570">
        <ele>380.4</ele>
        <time>2021-10-16T08:38:50Z</time>
      </trkpt>
      <trkpt lat="40.1946340" lon="-6.0326300">
        <ele>380.2</ele>
        <time>2021-10-16T08:38:51Z</time>
      </trkpt>
      <trkpt lat="40.1945000" lon="-6.0328500">
        <ele>379.4</ele>
        <time>2021-10-16T08:38:55Z</time>
      </trkpt>
      <trkpt lat="40.1944670" lon="-6.0328730">
        <ele>379.2</ele>
        <time>2021-10-16T08:38:56Z</time>
      </trkpt>
      <trkpt lat="40.1944370" lon="-6.0328750">
        <ele>379.0</ele>
        <time>2021-10-16T08:38:57Z</time>
      </trkpt>
      <trkpt lat="40.1943930" lon="-6.0328150">
        <ele>378.8</ele>
        <time>2021-10-16T08:38:59Z</time>
      </trkpt>
      <trkpt lat="40.1943490" lon="-6.0326670">
        <ele>378.4</ele>
        <time>2021-10-16T08:39:03Z</time>
      </trkpt>
      <trkpt lat="40.1943330" lon="-6.0326420">
        <ele>378.4</ele>
        <time>2021-10-16T08:39:04Z</time>
      </trkpt>
      <trkpt lat="40.1942880" lon="-6.0325790">
        <ele>378.4</ele>
        <time>2021-10-16T08:39:09Z</time>
      </trkpt>
      <trkpt lat="40.1942880" lon="-6.0325790">
        <ele>378.4</ele>
        <time>2021-10-16T08:39:10Z</time>
      </trkpt>
      <trkpt lat="40.1943130" lon="-6.0326180">
        <ele>378.6</ele>
        <time>2021-10-16T08:39:29Z</time>
      </trkpt>
      <trkpt lat="40.1943480" lon="-6.0326550">
        <ele>378.4</ele>
        <time>2021-10-16T08:39:31Z</time>
      </trkpt>
      <trkpt lat="40.1944060" lon="-6.0328400">
        <ele>378.4</ele>
        <time>2021-10-16T08:39:37Z</time>
      </trkpt>
      <trkpt lat="40.1943490" lon="-6.0328970">
        <ele>378.2</ele>
        <time>2021-10-16T08:39:41Z</time>
      </trkpt>
      <trkpt lat="40.1943180" lon="-6.0329200">
        <ele>378.2</ele>
        <time>2021-10-16T08:39:46Z</time>
      </trkpt>
      <trkpt lat="40.1944460" lon="-6.0328850">
        <ele>378.4</ele>
        <time>2021-10-16T08:40:07Z</time>
      </trkpt>
      <trkpt lat="40.1944500" lon="-6.0329020">
        <ele>378.4</ele>
        <time>2021-10-16T08:40:08Z</time>
      </trkpt>
      <trkpt lat="40.1944490" lon="-6.0329250">
        <ele>378.4</ele>
        <time>2021-10-16T08:40:09Z</time>
      </trkpt>
      <trkpt lat="40.1944270" lon="-6.0330330">
        <ele>378.6</ele>
        <time>2021-10-16T08:40:13Z</time>
      </trkpt>
      <trkpt lat="40.1943750" lon="-6.0331740">
        <ele>378.6</ele>
        <time>2021-10-16T08:40:17Z</time>
      </trkpt>
      <trkpt lat="40.1943260" lon="-6.0332680">
        <ele>378.8</ele>
        <time>2021-10-16T08:40:20Z</time>
      </trkpt>
      <trkpt lat="40.1942720" lon="-6.0333790">
        <ele>378.8</ele>
        <time>2021-10-16T08:40:24Z</time>
      </trkpt>
      <trkpt lat="40.1941560" lon="-6.0336130">
        <ele>379.0</ele>
        <time>2021-10-16T08:40:29Z</time>
      </trkpt>
      <trkpt lat="40.1940800" lon="-6.0337680">
        <ele>378.8</ele>
        <time>2021-10-16T08:40:34Z</time>
      </trkpt>
      <trkpt lat="40.1938150" lon="-6.0342700">
        <ele>378.8</ele>
        <time>2021-10-16T08:40:45Z</time>
      </trkpt>
      <trkpt lat="40.1936280" lon="-6.0346380">
        <ele>378.6</ele>
        <time>2021-10-16T08:40:53Z</time>
      </trkpt>
      <trkpt lat="40.1935130" lon="-6.0348780">
        <ele>378.6</ele>
        <time>2021-10-16T08:40:58Z</time>
      </trkpt>
      <trkpt lat="40.1933960" lon="-6.0351210">
        <ele>378.8</ele>
        <time>2021-10-16T08:41:03Z</time>
      </trkpt>
      <trkpt lat="40.1933730" lon="-6.0351670">
        <ele>378.8</ele>
        <time>2021-10-16T08:41:04Z</time>
      </trkpt>
      <trkpt lat="40.1932760" lon="-6.0353540">
        <ele>379.0</ele>
        <time>2021-10-16T08:41:08Z</time>
      </trkpt>
      <trkpt lat="40.1931370" lon="-6.0356120">
        <ele>379.4</ele>
        <time>2021-10-16T08:41:14Z</time>
      </trkpt>
      <trkpt lat="40.1931000" lon="-6.0356950">
        <ele>379.8</ele>
        <time>2021-10-16T08:41:16Z</time>
      </trkpt>
      <trkpt lat="40.1930370" lon="-6.0358110">
        <ele>380.6</ele>
        <time>2021-10-16T08:41:20Z</time>
      </trkpt>
      <trkpt lat="40.1929280" lon="-6.0360130">
        <ele>381.0</ele>
        <time>2021-10-16T08:41:24Z</time>
      </trkpt>
      <trkpt lat="40.1928430" lon="-6.0361720">
        <ele>381.6</ele>
        <time>2021-10-16T08:41:28Z</time>
      </trkpt>
      <trkpt lat="40.1927420" lon="-6.0363580">
        <ele>382.4</ele>
        <time>2021-10-16T08:41:33Z</time>
      </trkpt>
      <trkpt lat="40.1927230" lon="-6.0363950">
        <ele>382.6</ele>
        <time>2021-10-16T08:41:34Z</time>
      </trkpt>
      <trkpt lat="40.1927030" lon="-6.0364310">
        <ele>382.6</ele>
        <time>2021-10-16T08:41:35Z</time>
      </trkpt>
      <trkpt lat="40.1924990" lon="-6.0368140">
        <ele>383.4</ele>
        <time>2021-10-16T08:41:45Z</time>
      </trkpt>
      <trkpt lat="40.1924350" lon="-6.0369330">
        <ele>383.6</ele>
        <time>2021-10-16T08:41:48Z</time>
      </trkpt>
      <trkpt lat="40.1923740" lon="-6.0370460">
        <ele>383.8</ele>
        <time>2021-10-16T08:41:51Z</time>
      </trkpt>
      <trkpt lat="40.1923000" lon="-6.0372000">
        <ele>384.2</ele>
        <time>2021-10-16T08:41:55Z</time>
      </trkpt>
      <trkpt lat="40.1922410" lon="-6.0373100">
        <ele>384.6</ele>
        <time>2021-10-16T08:41:58Z</time>
      </trkpt>
      <trkpt lat="40.1921650" lon="-6.0374620">
        <ele>385.0</ele>
        <time>2021-10-16T08:42:02Z</time>
      </trkpt>
      <trkpt lat="40.1921220" lon="-6.0375440">
        <ele>385.2</ele>
        <time>2021-10-16T08:42:04Z</time>
      </trkpt>
      <trkpt lat="40.1920150" lon="-6.0377300">
        <ele>385.6</ele>
        <time>2021-10-16T08:42:09Z</time>
      </trkpt>
      <trkpt lat="40.1919480" lon="-6.0378560">
        <ele>385.8</ele>
        <time>2021-10-16T08:42:12Z</time>
      </trkpt>
      <trkpt lat="40.1918540" lon="-6.0380170">
        <ele>386.0</ele>
        <time>2021-10-16T08:42:16Z</time>
      </trkpt>
      <trkpt lat="40.1917660" lon="-6.0381860">
        <ele>386.0</ele>
        <time>2021-10-16T08:42:20Z</time>
      </trkpt>
      <trkpt lat="40.1917230" lon="-6.0382690">
        <ele>386.0</ele>
        <time>2021-10-16T08:42:22Z</time>
      </trkpt>
      <trkpt lat="40.1914100" lon="-6.0388470">
        <ele>386.4</ele>
        <time>2021-10-16T08:42:35Z</time>
      </trkpt>
      <trkpt lat="40.1912800" lon="-6.0390830">
        <ele>386.6</ele>
        <time>2021-10-16T08:42:40Z</time>
      </trkpt>
      <trkpt lat="40.1912000" lon="-6.0392250">
        <ele>386.8</ele>
        <time>2021-10-16T08:42:43Z</time>
      </trkpt>
      <trkpt lat="40.1911500" lon="-6.0393230">
        <ele>386.8</ele>
        <time>2021-10-16T08:42:45Z</time>
      </trkpt>
      <trkpt lat="40.1908550" lon="-6.0398700">
        <ele>386.6</ele>
        <time>2021-10-16T08:42:57Z</time>
      </trkpt>
      <trkpt lat="40.1908350" lon="-6.0399090">
        <ele>386.6</ele>
        <time>2021-10-16T08:42:58Z</time>
      </trkpt>
      <trkpt lat="40.1907560" lon="-6.0400650">
        <ele>386.6</ele>
        <time>2021-10-16T08:43:02Z</time>
      </trkpt>
      <trkpt lat="40.1906800" lon="-6.0402060">
        <ele>386.6</ele>
        <time>2021-10-16T08:43:05Z</time>
      </trkpt>
      <trkpt lat="40.1905450" lon="-6.0404510">
        <ele>386.8</ele>
        <time>2021-10-16T08:43:10Z</time>
      </trkpt>
      <trkpt lat="40.1904890" lon="-6.0405510">
        <ele>386.8</ele>
        <time>2021-10-16T08:43:12Z</time>
      </trkpt>
      <trkpt lat="40.1904610" lon="-6.0406030">
        <ele>386.8</ele>
        <time>2021-10-16T08:43:13Z</time>
      </trkpt>
      <trkpt lat="40.1902320" lon="-6.0410290">
        <ele>386.8</ele>
        <time>2021-10-16T08:43:21Z</time>
      </trkpt>
      <trkpt lat="40.1901160" lon="-6.0412410">
        <ele>386.8</ele>
        <time>2021-10-16T08:43:25Z</time>
      </trkpt>
      <trkpt lat="40.1899640" lon="-6.0415260">
        <ele>387.0</ele>
        <time>2021-10-16T08:43:30Z</time>
      </trkpt>
      <trkpt lat="40.1898760" lon="-6.0416910">
        <ele>387.0</ele>
        <time>2021-10-16T08:43:33Z</time>
      </trkpt>
      <trkpt lat="40.1898170" lon="-6.0417990">
        <ele>387.0</ele>
        <time>2021-10-16T08:43:35Z</time>
      </trkpt>
      <trkpt lat="40.1896140" lon="-6.0421820">
        <ele>387.0</ele>
        <time>2021-10-16T08:43:42Z</time>
      </trkpt>
      <trkpt lat="40.1895280" lon="-6.0423480">
        <ele>387.0</ele>
        <time>2021-10-16T08:43:45Z</time>
      </trkpt>
      <trkpt lat="40.1894380" lon="-6.0425090">
        <ele>387.0</ele>
        <time>2021-10-16T08:43:48Z</time>
      </trkpt>
      <trkpt lat="40.1893560" lon="-6.0426710">
        <ele>387.2</ele>
        <time>2021-10-16T08:43:51Z</time>
      </trkpt>
      <trkpt lat="40.1892380" lon="-6.0428850">
        <ele>387.2</ele>
        <time>2021-10-16T08:43:55Z</time>
      </trkpt>
      <trkpt lat="40.1890590" lon="-6.0432220">
        <ele>387.4</ele>
        <time>2021-10-16T08:44:01Z</time>
      </trkpt>
      <trkpt lat="40.1890030" lon="-6.0433350">
        <ele>387.2</ele>
        <time>2021-10-16T08:44:03Z</time>
      </trkpt>
      <trkpt lat="40.1888840" lon="-6.0435550">
        <ele>387.2</ele>
        <time>2021-10-16T08:44:07Z</time>
      </trkpt>
      <trkpt lat="40.1888220" lon="-6.0436650">
        <ele>387.2</ele>
        <time>2021-10-16T08:44:09Z</time>
      </trkpt>
      <trkpt lat="40.1887310" lon="-6.0438350">
        <ele>387.2</ele>
        <time>2021-10-16T08:44:12Z</time>
      </trkpt>
      <trkpt lat="40.1884840" lon="-6.0442910">
        <ele>387.2</ele>
        <time>2021-10-16T08:44:20Z</time>
      </trkpt>
      <trkpt lat="40.1883210" lon="-6.0445860">
        <ele>387.2</ele>
        <time>2021-10-16T08:44:25Z</time>
      </trkpt>
      <trkpt lat="40.1880680" lon="-6.0450560">
        <ele>386.8</ele>
        <time>2021-10-16T08:44:33Z</time>
      </trkpt>
      <trkpt lat="40.1878420" lon="-6.0454620">
        <ele>386.2</ele>
        <time>2021-10-16T08:44:40Z</time>
      </trkpt>
      <trkpt lat="40.1877160" lon="-6.0456300">
        <ele>386.0</ele>
        <time>2021-10-16T08:44:44Z</time>
      </trkpt>
      <trkpt lat="40.1876830" lon="-6.0456650">
        <ele>385.8</ele>
        <time>2021-10-16T08:44:45Z</time>
      </trkpt>
      <trkpt lat="40.1875760" lon="-6.0457590">
        <ele>385.8</ele>
        <time>2021-10-16T08:44:48Z</time>
      </trkpt>
      <trkpt lat="40.1875400" lon="-6.0457840">
        <ele>385.8</ele>
        <time>2021-10-16T08:44:49Z</time>
      </trkpt>
      <trkpt lat="40.1874660" lon="-6.0458280">
        <ele>385.6</ele>
        <time>2021-10-16T08:44:51Z</time>
      </trkpt>
      <trkpt lat="40.1873390" lon="-6.0458870">
        <ele>385.4</ele>
        <time>2021-10-16T08:44:54Z</time>
      </trkpt>
      <trkpt lat="40.1870970" lon="-6.0459710">
        <ele>385.2</ele>
        <time>2021-10-16T08:44:59Z</time>
      </trkpt>
      <trkpt lat="40.1868120" lon="-6.0460730">
        <ele>385.2</ele>
        <time>2021-10-16T08:45:05Z</time>
      </trkpt>
      <trkpt lat="40.1866640" lon="-6.0461230">
        <ele>385.2</ele>
        <time>2021-10-16T08:45:08Z</time>
      </trkpt>
      <trkpt lat="40.1863700" lon="-6.0462410">
        <ele>385.2</ele>
        <time>2021-10-16T08:45:15Z</time>
      </trkpt>
      <trkpt lat="40.1862190" lon="-6.0463050">
        <ele>384.8</ele>
        <time>2021-10-16T08:45:21Z</time>
      </trkpt>
      <trkpt lat="40.1862000" lon="-6.0463170">
        <ele>384.8</ele>
        <time>2021-10-16T08:45:25Z</time>
      </trkpt>
      <trkpt lat="40.1862050" lon="-6.0462920">
        <ele>384.8</ele>
        <time>2021-10-16T08:46:45Z</time>
      </trkpt>
      <trkpt lat="40.1862190" lon="-6.0462730">
        <ele>384.8</ele>
        <time>2021-10-16T08:46:46Z</time>
      </trkpt>
      <trkpt lat="40.1862400" lon="-6.0462560">
        <ele>384.6</ele>
        <time>2021-10-16T08:46:47Z</time>
      </trkpt>
      <trkpt lat="40.1862660" lon="-6.0462430">
        <ele>384.6</ele>
        <time>2021-10-16T08:46:48Z</time>
      </trkpt>
      <trkpt lat="40.1863000" lon="-6.0462330">
        <ele>384.6</ele>
        <time>2021-10-16T08:46:49Z</time>
      </trkpt>
      <trkpt lat="40.1863800" lon="-6.0462100">
        <ele>384.6</ele>
        <time>2021-10-16T08:46:51Z</time>
      </trkpt>
      <trkpt lat="40.1865290" lon="-6.0461710">
        <ele>384.6</ele>
        <time>2021-10-16T08:46:54Z</time>
      </trkpt>
      <trkpt lat="40.1866120" lon="-6.0461530">
        <ele>384.6</ele>
        <time>2021-10-16T08:46:56Z</time>
      </trkpt>
      <trkpt lat="40.1866560" lon="-6.0461380">
        <ele>384.6</ele>
        <time>2021-10-16T08:46:57Z</time>
      </trkpt>
      <trkpt lat="40.1867790" lon="-6.0460910">
        <ele>384.8</ele>
        <time>2021-10-16T08:47:00Z</time>
      </trkpt>
      <trkpt lat="40.1868860" lon="-6.0460480">
        <ele>384.8</ele>
        <time>2021-10-16T08:47:03Z</time>
      </trkpt>
      <trkpt lat="40.1869880" lon="-6.0460130">
        <ele>384.8</ele>
        <time>2021-10-16T08:47:06Z</time>
      </trkpt>
      <trkpt lat="40.1872190" lon="-6.0459440">
        <ele>384.8</ele>
        <time>2021-10-16T08:47:14Z</time>
      </trkpt>
      <trkpt lat="40.1872600" lon="-6.0459480">
        <ele>385.0</ele>
        <time>2021-10-16T08:47:19Z</time>
      </trkpt>
      <trkpt lat="40.1872610" lon="-6.0459510">
        <ele>385.0</ele>
        <time>2021-10-16T08:47:21Z</time>
      </trkpt>
      <trkpt lat="40.1872480" lon="-6.0460510">
        <ele>384.0</ele>
        <time>2021-10-16T08:48:36Z</time>
      </trkpt>
      <trkpt lat="40.1872370" lon="-6.0460920">
        <ele>384.0</ele>
        <time>2021-10-16T08:48:37Z</time>
      </trkpt>
      <trkpt lat="40.1871470" lon="-6.0462850">
        <ele>383.6</ele>
        <time>2021-10-16T08:48:41Z</time>
      </trkpt>
      <trkpt lat="40.1871200" lon="-6.0463420">
        <ele>383.4</ele>
        <time>2021-10-16T08:48:42Z</time>
      </trkpt>
      <trkpt lat="40.1870020" lon="-6.0465760">
        <ele>383.0</ele>
        <time>2021-10-16T08:48:46Z</time>
      </trkpt>
      <trkpt lat="40.1869320" lon="-6.0467120">
        <ele>383.0</ele>
        <time>2021-10-16T08:48:49Z</time>
      </trkpt>
      <trkpt lat="40.1869170" lon="-6.0467410">
        <ele>382.6</ele>
        <time>2021-10-16T08:48:50Z</time>
      </trkpt>
      <trkpt lat="40.1869080" lon="-6.0467580">
        <ele>382.4</ele>
        <time>2021-10-16T08:48:52Z</time>
      </trkpt>
      <trkpt lat="40.1869080" lon="-6.0467580">
        <ele>382.4</ele>
        <time>2021-10-16T08:48:53Z</time>
      </trkpt>
      <trkpt lat="40.1868900" lon="-6.0467890">
        <ele>382.6</ele>
        <time>2021-10-16T08:49:24Z</time>
      </trkpt>
      <trkpt lat="40.1868510" lon="-6.0468630">
        <ele>382.6</ele>
        <time>2021-10-16T08:49:26Z</time>
      </trkpt>
      <trkpt lat="40.1867010" lon="-6.0471270">
        <ele>382.2</ele>
        <time>2021-10-16T08:49:32Z</time>
      </trkpt>
      <trkpt lat="40.1865750" lon="-6.0473710">
        <ele>382.2</ele>
        <time>2021-10-16T08:49:37Z</time>
      </trkpt>
      <trkpt lat="40.1865210" lon="-6.0474810">
        <ele>382.2</ele>
        <time>2021-10-16T08:49:39Z</time>
      </trkpt>
      <trkpt lat="40.1863170" lon="-6.0479820">
        <ele>382.6</ele>
        <time>2021-10-16T08:49:47Z</time>
      </trkpt>
      <trkpt lat="40.1861870" lon="-6.0483890">
        <ele>381.8</ele>
        <time>2021-10-16T08:49:53Z</time>
      </trkpt>
      <trkpt lat="40.1861440" lon="-6.0485190">
        <ele>381.6</ele>
        <time>2021-10-16T08:49:55Z</time>
      </trkpt>
      <trkpt lat="40.1860150" lon="-6.0489020">
        <ele>380.8</ele>
        <time>2021-10-16T08:50:01Z</time>
      </trkpt>
      <trkpt lat="40.1859960" lon="-6.0489660">
        <ele>380.6</ele>
        <time>2021-10-16T08:50:02Z</time>
      </trkpt>
      <trkpt lat="40.1859690" lon="-6.0490950">
        <ele>380.4</ele>
        <time>2021-10-16T08:50:04Z</time>
      </trkpt>
      <trkpt lat="40.1859290" lon="-6.0493000">
        <ele>379.8</ele>
        <time>2021-10-16T08:50:07Z</time>
      </trkpt>
      <trkpt lat="40.1859070" lon="-6.0493660">
        <ele>379.8</ele>
        <time>2021-10-16T08:50:08Z</time>
      </trkpt>
      <trkpt lat="40.1858780" lon="-6.0494300">
        <ele>379.6</ele>
        <time>2021-10-16T08:50:09Z</time>
      </trkpt>
      <trkpt lat="40.1858140" lon="-6.0495480">
        <ele>379.2</ele>
        <time>2021-10-16T08:50:11Z</time>
      </trkpt>
      <trkpt lat="40.1857130" lon="-6.0497180">
        <ele>378.8</ele>
        <time>2021-10-16T08:50:14Z</time>
      </trkpt>
      <trkpt lat="40.1856840" lon="-6.0497820">
        <ele>378.6</ele>
        <time>2021-10-16T08:50:15Z</time>
      </trkpt>
      <trkpt lat="40.1856040" lon="-6.0499790">
        <ele>378.4</ele>
        <time>2021-10-16T08:50:18Z</time>
      </trkpt>
      <trkpt lat="40.1855690" lon="-6.0500410">
        <ele>378.2</ele>
        <time>2021-10-16T08:50:19Z</time>
      </trkpt>
      <trkpt lat="40.1855330" lon="-6.0500970">
        <ele>378.2</ele>
        <time>2021-10-16T08:50:20Z</time>
      </trkpt>
      <trkpt lat="40.1854510" lon="-6.0502050">
        <ele>377.8</ele>
        <time>2021-10-16T08:50:22Z</time>
      </trkpt>
      <trkpt lat="40.1853770" lon="-6.0502900">
        <ele>377.4</ele>
        <time>2021-10-16T08:50:24Z</time>
      </trkpt>
      <trkpt lat="40.1853370" lon="-6.0503400">
        <ele>377.0</ele>
        <time>2021-10-16T08:50:25Z</time>
      </trkpt>
      <trkpt lat="40.1852600" lon="-6.0504550">
        <ele>376.6</ele>
        <time>2021-10-16T08:50:27Z</time>
      </trkpt>
      <trkpt lat="40.1852270" lon="-6.0505200">
        <ele>376.6</ele>
        <time>2021-10-16T08:50:28Z</time>
      </trkpt>
      <trkpt lat="40.1851650" lon="-6.0506570">
        <ele>376.2</ele>
        <time>2021-10-16T08:50:30Z</time>
      </trkpt>
      <trkpt lat="40.1851290" lon="-6.0507220">
        <ele>375.8</ele>
        <time>2021-10-16T08:50:31Z</time>
      </trkpt>
      <trkpt lat="40.1850480" lon="-6.0508510">
        <ele>375.2</ele>
        <time>2021-10-16T08:50:33Z</time>
      </trkpt>
      <trkpt lat="40.1850110" lon="-6.0509270">
        <ele>374.8</ele>
        <time>2021-10-16T08:50:34Z</time>
      </trkpt>
      <trkpt lat="40.1849780" lon="-6.0510080">
        <ele>374.8</ele>
        <time>2021-10-16T08:50:35Z</time>
      </trkpt>
      <trkpt lat="40.1848880" lon="-6.0512530">
        <ele>373.6</ele>
        <time>2021-10-16T08:50:38Z</time>
      </trkpt>
      <trkpt lat="40.1848440" lon="-6.0514120">
        <ele>373.2</ele>
        <time>2021-10-16T08:50:40Z</time>
      </trkpt>
      <trkpt lat="40.1847940" lon="-6.0515510">
        <ele>372.4</ele>
        <time>2021-10-16T08:50:42Z</time>
      </trkpt>
      <trkpt lat="40.1847440" lon="-6.0516620">
        <ele>371.8</ele>
        <time>2021-10-16T08:50:44Z</time>
      </trkpt>
      <trkpt lat="40.1846760" lon="-6.0517890">
        <ele>371.4</ele>
        <time>2021-10-16T08:50:47Z</time>
      </trkpt>
      <trkpt lat="40.1846400" lon="-6.0518440">
        <ele>371.4</ele>
        <time>2021-10-16T08:50:49Z</time>
      </trkpt>
      <trkpt lat="40.1846140" lon="-6.0518700">
        <ele>370.6</ele>
        <time>2021-10-16T08:50:53Z</time>
      </trkpt>
      <trkpt lat="40.1843790" lon="-6.0521610">
        <ele>369.6</ele>
        <time>2021-10-16T08:52:48Z</time>
      </trkpt>
      <trkpt lat="40.1843610" lon="-6.0521790">
        <ele>369.8</ele>
        <time>2021-10-16T08:52:49Z</time>
      </trkpt>
      <trkpt lat="40.1843430" lon="-6.0522010">
        <ele>370.0</ele>
        <time>2021-10-16T08:52:50Z</time>
      </trkpt>
      <trkpt lat="40.1841740" lon="-6.0523320">
        <ele>370.2</ele>
        <time>2021-10-16T08:52:55Z</time>
      </trkpt>
      <trkpt lat="40.1841010" lon="-6.0523970">
        <ele>370.2</ele>
        <time>2021-10-16T08:52:57Z</time>
      </trkpt>
      <trkpt lat="40.1840160" lon="-6.0525120">
        <ele>370.2</ele>
        <time>2021-10-16T08:53:00Z</time>
      </trkpt>
      <trkpt lat="40.1839420" lon="-6.0526550">
        <ele>370.4</ele>
        <time>2021-10-16T08:53:03Z</time>
      </trkpt>
      <trkpt lat="40.1839190" lon="-6.0527490">
        <ele>370.4</ele>
        <time>2021-10-16T08:53:05Z</time>
      </trkpt>
      <trkpt lat="40.1839120" lon="-6.0527970">
        <ele>370.4</ele>
        <time>2021-10-16T08:53:06Z</time>
      </trkpt>
      <trkpt lat="40.1838830" lon="-6.0529480">
        <ele>370.8</ele>
        <time>2021-10-16T08:53:09Z</time>
      </trkpt>
      <trkpt lat="40.1838220" lon="-6.0531420">
        <ele>370.8</ele>
        <time>2021-10-16T08:53:13Z</time>
      </trkpt>
      <trkpt lat="40.1836930" lon="-6.0534850">
        <ele>371.2</ele>
        <time>2021-10-16T08:53:21Z</time>
      </trkpt>
      <trkpt lat="40.1836800" lon="-6.0535240">
        <ele>371.4</ele>
        <time>2021-10-16T08:53:22Z</time>
      </trkpt>
      <trkpt lat="40.1836430" lon="-6.0536280">
        <ele>371.8</ele>
        <time>2021-10-16T08:53:25Z</time>
      </trkpt>
      <trkpt lat="40.1835750" lon="-6.0537910">
        <ele>372.4</ele>
        <time>2021-10-16T08:53:30Z</time>
      </trkpt>
      <trkpt lat="40.1835280" lon="-6.0538800">
        <ele>372.8</ele>
        <time>2021-10-16T08:53:33Z</time>
      </trkpt>
      <trkpt lat="40.1834370" lon="-6.0540670">
        <ele>373.6</ele>
        <time>2021-10-16T08:53:39Z</time>
      </trkpt>
      <trkpt lat="40.1834080" lon="-6.0541260">
        <ele>374.0</ele>
        <time>2021-10-16T08:53:41Z</time>
      </trkpt>
      <trkpt lat="40.1833380" lon="-6.0542720">
        <ele>374.8</ele>
        <time>2021-10-16T08:53:46Z</time>
      </trkpt>
      <trkpt lat="40.1833220" lon="-6.0543380">
        <ele>375.0</ele>
        <time>2021-10-16T08:53:48Z</time>
      </trkpt>
      <trkpt lat="40.1832940" lon="-6.0543960">
        <ele>375.0</ele>
        <time>2021-10-16T08:53:50Z</time>
      </trkpt>
      <trkpt lat="40.1832220" lon="-6.0545490">
        <ele>375.6</ele>
        <time>2021-10-16T08:53:56Z</time>
      </trkpt>
      <trkpt lat="40.1831780" lon="-6.0546430">
        <ele>375.8</ele>
        <time>2021-10-16T08:53:59Z</time>
      </trkpt>
      <trkpt lat="40.1831060" lon="-6.0547610">
        <ele>376.0</ele>
        <time>2021-10-16T08:54:03Z</time>
      </trkpt>
      <trkpt lat="40.1829610" lon="-6.0550420">
        <ele>376.2</ele>
        <time>2021-10-16T08:54:11Z</time>
      </trkpt>
      <trkpt lat="40.1828790" lon="-6.0551640">
        <ele>376.0</ele>
        <time>2021-10-16T08:54:14Z</time>
      </trkpt>
      <trkpt lat="40.1828070" lon="-6.0552300">
        <ele>375.6</ele>
        <time>2021-10-16T08:54:16Z</time>
      </trkpt>
      <trkpt lat="40.1827250" lon="-6.0552970">
        <ele>375.0</ele>
        <time>2021-10-16T08:54:18Z</time>
      </trkpt>
      <trkpt lat="40.1826840" lon="-6.0553290">
        <ele>374.8</ele>
        <time>2021-10-16T08:54:19Z</time>
      </trkpt>
      <trkpt lat="40.1826190" lon="-6.0554070">
        <ele>374.6</ele>
        <time>2021-10-16T08:54:21Z</time>
      </trkpt>
      <trkpt lat="40.1825900" lon="-6.0554550">
        <ele>374.0</ele>
        <time>2021-10-16T08:54:22Z</time>
      </trkpt>
      <trkpt lat="40.1824910" lon="-6.0556170">
        <ele>372.6</ele>
        <time>2021-10-16T08:54:25Z</time>
      </trkpt>
      <trkpt lat="40.1823940" lon="-6.0557820">
        <ele>371.2</ele>
        <time>2021-10-16T08:54:28Z</time>
      </trkpt>
      <trkpt lat="40.1823670" lon="-6.0558240">
        <ele>371.0</ele>
        <time>2021-10-16T08:54:29Z</time>
      </trkpt>
      <trkpt lat="40.1823290" lon="-6.0558850">
        <ele>370.8</ele>
        <time>2021-10-16T08:54:30Z</time>
      </trkpt>
      <trkpt lat="40.1822510" lon="-6.0560510">
        <ele>370.2</ele>
        <time>2021-10-16T08:54:33Z</time>
      </trkpt>
      <trkpt lat="40.1822210" lon="-6.0561060">
        <ele>370.0</ele>
        <time>2021-10-16T08:54:34Z</time>
      </trkpt>
      <trkpt lat="40.1821890" lon="-6.0561530">
        <ele>370.0</ele>
        <time>2021-10-16T08:54:35Z</time>
      </trkpt>
      <trkpt lat="40.1820070" lon="-6.0563590">
        <ele>369.0</ele>
        <time>2021-10-16T08:54:40Z</time>
      </trkpt>
      <trkpt lat="40.1819370" lon="-6.0564340">
        <ele>368.8</ele>
        <time>2021-10-16T08:54:42Z</time>
      </trkpt>
      <trkpt lat="40.1817080" lon="-6.0566650">
        <ele>368.4</ele>
        <time>2021-10-16T08:54:48Z</time>
      </trkpt>
      <trkpt lat="40.1816790" lon="-6.0567040">
        <ele>368.4</ele>
        <time>2021-10-16T08:54:49Z</time>
      </trkpt>
      <trkpt lat="40.1816450" lon="-6.0567520">
        <ele>368.4</ele>
        <time>2021-10-16T08:54:50Z</time>
      </trkpt>
      <trkpt lat="40.1815990" lon="-6.0568470">
        <ele>368.2</ele>
        <time>2021-10-16T08:54:52Z</time>
      </trkpt>
      <trkpt lat="40.1815830" lon="-6.0569000">
        <ele>368.2</ele>
        <time>2021-10-16T08:54:53Z</time>
      </trkpt>
      <trkpt lat="40.1815660" lon="-6.0569480">
        <ele>368.2</ele>
        <time>2021-10-16T08:54:54Z</time>
      </trkpt>
      <trkpt lat="40.1814900" lon="-6.0570660">
        <ele>368.2</ele>
        <time>2021-10-16T08:54:57Z</time>
      </trkpt>
      <trkpt lat="40.1814680" lon="-6.0570880">
        <ele>368.2</ele>
        <time>2021-10-16T08:54:58Z</time>
      </trkpt>
      <trkpt lat="40.1813400" lon="-6.0572240">
        <ele>368.0</ele>
        <time>2021-10-16T08:55:02Z</time>
      </trkpt>
      <trkpt lat="40.1812940" lon="-6.0573110">
        <ele>368.0</ele>
        <time>2021-10-16T08:55:04Z</time>
      </trkpt>
      <trkpt lat="40.1810940" lon="-6.0576390">
        <ele>368.0</ele>
        <time>2021-10-16T08:55:12Z</time>
      </trkpt>
      <trkpt lat="40.1810000" lon="-6.0577890">
        <ele>368.0</ele>
        <time>2021-10-16T08:55:17Z</time>
      </trkpt>
      <trkpt lat="40.1809860" lon="-6.0578100">
        <ele>368.0</ele>
        <time>2021-10-16T08:55:18Z</time>
      </trkpt>
      <trkpt lat="40.1809630" lon="-6.0578540">
        <ele>367.6</ele>
        <time>2021-10-16T08:55:23Z</time>
      </trkpt>
      <trkpt lat="40.1809630" lon="-6.0578540">
        <ele>367.6</ele>
        <time>2021-10-16T08:55:24Z</time>
      </trkpt>
      <trkpt lat="40.1809510" lon="-6.0579150">
        <ele>367.0</ele>
        <time>2021-10-16T08:55:42Z</time>
      </trkpt>
      <trkpt lat="40.1809530" lon="-6.0579350">
        <ele>366.8</ele>
        <time>2021-10-16T08:55:43Z</time>
      </trkpt>
      <trkpt lat="40.1809530" lon="-6.0579510">
        <ele>366.8</ele>
        <time>2021-10-16T08:55:44Z</time>
      </trkpt>
      <trkpt lat="40.1809520" lon="-6.0579620">
        <ele>366.6</ele>
        <time>2021-10-16T08:55:47Z</time>
      </trkpt>
      <trkpt lat="40.1807650" lon="-6.0581250">
        <ele>367.6</ele>
        <time>2021-10-16T08:56:21Z</time>
      </trkpt>
      <trkpt lat="40.1807480" lon="-6.0581380">
        <ele>367.6</ele>
        <time>2021-10-16T08:56:22Z</time>
      </trkpt>
      <trkpt lat="40.1807360" lon="-6.0581500">
        <ele>367.6</ele>
        <time>2021-10-16T08:56:23Z</time>
      </trkpt>
      <trkpt lat="40.1807050" lon="-6.0582260">
        <ele>367.6</ele>
        <time>2021-10-16T08:56:26Z</time>
      </trkpt>
      <trkpt lat="40.1806810" lon="-6.0582830">
        <ele>367.6</ele>
        <time>2021-10-16T08:56:28Z</time>
      </trkpt>
      <trkpt lat="40.1805750" lon="-6.0584890">
        <ele>367.8</ele>
        <time>2021-10-16T08:56:35Z</time>
      </trkpt>
      <trkpt lat="40.1805050" lon="-6.0586230">
        <ele>368.0</ele>
        <time>2021-10-16T08:56:40Z</time>
      </trkpt>
      <trkpt lat="40.1804630" lon="-6.0587030">
        <ele>368.2</ele>
        <time>2021-10-16T08:56:43Z</time>
      </trkpt>
      <trkpt lat="40.1804240" lon="-6.0587450">
        <ele>368.4</ele>
        <time>2021-10-16T08:56:45Z</time>
      </trkpt>
      <trkpt lat="40.1803770" lon="-6.0588170">
        <ele>368.6</ele>
        <time>2021-10-16T08:56:48Z</time>
      </trkpt>
      <trkpt lat="40.1803410" lon="-6.0589260">
        <ele>369.0</ele>
        <time>2021-10-16T08:56:52Z</time>
      </trkpt>
      <trkpt lat="40.1803300" lon="-6.0589820">
        <ele>369.0</ele>
        <time>2021-10-16T08:56:54Z</time>
      </trkpt>
      <trkpt lat="40.1803030" lon="-6.0590550">
        <ele>369.2</ele>
        <time>2021-10-16T08:56:57Z</time>
      </trkpt>
      <trkpt lat="40.1802620" lon="-6.0591180">
        <ele>369.8</ele>
        <time>2021-10-16T08:57:00Z</time>
      </trkpt>
      <trkpt lat="40.1802410" lon="-6.0591550">
        <ele>370.2</ele>
        <time>2021-10-16T08:57:02Z</time>
      </trkpt>
      <trkpt lat="40.1802090" lon="-6.0592150">
        <ele>370.4</ele>
        <time>2021-10-16T08:57:05Z</time>
      </trkpt>
      <trkpt lat="40.1801550" lon="-6.0592990">
        <ele>371.2</ele>
        <time>2021-10-16T08:57:09Z</time>
      </trkpt>
      <trkpt lat="40.1801220" lon="-6.0594050">
        <ele>371.8</ele>
        <time>2021-10-16T08:57:14Z</time>
      </trkpt>
      <trkpt lat="40.1801090" lon="-6.0594240">
        <ele>371.8</ele>
        <time>2021-10-16T08:57:15Z</time>
      </trkpt>
      <trkpt lat="40.1800750" lon="-6.0594750">
        <ele>372.2</ele>
        <time>2021-10-16T08:57:18Z</time>
      </trkpt>
      <trkpt lat="40.1800610" lon="-6.0594940">
        <ele>372.2</ele>
        <time>2021-10-16T08:57:19Z</time>
      </trkpt>
      <trkpt lat="40.1800300" lon="-6.0595310">
        <ele>372.6</ele>
        <time>2021-10-16T08:57:21Z</time>
      </trkpt>
      <trkpt lat="40.1799770" lon="-6.0596040">
        <ele>373.0</ele>
        <time>2021-10-16T08:57:25Z</time>
      </trkpt>
      <trkpt lat="40.1799480" lon="-6.0596750">
        <ele>373.4</ele>
        <time>2021-10-16T08:57:28Z</time>
      </trkpt>
      <trkpt lat="40.1798910" lon="-6.0597740">
        <ele>373.8</ele>
        <time>2021-10-16T08:57:33Z</time>
      </trkpt>
      <trkpt lat="40.1798460" lon="-6.0598460">
        <ele>374.2</ele>
        <time>2021-10-16T08:57:37Z</time>
      </trkpt>
      <trkpt lat="40.1798370" lon="-6.0598630">
        <ele>374.4</ele>
        <time>2021-10-16T08:57:38Z</time>
      </trkpt>
      <trkpt lat="40.1798170" lon="-6.0599000">
        <ele>374.6</ele>
        <time>2021-10-16T08:57:40Z</time>
      </trkpt>
      <trkpt lat="40.1797430" lon="-6.0600220">
        <ele>375.0</ele>
        <time>2021-10-16T08:57:46Z</time>
      </trkpt>
      <trkpt lat="40.1796960" lon="-6.0601080">
        <ele>375.4</ele>
        <time>2021-10-16T08:57:50Z</time>
      </trkpt>
      <trkpt lat="40.1796500" lon="-6.0601680">
        <ele>375.8</ele>
        <time>2021-10-16T08:57:53Z</time>
      </trkpt>
      <trkpt lat="40.1796030" lon="-6.0602450">
        <ele>376.0</ele>
        <time>2021-10-16T08:57:57Z</time>
      </trkpt>
      <trkpt lat="40.1795790" lon="-6.0602910">
        <ele>376.4</ele>
        <time>2021-10-16T08:57:59Z</time>
      </trkpt>
      <trkpt lat="40.1795010" lon="-6.0604410">
        <ele>377.0</ele>
        <time>2021-10-16T08:58:06Z</time>
      </trkpt>
      <trkpt lat="40.1794590" lon="-6.0605290">
        <ele>377.2</ele>
        <time>2021-10-16T08:58:10Z</time>
      </trkpt>
      <trkpt lat="40.1794420" lon="-6.0605800">
        <ele>377.2</ele>
        <time>2021-10-16T08:58:12Z</time>
      </trkpt>
      <trkpt lat="40.1794280" lon="-6.0606320">
        <ele>377.2</ele>
        <time>2021-10-16T08:58:14Z</time>
      </trkpt>
      <trkpt lat="40.1793540" lon="-6.0607410">
        <ele>377.4</ele>
        <time>2021-10-16T08:58:19Z</time>
      </trkpt>
      <trkpt lat="40.1793260" lon="-6.0607970">
        <ele>377.4</ele>
        <time>2021-10-16T08:58:21Z</time>
      </trkpt>
      <trkpt lat="40.1792250" lon="-6.0609770">
        <ele>377.6</ele>
        <time>2021-10-16T08:58:27Z</time>
      </trkpt>
      <trkpt lat="40.1790890" lon="-6.0612660">
        <ele>377.8</ele>
        <time>2021-10-16T08:58:35Z</time>
      </trkpt>
      <trkpt lat="40.1790700" lon="-6.0613030">
        <ele>377.8</ele>
        <time>2021-10-16T08:58:36Z</time>
      </trkpt>
      <trkpt lat="40.1789350" lon="-6.0615950">
        <ele>377.4</ele>
        <time>2021-10-16T08:58:42Z</time>
      </trkpt>
      <trkpt lat="40.1788440" lon="-6.0618150">
        <ele>376.4</ele>
        <time>2021-10-16T08:58:46Z</time>
      </trkpt>
      <trkpt lat="40.1787620" lon="-6.0619490">
        <ele>376.2</ele>
        <time>2021-10-16T08:58:49Z</time>
      </trkpt>
      <trkpt lat="40.1786430" lon="-6.0621400">
        <ele>375.8</ele>
        <time>2021-10-16T08:58:54Z</time>
      </trkpt>
      <trkpt lat="40.1785630" lon="-6.0622820">
        <ele>376.0</ele>
        <time>2021-10-16T08:58:58Z</time>
      </trkpt>
      <trkpt lat="40.1784910" lon="-6.0624210">
        <ele>376.2</ele>
        <time>2021-10-16T08:59:02Z</time>
      </trkpt>
      <trkpt lat="40.1783830" lon="-6.0626190">
        <ele>376.6</ele>
        <time>2021-10-16T08:59:08Z</time>
      </trkpt>
      <trkpt lat="40.1783310" lon="-6.0627210">
        <ele>377.0</ele>
        <time>2021-10-16T08:59:11Z</time>
      </trkpt>
      <trkpt lat="40.1782960" lon="-6.0627900">
        <ele>377.2</ele>
        <time>2021-10-16T08:59:13Z</time>
      </trkpt>
      <trkpt lat="40.1782300" lon="-6.0629230">
        <ele>377.6</ele>
        <time>2021-10-16T08:59:17Z</time>
      </trkpt>
      <trkpt lat="40.1781810" lon="-6.0630300">
        <ele>377.6</ele>
        <time>2021-10-16T08:59:20Z</time>
      </trkpt>
      <trkpt lat="40.1781040" lon="-6.0631760">
        <ele>377.8</ele>
        <time>2021-10-16T08:59:24Z</time>
      </trkpt>
      <trkpt lat="40.1780310" lon="-6.0633070">
        <ele>378.2</ele>
        <time>2021-10-16T08:59:28Z</time>
      </trkpt>
      <trkpt lat="40.1779370" lon="-6.0634590">
        <ele>378.4</ele>
        <time>2021-10-16T08:59:33Z</time>
      </trkpt>
      <trkpt lat="40.1778900" lon="-6.0636070">
        <ele>378.4</ele>
        <time>2021-10-16T08:59:37Z</time>
      </trkpt>
      <trkpt lat="40.1778720" lon="-6.0636820">
        <ele>378.6</ele>
        <time>2021-10-16T08:59:39Z</time>
      </trkpt>
      <trkpt lat="40.1778270" lon="-6.0638560">
        <ele>378.6</ele>
        <time>2021-10-16T08:59:44Z</time>
      </trkpt>
      <trkpt lat="40.1777190" lon="-6.0640150">
        <ele>378.6</ele>
        <time>2021-10-16T08:59:51Z</time>
      </trkpt>
      <trkpt lat="40.1776520" lon="-6.0640810">
        <ele>378.6</ele>
        <time>2021-10-16T08:59:57Z</time>
      </trkpt>
      <trkpt lat="40.1776010" lon="-6.0641950">
        <ele>378.4</ele>
        <time>2021-10-16T09:00:04Z</time>
      </trkpt>
      <trkpt lat="40.1775630" lon="-6.0642180">
        <ele>378.4</ele>
        <time>2021-10-16T09:00:09Z</time>
      </trkpt>
      <trkpt lat="40.1775450" lon="-6.0642360">
        <ele>377.8</ele>
        <time>2021-10-16T09:01:51Z</time>
      </trkpt>
      <trkpt lat="40.1774600" lon="-6.0643670">
        <ele>377.8</ele>
        <time>2021-10-16T09:01:56Z</time>
      </trkpt>
      <trkpt lat="40.1773370" lon="-6.0646100">
        <ele>377.4</ele>
        <time>2021-10-16T09:02:03Z</time>
      </trkpt>
      <trkpt lat="40.1773190" lon="-6.0646420">
        <ele>377.4</ele>
        <time>2021-10-16T09:02:04Z</time>
      </trkpt>
      <trkpt lat="40.1772290" lon="-6.0647740">
        <ele>376.6</ele>
        <time>2021-10-16T09:02:09Z</time>
      </trkpt>
      <trkpt lat="40.1771680" lon="-6.0648990">
        <ele>376.0</ele>
        <time>2021-10-16T09:02:13Z</time>
      </trkpt>
      <trkpt lat="40.1771340" lon="-6.0649790">
        <ele>375.4</ele>
        <time>2021-10-16T09:02:15Z</time>
      </trkpt>
      <trkpt lat="40.1771170" lon="-6.0650150">
        <ele>375.0</ele>
        <time>2021-10-16T09:02:16Z</time>
      </trkpt>
      <trkpt lat="40.1770670" lon="-6.0651090">
        <ele>374.4</ele>
        <time>2021-10-16T09:02:20Z</time>
      </trkpt>
      <trkpt lat="40.1770660" lon="-6.0651170">
        <ele>374.4</ele>
        <time>2021-10-16T09:02:23Z</time>
      </trkpt>
      <trkpt lat="40.1768600" lon="-6.0654920">
        <ele>376.4</ele>
        <time>2021-10-16T09:12:35Z</time>
      </trkpt>
      <trkpt lat="40.1768490" lon="-6.0655150">
        <ele>376.4</ele>
        <time>2021-10-16T09:12:36Z</time>
      </trkpt>
      <trkpt lat="40.1768010" lon="-6.0655820">
        <ele>376.4</ele>
        <time>2021-10-16T09:12:39Z</time>
      </trkpt>
      <trkpt lat="40.1767690" lon="-6.0656460">
        <ele>376.6</ele>
        <time>2021-10-16T09:12:42Z</time>
      </trkpt>
      <trkpt lat="40.1767540" lon="-6.0656650">
        <ele>376.6</ele>
        <time>2021-10-16T09:12:43Z</time>
      </trkpt>
      <trkpt lat="40.1767030" lon="-6.0657490">
        <ele>377.0</ele>
        <time>2021-10-16T09:12:47Z</time>
      </trkpt>
      <trkpt lat="40.1766680" lon="-6.0658190">
        <ele>377.2</ele>
        <time>2021-10-16T09:12:50Z</time>
      </trkpt>
      <trkpt lat="40.1766470" lon="-6.0658610">
        <ele>377.2</ele>
        <time>2021-10-16T09:12:52Z</time>
      </trkpt>
      <trkpt lat="40.1766270" lon="-6.0658980">
        <ele>377.4</ele>
        <time>2021-10-16T09:12:54Z</time>
      </trkpt>
      <trkpt lat="40.1765930" lon="-6.0659500">
        <ele>377.6</ele>
        <time>2021-10-16T09:12:57Z</time>
      </trkpt>
      <trkpt lat="40.1765820" lon="-6.0659700">
        <ele>377.6</ele>
        <time>2021-10-16T09:12:58Z</time>
      </trkpt>
      <trkpt lat="40.1764430" lon="-6.0662030">
        <ele>378.2</ele>
        <time>2021-10-16T09:13:08Z</time>
      </trkpt>
      <trkpt lat="40.1764030" lon="-6.0662750">
        <ele>378.4</ele>
        <time>2021-10-16T09:13:11Z</time>
      </trkpt>
      <trkpt lat="40.1763530" lon="-6.0663720">
        <ele>378.6</ele>
        <time>2021-10-16T09:13:15Z</time>
      </trkpt>
      <trkpt lat="40.1763140" lon="-6.0664420">
        <ele>378.6</ele>
        <time>2021-10-16T09:13:18Z</time>
      </trkpt>
      <trkpt lat="40.1762180" lon="-6.0666110">
        <ele>378.8</ele>
        <time>2021-10-16T09:13:25Z</time>
      </trkpt>
      <trkpt lat="40.1760980" lon="-6.0668050">
        <ele>378.8</ele>
        <time>2021-10-16T09:13:32Z</time>
      </trkpt>
      <trkpt lat="40.1760290" lon="-6.0669330">
        <ele>378.8</ele>
        <time>2021-10-16T09:13:37Z</time>
      </trkpt>
      <trkpt lat="40.1760250" lon="-6.0669460">
        <ele>378.8</ele>
        <time>2021-10-16T09:13:39Z</time>
      </trkpt>
      <trkpt lat="40.1760230" lon="-6.0669470">
        <ele>379.0</ele>
        <time>2021-10-16T09:13:41Z</time>
      </trkpt>
      <trkpt lat="40.1759810" lon="-6.0669970">
        <ele>379.0</ele>
        <time>2021-10-16T09:17:28Z</time>
      </trkpt>
      <trkpt lat="40.1759560" lon="-6.0670400">
        <ele>379.0</ele>
        <time>2021-10-16T09:17:30Z</time>
      </trkpt>
      <trkpt lat="40.1758630" lon="-6.0672140">
        <ele>379.0</ele>
        <time>2021-10-16T09:17:37Z</time>
      </trkpt>
      <trkpt lat="40.1758520" lon="-6.0672360">
        <ele>379.0</ele>
        <time>2021-10-16T09:17:38Z</time>
      </trkpt>
      <trkpt lat="40.1758010" lon="-6.0673410">
        <ele>379.0</ele>
        <time>2021-10-16T09:17:43Z</time>
      </trkpt>
      <trkpt lat="40.1756980" lon="-6.0675300">
        <ele>379.0</ele>
        <time>2021-10-16T09:17:51Z</time>
      </trkpt>
      <trkpt lat="40.1756700" lon="-6.0675760">
        <ele>379.0</ele>
        <time>2021-10-16T09:17:53Z</time>
      </trkpt>
      <trkpt lat="40.1756200" lon="-6.0676610">
        <ele>379.2</ele>
        <time>2021-10-16T09:17:57Z</time>
      </trkpt>
      <trkpt lat="40.1755710" lon="-6.0677510">
        <ele>379.0</ele>
        <time>2021-10-16T09:18:01Z</time>
      </trkpt>
      <trkpt lat="40.1755440" lon="-6.0678010">
        <ele>379.0</ele>
        <time>2021-10-16T09:18:03Z</time>
      </trkpt>
      <trkpt lat="40.1755040" lon="-6.0678700">
        <ele>379.2</ele>
        <time>2021-10-16T09:18:06Z</time>
      </trkpt>
      <trkpt lat="40.1754420" lon="-6.0679730">
        <ele>379.2</ele>
        <time>2021-10-16T09:18:10Z</time>
      </trkpt>
      <trkpt lat="40.1753170" lon="-6.0682040">
        <ele>379.4</ele>
        <time>2021-10-16T09:18:18Z</time>
      </trkpt>
      <trkpt lat="40.1751860" lon="-6.0684310">
        <ele>379.6</ele>
        <time>2021-10-16T09:18:25Z</time>
      </trkpt>
      <trkpt lat="40.1751510" lon="-6.0684990">
        <ele>379.6</ele>
        <time>2021-10-16T09:18:27Z</time>
      </trkpt>
      <trkpt lat="40.1751020" lon="-6.0686090">
        <ele>379.6</ele>
        <time>2021-10-16T09:18:30Z</time>
      </trkpt>
      <trkpt lat="40.1749740" lon="-6.0688400">
        <ele>379.6</ele>
        <time>2021-10-16T09:18:36Z</time>
      </trkpt>
      <trkpt lat="40.1748170" lon="-6.0690460">
        <ele>379.4</ele>
        <time>2021-10-16T09:18:42Z</time>
      </trkpt>
      <trkpt lat="40.1746890" lon="-6.0692450">
        <ele>379.2</ele>
        <time>2021-10-16T09:18:47Z</time>
      </trkpt>
      <trkpt lat="40.1746040" lon="-6.0693730">
        <ele>379.0</ele>
        <time>2021-10-16T09:18:50Z</time>
      </trkpt>
      <trkpt lat="40.1745120" lon="-6.0695010">
        <ele>378.8</ele>
        <time>2021-10-16T09:18:53Z</time>
      </trkpt>
      <trkpt lat="40.1744830" lon="-6.0695450">
        <ele>378.6</ele>
        <time>2021-10-16T09:18:54Z</time>
      </trkpt>
      <trkpt lat="40.1743910" lon="-6.0696820">
        <ele>378.2</ele>
        <time>2021-10-16T09:18:57Z</time>
      </trkpt>
      <trkpt lat="40.1743270" lon="-6.0697540">
        <ele>378.0</ele>
        <time>2021-10-16T09:18:59Z</time>
      </trkpt>
      <trkpt lat="40.1742570" lon="-6.0698580">
        <ele>377.6</ele>
        <time>2021-10-16T09:19:02Z</time>
      </trkpt>
      <trkpt lat="40.1742090" lon="-6.0699210">
        <ele>377.6</ele>
        <time>2021-10-16T09:19:04Z</time>
      </trkpt>
      <trkpt lat="40.1739840" lon="-6.0701920">
        <ele>376.8</ele>
        <time>2021-10-16T09:19:12Z</time>
      </trkpt>
      <trkpt lat="40.1738050" lon="-6.0704770">
        <ele>377.0</ele>
        <time>2021-10-16T09:19:19Z</time>
      </trkpt>
      <trkpt lat="40.1735880" lon="-6.0707240">
        <ele>377.0</ele>
        <time>2021-10-16T09:19:27Z</time>
      </trkpt>
      <trkpt lat="40.1734830" lon="-6.0708820">
        <ele>377.2</ele>
        <time>2021-10-16T09:19:32Z</time>
      </trkpt>
      <trkpt lat="40.1733420" lon="-6.0710950">
        <ele>377.4</ele>
        <time>2021-10-16T09:19:38Z</time>
      </trkpt>
      <trkpt lat="40.1732340" lon="-6.0712330">
        <ele>377.4</ele>
        <time>2021-10-16T09:19:42Z</time>
      </trkpt>
      <trkpt lat="40.1731770" lon="-6.0712950">
        <ele>377.4</ele>
        <time>2021-10-16T09:19:44Z</time>
      </trkpt>
      <trkpt lat="40.1730040" lon="-6.0714710">
        <ele>377.4</ele>
        <time>2021-10-16T09:19:50Z</time>
      </trkpt>
      <trkpt lat="40.1727990" lon="-6.0717530">
        <ele>377.0</ele>
        <time>2021-10-16T09:19:57Z</time>
      </trkpt>
      <trkpt lat="40.1727250" lon="-6.0718410">
        <ele>376.6</ele>
        <time>2021-10-16T09:19:59Z</time>
      </trkpt>
      <trkpt lat="40.1726860" lon="-6.0718830">
        <ele>376.4</ele>
        <time>2021-10-16T09:20:00Z</time>
      </trkpt>
      <trkpt lat="40.1724370" lon="-6.0721880">
        <ele>375.8</ele>
        <time>2021-10-16T09:20:07Z</time>
      </trkpt>
      <trkpt lat="40.1723630" lon="-6.0722740">
        <ele>375.4</ele>
        <time>2021-10-16T09:20:09Z</time>
      </trkpt>
      <trkpt lat="40.1721730" lon="-6.0724970">
        <ele>375.0</ele>
        <time>2021-10-16T09:20:14Z</time>
      </trkpt>
      <trkpt lat="40.1720460" lon="-6.0726370">
        <ele>373.8</ele>
        <time>2021-10-16T09:20:17Z</time>
      </trkpt>
      <trkpt lat="40.1719230" lon="-6.0727790">
        <ele>372.8</ele>
        <time>2021-10-16T09:20:20Z</time>
      </trkpt>
      <trkpt lat="40.1718440" lon="-6.0728810">
        <ele>372.6</ele>
        <time>2021-10-16T09:20:22Z</time>
      </trkpt>
      <trkpt lat="40.1717730" lon="-6.0729880">
        <ele>372.2</ele>
        <time>2021-10-16T09:20:24Z</time>
      </trkpt>
      <trkpt lat="40.1717230" lon="-6.0730720">
        <ele>371.6</ele>
        <time>2021-10-16T09:20:26Z</time>
      </trkpt>
      <trkpt lat="40.1717010" lon="-6.0731050">
        <ele>371.4</ele>
        <time>2021-10-16T09:20:27Z</time>
      </trkpt>
      <trkpt lat="40.1716090" lon="-6.0732140">
        <ele>370.4</ele>
        <time>2021-10-16T09:20:31Z</time>
      </trkpt>
      <trkpt lat="40.1715710" lon="-6.0733050">
        <ele>369.6</ele>
        <time>2021-10-16T09:20:35Z</time>
      </trkpt>
      <trkpt lat="40.1715340" lon="-6.0734480">
        <ele>369.4</ele>
        <time>2021-10-16T09:20:41Z</time>
      </trkpt>
      <trkpt lat="40.1713930" lon="-6.0736200">
        <ele>370.4</ele>
        <time>2021-10-16T09:20:50Z</time>
      </trkpt>
      <trkpt lat="40.1713300" lon="-6.0737420">
        <ele>370.8</ele>
        <time>2021-10-16T09:20:56Z</time>
      </trkpt>
      <trkpt lat="40.1712790" lon="-6.0738710">
        <ele>371.4</ele>
        <time>2021-10-16T09:21:01Z</time>
      </trkpt>
      <trkpt lat="40.1712550" lon="-6.0739170">
        <ele>371.6</ele>
        <time>2021-10-16T09:21:03Z</time>
      </trkpt>
      <trkpt lat="40.1711790" lon="-6.0740740">
        <ele>371.8</ele>
        <time>2021-10-16T09:21:09Z</time>
      </trkpt>
      <trkpt lat="40.1711500" lon="-6.0741630">
        <ele>371.8</ele>
        <time>2021-10-16T09:21:12Z</time>
      </trkpt>
      <trkpt lat="40.1710960" lon="-6.0743000">
        <ele>372.2</ele>
        <time>2021-10-16T09:21:17Z</time>
      </trkpt>
      <trkpt lat="40.1710840" lon="-6.0743270">
        <ele>372.4</ele>
        <time>2021-10-16T09:21:18Z</time>
      </trkpt>
      <trkpt lat="40.1710610" lon="-6.0743770">
        <ele>372.8</ele>
        <time>2021-10-16T09:21:20Z</time>
      </trkpt>
      <trkpt lat="40.1710150" lon="-6.0744790">
        <ele>373.0</ele>
        <time>2021-10-16T09:21:24Z</time>
      </trkpt>
      <trkpt lat="40.1710070" lon="-6.0745040">
        <ele>373.0</ele>
        <time>2021-10-16T09:21:25Z</time>
      </trkpt>
      <trkpt lat="40.1709480" lon="-6.0746690">
        <ele>373.8</ele>
        <time>2021-10-16T09:21:31Z</time>
      </trkpt>
      <trkpt lat="40.1709270" lon="-6.0747280">
        <ele>374.0</ele>
        <time>2021-10-16T09:21:33Z</time>
      </trkpt>
      <trkpt lat="40.1708820" lon="-6.0748390">
        <ele>374.0</ele>
        <time>2021-10-16T09:21:37Z</time>
      </trkpt>
      <trkpt lat="40.1707860" lon="-6.0749980">
        <ele>374.4</ele>
        <time>2021-10-16T09:21:43Z</time>
      </trkpt>
      <trkpt lat="40.1707400" lon="-6.0750800">
        <ele>374.6</ele>
        <time>2021-10-16T09:21:46Z</time>
      </trkpt>
      <trkpt lat="40.1707020" lon="-6.0751640">
        <ele>374.8</ele>
        <time>2021-10-16T09:21:49Z</time>
      </trkpt>
      <trkpt lat="40.1706750" lon="-6.0752220">
        <ele>375.0</ele>
        <time>2021-10-16T09:21:51Z</time>
      </trkpt>
      <trkpt lat="40.1706390" lon="-6.0753040">
        <ele>375.0</ele>
        <time>2021-10-16T09:21:54Z</time>
      </trkpt>
      <trkpt lat="40.1705750" lon="-6.0754460">
        <ele>375.4</ele>
        <time>2021-10-16T09:21:59Z</time>
      </trkpt>
      <trkpt lat="40.1704880" lon="-6.0756110">
        <ele>375.6</ele>
        <time>2021-10-16T09:22:05Z</time>
      </trkpt>
      <trkpt lat="40.1704280" lon="-6.0757180">
        <ele>375.6</ele>
        <time>2021-10-16T09:22:09Z</time>
      </trkpt>
      <trkpt lat="40.1703350" lon="-6.0758920">
        <ele>376.0</ele>
        <time>2021-10-16T09:22:15Z</time>
      </trkpt>
      <trkpt lat="40.1702610" lon="-6.0760670">
        <ele>375.8</ele>
        <time>2021-10-16T09:22:21Z</time>
      </trkpt>
      <trkpt lat="40.1702470" lon="-6.0760940">
        <ele>375.8</ele>
        <time>2021-10-16T09:22:22Z</time>
      </trkpt>
      <trkpt lat="40.1701940" lon="-6.0761810">
        <ele>375.8</ele>
        <time>2021-10-16T09:22:25Z</time>
      </trkpt>
      <trkpt lat="40.1701020" lon="-6.0763640">
        <ele>376.4</ele>
        <time>2021-10-16T09:22:31Z</time>
      </trkpt>
      <trkpt lat="40.1700430" lon="-6.0765470">
        <ele>376.4</ele>
        <time>2021-10-16T09:22:37Z</time>
      </trkpt>
      <trkpt lat="40.1700230" lon="-6.0766140">
        <ele>376.4</ele>
        <time>2021-10-16T09:22:39Z</time>
      </trkpt>
      <trkpt lat="40.1698900" lon="-6.0768420">
        <ele>376.6</ele>
        <time>2021-10-16T09:22:47Z</time>
      </trkpt>
      <trkpt lat="40.1698430" lon="-6.0769310">
        <ele>376.8</ele>
        <time>2021-10-16T09:22:50Z</time>
      </trkpt>
      <trkpt lat="40.1698020" lon="-6.0770210">
        <ele>377.0</ele>
        <time>2021-10-16T09:22:53Z</time>
      </trkpt>
      <trkpt lat="40.1696930" lon="-6.0772250">
        <ele>377.4</ele>
        <time>2021-10-16T09:23:00Z</time>
      </trkpt>
      <trkpt lat="40.1695810" lon="-6.0774400">
        <ele>377.8</ele>
        <time>2021-10-16T09:23:06Z</time>
      </trkpt>
      <trkpt lat="40.1695690" lon="-6.0774780">
        <ele>377.8</ele>
        <time>2021-10-16T09:23:07Z</time>
      </trkpt>
      <trkpt lat="40.1695570" lon="-6.0775130">
        <ele>377.8</ele>
        <time>2021-10-16T09:23:08Z</time>
      </trkpt>
      <trkpt lat="40.1695250" lon="-6.0776210">
        <ele>378.2</ele>
        <time>2021-10-16T09:23:12Z</time>
      </trkpt>
      <trkpt lat="40.1695220" lon="-6.0776290">
        <ele>378.4</ele>
        <time>2021-10-16T09:23:15Z</time>
      </trkpt>
      <trkpt lat="40.1694970" lon="-6.0777360">
        <ele>379.0</ele>
        <time>2021-10-16T09:25:03Z</time>
      </trkpt>
      <trkpt lat="40.1694930" lon="-6.0777610">
        <ele>379.2</ele>
        <time>2021-10-16T09:25:04Z</time>
      </trkpt>
      <trkpt lat="40.1694710" lon="-6.0778920">
        <ele>379.2</ele>
        <time>2021-10-16T09:25:09Z</time>
      </trkpt>
      <trkpt lat="40.1694500" lon="-6.0779840">
        <ele>379.6</ele>
        <time>2021-10-16T09:25:12Z</time>
      </trkpt>
      <trkpt lat="40.1694070" lon="-6.0781490">
        <ele>380.0</ele>
        <time>2021-10-16T09:25:18Z</time>
      </trkpt>
      <trkpt lat="40.1693950" lon="-6.0782170">
        <ele>380.0</ele>
        <time>2021-10-16T09:25:20Z</time>
      </trkpt>
      <trkpt lat="40.1693370" lon="-6.0784470">
        <ele>380.2</ele>
        <time>2021-10-16T09:25:27Z</time>
      </trkpt>
      <trkpt lat="40.1693180" lon="-6.0785200">
        <ele>380.2</ele>
        <time>2021-10-16T09:25:29Z</time>
      </trkpt>
      <trkpt lat="40.1692980" lon="-6.0785930">
        <ele>380.4</ele>
        <time>2021-10-16T09:25:31Z</time>
      </trkpt>
      <trkpt lat="40.1692570" lon="-6.0787320">
        <ele>380.4</ele>
        <time>2021-10-16T09:25:35Z</time>
      </trkpt>
      <trkpt lat="40.1692350" lon="-6.0788000">
        <ele>380.6</ele>
        <time>2021-10-16T09:25:37Z</time>
      </trkpt>
      <trkpt lat="40.1691650" lon="-6.0790370">
        <ele>381.2</ele>
        <time>2021-10-16T09:25:44Z</time>
      </trkpt>
      <trkpt lat="40.1691430" lon="-6.0791330">
        <ele>381.2</ele>
        <time>2021-10-16T09:25:47Z</time>
      </trkpt>
      <trkpt lat="40.1691400" lon="-6.0791600">
        <ele>381.4</ele>
        <time>2021-10-16T09:25:48Z</time>
      </trkpt>
      <trkpt lat="40.1690960" lon="-6.0793950">
        <ele>382.0</ele>
        <time>2021-10-16T09:25:55Z</time>
      </trkpt>
      <trkpt lat="40.1690550" lon="-6.0795250">
        <ele>382.2</ele>
        <time>2021-10-16T09:25:59Z</time>
      </trkpt>
      <trkpt lat="40.1690310" lon="-6.0796260">
        <ele>382.6</ele>
        <time>2021-10-16T09:26:02Z</time>
      </trkpt>
      <trkpt lat="40.1689770" lon="-6.0798690">
        <ele>382.8</ele>
        <time>2021-10-16T09:26:09Z</time>
      </trkpt>
      <trkpt lat="40.1689500" lon="-6.0799740">
        <ele>383.2</ele>
        <time>2021-10-16T09:26:12Z</time>
      </trkpt>
      <trkpt lat="40.1689020" lon="-6.0801620">
        <ele>383.4</ele>
        <time>2021-10-16T09:26:18Z</time>
      </trkpt>
      <trkpt lat="40.1688860" lon="-6.0802270">
        <ele>383.6</ele>
        <time>2021-10-16T09:26:20Z</time>
      </trkpt>
      <trkpt lat="40.1688640" lon="-6.0803200">
        <ele>383.6</ele>
        <time>2021-10-16T09:26:23Z</time>
      </trkpt>
      <trkpt lat="40.1688320" lon="-6.0804460">
        <ele>383.8</ele>
        <time>2021-10-16T09:26:27Z</time>
      </trkpt>
      <trkpt lat="40.1688050" lon="-6.0805850">
        <ele>384.2</ele>
        <time>2021-10-16T09:26:31Z</time>
      </trkpt>
      <trkpt lat="40.1687800" lon="-6.0807300">
        <ele>384.4</ele>
        <time>2021-10-16T09:26:35Z</time>
      </trkpt>
      <trkpt lat="40.1687730" lon="-6.0807670">
        <ele>384.4</ele>
        <time>2021-10-16T09:26:36Z</time>
      </trkpt>
      <trkpt lat="40.1687460" lon="-6.0809010">
        <ele>384.8</ele>
        <time>2021-10-16T09:26:40Z</time>
      </trkpt>
      <trkpt lat="40.1687190" lon="-6.0810690">
        <ele>384.8</ele>
        <time>2021-10-16T09:26:45Z</time>
      </trkpt>
      <trkpt lat="40.1686830" lon="-6.0812790">
        <ele>385.2</ele>
        <time>2021-10-16T09:26:51Z</time>
      </trkpt>
      <trkpt lat="40.1686600" lon="-6.0814350">
        <ele>385.4</ele>
        <time>2021-10-16T09:26:55Z</time>
      </trkpt>
      <trkpt lat="40.1686550" lon="-6.0814750">
        <ele>385.4</ele>
        <time>2021-10-16T09:26:56Z</time>
      </trkpt>
      <trkpt lat="40.1686300" lon="-6.0817160">
        <ele>385.0</ele>
        <time>2021-10-16T09:27:02Z</time>
      </trkpt>
      <trkpt lat="40.1686240" lon="-6.0820380">
        <ele>384.6</ele>
        <time>2021-10-16T09:27:09Z</time>
      </trkpt>
      <trkpt lat="40.1686000" lon="-6.0822310">
        <ele>384.2</ele>
        <time>2021-10-16T09:27:13Z</time>
      </trkpt>
      <trkpt lat="40.1686000" lon="-6.0823730">
        <ele>383.8</ele>
        <time>2021-10-16T09:27:16Z</time>
      </trkpt>
      <trkpt lat="40.1686090" lon="-6.0826170">
        <ele>383.4</ele>
        <time>2021-10-16T09:27:21Z</time>
      </trkpt>
      <trkpt lat="40.1686070" lon="-6.0826680">
        <ele>383.4</ele>
        <time>2021-10-16T09:27:22Z</time>
      </trkpt>
      <trkpt lat="40.1686050" lon="-6.0827180">
        <ele>383.2</ele>
        <time>2021-10-16T09:27:23Z</time>
      </trkpt>
      <trkpt lat="40.1685910" lon="-6.0829690">
        <ele>383.0</ele>
        <time>2021-10-16T09:27:28Z</time>
      </trkpt>
      <trkpt lat="40.1685870" lon="-6.0831160">
        <ele>382.6</ele>
        <time>2021-10-16T09:27:31Z</time>
      </trkpt>
      <trkpt lat="40.1685770" lon="-6.0832340">
        <ele>382.0</ele>
        <time>2021-10-16T09:27:33Z</time>
      </trkpt>
      <trkpt lat="40.1685680" lon="-6.0834320">
        <ele>381.4</ele>
        <time>2021-10-16T09:27:37Z</time>
      </trkpt>
      <trkpt lat="40.1685720" lon="-6.0835400">
        <ele>381.4</ele>
        <time>2021-10-16T09:27:39Z</time>
      </trkpt>
      <trkpt lat="40.1685660" lon="-6.0838760">
        <ele>381.2</ele>
        <time>2021-10-16T09:27:46Z</time>
      </trkpt>
      <trkpt lat="40.1685610" lon="-6.0839830">
        <ele>381.0</ele>
        <time>2021-10-16T09:27:48Z</time>
      </trkpt>
      <trkpt lat="40.1685420" lon="-6.0842300">
        <ele>380.2</ele>
        <time>2021-10-16T09:27:53Z</time>
      </trkpt>
      <trkpt lat="40.1685370" lon="-6.0843210">
        <ele>380.0</ele>
        <time>2021-10-16T09:27:55Z</time>
      </trkpt>
      <trkpt lat="40.1685320" lon="-6.0846100">
        <ele>379.6</ele>
        <time>2021-10-16T09:28:01Z</time>
      </trkpt>
      <trkpt lat="40.1685190" lon="-6.0850010">
        <ele>379.0</ele>
        <time>2021-10-16T09:28:09Z</time>
      </trkpt>
      <trkpt lat="40.1685120" lon="-6.0852510">
        <ele>378.4</ele>
        <time>2021-10-16T09:28:15Z</time>
      </trkpt>
      <trkpt lat="40.1685120" lon="-6.0852820">
        <ele>378.4</ele>
        <time>2021-10-16T09:28:16Z</time>
      </trkpt>
      <trkpt lat="40.1685060" lon="-6.0855230">
        <ele>378.0</ele>
        <time>2021-10-16T09:28:21Z</time>
      </trkpt>
      <trkpt lat="40.1685020" lon="-6.0856290">
        <ele>378.0</ele>
        <time>2021-10-16T09:28:23Z</time>
      </trkpt>
      <trkpt lat="40.1684950" lon="-6.0857910">
        <ele>378.0</ele>
        <time>2021-10-16T09:28:26Z</time>
      </trkpt>
      <trkpt lat="40.1684960" lon="-6.0859240">
        <ele>377.8</ele>
        <time>2021-10-16T09:28:29Z</time>
      </trkpt>
      <trkpt lat="40.1684930" lon="-6.0861750">
        <ele>377.8</ele>
        <time>2021-10-16T09:28:36Z</time>
      </trkpt>
      <trkpt lat="40.1684750" lon="-6.0865040">
        <ele>378.2</ele>
        <time>2021-10-16T09:28:44Z</time>
      </trkpt>
      <trkpt lat="40.1684840" lon="-6.0867610">
        <ele>378.6</ele>
        <time>2021-10-16T09:28:51Z</time>
      </trkpt>
      <trkpt lat="40.1684800" lon="-6.0870910">
        <ele>379.0</ele>
        <time>2021-10-16T09:28:58Z</time>
      </trkpt>
      <trkpt lat="40.1684760" lon="-6.0871360">
        <ele>379.0</ele>
        <time>2021-10-16T09:28:59Z</time>
      </trkpt>
      <trkpt lat="40.1684480" lon="-6.0874820">
        <ele>379.2</ele>
        <time>2021-10-16T09:29:07Z</time>
      </trkpt>
      <trkpt lat="40.1684450" lon="-6.0875290">
        <ele>379.4</ele>
        <time>2021-10-16T09:29:08Z</time>
      </trkpt>
      <trkpt lat="40.1684520" lon="-6.0878020">
        <ele>379.4</ele>
        <time>2021-10-16T09:29:14Z</time>
      </trkpt>
      <trkpt lat="40.1684300" lon="-6.0880260">
        <ele>379.6</ele>
        <time>2021-10-16T09:29:19Z</time>
      </trkpt>
      <trkpt lat="40.1684310" lon="-6.0881090">
        <ele>379.8</ele>
        <time>2021-10-16T09:29:21Z</time>
      </trkpt>
      <trkpt lat="40.1684230" lon="-6.0884470">
        <ele>380.0</ele>
        <time>2021-10-16T09:29:29Z</time>
      </trkpt>
      <trkpt lat="40.1684170" lon="-6.0887380">
        <ele>380.6</ele>
        <time>2021-10-16T09:29:37Z</time>
      </trkpt>
      <trkpt lat="40.1684130" lon="-6.0888860">
        <ele>381.0</ele>
        <time>2021-10-16T09:29:41Z</time>
      </trkpt>
      <trkpt lat="40.1684050" lon="-6.0890360">
        <ele>381.4</ele>
        <time>2021-10-16T09:29:45Z</time>
      </trkpt>
      <trkpt lat="40.1684060" lon="-6.0893030">
        <ele>381.8</ele>
        <time>2021-10-16T09:29:52Z</time>
      </trkpt>
      <trkpt lat="40.1684010" lon="-6.0893500">
        <ele>381.8</ele>
        <time>2021-10-16T09:29:53Z</time>
      </trkpt>
      <trkpt lat="40.1683920" lon="-6.0895640">
        <ele>382.0</ele>
        <time>2021-10-16T09:29:59Z</time>
      </trkpt>
      <trkpt lat="40.1683880" lon="-6.0896430">
        <ele>382.0</ele>
        <time>2021-10-16T09:30:02Z</time>
      </trkpt>
      <trkpt lat="40.1683860" lon="-6.0897000">
        <ele>382.0</ele>
        <time>2021-10-16T09:30:05Z</time>
      </trkpt>
      <trkpt lat="40.1683850" lon="-6.0897040">
        <ele>382.0</ele>
        <time>2021-10-16T09:30:08Z</time>
      </trkpt>
      <trkpt lat="40.1683880" lon="-6.0897630">
        <ele>382.0</ele>
        <time>2021-10-16T09:31:30Z</time>
      </trkpt>
      <trkpt lat="40.1683890" lon="-6.0897960">
        <ele>381.8</ele>
        <time>2021-10-16T09:31:31Z</time>
      </trkpt>
      <trkpt lat="40.1683960" lon="-6.0900000">
        <ele>381.6</ele>
        <time>2021-10-16T09:31:36Z</time>
      </trkpt>
      <trkpt lat="40.1683970" lon="-6.0900380">
        <ele>381.4</ele>
        <time>2021-10-16T09:31:37Z</time>
      </trkpt>
      <trkpt lat="40.1683850" lon="-6.0903770">
        <ele>381.8</ele>
        <time>2021-10-16T09:31:45Z</time>
      </trkpt>
      <trkpt lat="40.1683750" lon="-6.0907300">
        <ele>381.2</ele>
        <time>2021-10-16T09:31:53Z</time>
      </trkpt>
      <trkpt lat="40.1683750" lon="-6.0909110">
        <ele>381.0</ele>
        <time>2021-10-16T09:31:57Z</time>
      </trkpt>
      <trkpt lat="40.1683670" lon="-6.0910010">
        <ele>380.8</ele>
        <time>2021-10-16T09:31:59Z</time>
      </trkpt>
      <trkpt lat="40.1683770" lon="-6.0911640">
        <ele>380.0</ele>
        <time>2021-10-16T09:32:04Z</time>
      </trkpt>
      <trkpt lat="40.1683750" lon="-6.0911900">
        <ele>380.0</ele>
        <time>2021-10-16T09:32:05Z</time>
      </trkpt>
      <trkpt lat="40.1683620" lon="-6.0914580">
        <ele>379.4</ele>
        <time>2021-10-16T09:32:13Z</time>
      </trkpt>
      <trkpt lat="40.1683440" lon="-6.0916560">
        <ele>379.0</ele>
        <time>2021-10-16T09:32:18Z</time>
      </trkpt>
      <trkpt lat="40.1683410" lon="-6.0917010">
        <ele>379.0</ele>
        <time>2021-10-16T09:32:19Z</time>
      </trkpt>
      <trkpt lat="40.1683380" lon="-6.0920410">
        <ele>378.0</ele>
        <time>2021-10-16T09:32:26Z</time>
      </trkpt>
      <trkpt lat="40.1683370" lon="-6.0920900">
        <ele>378.0</ele>
        <time>2021-10-16T09:32:27Z</time>
      </trkpt>
      <trkpt lat="40.1683270" lon="-6.0924570">
        <ele>377.4</ele>
        <time>2021-10-16T09:32:34Z</time>
      </trkpt>
      <trkpt lat="40.1683230" lon="-6.0926910">
        <ele>377.4</ele>
        <time>2021-10-16T09:32:39Z</time>
      </trkpt>
      <trkpt lat="40.1683070" lon="-6.0928720">
        <ele>377.4</ele>
        <time>2021-10-16T09:32:43Z</time>
      </trkpt>
      <trkpt lat="40.1683030" lon="-6.0931530">
        <ele>378.2</ele>
        <time>2021-10-16T09:32:50Z</time>
      </trkpt>
      <trkpt lat="40.1682780" lon="-6.0933810">
        <ele>379.0</ele>
        <time>2021-10-16T09:32:57Z</time>
      </trkpt>
      <trkpt lat="40.1682840" lon="-6.0935260">
        <ele>380.2</ele>
        <time>2021-10-16T09:33:02Z</time>
      </trkpt>
      <trkpt lat="40.1682780" lon="-6.0936370">
        <ele>380.6</ele>
        <time>2021-10-16T09:33:06Z</time>
      </trkpt>
      <trkpt lat="40.1682740" lon="-6.0938400">
        <ele>381.2</ele>
        <time>2021-10-16T09:33:13Z</time>
      </trkpt>
      <trkpt lat="40.1682640" lon="-6.0939820">
        <ele>381.8</ele>
        <time>2021-10-16T09:33:18Z</time>
      </trkpt>
      <trkpt lat="40.1682670" lon="-6.0940610">
        <ele>382.2</ele>
        <time>2021-10-16T09:33:21Z</time>
      </trkpt>
      <trkpt lat="40.1682690" lon="-6.0941190">
        <ele>382.4</ele>
        <time>2021-10-16T09:33:23Z</time>
      </trkpt>
      <trkpt lat="40.1682650" lon="-6.0941780">
        <ele>382.6</ele>
        <time>2021-10-16T09:33:25Z</time>
      </trkpt>
      <trkpt lat="40.1682670" lon="-6.0942560">
        <ele>382.6</ele>
        <time>2021-10-16T09:33:28Z</time>
      </trkpt>
      <trkpt lat="40.1682680" lon="-6.0943270">
        <ele>382.8</ele>
        <time>2021-10-16T09:33:31Z</time>
      </trkpt>
      <trkpt lat="40.1682600" lon="-6.0944650">
        <ele>383.2</ele>
        <time>2021-10-16T09:33:36Z</time>
      </trkpt>
      <trkpt lat="40.1682570" lon="-6.0945900">
        <ele>383.8</ele>
        <time>2021-10-16T09:33:41Z</time>
      </trkpt>
      <trkpt lat="40.1682430" lon="-6.0946620">
        <ele>384.2</ele>
        <time>2021-10-16T09:33:44Z</time>
      </trkpt>
      <trkpt lat="40.1682350" lon="-6.0947130">
        <ele>384.4</ele>
        <time>2021-10-16T09:33:46Z</time>
      </trkpt>
      <trkpt lat="40.1682290" lon="-6.0947960">
        <ele>384.6</ele>
        <time>2021-10-16T09:33:49Z</time>
      </trkpt>
      <trkpt lat="40.1682280" lon="-6.0948800">
        <ele>384.8</ele>
        <time>2021-10-16T09:33:52Z</time>
      </trkpt>
      <trkpt lat="40.1682250" lon="-6.0950620">
        <ele>385.4</ele>
        <time>2021-10-16T09:33:59Z</time>
      </trkpt>
      <trkpt lat="40.1682260" lon="-6.0950870">
        <ele>385.6</ele>
        <time>2021-10-16T09:34:00Z</time>
      </trkpt>
      <trkpt lat="40.1682260" lon="-6.0952620">
        <ele>386.4</ele>
        <time>2021-10-16T09:34:07Z</time>
      </trkpt>
      <trkpt lat="40.1682250" lon="-6.0953250">
        <ele>386.4</ele>
        <time>2021-10-16T09:34:09Z</time>
      </trkpt>
      <trkpt lat="40.1682230" lon="-6.0953590">
        <ele>386.6</ele>
        <time>2021-10-16T09:34:10Z</time>
      </trkpt>
      <trkpt lat="40.1682190" lon="-6.0954790">
        <ele>386.6</ele>
        <time>2021-10-16T09:34:13Z</time>
      </trkpt>
      <trkpt lat="40.1682130" lon="-6.0955220">
        <ele>386.6</ele>
        <time>2021-10-16T09:34:14Z</time>
      </trkpt>
      <trkpt lat="40.1682040" lon="-6.0956450">
        <ele>386.6</ele>
        <time>2021-10-16T09:34:17Z</time>
      </trkpt>
      <trkpt lat="40.1681910" lon="-6.0957690">
        <ele>386.4</ele>
        <time>2021-10-16T09:34:20Z</time>
      </trkpt>
      <trkpt lat="40.1681820" lon="-6.0961440">
        <ele>386.2</ele>
        <time>2021-10-16T09:34:28Z</time>
      </trkpt>
      <trkpt lat="40.1681540" lon="-6.0964550">
        <ele>385.4</ele>
        <time>2021-10-16T09:34:34Z</time>
      </trkpt>
      <trkpt lat="40.1681520" lon="-6.0965080">
        <ele>385.4</ele>
        <time>2021-10-16T09:34:35Z</time>
      </trkpt>
      <trkpt lat="40.1681420" lon="-6.0966620">
        <ele>385.2</ele>
        <time>2021-10-16T09:34:38Z</time>
      </trkpt>
      <trkpt lat="40.1681340" lon="-6.0967710">
        <ele>384.6</ele>
        <time>2021-10-16T09:34:40Z</time>
      </trkpt>
      <trkpt lat="40.1681320" lon="-6.0968230">
        <ele>384.2</ele>
        <time>2021-10-16T09:34:41Z</time>
      </trkpt>
      <trkpt lat="40.1681260" lon="-6.0969690">
        <ele>384.0</ele>
        <time>2021-10-16T09:34:44Z</time>
      </trkpt>
      <trkpt lat="40.1681070" lon="-6.0971590">
        <ele>383.4</ele>
        <time>2021-10-16T09:34:48Z</time>
      </trkpt>
      <trkpt lat="40.1681080" lon="-6.0972620">
        <ele>383.2</ele>
        <time>2021-10-16T09:34:50Z</time>
      </trkpt>
      <trkpt lat="40.1681030" lon="-6.0974540">
        <ele>382.8</ele>
        <time>2021-10-16T09:34:54Z</time>
      </trkpt>
      <trkpt lat="40.1681050" lon="-6.0975540">
        <ele>382.4</ele>
        <time>2021-10-16T09:34:57Z</time>
      </trkpt>
      <trkpt lat="40.1680790" lon="-6.0977490">
        <ele>382.8</ele>
        <time>2021-10-16T09:35:04Z</time>
      </trkpt>
      <trkpt lat="40.1680460" lon="-6.0979280">
        <ele>383.8</ele>
        <time>2021-10-16T09:35:12Z</time>
      </trkpt>
      <trkpt lat="40.1680650" lon="-6.0980900">
        <ele>384.0</ele>
        <time>2021-10-16T09:35:18Z</time>
      </trkpt>
      <trkpt lat="40.1680520" lon="-6.0981250">
        <ele>384.2</ele>
        <time>2021-10-16T09:35:20Z</time>
      </trkpt>
      <trkpt lat="40.1680330" lon="-6.0982090">
        <ele>384.4</ele>
        <time>2021-10-16T09:35:24Z</time>
      </trkpt>
      <trkpt lat="40.1680220" lon="-6.0982780">
        <ele>384.6</ele>
        <time>2021-10-16T09:35:27Z</time>
      </trkpt>
      <trkpt lat="40.1679990" lon="-6.0984000">
        <ele>385.6</ele>
        <time>2021-10-16T09:35:32Z</time>
      </trkpt>
      <trkpt lat="40.1679670" lon="-6.0984920">
        <ele>386.0</ele>
        <time>2021-10-16T09:35:36Z</time>
      </trkpt>
      <trkpt lat="40.1679220" lon="-6.0986050">
        <ele>386.8</ele>
        <time>2021-10-16T09:35:41Z</time>
      </trkpt>
      <trkpt lat="40.1678850" lon="-6.0986670">
        <ele>387.0</ele>
        <time>2021-10-16T09:35:44Z</time>
      </trkpt>
      <trkpt lat="40.1677900" lon="-6.0988500">
        <ele>388.0</ele>
        <time>2021-10-16T09:35:52Z</time>
      </trkpt>
      <trkpt lat="40.1677790" lon="-6.0988710">
        <ele>388.0</ele>
        <time>2021-10-16T09:35:53Z</time>
      </trkpt>
      <trkpt lat="40.1676940" lon="-6.0990080">
        <ele>388.4</ele>
        <time>2021-10-16T09:36:00Z</time>
      </trkpt>
      <trkpt lat="40.1676700" lon="-6.0990430">
        <ele>388.8</ele>
        <time>2021-10-16T09:36:02Z</time>
      </trkpt>
      <trkpt lat="40.1676470" lon="-6.0990850">
        <ele>389.0</ele>
        <time>2021-10-16T09:36:04Z</time>
      </trkpt>
      <trkpt lat="40.1676060" lon="-6.0991410">
        <ele>389.4</ele>
        <time>2021-10-16T09:36:07Z</time>
      </trkpt>
      <trkpt lat="40.1675510" lon="-6.0992130">
        <ele>389.4</ele>
        <time>2021-10-16T09:36:11Z</time>
      </trkpt>
      <trkpt lat="40.1674930" lon="-6.0993120">
        <ele>390.0</ele>
        <time>2021-10-16T09:36:16Z</time>
      </trkpt>
      <trkpt lat="40.1674500" lon="-6.0993950">
        <ele>390.4</ele>
        <time>2021-10-16T09:36:20Z</time>
      </trkpt>
      <trkpt lat="40.1673940" lon="-6.0995250">
        <ele>391.2</ele>
        <time>2021-10-16T09:36:26Z</time>
      </trkpt>
      <trkpt lat="40.1673260" lon="-6.0996410">
        <ele>391.8</ele>
        <time>2021-10-16T09:36:32Z</time>
      </trkpt>
      <trkpt lat="40.1672780" lon="-6.0997260">
        <ele>392.2</ele>
        <time>2021-10-16T09:36:36Z</time>
      </trkpt>
      <trkpt lat="40.1672130" lon="-6.0998250">
        <ele>392.8</ele>
        <time>2021-10-16T09:36:41Z</time>
      </trkpt>
      <trkpt lat="40.1672010" lon="-6.0998460">
        <ele>392.8</ele>
        <time>2021-10-16T09:36:42Z</time>
      </trkpt>
      <trkpt lat="40.1671560" lon="-6.0999240">
        <ele>393.2</ele>
        <time>2021-10-16T09:36:46Z</time>
      </trkpt>
      <trkpt lat="40.1671080" lon="-6.0999840">
        <ele>393.6</ele>
        <time>2021-10-16T09:36:49Z</time>
      </trkpt>
      <trkpt lat="40.1670380" lon="-6.1000740">
        <ele>394.4</ele>
        <time>2021-10-16T09:36:54Z</time>
      </trkpt>
      <trkpt lat="40.1670260" lon="-6.1001240">
        <ele>394.6</ele>
        <time>2021-10-16T09:36:56Z</time>
      </trkpt>
      <trkpt lat="40.1669610" lon="-6.1002500">
        <ele>395.4</ele>
        <time>2021-10-16T09:37:02Z</time>
      </trkpt>
      <trkpt lat="40.1669490" lon="-6.1002710">
        <ele>395.4</ele>
        <time>2021-10-16T09:37:03Z</time>
      </trkpt>
      <trkpt lat="40.1668890" lon="-6.1004050">
        <ele>396.0</ele>
        <time>2021-10-16T09:37:09Z</time>
      </trkpt>
      <trkpt lat="40.1668810" lon="-6.1004250">
        <ele>396.2</ele>
        <time>2021-10-16T09:37:10Z</time>
      </trkpt>
      <trkpt lat="40.1668550" lon="-6.1004650">
        <ele>396.4</ele>
        <time>2021-10-16T09:37:12Z</time>
      </trkpt>
      <trkpt lat="40.1668060" lon="-6.1005810">
        <ele>396.6</ele>
        <time>2021-10-16T09:37:17Z</time>
      </trkpt>
      <trkpt lat="40.1667710" lon="-6.1006480">
        <ele>397.0</ele>
        <time>2021-10-16T09:37:20Z</time>
      </trkpt>
      <trkpt lat="40.1667460" lon="-6.1006890">
        <ele>397.2</ele>
        <time>2021-10-16T09:37:22Z</time>
      </trkpt>
      <trkpt lat="40.1667330" lon="-6.1007070">
        <ele>397.2</ele>
        <time>2021-10-16T09:37:23Z</time>
      </trkpt>
      <trkpt lat="40.1666620" lon="-6.1008190">
        <ele>397.6</ele>
        <time>2021-10-16T09:37:29Z</time>
      </trkpt>
      <trkpt lat="40.1665810" lon="-6.1009180">
        <ele>397.8</ele>
        <time>2021-10-16T09:37:37Z</time>
      </trkpt>
      <trkpt lat="40.1665770" lon="-6.1009210">
        <ele>397.8</ele>
        <time>2021-10-16T09:37:39Z</time>
      </trkpt>
      <trkpt lat="40.1665750" lon="-6.1009220">
        <ele>397.8</ele>
        <time>2021-10-16T09:37:41Z</time>
      </trkpt>
      <trkpt lat="40.1664460" lon="-6.1012470">
        <ele>396.8</ele>
        <time>2021-10-16T09:59:42Z</time>
      </trkpt>
      <trkpt lat="40.1664360" lon="-6.1012730">
        <ele>396.8</ele>
        <time>2021-10-16T09:59:43Z</time>
      </trkpt>
      <trkpt lat="40.1664250" lon="-6.1013000">
        <ele>396.8</ele>
        <time>2021-10-16T09:59:44Z</time>
      </trkpt>
      <trkpt lat="40.1663910" lon="-6.1013590">
        <ele>397.0</ele>
        <time>2021-10-16T09:59:47Z</time>
      </trkpt>
      <trkpt lat="40.1663780" lon="-6.1013890">
        <ele>397.0</ele>
        <time>2021-10-16T09:59:49Z</time>
      </trkpt>
      <trkpt lat="40.1663660" lon="-6.1014200">
        <ele>397.0</ele>
        <time>2021-10-16T09:59:51Z</time>
      </trkpt>
      <trkpt lat="40.1663510" lon="-6.1014630">
        <ele>397.0</ele>
        <time>2021-10-16T09:59:54Z</time>
      </trkpt>
      <trkpt lat="40.1663380" lon="-6.1015050">
        <ele>397.0</ele>
        <time>2021-10-16T09:59:56Z</time>
      </trkpt>
      <trkpt lat="40.1663070" lon="-6.1015790">
        <ele>397.0</ele>
        <time>2021-10-16T09:59:59Z</time>
      </trkpt>
      <trkpt lat="40.1662760" lon="-6.1016840">
        <ele>397.0</ele>
        <time>2021-10-16T10:00:02Z</time>
      </trkpt>
      <trkpt lat="40.1662690" lon="-6.1017450">
        <ele>396.8</ele>
        <time>2021-10-16T10:00:04Z</time>
      </trkpt>
      <trkpt lat="40.1662660" lon="-6.1018770">
        <ele>396.6</ele>
        <time>2021-10-16T10:00:08Z</time>
      </trkpt>
      <trkpt lat="40.1662640" lon="-6.1019410">
        <ele>396.2</ele>
        <time>2021-10-16T10:00:10Z</time>
      </trkpt>
      <trkpt lat="40.1662580" lon="-6.1020220">
        <ele>395.6</ele>
        <time>2021-10-16T10:00:12Z</time>
      </trkpt>
      <trkpt lat="40.1661930" lon="-6.1021670">
        <ele>395.2</ele>
        <time>2021-10-16T10:00:16Z</time>
      </trkpt>
      <trkpt lat="40.1660730" lon="-6.1023600">
        <ele>394.6</ele>
        <time>2021-10-16T10:00:22Z</time>
      </trkpt>
      <trkpt lat="40.1660520" lon="-6.1023920">
        <ele>394.6</ele>
        <time>2021-10-16T10:00:23Z</time>
      </trkpt>
      <trkpt lat="40.1659220" lon="-6.1026220">
        <ele>393.8</ele>
        <time>2021-10-16T10:00:28Z</time>
      </trkpt>
      <trkpt lat="40.1659010" lon="-6.1026630">
        <ele>393.6</ele>
        <time>2021-10-16T10:00:29Z</time>
      </trkpt>
      <trkpt lat="40.1657120" lon="-6.1029630">
        <ele>393.0</ele>
        <time>2021-10-16T10:00:36Z</time>
      </trkpt>
      <trkpt lat="40.1656370" lon="-6.1030870">
        <ele>392.6</ele>
        <time>2021-10-16T10:00:39Z</time>
      </trkpt>
      <trkpt lat="40.1655710" lon="-6.1031880">
        <ele>392.2</ele>
        <time>2021-10-16T10:00:42Z</time>
      </trkpt>
      <trkpt lat="40.1654530" lon="-6.1033080">
        <ele>392.0</ele>
        <time>2021-10-16T10:00:47Z</time>
      </trkpt>
      <trkpt lat="40.1652360" lon="-6.1034380">
        <ele>392.0</ele>
        <time>2021-10-16T10:00:55Z</time>
      </trkpt>
      <trkpt lat="40.1651080" lon="-6.1035690">
        <ele>391.8</ele>
        <time>2021-10-16T10:01:00Z</time>
      </trkpt>
      <trkpt lat="40.1650280" lon="-6.1036750">
        <ele>391.8</ele>
        <time>2021-10-16T10:01:03Z</time>
      </trkpt>
      <trkpt lat="40.1649570" lon="-6.1038030">
        <ele>391.8</ele>
        <time>2021-10-16T10:01:07Z</time>
      </trkpt>
      <trkpt lat="40.1648430" lon="-6.1040010">
        <ele>391.8</ele>
        <time>2021-10-16T10:01:13Z</time>
      </trkpt>
      <trkpt lat="40.1646640" lon="-6.1043030">
        <ele>392.4</ele>
        <time>2021-10-16T10:01:23Z</time>
      </trkpt>
      <trkpt lat="40.1645770" lon="-6.1044550">
        <ele>392.4</ele>
        <time>2021-10-16T10:01:29Z</time>
      </trkpt>
      <trkpt lat="40.1644640" lon="-6.1046410">
        <ele>393.0</ele>
        <time>2021-10-16T10:01:35Z</time>
      </trkpt>
      <trkpt lat="40.1644060" lon="-6.1047670">
        <ele>393.8</ele>
        <time>2021-10-16T10:01:39Z</time>
      </trkpt>
      <trkpt lat="40.1643610" lon="-6.1048540">
        <ele>394.0</ele>
        <time>2021-10-16T10:01:42Z</time>
      </trkpt>
      <trkpt lat="40.1643250" lon="-6.1049100">
        <ele>394.2</ele>
        <time>2021-10-16T10:01:44Z</time>
      </trkpt>
      <trkpt lat="40.1642990" lon="-6.1049570">
        <ele>394.4</ele>
        <time>2021-10-16T10:01:46Z</time>
      </trkpt>
      <trkpt lat="40.1642630" lon="-6.1050360">
        <ele>394.8</ele>
        <time>2021-10-16T10:01:49Z</time>
      </trkpt>
      <trkpt lat="40.1642500" lon="-6.1050590">
        <ele>394.8</ele>
        <time>2021-10-16T10:01:50Z</time>
      </trkpt>
      <trkpt lat="40.1641980" lon="-6.1051810">
        <ele>395.2</ele>
        <time>2021-10-16T10:01:55Z</time>
      </trkpt>
      <trkpt lat="40.1641890" lon="-6.1052080">
        <ele>395.4</ele>
        <time>2021-10-16T10:01:56Z</time>
      </trkpt>
      <trkpt lat="40.1641380" lon="-6.1053100">
        <ele>395.8</ele>
        <time>2021-10-16T10:02:00Z</time>
      </trkpt>
      <trkpt lat="40.1640750" lon="-6.1054540">
        <ele>396.2</ele>
        <time>2021-10-16T10:02:05Z</time>
      </trkpt>
      <trkpt lat="40.1640150" lon="-6.1055550">
        <ele>396.4</ele>
        <time>2021-10-16T10:02:09Z</time>
      </trkpt>
      <trkpt lat="40.1639700" lon="-6.1056110">
        <ele>397.0</ele>
        <time>2021-10-16T10:02:12Z</time>
      </trkpt>
      <trkpt lat="40.1638870" lon="-6.1057120">
        <ele>397.8</ele>
        <time>2021-10-16T10:02:17Z</time>
      </trkpt>
      <trkpt lat="40.1638480" lon="-6.1057730">
        <ele>398.0</ele>
        <time>2021-10-16T10:02:20Z</time>
      </trkpt>
      <trkpt lat="40.1637880" lon="-6.1058910">
        <ele>398.6</ele>
        <time>2021-10-16T10:02:25Z</time>
      </trkpt>
      <trkpt lat="40.1637430" lon="-6.1059930">
        <ele>399.0</ele>
        <time>2021-10-16T10:02:29Z</time>
      </trkpt>
      <trkpt lat="40.1637330" lon="-6.1060160">
        <ele>399.0</ele>
        <time>2021-10-16T10:02:30Z</time>
      </trkpt>
      <trkpt lat="40.1637200" lon="-6.1060350">
        <ele>399.2</ele>
        <time>2021-10-16T10:02:31Z</time>
      </trkpt>
      <trkpt lat="40.1636660" lon="-6.1060950">
        <ele>399.6</ele>
        <time>2021-10-16T10:02:35Z</time>
      </trkpt>
      <trkpt lat="40.1636360" lon="-6.1061590">
        <ele>400.0</ele>
        <time>2021-10-16T10:02:38Z</time>
      </trkpt>
      <trkpt lat="40.1636080" lon="-6.1062330">
        <ele>400.2</ele>
        <time>2021-10-16T10:02:41Z</time>
      </trkpt>
      <trkpt lat="40.1635360" lon="-6.1063820">
        <ele>400.8</ele>
        <time>2021-10-16T10:02:47Z</time>
      </trkpt>
      <trkpt lat="40.1634530" lon="-6.1065050">
        <ele>401.0</ele>
        <time>2021-10-16T10:02:53Z</time>
      </trkpt>
      <trkpt lat="40.1634270" lon="-6.1065400">
        <ele>401.2</ele>
        <time>2021-10-16T10:02:55Z</time>
      </trkpt>
      <trkpt lat="40.1633500" lon="-6.1066400">
        <ele>401.6</ele>
        <time>2021-10-16T10:03:00Z</time>
      </trkpt>
      <trkpt lat="40.1633350" lon="-6.1066610">
        <ele>401.8</ele>
        <time>2021-10-16T10:03:01Z</time>
      </trkpt>
      <trkpt lat="40.1632660" lon="-6.1067200">
        <ele>402.0</ele>
        <time>2021-10-16T10:03:05Z</time>
      </trkpt>
      <trkpt lat="40.1632400" lon="-6.1067610">
        <ele>402.4</ele>
        <time>2021-10-16T10:03:07Z</time>
      </trkpt>
      <trkpt lat="40.1631590" lon="-6.1069270">
        <ele>403.2</ele>
        <time>2021-10-16T10:03:14Z</time>
      </trkpt>
      <trkpt lat="40.1631440" lon="-6.1069810">
        <ele>403.4</ele>
        <time>2021-10-16T10:03:16Z</time>
      </trkpt>
      <trkpt lat="40.1631120" lon="-6.1070780">
        <ele>403.8</ele>
        <time>2021-10-16T10:03:20Z</time>
      </trkpt>
      <trkpt lat="40.1630750" lon="-6.1071380">
        <ele>404.2</ele>
        <time>2021-10-16T10:03:23Z</time>
      </trkpt>
      <trkpt lat="40.1629800" lon="-6.1072760">
        <ele>405.2</ele>
        <time>2021-10-16T10:03:30Z</time>
      </trkpt>
      <trkpt lat="40.1629430" lon="-6.1073450">
        <ele>405.6</ele>
        <time>2021-10-16T10:03:33Z</time>
      </trkpt>
      <trkpt lat="40.1628840" lon="-6.1074490">
        <ele>406.0</ele>
        <time>2021-10-16T10:03:38Z</time>
      </trkpt>
      <trkpt lat="40.1628690" lon="-6.1074680">
        <ele>406.2</ele>
        <time>2021-10-16T10:03:39Z</time>
      </trkpt>
      <trkpt lat="40.1628370" lon="-6.1075110">
        <ele>406.2</ele>
        <time>2021-10-16T10:03:41Z</time>
      </trkpt>
      <trkpt lat="40.1628000" lon="-6.1075560">
        <ele>406.4</ele>
        <time>2021-10-16T10:03:43Z</time>
      </trkpt>
      <trkpt lat="40.1627460" lon="-6.1076100">
        <ele>406.6</ele>
        <time>2021-10-16T10:03:46Z</time>
      </trkpt>
      <trkpt lat="40.1627130" lon="-6.1076510">
        <ele>406.6</ele>
        <time>2021-10-16T10:03:48Z</time>
      </trkpt>
      <trkpt lat="40.1625890" lon="-6.1078300">
        <ele>407.2</ele>
        <time>2021-10-16T10:03:56Z</time>
      </trkpt>
      <trkpt lat="40.1625760" lon="-6.1078550">
        <ele>407.2</ele>
        <time>2021-10-16T10:03:57Z</time>
      </trkpt>
      <trkpt lat="40.1625640" lon="-6.1078810">
        <ele>407.4</ele>
        <time>2021-10-16T10:03:58Z</time>
      </trkpt>
      <trkpt lat="40.1625110" lon="-6.1081000">
        <ele>408.0</ele>
        <time>2021-10-16T10:04:05Z</time>
      </trkpt>
      <trkpt lat="40.1625000" lon="-6.1083390">
        <ele>408.4</ele>
        <time>2021-10-16T10:04:12Z</time>
      </trkpt>
      <trkpt lat="40.1625050" lon="-6.1085650">
        <ele>408.6</ele>
        <time>2021-10-16T10:04:18Z</time>
      </trkpt>
      <trkpt lat="40.1624990" lon="-6.1086680">
        <ele>408.6</ele>
        <time>2021-10-16T10:04:21Z</time>
      </trkpt>
      <trkpt lat="40.1624680" lon="-6.1090170">
        <ele>409.2</ele>
        <time>2021-10-16T10:04:31Z</time>
      </trkpt>
      <trkpt lat="40.1624210" lon="-6.1092510">
        <ele>409.4</ele>
        <time>2021-10-16T10:04:38Z</time>
      </trkpt>
      <trkpt lat="40.1624030" lon="-6.1093180">
        <ele>409.6</ele>
        <time>2021-10-16T10:04:40Z</time>
      </trkpt>
      <trkpt lat="40.1622800" lon="-6.1096460">
        <ele>410.2</ele>
        <time>2021-10-16T10:04:50Z</time>
      </trkpt>
      <trkpt lat="40.1621140" lon="-6.1099840">
        <ele>410.0</ele>
        <time>2021-10-16T10:04:59Z</time>
      </trkpt>
      <trkpt lat="40.1620440" lon="-6.1101000">
        <ele>410.0</ele>
        <time>2021-10-16T10:05:02Z</time>
      </trkpt>
      <trkpt lat="40.1619390" lon="-6.1102580">
        <ele>409.8</ele>
        <time>2021-10-16T10:05:06Z</time>
      </trkpt>
      <trkpt lat="40.1617210" lon="-6.1106120">
        <ele>409.6</ele>
        <time>2021-10-16T10:05:15Z</time>
      </trkpt>
      <trkpt lat="40.1615880" lon="-6.1107720">
        <ele>409.6</ele>
        <time>2021-10-16T10:05:20Z</time>
      </trkpt>
      <trkpt lat="40.1615310" lon="-6.1108260">
        <ele>409.6</ele>
        <time>2021-10-16T10:05:22Z</time>
      </trkpt>
      <trkpt lat="40.1612820" lon="-6.1110410">
        <ele>409.8</ele>
        <time>2021-10-16T10:05:30Z</time>
      </trkpt>
      <trkpt lat="40.1610310" lon="-6.1112070">
        <ele>410.2</ele>
        <time>2021-10-16T10:05:38Z</time>
      </trkpt>
      <trkpt lat="40.1609140" lon="-6.1112770">
        <ele>410.4</ele>
        <time>2021-10-16T10:05:42Z</time>
      </trkpt>
      <trkpt lat="40.1608060" lon="-6.1113420">
        <ele>411.0</ele>
        <time>2021-10-16T10:05:46Z</time>
      </trkpt>
      <trkpt lat="40.1606800" lon="-6.1114280">
        <ele>411.4</ele>
        <time>2021-10-16T10:05:51Z</time>
      </trkpt>
      <trkpt lat="40.1605950" lon="-6.1115030">
        <ele>412.0</ele>
        <time>2021-10-16T10:05:55Z</time>
      </trkpt>
      <trkpt lat="40.1605760" lon="-6.1115260">
        <ele>412.0</ele>
        <time>2021-10-16T10:05:56Z</time>
      </trkpt>
      <trkpt lat="40.1604950" lon="-6.1116060">
        <ele>412.6</ele>
        <time>2021-10-16T10:06:00Z</time>
      </trkpt>
      <trkpt lat="40.1604280" lon="-6.1116720">
        <ele>413.2</ele>
        <time>2021-10-16T10:06:04Z</time>
      </trkpt>
      <trkpt lat="40.1603810" lon="-6.1117330">
        <ele>413.4</ele>
        <time>2021-10-16T10:06:07Z</time>
      </trkpt>
      <trkpt lat="40.1603380" lon="-6.1117730">
        <ele>413.6</ele>
        <time>2021-10-16T10:06:09Z</time>
      </trkpt>
      <trkpt lat="40.1602630" lon="-6.1118700">
        <ele>413.8</ele>
        <time>2021-10-16T10:06:13Z</time>
      </trkpt>
      <trkpt lat="40.1601300" lon="-6.1120530">
        <ele>414.2</ele>
        <time>2021-10-16T10:06:20Z</time>
      </trkpt>
      <trkpt lat="40.1600020" lon="-6.1122400">
        <ele>414.6</ele>
        <time>2021-10-16T10:06:27Z</time>
      </trkpt>
      <trkpt lat="40.1599360" lon="-6.1123200">
        <ele>414.8</ele>
        <time>2021-10-16T10:06:30Z</time>
      </trkpt>
      <trkpt lat="40.1598600" lon="-6.1124360">
        <ele>415.0</ele>
        <time>2021-10-16T10:06:34Z</time>
      </trkpt>
      <trkpt lat="40.1597190" lon="-6.1126440">
        <ele>415.2</ele>
        <time>2021-10-16T10:06:41Z</time>
      </trkpt>
      <trkpt lat="40.1595810" lon="-6.1128900">
        <ele>415.8</ele>
        <time>2021-10-16T10:06:49Z</time>
      </trkpt>
      <trkpt lat="40.1595660" lon="-6.1129220">
        <ele>415.8</ele>
        <time>2021-10-16T10:06:50Z</time>
      </trkpt>
      <trkpt lat="40.1594950" lon="-6.1130470">
        <ele>416.2</ele>
        <time>2021-10-16T10:06:54Z</time>
      </trkpt>
      <trkpt lat="40.1594300" lon="-6.1131630">
        <ele>416.4</ele>
        <time>2021-10-16T10:06:58Z</time>
      </trkpt>
      <trkpt lat="40.1593670" lon="-6.1132570">
        <ele>416.8</ele>
        <time>2021-10-16T10:07:01Z</time>
      </trkpt>
      <trkpt lat="40.1592610" lon="-6.1134230">
        <ele>417.4</ele>
        <time>2021-10-16T10:07:07Z</time>
      </trkpt>
      <trkpt lat="40.1591790" lon="-6.1135580">
        <ele>417.8</ele>
        <time>2021-10-16T10:07:12Z</time>
      </trkpt>
      <trkpt lat="40.1591550" lon="-6.1135820">
        <ele>418.0</ele>
        <time>2021-10-16T10:07:13Z</time>
      </trkpt>
      <trkpt lat="40.1590450" lon="-6.1137210">
        <ele>418.2</ele>
        <time>2021-10-16T10:07:18Z</time>
      </trkpt>
      <trkpt lat="40.1589890" lon="-6.1138070">
        <ele>418.4</ele>
        <time>2021-10-16T10:07:21Z</time>
      </trkpt>
      <trkpt lat="40.1587850" lon="-6.1140910">
        <ele>418.8</ele>
        <time>2021-10-16T10:07:30Z</time>
      </trkpt>
      <trkpt lat="40.1587330" lon="-6.1141930">
        <ele>418.8</ele>
        <time>2021-10-16T10:07:33Z</time>
      </trkpt>
      <trkpt lat="40.1586530" lon="-6.1143630">
        <ele>419.0</ele>
        <time>2021-10-16T10:07:38Z</time>
      </trkpt>
      <trkpt lat="40.1584840" lon="-6.1146650">
        <ele>419.4</ele>
        <time>2021-10-16T10:07:47Z</time>
      </trkpt>
      <trkpt lat="40.1583840" lon="-6.1148210">
        <ele>419.6</ele>
        <time>2021-10-16T10:07:52Z</time>
      </trkpt>
      <trkpt lat="40.1583660" lon="-6.1148530">
        <ele>419.6</ele>
        <time>2021-10-16T10:07:53Z</time>
      </trkpt>
      <trkpt lat="40.1582230" lon="-6.1150500">
        <ele>420.0</ele>
        <time>2021-10-16T10:08:00Z</time>
      </trkpt>
      <trkpt lat="40.1582040" lon="-6.1150770">
        <ele>420.2</ele>
        <time>2021-10-16T10:08:01Z</time>
      </trkpt>
      <trkpt lat="40.1580570" lon="-6.1153220">
        <ele>420.4</ele>
        <time>2021-10-16T10:08:09Z</time>
      </trkpt>
      <trkpt lat="40.1579280" lon="-6.1154900">
        <ele>420.8</ele>
        <time>2021-10-16T10:08:15Z</time>
      </trkpt>
      <trkpt lat="40.1578540" lon="-6.1156070">
        <ele>421.0</ele>
        <time>2021-10-16T10:08:19Z</time>
      </trkpt>
      <trkpt lat="40.1577670" lon="-6.1157090">
        <ele>421.2</ele>
        <time>2021-10-16T10:08:23Z</time>
      </trkpt>
      <trkpt lat="40.1576530" lon="-6.1158250">
        <ele>421.8</ele>
        <time>2021-10-16T10:08:28Z</time>
      </trkpt>
      <trkpt lat="40.1576090" lon="-6.1158800">
        <ele>422.0</ele>
        <time>2021-10-16T10:08:30Z</time>
      </trkpt>
      <trkpt lat="40.1575460" lon="-6.1159610">
        <ele>422.2</ele>
        <time>2021-10-16T10:08:33Z</time>
      </trkpt>
      <trkpt lat="40.1574770" lon="-6.1160510">
        <ele>422.4</ele>
        <time>2021-10-16T10:08:36Z</time>
      </trkpt>
      <trkpt lat="40.1574170" lon="-6.1161410">
        <ele>422.2</ele>
        <time>2021-10-16T10:08:39Z</time>
      </trkpt>
      <trkpt lat="40.1572470" lon="-6.1163970">
        <ele>422.2</ele>
        <time>2021-10-16T10:08:48Z</time>
      </trkpt>
      <trkpt lat="40.1572340" lon="-6.1164140">
        <ele>422.2</ele>
        <time>2021-10-16T10:08:51Z</time>
      </trkpt>
      <trkpt lat="40.1572040" lon="-6.1164840">
        <ele>422.0</ele>
        <time>2021-10-16T10:10:24Z</time>
      </trkpt>
      <trkpt lat="40.1571660" lon="-6.1165670">
        <ele>421.8</ele>
        <time>2021-10-16T10:10:29Z</time>
      </trkpt>
      <trkpt lat="40.1571510" lon="-6.1166570">
        <ele>421.8</ele>
        <time>2021-10-16T10:10:36Z</time>
      </trkpt>
      <trkpt lat="40.1571200" lon="-6.1167160">
        <ele>421.8</ele>
        <time>2021-10-16T10:10:38Z</time>
      </trkpt>
      <trkpt lat="40.1570230" lon="-6.1168730">
        <ele>421.8</ele>
        <time>2021-10-16T10:10:43Z</time>
      </trkpt>
      <trkpt lat="40.1570030" lon="-6.1169140">
        <ele>421.8</ele>
        <time>2021-10-16T10:10:44Z</time>
      </trkpt>
      <trkpt lat="40.1568440" lon="-6.1171570">
        <ele>421.8</ele>
        <time>2021-10-16T10:10:50Z</time>
      </trkpt>
      <trkpt lat="40.1567280" lon="-6.1173420">
        <ele>421.6</ele>
        <time>2021-10-16T10:10:54Z</time>
      </trkpt>
      <trkpt lat="40.1566510" lon="-6.1174900">
        <ele>421.6</ele>
        <time>2021-10-16T10:10:57Z</time>
      </trkpt>
      <trkpt lat="40.1565490" lon="-6.1176950">
        <ele>421.4</ele>
        <time>2021-10-16T10:11:01Z</time>
      </trkpt>
      <trkpt lat="40.1564760" lon="-6.1177680">
        <ele>421.2</ele>
        <time>2021-10-16T10:11:03Z</time>
      </trkpt>
      <trkpt lat="40.1562610" lon="-6.1178790">
        <ele>421.0</ele>
        <time>2021-10-16T10:11:08Z</time>
      </trkpt>
      <trkpt lat="40.1562010" lon="-6.1179510">
        <ele>421.0</ele>
        <time>2021-10-16T10:11:10Z</time>
      </trkpt>
      <trkpt lat="40.1561560" lon="-6.1180500">
        <ele>421.0</ele>
        <time>2021-10-16T10:11:12Z</time>
      </trkpt>
      <trkpt lat="40.1560700" lon="-6.1182770">
        <ele>421.2</ele>
        <time>2021-10-16T10:11:16Z</time>
      </trkpt>
      <trkpt lat="40.1560220" lon="-6.1183860">
        <ele>421.2</ele>
        <time>2021-10-16T10:11:18Z</time>
      </trkpt>
      <trkpt lat="40.1560040" lon="-6.1184460">
        <ele>421.2</ele>
        <time>2021-10-16T10:11:19Z</time>
      </trkpt>
      <trkpt lat="40.1559940" lon="-6.1185030">
        <ele>421.2</ele>
        <time>2021-10-16T10:11:20Z</time>
      </trkpt>
      <trkpt lat="40.1559660" lon="-6.1186600">
        <ele>421.2</ele>
        <time>2021-10-16T10:11:23Z</time>
      </trkpt>
      <trkpt lat="40.1559350" lon="-6.1187510">
        <ele>421.0</ele>
        <time>2021-10-16T10:11:25Z</time>
      </trkpt>
      <trkpt lat="40.1558410" lon="-6.1189970">
        <ele>421.2</ele>
        <time>2021-10-16T10:11:31Z</time>
      </trkpt>
      <trkpt lat="40.1558290" lon="-6.1191880">
        <ele>421.0</ele>
        <time>2021-10-16T10:11:36Z</time>
      </trkpt>
      <trkpt lat="40.1558240" lon="-6.1192010">
        <ele>420.8</ele>
        <time>2021-10-16T10:11:39Z</time>
      </trkpt>
      <trkpt lat="40.1557930" lon="-6.1192190">
        <ele>420.4</ele>
        <time>2021-10-16T10:12:39Z</time>
      </trkpt>
      <trkpt lat="40.1557070" lon="-6.1192490">
        <ele>420.0</ele>
        <time>2021-10-16T10:12:43Z</time>
      </trkpt>
      <trkpt lat="40.1556830" lon="-6.1192560">
        <ele>420.0</ele>
        <time>2021-10-16T10:12:44Z</time>
      </trkpt>
      <trkpt lat="40.1555540" lon="-6.1192980">
        <ele>420.0</ele>
        <time>2021-10-16T10:12:50Z</time>
      </trkpt>
      <trkpt lat="40.1553620" lon="-6.1194970">
        <ele>419.8</ele>
        <time>2021-10-16T10:12:58Z</time>
      </trkpt>
      <trkpt lat="40.1551640" lon="-6.1198050">
        <ele>419.2</ele>
        <time>2021-10-16T10:13:06Z</time>
      </trkpt>
      <trkpt lat="40.1551100" lon="-6.1198870">
        <ele>419.0</ele>
        <time>2021-10-16T10:13:08Z</time>
      </trkpt>
      <trkpt lat="40.1548610" lon="-6.1202580">
        <ele>418.4</ele>
        <time>2021-10-16T10:13:16Z</time>
      </trkpt>
      <trkpt lat="40.1548270" lon="-6.1203050">
        <ele>418.0</ele>
        <time>2021-10-16T10:13:17Z</time>
      </trkpt>
      <trkpt lat="40.1547920" lon="-6.1203510">
        <ele>418.0</ele>
        <time>2021-10-16T10:13:18Z</time>
      </trkpt>
      <trkpt lat="40.1546380" lon="-6.1205130">
        <ele>416.8</ele>
        <time>2021-10-16T10:13:22Z</time>
      </trkpt>
      <trkpt lat="40.1545690" lon="-6.1205970">
        <ele>416.4</ele>
        <time>2021-10-16T10:13:24Z</time>
      </trkpt>
      <trkpt lat="40.1545220" lon="-6.1206930">
        <ele>416.2</ele>
        <time>2021-10-16T10:13:26Z</time>
      </trkpt>
      <trkpt lat="40.1545030" lon="-6.1207650">
        <ele>416.2</ele>
        <time>2021-10-16T10:13:27Z</time>
      </trkpt>
      <trkpt lat="40.1544640" lon="-6.1209740">
        <ele>415.8</ele>
        <time>2021-10-16T10:13:31Z</time>
      </trkpt>
      <trkpt lat="40.1544360" lon="-6.1210540">
        <ele>414.8</ele>
        <time>2021-10-16T10:13:33Z</time>
      </trkpt>
      <trkpt lat="40.1543890" lon="-6.1211330">
        <ele>414.8</ele>
        <time>2021-10-16T10:13:35Z</time>
      </trkpt>
      <trkpt lat="40.1543190" lon="-6.1212700">
        <ele>414.2</ele>
        <time>2021-10-16T10:13:38Z</time>
      </trkpt>
      <trkpt lat="40.1542460" lon="-6.1214150">
        <ele>414.2</ele>
        <time>2021-10-16T10:13:41Z</time>
      </trkpt>
      <trkpt lat="40.1541860" lon="-6.1215230">
        <ele>414.0</ele>
        <time>2021-10-16T10:13:43Z</time>
      </trkpt>
      <trkpt lat="40.1541680" lon="-6.1215670">
        <ele>413.8</ele>
        <time>2021-10-16T10:13:44Z</time>
      </trkpt>
      <trkpt lat="40.1540910" lon="-6.1217840">
        <ele>413.6</ele>
        <time>2021-10-16T10:13:48Z</time>
      </trkpt>
      <trkpt lat="40.1540610" lon="-6.1218890">
        <ele>413.6</ele>
        <time>2021-10-16T10:13:50Z</time>
      </trkpt>
      <trkpt lat="40.1540430" lon="-6.1219420">
        <ele>413.6</ele>
        <time>2021-10-16T10:13:51Z</time>
      </trkpt>
      <trkpt lat="40.1538870" lon="-6.1222930">
        <ele>413.4</ele>
        <time>2021-10-16T10:13:58Z</time>
      </trkpt>
      <trkpt lat="40.1538150" lon="-6.1224240">
        <ele>413.2</ele>
        <time>2021-10-16T10:14:01Z</time>
      </trkpt>
      <trkpt lat="40.1537320" lon="-6.1225840">
        <ele>412.8</ele>
        <time>2021-10-16T10:14:05Z</time>
      </trkpt>
      <trkpt lat="40.1537120" lon="-6.1226300">
        <ele>412.8</ele>
        <time>2021-10-16T10:14:06Z</time>
      </trkpt>
      <trkpt lat="40.1536000" lon="-6.1228950">
        <ele>412.4</ele>
        <time>2021-10-16T10:14:12Z</time>
      </trkpt>
      <trkpt lat="40.1535830" lon="-6.1229200">
        <ele>412.4</ele>
        <time>2021-10-16T10:14:13Z</time>
      </trkpt>
      <trkpt lat="40.1535510" lon="-6.1229580">
        <ele>411.8</ele>
        <time>2021-10-16T10:14:17Z</time>
      </trkpt>
      <trkpt lat="40.1535140" lon="-6.1230190">
        <ele>411.2</ele>
        <time>2021-10-16T10:14:28Z</time>
      </trkpt>
      <trkpt lat="40.1534720" lon="-6.1230780">
        <ele>411.0</ele>
        <time>2021-10-16T10:14:31Z</time>
      </trkpt>
      <trkpt lat="40.1534010" lon="-6.1231610">
        <ele>410.6</ele>
        <time>2021-10-16T10:14:35Z</time>
      </trkpt>
      <trkpt lat="40.1532660" lon="-6.1233290">
        <ele>410.2</ele>
        <time>2021-10-16T10:14:41Z</time>
      </trkpt>
      <trkpt lat="40.1531670" lon="-6.1234900">
        <ele>409.6</ele>
        <time>2021-10-16T10:14:45Z</time>
      </trkpt>
      <trkpt lat="40.1531060" lon="-6.1235510">
        <ele>409.4</ele>
        <time>2021-10-16T10:14:47Z</time>
      </trkpt>
      <trkpt lat="40.1529830" lon="-6.1236280">
        <ele>408.8</ele>
        <time>2021-10-16T10:14:50Z</time>
      </trkpt>
      <trkpt lat="40.1529070" lon="-6.1237000">
        <ele>408.6</ele>
        <time>2021-10-16T10:14:52Z</time>
      </trkpt>
      <trkpt lat="40.1528630" lon="-6.1237320">
        <ele>408.4</ele>
        <time>2021-10-16T10:14:53Z</time>
      </trkpt>
      <trkpt lat="40.1527680" lon="-6.1237720">
        <ele>407.6</ele>
        <time>2021-10-16T10:14:55Z</time>
      </trkpt>
      <trkpt lat="40.1527190" lon="-6.1237950">
        <ele>407.0</ele>
        <time>2021-10-16T10:14:56Z</time>
      </trkpt>
      <trkpt lat="40.1526710" lon="-6.1238230">
        <ele>406.6</ele>
        <time>2021-10-16T10:14:57Z</time>
      </trkpt>
      <trkpt lat="40.1526040" lon="-6.1239110">
        <ele>406.2</ele>
        <time>2021-10-16T10:14:59Z</time>
      </trkpt>
      <trkpt lat="40.1525770" lon="-6.1239640">
        <ele>406.0</ele>
        <time>2021-10-16T10:15:00Z</time>
      </trkpt>
      <trkpt lat="40.1525200" lon="-6.1240730">
        <ele>405.8</ele>
        <time>2021-10-16T10:15:02Z</time>
      </trkpt>
      <trkpt lat="40.1524840" lon="-6.1241210">
        <ele>405.6</ele>
        <time>2021-10-16T10:15:03Z</time>
      </trkpt>
      <trkpt lat="40.1524060" lon="-6.1241990">
        <ele>405.0</ele>
        <time>2021-10-16T10:15:05Z</time>
      </trkpt>
      <trkpt lat="40.1523490" lon="-6.1242910">
        <ele>404.8</ele>
        <time>2021-10-16T10:15:07Z</time>
      </trkpt>
      <trkpt lat="40.1522990" lon="-6.1243890">
        <ele>404.8</ele>
        <time>2021-10-16T10:15:09Z</time>
      </trkpt>
      <trkpt lat="40.1522260" lon="-6.1244600">
        <ele>404.4</ele>
        <time>2021-10-16T10:15:11Z</time>
      </trkpt>
      <trkpt lat="40.1521120" lon="-6.1245470">
        <ele>403.8</ele>
        <time>2021-10-16T10:15:14Z</time>
      </trkpt>
      <trkpt lat="40.1520760" lon="-6.1245820">
        <ele>403.8</ele>
        <time>2021-10-16T10:15:15Z</time>
      </trkpt>
      <trkpt lat="40.1520050" lon="-6.1246550">
        <ele>403.2</ele>
        <time>2021-10-16T10:15:17Z</time>
      </trkpt>
      <trkpt lat="40.1518380" lon="-6.1248720">
        <ele>402.8</ele>
        <time>2021-10-16T10:15:23Z</time>
      </trkpt>
      <trkpt lat="40.1516440" lon="-6.1251060">
        <ele>402.4</ele>
        <time>2021-10-16T10:15:29Z</time>
      </trkpt>
      <trkpt lat="40.1515620" lon="-6.1252300">
        <ele>402.2</ele>
        <time>2021-10-16T10:15:32Z</time>
      </trkpt>
      <trkpt lat="40.1513670" lon="-6.1255310">
        <ele>401.6</ele>
        <time>2021-10-16T10:15:40Z</time>
      </trkpt>
      <trkpt lat="40.1512200" lon="-6.1257630">
        <ele>401.4</ele>
        <time>2021-10-16T10:15:46Z</time>
      </trkpt>
      <trkpt lat="40.1511720" lon="-6.1258410">
        <ele>401.2</ele>
        <time>2021-10-16T10:15:48Z</time>
      </trkpt>
      <trkpt lat="40.1510490" lon="-6.1260540">
        <ele>401.0</ele>
        <time>2021-10-16T10:15:53Z</time>
      </trkpt>
      <trkpt lat="40.1509020" lon="-6.1262570">
        <ele>400.8</ele>
        <time>2021-10-16T10:15:59Z</time>
      </trkpt>
      <trkpt lat="40.1507910" lon="-6.1264780">
        <ele>400.8</ele>
        <time>2021-10-16T10:16:04Z</time>
      </trkpt>
      <trkpt lat="40.1505930" lon="-6.1267510">
        <ele>400.6</ele>
        <time>2021-10-16T10:16:11Z</time>
      </trkpt>
      <trkpt lat="40.1505190" lon="-6.1268720">
        <ele>400.0</ele>
        <time>2021-10-16T10:16:14Z</time>
      </trkpt>
      <trkpt lat="40.1504420" lon="-6.1270010">
        <ele>399.8</ele>
        <time>2021-10-16T10:16:17Z</time>
      </trkpt>
      <trkpt lat="40.1504080" lon="-6.1271160">
        <ele>399.6</ele>
        <time>2021-10-16T10:16:19Z</time>
      </trkpt>
      <trkpt lat="40.1503610" lon="-6.1272090">
        <ele>399.6</ele>
        <time>2021-10-16T10:16:21Z</time>
      </trkpt>
      <trkpt lat="40.1503330" lon="-6.1272550">
        <ele>399.6</ele>
        <time>2021-10-16T10:16:22Z</time>
      </trkpt>
      <trkpt lat="40.1502140" lon="-6.1274160">
        <ele>399.2</ele>
        <time>2021-10-16T10:16:26Z</time>
      </trkpt>
      <trkpt lat="40.1501520" lon="-6.1274600">
        <ele>399.2</ele>
        <time>2021-10-16T10:16:28Z</time>
      </trkpt>
      <trkpt lat="40.1501290" lon="-6.1274870">
        <ele>399.0</ele>
        <time>2021-10-16T10:16:29Z</time>
      </trkpt>
      <trkpt lat="40.1499640" lon="-6.1277160">
        <ele>398.8</ele>
        <time>2021-10-16T10:16:35Z</time>
      </trkpt>
      <trkpt lat="40.1498960" lon="-6.1278520">
        <ele>398.4</ele>
        <time>2021-10-16T10:16:38Z</time>
      </trkpt>
      <trkpt lat="40.1498560" lon="-6.1279640">
        <ele>398.4</ele>
        <time>2021-10-16T10:16:40Z</time>
      </trkpt>
      <trkpt lat="40.1498320" lon="-6.1280080">
        <ele>398.4</ele>
        <time>2021-10-16T10:16:41Z</time>
      </trkpt>
      <trkpt lat="40.1496320" lon="-6.1283100">
        <ele>398.0</ele>
        <time>2021-10-16T10:16:49Z</time>
      </trkpt>
      <trkpt lat="40.1496140" lon="-6.1283500">
        <ele>398.0</ele>
        <time>2021-10-16T10:16:50Z</time>
      </trkpt>
      <trkpt lat="40.1495630" lon="-6.1284880">
        <ele>397.6</ele>
        <time>2021-10-16T10:16:53Z</time>
      </trkpt>
      <trkpt lat="40.1495020" lon="-6.1286140">
        <ele>397.2</ele>
        <time>2021-10-16T10:16:56Z</time>
      </trkpt>
      <trkpt lat="40.1493350" lon="-6.1288470">
        <ele>397.0</ele>
        <time>2021-10-16T10:17:03Z</time>
      </trkpt>
      <trkpt lat="40.1491970" lon="-6.1289860">
        <ele>397.2</ele>
        <time>2021-10-16T10:17:09Z</time>
      </trkpt>
      <trkpt lat="40.1491740" lon="-6.1290120">
        <ele>397.4</ele>
        <time>2021-10-16T10:17:10Z</time>
      </trkpt>
      <trkpt lat="40.1490300" lon="-6.1292490">
        <ele>398.2</ele>
        <time>2021-10-16T10:17:17Z</time>
      </trkpt>
      <trkpt lat="40.1489640" lon="-6.1293780">
        <ele>398.4</ele>
        <time>2021-10-16T10:17:21Z</time>
      </trkpt>
      <trkpt lat="40.1489300" lon="-6.1294470">
        <ele>398.4</ele>
        <time>2021-10-16T10:17:23Z</time>
      </trkpt>
      <trkpt lat="40.1488810" lon="-6.1295110">
        <ele>398.6</ele>
        <time>2021-10-16T10:17:25Z</time>
      </trkpt>
      <trkpt lat="40.1488590" lon="-6.1295380">
        <ele>398.6</ele>
        <time>2021-10-16T10:17:26Z</time>
      </trkpt>
      <trkpt lat="40.1487890" lon="-6.1296440">
        <ele>398.8</ele>
        <time>2021-10-16T10:17:29Z</time>
      </trkpt>
      <trkpt lat="40.1487040" lon="-6.1297910">
        <ele>399.0</ele>
        <time>2021-10-16T10:17:34Z</time>
      </trkpt>
      <trkpt lat="40.1486830" lon="-6.1298220">
        <ele>399.0</ele>
        <time>2021-10-16T10:17:35Z</time>
      </trkpt>
      <trkpt lat="40.1486150" lon="-6.1299120">
        <ele>399.0</ele>
        <time>2021-10-16T10:17:38Z</time>
      </trkpt>
      <trkpt lat="40.1485140" lon="-6.1300870">
        <ele>399.4</ele>
        <time>2021-10-16T10:17:42Z</time>
      </trkpt>
      <trkpt lat="40.1484610" lon="-6.1302080">
        <ele>399.6</ele>
        <time>2021-10-16T10:17:46Z</time>
      </trkpt>
      <trkpt lat="40.1484200" lon="-6.1302850">
        <ele>399.8</ele>
        <time>2021-10-16T10:17:47Z</time>
      </trkpt>
      <trkpt lat="40.1483950" lon="-6.1303200">
        <ele>399.8</ele>
        <time>2021-10-16T10:17:48Z</time>
      </trkpt>
      <trkpt lat="40.1481950" lon="-6.1305920">
        <ele>400.6</ele>
        <time>2021-10-16T10:17:57Z</time>
      </trkpt>
      <trkpt lat="40.1481950" lon="-6.1305920">
        <ele>401.0</ele>
        <time>2021-10-16T10:17:58Z</time>
      </trkpt>
      <trkpt lat="40.1480910" lon="-6.1307590">
        <ele>401.4</ele>
        <time>2021-10-16T10:18:03Z</time>
      </trkpt>
      <trkpt lat="40.1479930" lon="-6.1309240">
        <ele>401.6</ele>
        <time>2021-10-16T10:18:06Z</time>
      </trkpt>
      <trkpt lat="40.1478350" lon="-6.1311450">
        <ele>401.4</ele>
        <time>2021-10-16T10:18:11Z</time>
      </trkpt>
      <trkpt lat="40.1478350" lon="-6.1311450">
        <ele>401.4</ele>
        <time>2021-10-16T10:18:12Z</time>
      </trkpt>
      <trkpt lat="40.1477410" lon="-6.1312650">
        <ele>401.2</ele>
        <time>2021-10-16T10:18:14Z</time>
      </trkpt>
      <trkpt lat="40.1477160" lon="-6.1313050">
        <ele>401.0</ele>
        <time>2021-10-16T10:18:15Z</time>
      </trkpt>
      <trkpt lat="40.1476650" lon="-6.1313900">
        <ele>400.6</ele>
        <time>2021-10-16T10:18:18Z</time>
      </trkpt>
      <trkpt lat="40.1474700" lon="-6.1317390">
        <ele>400.2</ele>
        <time>2021-10-16T10:18:25Z</time>
      </trkpt>
      <trkpt lat="40.1474440" lon="-6.1317850">
        <ele>399.8</ele>
        <time>2021-10-16T10:18:27Z</time>
      </trkpt>
      <trkpt lat="40.1473930" lon="-6.1318730">
        <ele>399.8</ele>
        <time>2021-10-16T10:18:28Z</time>
      </trkpt>
      <trkpt lat="40.1472770" lon="-6.1320790">
        <ele>399.8</ele>
        <time>2021-10-16T10:18:33Z</time>
      </trkpt>
      <trkpt lat="40.1471340" lon="-6.1323060">
        <ele>399.8</ele>
        <time>2021-10-16T10:18:40Z</time>
      </trkpt>
      <trkpt lat="40.1470610" lon="-6.1324380">
        <ele>400.0</ele>
        <time>2021-10-16T10:18:42Z</time>
      </trkpt>
      <trkpt lat="40.1468750" lon="-6.1327380">
        <ele>400.2</ele>
        <time>2021-10-16T10:18:49Z</time>
      </trkpt>
      <trkpt lat="40.1468460" lon="-6.1327930">
        <ele>400.2</ele>
        <time>2021-10-16T10:18:50Z</time>
      </trkpt>
      <trkpt lat="40.1468270" lon="-6.1328310">
        <ele>400.2</ele>
        <time>2021-10-16T10:18:51Z</time>
      </trkpt>
      <trkpt lat="40.1467040" lon="-6.1330230">
        <ele>400.2</ele>
        <time>2021-10-16T10:18:56Z</time>
      </trkpt>
      <trkpt lat="40.1466280" lon="-6.1331320">
        <ele>400.4</ele>
        <time>2021-10-16T10:18:59Z</time>
      </trkpt>
      <trkpt lat="40.1465060" lon="-6.1333510">
        <ele>400.4</ele>
        <time>2021-10-16T10:19:04Z</time>
      </trkpt>
      <trkpt lat="40.1464200" lon="-6.1334680">
        <ele>400.4</ele>
        <time>2021-10-16T10:19:07Z</time>
      </trkpt>
      <trkpt lat="40.1462460" lon="-6.1337170">
        <ele>400.6</ele>
        <time>2021-10-16T10:19:14Z</time>
      </trkpt>
      <trkpt lat="40.1462000" lon="-6.1337910">
        <ele>400.6</ele>
        <time>2021-10-16T10:19:16Z</time>
      </trkpt>
      <trkpt lat="40.1461480" lon="-6.1338690">
        <ele>400.8</ele>
        <time>2021-10-16T10:19:18Z</time>
      </trkpt>
      <trkpt lat="40.1461060" lon="-6.1339800">
        <ele>400.8</ele>
        <time>2021-10-16T10:19:22Z</time>
      </trkpt>
      <trkpt lat="40.1459570" lon="-6.1341700">
        <ele>400.8</ele>
        <time>2021-10-16T10:19:27Z</time>
      </trkpt>
      <trkpt lat="40.1457690" lon="-6.1344280">
        <ele>400.6</ele>
        <time>2021-10-16T10:19:35Z</time>
      </trkpt>
      <trkpt lat="40.1456330" lon="-6.1346500">
        <ele>401.0</ele>
        <time>2021-10-16T10:19:41Z</time>
      </trkpt>
      <trkpt lat="40.1455630" lon="-6.1347590">
        <ele>401.0</ele>
        <time>2021-10-16T10:19:44Z</time>
      </trkpt>
      <trkpt lat="40.1453380" lon="-6.1350760">
        <ele>401.8</ele>
        <time>2021-10-16T10:19:54Z</time>
      </trkpt>
      <trkpt lat="40.1453150" lon="-6.1351040">
        <ele>402.0</ele>
        <time>2021-10-16T10:19:55Z</time>
      </trkpt>
      <trkpt lat="40.1452090" lon="-6.1353080">
        <ele>402.4</ele>
        <time>2021-10-16T10:20:01Z</time>
      </trkpt>
      <trkpt lat="40.1450900" lon="-6.1355170">
        <ele>402.8</ele>
        <time>2021-10-16T10:20:07Z</time>
      </trkpt>
      <trkpt lat="40.1450500" lon="-6.1355850">
        <ele>403.0</ele>
        <time>2021-10-16T10:20:09Z</time>
      </trkpt>
      <trkpt lat="40.1450110" lon="-6.1356540">
        <ele>403.0</ele>
        <time>2021-10-16T10:20:11Z</time>
      </trkpt>
      <trkpt lat="40.1449910" lon="-6.1356880">
        <ele>403.0</ele>
        <time>2021-10-16T10:20:12Z</time>
      </trkpt>
      <trkpt lat="40.1449120" lon="-6.1358250">
        <ele>403.2</ele>
        <time>2021-10-16T10:20:16Z</time>
      </trkpt>
      <trkpt lat="40.1447710" lon="-6.1360210">
        <ele>403.4</ele>
        <time>2021-10-16T10:20:22Z</time>
      </trkpt>
      <trkpt lat="40.1446610" lon="-6.1361760">
        <ele>403.6</ele>
        <time>2021-10-16T10:20:27Z</time>
      </trkpt>
      <trkpt lat="40.1446400" lon="-6.1362090">
        <ele>403.6</ele>
        <time>2021-10-16T10:20:28Z</time>
      </trkpt>
      <trkpt lat="40.1445490" lon="-6.1363660">
        <ele>403.8</ele>
        <time>2021-10-16T10:20:33Z</time>
      </trkpt>
      <trkpt lat="40.1445060" lon="-6.1364310">
        <ele>404.0</ele>
        <time>2021-10-16T10:20:35Z</time>
      </trkpt>
      <trkpt lat="40.1443940" lon="-6.1366020">
        <ele>404.2</ele>
        <time>2021-10-16T10:20:40Z</time>
      </trkpt>
      <trkpt lat="40.1443510" lon="-6.1366650">
        <ele>404.4</ele>
        <time>2021-10-16T10:20:42Z</time>
      </trkpt>
      <trkpt lat="40.1443050" lon="-6.1367640">
        <ele>404.4</ele>
        <time>2021-10-16T10:20:45Z</time>
      </trkpt>
      <trkpt lat="40.1442540" lon="-6.1368700">
        <ele>404.4</ele>
        <time>2021-10-16T10:20:48Z</time>
      </trkpt>
      <trkpt lat="40.1442310" lon="-6.1369020">
        <ele>404.4</ele>
        <time>2021-10-16T10:20:49Z</time>
      </trkpt>
      <trkpt lat="40.1441350" lon="-6.1370700">
        <ele>404.6</ele>
        <time>2021-10-16T10:20:54Z</time>
      </trkpt>
      <trkpt lat="40.1440090" lon="-6.1372410">
        <ele>405.0</ele>
        <time>2021-10-16T10:20:59Z</time>
      </trkpt>
      <trkpt lat="40.1439270" lon="-6.1373450">
        <ele>405.2</ele>
        <time>2021-10-16T10:21:02Z</time>
      </trkpt>
      <trkpt lat="40.1437830" lon="-6.1375580">
        <ele>405.2</ele>
        <time>2021-10-16T10:21:08Z</time>
      </trkpt>
      <trkpt lat="40.1437380" lon="-6.1376350">
        <ele>405.4</ele>
        <time>2021-10-16T10:21:10Z</time>
      </trkpt>
      <trkpt lat="40.1435440" lon="-6.1379670">
        <ele>405.6</ele>
        <time>2021-10-16T10:21:19Z</time>
      </trkpt>
      <trkpt lat="40.1433270" lon="-6.1382550">
        <ele>405.6</ele>
        <time>2021-10-16T10:21:27Z</time>
      </trkpt>
      <trkpt lat="40.1432260" lon="-6.1383990">
        <ele>405.6</ele>
        <time>2021-10-16T10:21:31Z</time>
      </trkpt>
      <trkpt lat="40.1431010" lon="-6.1386010">
        <ele>405.8</ele>
        <time>2021-10-16T10:21:36Z</time>
      </trkpt>
      <trkpt lat="40.1428420" lon="-6.1390460">
        <ele>405.2</ele>
        <time>2021-10-16T10:21:46Z</time>
      </trkpt>
      <trkpt lat="40.1426380" lon="-6.1393600">
        <ele>405.0</ele>
        <time>2021-10-16T10:21:53Z</time>
      </trkpt>
      <trkpt lat="40.1426180" lon="-6.1393860">
        <ele>405.0</ele>
        <time>2021-10-16T10:21:54Z</time>
      </trkpt>
      <trkpt lat="40.1424930" lon="-6.1395350">
        <ele>404.6</ele>
        <time>2021-10-16T10:21:58Z</time>
      </trkpt>
      <trkpt lat="40.1423930" lon="-6.1397110">
        <ele>404.6</ele>
        <time>2021-10-16T10:22:02Z</time>
      </trkpt>
      <trkpt lat="40.1423680" lon="-6.1397510">
        <ele>404.6</ele>
        <time>2021-10-16T10:22:03Z</time>
      </trkpt>
      <trkpt lat="40.1422470" lon="-6.1399250">
        <ele>404.4</ele>
        <time>2021-10-16T10:22:08Z</time>
      </trkpt>
      <trkpt lat="40.1421360" lon="-6.1400920">
        <ele>404.4</ele>
        <time>2021-10-16T10:22:12Z</time>
      </trkpt>
      <trkpt lat="40.1420840" lon="-6.1401620">
        <ele>404.4</ele>
        <time>2021-10-16T10:22:14Z</time>
      </trkpt>
      <trkpt lat="40.1419870" lon="-6.1403380">
        <ele>404.6</ele>
        <time>2021-10-16T10:22:18Z</time>
      </trkpt>
      <trkpt lat="40.1419650" lon="-6.1403790">
        <ele>404.6</ele>
        <time>2021-10-16T10:22:19Z</time>
      </trkpt>
      <trkpt lat="40.1418890" lon="-6.1404990">
        <ele>404.6</ele>
        <time>2021-10-16T10:22:22Z</time>
      </trkpt>
      <trkpt lat="40.1418010" lon="-6.1406210">
        <ele>404.8</ele>
        <time>2021-10-16T10:22:25Z</time>
      </trkpt>
      <trkpt lat="40.1417430" lon="-6.1407050">
        <ele>404.8</ele>
        <time>2021-10-16T10:22:28Z</time>
      </trkpt>
      <trkpt lat="40.1416210" lon="-6.1408910">
        <ele>404.8</ele>
        <time>2021-10-16T10:22:32Z</time>
      </trkpt>
      <trkpt lat="40.1415060" lon="-6.1410860">
        <ele>405.2</ele>
        <time>2021-10-16T10:22:37Z</time>
      </trkpt>
      <trkpt lat="40.1413670" lon="-6.1413220">
        <ele>405.4</ele>
        <time>2021-10-16T10:22:43Z</time>
      </trkpt>
      <trkpt lat="40.1413280" lon="-6.1414170">
        <ele>405.4</ele>
        <time>2021-10-16T10:22:45Z</time>
      </trkpt>
      <trkpt lat="40.1412070" lon="-6.1416750">
        <ele>405.8</ele>
        <time>2021-10-16T10:22:51Z</time>
      </trkpt>
      <trkpt lat="40.1409520" lon="-6.1419330">
        <ele>405.6</ele>
        <time>2021-10-16T10:22:59Z</time>
      </trkpt>
      <trkpt lat="40.1407980" lon="-6.1421910">
        <ele>405.2</ele>
        <time>2021-10-16T10:23:05Z</time>
      </trkpt>
      <trkpt lat="40.1407250" lon="-6.1423530">
        <ele>404.6</ele>
        <time>2021-10-16T10:23:08Z</time>
      </trkpt>
      <trkpt lat="40.1406630" lon="-6.1424240">
        <ele>404.4</ele>
        <time>2021-10-16T10:23:10Z</time>
      </trkpt>
      <trkpt lat="40.1405950" lon="-6.1425230">
        <ele>404.0</ele>
        <time>2021-10-16T10:23:14Z</time>
      </trkpt>
      <trkpt lat="40.1404670" lon="-6.1426730">
        <ele>403.6</ele>
        <time>2021-10-16T10:23:18Z</time>
      </trkpt>
      <trkpt lat="40.1403830" lon="-6.1427700">
        <ele>403.2</ele>
        <time>2021-10-16T10:23:22Z</time>
      </trkpt>
      <trkpt lat="40.1402490" lon="-6.1429900">
        <ele>404.0</ele>
        <time>2021-10-16T10:23:29Z</time>
      </trkpt>
      <trkpt lat="40.1401890" lon="-6.1432420">
        <ele>404.6</ele>
        <time>2021-10-16T10:23:35Z</time>
      </trkpt>
      <trkpt lat="40.1401760" lon="-6.1432860">
        <ele>404.8</ele>
        <time>2021-10-16T10:23:36Z</time>
      </trkpt>
      <trkpt lat="40.1401440" lon="-6.1433620">
        <ele>404.8</ele>
        <time>2021-10-16T10:23:38Z</time>
      </trkpt>
      <trkpt lat="40.1400580" lon="-6.1434970">
        <ele>404.8</ele>
        <time>2021-10-16T10:23:42Z</time>
      </trkpt>
      <trkpt lat="40.1398250" lon="-6.1437760">
        <ele>405.0</ele>
        <time>2021-10-16T10:23:51Z</time>
      </trkpt>
      <trkpt lat="40.1396170" lon="-6.1440710">
        <ele>404.8</ele>
        <time>2021-10-16T10:23:59Z</time>
      </trkpt>
      <trkpt lat="40.1395020" lon="-6.1443370">
        <ele>404.6</ele>
        <time>2021-10-16T10:24:05Z</time>
      </trkpt>
      <trkpt lat="40.1394370" lon="-6.1445890">
        <ele>404.8</ele>
        <time>2021-10-16T10:24:11Z</time>
      </trkpt>
      <trkpt lat="40.1394210" lon="-6.1446590">
        <ele>405.0</ele>
        <time>2021-10-16T10:24:13Z</time>
      </trkpt>
      <trkpt lat="40.1393990" lon="-6.1446880">
        <ele>405.2</ele>
        <time>2021-10-16T10:24:14Z</time>
      </trkpt>
      <trkpt lat="40.1393730" lon="-6.1447140">
        <ele>405.4</ele>
        <time>2021-10-16T10:24:15Z</time>
      </trkpt>
      <trkpt lat="40.1392220" lon="-6.1448530">
        <ele>406.0</ele>
        <time>2021-10-16T10:24:21Z</time>
      </trkpt>
      <trkpt lat="40.1390960" lon="-6.1450500">
        <ele>406.2</ele>
        <time>2021-10-16T10:24:26Z</time>
      </trkpt>
      <trkpt lat="40.1390680" lon="-6.1450940">
        <ele>406.2</ele>
        <time>2021-10-16T10:24:27Z</time>
      </trkpt>
      <trkpt lat="40.1389680" lon="-6.1451990">
        <ele>406.2</ele>
        <time>2021-10-16T10:24:30Z</time>
      </trkpt>
      <trkpt lat="40.1389050" lon="-6.1452710">
        <ele>406.2</ele>
        <time>2021-10-16T10:24:32Z</time>
      </trkpt>
      <trkpt lat="40.1388070" lon="-6.1453880">
        <ele>406.0</ele>
        <time>2021-10-16T10:24:35Z</time>
      </trkpt>
      <trkpt lat="40.1386500" lon="-6.1455630">
        <ele>405.6</ele>
        <time>2021-10-16T10:24:40Z</time>
      </trkpt>
      <trkpt lat="40.1386180" lon="-6.1455950">
        <ele>405.4</ele>
        <time>2021-10-16T10:24:41Z</time>
      </trkpt>
      <trkpt lat="40.1385220" lon="-6.1456710">
        <ele>405.2</ele>
        <time>2021-10-16T10:24:44Z</time>
      </trkpt>
      <trkpt lat="40.1384930" lon="-6.1456990">
        <ele>405.2</ele>
        <time>2021-10-16T10:24:45Z</time>
      </trkpt>
      <trkpt lat="40.1383510" lon="-6.1458690">
        <ele>405.2</ele>
        <time>2021-10-16T10:24:51Z</time>
      </trkpt>
      <trkpt lat="40.1382610" lon="-6.1460940">
        <ele>404.8</ele>
        <time>2021-10-16T10:24:56Z</time>
      </trkpt>
      <trkpt lat="40.1379830" lon="-6.1464370">
        <ele>405.2</ele>
        <time>2021-10-16T10:25:06Z</time>
      </trkpt>
      <trkpt lat="40.1378840" lon="-6.1465740">
        <ele>405.2</ele>
        <time>2021-10-16T10:25:11Z</time>
      </trkpt>
      <trkpt lat="40.1377700" lon="-6.1467810">
        <ele>405.4</ele>
        <time>2021-10-16T10:25:17Z</time>
      </trkpt>
      <trkpt lat="40.1375930" lon="-6.1470770">
        <ele>405.8</ele>
        <time>2021-10-16T10:25:24Z</time>
      </trkpt>
      <trkpt lat="40.1374040" lon="-6.1473880">
        <ele>405.8</ele>
        <time>2021-10-16T10:25:31Z</time>
      </trkpt>
      <trkpt lat="40.1373840" lon="-6.1474370">
        <ele>405.8</ele>
        <time>2021-10-16T10:25:32Z</time>
      </trkpt>
      <trkpt lat="40.1373440" lon="-6.1475210">
        <ele>405.8</ele>
        <time>2021-10-16T10:25:34Z</time>
      </trkpt>
      <trkpt lat="40.1372420" lon="-6.1476620">
        <ele>405.8</ele>
        <time>2021-10-16T10:25:38Z</time>
      </trkpt>
      <trkpt lat="40.1369970" lon="-6.1479930">
        <ele>406.2</ele>
        <time>2021-10-16T10:25:48Z</time>
      </trkpt>
      <trkpt lat="40.1369320" lon="-6.1480990">
        <ele>406.2</ele>
        <time>2021-10-16T10:25:51Z</time>
      </trkpt>
      <trkpt lat="40.1368440" lon="-6.1483060">
        <ele>406.4</ele>
        <time>2021-10-16T10:25:56Z</time>
      </trkpt>
      <trkpt lat="40.1367390" lon="-6.1485100">
        <ele>406.6</ele>
        <time>2021-10-16T10:26:01Z</time>
      </trkpt>
      <trkpt lat="40.1366460" lon="-6.1487190">
        <ele>406.8</ele>
        <time>2021-10-16T10:26:06Z</time>
      </trkpt>
      <trkpt lat="40.1364840" lon="-6.1490000">
        <ele>407.2</ele>
        <time>2021-10-16T10:26:14Z</time>
      </trkpt>
      <trkpt lat="40.1364440" lon="-6.1490640">
        <ele>407.2</ele>
        <time>2021-10-16T10:26:16Z</time>
      </trkpt>
      <trkpt lat="40.1363290" lon="-6.1492380">
        <ele>408.0</ele>
        <time>2021-10-16T10:26:22Z</time>
      </trkpt>
      <trkpt lat="40.1362790" lon="-6.1492970">
        <ele>408.4</ele>
        <time>2021-10-16T10:26:24Z</time>
      </trkpt>
      <trkpt lat="40.1361300" lon="-6.1494850">
        <ele>408.8</ele>
        <time>2021-10-16T10:26:30Z</time>
      </trkpt>
      <trkpt lat="40.1360850" lon="-6.1495550">
        <ele>408.8</ele>
        <time>2021-10-16T10:26:32Z</time>
      </trkpt>
      <trkpt lat="40.1359400" lon="-6.1497570">
        <ele>409.0</ele>
        <time>2021-10-16T10:26:38Z</time>
      </trkpt>
      <trkpt lat="40.1358890" lon="-6.1498230">
        <ele>409.0</ele>
        <time>2021-10-16T10:26:40Z</time>
      </trkpt>
      <trkpt lat="40.1357910" lon="-6.1499770">
        <ele>409.4</ele>
        <time>2021-10-16T10:26:45Z</time>
      </trkpt>
      <trkpt lat="40.1357500" lon="-6.1500340">
        <ele>409.6</ele>
        <time>2021-10-16T10:26:47Z</time>
      </trkpt>
      <trkpt lat="40.1356730" lon="-6.1501140">
        <ele>410.0</ele>
        <time>2021-10-16T10:26:50Z</time>
      </trkpt>
      <trkpt lat="40.1355490" lon="-6.1502850">
        <ele>410.2</ele>
        <time>2021-10-16T10:26:55Z</time>
      </trkpt>
      <trkpt lat="40.1354540" lon="-6.1504860">
        <ele>410.4</ele>
        <time>2021-10-16T10:27:00Z</time>
      </trkpt>
      <trkpt lat="40.1354250" lon="-6.1505820">
        <ele>410.4</ele>
        <time>2021-10-16T10:27:02Z</time>
      </trkpt>
      <trkpt lat="40.1353040" lon="-6.1507840">
        <ele>410.4</ele>
        <time>2021-10-16T10:27:07Z</time>
      </trkpt>
      <trkpt lat="40.1350760" lon="-6.1511190">
        <ele>410.6</ele>
        <time>2021-10-16T10:27:16Z</time>
      </trkpt>
      <trkpt lat="40.1350550" lon="-6.1511580">
        <ele>410.6</ele>
        <time>2021-10-16T10:27:17Z</time>
      </trkpt>
      <trkpt lat="40.1348010" lon="-6.1515940">
        <ele>411.0</ele>
        <time>2021-10-16T10:27:28Z</time>
      </trkpt>
      <trkpt lat="40.1346160" lon="-6.1519710">
        <ele>411.2</ele>
        <time>2021-10-16T10:27:37Z</time>
      </trkpt>
      <trkpt lat="40.1344450" lon="-6.1522550">
        <ele>411.4</ele>
        <time>2021-10-16T10:27:45Z</time>
      </trkpt>
      <trkpt lat="40.1344070" lon="-6.1523280">
        <ele>411.4</ele>
        <time>2021-10-16T10:27:47Z</time>
      </trkpt>
      <trkpt lat="40.1342890" lon="-6.1525500">
        <ele>411.6</ele>
        <time>2021-10-16T10:27:53Z</time>
      </trkpt>
      <trkpt lat="40.1342480" lon="-6.1526730">
        <ele>412.0</ele>
        <time>2021-10-16T10:27:56Z</time>
      </trkpt>
      <trkpt lat="40.1342070" lon="-6.1527970">
        <ele>412.2</ele>
        <time>2021-10-16T10:27:59Z</time>
      </trkpt>
      <trkpt lat="40.1341910" lon="-6.1528300">
        <ele>412.4</ele>
        <time>2021-10-16T10:28:00Z</time>
      </trkpt>
      <trkpt lat="40.1341680" lon="-6.1528610">
        <ele>412.6</ele>
        <time>2021-10-16T10:28:01Z</time>
      </trkpt>
      <trkpt lat="40.1340340" lon="-6.1529990">
        <ele>412.8</ele>
        <time>2021-10-16T10:28:06Z</time>
      </trkpt>
      <trkpt lat="40.1338870" lon="-6.1532630">
        <ele>412.8</ele>
        <time>2021-10-16T10:28:13Z</time>
      </trkpt>
      <trkpt lat="40.1337360" lon="-6.1534430">
        <ele>413.0</ele>
        <time>2021-10-16T10:28:19Z</time>
      </trkpt>
      <trkpt lat="40.1336420" lon="-6.1535640">
        <ele>413.6</ele>
        <time>2021-10-16T10:28:23Z</time>
      </trkpt>
      <trkpt lat="40.1335700" lon="-6.1536530">
        <ele>413.8</ele>
        <time>2021-10-16T10:28:26Z</time>
      </trkpt>
      <trkpt lat="40.1333680" lon="-6.1539480">
        <ele>414.4</ele>
        <time>2021-10-16T10:28:35Z</time>
      </trkpt>
      <trkpt lat="40.1331530" lon="-6.1542240">
        <ele>414.6</ele>
        <time>2021-10-16T10:28:44Z</time>
      </trkpt>
      <trkpt lat="40.1330690" lon="-6.1543530">
        <ele>414.6</ele>
        <time>2021-10-16T10:28:48Z</time>
      </trkpt>
      <trkpt lat="40.1329420" lon="-6.1545090">
        <ele>414.8</ele>
        <time>2021-10-16T10:28:53Z</time>
      </trkpt>
      <trkpt lat="40.1327210" lon="-6.1548020">
        <ele>415.0</ele>
        <time>2021-10-16T10:29:02Z</time>
      </trkpt>
      <trkpt lat="40.1326970" lon="-6.1548340">
        <ele>415.0</ele>
        <time>2021-10-16T10:29:03Z</time>
      </trkpt>
      <trkpt lat="40.1325150" lon="-6.1550620">
        <ele>415.2</ele>
        <time>2021-10-16T10:29:10Z</time>
      </trkpt>
      <trkpt lat="40.1324930" lon="-6.1550890">
        <ele>415.2</ele>
        <time>2021-10-16T10:29:11Z</time>
      </trkpt>
      <trkpt lat="40.1323720" lon="-6.1552460">
        <ele>415.4</ele>
        <time>2021-10-16T10:29:16Z</time>
      </trkpt>
      <trkpt lat="40.1322670" lon="-6.1553670">
        <ele>415.4</ele>
        <time>2021-10-16T10:29:20Z</time>
      </trkpt>
      <trkpt lat="40.1320430" lon="-6.1556500">
        <ele>415.4</ele>
        <time>2021-10-16T10:29:29Z</time>
      </trkpt>
      <trkpt lat="40.1319470" lon="-6.1558940">
        <ele>415.6</ele>
        <time>2021-10-16T10:29:35Z</time>
      </trkpt>
      <trkpt lat="40.1318760" lon="-6.1560990">
        <ele>416.0</ele>
        <time>2021-10-16T10:29:40Z</time>
      </trkpt>
      <trkpt lat="40.1317450" lon="-6.1562350">
        <ele>416.0</ele>
        <time>2021-10-16T10:29:46Z</time>
      </trkpt>
      <trkpt lat="40.1316630" lon="-6.1562480">
        <ele>416.0</ele>
        <time>2021-10-16T10:29:51Z</time>
      </trkpt>
      <trkpt lat="40.1316630" lon="-6.1562480">
        <ele>415.8</ele>
        <time>2021-10-16T10:29:53Z</time>
      </trkpt>
      <trkpt lat="40.1316380" lon="-6.1562580">
        <ele>416.0</ele>
        <time>2021-10-16T10:31:52Z</time>
      </trkpt>
      <trkpt lat="40.1316140" lon="-6.1562580">
        <ele>415.8</ele>
        <time>2021-10-16T10:31:53Z</time>
      </trkpt>
      <trkpt lat="40.1315160" lon="-6.1562930">
        <ele>415.6</ele>
        <time>2021-10-16T10:31:58Z</time>
      </trkpt>
      <trkpt lat="40.1314960" lon="-6.1563080">
        <ele>415.6</ele>
        <time>2021-10-16T10:32:00Z</time>
      </trkpt>
      <trkpt lat="40.1314810" lon="-6.1563100">
        <ele>415.6</ele>
        <time>2021-10-16T10:32:03Z</time>
      </trkpt>
      <trkpt lat="40.1314810" lon="-6.1563100">
        <ele>415.6</ele>
        <time>2021-10-16T10:32:04Z</time>
      </trkpt>
      <trkpt lat="40.1314280" lon="-6.1563400">
        <ele>415.6</ele>
        <time>2021-10-16T10:32:12Z</time>
      </trkpt>
      <trkpt lat="40.1313940" lon="-6.1563930">
        <ele>415.6</ele>
        <time>2021-10-16T10:32:14Z</time>
      </trkpt>
      <trkpt lat="40.1312590" lon="-6.1565620">
        <ele>415.4</ele>
        <time>2021-10-16T10:32:20Z</time>
      </trkpt>
      <trkpt lat="40.1311240" lon="-6.1567310">
        <ele>415.4</ele>
        <time>2021-10-16T10:32:25Z</time>
      </trkpt>
      <trkpt lat="40.1310920" lon="-6.1567660">
        <ele>415.4</ele>
        <time>2021-10-16T10:32:26Z</time>
      </trkpt>
      <trkpt lat="40.1308770" lon="-6.1570370">
        <ele>415.2</ele>
        <time>2021-10-16T10:32:33Z</time>
      </trkpt>
      <trkpt lat="40.1307210" lon="-6.1572250">
        <ele>414.6</ele>
        <time>2021-10-16T10:32:38Z</time>
      </trkpt>
      <trkpt lat="40.1306120" lon="-6.1573330">
        <ele>414.6</ele>
        <time>2021-10-16T10:32:41Z</time>
      </trkpt>
      <trkpt lat="40.1305760" lon="-6.1573740">
        <ele>414.4</ele>
        <time>2021-10-16T10:32:42Z</time>
      </trkpt>
      <trkpt lat="40.1304980" lon="-6.1574450">
        <ele>414.4</ele>
        <time>2021-10-16T10:32:44Z</time>
      </trkpt>
      <trkpt lat="40.1304620" lon="-6.1574790">
        <ele>414.4</ele>
        <time>2021-10-16T10:32:45Z</time>
      </trkpt>
      <trkpt lat="40.1304340" lon="-6.1575140">
        <ele>414.2</ele>
        <time>2021-10-16T10:32:46Z</time>
      </trkpt>
      <trkpt lat="40.1303700" lon="-6.1575820">
        <ele>414.0</ele>
        <time>2021-10-16T10:32:48Z</time>
      </trkpt>
      <trkpt lat="40.1302610" lon="-6.1576980">
        <ele>413.8</ele>
        <time>2021-10-16T10:32:51Z</time>
      </trkpt>
      <trkpt lat="40.1301490" lon="-6.1578230">
        <ele>413.4</ele>
        <time>2021-10-16T10:32:54Z</time>
      </trkpt>
      <trkpt lat="40.1300570" lon="-6.1579540">
        <ele>413.0</ele>
        <time>2021-10-16T10:32:57Z</time>
      </trkpt>
      <trkpt lat="40.1300350" lon="-6.1579970">
        <ele>412.8</ele>
        <time>2021-10-16T10:32:58Z</time>
      </trkpt>
      <trkpt lat="40.1299290" lon="-6.1581210">
        <ele>412.6</ele>
        <time>2021-10-16T10:33:02Z</time>
      </trkpt>
      <trkpt lat="40.1298580" lon="-6.1581970">
        <ele>412.2</ele>
        <time>2021-10-16T10:33:04Z</time>
      </trkpt>
      <trkpt lat="40.1297900" lon="-6.1582990">
        <ele>412.2</ele>
        <time>2021-10-16T10:33:06Z</time>
      </trkpt>
      <trkpt lat="40.1296930" lon="-6.1584290">
        <ele>411.8</ele>
        <time>2021-10-16T10:33:09Z</time>
      </trkpt>
      <trkpt lat="40.1296280" lon="-6.1585050">
        <ele>411.8</ele>
        <time>2021-10-16T10:33:11Z</time>
      </trkpt>
      <trkpt lat="40.1295900" lon="-6.1585500">
        <ele>411.8</ele>
        <time>2021-10-16T10:33:12Z</time>
      </trkpt>
      <trkpt lat="40.1295550" lon="-6.1586050">
        <ele>411.6</ele>
        <time>2021-10-16T10:33:13Z</time>
      </trkpt>
      <trkpt lat="40.1294520" lon="-6.1587670">
        <ele>411.2</ele>
        <time>2021-10-16T10:33:16Z</time>
      </trkpt>
      <trkpt lat="40.1293870" lon="-6.1588730">
        <ele>410.8</ele>
        <time>2021-10-16T10:33:18Z</time>
      </trkpt>
      <trkpt lat="40.1292450" lon="-6.1590750">
        <ele>410.0</ele>
        <time>2021-10-16T10:33:22Z</time>
      </trkpt>
      <trkpt lat="40.1291700" lon="-6.1591760">
        <ele>409.6</ele>
        <time>2021-10-16T10:33:24Z</time>
      </trkpt>
      <trkpt lat="40.1289450" lon="-6.1594090">
        <ele>408.8</ele>
        <time>2021-10-16T10:33:29Z</time>
      </trkpt>
      <trkpt lat="40.1288540" lon="-6.1595080">
        <ele>408.6</ele>
        <time>2021-10-16T10:33:31Z</time>
      </trkpt>
      <trkpt lat="40.1288150" lon="-6.1595590">
        <ele>408.4</ele>
        <time>2021-10-16T10:33:32Z</time>
      </trkpt>
      <trkpt lat="40.1287500" lon="-6.1596690">
        <ele>407.8</ele>
        <time>2021-10-16T10:33:34Z</time>
      </trkpt>
      <trkpt lat="40.1287190" lon="-6.1597230">
        <ele>407.4</ele>
        <time>2021-10-16T10:33:35Z</time>
      </trkpt>
      <trkpt lat="40.1286080" lon="-6.1599330">
        <ele>406.6</ele>
        <time>2021-10-16T10:33:39Z</time>
      </trkpt>
      <trkpt lat="40.1284910" lon="-6.1601340">
        <ele>406.2</ele>
        <time>2021-10-16T10:33:43Z</time>
      </trkpt>
      <trkpt lat="40.1283690" lon="-6.1603240">
        <ele>405.6</ele>
        <time>2021-10-16T10:33:47Z</time>
      </trkpt>
      <trkpt lat="40.1283180" lon="-6.1604220">
        <ele>405.4</ele>
        <time>2021-10-16T10:33:49Z</time>
      </trkpt>
      <trkpt lat="40.1282520" lon="-6.1605320">
        <ele>405.2</ele>
        <time>2021-10-16T10:33:52Z</time>
      </trkpt>
      <trkpt lat="40.1282240" lon="-6.1605650">
        <ele>405.0</ele>
        <time>2021-10-16T10:33:56Z</time>
      </trkpt>
      <trkpt lat="40.1281890" lon="-6.1605880">
        <ele>405.0</ele>
        <time>2021-10-16T10:34:07Z</time>
      </trkpt>
      <trkpt lat="40.1281460" lon="-6.1606120">
        <ele>405.0</ele>
        <time>2021-10-16T10:34:09Z</time>
      </trkpt>
      <trkpt lat="40.1281000" lon="-6.1606430">
        <ele>404.8</ele>
        <time>2021-10-16T10:34:14Z</time>
      </trkpt>
      <trkpt lat="40.1280890" lon="-6.1607300">
        <ele>404.4</ele>
        <time>2021-10-16T10:34:30Z</time>
      </trkpt>
      <trkpt lat="40.1280440" lon="-6.1608250">
        <ele>404.4</ele>
        <time>2021-10-16T10:34:32Z</time>
      </trkpt>
      <trkpt lat="40.1279680" lon="-6.1609780">
        <ele>404.0</ele>
        <time>2021-10-16T10:34:35Z</time>
      </trkpt>
      <trkpt lat="40.1279160" lon="-6.1610520">
        <ele>404.0</ele>
        <time>2021-10-16T10:34:37Z</time>
      </trkpt>
      <trkpt lat="40.1277820" lon="-6.1611930">
        <ele>403.4</ele>
        <time>2021-10-16T10:34:41Z</time>
      </trkpt>
      <trkpt lat="40.1277480" lon="-6.1612200">
        <ele>403.0</ele>
        <time>2021-10-16T10:34:42Z</time>
      </trkpt>
      <trkpt lat="40.1277160" lon="-6.1612570">
        <ele>402.8</ele>
        <time>2021-10-16T10:34:43Z</time>
      </trkpt>
      <trkpt lat="40.1275700" lon="-6.1614730">
        <ele>402.0</ele>
        <time>2021-10-16T10:34:49Z</time>
      </trkpt>
      <trkpt lat="40.1274220" lon="-6.1616560">
        <ele>401.4</ele>
        <time>2021-10-16T10:34:54Z</time>
      </trkpt>
      <trkpt lat="40.1273500" lon="-6.1617460">
        <ele>401.2</ele>
        <time>2021-10-16T10:34:56Z</time>
      </trkpt>
      <trkpt lat="40.1272570" lon="-6.1618890">
        <ele>401.0</ele>
        <time>2021-10-16T10:34:59Z</time>
      </trkpt>
      <trkpt lat="40.1272290" lon="-6.1619310">
        <ele>400.8</ele>
        <time>2021-10-16T10:35:00Z</time>
      </trkpt>
      <trkpt lat="40.1272000" lon="-6.1619730">
        <ele>400.6</ele>
        <time>2021-10-16T10:35:01Z</time>
      </trkpt>
      <trkpt lat="40.1271320" lon="-6.1620560">
        <ele>400.4</ele>
        <time>2021-10-16T10:35:03Z</time>
      </trkpt>
      <trkpt lat="40.1270450" lon="-6.1622060">
        <ele>400.2</ele>
        <time>2021-10-16T10:35:06Z</time>
      </trkpt>
      <trkpt lat="40.1269150" lon="-6.1623810">
        <ele>399.8</ele>
        <time>2021-10-16T10:35:11Z</time>
      </trkpt>
      <trkpt lat="40.1268640" lon="-6.1624380">
        <ele>399.8</ele>
        <time>2021-10-16T10:35:15Z</time>
      </trkpt>
      <trkpt lat="40.1268210" lon="-6.1625180">
        <ele>399.8</ele>
        <time>2021-10-16T10:35:20Z</time>
      </trkpt>
      <trkpt lat="40.1267870" lon="-6.1625610">
        <ele>399.8</ele>
        <time>2021-10-16T10:35:22Z</time>
      </trkpt>
      <trkpt lat="40.1267090" lon="-6.1626290">
        <ele>399.6</ele>
        <time>2021-10-16T10:35:25Z</time>
      </trkpt>
      <trkpt lat="40.1265510" lon="-6.1627770">
        <ele>399.2</ele>
        <time>2021-10-16T10:35:30Z</time>
      </trkpt>
      <trkpt lat="40.1265230" lon="-6.1628150">
        <ele>399.0</ele>
        <time>2021-10-16T10:35:31Z</time>
      </trkpt>
      <trkpt lat="40.1264100" lon="-6.1629440">
        <ele>398.6</ele>
        <time>2021-10-16T10:35:35Z</time>
      </trkpt>
      <trkpt lat="40.1263780" lon="-6.1629670">
        <ele>398.6</ele>
        <time>2021-10-16T10:35:36Z</time>
      </trkpt>
      <trkpt lat="40.1262320" lon="-6.1630800">
        <ele>398.6</ele>
        <time>2021-10-16T10:35:41Z</time>
      </trkpt>
      <trkpt lat="40.1260040" lon="-6.1633390">
        <ele>398.4</ele>
        <time>2021-10-16T10:35:49Z</time>
      </trkpt>
      <trkpt lat="40.1258550" lon="-6.1634870">
        <ele>398.4</ele>
        <time>2021-10-16T10:35:54Z</time>
      </trkpt>
      <trkpt lat="40.1256660" lon="-6.1636500">
        <ele>398.4</ele>
        <time>2021-10-16T10:35:59Z</time>
      </trkpt>
      <trkpt lat="40.1254600" lon="-6.1638930">
        <ele>398.2</ele>
        <time>2021-10-16T10:36:06Z</time>
      </trkpt>
      <trkpt lat="40.1253430" lon="-6.1640580">
        <ele>398.8</ele>
        <time>2021-10-16T10:36:12Z</time>
      </trkpt>
      <trkpt lat="40.1252210" lon="-6.1642020">
        <ele>399.4</ele>
        <time>2021-10-16T10:36:18Z</time>
      </trkpt>
      <trkpt lat="40.1251670" lon="-6.1643170">
        <ele>399.8</ele>
        <time>2021-10-16T10:36:22Z</time>
      </trkpt>
      <trkpt lat="40.1251340" lon="-6.1643840">
        <ele>400.0</ele>
        <time>2021-10-16T10:36:25Z</time>
      </trkpt>
      <trkpt lat="40.1250600" lon="-6.1644460">
        <ele>400.6</ele>
        <time>2021-10-16T10:36:29Z</time>
      </trkpt>
      <trkpt lat="40.1250050" lon="-6.1644650">
        <ele>400.8</ele>
        <time>2021-10-16T10:36:31Z</time>
      </trkpt>
      <trkpt lat="40.1249390" lon="-6.1644870">
        <ele>401.0</ele>
        <time>2021-10-16T10:36:33Z</time>
      </trkpt>
      <trkpt lat="40.1248420" lon="-6.1646230">
        <ele>401.0</ele>
        <time>2021-10-16T10:36:36Z</time>
      </trkpt>
      <trkpt lat="40.1248020" lon="-6.1646760">
        <ele>401.0</ele>
        <time>2021-10-16T10:36:37Z</time>
      </trkpt>
      <trkpt lat="40.1246330" lon="-6.1649000">
        <ele>399.8</ele>
        <time>2021-10-16T10:36:41Z</time>
      </trkpt>
      <trkpt lat="40.1245800" lon="-6.1649540">
        <ele>399.4</ele>
        <time>2021-10-16T10:36:42Z</time>
      </trkpt>
      <trkpt lat="40.1243810" lon="-6.1651770">
        <ele>397.6</ele>
        <time>2021-10-16T10:36:46Z</time>
      </trkpt>
      <trkpt lat="40.1243280" lon="-6.1652160">
        <ele>397.4</ele>
        <time>2021-10-16T10:36:47Z</time>
      </trkpt>
      <trkpt lat="40.1242190" lon="-6.1652920">
        <ele>396.6</ele>
        <time>2021-10-16T10:36:49Z</time>
      </trkpt>
      <trkpt lat="40.1240960" lon="-6.1654180">
        <ele>396.0</ele>
        <time>2021-10-16T10:36:52Z</time>
      </trkpt>
      <trkpt lat="40.1240720" lon="-6.1654530">
        <ele>395.2</ele>
        <time>2021-10-16T10:36:53Z</time>
      </trkpt>
      <trkpt lat="40.1240180" lon="-6.1655360">
        <ele>394.2</ele>
        <time>2021-10-16T10:36:56Z</time>
      </trkpt>
      <trkpt lat="40.1240020" lon="-6.1655550">
        <ele>393.8</ele>
        <time>2021-10-16T10:36:57Z</time>
      </trkpt>
      <trkpt lat="40.1239120" lon="-6.1656840">
        <ele>393.2</ele>
        <time>2021-10-16T10:37:02Z</time>
      </trkpt>
      <trkpt lat="40.1237720" lon="-6.1658510">
        <ele>393.8</ele>
        <time>2021-10-16T10:37:09Z</time>
      </trkpt>
      <trkpt lat="40.1236030" lon="-6.1659940">
        <ele>394.6</ele>
        <time>2021-10-16T10:37:16Z</time>
      </trkpt>
      <trkpt lat="40.1235340" lon="-6.1660430">
        <ele>395.2</ele>
        <time>2021-10-16T10:37:19Z</time>
      </trkpt>
      <trkpt lat="40.1234410" lon="-6.1661020">
        <ele>396.2</ele>
        <time>2021-10-16T10:37:24Z</time>
      </trkpt>
      <trkpt lat="40.1233820" lon="-6.1661730">
        <ele>396.6</ele>
        <time>2021-10-16T10:37:28Z</time>
      </trkpt>
      <trkpt lat="40.1233570" lon="-6.1662100">
        <ele>397.4</ele>
        <time>2021-10-16T10:37:30Z</time>
      </trkpt>
      <trkpt lat="40.1233030" lon="-6.1662470">
        <ele>397.8</ele>
        <time>2021-10-16T10:37:33Z</time>
      </trkpt>
      <trkpt lat="40.1231940" lon="-6.1662610">
        <ele>398.0</ele>
        <time>2021-10-16T10:37:37Z</time>
      </trkpt>
      <trkpt lat="40.1230260" lon="-6.1661940">
        <ele>398.2</ele>
        <time>2021-10-16T10:37:42Z</time>
      </trkpt>
      <trkpt lat="40.1229030" lon="-6.1661850">
        <ele>397.8</ele>
        <time>2021-10-16T10:37:45Z</time>
      </trkpt>
      <trkpt lat="40.1227790" lon="-6.1662160">
        <ele>397.4</ele>
        <time>2021-10-16T10:37:48Z</time>
      </trkpt>
      <trkpt lat="40.1226160" lon="-6.1662410">
        <ele>396.8</ele>
        <time>2021-10-16T10:37:52Z</time>
      </trkpt>
      <trkpt lat="40.1224980" lon="-6.1662720">
        <ele>396.2</ele>
        <time>2021-10-16T10:37:55Z</time>
      </trkpt>
      <trkpt lat="40.1224240" lon="-6.1662350">
        <ele>396.0</ele>
        <time>2021-10-16T10:37:57Z</time>
      </trkpt>
      <trkpt lat="40.1223930" lon="-6.1662060">
        <ele>396.0</ele>
        <time>2021-10-16T10:37:58Z</time>
      </trkpt>
      <trkpt lat="40.1222720" lon="-6.1660980">
        <ele>395.8</ele>
        <time>2021-10-16T10:38:03Z</time>
      </trkpt>
      <trkpt lat="40.1222570" lon="-6.1660900">
        <ele>395.6</ele>
        <time>2021-10-16T10:38:04Z</time>
      </trkpt>
      <trkpt lat="40.1222530" lon="-6.1660890">
        <ele>395.6</ele>
        <time>2021-10-16T10:38:06Z</time>
      </trkpt>
      <trkpt lat="40.1223570" lon="-6.1661450">
        <ele>395.0</ele>
        <time>2021-10-16T10:38:23Z</time>
      </trkpt>
      <trkpt lat="40.1223740" lon="-6.1661640">
        <ele>395.0</ele>
        <time>2021-10-16T10:38:24Z</time>
      </trkpt>
      <trkpt lat="40.1223960" lon="-6.1661890">
        <ele>395.0</ele>
        <time>2021-10-16T10:38:25Z</time>
      </trkpt>
      <trkpt lat="40.1225300" lon="-6.1662600">
        <ele>395.2</ele>
        <time>2021-10-16T10:38:30Z</time>
      </trkpt>
      <trkpt lat="40.1225950" lon="-6.1662360">
        <ele>395.2</ele>
        <time>2021-10-16T10:38:34Z</time>
      </trkpt>
      <trkpt lat="40.1226010" lon="-6.1662290">
        <ele>395.2</ele>
        <time>2021-10-16T10:38:35Z</time>
      </trkpt>
      <trkpt lat="40.1226020" lon="-6.1662170">
        <ele>395.2</ele>
        <time>2021-10-16T10:38:36Z</time>
      </trkpt>
      <trkpt lat="40.1225960" lon="-6.1661990">
        <ele>395.4</ele>
        <time>2021-10-16T10:38:39Z</time>
      </trkpt>
      <trkpt lat="40.1226360" lon="-6.1662120">
        <ele>395.4</ele>
        <time>2021-10-16T10:38:52Z</time>
      </trkpt>
      <trkpt lat="40.1226890" lon="-6.1662730">
        <ele>395.6</ele>
        <time>2021-10-16T10:38:55Z</time>
      </trkpt>
      <trkpt lat="40.1226940" lon="-6.1663020">
        <ele>395.8</ele>
        <time>2021-10-16T10:38:56Z</time>
      </trkpt>
      <trkpt lat="40.1226850" lon="-6.1663920">
        <ele>396.0</ele>
        <time>2021-10-16T10:38:59Z</time>
      </trkpt>
      <trkpt lat="40.1226980" lon="-6.1664500">
        <ele>396.6</ele>
        <time>2021-10-16T10:39:01Z</time>
      </trkpt>
      <trkpt lat="40.1227410" lon="-6.1664730">
        <ele>397.0</ele>
        <time>2021-10-16T10:39:03Z</time>
      </trkpt>
      <trkpt lat="40.1227930" lon="-6.1664840">
        <ele>397.4</ele>
        <time>2021-10-16T10:39:05Z</time>
      </trkpt>
      <trkpt lat="40.1228110" lon="-6.1664930">
        <ele>397.4</ele>
        <time>2021-10-16T10:39:06Z</time>
      </trkpt>
      <trkpt lat="40.1228570" lon="-6.1665550">
        <ele>397.8</ele>
        <time>2021-10-16T10:39:09Z</time>
      </trkpt>
      <trkpt lat="40.1228750" lon="-6.1665870">
        <ele>398.2</ele>
        <time>2021-10-16T10:39:11Z</time>
      </trkpt>
      <trkpt lat="40.1228950" lon="-6.1666280">
        <ele>398.4</ele>
        <time>2021-10-16T10:39:14Z</time>
      </trkpt>
      <trkpt lat="40.1228660" lon="-6.1666190">
        <ele>399.0</ele>
        <time>2021-10-16T10:39:19Z</time>
      </trkpt>
      <trkpt lat="40.1228050" lon="-6.1665300">
        <ele>399.0</ele>
        <time>2021-10-16T10:39:23Z</time>
      </trkpt>
      <trkpt lat="40.1227180" lon="-6.1664730">
        <ele>399.0</ele>
        <time>2021-10-16T10:39:26Z</time>
      </trkpt>
      <trkpt lat="40.1226270" lon="-6.1664350">
        <ele>398.6</ele>
        <time>2021-10-16T10:39:29Z</time>
      </trkpt>
      <trkpt lat="40.1225170" lon="-6.1663950">
        <ele>397.6</ele>
        <time>2021-10-16T10:39:35Z</time>
      </trkpt>
      <trkpt lat="40.1225170" lon="-6.1663950">
        <ele>397.0</ele>
        <time>2021-10-16T10:39:37Z</time>
      </trkpt>
      <trkpt lat="40.1225170" lon="-6.1663950">
        <ele>397.0</ele>
        <time>2021-10-16T10:39:38Z</time>
      </trkpt>
      <trkpt lat="40.1224550" lon="-6.1663810">
        <ele>396.6</ele>
        <time>2021-10-16T10:39:56Z</time>
      </trkpt>
      <trkpt lat="40.1222900" lon="-6.1664420">
        <ele>396.4</ele>
        <time>2021-10-16T10:40:03Z</time>
      </trkpt>
      <trkpt lat="40.1222380" lon="-6.1664790">
        <ele>396.0</ele>
        <time>2021-10-16T10:40:06Z</time>
      </trkpt>
      <trkpt lat="40.1222150" lon="-6.1664940">
        <ele>396.0</ele>
        <time>2021-10-16T10:40:10Z</time>
      </trkpt>
      <trkpt lat="40.1221850" lon="-6.1664490">
        <ele>396.0</ele>
        <time>2021-10-16T10:40:17Z</time>
      </trkpt>
      <trkpt lat="40.1221620" lon="-6.1664000">
        <ele>396.0</ele>
        <time>2021-10-16T10:40:19Z</time>
      </trkpt>
      <trkpt lat="40.1220660" lon="-6.1661920">
        <ele>395.8</ele>
        <time>2021-10-16T10:40:26Z</time>
      </trkpt>
      <trkpt lat="40.1220100" lon="-6.1660710">
        <ele>395.6</ele>
        <time>2021-10-16T10:40:30Z</time>
      </trkpt>
      <trkpt lat="40.1219300" lon="-6.1659670">
        <ele>395.0</ele>
        <time>2021-10-16T10:40:34Z</time>
      </trkpt>
      <trkpt lat="40.1217410" lon="-6.1658810">
        <ele>394.2</ele>
        <time>2021-10-16T10:40:41Z</time>
      </trkpt>
      <trkpt lat="40.1216230" lon="-6.1658490">
        <ele>394.0</ele>
        <time>2021-10-16T10:40:47Z</time>
      </trkpt>
      <trkpt lat="40.1215340" lon="-6.1658310">
        <ele>394.0</ele>
        <time>2021-10-16T10:40:53Z</time>
      </trkpt>
      <trkpt lat="40.1215000" lon="-6.1658250">
        <ele>394.2</ele>
        <time>2021-10-16T10:40:58Z</time>
      </trkpt>
      <trkpt lat="40.1215400" lon="-6.1658260">
        <ele>394.2</ele>
        <time>2021-10-16T10:42:34Z</time>
      </trkpt>
      <trkpt lat="40.1215630" lon="-6.1658330">
        <ele>394.2</ele>
        <time>2021-10-16T10:42:35Z</time>
      </trkpt>
      <trkpt lat="40.1216810" lon="-6.1658820">
        <ele>394.2</ele>
        <time>2021-10-16T10:42:39Z</time>
      </trkpt>
      <trkpt lat="40.1219170" lon="-6.1659640">
        <ele>393.8</ele>
        <time>2021-10-16T10:42:46Z</time>
      </trkpt>
      <trkpt lat="40.1221100" lon="-6.1660800">
        <ele>393.8</ele>
        <time>2021-10-16T10:42:53Z</time>
      </trkpt>
      <trkpt lat="40.1222950" lon="-6.1661340">
        <ele>394.6</ele>
        <time>2021-10-16T10:43:01Z</time>
      </trkpt>
      <trkpt lat="40.1224190" lon="-6.1662520">
        <ele>395.4</ele>
        <time>2021-10-16T10:43:07Z</time>
      </trkpt>
      <trkpt lat="40.1224860" lon="-6.1663280">
        <ele>395.8</ele>
        <time>2021-10-16T10:43:11Z</time>
      </trkpt>
      <trkpt lat="40.1225580" lon="-6.1663750">
        <ele>396.0</ele>
        <time>2021-10-16T10:43:15Z</time>
      </trkpt>
      <trkpt lat="40.1226040" lon="-6.1663960">
        <ele>396.4</ele>
        <time>2021-10-16T10:43:20Z</time>
      </trkpt>
      <trkpt lat="40.1226210" lon="-6.1664020">
        <ele>396.6</ele>
        <time>2021-10-16T10:43:23Z</time>
      </trkpt>
      <trkpt lat="40.1226380" lon="-6.1664120">
        <ele>396.8</ele>
        <time>2021-10-16T10:43:25Z</time>
      </trkpt>
      <trkpt lat="40.1226640" lon="-6.1664250">
        <ele>397.0</ele>
        <time>2021-10-16T10:43:27Z</time>
      </trkpt>
      <trkpt lat="40.1226790" lon="-6.1664330">
        <ele>397.0</ele>
        <time>2021-10-16T10:43:28Z</time>
      </trkpt>
      <trkpt lat="40.1227030" lon="-6.1664500">
        <ele>397.0</ele>
        <time>2021-10-16T10:43:30Z</time>
      </trkpt>
      <trkpt lat="40.1227150" lon="-6.1664590">
        <ele>397.2</ele>
        <time>2021-10-16T10:43:32Z</time>
      </trkpt>
      <trkpt lat="40.1227210" lon="-6.1664610">
        <ele>397.2</ele>
        <time>2021-10-16T10:43:34Z</time>
      </trkpt>
      <trkpt lat="40.1227210" lon="-6.1664610">
        <ele>397.4</ele>
        <time>2021-10-16T10:43:35Z</time>
      </trkpt>
      <trkpt lat="40.1226860" lon="-6.1664470">
        <ele>397.8</ele>
        <time>2021-10-16T10:46:02Z</time>
      </trkpt>
      <trkpt lat="40.1226610" lon="-6.1664380">
        <ele>397.8</ele>
        <time>2021-10-16T10:46:03Z</time>
      </trkpt>
      <trkpt lat="40.1226360" lon="-6.1664290">
        <ele>397.8</ele>
        <time>2021-10-16T10:46:04Z</time>
      </trkpt>
      <trkpt lat="40.1224900" lon="-6.1664280">
        <ele>397.6</ele>
        <time>2021-10-16T10:46:10Z</time>
      </trkpt>
      <trkpt lat="40.1223490" lon="-6.1665800">
        <ele>396.8</ele>
        <time>2021-10-16T10:46:17Z</time>
      </trkpt>
      <trkpt lat="40.1223060" lon="-6.1666380">
        <ele>396.8</ele>
        <time>2021-10-16T10:46:20Z</time>
      </trkpt>
      <trkpt lat="40.1222970" lon="-6.1666490">
        <ele>396.6</ele>
        <time>2021-10-16T10:46:21Z</time>
      </trkpt>
      <trkpt lat="40.1222940" lon="-6.1666520">
        <ele>396.8</ele>
        <time>2021-10-16T10:46:23Z</time>
      </trkpt>
      <trkpt lat="40.1222940" lon="-6.1666520">
        <ele>396.6</ele>
        <time>2021-10-16T10:46:24Z</time>
      </trkpt>
      <trkpt lat="40.1222630" lon="-6.1667010">
        <ele>396.6</ele>
        <time>2021-10-16T10:47:04Z</time>
      </trkpt>
      <trkpt lat="40.1222430" lon="-6.1667360">
        <ele>396.6</ele>
        <time>2021-10-16T10:47:05Z</time>
      </trkpt>
      <trkpt lat="40.1222210" lon="-6.1667700">
        <ele>396.8</ele>
        <time>2021-10-16T10:47:06Z</time>
      </trkpt>
      <trkpt lat="40.1220440" lon="-6.1669760">
        <ele>396.8</ele>
        <time>2021-10-16T10:47:13Z</time>
      </trkpt>
      <trkpt lat="40.1218460" lon="-6.1671380">
        <ele>397.0</ele>
        <time>2021-10-16T10:47:20Z</time>
      </trkpt>
      <trkpt lat="40.1216310" lon="-6.1672250">
        <ele>397.2</ele>
        <time>2021-10-16T10:47:26Z</time>
      </trkpt>
      <trkpt lat="40.1213990" lon="-6.1673380">
        <ele>396.8</ele>
        <time>2021-10-16T10:47:33Z</time>
      </trkpt>
      <trkpt lat="40.1212720" lon="-6.1673850">
        <ele>396.6</ele>
        <time>2021-10-16T10:47:36Z</time>
      </trkpt>
      <trkpt lat="40.1211110" lon="-6.1674250">
        <ele>396.2</ele>
        <time>2021-10-16T10:47:40Z</time>
      </trkpt>
      <trkpt lat="40.1209540" lon="-6.1674350">
        <ele>395.6</ele>
        <time>2021-10-16T10:47:44Z</time>
      </trkpt>
      <trkpt lat="40.1208750" lon="-6.1674410">
        <ele>395.2</ele>
        <time>2021-10-16T10:47:46Z</time>
      </trkpt>
      <trkpt lat="40.1206260" lon="-6.1674950">
        <ele>394.4</ele>
        <time>2021-10-16T10:47:53Z</time>
      </trkpt>
      <trkpt lat="40.1204490" lon="-6.1675010">
        <ele>394.0</ele>
        <time>2021-10-16T10:47:58Z</time>
      </trkpt>
      <trkpt lat="40.1203740" lon="-6.1675040">
        <ele>394.0</ele>
        <time>2021-10-16T10:48:00Z</time>
      </trkpt>
      <trkpt lat="40.1202400" lon="-6.1675080">
        <ele>394.0</ele>
        <time>2021-10-16T10:48:06Z</time>
      </trkpt>
      <trkpt lat="40.1202400" lon="-6.1675080">
        <ele>394.0</ele>
        <time>2021-10-16T10:48:07Z</time>
      </trkpt>
      <trkpt lat="40.1202360" lon="-6.1675760">
        <ele>394.0</ele>
        <time>2021-10-16T10:48:55Z</time>
      </trkpt>
      <trkpt lat="40.1202570" lon="-6.1676280">
        <ele>394.0</ele>
        <time>2021-10-16T10:48:57Z</time>
      </trkpt>
      <trkpt lat="40.1203530" lon="-6.1677790">
        <ele>394.2</ele>
        <time>2021-10-16T10:49:04Z</time>
      </trkpt>
      <trkpt lat="40.1203810" lon="-6.1678370">
        <ele>394.2</ele>
        <time>2021-10-16T10:49:07Z</time>
      </trkpt>
      <trkpt lat="40.1204370" lon="-6.1679270">
        <ele>394.8</ele>
        <time>2021-10-16T10:49:11Z</time>
      </trkpt>
      <trkpt lat="40.1205100" lon="-6.1680070">
        <ele>395.4</ele>
        <time>2021-10-16T10:49:15Z</time>
      </trkpt>
      <trkpt lat="40.1205390" lon="-6.1680320">
        <ele>395.6</ele>
        <time>2021-10-16T10:49:17Z</time>
      </trkpt>
      <trkpt lat="40.1205900" lon="-6.1680810">
        <ele>396.6</ele>
        <time>2021-10-16T10:49:21Z</time>
      </trkpt>
      <trkpt lat="40.1206550" lon="-6.1681300">
        <ele>397.4</ele>
        <time>2021-10-16T10:49:26Z</time>
      </trkpt>
      <trkpt lat="40.1206650" lon="-6.1681390">
        <ele>397.6</ele>
        <time>2021-10-16T10:49:27Z</time>
      </trkpt>
      <trkpt lat="40.1207430" lon="-6.1682520">
        <ele>398.4</ele>
        <time>2021-10-16T10:49:35Z</time>
      </trkpt>
      <trkpt lat="40.1207540" lon="-6.1682640">
        <ele>398.6</ele>
        <time>2021-10-16T10:49:36Z</time>
      </trkpt>
      <trkpt lat="40.1207830" lon="-6.1683100">
        <ele>399.2</ele>
        <time>2021-10-16T10:49:39Z</time>
      </trkpt>
      <trkpt lat="40.1208040" lon="-6.1683850">
        <ele>399.6</ele>
        <time>2021-10-16T10:49:43Z</time>
      </trkpt>
      <trkpt lat="40.1208360" lon="-6.1685440">
        <ele>400.6</ele>
        <time>2021-10-16T10:49:51Z</time>
      </trkpt>
      <trkpt lat="40.1208360" lon="-6.1685640">
        <ele>400.8</ele>
        <time>2021-10-16T10:49:52Z</time>
      </trkpt>
      <trkpt lat="40.1208440" lon="-6.1686060">
        <ele>401.2</ele>
        <time>2021-10-16T10:49:54Z</time>
      </trkpt>
      <trkpt lat="40.1208850" lon="-6.1686920">
        <ele>401.4</ele>
        <time>2021-10-16T10:49:59Z</time>
      </trkpt>
      <trkpt lat="40.1208920" lon="-6.1687290">
        <ele>401.6</ele>
        <time>2021-10-16T10:50:01Z</time>
      </trkpt>
      <trkpt lat="40.1208970" lon="-6.1688140">
        <ele>401.8</ele>
        <time>2021-10-16T10:50:05Z</time>
      </trkpt>
      <trkpt lat="40.1208970" lon="-6.1688350">
        <ele>401.8</ele>
        <time>2021-10-16T10:50:06Z</time>
      </trkpt>
      <trkpt lat="40.1209070" lon="-6.1689540">
        <ele>402.2</ele>
        <time>2021-10-16T10:50:11Z</time>
      </trkpt>
      <trkpt lat="40.1209280" lon="-6.1690670">
        <ele>402.0</ele>
        <time>2021-10-16T10:50:15Z</time>
      </trkpt>
      <trkpt lat="40.1209460" lon="-6.1692260">
        <ele>401.8</ele>
        <time>2021-10-16T10:50:20Z</time>
      </trkpt>
      <trkpt lat="40.1209360" lon="-6.1692770">
        <ele>401.6</ele>
        <time>2021-10-16T10:50:23Z</time>
      </trkpt>
      <trkpt lat="40.1209140" lon="-6.1693060">
        <ele>401.6</ele>
        <time>2021-10-16T10:50:25Z</time>
      </trkpt>
      <trkpt lat="40.1208940" lon="-6.1693480">
        <ele>401.6</ele>
        <time>2021-10-16T10:50:30Z</time>
      </trkpt>
      <trkpt lat="40.1208670" lon="-6.1693700">
        <ele>401.4</ele>
        <time>2021-10-16T10:51:57Z</time>
      </trkpt>
      <trkpt lat="40.1208450" lon="-6.1693920">
        <ele>401.4</ele>
        <time>2021-10-16T10:51:58Z</time>
      </trkpt>
      <trkpt lat="40.1207800" lon="-6.1694810">
        <ele>401.4</ele>
        <time>2021-10-16T10:52:01Z</time>
      </trkpt>
      <trkpt lat="40.1205920" lon="-6.1696560">
        <ele>400.8</ele>
        <time>2021-10-16T10:52:06Z</time>
      </trkpt>
      <trkpt lat="40.1203730" lon="-6.1698550">
        <ele>399.8</ele>
        <time>2021-10-16T10:52:11Z</time>
      </trkpt>
      <trkpt lat="40.1203240" lon="-6.1698920">
        <ele>399.4</ele>
        <time>2021-10-16T10:52:12Z</time>
      </trkpt>
      <trkpt lat="40.1201740" lon="-6.1700140">
        <ele>398.8</ele>
        <time>2021-10-16T10:52:15Z</time>
      </trkpt>
      <trkpt lat="40.1200350" lon="-6.1701490">
        <ele>397.6</ele>
        <time>2021-10-16T10:52:18Z</time>
      </trkpt>
      <trkpt lat="40.1199860" lon="-6.1701890">
        <ele>397.4</ele>
        <time>2021-10-16T10:52:19Z</time>
      </trkpt>
      <trkpt lat="40.1199420" lon="-6.1702300">
        <ele>397.2</ele>
        <time>2021-10-16T10:52:20Z</time>
      </trkpt>
      <trkpt lat="40.1197890" lon="-6.1704160">
        <ele>396.6</ele>
        <time>2021-10-16T10:52:24Z</time>
      </trkpt>
      <trkpt lat="40.1196770" lon="-6.1705610">
        <ele>396.2</ele>
        <time>2021-10-16T10:52:27Z</time>
      </trkpt>
      <trkpt lat="40.1196070" lon="-6.1706220">
        <ele>395.8</ele>
        <time>2021-10-16T10:52:29Z</time>
      </trkpt>
      <trkpt lat="40.1195790" lon="-6.1706450">
        <ele>395.4</ele>
        <time>2021-10-16T10:52:30Z</time>
      </trkpt>
      <trkpt lat="40.1195470" lon="-6.1707100">
        <ele>395.2</ele>
        <time>2021-10-16T10:52:33Z</time>
      </trkpt>
      <trkpt lat="40.1195210" lon="-6.1707470">
        <ele>394.8</ele>
        <time>2021-10-16T10:52:37Z</time>
      </trkpt>
      <trkpt lat="40.1195120" lon="-6.1707670">
        <ele>394.6</ele>
        <time>2021-10-16T10:52:39Z</time>
      </trkpt>
      <trkpt lat="40.1195100" lon="-6.1707770">
        <ele>394.4</ele>
        <time>2021-10-16T10:52:40Z</time>
      </trkpt>
      <trkpt lat="40.1194960" lon="-6.1708080">
        <ele>394.4</ele>
        <time>2021-10-16T10:52:42Z</time>
      </trkpt>
      <trkpt lat="40.1194520" lon="-6.1708850">
        <ele>394.6</ele>
        <time>2021-10-16T10:52:46Z</time>
      </trkpt>
      <trkpt lat="40.1194170" lon="-6.1709440">
        <ele>394.6</ele>
        <time>2021-10-16T10:52:49Z</time>
      </trkpt>
      <trkpt lat="40.1193910" lon="-6.1709810">
        <ele>394.8</ele>
        <time>2021-10-16T10:52:51Z</time>
      </trkpt>
      <trkpt lat="40.1193840" lon="-6.1710200">
        <ele>395.2</ele>
        <time>2021-10-16T10:52:53Z</time>
      </trkpt>
      <trkpt lat="40.1193740" lon="-6.1710380">
        <ele>395.2</ele>
        <time>2021-10-16T10:52:54Z</time>
      </trkpt>
      <trkpt lat="40.1193620" lon="-6.1710550">
        <ele>395.4</ele>
        <time>2021-10-16T10:52:55Z</time>
      </trkpt>
      <trkpt lat="40.1193490" lon="-6.1710680">
        <ele>395.4</ele>
        <time>2021-10-16T10:52:56Z</time>
      </trkpt>
      <trkpt lat="40.1192860" lon="-6.1711190">
        <ele>396.0</ele>
        <time>2021-10-16T10:53:00Z</time>
      </trkpt>
      <trkpt lat="40.1192480" lon="-6.1711400">
        <ele>396.0</ele>
        <time>2021-10-16T10:53:02Z</time>
      </trkpt>
      <trkpt lat="40.1192000" lon="-6.1711800">
        <ele>396.0</ele>
        <time>2021-10-16T10:53:05Z</time>
      </trkpt>
      <trkpt lat="40.1191570" lon="-6.1712410">
        <ele>396.4</ele>
        <time>2021-10-16T10:53:08Z</time>
      </trkpt>
      <trkpt lat="40.1191270" lon="-6.1712880">
        <ele>396.4</ele>
        <time>2021-10-16T10:53:10Z</time>
      </trkpt>
      <trkpt lat="40.1189920" lon="-6.1714310">
        <ele>396.8</ele>
        <time>2021-10-16T10:53:17Z</time>
      </trkpt>
      <trkpt lat="40.1188260" lon="-6.1715770">
        <ele>397.4</ele>
        <time>2021-10-16T10:53:25Z</time>
      </trkpt>
      <trkpt lat="40.1188050" lon="-6.1715930">
        <ele>397.4</ele>
        <time>2021-10-16T10:53:26Z</time>
      </trkpt>
      <trkpt lat="40.1187150" lon="-6.1716550">
        <ele>397.6</ele>
        <time>2021-10-16T10:53:29Z</time>
      </trkpt>
      <trkpt lat="40.1186560" lon="-6.1716810">
        <ele>397.8</ele>
        <time>2021-10-16T10:53:31Z</time>
      </trkpt>
      <trkpt lat="40.1185180" lon="-6.1718280">
        <ele>398.4</ele>
        <time>2021-10-16T10:53:37Z</time>
      </trkpt>
      <trkpt lat="40.1184840" lon="-6.1718530">
        <ele>398.8</ele>
        <time>2021-10-16T10:53:38Z</time>
      </trkpt>
      <trkpt lat="40.1183270" lon="-6.1720000">
        <ele>399.4</ele>
        <time>2021-10-16T10:53:44Z</time>
      </trkpt>
      <trkpt lat="40.1181510" lon="-6.1720410">
        <ele>399.8</ele>
        <time>2021-10-16T10:53:50Z</time>
      </trkpt>
      <trkpt lat="40.1180350" lon="-6.1721550">
        <ele>400.0</ele>
        <time>2021-10-16T10:53:55Z</time>
      </trkpt>
      <trkpt lat="40.1180040" lon="-6.1722040">
        <ele>400.2</ele>
        <time>2021-10-16T10:53:57Z</time>
      </trkpt>
      <trkpt lat="40.1179520" lon="-6.1722820">
        <ele>401.0</ele>
        <time>2021-10-16T10:54:01Z</time>
      </trkpt>
      <trkpt lat="40.1179020" lon="-6.1723440">
        <ele>401.2</ele>
        <time>2021-10-16T10:54:03Z</time>
      </trkpt>
      <trkpt lat="40.1177790" lon="-6.1725000">
        <ele>401.8</ele>
        <time>2021-10-16T10:54:10Z</time>
      </trkpt>
      <trkpt lat="40.1176540" lon="-6.1726690">
        <ele>402.0</ele>
        <time>2021-10-16T10:54:17Z</time>
      </trkpt>
      <trkpt lat="40.1176270" lon="-6.1727020">
        <ele>402.0</ele>
        <time>2021-10-16T10:54:18Z</time>
      </trkpt>
      <trkpt lat="40.1174000" lon="-6.1729110">
        <ele>402.0</ele>
        <time>2021-10-16T10:54:27Z</time>
      </trkpt>
      <trkpt lat="40.1172210" lon="-6.1731370">
        <ele>401.8</ele>
        <time>2021-10-16T10:54:35Z</time>
      </trkpt>
      <trkpt lat="40.1171930" lon="-6.1731610">
        <ele>401.6</ele>
        <time>2021-10-16T10:54:36Z</time>
      </trkpt>
      <trkpt lat="40.1169760" lon="-6.1733000">
        <ele>401.2</ele>
        <time>2021-10-16T10:54:43Z</time>
      </trkpt>
      <trkpt lat="40.1169210" lon="-6.1733540">
        <ele>400.8</ele>
        <time>2021-10-16T10:54:45Z</time>
      </trkpt>
      <trkpt lat="40.1167760" lon="-6.1734560">
        <ele>400.6</ele>
        <time>2021-10-16T10:54:50Z</time>
      </trkpt>
      <trkpt lat="40.1166450" lon="-6.1734540">
        <ele>400.4</ele>
        <time>2021-10-16T10:54:54Z</time>
      </trkpt>
      <trkpt lat="40.1165800" lon="-6.1734470">
        <ele>400.2</ele>
        <time>2021-10-16T10:54:56Z</time>
      </trkpt>
      <trkpt lat="40.1163240" lon="-6.1735120">
        <ele>400.0</ele>
        <time>2021-10-16T10:55:03Z</time>
      </trkpt>
      <trkpt lat="40.1161730" lon="-6.1737060">
        <ele>400.0</ele>
        <time>2021-10-16T10:55:09Z</time>
      </trkpt>
      <trkpt lat="40.1159700" lon="-6.1740350">
        <ele>400.2</ele>
        <time>2021-10-16T10:55:19Z</time>
      </trkpt>
      <trkpt lat="40.1158790" lon="-6.1741410">
        <ele>400.4</ele>
        <time>2021-10-16T10:55:23Z</time>
      </trkpt>
      <trkpt lat="40.1158020" lon="-6.1741930">
        <ele>400.4</ele>
        <time>2021-10-16T10:55:26Z</time>
      </trkpt>
      <trkpt lat="40.1156980" lon="-6.1742890">
        <ele>400.6</ele>
        <time>2021-10-16T10:55:30Z</time>
      </trkpt>
      <trkpt lat="40.1156840" lon="-6.1743130">
        <ele>400.8</ele>
        <time>2021-10-16T10:55:31Z</time>
      </trkpt>
      <trkpt lat="40.1155410" lon="-6.1745240">
        <ele>401.0</ele>
        <time>2021-10-16T10:55:38Z</time>
      </trkpt>
      <trkpt lat="40.1153390" lon="-6.1746780">
        <ele>401.4</ele>
        <time>2021-10-16T10:55:46Z</time>
      </trkpt>
      <trkpt lat="40.1152380" lon="-6.1747300">
        <ele>401.6</ele>
        <time>2021-10-16T10:55:50Z</time>
      </trkpt>
      <trkpt lat="40.1152120" lon="-6.1747340">
        <ele>401.6</ele>
        <time>2021-10-16T10:55:51Z</time>
      </trkpt>
      <trkpt lat="40.1151290" lon="-6.1747480">
        <ele>401.8</ele>
        <time>2021-10-16T10:55:54Z</time>
      </trkpt>
      <trkpt lat="40.1150880" lon="-6.1747790">
        <ele>401.8</ele>
        <time>2021-10-16T10:55:56Z</time>
      </trkpt>
      <trkpt lat="40.1149560" lon="-6.1749630">
        <ele>402.6</ele>
        <time>2021-10-16T10:56:04Z</time>
      </trkpt>
      <trkpt lat="40.1148840" lon="-6.1750900">
        <ele>402.8</ele>
        <time>2021-10-16T10:56:09Z</time>
      </trkpt>
      <trkpt lat="40.1148350" lon="-6.1751760">
        <ele>403.0</ele>
        <time>2021-10-16T10:56:12Z</time>
      </trkpt>
      <trkpt lat="40.1147560" lon="-6.1752760">
        <ele>402.8</ele>
        <time>2021-10-16T10:56:16Z</time>
      </trkpt>
      <trkpt lat="40.1146650" lon="-6.1753690">
        <ele>402.8</ele>
        <time>2021-10-16T10:56:20Z</time>
      </trkpt>
      <trkpt lat="40.1144960" lon="-6.1754940">
        <ele>402.4</ele>
        <time>2021-10-16T10:56:26Z</time>
      </trkpt>
      <trkpt lat="40.1143570" lon="-6.1755970">
        <ele>402.2</ele>
        <time>2021-10-16T10:56:31Z</time>
      </trkpt>
      <trkpt lat="40.1143210" lon="-6.1756140">
        <ele>402.2</ele>
        <time>2021-10-16T10:56:32Z</time>
      </trkpt>
      <trkpt lat="40.1141130" lon="-6.1756540">
        <ele>402.0</ele>
        <time>2021-10-16T10:56:38Z</time>
      </trkpt>
      <trkpt lat="40.1139380" lon="-6.1757390">
        <ele>401.8</ele>
        <time>2021-10-16T10:56:44Z</time>
      </trkpt>
      <trkpt lat="40.1139170" lon="-6.1757560">
        <ele>401.8</ele>
        <time>2021-10-16T10:56:45Z</time>
      </trkpt>
      <trkpt lat="40.1136800" lon="-6.1759620">
        <ele>401.6</ele>
        <time>2021-10-16T10:56:54Z</time>
      </trkpt>
      <trkpt lat="40.1134470" lon="-6.1761220">
        <ele>401.6</ele>
        <time>2021-10-16T10:57:02Z</time>
      </trkpt>
      <trkpt lat="40.1132420" lon="-6.1762970">
        <ele>402.0</ele>
        <time>2021-10-16T10:57:10Z</time>
      </trkpt>
      <trkpt lat="40.1131650" lon="-6.1764290">
        <ele>402.8</ele>
        <time>2021-10-16T10:57:15Z</time>
      </trkpt>
      <trkpt lat="40.1130940" lon="-6.1766280">
        <ele>403.8</ele>
        <time>2021-10-16T10:57:21Z</time>
      </trkpt>
      <trkpt lat="40.1130790" lon="-6.1766710">
        <ele>404.0</ele>
        <time>2021-10-16T10:57:22Z</time>
      </trkpt>
      <trkpt lat="40.1129810" lon="-6.1768040">
        <ele>404.4</ele>
        <time>2021-10-16T10:57:27Z</time>
      </trkpt>
      <trkpt lat="40.1128690" lon="-6.1768940">
        <ele>404.6</ele>
        <time>2021-10-16T10:57:32Z</time>
      </trkpt>
      <trkpt lat="40.1128400" lon="-6.1769110">
        <ele>404.8</ele>
        <time>2021-10-16T10:57:33Z</time>
      </trkpt>
      <trkpt lat="40.1128110" lon="-6.1769310">
        <ele>405.0</ele>
        <time>2021-10-16T10:57:34Z</time>
      </trkpt>
      <trkpt lat="40.1126760" lon="-6.1770190">
        <ele>405.2</ele>
        <time>2021-10-16T10:57:39Z</time>
      </trkpt>
      <trkpt lat="40.1125550" lon="-6.1770540">
        <ele>405.6</ele>
        <time>2021-10-16T10:57:43Z</time>
      </trkpt>
      <trkpt lat="40.1124580" lon="-6.1770740">
        <ele>406.0</ele>
        <time>2021-10-16T10:57:46Z</time>
      </trkpt>
      <trkpt lat="40.1122420" lon="-6.1771560">
        <ele>406.2</ele>
        <time>2021-10-16T10:57:52Z</time>
      </trkpt>
      <trkpt lat="40.1120420" lon="-6.1772860">
        <ele>406.0</ele>
        <time>2021-10-16T10:57:58Z</time>
      </trkpt>
      <trkpt lat="40.1119730" lon="-6.1773310">
        <ele>406.0</ele>
        <time>2021-10-16T10:58:00Z</time>
      </trkpt>
      <trkpt lat="40.1118490" lon="-6.1774180">
        <ele>405.8</ele>
        <time>2021-10-16T10:58:03Z</time>
      </trkpt>
      <trkpt lat="40.1117450" lon="-6.1774920">
        <ele>405.4</ele>
        <time>2021-10-16T10:58:06Z</time>
      </trkpt>
      <trkpt lat="40.1116960" lon="-6.1775190">
        <ele>405.4</ele>
        <time>2021-10-16T10:58:07Z</time>
      </trkpt>
      <trkpt lat="40.1116240" lon="-6.1775440">
        <ele>405.2</ele>
        <time>2021-10-16T10:58:09Z</time>
      </trkpt>
      <trkpt lat="40.1115080" lon="-6.1775550">
        <ele>405.0</ele>
        <time>2021-10-16T10:58:12Z</time>
      </trkpt>
      <trkpt lat="40.1114340" lon="-6.1775940">
        <ele>404.4</ele>
        <time>2021-10-16T10:58:16Z</time>
      </trkpt>
      <trkpt lat="40.1114310" lon="-6.1776150">
        <ele>404.0</ele>
        <time>2021-10-16T10:58:20Z</time>
      </trkpt>
      <trkpt lat="40.1114190" lon="-6.1775990">
        <ele>405.2</ele>
        <time>2021-10-16T11:14:52Z</time>
      </trkpt>
      <trkpt lat="40.1114020" lon="-6.1775920">
        <ele>405.2</ele>
        <time>2021-10-16T11:14:53Z</time>
      </trkpt>
      <trkpt lat="40.1113790" lon="-6.1775870">
        <ele>405.2</ele>
        <time>2021-10-16T11:14:54Z</time>
      </trkpt>
      <trkpt lat="40.1112040" lon="-6.1775470">
        <ele>405.0</ele>
        <time>2021-10-16T11:15:00Z</time>
      </trkpt>
      <trkpt lat="40.1109640" lon="-6.1775060">
        <ele>404.6</ele>
        <time>2021-10-16T11:15:06Z</time>
      </trkpt>
      <trkpt lat="40.1108750" lon="-6.1774710">
        <ele>404.0</ele>
        <time>2021-10-16T11:15:08Z</time>
      </trkpt>
      <trkpt lat="40.1107910" lon="-6.1774070">
        <ele>403.8</ele>
        <time>2021-10-16T11:15:10Z</time>
      </trkpt>
      <trkpt lat="40.1107180" lon="-6.1773410">
        <ele>403.6</ele>
        <time>2021-10-16T11:15:12Z</time>
      </trkpt>
      <trkpt lat="40.1106750" lon="-6.1773300">
        <ele>403.4</ele>
        <time>2021-10-16T11:15:13Z</time>
      </trkpt>
      <trkpt lat="40.1106320" lon="-6.1773310">
        <ele>403.2</ele>
        <time>2021-10-16T11:15:14Z</time>
      </trkpt>
      <trkpt lat="40.1105510" lon="-6.1773480">
        <ele>402.8</ele>
        <time>2021-10-16T11:15:16Z</time>
      </trkpt>
      <trkpt lat="40.1104670" lon="-6.1773730">
        <ele>402.6</ele>
        <time>2021-10-16T11:15:18Z</time>
      </trkpt>
      <trkpt lat="40.1103770" lon="-6.1773900">
        <ele>402.2</ele>
        <time>2021-10-16T11:15:20Z</time>
      </trkpt>
      <trkpt lat="40.1103330" lon="-6.1773960">
        <ele>402.2</ele>
        <time>2021-10-16T11:15:21Z</time>
      </trkpt>
      <trkpt lat="40.1102890" lon="-6.1773970">
        <ele>401.8</ele>
        <time>2021-10-16T11:15:22Z</time>
      </trkpt>
      <trkpt lat="40.1102470" lon="-6.1773940">
        <ele>401.4</ele>
        <time>2021-10-16T11:15:23Z</time>
      </trkpt>
      <trkpt lat="40.1101740" lon="-6.1773960">
        <ele>400.8</ele>
        <time>2021-10-16T11:15:25Z</time>
      </trkpt>
      <trkpt lat="40.1101210" lon="-6.1774270">
        <ele>400.4</ele>
        <time>2021-10-16T11:15:27Z</time>
      </trkpt>
      <trkpt lat="40.1100720" lon="-6.1774530">
        <ele>400.0</ele>
        <time>2021-10-16T11:15:29Z</time>
      </trkpt>
      <trkpt lat="40.1100180" lon="-6.1774390">
        <ele>399.8</ele>
        <time>2021-10-16T11:15:31Z</time>
      </trkpt>
      <trkpt lat="40.1099290" lon="-6.1773190">
        <ele>399.6</ele>
        <time>2021-10-16T11:15:36Z</time>
      </trkpt>
      <trkpt lat="40.1098280" lon="-6.1773000">
        <ele>399.6</ele>
        <time>2021-10-16T11:15:40Z</time>
      </trkpt>
      <trkpt lat="40.1096320" lon="-6.1772590">
        <ele>399.2</ele>
        <time>2021-10-16T11:15:45Z</time>
      </trkpt>
      <trkpt lat="40.1094950" lon="-6.1772310">
        <ele>399.2</ele>
        <time>2021-10-16T11:15:48Z</time>
      </trkpt>
      <trkpt lat="40.1093500" lon="-6.1772090">
        <ele>399.0</ele>
        <time>2021-10-16T11:15:51Z</time>
      </trkpt>
      <trkpt lat="40.1092620" lon="-6.1771490">
        <ele>398.8</ele>
        <time>2021-10-16T11:15:53Z</time>
      </trkpt>
      <trkpt lat="40.1091920" lon="-6.1770660">
        <ele>398.4</ele>
        <time>2021-10-16T11:15:55Z</time>
      </trkpt>
      <trkpt lat="40.1091560" lon="-6.1770340">
        <ele>398.2</ele>
        <time>2021-10-16T11:15:56Z</time>
      </trkpt>
      <trkpt lat="40.1090690" lon="-6.1769980">
        <ele>397.8</ele>
        <time>2021-10-16T11:15:58Z</time>
      </trkpt>
      <trkpt lat="40.1090220" lon="-6.1769870">
        <ele>397.6</ele>
        <time>2021-10-16T11:15:59Z</time>
      </trkpt>
      <trkpt lat="40.1088520" lon="-6.1769280">
        <ele>397.6</ele>
        <time>2021-10-16T11:16:03Z</time>
      </trkpt>
      <trkpt lat="40.1086800" lon="-6.1768280">
        <ele>397.2</ele>
        <time>2021-10-16T11:16:07Z</time>
      </trkpt>
      <trkpt lat="40.1086370" lon="-6.1767930">
        <ele>397.2</ele>
        <time>2021-10-16T11:16:08Z</time>
      </trkpt>
      <trkpt lat="40.1084610" lon="-6.1766500">
        <ele>397.0</ele>
        <time>2021-10-16T11:16:12Z</time>
      </trkpt>
      <trkpt lat="40.1083690" lon="-6.1765670">
        <ele>396.6</ele>
        <time>2021-10-16T11:16:14Z</time>
      </trkpt>
      <trkpt lat="40.1083270" lon="-6.1765180">
        <ele>396.4</ele>
        <time>2021-10-16T11:16:15Z</time>
      </trkpt>
      <trkpt lat="40.1081910" lon="-6.1763150">
        <ele>395.4</ele>
        <time>2021-10-16T11:16:19Z</time>
      </trkpt>
      <trkpt lat="40.1081440" lon="-6.1762130">
        <ele>395.2</ele>
        <time>2021-10-16T11:16:21Z</time>
      </trkpt>
      <trkpt lat="40.1081200" lon="-6.1761630">
        <ele>395.2</ele>
        <time>2021-10-16T11:16:22Z</time>
      </trkpt>
      <trkpt lat="40.1080380" lon="-6.1759700">
        <ele>395.0</ele>
        <time>2021-10-16T11:16:26Z</time>
      </trkpt>
      <trkpt lat="40.1080140" lon="-6.1759270">
        <ele>395.0</ele>
        <time>2021-10-16T11:16:27Z</time>
      </trkpt>
      <trkpt lat="40.1079850" lon="-6.1758900">
        <ele>394.8</ele>
        <time>2021-10-16T11:16:28Z</time>
      </trkpt>
      <trkpt lat="40.1079570" lon="-6.1758540">
        <ele>394.8</ele>
        <time>2021-10-16T11:16:29Z</time>
      </trkpt>
      <trkpt lat="40.1079050" lon="-6.1757780">
        <ele>395.0</ele>
        <time>2021-10-16T11:16:31Z</time>
      </trkpt>
      <trkpt lat="40.1078770" lon="-6.1756770">
        <ele>395.0</ele>
        <time>2021-10-16T11:16:33Z</time>
      </trkpt>
      <trkpt lat="40.1078340" lon="-6.1754010">
        <ele>395.0</ele>
        <time>2021-10-16T11:16:39Z</time>
      </trkpt>
      <trkpt lat="40.1078070" lon="-6.1751700">
        <ele>395.0</ele>
        <time>2021-10-16T11:16:44Z</time>
      </trkpt>
      <trkpt lat="40.1077960" lon="-6.1748540">
        <ele>394.4</ele>
        <time>2021-10-16T11:16:50Z</time>
      </trkpt>
      <trkpt lat="40.1077680" lon="-6.1747560">
        <ele>394.0</ele>
        <time>2021-10-16T11:16:52Z</time>
      </trkpt>
      <trkpt lat="40.1076670" lon="-6.1745180">
        <ele>393.8</ele>
        <time>2021-10-16T11:16:58Z</time>
      </trkpt>
      <trkpt lat="40.1076170" lon="-6.1742920">
        <ele>393.6</ele>
        <time>2021-10-16T11:17:03Z</time>
      </trkpt>
      <trkpt lat="40.1076070" lon="-6.1740840">
        <ele>393.4</ele>
        <time>2021-10-16T11:17:07Z</time>
      </trkpt>
      <trkpt lat="40.1075930" lon="-6.1740310">
        <ele>393.2</ele>
        <time>2021-10-16T11:17:08Z</time>
      </trkpt>
      <trkpt lat="40.1075100" lon="-6.1737950">
        <ele>392.6</ele>
        <time>2021-10-16T11:17:12Z</time>
      </trkpt>
      <trkpt lat="40.1074960" lon="-6.1737290">
        <ele>392.4</ele>
        <time>2021-10-16T11:17:13Z</time>
      </trkpt>
      <trkpt lat="40.1074940" lon="-6.1736600">
        <ele>392.0</ele>
        <time>2021-10-16T11:17:14Z</time>
      </trkpt>
      <trkpt lat="40.1075090" lon="-6.1734310">
        <ele>391.2</ele>
        <time>2021-10-16T11:17:17Z</time>
      </trkpt>
      <trkpt lat="40.1075090" lon="-6.1733550">
        <ele>390.6</ele>
        <time>2021-10-16T11:17:18Z</time>
      </trkpt>
      <trkpt lat="40.1074990" lon="-6.1731360">
        <ele>389.2</ele>
        <time>2021-10-16T11:17:21Z</time>
      </trkpt>
      <trkpt lat="40.1074610" lon="-6.1729920">
        <ele>388.4</ele>
        <time>2021-10-16T11:17:23Z</time>
      </trkpt>
      <trkpt lat="40.1074320" lon="-6.1729140">
        <ele>388.2</ele>
        <time>2021-10-16T11:17:24Z</time>
      </trkpt>
      <trkpt lat="40.1074020" lon="-6.1728410">
        <ele>387.6</ele>
        <time>2021-10-16T11:17:25Z</time>
      </trkpt>
      <trkpt lat="40.1073230" lon="-6.1727180">
        <ele>387.2</ele>
        <time>2021-10-16T11:17:27Z</time>
      </trkpt>
      <trkpt lat="40.1072770" lon="-6.1726650">
        <ele>387.0</ele>
        <time>2021-10-16T11:17:28Z</time>
      </trkpt>
      <trkpt lat="40.1072360" lon="-6.1726110">
        <ele>386.8</ele>
        <time>2021-10-16T11:17:29Z</time>
      </trkpt>
      <trkpt lat="40.1072020" lon="-6.1725510">
        <ele>386.6</ele>
        <time>2021-10-16T11:17:30Z</time>
      </trkpt>
      <trkpt lat="40.1071380" lon="-6.1724330">
        <ele>386.2</ele>
        <time>2021-10-16T11:17:32Z</time>
      </trkpt>
      <trkpt lat="40.1070190" lon="-6.1722730">
        <ele>385.6</ele>
        <time>2021-10-16T11:17:35Z</time>
      </trkpt>
      <trkpt lat="40.1069710" lon="-6.1722280">
        <ele>385.6</ele>
        <time>2021-10-16T11:17:36Z</time>
      </trkpt>
      <trkpt lat="40.1069190" lon="-6.1721910">
        <ele>385.6</ele>
        <time>2021-10-16T11:17:37Z</time>
      </trkpt>
      <trkpt lat="40.1068670" lon="-6.1721580">
        <ele>385.6</ele>
        <time>2021-10-16T11:17:38Z</time>
      </trkpt>
      <trkpt lat="40.1066590" lon="-6.1720020">
        <ele>384.4</ele>
        <time>2021-10-16T11:17:43Z</time>
      </trkpt>
      <trkpt lat="40.1066120" lon="-6.1719490">
        <ele>383.8</ele>
        <time>2021-10-16T11:17:47Z</time>
      </trkpt>
      <trkpt lat="40.1066120" lon="-6.1719490">
        <ele>383.6</ele>
        <time>2021-10-16T11:17:49Z</time>
      </trkpt>
      <trkpt lat="40.1065350" lon="-6.1719090">
        <ele>382.8</ele>
        <time>2021-10-16T11:20:10Z</time>
      </trkpt>
      <trkpt lat="40.1065120" lon="-6.1718930">
        <ele>382.8</ele>
        <time>2021-10-16T11:20:11Z</time>
      </trkpt>
      <trkpt lat="40.1063490" lon="-6.1717240">
        <ele>382.6</ele>
        <time>2021-10-16T11:20:18Z</time>
      </trkpt>
      <trkpt lat="40.1061790" lon="-6.1715530">
        <ele>381.8</ele>
        <time>2021-10-16T11:20:24Z</time>
      </trkpt>
      <trkpt lat="40.1061450" lon="-6.1715240">
        <ele>381.6</ele>
        <time>2021-10-16T11:20:25Z</time>
      </trkpt>
      <trkpt lat="40.1059990" lon="-6.1714000">
        <ele>381.4</ele>
        <time>2021-10-16T11:20:29Z</time>
      </trkpt>
      <trkpt lat="40.1059580" lon="-6.1713700">
        <ele>381.4</ele>
        <time>2021-10-16T11:20:30Z</time>
      </trkpt>
      <trkpt lat="40.1058720" lon="-6.1713210">
        <ele>380.8</ele>
        <time>2021-10-16T11:20:32Z</time>
      </trkpt>
      <trkpt lat="40.1058300" lon="-6.1713000">
        <ele>380.8</ele>
        <time>2021-10-16T11:20:33Z</time>
      </trkpt>
      <trkpt lat="40.1056580" lon="-6.1712340">
        <ele>380.2</ele>
        <time>2021-10-16T11:20:37Z</time>
      </trkpt>
      <trkpt lat="40.1055760" lon="-6.1712140">
        <ele>380.2</ele>
        <time>2021-10-16T11:20:39Z</time>
      </trkpt>
      <trkpt lat="40.1054960" lon="-6.1712000">
        <ele>380.0</ele>
        <time>2021-10-16T11:20:41Z</time>
      </trkpt>
      <trkpt lat="40.1054170" lon="-6.1711920">
        <ele>379.8</ele>
        <time>2021-10-16T11:20:43Z</time>
      </trkpt>
      <trkpt lat="40.1053450" lon="-6.1711820">
        <ele>379.4</ele>
        <time>2021-10-16T11:20:45Z</time>
      </trkpt>
      <trkpt lat="40.1050800" lon="-6.1711080">
        <ele>378.8</ele>
        <time>2021-10-16T11:20:52Z</time>
      </trkpt>
      <trkpt lat="40.1049660" lon="-6.1711220">
        <ele>378.6</ele>
        <time>2021-10-16T11:20:55Z</time>
      </trkpt>
      <trkpt lat="40.1049030" lon="-6.1711300">
        <ele>378.2</ele>
        <time>2021-10-16T11:20:57Z</time>
      </trkpt>
      <trkpt lat="40.1048790" lon="-6.1711340">
        <ele>377.8</ele>
        <time>2021-10-16T11:21:00Z</time>
      </trkpt>
      <trkpt lat="40.1048350" lon="-6.1711430">
        <ele>377.2</ele>
        <time>2021-10-16T11:21:49Z</time>
      </trkpt>
      <trkpt lat="40.1047740" lon="-6.1711540">
        <ele>377.2</ele>
        <time>2021-10-16T11:21:51Z</time>
      </trkpt>
      <trkpt lat="40.1046300" lon="-6.1711670">
        <ele>377.0</ele>
        <time>2021-10-16T11:21:55Z</time>
      </trkpt>
      <trkpt lat="40.1045630" lon="-6.1711690">
        <ele>376.8</ele>
        <time>2021-10-16T11:21:57Z</time>
      </trkpt>
      <trkpt lat="40.1044560" lon="-6.1711870">
        <ele>376.4</ele>
        <time>2021-10-16T11:22:01Z</time>
      </trkpt>
      <trkpt lat="40.1043620" lon="-6.1711840">
        <ele>376.2</ele>
        <time>2021-10-16T11:22:04Z</time>
      </trkpt>
      <trkpt lat="40.1040720" lon="-6.1712140">
        <ele>375.8</ele>
        <time>2021-10-16T11:22:12Z</time>
      </trkpt>
      <trkpt lat="40.1038150" lon="-6.1712590">
        <ele>375.8</ele>
        <time>2021-10-16T11:22:19Z</time>
      </trkpt>
      <trkpt lat="40.1036330" lon="-6.1713690">
        <ele>375.6</ele>
        <time>2021-10-16T11:22:25Z</time>
      </trkpt>
      <trkpt lat="40.1035930" lon="-6.1713910">
        <ele>375.4</ele>
        <time>2021-10-16T11:22:26Z</time>
      </trkpt>
      <trkpt lat="40.1034510" lon="-6.1715240">
        <ele>375.0</ele>
        <time>2021-10-16T11:22:31Z</time>
      </trkpt>
      <trkpt lat="40.1032240" lon="-6.1718330">
        <ele>374.8</ele>
        <time>2021-10-16T11:22:40Z</time>
      </trkpt>
      <trkpt lat="40.1029300" lon="-6.1721480">
        <ele>375.0</ele>
        <time>2021-10-16T11:22:50Z</time>
      </trkpt>
      <trkpt lat="40.1027910" lon="-6.1722740">
        <ele>375.2</ele>
        <time>2021-10-16T11:22:55Z</time>
      </trkpt>
      <trkpt lat="40.1027100" lon="-6.1723400">
        <ele>375.4</ele>
        <time>2021-10-16T11:22:58Z</time>
      </trkpt>
      <trkpt lat="40.1025720" lon="-6.1724520">
        <ele>375.4</ele>
        <time>2021-10-16T11:23:03Z</time>
      </trkpt>
      <trkpt lat="40.1024950" lon="-6.1724950">
        <ele>375.4</ele>
        <time>2021-10-16T11:23:06Z</time>
      </trkpt>
      <trkpt lat="40.1024270" lon="-6.1725270">
        <ele>375.4</ele>
        <time>2021-10-16T11:23:09Z</time>
      </trkpt>
      <trkpt lat="40.1023300" lon="-6.1725710">
        <ele>375.4</ele>
        <time>2021-10-16T11:23:13Z</time>
      </trkpt>
      <trkpt lat="40.1023170" lon="-6.1725850">
        <ele>375.4</ele>
        <time>2021-10-16T11:23:14Z</time>
      </trkpt>
      <trkpt lat="40.1022720" lon="-6.1726080">
        <ele>375.2</ele>
        <time>2021-10-16T11:23:18Z</time>
      </trkpt>
      <trkpt lat="40.1022490" lon="-6.1725700">
        <ele>374.8</ele>
        <time>2021-10-16T11:24:43Z</time>
      </trkpt>
      <trkpt lat="40.1022420" lon="-6.1725570">
        <ele>374.8</ele>
        <time>2021-10-16T11:24:44Z</time>
      </trkpt>
      <trkpt lat="40.1022390" lon="-6.1725520">
        <ele>374.8</ele>
        <time>2021-10-16T11:24:45Z</time>
      </trkpt>
      <trkpt lat="40.1022390" lon="-6.1725520">
        <ele>374.8</ele>
        <time>2021-10-16T11:24:46Z</time>
      </trkpt>
      <trkpt lat="40.1021870" lon="-6.1725250">
        <ele>374.2</ele>
        <time>2021-10-16T11:25:54Z</time>
      </trkpt>
      <trkpt lat="40.1021690" lon="-6.1725210">
        <ele>374.2</ele>
        <time>2021-10-16T11:25:55Z</time>
      </trkpt>
      <trkpt lat="40.1021270" lon="-6.1725150">
        <ele>374.2</ele>
        <time>2021-10-16T11:25:57Z</time>
      </trkpt>
      <trkpt lat="40.1019630" lon="-6.1724770">
        <ele>373.8</ele>
        <time>2021-10-16T11:26:03Z</time>
      </trkpt>
      <trkpt lat="40.1017900" lon="-6.1723760">
        <ele>373.4</ele>
        <time>2021-10-16T11:26:08Z</time>
      </trkpt>
      <trkpt lat="40.1017060" lon="-6.1723420">
        <ele>373.2</ele>
        <time>2021-10-16T11:26:10Z</time>
      </trkpt>
      <trkpt lat="40.1015790" lon="-6.1722960">
        <ele>372.6</ele>
        <time>2021-10-16T11:26:13Z</time>
      </trkpt>
      <trkpt lat="40.1013670" lon="-6.1721650">
        <ele>372.0</ele>
        <time>2021-10-16T11:26:19Z</time>
      </trkpt>
      <trkpt lat="40.1013170" lon="-6.1721410">
        <ele>371.8</ele>
        <time>2021-10-16T11:26:21Z</time>
      </trkpt>
      <trkpt lat="40.1011010" lon="-6.1720780">
        <ele>371.6</ele>
        <time>2021-10-16T11:26:29Z</time>
      </trkpt>
      <trkpt lat="40.1008920" lon="-6.1720900">
        <ele>372.6</ele>
        <time>2021-10-16T11:26:36Z</time>
      </trkpt>
      <trkpt lat="40.1008630" lon="-6.1720980">
        <ele>372.8</ele>
        <time>2021-10-16T11:26:37Z</time>
      </trkpt>
      <trkpt lat="40.1007690" lon="-6.1721470">
        <ele>373.0</ele>
        <time>2021-10-16T11:26:40Z</time>
      </trkpt>
      <trkpt lat="40.1006060" lon="-6.1722260">
        <ele>374.0</ele>
        <time>2021-10-16T11:26:46Z</time>
      </trkpt>
      <trkpt lat="40.1005450" lon="-6.1722380">
        <ele>374.2</ele>
        <time>2021-10-16T11:26:48Z</time>
      </trkpt>
      <trkpt lat="40.1004260" lon="-6.1722430">
        <ele>374.6</ele>
        <time>2021-10-16T11:26:52Z</time>
      </trkpt>
      <trkpt lat="40.1002720" lon="-6.1722230">
        <ele>374.6</ele>
        <time>2021-10-16T11:26:57Z</time>
      </trkpt>
      <trkpt lat="40.1002220" lon="-6.1722030">
        <ele>374.8</ele>
        <time>2021-10-16T11:26:59Z</time>
      </trkpt>
      <trkpt lat="40.1000340" lon="-6.1721510">
        <ele>375.2</ele>
        <time>2021-10-16T11:27:07Z</time>
      </trkpt>
      <trkpt lat="40.0999530" lon="-6.1721630">
        <ele>375.2</ele>
        <time>2021-10-16T11:27:09Z</time>
      </trkpt>
      <trkpt lat="40.0997890" lon="-6.1721250">
        <ele>375.8</ele>
        <time>2021-10-16T11:27:15Z</time>
      </trkpt>
      <trkpt lat="40.0996800" lon="-6.1720730">
        <ele>376.4</ele>
        <time>2021-10-16T11:27:19Z</time>
      </trkpt>
      <trkpt lat="40.0995780" lon="-6.1720230">
        <ele>376.6</ele>
        <time>2021-10-16T11:27:23Z</time>
      </trkpt>
      <trkpt lat="40.0993750" lon="-6.1719770">
        <ele>377.2</ele>
        <time>2021-10-16T11:27:31Z</time>
      </trkpt>
      <trkpt lat="40.0993270" lon="-6.1719590">
        <ele>377.4</ele>
        <time>2021-10-16T11:27:33Z</time>
      </trkpt>
      <trkpt lat="40.0992220" lon="-6.1719020">
        <ele>378.2</ele>
        <time>2021-10-16T11:27:38Z</time>
      </trkpt>
      <trkpt lat="40.0992020" lon="-6.1718960">
        <ele>378.4</ele>
        <time>2021-10-16T11:27:39Z</time>
      </trkpt>
      <trkpt lat="40.0991240" lon="-6.1718740">
        <ele>379.0</ele>
        <time>2021-10-16T11:27:43Z</time>
      </trkpt>
      <trkpt lat="40.0991080" lon="-6.1718610">
        <ele>379.2</ele>
        <time>2021-10-16T11:27:44Z</time>
      </trkpt>
      <trkpt lat="40.0990940" lon="-6.1718550">
        <ele>379.4</ele>
        <time>2021-10-16T11:27:46Z</time>
      </trkpt>
      <trkpt lat="40.0989700" lon="-6.1718350">
        <ele>380.0</ele>
        <time>2021-10-16T11:27:51Z</time>
      </trkpt>
      <trkpt lat="40.0989310" lon="-6.1718290">
        <ele>380.0</ele>
        <time>2021-10-16T11:27:53Z</time>
      </trkpt>
      <trkpt lat="40.0988390" lon="-6.1718350">
        <ele>380.4</ele>
        <time>2021-10-16T11:27:57Z</time>
      </trkpt>
      <trkpt lat="40.0988170" lon="-6.1718370">
        <ele>380.6</ele>
        <time>2021-10-16T11:27:58Z</time>
      </trkpt>
      <trkpt lat="40.0987940" lon="-6.1718400">
        <ele>380.6</ele>
        <time>2021-10-16T11:27:59Z</time>
      </trkpt>
      <trkpt lat="40.0987080" lon="-6.1718680">
        <ele>381.0</ele>
        <time>2021-10-16T11:28:03Z</time>
      </trkpt>
      <trkpt lat="40.0986200" lon="-6.1718800">
        <ele>381.2</ele>
        <time>2021-10-16T11:28:07Z</time>
      </trkpt>
      <trkpt lat="40.0985600" lon="-6.1718550">
        <ele>381.6</ele>
        <time>2021-10-16T11:28:10Z</time>
      </trkpt>
      <trkpt lat="40.0985050" lon="-6.1718360">
        <ele>381.8</ele>
        <time>2021-10-16T11:28:13Z</time>
      </trkpt>
      <trkpt lat="40.0983420" lon="-6.1718030">
        <ele>381.8</ele>
        <time>2021-10-16T11:28:19Z</time>
      </trkpt>
      <trkpt lat="40.0981310" lon="-6.1717750">
        <ele>381.8</ele>
        <time>2021-10-16T11:28:26Z</time>
      </trkpt>
      <trkpt lat="40.0979050" lon="-6.1717720">
        <ele>382.6</ele>
        <time>2021-10-16T11:28:34Z</time>
      </trkpt>
      <trkpt lat="40.0978310" lon="-6.1717720">
        <ele>383.0</ele>
        <time>2021-10-16T11:28:37Z</time>
      </trkpt>
      <trkpt lat="40.0976950" lon="-6.1717260">
        <ele>383.6</ele>
        <time>2021-10-16T11:28:43Z</time>
      </trkpt>
      <trkpt lat="40.0976390" lon="-6.1717030">
        <ele>384.0</ele>
        <time>2021-10-16T11:28:46Z</time>
      </trkpt>
      <trkpt lat="40.0975780" lon="-6.1716810">
        <ele>384.2</ele>
        <time>2021-10-16T11:28:49Z</time>
      </trkpt>
      <trkpt lat="40.0975510" lon="-6.1716850">
        <ele>384.4</ele>
        <time>2021-10-16T11:28:51Z</time>
      </trkpt>
      <trkpt lat="40.0975320" lon="-6.1716910">
        <ele>384.6</ele>
        <time>2021-10-16T11:28:52Z</time>
      </trkpt>
      <trkpt lat="40.0975120" lon="-6.1716960">
        <ele>385.0</ele>
        <time>2021-10-16T11:30:23Z</time>
      </trkpt>
      <trkpt lat="40.0974930" lon="-6.1717020">
        <ele>385.0</ele>
        <time>2021-10-16T11:30:24Z</time>
      </trkpt>
      <trkpt lat="40.0974640" lon="-6.1717080">
        <ele>385.0</ele>
        <time>2021-10-16T11:30:25Z</time>
      </trkpt>
      <trkpt lat="40.0973600" lon="-6.1717470">
        <ele>384.8</ele>
        <time>2021-10-16T11:30:28Z</time>
      </trkpt>
      <trkpt lat="40.0972230" lon="-6.1718050">
        <ele>384.6</ele>
        <time>2021-10-16T11:30:32Z</time>
      </trkpt>
      <trkpt lat="40.0971170" lon="-6.1718800">
        <ele>384.6</ele>
        <time>2021-10-16T11:30:36Z</time>
      </trkpt>
      <trkpt lat="40.0970600" lon="-6.1719390">
        <ele>384.6</ele>
        <time>2021-10-16T11:30:39Z</time>
      </trkpt>
      <trkpt lat="40.0969530" lon="-6.1720860">
        <ele>385.2</ele>
        <time>2021-10-16T11:30:47Z</time>
      </trkpt>
      <trkpt lat="40.0969120" lon="-6.1721210">
        <ele>385.6</ele>
        <time>2021-10-16T11:30:53Z</time>
      </trkpt>
      <trkpt lat="40.0969160" lon="-6.1721910">
        <ele>385.8</ele>
        <time>2021-10-16T11:31:19Z</time>
      </trkpt>
      <trkpt lat="40.0969150" lon="-6.1722170">
        <ele>386.0</ele>
        <time>2021-10-16T11:31:20Z</time>
      </trkpt>
      <trkpt lat="40.0969130" lon="-6.1722470">
        <ele>386.0</ele>
        <time>2021-10-16T11:31:21Z</time>
      </trkpt>
      <trkpt lat="40.0968830" lon="-6.1724460">
        <ele>386.4</ele>
        <time>2021-10-16T11:31:27Z</time>
      </trkpt>
      <trkpt lat="40.0968480" lon="-6.1726010">
        <ele>387.0</ele>
        <time>2021-10-16T11:31:32Z</time>
      </trkpt>
      <trkpt lat="40.0968290" lon="-6.1726580">
        <ele>387.4</ele>
        <time>2021-10-16T11:31:34Z</time>
      </trkpt>
      <trkpt lat="40.0967830" lon="-6.1728420">
        <ele>388.0</ele>
        <time>2021-10-16T11:31:40Z</time>
      </trkpt>
      <trkpt lat="40.0967640" lon="-6.1729670">
        <ele>388.4</ele>
        <time>2021-10-16T11:31:44Z</time>
      </trkpt>
      <trkpt lat="40.0967480" lon="-6.1731490">
        <ele>389.2</ele>
        <time>2021-10-16T11:31:50Z</time>
      </trkpt>
      <trkpt lat="40.0967460" lon="-6.1731740">
        <ele>389.4</ele>
        <time>2021-10-16T11:31:51Z</time>
      </trkpt>
      <trkpt lat="40.0967330" lon="-6.1732420">
        <ele>389.8</ele>
        <time>2021-10-16T11:31:54Z</time>
      </trkpt>
      <trkpt lat="40.0967230" lon="-6.1732740">
        <ele>389.8</ele>
        <time>2021-10-16T11:31:57Z</time>
      </trkpt>
      <trkpt lat="40.0967230" lon="-6.1732740">
        <ele>390.0</ele>
        <time>2021-10-16T11:31:59Z</time>
      </trkpt>
      <trkpt lat="40.0966920" lon="-6.1733720">
        <ele>390.4</ele>
        <time>2021-10-16T11:32:17Z</time>
      </trkpt>
      <trkpt lat="40.0966860" lon="-6.1733920">
        <ele>390.4</ele>
        <time>2021-10-16T11:32:18Z</time>
      </trkpt>
      <trkpt lat="40.0966410" lon="-6.1734680">
        <ele>390.4</ele>
        <time>2021-10-16T11:32:23Z</time>
      </trkpt>
      <trkpt lat="40.0966030" lon="-6.1735080">
        <ele>390.8</ele>
        <time>2021-10-16T11:32:27Z</time>
      </trkpt>
      <trkpt lat="40.0965910" lon="-6.1735250">
        <ele>390.8</ele>
        <time>2021-10-16T11:32:31Z</time>
      </trkpt>
      <trkpt lat="40.0965670" lon="-6.1735750">
        <ele>391.0</ele>
        <time>2021-10-16T11:32:51Z</time>
      </trkpt>
      <trkpt lat="40.0965480" lon="-6.1736000">
        <ele>391.0</ele>
        <time>2021-10-16T11:32:52Z</time>
      </trkpt>
      <trkpt lat="40.0964910" lon="-6.1736880">
        <ele>391.2</ele>
        <time>2021-10-16T11:32:56Z</time>
      </trkpt>
      <trkpt lat="40.0964290" lon="-6.1737630">
        <ele>391.6</ele>
        <time>2021-10-16T11:33:02Z</time>
      </trkpt>
      <trkpt lat="40.0963910" lon="-6.1738010">
        <ele>391.6</ele>
        <time>2021-10-16T11:33:04Z</time>
      </trkpt>
      <trkpt lat="40.0962090" lon="-6.1739420">
        <ele>391.6</ele>
        <time>2021-10-16T11:33:11Z</time>
      </trkpt>
      <trkpt lat="40.0960490" lon="-6.1740280">
        <ele>391.2</ele>
        <time>2021-10-16T11:33:15Z</time>
      </trkpt>
      <trkpt lat="40.0960160" lon="-6.1740490">
        <ele>391.0</ele>
        <time>2021-10-16T11:33:16Z</time>
      </trkpt>
      <trkpt lat="40.0958900" lon="-6.1741370">
        <ele>390.8</ele>
        <time>2021-10-16T11:33:19Z</time>
      </trkpt>
      <trkpt lat="40.0958410" lon="-6.1741800">
        <ele>390.4</ele>
        <time>2021-10-16T11:33:20Z</time>
      </trkpt>
      <trkpt lat="40.0958060" lon="-6.1742100">
        <ele>390.2</ele>
        <time>2021-10-16T11:33:21Z</time>
      </trkpt>
      <trkpt lat="40.0957160" lon="-6.1742790">
        <ele>389.4</ele>
        <time>2021-10-16T11:33:23Z</time>
      </trkpt>
      <trkpt lat="40.0956690" lon="-6.1743090">
        <ele>389.2</ele>
        <time>2021-10-16T11:33:24Z</time>
      </trkpt>
      <trkpt lat="40.0955440" lon="-6.1744070">
        <ele>388.6</ele>
        <time>2021-10-16T11:33:27Z</time>
      </trkpt>
      <trkpt lat="40.0954660" lon="-6.1744770">
        <ele>388.4</ele>
        <time>2021-10-16T11:33:29Z</time>
      </trkpt>
      <trkpt lat="40.0954140" lon="-6.1745150">
        <ele>388.2</ele>
        <time>2021-10-16T11:33:30Z</time>
      </trkpt>
      <trkpt lat="40.0952930" lon="-6.1746080">
        <ele>388.0</ele>
        <time>2021-10-16T11:33:33Z</time>
      </trkpt>
      <trkpt lat="40.0952560" lon="-6.1746500">
        <ele>387.8</ele>
        <time>2021-10-16T11:33:34Z</time>
      </trkpt>
      <trkpt lat="40.0952150" lon="-6.1747090">
        <ele>387.8</ele>
        <time>2021-10-16T11:33:35Z</time>
      </trkpt>
      <trkpt lat="40.0951010" lon="-6.1749070">
        <ele>387.2</ele>
        <time>2021-10-16T11:33:39Z</time>
      </trkpt>
      <trkpt lat="40.0950660" lon="-6.1749680">
        <ele>387.0</ele>
        <time>2021-10-16T11:33:40Z</time>
      </trkpt>
      <trkpt lat="40.0950070" lon="-6.1750600">
        <ele>386.4</ele>
        <time>2021-10-16T11:33:42Z</time>
      </trkpt>
      <trkpt lat="40.0949700" lon="-6.1751030">
        <ele>386.2</ele>
        <time>2021-10-16T11:33:43Z</time>
      </trkpt>
      <trkpt lat="40.0948910" lon="-6.1751880">
        <ele>385.8</ele>
        <time>2021-10-16T11:33:45Z</time>
      </trkpt>
      <trkpt lat="40.0947960" lon="-6.1753170">
        <ele>385.2</ele>
        <time>2021-10-16T11:33:49Z</time>
      </trkpt>
      <trkpt lat="40.0947880" lon="-6.1753330">
        <ele>385.2</ele>
        <time>2021-10-16T11:33:50Z</time>
      </trkpt>
      <trkpt lat="40.0947830" lon="-6.1753420">
        <ele>384.2</ele>
        <time>2021-10-16T11:33:53Z</time>
      </trkpt>
      <trkpt lat="40.0947680" lon="-6.1753880">
        <ele>383.8</ele>
        <time>2021-10-16T11:36:18Z</time>
      </trkpt>
      <trkpt lat="40.0947390" lon="-6.1754580">
        <ele>383.8</ele>
        <time>2021-10-16T11:36:20Z</time>
      </trkpt>
      <trkpt lat="40.0946550" lon="-6.1756120">
        <ele>383.4</ele>
        <time>2021-10-16T11:36:24Z</time>
      </trkpt>
      <trkpt lat="40.0946250" lon="-6.1757080">
        <ele>383.2</ele>
        <time>2021-10-16T11:36:26Z</time>
      </trkpt>
      <trkpt lat="40.0945650" lon="-6.1758560">
        <ele>382.6</ele>
        <time>2021-10-16T11:36:29Z</time>
      </trkpt>
      <trkpt lat="40.0945170" lon="-6.1759600">
        <ele>382.0</ele>
        <time>2021-10-16T11:36:31Z</time>
      </trkpt>
      <trkpt lat="40.0944670" lon="-6.1760800">
        <ele>381.6</ele>
        <time>2021-10-16T11:36:33Z</time>
      </trkpt>
      <trkpt lat="40.0944350" lon="-6.1762120">
        <ele>381.4</ele>
        <time>2021-10-16T11:36:35Z</time>
      </trkpt>
      <trkpt lat="40.0944220" lon="-6.1762820">
        <ele>381.2</ele>
        <time>2021-10-16T11:36:36Z</time>
      </trkpt>
      <trkpt lat="40.0943690" lon="-6.1764870">
        <ele>380.8</ele>
        <time>2021-10-16T11:36:39Z</time>
      </trkpt>
      <trkpt lat="40.0942960" lon="-6.1766730">
        <ele>380.4</ele>
        <time>2021-10-16T11:36:42Z</time>
      </trkpt>
      <trkpt lat="40.0942470" lon="-6.1767910">
        <ele>380.0</ele>
        <time>2021-10-16T11:36:44Z</time>
      </trkpt>
      <trkpt lat="40.0941780" lon="-6.1768890">
        <ele>379.6</ele>
        <time>2021-10-16T11:36:46Z</time>
      </trkpt>
      <trkpt lat="40.0941390" lon="-6.1769320">
        <ele>379.4</ele>
        <time>2021-10-16T11:36:47Z</time>
      </trkpt>
      <trkpt lat="40.0940590" lon="-6.1770070">
        <ele>379.2</ele>
        <time>2021-10-16T11:36:49Z</time>
      </trkpt>
      <trkpt lat="40.0939250" lon="-6.1771520">
        <ele>379.0</ele>
        <time>2021-10-16T11:36:53Z</time>
      </trkpt>
      <trkpt lat="40.0937380" lon="-6.1773620">
        <ele>378.6</ele>
        <time>2021-10-16T11:37:00Z</time>
      </trkpt>
      <trkpt lat="40.0935390" lon="-6.1776180">
        <ele>378.4</ele>
        <time>2021-10-16T11:37:07Z</time>
      </trkpt>
      <trkpt lat="40.0934820" lon="-6.1777030">
        <ele>378.2</ele>
        <time>2021-10-16T11:37:09Z</time>
      </trkpt>
      <trkpt lat="40.0934530" lon="-6.1777440">
        <ele>378.2</ele>
        <time>2021-10-16T11:37:10Z</time>
      </trkpt>
      <trkpt lat="40.0933860" lon="-6.1778170">
        <ele>377.8</ele>
        <time>2021-10-16T11:37:12Z</time>
      </trkpt>
      <trkpt lat="40.0932860" lon="-6.1779030">
        <ele>377.2</ele>
        <time>2021-10-16T11:37:15Z</time>
      </trkpt>
      <trkpt lat="40.0932240" lon="-6.1779470">
        <ele>376.8</ele>
        <time>2021-10-16T11:37:17Z</time>
      </trkpt>
      <trkpt lat="40.0930640" lon="-6.1780720">
        <ele>376.4</ele>
        <time>2021-10-16T11:37:22Z</time>
      </trkpt>
      <trkpt lat="40.0929900" lon="-6.1781220">
        <ele>376.0</ele>
        <time>2021-10-16T11:37:24Z</time>
      </trkpt>
      <trkpt lat="40.0929130" lon="-6.1781880">
        <ele>376.0</ele>
        <time>2021-10-16T11:37:26Z</time>
      </trkpt>
      <trkpt lat="40.0928720" lon="-6.1782190">
        <ele>375.8</ele>
        <time>2021-10-16T11:37:27Z</time>
      </trkpt>
      <trkpt lat="40.0927080" lon="-6.1783570">
        <ele>375.4</ele>
        <time>2021-10-16T11:37:31Z</time>
      </trkpt>
      <trkpt lat="40.0926090" lon="-6.1784390">
        <ele>375.0</ele>
        <time>2021-10-16T11:37:34Z</time>
      </trkpt>
      <trkpt lat="40.0925880" lon="-6.1784520">
        <ele>375.0</ele>
        <time>2021-10-16T11:37:35Z</time>
      </trkpt>
      <trkpt lat="40.0925540" lon="-6.1784840">
        <ele>374.6</ele>
        <time>2021-10-16T11:37:37Z</time>
      </trkpt>
      <trkpt lat="40.0925320" lon="-6.1785010">
        <ele>374.4</ele>
        <time>2021-10-16T11:37:38Z</time>
      </trkpt>
      <trkpt lat="40.0925110" lon="-6.1785170">
        <ele>373.8</ele>
        <time>2021-10-16T11:37:57Z</time>
      </trkpt>
      <trkpt lat="40.0924890" lon="-6.1785340">
        <ele>373.8</ele>
        <time>2021-10-16T11:37:58Z</time>
      </trkpt>
      <trkpt lat="40.0923520" lon="-6.1786590">
        <ele>373.6</ele>
        <time>2021-10-16T11:38:02Z</time>
      </trkpt>
      <trkpt lat="40.0922760" lon="-6.1787170">
        <ele>373.6</ele>
        <time>2021-10-16T11:38:04Z</time>
      </trkpt>
      <trkpt lat="40.0920890" lon="-6.1788890">
        <ele>373.4</ele>
        <time>2021-10-16T11:38:10Z</time>
      </trkpt>
      <trkpt lat="40.0919620" lon="-6.1789730">
        <ele>373.0</ele>
        <time>2021-10-16T11:38:15Z</time>
      </trkpt>
      <trkpt lat="40.0919470" lon="-6.1789980">
        <ele>373.0</ele>
        <time>2021-10-16T11:38:16Z</time>
      </trkpt>
      <trkpt lat="40.0918670" lon="-6.1790810">
        <ele>372.6</ele>
        <time>2021-10-16T11:38:20Z</time>
      </trkpt>
      <trkpt lat="40.0918450" lon="-6.1791030">
        <ele>372.6</ele>
        <time>2021-10-16T11:38:21Z</time>
      </trkpt>
      <trkpt lat="40.0917010" lon="-6.1792450">
        <ele>371.8</ele>
        <time>2021-10-16T11:38:27Z</time>
      </trkpt>
      <trkpt lat="40.0915940" lon="-6.1794520">
        <ele>371.6</ele>
        <time>2021-10-16T11:38:33Z</time>
      </trkpt>
      <trkpt lat="40.0913350" lon="-6.1796410">
        <ele>370.8</ele>
        <time>2021-10-16T11:38:42Z</time>
      </trkpt>
      <trkpt lat="40.0911660" lon="-6.1797200">
        <ele>370.6</ele>
        <time>2021-10-16T11:38:49Z</time>
      </trkpt>
      <trkpt lat="40.0910540" lon="-6.1797710">
        <ele>370.4</ele>
        <time>2021-10-16T11:38:53Z</time>
      </trkpt>
      <trkpt lat="40.0909950" lon="-6.1797610">
        <ele>370.2</ele>
        <time>2021-10-16T11:38:55Z</time>
      </trkpt>
      <trkpt lat="40.0909000" lon="-6.1797870">
        <ele>370.2</ele>
        <time>2021-10-16T11:38:59Z</time>
      </trkpt>
      <trkpt lat="40.0908560" lon="-6.1798960">
        <ele>370.0</ele>
        <time>2021-10-16T11:39:04Z</time>
      </trkpt>
      <trkpt lat="40.0908550" lon="-6.1799020">
        <ele>369.8</ele>
        <time>2021-10-16T11:39:07Z</time>
      </trkpt>
      <trkpt lat="40.0908490" lon="-6.1798600">
        <ele>369.8</ele>
        <time>2021-10-16T11:41:17Z</time>
      </trkpt>
      <trkpt lat="40.0908320" lon="-6.1797590">
        <ele>369.8</ele>
        <time>2021-10-16T11:41:23Z</time>
      </trkpt>
      <trkpt lat="40.0908310" lon="-6.1797450">
        <ele>369.8</ele>
        <time>2021-10-16T11:41:24Z</time>
      </trkpt>
      <trkpt lat="40.0908310" lon="-6.1797260">
        <ele>369.8</ele>
        <time>2021-10-16T11:41:27Z</time>
      </trkpt>
      <trkpt lat="40.0908310" lon="-6.1797260">
        <ele>369.8</ele>
        <time>2021-10-16T11:41:28Z</time>
      </trkpt>
      <trkpt lat="40.0908520" lon="-6.1797810">
        <ele>370.4</ele>
        <time>2021-10-16T11:41:41Z</time>
      </trkpt>
      <trkpt lat="40.0908600" lon="-6.1797990">
        <ele>370.6</ele>
        <time>2021-10-16T11:41:42Z</time>
      </trkpt>
      <trkpt lat="40.0908850" lon="-6.1798590">
        <ele>370.0</ele>
        <time>2021-10-16T11:41:47Z</time>
      </trkpt>
      <trkpt lat="40.0908850" lon="-6.1798590">
        <ele>370.0</ele>
        <time>2021-10-16T11:41:48Z</time>
      </trkpt>
      <trkpt lat="40.0908840" lon="-6.1798960">
        <ele>369.8</ele>
        <time>2021-10-16T11:41:58Z</time>
      </trkpt>
      <trkpt lat="40.0909000" lon="-6.1799550">
        <ele>369.8</ele>
        <time>2021-10-16T11:42:00Z</time>
      </trkpt>
      <trkpt lat="40.0909610" lon="-6.1801380">
        <ele>369.6</ele>
        <time>2021-10-16T11:42:05Z</time>
      </trkpt>
      <trkpt lat="40.0909870" lon="-6.1802110">
        <ele>369.4</ele>
        <time>2021-10-16T11:42:07Z</time>
      </trkpt>
      <trkpt lat="40.0910900" lon="-6.1803790">
        <ele>369.4</ele>
        <time>2021-10-16T11:42:13Z</time>
      </trkpt>
      <trkpt lat="40.0911560" lon="-6.1805180">
        <ele>369.6</ele>
        <time>2021-10-16T11:42:19Z</time>
      </trkpt>
      <trkpt lat="40.0912190" lon="-6.1806190">
        <ele>369.6</ele>
        <time>2021-10-16T11:42:24Z</time>
      </trkpt>
      <trkpt lat="40.0913110" lon="-6.1807840">
        <ele>369.8</ele>
        <time>2021-10-16T11:42:32Z</time>
      </trkpt>
      <trkpt lat="40.0913630" lon="-6.1808800">
        <ele>370.0</ele>
        <time>2021-10-16T11:42:38Z</time>
      </trkpt>
      <trkpt lat="40.0913730" lon="-6.1808990">
        <ele>370.2</ele>
        <time>2021-10-16T11:42:43Z</time>
      </trkpt>
      <trkpt lat="40.0913910" lon="-6.1809570">
        <ele>370.4</ele>
        <time>2021-10-16T11:42:47Z</time>
      </trkpt>
      <trkpt lat="40.0914060" lon="-6.1809940">
        <ele>370.4</ele>
        <time>2021-10-16T11:42:50Z</time>
      </trkpt>
      <trkpt lat="40.0914170" lon="-6.1810200">
        <ele>370.6</ele>
        <time>2021-10-16T11:42:52Z</time>
      </trkpt>
      <trkpt lat="40.0914270" lon="-6.1810470">
        <ele>370.6</ele>
        <time>2021-10-16T11:42:54Z</time>
      </trkpt>
      <trkpt lat="40.0914360" lon="-6.1810750">
        <ele>370.6</ele>
        <time>2021-10-16T11:42:56Z</time>
      </trkpt>
      <trkpt lat="40.0914480" lon="-6.1811120">
        <ele>370.6</ele>
        <time>2021-10-16T11:42:59Z</time>
      </trkpt>
      <trkpt lat="40.0914560" lon="-6.1811260">
        <ele>370.8</ele>
        <time>2021-10-16T11:43:02Z</time>
      </trkpt>
      <trkpt lat="40.0914570" lon="-6.1811270">
        <ele>370.8</ele>
        <time>2021-10-16T11:43:03Z</time>
      </trkpt>
      <trkpt lat="40.0914550" lon="-6.1813380">
        <ele>371.0</ele>
        <time>2021-10-16T11:43:17Z</time>
      </trkpt>
      <trkpt lat="40.0914490" lon="-6.1813550">
        <ele>371.0</ele>
        <time>2021-10-16T11:43:18Z</time>
      </trkpt>
      <trkpt lat="40.0914420" lon="-6.1813910">
        <ele>371.0</ele>
        <time>2021-10-16T11:43:20Z</time>
      </trkpt>
      <trkpt lat="40.0914390" lon="-6.1814230">
        <ele>371.0</ele>
        <time>2021-10-16T11:43:22Z</time>
      </trkpt>
      <trkpt lat="40.0914390" lon="-6.1814330">
        <ele>371.0</ele>
        <time>2021-10-16T11:43:25Z</time>
      </trkpt>
      <trkpt lat="40.0914330" lon="-6.1814950">
        <ele>371.0</ele>
        <time>2021-10-16T11:43:28Z</time>
      </trkpt>
      <trkpt lat="40.0914300" lon="-6.1815880">
        <ele>371.2</ele>
        <time>2021-10-16T11:43:31Z</time>
      </trkpt>
      <trkpt lat="40.0914250" lon="-6.1816770">
        <ele>371.2</ele>
        <time>2021-10-16T11:43:34Z</time>
      </trkpt>
      <trkpt lat="40.0914190" lon="-6.1817690">
        <ele>371.4</ele>
        <time>2021-10-16T11:43:37Z</time>
      </trkpt>
      <trkpt lat="40.0914120" lon="-6.1818000">
        <ele>371.4</ele>
        <time>2021-10-16T11:43:38Z</time>
      </trkpt>
      <trkpt lat="40.0913850" lon="-6.1819290">
        <ele>371.8</ele>
        <time>2021-10-16T11:43:42Z</time>
      </trkpt>
      <trkpt lat="40.0913530" lon="-6.1819960">
        <ele>371.6</ele>
        <time>2021-10-16T11:43:45Z</time>
      </trkpt>
      <trkpt lat="40.0913290" lon="-6.1820390">
        <ele>371.4</ele>
        <time>2021-10-16T11:43:47Z</time>
      </trkpt>
      <trkpt lat="40.0913200" lon="-6.1820820">
        <ele>371.4</ele>
        <time>2021-10-16T11:43:49Z</time>
      </trkpt>
      <trkpt lat="40.0913150" lon="-6.1821110">
        <ele>371.6</ele>
        <time>2021-10-16T11:43:50Z</time>
      </trkpt>
      <trkpt lat="40.0913230" lon="-6.1822730">
        <ele>371.2</ele>
        <time>2021-10-16T11:43:55Z</time>
      </trkpt>
      <trkpt lat="40.0914220" lon="-6.1823870">
        <ele>371.0</ele>
        <time>2021-10-16T11:44:01Z</time>
      </trkpt>
      <trkpt lat="40.0915110" lon="-6.1824810">
        <ele>371.0</ele>
        <time>2021-10-16T11:44:07Z</time>
      </trkpt>
      <trkpt lat="40.0916210" lon="-6.1825900">
        <ele>371.6</ele>
        <time>2021-10-16T11:44:15Z</time>
      </trkpt>
      <trkpt lat="40.0916480" lon="-6.1826750">
        <ele>371.8</ele>
        <time>2021-10-16T11:44:19Z</time>
      </trkpt>
      <trkpt lat="40.0916470" lon="-6.1826970">
        <ele>372.0</ele>
        <time>2021-10-16T11:44:20Z</time>
      </trkpt>
      <trkpt lat="40.0916410" lon="-6.1827160">
        <ele>372.0</ele>
        <time>2021-10-16T11:44:21Z</time>
      </trkpt>
      <trkpt lat="40.0916170" lon="-6.1827810">
        <ele>372.0</ele>
        <time>2021-10-16T11:44:26Z</time>
      </trkpt>
      <trkpt lat="40.0915720" lon="-6.1828850">
        <ele>372.0</ele>
        <time>2021-10-16T11:44:33Z</time>
      </trkpt>
      <trkpt lat="40.0915700" lon="-6.1828910">
        <ele>372.0</ele>
        <time>2021-10-16T11:44:34Z</time>
      </trkpt>
      <trkpt lat="40.0915700" lon="-6.1828910">
        <ele>372.0</ele>
        <time>2021-10-16T11:44:36Z</time>
      </trkpt>
      <trkpt lat="40.0915270" lon="-6.1828910">
        <ele>371.8</ele>
        <time>2021-10-16T11:45:46Z</time>
      </trkpt>
      <trkpt lat="40.0915060" lon="-6.1828900">
        <ele>371.6</ele>
        <time>2021-10-16T11:45:47Z</time>
      </trkpt>
      <trkpt lat="40.0913180" lon="-6.1828620">
        <ele>371.2</ele>
        <time>2021-10-16T11:45:53Z</time>
      </trkpt>
      <trkpt lat="40.0912210" lon="-6.1828790">
        <ele>370.8</ele>
        <time>2021-10-16T11:45:56Z</time>
      </trkpt>
      <trkpt lat="40.0911410" lon="-6.1828880">
        <ele>370.4</ele>
        <time>2021-10-16T11:45:59Z</time>
      </trkpt>
      <trkpt lat="40.0909470" lon="-6.1829370">
        <ele>369.6</ele>
        <time>2021-10-16T11:46:05Z</time>
      </trkpt>
      <trkpt lat="40.0909170" lon="-6.1829530">
        <ele>369.6</ele>
        <time>2021-10-16T11:46:06Z</time>
      </trkpt>
      <trkpt lat="40.0907310" lon="-6.1829990">
        <ele>368.6</ele>
        <time>2021-10-16T11:46:12Z</time>
      </trkpt>
      <trkpt lat="40.0907010" lon="-6.1830110">
        <ele>368.6</ele>
        <time>2021-10-16T11:46:13Z</time>
      </trkpt>
      <trkpt lat="40.0904850" lon="-6.1830990">
        <ele>368.2</ele>
        <time>2021-10-16T11:46:20Z</time>
      </trkpt>
      <trkpt lat="40.0903970" lon="-6.1831600">
        <ele>367.6</ele>
        <time>2021-10-16T11:46:25Z</time>
      </trkpt>
      <trkpt lat="40.0903930" lon="-6.1831730">
        <ele>367.6</ele>
        <time>2021-10-16T11:46:26Z</time>
      </trkpt>
      <trkpt lat="40.0903930" lon="-6.1831810">
        <ele>367.4</ele>
        <time>2021-10-16T11:46:29Z</time>
      </trkpt>
      <trkpt lat="40.0903780" lon="-6.1832890">
        <ele>367.2</ele>
        <time>2021-10-16T11:47:53Z</time>
      </trkpt>
      <trkpt lat="40.0903570" lon="-6.1832910">
        <ele>367.2</ele>
        <time>2021-10-16T11:47:54Z</time>
      </trkpt>
      <trkpt lat="40.0903320" lon="-6.1832980">
        <ele>367.2</ele>
        <time>2021-10-16T11:47:55Z</time>
      </trkpt>
      <trkpt lat="40.0901500" lon="-6.1833990">
        <ele>367.8</ele>
        <time>2021-10-16T11:48:01Z</time>
      </trkpt>
      <trkpt lat="40.0899870" lon="-6.1834470">
        <ele>367.8</ele>
        <time>2021-10-16T11:48:06Z</time>
      </trkpt>
      <trkpt lat="40.0898670" lon="-6.1834780">
        <ele>368.0</ele>
        <time>2021-10-16T11:48:10Z</time>
      </trkpt>
      <trkpt lat="40.0897330" lon="-6.1835240">
        <ele>368.0</ele>
        <time>2021-10-16T11:48:14Z</time>
      </trkpt>
      <trkpt lat="40.0894810" lon="-6.1836320">
        <ele>367.6</ele>
        <time>2021-10-16T11:48:21Z</time>
      </trkpt>
      <trkpt lat="40.0892260" lon="-6.1837350">
        <ele>367.6</ele>
        <time>2021-10-16T11:48:28Z</time>
      </trkpt>
      <trkpt lat="40.0891900" lon="-6.1837480">
        <ele>367.6</ele>
        <time>2021-10-16T11:48:29Z</time>
      </trkpt>
      <trkpt lat="40.0888890" lon="-6.1838160">
        <ele>367.4</ele>
        <time>2021-10-16T11:48:37Z</time>
      </trkpt>
      <trkpt lat="40.0886510" lon="-6.1838720">
        <ele>367.2</ele>
        <time>2021-10-16T11:48:43Z</time>
      </trkpt>
      <trkpt lat="40.0886130" lon="-6.1838770">
        <ele>367.0</ele>
        <time>2021-10-16T11:48:44Z</time>
      </trkpt>
      <trkpt lat="40.0885750" lon="-6.1838750">
        <ele>366.8</ele>
        <time>2021-10-16T11:48:45Z</time>
      </trkpt>
      <trkpt lat="40.0884640" lon="-6.1838540">
        <ele>366.6</ele>
        <time>2021-10-16T11:48:48Z</time>
      </trkpt>
      <trkpt lat="40.0884270" lon="-6.1838530">
        <ele>366.4</ele>
        <time>2021-10-16T11:48:49Z</time>
      </trkpt>
      <trkpt lat="40.0883500" lon="-6.1838750">
        <ele>366.2</ele>
        <time>2021-10-16T11:48:51Z</time>
      </trkpt>
      <trkpt lat="40.0882800" lon="-6.1839250">
        <ele>366.0</ele>
        <time>2021-10-16T11:48:53Z</time>
      </trkpt>
      <trkpt lat="40.0882120" lon="-6.1839970">
        <ele>365.8</ele>
        <time>2021-10-16T11:48:55Z</time>
      </trkpt>
      <trkpt lat="40.0881640" lon="-6.1840910">
        <ele>365.4</ele>
        <time>2021-10-16T11:48:57Z</time>
      </trkpt>
      <trkpt lat="40.0880440" lon="-6.1842080">
        <ele>365.2</ele>
        <time>2021-10-16T11:49:00Z</time>
      </trkpt>
      <trkpt lat="40.0880000" lon="-6.1842410">
        <ele>365.0</ele>
        <time>2021-10-16T11:49:01Z</time>
      </trkpt>
      <trkpt lat="40.0878260" lon="-6.1843890">
        <ele>364.4</ele>
        <time>2021-10-16T11:49:05Z</time>
      </trkpt>
      <trkpt lat="40.0877830" lon="-6.1844260">
        <ele>364.2</ele>
        <time>2021-10-16T11:49:06Z</time>
      </trkpt>
      <trkpt lat="40.0877400" lon="-6.1844560">
        <ele>363.8</ele>
        <time>2021-10-16T11:49:07Z</time>
      </trkpt>
      <trkpt lat="40.0877030" lon="-6.1844870">
        <ele>363.8</ele>
        <time>2021-10-16T11:49:08Z</time>
      </trkpt>
      <trkpt lat="40.0876490" lon="-6.1845720">
        <ele>363.6</ele>
        <time>2021-10-16T11:49:10Z</time>
      </trkpt>
      <trkpt lat="40.0876310" lon="-6.1846250">
        <ele>363.4</ele>
        <time>2021-10-16T11:49:11Z</time>
      </trkpt>
      <trkpt lat="40.0875970" lon="-6.1847270">
        <ele>363.2</ele>
        <time>2021-10-16T11:49:13Z</time>
      </trkpt>
      <trkpt lat="40.0875550" lon="-6.1847770">
        <ele>363.2</ele>
        <time>2021-10-16T11:49:15Z</time>
      </trkpt>
      <trkpt lat="40.0874330" lon="-6.1848160">
        <ele>363.2</ele>
        <time>2021-10-16T11:49:21Z</time>
      </trkpt>
      <trkpt lat="40.0873260" lon="-6.1849010">
        <ele>364.2</ele>
        <time>2021-10-16T11:49:26Z</time>
      </trkpt>
      <trkpt lat="40.0872990" lon="-6.1849520">
        <ele>364.4</ele>
        <time>2021-10-16T11:49:28Z</time>
      </trkpt>
      <trkpt lat="40.0872730" lon="-6.1849740">
        <ele>364.4</ele>
        <time>2021-10-16T11:49:29Z</time>
      </trkpt>
      <trkpt lat="40.0872130" lon="-6.1850050">
        <ele>364.6</ele>
        <time>2021-10-16T11:49:31Z</time>
      </trkpt>
      <trkpt lat="40.0870040" lon="-6.1851090">
        <ele>365.0</ele>
        <time>2021-10-16T11:49:38Z</time>
      </trkpt>
      <trkpt lat="40.0868820" lon="-6.1851870">
        <ele>365.6</ele>
        <time>2021-10-16T11:49:42Z</time>
      </trkpt>
      <trkpt lat="40.0868000" lon="-6.1852460">
        <ele>365.8</ele>
        <time>2021-10-16T11:49:45Z</time>
      </trkpt>
      <trkpt lat="40.0867760" lon="-6.1852720">
        <ele>365.8</ele>
        <time>2021-10-16T11:49:46Z</time>
      </trkpt>
      <trkpt lat="40.0866860" lon="-6.1853560">
        <ele>365.8</ele>
        <time>2021-10-16T11:49:49Z</time>
      </trkpt>
      <trkpt lat="40.0866520" lon="-6.1853820">
        <ele>366.0</ele>
        <time>2021-10-16T11:49:50Z</time>
      </trkpt>
      <trkpt lat="40.0866170" lon="-6.1854070">
        <ele>366.0</ele>
        <time>2021-10-16T11:49:51Z</time>
      </trkpt>
      <trkpt lat="40.0865800" lon="-6.1854380">
        <ele>366.0</ele>
        <time>2021-10-16T11:49:52Z</time>
      </trkpt>
      <trkpt lat="40.0864930" lon="-6.1854990">
        <ele>365.8</ele>
        <time>2021-10-16T11:49:54Z</time>
      </trkpt>
      <trkpt lat="40.0864120" lon="-6.1855570">
        <ele>365.6</ele>
        <time>2021-10-16T11:49:56Z</time>
      </trkpt>
      <trkpt lat="40.0863250" lon="-6.1856100">
        <ele>365.2</ele>
        <time>2021-10-16T11:49:58Z</time>
      </trkpt>
      <trkpt lat="40.0862370" lon="-6.1856660">
        <ele>364.4</ele>
        <time>2021-10-16T11:50:00Z</time>
      </trkpt>
      <trkpt lat="40.0861090" lon="-6.1857540">
        <ele>364.2</ele>
        <time>2021-10-16T11:50:03Z</time>
      </trkpt>
      <trkpt lat="40.0860240" lon="-6.1858390">
        <ele>363.8</ele>
        <time>2021-10-16T11:50:05Z</time>
      </trkpt>
      <trkpt lat="40.0859480" lon="-6.1859430">
        <ele>363.2</ele>
        <time>2021-10-16T11:50:07Z</time>
      </trkpt>
      <trkpt lat="40.0858620" lon="-6.1861360">
        <ele>362.6</ele>
        <time>2021-10-16T11:50:10Z</time>
      </trkpt>
      <trkpt lat="40.0858150" lon="-6.1862680">
        <ele>362.2</ele>
        <time>2021-10-16T11:50:12Z</time>
      </trkpt>
      <trkpt lat="40.0857840" lon="-6.1864100">
        <ele>360.8</ele>
        <time>2021-10-16T11:50:14Z</time>
      </trkpt>
      <trkpt lat="40.0857750" lon="-6.1864810">
        <ele>360.4</ele>
        <time>2021-10-16T11:50:15Z</time>
      </trkpt>
      <trkpt lat="40.0857630" lon="-6.1866560">
        <ele>359.8</ele>
        <time>2021-10-16T11:50:18Z</time>
      </trkpt>
      <trkpt lat="40.0857610" lon="-6.1866920">
        <ele>359.6</ele>
        <time>2021-10-16T11:50:19Z</time>
      </trkpt>
      <trkpt lat="40.0857550" lon="-6.1867230">
        <ele>359.8</ele>
        <time>2021-10-16T11:50:20Z</time>
      </trkpt>
      <trkpt lat="40.0857270" lon="-6.1867750">
        <ele>359.8</ele>
        <time>2021-10-16T11:50:22Z</time>
      </trkpt>
      <trkpt lat="40.0855890" lon="-6.1868880">
        <ele>359.8</ele>
        <time>2021-10-16T11:50:28Z</time>
      </trkpt>
      <trkpt lat="40.0854270" lon="-6.1870030">
        <ele>359.6</ele>
        <time>2021-10-16T11:50:34Z</time>
      </trkpt>
      <trkpt lat="40.0853600" lon="-6.1870840">
        <ele>359.4</ele>
        <time>2021-10-16T11:50:37Z</time>
      </trkpt>
      <trkpt lat="40.0852780" lon="-6.1871360">
        <ele>359.4</ele>
        <time>2021-10-16T11:50:40Z</time>
      </trkpt>
      <trkpt lat="40.0850240" lon="-6.1872370">
        <ele>359.0</ele>
        <time>2021-10-16T11:50:48Z</time>
      </trkpt>
      <trkpt lat="40.0847980" lon="-6.1872970">
        <ele>359.0</ele>
        <time>2021-10-16T11:50:55Z</time>
      </trkpt>
      <trkpt lat="40.0845740" lon="-6.1873510">
        <ele>358.8</ele>
        <time>2021-10-16T11:51:03Z</time>
      </trkpt>
      <trkpt lat="40.0844350" lon="-6.1874240">
        <ele>358.8</ele>
        <time>2021-10-16T11:51:10Z</time>
      </trkpt>
      <trkpt lat="40.0844320" lon="-6.1874270">
        <ele>358.8</ele>
        <time>2021-10-16T11:51:13Z</time>
      </trkpt>
      <trkpt lat="40.0843440" lon="-6.1874600">
        <ele>357.8</ele>
        <time>2021-10-16T11:52:22Z</time>
      </trkpt>
      <trkpt lat="40.0843130" lon="-6.1874650">
        <ele>357.8</ele>
        <time>2021-10-16T11:52:23Z</time>
      </trkpt>
      <trkpt lat="40.0841850" lon="-6.1874880">
        <ele>357.8</ele>
        <time>2021-10-16T11:52:26Z</time>
      </trkpt>
      <trkpt lat="40.0841410" lon="-6.1875100">
        <ele>357.8</ele>
        <time>2021-10-16T11:52:27Z</time>
      </trkpt>
      <trkpt lat="40.0840570" lon="-6.1875760">
        <ele>357.6</ele>
        <time>2021-10-16T11:52:29Z</time>
      </trkpt>
      <trkpt lat="40.0839110" lon="-6.1877260">
        <ele>357.0</ele>
        <time>2021-10-16T11:52:33Z</time>
      </trkpt>
      <trkpt lat="40.0838720" lon="-6.1877620">
        <ele>356.8</ele>
        <time>2021-10-16T11:52:34Z</time>
      </trkpt>
      <trkpt lat="40.0837930" lon="-6.1878220">
        <ele>356.6</ele>
        <time>2021-10-16T11:52:36Z</time>
      </trkpt>
      <trkpt lat="40.0836290" lon="-6.1879350">
        <ele>356.0</ele>
        <time>2021-10-16T11:52:40Z</time>
      </trkpt>
      <trkpt lat="40.0835870" lon="-6.1879590">
        <ele>355.8</ele>
        <time>2021-10-16T11:52:41Z</time>
      </trkpt>
      <trkpt lat="40.0833860" lon="-6.1880560">
        <ele>356.0</ele>
        <time>2021-10-16T11:52:46Z</time>
      </trkpt>
      <trkpt lat="40.0833060" lon="-6.1881020">
        <ele>356.0</ele>
        <time>2021-10-16T11:52:48Z</time>
      </trkpt>
      <trkpt lat="40.0832660" lon="-6.1881230">
        <ele>356.2</ele>
        <time>2021-10-16T11:52:49Z</time>
      </trkpt>
      <trkpt lat="40.0831400" lon="-6.1881630">
        <ele>356.8</ele>
        <time>2021-10-16T11:52:52Z</time>
      </trkpt>
      <trkpt lat="40.0830650" lon="-6.1882020">
        <ele>357.2</ele>
        <time>2021-10-16T11:52:54Z</time>
      </trkpt>
      <trkpt lat="40.0830250" lon="-6.1882200">
        <ele>357.2</ele>
        <time>2021-10-16T11:52:55Z</time>
      </trkpt>
      <trkpt lat="40.0828580" lon="-6.1882910">
        <ele>357.8</ele>
        <time>2021-10-16T11:52:59Z</time>
      </trkpt>
      <trkpt lat="40.0827780" lon="-6.1883300">
        <ele>358.2</ele>
        <time>2021-10-16T11:53:01Z</time>
      </trkpt>
      <trkpt lat="40.0826640" lon="-6.1883820">
        <ele>358.4</ele>
        <time>2021-10-16T11:53:04Z</time>
      </trkpt>
      <trkpt lat="40.0825730" lon="-6.1884160">
        <ele>358.4</ele>
        <time>2021-10-16T11:53:07Z</time>
      </trkpt>
      <trkpt lat="40.0824850" lon="-6.1884490">
        <ele>358.8</ele>
        <time>2021-10-16T11:53:12Z</time>
      </trkpt>
      <trkpt lat="40.0824850" lon="-6.1884490">
        <ele>358.8</ele>
        <time>2021-10-16T11:53:14Z</time>
      </trkpt>
      <trkpt lat="40.0824610" lon="-6.1884680">
        <ele>359.0</ele>
        <time>2021-10-16T11:53:46Z</time>
      </trkpt>
      <trkpt lat="40.0824330" lon="-6.1884830">
        <ele>359.0</ele>
        <time>2021-10-16T11:53:47Z</time>
      </trkpt>
      <trkpt lat="40.0822790" lon="-6.1885780">
        <ele>358.8</ele>
        <time>2021-10-16T11:53:51Z</time>
      </trkpt>
      <trkpt lat="40.0821960" lon="-6.1886350">
        <ele>358.6</ele>
        <time>2021-10-16T11:53:53Z</time>
      </trkpt>
      <trkpt lat="40.0820720" lon="-6.1887060">
        <ele>358.6</ele>
        <time>2021-10-16T11:53:56Z</time>
      </trkpt>
      <trkpt lat="40.0820320" lon="-6.1887340">
        <ele>358.4</ele>
        <time>2021-10-16T11:53:57Z</time>
      </trkpt>
      <trkpt lat="40.0819920" lon="-6.1887660">
        <ele>358.2</ele>
        <time>2021-10-16T11:53:58Z</time>
      </trkpt>
      <trkpt lat="40.0819090" lon="-6.1888280">
        <ele>358.0</ele>
        <time>2021-10-16T11:54:00Z</time>
      </trkpt>
      <trkpt lat="40.0818250" lon="-6.1888950">
        <ele>357.6</ele>
        <time>2021-10-16T11:54:02Z</time>
      </trkpt>
      <trkpt lat="40.0817870" lon="-6.1889310">
        <ele>357.6</ele>
        <time>2021-10-16T11:54:03Z</time>
      </trkpt>
      <trkpt lat="40.0817170" lon="-6.1890160">
        <ele>357.2</ele>
        <time>2021-10-16T11:54:05Z</time>
      </trkpt>
      <trkpt lat="40.0816540" lon="-6.1891490">
        <ele>356.8</ele>
        <time>2021-10-16T11:54:08Z</time>
      </trkpt>
      <trkpt lat="40.0816190" lon="-6.1892250">
        <ele>356.6</ele>
        <time>2021-10-16T11:54:10Z</time>
      </trkpt>
      <trkpt lat="40.0814730" lon="-6.1893960">
        <ele>356.0</ele>
        <time>2021-10-16T11:54:16Z</time>
      </trkpt>
      <trkpt lat="40.0813980" lon="-6.1894460">
        <ele>355.6</ele>
        <time>2021-10-16T11:54:19Z</time>
      </trkpt>
      <trkpt lat="40.0813700" lon="-6.1894680">
        <ele>355.0</ele>
        <time>2021-10-16T11:54:21Z</time>
      </trkpt>
      <trkpt lat="40.0813540" lon="-6.1894760">
        <ele>354.6</ele>
        <time>2021-10-16T11:54:23Z</time>
      </trkpt>
      <trkpt lat="40.0812300" lon="-6.1895200">
        <ele>354.2</ele>
        <time>2021-10-16T11:54:26Z</time>
      </trkpt>
      <trkpt lat="40.0810790" lon="-6.1895890">
        <ele>353.2</ele>
        <time>2021-10-16T11:54:31Z</time>
      </trkpt>
      <trkpt lat="40.0809620" lon="-6.1896500">
        <ele>352.8</ele>
        <time>2021-10-16T11:54:33Z</time>
      </trkpt>
      <trkpt lat="40.0808800" lon="-6.1896860">
        <ele>352.2</ele>
        <time>2021-10-16T11:54:35Z</time>
      </trkpt>
      <trkpt lat="40.0807440" lon="-6.1897380">
        <ele>350.8</ele>
        <time>2021-10-16T11:54:39Z</time>
      </trkpt>
      <trkpt lat="40.0807130" lon="-6.1897360">
        <ele>350.4</ele>
        <time>2021-10-16T11:54:40Z</time>
      </trkpt>
      <trkpt lat="40.0806800" lon="-6.1897330">
        <ele>349.0</ele>
        <time>2021-10-16T11:54:41Z</time>
      </trkpt>
      <trkpt lat="40.0805550" lon="-6.1897140">
        <ele>347.8</ele>
        <time>2021-10-16T11:54:44Z</time>
      </trkpt>
      <trkpt lat="40.0805030" lon="-6.1897200">
        <ele>347.4</ele>
        <time>2021-10-16T11:54:45Z</time>
      </trkpt>
      <trkpt lat="40.0804070" lon="-6.1897710">
        <ele>347.0</ele>
        <time>2021-10-16T11:54:47Z</time>
      </trkpt>
      <trkpt lat="40.0803740" lon="-6.1897870">
        <ele>346.4</ele>
        <time>2021-10-16T11:54:48Z</time>
      </trkpt>
      <trkpt lat="40.0803410" lon="-6.1898020">
        <ele>346.2</ele>
        <time>2021-10-16T11:54:49Z</time>
      </trkpt>
      <trkpt lat="40.0802080" lon="-6.1898630">
        <ele>345.2</ele>
        <time>2021-10-16T11:54:51Z</time>
      </trkpt>
      <trkpt lat="40.0801080" lon="-6.1899120">
        <ele>344.8</ele>
        <time>2021-10-16T11:54:53Z</time>
      </trkpt>
      <trkpt lat="40.0800040" lon="-6.1899750">
        <ele>344.4</ele>
        <time>2021-10-16T11:54:55Z</time>
      </trkpt>
      <trkpt lat="40.0799530" lon="-6.1900060">
        <ele>344.2</ele>
        <time>2021-10-16T11:54:56Z</time>
      </trkpt>
      <trkpt lat="40.0796890" lon="-6.1901660">
        <ele>343.2</ele>
        <time>2021-10-16T11:55:01Z</time>
      </trkpt>
      <trkpt lat="40.0793580" lon="-6.1904990">
        <ele>342.2</ele>
        <time>2021-10-16T11:55:08Z</time>
      </trkpt>
      <trkpt lat="40.0793120" lon="-6.1905460">
        <ele>342.0</ele>
        <time>2021-10-16T11:55:09Z</time>
      </trkpt>
      <trkpt lat="40.0791820" lon="-6.1906810">
        <ele>340.8</ele>
        <time>2021-10-16T11:55:12Z</time>
      </trkpt>
      <trkpt lat="40.0790820" lon="-6.1908120">
        <ele>340.0</ele>
        <time>2021-10-16T11:55:15Z</time>
      </trkpt>
      <trkpt lat="40.0790510" lon="-6.1908530">
        <ele>339.6</ele>
        <time>2021-10-16T11:55:16Z</time>
      </trkpt>
      <trkpt lat="40.0789510" lon="-6.1909700">
        <ele>338.4</ele>
        <time>2021-10-16T11:55:19Z</time>
      </trkpt>
      <trkpt lat="40.0789130" lon="-6.1910070">
        <ele>338.2</ele>
        <time>2021-10-16T11:55:20Z</time>
      </trkpt>
      <trkpt lat="40.0789130" lon="-6.1910070">
        <ele>338.0</ele>
        <time>2021-10-16T11:55:21Z</time>
      </trkpt>
      <trkpt lat="40.0786820" lon="-6.1911970">
        <ele>337.0</ele>
        <time>2021-10-16T11:55:26Z</time>
      </trkpt>
      <trkpt lat="40.0785960" lon="-6.1912450">
        <ele>336.6</ele>
        <time>2021-10-16T11:55:28Z</time>
      </trkpt>
      <trkpt lat="40.0785270" lon="-6.1912720">
        <ele>335.8</ele>
        <time>2021-10-16T11:55:30Z</time>
      </trkpt>
      <trkpt lat="40.0784330" lon="-6.1913210">
        <ele>334.6</ele>
        <time>2021-10-16T11:55:33Z</time>
      </trkpt>
      <trkpt lat="40.0783440" lon="-6.1913930">
        <ele>333.4</ele>
        <time>2021-10-16T11:55:36Z</time>
      </trkpt>
      <trkpt lat="40.0782670" lon="-6.1914590">
        <ele>332.6</ele>
        <time>2021-10-16T11:55:39Z</time>
      </trkpt>
      <trkpt lat="40.0782360" lon="-6.1914780">
        <ele>332.4</ele>
        <time>2021-10-16T11:55:40Z</time>
      </trkpt>
      <trkpt lat="40.0780810" lon="-6.1916420">
        <ele>331.6</ele>
        <time>2021-10-16T11:55:45Z</time>
      </trkpt>
      <trkpt lat="40.0780190" lon="-6.1917230">
        <ele>331.4</ele>
        <time>2021-10-16T11:55:47Z</time>
      </trkpt>
      <trkpt lat="40.0779340" lon="-6.1918980">
        <ele>330.2</ele>
        <time>2021-10-16T11:55:51Z</time>
      </trkpt>
      <trkpt lat="40.0778780" lon="-6.1920870">
        <ele>329.4</ele>
        <time>2021-10-16T11:55:55Z</time>
      </trkpt>
      <trkpt lat="40.0778570" lon="-6.1921380">
        <ele>329.2</ele>
        <time>2021-10-16T11:55:56Z</time>
      </trkpt>
      <trkpt lat="40.0777470" lon="-6.1924220">
        <ele>327.8</ele>
        <time>2021-10-16T11:56:01Z</time>
      </trkpt>
      <trkpt lat="40.0777230" lon="-6.1924760">
        <ele>327.8</ele>
        <time>2021-10-16T11:56:02Z</time>
      </trkpt>
      <trkpt lat="40.0776700" lon="-6.1925650">
        <ele>326.6</ele>
        <time>2021-10-16T11:56:04Z</time>
      </trkpt>
      <trkpt lat="40.0776470" lon="-6.1926060">
        <ele>326.2</ele>
        <time>2021-10-16T11:56:05Z</time>
      </trkpt>
      <trkpt lat="40.0776110" lon="-6.1926920">
        <ele>325.6</ele>
        <time>2021-10-16T11:56:07Z</time>
      </trkpt>
      <trkpt lat="40.0775100" lon="-6.1929400">
        <ele>324.4</ele>
        <time>2021-10-16T11:56:12Z</time>
      </trkpt>
      <trkpt lat="40.0774430" lon="-6.1931010">
        <ele>323.8</ele>
        <time>2021-10-16T11:56:15Z</time>
      </trkpt>
      <trkpt lat="40.0773760" lon="-6.1932480">
        <ele>323.4</ele>
        <time>2021-10-16T11:56:18Z</time>
      </trkpt>
      <trkpt lat="40.0772500" lon="-6.1935150">
        <ele>322.2</ele>
        <time>2021-10-16T11:56:23Z</time>
      </trkpt>
      <trkpt lat="40.0771940" lon="-6.1936260">
        <ele>322.0</ele>
        <time>2021-10-16T11:56:25Z</time>
      </trkpt>
      <trkpt lat="40.0770620" lon="-6.1938950">
        <ele>321.0</ele>
        <time>2021-10-16T11:56:31Z</time>
      </trkpt>
      <trkpt lat="40.0769990" lon="-6.1940740">
        <ele>320.0</ele>
        <time>2021-10-16T11:56:35Z</time>
      </trkpt>
      <trkpt lat="40.0769690" lon="-6.1941630">
        <ele>319.6</ele>
        <time>2021-10-16T11:56:38Z</time>
      </trkpt>
      <trkpt lat="40.0769400" lon="-6.1942470">
        <ele>319.0</ele>
        <time>2021-10-16T11:56:39Z</time>
      </trkpt>
      <trkpt lat="40.0769340" lon="-6.1942910">
        <ele>318.8</ele>
        <time>2021-10-16T11:56:40Z</time>
      </trkpt>
      <trkpt lat="40.0769240" lon="-6.1943700">
        <ele>318.0</ele>
        <time>2021-10-16T11:56:42Z</time>
      </trkpt>
      <trkpt lat="40.0769230" lon="-6.1944070">
        <ele>317.6</ele>
        <time>2021-10-16T11:56:43Z</time>
      </trkpt>
      <trkpt lat="40.0769380" lon="-6.1944670">
        <ele>316.4</ele>
        <time>2021-10-16T11:56:45Z</time>
      </trkpt>
      <trkpt lat="40.0769800" lon="-6.1945540">
        <ele>315.4</ele>
        <time>2021-10-16T11:56:49Z</time>
      </trkpt>
      <trkpt lat="40.0770080" lon="-6.1947570">
        <ele>315.0</ele>
        <time>2021-10-16T11:56:53Z</time>
      </trkpt>
      <trkpt lat="40.0769760" lon="-6.1948810">
        <ele>314.4</ele>
        <time>2021-10-16T11:56:56Z</time>
      </trkpt>
      <trkpt lat="40.0769550" lon="-6.1949160">
        <ele>314.0</ele>
        <time>2021-10-16T11:56:57Z</time>
      </trkpt>
      <trkpt lat="40.0769120" lon="-6.1949730">
        <ele>313.4</ele>
        <time>2021-10-16T11:56:59Z</time>
      </trkpt>
      <trkpt lat="40.0768820" lon="-6.1949830">
        <ele>313.2</ele>
        <time>2021-10-16T11:57:00Z</time>
      </trkpt>
      <trkpt lat="40.0768450" lon="-6.1949760">
        <ele>313.0</ele>
        <time>2021-10-16T11:57:01Z</time>
      </trkpt>
      <trkpt lat="40.0767360" lon="-6.1948570">
        <ele>312.2</ele>
        <time>2021-10-16T11:57:05Z</time>
      </trkpt>
      <trkpt lat="40.0767360" lon="-6.1948570">
        <ele>312.0</ele>
        <time>2021-10-16T11:57:06Z</time>
      </trkpt>
      <trkpt lat="40.0766050" lon="-6.1946680">
        <ele>311.0</ele>
        <time>2021-10-16T11:57:10Z</time>
      </trkpt>
      <trkpt lat="40.0765530" lon="-6.1946020">
        <ele>309.6</ele>
        <time>2021-10-16T11:57:12Z</time>
      </trkpt>
      <trkpt lat="40.0765290" lon="-6.1945690">
        <ele>309.4</ele>
        <time>2021-10-16T11:57:13Z</time>
      </trkpt>
      <trkpt lat="40.0764760" lon="-6.1945060">
        <ele>308.4</ele>
        <time>2021-10-16T11:57:15Z</time>
      </trkpt>
      <trkpt lat="40.0763830" lon="-6.1944050">
        <ele>307.4</ele>
        <time>2021-10-16T11:57:19Z</time>
      </trkpt>
      <trkpt lat="40.0763250" lon="-6.1943200">
        <ele>307.4</ele>
        <time>2021-10-16T11:57:20Z</time>
      </trkpt>
      <trkpt lat="40.0762470" lon="-6.1941320">
        <ele>306.4</ele>
        <time>2021-10-16T11:57:24Z</time>
      </trkpt>
      <trkpt lat="40.0761990" lon="-6.1939840">
        <ele>305.4</ele>
        <time>2021-10-16T11:57:27Z</time>
      </trkpt>
      <trkpt lat="40.0761810" lon="-6.1939310">
        <ele>304.8</ele>
        <time>2021-10-16T11:57:28Z</time>
      </trkpt>
      <trkpt lat="40.0761330" lon="-6.1938170">
        <ele>303.8</ele>
        <time>2021-10-16T11:57:30Z</time>
      </trkpt>
      <trkpt lat="40.0761030" lon="-6.1937410">
        <ele>303.4</ele>
        <time>2021-10-16T11:57:31Z</time>
      </trkpt>
      <trkpt lat="40.0760750" lon="-6.1936770">
        <ele>302.6</ele>
        <time>2021-10-16T11:57:32Z</time>
      </trkpt>
      <trkpt lat="40.0760110" lon="-6.1934700">
        <ele>301.4</ele>
        <time>2021-10-16T11:57:35Z</time>
      </trkpt>
      <trkpt lat="40.0759930" lon="-6.1934090">
        <ele>300.8</ele>
        <time>2021-10-16T11:57:36Z</time>
      </trkpt>
      <trkpt lat="40.0759740" lon="-6.1933540">
        <ele>300.2</ele>
        <time>2021-10-16T11:57:37Z</time>
      </trkpt>
      <trkpt lat="40.0759560" lon="-6.1933050">
        <ele>300.0</ele>
        <time>2021-10-16T11:57:38Z</time>
      </trkpt>
      <trkpt lat="40.0759350" lon="-6.1932690">
        <ele>299.8</ele>
        <time>2021-10-16T11:57:40Z</time>
      </trkpt>
      <trkpt lat="40.0758890" lon="-6.1932340">
        <ele>299.4</ele>
        <time>2021-10-16T11:57:41Z</time>
      </trkpt>
      <trkpt lat="40.0758560" lon="-6.1932300">
        <ele>299.2</ele>
        <time>2021-10-16T11:57:43Z</time>
      </trkpt>
      <trkpt lat="40.0758500" lon="-6.1932310">
        <ele>299.0</ele>
        <time>2021-10-16T11:57:46Z</time>
      </trkpt>
      <trkpt lat="40.0757810" lon="-6.1932260">
        <ele>298.8</ele>
        <time>2021-10-16T11:58:36Z</time>
      </trkpt>
      <trkpt lat="40.0757690" lon="-6.1932050">
        <ele>298.8</ele>
        <time>2021-10-16T11:58:37Z</time>
      </trkpt>
      <trkpt lat="40.0757450" lon="-6.1931550">
        <ele>298.8</ele>
        <time>2021-10-16T11:58:41Z</time>
      </trkpt>
      <trkpt lat="40.0757430" lon="-6.1931560">
        <ele>298.8</ele>
        <time>2021-10-16T11:58:42Z</time>
      </trkpt>
      <trkpt lat="40.0757250" lon="-6.1930910">
        <ele>298.8</ele>
        <time>2021-10-16T11:58:47Z</time>
      </trkpt>
      <trkpt lat="40.0757050" lon="-6.1930190">
        <ele>298.8</ele>
        <time>2021-10-16T11:58:50Z</time>
      </trkpt>
      <trkpt lat="40.0756500" lon="-6.1928810">
        <ele>298.8</ele>
        <time>2021-10-16T11:58:56Z</time>
      </trkpt>
      <trkpt lat="40.0755460" lon="-6.1926590">
        <ele>298.8</ele>
        <time>2021-10-16T11:59:03Z</time>
      </trkpt>
      <trkpt lat="40.0753920" lon="-6.1924510">
        <ele>299.0</ele>
        <time>2021-10-16T11:59:09Z</time>
      </trkpt>
      <trkpt lat="40.0752730" lon="-6.1923240">
        <ele>299.0</ele>
        <time>2021-10-16T11:59:13Z</time>
      </trkpt>
      <trkpt lat="40.0751390" lon="-6.1921790">
        <ele>299.2</ele>
        <time>2021-10-16T11:59:18Z</time>
      </trkpt>
      <trkpt lat="40.0750630" lon="-6.1921190">
        <ele>299.2</ele>
        <time>2021-10-16T11:59:24Z</time>
      </trkpt>
      <trkpt lat="40.0750630" lon="-6.1921190">
        <ele>299.2</ele>
        <time>2021-10-16T11:59:25Z</time>
      </trkpt>
      <trkpt lat="40.0750160" lon="-6.1921790">
        <ele>299.0</ele>
        <time>2021-10-16T11:59:39Z</time>
      </trkpt>
      <trkpt lat="40.0750010" lon="-6.1921940">
        <ele>299.0</ele>
        <time>2021-10-16T11:59:40Z</time>
      </trkpt>
      <trkpt lat="40.0749890" lon="-6.1922050">
        <ele>299.0</ele>
        <time>2021-10-16T11:59:41Z</time>
      </trkpt>
      <trkpt lat="40.0749840" lon="-6.1922090">
        <ele>298.8</ele>
        <time>2021-10-16T11:59:44Z</time>
      </trkpt>
      <trkpt lat="40.0749230" lon="-6.1922870">
        <ele>298.0</ele>
        <time>2021-10-16T12:00:00Z</time>
      </trkpt>
      <trkpt lat="40.0749120" lon="-6.1923070">
        <ele>298.0</ele>
        <time>2021-10-16T12:00:01Z</time>
      </trkpt>
      <trkpt lat="40.0748990" lon="-6.1923230">
        <ele>298.0</ele>
        <time>2021-10-16T12:00:02Z</time>
      </trkpt>
      <trkpt lat="40.0748270" lon="-6.1923850">
        <ele>297.8</ele>
        <time>2021-10-16T12:00:06Z</time>
      </trkpt>
      <trkpt lat="40.0746940" lon="-6.1924740">
        <ele>297.8</ele>
        <time>2021-10-16T12:00:12Z</time>
      </trkpt>
      <trkpt lat="40.0744660" lon="-6.1926070">
        <ele>297.4</ele>
        <time>2021-10-16T12:00:17Z</time>
      </trkpt>
      <trkpt lat="40.0743760" lon="-6.1926320">
        <ele>297.4</ele>
        <time>2021-10-16T12:00:19Z</time>
      </trkpt>
      <trkpt lat="40.0742380" lon="-6.1926830">
        <ele>297.4</ele>
        <time>2021-10-16T12:00:22Z</time>
      </trkpt>
      <trkpt lat="40.0739480" lon="-6.1927330">
        <ele>297.0</ele>
        <time>2021-10-16T12:00:28Z</time>
      </trkpt>
      <trkpt lat="40.0738680" lon="-6.1927360">
        <ele>296.6</ele>
        <time>2021-10-16T12:00:30Z</time>
      </trkpt>
      <trkpt lat="40.0738070" lon="-6.1927390">
        <ele>295.8</ele>
        <time>2021-10-16T12:00:34Z</time>
      </trkpt>
      <trkpt lat="40.0737880" lon="-6.1927350">
        <ele>295.6</ele>
        <time>2021-10-16T12:00:59Z</time>
      </trkpt>
      <trkpt lat="40.0737510" lon="-6.1927410">
        <ele>295.6</ele>
        <time>2021-10-16T12:01:01Z</time>
      </trkpt>
      <trkpt lat="40.0737370" lon="-6.1927490">
        <ele>295.6</ele>
        <time>2021-10-16T12:01:02Z</time>
      </trkpt>
      <trkpt lat="40.0737190" lon="-6.1927520">
        <ele>295.4</ele>
        <time>2021-10-16T12:01:03Z</time>
      </trkpt>
      <trkpt lat="40.0736430" lon="-6.1927200">
        <ele>295.4</ele>
        <time>2021-10-16T12:01:07Z</time>
      </trkpt>
      <trkpt lat="40.0734700" lon="-6.1926980">
        <ele>295.6</ele>
        <time>2021-10-16T12:01:15Z</time>
      </trkpt>
      <trkpt lat="40.0733250" lon="-6.1927170">
        <ele>295.8</ele>
        <time>2021-10-16T12:01:22Z</time>
      </trkpt>
      <trkpt lat="40.0731570" lon="-6.1926840">
        <ele>297.0</ele>
        <time>2021-10-16T12:01:30Z</time>
      </trkpt>
      <trkpt lat="40.0731080" lon="-6.1926730">
        <ele>297.2</ele>
        <time>2021-10-16T12:01:32Z</time>
      </trkpt>
      <trkpt lat="40.0729070" lon="-6.1926390">
        <ele>298.2</ele>
        <time>2021-10-16T12:01:39Z</time>
      </trkpt>
      <trkpt lat="40.0728780" lon="-6.1926370">
        <ele>298.2</ele>
        <time>2021-10-16T12:01:40Z</time>
      </trkpt>
      <trkpt lat="40.0727700" lon="-6.1926240">
        <ele>298.6</ele>
        <time>2021-10-16T12:01:44Z</time>
      </trkpt>
      <trkpt lat="40.0726800" lon="-6.1926080">
        <ele>298.8</ele>
        <time>2021-10-16T12:01:47Z</time>
      </trkpt>
      <trkpt lat="40.0724350" lon="-6.1926300">
        <ele>299.2</ele>
        <time>2021-10-16T12:01:54Z</time>
      </trkpt>
      <trkpt lat="40.0721740" lon="-6.1925760">
        <ele>299.0</ele>
        <time>2021-10-16T12:02:00Z</time>
      </trkpt>
      <trkpt lat="40.0720300" lon="-6.1925300">
        <ele>298.8</ele>
        <time>2021-10-16T12:02:04Z</time>
      </trkpt>
      <trkpt lat="40.0719410" lon="-6.1924990">
        <ele>299.0</ele>
        <time>2021-10-16T12:02:07Z</time>
      </trkpt>
      <trkpt lat="40.0717940" lon="-6.1924500">
        <ele>299.4</ele>
        <time>2021-10-16T12:02:12Z</time>
      </trkpt>
      <trkpt lat="40.0716690" lon="-6.1924040">
        <ele>299.8</ele>
        <time>2021-10-16T12:02:16Z</time>
      </trkpt>
      <trkpt lat="40.0714260" lon="-6.1923390">
        <ele>300.4</ele>
        <time>2021-10-16T12:02:24Z</time>
      </trkpt>
      <trkpt lat="40.0713700" lon="-6.1923360">
        <ele>300.6</ele>
        <time>2021-10-16T12:02:26Z</time>
      </trkpt>
      <trkpt lat="40.0712420" lon="-6.1923510">
        <ele>301.0</ele>
        <time>2021-10-16T12:02:31Z</time>
      </trkpt>
      <trkpt lat="40.0711360" lon="-6.1924050">
        <ele>301.6</ele>
        <time>2021-10-16T12:02:36Z</time>
      </trkpt>
      <trkpt lat="40.0710690" lon="-6.1924200">
        <ele>302.0</ele>
        <time>2021-10-16T12:02:39Z</time>
      </trkpt>
      <trkpt lat="40.0709510" lon="-6.1924100">
        <ele>302.8</ele>
        <time>2021-10-16T12:02:44Z</time>
      </trkpt>
      <trkpt lat="40.0708550" lon="-6.1923890">
        <ele>303.2</ele>
        <time>2021-10-16T12:02:48Z</time>
      </trkpt>
      <trkpt lat="40.0706770" lon="-6.1923610">
        <ele>303.6</ele>
        <time>2021-10-16T12:02:56Z</time>
      </trkpt>
      <trkpt lat="40.0706550" lon="-6.1923590">
        <ele>303.8</ele>
        <time>2021-10-16T12:02:57Z</time>
      </trkpt>
      <trkpt lat="40.0705580" lon="-6.1923510">
        <ele>304.2</ele>
        <time>2021-10-16T12:03:01Z</time>
      </trkpt>
      <trkpt lat="40.0704860" lon="-6.1923480">
        <ele>304.4</ele>
        <time>2021-10-16T12:03:04Z</time>
      </trkpt>
      <trkpt lat="40.0704060" lon="-6.1923430">
        <ele>304.8</ele>
        <time>2021-10-16T12:03:07Z</time>
      </trkpt>
      <trkpt lat="40.0703170" lon="-6.1923400">
        <ele>305.4</ele>
        <time>2021-10-16T12:03:11Z</time>
      </trkpt>
      <trkpt lat="40.0701850" lon="-6.1923500">
        <ele>305.8</ele>
        <time>2021-10-16T12:03:17Z</time>
      </trkpt>
      <trkpt lat="40.0700880" lon="-6.1923560">
        <ele>307.2</ele>
        <time>2021-10-16T12:03:22Z</time>
      </trkpt>
      <trkpt lat="40.0699980" lon="-6.1923700">
        <ele>307.6</ele>
        <time>2021-10-16T12:03:27Z</time>
      </trkpt>
      <trkpt lat="40.0698980" lon="-6.1924600">
        <ele>307.8</ele>
        <time>2021-10-16T12:03:33Z</time>
      </trkpt>
      <trkpt lat="40.0698920" lon="-6.1924680">
        <ele>307.6</ele>
        <time>2021-10-16T12:03:36Z</time>
      </trkpt>
      <trkpt lat="40.0698760" lon="-6.1924830">
        <ele>307.2</ele>
        <time>2021-10-16T12:03:54Z</time>
      </trkpt>
      <trkpt lat="40.0698560" lon="-6.1924990">
        <ele>307.2</ele>
        <time>2021-10-16T12:03:55Z</time>
      </trkpt>
      <trkpt lat="40.0697530" lon="-6.1925850">
        <ele>307.2</ele>
        <time>2021-10-16T12:03:59Z</time>
      </trkpt>
      <trkpt lat="40.0695660" lon="-6.1927030">
        <ele>307.0</ele>
        <time>2021-10-16T12:04:05Z</time>
      </trkpt>
      <trkpt lat="40.0693660" lon="-6.1928610">
        <ele>306.2</ele>
        <time>2021-10-16T12:04:12Z</time>
      </trkpt>
      <trkpt lat="40.0692310" lon="-6.1929400">
        <ele>305.8</ele>
        <time>2021-10-16T12:04:16Z</time>
      </trkpt>
      <trkpt lat="40.0691680" lon="-6.1929800">
        <ele>305.8</ele>
        <time>2021-10-16T12:04:18Z</time>
      </trkpt>
      <trkpt lat="40.0689680" lon="-6.1931910">
        <ele>305.6</ele>
        <time>2021-10-16T12:04:25Z</time>
      </trkpt>
      <trkpt lat="40.0688100" lon="-6.1933470">
        <ele>305.4</ele>
        <time>2021-10-16T12:04:31Z</time>
      </trkpt>
      <trkpt lat="40.0687280" lon="-6.1934340">
        <ele>305.6</ele>
        <time>2021-10-16T12:04:34Z</time>
      </trkpt>
      <trkpt lat="40.0686370" lon="-6.1935880">
        <ele>305.4</ele>
        <time>2021-10-16T12:04:38Z</time>
      </trkpt>
      <trkpt lat="40.0685520" lon="-6.1937100">
        <ele>305.4</ele>
        <time>2021-10-16T12:04:41Z</time>
      </trkpt>
      <trkpt lat="40.0685200" lon="-6.1937500">
        <ele>305.2</ele>
        <time>2021-10-16T12:04:42Z</time>
      </trkpt>
      <trkpt lat="40.0684460" lon="-6.1938260">
        <ele>304.8</ele>
        <time>2021-10-16T12:04:44Z</time>
      </trkpt>
      <trkpt lat="40.0683740" lon="-6.1939010">
        <ele>304.4</ele>
        <time>2021-10-16T12:04:46Z</time>
      </trkpt>
      <trkpt lat="40.0682380" lon="-6.1939880">
        <ele>304.0</ele>
        <time>2021-10-16T12:04:49Z</time>
      </trkpt>
      <trkpt lat="40.0681330" lon="-6.1940260">
        <ele>303.8</ele>
        <time>2021-10-16T12:04:51Z</time>
      </trkpt>
      <trkpt lat="40.0680780" lon="-6.1940400">
        <ele>303.8</ele>
        <time>2021-10-16T12:04:52Z</time>
      </trkpt>
      <trkpt lat="40.0678640" lon="-6.1940350">
        <ele>302.6</ele>
        <time>2021-10-16T12:04:56Z</time>
      </trkpt>
      <trkpt lat="40.0675730" lon="-6.1940150">
        <ele>301.6</ele>
        <time>2021-10-16T12:05:02Z</time>
      </trkpt>
      <trkpt lat="40.0675450" lon="-6.1940170">
        <ele>301.6</ele>
        <time>2021-10-16T12:05:03Z</time>
      </trkpt>
      <trkpt lat="40.0675340" lon="-6.1940220">
        <ele>301.4</ele>
        <time>2021-10-16T12:05:04Z</time>
      </trkpt>
      <trkpt lat="40.0675310" lon="-6.1940240">
        <ele>301.2</ele>
        <time>2021-10-16T12:05:05Z</time>
      </trkpt>
      <trkpt lat="40.0675310" lon="-6.1940240">
        <ele>301.0</ele>
        <time>2021-10-16T12:05:07Z</time>
      </trkpt>
      <trkpt lat="40.0673890" lon="-6.1940110">
        <ele>300.6</ele>
        <time>2021-10-16T12:05:23Z</time>
      </trkpt>
      <trkpt lat="40.0673690" lon="-6.1940080">
        <ele>300.6</ele>
        <time>2021-10-16T12:05:24Z</time>
      </trkpt>
      <trkpt lat="40.0672890" lon="-6.1939990">
        <ele>300.6</ele>
        <time>2021-10-16T12:05:27Z</time>
      </trkpt>
      <trkpt lat="40.0672320" lon="-6.1939880">
        <ele>300.6</ele>
        <time>2021-10-16T12:05:29Z</time>
      </trkpt>
      <trkpt lat="40.0670110" lon="-6.1939540">
        <ele>301.2</ele>
        <time>2021-10-16T12:05:37Z</time>
      </trkpt>
      <trkpt lat="40.0667980" lon="-6.1940110">
        <ele>301.8</ele>
        <time>2021-10-16T12:05:45Z</time>
      </trkpt>
      <trkpt lat="40.0666870" lon="-6.1940040">
        <ele>302.8</ele>
        <time>2021-10-16T12:05:49Z</time>
      </trkpt>
      <trkpt lat="40.0666280" lon="-6.1939650">
        <ele>302.8</ele>
        <time>2021-10-16T12:05:51Z</time>
      </trkpt>
      <trkpt lat="40.0665100" lon="-6.1938210">
        <ele>303.0</ele>
        <time>2021-10-16T12:05:56Z</time>
      </trkpt>
      <trkpt lat="40.0663670" lon="-6.1938010">
        <ele>302.8</ele>
        <time>2021-10-16T12:06:00Z</time>
      </trkpt>
      <trkpt lat="40.0663250" lon="-6.1938080">
        <ele>302.8</ele>
        <time>2021-10-16T12:06:01Z</time>
      </trkpt>
      <trkpt lat="40.0662830" lon="-6.1938140">
        <ele>302.8</ele>
        <time>2021-10-16T12:06:02Z</time>
      </trkpt>
      <trkpt lat="40.0661960" lon="-6.1938280">
        <ele>302.6</ele>
        <time>2021-10-16T12:06:04Z</time>
      </trkpt>
      <trkpt lat="40.0661550" lon="-6.1938230">
        <ele>302.6</ele>
        <time>2021-10-16T12:06:05Z</time>
      </trkpt>
      <trkpt lat="40.0661110" lon="-6.1938090">
        <ele>302.4</ele>
        <time>2021-10-16T12:06:06Z</time>
      </trkpt>
      <trkpt lat="40.0659850" lon="-6.1937600">
        <ele>302.4</ele>
        <time>2021-10-16T12:06:09Z</time>
      </trkpt>
      <trkpt lat="40.0658760" lon="-6.1937160">
        <ele>302.4</ele>
        <time>2021-10-16T12:06:13Z</time>
      </trkpt>
      <trkpt lat="40.0655510" lon="-6.1935500">
        <ele>302.4</ele>
        <time>2021-10-16T12:06:21Z</time>
      </trkpt>
      <trkpt lat="40.0653810" lon="-6.1934670">
        <ele>303.0</ele>
        <time>2021-10-16T12:06:27Z</time>
      </trkpt>
      <trkpt lat="40.0652300" lon="-6.1933900">
        <ele>303.8</ele>
        <time>2021-10-16T12:06:33Z</time>
      </trkpt>
      <trkpt lat="40.0651120" lon="-6.1933350">
        <ele>304.2</ele>
        <time>2021-10-16T12:06:37Z</time>
      </trkpt>
      <trkpt lat="40.0648790" lon="-6.1932120">
        <ele>304.6</ele>
        <time>2021-10-16T12:06:45Z</time>
      </trkpt>
      <trkpt lat="40.0646340" lon="-6.1930050">
        <ele>304.6</ele>
        <time>2021-10-16T12:06:53Z</time>
      </trkpt>
      <trkpt lat="40.0645170" lon="-6.1929150">
        <ele>304.4</ele>
        <time>2021-10-16T12:06:57Z</time>
      </trkpt>
      <trkpt lat="40.0643850" lon="-6.1927940">
        <ele>304.4</ele>
        <time>2021-10-16T12:07:01Z</time>
      </trkpt>
      <trkpt lat="40.0642320" lon="-6.1926980">
        <ele>304.4</ele>
        <time>2021-10-16T12:07:05Z</time>
      </trkpt>
      <trkpt lat="40.0641630" lon="-6.1926750">
        <ele>304.2</ele>
        <time>2021-10-16T12:07:07Z</time>
      </trkpt>
      <trkpt lat="40.0638410" lon="-6.1925780">
        <ele>304.0</ele>
        <time>2021-10-16T12:07:15Z</time>
      </trkpt>
      <trkpt lat="40.0636000" lon="-6.1926290">
        <ele>303.6</ele>
        <time>2021-10-16T12:07:21Z</time>
      </trkpt>
      <trkpt lat="40.0634750" lon="-6.1926570">
        <ele>303.6</ele>
        <time>2021-10-16T12:07:24Z</time>
      </trkpt>
      <trkpt lat="40.0633880" lon="-6.1926670">
        <ele>303.4</ele>
        <time>2021-10-16T12:07:26Z</time>
      </trkpt>
      <trkpt lat="40.0632980" lon="-6.1927120">
        <ele>303.2</ele>
        <time>2021-10-16T12:07:29Z</time>
      </trkpt>
      <trkpt lat="40.0630550" lon="-6.1928210">
        <ele>303.4</ele>
        <time>2021-10-16T12:07:36Z</time>
      </trkpt>
      <trkpt lat="40.0629510" lon="-6.1928380">
        <ele>303.2</ele>
        <time>2021-10-16T12:07:40Z</time>
      </trkpt>
      <trkpt lat="40.0629300" lon="-6.1928280">
        <ele>303.2</ele>
        <time>2021-10-16T12:07:41Z</time>
      </trkpt>
      <trkpt lat="40.0629180" lon="-6.1928210">
        <ele>303.0</ele>
        <time>2021-10-16T12:07:44Z</time>
      </trkpt>
      <trkpt lat="40.0628950" lon="-6.1928840">
        <ele>303.4</ele>
        <time>2021-10-16T12:07:56Z</time>
      </trkpt>
      <trkpt lat="40.0628440" lon="-6.1929350">
        <ele>303.0</ele>
        <time>2021-10-16T12:08:00Z</time>
      </trkpt>
      <trkpt lat="40.0627750" lon="-6.1929870">
        <ele>303.0</ele>
        <time>2021-10-16T12:08:02Z</time>
      </trkpt>
      <trkpt lat="40.0627530" lon="-6.1930120">
        <ele>303.0</ele>
        <time>2021-10-16T12:08:03Z</time>
      </trkpt>
      <trkpt lat="40.0626730" lon="-6.1931210">
        <ele>302.8</ele>
        <time>2021-10-16T12:08:07Z</time>
      </trkpt>
      <trkpt lat="40.0625310" lon="-6.1933320">
        <ele>303.0</ele>
        <time>2021-10-16T12:08:16Z</time>
      </trkpt>
      <trkpt lat="40.0625210" lon="-6.1933470">
        <ele>303.2</ele>
        <time>2021-10-16T12:08:20Z</time>
      </trkpt>
      <trkpt lat="40.0624460" lon="-6.1933930">
        <ele>303.8</ele>
        <time>2021-10-16T12:09:28Z</time>
      </trkpt>
      <trkpt lat="40.0624240" lon="-6.1934050">
        <ele>303.8</ele>
        <time>2021-10-16T12:09:30Z</time>
      </trkpt>
      <trkpt lat="40.0622130" lon="-6.1935090">
        <ele>304.2</ele>
        <time>2021-10-16T12:09:37Z</time>
      </trkpt>
      <trkpt lat="40.0621360" lon="-6.1935440">
        <ele>304.4</ele>
        <time>2021-10-16T12:09:41Z</time>
      </trkpt>
      <trkpt lat="40.0619820" lon="-6.1936250">
        <ele>304.4</ele>
        <time>2021-10-16T12:09:46Z</time>
      </trkpt>
      <trkpt lat="40.0617390" lon="-6.1937620">
        <ele>304.6</ele>
        <time>2021-10-16T12:09:53Z</time>
      </trkpt>
      <trkpt lat="40.0614310" lon="-6.1939300">
        <ele>305.0</ele>
        <time>2021-10-16T12:10:03Z</time>
      </trkpt>
      <trkpt lat="40.0611080" lon="-6.1941030">
        <ele>305.0</ele>
        <time>2021-10-16T12:10:12Z</time>
      </trkpt>
      <trkpt lat="40.0609420" lon="-6.1942120">
        <ele>304.8</ele>
        <time>2021-10-16T12:10:16Z</time>
      </trkpt>
      <trkpt lat="40.0608680" lon="-6.1942560">
        <ele>304.6</ele>
        <time>2021-10-16T12:10:19Z</time>
      </trkpt>
      <trkpt lat="40.0606400" lon="-6.1943890">
        <ele>304.0</ele>
        <time>2021-10-16T12:10:24Z</time>
      </trkpt>
      <trkpt lat="40.0605420" lon="-6.1944430">
        <ele>304.0</ele>
        <time>2021-10-16T12:10:25Z</time>
      </trkpt>
      <trkpt lat="40.0604500" lon="-6.1944910">
        <ele>303.2</ele>
        <time>2021-10-16T12:10:27Z</time>
      </trkpt>
      <trkpt lat="40.0604100" lon="-6.1945140">
        <ele>302.8</ele>
        <time>2021-10-16T12:10:29Z</time>
      </trkpt>
      <trkpt lat="40.0602690" lon="-6.1945960">
        <ele>301.6</ele>
        <time>2021-10-16T12:10:32Z</time>
      </trkpt>
      <trkpt lat="40.0602490" lon="-6.1946080">
        <ele>301.0</ele>
        <time>2021-10-16T12:10:34Z</time>
      </trkpt>
      <trkpt lat="40.0602350" lon="-6.1946140">
        <ele>300.6</ele>
        <time>2021-10-16T12:10:35Z</time>
      </trkpt>
      <trkpt lat="40.0602180" lon="-6.1946160">
        <ele>300.4</ele>
        <time>2021-10-16T12:10:36Z</time>
      </trkpt>
      <trkpt lat="40.0602180" lon="-6.1946160">
        <ele>300.2</ele>
        <time>2021-10-16T12:10:37Z</time>
      </trkpt>
      <trkpt lat="40.0602180" lon="-6.1946160">
        <ele>300.0</ele>
        <time>2021-10-16T12:10:38Z</time>
      </trkpt>
      <trkpt lat="40.0601850" lon="-6.1946370">
        <ele>299.0</ele>
        <time>2021-10-16T12:11:12Z</time>
      </trkpt>
      <trkpt lat="40.0601680" lon="-6.1946500">
        <ele>299.0</ele>
        <time>2021-10-16T12:11:13Z</time>
      </trkpt>
      <trkpt lat="40.0601450" lon="-6.1946640">
        <ele>298.6</ele>
        <time>2021-10-16T12:11:15Z</time>
      </trkpt>
      <trkpt lat="40.0599960" lon="-6.1947450">
        <ele>298.6</ele>
        <time>2021-10-16T12:11:19Z</time>
      </trkpt>
      <trkpt lat="40.0597620" lon="-6.1948820">
        <ele>298.0</ele>
        <time>2021-10-16T12:11:25Z</time>
      </trkpt>
      <trkpt lat="40.0595660" lon="-6.1949370">
        <ele>297.4</ele>
        <time>2021-10-16T12:11:29Z</time>
      </trkpt>
      <trkpt lat="40.0594540" lon="-6.1949450">
        <ele>296.8</ele>
        <time>2021-10-16T12:11:31Z</time>
      </trkpt>
      <trkpt lat="40.0592910" lon="-6.1949430">
        <ele>296.2</ele>
        <time>2021-10-16T12:11:34Z</time>
      </trkpt>
      <trkpt lat="40.0591000" lon="-6.1949290">
        <ele>295.8</ele>
        <time>2021-10-16T12:11:37Z</time>
      </trkpt>
      <trkpt lat="40.0590490" lon="-6.1949250">
        <ele>295.6</ele>
        <time>2021-10-16T12:11:38Z</time>
      </trkpt>
      <trkpt lat="40.0586310" lon="-6.1949230">
        <ele>294.4</ele>
        <time>2021-10-16T12:11:44Z</time>
      </trkpt>
      <trkpt lat="40.0584030" lon="-6.1949140">
        <ele>293.2</ele>
        <time>2021-10-16T12:11:47Z</time>
      </trkpt>
      <trkpt lat="40.0583460" lon="-6.1949070">
        <ele>292.0</ele>
        <time>2021-10-16T12:11:48Z</time>
      </trkpt>
      <trkpt lat="40.0582750" lon="-6.1949000">
        <ele>291.8</ele>
        <time>2021-10-16T12:11:49Z</time>
      </trkpt>
      <trkpt lat="40.0580570" lon="-6.1948850">
        <ele>291.0</ele>
        <time>2021-10-16T12:11:52Z</time>
      </trkpt>
      <trkpt lat="40.0578790" lon="-6.1948810">
        <ele>290.0</ele>
        <time>2021-10-16T12:11:55Z</time>
      </trkpt>
      <trkpt lat="40.0577370" lon="-6.1948820">
        <ele>289.4</ele>
        <time>2021-10-16T12:11:57Z</time>
      </trkpt>
      <trkpt lat="40.0575550" lon="-6.1948850">
        <ele>288.4</ele>
        <time>2021-10-16T12:12:00Z</time>
      </trkpt>
      <trkpt lat="40.0573580" lon="-6.1948860">
        <ele>287.8</ele>
        <time>2021-10-16T12:12:03Z</time>
      </trkpt>
      <trkpt lat="40.0569820" lon="-6.1949050">
        <ele>287.6</ele>
        <time>2021-10-16T12:12:10Z</time>
      </trkpt>
      <trkpt lat="40.0568810" lon="-6.1949090">
        <ele>287.4</ele>
        <time>2021-10-16T12:12:12Z</time>
      </trkpt>
      <trkpt lat="40.0567340" lon="-6.1949140">
        <ele>287.0</ele>
        <time>2021-10-16T12:12:16Z</time>
      </trkpt>
      <trkpt lat="40.0565200" lon="-6.1948840">
        <ele>287.2</ele>
        <time>2021-10-16T12:12:22Z</time>
      </trkpt>
      <trkpt lat="40.0563140" lon="-6.1948140">
        <ele>287.4</ele>
        <time>2021-10-16T12:12:29Z</time>
      </trkpt>
      <trkpt lat="40.0562440" lon="-6.1947240">
        <ele>287.2</ele>
        <time>2021-10-16T12:12:33Z</time>
      </trkpt>
      <trkpt lat="40.0562400" lon="-6.1947090">
        <ele>287.2</ele>
        <time>2021-10-16T12:12:34Z</time>
      </trkpt>
      <trkpt lat="40.0562390" lon="-6.1947020">
        <ele>287.2</ele>
        <time>2021-10-16T12:12:36Z</time>
      </trkpt>
      <trkpt lat="40.0562200" lon="-6.1946840">
        <ele>286.8</ele>
        <time>2021-10-16T12:13:17Z</time>
      </trkpt>
      <trkpt lat="40.0561940" lon="-6.1946640">
        <ele>286.8</ele>
        <time>2021-10-16T12:13:18Z</time>
      </trkpt>
      <trkpt lat="40.0560620" lon="-6.1945110">
        <ele>286.6</ele>
        <time>2021-10-16T12:13:23Z</time>
      </trkpt>
      <trkpt lat="40.0559600" lon="-6.1942960">
        <ele>286.2</ele>
        <time>2021-10-16T12:13:28Z</time>
      </trkpt>
      <trkpt lat="40.0559190" lon="-6.1942100">
        <ele>286.4</ele>
        <time>2021-10-16T12:13:30Z</time>
      </trkpt>
      <trkpt lat="40.0557550" lon="-6.1938190">
        <ele>286.6</ele>
        <time>2021-10-16T12:13:39Z</time>
      </trkpt>
      <trkpt lat="40.0556450" lon="-6.1935640">
        <ele>286.6</ele>
        <time>2021-10-16T12:13:45Z</time>
      </trkpt>
      <trkpt lat="40.0555360" lon="-6.1933250">
        <ele>287.0</ele>
        <time>2021-10-16T12:13:51Z</time>
      </trkpt>
      <trkpt lat="40.0554180" lon="-6.1930910">
        <ele>287.2</ele>
        <time>2021-10-16T12:13:57Z</time>
      </trkpt>
      <trkpt lat="40.0552930" lon="-6.1928710">
        <ele>287.2</ele>
        <time>2021-10-16T12:14:03Z</time>
      </trkpt>
      <trkpt lat="40.0552120" lon="-6.1927750">
        <ele>287.4</ele>
        <time>2021-10-16T12:14:06Z</time>
      </trkpt>
      <trkpt lat="40.0549510" lon="-6.1925320">
        <ele>287.0</ele>
        <time>2021-10-16T12:14:14Z</time>
      </trkpt>
      <trkpt lat="40.0548060" lon="-6.1924090">
        <ele>286.2</ele>
        <time>2021-10-16T12:14:20Z</time>
      </trkpt>
      <trkpt lat="40.0547800" lon="-6.1924040">
        <ele>286.0</ele>
        <time>2021-10-16T12:14:25Z</time>
      </trkpt>
      <trkpt lat="40.0547300" lon="-6.1923290">
        <ele>285.6</ele>
        <time>2021-10-16T12:15:00Z</time>
      </trkpt>
      <trkpt lat="40.0547060" lon="-6.1923070">
        <ele>285.6</ele>
        <time>2021-10-16T12:15:01Z</time>
      </trkpt>
      <trkpt lat="40.0546870" lon="-6.1922870">
        <ele>285.6</ele>
        <time>2021-10-16T12:15:02Z</time>
      </trkpt>
      <trkpt lat="40.0546180" lon="-6.1922350">
        <ele>285.4</ele>
        <time>2021-10-16T12:15:05Z</time>
      </trkpt>
      <trkpt lat="40.0545310" lon="-6.1921950">
        <ele>285.4</ele>
        <time>2021-10-16T12:15:08Z</time>
      </trkpt>
      <trkpt lat="40.0543790" lon="-6.1921810">
        <ele>285.0</ele>
        <time>2021-10-16T12:15:12Z</time>
      </trkpt>
      <trkpt lat="40.0543310" lon="-6.1921880">
        <ele>284.8</ele>
        <time>2021-10-16T12:15:13Z</time>
      </trkpt>
      <trkpt lat="40.0542150" lon="-6.1921960">
        <ele>284.4</ele>
        <time>2021-10-16T12:15:15Z</time>
      </trkpt>
      <trkpt lat="40.0540400" lon="-6.1922230">
        <ele>283.4</ele>
        <time>2021-10-16T12:15:18Z</time>
      </trkpt>
      <trkpt lat="40.0537570" lon="-6.1922740">
        <ele>281.6</ele>
        <time>2021-10-16T12:15:23Z</time>
      </trkpt>
      <trkpt lat="40.0535540" lon="-6.1922980">
        <ele>280.4</ele>
        <time>2021-10-16T12:15:27Z</time>
      </trkpt>
      <trkpt lat="40.0534580" lon="-6.1923010">
        <ele>279.6</ele>
        <time>2021-10-16T12:15:29Z</time>
      </trkpt>
      <trkpt lat="40.0534100" lon="-6.1923050">
        <ele>279.4</ele>
        <time>2021-10-16T12:15:30Z</time>
      </trkpt>
      <trkpt lat="40.0533180" lon="-6.1923170">
        <ele>278.8</ele>
        <time>2021-10-16T12:15:32Z</time>
      </trkpt>
      <trkpt lat="40.0532390" lon="-6.1923740">
        <ele>278.0</ele>
        <time>2021-10-16T12:15:34Z</time>
      </trkpt>
      <trkpt lat="40.0532130" lon="-6.1924210">
        <ele>277.8</ele>
        <time>2021-10-16T12:15:35Z</time>
      </trkpt>
      <trkpt lat="40.0531960" lon="-6.1924720">
        <ele>277.2</ele>
        <time>2021-10-16T12:15:36Z</time>
      </trkpt>
      <trkpt lat="40.0531880" lon="-6.1925220">
        <ele>276.8</ele>
        <time>2021-10-16T12:15:37Z</time>
      </trkpt>
      <trkpt lat="40.0531820" lon="-6.1925710">
        <ele>276.4</ele>
        <time>2021-10-16T12:15:38Z</time>
      </trkpt>
      <trkpt lat="40.0531560" lon="-6.1929150">
        <ele>276.0</ele>
        <time>2021-10-16T12:15:45Z</time>
      </trkpt>
      <trkpt lat="40.0531470" lon="-6.1930110">
        <ele>276.0</ele>
        <time>2021-10-16T12:15:47Z</time>
      </trkpt>
      <trkpt lat="40.0531210" lon="-6.1932900">
        <ele>276.0</ele>
        <time>2021-10-16T12:15:53Z</time>
      </trkpt>
      <trkpt lat="40.0531000" lon="-6.1934910">
        <ele>276.0</ele>
        <time>2021-10-16T12:15:57Z</time>
      </trkpt>
      <trkpt lat="40.0530710" lon="-6.1937540">
        <ele>276.0</ele>
        <time>2021-10-16T12:16:02Z</time>
      </trkpt>
      <trkpt lat="40.0530300" lon="-6.1941480">
        <ele>276.0</ele>
        <time>2021-10-16T12:16:09Z</time>
      </trkpt>
      <trkpt lat="40.0529830" lon="-6.1946200">
        <ele>276.2</ele>
        <time>2021-10-16T12:16:17Z</time>
      </trkpt>
      <trkpt lat="40.0529640" lon="-6.1947260">
        <ele>276.2</ele>
        <time>2021-10-16T12:16:19Z</time>
      </trkpt>
      <trkpt lat="40.0529260" lon="-6.1951960">
        <ele>276.2</ele>
        <time>2021-10-16T12:16:27Z</time>
      </trkpt>
      <trkpt lat="40.0528690" lon="-6.1956950">
        <ele>276.4</ele>
        <time>2021-10-16T12:16:36Z</time>
      </trkpt>
      <trkpt lat="40.0528330" lon="-6.1961120">
        <ele>276.4</ele>
        <time>2021-10-16T12:16:44Z</time>
      </trkpt>
      <trkpt lat="40.0527820" lon="-6.1964660">
        <ele>277.0</ele>
        <time>2021-10-16T12:16:51Z</time>
      </trkpt>
      <trkpt lat="40.0527790" lon="-6.1965150">
        <ele>277.0</ele>
        <time>2021-10-16T12:16:52Z</time>
      </trkpt>
      <trkpt lat="40.0527420" lon="-6.1968910">
        <ele>277.4</ele>
        <time>2021-10-16T12:17:00Z</time>
      </trkpt>
      <trkpt lat="40.0527060" lon="-6.1972340">
        <ele>278.0</ele>
        <time>2021-10-16T12:17:07Z</time>
      </trkpt>
      <trkpt lat="40.0526450" lon="-6.1977800">
        <ele>278.0</ele>
        <time>2021-10-16T12:17:18Z</time>
      </trkpt>
      <trkpt lat="40.0525940" lon="-6.1982780">
        <ele>277.4</ele>
        <time>2021-10-16T12:17:28Z</time>
      </trkpt>
      <trkpt lat="40.0525780" lon="-6.1986910">
        <ele>277.2</ele>
        <time>2021-10-16T12:17:36Z</time>
      </trkpt>
      <trkpt lat="40.0526260" lon="-6.1991220">
        <ele>277.0</ele>
        <time>2021-10-16T12:17:44Z</time>
      </trkpt>
      <trkpt lat="40.0526460" lon="-6.1993710">
        <ele>277.0</ele>
        <time>2021-10-16T12:17:49Z</time>
      </trkpt>
      <trkpt lat="40.0526440" lon="-6.1995250">
        <ele>277.2</ele>
        <time>2021-10-16T12:17:52Z</time>
      </trkpt>
      <trkpt lat="40.0526810" lon="-6.1999850">
        <ele>277.6</ele>
        <time>2021-10-16T12:18:02Z</time>
      </trkpt>
      <trkpt lat="40.0526980" lon="-6.2001730">
        <ele>278.8</ele>
        <time>2021-10-16T12:18:07Z</time>
      </trkpt>
      <trkpt lat="40.0526680" lon="-6.2004190">
        <ele>279.6</ele>
        <time>2021-10-16T12:18:14Z</time>
      </trkpt>
      <trkpt lat="40.0526520" lon="-6.2004820">
        <ele>279.8</ele>
        <time>2021-10-16T12:18:16Z</time>
      </trkpt>
      <trkpt lat="40.0526160" lon="-6.2006090">
        <ele>280.0</ele>
        <time>2021-10-16T12:18:20Z</time>
      </trkpt>
      <trkpt lat="40.0525380" lon="-6.2009250">
        <ele>280.2</ele>
        <time>2021-10-16T12:18:29Z</time>
      </trkpt>
      <trkpt lat="40.0525290" lon="-6.2009630">
        <ele>280.2</ele>
        <time>2021-10-16T12:18:30Z</time>
      </trkpt>
      <trkpt lat="40.0524750" lon="-6.2012830">
        <ele>280.4</ele>
        <time>2021-10-16T12:18:38Z</time>
      </trkpt>
      <trkpt lat="40.0525000" lon="-6.2014410">
        <ele>280.4</ele>
        <time>2021-10-16T12:18:41Z</time>
      </trkpt>
      <trkpt lat="40.0525190" lon="-6.2014950">
        <ele>280.4</ele>
        <time>2021-10-16T12:18:42Z</time>
      </trkpt>
      <trkpt lat="40.0526920" lon="-6.2018880">
        <ele>279.4</ele>
        <time>2021-10-16T12:18:49Z</time>
      </trkpt>
      <trkpt lat="40.0527490" lon="-6.2019960">
        <ele>278.4</ele>
        <time>2021-10-16T12:18:51Z</time>
      </trkpt>
      <trkpt lat="40.0528870" lon="-6.2022230">
        <ele>277.4</ele>
        <time>2021-10-16T12:18:55Z</time>
      </trkpt>
      <trkpt lat="40.0529680" lon="-6.2023300">
        <ele>276.4</ele>
        <time>2021-10-16T12:18:57Z</time>
      </trkpt>
      <trkpt lat="40.0530920" lon="-6.2025060">
        <ele>275.0</ele>
        <time>2021-10-16T12:19:00Z</time>
      </trkpt>
      <trkpt lat="40.0532290" lon="-6.2026850">
        <ele>274.2</ele>
        <time>2021-10-16T12:19:03Z</time>
      </trkpt>
      <trkpt lat="40.0532810" lon="-6.2027320">
        <ele>273.8</ele>
        <time>2021-10-16T12:19:04Z</time>
      </trkpt>
      <trkpt lat="40.0533810" lon="-6.2028100">
        <ele>272.6</ele>
        <time>2021-10-16T12:19:06Z</time>
      </trkpt>
      <trkpt lat="40.0534220" lon="-6.2028490">
        <ele>272.0</ele>
        <time>2021-10-16T12:19:07Z</time>
      </trkpt>
      <trkpt lat="40.0534570" lon="-6.2028940">
        <ele>271.8</ele>
        <time>2021-10-16T12:19:08Z</time>
      </trkpt>
      <trkpt lat="40.0534870" lon="-6.2029450">
        <ele>271.4</ele>
        <time>2021-10-16T12:19:09Z</time>
      </trkpt>
      <trkpt lat="40.0535550" lon="-6.2031690">
        <ele>271.0</ele>
        <time>2021-10-16T12:19:12Z</time>
      </trkpt>
      <trkpt lat="40.0535820" lon="-6.2032590">
        <ele>270.8</ele>
        <time>2021-10-16T12:19:13Z</time>
      </trkpt>
      <trkpt lat="40.0536160" lon="-6.2033460">
        <ele>270.6</ele>
        <time>2021-10-16T12:19:14Z</time>
      </trkpt>
      <trkpt lat="40.0536560" lon="-6.2034270">
        <ele>269.8</ele>
        <time>2021-10-16T12:19:15Z</time>
      </trkpt>
      <trkpt lat="40.0537020" lon="-6.2034990">
        <ele>268.6</ele>
        <time>2021-10-16T12:19:16Z</time>
      </trkpt>
      <trkpt lat="40.0537890" lon="-6.2036300">
        <ele>267.4</ele>
        <time>2021-10-16T12:19:18Z</time>
      </trkpt>
      <trkpt lat="40.0538920" lon="-6.2037890">
        <ele>266.8</ele>
        <time>2021-10-16T12:19:21Z</time>
      </trkpt>
      <trkpt lat="40.0539740" lon="-6.2039030">
        <ele>266.8</ele>
        <time>2021-10-16T12:19:25Z</time>
      </trkpt>
      <trkpt lat="40.0540480" lon="-6.2040070">
        <ele>267.6</ele>
        <time>2021-10-16T12:19:30Z</time>
      </trkpt>
      <trkpt lat="40.0541160" lon="-6.2041190">
        <ele>268.4</ele>
        <time>2021-10-16T12:19:35Z</time>
      </trkpt>
      <trkpt lat="40.0541390" lon="-6.2041650">
        <ele>269.0</ele>
        <time>2021-10-16T12:19:37Z</time>
      </trkpt>
      <trkpt lat="40.0541720" lon="-6.2042400">
        <ele>269.6</ele>
        <time>2021-10-16T12:19:40Z</time>
      </trkpt>
      <trkpt lat="40.0542190" lon="-6.2043360">
        <ele>270.0</ele>
        <time>2021-10-16T12:19:44Z</time>
      </trkpt>
      <trkpt lat="40.0542480" lon="-6.2043850">
        <ele>270.2</ele>
        <time>2021-10-16T12:19:46Z</time>
      </trkpt>
      <trkpt lat="40.0542850" lon="-6.2044610">
        <ele>270.6</ele>
        <time>2021-10-16T12:19:49Z</time>
      </trkpt>
      <trkpt lat="40.0543780" lon="-6.2046270">
        <ele>271.4</ele>
        <time>2021-10-16T12:19:56Z</time>
      </trkpt>
      <trkpt lat="40.0544010" lon="-6.2046730">
        <ele>271.6</ele>
        <time>2021-10-16T12:19:58Z</time>
      </trkpt>
      <trkpt lat="40.0544580" lon="-6.2047890">
        <ele>272.4</ele>
        <time>2021-10-16T12:20:03Z</time>
      </trkpt>
      <trkpt lat="40.0544690" lon="-6.2048090">
        <ele>272.6</ele>
        <time>2021-10-16T12:20:04Z</time>
      </trkpt>
      <trkpt lat="40.0545360" lon="-6.2049500">
        <ele>273.8</ele>
        <time>2021-10-16T12:20:11Z</time>
      </trkpt>
      <trkpt lat="40.0545840" lon="-6.2050470">
        <ele>274.6</ele>
        <time>2021-10-16T12:20:16Z</time>
      </trkpt>
      <trkpt lat="40.0545950" lon="-6.2050830">
        <ele>274.8</ele>
        <time>2021-10-16T12:20:18Z</time>
      </trkpt>
      <trkpt lat="40.0546100" lon="-6.2051190">
        <ele>275.0</ele>
        <time>2021-10-16T12:20:20Z</time>
      </trkpt>
      <trkpt lat="40.0546440" lon="-6.2051770">
        <ele>275.2</ele>
        <time>2021-10-16T12:20:24Z</time>
      </trkpt>
      <trkpt lat="40.0546880" lon="-6.2052580">
        <ele>275.6</ele>
        <time>2021-10-16T12:20:29Z</time>
      </trkpt>
      <trkpt lat="40.0547740" lon="-6.2054010">
        <ele>275.8</ele>
        <time>2021-10-16T12:20:35Z</time>
      </trkpt>
      <trkpt lat="40.0548960" lon="-6.2056760">
        <ele>275.8</ele>
        <time>2021-10-16T12:20:43Z</time>
      </trkpt>
      <trkpt lat="40.0549770" lon="-6.2059050">
        <ele>276.0</ele>
        <time>2021-10-16T12:20:49Z</time>
      </trkpt>
      <trkpt lat="40.0550020" lon="-6.2059850">
        <ele>276.2</ele>
        <time>2021-10-16T12:20:51Z</time>
      </trkpt>
      <trkpt lat="40.0550430" lon="-6.2061570">
        <ele>276.4</ele>
        <time>2021-10-16T12:20:55Z</time>
      </trkpt>
      <trkpt lat="40.0550400" lon="-6.2062040">
        <ele>276.4</ele>
        <time>2021-10-16T12:20:56Z</time>
      </trkpt>
      <trkpt lat="40.0550140" lon="-6.2063380">
        <ele>276.6</ele>
        <time>2021-10-16T12:20:59Z</time>
      </trkpt>
      <trkpt lat="40.0549590" lon="-6.2064500">
        <ele>276.6</ele>
        <time>2021-10-16T12:21:02Z</time>
      </trkpt>
      <trkpt lat="40.0547710" lon="-6.2067030">
        <ele>276.4</ele>
        <time>2021-10-16T12:21:10Z</time>
      </trkpt>
      <trkpt lat="40.0546610" lon="-6.2068330">
        <ele>276.4</ele>
        <time>2021-10-16T12:21:16Z</time>
      </trkpt>
      <trkpt lat="40.0545170" lon="-6.2068570">
        <ele>276.4</ele>
        <time>2021-10-16T12:21:21Z</time>
      </trkpt>
      <trkpt lat="40.0543350" lon="-6.2068630">
        <ele>276.2</ele>
        <time>2021-10-16T12:21:26Z</time>
      </trkpt>
      <trkpt lat="40.0541670" lon="-6.2068650">
        <ele>275.8</ele>
        <time>2021-10-16T12:21:30Z</time>
      </trkpt>
      <trkpt lat="40.0540730" lon="-6.2068620">
        <ele>275.6</ele>
        <time>2021-10-16T12:21:32Z</time>
      </trkpt>
      <trkpt lat="40.0539790" lon="-6.2068670">
        <ele>275.4</ele>
        <time>2021-10-16T12:21:34Z</time>
      </trkpt>
      <trkpt lat="40.0538280" lon="-6.2068570">
        <ele>274.8</ele>
        <time>2021-10-16T12:21:37Z</time>
      </trkpt>
      <trkpt lat="40.0537190" lon="-6.2068600">
        <ele>274.6</ele>
        <time>2021-10-16T12:21:39Z</time>
      </trkpt>
      <trkpt lat="40.0536640" lon="-6.2068590">
        <ele>274.2</ele>
        <time>2021-10-16T12:21:40Z</time>
      </trkpt>
      <trkpt lat="40.0533840" lon="-6.2068340">
        <ele>273.8</ele>
        <time>2021-10-16T12:21:45Z</time>
      </trkpt>
      <trkpt lat="40.0533290" lon="-6.2068340">
        <ele>273.6</ele>
        <time>2021-10-16T12:21:46Z</time>
      </trkpt>
      <trkpt lat="40.0530130" lon="-6.2068380">
        <ele>272.6</ele>
        <time>2021-10-16T12:21:52Z</time>
      </trkpt>
      <trkpt lat="40.0529140" lon="-6.2068370">
        <ele>272.2</ele>
        <time>2021-10-16T12:21:54Z</time>
      </trkpt>
      <trkpt lat="40.0527190" lon="-6.2068520">
        <ele>271.4</ele>
        <time>2021-10-16T12:21:58Z</time>
      </trkpt>
      <trkpt lat="40.0525740" lon="-6.2068600">
        <ele>271.2</ele>
        <time>2021-10-16T12:22:01Z</time>
      </trkpt>
      <trkpt lat="40.0525250" lon="-6.2068600">
        <ele>271.0</ele>
        <time>2021-10-16T12:22:02Z</time>
      </trkpt>
      <trkpt lat="40.0524200" lon="-6.2068570">
        <ele>270.6</ele>
        <time>2021-10-16T12:22:04Z</time>
      </trkpt>
      <trkpt lat="40.0521970" lon="-6.2068400">
        <ele>270.0</ele>
        <time>2021-10-16T12:22:08Z</time>
      </trkpt>
      <trkpt lat="40.0521410" lon="-6.2068290">
        <ele>269.6</ele>
        <time>2021-10-16T12:22:09Z</time>
      </trkpt>
      <trkpt lat="40.0518040" lon="-6.2068020">
        <ele>268.4</ele>
        <time>2021-10-16T12:22:15Z</time>
      </trkpt>
      <trkpt lat="40.0517180" lon="-6.2068090">
        <ele>268.2</ele>
        <time>2021-10-16T12:22:17Z</time>
      </trkpt>
      <trkpt lat="40.0516400" lon="-6.2068260">
        <ele>267.4</ele>
        <time>2021-10-16T12:22:20Z</time>
      </trkpt>
      <trkpt lat="40.0516230" lon="-6.2068310">
        <ele>267.4</ele>
        <time>2021-10-16T12:22:21Z</time>
      </trkpt>
      <trkpt lat="40.0516090" lon="-6.2068380">
        <ele>266.6</ele>
        <time>2021-10-16T12:22:24Z</time>
      </trkpt>
      <trkpt lat="40.0515540" lon="-6.2068200">
        <ele>266.4</ele>
        <time>2021-10-16T12:22:32Z</time>
      </trkpt>
      <trkpt lat="40.0514950" lon="-6.2068130">
        <ele>266.0</ele>
        <time>2021-10-16T12:22:37Z</time>
      </trkpt>
      <trkpt lat="40.0515820" lon="-6.2068330">
        <ele>265.8</ele>
        <time>2021-10-16T12:22:51Z</time>
      </trkpt>
      <trkpt lat="40.0515970" lon="-6.2068750">
        <ele>266.0</ele>
        <time>2021-10-16T12:22:53Z</time>
      </trkpt>
      <trkpt lat="40.0515420" lon="-6.2069680">
        <ele>266.0</ele>
        <time>2021-10-16T12:22:57Z</time>
      </trkpt>
      <trkpt lat="40.0514260" lon="-6.2071100">
        <ele>266.2</ele>
        <time>2021-10-16T12:23:03Z</time>
      </trkpt>
      <trkpt lat="40.0514030" lon="-6.2071390">
        <ele>266.2</ele>
        <time>2021-10-16T12:23:04Z</time>
      </trkpt>
      <trkpt lat="40.0512410" lon="-6.2073580">
        <ele>265.6</ele>
        <time>2021-10-16T12:23:10Z</time>
      </trkpt>
      <trkpt lat="40.0512130" lon="-6.2073960">
        <ele>265.6</ele>
        <time>2021-10-16T12:23:11Z</time>
      </trkpt>
      <trkpt lat="40.0510230" lon="-6.2076460">
        <ele>265.0</ele>
        <time>2021-10-16T12:23:18Z</time>
      </trkpt>
      <trkpt lat="40.0509450" lon="-6.2078640">
        <ele>265.0</ele>
        <time>2021-10-16T12:23:23Z</time>
      </trkpt>
      <trkpt lat="40.0510430" lon="-6.2080240">
        <ele>264.8</ele>
        <time>2021-10-16T12:23:27Z</time>
      </trkpt>
      <trkpt lat="40.0512460" lon="-6.2082430">
        <ele>264.6</ele>
        <time>2021-10-16T12:23:33Z</time>
      </trkpt>
      <trkpt lat="40.0513070" lon="-6.2083190">
        <ele>264.4</ele>
        <time>2021-10-16T12:23:35Z</time>
      </trkpt>
      <trkpt lat="40.0514360" lon="-6.2084720">
        <ele>264.2</ele>
        <time>2021-10-16T12:23:39Z</time>
      </trkpt>
      <trkpt lat="40.0515250" lon="-6.2085770">
        <ele>264.2</ele>
        <time>2021-10-16T12:23:42Z</time>
      </trkpt>
      <trkpt lat="40.0516960" lon="-6.2087930">
        <ele>264.0</ele>
        <time>2021-10-16T12:23:48Z</time>
      </trkpt>
      <trkpt lat="40.0517730" lon="-6.2089090">
        <ele>264.0</ele>
        <time>2021-10-16T12:23:51Z</time>
      </trkpt>
      <trkpt lat="40.0518580" lon="-6.2091020">
        <ele>264.0</ele>
        <time>2021-10-16T12:23:55Z</time>
      </trkpt>
      <trkpt lat="40.0518690" lon="-6.2091670">
        <ele>264.0</ele>
        <time>2021-10-16T12:23:56Z</time>
      </trkpt>
      <trkpt lat="40.0518830" lon="-6.2093090">
        <ele>263.8</ele>
        <time>2021-10-16T12:23:58Z</time>
      </trkpt>
      <trkpt lat="40.0518810" lon="-6.2095450">
        <ele>263.4</ele>
        <time>2021-10-16T12:24:01Z</time>
      </trkpt>
      <trkpt lat="40.0518020" lon="-6.2098970">
        <ele>262.2</ele>
        <time>2021-10-16T12:24:06Z</time>
      </trkpt>
      <trkpt lat="40.0517910" lon="-6.2099600">
        <ele>262.2</ele>
        <time>2021-10-16T12:24:07Z</time>
      </trkpt>
      <trkpt lat="40.0517880" lon="-6.2101930">
        <ele>262.0</ele>
        <time>2021-10-16T12:24:11Z</time>
      </trkpt>
      <trkpt lat="40.0517890" lon="-6.2102480">
        <ele>261.8</ele>
        <time>2021-10-16T12:24:12Z</time>
      </trkpt>
      <trkpt lat="40.0517710" lon="-6.2104540">
        <ele>261.8</ele>
        <time>2021-10-16T12:24:16Z</time>
      </trkpt>
      <trkpt lat="40.0517120" lon="-6.2106850">
        <ele>262.6</ele>
        <time>2021-10-16T12:24:22Z</time>
      </trkpt>
      <trkpt lat="40.0516610" lon="-6.2108680">
        <ele>263.2</ele>
        <time>2021-10-16T12:24:28Z</time>
      </trkpt>
      <trkpt lat="40.0516450" lon="-6.2109230">
        <ele>263.6</ele>
        <time>2021-10-16T12:24:30Z</time>
      </trkpt>
      <trkpt lat="40.0515930" lon="-6.2110640">
        <ele>264.8</ele>
        <time>2021-10-16T12:24:35Z</time>
      </trkpt>
      <trkpt lat="40.0515850" lon="-6.2110920">
        <ele>265.0</ele>
        <time>2021-10-16T12:24:36Z</time>
      </trkpt>
      <trkpt lat="40.0515750" lon="-6.2111430">
        <ele>265.2</ele>
        <time>2021-10-16T12:24:38Z</time>
      </trkpt>
      <trkpt lat="40.0515520" lon="-6.2112180">
        <ele>265.6</ele>
        <time>2021-10-16T12:24:41Z</time>
      </trkpt>
      <trkpt lat="40.0515430" lon="-6.2112450">
        <ele>266.0</ele>
        <time>2021-10-16T12:24:42Z</time>
      </trkpt>
      <trkpt lat="40.0515110" lon="-6.2113480">
        <ele>266.4</ele>
        <time>2021-10-16T12:24:46Z</time>
      </trkpt>
      <trkpt lat="40.0515020" lon="-6.2113740">
        <ele>266.6</ele>
        <time>2021-10-16T12:24:47Z</time>
      </trkpt>
      <trkpt lat="40.0514930" lon="-6.2114000">
        <ele>266.8</ele>
        <time>2021-10-16T12:24:48Z</time>
      </trkpt>
      <trkpt lat="40.0514700" lon="-6.2114440">
        <ele>267.0</ele>
        <time>2021-10-16T12:24:50Z</time>
      </trkpt>
      <trkpt lat="40.0514590" lon="-6.2114690">
        <ele>267.0</ele>
        <time>2021-10-16T12:24:51Z</time>
      </trkpt>
      <trkpt lat="40.0514460" lon="-6.2114920">
        <ele>267.2</ele>
        <time>2021-10-16T12:24:52Z</time>
      </trkpt>
      <trkpt lat="40.0514010" lon="-6.2115870">
        <ele>267.4</ele>
        <time>2021-10-16T12:24:56Z</time>
      </trkpt>
      <trkpt lat="40.0513750" lon="-6.2116340">
        <ele>267.4</ele>
        <time>2021-10-16T12:24:58Z</time>
      </trkpt>
      <trkpt lat="40.0513490" lon="-6.2116820">
        <ele>267.6</ele>
        <time>2021-10-16T12:25:00Z</time>
      </trkpt>
      <trkpt lat="40.0512820" lon="-6.2117930">
        <ele>267.8</ele>
        <time>2021-10-16T12:25:05Z</time>
      </trkpt>
      <trkpt lat="40.0512660" lon="-6.2118130">
        <ele>268.0</ele>
        <time>2021-10-16T12:25:06Z</time>
      </trkpt>
      <trkpt lat="40.0512240" lon="-6.2119360">
        <ele>268.4</ele>
        <time>2021-10-16T12:25:11Z</time>
      </trkpt>
      <trkpt lat="40.0512240" lon="-6.2119650">
        <ele>268.4</ele>
        <time>2021-10-16T12:25:12Z</time>
      </trkpt>
      <trkpt lat="40.0512300" lon="-6.2120720">
        <ele>268.8</ele>
        <time>2021-10-16T12:25:16Z</time>
      </trkpt>
      <trkpt lat="40.0512240" lon="-6.2121130">
        <ele>268.8</ele>
        <time>2021-10-16T12:25:18Z</time>
      </trkpt>
      <trkpt lat="40.0512190" lon="-6.2121220">
        <ele>269.0</ele>
        <time>2021-10-16T12:25:19Z</time>
      </trkpt>
      <trkpt lat="40.0512190" lon="-6.2121220">
        <ele>269.0</ele>
        <time>2021-10-16T12:25:21Z</time>
      </trkpt>
      <trkpt lat="40.0511620" lon="-6.2121260">
        <ele>269.6</ele>
        <time>2021-10-16T12:27:28Z</time>
      </trkpt>
      <trkpt lat="40.0511430" lon="-6.2121300">
        <ele>269.6</ele>
        <time>2021-10-16T12:27:29Z</time>
      </trkpt>
      <trkpt lat="40.0510230" lon="-6.2121460">
        <ele>270.0</ele>
        <time>2021-10-16T12:27:35Z</time>
      </trkpt>
      <trkpt lat="40.0510100" lon="-6.2121600">
        <ele>270.0</ele>
        <time>2021-10-16T12:27:36Z</time>
      </trkpt>
      <trkpt lat="40.0509360" lon="-6.2122210">
        <ele>270.2</ele>
        <time>2021-10-16T12:27:41Z</time>
      </trkpt>
      <trkpt lat="40.0509180" lon="-6.2122290">
        <ele>270.4</ele>
        <time>2021-10-16T12:27:43Z</time>
      </trkpt>
      <trkpt lat="40.0508080" lon="-6.2123550">
        <ele>270.8</ele>
        <time>2021-10-16T12:27:50Z</time>
      </trkpt>
      <trkpt lat="40.0507200" lon="-6.2124500">
        <ele>271.4</ele>
        <time>2021-10-16T12:27:55Z</time>
      </trkpt>
      <trkpt lat="40.0506330" lon="-6.2125310">
        <ele>271.6</ele>
        <time>2021-10-16T12:28:00Z</time>
      </trkpt>
      <trkpt lat="40.0505320" lon="-6.2126450">
        <ele>272.4</ele>
        <time>2021-10-16T12:28:06Z</time>
      </trkpt>
      <trkpt lat="40.0505020" lon="-6.2126850">
        <ele>272.8</ele>
        <time>2021-10-16T12:28:08Z</time>
      </trkpt>
      <trkpt lat="40.0503940" lon="-6.2128200">
        <ele>273.4</ele>
        <time>2021-10-16T12:28:14Z</time>
      </trkpt>
      <trkpt lat="40.0503550" lon="-6.2128490">
        <ele>273.4</ele>
        <time>2021-10-16T12:28:16Z</time>
      </trkpt>
      <trkpt lat="40.0502910" lon="-6.2129200">
        <ele>273.4</ele>
        <time>2021-10-16T12:28:19Z</time>
      </trkpt>
      <trkpt lat="40.0502370" lon="-6.2130030">
        <ele>273.2</ele>
        <time>2021-10-16T12:28:22Z</time>
      </trkpt>
      <trkpt lat="40.0502170" lon="-6.2130290">
        <ele>273.2</ele>
        <time>2021-10-16T12:28:23Z</time>
      </trkpt>
      <trkpt lat="40.0501080" lon="-6.2131000">
        <ele>273.0</ele>
        <time>2021-10-16T12:28:27Z</time>
      </trkpt>
      <trkpt lat="40.0500810" lon="-6.2131140">
        <ele>273.0</ele>
        <time>2021-10-16T12:28:28Z</time>
      </trkpt>
      <trkpt lat="40.0498910" lon="-6.2131790">
        <ele>272.6</ele>
        <time>2021-10-16T12:28:35Z</time>
      </trkpt>
      <trkpt lat="40.0498210" lon="-6.2131950">
        <ele>272.6</ele>
        <time>2021-10-16T12:28:36Z</time>
      </trkpt>
      <trkpt lat="40.0497240" lon="-6.2131960">
        <ele>272.6</ele>
        <time>2021-10-16T12:28:39Z</time>
      </trkpt>
      <trkpt lat="40.0495960" lon="-6.2132100">
        <ele>272.6</ele>
        <time>2021-10-16T12:28:43Z</time>
      </trkpt>
      <trkpt lat="40.0494460" lon="-6.2131820">
        <ele>273.4</ele>
        <time>2021-10-16T12:28:50Z</time>
      </trkpt>
      <trkpt lat="40.0494160" lon="-6.2131730">
        <ele>273.8</ele>
        <time>2021-10-16T12:28:52Z</time>
      </trkpt>
      <trkpt lat="40.0494030" lon="-6.2131310">
        <ele>274.0</ele>
        <time>2021-10-16T12:28:54Z</time>
      </trkpt>
      <trkpt lat="40.0494020" lon="-6.2131030">
        <ele>274.0</ele>
        <time>2021-10-16T12:28:55Z</time>
      </trkpt>
      <trkpt lat="40.0493890" lon="-6.2129530">
        <ele>274.2</ele>
        <time>2021-10-16T12:29:01Z</time>
      </trkpt>
      <trkpt lat="40.0493920" lon="-6.2128160">
        <ele>274.2</ele>
        <time>2021-10-16T12:29:06Z</time>
      </trkpt>
      <trkpt lat="40.0493470" lon="-6.2125840">
        <ele>273.8</ele>
        <time>2021-10-16T12:29:12Z</time>
      </trkpt>
      <trkpt lat="40.0493260" lon="-6.2124330">
        <ele>273.6</ele>
        <time>2021-10-16T12:29:16Z</time>
      </trkpt>
      <trkpt lat="40.0493210" lon="-6.2121830">
        <ele>273.4</ele>
        <time>2021-10-16T12:29:22Z</time>
      </trkpt>
      <trkpt lat="40.0493140" lon="-6.2121340">
        <ele>273.2</ele>
        <time>2021-10-16T12:29:23Z</time>
      </trkpt>
      <trkpt lat="40.0493030" lon="-6.2121070">
        <ele>273.0</ele>
        <time>2021-10-16T12:29:24Z</time>
      </trkpt>
      <trkpt lat="40.0492480" lon="-6.2120730">
        <ele>272.8</ele>
        <time>2021-10-16T12:29:26Z</time>
      </trkpt>
      <trkpt lat="40.0490810" lon="-6.2120570">
        <ele>272.2</ele>
        <time>2021-10-16T12:29:31Z</time>
      </trkpt>
      <trkpt lat="40.0489550" lon="-6.2120340">
        <ele>272.0</ele>
        <time>2021-10-16T12:29:35Z</time>
      </trkpt>
      <trkpt lat="40.0488040" lon="-6.2120180">
        <ele>272.2</ele>
        <time>2021-10-16T12:29:40Z</time>
      </trkpt>
      <trkpt lat="40.0487260" lon="-6.2120030">
        <ele>272.4</ele>
        <time>2021-10-16T12:29:43Z</time>
      </trkpt>
      <trkpt lat="40.0486820" lon="-6.2119730">
        <ele>272.6</ele>
        <time>2021-10-16T12:29:45Z</time>
      </trkpt>
      <trkpt lat="40.0485670" lon="-6.2119000">
        <ele>272.8</ele>
        <time>2021-10-16T12:29:50Z</time>
      </trkpt>
      <trkpt lat="40.0483810" lon="-6.2118020">
        <ele>272.6</ele>
        <time>2021-10-16T12:29:55Z</time>
      </trkpt>
      <trkpt lat="40.0483240" lon="-6.2117810">
        <ele>272.6</ele>
        <time>2021-10-16T12:29:56Z</time>
      </trkpt>
      <trkpt lat="40.0481380" lon="-6.2116950">
        <ele>271.8</ele>
        <time>2021-10-16T12:29:59Z</time>
      </trkpt>
      <trkpt lat="40.0480930" lon="-6.2116710">
        <ele>271.4</ele>
        <time>2021-10-16T12:30:00Z</time>
      </trkpt>
      <trkpt lat="40.0480360" lon="-6.2116430">
        <ele>270.6</ele>
        <time>2021-10-16T12:30:01Z</time>
      </trkpt>
      <trkpt lat="40.0479350" lon="-6.2115920">
        <ele>269.4</ele>
        <time>2021-10-16T12:30:04Z</time>
      </trkpt>
      <trkpt lat="40.0478300" lon="-6.2115330">
        <ele>267.6</ele>
        <time>2021-10-16T12:30:06Z</time>
      </trkpt>
      <trkpt lat="40.0477280" lon="-6.2114780">
        <ele>266.6</ele>
        <time>2021-10-16T12:30:10Z</time>
      </trkpt>
      <trkpt lat="40.0476900" lon="-6.2114660">
        <ele>266.2</ele>
        <time>2021-10-16T12:30:12Z</time>
      </trkpt>
      <trkpt lat="40.0475690" lon="-6.2114540">
        <ele>265.8</ele>
        <time>2021-10-16T12:30:17Z</time>
      </trkpt>
      <trkpt lat="40.0473370" lon="-6.2114830">
        <ele>265.6</ele>
        <time>2021-10-16T12:30:23Z</time>
      </trkpt>
      <trkpt lat="40.0472900" lon="-6.2115130">
        <ele>265.6</ele>
        <time>2021-10-16T12:30:25Z</time>
      </trkpt>
      <trkpt lat="40.0471450" lon="-6.2115880">
        <ele>265.4</ele>
        <time>2021-10-16T12:30:30Z</time>
      </trkpt>
      <trkpt lat="40.0469630" lon="-6.2116890">
        <ele>265.8</ele>
        <time>2021-10-16T12:30:36Z</time>
      </trkpt>
      <trkpt lat="40.0469310" lon="-6.2117080">
        <ele>265.8</ele>
        <time>2021-10-16T12:30:37Z</time>
      </trkpt>
      <trkpt lat="40.0466700" lon="-6.2118340">
        <ele>266.2</ele>
        <time>2021-10-16T12:30:45Z</time>
      </trkpt>
      <trkpt lat="40.0464990" lon="-6.2119360">
        <ele>266.6</ele>
        <time>2021-10-16T12:30:50Z</time>
      </trkpt>
      <trkpt lat="40.0462960" lon="-6.2121080">
        <ele>267.0</ele>
        <time>2021-10-16T12:30:56Z</time>
      </trkpt>
      <trkpt lat="40.0461590" lon="-6.2122250">
        <ele>267.2</ele>
        <time>2021-10-16T12:31:00Z</time>
      </trkpt>
      <trkpt lat="40.0460400" lon="-6.2123310">
        <ele>267.4</ele>
        <time>2021-10-16T12:31:04Z</time>
      </trkpt>
      <trkpt lat="40.0458230" lon="-6.2125250">
        <ele>267.6</ele>
        <time>2021-10-16T12:31:11Z</time>
      </trkpt>
      <trkpt lat="40.0457870" lon="-6.2125570">
        <ele>267.6</ele>
        <time>2021-10-16T12:31:12Z</time>
      </trkpt>
      <trkpt lat="40.0456270" lon="-6.2126710">
        <ele>267.2</ele>
        <time>2021-10-16T12:31:16Z</time>
      </trkpt>
      <trkpt lat="40.0455810" lon="-6.2126940">
        <ele>267.2</ele>
        <time>2021-10-16T12:31:17Z</time>
      </trkpt>
      <trkpt lat="40.0454810" lon="-6.2127280">
        <ele>267.0</ele>
        <time>2021-10-16T12:31:19Z</time>
      </trkpt>
      <trkpt lat="40.0453100" lon="-6.2127540">
        <ele>266.8</ele>
        <time>2021-10-16T12:31:22Z</time>
      </trkpt>
      <trkpt lat="40.0448620" lon="-6.2127910">
        <ele>265.8</ele>
        <time>2021-10-16T12:31:30Z</time>
      </trkpt>
      <trkpt lat="40.0445200" lon="-6.2128100">
        <ele>265.6</ele>
        <time>2021-10-16T12:31:36Z</time>
      </trkpt>
      <trkpt lat="40.0442380" lon="-6.2128340">
        <ele>265.2</ele>
        <time>2021-10-16T12:31:41Z</time>
      </trkpt>
      <trkpt lat="40.0438540" lon="-6.2128630">
        <ele>265.2</ele>
        <time>2021-10-16T12:31:49Z</time>
      </trkpt>
      <trkpt lat="40.0434520" lon="-6.2129310">
        <ele>265.2</ele>
        <time>2021-10-16T12:31:56Z</time>
      </trkpt>
      <trkpt lat="40.0431120" lon="-6.2130580">
        <ele>265.4</ele>
        <time>2021-10-16T12:32:03Z</time>
      </trkpt>
      <trkpt lat="40.0430640" lon="-6.2130800">
        <ele>265.4</ele>
        <time>2021-10-16T12:32:04Z</time>
      </trkpt>
      <trkpt lat="40.0425660" lon="-6.2132880">
        <ele>264.8</ele>
        <time>2021-10-16T12:32:14Z</time>
      </trkpt>
      <trkpt lat="40.0424610" lon="-6.2133230">
        <ele>264.8</ele>
        <time>2021-10-16T12:32:16Z</time>
      </trkpt>
      <trkpt lat="40.0424110" lon="-6.2133510">
        <ele>264.6</ele>
        <time>2021-10-16T12:32:17Z</time>
      </trkpt>
      <trkpt lat="40.0421710" lon="-6.2134820">
        <ele>264.4</ele>
        <time>2021-10-16T12:32:22Z</time>
      </trkpt>
      <trkpt lat="40.0415780" lon="-6.2137550">
        <ele>263.8</ele>
        <time>2021-10-16T12:32:33Z</time>
      </trkpt>
      <trkpt lat="40.0414090" lon="-6.2138210">
        <ele>263.6</ele>
        <time>2021-10-16T12:32:36Z</time>
      </trkpt>
      <trkpt lat="40.0409680" lon="-6.2140280">
        <ele>263.4</ele>
        <time>2021-10-16T12:32:44Z</time>
      </trkpt>
      <trkpt lat="40.0404440" lon="-6.2142600">
        <ele>263.4</ele>
        <time>2021-10-16T12:32:54Z</time>
      </trkpt>
      <trkpt lat="40.0400510" lon="-6.2144380">
        <ele>263.6</ele>
        <time>2021-10-16T12:33:02Z</time>
      </trkpt>
      <trkpt lat="40.0396600" lon="-6.2146240">
        <ele>264.2</ele>
        <time>2021-10-16T12:33:11Z</time>
      </trkpt>
      <trkpt lat="40.0393490" lon="-6.2147620">
        <ele>264.8</ele>
        <time>2021-10-16T12:33:19Z</time>
      </trkpt>
      <trkpt lat="40.0393120" lon="-6.2147820">
        <ele>265.0</ele>
        <time>2021-10-16T12:33:20Z</time>
      </trkpt>
      <trkpt lat="40.0389100" lon="-6.2149640">
        <ele>265.4</ele>
        <time>2021-10-16T12:33:30Z</time>
      </trkpt>
      <trkpt lat="40.0388690" lon="-6.2149800">
        <ele>265.6</ele>
        <time>2021-10-16T12:33:31Z</time>
      </trkpt>
      <trkpt lat="40.0385330" lon="-6.2151300">
        <ele>266.0</ele>
        <time>2021-10-16T12:33:39Z</time>
      </trkpt>
      <trkpt lat="40.0384470" lon="-6.2151640">
        <ele>266.0</ele>
        <time>2021-10-16T12:33:41Z</time>
      </trkpt>
      <trkpt lat="40.0380260" lon="-6.2153450">
        <ele>266.6</ele>
        <time>2021-10-16T12:33:51Z</time>
      </trkpt>
      <trkpt lat="40.0379860" lon="-6.2153650">
        <ele>266.6</ele>
        <time>2021-10-16T12:33:52Z</time>
      </trkpt>
      <trkpt lat="40.0377190" lon="-6.2155100">
        <ele>266.8</ele>
        <time>2021-10-16T12:34:00Z</time>
      </trkpt>
      <trkpt lat="40.0374470" lon="-6.2156330">
        <ele>267.2</ele>
        <time>2021-10-16T12:34:07Z</time>
      </trkpt>
      <trkpt lat="40.0374200" lon="-6.2156450">
        <ele>267.4</ele>
        <time>2021-10-16T12:34:08Z</time>
      </trkpt>
      <trkpt lat="40.0372250" lon="-6.2157280">
        <ele>268.2</ele>
        <time>2021-10-16T12:34:15Z</time>
      </trkpt>
      <trkpt lat="40.0372020" lon="-6.2157390">
        <ele>268.6</ele>
        <time>2021-10-16T12:34:16Z</time>
      </trkpt>
      <trkpt lat="40.0371060" lon="-6.2157820">
        <ele>269.2</ele>
        <time>2021-10-16T12:34:20Z</time>
      </trkpt>
      <trkpt lat="40.0370110" lon="-6.2158250">
        <ele>269.8</ele>
        <time>2021-10-16T12:34:24Z</time>
      </trkpt>
      <trkpt lat="40.0369410" lon="-6.2158600">
        <ele>270.4</ele>
        <time>2021-10-16T12:34:27Z</time>
      </trkpt>
      <trkpt lat="40.0368260" lon="-6.2159140">
        <ele>271.0</ele>
        <time>2021-10-16T12:34:32Z</time>
      </trkpt>
      <trkpt lat="40.0367550" lon="-6.2159420">
        <ele>271.4</ele>
        <time>2021-10-16T12:34:35Z</time>
      </trkpt>
      <trkpt lat="40.0367140" lon="-6.2159540">
        <ele>271.4</ele>
        <time>2021-10-16T12:34:37Z</time>
      </trkpt>
      <trkpt lat="40.0366740" lon="-6.2159550">
        <ele>271.6</ele>
        <time>2021-10-16T12:34:39Z</time>
      </trkpt>
      <trkpt lat="40.0365240" lon="-6.2160390">
        <ele>272.0</ele>
        <time>2021-10-16T12:34:45Z</time>
      </trkpt>
      <trkpt lat="40.0362750" lon="-6.2161390">
        <ele>272.0</ele>
        <time>2021-10-16T12:34:53Z</time>
      </trkpt>
      <trkpt lat="40.0360000" lon="-6.2162580">
        <ele>271.4</ele>
        <time>2021-10-16T12:34:59Z</time>
      </trkpt>
      <trkpt lat="40.0357040" lon="-6.2163920">
        <ele>271.0</ele>
        <time>2021-10-16T12:35:04Z</time>
      </trkpt>
      <trkpt lat="40.0356380" lon="-6.2164210">
        <ele>270.6</ele>
        <time>2021-10-16T12:35:05Z</time>
      </trkpt>
      <trkpt lat="40.0355010" lon="-6.2164830">
        <ele>270.0</ele>
        <time>2021-10-16T12:35:07Z</time>
      </trkpt>
      <trkpt lat="40.0352180" lon="-6.2166140">
        <ele>269.0</ele>
        <time>2021-10-16T12:35:11Z</time>
      </trkpt>
      <trkpt lat="40.0350750" lon="-6.2166770">
        <ele>268.2</ele>
        <time>2021-10-16T12:35:13Z</time>
      </trkpt>
      <trkpt lat="40.0350010" lon="-6.2167100">
        <ele>267.8</ele>
        <time>2021-10-16T12:35:14Z</time>
      </trkpt>
      <trkpt lat="40.0347020" lon="-6.2168430">
        <ele>266.8</ele>
        <time>2021-10-16T12:35:18Z</time>
      </trkpt>
      <trkpt lat="40.0344740" lon="-6.2169410">
        <ele>265.8</ele>
        <time>2021-10-16T12:35:21Z</time>
      </trkpt>
      <trkpt lat="40.0344010" lon="-6.2169730">
        <ele>265.6</ele>
        <time>2021-10-16T12:35:22Z</time>
      </trkpt>
      <trkpt lat="40.0343320" lon="-6.2170030">
        <ele>265.2</ele>
        <time>2021-10-16T12:35:23Z</time>
      </trkpt>
      <trkpt lat="40.0340790" lon="-6.2171200">
        <ele>264.6</ele>
        <time>2021-10-16T12:35:27Z</time>
      </trkpt>
      <trkpt lat="40.0340250" lon="-6.2171440">
        <ele>264.6</ele>
        <time>2021-10-16T12:35:28Z</time>
      </trkpt>
      <trkpt lat="40.0337570" lon="-6.2172700">
        <ele>264.6</ele>
        <time>2021-10-16T12:35:34Z</time>
      </trkpt>
      <trkpt lat="40.0334540" lon="-6.2174080">
        <ele>265.6</ele>
        <time>2021-10-16T12:35:42Z</time>
      </trkpt>
      <trkpt lat="40.0332210" lon="-6.2175090">
        <ele>266.4</ele>
        <time>2021-10-16T12:35:49Z</time>
      </trkpt>
      <trkpt lat="40.0331890" lon="-6.2175240">
        <ele>266.6</ele>
        <time>2021-10-16T12:35:50Z</time>
      </trkpt>
      <trkpt lat="40.0329440" lon="-6.2176350">
        <ele>268.0</ele>
        <time>2021-10-16T12:35:58Z</time>
      </trkpt>
      <trkpt lat="40.0329160" lon="-6.2176480">
        <ele>268.0</ele>
        <time>2021-10-16T12:35:59Z</time>
      </trkpt>
      <trkpt lat="40.0326360" lon="-6.2177920">
        <ele>269.0</ele>
        <time>2021-10-16T12:36:09Z</time>
      </trkpt>
      <trkpt lat="40.0324080" lon="-6.2179590">
        <ele>269.4</ele>
        <time>2021-10-16T12:36:17Z</time>
      </trkpt>
      <trkpt lat="40.0323210" lon="-6.2180280">
        <ele>269.8</ele>
        <time>2021-10-16T12:36:20Z</time>
      </trkpt>
      <trkpt lat="40.0321760" lon="-6.2181540">
        <ele>270.0</ele>
        <time>2021-10-16T12:36:25Z</time>
      </trkpt>
      <trkpt lat="40.0321460" lon="-6.2181790">
        <ele>270.2</ele>
        <time>2021-10-16T12:36:26Z</time>
      </trkpt>
      <trkpt lat="40.0318920" lon="-6.2183910">
        <ele>270.4</ele>
        <time>2021-10-16T12:36:34Z</time>
      </trkpt>
      <trkpt lat="40.0317980" lon="-6.2184740">
        <ele>270.6</ele>
        <time>2021-10-16T12:36:37Z</time>
      </trkpt>
      <trkpt lat="40.0315450" lon="-6.2186920">
        <ele>270.8</ele>
        <time>2021-10-16T12:36:45Z</time>
      </trkpt>
      <trkpt lat="40.0313500" lon="-6.2188550">
        <ele>271.2</ele>
        <time>2021-10-16T12:36:51Z</time>
      </trkpt>
      <trkpt lat="40.0312240" lon="-6.2189630">
        <ele>271.6</ele>
        <time>2021-10-16T12:36:55Z</time>
      </trkpt>
      <trkpt lat="40.0309600" lon="-6.2191810">
        <ele>272.0</ele>
        <time>2021-10-16T12:37:03Z</time>
      </trkpt>
      <trkpt lat="40.0309250" lon="-6.2192110">
        <ele>272.2</ele>
        <time>2021-10-16T12:37:04Z</time>
      </trkpt>
      <trkpt lat="40.0307450" lon="-6.2193680">
        <ele>272.4</ele>
        <time>2021-10-16T12:37:09Z</time>
      </trkpt>
      <trkpt lat="40.0305970" lon="-6.2194950">
        <ele>272.4</ele>
        <time>2021-10-16T12:37:13Z</time>
      </trkpt>
      <trkpt lat="40.0302430" lon="-6.2197800">
        <ele>272.2</ele>
        <time>2021-10-16T12:37:22Z</time>
      </trkpt>
      <trkpt lat="40.0300930" lon="-6.2199140">
        <ele>272.2</ele>
        <time>2021-10-16T12:37:26Z</time>
      </trkpt>
      <trkpt lat="40.0299070" lon="-6.2200740">
        <ele>272.2</ele>
        <time>2021-10-16T12:37:31Z</time>
      </trkpt>
      <trkpt lat="40.0296140" lon="-6.2203370">
        <ele>272.0</ele>
        <time>2021-10-16T12:37:39Z</time>
      </trkpt>
      <trkpt lat="40.0292970" lon="-6.2206110">
        <ele>271.8</ele>
        <time>2021-10-16T12:37:47Z</time>
      </trkpt>
      <trkpt lat="40.0289610" lon="-6.2208950">
        <ele>272.0</ele>
        <time>2021-10-16T12:37:56Z</time>
      </trkpt>
      <trkpt lat="40.0286640" lon="-6.2211510">
        <ele>272.4</ele>
        <time>2021-10-16T12:38:04Z</time>
      </trkpt>
      <trkpt lat="40.0283570" lon="-6.2214180">
        <ele>272.6</ele>
        <time>2021-10-16T12:38:12Z</time>
      </trkpt>
      <trkpt lat="40.0279630" lon="-6.2217500">
        <ele>272.6</ele>
        <time>2021-10-16T12:38:22Z</time>
      </trkpt>
      <trkpt lat="40.0279190" lon="-6.2217870">
        <ele>272.6</ele>
        <time>2021-10-16T12:38:23Z</time>
      </trkpt>
      <trkpt lat="40.0276530" lon="-6.2220170">
        <ele>272.6</ele>
        <time>2021-10-16T12:38:29Z</time>
      </trkpt>
      <trkpt lat="40.0271650" lon="-6.2224340">
        <ele>272.2</ele>
        <time>2021-10-16T12:38:40Z</time>
      </trkpt>
      <trkpt lat="40.0267900" lon="-6.2227530">
        <ele>272.2</ele>
        <time>2021-10-16T12:38:48Z</time>
      </trkpt>
      <trkpt lat="40.0263540" lon="-6.2231280">
        <ele>271.6</ele>
        <time>2021-10-16T12:38:57Z</time>
      </trkpt>
      <trkpt lat="40.0263050" lon="-6.2231710">
        <ele>271.6</ele>
        <time>2021-10-16T12:38:58Z</time>
      </trkpt>
      <trkpt lat="40.0258540" lon="-6.2235630">
        <ele>271.2</ele>
        <time>2021-10-16T12:39:07Z</time>
      </trkpt>
      <trkpt lat="40.0258050" lon="-6.2236060">
        <ele>271.2</ele>
        <time>2021-10-16T12:39:08Z</time>
      </trkpt>
      <trkpt lat="40.0255530" lon="-6.2238250">
        <ele>270.8</ele>
        <time>2021-10-16T12:39:13Z</time>
      </trkpt>
      <trkpt lat="40.0252340" lon="-6.2240990">
        <ele>270.6</ele>
        <time>2021-10-16T12:39:19Z</time>
      </trkpt>
      <trkpt lat="40.0251760" lon="-6.2241480">
        <ele>270.6</ele>
        <time>2021-10-16T12:39:20Z</time>
      </trkpt>
      <trkpt lat="40.0247850" lon="-6.2244840">
        <ele>269.6</ele>
        <time>2021-10-16T12:39:26Z</time>
      </trkpt>
      <trkpt lat="40.0247140" lon="-6.2245420">
        <ele>269.2</ele>
        <time>2021-10-16T12:39:27Z</time>
      </trkpt>
      <trkpt lat="40.0245030" lon="-6.2247280">
        <ele>268.2</ele>
        <time>2021-10-16T12:39:30Z</time>
      </trkpt>
      <trkpt lat="40.0242770" lon="-6.2249240">
        <ele>267.2</ele>
        <time>2021-10-16T12:39:33Z</time>
      </trkpt>
      <trkpt lat="40.0240560" lon="-6.2251150">
        <ele>265.4</ele>
        <time>2021-10-16T12:39:36Z</time>
      </trkpt>
      <trkpt lat="40.0239190" lon="-6.2252320">
        <ele>264.4</ele>
        <time>2021-10-16T12:39:38Z</time>
      </trkpt>
      <trkpt lat="40.0237900" lon="-6.2253420">
        <ele>263.8</ele>
        <time>2021-10-16T12:39:40Z</time>
      </trkpt>
      <trkpt lat="40.0235410" lon="-6.2255510">
        <ele>263.2</ele>
        <time>2021-10-16T12:39:44Z</time>
      </trkpt>
      <trkpt lat="40.0233000" lon="-6.2257560">
        <ele>263.0</ele>
        <time>2021-10-16T12:39:48Z</time>
      </trkpt>
      <trkpt lat="40.0228400" lon="-6.2261540">
        <ele>262.4</ele>
        <time>2021-10-16T12:39:56Z</time>
      </trkpt>
      <trkpt lat="40.0227840" lon="-6.2262010">
        <ele>262.4</ele>
        <time>2021-10-16T12:39:57Z</time>
      </trkpt>
      <trkpt lat="40.0225120" lon="-6.2264350">
        <ele>262.2</ele>
        <time>2021-10-16T12:40:02Z</time>
      </trkpt>
      <trkpt lat="40.0222400" lon="-6.2266640">
        <ele>261.8</ele>
        <time>2021-10-16T12:40:07Z</time>
      </trkpt>
      <trkpt lat="40.0218040" lon="-6.2270370">
        <ele>261.6</ele>
        <time>2021-10-16T12:40:15Z</time>
      </trkpt>
      <trkpt lat="40.0213640" lon="-6.2274170">
        <ele>261.6</ele>
        <time>2021-10-16T12:40:23Z</time>
      </trkpt>
      <trkpt lat="40.0209840" lon="-6.2277490">
        <ele>261.4</ele>
        <time>2021-10-16T12:40:30Z</time>
      </trkpt>
      <trkpt lat="40.0208750" lon="-6.2278460">
        <ele>261.4</ele>
        <time>2021-10-16T12:40:32Z</time>
      </trkpt>
      <trkpt lat="40.0203960" lon="-6.2282450">
        <ele>261.2</ele>
        <time>2021-10-16T12:40:41Z</time>
      </trkpt>
      <trkpt lat="40.0203430" lon="-6.2282890">
        <ele>261.2</ele>
        <time>2021-10-16T12:40:42Z</time>
      </trkpt>
      <trkpt lat="40.0198770" lon="-6.2286910">
        <ele>261.2</ele>
        <time>2021-10-16T12:40:51Z</time>
      </trkpt>
      <trkpt lat="40.0197760" lon="-6.2287820">
        <ele>261.2</ele>
        <time>2021-10-16T12:40:53Z</time>
      </trkpt>
      <trkpt lat="40.0193180" lon="-6.2291720">
        <ele>261.4</ele>
        <time>2021-10-16T12:41:02Z</time>
      </trkpt>
      <trkpt lat="40.0188530" lon="-6.2295710">
        <ele>261.4</ele>
        <time>2021-10-16T12:41:11Z</time>
      </trkpt>
      <trkpt lat="40.0183560" lon="-6.2299970">
        <ele>261.6</ele>
        <time>2021-10-16T12:41:21Z</time>
      </trkpt>
      <trkpt lat="40.0180040" lon="-6.2303060">
        <ele>262.2</ele>
        <time>2021-10-16T12:41:29Z</time>
      </trkpt>
      <trkpt lat="40.0178880" lon="-6.2304020">
        <ele>262.6</ele>
        <time>2021-10-16T12:41:32Z</time>
      </trkpt>
      <trkpt lat="40.0177140" lon="-6.2305530">
        <ele>263.2</ele>
        <time>2021-10-16T12:41:37Z</time>
      </trkpt>
      <trkpt lat="40.0176170" lon="-6.2306380">
        <ele>263.6</ele>
        <time>2021-10-16T12:41:40Z</time>
      </trkpt>
      <trkpt lat="40.0174820" lon="-6.2307520">
        <ele>264.0</ele>
        <time>2021-10-16T12:41:44Z</time>
      </trkpt>
      <trkpt lat="40.0173110" lon="-6.2309100">
        <ele>264.4</ele>
        <time>2021-10-16T12:41:49Z</time>
      </trkpt>
      <trkpt lat="40.0172350" lon="-6.2309840">
        <ele>264.4</ele>
        <time>2021-10-16T12:41:51Z</time>
      </trkpt>
      <trkpt lat="40.0169300" lon="-6.2313050">
        <ele>264.0</ele>
        <time>2021-10-16T12:41:59Z</time>
      </trkpt>
      <trkpt lat="40.0166440" lon="-6.2315970">
        <ele>263.4</ele>
        <time>2021-10-16T12:42:07Z</time>
      </trkpt>
      <trkpt lat="40.0163330" lon="-6.2319380">
        <ele>263.6</ele>
        <time>2021-10-16T12:42:16Z</time>
      </trkpt>
      <trkpt lat="40.0162730" lon="-6.2320010">
        <ele>263.8</ele>
        <time>2021-10-16T12:42:18Z</time>
      </trkpt>
      <trkpt lat="40.0161670" lon="-6.2321130">
        <ele>264.8</ele>
        <time>2021-10-16T12:42:22Z</time>
      </trkpt>
      <trkpt lat="40.0161190" lon="-6.2321680">
        <ele>265.0</ele>
        <time>2021-10-16T12:42:24Z</time>
      </trkpt>
      <trkpt lat="40.0160300" lon="-6.2322720">
        <ele>265.8</ele>
        <time>2021-10-16T12:42:28Z</time>
      </trkpt>
      <trkpt lat="40.0159190" lon="-6.2323830">
        <ele>266.6</ele>
        <time>2021-10-16T12:42:33Z</time>
      </trkpt>
      <trkpt lat="40.0158770" lon="-6.2324300">
        <ele>267.0</ele>
        <time>2021-10-16T12:42:35Z</time>
      </trkpt>
      <trkpt lat="40.0157550" lon="-6.2325630">
        <ele>268.0</ele>
        <time>2021-10-16T12:42:41Z</time>
      </trkpt>
      <trkpt lat="40.0157330" lon="-6.2325850">
        <ele>268.0</ele>
        <time>2021-10-16T12:42:42Z</time>
      </trkpt>
      <trkpt lat="40.0155070" lon="-6.2328170">
        <ele>269.0</ele>
        <time>2021-10-16T12:42:51Z</time>
      </trkpt>
      <trkpt lat="40.0154770" lon="-6.2328470">
        <ele>269.2</ele>
        <time>2021-10-16T12:42:52Z</time>
      </trkpt>
      <trkpt lat="40.0151710" lon="-6.2331810">
        <ele>269.4</ele>
        <time>2021-10-16T12:43:02Z</time>
      </trkpt>
      <trkpt lat="40.0148730" lon="-6.2335050">
        <ele>269.6</ele>
        <time>2021-10-16T12:43:11Z</time>
      </trkpt>
      <trkpt lat="40.0145730" lon="-6.2338720">
        <ele>270.0</ele>
        <time>2021-10-16T12:43:22Z</time>
      </trkpt>
      <trkpt lat="40.0145260" lon="-6.2339320">
        <ele>270.4</ele>
        <time>2021-10-16T12:43:24Z</time>
      </trkpt>
      <trkpt lat="40.0143220" lon="-6.2342360">
        <ele>270.8</ele>
        <time>2021-10-16T12:43:32Z</time>
      </trkpt>
      <trkpt lat="40.0142430" lon="-6.2344120">
        <ele>270.6</ele>
        <time>2021-10-16T12:43:37Z</time>
      </trkpt>
      <trkpt lat="40.0142400" lon="-6.2344200">
        <ele>270.2</ele>
        <time>2021-10-16T12:43:39Z</time>
      </trkpt>
      <trkpt lat="40.0142090" lon="-6.2344450">
        <ele>269.8</ele>
        <time>2021-10-16T12:44:07Z</time>
      </trkpt>
      <trkpt lat="40.0141920" lon="-6.2344670">
        <ele>269.8</ele>
        <time>2021-10-16T12:44:08Z</time>
      </trkpt>
      <trkpt lat="40.0141040" lon="-6.2345870">
        <ele>269.6</ele>
        <time>2021-10-16T12:44:12Z</time>
      </trkpt>
      <trkpt lat="40.0139820" lon="-6.2347660">
        <ele>269.8</ele>
        <time>2021-10-16T12:44:17Z</time>
      </trkpt>
      <trkpt lat="40.0139070" lon="-6.2348880">
        <ele>269.8</ele>
        <time>2021-10-16T12:44:20Z</time>
      </trkpt>
      <trkpt lat="40.0137940" lon="-6.2350560">
        <ele>269.8</ele>
        <time>2021-10-16T12:44:24Z</time>
      </trkpt>
      <trkpt lat="40.0136750" lon="-6.2352300">
        <ele>270.0</ele>
        <time>2021-10-16T12:44:28Z</time>
      </trkpt>
      <trkpt lat="40.0134840" lon="-6.2355110">
        <ele>270.0</ele>
        <time>2021-10-16T12:44:34Z</time>
      </trkpt>
      <trkpt lat="40.0132590" lon="-6.2358800">
        <ele>270.0</ele>
        <time>2021-10-16T12:44:41Z</time>
      </trkpt>
      <trkpt lat="40.0132300" lon="-6.2359370">
        <ele>270.0</ele>
        <time>2021-10-16T12:44:42Z</time>
      </trkpt>
      <trkpt lat="40.0130350" lon="-6.2364190">
        <ele>269.8</ele>
        <time>2021-10-16T12:44:50Z</time>
      </trkpt>
      <trkpt lat="40.0129860" lon="-6.2365310">
        <ele>269.6</ele>
        <time>2021-10-16T12:44:52Z</time>
      </trkpt>
      <trkpt lat="40.0129620" lon="-6.2365730">
        <ele>269.4</ele>
        <time>2021-10-16T12:44:53Z</time>
      </trkpt>
      <trkpt lat="40.0128990" lon="-6.2366120">
        <ele>269.2</ele>
        <time>2021-10-16T12:44:55Z</time>
      </trkpt>
      <trkpt lat="40.0127820" lon="-6.2366760">
        <ele>269.0</ele>
        <time>2021-10-16T12:45:00Z</time>
      </trkpt>
      <trkpt lat="40.0127770" lon="-6.2366850">
        <ele>268.8</ele>
        <time>2021-10-16T12:45:04Z</time>
      </trkpt>
      <trkpt lat="40.0128100" lon="-6.2368190">
        <ele>268.6</ele>
        <time>2021-10-16T12:47:53Z</time>
      </trkpt>
      <trkpt lat="40.0128070" lon="-6.2368520">
        <ele>268.4</ele>
        <time>2021-10-16T12:47:54Z</time>
      </trkpt>
      <trkpt lat="40.0127970" lon="-6.2368910">
        <ele>268.4</ele>
        <time>2021-10-16T12:47:55Z</time>
      </trkpt>
      <trkpt lat="40.0127290" lon="-6.2370970">
        <ele>268.4</ele>
        <time>2021-10-16T12:48:00Z</time>
      </trkpt>
      <trkpt lat="40.0126770" lon="-6.2372200">
        <ele>268.4</ele>
        <time>2021-10-16T12:48:03Z</time>
      </trkpt>
      <trkpt lat="40.0125180" lon="-6.2375950">
        <ele>269.0</ele>
        <time>2021-10-16T12:48:12Z</time>
      </trkpt>
      <trkpt lat="40.0123640" lon="-6.2379350">
        <ele>269.6</ele>
        <time>2021-10-16T12:48:20Z</time>
      </trkpt>
      <trkpt lat="40.0123090" lon="-6.2380780">
        <ele>269.8</ele>
        <time>2021-10-16T12:48:23Z</time>
      </trkpt>
      <trkpt lat="40.0122090" lon="-6.2382280">
        <ele>270.0</ele>
        <time>2021-10-16T12:48:27Z</time>
      </trkpt>
      <trkpt lat="40.0119420" lon="-6.2384790">
        <ele>270.4</ele>
        <time>2021-10-16T12:48:36Z</time>
      </trkpt>
      <trkpt lat="40.0118320" lon="-6.2385630">
        <ele>270.6</ele>
        <time>2021-10-16T12:48:40Z</time>
      </trkpt>
      <trkpt lat="40.0118050" lon="-6.2385890">
        <ele>270.6</ele>
        <time>2021-10-16T12:48:41Z</time>
      </trkpt>
      <trkpt lat="40.0115880" lon="-6.2387490">
        <ele>270.8</ele>
        <time>2021-10-16T12:48:48Z</time>
      </trkpt>
      <trkpt lat="40.0115610" lon="-6.2387710">
        <ele>270.8</ele>
        <time>2021-10-16T12:48:49Z</time>
      </trkpt>
      <trkpt lat="40.0114030" lon="-6.2388600">
        <ele>271.0</ele>
        <time>2021-10-16T12:48:54Z</time>
      </trkpt>
      <trkpt lat="40.0112890" lon="-6.2389250">
        <ele>271.6</ele>
        <time>2021-10-16T12:48:58Z</time>
      </trkpt>
      <trkpt lat="40.0111980" lon="-6.2390020">
        <ele>272.0</ele>
        <time>2021-10-16T12:49:02Z</time>
      </trkpt>
      <trkpt lat="40.0111460" lon="-6.2390340">
        <ele>272.0</ele>
        <time>2021-10-16T12:49:04Z</time>
      </trkpt>
      <trkpt lat="40.0110510" lon="-6.2390580">
        <ele>272.2</ele>
        <time>2021-10-16T12:49:07Z</time>
      </trkpt>
      <trkpt lat="40.0109860" lon="-6.2390960">
        <ele>272.4</ele>
        <time>2021-10-16T12:49:10Z</time>
      </trkpt>
      <trkpt lat="40.0107640" lon="-6.2393180">
        <ele>272.6</ele>
        <time>2021-10-16T12:49:19Z</time>
      </trkpt>
      <trkpt lat="40.0106240" lon="-6.2394890">
        <ele>272.2</ele>
        <time>2021-10-16T12:49:23Z</time>
      </trkpt>
      <trkpt lat="40.0105890" lon="-6.2395550">
        <ele>272.0</ele>
        <time>2021-10-16T12:49:24Z</time>
      </trkpt>
      <trkpt lat="40.0104160" lon="-6.2399510">
        <ele>270.6</ele>
        <time>2021-10-16T12:49:29Z</time>
      </trkpt>
      <trkpt lat="40.0103760" lon="-6.2400340">
        <ele>270.4</ele>
        <time>2021-10-16T12:49:30Z</time>
      </trkpt>
      <trkpt lat="40.0102810" lon="-6.2401820">
        <ele>269.4</ele>
        <time>2021-10-16T12:49:32Z</time>
      </trkpt>
      <trkpt lat="40.0101180" lon="-6.2403760">
        <ele>268.6</ele>
        <time>2021-10-16T12:49:35Z</time>
      </trkpt>
      <trkpt lat="40.0100530" lon="-6.2404420">
        <ele>268.2</ele>
        <time>2021-10-16T12:49:36Z</time>
      </trkpt>
      <trkpt lat="40.0097560" lon="-6.2407150">
        <ele>267.2</ele>
        <time>2021-10-16T12:49:42Z</time>
      </trkpt>
      <trkpt lat="40.0096680" lon="-6.2407930">
        <ele>267.2</ele>
        <time>2021-10-16T12:49:44Z</time>
      </trkpt>
      <trkpt lat="40.0095090" lon="-6.2409310">
        <ele>267.2</ele>
        <time>2021-10-16T12:49:48Z</time>
      </trkpt>
      <trkpt lat="40.0093990" lon="-6.2410280">
        <ele>267.8</ele>
        <time>2021-10-16T12:49:51Z</time>
      </trkpt>
      <trkpt lat="40.0093410" lon="-6.2410810">
        <ele>268.2</ele>
        <time>2021-10-16T12:49:53Z</time>
      </trkpt>
      <trkpt lat="40.0093050" lon="-6.2411090">
        <ele>268.2</ele>
        <time>2021-10-16T12:49:54Z</time>
      </trkpt>
      <trkpt lat="40.0091720" lon="-6.2412320">
        <ele>269.0</ele>
        <time>2021-10-16T12:49:58Z</time>
      </trkpt>
      <trkpt lat="40.0091330" lon="-6.2412740">
        <ele>269.2</ele>
        <time>2021-10-16T12:49:59Z</time>
      </trkpt>
      <trkpt lat="40.0090970" lon="-6.2413060">
        <ele>269.6</ele>
        <time>2021-10-16T12:50:00Z</time>
      </trkpt>
      <trkpt lat="40.0090310" lon="-6.2413610">
        <ele>270.0</ele>
        <time>2021-10-16T12:50:02Z</time>
      </trkpt>
      <trkpt lat="40.0089420" lon="-6.2414300">
        <ele>270.4</ele>
        <time>2021-10-16T12:50:05Z</time>
      </trkpt>
      <trkpt lat="40.0088300" lon="-6.2415250">
        <ele>271.4</ele>
        <time>2021-10-16T12:50:09Z</time>
      </trkpt>
      <trkpt lat="40.0088020" lon="-6.2415510">
        <ele>271.4</ele>
        <time>2021-10-16T12:50:10Z</time>
      </trkpt>
      <trkpt lat="40.0084780" lon="-6.2418320">
        <ele>272.2</ele>
        <time>2021-10-16T12:50:20Z</time>
      </trkpt>
      <trkpt lat="40.0082320" lon="-6.2421220">
        <ele>272.2</ele>
        <time>2021-10-16T12:50:27Z</time>
      </trkpt>
      <trkpt lat="40.0081310" lon="-6.2422960">
        <ele>271.8</ele>
        <time>2021-10-16T12:50:30Z</time>
      </trkpt>
      <trkpt lat="40.0079990" lon="-6.2425510">
        <ele>271.2</ele>
        <time>2021-10-16T12:50:34Z</time>
      </trkpt>
      <trkpt lat="40.0077420" lon="-6.2430070">
        <ele>270.4</ele>
        <time>2021-10-16T12:50:41Z</time>
      </trkpt>
      <trkpt lat="40.0076350" lon="-6.2432060">
        <ele>270.2</ele>
        <time>2021-10-16T12:50:44Z</time>
      </trkpt>
      <trkpt lat="40.0073010" lon="-6.2438130">
        <ele>269.8</ele>
        <time>2021-10-16T12:50:53Z</time>
      </trkpt>
      <trkpt lat="40.0071880" lon="-6.2440170">
        <ele>269.6</ele>
        <time>2021-10-16T12:50:56Z</time>
      </trkpt>
      <trkpt lat="40.0070800" lon="-6.2442180">
        <ele>269.4</ele>
        <time>2021-10-16T12:50:59Z</time>
      </trkpt>
      <trkpt lat="40.0067450" lon="-6.2448220">
        <ele>268.8</ele>
        <time>2021-10-16T12:51:08Z</time>
      </trkpt>
      <trkpt lat="40.0066660" lon="-6.2449570">
        <ele>268.8</ele>
        <time>2021-10-16T12:51:10Z</time>
      </trkpt>
      <trkpt lat="40.0063440" lon="-6.2455510">
        <ele>268.4</ele>
        <time>2021-10-16T12:51:19Z</time>
      </trkpt>
      <trkpt lat="40.0060840" lon="-6.2460190">
        <ele>268.4</ele>
        <time>2021-10-16T12:51:26Z</time>
      </trkpt>
      <trkpt lat="40.0060090" lon="-6.2461500">
        <ele>268.2</ele>
        <time>2021-10-16T12:51:28Z</time>
      </trkpt>
      <trkpt lat="40.0056800" lon="-6.2467660">
        <ele>268.0</ele>
        <time>2021-10-16T12:51:37Z</time>
      </trkpt>
      <trkpt lat="40.0054050" lon="-6.2471830">
        <ele>267.8</ele>
        <time>2021-10-16T12:51:44Z</time>
      </trkpt>
      <trkpt lat="40.0053550" lon="-6.2472330">
        <ele>267.8</ele>
        <time>2021-10-16T12:51:45Z</time>
      </trkpt>
      <trkpt lat="40.0051830" lon="-6.2473600">
        <ele>267.4</ele>
        <time>2021-10-16T12:51:48Z</time>
      </trkpt>
      <trkpt lat="40.0051230" lon="-6.2473980">
        <ele>267.2</ele>
        <time>2021-10-16T12:51:49Z</time>
      </trkpt>
      <trkpt lat="40.0046590" lon="-6.2476980">
        <ele>266.4</ele>
        <time>2021-10-16T12:51:56Z</time>
      </trkpt>
      <trkpt lat="40.0045900" lon="-6.2477430">
        <ele>266.0</ele>
        <time>2021-10-16T12:51:57Z</time>
      </trkpt>
      <trkpt lat="40.0042640" lon="-6.2479880">
        <ele>265.2</ele>
        <time>2021-10-16T12:52:02Z</time>
      </trkpt>
      <trkpt lat="40.0041440" lon="-6.2481180">
        <ele>265.0</ele>
        <time>2021-10-16T12:52:04Z</time>
      </trkpt>
      <trkpt lat="40.0038880" lon="-6.2484890">
        <ele>264.2</ele>
        <time>2021-10-16T12:52:09Z</time>
      </trkpt>
      <trkpt lat="40.0037850" lon="-6.2486440">
        <ele>264.0</ele>
        <time>2021-10-16T12:52:11Z</time>
      </trkpt>
      <trkpt lat="40.0035880" lon="-6.2489620">
        <ele>263.2</ele>
        <time>2021-10-16T12:52:15Z</time>
      </trkpt>
      <trkpt lat="40.0032960" lon="-6.2494520">
        <ele>262.4</ele>
        <time>2021-10-16T12:52:21Z</time>
      </trkpt>
      <trkpt lat="40.0032510" lon="-6.2495390">
        <ele>262.2</ele>
        <time>2021-10-16T12:52:22Z</time>
      </trkpt>
      <trkpt lat="40.0031360" lon="-6.2498160">
        <ele>261.2</ele>
        <time>2021-10-16T12:52:25Z</time>
      </trkpt>
      <trkpt lat="40.0031100" lon="-6.2499140">
        <ele>261.0</ele>
        <time>2021-10-16T12:52:26Z</time>
      </trkpt>
      <trkpt lat="40.0030480" lon="-6.2503910">
        <ele>260.4</ele>
        <time>2021-10-16T12:52:31Z</time>
      </trkpt>
      <trkpt lat="40.0030020" lon="-6.2509510">
        <ele>260.2</ele>
        <time>2021-10-16T12:52:37Z</time>
      </trkpt>
      <trkpt lat="40.0029430" lon="-6.2516460">
        <ele>260.2</ele>
        <time>2021-10-16T12:52:45Z</time>
      </trkpt>
      <trkpt lat="40.0028810" lon="-6.2522130">
        <ele>260.4</ele>
        <time>2021-10-16T12:52:52Z</time>
      </trkpt>
      <trkpt lat="40.0028140" lon="-6.2529160">
        <ele>260.4</ele>
        <time>2021-10-16T12:53:01Z</time>
      </trkpt>
      <trkpt lat="40.0028040" lon="-6.2529930">
        <ele>260.4</ele>
        <time>2021-10-16T12:53:02Z</time>
      </trkpt>
      <trkpt lat="40.0027200" lon="-6.2533560">
        <ele>260.2</ele>
        <time>2021-10-16T12:53:07Z</time>
      </trkpt>
      <trkpt lat="40.0026310" lon="-6.2535590">
        <ele>260.0</ele>
        <time>2021-10-16T12:53:10Z</time>
      </trkpt>
      <trkpt lat="40.0025990" lon="-6.2536250">
        <ele>259.8</ele>
        <time>2021-10-16T12:53:11Z</time>
      </trkpt>
      <trkpt lat="40.0025660" lon="-6.2536930">
        <ele>259.8</ele>
        <time>2021-10-16T12:53:12Z</time>
      </trkpt>
      <trkpt lat="40.0024700" lon="-6.2538920">
        <ele>259.8</ele>
        <time>2021-10-16T12:53:15Z</time>
      </trkpt>
      <trkpt lat="40.0022910" lon="-6.2542840">
        <ele>259.6</ele>
        <time>2021-10-16T12:53:21Z</time>
      </trkpt>
      <trkpt lat="40.0022320" lon="-6.2544110">
        <ele>259.8</ele>
        <time>2021-10-16T12:53:23Z</time>
      </trkpt>
      <trkpt lat="40.0019910" lon="-6.2549070">
        <ele>259.8</ele>
        <time>2021-10-16T12:53:31Z</time>
      </trkpt>
      <trkpt lat="40.0019010" lon="-6.2550970">
        <ele>259.8</ele>
        <time>2021-10-16T12:53:34Z</time>
      </trkpt>
      <trkpt lat="40.0018720" lon="-6.2551590">
        <ele>259.8</ele>
        <time>2021-10-16T12:53:35Z</time>
      </trkpt>
      <trkpt lat="40.0015900" lon="-6.2557660">
        <ele>260.2</ele>
        <time>2021-10-16T12:53:45Z</time>
      </trkpt>
      <trkpt lat="40.0015310" lon="-6.2558910">
        <ele>260.2</ele>
        <time>2021-10-16T12:53:47Z</time>
      </trkpt>
      <trkpt lat="40.0012290" lon="-6.2565380">
        <ele>260.0</ele>
        <time>2021-10-16T12:53:57Z</time>
      </trkpt>
      <trkpt lat="40.0011000" lon="-6.2568130">
        <ele>259.8</ele>
        <time>2021-10-16T12:54:01Z</time>
      </trkpt>
      <trkpt lat="40.0009730" lon="-6.2570890">
        <ele>259.8</ele>
        <time>2021-10-16T12:54:05Z</time>
      </trkpt>
      <trkpt lat="40.0006490" lon="-6.2576970">
        <ele>259.4</ele>
        <time>2021-10-16T12:54:14Z</time>
      </trkpt>
      <trkpt lat="40.0006080" lon="-6.2577610">
        <ele>259.4</ele>
        <time>2021-10-16T12:54:15Z</time>
      </trkpt>
      <trkpt lat="40.0003500" lon="-6.2581540">
        <ele>259.4</ele>
        <time>2021-10-16T12:54:21Z</time>
      </trkpt>
      <trkpt lat="40.0000840" lon="-6.2585590">
        <ele>259.0</ele>
        <time>2021-10-16T12:54:27Z</time>
      </trkpt>
      <trkpt lat="39.9997030" lon="-6.2591360">
        <ele>258.8</ele>
        <time>2021-10-16T12:54:36Z</time>
      </trkpt>
      <trkpt lat="39.9996610" lon="-6.2592000">
        <ele>258.8</ele>
        <time>2021-10-16T12:54:37Z</time>
      </trkpt>
      <trkpt lat="39.9995330" lon="-6.2593920">
        <ele>258.8</ele>
        <time>2021-10-16T12:54:40Z</time>
      </trkpt>
      <trkpt lat="39.9992090" lon="-6.2598810">
        <ele>258.8</ele>
        <time>2021-10-16T12:54:48Z</time>
      </trkpt>
      <trkpt lat="39.9990130" lon="-6.2602050">
        <ele>258.8</ele>
        <time>2021-10-16T12:54:53Z</time>
      </trkpt>
      <trkpt lat="39.9989500" lon="-6.2603450">
        <ele>258.8</ele>
        <time>2021-10-16T12:54:55Z</time>
      </trkpt>
      <trkpt lat="39.9986840" lon="-6.2609970">
        <ele>258.6</ele>
        <time>2021-10-16T12:55:04Z</time>
      </trkpt>
      <trkpt lat="39.9986540" lon="-6.2610730">
        <ele>258.6</ele>
        <time>2021-10-16T12:55:05Z</time>
      </trkpt>
      <trkpt lat="39.9983780" lon="-6.2617390">
        <ele>258.8</ele>
        <time>2021-10-16T12:55:14Z</time>
      </trkpt>
      <trkpt lat="39.9980960" lon="-6.2623880">
        <ele>258.8</ele>
        <time>2021-10-16T12:55:23Z</time>
      </trkpt>
      <trkpt lat="39.9980650" lon="-6.2624500">
        <ele>258.6</ele>
        <time>2021-10-16T12:55:24Z</time>
      </trkpt>
      <trkpt lat="39.9978330" lon="-6.2627970">
        <ele>258.8</ele>
        <time>2021-10-16T12:55:30Z</time>
      </trkpt>
      <trkpt lat="39.9974180" lon="-6.2632940">
        <ele>258.8</ele>
        <time>2021-10-16T12:55:39Z</time>
      </trkpt>
      <trkpt lat="39.9973260" lon="-6.2634030">
        <ele>258.8</ele>
        <time>2021-10-16T12:55:41Z</time>
      </trkpt>
      <trkpt lat="39.9969850" lon="-6.2638080">
        <ele>259.2</ele>
        <time>2021-10-16T12:55:49Z</time>
      </trkpt>
      <trkpt lat="39.9969450" lon="-6.2638570">
        <ele>259.6</ele>
        <time>2021-10-16T12:55:50Z</time>
      </trkpt>
      <trkpt lat="39.9965140" lon="-6.2643790">
        <ele>259.8</ele>
        <time>2021-10-16T12:56:01Z</time>
      </trkpt>
      <trkpt lat="39.9962010" lon="-6.2646880">
        <ele>260.0</ele>
        <time>2021-10-16T12:56:09Z</time>
      </trkpt>
      <trkpt lat="39.9958350" lon="-6.2648630">
        <ele>259.8</ele>
        <time>2021-10-16T12:56:17Z</time>
      </trkpt>
      <trkpt lat="39.9955350" lon="-6.2649820">
        <ele>259.4</ele>
        <time>2021-10-16T12:56:23Z</time>
      </trkpt>
      <trkpt lat="39.9953320" lon="-6.2650730">
        <ele>259.4</ele>
        <time>2021-10-16T12:56:27Z</time>
      </trkpt>
      <trkpt lat="39.9948580" lon="-6.2652650">
        <ele>259.2</ele>
        <time>2021-10-16T12:56:36Z</time>
      </trkpt>
      <trkpt lat="39.9943470" lon="-6.2654790">
        <ele>259.4</ele>
        <time>2021-10-16T12:56:46Z</time>
      </trkpt>
      <trkpt lat="39.9938670" lon="-6.2656750">
        <ele>260.0</ele>
        <time>2021-10-16T12:56:56Z</time>
      </trkpt>
      <trkpt lat="39.9938220" lon="-6.2656930">
        <ele>259.8</ele>
        <time>2021-10-16T12:56:57Z</time>
      </trkpt>
      <trkpt lat="39.9934890" lon="-6.2657110">
        <ele>260.4</ele>
        <time>2021-10-16T12:57:04Z</time>
      </trkpt>
      <trkpt lat="39.9931800" lon="-6.2656170">
        <ele>260.4</ele>
        <time>2021-10-16T12:57:10Z</time>
      </trkpt>
      <trkpt lat="39.9930290" lon="-6.2655650">
        <ele>260.4</ele>
        <time>2021-10-16T12:57:13Z</time>
      </trkpt>
      <trkpt lat="39.9924790" lon="-6.2653660">
        <ele>260.4</ele>
        <time>2021-10-16T12:57:24Z</time>
      </trkpt>
      <trkpt lat="39.9923790" lon="-6.2653260">
        <ele>260.4</ele>
        <time>2021-10-16T12:57:26Z</time>
      </trkpt>
      <trkpt lat="39.9918550" lon="-6.2651370">
        <ele>260.2</ele>
        <time>2021-10-16T12:57:36Z</time>
      </trkpt>
      <trkpt lat="39.9918010" lon="-6.2651170">
        <ele>260.2</ele>
        <time>2021-10-16T12:57:37Z</time>
      </trkpt>
      <trkpt lat="39.9913240" lon="-6.2649410">
        <ele>260.0</ele>
        <time>2021-10-16T12:57:46Z</time>
      </trkpt>
      <trkpt lat="39.9909260" lon="-6.2648040">
        <ele>260.0</ele>
        <time>2021-10-16T12:57:54Z</time>
      </trkpt>
      <trkpt lat="39.9906920" lon="-6.2647250">
        <ele>261.0</ele>
        <time>2021-10-16T12:58:00Z</time>
      </trkpt>
      <trkpt lat="39.9904850" lon="-6.2646570">
        <ele>262.0</ele>
        <time>2021-10-16T12:58:07Z</time>
      </trkpt>
      <trkpt lat="39.9903350" lon="-6.2646400">
        <ele>263.2</ele>
        <time>2021-10-16T12:58:13Z</time>
      </trkpt>
      <trkpt lat="39.9902720" lon="-6.2646320">
        <ele>264.0</ele>
        <time>2021-10-16T12:58:16Z</time>
      </trkpt>
      <trkpt lat="39.9902330" lon="-6.2646320">
        <ele>264.2</ele>
        <time>2021-10-16T12:58:18Z</time>
      </trkpt>
      <trkpt lat="39.9901040" lon="-6.2646560">
        <ele>265.0</ele>
        <time>2021-10-16T12:58:24Z</time>
      </trkpt>
      <trkpt lat="39.9900440" lon="-6.2646750">
        <ele>265.4</ele>
        <time>2021-10-16T12:58:27Z</time>
      </trkpt>
      <trkpt lat="39.9898880" lon="-6.2647650">
        <ele>266.0</ele>
        <time>2021-10-16T12:58:35Z</time>
      </trkpt>
      <trkpt lat="39.9897630" lon="-6.2648510">
        <ele>266.4</ele>
        <time>2021-10-16T12:58:41Z</time>
      </trkpt>
      <trkpt lat="39.9897440" lon="-6.2648670">
        <ele>266.4</ele>
        <time>2021-10-16T12:58:42Z</time>
      </trkpt>
      <trkpt lat="39.9895750" lon="-6.2650130">
        <ele>266.6</ele>
        <time>2021-10-16T12:58:49Z</time>
      </trkpt>
      <trkpt lat="39.9895460" lon="-6.2650370">
        <ele>266.6</ele>
        <time>2021-10-16T12:58:50Z</time>
      </trkpt>
      <trkpt lat="39.9894460" lon="-6.2651090">
        <ele>266.6</ele>
        <time>2021-10-16T12:58:53Z</time>
      </trkpt>
      <trkpt lat="39.9893800" lon="-6.2651660">
        <ele>266.2</ele>
        <time>2021-10-16T12:58:55Z</time>
      </trkpt>
      <trkpt lat="39.9893070" lon="-6.2652260">
        <ele>266.0</ele>
        <time>2021-10-16T12:58:57Z</time>
      </trkpt>
      <trkpt lat="39.9891060" lon="-6.2653750">
        <ele>265.6</ele>
        <time>2021-10-16T12:59:02Z</time>
      </trkpt>
      <trkpt lat="39.9890270" lon="-6.2654360">
        <ele>265.4</ele>
        <time>2021-10-16T12:59:04Z</time>
      </trkpt>
      <trkpt lat="39.9887740" lon="-6.2656450">
        <ele>265.0</ele>
        <time>2021-10-16T12:59:10Z</time>
      </trkpt>
      <trkpt lat="39.9886000" lon="-6.2657850">
        <ele>265.0</ele>
        <time>2021-10-16T12:59:14Z</time>
      </trkpt>
      <trkpt lat="39.9883360" lon="-6.2659920">
        <ele>265.0</ele>
        <time>2021-10-16T12:59:20Z</time>
      </trkpt>
      <trkpt lat="39.9881610" lon="-6.2661230">
        <ele>265.0</ele>
        <time>2021-10-16T12:59:24Z</time>
      </trkpt>
      <trkpt lat="39.9878580" lon="-6.2663540">
        <ele>265.0</ele>
        <time>2021-10-16T12:59:31Z</time>
      </trkpt>
      <trkpt lat="39.9874800" lon="-6.2666540">
        <ele>265.0</ele>
        <time>2021-10-16T12:59:40Z</time>
      </trkpt>
      <trkpt lat="39.9871910" lon="-6.2668680">
        <ele>265.2</ele>
        <time>2021-10-16T12:59:47Z</time>
      </trkpt>
      <trkpt lat="39.9870710" lon="-6.2669620">
        <ele>265.2</ele>
        <time>2021-10-16T12:59:50Z</time>
      </trkpt>
      <trkpt lat="39.9867920" lon="-6.2671810">
        <ele>265.4</ele>
        <time>2021-10-16T12:59:57Z</time>
      </trkpt>
      <trkpt lat="39.9866800" lon="-6.2672720">
        <ele>265.4</ele>
        <time>2021-10-16T13:00:00Z</time>
      </trkpt>
      <trkpt lat="39.9866070" lon="-6.2673420">
        <ele>265.4</ele>
        <time>2021-10-16T13:00:02Z</time>
      </trkpt>
      <trkpt lat="39.9864600" lon="-6.2675580">
        <ele>265.8</ele>
        <time>2021-10-16T13:00:07Z</time>
      </trkpt>
      <trkpt lat="39.9864370" lon="-6.2676090">
        <ele>265.6</ele>
        <time>2021-10-16T13:00:08Z</time>
      </trkpt>
      <trkpt lat="39.9863400" lon="-6.2680080">
        <ele>266.0</ele>
        <time>2021-10-16T13:00:15Z</time>
      </trkpt>
      <trkpt lat="39.9862940" lon="-6.2685480">
        <ele>266.2</ele>
        <time>2021-10-16T13:00:25Z</time>
      </trkpt>
      <trkpt lat="39.9863080" lon="-6.2688660">
        <ele>266.4</ele>
        <time>2021-10-16T13:00:31Z</time>
      </trkpt>
      <trkpt lat="39.9863250" lon="-6.2689150">
        <ele>266.4</ele>
        <time>2021-10-16T13:00:32Z</time>
      </trkpt>
      <trkpt lat="39.9863480" lon="-6.2689570">
        <ele>266.6</ele>
        <time>2021-10-16T13:00:33Z</time>
      </trkpt>
      <trkpt lat="39.9864360" lon="-6.2690580">
        <ele>266.8</ele>
        <time>2021-10-16T13:00:36Z</time>
      </trkpt>
      <trkpt lat="39.9865010" lon="-6.2692400">
        <ele>267.0</ele>
        <time>2021-10-16T13:00:40Z</time>
      </trkpt>
      <trkpt lat="39.9864840" lon="-6.2694860">
        <ele>267.2</ele>
        <time>2021-10-16T13:00:45Z</time>
      </trkpt>
      <trkpt lat="39.9864100" lon="-6.2696080">
        <ele>267.6</ele>
        <time>2021-10-16T13:00:48Z</time>
      </trkpt>
      <trkpt lat="39.9863350" lon="-6.2696680">
        <ele>268.0</ele>
        <time>2021-10-16T13:00:50Z</time>
      </trkpt>
      <trkpt lat="39.9862020" lon="-6.2696940">
        <ele>268.2</ele>
        <time>2021-10-16T13:00:53Z</time>
      </trkpt>
      <trkpt lat="39.9861560" lon="-6.2696850">
        <ele>268.2</ele>
        <time>2021-10-16T13:00:54Z</time>
      </trkpt>
      <trkpt lat="39.9861110" lon="-6.2696720">
        <ele>268.2</ele>
        <time>2021-10-16T13:00:55Z</time>
      </trkpt>
      <trkpt lat="39.9860330" lon="-6.2696120">
        <ele>268.2</ele>
        <time>2021-10-16T13:00:57Z</time>
      </trkpt>
      <trkpt lat="39.9859960" lon="-6.2695690">
        <ele>268.0</ele>
        <time>2021-10-16T13:00:58Z</time>
      </trkpt>
      <trkpt lat="39.9859200" lon="-6.2694920">
        <ele>268.0</ele>
        <time>2021-10-16T13:01:00Z</time>
      </trkpt>
      <trkpt lat="39.9858180" lon="-6.2694600">
        <ele>267.8</ele>
        <time>2021-10-16T13:01:02Z</time>
      </trkpt>
      <trkpt lat="39.9854780" lon="-6.2695060">
        <ele>267.0</ele>
        <time>2021-10-16T13:01:08Z</time>
      </trkpt>
      <trkpt lat="39.9854170" lon="-6.2695170">
        <ele>266.6</ele>
        <time>2021-10-16T13:01:09Z</time>
      </trkpt>
      <trkpt lat="39.9853550" lon="-6.2695250">
        <ele>266.4</ele>
        <time>2021-10-16T13:01:10Z</time>
      </trkpt>
      <trkpt lat="39.9852330" lon="-6.2695230">
        <ele>265.8</ele>
        <time>2021-10-16T13:01:12Z</time>
      </trkpt>
      <trkpt lat="39.9850460" lon="-6.2695470">
        <ele>265.4</ele>
        <time>2021-10-16T13:01:15Z</time>
      </trkpt>
      <trkpt lat="39.9849450" lon="-6.2695680">
        <ele>265.0</ele>
        <time>2021-10-16T13:01:17Z</time>
      </trkpt>
      <trkpt lat="39.9847890" lon="-6.2696000">
        <ele>264.8</ele>
        <time>2021-10-16T13:01:20Z</time>
      </trkpt>
      <trkpt lat="39.9845490" lon="-6.2696610">
        <ele>264.8</ele>
        <time>2021-10-16T13:01:25Z</time>
      </trkpt>
      <trkpt lat="39.9844260" lon="-6.2697120">
        <ele>265.0</ele>
        <time>2021-10-16T13:01:28Z</time>
      </trkpt>
      <trkpt lat="39.9843580" lon="-6.2697740">
        <ele>265.2</ele>
        <time>2021-10-16T13:01:30Z</time>
      </trkpt>
      <trkpt lat="39.9842510" lon="-6.2699300">
        <ele>265.6</ele>
        <time>2021-10-16T13:01:34Z</time>
      </trkpt>
      <trkpt lat="39.9841880" lon="-6.2699870">
        <ele>266.0</ele>
        <time>2021-10-16T13:01:36Z</time>
      </trkpt>
      <trkpt lat="39.9840470" lon="-6.2700270">
        <ele>266.4</ele>
        <time>2021-10-16T13:01:40Z</time>
      </trkpt>
      <trkpt lat="39.9839850" lon="-6.2699960">
        <ele>266.4</ele>
        <time>2021-10-16T13:01:42Z</time>
      </trkpt>
      <trkpt lat="39.9838530" lon="-6.2699520">
        <ele>266.8</ele>
        <time>2021-10-16T13:01:46Z</time>
      </trkpt>
      <trkpt lat="39.9837040" lon="-6.2700640">
        <ele>267.2</ele>
        <time>2021-10-16T13:01:51Z</time>
      </trkpt>
      <trkpt lat="39.9836630" lon="-6.2702310">
        <ele>267.4</ele>
        <time>2021-10-16T13:01:55Z</time>
      </trkpt>
      <trkpt lat="39.9836590" lon="-6.2702750">
        <ele>267.6</ele>
        <time>2021-10-16T13:01:56Z</time>
      </trkpt>
      <trkpt lat="39.9836560" lon="-6.2705040">
        <ele>268.6</ele>
        <time>2021-10-16T13:02:02Z</time>
      </trkpt>
      <trkpt lat="39.9836550" lon="-6.2705780">
        <ele>268.8</ele>
        <time>2021-10-16T13:02:04Z</time>
      </trkpt>
      <trkpt lat="39.9836330" lon="-6.2707610">
        <ele>269.6</ele>
        <time>2021-10-16T13:02:09Z</time>
      </trkpt>
      <trkpt lat="39.9836040" lon="-6.2709170">
        <ele>270.6</ele>
        <time>2021-10-16T13:02:14Z</time>
      </trkpt>
      <trkpt lat="39.9835980" lon="-6.2709460">
        <ele>270.8</ele>
        <time>2021-10-16T13:02:15Z</time>
      </trkpt>
      <trkpt lat="39.9835480" lon="-6.2711070">
        <ele>271.4</ele>
        <time>2021-10-16T13:02:22Z</time>
      </trkpt>
      <trkpt lat="39.9835160" lon="-6.2711660">
        <ele>271.8</ele>
        <time>2021-10-16T13:02:28Z</time>
      </trkpt>
      <trkpt lat="39.9834640" lon="-6.2711480">
        <ele>271.8</ele>
        <time>2021-10-16T13:02:31Z</time>
      </trkpt>
      <trkpt lat="39.9834160" lon="-6.2711540">
        <ele>271.8</ele>
        <time>2021-10-16T13:02:33Z</time>
      </trkpt>
      <trkpt lat="39.9833000" lon="-6.2712170">
        <ele>271.2</ele>
        <time>2021-10-16T13:02:38Z</time>
      </trkpt>
      <trkpt lat="39.9832890" lon="-6.2712300">
        <ele>270.8</ele>
        <time>2021-10-16T13:02:41Z</time>
      </trkpt>
      <trkpt lat="39.9832630" lon="-6.2712780">
        <ele>269.8</ele>
        <time>2021-10-16T13:03:09Z</time>
      </trkpt>
      <trkpt lat="39.9832470" lon="-6.2713100">
        <ele>269.8</ele>
        <time>2021-10-16T13:03:10Z</time>
      </trkpt>
      <trkpt lat="39.9831640" lon="-6.2714300">
        <ele>269.6</ele>
        <time>2021-10-16T13:03:13Z</time>
      </trkpt>
      <trkpt lat="39.9829930" lon="-6.2715870">
        <ele>268.8</ele>
        <time>2021-10-16T13:03:17Z</time>
      </trkpt>
      <trkpt lat="39.9829420" lon="-6.2716150">
        <ele>268.6</ele>
        <time>2021-10-16T13:03:18Z</time>
      </trkpt>
      <trkpt lat="39.9828920" lon="-6.2716320">
        <ele>268.4</ele>
        <time>2021-10-16T13:03:19Z</time>
      </trkpt>
      <trkpt lat="39.9827760" lon="-6.2716340">
        <ele>267.8</ele>
        <time>2021-10-16T13:03:21Z</time>
      </trkpt>
      <trkpt lat="39.9827080" lon="-6.2716170">
        <ele>267.0</ele>
        <time>2021-10-16T13:03:22Z</time>
      </trkpt>
      <trkpt lat="39.9825470" lon="-6.2715530">
        <ele>266.0</ele>
        <time>2021-10-16T13:03:24Z</time>
      </trkpt>
      <trkpt lat="39.9823590" lon="-6.2714910">
        <ele>265.2</ele>
        <time>2021-10-16T13:03:26Z</time>
      </trkpt>
      <trkpt lat="39.9822600" lon="-6.2714730">
        <ele>264.4</ele>
        <time>2021-10-16T13:03:27Z</time>
      </trkpt>
      <trkpt lat="39.9821640" lon="-6.2714600">
        <ele>263.0</ele>
        <time>2021-10-16T13:03:28Z</time>
      </trkpt>
      <trkpt lat="39.9820750" lon="-6.2714520">
        <ele>261.8</ele>
        <time>2021-10-16T13:03:29Z</time>
      </trkpt>
      <trkpt lat="39.9819200" lon="-6.2714410">
        <ele>260.6</ele>
        <time>2021-10-16T13:03:31Z</time>
      </trkpt>
      <trkpt lat="39.9817230" lon="-6.2714200">
        <ele>260.0</ele>
        <time>2021-10-16T13:03:35Z</time>
      </trkpt>
      <trkpt lat="39.9816400" lon="-6.2714050">
        <ele>260.6</ele>
        <time>2021-10-16T13:03:39Z</time>
      </trkpt>
      <trkpt lat="39.9816250" lon="-6.2713900">
        <ele>261.8</ele>
        <time>2021-10-16T13:03:43Z</time>
      </trkpt>
      <trkpt lat="39.9815770" lon="-6.2713950">
        <ele>262.2</ele>
        <time>2021-10-16T13:05:59Z</time>
      </trkpt>
      <trkpt lat="39.9815510" lon="-6.2713930">
        <ele>262.2</ele>
        <time>2021-10-16T13:06:00Z</time>
      </trkpt>
      <trkpt lat="39.9813920" lon="-6.2713730">
        <ele>262.0</ele>
        <time>2021-10-16T13:06:04Z</time>
      </trkpt>
      <trkpt lat="39.9812870" lon="-6.2713570">
        <ele>261.8</ele>
        <time>2021-10-16T13:06:06Z</time>
      </trkpt>
      <trkpt lat="39.9811090" lon="-6.2713490">
        <ele>260.8</ele>
        <time>2021-10-16T13:06:09Z</time>
      </trkpt>
      <trkpt lat="39.9809860" lon="-6.2713400">
        <ele>260.4</ele>
        <time>2021-10-16T13:06:11Z</time>
      </trkpt>
      <trkpt lat="39.9807880" lon="-6.2712750">
        <ele>259.8</ele>
        <time>2021-10-16T13:06:14Z</time>
      </trkpt>
      <trkpt lat="39.9806500" lon="-6.2712130">
        <ele>259.4</ele>
        <time>2021-10-16T13:06:16Z</time>
      </trkpt>
      <trkpt lat="39.9803980" lon="-6.2711010">
        <ele>258.0</ele>
        <time>2021-10-16T13:06:20Z</time>
      </trkpt>
      <trkpt lat="39.9803410" lon="-6.2710740">
        <ele>258.0</ele>
        <time>2021-10-16T13:06:21Z</time>
      </trkpt>
      <trkpt lat="39.9802360" lon="-6.2710180">
        <ele>257.8</ele>
        <time>2021-10-16T13:06:23Z</time>
      </trkpt>
      <trkpt lat="39.9801500" lon="-6.2709460">
        <ele>257.8</ele>
        <time>2021-10-16T13:06:25Z</time>
      </trkpt>
      <trkpt lat="39.9801140" lon="-6.2709100">
        <ele>257.8</ele>
        <time>2021-10-16T13:06:26Z</time>
      </trkpt>
      <trkpt lat="39.9799720" lon="-6.2707470">
        <ele>258.0</ele>
        <time>2021-10-16T13:06:31Z</time>
      </trkpt>
      <trkpt lat="39.9798490" lon="-6.2706080">
        <ele>258.6</ele>
        <time>2021-10-16T13:06:37Z</time>
      </trkpt>
      <trkpt lat="39.9797950" lon="-6.2705250">
        <ele>258.8</ele>
        <time>2021-10-16T13:06:41Z</time>
      </trkpt>
      <trkpt lat="39.9797600" lon="-6.2704930">
        <ele>259.0</ele>
        <time>2021-10-16T13:06:43Z</time>
      </trkpt>
      <trkpt lat="39.9797160" lon="-6.2704450">
        <ele>259.4</ele>
        <time>2021-10-16T13:06:46Z</time>
      </trkpt>
      <trkpt lat="39.9796260" lon="-6.2703450">
        <ele>260.4</ele>
        <time>2021-10-16T13:06:52Z</time>
      </trkpt>
      <trkpt lat="39.9795460" lon="-6.2702800">
        <ele>261.4</ele>
        <time>2021-10-16T13:06:57Z</time>
      </trkpt>
      <trkpt lat="39.9795190" lon="-6.2702480">
        <ele>261.8</ele>
        <time>2021-10-16T13:06:59Z</time>
      </trkpt>
      <trkpt lat="39.9794150" lon="-6.2701590">
        <ele>262.6</ele>
        <time>2021-10-16T13:07:06Z</time>
      </trkpt>
      <trkpt lat="39.9793830" lon="-6.2701350">
        <ele>262.8</ele>
        <time>2021-10-16T13:07:08Z</time>
      </trkpt>
      <trkpt lat="39.9792650" lon="-6.2700330">
        <ele>263.6</ele>
        <time>2021-10-16T13:07:16Z</time>
      </trkpt>
      <trkpt lat="39.9792360" lon="-6.2700080">
        <ele>264.0</ele>
        <time>2021-10-16T13:07:18Z</time>
      </trkpt>
      <trkpt lat="39.9791470" lon="-6.2699230">
        <ele>264.8</ele>
        <time>2021-10-16T13:07:24Z</time>
      </trkpt>
      <trkpt lat="39.9791180" lon="-6.2698960">
        <ele>265.0</ele>
        <time>2021-10-16T13:07:26Z</time>
      </trkpt>
      <trkpt lat="39.9790300" lon="-6.2698360">
        <ele>265.6</ele>
        <time>2021-10-16T13:07:32Z</time>
      </trkpt>
      <trkpt lat="39.9790150" lon="-6.2698250">
        <ele>265.8</ele>
        <time>2021-10-16T13:07:33Z</time>
      </trkpt>
      <trkpt lat="39.9790010" lon="-6.2698120">
        <ele>266.0</ele>
        <time>2021-10-16T13:07:34Z</time>
      </trkpt>
      <trkpt lat="39.9788810" lon="-6.2697460">
        <ele>267.0</ele>
        <time>2021-10-16T13:07:42Z</time>
      </trkpt>
      <trkpt lat="39.9788660" lon="-6.2697420">
        <ele>267.2</ele>
        <time>2021-10-16T13:07:43Z</time>
      </trkpt>
      <trkpt lat="39.9787950" lon="-6.2697280">
        <ele>268.0</ele>
        <time>2021-10-16T13:07:48Z</time>
      </trkpt>
      <trkpt lat="39.9787370" lon="-6.2697210">
        <ele>268.6</ele>
        <time>2021-10-16T13:07:52Z</time>
      </trkpt>
      <trkpt lat="39.9787010" lon="-6.2697180">
        <ele>269.0</ele>
        <time>2021-10-16T13:07:55Z</time>
      </trkpt>
      <trkpt lat="39.9786450" lon="-6.2697220">
        <ele>269.6</ele>
        <time>2021-10-16T13:07:59Z</time>
      </trkpt>
      <trkpt lat="39.9786010" lon="-6.2697230">
        <ele>269.8</ele>
        <time>2021-10-16T13:08:02Z</time>
      </trkpt>
      <trkpt lat="39.9785720" lon="-6.2697280">
        <ele>270.0</ele>
        <time>2021-10-16T13:08:04Z</time>
      </trkpt>
      <trkpt lat="39.9784710" lon="-6.2697330">
        <ele>271.0</ele>
        <time>2021-10-16T13:08:11Z</time>
      </trkpt>
      <trkpt lat="39.9784560" lon="-6.2697320">
        <ele>271.2</ele>
        <time>2021-10-16T13:08:12Z</time>
      </trkpt>
      <trkpt lat="39.9783510" lon="-6.2697190">
        <ele>272.0</ele>
        <time>2021-10-16T13:08:19Z</time>
      </trkpt>
      <trkpt lat="39.9783370" lon="-6.2697220">
        <ele>272.2</ele>
        <time>2021-10-16T13:08:20Z</time>
      </trkpt>
      <trkpt lat="39.9782350" lon="-6.2697260">
        <ele>272.8</ele>
        <time>2021-10-16T13:08:27Z</time>
      </trkpt>
      <trkpt lat="39.9782060" lon="-6.2697280">
        <ele>273.2</ele>
        <time>2021-10-16T13:08:29Z</time>
      </trkpt>
      <trkpt lat="39.9780870" lon="-6.2697350">
        <ele>274.4</ele>
        <time>2021-10-16T13:08:37Z</time>
      </trkpt>
      <trkpt lat="39.9780730" lon="-6.2697350">
        <ele>274.4</ele>
        <time>2021-10-16T13:08:38Z</time>
      </trkpt>
      <trkpt lat="39.9780290" lon="-6.2697330">
        <ele>274.8</ele>
        <time>2021-10-16T13:08:41Z</time>
      </trkpt>
      <trkpt lat="39.9779570" lon="-6.2697370">
        <ele>275.4</ele>
        <time>2021-10-16T13:08:46Z</time>
      </trkpt>
      <trkpt lat="39.9779110" lon="-6.2697360">
        <ele>275.8</ele>
        <time>2021-10-16T13:08:49Z</time>
      </trkpt>
      <trkpt lat="39.9778170" lon="-6.2697380">
        <ele>276.6</ele>
        <time>2021-10-16T13:08:55Z</time>
      </trkpt>
      <trkpt lat="39.9777550" lon="-6.2697320">
        <ele>277.2</ele>
        <time>2021-10-16T13:08:59Z</time>
      </trkpt>
      <trkpt lat="39.9777110" lon="-6.2697180">
        <ele>277.8</ele>
        <time>2021-10-16T13:09:02Z</time>
      </trkpt>
      <trkpt lat="39.9776470" lon="-6.2697140">
        <ele>278.4</ele>
        <time>2021-10-16T13:09:06Z</time>
      </trkpt>
      <trkpt lat="39.9775890" lon="-6.2697000">
        <ele>279.0</ele>
        <time>2021-10-16T13:09:10Z</time>
      </trkpt>
      <trkpt lat="39.9775120" lon="-6.2696840">
        <ele>279.2</ele>
        <time>2021-10-16T13:09:15Z</time>
      </trkpt>
      <trkpt lat="39.9774090" lon="-6.2696610">
        <ele>280.0</ele>
        <time>2021-10-16T13:09:22Z</time>
      </trkpt>
      <trkpt lat="39.9773230" lon="-6.2696500">
        <ele>281.0</ele>
        <time>2021-10-16T13:09:28Z</time>
      </trkpt>
      <trkpt lat="39.9772770" lon="-6.2696490">
        <ele>281.4</ele>
        <time>2021-10-16T13:09:31Z</time>
      </trkpt>
      <trkpt lat="39.9772010" lon="-6.2696580">
        <ele>282.0</ele>
        <time>2021-10-16T13:09:36Z</time>
      </trkpt>
      <trkpt lat="39.9771550" lon="-6.2696610">
        <ele>282.4</ele>
        <time>2021-10-16T13:09:39Z</time>
      </trkpt>
      <trkpt lat="39.9771090" lon="-6.2696520">
        <ele>282.8</ele>
        <time>2021-10-16T13:09:42Z</time>
      </trkpt>
      <trkpt lat="39.9770670" lon="-6.2696510">
        <ele>283.2</ele>
        <time>2021-10-16T13:09:45Z</time>
      </trkpt>
      <trkpt lat="39.9770230" lon="-6.2696600">
        <ele>283.6</ele>
        <time>2021-10-16T13:09:48Z</time>
      </trkpt>
      <trkpt lat="39.9770060" lon="-6.2696620">
        <ele>283.8</ele>
        <time>2021-10-16T13:09:49Z</time>
      </trkpt>
      <trkpt lat="39.9769610" lon="-6.2696640">
        <ele>284.0</ele>
        <time>2021-10-16T13:09:52Z</time>
      </trkpt>
      <trkpt lat="39.9769320" lon="-6.2696720">
        <ele>284.4</ele>
        <time>2021-10-16T13:09:54Z</time>
      </trkpt>
      <trkpt lat="39.9768520" lon="-6.2696970">
        <ele>285.2</ele>
        <time>2021-10-16T13:10:00Z</time>
      </trkpt>
      <trkpt lat="39.9768110" lon="-6.2697060">
        <ele>285.4</ele>
        <time>2021-10-16T13:10:03Z</time>
      </trkpt>
      <trkpt lat="39.9767270" lon="-6.2697230">
        <ele>286.0</ele>
        <time>2021-10-16T13:10:09Z</time>
      </trkpt>
      <trkpt lat="39.9766330" lon="-6.2697640">
        <ele>286.4</ele>
        <time>2021-10-16T13:10:16Z</time>
      </trkpt>
      <trkpt lat="39.9766040" lon="-6.2697890">
        <ele>286.8</ele>
        <time>2021-10-16T13:10:21Z</time>
      </trkpt>
      <trkpt lat="39.9765350" lon="-6.2697510">
        <ele>287.2</ele>
        <time>2021-10-16T13:12:23Z</time>
      </trkpt>
      <trkpt lat="39.9765190" lon="-6.2697400">
        <ele>287.2</ele>
        <time>2021-10-16T13:12:24Z</time>
      </trkpt>
      <trkpt lat="39.9764410" lon="-6.2697190">
        <ele>287.6</ele>
        <time>2021-10-16T13:12:28Z</time>
      </trkpt>
      <trkpt lat="39.9764060" lon="-6.2697210">
        <ele>287.8</ele>
        <time>2021-10-16T13:12:30Z</time>
      </trkpt>
      <trkpt lat="39.9763280" lon="-6.2697140">
        <ele>288.4</ele>
        <time>2021-10-16T13:12:34Z</time>
      </trkpt>
      <trkpt lat="39.9762810" lon="-6.2697260">
        <ele>288.6</ele>
        <time>2021-10-16T13:12:37Z</time>
      </trkpt>
      <trkpt lat="39.9762640" lon="-6.2697290">
        <ele>288.6</ele>
        <time>2021-10-16T13:12:38Z</time>
      </trkpt>
      <trkpt lat="39.9761720" lon="-6.2697310">
        <ele>289.0</ele>
        <time>2021-10-16T13:12:43Z</time>
      </trkpt>
      <trkpt lat="39.9760790" lon="-6.2697270">
        <ele>289.8</ele>
        <time>2021-10-16T13:12:48Z</time>
      </trkpt>
      <trkpt lat="39.9760100" lon="-6.2697410">
        <ele>290.4</ele>
        <time>2021-10-16T13:12:52Z</time>
      </trkpt>
      <trkpt lat="39.9759630" lon="-6.2697500">
        <ele>290.8</ele>
        <time>2021-10-16T13:12:55Z</time>
      </trkpt>
      <trkpt lat="39.9759170" lon="-6.2697550">
        <ele>291.4</ele>
        <time>2021-10-16T13:12:58Z</time>
      </trkpt>
      <trkpt lat="39.9758870" lon="-6.2697650">
        <ele>291.6</ele>
        <time>2021-10-16T13:13:00Z</time>
      </trkpt>
      <trkpt lat="39.9758700" lon="-6.2697680">
        <ele>291.6</ele>
        <time>2021-10-16T13:13:01Z</time>
      </trkpt>
      <trkpt lat="39.9758400" lon="-6.2697740">
        <ele>291.8</ele>
        <time>2021-10-16T13:13:03Z</time>
      </trkpt>
      <trkpt lat="39.9757510" lon="-6.2697820">
        <ele>292.6</ele>
        <time>2021-10-16T13:13:09Z</time>
      </trkpt>
      <trkpt lat="39.9757020" lon="-6.2697840">
        <ele>293.0</ele>
        <time>2021-10-16T13:13:12Z</time>
      </trkpt>
      <trkpt lat="39.9756870" lon="-6.2697800">
        <ele>293.0</ele>
        <time>2021-10-16T13:13:13Z</time>
      </trkpt>
      <trkpt lat="39.9756550" lon="-6.2697740">
        <ele>293.2</ele>
        <time>2021-10-16T13:13:15Z</time>
      </trkpt>
      <trkpt lat="39.9755770" lon="-6.2697880">
        <ele>294.0</ele>
        <time>2021-10-16T13:13:20Z</time>
      </trkpt>
      <trkpt lat="39.9754540" lon="-6.2697780">
        <ele>295.0</ele>
        <time>2021-10-16T13:13:27Z</time>
      </trkpt>
      <trkpt lat="39.9754200" lon="-6.2697780">
        <ele>295.4</ele>
        <time>2021-10-16T13:13:29Z</time>
      </trkpt>
      <trkpt lat="39.9753570" lon="-6.2697450">
        <ele>295.8</ele>
        <time>2021-10-16T13:13:33Z</time>
      </trkpt>
      <trkpt lat="39.9752780" lon="-6.2696710">
        <ele>296.4</ele>
        <time>2021-10-16T13:13:38Z</time>
      </trkpt>
      <trkpt lat="39.9752610" lon="-6.2696510">
        <ele>296.4</ele>
        <time>2021-10-16T13:13:39Z</time>
      </trkpt>
      <trkpt lat="39.9752110" lon="-6.2695900">
        <ele>296.8</ele>
        <time>2021-10-16T13:13:42Z</time>
      </trkpt>
      <trkpt lat="39.9751460" lon="-6.2695200">
        <ele>297.2</ele>
        <time>2021-10-16T13:13:46Z</time>
      </trkpt>
      <trkpt lat="39.9751150" lon="-6.2694850">
        <ele>297.4</ele>
        <time>2021-10-16T13:13:48Z</time>
      </trkpt>
      <trkpt lat="39.9750850" lon="-6.2694450">
        <ele>297.8</ele>
        <time>2021-10-16T13:13:50Z</time>
      </trkpt>
      <trkpt lat="39.9750340" lon="-6.2693500">
        <ele>298.0</ele>
        <time>2021-10-16T13:13:54Z</time>
      </trkpt>
      <trkpt lat="39.9749850" lon="-6.2692370">
        <ele>298.6</ele>
        <time>2021-10-16T13:13:59Z</time>
      </trkpt>
      <trkpt lat="39.9749200" lon="-6.2690460">
        <ele>299.6</ele>
        <time>2021-10-16T13:14:07Z</time>
      </trkpt>
      <trkpt lat="39.9749010" lon="-6.2688850">
        <ele>300.2</ele>
        <time>2021-10-16T13:14:13Z</time>
      </trkpt>
      <trkpt lat="39.9748910" lon="-6.2687600">
        <ele>300.6</ele>
        <time>2021-10-16T13:14:21Z</time>
      </trkpt>
      <trkpt lat="39.9749000" lon="-6.2687420">
        <ele>301.4</ele>
        <time>2021-10-16T13:14:35Z</time>
      </trkpt>
      <trkpt lat="39.9749050" lon="-6.2687210">
        <ele>301.4</ele>
        <time>2021-10-16T13:14:36Z</time>
      </trkpt>
      <trkpt lat="39.9749130" lon="-6.2686630">
        <ele>301.6</ele>
        <time>2021-10-16T13:14:38Z</time>
      </trkpt>
      <trkpt lat="39.9749240" lon="-6.2685520">
        <ele>302.0</ele>
        <time>2021-10-16T13:14:42Z</time>
      </trkpt>
      <trkpt lat="39.9749520" lon="-6.2684800">
        <ele>302.2</ele>
        <time>2021-10-16T13:14:45Z</time>
      </trkpt>
      <trkpt lat="39.9749830" lon="-6.2682730">
        <ele>303.0</ele>
        <time>2021-10-16T13:14:53Z</time>
      </trkpt>
      <trkpt lat="39.9750150" lon="-6.2680930">
        <ele>304.4</ele>
        <time>2021-10-16T13:15:00Z</time>
      </trkpt>
      <trkpt lat="39.9750060" lon="-6.2679950">
        <ele>305.2</ele>
        <time>2021-10-16T13:15:05Z</time>
      </trkpt>
      <trkpt lat="39.9750140" lon="-6.2679780">
        <ele>305.2</ele>
        <time>2021-10-16T13:15:06Z</time>
      </trkpt>
      <trkpt lat="39.9750260" lon="-6.2679630">
        <ele>305.4</ele>
        <time>2021-10-16T13:15:07Z</time>
      </trkpt>
      <trkpt lat="39.9750500" lon="-6.2679500">
        <ele>305.8</ele>
        <time>2021-10-16T13:15:11Z</time>
      </trkpt>
      <trkpt lat="39.9751100" lon="-6.2679360">
        <ele>306.4</ele>
        <time>2021-10-16T13:15:17Z</time>
      </trkpt>
      <trkpt lat="39.9751240" lon="-6.2679260">
        <ele>306.6</ele>
        <time>2021-10-16T13:15:18Z</time>
      </trkpt>
      <trkpt lat="39.9751970" lon="-6.2678930">
        <ele>307.2</ele>
        <time>2021-10-16T13:15:22Z</time>
      </trkpt>
      <trkpt lat="39.9752090" lon="-6.2678880">
        <ele>307.2</ele>
        <time>2021-10-16T13:15:23Z</time>
      </trkpt>
      <trkpt lat="39.9752560" lon="-6.2678880">
        <ele>307.8</ele>
        <time>2021-10-16T13:15:26Z</time>
      </trkpt>
      <trkpt lat="39.9752760" lon="-6.2678850">
        <ele>307.8</ele>
        <time>2021-10-16T13:15:28Z</time>
      </trkpt>
      <trkpt lat="39.9752800" lon="-6.2678720">
        <ele>308.0</ele>
        <time>2021-10-16T13:15:29Z</time>
      </trkpt>
      <trkpt lat="39.9752880" lon="-6.2678390">
        <ele>308.2</ele>
        <time>2021-10-16T13:15:31Z</time>
      </trkpt>
      <trkpt lat="39.9752790" lon="-6.2677070">
        <ele>308.4</ele>
        <time>2021-10-16T13:15:37Z</time>
      </trkpt>
      <trkpt lat="39.9752860" lon="-6.2676640">
        <ele>308.4</ele>
        <time>2021-10-16T13:15:39Z</time>
      </trkpt>
      <trkpt lat="39.9753330" lon="-6.2676180">
        <ele>308.4</ele>
        <time>2021-10-16T13:15:42Z</time>
      </trkpt>
      <trkpt lat="39.9753670" lon="-6.2676220">
        <ele>308.6</ele>
        <time>2021-10-16T13:15:45Z</time>
      </trkpt>
      <trkpt lat="39.9753980" lon="-6.2676740">
        <ele>308.8</ele>
        <time>2021-10-16T13:15:47Z</time>
      </trkpt>
      <trkpt lat="39.9754880" lon="-6.2678240">
        <ele>309.0</ele>
        <time>2021-10-16T13:15:52Z</time>
      </trkpt>
      <trkpt lat="39.9755530" lon="-6.2679650">
        <ele>309.0</ele>
        <time>2021-10-16T13:15:57Z</time>
      </trkpt>
      <trkpt lat="39.9755590" lon="-6.2679880">
        <ele>309.0</ele>
        <time>2021-10-16T13:15:58Z</time>
      </trkpt>
      <trkpt lat="39.9755030" lon="-6.2681290">
        <ele>309.0</ele>
        <time>2021-10-16T13:16:04Z</time>
      </trkpt>
      <trkpt lat="39.9753600" lon="-6.2681750">
        <ele>308.8</ele>
        <time>2021-10-16T13:16:10Z</time>
      </trkpt>
      <trkpt lat="39.9753520" lon="-6.2681580">
        <ele>308.8</ele>
        <time>2021-10-16T13:16:11Z</time>
      </trkpt>
      <trkpt lat="39.9753070" lon="-6.2679660">
        <ele>308.4</ele>
        <time>2021-10-16T13:16:17Z</time>
      </trkpt>
      <trkpt lat="39.9753070" lon="-6.2678940">
        <ele>308.4</ele>
        <time>2021-10-16T13:16:20Z</time>
      </trkpt>
      <trkpt lat="39.9753070" lon="-6.2678940">
        <ele>308.4</ele>
        <time>2021-10-16T13:16:23Z</time>
      </trkpt>
      <trkpt lat="39.9753260" lon="-6.2679630">
        <ele>308.4</ele>
        <time>2021-10-16T13:16:34Z</time>
      </trkpt>
      <trkpt lat="39.9753460" lon="-6.2681200">
        <ele>308.4</ele>
        <time>2021-10-16T13:16:39Z</time>
      </trkpt>
      <trkpt lat="39.9753470" lon="-6.2681480">
        <ele>308.4</ele>
        <time>2021-10-16T13:16:40Z</time>
      </trkpt>
      <trkpt lat="39.9753480" lon="-6.2681690">
        <ele>308.4</ele>
        <time>2021-10-16T13:16:41Z</time>
      </trkpt>
      <trkpt lat="39.9753730" lon="-6.2681720">
        <ele>308.4</ele>
        <time>2021-10-16T13:16:43Z</time>
      </trkpt>
      <trkpt lat="39.9754570" lon="-6.2681240">
        <ele>308.4</ele>
        <time>2021-10-16T13:16:47Z</time>
      </trkpt>
      <trkpt lat="39.9755740" lon="-6.2679930">
        <ele>308.6</ele>
        <time>2021-10-16T13:16:54Z</time>
      </trkpt>
      <trkpt lat="39.9755790" lon="-6.2679920">
        <ele>308.6</ele>
        <time>2021-10-16T13:16:55Z</time>
      </trkpt>
      <trkpt lat="39.9756110" lon="-6.2679670">
        <ele>308.8</ele>
        <time>2021-10-16T13:16:57Z</time>
      </trkpt>
      <trkpt lat="39.9756970" lon="-6.2678620">
        <ele>309.2</ele>
        <time>2021-10-16T13:17:02Z</time>
      </trkpt>
      <trkpt lat="39.9757360" lon="-6.2678180">
        <ele>309.6</ele>
        <time>2021-10-16T13:17:06Z</time>
      </trkpt>
      <trkpt lat="39.9757900" lon="-6.2677660">
        <ele>309.8</ele>
        <time>2021-10-16T13:17:08Z</time>
      </trkpt>
      <trkpt lat="39.9758540" lon="-6.2677210">
        <ele>310.2</ele>
        <time>2021-10-16T13:17:11Z</time>
      </trkpt>
      <trkpt lat="39.9759040" lon="-6.2676820">
        <ele>310.2</ele>
        <time>2021-10-16T13:17:13Z</time>
      </trkpt>
      <trkpt lat="39.9759260" lon="-6.2676550">
        <ele>310.2</ele>
        <time>2021-10-16T13:17:14Z</time>
      </trkpt>
      <trkpt lat="39.9759680" lon="-6.2676060">
        <ele>310.2</ele>
        <time>2021-10-16T13:17:16Z</time>
      </trkpt>
      <trkpt lat="39.9759720" lon="-6.2675820">
        <ele>310.2</ele>
        <time>2021-10-16T13:17:17Z</time>
      </trkpt>
      <trkpt lat="39.9759790" lon="-6.2675540">
        <ele>310.2</ele>
        <time>2021-10-16T13:17:18Z</time>
      </trkpt>
      <trkpt lat="39.9759980" lon="-6.2675110">
        <ele>310.2</ele>
        <time>2021-10-16T13:17:20Z</time>
      </trkpt>
      <trkpt lat="39.9760080" lon="-6.2674700">
        <ele>310.2</ele>
        <time>2021-10-16T13:17:22Z</time>
      </trkpt>
      <trkpt lat="39.9760150" lon="-6.2674540">
        <ele>310.0</ele>
        <time>2021-10-16T13:17:26Z</time>
      </trkpt>
      <trkpt lat="39.9759900" lon="-6.2674000">
        <ele>310.0</ele>
        <time>2021-10-16T13:17:46Z</time>
      </trkpt>
      <trkpt lat="39.9759610" lon="-6.2673080">
        <ele>310.2</ele>
        <time>2021-10-16T13:17:53Z</time>
      </trkpt>
      <trkpt lat="39.9759610" lon="-6.2673080">
        <ele>310.2</ele>
        <time>2021-10-16T13:17:54Z</time>
      </trkpt>
      <trkpt lat="39.9759030" lon="-6.2672180">
        <ele>311.8</ele>
        <time>2021-10-16T13:52:24Z</time>
      </trkpt>
      <trkpt lat="39.9758960" lon="-6.2672070">
        <ele>311.8</ele>
        <time>2021-10-16T13:52:25Z</time>
      </trkpt>
      <trkpt lat="39.9758730" lon="-6.2671940">
        <ele>312.0</ele>
        <time>2021-10-16T13:52:27Z</time>
      </trkpt>
      <trkpt lat="39.9758370" lon="-6.2671550">
        <ele>312.2</ele>
        <time>2021-10-16T13:52:30Z</time>
      </trkpt>
      <trkpt lat="39.9757920" lon="-6.2670910">
        <ele>312.2</ele>
        <time>2021-10-16T13:52:34Z</time>
      </trkpt>
      <trkpt lat="39.9757570" lon="-6.2670260">
        <ele>312.2</ele>
        <time>2021-10-16T13:52:37Z</time>
      </trkpt>
      <trkpt lat="39.9757280" lon="-6.2669580">
        <ele>312.4</ele>
        <time>2021-10-16T13:52:40Z</time>
      </trkpt>
      <trkpt lat="39.9757130" lon="-6.2669200">
        <ele>312.2</ele>
        <time>2021-10-16T13:52:42Z</time>
      </trkpt>
      <trkpt lat="39.9756780" lon="-6.2668560">
        <ele>312.2</ele>
        <time>2021-10-16T13:52:45Z</time>
      </trkpt>
      <trkpt lat="39.9756330" lon="-6.2668070">
        <ele>312.2</ele>
        <time>2021-10-16T13:52:48Z</time>
      </trkpt>
      <trkpt lat="39.9755710" lon="-6.2667910">
        <ele>312.2</ele>
        <time>2021-10-16T13:52:51Z</time>
      </trkpt>
      <trkpt lat="39.9754680" lon="-6.2668190">
        <ele>312.0</ele>
        <time>2021-10-16T13:52:57Z</time>
      </trkpt>
      <trkpt lat="39.9753910" lon="-6.2668560">
        <ele>312.0</ele>
        <time>2021-10-16T13:53:01Z</time>
      </trkpt>
      <trkpt lat="39.9753010" lon="-6.2668970">
        <ele>312.0</ele>
        <time>2021-10-16T13:53:06Z</time>
      </trkpt>
      <trkpt lat="39.9752760" lon="-6.2668990">
        <ele>312.0</ele>
        <time>2021-10-16T13:53:07Z</time>
      </trkpt>
      <trkpt lat="39.9751830" lon="-6.2669870">
        <ele>311.8</ele>
        <time>2021-10-16T13:53:13Z</time>
      </trkpt>
      <trkpt lat="39.9752620" lon="-6.2671770">
        <ele>311.6</ele>
        <time>2021-10-16T13:53:19Z</time>
      </trkpt>
      <trkpt lat="39.9753240" lon="-6.2674110">
        <ele>311.4</ele>
        <time>2021-10-16T13:53:25Z</time>
      </trkpt>
      <trkpt lat="39.9753560" lon="-6.2676160">
        <ele>311.2</ele>
        <time>2021-10-16T13:53:30Z</time>
      </trkpt>
      <trkpt lat="39.9753650" lon="-6.2676960">
        <ele>311.0</ele>
        <time>2021-10-16T13:53:32Z</time>
      </trkpt>
      <trkpt lat="39.9753500" lon="-6.2678430">
        <ele>310.8</ele>
        <time>2021-10-16T13:53:36Z</time>
      </trkpt>
      <trkpt lat="39.9753380" lon="-6.2678580">
        <ele>310.8</ele>
        <time>2021-10-16T13:53:37Z</time>
      </trkpt>
      <trkpt lat="39.9753140" lon="-6.2678690">
        <ele>310.8</ele>
        <time>2021-10-16T13:53:38Z</time>
      </trkpt>
      <trkpt lat="39.9751770" lon="-6.2678800">
        <ele>310.4</ele>
        <time>2021-10-16T13:53:42Z</time>
      </trkpt>
      <trkpt lat="39.9750760" lon="-6.2679110">
        <ele>310.2</ele>
        <time>2021-10-16T13:53:45Z</time>
      </trkpt>
      <trkpt lat="39.9750640" lon="-6.2679430">
        <ele>310.0</ele>
        <time>2021-10-16T13:53:46Z</time>
      </trkpt>
      <trkpt lat="39.9750580" lon="-6.2679750">
        <ele>309.8</ele>
        <time>2021-10-16T13:53:47Z</time>
      </trkpt>
      <trkpt lat="39.9750240" lon="-6.2681300">
        <ele>308.8</ele>
        <time>2021-10-16T13:53:51Z</time>
      </trkpt>
      <trkpt lat="39.9749820" lon="-6.2682200">
        <ele>308.2</ele>
        <time>2021-10-16T13:53:54Z</time>
      </trkpt>
      <trkpt lat="39.9749770" lon="-6.2682260">
        <ele>307.6</ele>
        <time>2021-10-16T13:53:55Z</time>
      </trkpt>
      <trkpt lat="39.9749770" lon="-6.2682260">
        <ele>307.0</ele>
        <time>2021-10-16T13:53:57Z</time>
      </trkpt>
      <trkpt lat="39.9749670" lon="-6.2682850">
        <ele>306.2</ele>
        <time>2021-10-16T13:54:04Z</time>
      </trkpt>
      <trkpt lat="39.9749500" lon="-6.2684880">
        <ele>305.8</ele>
        <time>2021-10-16T13:54:10Z</time>
      </trkpt>
      <trkpt lat="39.9749440" lon="-6.2687380">
        <ele>305.0</ele>
        <time>2021-10-16T13:54:17Z</time>
      </trkpt>
      <trkpt lat="39.9749460" lon="-6.2688870">
        <ele>304.6</ele>
        <time>2021-10-16T13:54:20Z</time>
      </trkpt>
      <trkpt lat="39.9749730" lon="-6.2690570">
        <ele>304.2</ele>
        <time>2021-10-16T13:54:23Z</time>
      </trkpt>
      <trkpt lat="39.9749830" lon="-6.2691070">
        <ele>304.0</ele>
        <time>2021-10-16T13:54:24Z</time>
      </trkpt>
      <trkpt lat="39.9750030" lon="-6.2691690">
        <ele>303.8</ele>
        <time>2021-10-16T13:54:25Z</time>
      </trkpt>
      <trkpt lat="39.9750840" lon="-6.2693400">
        <ele>303.4</ele>
        <time>2021-10-16T13:54:28Z</time>
      </trkpt>
      <trkpt lat="39.9751530" lon="-6.2694560">
        <ele>302.6</ele>
        <time>2021-10-16T13:54:30Z</time>
      </trkpt>
      <trkpt lat="39.9752510" lon="-6.2695850">
        <ele>301.6</ele>
        <time>2021-10-16T13:54:33Z</time>
      </trkpt>
      <trkpt lat="39.9753290" lon="-6.2696720">
        <ele>301.0</ele>
        <time>2021-10-16T13:54:35Z</time>
      </trkpt>
      <trkpt lat="39.9754160" lon="-6.2697240">
        <ele>300.6</ele>
        <time>2021-10-16T13:54:37Z</time>
      </trkpt>
      <trkpt lat="39.9754680" lon="-6.2697390">
        <ele>300.4</ele>
        <time>2021-10-16T13:54:38Z</time>
      </trkpt>
      <trkpt lat="39.9755240" lon="-6.2697490">
        <ele>300.0</ele>
        <time>2021-10-16T13:54:39Z</time>
      </trkpt>
      <trkpt lat="39.9755830" lon="-6.2697530">
        <ele>299.8</ele>
        <time>2021-10-16T13:54:40Z</time>
      </trkpt>
      <trkpt lat="39.9757070" lon="-6.2697470">
        <ele>299.4</ele>
        <time>2021-10-16T13:54:42Z</time>
      </trkpt>
      <trkpt lat="39.9758310" lon="-6.2697370">
        <ele>298.8</ele>
        <time>2021-10-16T13:54:44Z</time>
      </trkpt>
      <trkpt lat="39.9759600" lon="-6.2697250">
        <ele>298.2</ele>
        <time>2021-10-16T13:54:46Z</time>
      </trkpt>
      <trkpt lat="39.9761420" lon="-6.2697070">
        <ele>297.0</ele>
        <time>2021-10-16T13:54:49Z</time>
      </trkpt>
      <trkpt lat="39.9762570" lon="-6.2696960">
        <ele>295.8</ele>
        <time>2021-10-16T13:54:51Z</time>
      </trkpt>
      <trkpt lat="39.9763110" lon="-6.2696920">
        <ele>295.4</ele>
        <time>2021-10-16T13:54:52Z</time>
      </trkpt>
      <trkpt lat="39.9763540" lon="-6.2696850">
        <ele>294.6</ele>
        <time>2021-10-16T13:54:53Z</time>
      </trkpt>
      <trkpt lat="39.9764400" lon="-6.2696720">
        <ele>293.4</ele>
        <time>2021-10-16T13:54:56Z</time>
      </trkpt>
      <trkpt lat="39.9764820" lon="-6.2696620">
        <ele>292.0</ele>
        <time>2021-10-16T13:54:59Z</time>
      </trkpt>
      <trkpt lat="39.9764910" lon="-6.2696620">
        <ele>291.8</ele>
        <time>2021-10-16T13:55:00Z</time>
      </trkpt>
      <trkpt lat="39.9765380" lon="-6.2696630">
        <ele>291.0</ele>
        <time>2021-10-16T13:55:04Z</time>
      </trkpt>
      <trkpt lat="39.9765490" lon="-6.2696630">
        <ele>290.8</ele>
        <time>2021-10-16T13:55:07Z</time>
      </trkpt>
      <trkpt lat="39.9765490" lon="-6.2696630">
        <ele>290.8</ele>
        <time>2021-10-16T13:55:08Z</time>
      </trkpt>
      <trkpt lat="39.9765780" lon="-6.2697050">
        <ele>290.4</ele>
        <time>2021-10-16T13:55:15Z</time>
      </trkpt>
      <trkpt lat="39.9765800" lon="-6.2697520">
        <ele>290.4</ele>
        <time>2021-10-16T13:55:17Z</time>
      </trkpt>
      <trkpt lat="39.9765480" lon="-6.2697940">
        <ele>290.0</ele>
        <time>2021-10-16T13:55:22Z</time>
      </trkpt>
      <trkpt lat="39.9765270" lon="-6.2698050">
        <ele>289.6</ele>
        <time>2021-10-16T13:56:01Z</time>
      </trkpt>
      <trkpt lat="39.9765060" lon="-6.2698230">
        <ele>289.6</ele>
        <time>2021-10-16T13:56:02Z</time>
      </trkpt>
      <trkpt lat="39.9764820" lon="-6.2698470">
        <ele>289.6</ele>
        <time>2021-10-16T13:56:03Z</time>
      </trkpt>
      <trkpt lat="39.9763280" lon="-6.2699830">
        <ele>289.4</ele>
        <time>2021-10-16T13:56:07Z</time>
      </trkpt>
      <trkpt lat="39.9762800" lon="-6.2700300">
        <ele>289.2</ele>
        <time>2021-10-16T13:56:08Z</time>
      </trkpt>
      <trkpt lat="39.9761070" lon="-6.2702560">
        <ele>288.2</ele>
        <time>2021-10-16T13:56:12Z</time>
      </trkpt>
      <trkpt lat="39.9760190" lon="-6.2703610">
        <ele>287.0</ele>
        <time>2021-10-16T13:56:14Z</time>
      </trkpt>
      <trkpt lat="39.9759390" lon="-6.2704690">
        <ele>285.6</ele>
        <time>2021-10-16T13:56:16Z</time>
      </trkpt>
      <trkpt lat="39.9758620" lon="-6.2705840">
        <ele>284.4</ele>
        <time>2021-10-16T13:56:18Z</time>
      </trkpt>
      <trkpt lat="39.9758220" lon="-6.2706450">
        <ele>283.6</ele>
        <time>2021-10-16T13:56:19Z</time>
      </trkpt>
      <trkpt lat="39.9757820" lon="-6.2707150">
        <ele>283.0</ele>
        <time>2021-10-16T13:56:20Z</time>
      </trkpt>
      <trkpt lat="39.9757380" lon="-6.2708780">
        <ele>282.0</ele>
        <time>2021-10-16T13:56:22Z</time>
      </trkpt>
      <trkpt lat="39.9757590" lon="-6.2710450">
        <ele>280.4</ele>
        <time>2021-10-16T13:56:24Z</time>
      </trkpt>
      <trkpt lat="39.9757870" lon="-6.2711320">
        <ele>280.0</ele>
        <time>2021-10-16T13:56:25Z</time>
      </trkpt>
      <trkpt lat="39.9758210" lon="-6.2712210">
        <ele>279.4</ele>
        <time>2021-10-16T13:56:26Z</time>
      </trkpt>
      <trkpt lat="39.9759000" lon="-6.2713910">
        <ele>278.2</ele>
        <time>2021-10-16T13:56:28Z</time>
      </trkpt>
      <trkpt lat="39.9759190" lon="-6.2714760">
        <ele>277.8</ele>
        <time>2021-10-16T13:56:29Z</time>
      </trkpt>
      <trkpt lat="39.9759180" lon="-6.2715600">
        <ele>277.0</ele>
        <time>2021-10-16T13:56:30Z</time>
      </trkpt>
      <trkpt lat="39.9758660" lon="-6.2717070">
        <ele>276.0</ele>
        <time>2021-10-16T13:56:32Z</time>
      </trkpt>
      <trkpt lat="39.9757540" lon="-6.2718030">
        <ele>274.6</ele>
        <time>2021-10-16T13:56:35Z</time>
      </trkpt>
      <trkpt lat="39.9756890" lon="-6.2719100">
        <ele>274.2</ele>
        <time>2021-10-16T13:56:39Z</time>
      </trkpt>
      <trkpt lat="39.9756260" lon="-6.2720920">
        <ele>273.6</ele>
        <time>2021-10-16T13:56:44Z</time>
      </trkpt>
      <trkpt lat="39.9756050" lon="-6.2721490">
        <ele>273.4</ele>
        <time>2021-10-16T13:56:45Z</time>
      </trkpt>
      <trkpt lat="39.9754740" lon="-6.2724860">
        <ele>272.6</ele>
        <time>2021-10-16T13:56:50Z</time>
      </trkpt>
      <trkpt lat="39.9753960" lon="-6.2726740">
        <ele>271.6</ele>
        <time>2021-10-16T13:56:53Z</time>
      </trkpt>
      <trkpt lat="39.9753770" lon="-6.2727340">
        <ele>271.4</ele>
        <time>2021-10-16T13:56:54Z</time>
      </trkpt>
      <trkpt lat="39.9753580" lon="-6.2727890">
        <ele>271.0</ele>
        <time>2021-10-16T13:56:55Z</time>
      </trkpt>
      <trkpt lat="39.9753350" lon="-6.2728380">
        <ele>271.0</ele>
        <time>2021-10-16T13:56:56Z</time>
      </trkpt>
      <trkpt lat="39.9752300" lon="-6.2730910">
        <ele>270.8</ele>
        <time>2021-10-16T13:57:02Z</time>
      </trkpt>
      <trkpt lat="39.9751430" lon="-6.2733100">
        <ele>271.0</ele>
        <time>2021-10-16T13:57:08Z</time>
      </trkpt>
      <trkpt lat="39.9750300" lon="-6.2735720">
        <ele>271.8</ele>
        <time>2021-10-16T13:57:16Z</time>
      </trkpt>
      <trkpt lat="39.9749880" lon="-6.2736920">
        <ele>272.6</ele>
        <time>2021-10-16T13:57:20Z</time>
      </trkpt>
      <trkpt lat="39.9749700" lon="-6.2737660">
        <ele>273.0</ele>
        <time>2021-10-16T13:57:23Z</time>
      </trkpt>
      <trkpt lat="39.9749260" lon="-6.2738950">
        <ele>273.8</ele>
        <time>2021-10-16T13:57:28Z</time>
      </trkpt>
      <trkpt lat="39.9749140" lon="-6.2739190">
        <ele>273.8</ele>
        <time>2021-10-16T13:57:29Z</time>
      </trkpt>
      <trkpt lat="39.9748390" lon="-6.2740510">
        <ele>274.4</ele>
        <time>2021-10-16T13:57:34Z</time>
      </trkpt>
      <trkpt lat="39.9747960" lon="-6.2741330">
        <ele>274.8</ele>
        <time>2021-10-16T13:57:37Z</time>
      </trkpt>
      <trkpt lat="39.9747630" lon="-6.2741870">
        <ele>275.0</ele>
        <time>2021-10-16T13:57:39Z</time>
      </trkpt>
      <trkpt lat="39.9747150" lon="-6.2742710">
        <ele>275.4</ele>
        <time>2021-10-16T13:57:42Z</time>
      </trkpt>
      <trkpt lat="39.9746570" lon="-6.2743590">
        <ele>276.0</ele>
        <time>2021-10-16T13:57:46Z</time>
      </trkpt>
      <trkpt lat="39.9745920" lon="-6.2744420">
        <ele>276.2</ele>
        <time>2021-10-16T13:57:50Z</time>
      </trkpt>
      <trkpt lat="39.9745480" lon="-6.2744740">
        <ele>276.4</ele>
        <time>2021-10-16T13:57:52Z</time>
      </trkpt>
      <trkpt lat="39.9745250" lon="-6.2744880">
        <ele>276.4</ele>
        <time>2021-10-16T13:57:53Z</time>
      </trkpt>
      <trkpt lat="39.9744620" lon="-6.2745570">
        <ele>276.8</ele>
        <time>2021-10-16T13:57:56Z</time>
      </trkpt>
      <trkpt lat="39.9744220" lon="-6.2745990">
        <ele>277.0</ele>
        <time>2021-10-16T13:57:58Z</time>
      </trkpt>
      <trkpt lat="39.9743640" lon="-6.2746590">
        <ele>277.2</ele>
        <time>2021-10-16T13:58:01Z</time>
      </trkpt>
      <trkpt lat="39.9742950" lon="-6.2747030">
        <ele>277.4</ele>
        <time>2021-10-16T13:58:04Z</time>
      </trkpt>
      <trkpt lat="39.9741940" lon="-6.2747290">
        <ele>277.6</ele>
        <time>2021-10-16T13:58:08Z</time>
      </trkpt>
      <trkpt lat="39.9741180" lon="-6.2747430">
        <ele>277.8</ele>
        <time>2021-10-16T13:58:11Z</time>
      </trkpt>
      <trkpt lat="39.9740380" lon="-6.2747480">
        <ele>278.2</ele>
        <time>2021-10-16T13:58:14Z</time>
      </trkpt>
      <trkpt lat="39.9739820" lon="-6.2747600">
        <ele>278.2</ele>
        <time>2021-10-16T13:58:16Z</time>
      </trkpt>
      <trkpt lat="39.9739520" lon="-6.2747650">
        <ele>278.2</ele>
        <time>2021-10-16T13:58:17Z</time>
      </trkpt>
      <trkpt lat="39.9738610" lon="-6.2747850">
        <ele>278.2</ele>
        <time>2021-10-16T13:58:20Z</time>
      </trkpt>
      <trkpt lat="39.9736850" lon="-6.2748100">
        <ele>278.2</ele>
        <time>2021-10-16T13:58:25Z</time>
      </trkpt>
      <trkpt lat="39.9734090" lon="-6.2748460">
        <ele>278.0</ele>
        <time>2021-10-16T13:58:32Z</time>
      </trkpt>
      <trkpt lat="39.9733260" lon="-6.2748570">
        <ele>278.0</ele>
        <time>2021-10-16T13:58:34Z</time>
      </trkpt>
      <trkpt lat="39.9731950" lon="-6.2748770">
        <ele>278.0</ele>
        <time>2021-10-16T13:58:37Z</time>
      </trkpt>
      <trkpt lat="39.9729300" lon="-6.2749150">
        <ele>277.8</ele>
        <time>2021-10-16T13:58:43Z</time>
      </trkpt>
      <trkpt lat="39.9728420" lon="-6.2749260">
        <ele>277.8</ele>
        <time>2021-10-16T13:58:45Z</time>
      </trkpt>
      <trkpt lat="39.9725350" lon="-6.2749720">
        <ele>277.6</ele>
        <time>2021-10-16T13:58:52Z</time>
      </trkpt>
      <trkpt lat="39.9724930" lon="-6.2749770">
        <ele>277.6</ele>
        <time>2021-10-16T13:58:53Z</time>
      </trkpt>
      <trkpt lat="39.9722360" lon="-6.2750090">
        <ele>277.6</ele>
        <time>2021-10-16T13:58:59Z</time>
      </trkpt>
      <trkpt lat="39.9720660" lon="-6.2750380">
        <ele>277.6</ele>
        <time>2021-10-16T13:59:03Z</time>
      </trkpt>
      <trkpt lat="39.9716740" lon="-6.2750970">
        <ele>277.6</ele>
        <time>2021-10-16T13:59:12Z</time>
      </trkpt>
      <trkpt lat="39.9712320" lon="-6.2751660">
        <ele>277.6</ele>
        <time>2021-10-16T13:59:22Z</time>
      </trkpt>
      <trkpt lat="39.9708180" lon="-6.2752260">
        <ele>277.6</ele>
        <time>2021-10-16T13:59:31Z</time>
      </trkpt>
      <trkpt lat="39.9704490" lon="-6.2752790">
        <ele>277.6</ele>
        <time>2021-10-16T13:59:39Z</time>
      </trkpt>
      <trkpt lat="39.9704050" lon="-6.2752860">
        <ele>277.6</ele>
        <time>2021-10-16T13:59:40Z</time>
      </trkpt>
      <trkpt lat="39.9700740" lon="-6.2753310">
        <ele>277.8</ele>
        <time>2021-10-16T13:59:47Z</time>
      </trkpt>
      <trkpt lat="39.9695740" lon="-6.2754030">
        <ele>278.0</ele>
        <time>2021-10-16T13:59:58Z</time>
      </trkpt>
      <trkpt lat="39.9690590" lon="-6.2754760">
        <ele>278.2</ele>
        <time>2021-10-16T14:00:09Z</time>
      </trkpt>
      <trkpt lat="39.9689650" lon="-6.2754890">
        <ele>278.2</ele>
        <time>2021-10-16T14:00:11Z</time>
      </trkpt>
      <trkpt lat="39.9686770" lon="-6.2755310">
        <ele>278.0</ele>
        <time>2021-10-16T14:00:17Z</time>
      </trkpt>
      <trkpt lat="39.9684320" lon="-6.2755670">
        <ele>278.0</ele>
        <time>2021-10-16T14:00:22Z</time>
      </trkpt>
      <trkpt lat="39.9680090" lon="-6.2756240">
        <ele>278.0</ele>
        <time>2021-10-16T14:00:31Z</time>
      </trkpt>
      <trkpt lat="39.9675590" lon="-6.2756960">
        <ele>278.2</ele>
        <time>2021-10-16T14:00:41Z</time>
      </trkpt>
      <trkpt lat="39.9672650" lon="-6.2758130">
        <ele>278.4</ele>
        <time>2021-10-16T14:00:48Z</time>
      </trkpt>
      <trkpt lat="39.9670320" lon="-6.2760490">
        <ele>278.6</ele>
        <time>2021-10-16T14:00:55Z</time>
      </trkpt>
      <trkpt lat="39.9669600" lon="-6.2761890">
        <ele>278.6</ele>
        <time>2021-10-16T14:00:58Z</time>
      </trkpt>
      <trkpt lat="39.9669120" lon="-6.2763440">
        <ele>278.4</ele>
        <time>2021-10-16T14:01:01Z</time>
      </trkpt>
      <trkpt lat="39.9668650" lon="-6.2765470">
        <ele>278.4</ele>
        <time>2021-10-16T14:01:05Z</time>
      </trkpt>
      <trkpt lat="39.9667900" lon="-6.2768400">
        <ele>278.4</ele>
        <time>2021-10-16T14:01:11Z</time>
      </trkpt>
      <trkpt lat="39.9666680" lon="-6.2773180">
        <ele>277.8</ele>
        <time>2021-10-16T14:01:20Z</time>
      </trkpt>
      <trkpt lat="39.9666550" lon="-6.2773710">
        <ele>277.8</ele>
        <time>2021-10-16T14:01:21Z</time>
      </trkpt>
      <trkpt lat="39.9665700" lon="-6.2777090">
        <ele>278.0</ele>
        <time>2021-10-16T14:01:28Z</time>
      </trkpt>
      <trkpt lat="39.9665020" lon="-6.2779300">
        <ele>278.4</ele>
        <time>2021-10-16T14:01:33Z</time>
      </trkpt>
      <trkpt lat="39.9664060" lon="-6.2783150">
        <ele>279.2</ele>
        <time>2021-10-16T14:01:42Z</time>
      </trkpt>
      <trkpt lat="39.9663660" lon="-6.2784830">
        <ele>279.6</ele>
        <time>2021-10-16T14:01:46Z</time>
      </trkpt>
      <trkpt lat="39.9663200" lon="-6.2786530">
        <ele>279.8</ele>
        <time>2021-10-16T14:01:50Z</time>
      </trkpt>
      <trkpt lat="39.9662770" lon="-6.2788170">
        <ele>280.2</ele>
        <time>2021-10-16T14:01:54Z</time>
      </trkpt>
      <trkpt lat="39.9662320" lon="-6.2789790">
        <ele>280.6</ele>
        <time>2021-10-16T14:01:58Z</time>
      </trkpt>
      <trkpt lat="39.9661980" lon="-6.2791020">
        <ele>280.8</ele>
        <time>2021-10-16T14:02:01Z</time>
      </trkpt>
      <trkpt lat="39.9660910" lon="-6.2795220">
        <ele>282.0</ele>
        <time>2021-10-16T14:02:12Z</time>
      </trkpt>
      <trkpt lat="39.9660280" lon="-6.2797770">
        <ele>282.6</ele>
        <time>2021-10-16T14:02:19Z</time>
      </trkpt>
      <trkpt lat="39.9660040" lon="-6.2798910">
        <ele>282.8</ele>
        <time>2021-10-16T14:02:22Z</time>
      </trkpt>
      <trkpt lat="39.9659930" lon="-6.2799280">
        <ele>283.0</ele>
        <time>2021-10-16T14:02:23Z</time>
      </trkpt>
      <trkpt lat="39.9659640" lon="-6.2800380">
        <ele>283.2</ele>
        <time>2021-10-16T14:02:26Z</time>
      </trkpt>
      <trkpt lat="39.9659120" lon="-6.2802280">
        <ele>283.4</ele>
        <time>2021-10-16T14:02:31Z</time>
      </trkpt>
      <trkpt lat="39.9658470" lon="-6.2804970">
        <ele>284.0</ele>
        <time>2021-10-16T14:02:38Z</time>
      </trkpt>
      <trkpt lat="39.9658180" lon="-6.2806060">
        <ele>284.2</ele>
        <time>2021-10-16T14:02:41Z</time>
      </trkpt>
      <trkpt lat="39.9657750" lon="-6.2807540">
        <ele>284.6</ele>
        <time>2021-10-16T14:02:45Z</time>
      </trkpt>
      <trkpt lat="39.9657300" lon="-6.2809190">
        <ele>285.0</ele>
        <time>2021-10-16T14:02:49Z</time>
      </trkpt>
      <trkpt lat="39.9656910" lon="-6.2810280">
        <ele>285.2</ele>
        <time>2021-10-16T14:02:52Z</time>
      </trkpt>
      <trkpt lat="39.9655750" lon="-6.2813430">
        <ele>285.6</ele>
        <time>2021-10-16T14:02:59Z</time>
      </trkpt>
      <trkpt lat="39.9655500" lon="-6.2813860">
        <ele>285.6</ele>
        <time>2021-10-16T14:03:00Z</time>
      </trkpt>
      <trkpt lat="39.9653210" lon="-6.2817530">
        <ele>285.2</ele>
        <time>2021-10-16T14:03:08Z</time>
      </trkpt>
      <trkpt lat="39.9652280" lon="-6.2818860">
        <ele>284.8</ele>
        <time>2021-10-16T14:03:11Z</time>
      </trkpt>
      <trkpt lat="39.9650980" lon="-6.2820750">
        <ele>284.6</ele>
        <time>2021-10-16T14:03:15Z</time>
      </trkpt>
      <trkpt lat="39.9650250" lon="-6.2821590">
        <ele>284.4</ele>
        <time>2021-10-16T14:03:17Z</time>
      </trkpt>
      <trkpt lat="39.9648120" lon="-6.2823270">
        <ele>284.2</ele>
        <time>2021-10-16T14:03:22Z</time>
      </trkpt>
      <trkpt lat="39.9647650" lon="-6.2823480">
        <ele>284.0</ele>
        <time>2021-10-16T14:03:23Z</time>
      </trkpt>
      <trkpt lat="39.9647180" lon="-6.2823670">
        <ele>283.8</ele>
        <time>2021-10-16T14:03:24Z</time>
      </trkpt>
      <trkpt lat="39.9646710" lon="-6.2823870">
        <ele>283.8</ele>
        <time>2021-10-16T14:03:25Z</time>
      </trkpt>
      <trkpt lat="39.9644380" lon="-6.2825050">
        <ele>283.4</ele>
        <time>2021-10-16T14:03:30Z</time>
      </trkpt>
      <trkpt lat="39.9642420" lon="-6.2826070">
        <ele>283.0</ele>
        <time>2021-10-16T14:03:34Z</time>
      </trkpt>
      <trkpt lat="39.9640780" lon="-6.2826920">
        <ele>282.8</ele>
        <time>2021-10-16T14:03:37Z</time>
      </trkpt>
      <trkpt lat="39.9638400" lon="-6.2828120">
        <ele>282.0</ele>
        <time>2021-10-16T14:03:41Z</time>
      </trkpt>
      <trkpt lat="39.9635660" lon="-6.2829480">
        <ele>281.2</ele>
        <time>2021-10-16T14:03:45Z</time>
      </trkpt>
      <trkpt lat="39.9634150" lon="-6.2830250">
        <ele>280.8</ele>
        <time>2021-10-16T14:03:47Z</time>
      </trkpt>
      <trkpt lat="39.9631700" lon="-6.2831460">
        <ele>279.6</ele>
        <time>2021-10-16T14:03:50Z</time>
      </trkpt>
      <trkpt lat="39.9630830" lon="-6.2831890">
        <ele>279.2</ele>
        <time>2021-10-16T14:03:51Z</time>
      </trkpt>
      <trkpt lat="39.9629950" lon="-6.2832310">
        <ele>278.6</ele>
        <time>2021-10-16T14:03:52Z</time>
      </trkpt>
      <trkpt lat="39.9626270" lon="-6.2834100">
        <ele>276.8</ele>
        <time>2021-10-16T14:03:56Z</time>
      </trkpt>
      <trkpt lat="39.9624330" lon="-6.2834980">
        <ele>275.8</ele>
        <time>2021-10-16T14:03:58Z</time>
      </trkpt>
      <trkpt lat="39.9622290" lon="-6.2836030">
        <ele>274.6</ele>
        <time>2021-10-16T14:04:00Z</time>
      </trkpt>
      <trkpt lat="39.9620200" lon="-6.2837080">
        <ele>273.4</ele>
        <time>2021-10-16T14:04:02Z</time>
      </trkpt>
      <trkpt lat="39.9618060" lon="-6.2838160">
        <ele>272.0</ele>
        <time>2021-10-16T14:04:04Z</time>
      </trkpt>
      <trkpt lat="39.9616930" lon="-6.2838720">
        <ele>270.8</ele>
        <time>2021-10-16T14:04:05Z</time>
      </trkpt>
      <trkpt lat="39.9614640" lon="-6.2839850">
        <ele>269.0</ele>
        <time>2021-10-16T14:04:07Z</time>
      </trkpt>
      <trkpt lat="39.9612330" lon="-6.2840970">
        <ele>267.4</ele>
        <time>2021-10-16T14:04:09Z</time>
      </trkpt>
      <trkpt lat="39.9609970" lon="-6.2842150">
        <ele>265.8</ele>
        <time>2021-10-16T14:04:11Z</time>
      </trkpt>
      <trkpt lat="39.9608790" lon="-6.2842730">
        <ele>264.6</ele>
        <time>2021-10-16T14:04:12Z</time>
      </trkpt>
      <trkpt lat="39.9607620" lon="-6.2843300">
        <ele>264.0</ele>
        <time>2021-10-16T14:04:13Z</time>
      </trkpt>
      <trkpt lat="39.9606470" lon="-6.2843870">
        <ele>262.8</ele>
        <time>2021-10-16T14:04:14Z</time>
      </trkpt>
      <trkpt lat="39.9604260" lon="-6.2844980">
        <ele>261.2</ele>
        <time>2021-10-16T14:04:16Z</time>
      </trkpt>
      <trkpt lat="39.9602230" lon="-6.2846010">
        <ele>259.6</ele>
        <time>2021-10-16T14:04:18Z</time>
      </trkpt>
      <trkpt lat="39.9601230" lon="-6.2846500">
        <ele>259.2</ele>
        <time>2021-10-16T14:04:19Z</time>
      </trkpt>
      <trkpt lat="39.9600280" lon="-6.2846970">
        <ele>258.6</ele>
        <time>2021-10-16T14:04:20Z</time>
      </trkpt>
      <trkpt lat="39.9596790" lon="-6.2848730">
        <ele>257.6</ele>
        <time>2021-10-16T14:04:24Z</time>
      </trkpt>
      <trkpt lat="39.9596010" lon="-6.2849120">
        <ele>257.6</ele>
        <time>2021-10-16T14:04:25Z</time>
      </trkpt>
      <trkpt lat="39.9592990" lon="-6.2850710">
        <ele>257.0</ele>
        <time>2021-10-16T14:04:29Z</time>
      </trkpt>
      <trkpt lat="39.9589870" lon="-6.2852220">
        <ele>257.0</ele>
        <time>2021-10-16T14:04:34Z</time>
      </trkpt>
      <trkpt lat="39.9587800" lon="-6.2853310">
        <ele>257.4</ele>
        <time>2021-10-16T14:04:39Z</time>
      </trkpt>
      <trkpt lat="39.9586380" lon="-6.2853950">
        <ele>258.8</ele>
        <time>2021-10-16T14:04:44Z</time>
      </trkpt>
      <trkpt lat="39.9586130" lon="-6.2854090">
        <ele>259.2</ele>
        <time>2021-10-16T14:04:45Z</time>
      </trkpt>
      <trkpt lat="39.9585230" lon="-6.2854540">
        <ele>260.2</ele>
        <time>2021-10-16T14:04:49Z</time>
      </trkpt>
      <trkpt lat="39.9584600" lon="-6.2854820">
        <ele>260.8</ele>
        <time>2021-10-16T14:04:52Z</time>
      </trkpt>
      <trkpt lat="39.9584400" lon="-6.2854900">
        <ele>261.2</ele>
        <time>2021-10-16T14:04:53Z</time>
      </trkpt>
      <trkpt lat="39.9582990" lon="-6.2855620">
        <ele>262.4</ele>
        <time>2021-10-16T14:05:00Z</time>
      </trkpt>
      <trkpt lat="39.9582660" lon="-6.2855790">
        <ele>262.6</ele>
        <time>2021-10-16T14:05:02Z</time>
      </trkpt>
      <trkpt lat="39.9581830" lon="-6.2856140">
        <ele>263.4</ele>
        <time>2021-10-16T14:05:06Z</time>
      </trkpt>
      <trkpt lat="39.9580720" lon="-6.2856690">
        <ele>264.4</ele>
        <time>2021-10-16T14:05:12Z</time>
      </trkpt>
      <trkpt lat="39.9580550" lon="-6.2856790">
        <ele>264.6</ele>
        <time>2021-10-16T14:05:13Z</time>
      </trkpt>
      <trkpt lat="39.9579250" lon="-6.2857460">
        <ele>265.8</ele>
        <time>2021-10-16T14:05:20Z</time>
      </trkpt>
      <trkpt lat="39.9578010" lon="-6.2858030">
        <ele>267.0</ele>
        <time>2021-10-16T14:05:27Z</time>
      </trkpt>
      <trkpt lat="39.9577820" lon="-6.2858100">
        <ele>267.0</ele>
        <time>2021-10-16T14:05:28Z</time>
      </trkpt>
      <trkpt lat="39.9577280" lon="-6.2858370">
        <ele>267.6</ele>
        <time>2021-10-16T14:05:31Z</time>
      </trkpt>
      <trkpt lat="39.9576590" lon="-6.2858710">
        <ele>268.0</ele>
        <time>2021-10-16T14:05:35Z</time>
      </trkpt>
      <trkpt lat="39.9576120" lon="-6.2859010">
        <ele>268.6</ele>
        <time>2021-10-16T14:05:38Z</time>
      </trkpt>
      <trkpt lat="39.9575300" lon="-6.2859360">
        <ele>269.2</ele>
        <time>2021-10-16T14:05:43Z</time>
      </trkpt>
      <trkpt lat="39.9574760" lon="-6.2859660">
        <ele>269.8</ele>
        <time>2021-10-16T14:05:47Z</time>
      </trkpt>
      <trkpt lat="39.9574280" lon="-6.2859760">
        <ele>270.2</ele>
        <time>2021-10-16T14:05:51Z</time>
      </trkpt>
      <trkpt lat="39.9574010" lon="-6.2859960">
        <ele>270.6</ele>
        <time>2021-10-16T14:05:53Z</time>
      </trkpt>
      <trkpt lat="39.9573680" lon="-6.2860090">
        <ele>270.6</ele>
        <time>2021-10-16T14:05:55Z</time>
      </trkpt>
      <trkpt lat="39.9573370" lon="-6.2860210">
        <ele>270.8</ele>
        <time>2021-10-16T14:05:57Z</time>
      </trkpt>
      <trkpt lat="39.9572830" lon="-6.2860540">
        <ele>271.2</ele>
        <time>2021-10-16T14:06:01Z</time>
      </trkpt>
      <trkpt lat="39.9572690" lon="-6.2860650">
        <ele>271.4</ele>
        <time>2021-10-16T14:06:02Z</time>
      </trkpt>
      <trkpt lat="39.9571860" lon="-6.2861070">
        <ele>272.0</ele>
        <time>2021-10-16T14:06:08Z</time>
      </trkpt>
      <trkpt lat="39.9571310" lon="-6.2861350">
        <ele>272.4</ele>
        <time>2021-10-16T14:06:12Z</time>
      </trkpt>
      <trkpt lat="39.9570580" lon="-6.2861720">
        <ele>273.0</ele>
        <time>2021-10-16T14:06:17Z</time>
      </trkpt>
      <trkpt lat="39.9569810" lon="-6.2862130">
        <ele>273.4</ele>
        <time>2021-10-16T14:06:22Z</time>
      </trkpt>
      <trkpt lat="39.9568980" lon="-6.2862520">
        <ele>274.0</ele>
        <time>2021-10-16T14:06:27Z</time>
      </trkpt>
      <trkpt lat="39.9568370" lon="-6.2862850">
        <ele>274.6</ele>
        <time>2021-10-16T14:06:31Z</time>
      </trkpt>
      <trkpt lat="39.9567110" lon="-6.2863450">
        <ele>275.2</ele>
        <time>2021-10-16T14:06:38Z</time>
      </trkpt>
      <trkpt lat="39.9566770" lon="-6.2863670">
        <ele>275.6</ele>
        <time>2021-10-16T14:06:40Z</time>
      </trkpt>
      <trkpt lat="39.9565560" lon="-6.2864340">
        <ele>276.4</ele>
        <time>2021-10-16T14:06:47Z</time>
      </trkpt>
      <trkpt lat="39.9565220" lon="-6.2864480">
        <ele>276.6</ele>
        <time>2021-10-16T14:06:49Z</time>
      </trkpt>
      <trkpt lat="39.9563700" lon="-6.2864940">
        <ele>277.8</ele>
        <time>2021-10-16T14:06:57Z</time>
      </trkpt>
      <trkpt lat="39.9561670" lon="-6.2865270">
        <ele>278.8</ele>
        <time>2021-10-16T14:07:08Z</time>
      </trkpt>
      <trkpt lat="39.9561480" lon="-6.2865320">
        <ele>278.8</ele>
        <time>2021-10-16T14:07:09Z</time>
      </trkpt>
      <trkpt lat="39.9560660" lon="-6.2865420">
        <ele>279.4</ele>
        <time>2021-10-16T14:07:13Z</time>
      </trkpt>
      <trkpt lat="39.9560080" lon="-6.2865470">
        <ele>279.6</ele>
        <time>2021-10-16T14:07:16Z</time>
      </trkpt>
      <trkpt lat="39.9559650" lon="-6.2865510">
        <ele>279.8</ele>
        <time>2021-10-16T14:07:18Z</time>
      </trkpt>
      <trkpt lat="39.9559460" lon="-6.2865520">
        <ele>280.0</ele>
        <time>2021-10-16T14:07:19Z</time>
      </trkpt>
      <trkpt lat="39.9558380" lon="-6.2865630">
        <ele>280.6</ele>
        <time>2021-10-16T14:07:24Z</time>
      </trkpt>
      <trkpt lat="39.9558130" lon="-6.2865640">
        <ele>280.6</ele>
        <time>2021-10-16T14:07:25Z</time>
      </trkpt>
      <trkpt lat="39.9557320" lon="-6.2865810">
        <ele>280.8</ele>
        <time>2021-10-16T14:07:28Z</time>
      </trkpt>
      <trkpt lat="39.9556390" lon="-6.2865980">
        <ele>281.0</ele>
        <time>2021-10-16T14:07:31Z</time>
      </trkpt>
      <trkpt lat="39.9553580" lon="-6.2866350">
        <ele>281.2</ele>
        <time>2021-10-16T14:07:39Z</time>
      </trkpt>
      <trkpt lat="39.9551980" lon="-6.2866650">
        <ele>281.0</ele>
        <time>2021-10-16T14:07:43Z</time>
      </trkpt>
      <trkpt lat="39.9550800" lon="-6.2866970">
        <ele>281.0</ele>
        <time>2021-10-16T14:07:46Z</time>
      </trkpt>
      <trkpt lat="39.9548750" lon="-6.2867860">
        <ele>281.0</ele>
        <time>2021-10-16T14:07:51Z</time>
      </trkpt>
      <trkpt lat="39.9547940" lon="-6.2868370">
        <ele>280.8</ele>
        <time>2021-10-16T14:07:53Z</time>
      </trkpt>
      <trkpt lat="39.9546580" lon="-6.2869980">
        <ele>280.8</ele>
        <time>2021-10-16T14:07:57Z</time>
      </trkpt>
      <trkpt lat="39.9546320" lon="-6.2870470">
        <ele>280.8</ele>
        <time>2021-10-16T14:07:58Z</time>
      </trkpt>
      <trkpt lat="39.9545340" lon="-6.2873240">
        <ele>280.4</ele>
        <time>2021-10-16T14:08:03Z</time>
      </trkpt>
      <trkpt lat="39.9545090" lon="-6.2874440">
        <ele>280.2</ele>
        <time>2021-10-16T14:08:05Z</time>
      </trkpt>
      <trkpt lat="39.9544650" lon="-6.2876890">
        <ele>280.0</ele>
        <time>2021-10-16T14:08:09Z</time>
      </trkpt>
      <trkpt lat="39.9544210" lon="-6.2880050">
        <ele>279.8</ele>
        <time>2021-10-16T14:08:14Z</time>
      </trkpt>
      <trkpt lat="39.9543910" lon="-6.2882490">
        <ele>279.2</ele>
        <time>2021-10-16T14:08:18Z</time>
      </trkpt>
      <trkpt lat="39.9543830" lon="-6.2883090">
        <ele>279.0</ele>
        <time>2021-10-16T14:08:19Z</time>
      </trkpt>
      <trkpt lat="39.9543420" lon="-6.2886070">
        <ele>278.8</ele>
        <time>2021-10-16T14:08:24Z</time>
      </trkpt>
      <trkpt lat="39.9543290" lon="-6.2887270">
        <ele>278.8</ele>
        <time>2021-10-16T14:08:26Z</time>
      </trkpt>
      <trkpt lat="39.9542750" lon="-6.2891860">
        <ele>278.2</ele>
        <time>2021-10-16T14:08:33Z</time>
      </trkpt>
      <trkpt lat="39.9542750" lon="-6.2893340">
        <ele>278.0</ele>
        <time>2021-10-16T14:08:35Z</time>
      </trkpt>
      <trkpt lat="39.9542900" lon="-6.2895840">
        <ele>277.6</ele>
        <time>2021-10-16T14:08:38Z</time>
      </trkpt>
      <trkpt lat="39.9543250" lon="-6.2899630">
        <ele>277.0</ele>
        <time>2021-10-16T14:08:42Z</time>
      </trkpt>
      <trkpt lat="39.9543440" lon="-6.2901710">
        <ele>276.2</ele>
        <time>2021-10-16T14:08:44Z</time>
      </trkpt>
      <trkpt lat="39.9543670" lon="-6.2903880">
        <ele>275.2</ele>
        <time>2021-10-16T14:08:46Z</time>
      </trkpt>
      <trkpt lat="39.9544040" lon="-6.2908400">
        <ele>273.8</ele>
        <time>2021-10-16T14:08:50Z</time>
      </trkpt>
      <trkpt lat="39.9544230" lon="-6.2910720">
        <ele>273.2</ele>
        <time>2021-10-16T14:08:52Z</time>
      </trkpt>
      <trkpt lat="39.9544360" lon="-6.2911910">
        <ele>272.4</ele>
        <time>2021-10-16T14:08:53Z</time>
      </trkpt>
      <trkpt lat="39.9544640" lon="-6.2916670">
        <ele>270.8</ele>
        <time>2021-10-16T14:08:57Z</time>
      </trkpt>
      <trkpt lat="39.9544570" lon="-6.2917830">
        <ele>270.6</ele>
        <time>2021-10-16T14:08:58Z</time>
      </trkpt>
      <trkpt lat="39.9543970" lon="-6.2921310">
        <ele>269.6</ele>
        <time>2021-10-16T14:09:01Z</time>
      </trkpt>
      <trkpt lat="39.9543460" lon="-6.2923640">
        <ele>269.2</ele>
        <time>2021-10-16T14:09:03Z</time>
      </trkpt>
      <trkpt lat="39.9543200" lon="-6.2924840">
        <ele>268.6</ele>
        <time>2021-10-16T14:09:04Z</time>
      </trkpt>
      <trkpt lat="39.9542340" lon="-6.2928490">
        <ele>267.2</ele>
        <time>2021-10-16T14:09:07Z</time>
      </trkpt>
      <trkpt lat="39.9541370" lon="-6.2931940">
        <ele>266.0</ele>
        <time>2021-10-16T14:09:10Z</time>
      </trkpt>
      <trkpt lat="39.9540920" lon="-6.2933090">
        <ele>265.6</ele>
        <time>2021-10-16T14:09:11Z</time>
      </trkpt>
      <trkpt lat="39.9539670" lon="-6.2935160">
        <ele>264.6</ele>
        <time>2021-10-16T14:09:13Z</time>
      </trkpt>
      <trkpt lat="39.9538910" lon="-6.2936060">
        <ele>264.2</ele>
        <time>2021-10-16T14:09:14Z</time>
      </trkpt>
      <trkpt lat="39.9538080" lon="-6.2936880">
        <ele>263.4</ele>
        <time>2021-10-16T14:09:15Z</time>
      </trkpt>
      <trkpt lat="39.9536360" lon="-6.2938300">
        <ele>262.2</ele>
        <time>2021-10-16T14:09:17Z</time>
      </trkpt>
      <trkpt lat="39.9535490" lon="-6.2938960">
        <ele>261.8</ele>
        <time>2021-10-16T14:09:18Z</time>
      </trkpt>
      <trkpt lat="39.9533620" lon="-6.2940370">
        <ele>260.8</ele>
        <time>2021-10-16T14:09:20Z</time>
      </trkpt>
      <trkpt lat="39.9531980" lon="-6.2941630">
        <ele>259.8</ele>
        <time>2021-10-16T14:09:22Z</time>
      </trkpt>
      <trkpt lat="39.9529500" lon="-6.2943500">
        <ele>258.6</ele>
        <time>2021-10-16T14:09:25Z</time>
      </trkpt>
      <trkpt lat="39.9528700" lon="-6.2944100">
        <ele>258.0</ele>
        <time>2021-10-16T14:09:26Z</time>
      </trkpt>
      <trkpt lat="39.9527110" lon="-6.2945300">
        <ele>257.6</ele>
        <time>2021-10-16T14:09:28Z</time>
      </trkpt>
      <trkpt lat="39.9523370" lon="-6.2948090">
        <ele>256.6</ele>
        <time>2021-10-16T14:09:33Z</time>
      </trkpt>
      <trkpt lat="39.9522680" lon="-6.2948610">
        <ele>256.4</ele>
        <time>2021-10-16T14:09:34Z</time>
      </trkpt>
      <trkpt lat="39.9518230" lon="-6.2951940">
        <ele>255.6</ele>
        <time>2021-10-16T14:09:41Z</time>
      </trkpt>
      <trkpt lat="39.9517630" lon="-6.2952400">
        <ele>255.6</ele>
        <time>2021-10-16T14:09:42Z</time>
      </trkpt>
      <trkpt lat="39.9514130" lon="-6.2955010">
        <ele>255.4</ele>
        <time>2021-10-16T14:09:48Z</time>
      </trkpt>
      <trkpt lat="39.9513560" lon="-6.2955410">
        <ele>255.4</ele>
        <time>2021-10-16T14:09:49Z</time>
      </trkpt>
      <trkpt lat="39.9509670" lon="-6.2958310">
        <ele>255.2</ele>
        <time>2021-10-16T14:09:56Z</time>
      </trkpt>
      <trkpt lat="39.9508110" lon="-6.2959520">
        <ele>255.2</ele>
        <time>2021-10-16T14:09:59Z</time>
      </trkpt>
      <trkpt lat="39.9503030" lon="-6.2963350">
        <ele>255.2</ele>
        <time>2021-10-16T14:10:09Z</time>
      </trkpt>
      <trkpt lat="39.9498200" lon="-6.2966880">
        <ele>255.4</ele>
        <time>2021-10-16T14:10:19Z</time>
      </trkpt>
      <trkpt lat="39.9496820" lon="-6.2967950">
        <ele>255.4</ele>
        <time>2021-10-16T14:10:22Z</time>
      </trkpt>
      <trkpt lat="39.9495110" lon="-6.2969290">
        <ele>255.6</ele>
        <time>2021-10-16T14:10:26Z</time>
      </trkpt>
      <trkpt lat="39.9493340" lon="-6.2970850">
        <ele>255.6</ele>
        <time>2021-10-16T14:10:30Z</time>
      </trkpt>
      <trkpt lat="39.9490720" lon="-6.2973910">
        <ele>255.8</ele>
        <time>2021-10-16T14:10:37Z</time>
      </trkpt>
      <trkpt lat="39.9488650" lon="-6.2977990">
        <ele>255.8</ele>
        <time>2021-10-16T14:10:44Z</time>
      </trkpt>
      <trkpt lat="39.9486750" lon="-6.2983940">
        <ele>255.6</ele>
        <time>2021-10-16T14:10:53Z</time>
      </trkpt>
      <trkpt lat="39.9484750" lon="-6.2990710">
        <ele>255.4</ele>
        <time>2021-10-16T14:11:03Z</time>
      </trkpt>
      <trkpt lat="39.9484320" lon="-6.2992170">
        <ele>255.2</ele>
        <time>2021-10-16T14:11:05Z</time>
      </trkpt>
      <trkpt lat="39.9484120" lon="-6.2992840">
        <ele>255.2</ele>
        <time>2021-10-16T14:11:06Z</time>
      </trkpt>
      <trkpt lat="39.9482130" lon="-6.2999600">
        <ele>255.4</ele>
        <time>2021-10-16T14:11:16Z</time>
      </trkpt>
      <trkpt lat="39.9481720" lon="-6.3000940">
        <ele>255.4</ele>
        <time>2021-10-16T14:11:18Z</time>
      </trkpt>
      <trkpt lat="39.9479720" lon="-6.3007700">
        <ele>255.2</ele>
        <time>2021-10-16T14:11:28Z</time>
      </trkpt>
      <trkpt lat="39.9477630" lon="-6.3014620">
        <ele>255.0</ele>
        <time>2021-10-16T14:11:38Z</time>
      </trkpt>
      <trkpt lat="39.9477450" lon="-6.3015310">
        <ele>255.0</ele>
        <time>2021-10-16T14:11:39Z</time>
      </trkpt>
      <trkpt lat="39.9475660" lon="-6.3021540">
        <ele>254.8</ele>
        <time>2021-10-16T14:11:48Z</time>
      </trkpt>
      <trkpt lat="39.9475250" lon="-6.3022920">
        <ele>254.8</ele>
        <time>2021-10-16T14:11:50Z</time>
      </trkpt>
      <trkpt lat="39.9473320" lon="-6.3029360">
        <ele>254.6</ele>
        <time>2021-10-16T14:12:00Z</time>
      </trkpt>
      <trkpt lat="39.9471210" lon="-6.3036480">
        <ele>254.8</ele>
        <time>2021-10-16T14:12:11Z</time>
      </trkpt>
      <trkpt lat="39.9469900" lon="-6.3040710">
        <ele>255.0</ele>
        <time>2021-10-16T14:12:18Z</time>
      </trkpt>
      <trkpt lat="39.9469730" lon="-6.3041310">
        <ele>255.0</ele>
        <time>2021-10-16T14:12:19Z</time>
      </trkpt>
      <trkpt lat="39.9467880" lon="-6.3047650">
        <ele>255.2</ele>
        <time>2021-10-16T14:12:30Z</time>
      </trkpt>
      <trkpt lat="39.9466350" lon="-6.3052910">
        <ele>255.4</ele>
        <time>2021-10-16T14:12:39Z</time>
      </trkpt>
      <trkpt lat="39.9464750" lon="-6.3058420">
        <ele>256.0</ele>
        <time>2021-10-16T14:12:49Z</time>
      </trkpt>
      <trkpt lat="39.9464600" lon="-6.3058860">
        <ele>256.0</ele>
        <time>2021-10-16T14:12:50Z</time>
      </trkpt>
      <trkpt lat="39.9464320" lon="-6.3059700">
        <ele>256.2</ele>
        <time>2021-10-16T14:12:52Z</time>
      </trkpt>
      <trkpt lat="39.9464010" lon="-6.3060960">
        <ele>256.6</ele>
        <time>2021-10-16T14:12:55Z</time>
      </trkpt>
      <trkpt lat="39.9463690" lon="-6.3062040">
        <ele>257.2</ele>
        <time>2021-10-16T14:12:58Z</time>
      </trkpt>
      <trkpt lat="39.9463350" lon="-6.3063010">
        <ele>257.6</ele>
        <time>2021-10-16T14:13:01Z</time>
      </trkpt>
      <trkpt lat="39.9463180" lon="-6.3063670">
        <ele>258.2</ele>
        <time>2021-10-16T14:13:03Z</time>
      </trkpt>
      <trkpt lat="39.9462520" lon="-6.3065830">
        <ele>259.0</ele>
        <time>2021-10-16T14:13:10Z</time>
      </trkpt>
      <trkpt lat="39.9462340" lon="-6.3066420">
        <ele>259.2</ele>
        <time>2021-10-16T14:13:12Z</time>
      </trkpt>
      <trkpt lat="39.9461270" lon="-6.3068520">
        <ele>260.2</ele>
        <time>2021-10-16T14:13:20Z</time>
      </trkpt>
      <trkpt lat="39.9461130" lon="-6.3068760">
        <ele>260.4</ele>
        <time>2021-10-16T14:13:21Z</time>
      </trkpt>
      <trkpt lat="39.9459900" lon="-6.3070270">
        <ele>261.2</ele>
        <time>2021-10-16T14:13:28Z</time>
      </trkpt>
      <trkpt lat="39.9459110" lon="-6.3071090">
        <ele>261.8</ele>
        <time>2021-10-16T14:13:32Z</time>
      </trkpt>
      <trkpt lat="39.9458890" lon="-6.3071290">
        <ele>262.0</ele>
        <time>2021-10-16T14:13:33Z</time>
      </trkpt>
      <trkpt lat="39.9458460" lon="-6.3071730">
        <ele>262.2</ele>
        <time>2021-10-16T14:13:35Z</time>
      </trkpt>
      <trkpt lat="39.9457220" lon="-6.3072980">
        <ele>262.8</ele>
        <time>2021-10-16T14:13:41Z</time>
      </trkpt>
      <trkpt lat="39.9456660" lon="-6.3073630">
        <ele>263.2</ele>
        <time>2021-10-16T14:13:44Z</time>
      </trkpt>
      <trkpt lat="39.9455320" lon="-6.3075200">
        <ele>263.8</ele>
        <time>2021-10-16T14:13:51Z</time>
      </trkpt>
      <trkpt lat="39.9455170" lon="-6.3075480">
        <ele>264.0</ele>
        <time>2021-10-16T14:13:52Z</time>
      </trkpt>
      <trkpt lat="39.9454500" lon="-6.3076460">
        <ele>264.6</ele>
        <time>2021-10-16T14:13:56Z</time>
      </trkpt>
      <trkpt lat="39.9454240" lon="-6.3077040">
        <ele>264.8</ele>
        <time>2021-10-16T14:13:58Z</time>
      </trkpt>
      <trkpt lat="39.9453930" lon="-6.3077650">
        <ele>265.0</ele>
        <time>2021-10-16T14:14:00Z</time>
      </trkpt>
      <trkpt lat="39.9452750" lon="-6.3078980">
        <ele>265.2</ele>
        <time>2021-10-16T14:14:05Z</time>
      </trkpt>
      <trkpt lat="39.9451710" lon="-6.3080100">
        <ele>265.4</ele>
        <time>2021-10-16T14:14:10Z</time>
      </trkpt>
      <trkpt lat="39.9450950" lon="-6.3080640">
        <ele>265.6</ele>
        <time>2021-10-16T14:14:14Z</time>
      </trkpt>
      <trkpt lat="39.9450310" lon="-6.3081100">
        <ele>265.6</ele>
        <time>2021-10-16T14:14:17Z</time>
      </trkpt>
      <trkpt lat="39.9449740" lon="-6.3081490">
        <ele>265.8</ele>
        <time>2021-10-16T14:14:20Z</time>
      </trkpt>
      <trkpt lat="39.9449160" lon="-6.3082050">
        <ele>265.8</ele>
        <time>2021-10-16T14:14:23Z</time>
      </trkpt>
      <trkpt lat="39.9448570" lon="-6.3082530">
        <ele>265.8</ele>
        <time>2021-10-16T14:14:26Z</time>
      </trkpt>
      <trkpt lat="39.9448160" lon="-6.3082650">
        <ele>265.8</ele>
        <time>2021-10-16T14:14:28Z</time>
      </trkpt>
      <trkpt lat="39.9447820" lon="-6.3083070">
        <ele>265.8</ele>
        <time>2021-10-16T14:14:30Z</time>
      </trkpt>
      <trkpt lat="39.9446670" lon="-6.3084170">
        <ele>265.8</ele>
        <time>2021-10-16T14:14:35Z</time>
      </trkpt>
      <trkpt lat="39.9444420" lon="-6.3086030">
        <ele>265.8</ele>
        <time>2021-10-16T14:14:43Z</time>
      </trkpt>
      <trkpt lat="39.9442610" lon="-6.3087410">
        <ele>266.0</ele>
        <time>2021-10-16T14:14:49Z</time>
      </trkpt>
      <trkpt lat="39.9441560" lon="-6.3088280">
        <ele>265.8</ele>
        <time>2021-10-16T14:14:53Z</time>
      </trkpt>
      <trkpt lat="39.9439260" lon="-6.3090110">
        <ele>265.8</ele>
        <time>2021-10-16T14:15:01Z</time>
      </trkpt>
      <trkpt lat="39.9437330" lon="-6.3091620">
        <ele>265.8</ele>
        <time>2021-10-16T14:15:07Z</time>
      </trkpt>
      <trkpt lat="39.9436920" lon="-6.3091930">
        <ele>266.0</ele>
        <time>2021-10-16T14:15:08Z</time>
      </trkpt>
      <trkpt lat="39.9435960" lon="-6.3092700">
        <ele>266.0</ele>
        <time>2021-10-16T14:15:11Z</time>
      </trkpt>
      <trkpt lat="39.9434330" lon="-6.3093900">
        <ele>266.0</ele>
        <time>2021-10-16T14:15:16Z</time>
      </trkpt>
      <trkpt lat="39.9431420" lon="-6.3096260">
        <ele>266.2</ele>
        <time>2021-10-16T14:15:25Z</time>
      </trkpt>
      <trkpt lat="39.9430710" lon="-6.3096810">
        <ele>266.2</ele>
        <time>2021-10-16T14:15:27Z</time>
      </trkpt>
      <trkpt lat="39.9428170" lon="-6.3098600">
        <ele>266.2</ele>
        <time>2021-10-16T14:15:34Z</time>
      </trkpt>
      <trkpt lat="39.9425050" lon="-6.3100990">
        <ele>266.2</ele>
        <time>2021-10-16T14:15:42Z</time>
      </trkpt>
      <trkpt lat="39.9423170" lon="-6.3102440">
        <ele>266.2</ele>
        <time>2021-10-16T14:15:47Z</time>
      </trkpt>
      <trkpt lat="39.9422010" lon="-6.3103220">
        <ele>266.2</ele>
        <time>2021-10-16T14:15:50Z</time>
      </trkpt>
      <trkpt lat="39.9418590" lon="-6.3105420">
        <ele>266.6</ele>
        <time>2021-10-16T14:16:00Z</time>
      </trkpt>
      <trkpt lat="39.9416980" lon="-6.3106430">
        <ele>267.4</ele>
        <time>2021-10-16T14:16:05Z</time>
      </trkpt>
      <trkpt lat="39.9414930" lon="-6.3107590">
        <ele>267.6</ele>
        <time>2021-10-16T14:16:11Z</time>
      </trkpt>
      <trkpt lat="39.9412020" lon="-6.3108830">
        <ele>268.0</ele>
        <time>2021-10-16T14:16:19Z</time>
      </trkpt>
      <trkpt lat="39.9409450" lon="-6.3109930">
        <ele>268.2</ele>
        <time>2021-10-16T14:16:26Z</time>
      </trkpt>
      <trkpt lat="39.9408350" lon="-6.3110410">
        <ele>268.4</ele>
        <time>2021-10-16T14:16:29Z</time>
      </trkpt>
      <trkpt lat="39.9406520" lon="-6.3111160">
        <ele>268.8</ele>
        <time>2021-10-16T14:16:34Z</time>
      </trkpt>
      <trkpt lat="39.9403670" lon="-6.3112430">
        <ele>269.2</ele>
        <time>2021-10-16T14:16:43Z</time>
      </trkpt>
      <trkpt lat="39.9402670" lon="-6.3112830">
        <ele>269.4</ele>
        <time>2021-10-16T14:16:46Z</time>
      </trkpt>
      <trkpt lat="39.9402330" lon="-6.3112970">
        <ele>269.4</ele>
        <time>2021-10-16T14:16:47Z</time>
      </trkpt>
      <trkpt lat="39.9400630" lon="-6.3113700">
        <ele>269.8</ele>
        <time>2021-10-16T14:16:52Z</time>
      </trkpt>
      <trkpt lat="39.9399090" lon="-6.3114280">
        <ele>270.0</ele>
        <time>2021-10-16T14:16:56Z</time>
      </trkpt>
      <trkpt lat="39.9397020" lon="-6.3115140">
        <ele>270.4</ele>
        <time>2021-10-16T14:17:02Z</time>
      </trkpt>
      <trkpt lat="39.9394650" lon="-6.3116100">
        <ele>270.6</ele>
        <time>2021-10-16T14:17:09Z</time>
      </trkpt>
      <trkpt lat="39.9393940" lon="-6.3116370">
        <ele>270.6</ele>
        <time>2021-10-16T14:17:11Z</time>
      </trkpt>
      <trkpt lat="39.9392510" lon="-6.3116930">
        <ele>270.8</ele>
        <time>2021-10-16T14:17:15Z</time>
      </trkpt>
      <trkpt lat="39.9391470" lon="-6.3117330">
        <ele>271.0</ele>
        <time>2021-10-16T14:17:18Z</time>
      </trkpt>
      <trkpt lat="39.9390120" lon="-6.3117900">
        <ele>271.2</ele>
        <time>2021-10-16T14:17:22Z</time>
      </trkpt>
      <trkpt lat="39.9388130" lon="-6.3118760">
        <ele>271.6</ele>
        <time>2021-10-16T14:17:28Z</time>
      </trkpt>
      <trkpt lat="39.9387100" lon="-6.3119210">
        <ele>271.8</ele>
        <time>2021-10-16T14:17:31Z</time>
      </trkpt>
      <trkpt lat="39.9384540" lon="-6.3120230">
        <ele>272.4</ele>
        <time>2021-10-16T14:17:39Z</time>
      </trkpt>
      <trkpt lat="39.9383940" lon="-6.3120440">
        <ele>272.6</ele>
        <time>2021-10-16T14:17:41Z</time>
      </trkpt>
      <trkpt lat="39.9381850" lon="-6.3121190">
        <ele>273.4</ele>
        <time>2021-10-16T14:17:48Z</time>
      </trkpt>
      <trkpt lat="39.9380830" lon="-6.3121680">
        <ele>273.6</ele>
        <time>2021-10-16T14:17:52Z</time>
      </trkpt>
      <trkpt lat="39.9380300" lon="-6.3121910">
        <ele>273.8</ele>
        <time>2021-10-16T14:17:54Z</time>
      </trkpt>
      <trkpt lat="39.9379740" lon="-6.3122120">
        <ele>273.8</ele>
        <time>2021-10-16T14:17:56Z</time>
      </trkpt>
      <trkpt lat="39.9377190" lon="-6.3123190">
        <ele>274.0</ele>
        <time>2021-10-16T14:18:04Z</time>
      </trkpt>
      <trkpt lat="39.9374400" lon="-6.3124260">
        <ele>274.2</ele>
        <time>2021-10-16T14:18:12Z</time>
      </trkpt>
      <trkpt lat="39.9371900" lon="-6.3125180">
        <ele>274.0</ele>
        <time>2021-10-16T14:18:19Z</time>
      </trkpt>
      <trkpt lat="39.9371510" lon="-6.3125330">
        <ele>274.0</ele>
        <time>2021-10-16T14:18:20Z</time>
      </trkpt>
      <trkpt lat="39.9368000" lon="-6.3126630">
        <ele>273.8</ele>
        <time>2021-10-16T14:18:28Z</time>
      </trkpt>
      <trkpt lat="39.9363530" lon="-6.3128250">
        <ele>273.4</ele>
        <time>2021-10-16T14:18:38Z</time>
      </trkpt>
      <trkpt lat="39.9361910" lon="-6.3128830">
        <ele>273.4</ele>
        <time>2021-10-16T14:18:42Z</time>
      </trkpt>
      <trkpt lat="39.9360170" lon="-6.3129510">
        <ele>273.6</ele>
        <time>2021-10-16T14:18:46Z</time>
      </trkpt>
      <trkpt lat="39.9359250" lon="-6.3129820">
        <ele>273.6</ele>
        <time>2021-10-16T14:18:48Z</time>
      </trkpt>
      <trkpt lat="39.9357460" lon="-6.3130440">
        <ele>273.4</ele>
        <time>2021-10-16T14:18:52Z</time>
      </trkpt>
      <trkpt lat="39.9355780" lon="-6.3131140">
        <ele>273.4</ele>
        <time>2021-10-16T14:18:56Z</time>
      </trkpt>
      <trkpt lat="39.9352490" lon="-6.3132490">
        <ele>273.2</ele>
        <time>2021-10-16T14:19:04Z</time>
      </trkpt>
      <trkpt lat="39.9350420" lon="-6.3133390">
        <ele>273.4</ele>
        <time>2021-10-16T14:19:09Z</time>
      </trkpt>
      <trkpt lat="39.9348930" lon="-6.3134100">
        <ele>273.4</ele>
        <time>2021-10-16T14:19:13Z</time>
      </trkpt>
      <trkpt lat="39.9347420" lon="-6.3134870">
        <ele>273.6</ele>
        <time>2021-10-16T14:19:17Z</time>
      </trkpt>
      <trkpt lat="39.9345490" lon="-6.3135800">
        <ele>273.4</ele>
        <time>2021-10-16T14:19:22Z</time>
      </trkpt>
      <trkpt lat="39.9343940" lon="-6.3136640">
        <ele>273.4</ele>
        <time>2021-10-16T14:19:26Z</time>
      </trkpt>
      <trkpt lat="39.9340980" lon="-6.3138110">
        <ele>272.8</ele>
        <time>2021-10-16T14:19:33Z</time>
      </trkpt>
      <trkpt lat="39.9340540" lon="-6.3138320">
        <ele>272.8</ele>
        <time>2021-10-16T14:19:34Z</time>
      </trkpt>
      <trkpt lat="39.9337710" lon="-6.3139740">
        <ele>272.6</ele>
        <time>2021-10-16T14:19:40Z</time>
      </trkpt>
      <trkpt lat="39.9335730" lon="-6.3140730">
        <ele>272.2</ele>
        <time>2021-10-16T14:19:44Z</time>
      </trkpt>
      <trkpt lat="39.9334240" lon="-6.3141410">
        <ele>271.8</ele>
        <time>2021-10-16T14:19:47Z</time>
      </trkpt>
      <trkpt lat="39.9331350" lon="-6.3142920">
        <ele>271.4</ele>
        <time>2021-10-16T14:19:53Z</time>
      </trkpt>
      <trkpt lat="39.9330860" lon="-6.3143200">
        <ele>271.2</ele>
        <time>2021-10-16T14:19:54Z</time>
      </trkpt>
      <trkpt lat="39.9328750" lon="-6.3144790">
        <ele>271.2</ele>
        <time>2021-10-16T14:19:59Z</time>
      </trkpt>
      <trkpt lat="39.9326140" lon="-6.3146810">
        <ele>270.8</ele>
        <time>2021-10-16T14:20:06Z</time>
      </trkpt>
      <trkpt lat="39.9325430" lon="-6.3147390">
        <ele>270.8</ele>
        <time>2021-10-16T14:20:08Z</time>
      </trkpt>
      <trkpt lat="39.9323080" lon="-6.3149200">
        <ele>270.6</ele>
        <time>2021-10-16T14:20:14Z</time>
      </trkpt>
      <trkpt lat="39.9319820" lon="-6.3151680">
        <ele>270.0</ele>
        <time>2021-10-16T14:20:21Z</time>
      </trkpt>
      <trkpt lat="39.9319350" lon="-6.3152040">
        <ele>270.0</ele>
        <time>2021-10-16T14:20:22Z</time>
      </trkpt>
      <trkpt lat="39.9317980" lon="-6.3153090">
        <ele>269.8</ele>
        <time>2021-10-16T14:20:25Z</time>
      </trkpt>
      <trkpt lat="39.9315310" lon="-6.3155140">
        <ele>269.2</ele>
        <time>2021-10-16T14:20:31Z</time>
      </trkpt>
      <trkpt lat="39.9311860" lon="-6.3157760">
        <ele>268.8</ele>
        <time>2021-10-16T14:20:39Z</time>
      </trkpt>
      <trkpt lat="39.9311430" lon="-6.3158110">
        <ele>268.6</ele>
        <time>2021-10-16T14:20:40Z</time>
      </trkpt>
      <trkpt lat="39.9309790" lon="-6.3159300">
        <ele>268.6</ele>
        <time>2021-10-16T14:20:44Z</time>
      </trkpt>
      <trkpt lat="39.9308050" lon="-6.3160640">
        <ele>268.4</ele>
        <time>2021-10-16T14:20:48Z</time>
      </trkpt>
      <trkpt lat="39.9303690" lon="-6.3163920">
        <ele>268.4</ele>
        <time>2021-10-16T14:20:58Z</time>
      </trkpt>
      <trkpt lat="39.9301890" lon="-6.3165310">
        <ele>268.8</ele>
        <time>2021-10-16T14:21:02Z</time>
      </trkpt>
      <trkpt lat="39.9299610" lon="-6.3166880">
        <ele>268.8</ele>
        <time>2021-10-16T14:21:07Z</time>
      </trkpt>
      <trkpt lat="39.9295870" lon="-6.3168900">
        <ele>269.0</ele>
        <time>2021-10-16T14:21:15Z</time>
      </trkpt>
      <trkpt lat="39.9291990" lon="-6.3169500">
        <ele>268.8</ele>
        <time>2021-10-16T14:21:23Z</time>
      </trkpt>
      <trkpt lat="39.9290450" lon="-6.3169490">
        <ele>268.6</ele>
        <time>2021-10-16T14:21:26Z</time>
      </trkpt>
      <trkpt lat="39.9288400" lon="-6.3169580">
        <ele>268.2</ele>
        <time>2021-10-16T14:21:30Z</time>
      </trkpt>
      <trkpt lat="39.9287390" lon="-6.3169640">
        <ele>267.8</ele>
        <time>2021-10-16T14:21:32Z</time>
      </trkpt>
      <trkpt lat="39.9286410" lon="-6.3169720">
        <ele>267.6</ele>
        <time>2021-10-16T14:21:34Z</time>
      </trkpt>
      <trkpt lat="39.9281870" lon="-6.3170370">
        <ele>267.2</ele>
        <time>2021-10-16T14:21:43Z</time>
      </trkpt>
      <trkpt lat="39.9279850" lon="-6.3171100">
        <ele>267.2</ele>
        <time>2021-10-16T14:21:47Z</time>
      </trkpt>
      <trkpt lat="39.9278380" lon="-6.3171940">
        <ele>267.2</ele>
        <time>2021-10-16T14:21:50Z</time>
      </trkpt>
      <trkpt lat="39.9274360" lon="-6.3175010">
        <ele>267.2</ele>
        <time>2021-10-16T14:21:59Z</time>
      </trkpt>
      <trkpt lat="39.9271150" lon="-6.3177590">
        <ele>267.6</ele>
        <time>2021-10-16T14:22:07Z</time>
      </trkpt>
      <trkpt lat="39.9267830" lon="-6.3180370">
        <ele>268.0</ele>
        <time>2021-10-16T14:22:16Z</time>
      </trkpt>
      <trkpt lat="39.9264490" lon="-6.3183340">
        <ele>268.6</ele>
        <time>2021-10-16T14:22:25Z</time>
      </trkpt>
      <trkpt lat="39.9261840" lon="-6.3185620">
        <ele>269.0</ele>
        <time>2021-10-16T14:22:33Z</time>
      </trkpt>
      <trkpt lat="39.9261330" lon="-6.3185990">
        <ele>269.2</ele>
        <time>2021-10-16T14:22:35Z</time>
      </trkpt>
      <trkpt lat="39.9260850" lon="-6.3186310">
        <ele>269.2</ele>
        <time>2021-10-16T14:22:37Z</time>
      </trkpt>
      <trkpt lat="39.9259780" lon="-6.3187510">
        <ele>269.6</ele>
        <time>2021-10-16T14:22:42Z</time>
      </trkpt>
      <trkpt lat="39.9258080" lon="-6.3188980">
        <ele>270.0</ele>
        <time>2021-10-16T14:22:50Z</time>
      </trkpt>
      <trkpt lat="39.9257610" lon="-6.3188970">
        <ele>270.0</ele>
        <time>2021-10-16T14:22:53Z</time>
      </trkpt>
      <trkpt lat="39.9257310" lon="-6.3188700">
        <ele>270.0</ele>
        <time>2021-10-16T14:22:55Z</time>
      </trkpt>
      <trkpt lat="39.9255950" lon="-6.3187190">
        <ele>270.0</ele>
        <time>2021-10-16T14:23:01Z</time>
      </trkpt>
      <trkpt lat="39.9254030" lon="-6.3184700">
        <ele>269.4</ele>
        <time>2021-10-16T14:23:09Z</time>
      </trkpt>
      <trkpt lat="39.9251520" lon="-6.3181220">
        <ele>269.4</ele>
        <time>2021-10-16T14:23:20Z</time>
      </trkpt>
      <trkpt lat="39.9249660" lon="-6.3178700">
        <ele>269.8</ele>
        <time>2021-10-16T14:23:28Z</time>
      </trkpt>
      <trkpt lat="39.9248770" lon="-6.3177560">
        <ele>270.2</ele>
        <time>2021-10-16T14:23:32Z</time>
      </trkpt>
      <trkpt lat="39.9247440" lon="-6.3175900">
        <ele>270.6</ele>
        <time>2021-10-16T14:23:38Z</time>
      </trkpt>
      <trkpt lat="39.9246210" lon="-6.3174220">
        <ele>271.0</ele>
        <time>2021-10-16T14:23:45Z</time>
      </trkpt>
      <trkpt lat="39.9246020" lon="-6.3173950">
        <ele>271.2</ele>
        <time>2021-10-16T14:23:46Z</time>
      </trkpt>
      <trkpt lat="39.9245520" lon="-6.3173160">
        <ele>271.2</ele>
        <time>2021-10-16T14:23:49Z</time>
      </trkpt>
      <trkpt lat="39.9244490" lon="-6.3171640">
        <ele>271.2</ele>
        <time>2021-10-16T14:23:56Z</time>
      </trkpt>
      <trkpt lat="39.9243820" lon="-6.3170390">
        <ele>271.4</ele>
        <time>2021-10-16T14:24:01Z</time>
      </trkpt>
      <trkpt lat="39.9242350" lon="-6.3168520">
        <ele>271.4</ele>
        <time>2021-10-16T14:24:08Z</time>
      </trkpt>
      <trkpt lat="39.9241960" lon="-6.3167890">
        <ele>271.4</ele>
        <time>2021-10-16T14:24:10Z</time>
      </trkpt>
      <trkpt lat="39.9240220" lon="-6.3165180">
        <ele>271.8</ele>
        <time>2021-10-16T14:24:19Z</time>
      </trkpt>
      <trkpt lat="39.9239560" lon="-6.3164100">
        <ele>272.0</ele>
        <time>2021-10-16T14:24:22Z</time>
      </trkpt>
      <trkpt lat="39.9238680" lon="-6.3162590">
        <ele>272.2</ele>
        <time>2021-10-16T14:24:26Z</time>
      </trkpt>
      <trkpt lat="39.9238460" lon="-6.3162210">
        <ele>272.2</ele>
        <time>2021-10-16T14:24:27Z</time>
      </trkpt>
      <trkpt lat="39.9237510" lon="-6.3160800">
        <ele>272.2</ele>
        <time>2021-10-16T14:24:31Z</time>
      </trkpt>
      <trkpt lat="39.9237280" lon="-6.3160420">
        <ele>272.4</ele>
        <time>2021-10-16T14:24:33Z</time>
      </trkpt>
      <trkpt lat="39.9236870" lon="-6.3159800">
        <ele>272.4</ele>
        <time>2021-10-16T14:24:34Z</time>
      </trkpt>
      <trkpt lat="39.9235510" lon="-6.3157610">
        <ele>272.6</ele>
        <time>2021-10-16T14:24:40Z</time>
      </trkpt>
      <trkpt lat="39.9234610" lon="-6.3155950">
        <ele>272.8</ele>
        <time>2021-10-16T14:24:45Z</time>
      </trkpt>
      <trkpt lat="39.9233110" lon="-6.3153250">
        <ele>273.0</ele>
        <time>2021-10-16T14:24:53Z</time>
      </trkpt>
      <trkpt lat="39.9232940" lon="-6.3152870">
        <ele>273.2</ele>
        <time>2021-10-16T14:24:54Z</time>
      </trkpt>
      <trkpt lat="39.9231760" lon="-6.3150480">
        <ele>273.2</ele>
        <time>2021-10-16T14:25:00Z</time>
      </trkpt>
      <trkpt lat="39.9231200" lon="-6.3149330">
        <ele>273.4</ele>
        <time>2021-10-16T14:25:03Z</time>
      </trkpt>
      <trkpt lat="39.9231000" lon="-6.3148930">
        <ele>273.4</ele>
        <time>2021-10-16T14:25:04Z</time>
      </trkpt>
      <trkpt lat="39.9229920" lon="-6.3146910">
        <ele>273.4</ele>
        <time>2021-10-16T14:25:09Z</time>
      </trkpt>
      <trkpt lat="39.9227740" lon="-6.3142570">
        <ele>273.8</ele>
        <time>2021-10-16T14:25:20Z</time>
      </trkpt>
      <trkpt lat="39.9226090" lon="-6.3139470">
        <ele>273.8</ele>
        <time>2021-10-16T14:25:28Z</time>
      </trkpt>
      <trkpt lat="39.9224950" lon="-6.3137200">
        <ele>273.6</ele>
        <time>2021-10-16T14:25:34Z</time>
      </trkpt>
      <trkpt lat="39.9224020" lon="-6.3135560">
        <ele>273.8</ele>
        <time>2021-10-16T14:25:38Z</time>
      </trkpt>
      <trkpt lat="39.9222090" lon="-6.3131730">
        <ele>273.8</ele>
        <time>2021-10-16T14:25:47Z</time>
      </trkpt>
      <trkpt lat="39.9221180" lon="-6.3129740">
        <ele>273.6</ele>
        <time>2021-10-16T14:25:52Z</time>
      </trkpt>
      <trkpt lat="39.9220540" lon="-6.3128480">
        <ele>273.6</ele>
        <time>2021-10-16T14:25:55Z</time>
      </trkpt>
      <trkpt lat="39.9220330" lon="-6.3128080">
        <ele>273.6</ele>
        <time>2021-10-16T14:25:56Z</time>
      </trkpt>
      <trkpt lat="39.9219370" lon="-6.3126350">
        <ele>273.6</ele>
        <time>2021-10-16T14:26:00Z</time>
      </trkpt>
      <trkpt lat="39.9218340" lon="-6.3124380">
        <ele>273.6</ele>
        <time>2021-10-16T14:26:05Z</time>
      </trkpt>
      <trkpt lat="39.9217420" lon="-6.3122830">
        <ele>273.6</ele>
        <time>2021-10-16T14:26:10Z</time>
      </trkpt>
      <trkpt lat="39.9215440" lon="-6.3119760">
        <ele>273.8</ele>
        <time>2021-10-16T14:26:19Z</time>
      </trkpt>
      <trkpt lat="39.9213990" lon="-6.3117430">
        <ele>274.0</ele>
        <time>2021-10-16T14:26:26Z</time>
      </trkpt>
      <trkpt lat="39.9212300" lon="-6.3113720">
        <ele>274.4</ele>
        <time>2021-10-16T14:26:35Z</time>
      </trkpt>
      <trkpt lat="39.9211060" lon="-6.3110180">
        <ele>274.6</ele>
        <time>2021-10-16T14:26:43Z</time>
      </trkpt>
      <trkpt lat="39.9209870" lon="-6.3106330">
        <ele>275.2</ele>
        <time>2021-10-16T14:26:52Z</time>
      </trkpt>
      <trkpt lat="39.9209200" lon="-6.3103340">
        <ele>275.4</ele>
        <time>2021-10-16T14:26:59Z</time>
      </trkpt>
      <trkpt lat="39.9208640" lon="-6.3101220">
        <ele>275.6</ele>
        <time>2021-10-16T14:27:04Z</time>
      </trkpt>
      <trkpt lat="39.9208310" lon="-6.3099970">
        <ele>275.6</ele>
        <time>2021-10-16T14:27:07Z</time>
      </trkpt>
      <trkpt lat="39.9207800" lon="-6.3098380">
        <ele>275.6</ele>
        <time>2021-10-16T14:27:11Z</time>
      </trkpt>
      <trkpt lat="39.9207670" lon="-6.3098000">
        <ele>275.6</ele>
        <time>2021-10-16T14:27:12Z</time>
      </trkpt>
      <trkpt lat="39.9206300" lon="-6.3096250">
        <ele>275.6</ele>
        <time>2021-10-16T14:27:18Z</time>
      </trkpt>
      <trkpt lat="39.9205200" lon="-6.3095860">
        <ele>275.4</ele>
        <time>2021-10-16T14:27:22Z</time>
      </trkpt>
      <trkpt lat="39.9204650" lon="-6.3095770">
        <ele>275.6</ele>
        <time>2021-10-16T14:27:24Z</time>
      </trkpt>
      <trkpt lat="39.9204150" lon="-6.3095880">
        <ele>275.6</ele>
        <time>2021-10-16T14:27:26Z</time>
      </trkpt>
      <trkpt lat="39.9203320" lon="-6.3096290">
        <ele>275.8</ele>
        <time>2021-10-16T14:27:30Z</time>
      </trkpt>
      <trkpt lat="39.9202930" lon="-6.3096390">
        <ele>276.0</ele>
        <time>2021-10-16T14:27:33Z</time>
      </trkpt>
      <trkpt lat="39.9202600" lon="-6.3096230">
        <ele>276.0</ele>
        <time>2021-10-16T14:27:35Z</time>
      </trkpt>
      <trkpt lat="39.9202280" lon="-6.3095960">
        <ele>276.0</ele>
        <time>2021-10-16T14:27:37Z</time>
      </trkpt>
      <trkpt lat="39.9202160" lon="-6.3095450">
        <ele>276.2</ele>
        <time>2021-10-16T14:27:39Z</time>
      </trkpt>
      <trkpt lat="39.9201800" lon="-6.3094270">
        <ele>276.4</ele>
        <time>2021-10-16T14:27:43Z</time>
      </trkpt>
      <trkpt lat="39.9201360" lon="-6.3093160">
        <ele>276.6</ele>
        <time>2021-10-16T14:27:47Z</time>
      </trkpt>
      <trkpt lat="39.9201050" lon="-6.3092520">
        <ele>276.6</ele>
        <time>2021-10-16T14:27:50Z</time>
      </trkpt>
      <trkpt lat="39.9200890" lon="-6.3092060">
        <ele>276.8</ele>
        <time>2021-10-16T14:27:53Z</time>
      </trkpt>
      <trkpt lat="39.9200860" lon="-6.3092030">
        <ele>276.8</ele>
        <time>2021-10-16T14:27:56Z</time>
      </trkpt>
      <trkpt lat="39.9200850" lon="-6.3091530">
        <ele>276.8</ele>
        <time>2021-10-16T14:31:10Z</time>
      </trkpt>
      <trkpt lat="39.9200810" lon="-6.3091290">
        <ele>276.8</ele>
        <time>2021-10-16T14:31:11Z</time>
      </trkpt>
      <trkpt lat="39.9200400" lon="-6.3089440">
        <ele>276.6</ele>
        <time>2021-10-16T14:31:17Z</time>
      </trkpt>
      <trkpt lat="39.9200290" lon="-6.3089120">
        <ele>276.6</ele>
        <time>2021-10-16T14:31:18Z</time>
      </trkpt>
      <trkpt lat="39.9199680" lon="-6.3086570">
        <ele>276.6</ele>
        <time>2021-10-16T14:31:25Z</time>
      </trkpt>
      <trkpt lat="39.9199060" lon="-6.3083350">
        <ele>276.6</ele>
        <time>2021-10-16T14:31:33Z</time>
      </trkpt>
      <trkpt lat="39.9198430" lon="-6.3080010">
        <ele>277.0</ele>
        <time>2021-10-16T14:31:41Z</time>
      </trkpt>
      <trkpt lat="39.9197660" lon="-6.3076160">
        <ele>277.4</ele>
        <time>2021-10-16T14:31:50Z</time>
      </trkpt>
      <trkpt lat="39.9197560" lon="-6.3075720">
        <ele>277.4</ele>
        <time>2021-10-16T14:31:51Z</time>
      </trkpt>
      <trkpt lat="39.9196830" lon="-6.3072050">
        <ele>277.6</ele>
        <time>2021-10-16T14:31:59Z</time>
      </trkpt>
      <trkpt lat="39.9196660" lon="-6.3071150">
        <ele>277.6</ele>
        <time>2021-10-16T14:32:01Z</time>
      </trkpt>
      <trkpt lat="39.9196300" lon="-6.3069340">
        <ele>277.6</ele>
        <time>2021-10-16T14:32:05Z</time>
      </trkpt>
      <trkpt lat="39.9196220" lon="-6.3068890">
        <ele>277.8</ele>
        <time>2021-10-16T14:32:06Z</time>
      </trkpt>
      <trkpt lat="39.9195750" lon="-6.3066630">
        <ele>278.0</ele>
        <time>2021-10-16T14:32:11Z</time>
      </trkpt>
      <trkpt lat="39.9194960" lon="-6.3062120">
        <ele>278.8</ele>
        <time>2021-10-16T14:32:21Z</time>
      </trkpt>
      <trkpt lat="39.9194010" lon="-6.3057270">
        <ele>279.6</ele>
        <time>2021-10-16T14:32:32Z</time>
      </trkpt>
      <trkpt lat="39.9193470" lon="-6.3055040">
        <ele>279.8</ele>
        <time>2021-10-16T14:32:37Z</time>
      </trkpt>
      <trkpt lat="39.9193140" lon="-6.3053710">
        <ele>280.0</ele>
        <time>2021-10-16T14:32:40Z</time>
      </trkpt>
      <trkpt lat="39.9192880" lon="-6.3052350">
        <ele>280.2</ele>
        <time>2021-10-16T14:32:43Z</time>
      </trkpt>
      <trkpt lat="39.9192480" lon="-6.3050550">
        <ele>280.2</ele>
        <time>2021-10-16T14:32:47Z</time>
      </trkpt>
      <trkpt lat="39.9191710" lon="-6.3046910">
        <ele>280.6</ele>
        <time>2021-10-16T14:32:55Z</time>
      </trkpt>
      <trkpt lat="39.9191460" lon="-6.3045570">
        <ele>280.8</ele>
        <time>2021-10-16T14:32:58Z</time>
      </trkpt>
      <trkpt lat="39.9191220" lon="-6.3044310">
        <ele>280.8</ele>
        <time>2021-10-16T14:33:01Z</time>
      </trkpt>
      <trkpt lat="39.9191070" lon="-6.3043450">
        <ele>280.8</ele>
        <time>2021-10-16T14:33:03Z</time>
      </trkpt>
      <trkpt lat="39.9190730" lon="-6.3041670">
        <ele>281.0</ele>
        <time>2021-10-16T14:33:07Z</time>
      </trkpt>
      <trkpt lat="39.9190420" lon="-6.3040290">
        <ele>281.0</ele>
        <time>2021-10-16T14:33:10Z</time>
      </trkpt>
      <trkpt lat="39.9189970" lon="-6.3038140">
        <ele>281.2</ele>
        <time>2021-10-16T14:33:15Z</time>
      </trkpt>
      <trkpt lat="39.9189670" lon="-6.3036620">
        <ele>281.2</ele>
        <time>2021-10-16T14:33:18Z</time>
      </trkpt>
      <trkpt lat="39.9189190" lon="-6.3033290">
        <ele>281.4</ele>
        <time>2021-10-16T14:33:25Z</time>
      </trkpt>
      <trkpt lat="39.9189220" lon="-6.3030780">
        <ele>281.4</ele>
        <time>2021-10-16T14:33:30Z</time>
      </trkpt>
      <trkpt lat="39.9189340" lon="-6.3029770">
        <ele>281.4</ele>
        <time>2021-10-16T14:33:32Z</time>
      </trkpt>
      <trkpt lat="39.9189930" lon="-6.3026360">
        <ele>281.6</ele>
        <time>2021-10-16T14:33:40Z</time>
      </trkpt>
      <trkpt lat="39.9190470" lon="-6.3023400">
        <ele>281.8</ele>
        <time>2021-10-16T14:33:47Z</time>
      </trkpt>
      <trkpt lat="39.9191200" lon="-6.3019230">
        <ele>281.8</ele>
        <time>2021-10-16T14:33:56Z</time>
      </trkpt>
      <trkpt lat="39.9191600" lon="-6.3016760">
        <ele>281.6</ele>
        <time>2021-10-16T14:34:01Z</time>
      </trkpt>
      <trkpt lat="39.9191730" lon="-6.3016290">
        <ele>281.6</ele>
        <time>2021-10-16T14:34:03Z</time>
      </trkpt>
      <trkpt lat="39.9192320" lon="-6.3012460">
        <ele>281.4</ele>
        <time>2021-10-16T14:34:10Z</time>
      </trkpt>
      <trkpt lat="39.9192300" lon="-6.3012000">
        <ele>281.2</ele>
        <time>2021-10-16T14:34:14Z</time>
      </trkpt>
      <trkpt lat="39.9192440" lon="-6.3011540">
        <ele>281.6</ele>
        <time>2021-10-16T14:34:39Z</time>
      </trkpt>
      <trkpt lat="39.9192590" lon="-6.3010920">
        <ele>281.4</ele>
        <time>2021-10-16T14:34:41Z</time>
      </trkpt>
      <trkpt lat="39.9193080" lon="-6.3008610">
        <ele>281.2</ele>
        <time>2021-10-16T14:34:47Z</time>
      </trkpt>
      <trkpt lat="39.9193780" lon="-6.3006820">
        <ele>281.2</ele>
        <time>2021-10-16T14:34:51Z</time>
      </trkpt>
      <trkpt lat="39.9194390" lon="-6.3004850">
        <ele>281.2</ele>
        <time>2021-10-16T14:34:55Z</time>
      </trkpt>
      <trkpt lat="39.9194160" lon="-6.3002820">
        <ele>281.0</ele>
        <time>2021-10-16T14:34:59Z</time>
      </trkpt>
      <trkpt lat="39.9193520" lon="-6.3000920">
        <ele>280.8</ele>
        <time>2021-10-16T14:35:03Z</time>
      </trkpt>
      <trkpt lat="39.9192350" lon="-6.2997290">
        <ele>281.2</ele>
        <time>2021-10-16T14:35:11Z</time>
      </trkpt>
      <trkpt lat="39.9191300" lon="-6.2994200">
        <ele>281.6</ele>
        <time>2021-10-16T14:35:18Z</time>
      </trkpt>
      <trkpt lat="39.9190720" lon="-6.2992430">
        <ele>281.8</ele>
        <time>2021-10-16T14:35:22Z</time>
      </trkpt>
      <trkpt lat="39.9190140" lon="-6.2990650">
        <ele>282.2</ele>
        <time>2021-10-16T14:35:26Z</time>
      </trkpt>
      <trkpt lat="39.9189440" lon="-6.2988470">
        <ele>282.6</ele>
        <time>2021-10-16T14:35:31Z</time>
      </trkpt>
      <trkpt lat="39.9188490" lon="-6.2985620">
        <ele>283.0</ele>
        <time>2021-10-16T14:35:37Z</time>
      </trkpt>
      <trkpt lat="39.9188050" lon="-6.2984170">
        <ele>283.0</ele>
        <time>2021-10-16T14:35:40Z</time>
      </trkpt>
      <trkpt lat="39.9186790" lon="-6.2979850">
        <ele>283.6</ele>
        <time>2021-10-16T14:35:49Z</time>
      </trkpt>
      <trkpt lat="39.9186670" lon="-6.2979450">
        <ele>283.8</ele>
        <time>2021-10-16T14:35:50Z</time>
      </trkpt>
      <trkpt lat="39.9186390" lon="-6.2978430">
        <ele>283.8</ele>
        <time>2021-10-16T14:35:52Z</time>
      </trkpt>
      <trkpt lat="39.9185910" lon="-6.2976670">
        <ele>284.0</ele>
        <time>2021-10-16T14:35:56Z</time>
      </trkpt>
      <trkpt lat="39.9185320" lon="-6.2974110">
        <ele>284.2</ele>
        <time>2021-10-16T14:36:01Z</time>
      </trkpt>
      <trkpt lat="39.9184350" lon="-6.2969370">
        <ele>284.4</ele>
        <time>2021-10-16T14:36:10Z</time>
      </trkpt>
      <trkpt lat="39.9183860" lon="-6.2966960">
        <ele>284.4</ele>
        <time>2021-10-16T14:36:15Z</time>
      </trkpt>
      <trkpt lat="39.9183530" lon="-6.2965410">
        <ele>284.6</ele>
        <time>2021-10-16T14:36:18Z</time>
      </trkpt>
      <trkpt lat="39.9183420" lon="-6.2964930">
        <ele>284.6</ele>
        <time>2021-10-16T14:36:19Z</time>
      </trkpt>
      <trkpt lat="39.9183170" lon="-6.2963380">
        <ele>284.8</ele>
        <time>2021-10-16T14:36:22Z</time>
      </trkpt>
      <trkpt lat="39.9182630" lon="-6.2960820">
        <ele>285.0</ele>
        <time>2021-10-16T14:36:27Z</time>
      </trkpt>
      <trkpt lat="39.9181660" lon="-6.2956020">
        <ele>285.4</ele>
        <time>2021-10-16T14:36:37Z</time>
      </trkpt>
      <trkpt lat="39.9180620" lon="-6.2951180">
        <ele>285.4</ele>
        <time>2021-10-16T14:36:46Z</time>
      </trkpt>
      <trkpt lat="39.9180250" lon="-6.2949540">
        <ele>285.2</ele>
        <time>2021-10-16T14:36:49Z</time>
      </trkpt>
      <trkpt lat="39.9179500" lon="-6.2946190">
        <ele>285.2</ele>
        <time>2021-10-16T14:36:55Z</time>
      </trkpt>
      <trkpt lat="39.9179360" lon="-6.2945600">
        <ele>285.4</ele>
        <time>2021-10-16T14:36:56Z</time>
      </trkpt>
      <trkpt lat="39.9177640" lon="-6.2938550">
        <ele>285.6</ele>
        <time>2021-10-16T14:37:08Z</time>
      </trkpt>
      <trkpt lat="39.9176620" lon="-6.2934990">
        <ele>285.6</ele>
        <time>2021-10-16T14:37:14Z</time>
      </trkpt>
      <trkpt lat="39.9175790" lon="-6.2932620">
        <ele>285.8</ele>
        <time>2021-10-16T14:37:18Z</time>
      </trkpt>
      <trkpt lat="39.9173150" lon="-6.2926390">
        <ele>285.8</ele>
        <time>2021-10-16T14:37:29Z</time>
      </trkpt>
      <trkpt lat="39.9171220" lon="-6.2922570">
        <ele>285.8</ele>
        <time>2021-10-16T14:37:36Z</time>
      </trkpt>
      <trkpt lat="39.9170410" lon="-6.2921060">
        <ele>285.8</ele>
        <time>2021-10-16T14:37:39Z</time>
      </trkpt>
      <trkpt lat="39.9168420" lon="-6.2916600">
        <ele>286.0</ele>
        <time>2021-10-16T14:37:48Z</time>
      </trkpt>
      <trkpt lat="39.9166940" lon="-6.2912580">
        <ele>286.0</ele>
        <time>2021-10-16T14:37:55Z</time>
      </trkpt>
      <trkpt lat="39.9166060" lon="-6.2909660">
        <ele>286.0</ele>
        <time>2021-10-16T14:38:00Z</time>
      </trkpt>
      <trkpt lat="39.9165030" lon="-6.2905680">
        <ele>286.0</ele>
        <time>2021-10-16T14:38:07Z</time>
      </trkpt>
      <trkpt lat="39.9164030" lon="-6.2899370">
        <ele>286.0</ele>
        <time>2021-10-16T14:38:17Z</time>
      </trkpt>
      <trkpt lat="39.9163750" lon="-6.2896960">
        <ele>285.8</ele>
        <time>2021-10-16T14:38:21Z</time>
      </trkpt>
      <trkpt lat="39.9163460" lon="-6.2894390">
        <ele>285.8</ele>
        <time>2021-10-16T14:38:25Z</time>
      </trkpt>
      <trkpt lat="39.9163340" lon="-6.2893110">
        <ele>285.8</ele>
        <time>2021-10-16T14:38:27Z</time>
      </trkpt>
      <trkpt lat="39.9163150" lon="-6.2886870">
        <ele>285.8</ele>
        <time>2021-10-16T14:38:37Z</time>
      </trkpt>
      <trkpt lat="39.9163240" lon="-6.2883780">
        <ele>285.8</ele>
        <time>2021-10-16T14:38:42Z</time>
      </trkpt>
      <trkpt lat="39.9163400" lon="-6.2881310">
        <ele>285.8</ele>
        <time>2021-10-16T14:38:46Z</time>
      </trkpt>
      <trkpt lat="39.9163650" lon="-6.2874970">
        <ele>285.8</ele>
        <time>2021-10-16T14:38:56Z</time>
      </trkpt>
      <trkpt lat="39.9163920" lon="-6.2869440">
        <ele>286.0</ele>
        <time>2021-10-16T14:39:05Z</time>
      </trkpt>
      <trkpt lat="39.9164000" lon="-6.2868210">
        <ele>286.0</ele>
        <time>2021-10-16T14:39:07Z</time>
      </trkpt>
      <trkpt lat="39.9164360" lon="-6.2861700">
        <ele>286.2</ele>
        <time>2021-10-16T14:39:18Z</time>
      </trkpt>
      <trkpt lat="39.9164630" lon="-6.2856740">
        <ele>286.6</ele>
        <time>2021-10-16T14:39:27Z</time>
      </trkpt>
      <trkpt lat="39.9164880" lon="-6.2851440">
        <ele>287.2</ele>
        <time>2021-10-16T14:39:37Z</time>
      </trkpt>
      <trkpt lat="39.9164910" lon="-6.2850930">
        <ele>287.2</ele>
        <time>2021-10-16T14:39:38Z</time>
      </trkpt>
      <trkpt lat="39.9165170" lon="-6.2845320">
        <ele>288.0</ele>
        <time>2021-10-16T14:39:49Z</time>
      </trkpt>
      <trkpt lat="39.9165320" lon="-6.2842800">
        <ele>288.2</ele>
        <time>2021-10-16T14:39:54Z</time>
      </trkpt>
      <trkpt lat="39.9165510" lon="-6.2839900">
        <ele>288.4</ele>
        <time>2021-10-16T14:40:00Z</time>
      </trkpt>
      <trkpt lat="39.9165860" lon="-6.2835030">
        <ele>289.0</ele>
        <time>2021-10-16T14:40:10Z</time>
      </trkpt>
      <trkpt lat="39.9166030" lon="-6.2832150">
        <ele>289.2</ele>
        <time>2021-10-16T14:40:16Z</time>
      </trkpt>
      <trkpt lat="39.9166280" lon="-6.2827620">
        <ele>290.0</ele>
        <time>2021-10-16T14:40:25Z</time>
      </trkpt>
      <trkpt lat="39.9166340" lon="-6.2826150">
        <ele>290.0</ele>
        <time>2021-10-16T14:40:28Z</time>
      </trkpt>
      <trkpt lat="39.9166540" lon="-6.2822670">
        <ele>290.4</ele>
        <time>2021-10-16T14:40:35Z</time>
      </trkpt>
      <trkpt lat="39.9166630" lon="-6.2820720">
        <ele>290.6</ele>
        <time>2021-10-16T14:40:39Z</time>
      </trkpt>
      <trkpt lat="39.9166800" lon="-6.2817940">
        <ele>290.8</ele>
        <time>2021-10-16T14:40:45Z</time>
      </trkpt>
      <trkpt lat="39.9167330" lon="-6.2813390">
        <ele>291.2</ele>
        <time>2021-10-16T14:40:55Z</time>
      </trkpt>
      <trkpt lat="39.9168220" lon="-6.2809770">
        <ele>291.4</ele>
        <time>2021-10-16T14:41:03Z</time>
      </trkpt>
      <trkpt lat="39.9168480" lon="-6.2809050">
        <ele>291.6</ele>
        <time>2021-10-16T14:41:05Z</time>
      </trkpt>
      <trkpt lat="39.9169160" lon="-6.2807390">
        <ele>291.8</ele>
        <time>2021-10-16T14:41:09Z</time>
      </trkpt>
      <trkpt lat="39.9171110" lon="-6.2803970">
        <ele>292.4</ele>
        <time>2021-10-16T14:41:18Z</time>
      </trkpt>
      <trkpt lat="39.9172540" lon="-6.2802390">
        <ele>292.6</ele>
        <time>2021-10-16T14:41:23Z</time>
      </trkpt>
      <trkpt lat="39.9172770" lon="-6.2802050">
        <ele>292.6</ele>
        <time>2021-10-16T14:41:24Z</time>
      </trkpt>
      <trkpt lat="39.9173680" lon="-6.2800730">
        <ele>292.6</ele>
        <time>2021-10-16T14:41:28Z</time>
      </trkpt>
      <trkpt lat="39.9174140" lon="-6.2799970">
        <ele>292.6</ele>
        <time>2021-10-16T14:41:30Z</time>
      </trkpt>
      <trkpt lat="39.9175950" lon="-6.2797150">
        <ele>292.8</ele>
        <time>2021-10-16T14:41:37Z</time>
      </trkpt>
      <trkpt lat="39.9177070" lon="-6.2794930">
        <ele>292.6</ele>
        <time>2021-10-16T14:41:42Z</time>
      </trkpt>
      <trkpt lat="39.9177380" lon="-6.2793980">
        <ele>292.6</ele>
        <time>2021-10-16T14:41:44Z</time>
      </trkpt>
      <trkpt lat="39.9177800" lon="-6.2792530">
        <ele>292.4</ele>
        <time>2021-10-16T14:41:47Z</time>
      </trkpt>
      <trkpt lat="39.9178300" lon="-6.2789460">
        <ele>292.4</ele>
        <time>2021-10-16T14:41:53Z</time>
      </trkpt>
      <trkpt lat="39.9178080" lon="-6.2784850">
        <ele>292.2</ele>
        <time>2021-10-16T14:42:01Z</time>
      </trkpt>
      <trkpt lat="39.9177460" lon="-6.2780190">
        <ele>292.0</ele>
        <time>2021-10-16T14:42:10Z</time>
      </trkpt>
      <trkpt lat="39.9176900" lon="-6.2775320">
        <ele>292.2</ele>
        <time>2021-10-16T14:42:19Z</time>
      </trkpt>
      <trkpt lat="39.9176820" lon="-6.2774770">
        <ele>292.2</ele>
        <time>2021-10-16T14:42:20Z</time>
      </trkpt>
      <trkpt lat="39.9176340" lon="-6.2771450">
        <ele>292.2</ele>
        <time>2021-10-16T14:42:26Z</time>
      </trkpt>
      <trkpt lat="39.9175750" lon="-6.2767590">
        <ele>292.4</ele>
        <time>2021-10-16T14:42:34Z</time>
      </trkpt>
      <trkpt lat="39.9175380" lon="-6.2764290">
        <ele>293.6</ele>
        <time>2021-10-16T14:42:42Z</time>
      </trkpt>
      <trkpt lat="39.9175200" lon="-6.2761890">
        <ele>294.6</ele>
        <time>2021-10-16T14:42:49Z</time>
      </trkpt>
      <trkpt lat="39.9175190" lon="-6.2761570">
        <ele>294.6</ele>
        <time>2021-10-16T14:42:50Z</time>
      </trkpt>
      <trkpt lat="39.9175110" lon="-6.2759200">
        <ele>295.8</ele>
        <time>2021-10-16T14:42:57Z</time>
      </trkpt>
      <trkpt lat="39.9175440" lon="-6.2756950">
        <ele>296.8</ele>
        <time>2021-10-16T14:43:05Z</time>
      </trkpt>
      <trkpt lat="39.9175760" lon="-6.2755550">
        <ele>297.2</ele>
        <time>2021-10-16T14:43:08Z</time>
      </trkpt>
      <trkpt lat="39.9176780" lon="-6.2753060">
        <ele>297.8</ele>
        <time>2021-10-16T14:43:16Z</time>
      </trkpt>
      <trkpt lat="39.9177120" lon="-6.2752410">
        <ele>297.8</ele>
        <time>2021-10-16T14:43:18Z</time>
      </trkpt>
      <trkpt lat="39.9178730" lon="-6.2749970">
        <ele>298.4</ele>
        <time>2021-10-16T14:43:26Z</time>
      </trkpt>
      <trkpt lat="39.9180800" lon="-6.2746370">
        <ele>298.6</ele>
        <time>2021-10-16T14:43:36Z</time>
      </trkpt>
      <trkpt lat="39.9182080" lon="-6.2743060">
        <ele>298.8</ele>
        <time>2021-10-16T14:43:44Z</time>
      </trkpt>
      <trkpt lat="39.9182180" lon="-6.2742680">
        <ele>299.0</ele>
        <time>2021-10-16T14:43:45Z</time>
      </trkpt>
      <trkpt lat="39.9182780" lon="-6.2739650">
        <ele>299.2</ele>
        <time>2021-10-16T14:43:51Z</time>
      </trkpt>
      <trkpt lat="39.9182930" lon="-6.2738080">
        <ele>299.2</ele>
        <time>2021-10-16T14:43:54Z</time>
      </trkpt>
      <trkpt lat="39.9183010" lon="-6.2735910">
        <ele>299.4</ele>
        <time>2021-10-16T14:43:58Z</time>
      </trkpt>
      <trkpt lat="39.9182880" lon="-6.2732120">
        <ele>299.4</ele>
        <time>2021-10-16T14:44:05Z</time>
      </trkpt>
      <trkpt lat="39.9182820" lon="-6.2730480">
        <ele>299.4</ele>
        <time>2021-10-16T14:44:08Z</time>
      </trkpt>
      <trkpt lat="39.9182910" lon="-6.2726240">
        <ele>299.8</ele>
        <time>2021-10-16T14:44:16Z</time>
      </trkpt>
      <trkpt lat="39.9183160" lon="-6.2723900">
        <ele>300.0</ele>
        <time>2021-10-16T14:44:20Z</time>
      </trkpt>
      <trkpt lat="39.9183430" lon="-6.2722410">
        <ele>300.2</ele>
        <time>2021-10-16T14:44:23Z</time>
      </trkpt>
      <trkpt lat="39.9183500" lon="-6.2721870">
        <ele>300.2</ele>
        <time>2021-10-16T14:44:24Z</time>
      </trkpt>
      <trkpt lat="39.9184120" lon="-6.2719650">
        <ele>300.2</ele>
        <time>2021-10-16T14:44:29Z</time>
      </trkpt>
      <trkpt lat="39.9184420" lon="-6.2718560">
        <ele>300.0</ele>
        <time>2021-10-16T14:44:34Z</time>
      </trkpt>
      <trkpt lat="39.9184490" lon="-6.2718450">
        <ele>300.4</ele>
        <time>2021-10-16T14:44:35Z</time>
      </trkpt>
      <trkpt lat="39.9184490" lon="-6.2718390">
        <ele>300.4</ele>
        <time>2021-10-16T14:44:38Z</time>
      </trkpt>
      <trkpt lat="39.9184570" lon="-6.2718760">
        <ele>300.4</ele>
        <time>2021-10-16T14:44:56Z</time>
      </trkpt>
      <trkpt lat="39.9184430" lon="-6.2719590">
        <ele>300.4</ele>
        <time>2021-10-16T14:44:58Z</time>
      </trkpt>
      <trkpt lat="39.9183890" lon="-6.2722470">
        <ele>300.4</ele>
        <time>2021-10-16T14:45:04Z</time>
      </trkpt>
      <trkpt lat="39.9183320" lon="-6.2726620">
        <ele>300.2</ele>
        <time>2021-10-16T14:45:12Z</time>
      </trkpt>
      <trkpt lat="39.9183240" lon="-6.2730520">
        <ele>300.0</ele>
        <time>2021-10-16T14:45:19Z</time>
      </trkpt>
      <trkpt lat="39.9183330" lon="-6.2733410">
        <ele>300.0</ele>
        <time>2021-10-16T14:45:24Z</time>
      </trkpt>
      <trkpt lat="39.9183420" lon="-6.2735940">
        <ele>299.8</ele>
        <time>2021-10-16T14:45:28Z</time>
      </trkpt>
      <trkpt lat="39.9183250" lon="-6.2738820">
        <ele>299.8</ele>
        <time>2021-10-16T14:45:33Z</time>
      </trkpt>
      <trkpt lat="39.9182900" lon="-6.2739820">
        <ele>299.8</ele>
        <time>2021-10-16T14:45:35Z</time>
      </trkpt>
      <trkpt lat="39.9181950" lon="-6.2743150">
        <ele>299.4</ele>
        <time>2021-10-16T14:45:42Z</time>
      </trkpt>
      <trkpt lat="39.9181790" lon="-6.2743920">
        <ele>299.2</ele>
        <time>2021-10-16T14:45:45Z</time>
      </trkpt>
      <trkpt lat="39.9181660" lon="-6.2743940">
        <ele>299.2</ele>
        <time>2021-10-16T14:45:46Z</time>
      </trkpt>
      <trkpt lat="39.9181370" lon="-6.2743370">
        <ele>299.0</ele>
        <time>2021-10-16T14:45:48Z</time>
      </trkpt>
      <trkpt lat="39.9181320" lon="-6.2742450">
        <ele>299.0</ele>
        <time>2021-10-16T14:45:50Z</time>
      </trkpt>
      <trkpt lat="39.9181350" lon="-6.2741650">
        <ele>298.6</ele>
        <time>2021-10-16T14:45:51Z</time>
      </trkpt>
      <trkpt lat="39.9181500" lon="-6.2740110">
        <ele>298.0</ele>
        <time>2021-10-16T14:45:53Z</time>
      </trkpt>
      <trkpt lat="39.9181830" lon="-6.2738510">
        <ele>297.0</ele>
        <time>2021-10-16T14:45:55Z</time>
      </trkpt>
      <trkpt lat="39.9181960" lon="-6.2737680">
        <ele>296.6</ele>
        <time>2021-10-16T14:45:56Z</time>
      </trkpt>
      <trkpt lat="39.9181930" lon="-6.2735980">
        <ele>296.0</ele>
        <time>2021-10-16T14:45:58Z</time>
      </trkpt>
      <trkpt lat="39.9181440" lon="-6.2733640">
        <ele>295.4</ele>
        <time>2021-10-16T14:46:01Z</time>
      </trkpt>
      <trkpt lat="39.9181110" lon="-6.2732230">
        <ele>295.0</ele>
        <time>2021-10-16T14:46:03Z</time>
      </trkpt>
      <trkpt lat="39.9180350" lon="-6.2728780">
        <ele>294.4</ele>
        <time>2021-10-16T14:46:09Z</time>
      </trkpt>
      <trkpt lat="39.9180010" lon="-6.2725610">
        <ele>294.6</ele>
        <time>2021-10-16T14:46:15Z</time>
      </trkpt>
      <trkpt lat="39.9180710" lon="-6.2721400">
        <ele>294.8</ele>
        <time>2021-10-16T14:46:23Z</time>
      </trkpt>
      <trkpt lat="39.9180970" lon="-6.2720570">
        <ele>294.8</ele>
        <time>2021-10-16T14:46:25Z</time>
      </trkpt>
      <trkpt lat="39.9181720" lon="-6.2718510">
        <ele>295.0</ele>
        <time>2021-10-16T14:46:30Z</time>
      </trkpt>
      <trkpt lat="39.9182300" lon="-6.2716170">
        <ele>295.0</ele>
        <time>2021-10-16T14:46:36Z</time>
      </trkpt>
      <trkpt lat="39.9182320" lon="-6.2715430">
        <ele>295.6</ele>
        <time>2021-10-16T14:46:40Z</time>
      </trkpt>
      <trkpt lat="39.9182220" lon="-6.2715240">
        <ele>295.8</ele>
        <time>2021-10-16T14:46:44Z</time>
      </trkpt>
      <trkpt lat="39.9181720" lon="-6.2714590">
        <ele>295.6</ele>
        <time>2021-10-16T14:48:06Z</time>
      </trkpt>
      <trkpt lat="39.9180280" lon="-6.2713030">
        <ele>295.4</ele>
        <time>2021-10-16T14:48:10Z</time>
      </trkpt>
      <trkpt lat="39.9178170" lon="-6.2710650">
        <ele>294.2</ele>
        <time>2021-10-16T14:48:16Z</time>
      </trkpt>
      <trkpt lat="39.9177170" lon="-6.2709490">
        <ele>293.8</ele>
        <time>2021-10-16T14:48:20Z</time>
      </trkpt>
      <trkpt lat="39.9176690" lon="-6.2708890">
        <ele>293.6</ele>
        <time>2021-10-16T14:48:22Z</time>
      </trkpt>
      <trkpt lat="39.9174320" lon="-6.2706590">
        <ele>293.6</ele>
        <time>2021-10-16T14:48:30Z</time>
      </trkpt>
      <trkpt lat="39.9174000" lon="-6.2706380">
        <ele>293.4</ele>
        <time>2021-10-16T14:48:31Z</time>
      </trkpt>
      <trkpt lat="39.9171580" lon="-6.2705000">
        <ele>293.4</ele>
        <time>2021-10-16T14:48:39Z</time>
      </trkpt>
      <trkpt lat="39.9171410" lon="-6.2704920">
        <ele>293.6</ele>
        <time>2021-10-16T14:48:42Z</time>
      </trkpt>
      <trkpt lat="39.9171860" lon="-6.2705160">
        <ele>293.8</ele>
        <time>2021-10-16T14:49:18Z</time>
      </trkpt>
      <trkpt lat="39.9172120" lon="-6.2705250">
        <ele>293.8</ele>
        <time>2021-10-16T14:49:19Z</time>
      </trkpt>
      <trkpt lat="39.9172340" lon="-6.2705360">
        <ele>293.8</ele>
        <time>2021-10-16T14:49:20Z</time>
      </trkpt>
      <trkpt lat="39.9174400" lon="-6.2706600">
        <ele>293.8</ele>
        <time>2021-10-16T14:49:28Z</time>
      </trkpt>
      <trkpt lat="39.9174500" lon="-6.2707030">
        <ele>293.8</ele>
        <time>2021-10-16T14:49:30Z</time>
      </trkpt>
      <trkpt lat="39.9174430" lon="-6.2707210">
        <ele>293.8</ele>
        <time>2021-10-16T14:49:32Z</time>
      </trkpt>
      <trkpt lat="39.9174350" lon="-6.2707380">
        <ele>293.8</ele>
        <time>2021-10-16T14:49:33Z</time>
      </trkpt>
      <trkpt lat="39.9174280" lon="-6.2707560">
        <ele>293.6</ele>
        <time>2021-10-16T14:49:46Z</time>
      </trkpt>
      <trkpt lat="39.9174200" lon="-6.2707730">
        <ele>293.4</ele>
        <time>2021-10-16T14:49:47Z</time>
      </trkpt>
      <trkpt lat="39.9173630" lon="-6.2708970">
        <ele>293.0</ele>
        <time>2021-10-16T14:49:50Z</time>
      </trkpt>
      <trkpt lat="39.9173170" lon="-6.2709490">
        <ele>292.8</ele>
        <time>2021-10-16T14:49:52Z</time>
      </trkpt>
      <trkpt lat="39.9172910" lon="-6.2709700">
        <ele>292.6</ele>
        <time>2021-10-16T14:49:53Z</time>
      </trkpt>
      <trkpt lat="39.9172300" lon="-6.2709930">
        <ele>292.4</ele>
        <time>2021-10-16T14:49:56Z</time>
      </trkpt>
      <trkpt lat="39.9171750" lon="-6.2709430">
        <ele>292.2</ele>
        <time>2021-10-16T14:50:01Z</time>
      </trkpt>
      <trkpt lat="39.9171610" lon="-6.2709330">
        <ele>292.2</ele>
        <time>2021-10-16T14:50:02Z</time>
      </trkpt>
      <trkpt lat="39.9170750" lon="-6.2708520">
        <ele>292.4</ele>
        <time>2021-10-16T14:50:09Z</time>
      </trkpt>
      <trkpt lat="39.9170000" lon="-6.2708080">
        <ele>292.8</ele>
        <time>2021-10-16T14:50:14Z</time>
      </trkpt>
      <trkpt lat="39.9169480" lon="-6.2707810">
        <ele>293.0</ele>
        <time>2021-10-16T14:50:17Z</time>
      </trkpt>
      <trkpt lat="39.9168320" lon="-6.2707710">
        <ele>293.2</ele>
        <time>2021-10-16T14:50:23Z</time>
      </trkpt>
      <trkpt lat="39.9168160" lon="-6.2707700">
        <ele>293.4</ele>
        <time>2021-10-16T14:50:24Z</time>
      </trkpt>
      <trkpt lat="39.9167450" lon="-6.2707750">
        <ele>293.8</ele>
        <time>2021-10-16T14:50:28Z</time>
      </trkpt>
      <trkpt lat="39.9167060" lon="-6.2707770">
        <ele>294.0</ele>
        <time>2021-10-16T14:50:30Z</time>
      </trkpt>
      <trkpt lat="39.9165860" lon="-6.2707770">
        <ele>294.2</ele>
        <time>2021-10-16T14:50:36Z</time>
      </trkpt>
      <trkpt lat="39.9164740" lon="-6.2707710">
        <ele>294.8</ele>
        <time>2021-10-16T14:50:41Z</time>
      </trkpt>
      <trkpt lat="39.9164170" lon="-6.2707760">
        <ele>295.0</ele>
        <time>2021-10-16T14:50:44Z</time>
      </trkpt>
      <trkpt lat="39.9163000" lon="-6.2707870">
        <ele>295.8</ele>
        <time>2021-10-16T14:50:51Z</time>
      </trkpt>
      <trkpt lat="39.9162480" lon="-6.2707960">
        <ele>296.2</ele>
        <time>2021-10-16T14:50:54Z</time>
      </trkpt>
      <trkpt lat="39.9162140" lon="-6.2708010">
        <ele>296.8</ele>
        <time>2021-10-16T14:50:56Z</time>
      </trkpt>
      <trkpt lat="39.9161990" lon="-6.2708040">
        <ele>296.8</ele>
        <time>2021-10-16T14:50:57Z</time>
      </trkpt>
      <trkpt lat="39.9161670" lon="-6.2708120">
        <ele>297.2</ele>
        <time>2021-10-16T14:50:59Z</time>
      </trkpt>
      <trkpt lat="39.9160480" lon="-6.2708440">
        <ele>297.8</ele>
        <time>2021-10-16T14:51:06Z</time>
      </trkpt>
      <trkpt lat="39.9160310" lon="-6.2708500">
        <ele>298.0</ele>
        <time>2021-10-16T14:51:07Z</time>
      </trkpt>
      <trkpt lat="39.9159730" lon="-6.2708670">
        <ele>298.4</ele>
        <time>2021-10-16T14:51:10Z</time>
      </trkpt>
      <trkpt lat="39.9158790" lon="-6.2709120">
        <ele>298.6</ele>
        <time>2021-10-16T14:51:15Z</time>
      </trkpt>
      <trkpt lat="39.9157930" lon="-6.2709500">
        <ele>299.0</ele>
        <time>2021-10-16T14:51:19Z</time>
      </trkpt>
      <trkpt lat="39.9157720" lon="-6.2709580">
        <ele>299.2</ele>
        <time>2021-10-16T14:51:20Z</time>
      </trkpt>
      <trkpt lat="39.9156530" lon="-6.2709970">
        <ele>299.4</ele>
        <time>2021-10-16T14:51:26Z</time>
      </trkpt>
      <trkpt lat="39.9155760" lon="-6.2710220">
        <ele>299.6</ele>
        <time>2021-10-16T14:51:30Z</time>
      </trkpt>
      <trkpt lat="39.9155190" lon="-6.2710400">
        <ele>300.0</ele>
        <time>2021-10-16T14:51:33Z</time>
      </trkpt>
      <trkpt lat="39.9154840" lon="-6.2710510">
        <ele>300.4</ele>
        <time>2021-10-16T14:51:35Z</time>
      </trkpt>
      <trkpt lat="39.9153920" lon="-6.2710860">
        <ele>301.2</ele>
        <time>2021-10-16T14:51:41Z</time>
      </trkpt>
      <trkpt lat="39.9153740" lon="-6.2710880">
        <ele>301.4</ele>
        <time>2021-10-16T14:51:42Z</time>
      </trkpt>
      <trkpt lat="39.9153070" lon="-6.2710970">
        <ele>302.4</ele>
        <time>2021-10-16T14:51:46Z</time>
      </trkpt>
      <trkpt lat="39.9152490" lon="-6.2710940">
        <ele>303.2</ele>
        <time>2021-10-16T14:51:50Z</time>
      </trkpt>
      <trkpt lat="39.9152200" lon="-6.2710950">
        <ele>303.4</ele>
        <time>2021-10-16T14:51:52Z</time>
      </trkpt>
      <trkpt lat="39.9151630" lon="-6.2710780">
        <ele>304.4</ele>
        <time>2021-10-16T14:51:56Z</time>
      </trkpt>
      <trkpt lat="39.9151510" lon="-6.2710780">
        <ele>304.6</ele>
        <time>2021-10-16T14:51:57Z</time>
      </trkpt>
      <trkpt lat="39.9150290" lon="-6.2710550">
        <ele>305.6</ele>
        <time>2021-10-16T14:52:05Z</time>
      </trkpt>
      <trkpt lat="39.9149970" lon="-6.2710500">
        <ele>306.2</ele>
        <time>2021-10-16T14:52:08Z</time>
      </trkpt>
      <trkpt lat="39.9149790" lon="-6.2710470">
        <ele>306.4</ele>
        <time>2021-10-16T14:52:11Z</time>
      </trkpt>
      <trkpt lat="39.9149790" lon="-6.2710470">
        <ele>306.6</ele>
        <time>2021-10-16T14:52:12Z</time>
      </trkpt>
      <trkpt lat="39.9149160" lon="-6.2710280">
        <ele>306.6</ele>
        <time>2021-10-16T14:52:22Z</time>
      </trkpt>
      <trkpt lat="39.9148910" lon="-6.2710200">
        <ele>306.6</ele>
        <time>2021-10-16T14:52:23Z</time>
      </trkpt>
      <trkpt lat="39.9148630" lon="-6.2710100">
        <ele>306.6</ele>
        <time>2021-10-16T14:52:24Z</time>
      </trkpt>
      <trkpt lat="39.9147640" lon="-6.2710030">
        <ele>306.6</ele>
        <time>2021-10-16T14:52:27Z</time>
      </trkpt>
      <trkpt lat="39.9146880" lon="-6.2710060">
        <ele>306.4</ele>
        <time>2021-10-16T14:52:30Z</time>
      </trkpt>
      <trkpt lat="39.9146140" lon="-6.2710120">
        <ele>306.4</ele>
        <time>2021-10-16T14:52:34Z</time>
      </trkpt>
      <trkpt lat="39.9145770" lon="-6.2710010">
        <ele>306.4</ele>
        <time>2021-10-16T14:52:36Z</time>
      </trkpt>
      <trkpt lat="39.9144740" lon="-6.2710240">
        <ele>307.0</ele>
        <time>2021-10-16T14:52:42Z</time>
      </trkpt>
      <trkpt lat="39.9144620" lon="-6.2710280">
        <ele>307.2</ele>
        <time>2021-10-16T14:52:43Z</time>
      </trkpt>
      <trkpt lat="39.9144180" lon="-6.2710580">
        <ele>307.6</ele>
        <time>2021-10-16T14:52:47Z</time>
      </trkpt>
      <trkpt lat="39.9144180" lon="-6.2710580">
        <ele>307.6</ele>
        <time>2021-10-16T14:52:48Z</time>
      </trkpt>
      <trkpt lat="39.9141770" lon="-6.2709990">
        <ele>312.4</ele>
        <time>2021-10-16T14:57:42Z</time>
      </trkpt>
      <trkpt lat="39.9141660" lon="-6.2710200">
        <ele>312.4</ele>
        <time>2021-10-16T14:57:43Z</time>
      </trkpt>
      <trkpt lat="39.9141400" lon="-6.2710620">
        <ele>312.4</ele>
        <time>2021-10-16T14:57:45Z</time>
      </trkpt>
      <trkpt lat="39.9140480" lon="-6.2712170">
        <ele>312.6</ele>
        <time>2021-10-16T14:57:52Z</time>
      </trkpt>
      <trkpt lat="39.9139890" lon="-6.2713960">
        <ele>312.6</ele>
        <time>2021-10-16T14:57:59Z</time>
      </trkpt>
      <trkpt lat="39.9139970" lon="-6.2715100">
        <ele>312.6</ele>
        <time>2021-10-16T14:58:04Z</time>
      </trkpt>
      <trkpt lat="39.9140260" lon="-6.2717250">
        <ele>312.4</ele>
        <time>2021-10-16T14:58:11Z</time>
      </trkpt>
      <trkpt lat="39.9140090" lon="-6.2718590">
        <ele>312.2</ele>
        <time>2021-10-16T14:58:16Z</time>
      </trkpt>
      <trkpt lat="39.9140030" lon="-6.2720430">
        <ele>312.4</ele>
        <time>2021-10-16T14:58:23Z</time>
      </trkpt>
      <trkpt lat="39.9140920" lon="-6.2722090">
        <ele>313.6</ele>
        <time>2021-10-16T14:58:31Z</time>
      </trkpt>
      <trkpt lat="39.9141540" lon="-6.2722870">
        <ele>314.6</ele>
        <time>2021-10-16T14:58:37Z</time>
      </trkpt>
      <trkpt lat="39.9141970" lon="-6.2723480">
        <ele>315.4</ele>
        <time>2021-10-16T14:58:42Z</time>
      </trkpt>
      <trkpt lat="39.9142160" lon="-6.2723710">
        <ele>316.0</ele>
        <time>2021-10-16T14:58:44Z</time>
      </trkpt>
      <trkpt lat="39.9142430" lon="-6.2724060">
        <ele>316.8</ele>
        <time>2021-10-16T14:58:47Z</time>
      </trkpt>
      <trkpt lat="39.9142480" lon="-6.2724200">
        <ele>316.8</ele>
        <time>2021-10-16T14:58:48Z</time>
      </trkpt>
      <trkpt lat="39.9142590" lon="-6.2724750">
        <ele>317.2</ele>
        <time>2021-10-16T14:58:51Z</time>
      </trkpt>
      <trkpt lat="39.9142730" lon="-6.2725100">
        <ele>317.6</ele>
        <time>2021-10-16T14:58:53Z</time>
      </trkpt>
      <trkpt lat="39.9143050" lon="-6.2725670">
        <ele>318.2</ele>
        <time>2021-10-16T14:58:57Z</time>
      </trkpt>
      <trkpt lat="39.9143240" lon="-6.2725940">
        <ele>318.6</ele>
        <time>2021-10-16T14:58:59Z</time>
      </trkpt>
      <trkpt lat="39.9143350" lon="-6.2726080">
        <ele>319.0</ele>
        <time>2021-10-16T14:59:00Z</time>
      </trkpt>
      <trkpt lat="39.9143660" lon="-6.2726920">
        <ele>319.8</ele>
        <time>2021-10-16T14:59:06Z</time>
      </trkpt>
      <trkpt lat="39.9143600" lon="-6.2727070">
        <ele>319.8</ele>
        <time>2021-10-16T14:59:07Z</time>
      </trkpt>
      <trkpt lat="39.9143560" lon="-6.2727190">
        <ele>320.0</ele>
        <time>2021-10-16T14:59:08Z</time>
      </trkpt>
      <trkpt lat="39.9143540" lon="-6.2727230">
        <ele>320.2</ele>
        <time>2021-10-16T14:59:11Z</time>
      </trkpt>
      <trkpt lat="39.9143380" lon="-6.2727590">
        <ele>320.2</ele>
        <time>2021-10-16T14:59:57Z</time>
      </trkpt>
      <trkpt lat="39.9143300" lon="-6.2727770">
        <ele>320.2</ele>
        <time>2021-10-16T14:59:58Z</time>
      </trkpt>
      <trkpt lat="39.9142570" lon="-6.2728960">
        <ele>320.8</ele>
        <time>2021-10-16T15:00:05Z</time>
      </trkpt>
      <trkpt lat="39.9142470" lon="-6.2729130">
        <ele>320.8</ele>
        <time>2021-10-16T15:00:06Z</time>
      </trkpt>
      <trkpt lat="39.9142150" lon="-6.2729650">
        <ele>321.0</ele>
        <time>2021-10-16T15:00:09Z</time>
      </trkpt>
      <trkpt lat="39.9141840" lon="-6.2729940">
        <ele>321.2</ele>
        <time>2021-10-16T15:00:11Z</time>
      </trkpt>
      <trkpt lat="39.9141670" lon="-6.2730080">
        <ele>321.2</ele>
        <time>2021-10-16T15:00:12Z</time>
      </trkpt>
      <trkpt lat="39.9140270" lon="-6.2731740">
        <ele>322.0</ele>
        <time>2021-10-16T15:00:21Z</time>
      </trkpt>
      <trkpt lat="39.9139890" lon="-6.2732270">
        <ele>322.2</ele>
        <time>2021-10-16T15:00:24Z</time>
      </trkpt>
      <trkpt lat="39.9139250" lon="-6.2733440">
        <ele>322.6</ele>
        <time>2021-10-16T15:00:29Z</time>
      </trkpt>
      <trkpt lat="39.9138990" lon="-6.2733900">
        <ele>322.8</ele>
        <time>2021-10-16T15:00:31Z</time>
      </trkpt>
      <trkpt lat="39.9138080" lon="-6.2735720">
        <ele>323.0</ele>
        <time>2021-10-16T15:00:38Z</time>
      </trkpt>
      <trkpt lat="39.9137500" lon="-6.2737240">
        <ele>323.2</ele>
        <time>2021-10-16T15:00:43Z</time>
      </trkpt>
      <trkpt lat="39.9137010" lon="-6.2738530">
        <ele>323.4</ele>
        <time>2021-10-16T15:00:47Z</time>
      </trkpt>
      <trkpt lat="39.9135720" lon="-6.2741660">
        <ele>324.0</ele>
        <time>2021-10-16T15:00:57Z</time>
      </trkpt>
      <trkpt lat="39.9134900" lon="-6.2743080">
        <ele>324.0</ele>
        <time>2021-10-16T15:01:01Z</time>
      </trkpt>
      <trkpt lat="39.9134450" lon="-6.2743720">
        <ele>323.8</ele>
        <time>2021-10-16T15:01:03Z</time>
      </trkpt>
      <trkpt lat="39.9133490" lon="-6.2745230">
        <ele>324.0</ele>
        <time>2021-10-16T15:01:08Z</time>
      </trkpt>
      <trkpt lat="39.9133090" lon="-6.2746110">
        <ele>324.0</ele>
        <time>2021-10-16T15:01:11Z</time>
      </trkpt>
      <trkpt lat="39.9132790" lon="-6.2746670">
        <ele>324.4</ele>
        <time>2021-10-16T15:01:13Z</time>
      </trkpt>
      <trkpt lat="39.9131820" lon="-6.2748520">
        <ele>325.2</ele>
        <time>2021-10-16T15:01:20Z</time>
      </trkpt>
      <trkpt lat="39.9131520" lon="-6.2749000">
        <ele>325.4</ele>
        <time>2021-10-16T15:01:22Z</time>
      </trkpt>
      <trkpt lat="39.9131240" lon="-6.2749470">
        <ele>325.8</ele>
        <time>2021-10-16T15:01:24Z</time>
      </trkpt>
      <trkpt lat="39.9130650" lon="-6.2750410">
        <ele>326.6</ele>
        <time>2021-10-16T15:01:28Z</time>
      </trkpt>
      <trkpt lat="39.9130390" lon="-6.2750880">
        <ele>327.0</ele>
        <time>2021-10-16T15:01:30Z</time>
      </trkpt>
      <trkpt lat="39.9130000" lon="-6.2751570">
        <ele>327.6</ele>
        <time>2021-10-16T15:01:33Z</time>
      </trkpt>
      <trkpt lat="39.9129530" lon="-6.2752540">
        <ele>328.0</ele>
        <time>2021-10-16T15:01:37Z</time>
      </trkpt>
      <trkpt lat="39.9128760" lon="-6.2753640">
        <ele>328.8</ele>
        <time>2021-10-16T15:01:42Z</time>
      </trkpt>
      <trkpt lat="39.9128180" lon="-6.2754570">
        <ele>329.4</ele>
        <time>2021-10-16T15:01:47Z</time>
      </trkpt>
      <trkpt lat="39.9127450" lon="-6.2755190">
        <ele>329.8</ele>
        <time>2021-10-16T15:01:52Z</time>
      </trkpt>
      <trkpt lat="39.9126030" lon="-6.2755830">
        <ele>331.0</ele>
        <time>2021-10-16T15:02:01Z</time>
      </trkpt>
      <trkpt lat="39.9125870" lon="-6.2755920">
        <ele>331.0</ele>
        <time>2021-10-16T15:02:02Z</time>
      </trkpt>
      <trkpt lat="39.9125550" lon="-6.2756090">
        <ele>331.4</ele>
        <time>2021-10-16T15:02:04Z</time>
      </trkpt>
      <trkpt lat="39.9124970" lon="-6.2756390">
        <ele>331.8</ele>
        <time>2021-10-16T15:02:08Z</time>
      </trkpt>
      <trkpt lat="39.9124850" lon="-6.2756460">
        <ele>332.0</ele>
        <time>2021-10-16T15:02:09Z</time>
      </trkpt>
      <trkpt lat="39.9124060" lon="-6.2756850">
        <ele>333.0</ele>
        <time>2021-10-16T15:02:15Z</time>
      </trkpt>
      <trkpt lat="39.9123230" lon="-6.2757150">
        <ele>334.2</ele>
        <time>2021-10-16T15:02:21Z</time>
      </trkpt>
      <trkpt lat="39.9122510" lon="-6.2757630">
        <ele>335.0</ele>
        <time>2021-10-16T15:02:27Z</time>
      </trkpt>
      <trkpt lat="39.9122380" lon="-6.2757670">
        <ele>335.6</ele>
        <time>2021-10-16T15:02:28Z</time>
      </trkpt>
      <trkpt lat="39.9122240" lon="-6.2757710">
        <ele>335.8</ele>
        <time>2021-10-16T15:02:29Z</time>
      </trkpt>
      <trkpt lat="39.9121500" lon="-6.2757640">
        <ele>336.6</ele>
        <time>2021-10-16T15:02:34Z</time>
      </trkpt>
      <trkpt lat="39.9121350" lon="-6.2757590">
        <ele>336.8</ele>
        <time>2021-10-16T15:02:35Z</time>
      </trkpt>
      <trkpt lat="39.9120330" lon="-6.2757510">
        <ele>337.6</ele>
        <time>2021-10-16T15:02:42Z</time>
      </trkpt>
      <trkpt lat="39.9120190" lon="-6.2757520">
        <ele>337.6</ele>
        <time>2021-10-16T15:02:43Z</time>
      </trkpt>
      <trkpt lat="39.9119050" lon="-6.2757850">
        <ele>338.0</ele>
        <time>2021-10-16T15:02:51Z</time>
      </trkpt>
      <trkpt lat="39.9118690" lon="-6.2758220">
        <ele>338.4</ele>
        <time>2021-10-16T15:02:54Z</time>
      </trkpt>
      <trkpt lat="39.9118400" lon="-6.2758400">
        <ele>338.4</ele>
        <time>2021-10-16T15:02:56Z</time>
      </trkpt>
      <trkpt lat="39.9118080" lon="-6.2758540">
        <ele>338.6</ele>
        <time>2021-10-16T15:02:58Z</time>
      </trkpt>
      <trkpt lat="39.9117890" lon="-6.2758710">
        <ele>339.0</ele>
        <time>2021-10-16T15:03:00Z</time>
      </trkpt>
      <trkpt lat="39.9116860" lon="-6.2759140">
        <ele>339.2</ele>
        <time>2021-10-16T15:03:07Z</time>
      </trkpt>
      <trkpt lat="39.9116730" lon="-6.2759130">
        <ele>339.4</ele>
        <time>2021-10-16T15:03:08Z</time>
      </trkpt>
      <trkpt lat="39.9116590" lon="-6.2759110">
        <ele>339.6</ele>
        <time>2021-10-16T15:03:09Z</time>
      </trkpt>
      <trkpt lat="39.9115870" lon="-6.2758920">
        <ele>340.4</ele>
        <time>2021-10-16T15:03:14Z</time>
      </trkpt>
      <trkpt lat="39.9115730" lon="-6.2758840">
        <ele>340.8</ele>
        <time>2021-10-16T15:03:15Z</time>
      </trkpt>
      <trkpt lat="39.9115450" lon="-6.2758610">
        <ele>341.0</ele>
        <time>2021-10-16T15:03:17Z</time>
      </trkpt>
      <trkpt lat="39.9115250" lon="-6.2758130">
        <ele>341.2</ele>
        <time>2021-10-16T15:03:20Z</time>
      </trkpt>
      <trkpt lat="39.9115140" lon="-6.2757970">
        <ele>341.6</ele>
        <time>2021-10-16T15:03:21Z</time>
      </trkpt>
      <trkpt lat="39.9114940" lon="-6.2757700">
        <ele>342.2</ele>
        <time>2021-10-16T15:03:23Z</time>
      </trkpt>
      <trkpt lat="39.9114490" lon="-6.2757130">
        <ele>342.6</ele>
        <time>2021-10-16T15:03:27Z</time>
      </trkpt>
      <trkpt lat="39.9113930" lon="-6.2756610">
        <ele>343.2</ele>
        <time>2021-10-16T15:03:32Z</time>
      </trkpt>
      <trkpt lat="39.9113750" lon="-6.2756160">
        <ele>343.6</ele>
        <time>2021-10-16T15:03:35Z</time>
      </trkpt>
      <trkpt lat="39.9113690" lon="-6.2756000">
        <ele>343.6</ele>
        <time>2021-10-16T15:03:36Z</time>
      </trkpt>
      <trkpt lat="39.9113610" lon="-6.2755860">
        <ele>343.6</ele>
        <time>2021-10-16T15:03:37Z</time>
      </trkpt>
      <trkpt lat="39.9113500" lon="-6.2755740">
        <ele>343.8</ele>
        <time>2021-10-16T15:03:38Z</time>
      </trkpt>
      <trkpt lat="39.9113320" lon="-6.2755490">
        <ele>344.0</ele>
        <time>2021-10-16T15:03:40Z</time>
      </trkpt>
      <trkpt lat="39.9113210" lon="-6.2755390">
        <ele>344.2</ele>
        <time>2021-10-16T15:03:41Z</time>
      </trkpt>
      <trkpt lat="39.9113120" lon="-6.2755260">
        <ele>344.2</ele>
        <time>2021-10-16T15:03:42Z</time>
      </trkpt>
      <trkpt lat="39.9112970" lon="-6.2754990">
        <ele>344.4</ele>
        <time>2021-10-16T15:03:44Z</time>
      </trkpt>
      <trkpt lat="39.9112630" lon="-6.2754630">
        <ele>344.6</ele>
        <time>2021-10-16T15:03:47Z</time>
      </trkpt>
      <trkpt lat="39.9112240" lon="-6.2753900">
        <ele>345.2</ele>
        <time>2021-10-16T15:03:52Z</time>
      </trkpt>
      <trkpt lat="39.9112150" lon="-6.2753780">
        <ele>345.2</ele>
        <time>2021-10-16T15:03:53Z</time>
      </trkpt>
      <trkpt lat="39.9111550" lon="-6.2752960">
        <ele>346.2</ele>
        <time>2021-10-16T15:03:59Z</time>
      </trkpt>
      <trkpt lat="39.9111470" lon="-6.2752810">
        <ele>346.2</ele>
        <time>2021-10-16T15:04:00Z</time>
      </trkpt>
      <trkpt lat="39.9111360" lon="-6.2752660">
        <ele>346.6</ele>
        <time>2021-10-16T15:04:01Z</time>
      </trkpt>
      <trkpt lat="39.9111070" lon="-6.2752300">
        <ele>346.8</ele>
        <time>2021-10-16T15:04:04Z</time>
      </trkpt>
      <trkpt lat="39.9110990" lon="-6.2751950">
        <ele>347.2</ele>
        <time>2021-10-16T15:04:07Z</time>
      </trkpt>
      <trkpt lat="39.9110880" lon="-6.2751720">
        <ele>347.6</ele>
        <time>2021-10-16T15:04:09Z</time>
      </trkpt>
      <trkpt lat="39.9110820" lon="-6.2751640">
        <ele>347.6</ele>
        <time>2021-10-16T15:04:10Z</time>
      </trkpt>
      <trkpt lat="39.9110750" lon="-6.2751530">
        <ele>347.8</ele>
        <time>2021-10-16T15:04:13Z</time>
      </trkpt>
      <trkpt lat="39.9110750" lon="-6.2751530">
        <ele>348.0</ele>
        <time>2021-10-16T15:04:14Z</time>
      </trkpt>
      <trkpt lat="39.9110310" lon="-6.2751460">
        <ele>348.0</ele>
        <time>2021-10-16T15:05:08Z</time>
      </trkpt>
      <trkpt lat="39.9110160" lon="-6.2751470">
        <ele>348.0</ele>
        <time>2021-10-16T15:05:09Z</time>
      </trkpt>
      <trkpt lat="39.9109830" lon="-6.2751470">
        <ele>348.0</ele>
        <time>2021-10-16T15:05:11Z</time>
      </trkpt>
      <trkpt lat="39.9109210" lon="-6.2751440">
        <ele>348.0</ele>
        <time>2021-10-16T15:05:15Z</time>
      </trkpt>
      <trkpt lat="39.9108780" lon="-6.2751500">
        <ele>348.2</ele>
        <time>2021-10-16T15:05:18Z</time>
      </trkpt>
      <trkpt lat="39.9108510" lon="-6.2751560">
        <ele>348.4</ele>
        <time>2021-10-16T15:05:20Z</time>
      </trkpt>
      <trkpt lat="39.9108140" lon="-6.2751700">
        <ele>349.0</ele>
        <time>2021-10-16T15:05:23Z</time>
      </trkpt>
      <trkpt lat="39.9107540" lon="-6.2751850">
        <ele>349.2</ele>
        <time>2021-10-16T15:05:26Z</time>
      </trkpt>
      <trkpt lat="39.9107270" lon="-6.2751940">
        <ele>349.2</ele>
        <time>2021-10-16T15:05:27Z</time>
      </trkpt>
      <trkpt lat="39.9105870" lon="-6.2752970">
        <ele>349.0</ele>
        <time>2021-10-16T15:05:32Z</time>
      </trkpt>
      <trkpt lat="39.9105170" lon="-6.2754290">
        <ele>349.4</ele>
        <time>2021-10-16T15:05:38Z</time>
      </trkpt>
      <trkpt lat="39.9104950" lon="-6.2754870">
        <ele>350.2</ele>
        <time>2021-10-16T15:05:41Z</time>
      </trkpt>
      <trkpt lat="39.9104890" lon="-6.2755070">
        <ele>350.2</ele>
        <time>2021-10-16T15:05:42Z</time>
      </trkpt>
      <trkpt lat="39.9104790" lon="-6.2755220">
        <ele>350.6</ele>
        <time>2021-10-16T15:05:43Z</time>
      </trkpt>
      <trkpt lat="39.9104710" lon="-6.2755290">
        <ele>350.8</ele>
        <time>2021-10-16T15:05:44Z</time>
      </trkpt>
      <trkpt lat="39.9104620" lon="-6.2755360">
        <ele>351.2</ele>
        <time>2021-10-16T15:05:45Z</time>
      </trkpt>
      <trkpt lat="39.9104500" lon="-6.2755470">
        <ele>352.0</ele>
        <time>2021-10-16T15:05:48Z</time>
      </trkpt>
      <trkpt lat="39.9104500" lon="-6.2755470">
        <ele>352.0</ele>
        <time>2021-10-16T15:05:49Z</time>
      </trkpt>
      <trkpt lat="39.9104500" lon="-6.2755470">
        <ele>352.4</ele>
        <time>2021-10-16T15:05:50Z</time>
      </trkpt>
      <trkpt lat="39.9104380" lon="-6.2755660">
        <ele>352.6</ele>
        <time>2021-10-16T15:06:30Z</time>
      </trkpt>
      <trkpt lat="39.9104200" lon="-6.2755780">
        <ele>352.6</ele>
        <time>2021-10-16T15:06:31Z</time>
      </trkpt>
      <trkpt lat="39.9104000" lon="-6.2755900">
        <ele>352.6</ele>
        <time>2021-10-16T15:06:32Z</time>
      </trkpt>
      <trkpt lat="39.9102930" lon="-6.2757270">
        <ele>352.8</ele>
        <time>2021-10-16T15:06:39Z</time>
      </trkpt>
      <trkpt lat="39.9102280" lon="-6.2758170">
        <ele>353.0</ele>
        <time>2021-10-16T15:06:44Z</time>
      </trkpt>
      <trkpt lat="39.9101600" lon="-6.2758770">
        <ele>353.4</ele>
        <time>2021-10-16T15:06:49Z</time>
      </trkpt>
      <trkpt lat="39.9101430" lon="-6.2758850">
        <ele>353.4</ele>
        <time>2021-10-16T15:06:50Z</time>
      </trkpt>
      <trkpt lat="39.9101290" lon="-6.2758930">
        <ele>353.4</ele>
        <time>2021-10-16T15:06:51Z</time>
      </trkpt>
      <trkpt lat="39.9100860" lon="-6.2759300">
        <ele>353.8</ele>
        <time>2021-10-16T15:06:54Z</time>
      </trkpt>
      <trkpt lat="39.9100740" lon="-6.2759440">
        <ele>353.8</ele>
        <time>2021-10-16T15:06:55Z</time>
      </trkpt>
      <trkpt lat="39.9100410" lon="-6.2759750">
        <ele>354.2</ele>
        <time>2021-10-16T15:06:58Z</time>
      </trkpt>
      <trkpt lat="39.9100100" lon="-6.2759930">
        <ele>354.4</ele>
        <time>2021-10-16T15:07:00Z</time>
      </trkpt>
      <trkpt lat="39.9099970" lon="-6.2759980">
        <ele>354.6</ele>
        <time>2021-10-16T15:07:01Z</time>
      </trkpt>
      <trkpt lat="39.9098890" lon="-6.2760590">
        <ele>355.4</ele>
        <time>2021-10-16T15:07:08Z</time>
      </trkpt>
      <trkpt lat="39.9098310" lon="-6.2760960">
        <ele>355.6</ele>
        <time>2021-10-16T15:07:12Z</time>
      </trkpt>
      <trkpt lat="39.9097900" lon="-6.2761250">
        <ele>356.0</ele>
        <time>2021-10-16T15:07:15Z</time>
      </trkpt>
      <trkpt lat="39.9097440" lon="-6.2761560">
        <ele>356.4</ele>
        <time>2021-10-16T15:07:18Z</time>
      </trkpt>
      <trkpt lat="39.9096400" lon="-6.2762140">
        <ele>356.8</ele>
        <time>2021-10-16T15:07:24Z</time>
      </trkpt>
      <trkpt lat="39.9096200" lon="-6.2762240">
        <ele>356.8</ele>
        <time>2021-10-16T15:07:25Z</time>
      </trkpt>
      <trkpt lat="39.9094710" lon="-6.2762910">
        <ele>357.2</ele>
        <time>2021-10-16T15:07:32Z</time>
      </trkpt>
      <trkpt lat="39.9092800" lon="-6.2763040">
        <ele>357.4</ele>
        <time>2021-10-16T15:07:39Z</time>
      </trkpt>
      <trkpt lat="39.9092020" lon="-6.2763060">
        <ele>357.2</ele>
        <time>2021-10-16T15:07:42Z</time>
      </trkpt>
      <trkpt lat="39.9090820" lon="-6.2763060">
        <ele>357.2</ele>
        <time>2021-10-16T15:07:46Z</time>
      </trkpt>
      <trkpt lat="39.9089140" lon="-6.2763740">
        <ele>357.2</ele>
        <time>2021-10-16T15:07:52Z</time>
      </trkpt>
      <trkpt lat="39.9088380" lon="-6.2764100">
        <ele>357.2</ele>
        <time>2021-10-16T15:07:55Z</time>
      </trkpt>
      <trkpt lat="39.9086650" lon="-6.2764350">
        <ele>358.0</ele>
        <time>2021-10-16T15:08:01Z</time>
      </trkpt>
      <trkpt lat="39.9086370" lon="-6.2764380">
        <ele>358.0</ele>
        <time>2021-10-16T15:08:02Z</time>
      </trkpt>
      <trkpt lat="39.9084710" lon="-6.2765000">
        <ele>358.4</ele>
        <time>2021-10-16T15:08:08Z</time>
      </trkpt>
      <trkpt lat="39.9084510" lon="-6.2765070">
        <ele>358.6</ele>
        <time>2021-10-16T15:08:09Z</time>
      </trkpt>
      <trkpt lat="39.9083710" lon="-6.2765270">
        <ele>359.0</ele>
        <time>2021-10-16T15:08:13Z</time>
      </trkpt>
      <trkpt lat="39.9083310" lon="-6.2765280">
        <ele>359.8</ele>
        <time>2021-10-16T15:08:16Z</time>
      </trkpt>
      <trkpt lat="39.9082660" lon="-6.2765370">
        <ele>360.2</ele>
        <time>2021-10-16T15:08:18Z</time>
      </trkpt>
      <trkpt lat="39.9081880" lon="-6.2765840">
        <ele>360.6</ele>
        <time>2021-10-16T15:08:22Z</time>
      </trkpt>
      <trkpt lat="39.9080620" lon="-6.2765860">
        <ele>360.6</ele>
        <time>2021-10-16T15:08:28Z</time>
      </trkpt>
      <trkpt lat="39.9080010" lon="-6.2765950">
        <ele>361.2</ele>
        <time>2021-10-16T15:08:31Z</time>
      </trkpt>
      <trkpt lat="39.9078690" lon="-6.2766180">
        <ele>362.0</ele>
        <time>2021-10-16T15:08:37Z</time>
      </trkpt>
      <trkpt lat="39.9078200" lon="-6.2766480">
        <ele>362.2</ele>
        <time>2021-10-16T15:08:39Z</time>
      </trkpt>
      <trkpt lat="39.9076770" lon="-6.2767000">
        <ele>362.6</ele>
        <time>2021-10-16T15:08:45Z</time>
      </trkpt>
      <trkpt lat="39.9074980" lon="-6.2767550">
        <ele>363.0</ele>
        <time>2021-10-16T15:08:53Z</time>
      </trkpt>
      <trkpt lat="39.9074840" lon="-6.2767600">
        <ele>363.2</ele>
        <time>2021-10-16T15:08:54Z</time>
      </trkpt>
      <trkpt lat="39.9074700" lon="-6.2767680">
        <ele>363.2</ele>
        <time>2021-10-16T15:08:55Z</time>
      </trkpt>
      <trkpt lat="39.9073570" lon="-6.2767980">
        <ele>363.8</ele>
        <time>2021-10-16T15:09:02Z</time>
      </trkpt>
      <trkpt lat="39.9072910" lon="-6.2768320">
        <ele>364.2</ele>
        <time>2021-10-16T15:09:06Z</time>
      </trkpt>
      <trkpt lat="39.9072110" lon="-6.2768890">
        <ele>364.8</ele>
        <time>2021-10-16T15:09:11Z</time>
      </trkpt>
      <trkpt lat="39.9071660" lon="-6.2769020">
        <ele>365.2</ele>
        <time>2021-10-16T15:09:14Z</time>
      </trkpt>
      <trkpt lat="39.9071510" lon="-6.2769030">
        <ele>365.2</ele>
        <time>2021-10-16T15:09:15Z</time>
      </trkpt>
      <trkpt lat="39.9071100" lon="-6.2769020">
        <ele>365.6</ele>
        <time>2021-10-16T15:09:18Z</time>
      </trkpt>
      <trkpt lat="39.9070120" lon="-6.2769200">
        <ele>366.4</ele>
        <time>2021-10-16T15:09:25Z</time>
      </trkpt>
      <trkpt lat="39.9069950" lon="-6.2769190">
        <ele>366.4</ele>
        <time>2021-10-16T15:09:26Z</time>
      </trkpt>
      <trkpt lat="39.9068560" lon="-6.2769270">
        <ele>367.4</ele>
        <time>2021-10-16T15:09:34Z</time>
      </trkpt>
      <trkpt lat="39.9068190" lon="-6.2769250">
        <ele>368.2</ele>
        <time>2021-10-16T15:09:36Z</time>
      </trkpt>
      <trkpt lat="39.9067660" lon="-6.2769250">
        <ele>368.6</ele>
        <time>2021-10-16T15:09:39Z</time>
      </trkpt>
      <trkpt lat="39.9066750" lon="-6.2769520">
        <ele>369.6</ele>
        <time>2021-10-16T15:09:44Z</time>
      </trkpt>
      <trkpt lat="39.9066560" lon="-6.2769490">
        <ele>369.8</ele>
        <time>2021-10-16T15:09:45Z</time>
      </trkpt>
      <trkpt lat="39.9065360" lon="-6.2769210">
        <ele>370.6</ele>
        <time>2021-10-16T15:09:51Z</time>
      </trkpt>
      <trkpt lat="39.9064690" lon="-6.2768900">
        <ele>371.0</ele>
        <time>2021-10-16T15:09:54Z</time>
      </trkpt>
      <trkpt lat="39.9064450" lon="-6.2768800">
        <ele>371.0</ele>
        <time>2021-10-16T15:09:55Z</time>
      </trkpt>
      <trkpt lat="39.9064210" lon="-6.2768700">
        <ele>371.0</ele>
        <time>2021-10-16T15:09:56Z</time>
      </trkpt>
      <trkpt lat="39.9063330" lon="-6.2768360">
        <ele>371.2</ele>
        <time>2021-10-16T15:10:00Z</time>
      </trkpt>
      <trkpt lat="39.9062710" lon="-6.2768230">
        <ele>371.2</ele>
        <time>2021-10-16T15:10:03Z</time>
      </trkpt>
      <trkpt lat="39.9062310" lon="-6.2768150">
        <ele>371.4</ele>
        <time>2021-10-16T15:10:06Z</time>
      </trkpt>
      <trkpt lat="39.9061960" lon="-6.2768010">
        <ele>371.6</ele>
        <time>2021-10-16T15:10:07Z</time>
      </trkpt>
      <trkpt lat="39.9060990" lon="-6.2767390">
        <ele>371.8</ele>
        <time>2021-10-16T15:10:13Z</time>
      </trkpt>
      <trkpt lat="39.9059960" lon="-6.2765930">
        <ele>371.8</ele>
        <time>2021-10-16T15:10:18Z</time>
      </trkpt>
      <trkpt lat="39.9058150" lon="-6.2764540">
        <ele>371.8</ele>
        <time>2021-10-16T15:10:24Z</time>
      </trkpt>
      <trkpt lat="39.9056230" lon="-6.2764110">
        <ele>371.6</ele>
        <time>2021-10-16T15:10:30Z</time>
      </trkpt>
      <trkpt lat="39.9054640" lon="-6.2764370">
        <ele>371.4</ele>
        <time>2021-10-16T15:10:34Z</time>
      </trkpt>
      <trkpt lat="39.9054640" lon="-6.2764370">
        <ele>371.6</ele>
        <time>2021-10-16T15:10:35Z</time>
      </trkpt>
      <trkpt lat="39.9053200" lon="-6.2765450">
        <ele>371.6</ele>
        <time>2021-10-16T15:10:39Z</time>
      </trkpt>
      <trkpt lat="39.9051860" lon="-6.2766770">
        <ele>371.8</ele>
        <time>2021-10-16T15:10:44Z</time>
      </trkpt>
      <trkpt lat="39.9051290" lon="-6.2767170">
        <ele>372.0</ele>
        <time>2021-10-16T15:10:46Z</time>
      </trkpt>
      <trkpt lat="39.9050520" lon="-6.2767640">
        <ele>372.2</ele>
        <time>2021-10-16T15:10:49Z</time>
      </trkpt>
      <trkpt lat="39.9049070" lon="-6.2769040">
        <ele>373.0</ele>
        <time>2021-10-16T15:10:55Z</time>
      </trkpt>
      <trkpt lat="39.9048850" lon="-6.2769330">
        <ele>373.2</ele>
        <time>2021-10-16T15:10:56Z</time>
      </trkpt>
      <trkpt lat="39.9047430" lon="-6.2771350">
        <ele>374.2</ele>
        <time>2021-10-16T15:11:04Z</time>
      </trkpt>
      <trkpt lat="39.9046420" lon="-6.2771890">
        <ele>375.0</ele>
        <time>2021-10-16T15:11:09Z</time>
      </trkpt>
      <trkpt lat="39.9045740" lon="-6.2772350">
        <ele>375.2</ele>
        <time>2021-10-16T15:11:11Z</time>
      </trkpt>
      <trkpt lat="39.9044460" lon="-6.2773300">
        <ele>375.8</ele>
        <time>2021-10-16T15:11:17Z</time>
      </trkpt>
      <trkpt lat="39.9043380" lon="-6.2773740">
        <ele>376.4</ele>
        <time>2021-10-16T15:11:22Z</time>
      </trkpt>
      <trkpt lat="39.9043190" lon="-6.2773780">
        <ele>376.4</ele>
        <time>2021-10-16T15:11:23Z</time>
      </trkpt>
      <trkpt lat="39.9041900" lon="-6.2774420">
        <ele>377.2</ele>
        <time>2021-10-16T15:11:29Z</time>
      </trkpt>
      <trkpt lat="39.9041500" lon="-6.2774780">
        <ele>377.4</ele>
        <time>2021-10-16T15:11:31Z</time>
      </trkpt>
      <trkpt lat="39.9040290" lon="-6.2775910">
        <ele>378.2</ele>
        <time>2021-10-16T15:11:37Z</time>
      </trkpt>
      <trkpt lat="39.9039890" lon="-6.2776280">
        <ele>378.2</ele>
        <time>2021-10-16T15:11:39Z</time>
      </trkpt>
      <trkpt lat="39.9039320" lon="-6.2776820">
        <ele>378.6</ele>
        <time>2021-10-16T15:11:42Z</time>
      </trkpt>
      <trkpt lat="39.9038450" lon="-6.2777410">
        <ele>379.0</ele>
        <time>2021-10-16T15:11:47Z</time>
      </trkpt>
      <trkpt lat="39.9037560" lon="-6.2778130">
        <ele>379.4</ele>
        <time>2021-10-16T15:11:53Z</time>
      </trkpt>
      <trkpt lat="39.9037210" lon="-6.2778370">
        <ele>379.6</ele>
        <time>2021-10-16T15:11:55Z</time>
      </trkpt>
      <trkpt lat="39.9036250" lon="-6.2778900">
        <ele>380.6</ele>
        <time>2021-10-16T15:12:00Z</time>
      </trkpt>
      <trkpt lat="39.9036070" lon="-6.2779010">
        <ele>380.6</ele>
        <time>2021-10-16T15:12:01Z</time>
      </trkpt>
      <trkpt lat="39.9034670" lon="-6.2779550">
        <ele>381.0</ele>
        <time>2021-10-16T15:12:08Z</time>
      </trkpt>
      <trkpt lat="39.9033790" lon="-6.2779890">
        <ele>381.6</ele>
        <time>2021-10-16T15:12:13Z</time>
      </trkpt>
      <trkpt lat="39.9033320" lon="-6.2780140">
        <ele>382.0</ele>
        <time>2021-10-16T15:12:16Z</time>
      </trkpt>
      <trkpt lat="39.9032480" lon="-6.2780400">
        <ele>382.6</ele>
        <time>2021-10-16T15:12:21Z</time>
      </trkpt>
      <trkpt lat="39.9032060" lon="-6.2780490">
        <ele>383.0</ele>
        <time>2021-10-16T15:12:25Z</time>
      </trkpt>
      <trkpt lat="39.9031840" lon="-6.2780430">
        <ele>383.4</ele>
        <time>2021-10-16T15:12:30Z</time>
      </trkpt>
      <trkpt lat="39.9031740" lon="-6.2780470">
        <ele>383.4</ele>
        <time>2021-10-16T15:12:31Z</time>
      </trkpt>
      <trkpt lat="39.9031270" lon="-6.2780710">
        <ele>383.4</ele>
        <time>2021-10-16T15:12:38Z</time>
      </trkpt>
      <trkpt lat="39.9031270" lon="-6.2780710">
        <ele>383.4</ele>
        <time>2021-10-16T15:12:39Z</time>
      </trkpt>
      <trkpt lat="39.9030140" lon="-6.2779900">
        <ele>383.4</ele>
        <time>2021-10-16T15:13:15Z</time>
      </trkpt>
      <trkpt lat="39.9029990" lon="-6.2779720">
        <ele>383.4</ele>
        <time>2021-10-16T15:13:16Z</time>
      </trkpt>
      <trkpt lat="39.9029710" lon="-6.2779390">
        <ele>383.4</ele>
        <time>2021-10-16T15:13:18Z</time>
      </trkpt>
      <trkpt lat="39.9029430" lon="-6.2779080">
        <ele>383.6</ele>
        <time>2021-10-16T15:13:20Z</time>
      </trkpt>
      <trkpt lat="39.9028500" lon="-6.2778530">
        <ele>384.0</ele>
        <time>2021-10-16T15:13:26Z</time>
      </trkpt>
      <trkpt lat="39.9028030" lon="-6.2778270">
        <ele>384.6</ele>
        <time>2021-10-16T15:13:29Z</time>
      </trkpt>
      <trkpt lat="39.9027480" lon="-6.2778140">
        <ele>385.0</ele>
        <time>2021-10-16T15:13:32Z</time>
      </trkpt>
      <trkpt lat="39.9026950" lon="-6.2778370">
        <ele>385.6</ele>
        <time>2021-10-16T15:13:35Z</time>
      </trkpt>
      <trkpt lat="39.9026780" lon="-6.2778470">
        <ele>385.6</ele>
        <time>2021-10-16T15:13:36Z</time>
      </trkpt>
      <trkpt lat="39.9026410" lon="-6.2778690">
        <ele>385.8</ele>
        <time>2021-10-16T15:13:38Z</time>
      </trkpt>
      <trkpt lat="39.9025190" lon="-6.2779220">
        <ele>386.8</ele>
        <time>2021-10-16T15:13:46Z</time>
      </trkpt>
      <trkpt lat="39.9025010" lon="-6.2779260">
        <ele>386.8</ele>
        <time>2021-10-16T15:13:47Z</time>
      </trkpt>
      <trkpt lat="39.9024170" lon="-6.2779180">
        <ele>387.8</ele>
        <time>2021-10-16T15:13:52Z</time>
      </trkpt>
      <trkpt lat="39.9024040" lon="-6.2779240">
        <ele>388.2</ele>
        <time>2021-10-16T15:13:53Z</time>
      </trkpt>
      <trkpt lat="39.9023440" lon="-6.2779520">
        <ele>389.0</ele>
        <time>2021-10-16T15:13:57Z</time>
      </trkpt>
      <trkpt lat="39.9022770" lon="-6.2779640">
        <ele>389.6</ele>
        <time>2021-10-16T15:14:01Z</time>
      </trkpt>
      <trkpt lat="39.9022570" lon="-6.2779650">
        <ele>389.8</ele>
        <time>2021-10-16T15:14:02Z</time>
      </trkpt>
      <trkpt lat="39.9021960" lon="-6.2779650">
        <ele>390.0</ele>
        <time>2021-10-16T15:14:05Z</time>
      </trkpt>
      <trkpt lat="39.9020800" lon="-6.2779580">
        <ele>390.4</ele>
        <time>2021-10-16T15:14:10Z</time>
      </trkpt>
      <trkpt lat="39.9020260" lon="-6.2779610">
        <ele>390.6</ele>
        <time>2021-10-16T15:14:12Z</time>
      </trkpt>
      <trkpt lat="39.9019400" lon="-6.2779690">
        <ele>390.6</ele>
        <time>2021-10-16T15:14:15Z</time>
      </trkpt>
      <trkpt lat="39.9018580" lon="-6.2779820">
        <ele>390.6</ele>
        <time>2021-10-16T15:14:18Z</time>
      </trkpt>
      <trkpt lat="39.9018300" lon="-6.2779920">
        <ele>390.6</ele>
        <time>2021-10-16T15:14:19Z</time>
      </trkpt>
      <trkpt lat="39.9016820" lon="-6.2780970">
        <ele>391.0</ele>
        <time>2021-10-16T15:14:26Z</time>
      </trkpt>
      <trkpt lat="39.9016660" lon="-6.2781150">
        <ele>391.2</ele>
        <time>2021-10-16T15:14:27Z</time>
      </trkpt>
      <trkpt lat="39.9015740" lon="-6.2781870">
        <ele>391.8</ele>
        <time>2021-10-16T15:14:32Z</time>
      </trkpt>
      <trkpt lat="39.9015550" lon="-6.2781990">
        <ele>392.0</ele>
        <time>2021-10-16T15:14:33Z</time>
      </trkpt>
      <trkpt lat="39.9014980" lon="-6.2782280">
        <ele>392.2</ele>
        <time>2021-10-16T15:14:36Z</time>
      </trkpt>
      <trkpt lat="39.9014110" lon="-6.2782620">
        <ele>392.8</ele>
        <time>2021-10-16T15:14:41Z</time>
      </trkpt>
      <trkpt lat="39.9013230" lon="-6.2782710">
        <ele>393.4</ele>
        <time>2021-10-16T15:14:46Z</time>
      </trkpt>
      <trkpt lat="39.9012860" lon="-6.2782820">
        <ele>393.6</ele>
        <time>2021-10-16T15:14:48Z</time>
      </trkpt>
      <trkpt lat="39.9011660" lon="-6.2782970">
        <ele>394.6</ele>
        <time>2021-10-16T15:14:55Z</time>
      </trkpt>
      <trkpt lat="39.9010790" lon="-6.2783310">
        <ele>395.2</ele>
        <time>2021-10-16T15:15:00Z</time>
      </trkpt>
      <trkpt lat="39.9010450" lon="-6.2783510">
        <ele>395.6</ele>
        <time>2021-10-16T15:15:02Z</time>
      </trkpt>
      <trkpt lat="39.9010130" lon="-6.2783750">
        <ele>395.6</ele>
        <time>2021-10-16T15:15:04Z</time>
      </trkpt>
      <trkpt lat="39.9009050" lon="-6.2784930">
        <ele>396.4</ele>
        <time>2021-10-16T15:15:12Z</time>
      </trkpt>
      <trkpt lat="39.9008620" lon="-6.2785400">
        <ele>396.6</ele>
        <time>2021-10-16T15:15:15Z</time>
      </trkpt>
      <trkpt lat="39.9007990" lon="-6.2785760">
        <ele>396.8</ele>
        <time>2021-10-16T15:15:19Z</time>
      </trkpt>
      <trkpt lat="39.9007270" lon="-6.2786060">
        <ele>397.8</ele>
        <time>2021-10-16T15:15:24Z</time>
      </trkpt>
      <trkpt lat="39.9006850" lon="-6.2786320">
        <ele>398.2</ele>
        <time>2021-10-16T15:15:27Z</time>
      </trkpt>
      <trkpt lat="39.9006100" lon="-6.2786530">
        <ele>398.8</ele>
        <time>2021-10-16T15:15:32Z</time>
      </trkpt>
      <trkpt lat="39.9005530" lon="-6.2786680">
        <ele>399.4</ele>
        <time>2021-10-16T15:15:36Z</time>
      </trkpt>
      <trkpt lat="39.9005030" lon="-6.2786720">
        <ele>399.8</ele>
        <time>2021-10-16T15:15:40Z</time>
      </trkpt>
      <trkpt lat="39.9004890" lon="-6.2786740">
        <ele>400.0</ele>
        <time>2021-10-16T15:15:41Z</time>
      </trkpt>
      <trkpt lat="39.9004450" lon="-6.2786850">
        <ele>400.4</ele>
        <time>2021-10-16T15:15:44Z</time>
      </trkpt>
      <trkpt lat="39.9003920" lon="-6.2786770">
        <ele>401.0</ele>
        <time>2021-10-16T15:15:48Z</time>
      </trkpt>
      <trkpt lat="39.9003500" lon="-6.2786850">
        <ele>401.4</ele>
        <time>2021-10-16T15:15:51Z</time>
      </trkpt>
      <trkpt lat="39.9002940" lon="-6.2787210">
        <ele>402.0</ele>
        <time>2021-10-16T15:15:55Z</time>
      </trkpt>
      <trkpt lat="39.9002630" lon="-6.2787260">
        <ele>402.2</ele>
        <time>2021-10-16T15:15:57Z</time>
      </trkpt>
      <trkpt lat="39.9002500" lon="-6.2787270">
        <ele>402.2</ele>
        <time>2021-10-16T15:15:58Z</time>
      </trkpt>
      <trkpt lat="39.9002330" lon="-6.2787310">
        <ele>402.4</ele>
        <time>2021-10-16T15:15:59Z</time>
      </trkpt>
      <trkpt lat="39.9001490" lon="-6.2787700">
        <ele>402.8</ele>
        <time>2021-10-16T15:16:04Z</time>
      </trkpt>
      <trkpt lat="39.9000690" lon="-6.2787840">
        <ele>403.2</ele>
        <time>2021-10-16T15:16:08Z</time>
      </trkpt>
      <trkpt lat="39.8999950" lon="-6.2787980">
        <ele>403.2</ele>
        <time>2021-10-16T15:16:12Z</time>
      </trkpt>
      <trkpt lat="39.8999260" lon="-6.2788030">
        <ele>403.4</ele>
        <time>2021-10-16T15:16:16Z</time>
      </trkpt>
      <trkpt lat="39.8998600" lon="-6.2788080">
        <ele>403.6</ele>
        <time>2021-10-16T15:16:19Z</time>
      </trkpt>
      <trkpt lat="39.8998110" lon="-6.2788120">
        <ele>403.8</ele>
        <time>2021-10-16T15:16:21Z</time>
      </trkpt>
      <trkpt lat="39.8996720" lon="-6.2788400">
        <ele>404.0</ele>
        <time>2021-10-16T15:16:27Z</time>
      </trkpt>
      <trkpt lat="39.8995060" lon="-6.2788760">
        <ele>404.2</ele>
        <time>2021-10-16T15:16:34Z</time>
      </trkpt>
      <trkpt lat="39.8994330" lon="-6.2788870">
        <ele>404.4</ele>
        <time>2021-10-16T15:16:37Z</time>
      </trkpt>
      <trkpt lat="39.8993110" lon="-6.2789000">
        <ele>404.6</ele>
        <time>2021-10-16T15:16:42Z</time>
      </trkpt>
      <trkpt lat="39.8992250" lon="-6.2789100">
        <ele>404.8</ele>
        <time>2021-10-16T15:16:45Z</time>
      </trkpt>
      <trkpt lat="39.8990410" lon="-6.2789040">
        <ele>405.2</ele>
        <time>2021-10-16T15:16:52Z</time>
      </trkpt>
      <trkpt lat="39.8990140" lon="-6.2789020">
        <ele>405.2</ele>
        <time>2021-10-16T15:16:53Z</time>
      </trkpt>
      <trkpt lat="39.8988490" lon="-6.2789050">
        <ele>405.2</ele>
        <time>2021-10-16T15:16:59Z</time>
      </trkpt>
      <trkpt lat="39.8987690" lon="-6.2789340">
        <ele>405.2</ele>
        <time>2021-10-16T15:17:02Z</time>
      </trkpt>
      <trkpt lat="39.8986390" lon="-6.2790220">
        <ele>405.6</ele>
        <time>2021-10-16T15:17:08Z</time>
      </trkpt>
      <trkpt lat="39.8985580" lon="-6.2791360">
        <ele>406.2</ele>
        <time>2021-10-16T15:17:13Z</time>
      </trkpt>
      <trkpt lat="39.8985380" lon="-6.2791500">
        <ele>406.4</ele>
        <time>2021-10-16T15:17:14Z</time>
      </trkpt>
      <trkpt lat="39.8984080" lon="-6.2792030">
        <ele>407.0</ele>
        <time>2021-10-16T15:17:20Z</time>
      </trkpt>
      <trkpt lat="39.8983180" lon="-6.2792230">
        <ele>407.6</ele>
        <time>2021-10-16T15:17:24Z</time>
      </trkpt>
      <trkpt lat="39.8982960" lon="-6.2792330">
        <ele>407.6</ele>
        <time>2021-10-16T15:17:25Z</time>
      </trkpt>
      <trkpt lat="39.8982440" lon="-6.2792590">
        <ele>408.8</ele>
        <time>2021-10-16T15:17:28Z</time>
      </trkpt>
      <trkpt lat="39.8981930" lon="-6.2792860">
        <ele>409.4</ele>
        <time>2021-10-16T15:17:31Z</time>
      </trkpt>
      <trkpt lat="39.8981670" lon="-6.2793030">
        <ele>409.8</ele>
        <time>2021-10-16T15:17:33Z</time>
      </trkpt>
      <trkpt lat="39.8980580" lon="-6.2793690">
        <ele>410.4</ele>
        <time>2021-10-16T15:17:39Z</time>
      </trkpt>
      <trkpt lat="39.8980130" lon="-6.2794000">
        <ele>410.6</ele>
        <time>2021-10-16T15:17:42Z</time>
      </trkpt>
      <trkpt lat="39.8979810" lon="-6.2794220">
        <ele>410.8</ele>
        <time>2021-10-16T15:17:44Z</time>
      </trkpt>
      <trkpt lat="39.8979090" lon="-6.2794660">
        <ele>411.4</ele>
        <time>2021-10-16T15:17:48Z</time>
      </trkpt>
      <trkpt lat="39.8978310" lon="-6.2795260">
        <ele>411.8</ele>
        <time>2021-10-16T15:17:52Z</time>
      </trkpt>
      <trkpt lat="39.8978120" lon="-6.2795440">
        <ele>411.8</ele>
        <time>2021-10-16T15:17:53Z</time>
      </trkpt>
      <trkpt lat="39.8977860" lon="-6.2795810">
        <ele>412.0</ele>
        <time>2021-10-16T15:17:55Z</time>
      </trkpt>
      <trkpt lat="39.8977030" lon="-6.2796620">
        <ele>412.2</ele>
        <time>2021-10-16T15:18:01Z</time>
      </trkpt>
      <trkpt lat="39.8975840" lon="-6.2797520">
        <ele>412.6</ele>
        <time>2021-10-16T15:18:08Z</time>
      </trkpt>
      <trkpt lat="39.8975460" lon="-6.2797780">
        <ele>412.8</ele>
        <time>2021-10-16T15:18:10Z</time>
      </trkpt>
      <trkpt lat="39.8974490" lon="-6.2798600">
        <ele>413.2</ele>
        <time>2021-10-16T15:18:15Z</time>
      </trkpt>
      <trkpt lat="39.8972900" lon="-6.2799900">
        <ele>413.4</ele>
        <time>2021-10-16T15:18:23Z</time>
      </trkpt>
      <trkpt lat="39.8971740" lon="-6.2800670">
        <ele>413.8</ele>
        <time>2021-10-16T15:18:28Z</time>
      </trkpt>
      <trkpt lat="39.8971300" lon="-6.2800980">
        <ele>413.8</ele>
        <time>2021-10-16T15:18:30Z</time>
      </trkpt>
      <trkpt lat="39.8970930" lon="-6.2801290">
        <ele>414.0</ele>
        <time>2021-10-16T15:18:32Z</time>
      </trkpt>
      <trkpt lat="39.8970380" lon="-6.2802090">
        <ele>414.0</ele>
        <time>2021-10-16T15:18:37Z</time>
      </trkpt>
      <trkpt lat="39.8970390" lon="-6.2802390">
        <ele>414.0</ele>
        <time>2021-10-16T15:18:39Z</time>
      </trkpt>
      <trkpt lat="39.8970400" lon="-6.2802420">
        <ele>414.0</ele>
        <time>2021-10-16T15:18:42Z</time>
      </trkpt>
      <trkpt lat="39.8969940" lon="-6.2803770">
        <ele>414.4</ele>
        <time>2021-10-16T15:19:57Z</time>
      </trkpt>
      <trkpt lat="39.8969760" lon="-6.2803890">
        <ele>414.4</ele>
        <time>2021-10-16T15:19:58Z</time>
      </trkpt>
      <trkpt lat="39.8969570" lon="-6.2804020">
        <ele>414.4</ele>
        <time>2021-10-16T15:19:59Z</time>
      </trkpt>
      <trkpt lat="39.8968830" lon="-6.2804590">
        <ele>414.4</ele>
        <time>2021-10-16T15:20:03Z</time>
      </trkpt>
      <trkpt lat="39.8968470" lon="-6.2804880">
        <ele>414.4</ele>
        <time>2021-10-16T15:20:05Z</time>
      </trkpt>
      <trkpt lat="39.8967820" lon="-6.2805350">
        <ele>414.4</ele>
        <time>2021-10-16T15:20:08Z</time>
      </trkpt>
      <trkpt lat="39.8966660" lon="-6.2806550">
        <ele>414.4</ele>
        <time>2021-10-16T15:20:13Z</time>
      </trkpt>
      <trkpt lat="39.8964250" lon="-6.2808430">
        <ele>414.2</ele>
        <time>2021-10-16T15:20:21Z</time>
      </trkpt>
      <trkpt lat="39.8962330" lon="-6.2810100">
        <ele>414.0</ele>
        <time>2021-10-16T15:20:27Z</time>
      </trkpt>
      <trkpt lat="39.8961020" lon="-6.2811140">
        <ele>414.0</ele>
        <time>2021-10-16T15:20:31Z</time>
      </trkpt>
      <trkpt lat="39.8959280" lon="-6.2812580">
        <ele>414.0</ele>
        <time>2021-10-16T15:20:36Z</time>
      </trkpt>
      <trkpt lat="39.8957190" lon="-6.2814350">
        <ele>414.0</ele>
        <time>2021-10-16T15:20:42Z</time>
      </trkpt>
      <trkpt lat="39.8954230" lon="-6.2816680">
        <ele>414.4</ele>
        <time>2021-10-16T15:20:51Z</time>
      </trkpt>
      <trkpt lat="39.8953730" lon="-6.2817130">
        <ele>414.6</ele>
        <time>2021-10-16T15:20:53Z</time>
      </trkpt>
      <trkpt lat="39.8953200" lon="-6.2817580">
        <ele>415.0</ele>
        <time>2021-10-16T15:20:56Z</time>
      </trkpt>
      <trkpt lat="39.8952360" lon="-6.2817970">
        <ele>415.4</ele>
        <time>2021-10-16T15:21:01Z</time>
      </trkpt>
      <trkpt lat="39.8952160" lon="-6.2818090">
        <ele>415.6</ele>
        <time>2021-10-16T15:21:02Z</time>
      </trkpt>
      <trkpt lat="39.8951960" lon="-6.2818240">
        <ele>415.8</ele>
        <time>2021-10-16T15:21:03Z</time>
      </trkpt>
      <trkpt lat="39.8951280" lon="-6.2819080">
        <ele>416.2</ele>
        <time>2021-10-16T15:21:08Z</time>
      </trkpt>
      <trkpt lat="39.8950840" lon="-6.2819700">
        <ele>416.6</ele>
        <time>2021-10-16T15:21:11Z</time>
      </trkpt>
      <trkpt lat="39.8950250" lon="-6.2820750">
        <ele>417.4</ele>
        <time>2021-10-16T15:21:16Z</time>
      </trkpt>
      <trkpt lat="39.8950110" lon="-6.2820940">
        <ele>417.8</ele>
        <time>2021-10-16T15:21:17Z</time>
      </trkpt>
      <trkpt lat="39.8949410" lon="-6.2821700">
        <ele>419.0</ele>
        <time>2021-10-16T15:21:23Z</time>
      </trkpt>
      <trkpt lat="39.8949270" lon="-6.2821780">
        <ele>419.0</ele>
        <time>2021-10-16T15:21:24Z</time>
      </trkpt>
      <trkpt lat="39.8947630" lon="-6.2822440">
        <ele>420.0</ele>
        <time>2021-10-16T15:21:32Z</time>
      </trkpt>
      <trkpt lat="39.8947160" lon="-6.2822570">
        <ele>420.0</ele>
        <time>2021-10-16T15:21:34Z</time>
      </trkpt>
      <trkpt lat="39.8944910" lon="-6.2823740">
        <ele>420.2</ele>
        <time>2021-10-16T15:21:43Z</time>
      </trkpt>
      <trkpt lat="39.8943350" lon="-6.2824850">
        <ele>420.6</ele>
        <time>2021-10-16T15:21:49Z</time>
      </trkpt>
      <trkpt lat="39.8942520" lon="-6.2825450">
        <ele>420.8</ele>
        <time>2021-10-16T15:21:52Z</time>
      </trkpt>
      <trkpt lat="39.8940160" lon="-6.2826680">
        <ele>420.8</ele>
        <time>2021-10-16T15:21:59Z</time>
      </trkpt>
      <trkpt lat="39.8937930" lon="-6.2828140">
        <ele>421.0</ele>
        <time>2021-10-16T15:22:06Z</time>
      </trkpt>
      <trkpt lat="39.8936690" lon="-6.2828720">
        <ele>421.2</ele>
        <time>2021-10-16T15:22:10Z</time>
      </trkpt>
      <trkpt lat="39.8936440" lon="-6.2828930">
        <ele>421.2</ele>
        <time>2021-10-16T15:22:11Z</time>
      </trkpt>
      <trkpt lat="39.8934940" lon="-6.2830070">
        <ele>421.4</ele>
        <time>2021-10-16T15:22:17Z</time>
      </trkpt>
      <trkpt lat="39.8934710" lon="-6.2830230">
        <ele>421.6</ele>
        <time>2021-10-16T15:22:18Z</time>
      </trkpt>
      <trkpt lat="39.8933540" lon="-6.2830920">
        <ele>422.0</ele>
        <time>2021-10-16T15:22:23Z</time>
      </trkpt>
      <trkpt lat="39.8933110" lon="-6.2831210">
        <ele>422.2</ele>
        <time>2021-10-16T15:22:25Z</time>
      </trkpt>
      <trkpt lat="39.8931310" lon="-6.2832420">
        <ele>422.8</ele>
        <time>2021-10-16T15:22:33Z</time>
      </trkpt>
      <trkpt lat="39.8930580" lon="-6.2832850">
        <ele>423.0</ele>
        <time>2021-10-16T15:22:36Z</time>
      </trkpt>
      <trkpt lat="39.8929880" lon="-6.2833320">
        <ele>423.4</ele>
        <time>2021-10-16T15:22:39Z</time>
      </trkpt>
      <trkpt lat="39.8928150" lon="-6.2834500">
        <ele>424.0</ele>
        <time>2021-10-16T15:22:47Z</time>
      </trkpt>
      <trkpt lat="39.8927930" lon="-6.2834640">
        <ele>424.0</ele>
        <time>2021-10-16T15:22:48Z</time>
      </trkpt>
      <trkpt lat="39.8926720" lon="-6.2835770">
        <ele>424.8</ele>
        <time>2021-10-16T15:22:55Z</time>
      </trkpt>
      <trkpt lat="39.8926220" lon="-6.2836200">
        <ele>425.2</ele>
        <time>2021-10-16T15:22:58Z</time>
      </trkpt>
      <trkpt lat="39.8925720" lon="-6.2836830">
        <ele>425.6</ele>
        <time>2021-10-16T15:23:01Z</time>
      </trkpt>
      <trkpt lat="39.8924940" lon="-6.2838000">
        <ele>426.0</ele>
        <time>2021-10-16T15:23:07Z</time>
      </trkpt>
      <trkpt lat="39.8923800" lon="-6.2839640">
        <ele>426.0</ele>
        <time>2021-10-16T15:23:12Z</time>
      </trkpt>
      <trkpt lat="39.8922670" lon="-6.2841210">
        <ele>425.6</ele>
        <time>2021-10-16T15:23:16Z</time>
      </trkpt>
      <trkpt lat="39.8922180" lon="-6.2841920">
        <ele>425.0</ele>
        <time>2021-10-16T15:23:18Z</time>
      </trkpt>
      <trkpt lat="39.8921590" lon="-6.2842870">
        <ele>424.6</ele>
        <time>2021-10-16T15:23:21Z</time>
      </trkpt>
      <trkpt lat="39.8920970" lon="-6.2843810">
        <ele>424.6</ele>
        <time>2021-10-16T15:23:24Z</time>
      </trkpt>
      <trkpt lat="39.8919660" lon="-6.2846380">
        <ele>424.8</ele>
        <time>2021-10-16T15:23:31Z</time>
      </trkpt>
      <trkpt lat="39.8918140" lon="-6.2848770">
        <ele>425.0</ele>
        <time>2021-10-16T15:23:39Z</time>
      </trkpt>
      <trkpt lat="39.8916840" lon="-6.2850900">
        <ele>426.0</ele>
        <time>2021-10-16T15:23:47Z</time>
      </trkpt>
      <trkpt lat="39.8916700" lon="-6.2851150">
        <ele>426.0</ele>
        <time>2021-10-16T15:23:48Z</time>
      </trkpt>
      <trkpt lat="39.8915840" lon="-6.2851980">
        <ele>426.4</ele>
        <time>2021-10-16T15:23:53Z</time>
      </trkpt>
      <trkpt lat="39.8915450" lon="-6.2852700">
        <ele>427.2</ele>
        <time>2021-10-16T15:23:57Z</time>
      </trkpt>
      <trkpt lat="39.8915380" lon="-6.2852910">
        <ele>427.4</ele>
        <time>2021-10-16T15:23:58Z</time>
      </trkpt>
      <trkpt lat="39.8914920" lon="-6.2854340">
        <ele>428.2</ele>
        <time>2021-10-16T15:24:05Z</time>
      </trkpt>
      <trkpt lat="39.8914840" lon="-6.2854540">
        <ele>428.2</ele>
        <time>2021-10-16T15:24:06Z</time>
      </trkpt>
      <trkpt lat="39.8914380" lon="-6.2855100">
        <ele>428.8</ele>
        <time>2021-10-16T15:24:09Z</time>
      </trkpt>
      <trkpt lat="39.8913980" lon="-6.2855300">
        <ele>429.0</ele>
        <time>2021-10-16T15:24:11Z</time>
      </trkpt>
      <trkpt lat="39.8913290" lon="-6.2855540">
        <ele>429.2</ele>
        <time>2021-10-16T15:24:15Z</time>
      </trkpt>
      <trkpt lat="39.8913180" lon="-6.2855580">
        <ele>430.0</ele>
        <time>2021-10-16T15:24:17Z</time>
      </trkpt>
      <trkpt lat="39.8913170" lon="-6.2855620">
        <ele>430.2</ele>
        <time>2021-10-16T15:24:19Z</time>
      </trkpt>
      <trkpt lat="39.8912590" lon="-6.2855580">
        <ele>430.4</ele>
        <time>2021-10-16T15:25:50Z</time>
      </trkpt>
      <trkpt lat="39.8912460" lon="-6.2855730">
        <ele>430.4</ele>
        <time>2021-10-16T15:25:51Z</time>
      </trkpt>
      <trkpt lat="39.8912310" lon="-6.2855970">
        <ele>430.4</ele>
        <time>2021-10-16T15:25:52Z</time>
      </trkpt>
      <trkpt lat="39.8911390" lon="-6.2857420">
        <ele>430.6</ele>
        <time>2021-10-16T15:25:58Z</time>
      </trkpt>
      <trkpt lat="39.8910920" lon="-6.2858230">
        <ele>430.6</ele>
        <time>2021-10-16T15:26:02Z</time>
      </trkpt>
      <trkpt lat="39.8910370" lon="-6.2859290">
        <ele>431.2</ele>
        <time>2021-10-16T15:26:07Z</time>
      </trkpt>
      <trkpt lat="39.8909180" lon="-6.2861270">
        <ele>432.0</ele>
        <time>2021-10-16T15:26:16Z</time>
      </trkpt>
      <trkpt lat="39.8908960" lon="-6.2861680">
        <ele>432.2</ele>
        <time>2021-10-16T15:26:18Z</time>
      </trkpt>
      <trkpt lat="39.8908310" lon="-6.2862720">
        <ele>432.8</ele>
        <time>2021-10-16T15:26:23Z</time>
      </trkpt>
      <trkpt lat="39.8907860" lon="-6.2863380">
        <ele>433.0</ele>
        <time>2021-10-16T15:26:26Z</time>
      </trkpt>
      <trkpt lat="39.8907590" lon="-6.2863790">
        <ele>433.4</ele>
        <time>2021-10-16T15:26:28Z</time>
      </trkpt>
      <trkpt lat="39.8907310" lon="-6.2864190">
        <ele>433.6</ele>
        <time>2021-10-16T15:26:30Z</time>
      </trkpt>
      <trkpt lat="39.8906600" lon="-6.2865300">
        <ele>434.4</ele>
        <time>2021-10-16T15:26:36Z</time>
      </trkpt>
      <trkpt lat="39.8906230" lon="-6.2865890">
        <ele>434.8</ele>
        <time>2021-10-16T15:26:39Z</time>
      </trkpt>
      <trkpt lat="39.8906120" lon="-6.2866100">
        <ele>434.8</ele>
        <time>2021-10-16T15:26:40Z</time>
      </trkpt>
      <trkpt lat="39.8905480" lon="-6.2867080">
        <ele>435.4</ele>
        <time>2021-10-16T15:26:45Z</time>
      </trkpt>
      <trkpt lat="39.8904940" lon="-6.2867840">
        <ele>435.8</ele>
        <time>2021-10-16T15:26:49Z</time>
      </trkpt>
      <trkpt lat="39.8904200" lon="-6.2868840">
        <ele>436.4</ele>
        <time>2021-10-16T15:26:54Z</time>
      </trkpt>
      <trkpt lat="39.8903310" lon="-6.2870160">
        <ele>437.2</ele>
        <time>2021-10-16T15:27:01Z</time>
      </trkpt>
      <trkpt lat="39.8902950" lon="-6.2870710">
        <ele>437.2</ele>
        <time>2021-10-16T15:27:04Z</time>
      </trkpt>
      <trkpt lat="39.8902260" lon="-6.2871620">
        <ele>438.0</ele>
        <time>2021-10-16T15:27:09Z</time>
      </trkpt>
      <trkpt lat="39.8902000" lon="-6.2871960">
        <ele>438.4</ele>
        <time>2021-10-16T15:27:11Z</time>
      </trkpt>
      <trkpt lat="39.8900980" lon="-6.2873240">
        <ele>439.0</ele>
        <time>2021-10-16T15:27:17Z</time>
      </trkpt>
      <trkpt lat="39.8899600" lon="-6.2875220">
        <ele>439.0</ele>
        <time>2021-10-16T15:27:24Z</time>
      </trkpt>
      <trkpt lat="39.8898760" lon="-6.2876330">
        <ele>439.2</ele>
        <time>2021-10-16T15:27:28Z</time>
      </trkpt>
      <trkpt lat="39.8898340" lon="-6.2876840">
        <ele>439.2</ele>
        <time>2021-10-16T15:27:30Z</time>
      </trkpt>
      <trkpt lat="39.8898090" lon="-6.2877140">
        <ele>439.4</ele>
        <time>2021-10-16T15:27:31Z</time>
      </trkpt>
      <trkpt lat="39.8897770" lon="-6.2877540">
        <ele>439.4</ele>
        <time>2021-10-16T15:27:32Z</time>
      </trkpt>
      <trkpt lat="39.8896330" lon="-6.2879420">
        <ele>439.2</ele>
        <time>2021-10-16T15:27:37Z</time>
      </trkpt>
      <trkpt lat="39.8895180" lon="-6.2881010">
        <ele>439.0</ele>
        <time>2021-10-16T15:27:41Z</time>
      </trkpt>
      <trkpt lat="39.8893870" lon="-6.2882670">
        <ele>438.8</ele>
        <time>2021-10-16T15:27:45Z</time>
      </trkpt>
      <trkpt lat="39.8893540" lon="-6.2883120">
        <ele>438.6</ele>
        <time>2021-10-16T15:27:46Z</time>
      </trkpt>
      <trkpt lat="39.8892830" lon="-6.2883970">
        <ele>438.6</ele>
        <time>2021-10-16T15:27:48Z</time>
      </trkpt>
      <trkpt lat="39.8891640" lon="-6.2885070">
        <ele>438.4</ele>
        <time>2021-10-16T15:27:51Z</time>
      </trkpt>
      <trkpt lat="39.8891210" lon="-6.2885460">
        <ele>438.2</ele>
        <time>2021-10-16T15:27:52Z</time>
      </trkpt>
      <trkpt lat="39.8889400" lon="-6.2887270">
        <ele>437.8</ele>
        <time>2021-10-16T15:27:56Z</time>
      </trkpt>
      <trkpt lat="39.8888320" lon="-6.2888320">
        <ele>437.2</ele>
        <time>2021-10-16T15:27:58Z</time>
      </trkpt>
      <trkpt lat="39.8886650" lon="-6.2890030">
        <ele>435.8</ele>
        <time>2021-10-16T15:28:01Z</time>
      </trkpt>
      <trkpt lat="39.8884420" lon="-6.2892540">
        <ele>434.8</ele>
        <time>2021-10-16T15:28:05Z</time>
      </trkpt>
      <trkpt lat="39.8883850" lon="-6.2893160">
        <ele>434.4</ele>
        <time>2021-10-16T15:28:06Z</time>
      </trkpt>
      <trkpt lat="39.8882200" lon="-6.2894820">
        <ele>433.6</ele>
        <time>2021-10-16T15:28:09Z</time>
      </trkpt>
      <trkpt lat="39.8879720" lon="-6.2896970">
        <ele>433.0</ele>
        <time>2021-10-16T15:28:13Z</time>
      </trkpt>
      <trkpt lat="39.8879200" lon="-6.2897320">
        <ele>432.6</ele>
        <time>2021-10-16T15:28:14Z</time>
      </trkpt>
      <trkpt lat="39.8877440" lon="-6.2898460">
        <ele>432.2</ele>
        <time>2021-10-16T15:28:18Z</time>
      </trkpt>
      <trkpt lat="39.8875260" lon="-6.2899960">
        <ele>432.0</ele>
        <time>2021-10-16T15:28:24Z</time>
      </trkpt>
      <trkpt lat="39.8872320" lon="-6.2902150">
        <ele>431.8</ele>
        <time>2021-10-16T15:28:32Z</time>
      </trkpt>
      <trkpt lat="39.8871990" lon="-6.2902380">
        <ele>431.8</ele>
        <time>2021-10-16T15:28:33Z</time>
      </trkpt>
      <trkpt lat="39.8870120" lon="-6.2903290">
        <ele>431.8</ele>
        <time>2021-10-16T15:28:38Z</time>
      </trkpt>
      <trkpt lat="39.8868850" lon="-6.2903760">
        <ele>432.0</ele>
        <time>2021-10-16T15:28:43Z</time>
      </trkpt>
      <trkpt lat="39.8868390" lon="-6.2904000">
        <ele>432.0</ele>
        <time>2021-10-16T15:28:49Z</time>
      </trkpt>
      <trkpt lat="39.8868390" lon="-6.2904000">
        <ele>432.0</ele>
        <time>2021-10-16T15:28:50Z</time>
      </trkpt>
      <trkpt lat="39.8867650" lon="-6.2904640">
        <ele>431.6</ele>
        <time>2021-10-16T15:29:26Z</time>
      </trkpt>
      <trkpt lat="39.8867420" lon="-6.2904620">
        <ele>431.6</ele>
        <time>2021-10-16T15:29:27Z</time>
      </trkpt>
      <trkpt lat="39.8867180" lon="-6.2904630">
        <ele>431.6</ele>
        <time>2021-10-16T15:29:28Z</time>
      </trkpt>
      <trkpt lat="39.8866520" lon="-6.2904830">
        <ele>431.4</ele>
        <time>2021-10-16T15:29:31Z</time>
      </trkpt>
      <trkpt lat="39.8865970" lon="-6.2905140">
        <ele>431.2</ele>
        <time>2021-10-16T15:29:34Z</time>
      </trkpt>
      <trkpt lat="39.8864520" lon="-6.2905490">
        <ele>431.0</ele>
        <time>2021-10-16T15:29:42Z</time>
      </trkpt>
      <trkpt lat="39.8864270" lon="-6.2905540">
        <ele>431.0</ele>
        <time>2021-10-16T15:29:44Z</time>
      </trkpt>
      <trkpt lat="39.8864390" lon="-6.2905950">
        <ele>431.0</ele>
        <time>2021-10-16T15:29:46Z</time>
      </trkpt>
      <trkpt lat="39.8864930" lon="-6.2907510">
        <ele>430.8</ele>
        <time>2021-10-16T15:29:50Z</time>
      </trkpt>
      <trkpt lat="39.8864820" lon="-6.2908270">
        <ele>430.4</ele>
        <time>2021-10-16T15:29:52Z</time>
      </trkpt>
      <trkpt lat="39.8864640" lon="-6.2908620">
        <ele>430.2</ele>
        <time>2021-10-16T15:29:53Z</time>
      </trkpt>
      <trkpt lat="39.8864390" lon="-6.2908880">
        <ele>430.0</ele>
        <time>2021-10-16T15:29:54Z</time>
      </trkpt>
      <trkpt lat="39.8863880" lon="-6.2909430">
        <ele>429.2</ele>
        <time>2021-10-16T15:29:56Z</time>
      </trkpt>
      <trkpt lat="39.8862740" lon="-6.2910540">
        <ele>428.0</ele>
        <time>2021-10-16T15:30:00Z</time>
      </trkpt>
      <trkpt lat="39.8861880" lon="-6.2911250">
        <ele>426.8</ele>
        <time>2021-10-16T15:30:03Z</time>
      </trkpt>
      <trkpt lat="39.8861470" lon="-6.2911850">
        <ele>426.2</ele>
        <time>2021-10-16T15:30:05Z</time>
      </trkpt>
      <trkpt lat="39.8860950" lon="-6.2912580">
        <ele>425.6</ele>
        <time>2021-10-16T15:30:08Z</time>
      </trkpt>
      <trkpt lat="39.8860600" lon="-6.2913190">
        <ele>425.2</ele>
        <time>2021-10-16T15:30:11Z</time>
      </trkpt>
      <trkpt lat="39.8859510" lon="-6.2914440">
        <ele>424.2</ele>
        <time>2021-10-16T15:30:16Z</time>
      </trkpt>
      <trkpt lat="39.8858740" lon="-6.2915270">
        <ele>423.2</ele>
        <time>2021-10-16T15:30:19Z</time>
      </trkpt>
      <trkpt lat="39.8858150" lon="-6.2915730">
        <ele>422.4</ele>
        <time>2021-10-16T15:30:21Z</time>
      </trkpt>
      <trkpt lat="39.8857860" lon="-6.2915990">
        <ele>422.0</ele>
        <time>2021-10-16T15:30:22Z</time>
      </trkpt>
      <trkpt lat="39.8856950" lon="-6.2916760">
        <ele>420.8</ele>
        <time>2021-10-16T15:30:25Z</time>
      </trkpt>
      <trkpt lat="39.8855980" lon="-6.2917630">
        <ele>420.2</ele>
        <time>2021-10-16T15:30:28Z</time>
      </trkpt>
      <trkpt lat="39.8855350" lon="-6.2918280">
        <ele>419.8</ele>
        <time>2021-10-16T15:30:30Z</time>
      </trkpt>
      <trkpt lat="39.8853990" lon="-6.2919990">
        <ele>418.8</ele>
        <time>2021-10-16T15:30:34Z</time>
      </trkpt>
      <trkpt lat="39.8851100" lon="-6.2924270">
        <ele>417.6</ele>
        <time>2021-10-16T15:30:42Z</time>
      </trkpt>
      <trkpt lat="39.8849500" lon="-6.2926520">
        <ele>417.0</ele>
        <time>2021-10-16T15:30:46Z</time>
      </trkpt>
      <trkpt lat="39.8848510" lon="-6.2928330">
        <ele>416.4</ele>
        <time>2021-10-16T15:30:49Z</time>
      </trkpt>
      <trkpt lat="39.8847440" lon="-6.2931230">
        <ele>415.8</ele>
        <time>2021-10-16T15:30:54Z</time>
      </trkpt>
      <trkpt lat="39.8846530" lon="-6.2933990">
        <ele>415.8</ele>
        <time>2021-10-16T15:31:01Z</time>
      </trkpt>
      <trkpt lat="39.8846020" lon="-6.2935010">
        <ele>416.6</ele>
        <time>2021-10-16T15:31:07Z</time>
      </trkpt>
      <trkpt lat="39.8846020" lon="-6.2935010">
        <ele>417.2</ele>
        <time>2021-10-16T15:31:09Z</time>
      </trkpt>
      <trkpt lat="39.8845570" lon="-6.2935790">
        <ele>417.2</ele>
        <time>2021-10-16T15:31:51Z</time>
      </trkpt>
      <trkpt lat="39.8845330" lon="-6.2936140">
        <ele>417.2</ele>
        <time>2021-10-16T15:31:52Z</time>
      </trkpt>
      <trkpt lat="39.8843880" lon="-6.2938640">
        <ele>416.6</ele>
        <time>2021-10-16T15:31:58Z</time>
      </trkpt>
      <trkpt lat="39.8843150" lon="-6.2939980">
        <ele>416.6</ele>
        <time>2021-10-16T15:32:01Z</time>
      </trkpt>
      <trkpt lat="39.8842420" lon="-6.2941720">
        <ele>415.8</ele>
        <time>2021-10-16T15:32:05Z</time>
      </trkpt>
      <trkpt lat="39.8842250" lon="-6.2942250">
        <ele>415.4</ele>
        <time>2021-10-16T15:32:07Z</time>
      </trkpt>
      <trkpt lat="39.8842230" lon="-6.2942340">
        <ele>415.2</ele>
        <time>2021-10-16T15:32:09Z</time>
      </trkpt>
      <trkpt lat="39.8842230" lon="-6.2942340">
        <ele>415.2</ele>
        <time>2021-10-16T15:32:10Z</time>
      </trkpt>
      <trkpt lat="39.8842000" lon="-6.2942950">
        <ele>414.2</ele>
        <time>2021-10-16T15:32:32Z</time>
      </trkpt>
      <trkpt lat="39.8841230" lon="-6.2945010">
        <ele>414.2</ele>
        <time>2021-10-16T15:32:37Z</time>
      </trkpt>
      <trkpt lat="39.8841050" lon="-6.2945470">
        <ele>414.2</ele>
        <time>2021-10-16T15:32:38Z</time>
      </trkpt>
      <trkpt lat="39.8839920" lon="-6.2947850">
        <ele>413.2</ele>
        <time>2021-10-16T15:32:43Z</time>
      </trkpt>
      <trkpt lat="39.8839620" lon="-6.2948350">
        <ele>413.0</ele>
        <time>2021-10-16T15:32:44Z</time>
      </trkpt>
      <trkpt lat="39.8838490" lon="-6.2950820">
        <ele>412.2</ele>
        <time>2021-10-16T15:32:48Z</time>
      </trkpt>
      <trkpt lat="39.8838230" lon="-6.2951520">
        <ele>411.6</ele>
        <time>2021-10-16T15:32:49Z</time>
      </trkpt>
      <trkpt lat="39.8838010" lon="-6.2952220">
        <ele>411.4</ele>
        <time>2021-10-16T15:32:50Z</time>
      </trkpt>
      <trkpt lat="39.8837680" lon="-6.2953490">
        <ele>411.0</ele>
        <time>2021-10-16T15:32:52Z</time>
      </trkpt>
      <trkpt lat="39.8837510" lon="-6.2954040">
        <ele>410.8</ele>
        <time>2021-10-16T15:32:53Z</time>
      </trkpt>
      <trkpt lat="39.8837360" lon="-6.2954600">
        <ele>410.4</ele>
        <time>2021-10-16T15:32:54Z</time>
      </trkpt>
      <trkpt lat="39.8836650" lon="-6.2956650">
        <ele>409.8</ele>
        <time>2021-10-16T15:32:58Z</time>
      </trkpt>
      <trkpt lat="39.8836180" lon="-6.2957660">
        <ele>409.6</ele>
        <time>2021-10-16T15:33:00Z</time>
      </trkpt>
      <trkpt lat="39.8835580" lon="-6.2958970">
        <ele>409.4</ele>
        <time>2021-10-16T15:33:03Z</time>
      </trkpt>
      <trkpt lat="39.8835160" lon="-6.2960210">
        <ele>409.4</ele>
        <time>2021-10-16T15:33:06Z</time>
      </trkpt>
      <trkpt lat="39.8834800" lon="-6.2961990">
        <ele>409.6</ele>
        <time>2021-10-16T15:33:11Z</time>
      </trkpt>
      <trkpt lat="39.8834270" lon="-6.2963480">
        <ele>410.2</ele>
        <time>2021-10-16T15:33:16Z</time>
      </trkpt>
      <trkpt lat="39.8834130" lon="-6.2963760">
        <ele>410.6</ele>
        <time>2021-10-16T15:33:17Z</time>
      </trkpt>
      <trkpt lat="39.8832530" lon="-6.2966420">
        <ele>411.2</ele>
        <time>2021-10-16T15:33:24Z</time>
      </trkpt>
      <trkpt lat="39.8832220" lon="-6.2966850">
        <ele>411.2</ele>
        <time>2021-10-16T15:33:25Z</time>
      </trkpt>
      <trkpt lat="39.8831880" lon="-6.2967290">
        <ele>411.2</ele>
        <time>2021-10-16T15:33:26Z</time>
      </trkpt>
      <trkpt lat="39.8830440" lon="-6.2969130">
        <ele>410.8</ele>
        <time>2021-10-16T15:33:30Z</time>
      </trkpt>
      <trkpt lat="39.8830090" lon="-6.2969650">
        <ele>410.6</ele>
        <time>2021-10-16T15:33:31Z</time>
      </trkpt>
      <trkpt lat="39.8829050" lon="-6.2971580">
        <ele>409.8</ele>
        <time>2021-10-16T15:33:35Z</time>
      </trkpt>
      <trkpt lat="39.8828900" lon="-6.2971880">
        <ele>409.6</ele>
        <time>2021-10-16T15:33:36Z</time>
      </trkpt>
      <trkpt lat="39.8828800" lon="-6.2972080">
        <ele>409.6</ele>
        <time>2021-10-16T15:33:37Z</time>
      </trkpt>
      <trkpt lat="39.8828790" lon="-6.2972180">
        <ele>409.4</ele>
        <time>2021-10-16T15:33:38Z</time>
      </trkpt>
      <trkpt lat="39.8828780" lon="-6.2972230">
        <ele>409.4</ele>
        <time>2021-10-16T15:33:40Z</time>
      </trkpt>
      <trkpt lat="39.8828780" lon="-6.2972230">
        <ele>409.4</ele>
        <time>2021-10-16T15:33:41Z</time>
      </trkpt>
      <trkpt lat="39.8828200" lon="-6.2973050">
        <ele>409.8</ele>
        <time>2021-10-16T15:34:12Z</time>
      </trkpt>
      <trkpt lat="39.8828080" lon="-6.2973560">
        <ele>410.0</ele>
        <time>2021-10-16T15:34:15Z</time>
      </trkpt>
      <trkpt lat="39.8827530" lon="-6.2974650">
        <ele>410.6</ele>
        <time>2021-10-16T15:34:22Z</time>
      </trkpt>
      <trkpt lat="39.8827110" lon="-6.2975520">
        <ele>411.4</ele>
        <time>2021-10-16T15:34:28Z</time>
      </trkpt>
      <trkpt lat="39.8827010" lon="-6.2975620">
        <ele>411.8</ele>
        <time>2021-10-16T15:34:29Z</time>
      </trkpt>
      <trkpt lat="39.8826420" lon="-6.2976350">
        <ele>412.6</ele>
        <time>2021-10-16T15:34:35Z</time>
      </trkpt>
      <trkpt lat="39.8826180" lon="-6.2976630">
        <ele>412.6</ele>
        <time>2021-10-16T15:34:37Z</time>
      </trkpt>
      <trkpt lat="39.8825920" lon="-6.2976940">
        <ele>412.8</ele>
        <time>2021-10-16T15:34:39Z</time>
      </trkpt>
      <trkpt lat="39.8825080" lon="-6.2977950">
        <ele>413.2</ele>
        <time>2021-10-16T15:34:45Z</time>
      </trkpt>
      <trkpt lat="39.8824760" lon="-6.2978360">
        <ele>413.4</ele>
        <time>2021-10-16T15:34:47Z</time>
      </trkpt>
      <trkpt lat="39.8824160" lon="-6.2979210">
        <ele>413.6</ele>
        <time>2021-10-16T15:34:51Z</time>
      </trkpt>
      <trkpt lat="39.8823860" lon="-6.2979630">
        <ele>413.8</ele>
        <time>2021-10-16T15:34:53Z</time>
      </trkpt>
      <trkpt lat="39.8823580" lon="-6.2980010">
        <ele>413.8</ele>
        <time>2021-10-16T15:34:55Z</time>
      </trkpt>
      <trkpt lat="39.8822410" lon="-6.2981620">
        <ele>414.2</ele>
        <time>2021-10-16T15:35:03Z</time>
      </trkpt>
      <trkpt lat="39.8821780" lon="-6.2982710">
        <ele>414.6</ele>
        <time>2021-10-16T15:35:08Z</time>
      </trkpt>
      <trkpt lat="39.8821400" lon="-6.2983280">
        <ele>414.8</ele>
        <time>2021-10-16T15:35:11Z</time>
      </trkpt>
      <trkpt lat="39.8821140" lon="-6.2983730">
        <ele>414.8</ele>
        <time>2021-10-16T15:35:13Z</time>
      </trkpt>
      <trkpt lat="39.8820440" lon="-6.2985010">
        <ele>415.4</ele>
        <time>2021-10-16T15:35:20Z</time>
      </trkpt>
      <trkpt lat="39.8820020" lon="-6.2985670">
        <ele>415.8</ele>
        <time>2021-10-16T15:35:24Z</time>
      </trkpt>
      <trkpt lat="39.8819940" lon="-6.2985810">
        <ele>415.8</ele>
        <time>2021-10-16T15:35:25Z</time>
      </trkpt>
      <trkpt lat="39.8819800" lon="-6.2986070">
        <ele>416.0</ele>
        <time>2021-10-16T15:35:27Z</time>
      </trkpt>
      <trkpt lat="39.8819470" lon="-6.2986690">
        <ele>417.0</ele>
        <time>2021-10-16T15:35:31Z</time>
      </trkpt>
      <trkpt lat="39.8819140" lon="-6.2987380">
        <ele>417.6</ele>
        <time>2021-10-16T15:35:35Z</time>
      </trkpt>
      <trkpt lat="39.8818580" lon="-6.2988650">
        <ele>418.0</ele>
        <time>2021-10-16T15:35:42Z</time>
      </trkpt>
      <trkpt lat="39.8818510" lon="-6.2988800">
        <ele>418.0</ele>
        <time>2021-10-16T15:35:43Z</time>
      </trkpt>
      <trkpt lat="39.8818180" lon="-6.2989440">
        <ele>418.6</ele>
        <time>2021-10-16T15:35:47Z</time>
      </trkpt>
      <trkpt lat="39.8817970" lon="-6.2989980">
        <ele>418.8</ele>
        <time>2021-10-16T15:35:50Z</time>
      </trkpt>
      <trkpt lat="39.8817820" lon="-6.2990480">
        <ele>419.2</ele>
        <time>2021-10-16T15:35:53Z</time>
      </trkpt>
      <trkpt lat="39.8817560" lon="-6.2991010">
        <ele>419.6</ele>
        <time>2021-10-16T15:35:57Z</time>
      </trkpt>
      <trkpt lat="39.8817200" lon="-6.2991710">
        <ele>420.2</ele>
        <time>2021-10-16T15:36:02Z</time>
      </trkpt>
      <trkpt lat="39.8816980" lon="-6.2992300">
        <ele>420.8</ele>
        <time>2021-10-16T15:36:06Z</time>
      </trkpt>
      <trkpt lat="39.8816750" lon="-6.2993090">
        <ele>421.0</ele>
        <time>2021-10-16T15:36:11Z</time>
      </trkpt>
      <trkpt lat="39.8816670" lon="-6.2993390">
        <ele>421.4</ele>
        <time>2021-10-16T15:36:13Z</time>
      </trkpt>
      <trkpt lat="39.8816400" lon="-6.2994090">
        <ele>422.2</ele>
        <time>2021-10-16T15:36:17Z</time>
      </trkpt>
      <trkpt lat="39.8816210" lon="-6.2994840">
        <ele>422.4</ele>
        <time>2021-10-16T15:36:21Z</time>
      </trkpt>
      <trkpt lat="39.8816140" lon="-6.2995010">
        <ele>422.4</ele>
        <time>2021-10-16T15:36:22Z</time>
      </trkpt>
      <trkpt lat="39.8815740" lon="-6.2996070">
        <ele>423.2</ele>
        <time>2021-10-16T15:36:28Z</time>
      </trkpt>
      <trkpt lat="39.8815600" lon="-6.2996470">
        <ele>423.4</ele>
        <time>2021-10-16T15:36:30Z</time>
      </trkpt>
      <trkpt lat="39.8815440" lon="-6.2996890">
        <ele>423.6</ele>
        <time>2021-10-16T15:36:32Z</time>
      </trkpt>
      <trkpt lat="39.8815140" lon="-6.2997880">
        <ele>424.0</ele>
        <time>2021-10-16T15:36:37Z</time>
      </trkpt>
      <trkpt lat="39.8814800" lon="-6.2998810">
        <ele>424.2</ele>
        <time>2021-10-16T15:36:41Z</time>
      </trkpt>
      <trkpt lat="39.8814580" lon="-6.2999360">
        <ele>424.6</ele>
        <time>2021-10-16T15:36:44Z</time>
      </trkpt>
      <trkpt lat="39.8814480" lon="-6.2999580">
        <ele>424.8</ele>
        <time>2021-10-16T15:36:45Z</time>
      </trkpt>
      <trkpt lat="39.8813910" lon="-6.3001020">
        <ele>425.0</ele>
        <time>2021-10-16T15:36:51Z</time>
      </trkpt>
      <trkpt lat="39.8813640" lon="-6.3001740">
        <ele>425.2</ele>
        <time>2021-10-16T15:36:54Z</time>
      </trkpt>
      <trkpt lat="39.8812850" lon="-6.3004080">
        <ele>425.4</ele>
        <time>2021-10-16T15:37:03Z</time>
      </trkpt>
      <trkpt lat="39.8812220" lon="-6.3006000">
        <ele>425.4</ele>
        <time>2021-10-16T15:37:10Z</time>
      </trkpt>
      <trkpt lat="39.8812110" lon="-6.3006260">
        <ele>425.6</ele>
        <time>2021-10-16T15:37:11Z</time>
      </trkpt>
      <trkpt lat="39.8812020" lon="-6.3006530">
        <ele>425.8</ele>
        <time>2021-10-16T15:37:12Z</time>
      </trkpt>
      <trkpt lat="39.8811540" lon="-6.3008050">
        <ele>426.4</ele>
        <time>2021-10-16T15:37:18Z</time>
      </trkpt>
      <trkpt lat="39.8811300" lon="-6.3008710">
        <ele>426.6</ele>
        <time>2021-10-16T15:37:21Z</time>
      </trkpt>
      <trkpt lat="39.8811220" lon="-6.3008920">
        <ele>426.8</ele>
        <time>2021-10-16T15:37:22Z</time>
      </trkpt>
      <trkpt lat="39.8810730" lon="-6.3009980">
        <ele>427.2</ele>
        <time>2021-10-16T15:37:27Z</time>
      </trkpt>
      <trkpt lat="39.8809930" lon="-6.3011090">
        <ele>427.6</ele>
        <time>2021-10-16T15:37:33Z</time>
      </trkpt>
      <trkpt lat="39.8808770" lon="-6.3012460">
        <ele>427.6</ele>
        <time>2021-10-16T15:37:38Z</time>
      </trkpt>
      <trkpt lat="39.8806920" lon="-6.3014400">
        <ele>427.4</ele>
        <time>2021-10-16T15:37:43Z</time>
      </trkpt>
      <trkpt lat="39.8805620" lon="-6.3016020">
        <ele>426.2</ele>
        <time>2021-10-16T15:37:48Z</time>
      </trkpt>
      <trkpt lat="39.8804560" lon="-6.3017300">
        <ele>426.6</ele>
        <time>2021-10-16T15:37:54Z</time>
      </trkpt>
      <trkpt lat="39.8803760" lon="-6.3018300">
        <ele>427.0</ele>
        <time>2021-10-16T15:37:59Z</time>
      </trkpt>
      <trkpt lat="39.8802350" lon="-6.3020010">
        <ele>427.2</ele>
        <time>2021-10-16T15:38:04Z</time>
      </trkpt>
      <trkpt lat="39.8802020" lon="-6.3020410">
        <ele>427.2</ele>
        <time>2021-10-16T15:38:05Z</time>
      </trkpt>
      <trkpt lat="39.8800850" lon="-6.3021700">
        <ele>427.2</ele>
        <time>2021-10-16T15:38:09Z</time>
      </trkpt>
      <trkpt lat="39.8799990" lon="-6.3022810">
        <ele>427.4</ele>
        <time>2021-10-16T15:38:14Z</time>
      </trkpt>
      <trkpt lat="39.8798560" lon="-6.3024460">
        <ele>427.6</ele>
        <time>2021-10-16T15:38:18Z</time>
      </trkpt>
      <trkpt lat="39.8796670" lon="-6.3026600">
        <ele>427.0</ele>
        <time>2021-10-16T15:38:23Z</time>
      </trkpt>
      <trkpt lat="39.8795330" lon="-6.3028550">
        <ele>426.8</ele>
        <time>2021-10-16T15:38:29Z</time>
      </trkpt>
      <trkpt lat="39.8794640" lon="-6.3029610">
        <ele>428.0</ele>
        <time>2021-10-16T15:38:34Z</time>
      </trkpt>
      <trkpt lat="39.8794500" lon="-6.3029800">
        <ele>428.2</ele>
        <time>2021-10-16T15:38:35Z</time>
      </trkpt>
      <trkpt lat="39.8794190" lon="-6.3030170">
        <ele>429.0</ele>
        <time>2021-10-16T15:38:37Z</time>
      </trkpt>
      <trkpt lat="39.8793720" lon="-6.3030720">
        <ele>429.4</ele>
        <time>2021-10-16T15:38:40Z</time>
      </trkpt>
      <trkpt lat="39.8793120" lon="-6.3031540">
        <ele>430.2</ele>
        <time>2021-10-16T15:38:44Z</time>
      </trkpt>
      <trkpt lat="39.8792580" lon="-6.3032320">
        <ele>430.4</ele>
        <time>2021-10-16T15:38:47Z</time>
      </trkpt>
      <trkpt lat="39.8791640" lon="-6.3033560">
        <ele>430.4</ele>
        <time>2021-10-16T15:38:51Z</time>
      </trkpt>
      <trkpt lat="39.8791370" lon="-6.3033920">
        <ele>430.4</ele>
        <time>2021-10-16T15:38:52Z</time>
      </trkpt>
      <trkpt lat="39.8789380" lon="-6.3036730">
        <ele>430.0</ele>
        <time>2021-10-16T15:38:59Z</time>
      </trkpt>
      <trkpt lat="39.8788440" lon="-6.3038160">
        <ele>429.8</ele>
        <time>2021-10-16T15:39:04Z</time>
      </trkpt>
      <trkpt lat="39.8787310" lon="-6.3039820">
        <ele>430.8</ele>
        <time>2021-10-16T15:39:11Z</time>
      </trkpt>
      <trkpt lat="39.8786380" lon="-6.3041160">
        <ele>431.2</ele>
        <time>2021-10-16T15:39:16Z</time>
      </trkpt>
      <trkpt lat="39.8785740" lon="-6.3042340">
        <ele>431.4</ele>
        <time>2021-10-16T15:39:19Z</time>
      </trkpt>
      <trkpt lat="39.8784090" lon="-6.3045050">
        <ele>431.0</ele>
        <time>2021-10-16T15:39:26Z</time>
      </trkpt>
      <trkpt lat="39.8783310" lon="-6.3046410">
        <ele>430.8</ele>
        <time>2021-10-16T15:39:31Z</time>
      </trkpt>
      <trkpt lat="39.8782410" lon="-6.3048250">
        <ele>431.6</ele>
        <time>2021-10-16T15:39:37Z</time>
      </trkpt>
      <trkpt lat="39.8781990" lon="-6.3049640">
        <ele>432.0</ele>
        <time>2021-10-16T15:39:43Z</time>
      </trkpt>
      <trkpt lat="39.8781970" lon="-6.3049720">
        <ele>432.0</ele>
        <time>2021-10-16T15:39:46Z</time>
      </trkpt>
      <trkpt lat="39.8781650" lon="-6.3050110">
        <ele>431.6</ele>
        <time>2021-10-16T15:40:24Z</time>
      </trkpt>
      <trkpt lat="39.8781510" lon="-6.3050360">
        <ele>431.6</ele>
        <time>2021-10-16T15:40:25Z</time>
      </trkpt>
      <trkpt lat="39.8781350" lon="-6.3050590">
        <ele>431.4</ele>
        <time>2021-10-16T15:40:26Z</time>
      </trkpt>
      <trkpt lat="39.8780550" lon="-6.3051210">
        <ele>431.4</ele>
        <time>2021-10-16T15:40:29Z</time>
      </trkpt>
      <trkpt lat="39.8779060" lon="-6.3052120">
        <ele>431.4</ele>
        <time>2021-10-16T15:40:35Z</time>
      </trkpt>
      <trkpt lat="39.8777550" lon="-6.3052960">
        <ele>431.4</ele>
        <time>2021-10-16T15:40:41Z</time>
      </trkpt>
      <trkpt lat="39.8777440" lon="-6.3053220">
        <ele>431.4</ele>
        <time>2021-10-16T15:40:42Z</time>
      </trkpt>
      <trkpt lat="39.8777160" lon="-6.3055470">
        <ele>431.6</ele>
        <time>2021-10-16T15:40:49Z</time>
      </trkpt>
      <trkpt lat="39.8776890" lon="-6.3057000">
        <ele>432.0</ele>
        <time>2021-10-16T15:40:54Z</time>
      </trkpt>
      <trkpt lat="39.8776610" lon="-6.3057830">
        <ele>432.8</ele>
        <time>2021-10-16T15:40:57Z</time>
      </trkpt>
      <trkpt lat="39.8776230" lon="-6.3058770">
        <ele>433.2</ele>
        <time>2021-10-16T15:41:01Z</time>
      </trkpt>
      <trkpt lat="39.8775710" lon="-6.3060000">
        <ele>433.4</ele>
        <time>2021-10-16T15:41:06Z</time>
      </trkpt>
      <trkpt lat="39.8775610" lon="-6.3061670">
        <ele>434.0</ele>
        <time>2021-10-16T15:41:12Z</time>
      </trkpt>
      <trkpt lat="39.8775560" lon="-6.3061980">
        <ele>434.2</ele>
        <time>2021-10-16T15:41:13Z</time>
      </trkpt>
      <trkpt lat="39.8775090" lon="-6.3063430">
        <ele>434.6</ele>
        <time>2021-10-16T15:41:19Z</time>
      </trkpt>
      <trkpt lat="39.8774770" lon="-6.3064380">
        <ele>435.2</ele>
        <time>2021-10-16T15:41:23Z</time>
      </trkpt>
      <trkpt lat="39.8774290" lon="-6.3065940">
        <ele>435.8</ele>
        <time>2021-10-16T15:41:29Z</time>
      </trkpt>
      <trkpt lat="39.8773980" lon="-6.3067230">
        <ele>436.2</ele>
        <time>2021-10-16T15:41:34Z</time>
      </trkpt>
      <trkpt lat="39.8773860" lon="-6.3067730">
        <ele>436.4</ele>
        <time>2021-10-16T15:41:36Z</time>
      </trkpt>
      <trkpt lat="39.8773550" lon="-6.3068910">
        <ele>436.6</ele>
        <time>2021-10-16T15:41:41Z</time>
      </trkpt>
      <trkpt lat="39.8772890" lon="-6.3070790">
        <ele>437.2</ele>
        <time>2021-10-16T15:41:49Z</time>
      </trkpt>
      <trkpt lat="39.8772800" lon="-6.3071000">
        <ele>437.4</ele>
        <time>2021-10-16T15:41:50Z</time>
      </trkpt>
      <trkpt lat="39.8772210" lon="-6.3072480">
        <ele>438.0</ele>
        <time>2021-10-16T15:41:57Z</time>
      </trkpt>
      <trkpt lat="39.8771930" lon="-6.3073110">
        <ele>438.4</ele>
        <time>2021-10-16T15:42:00Z</time>
      </trkpt>
      <trkpt lat="39.8771560" lon="-6.3073780">
        <ele>438.6</ele>
        <time>2021-10-16T15:42:04Z</time>
      </trkpt>
      <trkpt lat="39.8771510" lon="-6.3073970">
        <ele>438.8</ele>
        <time>2021-10-16T15:42:05Z</time>
      </trkpt>
      <trkpt lat="39.8771100" lon="-6.3075080">
        <ele>439.4</ele>
        <time>2021-10-16T15:42:11Z</time>
      </trkpt>
      <trkpt lat="39.8770870" lon="-6.3075400">
        <ele>439.6</ele>
        <time>2021-10-16T15:42:13Z</time>
      </trkpt>
      <trkpt lat="39.8769970" lon="-6.3076230">
        <ele>440.2</ele>
        <time>2021-10-16T15:42:20Z</time>
      </trkpt>
      <trkpt lat="39.8769560" lon="-6.3076510">
        <ele>440.6</ele>
        <time>2021-10-16T15:42:23Z</time>
      </trkpt>
      <trkpt lat="39.8769170" lon="-6.3076790">
        <ele>441.0</ele>
        <time>2021-10-16T15:42:26Z</time>
      </trkpt>
      <trkpt lat="39.8768570" lon="-6.3077440">
        <ele>441.6</ele>
        <time>2021-10-16T15:42:32Z</time>
      </trkpt>
      <trkpt lat="39.8768300" lon="-6.3077480">
        <ele>441.8</ele>
        <time>2021-10-16T15:42:34Z</time>
      </trkpt>
      <trkpt lat="39.8767730" lon="-6.3077380">
        <ele>442.6</ele>
        <time>2021-10-16T15:42:38Z</time>
      </trkpt>
      <trkpt lat="39.8767200" lon="-6.3077200">
        <ele>443.0</ele>
        <time>2021-10-16T15:42:42Z</time>
      </trkpt>
      <trkpt lat="39.8766620" lon="-6.3076920">
        <ele>443.6</ele>
        <time>2021-10-16T15:42:47Z</time>
      </trkpt>
      <trkpt lat="39.8766390" lon="-6.3076860">
        <ele>443.8</ele>
        <time>2021-10-16T15:42:49Z</time>
      </trkpt>
      <trkpt lat="39.8765900" lon="-6.3076710">
        <ele>444.4</ele>
        <time>2021-10-16T15:42:53Z</time>
      </trkpt>
      <trkpt lat="39.8765480" lon="-6.3076860">
        <ele>444.8</ele>
        <time>2021-10-16T15:42:56Z</time>
      </trkpt>
      <trkpt lat="39.8765080" lon="-6.3077110">
        <ele>445.0</ele>
        <time>2021-10-16T15:42:59Z</time>
      </trkpt>
      <trkpt lat="39.8764620" lon="-6.3077270">
        <ele>445.8</ele>
        <time>2021-10-16T15:43:03Z</time>
      </trkpt>
      <trkpt lat="39.8764380" lon="-6.3077380">
        <ele>446.2</ele>
        <time>2021-10-16T15:43:05Z</time>
      </trkpt>
      <trkpt lat="39.8764200" lon="-6.3077750">
        <ele>446.4</ele>
        <time>2021-10-16T15:43:08Z</time>
      </trkpt>
      <trkpt lat="39.8764140" lon="-6.3078170">
        <ele>446.8</ele>
        <time>2021-10-16T15:43:11Z</time>
      </trkpt>
      <trkpt lat="39.8763900" lon="-6.3078500">
        <ele>447.4</ele>
        <time>2021-10-16T15:43:15Z</time>
      </trkpt>
      <trkpt lat="39.8763910" lon="-6.3078500">
        <ele>447.4</ele>
        <time>2021-10-16T15:43:16Z</time>
      </trkpt>
      <trkpt lat="39.8763910" lon="-6.3078570">
        <ele>447.4</ele>
        <time>2021-10-16T15:43:18Z</time>
      </trkpt>
      <trkpt lat="39.8763910" lon="-6.3078570">
        <ele>447.6</ele>
        <time>2021-10-16T15:43:19Z</time>
      </trkpt>
      <trkpt lat="39.8762820" lon="-6.3079300">
        <ele>448.0</ele>
        <time>2021-10-16T15:43:39Z</time>
      </trkpt>
      <trkpt lat="39.8762540" lon="-6.3079460">
        <ele>448.2</ele>
        <time>2021-10-16T15:43:41Z</time>
      </trkpt>
      <trkpt lat="39.8761700" lon="-6.3080010">
        <ele>448.4</ele>
        <time>2021-10-16T15:43:47Z</time>
      </trkpt>
      <trkpt lat="39.8761420" lon="-6.3080540">
        <ele>449.0</ele>
        <time>2021-10-16T15:43:52Z</time>
      </trkpt>
      <trkpt lat="39.8761370" lon="-6.3080690">
        <ele>449.0</ele>
        <time>2021-10-16T15:43:53Z</time>
      </trkpt>
      <trkpt lat="39.8761260" lon="-6.3080870">
        <ele>449.2</ele>
        <time>2021-10-16T15:43:54Z</time>
      </trkpt>
      <trkpt lat="39.8760820" lon="-6.3081750">
        <ele>449.6</ele>
        <time>2021-10-16T15:43:59Z</time>
      </trkpt>
      <trkpt lat="39.8760580" lon="-6.3082030">
        <ele>449.8</ele>
        <time>2021-10-16T15:44:01Z</time>
      </trkpt>
      <trkpt lat="39.8760180" lon="-6.3082790">
        <ele>450.0</ele>
        <time>2021-10-16T15:44:07Z</time>
      </trkpt>
      <trkpt lat="39.8760090" lon="-6.3082820">
        <ele>450.2</ele>
        <time>2021-10-16T15:44:08Z</time>
      </trkpt>
      <trkpt lat="39.8760040" lon="-6.3082850">
        <ele>450.6</ele>
        <time>2021-10-16T15:44:11Z</time>
      </trkpt>
      <trkpt lat="39.8758660" lon="-6.3083570">
        <ele>452.8</ele>
        <time>2021-10-16T15:45:29Z</time>
      </trkpt>
      <trkpt lat="39.8758470" lon="-6.3083560">
        <ele>452.8</ele>
        <time>2021-10-16T15:45:30Z</time>
      </trkpt>
      <trkpt lat="39.8757470" lon="-6.3083370">
        <ele>453.4</ele>
        <time>2021-10-16T15:45:36Z</time>
      </trkpt>
      <trkpt lat="39.8756880" lon="-6.3083130">
        <ele>454.0</ele>
        <time>2021-10-16T15:45:40Z</time>
      </trkpt>
      <trkpt lat="39.8756480" lon="-6.3083070">
        <ele>454.6</ele>
        <time>2021-10-16T15:45:43Z</time>
      </trkpt>
      <trkpt lat="39.8756340" lon="-6.3083020">
        <ele>454.8</ele>
        <time>2021-10-16T15:45:44Z</time>
      </trkpt>
      <trkpt lat="39.8756190" lon="-6.3082930">
        <ele>455.0</ele>
        <time>2021-10-16T15:45:45Z</time>
      </trkpt>
      <trkpt lat="39.8755840" lon="-6.3082880">
        <ele>455.8</ele>
        <time>2021-10-16T15:45:48Z</time>
      </trkpt>
      <trkpt lat="39.8755730" lon="-6.3082840">
        <ele>456.2</ele>
        <time>2021-10-16T15:45:49Z</time>
      </trkpt>
      <trkpt lat="39.8755290" lon="-6.3082780">
        <ele>456.8</ele>
        <time>2021-10-16T15:45:53Z</time>
      </trkpt>
      <trkpt lat="39.8755050" lon="-6.3082810">
        <ele>457.0</ele>
        <time>2021-10-16T15:45:55Z</time>
      </trkpt>
      <trkpt lat="39.8754950" lon="-6.3082750">
        <ele>457.2</ele>
        <time>2021-10-16T15:45:56Z</time>
      </trkpt>
      <trkpt lat="39.8754320" lon="-6.3082610">
        <ele>458.2</ele>
        <time>2021-10-16T15:46:02Z</time>
      </trkpt>
      <trkpt lat="39.8754210" lon="-6.3082620">
        <ele>458.4</ele>
        <time>2021-10-16T15:46:03Z</time>
      </trkpt>
      <trkpt lat="39.8753870" lon="-6.3082540">
        <ele>458.8</ele>
        <time>2021-10-16T15:46:06Z</time>
      </trkpt>
      <trkpt lat="39.8753180" lon="-6.3082580">
        <ele>459.0</ele>
        <time>2021-10-16T15:46:10Z</time>
      </trkpt>
      <trkpt lat="39.8752520" lon="-6.3082680">
        <ele>459.4</ele>
        <time>2021-10-16T15:46:14Z</time>
      </trkpt>
      <trkpt lat="39.8751770" lon="-6.3082800">
        <ele>459.6</ele>
        <time>2021-10-16T15:46:18Z</time>
      </trkpt>
      <trkpt lat="39.8750890" lon="-6.3082880">
        <ele>460.0</ele>
        <time>2021-10-16T15:46:24Z</time>
      </trkpt>
      <trkpt lat="39.8750010" lon="-6.3082990">
        <ele>460.4</ele>
        <time>2021-10-16T15:46:29Z</time>
      </trkpt>
      <trkpt lat="39.8749380" lon="-6.3083150">
        <ele>460.8</ele>
        <time>2021-10-16T15:46:33Z</time>
      </trkpt>
      <trkpt lat="39.8748730" lon="-6.3083490">
        <ele>461.4</ele>
        <time>2021-10-16T15:46:38Z</time>
      </trkpt>
      <trkpt lat="39.8748640" lon="-6.3083580">
        <ele>461.4</ele>
        <time>2021-10-16T15:46:39Z</time>
      </trkpt>
      <trkpt lat="39.8748520" lon="-6.3083640">
        <ele>461.6</ele>
        <time>2021-10-16T15:46:40Z</time>
      </trkpt>
      <trkpt lat="39.8748380" lon="-6.3083660">
        <ele>461.8</ele>
        <time>2021-10-16T15:46:41Z</time>
      </trkpt>
      <trkpt lat="39.8747500" lon="-6.3083360">
        <ele>462.2</ele>
        <time>2021-10-16T15:46:46Z</time>
      </trkpt>
      <trkpt lat="39.8747010" lon="-6.3083360">
        <ele>462.6</ele>
        <time>2021-10-16T15:46:49Z</time>
      </trkpt>
      <trkpt lat="39.8746350" lon="-6.3083460">
        <ele>463.0</ele>
        <time>2021-10-16T15:46:53Z</time>
      </trkpt>
      <trkpt lat="39.8745810" lon="-6.3083530">
        <ele>463.0</ele>
        <time>2021-10-16T15:46:56Z</time>
      </trkpt>
      <trkpt lat="39.8744800" lon="-6.3083860">
        <ele>463.6</ele>
        <time>2021-10-16T15:47:02Z</time>
      </trkpt>
      <trkpt lat="39.8744670" lon="-6.3083900">
        <ele>463.6</ele>
        <time>2021-10-16T15:47:03Z</time>
      </trkpt>
      <trkpt lat="39.8744060" lon="-6.3084230">
        <ele>464.6</ele>
        <time>2021-10-16T15:47:08Z</time>
      </trkpt>
      <trkpt lat="39.8742990" lon="-6.3084710">
        <ele>465.8</ele>
        <time>2021-10-16T15:47:16Z</time>
      </trkpt>
      <trkpt lat="39.8741980" lon="-6.3085080">
        <ele>466.2</ele>
        <time>2021-10-16T15:47:23Z</time>
      </trkpt>
      <trkpt lat="39.8741490" lon="-6.3085280">
        <ele>466.6</ele>
        <time>2021-10-16T15:47:26Z</time>
      </trkpt>
      <trkpt lat="39.8741190" lon="-6.3085320">
        <ele>467.0</ele>
        <time>2021-10-16T15:47:28Z</time>
      </trkpt>
      <trkpt lat="39.8740570" lon="-6.3085380">
        <ele>467.2</ele>
        <time>2021-10-16T15:47:32Z</time>
      </trkpt>
      <trkpt lat="39.8740400" lon="-6.3085390">
        <ele>467.4</ele>
        <time>2021-10-16T15:47:33Z</time>
      </trkpt>
      <trkpt lat="39.8740030" lon="-6.3085470">
        <ele>467.6</ele>
        <time>2021-10-16T15:47:35Z</time>
      </trkpt>
      <trkpt lat="39.8739870" lon="-6.3085490">
        <ele>467.6</ele>
        <time>2021-10-16T15:47:36Z</time>
      </trkpt>
      <trkpt lat="39.8739190" lon="-6.3085580">
        <ele>468.0</ele>
        <time>2021-10-16T15:47:41Z</time>
      </trkpt>
      <trkpt lat="39.8738780" lon="-6.3085780">
        <ele>468.6</ele>
        <time>2021-10-16T15:47:44Z</time>
      </trkpt>
      <trkpt lat="39.8738150" lon="-6.3085900">
        <ele>469.4</ele>
        <time>2021-10-16T15:47:49Z</time>
      </trkpt>
      <trkpt lat="39.8737750" lon="-6.3085980">
        <ele>469.8</ele>
        <time>2021-10-16T15:47:52Z</time>
      </trkpt>
      <trkpt lat="39.8737220" lon="-6.3086110">
        <ele>470.4</ele>
        <time>2021-10-16T15:47:56Z</time>
      </trkpt>
      <trkpt lat="39.8736790" lon="-6.3086290">
        <ele>470.8</ele>
        <time>2021-10-16T15:47:59Z</time>
      </trkpt>
      <trkpt lat="39.8736130" lon="-6.3086530">
        <ele>471.6</ele>
        <time>2021-10-16T15:48:04Z</time>
      </trkpt>
      <trkpt lat="39.8735850" lon="-6.3086590">
        <ele>472.0</ele>
        <time>2021-10-16T15:48:06Z</time>
      </trkpt>
      <trkpt lat="39.8735220" lon="-6.3086760">
        <ele>472.8</ele>
        <time>2021-10-16T15:48:10Z</time>
      </trkpt>
      <trkpt lat="39.8734730" lon="-6.3086910">
        <ele>473.2</ele>
        <time>2021-10-16T15:48:13Z</time>
      </trkpt>
      <trkpt lat="39.8733990" lon="-6.3087260">
        <ele>473.4</ele>
        <time>2021-10-16T15:48:17Z</time>
      </trkpt>
      <trkpt lat="39.8733390" lon="-6.3087620">
        <ele>473.6</ele>
        <time>2021-10-16T15:48:20Z</time>
      </trkpt>
      <trkpt lat="39.8731780" lon="-6.3088670">
        <ele>473.6</ele>
        <time>2021-10-16T15:48:28Z</time>
      </trkpt>
      <trkpt lat="39.8731330" lon="-6.3088960">
        <ele>473.6</ele>
        <time>2021-10-16T15:48:30Z</time>
      </trkpt>
      <trkpt lat="39.8730700" lon="-6.3089500">
        <ele>473.6</ele>
        <time>2021-10-16T15:48:33Z</time>
      </trkpt>
      <trkpt lat="39.8730230" lon="-6.3089760">
        <ele>473.4</ele>
        <time>2021-10-16T15:48:35Z</time>
      </trkpt>
      <trkpt lat="39.8728280" lon="-6.3090660">
        <ele>473.2</ele>
        <time>2021-10-16T15:48:42Z</time>
      </trkpt>
      <trkpt lat="39.8726200" lon="-6.3091950">
        <ele>473.0</ele>
        <time>2021-10-16T15:48:49Z</time>
      </trkpt>
      <trkpt lat="39.8724980" lon="-6.3092780">
        <ele>473.0</ele>
        <time>2021-10-16T15:48:53Z</time>
      </trkpt>
      <trkpt lat="39.8723970" lon="-6.3093350">
        <ele>473.0</ele>
        <time>2021-10-16T15:48:56Z</time>
      </trkpt>
      <trkpt lat="39.8723030" lon="-6.3093930">
        <ele>473.0</ele>
        <time>2021-10-16T15:48:59Z</time>
      </trkpt>
      <trkpt lat="39.8720880" lon="-6.3095250">
        <ele>473.4</ele>
        <time>2021-10-16T15:49:06Z</time>
      </trkpt>
      <trkpt lat="39.8719360" lon="-6.3096750">
        <ele>474.0</ele>
        <time>2021-10-16T15:49:12Z</time>
      </trkpt>
      <trkpt lat="39.8718060" lon="-6.3098880">
        <ele>474.6</ele>
        <time>2021-10-16T15:49:19Z</time>
      </trkpt>
      <trkpt lat="39.8716650" lon="-6.3101670">
        <ele>474.6</ele>
        <time>2021-10-16T15:49:26Z</time>
      </trkpt>
      <trkpt lat="39.8715220" lon="-6.3104910">
        <ele>474.2</ele>
        <time>2021-10-16T15:49:31Z</time>
      </trkpt>
      <trkpt lat="39.8714000" lon="-6.3107830">
        <ele>472.8</ele>
        <time>2021-10-16T15:49:35Z</time>
      </trkpt>
      <trkpt lat="39.8713370" lon="-6.3109040">
        <ele>472.4</ele>
        <time>2021-10-16T15:49:37Z</time>
      </trkpt>
      <trkpt lat="39.8712050" lon="-6.3111410">
        <ele>471.6</ele>
        <time>2021-10-16T15:49:41Z</time>
      </trkpt>
      <trkpt lat="39.8711380" lon="-6.3112330">
        <ele>471.4</ele>
        <time>2021-10-16T15:49:43Z</time>
      </trkpt>
      <trkpt lat="39.8710080" lon="-6.3114000">
        <ele>470.8</ele>
        <time>2021-10-16T15:49:48Z</time>
      </trkpt>
      <trkpt lat="39.8709910" lon="-6.3114270">
        <ele>471.0</ele>
        <time>2021-10-16T15:49:49Z</time>
      </trkpt>
      <trkpt lat="39.8709440" lon="-6.3115140">
        <ele>471.8</ele>
        <time>2021-10-16T15:49:52Z</time>
      </trkpt>
      <trkpt lat="39.8709060" lon="-6.3115710">
        <ele>472.8</ele>
        <time>2021-10-16T15:49:54Z</time>
      </trkpt>
      <trkpt lat="39.8707560" lon="-6.3117690">
        <ele>473.4</ele>
        <time>2021-10-16T15:50:00Z</time>
      </trkpt>
      <trkpt lat="39.8705740" lon="-6.3120080">
        <ele>473.6</ele>
        <time>2021-10-16T15:50:06Z</time>
      </trkpt>
      <trkpt lat="39.8703520" lon="-6.3122760">
        <ele>473.4</ele>
        <time>2021-10-16T15:50:13Z</time>
      </trkpt>
      <trkpt lat="39.8703260" lon="-6.3123080">
        <ele>473.4</ele>
        <time>2021-10-16T15:50:14Z</time>
      </trkpt>
      <trkpt lat="39.8702780" lon="-6.3123730">
        <ele>473.6</ele>
        <time>2021-10-16T15:50:16Z</time>
      </trkpt>
      <trkpt lat="39.8702530" lon="-6.3123990">
        <ele>473.8</ele>
        <time>2021-10-16T15:50:17Z</time>
      </trkpt>
      <trkpt lat="39.8702240" lon="-6.3124210">
        <ele>473.8</ele>
        <time>2021-10-16T15:50:18Z</time>
      </trkpt>
      <trkpt lat="39.8701540" lon="-6.3125120">
        <ele>474.6</ele>
        <time>2021-10-16T15:50:22Z</time>
      </trkpt>
      <trkpt lat="39.8701270" lon="-6.3125710">
        <ele>474.8</ele>
        <time>2021-10-16T15:50:24Z</time>
      </trkpt>
      <trkpt lat="39.8700400" lon="-6.3127470">
        <ele>475.4</ele>
        <time>2021-10-16T15:50:29Z</time>
      </trkpt>
      <trkpt lat="39.8699790" lon="-6.3129090">
        <ele>475.4</ele>
        <time>2021-10-16T15:50:33Z</time>
      </trkpt>
      <trkpt lat="39.8699410" lon="-6.3129810">
        <ele>475.2</ele>
        <time>2021-10-16T15:50:35Z</time>
      </trkpt>
      <trkpt lat="39.8698110" lon="-6.3132400">
        <ele>475.2</ele>
        <time>2021-10-16T15:50:41Z</time>
      </trkpt>
      <trkpt lat="39.8696730" lon="-6.3135280">
        <ele>475.4</ele>
        <time>2021-10-16T15:50:48Z</time>
      </trkpt>
      <trkpt lat="39.8695390" lon="-6.3137540">
        <ele>476.0</ele>
        <time>2021-10-16T15:50:54Z</time>
      </trkpt>
      <trkpt lat="39.8695000" lon="-6.3138340">
        <ele>476.2</ele>
        <time>2021-10-16T15:50:56Z</time>
      </trkpt>
      <trkpt lat="39.8693780" lon="-6.3140920">
        <ele>476.8</ele>
        <time>2021-10-16T15:51:03Z</time>
      </trkpt>
      <trkpt lat="39.8692900" lon="-6.3142410">
        <ele>477.0</ele>
        <time>2021-10-16T15:51:07Z</time>
      </trkpt>
      <trkpt lat="39.8692570" lon="-6.3143110">
        <ele>476.8</ele>
        <time>2021-10-16T15:51:09Z</time>
      </trkpt>
      <trkpt lat="39.8692370" lon="-6.3143530">
        <ele>476.8</ele>
        <time>2021-10-16T15:51:10Z</time>
      </trkpt>
      <trkpt lat="39.8690800" lon="-6.3146630">
        <ele>476.8</ele>
        <time>2021-10-16T15:51:17Z</time>
      </trkpt>
      <trkpt lat="39.8690360" lon="-6.3147710">
        <ele>476.6</ele>
        <time>2021-10-16T15:51:19Z</time>
      </trkpt>
      <trkpt lat="39.8689950" lon="-6.3148970">
        <ele>476.6</ele>
        <time>2021-10-16T15:51:21Z</time>
      </trkpt>
      <trkpt lat="39.8688620" lon="-6.3152370">
        <ele>475.4</ele>
        <time>2021-10-16T15:51:26Z</time>
      </trkpt>
      <trkpt lat="39.8688130" lon="-6.3153760">
        <ele>474.6</ele>
        <time>2021-10-16T15:51:28Z</time>
      </trkpt>
      <trkpt lat="39.8687390" lon="-6.3155770">
        <ele>474.2</ele>
        <time>2021-10-16T15:51:31Z</time>
      </trkpt>
      <trkpt lat="39.8686880" lon="-6.3157010">
        <ele>474.0</ele>
        <time>2021-10-16T15:51:33Z</time>
      </trkpt>
      <trkpt lat="39.8686680" lon="-6.3157650">
        <ele>474.0</ele>
        <time>2021-10-16T15:51:34Z</time>
      </trkpt>
      <trkpt lat="39.8686440" lon="-6.3158270">
        <ele>474.0</ele>
        <time>2021-10-16T15:51:35Z</time>
      </trkpt>
      <trkpt lat="39.8685470" lon="-6.3160670">
        <ele>473.4</ele>
        <time>2021-10-16T15:51:39Z</time>
      </trkpt>
      <trkpt lat="39.8684960" lon="-6.3161840">
        <ele>473.0</ele>
        <time>2021-10-16T15:51:41Z</time>
      </trkpt>
      <trkpt lat="39.8684460" lon="-6.3162900">
        <ele>472.8</ele>
        <time>2021-10-16T15:51:43Z</time>
      </trkpt>
      <trkpt lat="39.8683800" lon="-6.3164550">
        <ele>472.6</ele>
        <time>2021-10-16T15:51:46Z</time>
      </trkpt>
      <trkpt lat="39.8682060" lon="-6.3169160">
        <ele>472.2</ele>
        <time>2021-10-16T15:51:55Z</time>
      </trkpt>
      <trkpt lat="39.8681850" lon="-6.3169660">
        <ele>472.2</ele>
        <time>2021-10-16T15:51:56Z</time>
      </trkpt>
      <trkpt lat="39.8681180" lon="-6.3172100">
        <ele>472.0</ele>
        <time>2021-10-16T15:52:00Z</time>
      </trkpt>
      <trkpt lat="39.8680690" lon="-6.3173330">
        <ele>471.8</ele>
        <time>2021-10-16T15:52:02Z</time>
      </trkpt>
      <trkpt lat="39.8679810" lon="-6.3175450">
        <ele>471.6</ele>
        <time>2021-10-16T15:52:06Z</time>
      </trkpt>
      <trkpt lat="39.8678710" lon="-6.3177790">
        <ele>471.8</ele>
        <time>2021-10-16T15:52:12Z</time>
      </trkpt>
      <trkpt lat="39.8677830" lon="-6.3179610">
        <ele>472.2</ele>
        <time>2021-10-16T15:52:17Z</time>
      </trkpt>
      <trkpt lat="39.8676820" lon="-6.3182200">
        <ele>473.0</ele>
        <time>2021-10-16T15:52:23Z</time>
      </trkpt>
      <trkpt lat="39.8676290" lon="-6.3183050">
        <ele>473.0</ele>
        <time>2021-10-16T15:52:25Z</time>
      </trkpt>
      <trkpt lat="39.8675400" lon="-6.3184240">
        <ele>473.0</ele>
        <time>2021-10-16T15:52:28Z</time>
      </trkpt>
      <trkpt lat="39.8674760" lon="-6.3185070">
        <ele>473.0</ele>
        <time>2021-10-16T15:52:30Z</time>
      </trkpt>
      <trkpt lat="39.8672220" lon="-6.3188580">
        <ele>472.6</ele>
        <time>2021-10-16T15:52:39Z</time>
      </trkpt>
      <trkpt lat="39.8671680" lon="-6.3189320">
        <ele>472.8</ele>
        <time>2021-10-16T15:52:41Z</time>
      </trkpt>
      <trkpt lat="39.8669420" lon="-6.3192050">
        <ele>473.6</ele>
        <time>2021-10-16T15:52:49Z</time>
      </trkpt>
      <trkpt lat="39.8668160" lon="-6.3193490">
        <ele>474.0</ele>
        <time>2021-10-16T15:52:54Z</time>
      </trkpt>
      <trkpt lat="39.8667710" lon="-6.3194050">
        <ele>474.2</ele>
        <time>2021-10-16T15:52:56Z</time>
      </trkpt>
      <trkpt lat="39.8666990" lon="-6.3195150">
        <ele>474.6</ele>
        <time>2021-10-16T15:53:00Z</time>
      </trkpt>
      <trkpt lat="39.8666380" lon="-6.3195990">
        <ele>475.2</ele>
        <time>2021-10-16T15:53:03Z</time>
      </trkpt>
      <trkpt lat="39.8666150" lon="-6.3196300">
        <ele>475.4</ele>
        <time>2021-10-16T15:53:04Z</time>
      </trkpt>
      <trkpt lat="39.8664630" lon="-6.3197910">
        <ele>475.6</ele>
        <time>2021-10-16T15:53:09Z</time>
      </trkpt>
      <trkpt lat="39.8664310" lon="-6.3198320">
        <ele>475.6</ele>
        <time>2021-10-16T15:53:10Z</time>
      </trkpt>
      <trkpt lat="39.8663490" lon="-6.3199640">
        <ele>475.4</ele>
        <time>2021-10-16T15:53:13Z</time>
      </trkpt>
      <trkpt lat="39.8663220" lon="-6.3200060">
        <ele>475.4</ele>
        <time>2021-10-16T15:53:14Z</time>
      </trkpt>
      <trkpt lat="39.8662630" lon="-6.3200800">
        <ele>475.0</ele>
        <time>2021-10-16T15:53:16Z</time>
      </trkpt>
      <trkpt lat="39.8662030" lon="-6.3201580">
        <ele>474.8</ele>
        <time>2021-10-16T15:53:18Z</time>
      </trkpt>
      <trkpt lat="39.8661450" lon="-6.3202300">
        <ele>474.8</ele>
        <time>2021-10-16T15:53:20Z</time>
      </trkpt>
      <trkpt lat="39.8660630" lon="-6.3203320">
        <ele>474.6</ele>
        <time>2021-10-16T15:53:23Z</time>
      </trkpt>
      <trkpt lat="39.8658310" lon="-6.3206260">
        <ele>474.4</ele>
        <time>2021-10-16T15:53:31Z</time>
      </trkpt>
      <trkpt lat="39.8656720" lon="-6.3207600">
        <ele>474.6</ele>
        <time>2021-10-16T15:53:36Z</time>
      </trkpt>
      <trkpt lat="39.8655160" lon="-6.3209440">
        <ele>475.2</ele>
        <time>2021-10-16T15:53:42Z</time>
      </trkpt>
      <trkpt lat="39.8653500" lon="-6.3211300">
        <ele>475.4</ele>
        <time>2021-10-16T15:53:48Z</time>
      </trkpt>
      <trkpt lat="39.8653310" lon="-6.3211620">
        <ele>475.4</ele>
        <time>2021-10-16T15:53:49Z</time>
      </trkpt>
      <trkpt lat="39.8651890" lon="-6.3213390">
        <ele>475.6</ele>
        <time>2021-10-16T15:53:55Z</time>
      </trkpt>
      <trkpt lat="39.8650530" lon="-6.3214880">
        <ele>476.4</ele>
        <time>2021-10-16T15:54:01Z</time>
      </trkpt>
      <trkpt lat="39.8650300" lon="-6.3215130">
        <ele>476.4</ele>
        <time>2021-10-16T15:54:02Z</time>
      </trkpt>
      <trkpt lat="39.8649510" lon="-6.3215940">
        <ele>476.8</ele>
        <time>2021-10-16T15:54:07Z</time>
      </trkpt>
      <trkpt lat="39.8649040" lon="-6.3216450">
        <ele>477.6</ele>
        <time>2021-10-16T15:54:10Z</time>
      </trkpt>
      <trkpt lat="39.8648280" lon="-6.3217350">
        <ele>478.6</ele>
        <time>2021-10-16T15:54:16Z</time>
      </trkpt>
      <trkpt lat="39.8647970" lon="-6.3217640">
        <ele>478.6</ele>
        <time>2021-10-16T15:54:19Z</time>
      </trkpt>
      <trkpt lat="39.8647150" lon="-6.3218490">
        <ele>479.6</ele>
        <time>2021-10-16T15:54:25Z</time>
      </trkpt>
      <trkpt lat="39.8647000" lon="-6.3218600">
        <ele>479.6</ele>
        <time>2021-10-16T15:54:26Z</time>
      </trkpt>
      <trkpt lat="39.8645920" lon="-6.3219200">
        <ele>479.8</ele>
        <time>2021-10-16T15:54:32Z</time>
      </trkpt>
      <trkpt lat="39.8644960" lon="-6.3219810">
        <ele>479.8</ele>
        <time>2021-10-16T15:54:37Z</time>
      </trkpt>
      <trkpt lat="39.8644720" lon="-6.3220020">
        <ele>480.0</ele>
        <time>2021-10-16T15:54:38Z</time>
      </trkpt>
      <trkpt lat="39.8643250" lon="-6.3220970">
        <ele>480.0</ele>
        <time>2021-10-16T15:54:44Z</time>
      </trkpt>
      <trkpt lat="39.8641250" lon="-6.3222350">
        <ele>479.8</ele>
        <time>2021-10-16T15:54:51Z</time>
      </trkpt>
      <trkpt lat="39.8639930" lon="-6.3223330">
        <ele>480.0</ele>
        <time>2021-10-16T15:54:56Z</time>
      </trkpt>
      <trkpt lat="39.8638390" lon="-6.3224580">
        <ele>480.0</ele>
        <time>2021-10-16T15:55:02Z</time>
      </trkpt>
      <trkpt lat="39.8636320" lon="-6.3226200">
        <ele>479.6</ele>
        <time>2021-10-16T15:55:09Z</time>
      </trkpt>
      <trkpt lat="39.8634220" lon="-6.3227710">
        <ele>479.6</ele>
        <time>2021-10-16T15:55:16Z</time>
      </trkpt>
      <trkpt lat="39.8632360" lon="-6.3229030">
        <ele>479.8</ele>
        <time>2021-10-16T15:55:22Z</time>
      </trkpt>
      <trkpt lat="39.8631850" lon="-6.3229440">
        <ele>479.8</ele>
        <time>2021-10-16T15:55:24Z</time>
      </trkpt>
      <trkpt lat="39.8630530" lon="-6.3230560">
        <ele>480.0</ele>
        <time>2021-10-16T15:55:29Z</time>
      </trkpt>
      <trkpt lat="39.8629030" lon="-6.3231750">
        <ele>479.8</ele>
        <time>2021-10-16T15:55:34Z</time>
      </trkpt>
      <trkpt lat="39.8627070" lon="-6.3233210">
        <ele>480.2</ele>
        <time>2021-10-16T15:55:41Z</time>
      </trkpt>
      <trkpt lat="39.8625770" lon="-6.3234180">
        <ele>480.4</ele>
        <time>2021-10-16T15:55:46Z</time>
      </trkpt>
      <trkpt lat="39.8625220" lon="-6.3234300">
        <ele>480.6</ele>
        <time>2021-10-16T15:55:48Z</time>
      </trkpt>
      <trkpt lat="39.8624450" lon="-6.3234880">
        <ele>480.8</ele>
        <time>2021-10-16T15:55:51Z</time>
      </trkpt>
      <trkpt lat="39.8622860" lon="-6.3236180">
        <ele>480.6</ele>
        <time>2021-10-16T15:55:57Z</time>
      </trkpt>
      <trkpt lat="39.8621170" lon="-6.3237400">
        <ele>480.4</ele>
        <time>2021-10-16T15:56:02Z</time>
      </trkpt>
      <trkpt lat="39.8619020" lon="-6.3239040">
        <ele>479.8</ele>
        <time>2021-10-16T15:56:09Z</time>
      </trkpt>
      <trkpt lat="39.8616990" lon="-6.3240650">
        <ele>479.6</ele>
        <time>2021-10-16T15:56:16Z</time>
      </trkpt>
      <trkpt lat="39.8615910" lon="-6.3241260">
        <ele>479.6</ele>
        <time>2021-10-16T15:56:19Z</time>
      </trkpt>
      <trkpt lat="39.8614930" lon="-6.3242060">
        <ele>479.4</ele>
        <time>2021-10-16T15:56:22Z</time>
      </trkpt>
      <trkpt lat="39.8613120" lon="-6.3243520">
        <ele>479.0</ele>
        <time>2021-10-16T15:56:28Z</time>
      </trkpt>
      <trkpt lat="39.8610930" lon="-6.3244780">
        <ele>478.4</ele>
        <time>2021-10-16T15:56:36Z</time>
      </trkpt>
      <trkpt lat="39.8610900" lon="-6.3244820">
        <ele>478.2</ele>
        <time>2021-10-16T15:56:38Z</time>
      </trkpt>
      <trkpt lat="39.8610020" lon="-6.3245220">
        <ele>477.2</ele>
        <time>2021-10-16T15:56:51Z</time>
      </trkpt>
      <trkpt lat="39.8609800" lon="-6.3245360">
        <ele>477.2</ele>
        <time>2021-10-16T15:56:52Z</time>
      </trkpt>
      <trkpt lat="39.8608910" lon="-6.3245910">
        <ele>477.0</ele>
        <time>2021-10-16T15:56:56Z</time>
      </trkpt>
      <trkpt lat="39.8608340" lon="-6.3246170">
        <ele>477.0</ele>
        <time>2021-10-16T15:56:58Z</time>
      </trkpt>
      <trkpt lat="39.8606150" lon="-6.3247550">
        <ele>476.6</ele>
        <time>2021-10-16T15:57:05Z</time>
      </trkpt>
      <trkpt lat="39.8604780" lon="-6.3248540">
        <ele>476.6</ele>
        <time>2021-10-16T15:57:09Z</time>
      </trkpt>
      <trkpt lat="39.8604050" lon="-6.3249000">
        <ele>476.4</ele>
        <time>2021-10-16T15:57:11Z</time>
      </trkpt>
      <trkpt lat="39.8601800" lon="-6.3250520">
        <ele>476.4</ele>
        <time>2021-10-16T15:57:18Z</time>
      </trkpt>
      <trkpt lat="39.8599290" lon="-6.3252480">
        <ele>476.2</ele>
        <time>2021-10-16T15:57:25Z</time>
      </trkpt>
      <trkpt lat="39.8598940" lon="-6.3252780">
        <ele>476.2</ele>
        <time>2021-10-16T15:57:26Z</time>
      </trkpt>
      <trkpt lat="39.8597960" lon="-6.3253580">
        <ele>476.2</ele>
        <time>2021-10-16T15:57:29Z</time>
      </trkpt>
      <trkpt lat="39.8597050" lon="-6.3254520">
        <ele>476.2</ele>
        <time>2021-10-16T15:57:32Z</time>
      </trkpt>
      <trkpt lat="39.8594560" lon="-6.3257200">
        <ele>476.8</ele>
        <time>2021-10-16T15:57:40Z</time>
      </trkpt>
      <trkpt lat="39.8593160" lon="-6.3258540">
        <ele>476.4</ele>
        <time>2021-10-16T15:57:44Z</time>
      </trkpt>
      <trkpt lat="39.8591940" lon="-6.3259420">
        <ele>476.2</ele>
        <time>2021-10-16T15:57:47Z</time>
      </trkpt>
      <trkpt lat="39.8590200" lon="-6.3260360">
        <ele>475.8</ele>
        <time>2021-10-16T15:57:51Z</time>
      </trkpt>
      <trkpt lat="39.8589360" lon="-6.3261140">
        <ele>475.6</ele>
        <time>2021-10-16T15:57:53Z</time>
      </trkpt>
      <trkpt lat="39.8587900" lon="-6.3262690">
        <ele>475.2</ele>
        <time>2021-10-16T15:57:57Z</time>
      </trkpt>
      <trkpt lat="39.8587440" lon="-6.3263560">
        <ele>474.6</ele>
        <time>2021-10-16T15:57:59Z</time>
      </trkpt>
      <trkpt lat="39.8586340" lon="-6.3264870">
        <ele>474.0</ele>
        <time>2021-10-16T15:58:03Z</time>
      </trkpt>
      <trkpt lat="39.8585510" lon="-6.3265450">
        <ele>473.6</ele>
        <time>2021-10-16T15:58:05Z</time>
      </trkpt>
      <trkpt lat="39.8584450" lon="-6.3266670">
        <ele>473.2</ele>
        <time>2021-10-16T15:58:08Z</time>
      </trkpt>
      <trkpt lat="39.8584130" lon="-6.3267070">
        <ele>473.0</ele>
        <time>2021-10-16T15:58:09Z</time>
      </trkpt>
      <trkpt lat="39.8583450" lon="-6.3267930">
        <ele>472.6</ele>
        <time>2021-10-16T15:58:11Z</time>
      </trkpt>
      <trkpt lat="39.8582710" lon="-6.3268780">
        <ele>472.4</ele>
        <time>2021-10-16T15:58:13Z</time>
      </trkpt>
      <trkpt lat="39.8582370" lon="-6.3269270">
        <ele>472.2</ele>
        <time>2021-10-16T15:58:14Z</time>
      </trkpt>
      <trkpt lat="39.8581720" lon="-6.3270340">
        <ele>472.2</ele>
        <time>2021-10-16T15:58:16Z</time>
      </trkpt>
      <trkpt lat="39.8581320" lon="-6.3270760">
        <ele>472.0</ele>
        <time>2021-10-16T15:58:17Z</time>
      </trkpt>
      <trkpt lat="39.8579720" lon="-6.3272460">
        <ele>471.4</ele>
        <time>2021-10-16T15:58:21Z</time>
      </trkpt>
      <trkpt lat="39.8579050" lon="-6.3273490">
        <ele>471.2</ele>
        <time>2021-10-16T15:58:23Z</time>
      </trkpt>
      <trkpt lat="39.8578460" lon="-6.3274530">
        <ele>470.6</ele>
        <time>2021-10-16T15:58:25Z</time>
      </trkpt>
      <trkpt lat="39.8576770" lon="-6.3277050">
        <ele>469.4</ele>
        <time>2021-10-16T15:58:30Z</time>
      </trkpt>
      <trkpt lat="39.8576430" lon="-6.3277560">
        <ele>469.4</ele>
        <time>2021-10-16T15:58:31Z</time>
      </trkpt>
      <trkpt lat="39.8576060" lon="-6.3278030">
        <ele>469.0</ele>
        <time>2021-10-16T15:58:32Z</time>
      </trkpt>
      <trkpt lat="39.8574840" lon="-6.3279290">
        <ele>468.8</ele>
        <time>2021-10-16T15:58:35Z</time>
      </trkpt>
      <trkpt lat="39.8574380" lon="-6.3279710">
        <ele>468.6</ele>
        <time>2021-10-16T15:58:36Z</time>
      </trkpt>
      <trkpt lat="39.8573450" lon="-6.3280520">
        <ele>468.4</ele>
        <time>2021-10-16T15:58:38Z</time>
      </trkpt>
      <trkpt lat="39.8573020" lon="-6.3280950">
        <ele>468.2</ele>
        <time>2021-10-16T15:58:39Z</time>
      </trkpt>
      <trkpt lat="39.8572260" lon="-6.3281990">
        <ele>467.8</ele>
        <time>2021-10-16T15:58:41Z</time>
      </trkpt>
      <trkpt lat="39.8571980" lon="-6.3282620">
        <ele>467.6</ele>
        <time>2021-10-16T15:58:42Z</time>
      </trkpt>
      <trkpt lat="39.8571400" lon="-6.3283780">
        <ele>467.2</ele>
        <time>2021-10-16T15:58:44Z</time>
      </trkpt>
      <trkpt lat="39.8570260" lon="-6.3285270">
        <ele>466.8</ele>
        <time>2021-10-16T15:58:47Z</time>
      </trkpt>
      <trkpt lat="39.8568650" lon="-6.3287180">
        <ele>466.2</ele>
        <time>2021-10-16T15:58:51Z</time>
      </trkpt>
      <trkpt lat="39.8568230" lon="-6.3287610">
        <ele>466.0</ele>
        <time>2021-10-16T15:58:52Z</time>
      </trkpt>
      <trkpt lat="39.8567300" lon="-6.3288450">
        <ele>465.6</ele>
        <time>2021-10-16T15:58:54Z</time>
      </trkpt>
      <trkpt lat="39.8566870" lon="-6.3288960">
        <ele>465.4</ele>
        <time>2021-10-16T15:58:55Z</time>
      </trkpt>
      <trkpt lat="39.8566540" lon="-6.3289580">
        <ele>465.2</ele>
        <time>2021-10-16T15:58:56Z</time>
      </trkpt>
      <trkpt lat="39.8566040" lon="-6.3290900">
        <ele>465.0</ele>
        <time>2021-10-16T15:58:58Z</time>
      </trkpt>
      <trkpt lat="39.8565760" lon="-6.3291480">
        <ele>464.8</ele>
        <time>2021-10-16T15:58:59Z</time>
      </trkpt>
      <trkpt lat="39.8565510" lon="-6.3292050">
        <ele>464.6</ele>
        <time>2021-10-16T15:59:00Z</time>
      </trkpt>
      <trkpt lat="39.8565080" lon="-6.3293360">
        <ele>464.4</ele>
        <time>2021-10-16T15:59:02Z</time>
      </trkpt>
      <trkpt lat="39.8564910" lon="-6.3294040">
        <ele>464.4</ele>
        <time>2021-10-16T15:59:03Z</time>
      </trkpt>
      <trkpt lat="39.8564500" lon="-6.3295400">
        <ele>464.0</ele>
        <time>2021-10-16T15:59:05Z</time>
      </trkpt>
      <trkpt lat="39.8564020" lon="-6.3297390">
        <ele>463.2</ele>
        <time>2021-10-16T15:59:08Z</time>
      </trkpt>
      <trkpt lat="39.8563050" lon="-6.3298780">
        <ele>463.0</ele>
        <time>2021-10-16T15:59:11Z</time>
      </trkpt>
      <trkpt lat="39.8562730" lon="-6.3299320">
        <ele>462.6</ele>
        <time>2021-10-16T15:59:12Z</time>
      </trkpt>
      <trkpt lat="39.8562180" lon="-6.3300420">
        <ele>462.0</ele>
        <time>2021-10-16T15:59:14Z</time>
      </trkpt>
      <trkpt lat="39.8561570" lon="-6.3301430">
        <ele>462.0</ele>
        <time>2021-10-16T15:59:16Z</time>
      </trkpt>
      <trkpt lat="39.8561270" lon="-6.3301980">
        <ele>461.8</ele>
        <time>2021-10-16T15:59:17Z</time>
      </trkpt>
      <trkpt lat="39.8559760" lon="-6.3304550">
        <ele>461.4</ele>
        <time>2021-10-16T15:59:22Z</time>
      </trkpt>
      <trkpt lat="39.8558930" lon="-6.3305450">
        <ele>461.0</ele>
        <time>2021-10-16T15:59:24Z</time>
      </trkpt>
      <trkpt lat="39.8558510" lon="-6.3305900">
        <ele>460.8</ele>
        <time>2021-10-16T15:59:25Z</time>
      </trkpt>
      <trkpt lat="39.8557710" lon="-6.3306870">
        <ele>460.6</ele>
        <time>2021-10-16T15:59:27Z</time>
      </trkpt>
      <trkpt lat="39.8556970" lon="-6.3307920">
        <ele>460.2</ele>
        <time>2021-10-16T15:59:29Z</time>
      </trkpt>
      <trkpt lat="39.8556570" lon="-6.3308460">
        <ele>460.0</ele>
        <time>2021-10-16T15:59:30Z</time>
      </trkpt>
      <trkpt lat="39.8555890" lon="-6.3309590">
        <ele>459.8</ele>
        <time>2021-10-16T15:59:32Z</time>
      </trkpt>
      <trkpt lat="39.8555180" lon="-6.3310600">
        <ele>459.4</ele>
        <time>2021-10-16T15:59:34Z</time>
      </trkpt>
      <trkpt lat="39.8554020" lon="-6.3312060">
        <ele>458.8</ele>
        <time>2021-10-16T15:59:37Z</time>
      </trkpt>
      <trkpt lat="39.8553700" lon="-6.3312560">
        <ele>458.8</ele>
        <time>2021-10-16T15:59:38Z</time>
      </trkpt>
      <trkpt lat="39.8553380" lon="-6.3313080">
        <ele>458.6</ele>
        <time>2021-10-16T15:59:39Z</time>
      </trkpt>
      <trkpt lat="39.8553060" lon="-6.3313570">
        <ele>458.6</ele>
        <time>2021-10-16T15:59:40Z</time>
      </trkpt>
      <trkpt lat="39.8552440" lon="-6.3314530">
        <ele>458.4</ele>
        <time>2021-10-16T15:59:42Z</time>
      </trkpt>
      <trkpt lat="39.8551340" lon="-6.3315820">
        <ele>458.2</ele>
        <time>2021-10-16T15:59:45Z</time>
      </trkpt>
      <trkpt lat="39.8550620" lon="-6.3316730">
        <ele>457.8</ele>
        <time>2021-10-16T15:59:47Z</time>
      </trkpt>
      <trkpt lat="39.8550310" lon="-6.3317250">
        <ele>457.6</ele>
        <time>2021-10-16T15:59:48Z</time>
      </trkpt>
      <trkpt lat="39.8549670" lon="-6.3318210">
        <ele>457.2</ele>
        <time>2021-10-16T15:59:50Z</time>
      </trkpt>
      <trkpt lat="39.8548920" lon="-6.3319060">
        <ele>457.0</ele>
        <time>2021-10-16T15:59:52Z</time>
      </trkpt>
      <trkpt lat="39.8548090" lon="-6.3320560">
        <ele>456.4</ele>
        <time>2021-10-16T15:59:55Z</time>
      </trkpt>
      <trkpt lat="39.8546290" lon="-6.3323580">
        <ele>455.6</ele>
        <time>2021-10-16T16:00:01Z</time>
      </trkpt>
      <trkpt lat="39.8545960" lon="-6.3323880">
        <ele>455.6</ele>
        <time>2021-10-16T16:00:02Z</time>
      </trkpt>
      <trkpt lat="39.8544810" lon="-6.3324870">
        <ele>455.4</ele>
        <time>2021-10-16T16:00:05Z</time>
      </trkpt>
      <trkpt lat="39.8543360" lon="-6.3326240">
        <ele>455.2</ele>
        <time>2021-10-16T16:00:09Z</time>
      </trkpt>
      <trkpt lat="39.8542390" lon="-6.3327220">
        <ele>455.0</ele>
        <time>2021-10-16T16:00:12Z</time>
      </trkpt>
      <trkpt lat="39.8541900" lon="-6.3327990">
        <ele>455.0</ele>
        <time>2021-10-16T16:00:14Z</time>
      </trkpt>
      <trkpt lat="39.8541600" lon="-6.3328540">
        <ele>455.0</ele>
        <time>2021-10-16T16:00:15Z</time>
      </trkpt>
      <trkpt lat="39.8540350" lon="-6.3330680">
        <ele>455.0</ele>
        <time>2021-10-16T16:00:20Z</time>
      </trkpt>
      <trkpt lat="39.8539170" lon="-6.3332360">
        <ele>454.8</ele>
        <time>2021-10-16T16:00:24Z</time>
      </trkpt>
      <trkpt lat="39.8538890" lon="-6.3332850">
        <ele>454.8</ele>
        <time>2021-10-16T16:00:25Z</time>
      </trkpt>
      <trkpt lat="39.8537580" lon="-6.3335130">
        <ele>454.4</ele>
        <time>2021-10-16T16:00:30Z</time>
      </trkpt>
      <trkpt lat="39.8536510" lon="-6.3336780">
        <ele>454.0</ele>
        <time>2021-10-16T16:00:34Z</time>
      </trkpt>
      <trkpt lat="39.8535800" lon="-6.3338300">
        <ele>453.8</ele>
        <time>2021-10-16T16:00:37Z</time>
      </trkpt>
      <trkpt lat="39.8535590" lon="-6.3338890">
        <ele>453.6</ele>
        <time>2021-10-16T16:00:38Z</time>
      </trkpt>
      <trkpt lat="39.8535290" lon="-6.3339850">
        <ele>453.4</ele>
        <time>2021-10-16T16:00:40Z</time>
      </trkpt>
      <trkpt lat="39.8535120" lon="-6.3340280">
        <ele>453.2</ele>
        <time>2021-10-16T16:00:41Z</time>
      </trkpt>
      <trkpt lat="39.8534850" lon="-6.3341190">
        <ele>453.2</ele>
        <time>2021-10-16T16:00:43Z</time>
      </trkpt>
      <trkpt lat="39.8534780" lon="-6.3341700">
        <ele>453.2</ele>
        <time>2021-10-16T16:00:44Z</time>
      </trkpt>
      <trkpt lat="39.8533930" lon="-6.3345500">
        <ele>453.8</ele>
        <time>2021-10-16T16:00:52Z</time>
      </trkpt>
      <trkpt lat="39.8532870" lon="-6.3348810">
        <ele>454.2</ele>
        <time>2021-10-16T16:00:59Z</time>
      </trkpt>
      <trkpt lat="39.8531330" lon="-6.3351600">
        <ele>454.2</ele>
        <time>2021-10-16T16:01:05Z</time>
      </trkpt>
      <trkpt lat="39.8531150" lon="-6.3352120">
        <ele>454.2</ele>
        <time>2021-10-16T16:01:06Z</time>
      </trkpt>
      <trkpt lat="39.8530970" lon="-6.3352640">
        <ele>454.2</ele>
        <time>2021-10-16T16:01:07Z</time>
      </trkpt>
      <trkpt lat="39.8529800" lon="-6.3355220">
        <ele>454.0</ele>
        <time>2021-10-16T16:01:12Z</time>
      </trkpt>
      <trkpt lat="39.8529300" lon="-6.3356310">
        <ele>453.8</ele>
        <time>2021-10-16T16:01:14Z</time>
      </trkpt>
      <trkpt lat="39.8528880" lon="-6.3357520">
        <ele>453.6</ele>
        <time>2021-10-16T16:01:16Z</time>
      </trkpt>
      <trkpt lat="39.8528570" lon="-6.3358070">
        <ele>453.4</ele>
        <time>2021-10-16T16:01:17Z</time>
      </trkpt>
      <trkpt lat="39.8527940" lon="-6.3359190">
        <ele>453.2</ele>
        <time>2021-10-16T16:01:19Z</time>
      </trkpt>
      <trkpt lat="39.8527300" lon="-6.3361060">
        <ele>452.8</ele>
        <time>2021-10-16T16:01:22Z</time>
      </trkpt>
      <trkpt lat="39.8526820" lon="-6.3362270">
        <ele>452.6</ele>
        <time>2021-10-16T16:01:24Z</time>
      </trkpt>
      <trkpt lat="39.8526050" lon="-6.3363300">
        <ele>452.2</ele>
        <time>2021-10-16T16:01:26Z</time>
      </trkpt>
      <trkpt lat="39.8524550" lon="-6.3365620">
        <ele>451.4</ele>
        <time>2021-10-16T16:01:31Z</time>
      </trkpt>
      <trkpt lat="39.8524230" lon="-6.3365880">
        <ele>451.2</ele>
        <time>2021-10-16T16:01:32Z</time>
      </trkpt>
      <trkpt lat="39.8523790" lon="-6.3366570">
        <ele>451.0</ele>
        <time>2021-10-16T16:01:34Z</time>
      </trkpt>
      <trkpt lat="39.8523750" lon="-6.3366950">
        <ele>450.8</ele>
        <time>2021-10-16T16:01:35Z</time>
      </trkpt>
      <trkpt lat="39.8523410" lon="-6.3368390">
        <ele>450.6</ele>
        <time>2021-10-16T16:01:39Z</time>
      </trkpt>
      <trkpt lat="39.8522740" lon="-6.3370210">
        <ele>451.0</ele>
        <time>2021-10-16T16:01:44Z</time>
      </trkpt>
      <trkpt lat="39.8522210" lon="-6.3371240">
        <ele>451.2</ele>
        <time>2021-10-16T16:01:47Z</time>
      </trkpt>
      <trkpt lat="39.8521510" lon="-6.3372960">
        <ele>451.4</ele>
        <time>2021-10-16T16:01:52Z</time>
      </trkpt>
      <trkpt lat="39.8520980" lon="-6.3374730">
        <ele>451.6</ele>
        <time>2021-10-16T16:01:57Z</time>
      </trkpt>
      <trkpt lat="39.8519840" lon="-6.3376430">
        <ele>452.4</ele>
        <time>2021-10-16T16:02:03Z</time>
      </trkpt>
      <trkpt lat="39.8519510" lon="-6.3376990">
        <ele>452.6</ele>
        <time>2021-10-16T16:02:05Z</time>
      </trkpt>
      <trkpt lat="39.8519060" lon="-6.3378520">
        <ele>453.4</ele>
        <time>2021-10-16T16:02:10Z</time>
      </trkpt>
      <trkpt lat="39.8518980" lon="-6.3378870">
        <ele>453.4</ele>
        <time>2021-10-16T16:02:11Z</time>
      </trkpt>
      <trkpt lat="39.8518300" lon="-6.3380390">
        <ele>454.2</ele>
        <time>2021-10-16T16:02:16Z</time>
      </trkpt>
      <trkpt lat="39.8517890" lon="-6.3381300">
        <ele>454.4</ele>
        <time>2021-10-16T16:02:19Z</time>
      </trkpt>
      <trkpt lat="39.8517720" lon="-6.3381610">
        <ele>454.6</ele>
        <time>2021-10-16T16:02:20Z</time>
      </trkpt>
      <trkpt lat="39.8517190" lon="-6.3382990">
        <ele>455.2</ele>
        <time>2021-10-16T16:02:24Z</time>
      </trkpt>
      <trkpt lat="39.8516390" lon="-6.3384780">
        <ele>455.2</ele>
        <time>2021-10-16T16:02:29Z</time>
      </trkpt>
      <trkpt lat="39.8516130" lon="-6.3385500">
        <ele>455.2</ele>
        <time>2021-10-16T16:02:31Z</time>
      </trkpt>
      <trkpt lat="39.8515680" lon="-6.3386480">
        <ele>455.6</ele>
        <time>2021-10-16T16:02:34Z</time>
      </trkpt>
      <trkpt lat="39.8515150" lon="-6.3387380">
        <ele>455.8</ele>
        <time>2021-10-16T16:02:37Z</time>
      </trkpt>
      <trkpt lat="39.8514460" lon="-6.3389440">
        <ele>456.2</ele>
        <time>2021-10-16T16:02:43Z</time>
      </trkpt>
      <trkpt lat="39.8514380" lon="-6.3389770">
        <ele>456.4</ele>
        <time>2021-10-16T16:02:44Z</time>
      </trkpt>
      <trkpt lat="39.8514040" lon="-6.3390350">
        <ele>456.6</ele>
        <time>2021-10-16T16:02:46Z</time>
      </trkpt>
      <trkpt lat="39.8513860" lon="-6.3390610">
        <ele>456.6</ele>
        <time>2021-10-16T16:02:47Z</time>
      </trkpt>
      <trkpt lat="39.8505240" lon="-6.3408250">
        <ele>454.0</ele>
        <time>2021-10-16T16:05:40Z</time>
      </trkpt>
      <trkpt lat="39.8505210" lon="-6.3408310">
        <ele>454.4</ele>
        <time>2021-10-16T16:05:41Z</time>
      </trkpt>
      <trkpt lat="39.8505210" lon="-6.3409090">
        <ele>454.2</ele>
        <time>2021-10-16T16:05:58Z</time>
      </trkpt>
      <trkpt lat="39.8505030" lon="-6.3409410">
        <ele>454.2</ele>
        <time>2021-10-16T16:05:59Z</time>
      </trkpt>
      <trkpt lat="39.8503830" lon="-6.3411390">
        <ele>454.0</ele>
        <time>2021-10-16T16:06:04Z</time>
      </trkpt>
      <trkpt lat="39.8501160" lon="-6.3415330">
        <ele>453.8</ele>
        <time>2021-10-16T16:06:12Z</time>
      </trkpt>
      <trkpt lat="39.8499290" lon="-6.3418960">
        <ele>453.0</ele>
        <time>2021-10-16T16:06:18Z</time>
      </trkpt>
      <trkpt lat="39.8498900" lon="-6.3419500">
        <ele>452.8</ele>
        <time>2021-10-16T16:06:19Z</time>
      </trkpt>
      <trkpt lat="39.8498130" lon="-6.3420520">
        <ele>452.4</ele>
        <time>2021-10-16T16:06:21Z</time>
      </trkpt>
      <trkpt lat="39.8497240" lon="-6.3421400">
        <ele>452.2</ele>
        <time>2021-10-16T16:06:23Z</time>
      </trkpt>
      <trkpt lat="39.8496870" lon="-6.3421900">
        <ele>452.2</ele>
        <time>2021-10-16T16:06:24Z</time>
      </trkpt>
      <trkpt lat="39.8496030" lon="-6.3423530">
        <ele>452.0</ele>
        <time>2021-10-16T16:06:27Z</time>
      </trkpt>
      <trkpt lat="39.8495740" lon="-6.3424710">
        <ele>451.8</ele>
        <time>2021-10-16T16:06:29Z</time>
      </trkpt>
      <trkpt lat="39.8495560" lon="-6.3425310">
        <ele>451.8</ele>
        <time>2021-10-16T16:06:30Z</time>
      </trkpt>
      <trkpt lat="39.8494260" lon="-6.3428210">
        <ele>451.2</ele>
        <time>2021-10-16T16:06:35Z</time>
      </trkpt>
      <trkpt lat="39.8491900" lon="-6.3432830">
        <ele>452.0</ele>
        <time>2021-10-16T16:06:44Z</time>
      </trkpt>
      <trkpt lat="39.8491090" lon="-6.3434300">
        <ele>452.0</ele>
        <time>2021-10-16T16:06:47Z</time>
      </trkpt>
      <trkpt lat="39.8489650" lon="-6.3437290">
        <ele>452.2</ele>
        <time>2021-10-16T16:06:53Z</time>
      </trkpt>
      <trkpt lat="39.8488250" lon="-6.3440120">
        <ele>452.6</ele>
        <time>2021-10-16T16:06:59Z</time>
      </trkpt>
      <trkpt lat="39.8487520" lon="-6.3440860">
        <ele>452.6</ele>
        <time>2021-10-16T16:07:01Z</time>
      </trkpt>
      <trkpt lat="39.8486930" lon="-6.3441560">
        <ele>452.6</ele>
        <time>2021-10-16T16:07:03Z</time>
      </trkpt>
      <trkpt lat="39.8486780" lon="-6.3442030">
        <ele>452.8</ele>
        <time>2021-10-16T16:07:04Z</time>
      </trkpt>
      <trkpt lat="39.8486570" lon="-6.3443040">
        <ele>452.8</ele>
        <time>2021-10-16T16:07:06Z</time>
      </trkpt>
      <trkpt lat="39.8486020" lon="-6.3444410">
        <ele>452.8</ele>
        <time>2021-10-16T16:07:09Z</time>
      </trkpt>
      <trkpt lat="39.8485770" lon="-6.3444830">
        <ele>452.8</ele>
        <time>2021-10-16T16:07:10Z</time>
      </trkpt>
      <trkpt lat="39.8484580" lon="-6.3446970">
        <ele>453.0</ele>
        <time>2021-10-16T16:07:15Z</time>
      </trkpt>
      <trkpt lat="39.8482600" lon="-6.3450420">
        <ele>453.4</ele>
        <time>2021-10-16T16:07:23Z</time>
      </trkpt>
      <trkpt lat="39.8480340" lon="-6.3453600">
        <ele>453.6</ele>
        <time>2021-10-16T16:07:31Z</time>
      </trkpt>
      <trkpt lat="39.8479670" lon="-6.3454340">
        <ele>453.6</ele>
        <time>2021-10-16T16:07:33Z</time>
      </trkpt>
      <trkpt lat="39.8478710" lon="-6.3456310">
        <ele>453.4</ele>
        <time>2021-10-16T16:07:37Z</time>
      </trkpt>
      <trkpt lat="39.8478420" lon="-6.3456810">
        <ele>453.2</ele>
        <time>2021-10-16T16:07:38Z</time>
      </trkpt>
      <trkpt lat="39.8475770" lon="-6.3461470">
        <ele>452.2</ele>
        <time>2021-10-16T16:07:47Z</time>
      </trkpt>
      <trkpt lat="39.8474920" lon="-6.3462830">
        <ele>452.0</ele>
        <time>2021-10-16T16:07:50Z</time>
      </trkpt>
      <trkpt lat="39.8474670" lon="-6.3463250">
        <ele>451.6</ele>
        <time>2021-10-16T16:07:51Z</time>
      </trkpt>
      <trkpt lat="39.8474060" lon="-6.3464490">
        <ele>451.4</ele>
        <time>2021-10-16T16:07:54Z</time>
      </trkpt>
      <trkpt lat="39.8472730" lon="-6.3466920">
        <ele>451.2</ele>
        <time>2021-10-16T16:08:00Z</time>
      </trkpt>
      <trkpt lat="39.8472360" lon="-6.3467460">
        <ele>450.8</ele>
        <time>2021-10-16T16:08:04Z</time>
      </trkpt>
      <trkpt lat="39.8472360" lon="-6.3467460">
        <ele>450.8</ele>
        <time>2021-10-16T16:08:05Z</time>
      </trkpt>
      <trkpt lat="39.8471600" lon="-6.3468930">
        <ele>450.8</ele>
        <time>2021-10-16T16:08:23Z</time>
      </trkpt>
      <trkpt lat="39.8471400" lon="-6.3469250">
        <ele>451.0</ele>
        <time>2021-10-16T16:08:26Z</time>
      </trkpt>
      <trkpt lat="39.8471320" lon="-6.3469340">
        <ele>451.0</ele>
        <time>2021-10-16T16:08:27Z</time>
      </trkpt>
      <trkpt lat="39.8471270" lon="-6.3469470">
        <ele>451.2</ele>
        <time>2021-10-16T16:08:31Z</time>
      </trkpt>
      <trkpt lat="39.8470220" lon="-6.3470610">
        <ele>452.2</ele>
        <time>2021-10-16T16:10:19Z</time>
      </trkpt>
      <trkpt lat="39.8470120" lon="-6.3470780">
        <ele>452.2</ele>
        <time>2021-10-16T16:10:20Z</time>
      </trkpt>
      <trkpt lat="39.8469560" lon="-6.3472330">
        <ele>452.2</ele>
        <time>2021-10-16T16:10:29Z</time>
      </trkpt>
      <trkpt lat="39.8469550" lon="-6.3472960">
        <ele>452.2</ele>
        <time>2021-10-16T16:10:33Z</time>
      </trkpt>
      <trkpt lat="39.8469430" lon="-6.3473140">
        <ele>452.2</ele>
        <time>2021-10-16T16:10:35Z</time>
      </trkpt>
      <trkpt lat="39.8469360" lon="-6.3473170">
        <ele>452.2</ele>
        <time>2021-10-16T16:10:36Z</time>
      </trkpt>
      <trkpt lat="39.8469260" lon="-6.3473380">
        <ele>452.2</ele>
        <time>2021-10-16T16:10:42Z</time>
      </trkpt>
      <trkpt lat="39.8469260" lon="-6.3473380">
        <ele>452.2</ele>
        <time>2021-10-16T16:10:44Z</time>
      </trkpt>
      <trkpt lat="39.8469010" lon="-6.3473860">
        <ele>452.6</ele>
        <time>2021-10-16T16:11:07Z</time>
      </trkpt>
      <trkpt lat="39.8468900" lon="-6.3474060">
        <ele>452.6</ele>
        <time>2021-10-16T16:11:08Z</time>
      </trkpt>
      <trkpt lat="39.8468790" lon="-6.3474290">
        <ele>452.6</ele>
        <time>2021-10-16T16:11:09Z</time>
      </trkpt>
      <trkpt lat="39.8468290" lon="-6.3475270">
        <ele>452.8</ele>
        <time>2021-10-16T16:11:13Z</time>
      </trkpt>
      <trkpt lat="39.8468000" lon="-6.3475960">
        <ele>453.0</ele>
        <time>2021-10-16T16:11:16Z</time>
      </trkpt>
      <trkpt lat="39.8467070" lon="-6.3477810">
        <ele>454.0</ele>
        <time>2021-10-16T16:11:24Z</time>
      </trkpt>
      <trkpt lat="39.8466940" lon="-6.3478040">
        <ele>454.2</ele>
        <time>2021-10-16T16:11:25Z</time>
      </trkpt>
      <trkpt lat="39.8466050" lon="-6.3479390">
        <ele>455.0</ele>
        <time>2021-10-16T16:11:32Z</time>
      </trkpt>
      <trkpt lat="39.8465920" lon="-6.3479570">
        <ele>455.2</ele>
        <time>2021-10-16T16:11:33Z</time>
      </trkpt>
      <trkpt lat="39.8465040" lon="-6.3480650">
        <ele>456.0</ele>
        <time>2021-10-16T16:11:39Z</time>
      </trkpt>
      <trkpt lat="39.8464910" lon="-6.3480870">
        <ele>456.2</ele>
        <time>2021-10-16T16:11:40Z</time>
      </trkpt>
      <trkpt lat="39.8463710" lon="-6.3482680">
        <ele>457.0</ele>
        <time>2021-10-16T16:11:49Z</time>
      </trkpt>
      <trkpt lat="39.8463460" lon="-6.3483080">
        <ele>457.4</ele>
        <time>2021-10-16T16:11:51Z</time>
      </trkpt>
      <trkpt lat="39.8462680" lon="-6.3484720">
        <ele>458.2</ele>
        <time>2021-10-16T16:11:59Z</time>
      </trkpt>
      <trkpt lat="39.8462570" lon="-6.3484920">
        <ele>458.6</ele>
        <time>2021-10-16T16:12:00Z</time>
      </trkpt>
      <trkpt lat="39.8461590" lon="-6.3486520">
        <ele>459.4</ele>
        <time>2021-10-16T16:12:09Z</time>
      </trkpt>
      <trkpt lat="39.8461330" lon="-6.3486950">
        <ele>459.6</ele>
        <time>2021-10-16T16:12:11Z</time>
      </trkpt>
      <trkpt lat="39.8461060" lon="-6.3487440">
        <ele>459.6</ele>
        <time>2021-10-16T16:12:13Z</time>
      </trkpt>
      <trkpt lat="39.8460580" lon="-6.3488130">
        <ele>459.6</ele>
        <time>2021-10-16T16:12:16Z</time>
      </trkpt>
      <trkpt lat="39.8460420" lon="-6.3488320">
        <ele>459.6</ele>
        <time>2021-10-16T16:12:17Z</time>
      </trkpt>
      <trkpt lat="39.8458920" lon="-6.3489790">
        <ele>459.2</ele>
        <time>2021-10-16T16:12:24Z</time>
      </trkpt>
      <trkpt lat="39.8458410" lon="-6.3490320">
        <ele>459.0</ele>
        <time>2021-10-16T16:12:26Z</time>
      </trkpt>
      <trkpt lat="39.8457190" lon="-6.3491280">
        <ele>458.2</ele>
        <time>2021-10-16T16:12:30Z</time>
      </trkpt>
      <trkpt lat="39.8456560" lon="-6.3491720">
        <ele>458.0</ele>
        <time>2021-10-16T16:12:32Z</time>
      </trkpt>
      <trkpt lat="39.8455340" lon="-6.3493100">
        <ele>457.4</ele>
        <time>2021-10-16T16:12:36Z</time>
      </trkpt>
      <trkpt lat="39.8454650" lon="-6.3493650">
        <ele>457.2</ele>
        <time>2021-10-16T16:12:38Z</time>
      </trkpt>
      <trkpt lat="39.8453450" lon="-6.3494740">
        <ele>456.0</ele>
        <time>2021-10-16T16:12:42Z</time>
      </trkpt>
      <trkpt lat="39.8452640" lon="-6.3495380">
        <ele>455.2</ele>
        <time>2021-10-16T16:12:44Z</time>
      </trkpt>
      <trkpt lat="39.8452230" lon="-6.3495840">
        <ele>454.8</ele>
        <time>2021-10-16T16:12:45Z</time>
      </trkpt>
      <trkpt lat="39.8450690" lon="-6.3497540">
        <ele>453.8</ele>
        <time>2021-10-16T16:12:48Z</time>
      </trkpt>
      <trkpt lat="39.8449720" lon="-6.3498550">
        <ele>452.6</ele>
        <time>2021-10-16T16:12:50Z</time>
      </trkpt>
      <trkpt lat="39.8449280" lon="-6.3499060">
        <ele>451.6</ele>
        <time>2021-10-16T16:12:51Z</time>
      </trkpt>
      <trkpt lat="39.8448530" lon="-6.3500080">
        <ele>450.8</ele>
        <time>2021-10-16T16:12:53Z</time>
      </trkpt>
      <trkpt lat="39.8448140" lon="-6.3500530">
        <ele>450.6</ele>
        <time>2021-10-16T16:12:54Z</time>
      </trkpt>
      <trkpt lat="39.8447700" lon="-6.3500970">
        <ele>449.8</ele>
        <time>2021-10-16T16:12:55Z</time>
      </trkpt>
      <trkpt lat="39.8446280" lon="-6.3502040">
        <ele>448.8</ele>
        <time>2021-10-16T16:12:58Z</time>
      </trkpt>
      <trkpt lat="39.8445390" lon="-6.3502710">
        <ele>448.0</ele>
        <time>2021-10-16T16:13:00Z</time>
      </trkpt>
      <trkpt lat="39.8444960" lon="-6.3503130">
        <ele>447.4</ele>
        <time>2021-10-16T16:13:01Z</time>
      </trkpt>
      <trkpt lat="39.8444560" lon="-6.3503530">
        <ele>447.0</ele>
        <time>2021-10-16T16:13:02Z</time>
      </trkpt>
      <trkpt lat="39.8443750" lon="-6.3504380">
        <ele>446.6</ele>
        <time>2021-10-16T16:13:04Z</time>
      </trkpt>
      <trkpt lat="39.8442870" lon="-6.3504950">
        <ele>446.2</ele>
        <time>2021-10-16T16:13:06Z</time>
      </trkpt>
      <trkpt lat="39.8442130" lon="-6.3505490">
        <ele>445.8</ele>
        <time>2021-10-16T16:13:08Z</time>
      </trkpt>
      <trkpt lat="39.8441610" lon="-6.3506130">
        <ele>445.2</ele>
        <time>2021-10-16T16:13:11Z</time>
      </trkpt>
      <trkpt lat="39.8440970" lon="-6.3506930">
        <ele>444.0</ele>
        <time>2021-10-16T16:13:16Z</time>
      </trkpt>
      <trkpt lat="39.8440750" lon="-6.3507160">
        <ele>443.8</ele>
        <time>2021-10-16T16:13:17Z</time>
      </trkpt>
      <trkpt lat="39.8440510" lon="-6.3507460">
        <ele>443.6</ele>
        <time>2021-10-16T16:13:18Z</time>
      </trkpt>
      <trkpt lat="39.8440170" lon="-6.3507930">
        <ele>443.4</ele>
        <time>2021-10-16T16:13:19Z</time>
      </trkpt>
      <trkpt lat="39.8439470" lon="-6.3508820">
        <ele>443.2</ele>
        <time>2021-10-16T16:13:21Z</time>
      </trkpt>
      <trkpt lat="39.8439140" lon="-6.3509140">
        <ele>442.8</ele>
        <time>2021-10-16T16:13:22Z</time>
      </trkpt>
      <trkpt lat="39.8437470" lon="-6.3510700">
        <ele>441.8</ele>
        <time>2021-10-16T16:13:26Z</time>
      </trkpt>
      <trkpt lat="39.8437060" lon="-6.3511040">
        <ele>441.4</ele>
        <time>2021-10-16T16:13:27Z</time>
      </trkpt>
      <trkpt lat="39.8435950" lon="-6.3512230">
        <ele>440.6</ele>
        <time>2021-10-16T16:13:30Z</time>
      </trkpt>
      <trkpt lat="39.8435120" lon="-6.3513670">
        <ele>440.0</ele>
        <time>2021-10-16T16:13:33Z</time>
      </trkpt>
      <trkpt lat="39.8434200" lon="-6.3515080">
        <ele>439.6</ele>
        <time>2021-10-16T16:13:36Z</time>
      </trkpt>
      <trkpt lat="39.8434010" lon="-6.3515380">
        <ele>439.4</ele>
        <time>2021-10-16T16:13:37Z</time>
      </trkpt>
      <trkpt lat="39.8433670" lon="-6.3516150">
        <ele>439.2</ele>
        <time>2021-10-16T16:13:39Z</time>
      </trkpt>
      <trkpt lat="39.8433400" lon="-6.3517660">
        <ele>438.8</ele>
        <time>2021-10-16T16:13:43Z</time>
      </trkpt>
      <trkpt lat="39.8433340" lon="-6.3518090">
        <ele>438.6</ele>
        <time>2021-10-16T16:13:44Z</time>
      </trkpt>
      <trkpt lat="39.8433220" lon="-6.3518880">
        <ele>438.4</ele>
        <time>2021-10-16T16:13:46Z</time>
      </trkpt>
      <trkpt lat="39.8432860" lon="-6.3520770">
        <ele>437.8</ele>
        <time>2021-10-16T16:13:50Z</time>
      </trkpt>
      <trkpt lat="39.8432340" lon="-6.3522670">
        <ele>437.0</ele>
        <time>2021-10-16T16:13:54Z</time>
      </trkpt>
      <trkpt lat="39.8432140" lon="-6.3523160">
        <ele>436.8</ele>
        <time>2021-10-16T16:13:55Z</time>
      </trkpt>
      <trkpt lat="39.8431230" lon="-6.3525090">
        <ele>436.6</ele>
        <time>2021-10-16T16:13:59Z</time>
      </trkpt>
      <trkpt lat="39.8430880" lon="-6.3526630">
        <ele>436.4</ele>
        <time>2021-10-16T16:14:02Z</time>
      </trkpt>
      <trkpt lat="39.8430700" lon="-6.3527720">
        <ele>436.4</ele>
        <time>2021-10-16T16:14:04Z</time>
      </trkpt>
      <trkpt lat="39.8430360" lon="-6.3528770">
        <ele>436.0</ele>
        <time>2021-10-16T16:14:06Z</time>
      </trkpt>
      <trkpt lat="39.8430130" lon="-6.3529230">
        <ele>436.0</ele>
        <time>2021-10-16T16:14:07Z</time>
      </trkpt>
      <trkpt lat="39.8429940" lon="-6.3529670">
        <ele>435.6</ele>
        <time>2021-10-16T16:14:08Z</time>
      </trkpt>
      <trkpt lat="39.8429790" lon="-6.3530150">
        <ele>435.6</ele>
        <time>2021-10-16T16:14:09Z</time>
      </trkpt>
      <trkpt lat="39.8429610" lon="-6.3531650">
        <ele>435.0</ele>
        <time>2021-10-16T16:14:12Z</time>
      </trkpt>
      <trkpt lat="39.8429540" lon="-6.3532170">
        <ele>434.8</ele>
        <time>2021-10-16T16:14:13Z</time>
      </trkpt>
      <trkpt lat="39.8429280" lon="-6.3535080">
        <ele>434.2</ele>
        <time>2021-10-16T16:14:18Z</time>
      </trkpt>
      <trkpt lat="39.8429070" lon="-6.3535630">
        <ele>434.0</ele>
        <time>2021-10-16T16:14:19Z</time>
      </trkpt>
      <trkpt lat="39.8428800" lon="-6.3536150">
        <ele>433.8</ele>
        <time>2021-10-16T16:14:20Z</time>
      </trkpt>
      <trkpt lat="39.8427650" lon="-6.3538260">
        <ele>432.6</ele>
        <time>2021-10-16T16:14:24Z</time>
      </trkpt>
      <trkpt lat="39.8427060" lon="-6.3539250">
        <ele>432.0</ele>
        <time>2021-10-16T16:14:26Z</time>
      </trkpt>
      <trkpt lat="39.8426630" lon="-6.3540240">
        <ele>431.6</ele>
        <time>2021-10-16T16:14:28Z</time>
      </trkpt>
      <trkpt lat="39.8426350" lon="-6.3541130">
        <ele>431.4</ele>
        <time>2021-10-16T16:14:30Z</time>
      </trkpt>
      <trkpt lat="39.8426240" lon="-6.3542490">
        <ele>430.8</ele>
        <time>2021-10-16T16:14:34Z</time>
      </trkpt>
      <trkpt lat="39.8426350" lon="-6.3543040">
        <ele>430.6</ele>
        <time>2021-10-16T16:14:36Z</time>
      </trkpt>
      <trkpt lat="39.8426430" lon="-6.3544110">
        <ele>429.8</ele>
        <time>2021-10-16T16:14:40Z</time>
      </trkpt>
      <trkpt lat="39.8426420" lon="-6.3544390">
        <ele>429.4</ele>
        <time>2021-10-16T16:14:41Z</time>
      </trkpt>
      <trkpt lat="39.8426370" lon="-6.3544730">
        <ele>429.4</ele>
        <time>2021-10-16T16:14:42Z</time>
      </trkpt>
      <trkpt lat="39.8425950" lon="-6.3545950">
        <ele>428.6</ele>
        <time>2021-10-16T16:14:45Z</time>
      </trkpt>
      <trkpt lat="39.8425880" lon="-6.3546270">
        <ele>428.4</ele>
        <time>2021-10-16T16:14:46Z</time>
      </trkpt>
      <trkpt lat="39.8425740" lon="-6.3546940">
        <ele>428.0</ele>
        <time>2021-10-16T16:14:48Z</time>
      </trkpt>
      <trkpt lat="39.8425560" lon="-6.3547140">
        <ele>428.0</ele>
        <time>2021-10-16T16:14:49Z</time>
      </trkpt>
      <trkpt lat="39.8425330" lon="-6.3547480">
        <ele>427.2</ele>
        <time>2021-10-16T16:14:52Z</time>
      </trkpt>
      <trkpt lat="39.8425330" lon="-6.3547480">
        <ele>427.0</ele>
        <time>2021-10-16T16:14:53Z</time>
      </trkpt>
      <trkpt lat="39.8424820" lon="-6.3547310">
        <ele>425.4</ele>
        <time>2021-10-16T16:16:31Z</time>
      </trkpt>
      <trkpt lat="39.8424400" lon="-6.3546700">
        <ele>425.8</ele>
        <time>2021-10-16T16:16:34Z</time>
      </trkpt>
      <trkpt lat="39.8423410" lon="-6.3545780">
        <ele>426.4</ele>
        <time>2021-10-16T16:16:40Z</time>
      </trkpt>
      <trkpt lat="39.8423250" lon="-6.3545650">
        <ele>426.6</ele>
        <time>2021-10-16T16:16:41Z</time>
      </trkpt>
      <trkpt lat="39.8421790" lon="-6.3544190">
        <ele>427.2</ele>
        <time>2021-10-16T16:16:49Z</time>
      </trkpt>
      <trkpt lat="39.8421290" lon="-6.3543070">
        <ele>427.6</ele>
        <time>2021-10-16T16:16:54Z</time>
      </trkpt>
      <trkpt lat="39.8421140" lon="-6.3542670">
        <ele>427.8</ele>
        <time>2021-10-16T16:16:56Z</time>
      </trkpt>
      <trkpt lat="39.8420310" lon="-6.3541490">
        <ele>428.8</ele>
        <time>2021-10-16T16:17:03Z</time>
      </trkpt>
      <trkpt lat="39.8419520" lon="-6.3541000">
        <ele>429.8</ele>
        <time>2021-10-16T16:17:08Z</time>
      </trkpt>
      <trkpt lat="39.8419370" lon="-6.3540940">
        <ele>430.0</ele>
        <time>2021-10-16T16:17:09Z</time>
      </trkpt>
      <trkpt lat="39.8418680" lon="-6.3540320">
        <ele>430.6</ele>
        <time>2021-10-16T16:17:14Z</time>
      </trkpt>
      <trkpt lat="39.8418330" lon="-6.3539990">
        <ele>430.8</ele>
        <time>2021-10-16T16:17:17Z</time>
      </trkpt>
      <trkpt lat="39.8418170" lon="-6.3539810">
        <ele>431.0</ele>
        <time>2021-10-16T16:17:18Z</time>
      </trkpt>
      <trkpt lat="39.8417160" lon="-6.3538290">
        <ele>432.2</ele>
        <time>2021-10-16T16:17:27Z</time>
      </trkpt>
      <trkpt lat="39.8416900" lon="-6.3537740">
        <ele>432.6</ele>
        <time>2021-10-16T16:17:30Z</time>
      </trkpt>
      <trkpt lat="39.8416540" lon="-6.3536600">
        <ele>433.2</ele>
        <time>2021-10-16T16:17:36Z</time>
      </trkpt>
      <trkpt lat="39.8416480" lon="-6.3536400">
        <ele>433.2</ele>
        <time>2021-10-16T16:17:37Z</time>
      </trkpt>
      <trkpt lat="39.8415740" lon="-6.3534700">
        <ele>434.0</ele>
        <time>2021-10-16T16:17:45Z</time>
      </trkpt>
      <trkpt lat="39.8415620" lon="-6.3534520">
        <ele>434.2</ele>
        <time>2021-10-16T16:17:46Z</time>
      </trkpt>
      <trkpt lat="39.8414680" lon="-6.3533210">
        <ele>435.2</ele>
        <time>2021-10-16T16:17:54Z</time>
      </trkpt>
      <trkpt lat="39.8414540" lon="-6.3533030">
        <ele>435.2</ele>
        <time>2021-10-16T16:17:55Z</time>
      </trkpt>
      <trkpt lat="39.8414220" lon="-6.3532550">
        <ele>435.4</ele>
        <time>2021-10-16T16:17:57Z</time>
      </trkpt>
      <trkpt lat="39.8413480" lon="-6.3531240">
        <ele>435.6</ele>
        <time>2021-10-16T16:18:03Z</time>
      </trkpt>
      <trkpt lat="39.8413440" lon="-6.3531000">
        <ele>435.6</ele>
        <time>2021-10-16T16:18:04Z</time>
      </trkpt>
      <trkpt lat="39.8413350" lon="-6.3530560">
        <ele>435.8</ele>
        <time>2021-10-16T16:18:06Z</time>
      </trkpt>
      <trkpt lat="39.8412890" lon="-6.3529870">
        <ele>436.2</ele>
        <time>2021-10-16T16:18:10Z</time>
      </trkpt>
      <trkpt lat="39.8412680" lon="-6.3529360">
        <ele>436.4</ele>
        <time>2021-10-16T16:18:12Z</time>
      </trkpt>
      <trkpt lat="39.8412060" lon="-6.3528900">
        <ele>436.8</ele>
        <time>2021-10-16T16:18:17Z</time>
      </trkpt>
      <trkpt lat="39.8411700" lon="-6.3528470">
        <ele>437.6</ele>
        <time>2021-10-16T16:18:20Z</time>
      </trkpt>
      <trkpt lat="39.8411160" lon="-6.3527880">
        <ele>438.0</ele>
        <time>2021-10-16T16:18:24Z</time>
      </trkpt>
      <trkpt lat="39.8410610" lon="-6.3527300">
        <ele>438.6</ele>
        <time>2021-10-16T16:18:28Z</time>
      </trkpt>
      <trkpt lat="39.8409690" lon="-6.3526530">
        <ele>439.2</ele>
        <time>2021-10-16T16:18:34Z</time>
      </trkpt>
      <trkpt lat="39.8409250" lon="-6.3525900">
        <ele>439.2</ele>
        <time>2021-10-16T16:18:40Z</time>
      </trkpt>
      <trkpt lat="39.8409250" lon="-6.3525900">
        <ele>439.2</ele>
        <time>2021-10-16T16:18:42Z</time>
      </trkpt>
      <trkpt lat="39.8408750" lon="-6.3525340">
        <ele>438.8</ele>
        <time>2021-10-16T16:18:59Z</time>
      </trkpt>
      <trkpt lat="39.8408590" lon="-6.3525240">
        <ele>438.8</ele>
        <time>2021-10-16T16:19:00Z</time>
      </trkpt>
      <trkpt lat="39.8408410" lon="-6.3525100">
        <ele>438.8</ele>
        <time>2021-10-16T16:19:01Z</time>
      </trkpt>
      <trkpt lat="39.8407430" lon="-6.3523670">
        <ele>438.6</ele>
        <time>2021-10-16T16:19:07Z</time>
      </trkpt>
      <trkpt lat="39.8407020" lon="-6.3521980">
        <ele>438.8</ele>
        <time>2021-10-16T16:19:15Z</time>
      </trkpt>
      <trkpt lat="39.8406830" lon="-6.3520990">
        <ele>439.0</ele>
        <time>2021-10-16T16:19:20Z</time>
      </trkpt>
      <trkpt lat="39.8406780" lon="-6.3520620">
        <ele>439.2</ele>
        <time>2021-10-16T16:19:22Z</time>
      </trkpt>
      <trkpt lat="39.8406380" lon="-6.3519870">
        <ele>439.6</ele>
        <time>2021-10-16T16:19:29Z</time>
      </trkpt>
      <trkpt lat="39.8403730" lon="-6.3509880">
        <ele>449.8</ele>
        <time>2021-10-16T16:21:31Z</time>
      </trkpt>
      <trkpt lat="39.8403730" lon="-6.3509720">
        <ele>449.8</ele>
        <time>2021-10-16T16:21:32Z</time>
      </trkpt>
      <trkpt lat="39.8403680" lon="-6.3509240">
        <ele>450.2</ele>
        <time>2021-10-16T16:21:35Z</time>
      </trkpt>
      <trkpt lat="39.8403610" lon="-6.3508470">
        <ele>450.8</ele>
        <time>2021-10-16T16:21:41Z</time>
      </trkpt>
      <trkpt lat="39.8403570" lon="-6.3508140">
        <ele>451.2</ele>
        <time>2021-10-16T16:21:44Z</time>
      </trkpt>
      <trkpt lat="39.8403520" lon="-6.3508040">
        <ele>451.2</ele>
        <time>2021-10-16T16:21:45Z</time>
      </trkpt>
      <trkpt lat="39.8403440" lon="-6.3507880">
        <ele>451.8</ele>
        <time>2021-10-16T16:21:49Z</time>
      </trkpt>
      <trkpt lat="39.8401850" lon="-6.3504620">
        <ele>455.8</ele>
        <time>2021-10-16T16:22:37Z</time>
      </trkpt>
      <trkpt lat="39.8401790" lon="-6.3504460">
        <ele>455.8</ele>
        <time>2021-10-16T16:22:38Z</time>
      </trkpt>
      <trkpt lat="39.8401170" lon="-6.3503630">
        <ele>456.0</ele>
        <time>2021-10-16T16:22:46Z</time>
      </trkpt>
      <trkpt lat="39.8400840" lon="-6.3503200">
        <ele>456.6</ele>
        <time>2021-10-16T16:22:51Z</time>
      </trkpt>
      <trkpt lat="39.8400750" lon="-6.3503060">
        <ele>456.8</ele>
        <time>2021-10-16T16:22:53Z</time>
      </trkpt>
      <trkpt lat="39.8400320" lon="-6.3502120">
        <ele>457.8</ele>
        <time>2021-10-16T16:23:01Z</time>
      </trkpt>
      <trkpt lat="39.8400270" lon="-6.3501990">
        <ele>458.0</ele>
        <time>2021-10-16T16:23:02Z</time>
      </trkpt>
      <trkpt lat="39.8400130" lon="-6.3501720">
        <ele>458.4</ele>
        <time>2021-10-16T16:23:07Z</time>
      </trkpt>
      <trkpt lat="39.8399930" lon="-6.3501470">
        <ele>459.0</ele>
        <time>2021-10-16T16:23:18Z</time>
      </trkpt>
      <trkpt lat="39.8399680" lon="-6.3501170">
        <ele>459.0</ele>
        <time>2021-10-16T16:23:21Z</time>
      </trkpt>
      <trkpt lat="39.8399200" lon="-6.3500490">
        <ele>459.8</ele>
        <time>2021-10-16T16:23:27Z</time>
      </trkpt>
      <trkpt lat="39.8399010" lon="-6.3500340">
        <ele>460.0</ele>
        <time>2021-10-16T16:23:29Z</time>
      </trkpt>
      <trkpt lat="39.8398670" lon="-6.3499870">
        <ele>460.6</ele>
        <time>2021-10-16T16:23:33Z</time>
      </trkpt>
      <trkpt lat="39.8398470" lon="-6.3499570">
        <ele>461.0</ele>
        <time>2021-10-16T16:23:36Z</time>
      </trkpt>
      <trkpt lat="39.8398160" lon="-6.3499200">
        <ele>461.8</ele>
        <time>2021-10-16T16:23:41Z</time>
      </trkpt>
      <trkpt lat="39.8398090" lon="-6.3499080">
        <ele>462.0</ele>
        <time>2021-10-16T16:23:42Z</time>
      </trkpt>
      <trkpt lat="39.8397750" lon="-6.3498350">
        <ele>463.0</ele>
        <time>2021-10-16T16:23:50Z</time>
      </trkpt>
      <trkpt lat="39.8397300" lon="-6.3497730">
        <ele>464.0</ele>
        <time>2021-10-16T16:24:02Z</time>
      </trkpt>
      <trkpt lat="39.8397200" lon="-6.3497570">
        <ele>464.0</ele>
        <time>2021-10-16T16:24:03Z</time>
      </trkpt>
      <trkpt lat="39.8396960" lon="-6.3497330">
        <ele>464.2</ele>
        <time>2021-10-16T16:24:05Z</time>
      </trkpt>
      <trkpt lat="39.8396310" lon="-6.3496720">
        <ele>465.4</ele>
        <time>2021-10-16T16:24:10Z</time>
      </trkpt>
      <trkpt lat="39.8395790" lon="-6.3496510">
        <ele>466.4</ele>
        <time>2021-10-16T16:24:14Z</time>
      </trkpt>
      <trkpt lat="39.8395310" lon="-6.3496280">
        <ele>467.6</ele>
        <time>2021-10-16T16:24:18Z</time>
      </trkpt>
      <trkpt lat="39.8395170" lon="-6.3496120">
        <ele>468.2</ele>
        <time>2021-10-16T16:24:20Z</time>
      </trkpt>
      <trkpt lat="39.8395130" lon="-6.3495990">
        <ele>468.8</ele>
        <time>2021-10-16T16:24:21Z</time>
      </trkpt>
      <trkpt lat="39.8394900" lon="-6.3495710">
        <ele>469.4</ele>
        <time>2021-10-16T16:24:25Z</time>
      </trkpt>
      <trkpt lat="39.8394830" lon="-6.3495700">
        <ele>469.6</ele>
        <time>2021-10-16T16:24:27Z</time>
      </trkpt>
      <trkpt lat="39.8394800" lon="-6.3495720">
        <ele>469.6</ele>
        <time>2021-10-16T16:24:29Z</time>
      </trkpt>
      <trkpt lat="39.8395000" lon="-6.3493760">
        <ele>469.2</ele>
        <time>2021-10-16T16:26:43Z</time>
      </trkpt>
      <trkpt lat="39.8395080" lon="-6.3493320">
        <ele>469.2</ele>
        <time>2021-10-16T16:26:45Z</time>
      </trkpt>
      <trkpt lat="39.8395150" lon="-6.3492100">
        <ele>469.4</ele>
        <time>2021-10-16T16:26:51Z</time>
      </trkpt>
      <trkpt lat="39.8395630" lon="-6.3491060">
        <ele>469.6</ele>
        <time>2021-10-16T16:26:57Z</time>
      </trkpt>
      <trkpt lat="39.8395680" lon="-6.3490900">
        <ele>469.8</ele>
        <time>2021-10-16T16:26:58Z</time>
      </trkpt>
      <trkpt lat="39.8395910" lon="-6.3490220">
        <ele>470.0</ele>
        <time>2021-10-16T16:27:01Z</time>
      </trkpt>
      <trkpt lat="39.8396200" lon="-6.3489190">
        <ele>470.4</ele>
        <time>2021-10-16T16:27:05Z</time>
      </trkpt>
      <trkpt lat="39.8396790" lon="-6.3487690">
        <ele>470.8</ele>
        <time>2021-10-16T16:27:11Z</time>
      </trkpt>
      <trkpt lat="39.8396960" lon="-6.3487260">
        <ele>471.0</ele>
        <time>2021-10-16T16:27:13Z</time>
      </trkpt>
      <trkpt lat="39.8397120" lon="-6.3486750">
        <ele>471.2</ele>
        <time>2021-10-16T16:27:16Z</time>
      </trkpt>
      <trkpt lat="39.8397280" lon="-6.3486160">
        <ele>471.4</ele>
        <time>2021-10-16T16:27:19Z</time>
      </trkpt>
      <trkpt lat="39.8397400" lon="-6.3485840">
        <ele>471.4</ele>
        <time>2021-10-16T16:27:23Z</time>
      </trkpt>
      <trkpt lat="39.8397400" lon="-6.3485840">
        <ele>471.4</ele>
        <time>2021-10-16T16:27:24Z</time>
      </trkpt>
      <trkpt lat="39.8397510" lon="-6.3485100">
        <ele>471.6</ele>
        <time>2021-10-16T16:27:41Z</time>
      </trkpt>
      <trkpt lat="39.8397930" lon="-6.3483670">
        <ele>471.6</ele>
        <time>2021-10-16T16:27:46Z</time>
      </trkpt>
      <trkpt lat="39.8398710" lon="-6.3481870">
        <ele>471.8</ele>
        <time>2021-10-16T16:27:54Z</time>
      </trkpt>
      <trkpt lat="39.8398800" lon="-6.3481500">
        <ele>471.8</ele>
        <time>2021-10-16T16:27:56Z</time>
      </trkpt>
      <trkpt lat="39.8398800" lon="-6.3481350">
        <ele>471.8</ele>
        <time>2021-10-16T16:27:57Z</time>
      </trkpt>
      <trkpt lat="39.8398780" lon="-6.3481230">
        <ele>471.8</ele>
        <time>2021-10-16T16:27:58Z</time>
      </trkpt>
      <trkpt lat="39.8398760" lon="-6.3481190">
        <ele>471.8</ele>
        <time>2021-10-16T16:27:59Z</time>
      </trkpt>
      <trkpt lat="39.8398760" lon="-6.3481190">
        <ele>471.8</ele>
        <time>2021-10-16T16:28:02Z</time>
      </trkpt>
      <trkpt lat="39.8398780" lon="-6.3480700">
        <ele>471.6</ele>
        <time>2021-10-16T16:28:42Z</time>
      </trkpt>
      <trkpt lat="39.8398870" lon="-6.3480520">
        <ele>471.6</ele>
        <time>2021-10-16T16:28:43Z</time>
      </trkpt>
      <trkpt lat="39.8398950" lon="-6.3480320">
        <ele>471.8</ele>
        <time>2021-10-16T16:28:44Z</time>
      </trkpt>
      <trkpt lat="39.8398570" lon="-6.3480380">
        <ele>477.4</ele>
        <time>2021-10-17T06:31:14Z</time>
      </trkpt>
      <trkpt lat="39.8398570" lon="-6.3480420">
        <ele>474.8</ele>
        <time>2021-10-17T06:31:15Z</time>
      </trkpt>
      <trkpt lat="39.8398290" lon="-6.3482580">
        <ele>472.0</ele>
        <time>2021-10-17T06:37:26Z</time>
      </trkpt>
      <trkpt lat="39.8398230" lon="-6.3482840">
        <ele>472.0</ele>
        <time>2021-10-17T06:37:27Z</time>
      </trkpt>
      <trkpt lat="39.8398010" lon="-6.3483360">
        <ele>472.0</ele>
        <time>2021-10-17T06:37:29Z</time>
      </trkpt>
      <trkpt lat="39.8397790" lon="-6.3483870">
        <ele>471.8</ele>
        <time>2021-10-17T06:37:31Z</time>
      </trkpt>
      <trkpt lat="39.8397780" lon="-6.3484060">
        <ele>471.6</ele>
        <time>2021-10-17T06:37:32Z</time>
      </trkpt>
      <trkpt lat="39.8397480" lon="-6.3485070">
        <ele>471.6</ele>
        <time>2021-10-17T06:37:36Z</time>
      </trkpt>
      <trkpt lat="39.8397380" lon="-6.3485540">
        <ele>471.4</ele>
        <time>2021-10-17T06:37:38Z</time>
      </trkpt>
      <trkpt lat="39.8397570" lon="-6.3485850">
        <ele>471.4</ele>
        <time>2021-10-17T06:37:40Z</time>
      </trkpt>
      <trkpt lat="39.8397610" lon="-6.3486070">
        <ele>471.4</ele>
        <time>2021-10-17T06:37:41Z</time>
      </trkpt>
      <trkpt lat="39.8397450" lon="-6.3486790">
        <ele>471.4</ele>
        <time>2021-10-17T06:37:44Z</time>
      </trkpt>
      <trkpt lat="39.8396910" lon="-6.3488430">
        <ele>471.4</ele>
        <time>2021-10-17T06:37:50Z</time>
      </trkpt>
      <trkpt lat="39.8396690" lon="-6.3489180">
        <ele>471.2</ele>
        <time>2021-10-17T06:37:52Z</time>
      </trkpt>
      <trkpt lat="39.8396040" lon="-6.3491010">
        <ele>471.0</ele>
        <time>2021-10-17T06:37:56Z</time>
      </trkpt>
      <trkpt lat="39.8395640" lon="-6.3492010">
        <ele>470.8</ele>
        <time>2021-10-17T06:37:58Z</time>
      </trkpt>
      <trkpt lat="39.8393780" lon="-6.3495070">
        <ele>470.2</ele>
        <time>2021-10-17T06:38:04Z</time>
      </trkpt>
      <trkpt lat="39.8392910" lon="-6.3496150">
        <ele>469.8</ele>
        <time>2021-10-17T06:38:06Z</time>
      </trkpt>
      <trkpt lat="39.8390830" lon="-6.3498400">
        <ele>469.2</ele>
        <time>2021-10-17T06:38:10Z</time>
      </trkpt>
      <trkpt lat="39.8390260" lon="-6.3498960">
        <ele>468.8</ele>
        <time>2021-10-17T06:38:11Z</time>
      </trkpt>
      <trkpt lat="39.8388440" lon="-6.3500660">
        <ele>467.6</ele>
        <time>2021-10-17T06:38:14Z</time>
      </trkpt>
      <trkpt lat="39.8385790" lon="-6.3503180">
        <ele>466.6</ele>
        <time>2021-10-17T06:38:18Z</time>
      </trkpt>
      <trkpt lat="39.8383810" lon="-6.3505170">
        <ele>465.4</ele>
        <time>2021-10-17T06:38:21Z</time>
      </trkpt>
      <trkpt lat="39.8381130" lon="-6.3507920">
        <ele>464.0</ele>
        <time>2021-10-17T06:38:25Z</time>
      </trkpt>
      <trkpt lat="39.8379160" lon="-6.3510200">
        <ele>462.8</ele>
        <time>2021-10-17T06:38:28Z</time>
      </trkpt>
      <trkpt lat="39.8377960" lon="-6.3511900">
        <ele>461.8</ele>
        <time>2021-10-17T06:38:30Z</time>
      </trkpt>
      <trkpt lat="39.8377410" lon="-6.3512790">
        <ele>461.4</ele>
        <time>2021-10-17T06:38:31Z</time>
      </trkpt>
      <trkpt lat="39.8376030" lon="-6.3515650">
        <ele>460.4</ele>
        <time>2021-10-17T06:38:34Z</time>
      </trkpt>
      <trkpt lat="39.8375390" lon="-6.3517490">
        <ele>459.6</ele>
        <time>2021-10-17T06:38:36Z</time>
      </trkpt>
      <trkpt lat="39.8374870" lon="-6.3519860">
        <ele>459.4</ele>
        <time>2021-10-17T06:38:39Z</time>
      </trkpt>
      <trkpt lat="39.8374750" lon="-6.3520510">
        <ele>459.4</ele>
        <time>2021-10-17T06:38:40Z</time>
      </trkpt>
      <trkpt lat="39.8374250" lon="-6.3522950">
        <ele>459.8</ele>
        <time>2021-10-17T06:38:45Z</time>
      </trkpt>
      <trkpt lat="39.8373960" lon="-6.3524970">
        <ele>460.6</ele>
        <time>2021-10-17T06:38:51Z</time>
      </trkpt>
      <trkpt lat="39.8373890" lon="-6.3525260">
        <ele>460.8</ele>
        <time>2021-10-17T06:38:52Z</time>
      </trkpt>
      <trkpt lat="39.8373380" lon="-6.3527330">
        <ele>461.6</ele>
        <time>2021-10-17T06:38:59Z</time>
      </trkpt>
      <trkpt lat="39.8373290" lon="-6.3527620">
        <ele>461.8</ele>
        <time>2021-10-17T06:39:00Z</time>
      </trkpt>
      <trkpt lat="39.8373070" lon="-6.3529480">
        <ele>462.6</ele>
        <time>2021-10-17T06:39:06Z</time>
      </trkpt>
      <trkpt lat="39.8373020" lon="-6.3529790">
        <ele>462.8</ele>
        <time>2021-10-17T06:39:07Z</time>
      </trkpt>
      <trkpt lat="39.8372970" lon="-6.3530130">
        <ele>462.8</ele>
        <time>2021-10-17T06:39:08Z</time>
      </trkpt>
      <trkpt lat="39.8372680" lon="-6.3531360">
        <ele>463.6</ele>
        <time>2021-10-17T06:39:12Z</time>
      </trkpt>
      <trkpt lat="39.8372520" lon="-6.3532030">
        <ele>463.8</ele>
        <time>2021-10-17T06:39:14Z</time>
      </trkpt>
      <trkpt lat="39.8372430" lon="-6.3532380">
        <ele>464.0</ele>
        <time>2021-10-17T06:39:15Z</time>
      </trkpt>
      <trkpt lat="39.8371860" lon="-6.3534330">
        <ele>464.6</ele>
        <time>2021-10-17T06:39:21Z</time>
      </trkpt>
      <trkpt lat="39.8371750" lon="-6.3534640">
        <ele>465.0</ele>
        <time>2021-10-17T06:39:22Z</time>
      </trkpt>
      <trkpt lat="39.8371430" lon="-6.3535650">
        <ele>465.4</ele>
        <time>2021-10-17T06:39:25Z</time>
      </trkpt>
      <trkpt lat="39.8370790" lon="-6.3537250">
        <ele>466.0</ele>
        <time>2021-10-17T06:39:30Z</time>
      </trkpt>
      <trkpt lat="39.8370540" lon="-6.3537860">
        <ele>466.4</ele>
        <time>2021-10-17T06:39:32Z</time>
      </trkpt>
      <trkpt lat="39.8369700" lon="-6.3539740">
        <ele>467.0</ele>
        <time>2021-10-17T06:39:38Z</time>
      </trkpt>
      <trkpt lat="39.8369060" lon="-6.3540970">
        <ele>467.4</ele>
        <time>2021-10-17T06:39:42Z</time>
      </trkpt>
      <trkpt lat="39.8368580" lon="-6.3541990">
        <ele>467.6</ele>
        <time>2021-10-17T06:39:45Z</time>
      </trkpt>
      <trkpt lat="39.8368420" lon="-6.3542310">
        <ele>467.6</ele>
        <time>2021-10-17T06:39:46Z</time>
      </trkpt>
      <trkpt lat="39.8368030" lon="-6.3542930">
        <ele>467.6</ele>
        <time>2021-10-17T06:39:48Z</time>
      </trkpt>
      <trkpt lat="39.8367850" lon="-6.3543240">
        <ele>467.8</ele>
        <time>2021-10-17T06:39:49Z</time>
      </trkpt>
      <trkpt lat="39.8366020" lon="-6.3546560">
        <ele>468.0</ele>
        <time>2021-10-17T06:39:59Z</time>
      </trkpt>
      <trkpt lat="39.8364640" lon="-6.3549180">
        <ele>468.0</ele>
        <time>2021-10-17T06:40:06Z</time>
      </trkpt>
      <trkpt lat="39.8363950" lon="-6.3550400">
        <ele>468.2</ele>
        <time>2021-10-17T06:40:09Z</time>
      </trkpt>
      <trkpt lat="39.8361940" lon="-6.3553990">
        <ele>468.2</ele>
        <time>2021-10-17T06:40:18Z</time>
      </trkpt>
      <trkpt lat="39.8361000" lon="-6.3555710">
        <ele>468.2</ele>
        <time>2021-10-17T06:40:22Z</time>
      </trkpt>
      <trkpt lat="39.8360320" lon="-6.3557030">
        <ele>468.2</ele>
        <time>2021-10-17T06:40:25Z</time>
      </trkpt>
      <trkpt lat="39.8360050" lon="-6.3557480">
        <ele>468.2</ele>
        <time>2021-10-17T06:40:26Z</time>
      </trkpt>
      <trkpt lat="39.8358800" lon="-6.3559830">
        <ele>467.8</ele>
        <time>2021-10-17T06:40:31Z</time>
      </trkpt>
      <trkpt lat="39.8357750" lon="-6.3561790">
        <ele>467.4</ele>
        <time>2021-10-17T06:40:35Z</time>
      </trkpt>
      <trkpt lat="39.8356720" lon="-6.3563880">
        <ele>467.2</ele>
        <time>2021-10-17T06:40:39Z</time>
      </trkpt>
      <trkpt lat="39.8356440" lon="-6.3564470">
        <ele>467.0</ele>
        <time>2021-10-17T06:40:40Z</time>
      </trkpt>
      <trkpt lat="39.8355510" lon="-6.3566500">
        <ele>466.8</ele>
        <time>2021-10-17T06:40:43Z</time>
      </trkpt>
      <trkpt lat="39.8355280" lon="-6.3567030">
        <ele>466.6</ele>
        <time>2021-10-17T06:40:44Z</time>
      </trkpt>
      <trkpt lat="39.8354420" lon="-6.3569370">
        <ele>465.8</ele>
        <time>2021-10-17T06:40:47Z</time>
      </trkpt>
      <trkpt lat="39.8353770" lon="-6.3571580">
        <ele>465.4</ele>
        <time>2021-10-17T06:40:50Z</time>
      </trkpt>
      <trkpt lat="39.8353350" lon="-6.3573420">
        <ele>464.8</ele>
        <time>2021-10-17T06:40:52Z</time>
      </trkpt>
      <trkpt lat="39.8352910" lon="-6.3575870">
        <ele>463.6</ele>
        <time>2021-10-17T06:40:55Z</time>
      </trkpt>
      <trkpt lat="39.8352690" lon="-6.3577900">
        <ele>463.0</ele>
        <time>2021-10-17T06:40:57Z</time>
      </trkpt>
      <trkpt lat="39.8352570" lon="-6.3579770">
        <ele>462.4</ele>
        <time>2021-10-17T06:40:59Z</time>
      </trkpt>
      <trkpt lat="39.8352490" lon="-6.3582600">
        <ele>461.6</ele>
        <time>2021-10-17T06:41:02Z</time>
      </trkpt>
      <trkpt lat="39.8352500" lon="-6.3583530">
        <ele>461.4</ele>
        <time>2021-10-17T06:41:03Z</time>
      </trkpt>
      <trkpt lat="39.8352470" lon="-6.3584500">
        <ele>460.8</ele>
        <time>2021-10-17T06:41:04Z</time>
      </trkpt>
      <trkpt lat="39.8352470" lon="-6.3587400">
        <ele>460.2</ele>
        <time>2021-10-17T06:41:07Z</time>
      </trkpt>
      <trkpt lat="39.8352680" lon="-6.3588860">
        <ele>460.0</ele>
        <time>2021-10-17T06:41:09Z</time>
      </trkpt>
      <trkpt lat="39.8353130" lon="-6.3591020">
        <ele>460.0</ele>
        <time>2021-10-17T06:41:13Z</time>
      </trkpt>
      <trkpt lat="39.8353730" lon="-6.3593390">
        <ele>460.6</ele>
        <time>2021-10-17T06:41:19Z</time>
      </trkpt>
      <trkpt lat="39.8355130" lon="-6.3594950">
        <ele>461.2</ele>
        <time>2021-10-17T06:41:24Z</time>
      </trkpt>
      <trkpt lat="39.8355530" lon="-6.3595250">
        <ele>461.4</ele>
        <time>2021-10-17T06:41:25Z</time>
      </trkpt>
      <trkpt lat="39.8356160" lon="-6.3595990">
        <ele>461.4</ele>
        <time>2021-10-17T06:41:27Z</time>
      </trkpt>
      <trkpt lat="39.8356440" lon="-6.3596500">
        <ele>461.4</ele>
        <time>2021-10-17T06:41:28Z</time>
      </trkpt>
      <trkpt lat="39.8356670" lon="-6.3597150">
        <ele>461.4</ele>
        <time>2021-10-17T06:41:29Z</time>
      </trkpt>
      <trkpt lat="39.8356850" lon="-6.3598310">
        <ele>461.4</ele>
        <time>2021-10-17T06:41:31Z</time>
      </trkpt>
      <trkpt lat="39.8356850" lon="-6.3598770">
        <ele>461.4</ele>
        <time>2021-10-17T06:41:32Z</time>
      </trkpt>
      <trkpt lat="39.8356780" lon="-6.3599320">
        <ele>461.4</ele>
        <time>2021-10-17T06:41:33Z</time>
      </trkpt>
      <trkpt lat="39.8356420" lon="-6.3600410">
        <ele>461.2</ele>
        <time>2021-10-17T06:41:35Z</time>
      </trkpt>
      <trkpt lat="39.8356190" lon="-6.3600820">
        <ele>461.2</ele>
        <time>2021-10-17T06:41:36Z</time>
      </trkpt>
      <trkpt lat="39.8355920" lon="-6.3601180">
        <ele>461.2</ele>
        <time>2021-10-17T06:41:37Z</time>
      </trkpt>
      <trkpt lat="39.8355330" lon="-6.3601670">
        <ele>461.2</ele>
        <time>2021-10-17T06:41:39Z</time>
      </trkpt>
      <trkpt lat="39.8354550" lon="-6.3601980">
        <ele>461.2</ele>
        <time>2021-10-17T06:41:41Z</time>
      </trkpt>
      <trkpt lat="39.8352790" lon="-6.3601750">
        <ele>461.2</ele>
        <time>2021-10-17T06:41:46Z</time>
      </trkpt>
      <trkpt lat="39.8350130" lon="-6.3600810">
        <ele>461.6</ele>
        <time>2021-10-17T06:41:53Z</time>
      </trkpt>
      <trkpt lat="39.8348280" lon="-6.3601340">
        <ele>461.8</ele>
        <time>2021-10-17T06:41:58Z</time>
      </trkpt>
      <trkpt lat="39.8347290" lon="-6.3601820">
        <ele>462.0</ele>
        <time>2021-10-17T06:42:01Z</time>
      </trkpt>
      <trkpt lat="39.8346700" lon="-6.3602100">
        <ele>462.2</ele>
        <time>2021-10-17T06:42:03Z</time>
      </trkpt>
      <trkpt lat="39.8346400" lon="-6.3602240">
        <ele>462.2</ele>
        <time>2021-10-17T06:42:04Z</time>
      </trkpt>
      <trkpt lat="39.8344560" lon="-6.3603030">
        <ele>463.0</ele>
        <time>2021-10-17T06:42:11Z</time>
      </trkpt>
      <trkpt lat="39.8343980" lon="-6.3603290">
        <ele>463.2</ele>
        <time>2021-10-17T06:42:13Z</time>
      </trkpt>
      <trkpt lat="39.8342040" lon="-6.3604140">
        <ele>464.2</ele>
        <time>2021-10-17T06:42:21Z</time>
      </trkpt>
      <trkpt lat="39.8341770" lon="-6.3604260">
        <ele>464.4</ele>
        <time>2021-10-17T06:42:22Z</time>
      </trkpt>
      <trkpt lat="39.8340220" lon="-6.3604830">
        <ele>465.4</ele>
        <time>2021-10-17T06:42:28Z</time>
      </trkpt>
      <trkpt lat="39.8339890" lon="-6.3604940">
        <ele>465.8</ele>
        <time>2021-10-17T06:42:29Z</time>
      </trkpt>
      <trkpt lat="39.8337910" lon="-6.3605760">
        <ele>466.6</ele>
        <time>2021-10-17T06:42:37Z</time>
      </trkpt>
      <trkpt lat="39.8336140" lon="-6.3606420">
        <ele>467.8</ele>
        <time>2021-10-17T06:42:44Z</time>
      </trkpt>
      <trkpt lat="39.8334910" lon="-6.3606910">
        <ele>468.6</ele>
        <time>2021-10-17T06:42:49Z</time>
      </trkpt>
      <trkpt lat="39.8334450" lon="-6.3607100">
        <ele>469.0</ele>
        <time>2021-10-17T06:42:51Z</time>
      </trkpt>
      <trkpt lat="39.8334030" lon="-6.3607260">
        <ele>469.2</ele>
        <time>2021-10-17T06:42:53Z</time>
      </trkpt>
      <trkpt lat="39.8333500" lon="-6.3607470">
        <ele>469.6</ele>
        <time>2021-10-17T06:42:55Z</time>
      </trkpt>
      <trkpt lat="39.8332820" lon="-6.3607690">
        <ele>470.0</ele>
        <time>2021-10-17T06:42:58Z</time>
      </trkpt>
      <trkpt lat="39.8332340" lon="-6.3607810">
        <ele>470.2</ele>
        <time>2021-10-17T06:43:00Z</time>
      </trkpt>
      <trkpt lat="39.8330870" lon="-6.3608370">
        <ele>471.2</ele>
        <time>2021-10-17T06:43:06Z</time>
      </trkpt>
      <trkpt lat="39.8330220" lon="-6.3608600">
        <ele>471.4</ele>
        <time>2021-10-17T06:43:09Z</time>
      </trkpt>
      <trkpt lat="39.8329050" lon="-6.3608970">
        <ele>472.2</ele>
        <time>2021-10-17T06:43:14Z</time>
      </trkpt>
      <trkpt lat="39.8328050" lon="-6.3609310">
        <ele>472.6</ele>
        <time>2021-10-17T06:43:18Z</time>
      </trkpt>
      <trkpt lat="39.8327410" lon="-6.3609520">
        <ele>473.0</ele>
        <time>2021-10-17T06:43:21Z</time>
      </trkpt>
      <trkpt lat="39.8327170" lon="-6.3609600">
        <ele>473.2</ele>
        <time>2021-10-17T06:43:22Z</time>
      </trkpt>
      <trkpt lat="39.8326430" lon="-6.3609840">
        <ele>473.6</ele>
        <time>2021-10-17T06:43:25Z</time>
      </trkpt>
      <trkpt lat="39.8325930" lon="-6.3609970">
        <ele>473.8</ele>
        <time>2021-10-17T06:43:27Z</time>
      </trkpt>
      <trkpt lat="39.8325240" lon="-6.3610200">
        <ele>474.2</ele>
        <time>2021-10-17T06:43:30Z</time>
      </trkpt>
      <trkpt lat="39.8323270" lon="-6.3610890">
        <ele>475.0</ele>
        <time>2021-10-17T06:43:38Z</time>
      </trkpt>
      <trkpt lat="39.8322810" lon="-6.3611030">
        <ele>475.4</ele>
        <time>2021-10-17T06:43:40Z</time>
      </trkpt>
      <trkpt lat="39.8322620" lon="-6.3611100">
        <ele>475.4</ele>
        <time>2021-10-17T06:43:41Z</time>
      </trkpt>
      <trkpt lat="39.8321910" lon="-6.3611340">
        <ele>476.0</ele>
        <time>2021-10-17T06:43:44Z</time>
      </trkpt>
      <trkpt lat="39.8321410" lon="-6.3611500">
        <ele>476.2</ele>
        <time>2021-10-17T06:43:46Z</time>
      </trkpt>
      <trkpt lat="39.8320810" lon="-6.3611650">
        <ele>476.4</ele>
        <time>2021-10-17T06:43:48Z</time>
      </trkpt>
      <trkpt lat="39.8320320" lon="-6.3611810">
        <ele>476.6</ele>
        <time>2021-10-17T06:43:50Z</time>
      </trkpt>
      <trkpt lat="39.8319330" lon="-6.3612130">
        <ele>477.2</ele>
        <time>2021-10-17T06:43:54Z</time>
      </trkpt>
      <trkpt lat="39.8318140" lon="-6.3612510">
        <ele>477.6</ele>
        <time>2021-10-17T06:43:59Z</time>
      </trkpt>
      <trkpt lat="39.8316570" lon="-6.3612960">
        <ele>478.2</ele>
        <time>2021-10-17T06:44:05Z</time>
      </trkpt>
      <trkpt lat="39.8315540" lon="-6.3613290">
        <ele>478.6</ele>
        <time>2021-10-17T06:44:09Z</time>
      </trkpt>
      <trkpt lat="39.8313950" lon="-6.3613900">
        <ele>479.2</ele>
        <time>2021-10-17T06:44:15Z</time>
      </trkpt>
      <trkpt lat="39.8312850" lon="-6.3614300">
        <ele>479.4</ele>
        <time>2021-10-17T06:44:19Z</time>
      </trkpt>
      <trkpt lat="39.8309760" lon="-6.3615310">
        <ele>479.8</ele>
        <time>2021-10-17T06:44:29Z</time>
      </trkpt>
      <trkpt lat="39.8309440" lon="-6.3615410">
        <ele>479.8</ele>
        <time>2021-10-17T06:44:30Z</time>
      </trkpt>
      <trkpt lat="39.8308460" lon="-6.3615780">
        <ele>480.0</ele>
        <time>2021-10-17T06:44:33Z</time>
      </trkpt>
      <trkpt lat="39.8306390" lon="-6.3616440">
        <ele>480.0</ele>
        <time>2021-10-17T06:44:39Z</time>
      </trkpt>
      <trkpt lat="39.8304250" lon="-6.3617090">
        <ele>480.2</ele>
        <time>2021-10-17T06:44:45Z</time>
      </trkpt>
      <trkpt lat="39.8302010" lon="-6.3617870">
        <ele>480.4</ele>
        <time>2021-10-17T06:44:51Z</time>
      </trkpt>
      <trkpt lat="39.8300120" lon="-6.3618510">
        <ele>480.0</ele>
        <time>2021-10-17T06:44:56Z</time>
      </trkpt>
      <trkpt lat="39.8298950" lon="-6.3618920">
        <ele>480.2</ele>
        <time>2021-10-17T06:44:59Z</time>
      </trkpt>
      <trkpt lat="39.8297330" lon="-6.3619490">
        <ele>480.0</ele>
        <time>2021-10-17T06:45:03Z</time>
      </trkpt>
      <trkpt lat="39.8295730" lon="-6.3620040">
        <ele>480.0</ele>
        <time>2021-10-17T06:45:07Z</time>
      </trkpt>
      <trkpt lat="39.8291760" lon="-6.3621400">
        <ele>480.8</ele>
        <time>2021-10-17T06:45:17Z</time>
      </trkpt>
      <trkpt lat="39.8289430" lon="-6.3622110">
        <ele>481.0</ele>
        <time>2021-10-17T06:45:23Z</time>
      </trkpt>
      <trkpt lat="39.8288870" lon="-6.3622140">
        <ele>481.0</ele>
        <time>2021-10-17T06:45:25Z</time>
      </trkpt>
      <trkpt lat="39.8288020" lon="-6.3622320">
        <ele>481.2</ele>
        <time>2021-10-17T06:45:27Z</time>
      </trkpt>
      <trkpt lat="39.8287280" lon="-6.3622450">
        <ele>481.0</ele>
        <time>2021-10-17T06:45:28Z</time>
      </trkpt>
      <trkpt lat="39.8286820" lon="-6.3622920">
        <ele>481.2</ele>
        <time>2021-10-17T06:45:29Z</time>
      </trkpt>
      <trkpt lat="39.8285080" lon="-6.3623350">
        <ele>481.4</ele>
        <time>2021-10-17T06:45:32Z</time>
      </trkpt>
      <trkpt lat="39.8284750" lon="-6.3623690">
        <ele>481.4</ele>
        <time>2021-10-17T06:45:33Z</time>
      </trkpt>
      <trkpt lat="39.8280760" lon="-6.3625070">
        <ele>481.4</ele>
        <time>2021-10-17T06:45:43Z</time>
      </trkpt>
      <trkpt lat="39.8276240" lon="-6.3626500">
        <ele>481.6</ele>
        <time>2021-10-17T06:45:54Z</time>
      </trkpt>
      <trkpt lat="39.8275500" lon="-6.3626720">
        <ele>481.6</ele>
        <time>2021-10-17T06:45:56Z</time>
      </trkpt>
      <trkpt lat="39.8274060" lon="-6.3627340">
        <ele>481.8</ele>
        <time>2021-10-17T06:46:00Z</time>
      </trkpt>
      <trkpt lat="39.8271540" lon="-6.3628230">
        <ele>482.0</ele>
        <time>2021-10-17T06:46:06Z</time>
      </trkpt>
      <trkpt lat="39.8270730" lon="-6.3628490">
        <ele>482.0</ele>
        <time>2021-10-17T06:46:08Z</time>
      </trkpt>
      <trkpt lat="39.8269900" lon="-6.3628720">
        <ele>482.2</ele>
        <time>2021-10-17T06:46:10Z</time>
      </trkpt>
      <trkpt lat="39.8267050" lon="-6.3629630">
        <ele>482.4</ele>
        <time>2021-10-17T06:46:17Z</time>
      </trkpt>
      <trkpt lat="39.8265490" lon="-6.3630230">
        <ele>482.6</ele>
        <time>2021-10-17T06:46:21Z</time>
      </trkpt>
      <trkpt lat="39.8262040" lon="-6.3631420">
        <ele>482.8</ele>
        <time>2021-10-17T06:46:30Z</time>
      </trkpt>
      <trkpt lat="39.8258170" lon="-6.3632660">
        <ele>483.0</ele>
        <time>2021-10-17T06:46:40Z</time>
      </trkpt>
      <trkpt lat="39.8256960" lon="-6.3633040">
        <ele>483.0</ele>
        <time>2021-10-17T06:46:43Z</time>
      </trkpt>
      <trkpt lat="39.8256490" lon="-6.3633220">
        <ele>483.0</ele>
        <time>2021-10-17T06:46:44Z</time>
      </trkpt>
      <trkpt lat="39.8254460" lon="-6.3633940">
        <ele>483.2</ele>
        <time>2021-10-17T06:46:49Z</time>
      </trkpt>
      <trkpt lat="39.8252830" lon="-6.3634490">
        <ele>483.2</ele>
        <time>2021-10-17T06:46:53Z</time>
      </trkpt>
      <trkpt lat="39.8250000" lon="-6.3635370">
        <ele>483.4</ele>
        <time>2021-10-17T06:47:00Z</time>
      </trkpt>
      <trkpt lat="39.8244700" lon="-6.3637170">
        <ele>483.8</ele>
        <time>2021-10-17T06:47:13Z</time>
      </trkpt>
      <trkpt lat="39.8240450" lon="-6.3638590">
        <ele>484.2</ele>
        <time>2021-10-17T06:47:23Z</time>
      </trkpt>
      <trkpt lat="39.8239180" lon="-6.3639000">
        <ele>484.2</ele>
        <time>2021-10-17T06:47:26Z</time>
      </trkpt>
      <trkpt lat="39.8238040" lon="-6.3639440">
        <ele>484.2</ele>
        <time>2021-10-17T06:47:29Z</time>
      </trkpt>
      <trkpt lat="39.8234650" lon="-6.3640510">
        <ele>484.4</ele>
        <time>2021-10-17T06:47:37Z</time>
      </trkpt>
      <trkpt lat="39.8233800" lon="-6.3640770">
        <ele>484.6</ele>
        <time>2021-10-17T06:47:39Z</time>
      </trkpt>
      <trkpt lat="39.8230180" lon="-6.3642080">
        <ele>485.0</ele>
        <time>2021-10-17T06:47:48Z</time>
      </trkpt>
      <trkpt lat="39.8228570" lon="-6.3642570">
        <ele>485.2</ele>
        <time>2021-10-17T06:47:52Z</time>
      </trkpt>
      <trkpt lat="39.8227030" lon="-6.3643150">
        <ele>485.4</ele>
        <time>2021-10-17T06:47:56Z</time>
      </trkpt>
      <trkpt lat="39.8225450" lon="-6.3643730">
        <ele>485.4</ele>
        <time>2021-10-17T06:48:00Z</time>
      </trkpt>
      <trkpt lat="39.8222100" lon="-6.3644870">
        <ele>485.6</ele>
        <time>2021-10-17T06:48:08Z</time>
      </trkpt>
      <trkpt lat="39.8219940" lon="-6.3645520">
        <ele>485.6</ele>
        <time>2021-10-17T06:48:13Z</time>
      </trkpt>
      <trkpt lat="39.8218650" lon="-6.3645950">
        <ele>485.8</ele>
        <time>2021-10-17T06:48:16Z</time>
      </trkpt>
      <trkpt lat="39.8217340" lon="-6.3646450">
        <ele>485.8</ele>
        <time>2021-10-17T06:48:19Z</time>
      </trkpt>
      <trkpt lat="39.8215610" lon="-6.3646990">
        <ele>485.8</ele>
        <time>2021-10-17T06:48:23Z</time>
      </trkpt>
      <trkpt lat="39.8215210" lon="-6.3647130">
        <ele>485.8</ele>
        <time>2021-10-17T06:48:24Z</time>
      </trkpt>
      <trkpt lat="39.8212350" lon="-6.3648160">
        <ele>486.0</ele>
        <time>2021-10-17T06:48:32Z</time>
      </trkpt>
      <trkpt lat="39.8211680" lon="-6.3648660">
        <ele>486.0</ele>
        <time>2021-10-17T06:48:36Z</time>
      </trkpt>
      <trkpt lat="39.8211520" lon="-6.3649020">
        <ele>486.0</ele>
        <time>2021-10-17T06:48:38Z</time>
      </trkpt>
      <trkpt lat="39.8211580" lon="-6.3649380">
        <ele>486.0</ele>
        <time>2021-10-17T06:48:40Z</time>
      </trkpt>
      <trkpt lat="39.8211670" lon="-6.3649870">
        <ele>485.8</ele>
        <time>2021-10-17T06:48:42Z</time>
      </trkpt>
      <trkpt lat="39.8211410" lon="-6.3650640">
        <ele>485.6</ele>
        <time>2021-10-17T06:48:44Z</time>
      </trkpt>
      <trkpt lat="39.8209930" lon="-6.3652580">
        <ele>484.2</ele>
        <time>2021-10-17T06:48:50Z</time>
      </trkpt>
      <trkpt lat="39.8209730" lon="-6.3652830">
        <ele>484.0</ele>
        <time>2021-10-17T06:48:51Z</time>
      </trkpt>
      <trkpt lat="39.8209020" lon="-6.3653780">
        <ele>483.4</ele>
        <time>2021-10-17T06:48:55Z</time>
      </trkpt>
      <trkpt lat="39.8208890" lon="-6.3654100">
        <ele>483.4</ele>
        <time>2021-10-17T06:48:56Z</time>
      </trkpt>
      <trkpt lat="39.8208780" lon="-6.3655450">
        <ele>483.2</ele>
        <time>2021-10-17T06:48:59Z</time>
      </trkpt>
      <trkpt lat="39.8208900" lon="-6.3656440">
        <ele>482.8</ele>
        <time>2021-10-17T06:49:01Z</time>
      </trkpt>
      <trkpt lat="39.8209180" lon="-6.3657510">
        <ele>482.6</ele>
        <time>2021-10-17T06:49:03Z</time>
      </trkpt>
      <trkpt lat="39.8209270" lon="-6.3658110">
        <ele>482.6</ele>
        <time>2021-10-17T06:49:04Z</time>
      </trkpt>
      <trkpt lat="39.8209230" lon="-6.3658720">
        <ele>482.4</ele>
        <time>2021-10-17T06:49:05Z</time>
      </trkpt>
      <trkpt lat="39.8208930" lon="-6.3659730">
        <ele>482.2</ele>
        <time>2021-10-17T06:49:07Z</time>
      </trkpt>
      <trkpt lat="39.8208540" lon="-6.3660620">
        <ele>482.0</ele>
        <time>2021-10-17T06:49:10Z</time>
      </trkpt>
      <trkpt lat="39.8208450" lon="-6.3660870">
        <ele>482.0</ele>
        <time>2021-10-17T06:49:11Z</time>
      </trkpt>
      <trkpt lat="39.8207960" lon="-6.3661840">
        <ele>482.0</ele>
        <time>2021-10-17T06:49:14Z</time>
      </trkpt>
      <trkpt lat="39.8207430" lon="-6.3662600">
        <ele>482.0</ele>
        <time>2021-10-17T06:49:16Z</time>
      </trkpt>
      <trkpt lat="39.8206740" lon="-6.3664380">
        <ele>481.6</ele>
        <time>2021-10-17T06:49:21Z</time>
      </trkpt>
      <trkpt lat="39.8205970" lon="-6.3665390">
        <ele>481.4</ele>
        <time>2021-10-17T06:49:26Z</time>
      </trkpt>
      <trkpt lat="39.8204910" lon="-6.3666550">
        <ele>481.8</ele>
        <time>2021-10-17T06:49:33Z</time>
      </trkpt>
      <trkpt lat="39.8204550" lon="-6.3666930">
        <ele>482.4</ele>
        <time>2021-10-17T06:49:37Z</time>
      </trkpt>
      <trkpt lat="39.8204510" lon="-6.3666930">
        <ele>482.8</ele>
        <time>2021-10-17T06:49:38Z</time>
      </trkpt>
      <trkpt lat="39.8204510" lon="-6.3666930">
        <ele>483.0</ele>
        <time>2021-10-17T06:49:39Z</time>
      </trkpt>
      <trkpt lat="39.8202870" lon="-6.3669570">
        <ele>486.6</ele>
        <time>2021-10-17T06:50:14Z</time>
      </trkpt>
      <trkpt lat="39.8202810" lon="-6.3669810">
        <ele>486.6</ele>
        <time>2021-10-17T06:50:15Z</time>
      </trkpt>
      <trkpt lat="39.8202360" lon="-6.3671900">
        <ele>486.8</ele>
        <time>2021-10-17T06:50:23Z</time>
      </trkpt>
      <trkpt lat="39.8201790" lon="-6.3673980">
        <ele>487.2</ele>
        <time>2021-10-17T06:50:31Z</time>
      </trkpt>
      <trkpt lat="39.8201690" lon="-6.3674220">
        <ele>487.2</ele>
        <time>2021-10-17T06:50:32Z</time>
      </trkpt>
      <trkpt lat="39.8201570" lon="-6.3674450">
        <ele>487.4</ele>
        <time>2021-10-17T06:50:33Z</time>
      </trkpt>
      <trkpt lat="39.8201370" lon="-6.3674890">
        <ele>487.4</ele>
        <time>2021-10-17T06:50:35Z</time>
      </trkpt>
      <trkpt lat="39.8201030" lon="-6.3675770">
        <ele>487.8</ele>
        <time>2021-10-17T06:50:39Z</time>
      </trkpt>
      <trkpt lat="39.8200960" lon="-6.3676300">
        <ele>488.0</ele>
        <time>2021-10-17T06:50:41Z</time>
      </trkpt>
      <trkpt lat="39.8200870" lon="-6.3678360">
        <ele>488.6</ele>
        <time>2021-10-17T06:50:49Z</time>
      </trkpt>
      <trkpt lat="39.8200950" lon="-6.3680120">
        <ele>489.0</ele>
        <time>2021-10-17T06:50:54Z</time>
      </trkpt>
      <trkpt lat="39.8201200" lon="-6.3681130">
        <ele>488.8</ele>
        <time>2021-10-17T06:50:57Z</time>
      </trkpt>
      <trkpt lat="39.8201430" lon="-6.3683350">
        <ele>488.8</ele>
        <time>2021-10-17T06:51:03Z</time>
      </trkpt>
      <trkpt lat="39.8201400" lon="-6.3685100">
        <ele>488.4</ele>
        <time>2021-10-17T06:51:08Z</time>
      </trkpt>
      <trkpt lat="39.8201340" lon="-6.3685400">
        <ele>488.4</ele>
        <time>2021-10-17T06:51:09Z</time>
      </trkpt>
      <trkpt lat="39.8201060" lon="-6.3687780">
        <ele>488.4</ele>
        <time>2021-10-17T06:51:16Z</time>
      </trkpt>
      <trkpt lat="39.8200930" lon="-6.3688910">
        <ele>488.6</ele>
        <time>2021-10-17T06:51:19Z</time>
      </trkpt>
      <trkpt lat="39.8200470" lon="-6.3690320">
        <ele>488.6</ele>
        <time>2021-10-17T06:51:23Z</time>
      </trkpt>
      <trkpt lat="39.8199220" lon="-6.3692670">
        <ele>488.6</ele>
        <time>2021-10-17T06:51:30Z</time>
      </trkpt>
      <trkpt lat="39.8198160" lon="-6.3693570">
        <ele>488.8</ele>
        <time>2021-10-17T06:51:35Z</time>
      </trkpt>
      <trkpt lat="39.8197130" lon="-6.3694480">
        <ele>489.2</ele>
        <time>2021-10-17T06:51:40Z</time>
      </trkpt>
      <trkpt lat="39.8195740" lon="-6.3695730">
        <ele>489.6</ele>
        <time>2021-10-17T06:51:47Z</time>
      </trkpt>
      <trkpt lat="39.8195590" lon="-6.3695900">
        <ele>489.6</ele>
        <time>2021-10-17T06:51:48Z</time>
      </trkpt>
      <trkpt lat="39.8194240" lon="-6.3696990">
        <ele>490.6</ele>
        <time>2021-10-17T06:51:56Z</time>
      </trkpt>
      <trkpt lat="39.8194110" lon="-6.3697060">
        <ele>490.6</ele>
        <time>2021-10-17T06:51:57Z</time>
      </trkpt>
      <trkpt lat="39.8193190" lon="-6.3697310">
        <ele>491.2</ele>
        <time>2021-10-17T06:52:02Z</time>
      </trkpt>
      <trkpt lat="39.8192730" lon="-6.3697490">
        <ele>491.4</ele>
        <time>2021-10-17T06:52:05Z</time>
      </trkpt>
      <trkpt lat="39.8192190" lon="-6.3697850">
        <ele>491.8</ele>
        <time>2021-10-17T06:52:08Z</time>
      </trkpt>
      <trkpt lat="39.8191840" lon="-6.3698100">
        <ele>492.0</ele>
        <time>2021-10-17T06:52:10Z</time>
      </trkpt>
      <trkpt lat="39.8190620" lon="-6.3698820">
        <ele>492.4</ele>
        <time>2021-10-17T06:52:17Z</time>
      </trkpt>
      <trkpt lat="39.8190460" lon="-6.3698940">
        <ele>492.6</ele>
        <time>2021-10-17T06:52:18Z</time>
      </trkpt>
      <trkpt lat="39.8189700" lon="-6.3699530">
        <ele>493.4</ele>
        <time>2021-10-17T06:52:23Z</time>
      </trkpt>
      <trkpt lat="39.8189420" lon="-6.3699680">
        <ele>493.8</ele>
        <time>2021-10-17T06:52:25Z</time>
      </trkpt>
      <trkpt lat="39.8188670" lon="-6.3700220">
        <ele>494.8</ele>
        <time>2021-10-17T06:52:31Z</time>
      </trkpt>
      <trkpt lat="39.8188480" lon="-6.3700460">
        <ele>495.2</ele>
        <time>2021-10-17T06:52:33Z</time>
      </trkpt>
      <trkpt lat="39.8188160" lon="-6.3700780">
        <ele>495.6</ele>
        <time>2021-10-17T06:52:36Z</time>
      </trkpt>
      <trkpt lat="39.8187850" lon="-6.3700990">
        <ele>496.0</ele>
        <time>2021-10-17T06:52:38Z</time>
      </trkpt>
      <trkpt lat="39.8187510" lon="-6.3701350">
        <ele>496.4</ele>
        <time>2021-10-17T06:52:41Z</time>
      </trkpt>
      <trkpt lat="39.8187270" lon="-6.3701700">
        <ele>496.4</ele>
        <time>2021-10-17T06:52:43Z</time>
      </trkpt>
      <trkpt lat="39.8186980" lon="-6.3702060">
        <ele>496.6</ele>
        <time>2021-10-17T06:52:45Z</time>
      </trkpt>
      <trkpt lat="39.8186700" lon="-6.3702360">
        <ele>496.8</ele>
        <time>2021-10-17T06:52:47Z</time>
      </trkpt>
      <trkpt lat="39.8186430" lon="-6.3702570">
        <ele>496.8</ele>
        <time>2021-10-17T06:52:49Z</time>
      </trkpt>
      <trkpt lat="39.8186310" lon="-6.3702670">
        <ele>496.8</ele>
        <time>2021-10-17T06:52:50Z</time>
      </trkpt>
      <trkpt lat="39.8186030" lon="-6.3702780">
        <ele>497.0</ele>
        <time>2021-10-17T06:52:52Z</time>
      </trkpt>
      <trkpt lat="39.8185090" lon="-6.3703220">
        <ele>497.6</ele>
        <time>2021-10-17T06:52:58Z</time>
      </trkpt>
      <trkpt lat="39.8184630" lon="-6.3703520">
        <ele>498.0</ele>
        <time>2021-10-17T06:53:01Z</time>
      </trkpt>
      <trkpt lat="39.8184090" lon="-6.3703870">
        <ele>498.6</ele>
        <time>2021-10-17T06:53:05Z</time>
      </trkpt>
      <trkpt lat="39.8183940" lon="-6.3704090">
        <ele>498.8</ele>
        <time>2021-10-17T06:53:06Z</time>
      </trkpt>
      <trkpt lat="39.8183810" lon="-6.3704260">
        <ele>499.0</ele>
        <time>2021-10-17T06:53:07Z</time>
      </trkpt>
      <trkpt lat="39.8183320" lon="-6.3705330">
        <ele>499.4</ele>
        <time>2021-10-17T06:53:11Z</time>
      </trkpt>
      <trkpt lat="39.8181480" lon="-6.3707640">
        <ele>499.4</ele>
        <time>2021-10-17T06:53:19Z</time>
      </trkpt>
      <trkpt lat="39.8181090" lon="-6.3708010">
        <ele>499.2</ele>
        <time>2021-10-17T06:53:21Z</time>
      </trkpt>
      <trkpt lat="39.8180640" lon="-6.3708250">
        <ele>499.2</ele>
        <time>2021-10-17T06:53:23Z</time>
      </trkpt>
      <trkpt lat="39.8180160" lon="-6.3708520">
        <ele>499.2</ele>
        <time>2021-10-17T06:53:25Z</time>
      </trkpt>
      <trkpt lat="39.8179550" lon="-6.3708920">
        <ele>499.4</ele>
        <time>2021-10-17T06:53:28Z</time>
      </trkpt>
      <trkpt lat="39.8178980" lon="-6.3709130">
        <ele>500.0</ele>
        <time>2021-10-17T06:53:31Z</time>
      </trkpt>
      <trkpt lat="39.8178550" lon="-6.3709220">
        <ele>500.2</ele>
        <time>2021-10-17T06:53:33Z</time>
      </trkpt>
      <trkpt lat="39.8177970" lon="-6.3709250">
        <ele>500.8</ele>
        <time>2021-10-17T06:53:36Z</time>
      </trkpt>
      <trkpt lat="39.8177610" lon="-6.3709360">
        <ele>501.2</ele>
        <time>2021-10-17T06:53:38Z</time>
      </trkpt>
      <trkpt lat="39.8177400" lon="-6.3709460">
        <ele>501.4</ele>
        <time>2021-10-17T06:53:39Z</time>
      </trkpt>
      <trkpt lat="39.8176430" lon="-6.3709760">
        <ele>502.4</ele>
        <time>2021-10-17T06:53:44Z</time>
      </trkpt>
      <trkpt lat="39.8175900" lon="-6.3709830">
        <ele>502.8</ele>
        <time>2021-10-17T06:53:47Z</time>
      </trkpt>
      <trkpt lat="39.8175750" lon="-6.3709880">
        <ele>503.0</ele>
        <time>2021-10-17T06:53:48Z</time>
      </trkpt>
      <trkpt lat="39.8175220" lon="-6.3710030">
        <ele>503.4</ele>
        <time>2021-10-17T06:53:51Z</time>
      </trkpt>
      <trkpt lat="39.8174640" lon="-6.3710230">
        <ele>503.8</ele>
        <time>2021-10-17T06:53:54Z</time>
      </trkpt>
      <trkpt lat="39.8174240" lon="-6.3710370">
        <ele>503.8</ele>
        <time>2021-10-17T06:53:56Z</time>
      </trkpt>
      <trkpt lat="39.8173890" lon="-6.3710530">
        <ele>504.0</ele>
        <time>2021-10-17T06:53:58Z</time>
      </trkpt>
      <trkpt lat="39.8173600" lon="-6.3710710">
        <ele>504.2</ele>
        <time>2021-10-17T06:54:00Z</time>
      </trkpt>
      <trkpt lat="39.8173290" lon="-6.3710930">
        <ele>504.4</ele>
        <time>2021-10-17T06:54:02Z</time>
      </trkpt>
      <trkpt lat="39.8173140" lon="-6.3711010">
        <ele>504.4</ele>
        <time>2021-10-17T06:54:03Z</time>
      </trkpt>
      <trkpt lat="39.8172840" lon="-6.3711140">
        <ele>504.6</ele>
        <time>2021-10-17T06:54:05Z</time>
      </trkpt>
      <trkpt lat="39.8171950" lon="-6.3711470">
        <ele>504.6</ele>
        <time>2021-10-17T06:54:10Z</time>
      </trkpt>
      <trkpt lat="39.8170840" lon="-6.3712000">
        <ele>504.0</ele>
        <time>2021-10-17T06:54:15Z</time>
      </trkpt>
      <trkpt lat="39.8170650" lon="-6.3712120">
        <ele>504.0</ele>
        <time>2021-10-17T06:54:16Z</time>
      </trkpt>
      <trkpt lat="39.8169960" lon="-6.3712350">
        <ele>503.8</ele>
        <time>2021-10-17T06:54:19Z</time>
      </trkpt>
      <trkpt lat="39.8169100" lon="-6.3712710">
        <ele>503.6</ele>
        <time>2021-10-17T06:54:22Z</time>
      </trkpt>
      <trkpt lat="39.8168300" lon="-6.3713030">
        <ele>503.4</ele>
        <time>2021-10-17T06:54:25Z</time>
      </trkpt>
      <trkpt lat="39.8167640" lon="-6.3713330">
        <ele>503.2</ele>
        <time>2021-10-17T06:54:27Z</time>
      </trkpt>
      <trkpt lat="39.8166080" lon="-6.3714070">
        <ele>502.2</ele>
        <time>2021-10-17T06:54:32Z</time>
      </trkpt>
      <trkpt lat="39.8164520" lon="-6.3714560">
        <ele>501.4</ele>
        <time>2021-10-17T06:54:36Z</time>
      </trkpt>
      <trkpt lat="39.8164130" lon="-6.3714790">
        <ele>501.2</ele>
        <time>2021-10-17T06:54:37Z</time>
      </trkpt>
      <trkpt lat="39.8163370" lon="-6.3715350">
        <ele>501.0</ele>
        <time>2021-10-17T06:54:39Z</time>
      </trkpt>
      <trkpt lat="39.8162170" lon="-6.3716700">
        <ele>500.4</ele>
        <time>2021-10-17T06:54:43Z</time>
      </trkpt>
      <trkpt lat="39.8161260" lon="-6.3718320">
        <ele>500.0</ele>
        <time>2021-10-17T06:54:48Z</time>
      </trkpt>
      <trkpt lat="39.8160770" lon="-6.3719230">
        <ele>500.0</ele>
        <time>2021-10-17T06:54:52Z</time>
      </trkpt>
      <trkpt lat="39.8160500" lon="-6.3719530">
        <ele>500.0</ele>
        <time>2021-10-17T06:54:54Z</time>
      </trkpt>
      <trkpt lat="39.8159350" lon="-6.3720780">
        <ele>500.2</ele>
        <time>2021-10-17T06:54:59Z</time>
      </trkpt>
      <trkpt lat="39.8158540" lon="-6.3721790">
        <ele>499.8</ele>
        <time>2021-10-17T06:55:02Z</time>
      </trkpt>
      <trkpt lat="39.8157550" lon="-6.3723410">
        <ele>499.0</ele>
        <time>2021-10-17T06:55:06Z</time>
      </trkpt>
      <trkpt lat="39.8157280" lon="-6.3723890">
        <ele>498.8</ele>
        <time>2021-10-17T06:55:07Z</time>
      </trkpt>
      <trkpt lat="39.8156470" lon="-6.3725350">
        <ele>497.6</ele>
        <time>2021-10-17T06:55:10Z</time>
      </trkpt>
      <trkpt lat="39.8155470" lon="-6.3727020">
        <ele>496.8</ele>
        <time>2021-10-17T06:55:14Z</time>
      </trkpt>
      <trkpt lat="39.8155290" lon="-6.3727400">
        <ele>496.6</ele>
        <time>2021-10-17T06:55:15Z</time>
      </trkpt>
      <trkpt lat="39.8154540" lon="-6.3729370">
        <ele>496.0</ele>
        <time>2021-10-17T06:55:19Z</time>
      </trkpt>
      <trkpt lat="39.8154170" lon="-6.3730320">
        <ele>495.6</ele>
        <time>2021-10-17T06:55:21Z</time>
      </trkpt>
      <trkpt lat="39.8153650" lon="-6.3731320">
        <ele>494.8</ele>
        <time>2021-10-17T06:55:23Z</time>
      </trkpt>
      <trkpt lat="39.8153410" lon="-6.3731730">
        <ele>494.2</ele>
        <time>2021-10-17T06:55:24Z</time>
      </trkpt>
      <trkpt lat="39.8153090" lon="-6.3732060">
        <ele>494.0</ele>
        <time>2021-10-17T06:55:25Z</time>
      </trkpt>
      <trkpt lat="39.8152390" lon="-6.3732280">
        <ele>493.2</ele>
        <time>2021-10-17T06:55:27Z</time>
      </trkpt>
      <trkpt lat="39.8151920" lon="-6.3732210">
        <ele>492.6</ele>
        <time>2021-10-17T06:55:28Z</time>
      </trkpt>
      <trkpt lat="39.8150630" lon="-6.3731900">
        <ele>491.4</ele>
        <time>2021-10-17T06:55:31Z</time>
      </trkpt>
      <trkpt lat="39.8149910" lon="-6.3731880">
        <ele>490.8</ele>
        <time>2021-10-17T06:55:33Z</time>
      </trkpt>
      <trkpt lat="39.8148870" lon="-6.3732240">
        <ele>490.4</ele>
        <time>2021-10-17T06:55:37Z</time>
      </trkpt>
      <trkpt lat="39.8148560" lon="-6.3732390">
        <ele>490.4</ele>
        <time>2021-10-17T06:55:38Z</time>
      </trkpt>
      <trkpt lat="39.8146360" lon="-6.3733900">
        <ele>489.8</ele>
        <time>2021-10-17T06:55:44Z</time>
      </trkpt>
      <trkpt lat="39.8145550" lon="-6.3734800">
        <ele>489.4</ele>
        <time>2021-10-17T06:55:46Z</time>
      </trkpt>
      <trkpt lat="39.8144080" lon="-6.3736750">
        <ele>488.6</ele>
        <time>2021-10-17T06:55:50Z</time>
      </trkpt>
      <trkpt lat="39.8143480" lon="-6.3737330">
        <ele>488.0</ele>
        <time>2021-10-17T06:55:52Z</time>
      </trkpt>
      <trkpt lat="39.8142700" lon="-6.3737430">
        <ele>486.8</ele>
        <time>2021-10-17T06:55:55Z</time>
      </trkpt>
      <trkpt lat="39.8142400" lon="-6.3736950">
        <ele>485.4</ele>
        <time>2021-10-17T06:55:57Z</time>
      </trkpt>
      <trkpt lat="39.8141790" lon="-6.3736030">
        <ele>485.0</ele>
        <time>2021-10-17T06:56:01Z</time>
      </trkpt>
      <trkpt lat="39.8140600" lon="-6.3734720">
        <ele>485.6</ele>
        <time>2021-10-17T06:56:08Z</time>
      </trkpt>
      <trkpt lat="39.8139630" lon="-6.3734310">
        <ele>485.8</ele>
        <time>2021-10-17T06:56:13Z</time>
      </trkpt>
      <trkpt lat="39.8139470" lon="-6.3734330">
        <ele>486.0</ele>
        <time>2021-10-17T06:56:14Z</time>
      </trkpt>
      <trkpt lat="39.8139100" lon="-6.3734200">
        <ele>486.2</ele>
        <time>2021-10-17T06:56:16Z</time>
      </trkpt>
      <trkpt lat="39.8138280" lon="-6.3734170">
        <ele>486.8</ele>
        <time>2021-10-17T06:56:20Z</time>
      </trkpt>
      <trkpt lat="39.8137900" lon="-6.3734290">
        <ele>487.0</ele>
        <time>2021-10-17T06:56:23Z</time>
      </trkpt>
      <trkpt lat="39.8137750" lon="-6.3734260">
        <ele>487.2</ele>
        <time>2021-10-17T06:56:24Z</time>
      </trkpt>
      <trkpt lat="39.8137310" lon="-6.3734190">
        <ele>487.4</ele>
        <time>2021-10-17T06:56:26Z</time>
      </trkpt>
      <trkpt lat="39.8137130" lon="-6.3734180">
        <ele>487.4</ele>
        <time>2021-10-17T06:56:27Z</time>
      </trkpt>
      <trkpt lat="39.8136290" lon="-6.3734170">
        <ele>487.8</ele>
        <time>2021-10-17T06:56:31Z</time>
      </trkpt>
      <trkpt lat="39.8135830" lon="-6.3734200">
        <ele>487.8</ele>
        <time>2021-10-17T06:56:33Z</time>
      </trkpt>
      <trkpt lat="39.8135260" lon="-6.3734120">
        <ele>487.8</ele>
        <time>2021-10-17T06:56:35Z</time>
      </trkpt>
      <trkpt lat="39.8134980" lon="-6.3734070">
        <ele>488.0</ele>
        <time>2021-10-17T06:56:36Z</time>
      </trkpt>
      <trkpt lat="39.8134550" lon="-6.3734010">
        <ele>488.0</ele>
        <time>2021-10-17T06:56:38Z</time>
      </trkpt>
      <trkpt lat="39.8133200" lon="-6.3733490">
        <ele>487.8</ele>
        <time>2021-10-17T06:56:43Z</time>
      </trkpt>
      <trkpt lat="39.8131390" lon="-6.3732880">
        <ele>487.2</ele>
        <time>2021-10-17T06:56:48Z</time>
      </trkpt>
      <trkpt lat="39.8129530" lon="-6.3732600">
        <ele>487.0</ele>
        <time>2021-10-17T06:56:53Z</time>
      </trkpt>
      <trkpt lat="39.8128660" lon="-6.3732540">
        <ele>487.0</ele>
        <time>2021-10-17T06:56:55Z</time>
      </trkpt>
      <trkpt lat="39.8127180" lon="-6.3732790">
        <ele>487.0</ele>
        <time>2021-10-17T06:56:59Z</time>
      </trkpt>
      <trkpt lat="39.8126830" lon="-6.3732880">
        <ele>487.0</ele>
        <time>2021-10-17T06:57:00Z</time>
      </trkpt>
      <trkpt lat="39.8124610" lon="-6.3732780">
        <ele>486.8</ele>
        <time>2021-10-17T06:57:06Z</time>
      </trkpt>
      <trkpt lat="39.8123780" lon="-6.3732510">
        <ele>486.4</ele>
        <time>2021-10-17T06:57:08Z</time>
      </trkpt>
      <trkpt lat="39.8123350" lon="-6.3732360">
        <ele>486.4</ele>
        <time>2021-10-17T06:57:09Z</time>
      </trkpt>
      <trkpt lat="39.8122870" lon="-6.3732150">
        <ele>486.2</ele>
        <time>2021-10-17T06:57:10Z</time>
      </trkpt>
      <trkpt lat="39.8121860" lon="-6.3731540">
        <ele>485.8</ele>
        <time>2021-10-17T06:57:12Z</time>
      </trkpt>
      <trkpt lat="39.8120800" lon="-6.3730890">
        <ele>484.8</ele>
        <time>2021-10-17T06:57:14Z</time>
      </trkpt>
      <trkpt lat="39.8119790" lon="-6.3730310">
        <ele>484.0</ele>
        <time>2021-10-17T06:57:16Z</time>
      </trkpt>
      <trkpt lat="39.8119410" lon="-6.3730040">
        <ele>483.8</ele>
        <time>2021-10-17T06:57:17Z</time>
      </trkpt>
      <trkpt lat="39.8118880" lon="-6.3729610">
        <ele>483.4</ele>
        <time>2021-10-17T06:57:18Z</time>
      </trkpt>
      <trkpt lat="39.8117620" lon="-6.3728420">
        <ele>482.8</ele>
        <time>2021-10-17T06:57:21Z</time>
      </trkpt>
      <trkpt lat="39.8116420" lon="-6.3727350">
        <ele>482.6</ele>
        <time>2021-10-17T06:57:24Z</time>
      </trkpt>
      <trkpt lat="39.8114720" lon="-6.3726020">
        <ele>482.4</ele>
        <time>2021-10-17T06:57:29Z</time>
      </trkpt>
      <trkpt lat="39.8112940" lon="-6.3724650">
        <ele>482.4</ele>
        <time>2021-10-17T06:57:36Z</time>
      </trkpt>
      <trkpt lat="39.8112280" lon="-6.3723950">
        <ele>482.6</ele>
        <time>2021-10-17T06:57:40Z</time>
      </trkpt>
      <trkpt lat="39.8112220" lon="-6.3723910">
        <ele>482.6</ele>
        <time>2021-10-17T06:57:43Z</time>
      </trkpt>
      <trkpt lat="39.8111890" lon="-6.3723610">
        <ele>482.2</ele>
        <time>2021-10-17T06:58:12Z</time>
      </trkpt>
      <trkpt lat="39.8111680" lon="-6.3723420">
        <ele>482.2</ele>
        <time>2021-10-17T06:58:13Z</time>
      </trkpt>
      <trkpt lat="39.8110720" lon="-6.3722540">
        <ele>482.2</ele>
        <time>2021-10-17T06:58:17Z</time>
      </trkpt>
      <trkpt lat="39.8109890" lon="-6.3722010">
        <ele>481.6</ele>
        <time>2021-10-17T06:58:20Z</time>
      </trkpt>
      <trkpt lat="39.8109360" lon="-6.3722020">
        <ele>481.2</ele>
        <time>2021-10-17T06:58:22Z</time>
      </trkpt>
      <trkpt lat="39.8109150" lon="-6.3722060">
        <ele>480.6</ele>
        <time>2021-10-17T06:58:23Z</time>
      </trkpt>
      <trkpt lat="39.8108650" lon="-6.3722160">
        <ele>479.6</ele>
        <time>2021-10-17T06:58:26Z</time>
      </trkpt>
      <trkpt lat="39.8108490" lon="-6.3722210">
        <ele>479.4</ele>
        <time>2021-10-17T06:58:27Z</time>
      </trkpt>
      <trkpt lat="39.8107720" lon="-6.3722400">
        <ele>478.4</ele>
        <time>2021-10-17T06:58:31Z</time>
      </trkpt>
      <trkpt lat="39.8107490" lon="-6.3722470">
        <ele>477.4</ele>
        <time>2021-10-17T06:58:34Z</time>
      </trkpt>
      <trkpt lat="39.8107490" lon="-6.3722500">
        <ele>476.8</ele>
        <time>2021-10-17T06:58:36Z</time>
      </trkpt>
      <trkpt lat="39.8107100" lon="-6.3722460">
        <ele>475.8</ele>
        <time>2021-10-17T06:58:39Z</time>
      </trkpt>
      <trkpt lat="39.8106610" lon="-6.3722450">
        <ele>475.2</ele>
        <time>2021-10-17T06:58:41Z</time>
      </trkpt>
      <trkpt lat="39.8105820" lon="-6.3722570">
        <ele>474.6</ele>
        <time>2021-10-17T06:58:44Z</time>
      </trkpt>
      <trkpt lat="39.8105390" lon="-6.3722530">
        <ele>473.6</ele>
        <time>2021-10-17T06:58:46Z</time>
      </trkpt>
      <trkpt lat="39.8105130" lon="-6.3722520">
        <ele>473.0</ele>
        <time>2021-10-17T06:58:47Z</time>
      </trkpt>
      <trkpt lat="39.8104570" lon="-6.3722570">
        <ele>472.0</ele>
        <time>2021-10-17T06:58:49Z</time>
      </trkpt>
      <trkpt lat="39.8103920" lon="-6.3722550">
        <ele>471.0</ele>
        <time>2021-10-17T06:58:51Z</time>
      </trkpt>
      <trkpt lat="39.8103610" lon="-6.3722500">
        <ele>470.0</ele>
        <time>2021-10-17T06:58:52Z</time>
      </trkpt>
      <trkpt lat="39.8103040" lon="-6.3722340">
        <ele>468.6</ele>
        <time>2021-10-17T06:58:54Z</time>
      </trkpt>
      <trkpt lat="39.8102760" lon="-6.3722230">
        <ele>468.0</ele>
        <time>2021-10-17T06:58:55Z</time>
      </trkpt>
      <trkpt lat="39.8102470" lon="-6.3722110">
        <ele>467.4</ele>
        <time>2021-10-17T06:58:56Z</time>
      </trkpt>
      <trkpt lat="39.8101850" lon="-6.3721800">
        <ele>465.8</ele>
        <time>2021-10-17T06:58:58Z</time>
      </trkpt>
      <trkpt lat="39.8101190" lon="-6.3721450">
        <ele>464.0</ele>
        <time>2021-10-17T06:59:00Z</time>
      </trkpt>
      <trkpt lat="39.8100520" lon="-6.3721060">
        <ele>462.8</ele>
        <time>2021-10-17T06:59:02Z</time>
      </trkpt>
      <trkpt lat="39.8100160" lon="-6.3720880">
        <ele>460.8</ele>
        <time>2021-10-17T06:59:03Z</time>
      </trkpt>
      <trkpt lat="39.8099310" lon="-6.3720670">
        <ele>459.6</ele>
        <time>2021-10-17T06:59:05Z</time>
      </trkpt>
      <trkpt lat="39.8098870" lon="-6.3720640">
        <ele>459.2</ele>
        <time>2021-10-17T06:59:06Z</time>
      </trkpt>
      <trkpt lat="39.8098410" lon="-6.3720630">
        <ele>458.0</ele>
        <time>2021-10-17T06:59:07Z</time>
      </trkpt>
      <trkpt lat="39.8097950" lon="-6.3720580">
        <ele>457.2</ele>
        <time>2021-10-17T06:59:08Z</time>
      </trkpt>
      <trkpt lat="39.8097500" lon="-6.3720490">
        <ele>456.2</ele>
        <time>2021-10-17T06:59:09Z</time>
      </trkpt>
      <trkpt lat="39.8096580" lon="-6.3720280">
        <ele>454.2</ele>
        <time>2021-10-17T06:59:11Z</time>
      </trkpt>
      <trkpt lat="39.8096110" lon="-6.3720160">
        <ele>452.4</ele>
        <time>2021-10-17T06:59:12Z</time>
      </trkpt>
      <trkpt lat="39.8095200" lon="-6.3719910">
        <ele>451.0</ele>
        <time>2021-10-17T06:59:14Z</time>
      </trkpt>
      <trkpt lat="39.8094390" lon="-6.3719590">
        <ele>450.0</ele>
        <time>2021-10-17T06:59:16Z</time>
      </trkpt>
      <trkpt lat="39.8094060" lon="-6.3719470">
        <ele>449.6</ele>
        <time>2021-10-17T06:59:17Z</time>
      </trkpt>
      <trkpt lat="39.8093830" lon="-6.3719420">
        <ele>448.6</ele>
        <time>2021-10-17T06:59:18Z</time>
      </trkpt>
      <trkpt lat="39.8093740" lon="-6.3719430">
        <ele>447.2</ele>
        <time>2021-10-17T06:59:20Z</time>
      </trkpt>
      <trkpt lat="39.8093740" lon="-6.3719430">
        <ele>446.8</ele>
        <time>2021-10-17T06:59:21Z</time>
      </trkpt>
      <trkpt lat="39.8093160" lon="-6.3719580">
        <ele>444.6</ele>
        <time>2021-10-17T06:59:26Z</time>
      </trkpt>
      <trkpt lat="39.8092630" lon="-6.3719900">
        <ele>444.4</ele>
        <time>2021-10-17T06:59:28Z</time>
      </trkpt>
      <trkpt lat="39.8091000" lon="-6.3722060">
        <ele>443.4</ele>
        <time>2021-10-17T06:59:33Z</time>
      </trkpt>
      <trkpt lat="39.8089740" lon="-6.3723460">
        <ele>441.8</ele>
        <time>2021-10-17T06:59:36Z</time>
      </trkpt>
      <trkpt lat="39.8089330" lon="-6.3723700">
        <ele>441.4</ele>
        <time>2021-10-17T06:59:37Z</time>
      </trkpt>
      <trkpt lat="39.8088910" lon="-6.3723800">
        <ele>440.8</ele>
        <time>2021-10-17T06:59:38Z</time>
      </trkpt>
      <trkpt lat="39.8088500" lon="-6.3723800">
        <ele>440.6</ele>
        <time>2021-10-17T06:59:39Z</time>
      </trkpt>
      <trkpt lat="39.8087740" lon="-6.3723600">
        <ele>440.2</ele>
        <time>2021-10-17T06:59:41Z</time>
      </trkpt>
      <trkpt lat="39.8085480" lon="-6.3722850">
        <ele>439.6</ele>
        <time>2021-10-17T06:59:46Z</time>
      </trkpt>
      <trkpt lat="39.8085090" lon="-6.3722550">
        <ele>439.4</ele>
        <time>2021-10-17T06:59:47Z</time>
      </trkpt>
      <trkpt lat="39.8084370" lon="-6.3721620">
        <ele>439.0</ele>
        <time>2021-10-17T06:59:49Z</time>
      </trkpt>
      <trkpt lat="39.8083590" lon="-6.3720450">
        <ele>438.8</ele>
        <time>2021-10-17T06:59:51Z</time>
      </trkpt>
      <trkpt lat="39.8082830" lon="-6.3719700">
        <ele>438.4</ele>
        <time>2021-10-17T06:59:53Z</time>
      </trkpt>
      <trkpt lat="39.8081910" lon="-6.3718980">
        <ele>437.6</ele>
        <time>2021-10-17T06:59:55Z</time>
      </trkpt>
      <trkpt lat="39.8081660" lon="-6.3718670">
        <ele>437.0</ele>
        <time>2021-10-17T06:59:56Z</time>
      </trkpt>
      <trkpt lat="39.8081420" lon="-6.3718270">
        <ele>436.8</ele>
        <time>2021-10-17T06:59:57Z</time>
      </trkpt>
      <trkpt lat="39.8081170" lon="-6.3717550">
        <ele>436.0</ele>
        <time>2021-10-17T06:59:59Z</time>
      </trkpt>
      <trkpt lat="39.8081020" lon="-6.3717200">
        <ele>435.6</ele>
        <time>2021-10-17T07:00:00Z</time>
      </trkpt>
      <trkpt lat="39.8080740" lon="-6.3716760">
        <ele>435.2</ele>
        <time>2021-10-17T07:00:01Z</time>
      </trkpt>
      <trkpt lat="39.8079980" lon="-6.3716200">
        <ele>434.6</ele>
        <time>2021-10-17T07:00:03Z</time>
      </trkpt>
      <trkpt lat="39.8079490" lon="-6.3716020">
        <ele>434.2</ele>
        <time>2021-10-17T07:00:04Z</time>
      </trkpt>
      <trkpt lat="39.8078450" lon="-6.3715910">
        <ele>433.0</ele>
        <time>2021-10-17T07:00:06Z</time>
      </trkpt>
      <trkpt lat="39.8077910" lon="-6.3715950">
        <ele>432.6</ele>
        <time>2021-10-17T07:00:07Z</time>
      </trkpt>
      <trkpt lat="39.8077390" lon="-6.3716040">
        <ele>432.4</ele>
        <time>2021-10-17T07:00:08Z</time>
      </trkpt>
      <trkpt lat="39.8076360" lon="-6.3716340">
        <ele>432.0</ele>
        <time>2021-10-17T07:00:10Z</time>
      </trkpt>
      <trkpt lat="39.8075410" lon="-6.3716730">
        <ele>431.4</ele>
        <time>2021-10-17T07:00:12Z</time>
      </trkpt>
      <trkpt lat="39.8074490" lon="-6.3717260">
        <ele>430.8</ele>
        <time>2021-10-17T07:00:14Z</time>
      </trkpt>
      <trkpt lat="39.8073640" lon="-6.3717850">
        <ele>430.0</ele>
        <time>2021-10-17T07:00:16Z</time>
      </trkpt>
      <trkpt lat="39.8072720" lon="-6.3718310">
        <ele>430.0</ele>
        <time>2021-10-17T07:00:18Z</time>
      </trkpt>
      <trkpt lat="39.8071430" lon="-6.3718390">
        <ele>429.6</ele>
        <time>2021-10-17T07:00:21Z</time>
      </trkpt>
      <trkpt lat="39.8070430" lon="-6.3718350">
        <ele>429.6</ele>
        <time>2021-10-17T07:00:23Z</time>
      </trkpt>
      <trkpt lat="39.8068800" lon="-6.3718070">
        <ele>429.2</ele>
        <time>2021-10-17T07:00:27Z</time>
      </trkpt>
      <trkpt lat="39.8068080" lon="-6.3717740">
        <ele>429.2</ele>
        <time>2021-10-17T07:00:29Z</time>
      </trkpt>
      <trkpt lat="39.8066150" lon="-6.3716900">
        <ele>429.0</ele>
        <time>2021-10-17T07:00:35Z</time>
      </trkpt>
      <trkpt lat="39.8064610" lon="-6.3716630">
        <ele>429.0</ele>
        <time>2021-10-17T07:00:40Z</time>
      </trkpt>
      <trkpt lat="39.8064300" lon="-6.3716630">
        <ele>429.0</ele>
        <time>2021-10-17T07:00:41Z</time>
      </trkpt>
      <trkpt lat="39.8062190" lon="-6.3716880">
        <ele>429.0</ele>
        <time>2021-10-17T07:00:47Z</time>
      </trkpt>
      <trkpt lat="39.8061420" lon="-6.3717250">
        <ele>428.6</ele>
        <time>2021-10-17T07:00:49Z</time>
      </trkpt>
      <trkpt lat="39.8060850" lon="-6.3717940">
        <ele>428.4</ele>
        <time>2021-10-17T07:00:51Z</time>
      </trkpt>
      <trkpt lat="39.8060110" lon="-6.3718670">
        <ele>428.6</ele>
        <time>2021-10-17T07:00:53Z</time>
      </trkpt>
      <trkpt lat="39.8059300" lon="-6.3719180">
        <ele>428.4</ele>
        <time>2021-10-17T07:00:55Z</time>
      </trkpt>
      <trkpt lat="39.8057860" lon="-6.3720080">
        <ele>427.4</ele>
        <time>2021-10-17T07:00:58Z</time>
      </trkpt>
      <trkpt lat="39.8057350" lon="-6.3720340">
        <ele>427.2</ele>
        <time>2021-10-17T07:00:59Z</time>
      </trkpt>
      <trkpt lat="39.8056260" lon="-6.3720780">
        <ele>427.0</ele>
        <time>2021-10-17T07:01:01Z</time>
      </trkpt>
      <trkpt lat="39.8055570" lon="-6.3721120">
        <ele>426.4</ele>
        <time>2021-10-17T07:01:02Z</time>
      </trkpt>
      <trkpt lat="39.8053010" lon="-6.3722350">
        <ele>425.4</ele>
        <time>2021-10-17T07:01:06Z</time>
      </trkpt>
      <trkpt lat="39.8052510" lon="-6.3722530">
        <ele>425.0</ele>
        <time>2021-10-17T07:01:07Z</time>
      </trkpt>
      <trkpt lat="39.8051330" lon="-6.3722670">
        <ele>423.8</ele>
        <time>2021-10-17T07:01:09Z</time>
      </trkpt>
      <trkpt lat="39.8050750" lon="-6.3722620">
        <ele>423.4</ele>
        <time>2021-10-17T07:01:10Z</time>
      </trkpt>
      <trkpt lat="39.8050170" lon="-6.3722660">
        <ele>423.0</ele>
        <time>2021-10-17T07:01:11Z</time>
      </trkpt>
      <trkpt lat="39.8049500" lon="-6.3722840">
        <ele>422.8</ele>
        <time>2021-10-17T07:01:12Z</time>
      </trkpt>
      <trkpt lat="39.8048470" lon="-6.3723270">
        <ele>422.2</ele>
        <time>2021-10-17T07:01:14Z</time>
      </trkpt>
      <trkpt lat="39.8046870" lon="-6.3724100">
        <ele>421.6</ele>
        <time>2021-10-17T07:01:17Z</time>
      </trkpt>
      <trkpt lat="39.8046100" lon="-6.3724540">
        <ele>420.4</ele>
        <time>2021-10-17T07:01:19Z</time>
      </trkpt>
      <trkpt lat="39.8045180" lon="-6.3724710">
        <ele>419.4</ele>
        <time>2021-10-17T07:01:21Z</time>
      </trkpt>
      <trkpt lat="39.8044440" lon="-6.3724710">
        <ele>418.4</ele>
        <time>2021-10-17T07:01:23Z</time>
      </trkpt>
      <trkpt lat="39.8044130" lon="-6.3724790">
        <ele>418.0</ele>
        <time>2021-10-17T07:01:24Z</time>
      </trkpt>
      <trkpt lat="39.8043790" lon="-6.3724890">
        <ele>416.6</ele>
        <time>2021-10-17T07:01:26Z</time>
      </trkpt>
      <trkpt lat="39.8043480" lon="-6.3724970">
        <ele>415.2</ele>
        <time>2021-10-17T07:01:29Z</time>
      </trkpt>
      <trkpt lat="39.8043480" lon="-6.3724970">
        <ele>414.6</ele>
        <time>2021-10-17T07:01:31Z</time>
      </trkpt>
      <trkpt lat="39.8043830" lon="-6.3724840">
        <ele>414.2</ele>
        <time>2021-10-17T07:01:42Z</time>
      </trkpt>
      <trkpt lat="39.8044110" lon="-6.3724750">
        <ele>414.4</ele>
        <time>2021-10-17T07:01:44Z</time>
      </trkpt>
      <trkpt lat="39.8044200" lon="-6.3724640">
        <ele>414.4</ele>
        <time>2021-10-17T07:01:45Z</time>
      </trkpt>
      <trkpt lat="39.8044210" lon="-6.3724560">
        <ele>414.6</ele>
        <time>2021-10-17T07:01:48Z</time>
      </trkpt>
      <trkpt lat="39.8043620" lon="-6.3723140">
        <ele>414.6</ele>
        <time>2021-10-17T07:01:54Z</time>
      </trkpt>
      <trkpt lat="39.8043090" lon="-6.3721680">
        <ele>414.6</ele>
        <time>2021-10-17T07:01:58Z</time>
      </trkpt>
      <trkpt lat="39.8042060" lon="-6.3720960">
        <ele>414.4</ele>
        <time>2021-10-17T07:02:01Z</time>
      </trkpt>
      <trkpt lat="39.8041620" lon="-6.3720870">
        <ele>414.2</ele>
        <time>2021-10-17T07:02:02Z</time>
      </trkpt>
      <trkpt lat="39.8041180" lon="-6.3720870">
        <ele>414.2</ele>
        <time>2021-10-17T07:02:03Z</time>
      </trkpt>
      <trkpt lat="39.8040300" lon="-6.3721150">
        <ele>414.0</ele>
        <time>2021-10-17T07:02:05Z</time>
      </trkpt>
      <trkpt lat="39.8039900" lon="-6.3721360">
        <ele>413.8</ele>
        <time>2021-10-17T07:02:06Z</time>
      </trkpt>
      <trkpt lat="39.8038590" lon="-6.3721940">
        <ele>413.2</ele>
        <time>2021-10-17T07:02:09Z</time>
      </trkpt>
      <trkpt lat="39.8037380" lon="-6.3722380">
        <ele>412.2</ele>
        <time>2021-10-17T07:02:12Z</time>
      </trkpt>
      <trkpt lat="39.8037030" lon="-6.3722520">
        <ele>411.4</ele>
        <time>2021-10-17T07:02:13Z</time>
      </trkpt>
      <trkpt lat="39.8036380" lon="-6.3722940">
        <ele>410.8</ele>
        <time>2021-10-17T07:02:15Z</time>
      </trkpt>
      <trkpt lat="39.8035790" lon="-6.3723270">
        <ele>409.6</ele>
        <time>2021-10-17T07:02:17Z</time>
      </trkpt>
      <trkpt lat="39.8035340" lon="-6.3723330">
        <ele>409.0</ele>
        <time>2021-10-17T07:02:19Z</time>
      </trkpt>
      <trkpt lat="39.8035110" lon="-6.3723300">
        <ele>408.6</ele>
        <time>2021-10-17T07:02:20Z</time>
      </trkpt>
      <trkpt lat="39.8034040" lon="-6.3723020">
        <ele>408.2</ele>
        <time>2021-10-17T07:02:24Z</time>
      </trkpt>
      <trkpt lat="39.8033460" lon="-6.3722700">
        <ele>408.0</ele>
        <time>2021-10-17T07:02:26Z</time>
      </trkpt>
      <trkpt lat="39.8031690" lon="-6.3722250">
        <ele>407.6</ele>
        <time>2021-10-17T07:02:31Z</time>
      </trkpt>
      <trkpt lat="39.8030920" lon="-6.3722120">
        <ele>407.6</ele>
        <time>2021-10-17T07:02:33Z</time>
      </trkpt>
      <trkpt lat="39.8029150" lon="-6.3721720">
        <ele>407.2</ele>
        <time>2021-10-17T07:02:37Z</time>
      </trkpt>
      <trkpt lat="39.8028670" lon="-6.3721530">
        <ele>407.0</ele>
        <time>2021-10-17T07:02:38Z</time>
      </trkpt>
      <trkpt lat="39.8027100" lon="-6.3721130">
        <ele>406.4</ele>
        <time>2021-10-17T07:02:41Z</time>
      </trkpt>
      <trkpt lat="39.8025940" lon="-6.3721130">
        <ele>406.2</ele>
        <time>2021-10-17T07:02:43Z</time>
      </trkpt>
      <trkpt lat="39.8022860" lon="-6.3721090">
        <ele>405.4</ele>
        <time>2021-10-17T07:02:48Z</time>
      </trkpt>
      <trkpt lat="39.8020980" lon="-6.3721090">
        <ele>404.2</ele>
        <time>2021-10-17T07:02:51Z</time>
      </trkpt>
      <trkpt lat="39.8020080" lon="-6.3721160">
        <ele>403.6</ele>
        <time>2021-10-17T07:02:53Z</time>
      </trkpt>
      <trkpt lat="39.8019260" lon="-6.3721200">
        <ele>403.2</ele>
        <time>2021-10-17T07:02:55Z</time>
      </trkpt>
      <trkpt lat="39.8018730" lon="-6.3721770">
        <ele>402.6</ele>
        <time>2021-10-17T07:02:57Z</time>
      </trkpt>
      <trkpt lat="39.8018560" lon="-6.3722200">
        <ele>402.4</ele>
        <time>2021-10-17T07:02:58Z</time>
      </trkpt>
      <trkpt lat="39.8018330" lon="-6.3722600">
        <ele>401.8</ele>
        <time>2021-10-17T07:02:59Z</time>
      </trkpt>
      <trkpt lat="39.8018020" lon="-6.3722930">
        <ele>401.8</ele>
        <time>2021-10-17T07:03:00Z</time>
      </trkpt>
      <trkpt lat="39.8017190" lon="-6.3723210">
        <ele>401.2</ele>
        <time>2021-10-17T07:03:02Z</time>
      </trkpt>
      <trkpt lat="39.8016250" lon="-6.3723390">
        <ele>400.8</ele>
        <time>2021-10-17T07:03:04Z</time>
      </trkpt>
      <trkpt lat="39.8015780" lon="-6.3723590">
        <ele>400.8</ele>
        <time>2021-10-17T07:03:05Z</time>
      </trkpt>
      <trkpt lat="39.8014780" lon="-6.3724190">
        <ele>400.6</ele>
        <time>2021-10-17T07:03:07Z</time>
      </trkpt>
      <trkpt lat="39.8012310" lon="-6.3725420">
        <ele>399.8</ele>
        <time>2021-10-17T07:03:12Z</time>
      </trkpt>
      <trkpt lat="39.8011840" lon="-6.3725680">
        <ele>399.6</ele>
        <time>2021-10-17T07:03:13Z</time>
      </trkpt>
      <trkpt lat="39.8009710" lon="-6.3726940">
        <ele>399.2</ele>
        <time>2021-10-17T07:03:18Z</time>
      </trkpt>
      <trkpt lat="39.8008910" lon="-6.3727400">
        <ele>399.0</ele>
        <time>2021-10-17T07:03:20Z</time>
      </trkpt>
      <trkpt lat="39.8006770" lon="-6.3728580">
        <ele>399.2</ele>
        <time>2021-10-17T07:03:26Z</time>
      </trkpt>
      <trkpt lat="39.8005720" lon="-6.3728260">
        <ele>399.4</ele>
        <time>2021-10-17T07:03:30Z</time>
      </trkpt>
      <trkpt lat="39.8004430" lon="-6.3726230">
        <ele>399.4</ele>
        <time>2021-10-17T07:03:36Z</time>
      </trkpt>
      <trkpt lat="39.8004190" lon="-6.3725950">
        <ele>399.0</ele>
        <time>2021-10-17T07:03:37Z</time>
      </trkpt>
      <trkpt lat="39.8003590" lon="-6.3725780">
        <ele>398.4</ele>
        <time>2021-10-17T07:03:39Z</time>
      </trkpt>
      <trkpt lat="39.8002660" lon="-6.3726510">
        <ele>397.4</ele>
        <time>2021-10-17T07:03:42Z</time>
      </trkpt>
      <trkpt lat="39.8002370" lon="-6.3726850">
        <ele>397.0</ele>
        <time>2021-10-17T07:03:43Z</time>
      </trkpt>
      <trkpt lat="39.8000570" lon="-6.3728660">
        <ele>396.8</ele>
        <time>2021-10-17T07:03:49Z</time>
      </trkpt>
      <trkpt lat="39.7999930" lon="-6.3729190">
        <ele>396.8</ele>
        <time>2021-10-17T07:03:51Z</time>
      </trkpt>
      <trkpt lat="39.7995810" lon="-6.3731780">
        <ele>396.8</ele>
        <time>2021-10-17T07:04:02Z</time>
      </trkpt>
      <trkpt lat="39.7991630" lon="-6.3734000">
        <ele>396.8</ele>
        <time>2021-10-17T07:04:12Z</time>
      </trkpt>
      <trkpt lat="39.7991190" lon="-6.3734250">
        <ele>397.0</ele>
        <time>2021-10-17T07:04:13Z</time>
      </trkpt>
      <trkpt lat="39.7989880" lon="-6.3734780">
        <ele>397.2</ele>
        <time>2021-10-17T07:04:16Z</time>
      </trkpt>
      <trkpt lat="39.7989060" lon="-6.3735220">
        <ele>397.2</ele>
        <time>2021-10-17T07:04:18Z</time>
      </trkpt>
      <trkpt lat="39.7985520" lon="-6.3737150">
        <ele>397.4</ele>
        <time>2021-10-17T07:04:26Z</time>
      </trkpt>
      <trkpt lat="39.7984650" lon="-6.3737560">
        <ele>397.2</ele>
        <time>2021-10-17T07:04:28Z</time>
      </trkpt>
      <trkpt lat="39.7981610" lon="-6.3739350">
        <ele>396.6</ele>
        <time>2021-10-17T07:04:35Z</time>
      </trkpt>
      <trkpt lat="39.7981180" lon="-6.3739590">
        <ele>396.6</ele>
        <time>2021-10-17T07:04:36Z</time>
      </trkpt>
      <trkpt lat="39.7979880" lon="-6.3740400">
        <ele>396.4</ele>
        <time>2021-10-17T07:04:39Z</time>
      </trkpt>
      <trkpt lat="39.7976470" lon="-6.3743110">
        <ele>395.8</ele>
        <time>2021-10-17T07:04:47Z</time>
      </trkpt>
      <trkpt lat="39.7974730" lon="-6.3744760">
        <ele>395.4</ele>
        <time>2021-10-17T07:04:51Z</time>
      </trkpt>
      <trkpt lat="39.7973480" lon="-6.3746030">
        <ele>394.8</ele>
        <time>2021-10-17T07:04:54Z</time>
      </trkpt>
      <trkpt lat="39.7973150" lon="-6.3746520">
        <ele>394.8</ele>
        <time>2021-10-17T07:04:55Z</time>
      </trkpt>
      <trkpt lat="39.7972320" lon="-6.3748100">
        <ele>394.4</ele>
        <time>2021-10-17T07:04:58Z</time>
      </trkpt>
      <trkpt lat="39.7971570" lon="-6.3748860">
        <ele>394.0</ele>
        <time>2021-10-17T07:05:00Z</time>
      </trkpt>
      <trkpt lat="39.7970630" lon="-6.3749240">
        <ele>393.8</ele>
        <time>2021-10-17T07:05:02Z</time>
      </trkpt>
      <trkpt lat="39.7969610" lon="-6.3749290">
        <ele>393.8</ele>
        <time>2021-10-17T07:05:04Z</time>
      </trkpt>
      <trkpt lat="39.7968630" lon="-6.3748820">
        <ele>393.4</ele>
        <time>2021-10-17T07:05:06Z</time>
      </trkpt>
      <trkpt lat="39.7968210" lon="-6.3748460">
        <ele>393.4</ele>
        <time>2021-10-17T07:05:07Z</time>
      </trkpt>
      <trkpt lat="39.7967840" lon="-6.3748070">
        <ele>393.2</ele>
        <time>2021-10-17T07:05:08Z</time>
      </trkpt>
      <trkpt lat="39.7966440" lon="-6.3746560">
        <ele>392.6</ele>
        <time>2021-10-17T07:05:13Z</time>
      </trkpt>
      <trkpt lat="39.7964850" lon="-6.3745640">
        <ele>392.4</ele>
        <time>2021-10-17T07:05:17Z</time>
      </trkpt>
      <trkpt lat="39.7964360" lon="-6.3745450">
        <ele>392.2</ele>
        <time>2021-10-17T07:05:18Z</time>
      </trkpt>
      <trkpt lat="39.7960970" lon="-6.3744180">
        <ele>391.2</ele>
        <time>2021-10-17T07:05:24Z</time>
      </trkpt>
      <trkpt lat="39.7958970" lon="-6.3743440">
        <ele>389.8</ele>
        <time>2021-10-17T07:05:27Z</time>
      </trkpt>
      <trkpt lat="39.7956220" lon="-6.3742510">
        <ele>388.6</ele>
        <time>2021-10-17T07:05:31Z</time>
      </trkpt>
      <trkpt lat="39.7954000" lon="-6.3741740">
        <ele>387.6</ele>
        <time>2021-10-17T07:05:34Z</time>
      </trkpt>
      <trkpt lat="39.7951700" lon="-6.3740910">
        <ele>386.4</ele>
        <time>2021-10-17T07:05:37Z</time>
      </trkpt>
      <trkpt lat="39.7949300" lon="-6.3740180">
        <ele>385.2</ele>
        <time>2021-10-17T07:05:40Z</time>
      </trkpt>
      <trkpt lat="39.7946880" lon="-6.3739670">
        <ele>384.0</ele>
        <time>2021-10-17T07:05:43Z</time>
      </trkpt>
      <trkpt lat="39.7946090" lon="-6.3739630">
        <ele>383.8</ele>
        <time>2021-10-17T07:05:44Z</time>
      </trkpt>
      <trkpt lat="39.7943780" lon="-6.3739970">
        <ele>382.8</ele>
        <time>2021-10-17T07:05:47Z</time>
      </trkpt>
      <trkpt lat="39.7942270" lon="-6.3740340">
        <ele>382.4</ele>
        <time>2021-10-17T07:05:49Z</time>
      </trkpt>
      <trkpt lat="39.7940090" lon="-6.3740860">
        <ele>381.6</ele>
        <time>2021-10-17T07:05:52Z</time>
      </trkpt>
      <trkpt lat="39.7935660" lon="-6.3741710">
        <ele>381.0</ele>
        <time>2021-10-17T07:05:58Z</time>
      </trkpt>
      <trkpt lat="39.7934090" lon="-6.3742000">
        <ele>380.4</ele>
        <time>2021-10-17T07:06:00Z</time>
      </trkpt>
      <trkpt lat="39.7930820" lon="-6.3742780">
        <ele>379.4</ele>
        <time>2021-10-17T07:06:04Z</time>
      </trkpt>
      <trkpt lat="39.7928330" lon="-6.3743390">
        <ele>378.4</ele>
        <time>2021-10-17T07:06:07Z</time>
      </trkpt>
      <trkpt lat="39.7927520" lon="-6.3743560">
        <ele>378.0</ele>
        <time>2021-10-17T07:06:08Z</time>
      </trkpt>
      <trkpt lat="39.7925950" lon="-6.3743910">
        <ele>377.0</ele>
        <time>2021-10-17T07:06:10Z</time>
      </trkpt>
      <trkpt lat="39.7923740" lon="-6.3744480">
        <ele>376.0</ele>
        <time>2021-10-17T07:06:13Z</time>
      </trkpt>
      <trkpt lat="39.7923040" lon="-6.3744670">
        <ele>375.8</ele>
        <time>2021-10-17T07:06:14Z</time>
      </trkpt>
      <trkpt lat="39.7920420" lon="-6.3744960">
        <ele>375.2</ele>
        <time>2021-10-17T07:06:18Z</time>
      </trkpt>
      <trkpt lat="39.7919790" lon="-6.3744850">
        <ele>375.2</ele>
        <time>2021-10-17T07:06:19Z</time>
      </trkpt>
      <trkpt lat="39.7918540" lon="-6.3744460">
        <ele>375.0</ele>
        <time>2021-10-17T07:06:21Z</time>
      </trkpt>
      <trkpt lat="39.7915930" lon="-6.3743520">
        <ele>374.2</ele>
        <time>2021-10-17T07:06:25Z</time>
      </trkpt>
      <trkpt lat="39.7913920" lon="-6.3742720">
        <ele>373.8</ele>
        <time>2021-10-17T07:06:28Z</time>
      </trkpt>
      <trkpt lat="39.7911800" lon="-6.3741880">
        <ele>372.6</ele>
        <time>2021-10-17T07:06:32Z</time>
      </trkpt>
      <trkpt lat="39.7910660" lon="-6.3741400">
        <ele>371.4</ele>
        <time>2021-10-17T07:06:36Z</time>
      </trkpt>
      <trkpt lat="39.7909320" lon="-6.3740970">
        <ele>370.4</ele>
        <time>2021-10-17T07:06:42Z</time>
      </trkpt>
      <trkpt lat="39.7909270" lon="-6.3740990">
        <ele>370.2</ele>
        <time>2021-10-17T07:06:43Z</time>
      </trkpt>
      <trkpt lat="39.7909270" lon="-6.3740990">
        <ele>370.2</ele>
        <time>2021-10-17T07:06:44Z</time>
      </trkpt>
      <trkpt lat="39.7909600" lon="-6.3740730">
        <ele>369.8</ele>
        <time>2021-10-17T07:07:56Z</time>
      </trkpt>
      <trkpt lat="39.7910140" lon="-6.3740780">
        <ele>369.8</ele>
        <time>2021-10-17T07:07:58Z</time>
      </trkpt>
      <trkpt lat="39.7912540" lon="-6.3741690">
        <ele>370.0</ele>
        <time>2021-10-17T07:08:05Z</time>
      </trkpt>
      <trkpt lat="39.7915510" lon="-6.3742870">
        <ele>371.0</ele>
        <time>2021-10-17T07:08:13Z</time>
      </trkpt>
      <trkpt lat="39.7917330" lon="-6.3743530">
        <ele>371.4</ele>
        <time>2021-10-17T07:08:18Z</time>
      </trkpt>
      <trkpt lat="39.7919860" lon="-6.3744520">
        <ele>372.4</ele>
        <time>2021-10-17T07:08:25Z</time>
      </trkpt>
      <trkpt lat="39.7920620" lon="-6.3744650">
        <ele>372.6</ele>
        <time>2021-10-17T07:08:27Z</time>
      </trkpt>
      <trkpt lat="39.7921250" lon="-6.3744860">
        <ele>373.0</ele>
        <time>2021-10-17T07:08:29Z</time>
      </trkpt>
      <trkpt lat="39.7921500" lon="-6.3745160">
        <ele>373.0</ele>
        <time>2021-10-17T07:08:30Z</time>
      </trkpt>
      <trkpt lat="39.7921730" lon="-6.3745950">
        <ele>373.4</ele>
        <time>2021-10-17T07:08:32Z</time>
      </trkpt>
      <trkpt lat="39.7921590" lon="-6.3746730">
        <ele>373.6</ele>
        <time>2021-10-17T07:08:34Z</time>
      </trkpt>
      <trkpt lat="39.7921460" lon="-6.3747090">
        <ele>373.6</ele>
        <time>2021-10-17T07:08:35Z</time>
      </trkpt>
      <trkpt lat="39.7921090" lon="-6.3749070">
        <ele>375.0</ele>
        <time>2021-10-17T07:08:40Z</time>
      </trkpt>
      <trkpt lat="39.7921100" lon="-6.3749460">
        <ele>375.0</ele>
        <time>2021-10-17T07:08:41Z</time>
      </trkpt>
      <trkpt lat="39.7920780" lon="-6.3751750">
        <ele>375.8</ele>
        <time>2021-10-17T07:08:47Z</time>
      </trkpt>
      <trkpt lat="39.7920270" lon="-6.3752880">
        <ele>376.0</ele>
        <time>2021-10-17T07:08:50Z</time>
      </trkpt>
      <trkpt lat="39.7919560" lon="-6.3754090">
        <ele>376.0</ele>
        <time>2021-10-17T07:08:53Z</time>
      </trkpt>
      <trkpt lat="39.7919310" lon="-6.3754460">
        <ele>376.0</ele>
        <time>2021-10-17T07:08:54Z</time>
      </trkpt>
      <trkpt lat="39.7919070" lon="-6.3754810">
        <ele>376.0</ele>
        <time>2021-10-17T07:08:55Z</time>
      </trkpt>
      <trkpt lat="39.7918600" lon="-6.3755510">
        <ele>376.0</ele>
        <time>2021-10-17T07:08:57Z</time>
      </trkpt>
      <trkpt lat="39.7918170" lon="-6.3756180">
        <ele>375.8</ele>
        <time>2021-10-17T07:08:59Z</time>
      </trkpt>
      <trkpt lat="39.7917460" lon="-6.3757110">
        <ele>375.8</ele>
        <time>2021-10-17T07:09:02Z</time>
      </trkpt>
      <trkpt lat="39.7917030" lon="-6.3757730">
        <ele>375.8</ele>
        <time>2021-10-17T07:09:04Z</time>
      </trkpt>
      <trkpt lat="39.7915110" lon="-6.3759920">
        <ele>375.8</ele>
        <time>2021-10-17T07:09:12Z</time>
      </trkpt>
      <trkpt lat="39.7914120" lon="-6.3760800">
        <ele>375.8</ele>
        <time>2021-10-17T07:09:16Z</time>
      </trkpt>
      <trkpt lat="39.7913220" lon="-6.3761640">
        <ele>375.8</ele>
        <time>2021-10-17T07:09:19Z</time>
      </trkpt>
      <trkpt lat="39.7912190" lon="-6.3762670">
        <ele>375.6</ele>
        <time>2021-10-17T07:09:22Z</time>
      </trkpt>
      <trkpt lat="39.7911600" lon="-6.3763600">
        <ele>375.4</ele>
        <time>2021-10-17T07:09:24Z</time>
      </trkpt>
      <trkpt lat="39.7910930" lon="-6.3765000">
        <ele>375.0</ele>
        <time>2021-10-17T07:09:28Z</time>
      </trkpt>
      <trkpt lat="39.7910800" lon="-6.3765250">
        <ele>374.8</ele>
        <time>2021-10-17T07:09:29Z</time>
      </trkpt>
      <trkpt lat="39.7909860" lon="-6.3766650">
        <ele>375.2</ele>
        <time>2021-10-17T07:09:35Z</time>
      </trkpt>
      <trkpt lat="39.7908600" lon="-6.3768330">
        <ele>375.0</ele>
        <time>2021-10-17T07:09:40Z</time>
      </trkpt>
      <trkpt lat="39.7907500" lon="-6.3769530">
        <ele>374.8</ele>
        <time>2021-10-17T07:09:43Z</time>
      </trkpt>
      <trkpt lat="39.7907080" lon="-6.3769940">
        <ele>374.6</ele>
        <time>2021-10-17T07:09:44Z</time>
      </trkpt>
      <trkpt lat="39.7906580" lon="-6.3770340">
        <ele>374.6</ele>
        <time>2021-10-17T07:09:45Z</time>
      </trkpt>
      <trkpt lat="39.7906030" lon="-6.3770690">
        <ele>374.2</ele>
        <time>2021-10-17T07:09:46Z</time>
      </trkpt>
      <trkpt lat="39.7904750" lon="-6.3771340">
        <ele>373.4</ele>
        <time>2021-10-17T07:09:48Z</time>
      </trkpt>
      <trkpt lat="39.7904020" lon="-6.3771670">
        <ele>372.6</ele>
        <time>2021-10-17T07:09:49Z</time>
      </trkpt>
      <trkpt lat="39.7903240" lon="-6.3771940">
        <ele>372.2</ele>
        <time>2021-10-17T07:09:50Z</time>
      </trkpt>
      <trkpt lat="39.7901550" lon="-6.3772380">
        <ele>370.8</ele>
        <time>2021-10-17T07:09:52Z</time>
      </trkpt>
      <trkpt lat="39.7899880" lon="-6.3772710">
        <ele>369.8</ele>
        <time>2021-10-17T07:09:54Z</time>
      </trkpt>
      <trkpt lat="39.7898950" lon="-6.3772880">
        <ele>368.4</ele>
        <time>2021-10-17T07:09:55Z</time>
      </trkpt>
      <trkpt lat="39.7897780" lon="-6.3773160">
        <ele>367.2</ele>
        <time>2021-10-17T07:09:57Z</time>
      </trkpt>
      <trkpt lat="39.7897200" lon="-6.3773320">
        <ele>366.8</ele>
        <time>2021-10-17T07:09:58Z</time>
      </trkpt>
      <trkpt lat="39.7895020" lon="-6.3774010">
        <ele>366.6</ele>
        <time>2021-10-17T07:10:03Z</time>
      </trkpt>
      <trkpt lat="39.7891610" lon="-6.3775410">
        <ele>367.6</ele>
        <time>2021-10-17T07:10:12Z</time>
      </trkpt>
      <trkpt lat="39.7890130" lon="-6.3776210">
        <ele>367.6</ele>
        <time>2021-10-17T07:10:16Z</time>
      </trkpt>
      <trkpt lat="39.7888880" lon="-6.3777030">
        <ele>367.2</ele>
        <time>2021-10-17T07:10:19Z</time>
      </trkpt>
      <trkpt lat="39.7887980" lon="-6.3777640">
        <ele>366.6</ele>
        <time>2021-10-17T07:10:21Z</time>
      </trkpt>
      <trkpt lat="39.7887530" lon="-6.3777990">
        <ele>366.2</ele>
        <time>2021-10-17T07:10:22Z</time>
      </trkpt>
      <trkpt lat="39.7885650" lon="-6.3779620">
        <ele>365.0</ele>
        <time>2021-10-17T07:10:26Z</time>
      </trkpt>
      <trkpt lat="39.7885140" lon="-6.3779990">
        <ele>364.8</ele>
        <time>2021-10-17T07:10:27Z</time>
      </trkpt>
      <trkpt lat="39.7882000" lon="-6.3781800">
        <ele>363.8</ele>
        <time>2021-10-17T07:10:33Z</time>
      </trkpt>
      <trkpt lat="39.7881080" lon="-6.3782250">
        <ele>363.4</ele>
        <time>2021-10-17T07:10:35Z</time>
      </trkpt>
      <trkpt lat="39.7879740" lon="-6.3782720">
        <ele>363.2</ele>
        <time>2021-10-17T07:10:38Z</time>
      </trkpt>
      <trkpt lat="39.7879050" lon="-6.3782890">
        <ele>363.2</ele>
        <time>2021-10-17T07:10:40Z</time>
      </trkpt>
      <trkpt lat="39.7877830" lon="-6.3783070">
        <ele>365.2</ele>
        <time>2021-10-17T07:10:45Z</time>
      </trkpt>
      <trkpt lat="39.7876970" lon="-6.3783220">
        <ele>366.6</ele>
        <time>2021-10-17T07:10:49Z</time>
      </trkpt>
      <trkpt lat="39.7876360" lon="-6.3783300">
        <ele>367.8</ele>
        <time>2021-10-17T07:10:52Z</time>
      </trkpt>
      <trkpt lat="39.7875940" lon="-6.3783310">
        <ele>368.2</ele>
        <time>2021-10-17T07:10:54Z</time>
      </trkpt>
      <trkpt lat="39.7874910" lon="-6.3783380">
        <ele>368.8</ele>
        <time>2021-10-17T07:10:59Z</time>
      </trkpt>
      <trkpt lat="39.7874710" lon="-6.3783380">
        <ele>368.8</ele>
        <time>2021-10-17T07:11:00Z</time>
      </trkpt>
      <trkpt lat="39.7873600" lon="-6.3783510">
        <ele>369.8</ele>
        <time>2021-10-17T07:11:06Z</time>
      </trkpt>
      <trkpt lat="39.7873170" lon="-6.3783510">
        <ele>370.0</ele>
        <time>2021-10-17T07:11:08Z</time>
      </trkpt>
      <trkpt lat="39.7872060" lon="-6.3783780">
        <ele>370.8</ele>
        <time>2021-10-17T07:11:14Z</time>
      </trkpt>
      <trkpt lat="39.7871760" lon="-6.3783920">
        <ele>371.0</ele>
        <time>2021-10-17T07:11:16Z</time>
      </trkpt>
      <trkpt lat="39.7871270" lon="-6.3784200">
        <ele>371.2</ele>
        <time>2021-10-17T07:11:22Z</time>
      </trkpt>
      <trkpt lat="39.7870940" lon="-6.3784250">
        <ele>371.2</ele>
        <time>2021-10-17T07:12:03Z</time>
      </trkpt>
      <trkpt lat="39.7870750" lon="-6.3784210">
        <ele>371.2</ele>
        <time>2021-10-17T07:12:04Z</time>
      </trkpt>
      <trkpt lat="39.7870450" lon="-6.3784190">
        <ele>371.0</ele>
        <time>2021-10-17T07:12:06Z</time>
      </trkpt>
      <trkpt lat="39.7870300" lon="-6.3784260">
        <ele>371.0</ele>
        <time>2021-10-17T07:12:09Z</time>
      </trkpt>
      <trkpt lat="39.7870280" lon="-6.3784260">
        <ele>371.0</ele>
        <time>2021-10-17T07:12:10Z</time>
      </trkpt>
      <trkpt lat="39.7869900" lon="-6.3784340">
        <ele>370.2</ele>
        <time>2021-10-17T07:13:32Z</time>
      </trkpt>
      <trkpt lat="39.7869660" lon="-6.3784390">
        <ele>370.2</ele>
        <time>2021-10-17T07:13:33Z</time>
      </trkpt>
      <trkpt lat="39.7868360" lon="-6.3784640">
        <ele>370.0</ele>
        <time>2021-10-17T07:13:37Z</time>
      </trkpt>
      <trkpt lat="39.7867930" lon="-6.3784720">
        <ele>370.0</ele>
        <time>2021-10-17T07:13:38Z</time>
      </trkpt>
      <trkpt lat="39.7865760" lon="-6.3785250">
        <ele>369.4</ele>
        <time>2021-10-17T07:13:42Z</time>
      </trkpt>
      <trkpt lat="39.7865080" lon="-6.3785380">
        <ele>369.0</ele>
        <time>2021-10-17T07:13:43Z</time>
      </trkpt>
      <trkpt lat="39.7862050" lon="-6.3786000">
        <ele>367.6</ele>
        <time>2021-10-17T07:13:47Z</time>
      </trkpt>
      <trkpt lat="39.7860360" lon="-6.3786330">
        <ele>366.4</ele>
        <time>2021-10-17T07:13:49Z</time>
      </trkpt>
      <trkpt lat="39.7858600" lon="-6.3786700">
        <ele>365.2</ele>
        <time>2021-10-17T07:13:51Z</time>
      </trkpt>
      <trkpt lat="39.7856930" lon="-6.3787120">
        <ele>364.4</ele>
        <time>2021-10-17T07:13:53Z</time>
      </trkpt>
      <trkpt lat="39.7856130" lon="-6.3787350">
        <ele>364.0</ele>
        <time>2021-10-17T07:13:54Z</time>
      </trkpt>
      <trkpt lat="39.7853280" lon="-6.3788150">
        <ele>362.6</ele>
        <time>2021-10-17T07:13:58Z</time>
      </trkpt>
      <trkpt lat="39.7852680" lon="-6.3788300">
        <ele>362.2</ele>
        <time>2021-10-17T07:13:59Z</time>
      </trkpt>
      <trkpt lat="39.7851110" lon="-6.3788550">
        <ele>362.2</ele>
        <time>2021-10-17T07:14:03Z</time>
      </trkpt>
      <trkpt lat="39.7849380" lon="-6.3788520">
        <ele>362.6</ele>
        <time>2021-10-17T07:14:09Z</time>
      </trkpt>
      <trkpt lat="39.7847430" lon="-6.3788470">
        <ele>363.2</ele>
        <time>2021-10-17T07:14:14Z</time>
      </trkpt>
      <trkpt lat="39.7846870" lon="-6.3788540">
        <ele>363.2</ele>
        <time>2021-10-17T07:14:15Z</time>
      </trkpt>
      <trkpt lat="39.7845010" lon="-6.3789200">
        <ele>362.8</ele>
        <time>2021-10-17T07:14:18Z</time>
      </trkpt>
      <trkpt lat="39.7841650" lon="-6.3790930">
        <ele>361.6</ele>
        <time>2021-10-17T07:14:25Z</time>
      </trkpt>
      <trkpt lat="39.7839440" lon="-6.3792140">
        <ele>361.6</ele>
        <time>2021-10-17T07:14:31Z</time>
      </trkpt>
      <trkpt lat="39.7838270" lon="-6.3792830">
        <ele>361.6</ele>
        <time>2021-10-17T07:14:36Z</time>
      </trkpt>
      <trkpt lat="39.7838090" lon="-6.3792970">
        <ele>361.6</ele>
        <time>2021-10-17T07:14:40Z</time>
      </trkpt>
      <trkpt lat="39.7837630" lon="-6.3793160">
        <ele>361.4</ele>
        <time>2021-10-17T07:15:32Z</time>
      </trkpt>
      <trkpt lat="39.7837320" lon="-6.3793330">
        <ele>361.4</ele>
        <time>2021-10-17T07:15:33Z</time>
      </trkpt>
      <trkpt lat="39.7837030" lon="-6.3793590">
        <ele>361.4</ele>
        <time>2021-10-17T07:15:34Z</time>
      </trkpt>
      <trkpt lat="39.7836190" lon="-6.3795210">
        <ele>361.2</ele>
        <time>2021-10-17T07:15:38Z</time>
      </trkpt>
      <trkpt lat="39.7835720" lon="-6.3798030">
        <ele>360.8</ele>
        <time>2021-10-17T07:15:43Z</time>
      </trkpt>
      <trkpt lat="39.7835110" lon="-6.3802820">
        <ele>360.0</ele>
        <time>2021-10-17T07:15:50Z</time>
      </trkpt>
      <trkpt lat="39.7834990" lon="-6.3805090">
        <ele>359.6</ele>
        <time>2021-10-17T07:15:53Z</time>
      </trkpt>
      <trkpt lat="39.7834890" lon="-6.3807860">
        <ele>359.2</ele>
        <time>2021-10-17T07:15:57Z</time>
      </trkpt>
      <trkpt lat="39.7835080" lon="-6.3811990">
        <ele>358.8</ele>
        <time>2021-10-17T07:16:03Z</time>
      </trkpt>
      <trkpt lat="39.7835170" lon="-6.3814550">
        <ele>358.6</ele>
        <time>2021-10-17T07:16:07Z</time>
      </trkpt>
      <trkpt lat="39.7835150" lon="-6.3815880">
        <ele>358.4</ele>
        <time>2021-10-17T07:16:09Z</time>
      </trkpt>
      <trkpt lat="39.7835120" lon="-6.3816590">
        <ele>358.4</ele>
        <time>2021-10-17T07:16:10Z</time>
      </trkpt>
      <trkpt lat="39.7834930" lon="-6.3818640">
        <ele>358.0</ele>
        <time>2021-10-17T07:16:13Z</time>
      </trkpt>
      <trkpt lat="39.7834510" lon="-6.3820640">
        <ele>357.8</ele>
        <time>2021-10-17T07:16:16Z</time>
      </trkpt>
      <trkpt lat="39.7834220" lon="-6.3821910">
        <ele>357.6</ele>
        <time>2021-10-17T07:16:18Z</time>
      </trkpt>
      <trkpt lat="39.7834010" lon="-6.3822500">
        <ele>357.6</ele>
        <time>2021-10-17T07:16:19Z</time>
      </trkpt>
      <trkpt lat="39.7833290" lon="-6.3824190">
        <ele>356.8</ele>
        <time>2021-10-17T07:16:22Z</time>
      </trkpt>
      <trkpt lat="39.7831380" lon="-6.3828520">
        <ele>356.6</ele>
        <time>2021-10-17T07:16:30Z</time>
      </trkpt>
      <trkpt lat="39.7831200" lon="-6.3829010">
        <ele>356.6</ele>
        <time>2021-10-17T07:16:31Z</time>
      </trkpt>
      <trkpt lat="39.7830480" lon="-6.3830940">
        <ele>356.6</ele>
        <time>2021-10-17T07:16:35Z</time>
      </trkpt>
      <trkpt lat="39.7829870" lon="-6.3832750">
        <ele>356.6</ele>
        <time>2021-10-17T07:16:40Z</time>
      </trkpt>
      <trkpt lat="39.7829580" lon="-6.3833400">
        <ele>356.6</ele>
        <time>2021-10-17T07:16:45Z</time>
      </trkpt>
      <trkpt lat="39.7828710" lon="-6.3834160">
        <ele>356.6</ele>
        <time>2021-10-17T07:16:50Z</time>
      </trkpt>
      <trkpt lat="39.7828600" lon="-6.3834410">
        <ele>356.4</ele>
        <time>2021-10-17T07:16:51Z</time>
      </trkpt>
      <trkpt lat="39.7827940" lon="-6.3835450">
        <ele>355.8</ele>
        <time>2021-10-17T07:16:56Z</time>
      </trkpt>
      <trkpt lat="39.7826610" lon="-6.3836990">
        <ele>355.0</ele>
        <time>2021-10-17T07:17:00Z</time>
      </trkpt>
      <trkpt lat="39.7825770" lon="-6.3837720">
        <ele>354.4</ele>
        <time>2021-10-17T07:17:02Z</time>
      </trkpt>
      <trkpt lat="39.7825440" lon="-6.3838090">
        <ele>353.8</ele>
        <time>2021-10-17T07:17:03Z</time>
      </trkpt>
      <trkpt lat="39.7825140" lon="-6.3838540">
        <ele>353.2</ele>
        <time>2021-10-17T07:17:05Z</time>
      </trkpt>
      <trkpt lat="39.7825140" lon="-6.3838540">
        <ele>352.8</ele>
        <time>2021-10-17T07:17:07Z</time>
      </trkpt>
      <trkpt lat="39.7824940" lon="-6.3838800">
        <ele>352.4</ele>
        <time>2021-10-17T07:18:00Z</time>
      </trkpt>
      <trkpt lat="39.7824720" lon="-6.3839100">
        <ele>352.4</ele>
        <time>2021-10-17T07:18:01Z</time>
      </trkpt>
      <trkpt lat="39.7823710" lon="-6.3840200">
        <ele>352.2</ele>
        <time>2021-10-17T07:18:04Z</time>
      </trkpt>
      <trkpt lat="39.7822400" lon="-6.3841360">
        <ele>352.0</ele>
        <time>2021-10-17T07:18:08Z</time>
      </trkpt>
      <trkpt lat="39.7821640" lon="-6.3841700">
        <ele>352.0</ele>
        <time>2021-10-17T07:18:10Z</time>
      </trkpt>
      <trkpt lat="39.7820240" lon="-6.3842160">
        <ele>351.8</ele>
        <time>2021-10-17T07:18:13Z</time>
      </trkpt>
      <trkpt lat="39.7819370" lon="-6.3842920">
        <ele>351.6</ele>
        <time>2021-10-17T07:18:15Z</time>
      </trkpt>
      <trkpt lat="39.7819010" lon="-6.3843480">
        <ele>351.6</ele>
        <time>2021-10-17T07:18:16Z</time>
      </trkpt>
      <trkpt lat="39.7818720" lon="-6.3844120">
        <ele>351.6</ele>
        <time>2021-10-17T07:18:17Z</time>
      </trkpt>
      <trkpt lat="39.7818250" lon="-6.3846070">
        <ele>350.6</ele>
        <time>2021-10-17T07:18:20Z</time>
      </trkpt>
      <trkpt lat="39.7818050" lon="-6.3847330">
        <ele>349.6</ele>
        <time>2021-10-17T07:18:22Z</time>
      </trkpt>
      <trkpt lat="39.7817990" lon="-6.3848670">
        <ele>348.2</ele>
        <time>2021-10-17T07:18:24Z</time>
      </trkpt>
      <trkpt lat="39.7817950" lon="-6.3849320">
        <ele>347.8</ele>
        <time>2021-10-17T07:18:25Z</time>
      </trkpt>
      <trkpt lat="39.7817860" lon="-6.3849950">
        <ele>347.6</ele>
        <time>2021-10-17T07:18:26Z</time>
      </trkpt>
      <trkpt lat="39.7817520" lon="-6.3851250">
        <ele>346.8</ele>
        <time>2021-10-17T07:18:28Z</time>
      </trkpt>
      <trkpt lat="39.7817130" lon="-6.3852630">
        <ele>346.2</ele>
        <time>2021-10-17T07:18:30Z</time>
      </trkpt>
      <trkpt lat="39.7816990" lon="-6.3853340">
        <ele>345.8</ele>
        <time>2021-10-17T07:18:31Z</time>
      </trkpt>
      <trkpt lat="39.7816410" lon="-6.3855950">
        <ele>343.8</ele>
        <time>2021-10-17T07:18:35Z</time>
      </trkpt>
      <trkpt lat="39.7816230" lon="-6.3856600">
        <ele>343.2</ele>
        <time>2021-10-17T07:18:36Z</time>
      </trkpt>
      <trkpt lat="39.7816040" lon="-6.3857270">
        <ele>342.2</ele>
        <time>2021-10-17T07:18:37Z</time>
      </trkpt>
      <trkpt lat="39.7815630" lon="-6.3858690">
        <ele>340.8</ele>
        <time>2021-10-17T07:18:39Z</time>
      </trkpt>
      <trkpt lat="39.7815070" lon="-6.3860770">
        <ele>339.0</ele>
        <time>2021-10-17T07:18:42Z</time>
      </trkpt>
      <trkpt lat="39.7814800" lon="-6.3862160">
        <ele>338.0</ele>
        <time>2021-10-17T07:18:44Z</time>
      </trkpt>
      <trkpt lat="39.7814560" lon="-6.3863690">
        <ele>336.8</ele>
        <time>2021-10-17T07:18:46Z</time>
      </trkpt>
      <trkpt lat="39.7814410" lon="-6.3865040">
        <ele>335.0</ele>
        <time>2021-10-17T07:18:48Z</time>
      </trkpt>
      <trkpt lat="39.7814150" lon="-6.3866310">
        <ele>333.6</ele>
        <time>2021-10-17T07:18:50Z</time>
      </trkpt>
      <trkpt lat="39.7814060" lon="-6.3866960">
        <ele>332.6</ele>
        <time>2021-10-17T07:18:51Z</time>
      </trkpt>
      <trkpt lat="39.7813990" lon="-6.3867630">
        <ele>332.2</ele>
        <time>2021-10-17T07:18:52Z</time>
      </trkpt>
      <trkpt lat="39.7813860" lon="-6.3868320">
        <ele>331.6</ele>
        <time>2021-10-17T07:18:53Z</time>
      </trkpt>
      <trkpt lat="39.7813420" lon="-6.3869770">
        <ele>330.4</ele>
        <time>2021-10-17T07:18:55Z</time>
      </trkpt>
      <trkpt lat="39.7812930" lon="-6.3871280">
        <ele>328.4</ele>
        <time>2021-10-17T07:18:57Z</time>
      </trkpt>
      <trkpt lat="39.7812520" lon="-6.3872730">
        <ele>326.8</ele>
        <time>2021-10-17T07:18:59Z</time>
      </trkpt>
      <trkpt lat="39.7812260" lon="-6.3873760">
        <ele>325.6</ele>
        <time>2021-10-17T07:19:01Z</time>
      </trkpt>
      <trkpt lat="39.7812040" lon="-6.3874350">
        <ele>324.8</ele>
        <time>2021-10-17T07:19:03Z</time>
      </trkpt>
      <trkpt lat="39.7811870" lon="-6.3874470">
        <ele>324.2</ele>
        <time>2021-10-17T07:19:04Z</time>
      </trkpt>
      <trkpt lat="39.7811330" lon="-6.3874730">
        <ele>323.2</ele>
        <time>2021-10-17T07:19:07Z</time>
      </trkpt>
      <trkpt lat="39.7810920" lon="-6.3875000">
        <ele>322.4</ele>
        <time>2021-10-17T07:19:11Z</time>
      </trkpt>
      <trkpt lat="39.7811930" lon="-6.3875300">
        <ele>322.4</ele>
        <time>2021-10-17T07:20:19Z</time>
      </trkpt>
      <trkpt lat="39.7811840" lon="-6.3875950">
        <ele>322.4</ele>
        <time>2021-10-17T07:20:22Z</time>
      </trkpt>
      <trkpt lat="39.7811410" lon="-6.3877510">
        <ele>323.0</ele>
        <time>2021-10-17T07:20:29Z</time>
      </trkpt>
      <trkpt lat="39.7811380" lon="-6.3878270">
        <ele>324.0</ele>
        <time>2021-10-17T07:20:33Z</time>
      </trkpt>
      <trkpt lat="39.7811340" lon="-6.3878650">
        <ele>324.8</ele>
        <time>2021-10-17T07:20:35Z</time>
      </trkpt>
      <trkpt lat="39.7811270" lon="-6.3879030">
        <ele>325.2</ele>
        <time>2021-10-17T07:20:37Z</time>
      </trkpt>
      <trkpt lat="39.7811170" lon="-6.3880000">
        <ele>326.0</ele>
        <time>2021-10-17T07:20:42Z</time>
      </trkpt>
      <trkpt lat="39.7811120" lon="-6.3880190">
        <ele>326.2</ele>
        <time>2021-10-17T07:20:43Z</time>
      </trkpt>
      <trkpt lat="39.7810910" lon="-6.3880830">
        <ele>326.6</ele>
        <time>2021-10-17T07:20:46Z</time>
      </trkpt>
      <trkpt lat="39.7810700" lon="-6.3881300">
        <ele>327.0</ele>
        <time>2021-10-17T07:20:49Z</time>
      </trkpt>
      <trkpt lat="39.7810520" lon="-6.3881550">
        <ele>327.2</ele>
        <time>2021-10-17T07:20:51Z</time>
      </trkpt>
      <trkpt lat="39.7810400" lon="-6.3881700">
        <ele>327.4</ele>
        <time>2021-10-17T07:20:52Z</time>
      </trkpt>
      <trkpt lat="39.7809950" lon="-6.3882260">
        <ele>327.4</ele>
        <time>2021-10-17T07:20:55Z</time>
      </trkpt>
      <trkpt lat="39.7809640" lon="-6.3882910">
        <ele>327.6</ele>
        <time>2021-10-17T07:20:57Z</time>
      </trkpt>
      <trkpt lat="39.7809250" lon="-6.3884280">
        <ele>327.4</ele>
        <time>2021-10-17T07:21:00Z</time>
      </trkpt>
      <trkpt lat="39.7808970" lon="-6.3885440">
        <ele>327.0</ele>
        <time>2021-10-17T07:21:02Z</time>
      </trkpt>
      <trkpt lat="39.7808770" lon="-6.3886000">
        <ele>326.6</ele>
        <time>2021-10-17T07:21:03Z</time>
      </trkpt>
      <trkpt lat="39.7808170" lon="-6.3886990">
        <ele>326.2</ele>
        <time>2021-10-17T07:21:05Z</time>
      </trkpt>
      <trkpt lat="39.7807820" lon="-6.3887390">
        <ele>326.0</ele>
        <time>2021-10-17T07:21:06Z</time>
      </trkpt>
      <trkpt lat="39.7807100" lon="-6.3888230">
        <ele>325.4</ele>
        <time>2021-10-17T07:21:08Z</time>
      </trkpt>
      <trkpt lat="39.7806420" lon="-6.3888990">
        <ele>325.0</ele>
        <time>2021-10-17T07:21:10Z</time>
      </trkpt>
      <trkpt lat="39.7805840" lon="-6.3889840">
        <ele>324.6</ele>
        <time>2021-10-17T07:21:12Z</time>
      </trkpt>
      <trkpt lat="39.7805600" lon="-6.3890310">
        <ele>324.6</ele>
        <time>2021-10-17T07:21:13Z</time>
      </trkpt>
      <trkpt lat="39.7804880" lon="-6.3892390">
        <ele>323.8</ele>
        <time>2021-10-17T07:21:17Z</time>
      </trkpt>
      <trkpt lat="39.7803950" lon="-6.3894830">
        <ele>323.0</ele>
        <time>2021-10-17T07:21:22Z</time>
      </trkpt>
      <trkpt lat="39.7802930" lon="-6.3897180">
        <ele>322.6</ele>
        <time>2021-10-17T07:21:28Z</time>
      </trkpt>
      <trkpt lat="39.7802340" lon="-6.3898670">
        <ele>322.6</ele>
        <time>2021-10-17T07:21:33Z</time>
      </trkpt>
      <trkpt lat="39.7801690" lon="-6.3899850">
        <ele>322.8</ele>
        <time>2021-10-17T07:21:37Z</time>
      </trkpt>
      <trkpt lat="39.7801150" lon="-6.3900960">
        <ele>322.8</ele>
        <time>2021-10-17T07:21:40Z</time>
      </trkpt>
      <trkpt lat="39.7800500" lon="-6.3902420">
        <ele>322.8</ele>
        <time>2021-10-17T07:21:44Z</time>
      </trkpt>
      <trkpt lat="39.7799980" lon="-6.3903900">
        <ele>323.0</ele>
        <time>2021-10-17T07:21:48Z</time>
      </trkpt>
      <trkpt lat="39.7799310" lon="-6.3905610">
        <ele>323.4</ele>
        <time>2021-10-17T07:21:53Z</time>
      </trkpt>
      <trkpt lat="39.7798530" lon="-6.3908490">
        <ele>324.0</ele>
        <time>2021-10-17T07:22:00Z</time>
      </trkpt>
      <trkpt lat="39.7798390" lon="-6.3908970">
        <ele>324.0</ele>
        <time>2021-10-17T07:22:01Z</time>
      </trkpt>
      <trkpt lat="39.7797550" lon="-6.3911330">
        <ele>323.8</ele>
        <time>2021-10-17T07:22:06Z</time>
      </trkpt>
      <trkpt lat="39.7797060" lon="-6.3912670">
        <ele>323.6</ele>
        <time>2021-10-17T07:22:09Z</time>
      </trkpt>
      <trkpt lat="39.7796530" lon="-6.3914350">
        <ele>323.4</ele>
        <time>2021-10-17T07:22:13Z</time>
      </trkpt>
      <trkpt lat="39.7796380" lon="-6.3914750">
        <ele>323.4</ele>
        <time>2021-10-17T07:22:14Z</time>
      </trkpt>
      <trkpt lat="39.7796090" lon="-6.3915540">
        <ele>323.4</ele>
        <time>2021-10-17T07:22:16Z</time>
      </trkpt>
      <trkpt lat="39.7794900" lon="-6.3917440">
        <ele>323.4</ele>
        <time>2021-10-17T07:22:22Z</time>
      </trkpt>
      <trkpt lat="39.7794700" lon="-6.3917730">
        <ele>323.4</ele>
        <time>2021-10-17T07:22:23Z</time>
      </trkpt>
      <trkpt lat="39.7793940" lon="-6.3918850">
        <ele>323.4</ele>
        <time>2021-10-17T07:22:27Z</time>
      </trkpt>
      <trkpt lat="39.7793610" lon="-6.3919770">
        <ele>323.6</ele>
        <time>2021-10-17T07:22:30Z</time>
      </trkpt>
      <trkpt lat="39.7792620" lon="-6.3921790">
        <ele>324.2</ele>
        <time>2021-10-17T07:22:37Z</time>
      </trkpt>
      <trkpt lat="39.7792180" lon="-6.3923010">
        <ele>324.4</ele>
        <time>2021-10-17T07:22:40Z</time>
      </trkpt>
      <trkpt lat="39.7791620" lon="-6.3924560">
        <ele>324.2</ele>
        <time>2021-10-17T07:22:43Z</time>
      </trkpt>
      <trkpt lat="39.7791190" lon="-6.3925720">
        <ele>323.8</ele>
        <time>2021-10-17T07:22:45Z</time>
      </trkpt>
      <trkpt lat="39.7790710" lon="-6.3926840">
        <ele>323.4</ele>
        <time>2021-10-17T07:22:47Z</time>
      </trkpt>
      <trkpt lat="39.7790250" lon="-6.3927910">
        <ele>322.8</ele>
        <time>2021-10-17T07:22:49Z</time>
      </trkpt>
      <trkpt lat="39.7789520" lon="-6.3929570">
        <ele>322.2</ele>
        <time>2021-10-17T07:22:52Z</time>
      </trkpt>
      <trkpt lat="39.7789020" lon="-6.3930760">
        <ele>322.0</ele>
        <time>2021-10-17T07:22:55Z</time>
      </trkpt>
      <trkpt lat="39.7788340" lon="-6.3932640">
        <ele>322.6</ele>
        <time>2021-10-17T07:23:01Z</time>
      </trkpt>
      <trkpt lat="39.7787740" lon="-6.3934390">
        <ele>323.8</ele>
        <time>2021-10-17T07:23:08Z</time>
      </trkpt>
      <trkpt lat="39.7787580" lon="-6.3934590">
        <ele>324.0</ele>
        <time>2021-10-17T07:23:09Z</time>
      </trkpt>
      <trkpt lat="39.7786940" lon="-6.3935640">
        <ele>325.0</ele>
        <time>2021-10-17T07:23:14Z</time>
      </trkpt>
      <trkpt lat="39.7786570" lon="-6.3936050">
        <ele>325.2</ele>
        <time>2021-10-17T07:23:16Z</time>
      </trkpt>
      <trkpt lat="39.7785970" lon="-6.3936650">
        <ele>325.4</ele>
        <time>2021-10-17T07:23:19Z</time>
      </trkpt>
      <trkpt lat="39.7785410" lon="-6.3937340">
        <ele>325.4</ele>
        <time>2021-10-17T07:23:22Z</time>
      </trkpt>
      <trkpt lat="39.7785270" lon="-6.3937630">
        <ele>325.4</ele>
        <time>2021-10-17T07:23:23Z</time>
      </trkpt>
      <trkpt lat="39.7784420" lon="-6.3940220">
        <ele>325.2</ele>
        <time>2021-10-17T07:23:29Z</time>
      </trkpt>
      <trkpt lat="39.7783780" lon="-6.3941960">
        <ele>324.0</ele>
        <time>2021-10-17T07:23:32Z</time>
      </trkpt>
      <trkpt lat="39.7783520" lon="-6.3942570">
        <ele>323.8</ele>
        <time>2021-10-17T07:23:33Z</time>
      </trkpt>
      <trkpt lat="39.7782580" lon="-6.3944030">
        <ele>322.8</ele>
        <time>2021-10-17T07:23:36Z</time>
      </trkpt>
      <trkpt lat="39.7782150" lon="-6.3944630">
        <ele>322.4</ele>
        <time>2021-10-17T07:23:38Z</time>
      </trkpt>
      <trkpt lat="39.7781930" lon="-6.3944900">
        <ele>321.6</ele>
        <time>2021-10-17T07:23:40Z</time>
      </trkpt>
      <trkpt lat="39.7781790" lon="-6.3945190">
        <ele>320.8</ele>
        <time>2021-10-17T07:23:42Z</time>
      </trkpt>
      <trkpt lat="39.7781700" lon="-6.3945380">
        <ele>320.4</ele>
        <time>2021-10-17T07:23:43Z</time>
      </trkpt>
      <trkpt lat="39.7780790" lon="-6.3946820">
        <ele>320.0</ele>
        <time>2021-10-17T07:23:48Z</time>
      </trkpt>
      <trkpt lat="39.7780280" lon="-6.3948240">
        <ele>319.8</ele>
        <time>2021-10-17T07:23:51Z</time>
      </trkpt>
      <trkpt lat="39.7779970" lon="-6.3949170">
        <ele>319.6</ele>
        <time>2021-10-17T07:23:53Z</time>
      </trkpt>
      <trkpt lat="39.7779180" lon="-6.3950320">
        <ele>319.4</ele>
        <time>2021-10-17T07:23:56Z</time>
      </trkpt>
      <trkpt lat="39.7778560" lon="-6.3951050">
        <ele>319.4</ele>
        <time>2021-10-17T07:23:58Z</time>
      </trkpt>
      <trkpt lat="39.7777670" lon="-6.3951800">
        <ele>319.4</ele>
        <time>2021-10-17T07:24:01Z</time>
      </trkpt>
      <trkpt lat="39.7777020" lon="-6.3952030">
        <ele>319.2</ele>
        <time>2021-10-17T07:24:03Z</time>
      </trkpt>
      <trkpt lat="39.7775340" lon="-6.3951840">
        <ele>319.0</ele>
        <time>2021-10-17T07:24:07Z</time>
      </trkpt>
      <trkpt lat="39.7774810" lon="-6.3951690">
        <ele>319.0</ele>
        <time>2021-10-17T07:24:08Z</time>
      </trkpt>
      <trkpt lat="39.7772620" lon="-6.3951370">
        <ele>318.2</ele>
        <time>2021-10-17T07:24:12Z</time>
      </trkpt>
      <trkpt lat="39.7771150" lon="-6.3951070">
        <ele>317.4</ele>
        <time>2021-10-17T07:24:15Z</time>
      </trkpt>
      <trkpt lat="39.7770710" lon="-6.3950880">
        <ele>317.0</ele>
        <time>2021-10-17T07:24:16Z</time>
      </trkpt>
      <trkpt lat="39.7770300" lon="-6.3950610">
        <ele>317.0</ele>
        <time>2021-10-17T07:24:17Z</time>
      </trkpt>
      <trkpt lat="39.7769910" lon="-6.3950360">
        <ele>316.8</ele>
        <time>2021-10-17T07:24:18Z</time>
      </trkpt>
      <trkpt lat="39.7768210" lon="-6.3949710">
        <ele>316.6</ele>
        <time>2021-10-17T07:24:22Z</time>
      </trkpt>
      <trkpt lat="39.7766540" lon="-6.3948980">
        <ele>316.4</ele>
        <time>2021-10-17T07:24:26Z</time>
      </trkpt>
      <trkpt lat="39.7765650" lon="-6.3948750">
        <ele>316.2</ele>
        <time>2021-10-17T07:24:28Z</time>
      </trkpt>
      <trkpt lat="39.7765220" lon="-6.3948600">
        <ele>316.2</ele>
        <time>2021-10-17T07:24:29Z</time>
      </trkpt>
      <trkpt lat="39.7764810" lon="-6.3948480">
        <ele>316.0</ele>
        <time>2021-10-17T07:24:30Z</time>
      </trkpt>
      <trkpt lat="39.7763970" lon="-6.3948310">
        <ele>316.0</ele>
        <time>2021-10-17T07:24:33Z</time>
      </trkpt>
      <trkpt lat="39.7762700" lon="-6.3948190">
        <ele>315.8</ele>
        <time>2021-10-17T07:24:38Z</time>
      </trkpt>
      <trkpt lat="39.7762050" lon="-6.3947900">
        <ele>315.8</ele>
        <time>2021-10-17T07:24:40Z</time>
      </trkpt>
      <trkpt lat="39.7759760" lon="-6.3947540">
        <ele>315.6</ele>
        <time>2021-10-17T07:24:46Z</time>
      </trkpt>
      <trkpt lat="39.7758940" lon="-6.3947890">
        <ele>315.2</ele>
        <time>2021-10-17T07:24:48Z</time>
      </trkpt>
      <trkpt lat="39.7758530" lon="-6.3948160">
        <ele>314.8</ele>
        <time>2021-10-17T07:24:49Z</time>
      </trkpt>
      <trkpt lat="39.7758110" lon="-6.3948470">
        <ele>314.8</ele>
        <time>2021-10-17T07:24:50Z</time>
      </trkpt>
      <trkpt lat="39.7757360" lon="-6.3949290">
        <ele>314.2</ele>
        <time>2021-10-17T07:24:52Z</time>
      </trkpt>
      <trkpt lat="39.7756670" lon="-6.3950140">
        <ele>313.6</ele>
        <time>2021-10-17T07:24:54Z</time>
      </trkpt>
      <trkpt lat="39.7756260" lon="-6.3950460">
        <ele>313.4</ele>
        <time>2021-10-17T07:24:55Z</time>
      </trkpt>
      <trkpt lat="39.7755850" lon="-6.3950670">
        <ele>313.0</ele>
        <time>2021-10-17T07:24:56Z</time>
      </trkpt>
      <trkpt lat="39.7754210" lon="-6.3951260">
        <ele>312.6</ele>
        <time>2021-10-17T07:25:00Z</time>
      </trkpt>
      <trkpt lat="39.7753850" lon="-6.3951440">
        <ele>312.4</ele>
        <time>2021-10-17T07:25:01Z</time>
      </trkpt>
      <trkpt lat="39.7751990" lon="-6.3952610">
        <ele>312.8</ele>
        <time>2021-10-17T07:25:07Z</time>
      </trkpt>
      <trkpt lat="39.7750300" lon="-6.3953680">
        <ele>313.6</ele>
        <time>2021-10-17T07:25:13Z</time>
      </trkpt>
      <trkpt lat="39.7749730" lon="-6.3954040">
        <ele>314.0</ele>
        <time>2021-10-17T07:25:15Z</time>
      </trkpt>
      <trkpt lat="39.7748540" lon="-6.3955040">
        <ele>314.4</ele>
        <time>2021-10-17T07:25:19Z</time>
      </trkpt>
      <trkpt lat="39.7747600" lon="-6.3955810">
        <ele>314.4</ele>
        <time>2021-10-17T07:25:22Z</time>
      </trkpt>
      <trkpt lat="39.7746910" lon="-6.3956280">
        <ele>314.4</ele>
        <time>2021-10-17T07:25:24Z</time>
      </trkpt>
      <trkpt lat="39.7744300" lon="-6.3958250">
        <ele>314.8</ele>
        <time>2021-10-17T07:25:33Z</time>
      </trkpt>
      <trkpt lat="39.7742840" lon="-6.3959490">
        <ele>314.8</ele>
        <time>2021-10-17T07:25:38Z</time>
      </trkpt>
      <trkpt lat="39.7742550" lon="-6.3959800">
        <ele>314.8</ele>
        <time>2021-10-17T07:25:39Z</time>
      </trkpt>
      <trkpt lat="39.7740970" lon="-6.3962610">
        <ele>314.8</ele>
        <time>2021-10-17T07:25:46Z</time>
      </trkpt>
      <trkpt lat="39.7739950" lon="-6.3966350">
        <ele>315.6</ele>
        <time>2021-10-17T07:25:55Z</time>
      </trkpt>
      <trkpt lat="39.7739800" lon="-6.3966790">
        <ele>315.8</ele>
        <time>2021-10-17T07:25:56Z</time>
      </trkpt>
      <trkpt lat="39.7738820" lon="-6.3968230">
        <ele>316.2</ele>
        <time>2021-10-17T07:26:00Z</time>
      </trkpt>
      <trkpt lat="39.7738030" lon="-6.3969090">
        <ele>316.2</ele>
        <time>2021-10-17T07:26:03Z</time>
      </trkpt>
      <trkpt lat="39.7737090" lon="-6.3969910">
        <ele>316.4</ele>
        <time>2021-10-17T07:26:07Z</time>
      </trkpt>
      <trkpt lat="39.7736080" lon="-6.3970650">
        <ele>317.0</ele>
        <time>2021-10-17T07:26:12Z</time>
      </trkpt>
      <trkpt lat="39.7735920" lon="-6.3970790">
        <ele>317.4</ele>
        <time>2021-10-17T07:26:13Z</time>
      </trkpt>
      <trkpt lat="39.7735150" lon="-6.3971270">
        <ele>318.2</ele>
        <time>2021-10-17T07:26:17Z</time>
      </trkpt>
      <trkpt lat="39.7734780" lon="-6.3971420">
        <ele>318.6</ele>
        <time>2021-10-17T07:26:19Z</time>
      </trkpt>
      <trkpt lat="39.7733990" lon="-6.3971810">
        <ele>319.2</ele>
        <time>2021-10-17T07:26:23Z</time>
      </trkpt>
      <trkpt lat="39.7733590" lon="-6.3972060">
        <ele>319.4</ele>
        <time>2021-10-17T07:26:25Z</time>
      </trkpt>
      <trkpt lat="39.7733200" lon="-6.3972500">
        <ele>319.6</ele>
        <time>2021-10-17T07:26:27Z</time>
      </trkpt>
      <trkpt lat="39.7732450" lon="-6.3973470">
        <ele>320.2</ele>
        <time>2021-10-17T07:26:31Z</time>
      </trkpt>
      <trkpt lat="39.7731950" lon="-6.3974170">
        <ele>320.4</ele>
        <time>2021-10-17T07:26:34Z</time>
      </trkpt>
      <trkpt lat="39.7731870" lon="-6.3976000">
        <ele>320.6</ele>
        <time>2021-10-17T07:26:40Z</time>
      </trkpt>
      <trkpt lat="39.7732470" lon="-6.3978090">
        <ele>321.0</ele>
        <time>2021-10-17T07:26:47Z</time>
      </trkpt>
      <trkpt lat="39.7732690" lon="-6.3978870">
        <ele>321.2</ele>
        <time>2021-10-17T07:26:50Z</time>
      </trkpt>
      <trkpt lat="39.7732800" lon="-6.3979450">
        <ele>321.6</ele>
        <time>2021-10-17T07:26:52Z</time>
      </trkpt>
      <trkpt lat="39.7732700" lon="-6.3980850">
        <ele>322.4</ele>
        <time>2021-10-17T07:26:57Z</time>
      </trkpt>
      <trkpt lat="39.7731930" lon="-6.3981690">
        <ele>323.0</ele>
        <time>2021-10-17T07:27:02Z</time>
      </trkpt>
      <trkpt lat="39.7731530" lon="-6.3981820">
        <ele>323.4</ele>
        <time>2021-10-17T07:27:04Z</time>
      </trkpt>
      <trkpt lat="39.7730780" lon="-6.3982040">
        <ele>323.8</ele>
        <time>2021-10-17T07:27:08Z</time>
      </trkpt>
      <trkpt lat="39.7730280" lon="-6.3982320">
        <ele>324.6</ele>
        <time>2021-10-17T07:27:11Z</time>
      </trkpt>
      <trkpt lat="39.7729560" lon="-6.3982720">
        <ele>325.6</ele>
        <time>2021-10-17T07:27:16Z</time>
      </trkpt>
      <trkpt lat="39.7728910" lon="-6.3983050">
        <ele>326.0</ele>
        <time>2021-10-17T07:27:20Z</time>
      </trkpt>
      <trkpt lat="39.7728000" lon="-6.3983610">
        <ele>326.6</ele>
        <time>2021-10-17T07:27:25Z</time>
      </trkpt>
      <trkpt lat="39.7727470" lon="-6.3983980">
        <ele>326.6</ele>
        <time>2021-10-17T07:27:28Z</time>
      </trkpt>
      <trkpt lat="39.7727110" lon="-6.3984250">
        <ele>327.0</ele>
        <time>2021-10-17T07:27:30Z</time>
      </trkpt>
      <trkpt lat="39.7726960" lon="-6.3984390">
        <ele>327.2</ele>
        <time>2021-10-17T07:27:31Z</time>
      </trkpt>
      <trkpt lat="39.7726500" lon="-6.3984890">
        <ele>327.4</ele>
        <time>2021-10-17T07:27:34Z</time>
      </trkpt>
      <trkpt lat="39.7726070" lon="-6.3985220">
        <ele>327.6</ele>
        <time>2021-10-17T07:27:37Z</time>
      </trkpt>
      <trkpt lat="39.7726030" lon="-6.3985230">
        <ele>327.6</ele>
        <time>2021-10-17T07:27:39Z</time>
      </trkpt>
      <trkpt lat="39.7726030" lon="-6.3985230">
        <ele>327.8</ele>
        <time>2021-10-17T07:27:40Z</time>
      </trkpt>
      <trkpt lat="39.7725720" lon="-6.3985780">
        <ele>328.0</ele>
        <time>2021-10-17T07:28:27Z</time>
      </trkpt>
      <trkpt lat="39.7725620" lon="-6.3985970">
        <ele>328.0</ele>
        <time>2021-10-17T07:28:28Z</time>
      </trkpt>
      <trkpt lat="39.7725460" lon="-6.3986270">
        <ele>328.0</ele>
        <time>2021-10-17T07:28:29Z</time>
      </trkpt>
      <trkpt lat="39.7724720" lon="-6.3988140">
        <ele>328.2</ele>
        <time>2021-10-17T07:28:36Z</time>
      </trkpt>
      <trkpt lat="39.7723550" lon="-6.3989480">
        <ele>328.6</ele>
        <time>2021-10-17T07:28:43Z</time>
      </trkpt>
      <trkpt lat="39.7723140" lon="-6.3989870">
        <ele>328.8</ele>
        <time>2021-10-17T07:28:45Z</time>
      </trkpt>
      <trkpt lat="39.7721950" lon="-6.3991170">
        <ele>328.8</ele>
        <time>2021-10-17T07:28:51Z</time>
      </trkpt>
      <trkpt lat="39.7721130" lon="-6.3992260">
        <ele>329.2</ele>
        <time>2021-10-17T07:28:55Z</time>
      </trkpt>
      <trkpt lat="39.7720540" lon="-6.3993580">
        <ele>329.6</ele>
        <time>2021-10-17T07:28:59Z</time>
      </trkpt>
      <trkpt lat="39.7720230" lon="-6.3995060">
        <ele>329.8</ele>
        <time>2021-10-17T07:29:03Z</time>
      </trkpt>
      <trkpt lat="39.7720240" lon="-6.3996500">
        <ele>330.0</ele>
        <time>2021-10-17T07:29:07Z</time>
      </trkpt>
      <trkpt lat="39.7720520" lon="-6.3998520">
        <ele>330.6</ele>
        <time>2021-10-17T07:29:14Z</time>
      </trkpt>
      <trkpt lat="39.7720520" lon="-6.3998800">
        <ele>330.8</ele>
        <time>2021-10-17T07:29:15Z</time>
      </trkpt>
      <trkpt lat="39.7720540" lon="-6.3999290">
        <ele>331.6</ele>
        <time>2021-10-17T07:29:17Z</time>
      </trkpt>
      <trkpt lat="39.7720480" lon="-6.3999800">
        <ele>332.0</ele>
        <time>2021-10-17T07:29:19Z</time>
      </trkpt>
      <trkpt lat="39.7720380" lon="-6.4000310">
        <ele>332.0</ele>
        <time>2021-10-17T07:29:21Z</time>
      </trkpt>
      <trkpt lat="39.7720350" lon="-6.4000630">
        <ele>332.2</ele>
        <time>2021-10-17T07:29:22Z</time>
      </trkpt>
      <trkpt lat="39.7720080" lon="-6.4003160">
        <ele>332.8</ele>
        <time>2021-10-17T07:29:29Z</time>
      </trkpt>
      <trkpt lat="39.7720040" lon="-6.4003610">
        <ele>332.8</ele>
        <time>2021-10-17T07:29:30Z</time>
      </trkpt>
      <trkpt lat="39.7719910" lon="-6.4005100">
        <ele>332.8</ele>
        <time>2021-10-17T07:29:33Z</time>
      </trkpt>
      <trkpt lat="39.7719800" lon="-6.4006630">
        <ele>332.6</ele>
        <time>2021-10-17T07:29:36Z</time>
      </trkpt>
      <trkpt lat="39.7719640" lon="-6.4008250">
        <ele>332.2</ele>
        <time>2021-10-17T07:29:39Z</time>
      </trkpt>
      <trkpt lat="39.7719070" lon="-6.4009900">
        <ele>332.2</ele>
        <time>2021-10-17T07:29:43Z</time>
      </trkpt>
      <trkpt lat="39.7717500" lon="-6.4012170">
        <ele>332.2</ele>
        <time>2021-10-17T07:29:50Z</time>
      </trkpt>
      <trkpt lat="39.7716160" lon="-6.4013650">
        <ele>332.4</ele>
        <time>2021-10-17T07:29:56Z</time>
      </trkpt>
      <trkpt lat="39.7715490" lon="-6.4014560">
        <ele>333.0</ele>
        <time>2021-10-17T07:30:00Z</time>
      </trkpt>
      <trkpt lat="39.7715090" lon="-6.4014770">
        <ele>333.2</ele>
        <time>2021-10-17T07:30:02Z</time>
      </trkpt>
      <trkpt lat="39.7714550" lon="-6.4015090">
        <ele>334.0</ele>
        <time>2021-10-17T07:30:06Z</time>
      </trkpt>
      <trkpt lat="39.7714240" lon="-6.4015200">
        <ele>334.0</ele>
        <time>2021-10-17T07:30:08Z</time>
      </trkpt>
      <trkpt lat="39.7713080" lon="-6.4015370">
        <ele>335.0</ele>
        <time>2021-10-17T07:30:15Z</time>
      </trkpt>
      <trkpt lat="39.7712910" lon="-6.4015440">
        <ele>335.0</ele>
        <time>2021-10-17T07:30:16Z</time>
      </trkpt>
      <trkpt lat="39.7712170" lon="-6.4015730">
        <ele>335.4</ele>
        <time>2021-10-17T07:30:20Z</time>
      </trkpt>
      <trkpt lat="39.7711820" lon="-6.4015830">
        <ele>335.8</ele>
        <time>2021-10-17T07:30:22Z</time>
      </trkpt>
      <trkpt lat="39.7711670" lon="-6.4015910">
        <ele>336.2</ele>
        <time>2021-10-17T07:30:23Z</time>
      </trkpt>
      <trkpt lat="39.7711430" lon="-6.4016150">
        <ele>336.4</ele>
        <time>2021-10-17T07:30:25Z</time>
      </trkpt>
      <trkpt lat="39.7710780" lon="-6.4016630">
        <ele>336.6</ele>
        <time>2021-10-17T07:30:29Z</time>
      </trkpt>
      <trkpt lat="39.7710660" lon="-6.4016810">
        <ele>336.8</ele>
        <time>2021-10-17T07:30:30Z</time>
      </trkpt>
      <trkpt lat="39.7710410" lon="-6.4017150">
        <ele>336.8</ele>
        <time>2021-10-17T07:30:32Z</time>
      </trkpt>
      <trkpt lat="39.7710000" lon="-6.4017490">
        <ele>337.4</ele>
        <time>2021-10-17T07:30:35Z</time>
      </trkpt>
      <trkpt lat="39.7709600" lon="-6.4017780">
        <ele>338.0</ele>
        <time>2021-10-17T07:30:39Z</time>
      </trkpt>
      <trkpt lat="39.7709140" lon="-6.4018040">
        <ele>338.2</ele>
        <time>2021-10-17T07:30:41Z</time>
      </trkpt>
      <trkpt lat="39.7708970" lon="-6.4018100">
        <ele>338.4</ele>
        <time>2021-10-17T07:30:42Z</time>
      </trkpt>
      <trkpt lat="39.7708600" lon="-6.4018130">
        <ele>338.6</ele>
        <time>2021-10-17T07:30:44Z</time>
      </trkpt>
      <trkpt lat="39.7708260" lon="-6.4018280">
        <ele>338.8</ele>
        <time>2021-10-17T07:30:46Z</time>
      </trkpt>
      <trkpt lat="39.7707890" lon="-6.4018540">
        <ele>339.0</ele>
        <time>2021-10-17T07:30:48Z</time>
      </trkpt>
      <trkpt lat="39.7707540" lon="-6.4018950">
        <ele>339.2</ele>
        <time>2021-10-17T07:30:51Z</time>
      </trkpt>
      <trkpt lat="39.7707410" lon="-6.4019070">
        <ele>339.4</ele>
        <time>2021-10-17T07:30:52Z</time>
      </trkpt>
      <trkpt lat="39.7707110" lon="-6.4019250">
        <ele>339.4</ele>
        <time>2021-10-17T07:30:55Z</time>
      </trkpt>
      <trkpt lat="39.7706430" lon="-6.4019390">
        <ele>339.6</ele>
        <time>2021-10-17T07:30:58Z</time>
      </trkpt>
      <trkpt lat="39.7705860" lon="-6.4019540">
        <ele>340.0</ele>
        <time>2021-10-17T07:31:01Z</time>
      </trkpt>
      <trkpt lat="39.7705120" lon="-6.4019780">
        <ele>340.4</ele>
        <time>2021-10-17T07:31:04Z</time>
      </trkpt>
      <trkpt lat="39.7704840" lon="-6.4019880">
        <ele>340.4</ele>
        <time>2021-10-17T07:31:05Z</time>
      </trkpt>
      <trkpt lat="39.7703410" lon="-6.4020350">
        <ele>340.4</ele>
        <time>2021-10-17T07:31:10Z</time>
      </trkpt>
      <trkpt lat="39.7702910" lon="-6.4020450">
        <ele>340.2</ele>
        <time>2021-10-17T07:31:12Z</time>
      </trkpt>
      <trkpt lat="39.7701290" lon="-6.4020830">
        <ele>340.4</ele>
        <time>2021-10-17T07:31:19Z</time>
      </trkpt>
      <trkpt lat="39.7699310" lon="-6.4020790">
        <ele>341.0</ele>
        <time>2021-10-17T07:31:27Z</time>
      </trkpt>
      <trkpt lat="39.7697390" lon="-6.4019670">
        <ele>341.0</ele>
        <time>2021-10-17T07:31:35Z</time>
      </trkpt>
      <trkpt lat="39.7696220" lon="-6.4018760">
        <ele>341.2</ele>
        <time>2021-10-17T07:31:40Z</time>
      </trkpt>
      <trkpt lat="39.7695980" lon="-6.4018660">
        <ele>341.6</ele>
        <time>2021-10-17T07:31:41Z</time>
      </trkpt>
      <trkpt lat="39.7695770" lon="-6.4018580">
        <ele>341.6</ele>
        <time>2021-10-17T07:31:42Z</time>
      </trkpt>
      <trkpt lat="39.7693920" lon="-6.4018200">
        <ele>342.4</ele>
        <time>2021-10-17T07:31:50Z</time>
      </trkpt>
      <trkpt lat="39.7693660" lon="-6.4018300">
        <ele>342.4</ele>
        <time>2021-10-17T07:31:51Z</time>
      </trkpt>
      <trkpt lat="39.7692800" lon="-6.4018530">
        <ele>342.8</ele>
        <time>2021-10-17T07:31:54Z</time>
      </trkpt>
      <trkpt lat="39.7691540" lon="-6.4018740">
        <ele>342.8</ele>
        <time>2021-10-17T07:31:59Z</time>
      </trkpt>
      <trkpt lat="39.7690130" lon="-6.4019440">
        <ele>343.0</ele>
        <time>2021-10-17T07:32:06Z</time>
      </trkpt>
      <trkpt lat="39.7688630" lon="-6.4020590">
        <ele>343.4</ele>
        <time>2021-10-17T07:32:11Z</time>
      </trkpt>
      <trkpt lat="39.7687420" lon="-6.4021780">
        <ele>343.6</ele>
        <time>2021-10-17T07:32:14Z</time>
      </trkpt>
      <trkpt lat="39.7687030" lon="-6.4022230">
        <ele>343.6</ele>
        <time>2021-10-17T07:32:15Z</time>
      </trkpt>
      <trkpt lat="39.7686650" lon="-6.4022740">
        <ele>343.6</ele>
        <time>2021-10-17T07:32:16Z</time>
      </trkpt>
      <trkpt lat="39.7686340" lon="-6.4023130">
        <ele>343.2</ele>
        <time>2021-10-17T07:32:17Z</time>
      </trkpt>
      <trkpt lat="39.7684940" lon="-6.4024440">
        <ele>342.2</ele>
        <time>2021-10-17T07:32:20Z</time>
      </trkpt>
      <trkpt lat="39.7684410" lon="-6.4024820">
        <ele>341.8</ele>
        <time>2021-10-17T07:32:21Z</time>
      </trkpt>
      <trkpt lat="39.7683330" lon="-6.4025370">
        <ele>341.2</ele>
        <time>2021-10-17T07:32:23Z</time>
      </trkpt>
      <trkpt lat="39.7682770" lon="-6.4025480">
        <ele>340.8</ele>
        <time>2021-10-17T07:32:24Z</time>
      </trkpt>
      <trkpt lat="39.7682240" lon="-6.4025460">
        <ele>340.2</ele>
        <time>2021-10-17T07:32:25Z</time>
      </trkpt>
      <trkpt lat="39.7680930" lon="-6.4025210">
        <ele>339.8</ele>
        <time>2021-10-17T07:32:28Z</time>
      </trkpt>
      <trkpt lat="39.7680520" lon="-6.4025190">
        <ele>339.8</ele>
        <time>2021-10-17T07:32:29Z</time>
      </trkpt>
      <trkpt lat="39.7679720" lon="-6.4025190">
        <ele>339.8</ele>
        <time>2021-10-17T07:32:31Z</time>
      </trkpt>
      <trkpt lat="39.7678760" lon="-6.4025140">
        <ele>340.0</ele>
        <time>2021-10-17T07:32:34Z</time>
      </trkpt>
      <trkpt lat="39.7677880" lon="-6.4025000">
        <ele>340.4</ele>
        <time>2021-10-17T07:32:37Z</time>
      </trkpt>
      <trkpt lat="39.7677270" lon="-6.4025080">
        <ele>340.4</ele>
        <time>2021-10-17T07:32:39Z</time>
      </trkpt>
      <trkpt lat="39.7676350" lon="-6.4025110">
        <ele>340.8</ele>
        <time>2021-10-17T07:32:42Z</time>
      </trkpt>
      <trkpt lat="39.7676060" lon="-6.4025080">
        <ele>340.8</ele>
        <time>2021-10-17T07:32:43Z</time>
      </trkpt>
      <trkpt lat="39.7674810" lon="-6.4025040">
        <ele>341.0</ele>
        <time>2021-10-17T07:32:47Z</time>
      </trkpt>
      <trkpt lat="39.7673110" lon="-6.4024930">
        <ele>341.2</ele>
        <time>2021-10-17T07:32:53Z</time>
      </trkpt>
      <trkpt lat="39.7672400" lon="-6.4025160">
        <ele>341.6</ele>
        <time>2021-10-17T07:32:56Z</time>
      </trkpt>
      <trkpt lat="39.7671900" lon="-6.4025360">
        <ele>342.0</ele>
        <time>2021-10-17T07:32:58Z</time>
      </trkpt>
      <trkpt lat="39.7671170" lon="-6.4025670">
        <ele>342.2</ele>
        <time>2021-10-17T07:33:00Z</time>
      </trkpt>
      <trkpt lat="39.7670320" lon="-6.4026160">
        <ele>342.2</ele>
        <time>2021-10-17T07:33:02Z</time>
      </trkpt>
      <trkpt lat="39.7669480" lon="-6.4026950">
        <ele>342.2</ele>
        <time>2021-10-17T07:33:04Z</time>
      </trkpt>
      <trkpt lat="39.7668110" lon="-6.4028390">
        <ele>341.2</ele>
        <time>2021-10-17T07:33:07Z</time>
      </trkpt>
      <trkpt lat="39.7667250" lon="-6.4029430">
        <ele>340.6</ele>
        <time>2021-10-17T07:33:09Z</time>
      </trkpt>
      <trkpt lat="39.7665910" lon="-6.4030690">
        <ele>340.2</ele>
        <time>2021-10-17T07:33:12Z</time>
      </trkpt>
      <trkpt lat="39.7665440" lon="-6.4031020">
        <ele>339.6</ele>
        <time>2021-10-17T07:33:13Z</time>
      </trkpt>
      <trkpt lat="39.7664940" lon="-6.4031280">
        <ele>339.2</ele>
        <time>2021-10-17T07:33:14Z</time>
      </trkpt>
      <trkpt lat="39.7663440" lon="-6.4031800">
        <ele>338.6</ele>
        <time>2021-10-17T07:33:17Z</time>
      </trkpt>
      <trkpt lat="39.7662020" lon="-6.4032200">
        <ele>338.0</ele>
        <time>2021-10-17T07:33:20Z</time>
      </trkpt>
      <trkpt lat="39.7661570" lon="-6.4032240">
        <ele>338.0</ele>
        <time>2021-10-17T07:33:21Z</time>
      </trkpt>
      <trkpt lat="39.7660780" lon="-6.4031960">
        <ele>337.6</ele>
        <time>2021-10-17T07:33:23Z</time>
      </trkpt>
      <trkpt lat="39.7659170" lon="-6.4031200">
        <ele>337.4</ele>
        <time>2021-10-17T07:33:28Z</time>
      </trkpt>
      <trkpt lat="39.7658470" lon="-6.4031490">
        <ele>337.4</ele>
        <time>2021-10-17T07:33:31Z</time>
      </trkpt>
      <trkpt lat="39.7657900" lon="-6.4031710">
        <ele>337.4</ele>
        <time>2021-10-17T07:33:33Z</time>
      </trkpt>
      <trkpt lat="39.7657040" lon="-6.4033220">
        <ele>337.4</ele>
        <time>2021-10-17T07:33:37Z</time>
      </trkpt>
      <trkpt lat="39.7656120" lon="-6.4034820">
        <ele>337.0</ele>
        <time>2021-10-17T07:33:41Z</time>
      </trkpt>
      <trkpt lat="39.7655430" lon="-6.4035270">
        <ele>336.4</ele>
        <time>2021-10-17T07:33:43Z</time>
      </trkpt>
      <trkpt lat="39.7654720" lon="-6.4035610">
        <ele>336.0</ele>
        <time>2021-10-17T07:33:45Z</time>
      </trkpt>
      <trkpt lat="39.7653550" lon="-6.4035880">
        <ele>335.8</ele>
        <time>2021-10-17T07:33:48Z</time>
      </trkpt>
      <trkpt lat="39.7651680" lon="-6.4035440">
        <ele>335.8</ele>
        <time>2021-10-17T07:33:53Z</time>
      </trkpt>
      <trkpt lat="39.7649470" lon="-6.4034690">
        <ele>336.4</ele>
        <time>2021-10-17T07:34:00Z</time>
      </trkpt>
      <trkpt lat="39.7648040" lon="-6.4034410">
        <ele>337.0</ele>
        <time>2021-10-17T07:34:06Z</time>
      </trkpt>
      <trkpt lat="39.7646980" lon="-6.4034730">
        <ele>337.8</ele>
        <time>2021-10-17T07:34:11Z</time>
      </trkpt>
      <trkpt lat="39.7646790" lon="-6.4034890">
        <ele>337.8</ele>
        <time>2021-10-17T07:34:12Z</time>
      </trkpt>
      <trkpt lat="39.7646110" lon="-6.4034960">
        <ele>338.4</ele>
        <time>2021-10-17T07:34:15Z</time>
      </trkpt>
      <trkpt lat="39.7645720" lon="-6.4034850">
        <ele>338.4</ele>
        <time>2021-10-17T07:34:17Z</time>
      </trkpt>
      <trkpt lat="39.7645190" lon="-6.4034800">
        <ele>338.6</ele>
        <time>2021-10-17T07:34:19Z</time>
      </trkpt>
      <trkpt lat="39.7644890" lon="-6.4034800">
        <ele>338.6</ele>
        <time>2021-10-17T07:34:20Z</time>
      </trkpt>
      <trkpt lat="39.7643960" lon="-6.4034620">
        <ele>338.6</ele>
        <time>2021-10-17T07:34:23Z</time>
      </trkpt>
      <trkpt lat="39.7643320" lon="-6.4034410">
        <ele>339.0</ele>
        <time>2021-10-17T07:34:25Z</time>
      </trkpt>
      <trkpt lat="39.7642330" lon="-6.4034180">
        <ele>338.4</ele>
        <time>2021-10-17T07:34:28Z</time>
      </trkpt>
      <trkpt lat="39.7641640" lon="-6.4034030">
        <ele>338.4</ele>
        <time>2021-10-17T07:34:30Z</time>
      </trkpt>
      <trkpt lat="39.7639970" lon="-6.4033520">
        <ele>338.4</ele>
        <time>2021-10-17T07:34:35Z</time>
      </trkpt>
      <trkpt lat="39.7639320" lon="-6.4033190">
        <ele>338.4</ele>
        <time>2021-10-17T07:34:37Z</time>
      </trkpt>
      <trkpt lat="39.7639050" lon="-6.4032960">
        <ele>338.4</ele>
        <time>2021-10-17T07:34:38Z</time>
      </trkpt>
      <trkpt lat="39.7637470" lon="-6.4031500">
        <ele>338.4</ele>
        <time>2021-10-17T07:34:44Z</time>
      </trkpt>
      <trkpt lat="39.7636780" lon="-6.4031310">
        <ele>338.0</ele>
        <time>2021-10-17T07:34:46Z</time>
      </trkpt>
      <trkpt lat="39.7635800" lon="-6.4031020">
        <ele>338.0</ele>
        <time>2021-10-17T07:34:49Z</time>
      </trkpt>
      <trkpt lat="39.7635170" lon="-6.4030820">
        <ele>338.0</ele>
        <time>2021-10-17T07:34:51Z</time>
      </trkpt>
      <trkpt lat="39.7634200" lon="-6.4030570">
        <ele>338.0</ele>
        <time>2021-10-17T07:34:55Z</time>
      </trkpt>
      <trkpt lat="39.7632690" lon="-6.4030180">
        <ele>339.2</ele>
        <time>2021-10-17T07:35:02Z</time>
      </trkpt>
      <trkpt lat="39.7631580" lon="-6.4030070">
        <ele>339.6</ele>
        <time>2021-10-17T07:35:07Z</time>
      </trkpt>
      <trkpt lat="39.7631090" lon="-6.4030030">
        <ele>340.0</ele>
        <time>2021-10-17T07:35:09Z</time>
      </trkpt>
      <trkpt lat="39.7630330" lon="-6.4030070">
        <ele>340.4</ele>
        <time>2021-10-17T07:35:12Z</time>
      </trkpt>
      <trkpt lat="39.7629500" lon="-6.4030120">
        <ele>340.4</ele>
        <time>2021-10-17T07:35:15Z</time>
      </trkpt>
      <trkpt lat="39.7628700" lon="-6.4030260">
        <ele>340.4</ele>
        <time>2021-10-17T07:35:18Z</time>
      </trkpt>
      <trkpt lat="39.7627590" lon="-6.4030390">
        <ele>340.4</ele>
        <time>2021-10-17T07:35:22Z</time>
      </trkpt>
      <trkpt lat="39.7626510" lon="-6.4030400">
        <ele>340.4</ele>
        <time>2021-10-17T07:35:26Z</time>
      </trkpt>
      <trkpt lat="39.7624790" lon="-6.4030350">
        <ele>340.4</ele>
        <time>2021-10-17T07:35:33Z</time>
      </trkpt>
      <trkpt lat="39.7623980" lon="-6.4030320">
        <ele>340.6</ele>
        <time>2021-10-17T07:35:36Z</time>
      </trkpt>
      <trkpt lat="39.7622200" lon="-6.4030440">
        <ele>340.6</ele>
        <time>2021-10-17T07:35:42Z</time>
      </trkpt>
      <trkpt lat="39.7621620" lon="-6.4030580">
        <ele>341.0</ele>
        <time>2021-10-17T07:35:44Z</time>
      </trkpt>
      <trkpt lat="39.7619890" lon="-6.4030820">
        <ele>341.0</ele>
        <time>2021-10-17T07:35:50Z</time>
      </trkpt>
      <trkpt lat="39.7617950" lon="-6.4031020">
        <ele>341.0</ele>
        <time>2021-10-17T07:35:57Z</time>
      </trkpt>
      <trkpt lat="39.7616120" lon="-6.4030670">
        <ele>341.6</ele>
        <time>2021-10-17T07:36:04Z</time>
      </trkpt>
      <trkpt lat="39.7615130" lon="-6.4030650">
        <ele>341.6</ele>
        <time>2021-10-17T07:36:08Z</time>
      </trkpt>
      <trkpt lat="39.7614370" lon="-6.4030530">
        <ele>341.8</ele>
        <time>2021-10-17T07:36:11Z</time>
      </trkpt>
      <trkpt lat="39.7613640" lon="-6.4030440">
        <ele>342.2</ele>
        <time>2021-10-17T07:36:14Z</time>
      </trkpt>
      <trkpt lat="39.7612940" lon="-6.4030370">
        <ele>342.2</ele>
        <time>2021-10-17T07:36:17Z</time>
      </trkpt>
      <trkpt lat="39.7612710" lon="-6.4030360">
        <ele>342.2</ele>
        <time>2021-10-17T07:36:18Z</time>
      </trkpt>
      <trkpt lat="39.7611740" lon="-6.4030270">
        <ele>342.4</ele>
        <time>2021-10-17T07:36:22Z</time>
      </trkpt>
      <trkpt lat="39.7611020" lon="-6.4030170">
        <ele>342.8</ele>
        <time>2021-10-17T07:36:25Z</time>
      </trkpt>
      <trkpt lat="39.7610800" lon="-6.4030220">
        <ele>342.8</ele>
        <time>2021-10-17T07:36:26Z</time>
      </trkpt>
      <trkpt lat="39.7610210" lon="-6.4030760">
        <ele>342.8</ele>
        <time>2021-10-17T07:36:29Z</time>
      </trkpt>
      <trkpt lat="39.7609310" lon="-6.4031560">
        <ele>343.0</ele>
        <time>2021-10-17T07:36:33Z</time>
      </trkpt>
      <trkpt lat="39.7608640" lon="-6.4032060">
        <ele>343.2</ele>
        <time>2021-10-17T07:36:36Z</time>
      </trkpt>
      <trkpt lat="39.7607680" lon="-6.4033150">
        <ele>343.6</ele>
        <time>2021-10-17T07:36:41Z</time>
      </trkpt>
      <trkpt lat="39.7606920" lon="-6.4034060">
        <ele>343.6</ele>
        <time>2021-10-17T07:36:45Z</time>
      </trkpt>
      <trkpt lat="39.7606300" lon="-6.4034790">
        <ele>343.6</ele>
        <time>2021-10-17T07:36:48Z</time>
      </trkpt>
      <trkpt lat="39.7605330" lon="-6.4036110">
        <ele>344.2</ele>
        <time>2021-10-17T07:36:53Z</time>
      </trkpt>
      <trkpt lat="39.7604940" lon="-6.4036600">
        <ele>344.2</ele>
        <time>2021-10-17T07:36:55Z</time>
      </trkpt>
      <trkpt lat="39.7604560" lon="-6.4037090">
        <ele>344.2</ele>
        <time>2021-10-17T07:36:57Z</time>
      </trkpt>
      <trkpt lat="39.7603370" lon="-6.4038370">
        <ele>344.2</ele>
        <time>2021-10-17T07:37:03Z</time>
      </trkpt>
      <trkpt lat="39.7602510" lon="-6.4039170">
        <ele>344.4</ele>
        <time>2021-10-17T07:37:07Z</time>
      </trkpt>
      <trkpt lat="39.7602190" lon="-6.4039630">
        <ele>344.4</ele>
        <time>2021-10-17T07:37:09Z</time>
      </trkpt>
      <trkpt lat="39.7601340" lon="-6.4040680">
        <ele>344.8</ele>
        <time>2021-10-17T07:37:14Z</time>
      </trkpt>
      <trkpt lat="39.7600780" lon="-6.4041080">
        <ele>345.0</ele>
        <time>2021-10-17T07:37:17Z</time>
      </trkpt>
      <trkpt lat="39.7600270" lon="-6.4041570">
        <ele>345.0</ele>
        <time>2021-10-17T07:37:20Z</time>
      </trkpt>
      <trkpt lat="39.7600060" lon="-6.4041730">
        <ele>345.4</ele>
        <time>2021-10-17T07:37:21Z</time>
      </trkpt>
      <trkpt lat="39.7599390" lon="-6.4042280">
        <ele>345.2</ele>
        <time>2021-10-17T07:37:24Z</time>
      </trkpt>
      <trkpt lat="39.7598970" lon="-6.4042590">
        <ele>345.0</ele>
        <time>2021-10-17T07:37:26Z</time>
      </trkpt>
      <trkpt lat="39.7597890" lon="-6.4043210">
        <ele>344.8</ele>
        <time>2021-10-17T07:37:31Z</time>
      </trkpt>
      <trkpt lat="39.7596460" lon="-6.4043720">
        <ele>344.8</ele>
        <time>2021-10-17T07:37:37Z</time>
      </trkpt>
      <trkpt lat="39.7596130" lon="-6.4043640">
        <ele>344.8</ele>
        <time>2021-10-17T07:37:38Z</time>
      </trkpt>
      <trkpt lat="39.7595260" lon="-6.4043450">
        <ele>344.8</ele>
        <time>2021-10-17T07:37:40Z</time>
      </trkpt>
      <trkpt lat="39.7594250" lon="-6.4043140">
        <ele>344.2</ele>
        <time>2021-10-17T07:37:42Z</time>
      </trkpt>
      <trkpt lat="39.7592700" lon="-6.4042670">
        <ele>342.8</ele>
        <time>2021-10-17T07:37:45Z</time>
      </trkpt>
      <trkpt lat="39.7590830" lon="-6.4042520">
        <ele>342.2</ele>
        <time>2021-10-17T07:37:49Z</time>
      </trkpt>
      <trkpt lat="39.7590010" lon="-6.4042590">
        <ele>342.2</ele>
        <time>2021-10-17T07:37:51Z</time>
      </trkpt>
      <trkpt lat="39.7588930" lon="-6.4042440">
        <ele>342.2</ele>
        <time>2021-10-17T07:37:54Z</time>
      </trkpt>
      <trkpt lat="39.7588080" lon="-6.4042210">
        <ele>342.2</ele>
        <time>2021-10-17T07:37:57Z</time>
      </trkpt>
      <trkpt lat="39.7587370" lon="-6.4041980">
        <ele>342.4</ele>
        <time>2021-10-17T07:38:00Z</time>
      </trkpt>
      <trkpt lat="39.7586330" lon="-6.4041600">
        <ele>342.8</ele>
        <time>2021-10-17T07:38:05Z</time>
      </trkpt>
      <trkpt lat="39.7585400" lon="-6.4041140">
        <ele>342.8</ele>
        <time>2021-10-17T07:38:08Z</time>
      </trkpt>
      <trkpt lat="39.7584690" lon="-6.4040690">
        <ele>342.8</ele>
        <time>2021-10-17T07:38:10Z</time>
      </trkpt>
      <trkpt lat="39.7582890" lon="-6.4039030">
        <ele>342.0</ele>
        <time>2021-10-17T07:38:15Z</time>
      </trkpt>
      <trkpt lat="39.7582540" lon="-6.4038650">
        <ele>341.8</ele>
        <time>2021-10-17T07:38:16Z</time>
      </trkpt>
      <trkpt lat="39.7582210" lon="-6.4038230">
        <ele>341.6</ele>
        <time>2021-10-17T07:38:17Z</time>
      </trkpt>
      <trkpt lat="39.7581230" lon="-6.4036970">
        <ele>340.8</ele>
        <time>2021-10-17T07:38:20Z</time>
      </trkpt>
      <trkpt lat="39.7580610" lon="-6.4036400">
        <ele>340.6</ele>
        <time>2021-10-17T07:38:22Z</time>
      </trkpt>
      <trkpt lat="39.7580240" lon="-6.4036130">
        <ele>340.4</ele>
        <time>2021-10-17T07:38:23Z</time>
      </trkpt>
      <trkpt lat="39.7579490" lon="-6.4035680">
        <ele>340.4</ele>
        <time>2021-10-17T07:38:25Z</time>
      </trkpt>
      <trkpt lat="39.7579150" lon="-6.4035430">
        <ele>340.2</ele>
        <time>2021-10-17T07:38:26Z</time>
      </trkpt>
      <trkpt lat="39.7578490" lon="-6.4034900">
        <ele>340.0</ele>
        <time>2021-10-17T07:38:28Z</time>
      </trkpt>
      <trkpt lat="39.7577470" lon="-6.4034320">
        <ele>339.8</ele>
        <time>2021-10-17T07:38:31Z</time>
      </trkpt>
      <trkpt lat="39.7577120" lon="-6.4034270">
        <ele>339.8</ele>
        <time>2021-10-17T07:38:32Z</time>
      </trkpt>
      <trkpt lat="39.7575340" lon="-6.4035130">
        <ele>339.4</ele>
        <time>2021-10-17T07:38:37Z</time>
      </trkpt>
      <trkpt lat="39.7573670" lon="-6.4035880">
        <ele>339.4</ele>
        <time>2021-10-17T07:38:42Z</time>
      </trkpt>
      <trkpt lat="39.7572010" lon="-6.4035860">
        <ele>340.2</ele>
        <time>2021-10-17T07:38:47Z</time>
      </trkpt>
      <trkpt lat="39.7571710" lon="-6.4035810">
        <ele>340.4</ele>
        <time>2021-10-17T07:38:48Z</time>
      </trkpt>
      <trkpt lat="39.7570290" lon="-6.4035500">
        <ele>341.2</ele>
        <time>2021-10-17T07:38:53Z</time>
      </trkpt>
      <trkpt lat="39.7569900" lon="-6.4035380">
        <ele>341.4</ele>
        <time>2021-10-17T07:38:55Z</time>
      </trkpt>
      <trkpt lat="39.7569700" lon="-6.4035340">
        <ele>341.6</ele>
        <time>2021-10-17T07:38:56Z</time>
      </trkpt>
      <trkpt lat="39.7568810" lon="-6.4034970">
        <ele>342.4</ele>
        <time>2021-10-17T07:39:01Z</time>
      </trkpt>
      <trkpt lat="39.7568450" lon="-6.4034640">
        <ele>342.6</ele>
        <time>2021-10-17T07:39:03Z</time>
      </trkpt>
      <trkpt lat="39.7567990" lon="-6.4034190">
        <ele>342.6</ele>
        <time>2021-10-17T07:39:05Z</time>
      </trkpt>
      <trkpt lat="39.7567210" lon="-6.4033630">
        <ele>342.6</ele>
        <time>2021-10-17T07:39:08Z</time>
      </trkpt>
      <trkpt lat="39.7566040" lon="-6.4032730">
        <ele>341.6</ele>
        <time>2021-10-17T07:39:13Z</time>
      </trkpt>
      <trkpt lat="39.7565790" lon="-6.4032750">
        <ele>341.4</ele>
        <time>2021-10-17T07:39:14Z</time>
      </trkpt>
      <trkpt lat="39.7564940" lon="-6.4033120">
        <ele>340.2</ele>
        <time>2021-10-17T07:39:17Z</time>
      </trkpt>
      <trkpt lat="39.7564350" lon="-6.4033080">
        <ele>339.2</ele>
        <time>2021-10-17T07:39:19Z</time>
      </trkpt>
      <trkpt lat="39.7563540" lon="-6.4032510">
        <ele>338.4</ele>
        <time>2021-10-17T07:39:22Z</time>
      </trkpt>
      <trkpt lat="39.7563290" lon="-6.4032300">
        <ele>337.8</ele>
        <time>2021-10-17T07:39:23Z</time>
      </trkpt>
      <trkpt lat="39.7562930" lon="-6.4032020">
        <ele>337.4</ele>
        <time>2021-10-17T07:39:25Z</time>
      </trkpt>
      <trkpt lat="39.7562400" lon="-6.4031680">
        <ele>337.0</ele>
        <time>2021-10-17T07:39:31Z</time>
      </trkpt>
      <trkpt lat="39.7562400" lon="-6.4031680">
        <ele>337.2</ele>
        <time>2021-10-17T07:39:32Z</time>
      </trkpt>
      <trkpt lat="39.7562070" lon="-6.4031350">
        <ele>336.8</ele>
        <time>2021-10-17T07:40:18Z</time>
      </trkpt>
      <trkpt lat="39.7561560" lon="-6.4031290">
        <ele>336.8</ele>
        <time>2021-10-17T07:40:21Z</time>
      </trkpt>
      <trkpt lat="39.7559820" lon="-6.4030810">
        <ele>338.2</ele>
        <time>2021-10-17T07:40:31Z</time>
      </trkpt>
      <trkpt lat="39.7559370" lon="-6.4030650">
        <ele>338.8</ele>
        <time>2021-10-17T07:40:34Z</time>
      </trkpt>
      <trkpt lat="39.7558680" lon="-6.4030370">
        <ele>340.0</ele>
        <time>2021-10-17T07:40:39Z</time>
      </trkpt>
      <trkpt lat="39.7558550" lon="-6.4030300">
        <ele>340.0</ele>
        <time>2021-10-17T07:40:40Z</time>
      </trkpt>
      <trkpt lat="39.7557630" lon="-6.4030040">
        <ele>341.0</ele>
        <time>2021-10-17T07:40:46Z</time>
      </trkpt>
      <trkpt lat="39.7556980" lon="-6.4029860">
        <ele>341.8</ele>
        <time>2021-10-17T07:40:50Z</time>
      </trkpt>
      <trkpt lat="39.7556690" lon="-6.4029700">
        <ele>342.2</ele>
        <time>2021-10-17T07:40:52Z</time>
      </trkpt>
      <trkpt lat="39.7556150" lon="-6.4029350">
        <ele>342.4</ele>
        <time>2021-10-17T07:40:56Z</time>
      </trkpt>
      <trkpt lat="39.7555810" lon="-6.4029330">
        <ele>342.8</ele>
        <time>2021-10-17T07:40:58Z</time>
      </trkpt>
      <trkpt lat="39.7555310" lon="-6.4029270">
        <ele>343.2</ele>
        <time>2021-10-17T07:41:01Z</time>
      </trkpt>
      <trkpt lat="39.7554810" lon="-6.4029150">
        <ele>343.6</ele>
        <time>2021-10-17T07:41:04Z</time>
      </trkpt>
      <trkpt lat="39.7554480" lon="-6.4029110">
        <ele>344.0</ele>
        <time>2021-10-17T07:41:06Z</time>
      </trkpt>
      <trkpt lat="39.7553770" lon="-6.4028950">
        <ele>344.2</ele>
        <time>2021-10-17T07:41:09Z</time>
      </trkpt>
      <trkpt lat="39.7552970" lon="-6.4028590">
        <ele>344.2</ele>
        <time>2021-10-17T07:41:12Z</time>
      </trkpt>
      <trkpt lat="39.7551640" lon="-6.4027240">
        <ele>344.0</ele>
        <time>2021-10-17T07:41:17Z</time>
      </trkpt>
      <trkpt lat="39.7550970" lon="-6.4026970">
        <ele>343.8</ele>
        <time>2021-10-17T07:41:19Z</time>
      </trkpt>
      <trkpt lat="39.7549890" lon="-6.4026670">
        <ele>343.6</ele>
        <time>2021-10-17T07:41:22Z</time>
      </trkpt>
      <trkpt lat="39.7546910" lon="-6.4026290">
        <ele>343.2</ele>
        <time>2021-10-17T07:41:30Z</time>
      </trkpt>
      <trkpt lat="39.7545890" lon="-6.4026280">
        <ele>343.2</ele>
        <time>2021-10-17T07:41:33Z</time>
      </trkpt>
      <trkpt lat="39.7544130" lon="-6.4025920">
        <ele>343.2</ele>
        <time>2021-10-17T07:41:38Z</time>
      </trkpt>
      <trkpt lat="39.7542310" lon="-6.4026030">
        <ele>343.2</ele>
        <time>2021-10-17T07:41:43Z</time>
      </trkpt>
      <trkpt lat="39.7539840" lon="-6.4025280">
        <ele>343.2</ele>
        <time>2021-10-17T07:41:50Z</time>
      </trkpt>
      <trkpt lat="39.7537420" lon="-6.4025270">
        <ele>343.4</ele>
        <time>2021-10-17T07:41:57Z</time>
      </trkpt>
      <trkpt lat="39.7535460" lon="-6.4025590">
        <ele>343.4</ele>
        <time>2021-10-17T07:42:02Z</time>
      </trkpt>
      <trkpt lat="39.7535010" lon="-6.4025690">
        <ele>343.4</ele>
        <time>2021-10-17T07:42:03Z</time>
      </trkpt>
      <trkpt lat="39.7533280" lon="-6.4026290">
        <ele>343.2</ele>
        <time>2021-10-17T07:42:07Z</time>
      </trkpt>
      <trkpt lat="39.7532520" lon="-6.4026650">
        <ele>343.0</ele>
        <time>2021-10-17T07:42:09Z</time>
      </trkpt>
      <trkpt lat="39.7532180" lon="-6.4026860">
        <ele>343.0</ele>
        <time>2021-10-17T07:42:10Z</time>
      </trkpt>
      <trkpt lat="39.7531490" lon="-6.4027340">
        <ele>342.8</ele>
        <time>2021-10-17T07:42:12Z</time>
      </trkpt>
      <trkpt lat="39.7530910" lon="-6.4027980">
        <ele>342.8</ele>
        <time>2021-10-17T07:42:14Z</time>
      </trkpt>
      <trkpt lat="39.7528210" lon="-6.4030970">
        <ele>342.8</ele>
        <time>2021-10-17T07:42:23Z</time>
      </trkpt>
      <trkpt lat="39.7527200" lon="-6.4032190">
        <ele>342.6</ele>
        <time>2021-10-17T07:42:26Z</time>
      </trkpt>
      <trkpt lat="39.7526390" lon="-6.4033580">
        <ele>342.0</ele>
        <time>2021-10-17T07:42:29Z</time>
      </trkpt>
      <trkpt lat="39.7526100" lon="-6.4034010">
        <ele>341.8</ele>
        <time>2021-10-17T07:42:30Z</time>
      </trkpt>
      <trkpt lat="39.7525070" lon="-6.4035770">
        <ele>341.4</ele>
        <time>2021-10-17T07:42:34Z</time>
      </trkpt>
      <trkpt lat="39.7524720" lon="-6.4036700">
        <ele>341.4</ele>
        <time>2021-10-17T07:42:36Z</time>
      </trkpt>
      <trkpt lat="39.7524260" lon="-6.4039140">
        <ele>341.4</ele>
        <time>2021-10-17T07:42:41Z</time>
      </trkpt>
      <trkpt lat="39.7524180" lon="-6.4039620">
        <ele>341.4</ele>
        <time>2021-10-17T07:42:42Z</time>
      </trkpt>
      <trkpt lat="39.7523790" lon="-6.4041540">
        <ele>341.8</ele>
        <time>2021-10-17T07:42:47Z</time>
      </trkpt>
      <trkpt lat="39.7523650" lon="-6.4043240">
        <ele>342.8</ele>
        <time>2021-10-17T07:42:52Z</time>
      </trkpt>
      <trkpt lat="39.7523630" lon="-6.4043550">
        <ele>343.0</ele>
        <time>2021-10-17T07:42:53Z</time>
      </trkpt>
      <trkpt lat="39.7523700" lon="-6.4044920">
        <ele>343.2</ele>
        <time>2021-10-17T07:42:57Z</time>
      </trkpt>
      <trkpt lat="39.7523780" lon="-6.4046290">
        <ele>343.2</ele>
        <time>2021-10-17T07:43:00Z</time>
      </trkpt>
      <trkpt lat="39.7523450" lon="-6.4049660">
        <ele>343.6</ele>
        <time>2021-10-17T07:43:07Z</time>
      </trkpt>
      <trkpt lat="39.7522670" lon="-6.4051910">
        <ele>343.6</ele>
        <time>2021-10-17T07:43:13Z</time>
      </trkpt>
      <trkpt lat="39.7521080" lon="-6.4054590">
        <ele>343.6</ele>
        <time>2021-10-17T07:43:20Z</time>
      </trkpt>
      <trkpt lat="39.7519240" lon="-6.4056690">
        <ele>343.2</ele>
        <time>2021-10-17T07:43:26Z</time>
      </trkpt>
      <trkpt lat="39.7518820" lon="-6.4057080">
        <ele>343.2</ele>
        <time>2021-10-17T07:43:27Z</time>
      </trkpt>
      <trkpt lat="39.7517760" lon="-6.4057880">
        <ele>343.0</ele>
        <time>2021-10-17T07:43:30Z</time>
      </trkpt>
      <trkpt lat="39.7516720" lon="-6.4058790">
        <ele>343.0</ele>
        <time>2021-10-17T07:43:33Z</time>
      </trkpt>
      <trkpt lat="39.7516430" lon="-6.4059120">
        <ele>343.2</ele>
        <time>2021-10-17T07:43:34Z</time>
      </trkpt>
      <trkpt lat="39.7515890" lon="-6.4059840">
        <ele>343.2</ele>
        <time>2021-10-17T07:43:36Z</time>
      </trkpt>
      <trkpt lat="39.7515340" lon="-6.4060570">
        <ele>343.4</ele>
        <time>2021-10-17T07:43:38Z</time>
      </trkpt>
      <trkpt lat="39.7514460" lon="-6.4061790">
        <ele>343.8</ele>
        <time>2021-10-17T07:43:42Z</time>
      </trkpt>
      <trkpt lat="39.7513900" lon="-6.4062320">
        <ele>344.0</ele>
        <time>2021-10-17T07:43:44Z</time>
      </trkpt>
      <trkpt lat="39.7512910" lon="-6.4063360">
        <ele>344.4</ele>
        <time>2021-10-17T07:43:48Z</time>
      </trkpt>
      <trkpt lat="39.7512280" lon="-6.4064290">
        <ele>344.8</ele>
        <time>2021-10-17T07:43:51Z</time>
      </trkpt>
      <trkpt lat="39.7512100" lon="-6.4064570">
        <ele>345.0</ele>
        <time>2021-10-17T07:43:52Z</time>
      </trkpt>
      <trkpt lat="39.7511580" lon="-6.4065290">
        <ele>345.2</ele>
        <time>2021-10-17T07:43:55Z</time>
      </trkpt>
      <trkpt lat="39.7510710" lon="-6.4066850">
        <ele>345.8</ele>
        <time>2021-10-17T07:44:01Z</time>
      </trkpt>
      <trkpt lat="39.7510570" lon="-6.4067100">
        <ele>345.8</ele>
        <time>2021-10-17T07:44:02Z</time>
      </trkpt>
      <trkpt lat="39.7509990" lon="-6.4068210">
        <ele>346.0</ele>
        <time>2021-10-17T07:44:06Z</time>
      </trkpt>
      <trkpt lat="39.7509500" lon="-6.4069130">
        <ele>346.2</ele>
        <time>2021-10-17T07:44:09Z</time>
      </trkpt>
      <trkpt lat="39.7509060" lon="-6.4069760">
        <ele>346.2</ele>
        <time>2021-10-17T07:44:11Z</time>
      </trkpt>
      <trkpt lat="39.7508320" lon="-6.4071220">
        <ele>346.0</ele>
        <time>2021-10-17T07:44:15Z</time>
      </trkpt>
      <trkpt lat="39.7508120" lon="-6.4071440">
        <ele>345.6</ele>
        <time>2021-10-17T07:44:16Z</time>
      </trkpt>
      <trkpt lat="39.7507420" lon="-6.4072130">
        <ele>345.4</ele>
        <time>2021-10-17T07:44:19Z</time>
      </trkpt>
      <trkpt lat="39.7506850" lon="-6.4072950">
        <ele>345.4</ele>
        <time>2021-10-17T07:44:22Z</time>
      </trkpt>
      <trkpt lat="39.7506630" lon="-6.4073270">
        <ele>345.4</ele>
        <time>2021-10-17T07:44:23Z</time>
      </trkpt>
      <trkpt lat="39.7505060" lon="-6.4075720">
        <ele>345.2</ele>
        <time>2021-10-17T07:44:30Z</time>
      </trkpt>
      <trkpt lat="39.7504360" lon="-6.4076760">
        <ele>345.0</ele>
        <time>2021-10-17T07:44:33Z</time>
      </trkpt>
      <trkpt lat="39.7504160" lon="-6.4077100">
        <ele>344.8</ele>
        <time>2021-10-17T07:44:34Z</time>
      </trkpt>
      <trkpt lat="39.7502870" lon="-6.4079140">
        <ele>344.0</ele>
        <time>2021-10-17T07:44:40Z</time>
      </trkpt>
      <trkpt lat="39.7502100" lon="-6.4080560">
        <ele>343.8</ele>
        <time>2021-10-17T07:44:44Z</time>
      </trkpt>
      <trkpt lat="39.7501320" lon="-6.4081780">
        <ele>343.6</ele>
        <time>2021-10-17T07:44:47Z</time>
      </trkpt>
      <trkpt lat="39.7500550" lon="-6.4083190">
        <ele>343.0</ele>
        <time>2021-10-17T07:44:50Z</time>
      </trkpt>
      <trkpt lat="39.7500030" lon="-6.4084120">
        <ele>342.8</ele>
        <time>2021-10-17T07:44:52Z</time>
      </trkpt>
      <trkpt lat="39.7497570" lon="-6.4087840">
        <ele>342.2</ele>
        <time>2021-10-17T07:45:01Z</time>
      </trkpt>
      <trkpt lat="39.7495010" lon="-6.4091660">
        <ele>341.4</ele>
        <time>2021-10-17T07:45:10Z</time>
      </trkpt>
      <trkpt lat="39.7494720" lon="-6.4092020">
        <ele>341.2</ele>
        <time>2021-10-17T07:45:11Z</time>
      </trkpt>
      <trkpt lat="39.7493620" lon="-6.4093530">
        <ele>340.8</ele>
        <time>2021-10-17T07:45:15Z</time>
      </trkpt>
      <trkpt lat="39.7492920" lon="-6.4094500">
        <ele>340.8</ele>
        <time>2021-10-17T07:45:18Z</time>
      </trkpt>
      <trkpt lat="39.7491070" lon="-6.4097250">
        <ele>340.6</ele>
        <time>2021-10-17T07:45:26Z</time>
      </trkpt>
      <trkpt lat="39.7490880" lon="-6.4097510">
        <ele>340.4</ele>
        <time>2021-10-17T07:45:27Z</time>
      </trkpt>
      <trkpt lat="39.7488900" lon="-6.4100140">
        <ele>340.0</ele>
        <time>2021-10-17T07:45:35Z</time>
      </trkpt>
      <trkpt lat="39.7487900" lon="-6.4101680">
        <ele>339.8</ele>
        <time>2021-10-17T07:45:40Z</time>
      </trkpt>
      <trkpt lat="39.7486980" lon="-6.4103020">
        <ele>339.6</ele>
        <time>2021-10-17T07:45:44Z</time>
      </trkpt>
      <trkpt lat="39.7486160" lon="-6.4104270">
        <ele>339.4</ele>
        <time>2021-10-17T07:45:48Z</time>
      </trkpt>
      <trkpt lat="39.7485110" lon="-6.4105820">
        <ele>339.2</ele>
        <time>2021-10-17T07:45:53Z</time>
      </trkpt>
      <trkpt lat="39.7483760" lon="-6.4107810">
        <ele>338.6</ele>
        <time>2021-10-17T07:46:00Z</time>
      </trkpt>
      <trkpt lat="39.7483360" lon="-6.4108380">
        <ele>338.4</ele>
        <time>2021-10-17T07:46:02Z</time>
      </trkpt>
      <trkpt lat="39.7482300" lon="-6.4109930">
        <ele>338.2</ele>
        <time>2021-10-17T07:46:08Z</time>
      </trkpt>
      <trkpt lat="39.7481570" lon="-6.4110770">
        <ele>338.0</ele>
        <time>2021-10-17T07:46:13Z</time>
      </trkpt>
      <trkpt lat="39.7481350" lon="-6.4111050">
        <ele>337.8</ele>
        <time>2021-10-17T07:46:18Z</time>
      </trkpt>
      <trkpt lat="39.7480940" lon="-6.4111970">
        <ele>337.8</ele>
        <time>2021-10-17T07:48:05Z</time>
      </trkpt>
      <trkpt lat="39.7480470" lon="-6.4112770">
        <ele>337.8</ele>
        <time>2021-10-17T07:48:08Z</time>
      </trkpt>
      <trkpt lat="39.7479250" lon="-6.4114520">
        <ele>337.6</ele>
        <time>2021-10-17T07:48:13Z</time>
      </trkpt>
      <trkpt lat="39.7479020" lon="-6.4114890">
        <ele>337.6</ele>
        <time>2021-10-17T07:48:14Z</time>
      </trkpt>
      <trkpt lat="39.7477640" lon="-6.4117120">
        <ele>337.2</ele>
        <time>2021-10-17T07:48:20Z</time>
      </trkpt>
      <trkpt lat="39.7476380" lon="-6.4118630">
        <ele>337.2</ele>
        <time>2021-10-17T07:48:25Z</time>
      </trkpt>
      <trkpt lat="39.7475740" lon="-6.4119460">
        <ele>337.0</ele>
        <time>2021-10-17T07:48:28Z</time>
      </trkpt>
      <trkpt lat="39.7474380" lon="-6.4121460">
        <ele>337.0</ele>
        <time>2021-10-17T07:48:35Z</time>
      </trkpt>
      <trkpt lat="39.7472080" lon="-6.4124320">
        <ele>336.4</ele>
        <time>2021-10-17T07:48:44Z</time>
      </trkpt>
      <trkpt lat="39.7470220" lon="-6.4126670">
        <ele>336.0</ele>
        <time>2021-10-17T07:48:51Z</time>
      </trkpt>
      <trkpt lat="39.7469690" lon="-6.4127440">
        <ele>336.0</ele>
        <time>2021-10-17T07:48:53Z</time>
      </trkpt>
      <trkpt lat="39.7468040" lon="-6.4129840">
        <ele>335.4</ele>
        <time>2021-10-17T07:48:59Z</time>
      </trkpt>
      <trkpt lat="39.7467180" lon="-6.4131640">
        <ele>335.0</ele>
        <time>2021-10-17T07:49:03Z</time>
      </trkpt>
      <trkpt lat="39.7466860" lon="-6.4132610">
        <ele>335.0</ele>
        <time>2021-10-17T07:49:05Z</time>
      </trkpt>
      <trkpt lat="39.7465890" lon="-6.4135330">
        <ele>334.6</ele>
        <time>2021-10-17T07:49:12Z</time>
      </trkpt>
      <trkpt lat="39.7465640" lon="-6.4138230">
        <ele>334.8</ele>
        <time>2021-10-17T07:49:19Z</time>
      </trkpt>
      <trkpt lat="39.7465850" lon="-6.4141670">
        <ele>335.0</ele>
        <time>2021-10-17T07:49:27Z</time>
      </trkpt>
      <trkpt lat="39.7466190" lon="-6.4144640">
        <ele>334.8</ele>
        <time>2021-10-17T07:49:34Z</time>
      </trkpt>
      <trkpt lat="39.7466120" lon="-6.4147530">
        <ele>334.6</ele>
        <time>2021-10-17T07:49:41Z</time>
      </trkpt>
      <trkpt lat="39.7465330" lon="-6.4151060">
        <ele>334.2</ele>
        <time>2021-10-17T07:49:49Z</time>
      </trkpt>
      <trkpt lat="39.7464500" lon="-6.4153070">
        <ele>334.0</ele>
        <time>2021-10-17T07:49:54Z</time>
      </trkpt>
      <trkpt lat="39.7464320" lon="-6.4153470">
        <ele>334.0</ele>
        <time>2021-10-17T07:49:55Z</time>
      </trkpt>
      <trkpt lat="39.7463590" lon="-6.4155040">
        <ele>333.8</ele>
        <time>2021-10-17T07:49:59Z</time>
      </trkpt>
      <trkpt lat="39.7462330" lon="-6.4157670">
        <ele>333.8</ele>
        <time>2021-10-17T07:50:07Z</time>
      </trkpt>
      <trkpt lat="39.7461730" lon="-6.4159280">
        <ele>334.4</ele>
        <time>2021-10-17T07:50:13Z</time>
      </trkpt>
      <trkpt lat="39.7461120" lon="-6.4160730">
        <ele>335.2</ele>
        <time>2021-10-17T07:50:19Z</time>
      </trkpt>
      <trkpt lat="39.7460520" lon="-6.4162630">
        <ele>335.4</ele>
        <time>2021-10-17T07:50:25Z</time>
      </trkpt>
      <trkpt lat="39.7460470" lon="-6.4163220">
        <ele>335.6</ele>
        <time>2021-10-17T07:50:27Z</time>
      </trkpt>
      <trkpt lat="39.7460340" lon="-6.4164510">
        <ele>335.6</ele>
        <time>2021-10-17T07:50:31Z</time>
      </trkpt>
      <trkpt lat="39.7460080" lon="-6.4165470">
        <ele>335.6</ele>
        <time>2021-10-17T07:50:34Z</time>
      </trkpt>
      <trkpt lat="39.7459600" lon="-6.4167090">
        <ele>335.8</ele>
        <time>2021-10-17T07:50:39Z</time>
      </trkpt>
      <trkpt lat="39.7459410" lon="-6.4167720">
        <ele>335.8</ele>
        <time>2021-10-17T07:50:41Z</time>
      </trkpt>
      <trkpt lat="39.7459070" lon="-6.4168600">
        <ele>336.0</ele>
        <time>2021-10-17T07:50:44Z</time>
      </trkpt>
      <trkpt lat="39.7458490" lon="-6.4170160">
        <ele>336.0</ele>
        <time>2021-10-17T07:50:49Z</time>
      </trkpt>
      <trkpt lat="39.7458370" lon="-6.4170480">
        <ele>336.0</ele>
        <time>2021-10-17T07:50:50Z</time>
      </trkpt>
      <trkpt lat="39.7457590" lon="-6.4173060">
        <ele>335.8</ele>
        <time>2021-10-17T07:50:56Z</time>
      </trkpt>
      <trkpt lat="39.7456430" lon="-6.4175820">
        <ele>335.4</ele>
        <time>2021-10-17T07:51:02Z</time>
      </trkpt>
      <trkpt lat="39.7455790" lon="-6.4177720">
        <ele>335.2</ele>
        <time>2021-10-17T07:51:06Z</time>
      </trkpt>
      <trkpt lat="39.7455350" lon="-6.4178310">
        <ele>335.0</ele>
        <time>2021-10-17T07:51:08Z</time>
      </trkpt>
      <trkpt lat="39.7454410" lon="-6.4179230">
        <ele>334.6</ele>
        <time>2021-10-17T07:51:12Z</time>
      </trkpt>
      <trkpt lat="39.7454150" lon="-6.4179580">
        <ele>334.6</ele>
        <time>2021-10-17T07:51:13Z</time>
      </trkpt>
      <trkpt lat="39.7453630" lon="-6.4180360">
        <ele>334.4</ele>
        <time>2021-10-17T07:51:15Z</time>
      </trkpt>
      <trkpt lat="39.7453000" lon="-6.4181030">
        <ele>333.8</ele>
        <time>2021-10-17T07:51:17Z</time>
      </trkpt>
      <trkpt lat="39.7452330" lon="-6.4181560">
        <ele>333.4</ele>
        <time>2021-10-17T07:51:19Z</time>
      </trkpt>
      <trkpt lat="39.7450800" lon="-6.4182470">
        <ele>333.2</ele>
        <time>2021-10-17T07:51:24Z</time>
      </trkpt>
      <trkpt lat="39.7449180" lon="-6.4183350">
        <ele>333.8</ele>
        <time>2021-10-17T07:51:30Z</time>
      </trkpt>
      <trkpt lat="39.7448910" lon="-6.4183510">
        <ele>333.8</ele>
        <time>2021-10-17T07:51:31Z</time>
      </trkpt>
      <trkpt lat="39.7447840" lon="-6.4184120">
        <ele>334.2</ele>
        <time>2021-10-17T07:51:35Z</time>
      </trkpt>
      <trkpt lat="39.7447060" lon="-6.4184600">
        <ele>334.4</ele>
        <time>2021-10-17T07:51:38Z</time>
      </trkpt>
      <trkpt lat="39.7443750" lon="-6.4186760">
        <ele>334.6</ele>
        <time>2021-10-17T07:51:49Z</time>
      </trkpt>
      <trkpt lat="39.7442110" lon="-6.4187800">
        <ele>334.8</ele>
        <time>2021-10-17T07:51:55Z</time>
      </trkpt>
      <trkpt lat="39.7441830" lon="-6.4188000">
        <ele>334.8</ele>
        <time>2021-10-17T07:51:56Z</time>
      </trkpt>
      <trkpt lat="39.7439800" lon="-6.4189110">
        <ele>335.0</ele>
        <time>2021-10-17T07:52:03Z</time>
      </trkpt>
      <trkpt lat="39.7439260" lon="-6.4189530">
        <ele>335.2</ele>
        <time>2021-10-17T07:52:05Z</time>
      </trkpt>
      <trkpt lat="39.7438340" lon="-6.4190010">
        <ele>335.4</ele>
        <time>2021-10-17T07:52:08Z</time>
      </trkpt>
      <trkpt lat="39.7436190" lon="-6.4190780">
        <ele>335.4</ele>
        <time>2021-10-17T07:52:15Z</time>
      </trkpt>
      <trkpt lat="39.7434240" lon="-6.4191580">
        <ele>335.4</ele>
        <time>2021-10-17T07:52:21Z</time>
      </trkpt>
      <trkpt lat="39.7432180" lon="-6.4192850">
        <ele>335.4</ele>
        <time>2021-10-17T07:52:28Z</time>
      </trkpt>
      <trkpt lat="39.7430830" lon="-6.4193490">
        <ele>335.4</ele>
        <time>2021-10-17T07:52:32Z</time>
      </trkpt>
      <trkpt lat="39.7430260" lon="-6.4193770">
        <ele>335.4</ele>
        <time>2021-10-17T07:52:34Z</time>
      </trkpt>
      <trkpt lat="39.7428930" lon="-6.4194430">
        <ele>335.4</ele>
        <time>2021-10-17T07:52:38Z</time>
      </trkpt>
      <trkpt lat="39.7427900" lon="-6.4195010">
        <ele>335.6</ele>
        <time>2021-10-17T07:52:41Z</time>
      </trkpt>
      <trkpt lat="39.7425790" lon="-6.4196190">
        <ele>335.4</ele>
        <time>2021-10-17T07:52:48Z</time>
      </trkpt>
      <trkpt lat="39.7424190" lon="-6.4197050">
        <ele>335.6</ele>
        <time>2021-10-17T07:52:53Z</time>
      </trkpt>
      <trkpt lat="39.7423940" lon="-6.4197190">
        <ele>335.8</ele>
        <time>2021-10-17T07:52:54Z</time>
      </trkpt>
      <trkpt lat="39.7422050" lon="-6.4198200">
        <ele>336.2</ele>
        <time>2021-10-17T07:53:00Z</time>
      </trkpt>
      <trkpt lat="39.7419020" lon="-6.4200030">
        <ele>336.2</ele>
        <time>2021-10-17T07:53:10Z</time>
      </trkpt>
      <trkpt lat="39.7416990" lon="-6.4201090">
        <ele>336.6</ele>
        <time>2021-10-17T07:53:17Z</time>
      </trkpt>
      <trkpt lat="39.7416060" lon="-6.4201570">
        <ele>336.6</ele>
        <time>2021-10-17T07:53:20Z</time>
      </trkpt>
      <trkpt lat="39.7414420" lon="-6.4202650">
        <ele>337.0</ele>
        <time>2021-10-17T07:53:26Z</time>
      </trkpt>
      <trkpt lat="39.7412730" lon="-6.4203630">
        <ele>337.2</ele>
        <time>2021-10-17T07:53:32Z</time>
      </trkpt>
      <trkpt lat="39.7411500" lon="-6.4204340">
        <ele>337.4</ele>
        <time>2021-10-17T07:53:36Z</time>
      </trkpt>
      <trkpt lat="39.7410840" lon="-6.4204610">
        <ele>337.4</ele>
        <time>2021-10-17T07:53:38Z</time>
      </trkpt>
      <trkpt lat="39.7408460" lon="-6.4206070">
        <ele>337.6</ele>
        <time>2021-10-17T07:53:46Z</time>
      </trkpt>
      <trkpt lat="39.7406580" lon="-6.4207440">
        <ele>337.4</ele>
        <time>2021-10-17T07:53:52Z</time>
      </trkpt>
      <trkpt lat="39.7405920" lon="-6.4207970">
        <ele>337.2</ele>
        <time>2021-10-17T07:53:54Z</time>
      </trkpt>
      <trkpt lat="39.7402630" lon="-6.4210950">
        <ele>336.4</ele>
        <time>2021-10-17T07:54:03Z</time>
      </trkpt>
      <trkpt lat="39.7400920" lon="-6.4212680">
        <ele>335.6</ele>
        <time>2021-10-17T07:54:09Z</time>
      </trkpt>
      <trkpt lat="39.7400580" lon="-6.4213010">
        <ele>335.4</ele>
        <time>2021-10-17T07:54:10Z</time>
      </trkpt>
      <trkpt lat="39.7399940" lon="-6.4213750">
        <ele>335.2</ele>
        <time>2021-10-17T07:54:12Z</time>
      </trkpt>
      <trkpt lat="39.7398190" lon="-6.4215650">
        <ele>334.2</ele>
        <time>2021-10-17T07:54:16Z</time>
      </trkpt>
      <trkpt lat="39.7397410" lon="-6.4216350">
        <ele>333.0</ele>
        <time>2021-10-17T07:54:19Z</time>
      </trkpt>
      <trkpt lat="39.7397060" lon="-6.4216740">
        <ele>332.8</ele>
        <time>2021-10-17T07:54:20Z</time>
      </trkpt>
      <trkpt lat="39.7394770" lon="-6.4219080">
        <ele>332.2</ele>
        <time>2021-10-17T07:54:25Z</time>
      </trkpt>
      <trkpt lat="39.7394380" lon="-6.4219500">
        <ele>331.8</ele>
        <time>2021-10-17T07:54:26Z</time>
      </trkpt>
      <trkpt lat="39.7393230" lon="-6.4220840">
        <ele>331.2</ele>
        <time>2021-10-17T07:54:29Z</time>
      </trkpt>
      <trkpt lat="39.7392880" lon="-6.4221290">
        <ele>330.4</ele>
        <time>2021-10-17T07:54:30Z</time>
      </trkpt>
      <trkpt lat="39.7391840" lon="-6.4222610">
        <ele>330.0</ele>
        <time>2021-10-17T07:54:33Z</time>
      </trkpt>
      <trkpt lat="39.7390730" lon="-6.4223720">
        <ele>330.0</ele>
        <time>2021-10-17T07:54:36Z</time>
      </trkpt>
      <trkpt lat="39.7390140" lon="-6.4224440">
        <ele>329.2</ele>
        <time>2021-10-17T07:54:38Z</time>
      </trkpt>
      <trkpt lat="39.7389850" lon="-6.4224850">
        <ele>328.8</ele>
        <time>2021-10-17T07:54:39Z</time>
      </trkpt>
      <trkpt lat="39.7388990" lon="-6.4226060">
        <ele>328.2</ele>
        <time>2021-10-17T07:54:42Z</time>
      </trkpt>
      <trkpt lat="39.7387850" lon="-6.4227510">
        <ele>328.0</ele>
        <time>2021-10-17T07:54:46Z</time>
      </trkpt>
      <trkpt lat="39.7387550" lon="-6.4227880">
        <ele>328.0</ele>
        <time>2021-10-17T07:54:47Z</time>
      </trkpt>
      <trkpt lat="39.7385830" lon="-6.4230310">
        <ele>327.6</ele>
        <time>2021-10-17T07:54:53Z</time>
      </trkpt>
      <trkpt lat="39.7385270" lon="-6.4231070">
        <ele>327.2</ele>
        <time>2021-10-17T07:54:55Z</time>
      </trkpt>
      <trkpt lat="39.7384980" lon="-6.4231450">
        <ele>327.0</ele>
        <time>2021-10-17T07:54:56Z</time>
      </trkpt>
      <trkpt lat="39.7384710" lon="-6.4231850">
        <ele>326.8</ele>
        <time>2021-10-17T07:54:57Z</time>
      </trkpt>
      <trkpt lat="39.7383580" lon="-6.4233420">
        <ele>326.4</ele>
        <time>2021-10-17T07:55:01Z</time>
      </trkpt>
      <trkpt lat="39.7383040" lon="-6.4234250">
        <ele>326.4</ele>
        <time>2021-10-17T07:55:03Z</time>
      </trkpt>
      <trkpt lat="39.7382780" lon="-6.4234700">
        <ele>326.4</ele>
        <time>2021-10-17T07:55:04Z</time>
      </trkpt>
      <trkpt lat="39.7381510" lon="-6.4236420">
        <ele>326.2</ele>
        <time>2021-10-17T07:55:08Z</time>
      </trkpt>
      <trkpt lat="39.7380560" lon="-6.4237470">
        <ele>326.0</ele>
        <time>2021-10-17T07:55:11Z</time>
      </trkpt>
      <trkpt lat="39.7380310" lon="-6.4237840">
        <ele>325.6</ele>
        <time>2021-10-17T07:55:12Z</time>
      </trkpt>
      <trkpt lat="39.7379250" lon="-6.4239640">
        <ele>324.8</ele>
        <time>2021-10-17T07:55:16Z</time>
      </trkpt>
      <trkpt lat="39.7378540" lon="-6.4241050">
        <ele>324.4</ele>
        <time>2021-10-17T07:55:19Z</time>
      </trkpt>
      <trkpt lat="39.7378340" lon="-6.4241480">
        <ele>324.4</ele>
        <time>2021-10-17T07:55:20Z</time>
      </trkpt>
      <trkpt lat="39.7377750" lon="-6.4243130">
        <ele>323.8</ele>
        <time>2021-10-17T07:55:24Z</time>
      </trkpt>
      <trkpt lat="39.7377750" lon="-6.4243130">
        <ele>323.8</ele>
        <time>2021-10-17T07:55:25Z</time>
      </trkpt>
      <trkpt lat="39.7376260" lon="-6.4245750">
        <ele>323.0</ele>
        <time>2021-10-17T07:55:32Z</time>
      </trkpt>
      <trkpt lat="39.7374450" lon="-6.4248260">
        <ele>323.0</ele>
        <time>2021-10-17T07:55:39Z</time>
      </trkpt>
      <trkpt lat="39.7371550" lon="-6.4250270">
        <ele>323.2</ele>
        <time>2021-10-17T07:55:48Z</time>
      </trkpt>
      <trkpt lat="39.7368840" lon="-6.4251980">
        <ele>323.4</ele>
        <time>2021-10-17T07:55:56Z</time>
      </trkpt>
      <trkpt lat="39.7367420" lon="-6.4253100">
        <ele>323.6</ele>
        <time>2021-10-17T07:56:02Z</time>
      </trkpt>
      <trkpt lat="39.7365910" lon="-6.4254150">
        <ele>324.0</ele>
        <time>2021-10-17T07:56:08Z</time>
      </trkpt>
      <trkpt lat="39.7365100" lon="-6.4255130">
        <ele>324.6</ele>
        <time>2021-10-17T07:56:12Z</time>
      </trkpt>
      <trkpt lat="39.7365100" lon="-6.4255130">
        <ele>324.8</ele>
        <time>2021-10-17T07:56:13Z</time>
      </trkpt>
      <trkpt lat="39.7364560" lon="-6.4256680">
        <ele>325.4</ele>
        <time>2021-10-17T07:56:17Z</time>
      </trkpt>
      <trkpt lat="39.7364460" lon="-6.4257000">
        <ele>325.4</ele>
        <time>2021-10-17T07:56:18Z</time>
      </trkpt>
      <trkpt lat="39.7363940" lon="-6.4258690">
        <ele>325.6</ele>
        <time>2021-10-17T07:56:23Z</time>
      </trkpt>
      <trkpt lat="39.7363680" lon="-6.4259780">
        <ele>326.0</ele>
        <time>2021-10-17T07:56:26Z</time>
      </trkpt>
      <trkpt lat="39.7363500" lon="-6.4260530">
        <ele>326.0</ele>
        <time>2021-10-17T07:56:28Z</time>
      </trkpt>
      <trkpt lat="39.7363500" lon="-6.4260530">
        <ele>326.0</ele>
        <time>2021-10-17T07:56:29Z</time>
      </trkpt>
      <trkpt lat="39.7363200" lon="-6.4261630">
        <ele>326.0</ele>
        <time>2021-10-17T07:56:31Z</time>
      </trkpt>
      <trkpt lat="39.7362930" lon="-6.4262800">
        <ele>326.2</ele>
        <time>2021-10-17T07:56:34Z</time>
      </trkpt>
      <trkpt lat="39.7362750" lon="-6.4264060">
        <ele>326.2</ele>
        <time>2021-10-17T07:56:37Z</time>
      </trkpt>
      <trkpt lat="39.7362660" lon="-6.4264490">
        <ele>326.2</ele>
        <time>2021-10-17T07:56:38Z</time>
      </trkpt>
      <trkpt lat="39.7361870" lon="-6.4266900">
        <ele>326.0</ele>
        <time>2021-10-17T07:56:45Z</time>
      </trkpt>
      <trkpt lat="39.7360160" lon="-6.4269060">
        <ele>326.0</ele>
        <time>2021-10-17T07:56:51Z</time>
      </trkpt>
      <trkpt lat="39.7359050" lon="-6.4269710">
        <ele>325.8</ele>
        <time>2021-10-17T07:56:56Z</time>
      </trkpt>
      <trkpt lat="39.7358250" lon="-6.4270250">
        <ele>326.0</ele>
        <time>2021-10-17T07:56:58Z</time>
      </trkpt>
      <trkpt lat="39.7357580" lon="-6.4270880">
        <ele>326.0</ele>
        <time>2021-10-17T07:57:01Z</time>
      </trkpt>
      <trkpt lat="39.7356950" lon="-6.4271970">
        <ele>326.6</ele>
        <time>2021-10-17T07:57:05Z</time>
      </trkpt>
      <trkpt lat="39.7356800" lon="-6.4272280">
        <ele>326.8</ele>
        <time>2021-10-17T07:57:06Z</time>
      </trkpt>
      <trkpt lat="39.7355790" lon="-6.4274590">
        <ele>327.0</ele>
        <time>2021-10-17T07:57:12Z</time>
      </trkpt>
      <trkpt lat="39.7355610" lon="-6.4275030">
        <ele>327.0</ele>
        <time>2021-10-17T07:57:13Z</time>
      </trkpt>
      <trkpt lat="39.7354870" lon="-6.4277460">
        <ele>326.4</ele>
        <time>2021-10-17T07:57:19Z</time>
      </trkpt>
      <trkpt lat="39.7354490" lon="-6.4279190">
        <ele>326.2</ele>
        <time>2021-10-17T07:57:22Z</time>
      </trkpt>
      <trkpt lat="39.7354410" lon="-6.4280130">
        <ele>325.6</ele>
        <time>2021-10-17T07:57:25Z</time>
      </trkpt>
      <trkpt lat="39.7354390" lon="-6.4280290">
        <ele>325.6</ele>
        <time>2021-10-17T07:57:26Z</time>
      </trkpt>
      <trkpt lat="39.7354380" lon="-6.4280350">
        <ele>325.4</ele>
        <time>2021-10-17T07:57:28Z</time>
      </trkpt>
      <trkpt lat="39.7354360" lon="-6.4280730">
        <ele>325.2</ele>
        <time>2021-10-17T07:57:45Z</time>
      </trkpt>
      <trkpt lat="39.7354370" lon="-6.4280910">
        <ele>325.2</ele>
        <time>2021-10-17T07:57:46Z</time>
      </trkpt>
      <trkpt lat="39.7354620" lon="-6.4282140">
        <ele>325.0</ele>
        <time>2021-10-17T07:57:53Z</time>
      </trkpt>
      <trkpt lat="39.7354610" lon="-6.4282340">
        <ele>325.0</ele>
        <time>2021-10-17T07:57:54Z</time>
      </trkpt>
      <trkpt lat="39.7354890" lon="-6.4283810">
        <ele>325.0</ele>
        <time>2021-10-17T07:57:59Z</time>
      </trkpt>
      <trkpt lat="39.7355400" lon="-6.4286230">
        <ele>324.8</ele>
        <time>2021-10-17T07:58:06Z</time>
      </trkpt>
      <trkpt lat="39.7355710" lon="-6.4288210">
        <ele>324.6</ele>
        <time>2021-10-17T07:58:11Z</time>
      </trkpt>
      <trkpt lat="39.7355840" lon="-6.4289480">
        <ele>324.6</ele>
        <time>2021-10-17T07:58:14Z</time>
      </trkpt>
      <trkpt lat="39.7355710" lon="-6.4290260">
        <ele>324.4</ele>
        <time>2021-10-17T07:58:16Z</time>
      </trkpt>
      <trkpt lat="39.7355350" lon="-6.4290970">
        <ele>324.4</ele>
        <time>2021-10-17T07:58:18Z</time>
      </trkpt>
      <trkpt lat="39.7354570" lon="-6.4292160">
        <ele>324.4</ele>
        <time>2021-10-17T07:58:22Z</time>
      </trkpt>
      <trkpt lat="39.7354300" lon="-6.4292270">
        <ele>324.2</ele>
        <time>2021-10-17T07:58:23Z</time>
      </trkpt>
      <trkpt lat="39.7352100" lon="-6.4293090">
        <ele>324.6</ele>
        <time>2021-10-17T07:58:31Z</time>
      </trkpt>
      <trkpt lat="39.7350970" lon="-6.4293590">
        <ele>325.0</ele>
        <time>2021-10-17T07:58:35Z</time>
      </trkpt>
      <trkpt lat="39.7350420" lon="-6.4293900">
        <ele>325.0</ele>
        <time>2021-10-17T07:58:37Z</time>
      </trkpt>
      <trkpt lat="39.7349650" lon="-6.4294270">
        <ele>325.2</ele>
        <time>2021-10-17T07:58:40Z</time>
      </trkpt>
      <trkpt lat="39.7349390" lon="-6.4294340">
        <ele>325.6</ele>
        <time>2021-10-17T07:58:42Z</time>
      </trkpt>
      <trkpt lat="39.7348150" lon="-6.4295720">
        <ele>325.8</ele>
        <time>2021-10-17T07:58:47Z</time>
      </trkpt>
      <trkpt lat="39.7346570" lon="-6.4297720">
        <ele>326.6</ele>
        <time>2021-10-17T07:58:56Z</time>
      </trkpt>
      <trkpt lat="39.7346380" lon="-6.4297950">
        <ele>326.8</ele>
        <time>2021-10-17T07:58:57Z</time>
      </trkpt>
      <trkpt lat="39.7345300" lon="-6.4298920">
        <ele>327.6</ele>
        <time>2021-10-17T07:59:03Z</time>
      </trkpt>
      <trkpt lat="39.7344900" lon="-6.4299240">
        <ele>327.6</ele>
        <time>2021-10-17T07:59:05Z</time>
      </trkpt>
      <trkpt lat="39.7344120" lon="-6.4301290">
        <ele>328.0</ele>
        <time>2021-10-17T07:59:11Z</time>
      </trkpt>
      <trkpt lat="39.7343580" lon="-6.4302720">
        <ele>327.8</ele>
        <time>2021-10-17T07:59:14Z</time>
      </trkpt>
      <trkpt lat="39.7343050" lon="-6.4303610">
        <ele>327.4</ele>
        <time>2021-10-17T07:59:16Z</time>
      </trkpt>
      <trkpt lat="39.7341790" lon="-6.4305900">
        <ele>326.6</ele>
        <time>2021-10-17T07:59:21Z</time>
      </trkpt>
      <trkpt lat="39.7341320" lon="-6.4306920">
        <ele>326.4</ele>
        <time>2021-10-17T07:59:23Z</time>
      </trkpt>
      <trkpt lat="39.7340190" lon="-6.4310030">
        <ele>326.2</ele>
        <time>2021-10-17T07:59:29Z</time>
      </trkpt>
      <trkpt lat="39.7339990" lon="-6.4310590">
        <ele>326.2</ele>
        <time>2021-10-17T07:59:30Z</time>
      </trkpt>
      <trkpt lat="39.7339520" lon="-6.4311580">
        <ele>326.2</ele>
        <time>2021-10-17T07:59:32Z</time>
      </trkpt>
      <trkpt lat="39.7338980" lon="-6.4312430">
        <ele>325.6</ele>
        <time>2021-10-17T07:59:34Z</time>
      </trkpt>
      <trkpt lat="39.7338340" lon="-6.4313100">
        <ele>324.8</ele>
        <time>2021-10-17T07:59:36Z</time>
      </trkpt>
      <trkpt lat="39.7337730" lon="-6.4313740">
        <ele>324.6</ele>
        <time>2021-10-17T07:59:38Z</time>
      </trkpt>
      <trkpt lat="39.7337230" lon="-6.4314490">
        <ele>324.4</ele>
        <time>2021-10-17T07:59:40Z</time>
      </trkpt>
      <trkpt lat="39.7337070" lon="-6.4314860">
        <ele>324.4</ele>
        <time>2021-10-17T07:59:41Z</time>
      </trkpt>
      <trkpt lat="39.7336410" lon="-6.4315790">
        <ele>324.2</ele>
        <time>2021-10-17T07:59:44Z</time>
      </trkpt>
      <trkpt lat="39.7335880" lon="-6.4316270">
        <ele>324.2</ele>
        <time>2021-10-17T07:59:46Z</time>
      </trkpt>
      <trkpt lat="39.7334800" lon="-6.4317630">
        <ele>324.0</ele>
        <time>2021-10-17T07:59:51Z</time>
      </trkpt>
      <trkpt lat="39.7333330" lon="-6.4319260">
        <ele>324.0</ele>
        <time>2021-10-17T07:59:57Z</time>
      </trkpt>
      <trkpt lat="39.7332240" lon="-6.4321030">
        <ele>324.0</ele>
        <time>2021-10-17T08:00:02Z</time>
      </trkpt>
      <trkpt lat="39.7330290" lon="-6.4323480">
        <ele>324.0</ele>
        <time>2021-10-17T08:00:10Z</time>
      </trkpt>
      <trkpt lat="39.7329390" lon="-6.4324680">
        <ele>323.8</ele>
        <time>2021-10-17T08:00:14Z</time>
      </trkpt>
      <trkpt lat="39.7328790" lon="-6.4325530">
        <ele>323.8</ele>
        <time>2021-10-17T08:00:17Z</time>
      </trkpt>
      <trkpt lat="39.7327470" lon="-6.4326510">
        <ele>324.4</ele>
        <time>2021-10-17T08:00:23Z</time>
      </trkpt>
      <trkpt lat="39.7327190" lon="-6.4326600">
        <ele>324.6</ele>
        <time>2021-10-17T08:00:24Z</time>
      </trkpt>
      <trkpt lat="39.7325220" lon="-6.4327630">
        <ele>325.4</ele>
        <time>2021-10-17T08:00:33Z</time>
      </trkpt>
      <trkpt lat="39.7323270" lon="-6.4328640">
        <ele>326.6</ele>
        <time>2021-10-17T08:00:42Z</time>
      </trkpt>
      <trkpt lat="39.7323060" lon="-6.4328780">
        <ele>326.6</ele>
        <time>2021-10-17T08:00:43Z</time>
      </trkpt>
      <trkpt lat="39.7321580" lon="-6.4329820">
        <ele>327.4</ele>
        <time>2021-10-17T08:00:50Z</time>
      </trkpt>
      <trkpt lat="39.7321060" lon="-6.4329970">
        <ele>327.4</ele>
        <time>2021-10-17T08:00:52Z</time>
      </trkpt>
      <trkpt lat="39.7320550" lon="-6.4330220">
        <ele>327.4</ele>
        <time>2021-10-17T08:00:54Z</time>
      </trkpt>
      <trkpt lat="39.7320130" lon="-6.4330430">
        <ele>327.4</ele>
        <time>2021-10-17T08:00:56Z</time>
      </trkpt>
      <trkpt lat="39.7319680" lon="-6.4330770">
        <ele>327.4</ele>
        <time>2021-10-17T08:00:58Z</time>
      </trkpt>
      <trkpt lat="39.7319190" lon="-6.4331200">
        <ele>327.4</ele>
        <time>2021-10-17T08:01:00Z</time>
      </trkpt>
      <trkpt lat="39.7318420" lon="-6.4331820">
        <ele>327.6</ele>
        <time>2021-10-17T08:01:03Z</time>
      </trkpt>
      <trkpt lat="39.7317720" lon="-6.4332530">
        <ele>327.6</ele>
        <time>2021-10-17T08:01:06Z</time>
      </trkpt>
      <trkpt lat="39.7317470" lon="-6.4332780">
        <ele>327.8</ele>
        <time>2021-10-17T08:01:07Z</time>
      </trkpt>
      <trkpt lat="39.7315900" lon="-6.4334650">
        <ele>327.8</ele>
        <time>2021-10-17T08:01:15Z</time>
      </trkpt>
      <trkpt lat="39.7314300" lon="-6.4336550">
        <ele>328.0</ele>
        <time>2021-10-17T08:01:23Z</time>
      </trkpt>
      <trkpt lat="39.7312830" lon="-6.4338340">
        <ele>327.8</ele>
        <time>2021-10-17T08:01:29Z</time>
      </trkpt>
      <trkpt lat="39.7311240" lon="-6.4339910">
        <ele>327.4</ele>
        <time>2021-10-17T08:01:35Z</time>
      </trkpt>
      <trkpt lat="39.7309860" lon="-6.4341490">
        <ele>327.2</ele>
        <time>2021-10-17T08:01:41Z</time>
      </trkpt>
      <trkpt lat="39.7308220" lon="-6.4342920">
        <ele>327.2</ele>
        <time>2021-10-17T08:01:47Z</time>
      </trkpt>
      <trkpt lat="39.7306610" lon="-6.4344520">
        <ele>327.0</ele>
        <time>2021-10-17T08:01:52Z</time>
      </trkpt>
      <trkpt lat="39.7306000" lon="-6.4345270">
        <ele>326.6</ele>
        <time>2021-10-17T08:01:54Z</time>
      </trkpt>
      <trkpt lat="39.7305340" lon="-6.4345990">
        <ele>326.4</ele>
        <time>2021-10-17T08:01:56Z</time>
      </trkpt>
      <trkpt lat="39.7304970" lon="-6.4346250">
        <ele>326.4</ele>
        <time>2021-10-17T08:01:57Z</time>
      </trkpt>
      <trkpt lat="39.7304600" lon="-6.4346500">
        <ele>326.4</ele>
        <time>2021-10-17T08:01:58Z</time>
      </trkpt>
      <trkpt lat="39.7302760" lon="-6.4347990">
        <ele>325.6</ele>
        <time>2021-10-17T08:02:03Z</time>
      </trkpt>
      <trkpt lat="39.7302420" lon="-6.4348270">
        <ele>325.4</ele>
        <time>2021-10-17T08:02:04Z</time>
      </trkpt>
      <trkpt lat="39.7302090" lon="-6.4348550">
        <ele>325.2</ele>
        <time>2021-10-17T08:02:05Z</time>
      </trkpt>
      <trkpt lat="39.7301060" lon="-6.4349370">
        <ele>325.0</ele>
        <time>2021-10-17T08:02:08Z</time>
      </trkpt>
      <trkpt lat="39.7300480" lon="-6.4349950">
        <ele>325.0</ele>
        <time>2021-10-17T08:02:10Z</time>
      </trkpt>
      <trkpt lat="39.7300230" lon="-6.4350320">
        <ele>324.8</ele>
        <time>2021-10-17T08:02:11Z</time>
      </trkpt>
      <trkpt lat="39.7298780" lon="-6.4351950">
        <ele>324.6</ele>
        <time>2021-10-17T08:02:16Z</time>
      </trkpt>
      <trkpt lat="39.7297910" lon="-6.4352760">
        <ele>324.4</ele>
        <time>2021-10-17T08:02:19Z</time>
      </trkpt>
      <trkpt lat="39.7297380" lon="-6.4353230">
        <ele>324.2</ele>
        <time>2021-10-17T08:02:21Z</time>
      </trkpt>
      <trkpt lat="39.7297080" lon="-6.4353340">
        <ele>324.2</ele>
        <time>2021-10-17T08:02:22Z</time>
      </trkpt>
      <trkpt lat="39.7295890" lon="-6.4354300">
        <ele>324.2</ele>
        <time>2021-10-17T08:02:27Z</time>
      </trkpt>
      <trkpt lat="39.7294530" lon="-6.4356090">
        <ele>324.8</ele>
        <time>2021-10-17T08:02:34Z</time>
      </trkpt>
      <trkpt lat="39.7293480" lon="-6.4357120">
        <ele>325.0</ele>
        <time>2021-10-17T08:02:38Z</time>
      </trkpt>
      <trkpt lat="39.7292760" lon="-6.4358020">
        <ele>325.0</ele>
        <time>2021-10-17T08:02:41Z</time>
      </trkpt>
      <trkpt lat="39.7291840" lon="-6.4359250">
        <ele>325.0</ele>
        <time>2021-10-17T08:02:45Z</time>
      </trkpt>
      <trkpt lat="39.7291340" lon="-6.4359940">
        <ele>325.0</ele>
        <time>2021-10-17T08:02:47Z</time>
      </trkpt>
      <trkpt lat="39.7290320" lon="-6.4361170">
        <ele>324.8</ele>
        <time>2021-10-17T08:02:51Z</time>
      </trkpt>
      <trkpt lat="39.7289870" lon="-6.4361870">
        <ele>324.8</ele>
        <time>2021-10-17T08:02:53Z</time>
      </trkpt>
      <trkpt lat="39.7288590" lon="-6.4363650">
        <ele>324.6</ele>
        <time>2021-10-17T08:02:58Z</time>
      </trkpt>
      <trkpt lat="39.7287230" lon="-6.4365520">
        <ele>324.2</ele>
        <time>2021-10-17T08:03:04Z</time>
      </trkpt>
      <trkpt lat="39.7285930" lon="-6.4367760">
        <ele>323.0</ele>
        <time>2021-10-17T08:03:11Z</time>
      </trkpt>
      <trkpt lat="39.7284980" lon="-6.4369160">
        <ele>321.8</ele>
        <time>2021-10-17T08:03:15Z</time>
      </trkpt>
      <trkpt lat="39.7284500" lon="-6.4370080">
        <ele>321.6</ele>
        <time>2021-10-17T08:03:17Z</time>
      </trkpt>
      <trkpt lat="39.7283660" lon="-6.4371880">
        <ele>320.6</ele>
        <time>2021-10-17T08:03:21Z</time>
      </trkpt>
      <trkpt lat="39.7282940" lon="-6.4373060">
        <ele>320.2</ele>
        <time>2021-10-17T08:03:24Z</time>
      </trkpt>
      <trkpt lat="39.7282150" lon="-6.4374390">
        <ele>319.6</ele>
        <time>2021-10-17T08:03:28Z</time>
      </trkpt>
      <trkpt lat="39.7281970" lon="-6.4374730">
        <ele>319.6</ele>
        <time>2021-10-17T08:03:29Z</time>
      </trkpt>
      <trkpt lat="39.7280840" lon="-6.4376930">
        <ele>319.4</ele>
        <time>2021-10-17T08:03:35Z</time>
      </trkpt>
      <trkpt lat="39.7279770" lon="-6.4378650">
        <ele>319.2</ele>
        <time>2021-10-17T08:03:40Z</time>
      </trkpt>
      <trkpt lat="39.7279590" lon="-6.4379000">
        <ele>319.2</ele>
        <time>2021-10-17T08:03:41Z</time>
      </trkpt>
      <trkpt lat="39.7278160" lon="-6.4380330">
        <ele>318.6</ele>
        <time>2021-10-17T08:03:46Z</time>
      </trkpt>
      <trkpt lat="39.7276510" lon="-6.4381750">
        <ele>318.4</ele>
        <time>2021-10-17T08:03:52Z</time>
      </trkpt>
      <trkpt lat="39.7274420" lon="-6.4383100">
        <ele>318.4</ele>
        <time>2021-10-17T08:03:59Z</time>
      </trkpt>
      <trkpt lat="39.7272900" lon="-6.4383910">
        <ele>318.4</ele>
        <time>2021-10-17T08:04:04Z</time>
      </trkpt>
      <trkpt lat="39.7272610" lon="-6.4384100">
        <ele>318.4</ele>
        <time>2021-10-17T08:04:05Z</time>
      </trkpt>
      <trkpt lat="39.7270330" lon="-6.4385620">
        <ele>318.0</ele>
        <time>2021-10-17T08:04:13Z</time>
      </trkpt>
      <trkpt lat="39.7269030" lon="-6.4386670">
        <ele>318.2</ele>
        <time>2021-10-17T08:04:18Z</time>
      </trkpt>
      <trkpt lat="39.7268590" lon="-6.4387140">
        <ele>318.2</ele>
        <time>2021-10-17T08:04:20Z</time>
      </trkpt>
      <trkpt lat="39.7267350" lon="-6.4388380">
        <ele>318.2</ele>
        <time>2021-10-17T08:04:25Z</time>
      </trkpt>
      <trkpt lat="39.7267110" lon="-6.4388650">
        <ele>318.4</ele>
        <time>2021-10-17T08:04:26Z</time>
      </trkpt>
      <trkpt lat="39.7265290" lon="-6.4390240">
        <ele>318.0</ele>
        <time>2021-10-17T08:04:32Z</time>
      </trkpt>
      <trkpt lat="39.7264220" lon="-6.4391390">
        <ele>318.0</ele>
        <time>2021-10-17T08:04:36Z</time>
      </trkpt>
      <trkpt lat="39.7263160" lon="-6.4392570">
        <ele>317.8</ele>
        <time>2021-10-17T08:04:40Z</time>
      </trkpt>
      <trkpt lat="39.7261700" lon="-6.4394180">
        <ele>318.0</ele>
        <time>2021-10-17T08:04:47Z</time>
      </trkpt>
      <trkpt lat="39.7260570" lon="-6.4396020">
        <ele>318.6</ele>
        <time>2021-10-17T08:04:52Z</time>
      </trkpt>
      <trkpt lat="39.7260360" lon="-6.4396230">
        <ele>318.6</ele>
        <time>2021-10-17T08:04:53Z</time>
      </trkpt>
      <trkpt lat="39.7259730" lon="-6.4397260">
        <ele>319.0</ele>
        <time>2021-10-17T08:04:58Z</time>
      </trkpt>
      <trkpt lat="39.7259130" lon="-6.4399080">
        <ele>319.4</ele>
        <time>2021-10-17T08:05:04Z</time>
      </trkpt>
      <trkpt lat="39.7259080" lon="-6.4399310">
        <ele>319.4</ele>
        <time>2021-10-17T08:05:05Z</time>
      </trkpt>
      <trkpt lat="39.7259030" lon="-6.4399540">
        <ele>319.4</ele>
        <time>2021-10-17T08:05:06Z</time>
      </trkpt>
      <trkpt lat="39.7258970" lon="-6.4399830">
        <ele>319.4</ele>
        <time>2021-10-17T08:05:10Z</time>
      </trkpt>
      <trkpt lat="39.7258860" lon="-6.4400410">
        <ele>319.2</ele>
        <time>2021-10-17T08:05:22Z</time>
      </trkpt>
      <trkpt lat="39.7258820" lon="-6.4400620">
        <ele>319.2</ele>
        <time>2021-10-17T08:05:23Z</time>
      </trkpt>
      <trkpt lat="39.7258740" lon="-6.4400830">
        <ele>319.2</ele>
        <time>2021-10-17T08:05:24Z</time>
      </trkpt>
      <trkpt lat="39.7258630" lon="-6.4401120">
        <ele>319.0</ele>
        <time>2021-10-17T08:05:28Z</time>
      </trkpt>
      <trkpt lat="39.7258340" lon="-6.4402150">
        <ele>318.8</ele>
        <time>2021-10-17T08:05:47Z</time>
      </trkpt>
      <trkpt lat="39.7257930" lon="-6.4403730">
        <ele>318.4</ele>
        <time>2021-10-17T08:05:51Z</time>
      </trkpt>
      <trkpt lat="39.7257760" lon="-6.4404660">
        <ele>318.0</ele>
        <time>2021-10-17T08:05:53Z</time>
      </trkpt>
      <trkpt lat="39.7257620" lon="-6.4406280">
        <ele>317.4</ele>
        <time>2021-10-17T08:05:57Z</time>
      </trkpt>
      <trkpt lat="39.7257600" lon="-6.4406720">
        <ele>317.2</ele>
        <time>2021-10-17T08:05:58Z</time>
      </trkpt>
      <trkpt lat="39.7257070" lon="-6.4408810">
        <ele>316.2</ele>
        <time>2021-10-17T08:06:03Z</time>
      </trkpt>
      <trkpt lat="39.7256890" lon="-6.4409290">
        <ele>316.2</ele>
        <time>2021-10-17T08:06:04Z</time>
      </trkpt>
      <trkpt lat="39.7256500" lon="-6.4411400">
        <ele>315.0</ele>
        <time>2021-10-17T08:06:08Z</time>
      </trkpt>
      <trkpt lat="39.7256420" lon="-6.4411930">
        <ele>314.8</ele>
        <time>2021-10-17T08:06:09Z</time>
      </trkpt>
      <trkpt lat="39.7256330" lon="-6.4412440">
        <ele>314.6</ele>
        <time>2021-10-17T08:06:10Z</time>
      </trkpt>
      <trkpt lat="39.7256130" lon="-6.4413460">
        <ele>314.0</ele>
        <time>2021-10-17T08:06:12Z</time>
      </trkpt>
      <trkpt lat="39.7255860" lon="-6.4414500">
        <ele>313.8</ele>
        <time>2021-10-17T08:06:14Z</time>
      </trkpt>
      <trkpt lat="39.7255610" lon="-6.4415590">
        <ele>313.2</ele>
        <time>2021-10-17T08:06:16Z</time>
      </trkpt>
      <trkpt lat="39.7255460" lon="-6.4416710">
        <ele>312.8</ele>
        <time>2021-10-17T08:06:18Z</time>
      </trkpt>
      <trkpt lat="39.7255350" lon="-6.4417210">
        <ele>312.6</ele>
        <time>2021-10-17T08:06:19Z</time>
      </trkpt>
      <trkpt lat="39.7255160" lon="-6.4417710">
        <ele>312.2</ele>
        <time>2021-10-17T08:06:20Z</time>
      </trkpt>
      <trkpt lat="39.7254220" lon="-6.4419120">
        <ele>311.6</ele>
        <time>2021-10-17T08:06:23Z</time>
      </trkpt>
      <trkpt lat="39.7253850" lon="-6.4419570">
        <ele>311.4</ele>
        <time>2021-10-17T08:06:24Z</time>
      </trkpt>
      <trkpt lat="39.7252810" lon="-6.4421040">
        <ele>310.6</ele>
        <time>2021-10-17T08:06:27Z</time>
      </trkpt>
      <trkpt lat="39.7251270" lon="-6.4422900">
        <ele>310.0</ele>
        <time>2021-10-17T08:06:31Z</time>
      </trkpt>
      <trkpt lat="39.7250130" lon="-6.4424280">
        <ele>309.4</ele>
        <time>2021-10-17T08:06:34Z</time>
      </trkpt>
      <trkpt lat="39.7249270" lon="-6.4424920">
        <ele>309.2</ele>
        <time>2021-10-17T08:06:36Z</time>
      </trkpt>
      <trkpt lat="39.7248810" lon="-6.4425110">
        <ele>308.8</ele>
        <time>2021-10-17T08:06:37Z</time>
      </trkpt>
      <trkpt lat="39.7248340" lon="-6.4425230">
        <ele>308.8</ele>
        <time>2021-10-17T08:06:38Z</time>
      </trkpt>
      <trkpt lat="39.7246940" lon="-6.4425380">
        <ele>308.4</ele>
        <time>2021-10-17T08:06:41Z</time>
      </trkpt>
      <trkpt lat="39.7246490" lon="-6.4425380">
        <ele>308.2</ele>
        <time>2021-10-17T08:06:42Z</time>
      </trkpt>
      <trkpt lat="39.7245160" lon="-6.4425170">
        <ele>307.8</ele>
        <time>2021-10-17T08:06:45Z</time>
      </trkpt>
      <trkpt lat="39.7243570" lon="-6.4424580">
        <ele>307.2</ele>
        <time>2021-10-17T08:06:49Z</time>
      </trkpt>
      <trkpt lat="39.7242720" lon="-6.4424350">
        <ele>307.2</ele>
        <time>2021-10-17T08:06:51Z</time>
      </trkpt>
      <trkpt lat="39.7241940" lon="-6.4424540">
        <ele>307.0</ele>
        <time>2021-10-17T08:06:53Z</time>
      </trkpt>
      <trkpt lat="39.7241340" lon="-6.4425160">
        <ele>307.0</ele>
        <time>2021-10-17T08:06:55Z</time>
      </trkpt>
      <trkpt lat="39.7241180" lon="-6.4425570">
        <ele>306.8</ele>
        <time>2021-10-17T08:06:56Z</time>
      </trkpt>
      <trkpt lat="39.7241260" lon="-6.4427250">
        <ele>307.0</ele>
        <time>2021-10-17T08:07:00Z</time>
      </trkpt>
      <trkpt lat="39.7241650" lon="-6.4429230">
        <ele>306.6</ele>
        <time>2021-10-17T08:07:04Z</time>
      </trkpt>
      <trkpt lat="39.7241570" lon="-6.4429750">
        <ele>306.4</ele>
        <time>2021-10-17T08:07:05Z</time>
      </trkpt>
      <trkpt lat="39.7241280" lon="-6.4430530">
        <ele>306.0</ele>
        <time>2021-10-17T08:07:07Z</time>
      </trkpt>
      <trkpt lat="39.7240880" lon="-6.4431780">
        <ele>305.6</ele>
        <time>2021-10-17T08:07:10Z</time>
      </trkpt>
      <trkpt lat="39.7240420" lon="-6.4433590">
        <ele>304.8</ele>
        <time>2021-10-17T08:07:14Z</time>
      </trkpt>
      <trkpt lat="39.7240250" lon="-6.4434690">
        <ele>304.2</ele>
        <time>2021-10-17T08:07:16Z</time>
      </trkpt>
      <trkpt lat="39.7239920" lon="-6.4435740">
        <ele>303.6</ele>
        <time>2021-10-17T08:07:18Z</time>
      </trkpt>
      <trkpt lat="39.7239410" lon="-6.4436630">
        <ele>303.0</ele>
        <time>2021-10-17T08:07:20Z</time>
      </trkpt>
      <trkpt lat="39.7239120" lon="-6.4437030">
        <ele>302.6</ele>
        <time>2021-10-17T08:07:21Z</time>
      </trkpt>
      <trkpt lat="39.7238760" lon="-6.4437390">
        <ele>302.6</ele>
        <time>2021-10-17T08:07:22Z</time>
      </trkpt>
      <trkpt lat="39.7238040" lon="-6.4437940">
        <ele>302.4</ele>
        <time>2021-10-17T08:07:24Z</time>
      </trkpt>
      <trkpt lat="39.7236950" lon="-6.4438670">
        <ele>301.8</ele>
        <time>2021-10-17T08:07:27Z</time>
      </trkpt>
      <trkpt lat="39.7236530" lon="-6.4438960">
        <ele>301.6</ele>
        <time>2021-10-17T08:07:28Z</time>
      </trkpt>
      <trkpt lat="39.7235260" lon="-6.4439910">
        <ele>301.4</ele>
        <time>2021-10-17T08:07:32Z</time>
      </trkpt>
      <trkpt lat="39.7233860" lon="-6.4441890">
        <ele>301.4</ele>
        <time>2021-10-17T08:07:37Z</time>
      </trkpt>
      <trkpt lat="39.7233690" lon="-6.4442390">
        <ele>301.2</ele>
        <time>2021-10-17T08:07:38Z</time>
      </trkpt>
      <trkpt lat="39.7233490" lon="-6.4443420">
        <ele>300.8</ele>
        <time>2021-10-17T08:07:40Z</time>
      </trkpt>
      <trkpt lat="39.7233480" lon="-6.4443930">
        <ele>300.6</ele>
        <time>2021-10-17T08:07:41Z</time>
      </trkpt>
      <trkpt lat="39.7233560" lon="-6.4444440">
        <ele>300.6</ele>
        <time>2021-10-17T08:07:42Z</time>
      </trkpt>
      <trkpt lat="39.7234070" lon="-6.4445530">
        <ele>300.2</ele>
        <time>2021-10-17T08:07:45Z</time>
      </trkpt>
      <trkpt lat="39.7235390" lon="-6.4446580">
        <ele>299.6</ele>
        <time>2021-10-17T08:07:50Z</time>
      </trkpt>
      <trkpt lat="39.7235860" lon="-6.4446760">
        <ele>299.4</ele>
        <time>2021-10-17T08:07:52Z</time>
      </trkpt>
      <trkpt lat="39.7236190" lon="-6.4446870">
        <ele>298.8</ele>
        <time>2021-10-17T08:07:56Z</time>
      </trkpt>
      <trkpt lat="39.7236190" lon="-6.4446870">
        <ele>298.6</ele>
        <time>2021-10-17T08:07:57Z</time>
      </trkpt>
      <trkpt lat="39.7236480" lon="-6.4446660">
        <ele>298.0</ele>
        <time>2021-10-17T08:08:41Z</time>
      </trkpt>
      <trkpt lat="39.7236700" lon="-6.4446480">
        <ele>298.0</ele>
        <time>2021-10-17T08:08:43Z</time>
      </trkpt>
      <trkpt lat="39.7236700" lon="-6.4446480">
        <ele>297.8</ele>
        <time>2021-10-17T08:08:45Z</time>
      </trkpt>
      <trkpt lat="39.7236960" lon="-6.4446490">
        <ele>297.6</ele>
        <time>2021-10-17T08:09:37Z</time>
      </trkpt>
      <trkpt lat="39.7237180" lon="-6.4446440">
        <ele>297.6</ele>
        <time>2021-10-17T08:09:38Z</time>
      </trkpt>
      <trkpt lat="39.7238220" lon="-6.4445780">
        <ele>297.6</ele>
        <time>2021-10-17T08:09:42Z</time>
      </trkpt>
      <trkpt lat="39.7238510" lon="-6.4445600">
        <ele>297.4</ele>
        <time>2021-10-17T08:09:43Z</time>
      </trkpt>
      <trkpt lat="39.7240160" lon="-6.4444910">
        <ele>297.0</ele>
        <time>2021-10-17T08:09:48Z</time>
      </trkpt>
      <trkpt lat="39.7240470" lon="-6.4444670">
        <ele>296.8</ele>
        <time>2021-10-17T08:09:49Z</time>
      </trkpt>
      <trkpt lat="39.7241780" lon="-6.4443810">
        <ele>295.6</ele>
        <time>2021-10-17T08:09:53Z</time>
      </trkpt>
      <trkpt lat="39.7243160" lon="-6.4443030">
        <ele>294.6</ele>
        <time>2021-10-17T08:09:57Z</time>
      </trkpt>
      <trkpt lat="39.7243510" lon="-6.4443030">
        <ele>294.4</ele>
        <time>2021-10-17T08:09:58Z</time>
      </trkpt>
      <trkpt lat="39.7244430" lon="-6.4443710">
        <ele>294.2</ele>
        <time>2021-10-17T08:10:01Z</time>
      </trkpt>
      <trkpt lat="39.7244710" lon="-6.4445560">
        <ele>293.4</ele>
        <time>2021-10-17T08:10:05Z</time>
      </trkpt>
      <trkpt lat="39.7244500" lon="-6.4446000">
        <ele>293.4</ele>
        <time>2021-10-17T08:10:06Z</time>
      </trkpt>
      <trkpt lat="39.7243720" lon="-6.4447170">
        <ele>292.2</ele>
        <time>2021-10-17T08:10:09Z</time>
      </trkpt>
      <trkpt lat="39.7243030" lon="-6.4449220">
        <ele>291.0</ele>
        <time>2021-10-17T08:10:14Z</time>
      </trkpt>
      <trkpt lat="39.7243790" lon="-6.4450110">
        <ele>290.4</ele>
        <time>2021-10-17T08:10:17Z</time>
      </trkpt>
      <trkpt lat="39.7244690" lon="-6.4450670">
        <ele>290.0</ele>
        <time>2021-10-17T08:10:20Z</time>
      </trkpt>
      <trkpt lat="39.7245440" lon="-6.4451170">
        <ele>289.8</ele>
        <time>2021-10-17T08:10:22Z</time>
      </trkpt>
      <trkpt lat="39.7245820" lon="-6.4451420">
        <ele>289.2</ele>
        <time>2021-10-17T08:10:23Z</time>
      </trkpt>
      <trkpt lat="39.7246160" lon="-6.4451780">
        <ele>289.0</ele>
        <time>2021-10-17T08:10:24Z</time>
      </trkpt>
      <trkpt lat="39.7246430" lon="-6.4452220">
        <ele>288.6</ele>
        <time>2021-10-17T08:10:25Z</time>
      </trkpt>
      <trkpt lat="39.7246630" lon="-6.4452700">
        <ele>288.4</ele>
        <time>2021-10-17T08:10:26Z</time>
      </trkpt>
      <trkpt lat="39.7247090" lon="-6.4454150">
        <ele>288.0</ele>
        <time>2021-10-17T08:10:29Z</time>
      </trkpt>
      <trkpt lat="39.7247170" lon="-6.4454610">
        <ele>287.8</ele>
        <time>2021-10-17T08:10:30Z</time>
      </trkpt>
      <trkpt lat="39.7247130" lon="-6.4455010">
        <ele>287.8</ele>
        <time>2021-10-17T08:10:31Z</time>
      </trkpt>
      <trkpt lat="39.7246030" lon="-6.4456310">
        <ele>286.6</ele>
        <time>2021-10-17T08:10:36Z</time>
      </trkpt>
      <trkpt lat="39.7245060" lon="-6.4457350">
        <ele>286.2</ele>
        <time>2021-10-17T08:10:40Z</time>
      </trkpt>
      <trkpt lat="39.7244560" lon="-6.4458210">
        <ele>286.0</ele>
        <time>2021-10-17T08:10:42Z</time>
      </trkpt>
      <trkpt lat="39.7244350" lon="-6.4458720">
        <ele>285.8</ele>
        <time>2021-10-17T08:10:43Z</time>
      </trkpt>
      <trkpt lat="39.7244050" lon="-6.4459850">
        <ele>285.6</ele>
        <time>2021-10-17T08:10:45Z</time>
      </trkpt>
      <trkpt lat="39.7243830" lon="-6.4460940">
        <ele>285.4</ele>
        <time>2021-10-17T08:10:47Z</time>
      </trkpt>
      <trkpt lat="39.7243750" lon="-6.4462380">
        <ele>285.0</ele>
        <time>2021-10-17T08:10:50Z</time>
      </trkpt>
      <trkpt lat="39.7243950" lon="-6.4463200">
        <ele>284.4</ele>
        <time>2021-10-17T08:10:52Z</time>
      </trkpt>
      <trkpt lat="39.7244560" lon="-6.4464200">
        <ele>283.8</ele>
        <time>2021-10-17T08:10:56Z</time>
      </trkpt>
      <trkpt lat="39.7244920" lon="-6.4464540">
        <ele>283.4</ele>
        <time>2021-10-17T08:10:58Z</time>
      </trkpt>
      <trkpt lat="39.7246020" lon="-6.4464880">
        <ele>282.8</ele>
        <time>2021-10-17T08:11:02Z</time>
      </trkpt>
      <trkpt lat="39.7247540" lon="-6.4464460">
        <ele>282.4</ele>
        <time>2021-10-17T08:11:07Z</time>
      </trkpt>
      <trkpt lat="39.7248280" lon="-6.4464580">
        <ele>282.2</ele>
        <time>2021-10-17T08:11:09Z</time>
      </trkpt>
      <trkpt lat="39.7249310" lon="-6.4465190">
        <ele>281.8</ele>
        <time>2021-10-17T08:11:12Z</time>
      </trkpt>
      <trkpt lat="39.7249900" lon="-6.4466270">
        <ele>281.6</ele>
        <time>2021-10-17T08:11:15Z</time>
      </trkpt>
      <trkpt lat="39.7250010" lon="-6.4466670">
        <ele>281.2</ele>
        <time>2021-10-17T08:11:16Z</time>
      </trkpt>
      <trkpt lat="39.7250370" lon="-6.4467280">
        <ele>280.8</ele>
        <time>2021-10-17T08:11:18Z</time>
      </trkpt>
      <trkpt lat="39.7250950" lon="-6.4467380">
        <ele>280.6</ele>
        <time>2021-10-17T08:11:20Z</time>
      </trkpt>
      <trkpt lat="39.7252310" lon="-6.4466550">
        <ele>280.2</ele>
        <time>2021-10-17T08:11:24Z</time>
      </trkpt>
      <trkpt lat="39.7252680" lon="-6.4466450">
        <ele>280.2</ele>
        <time>2021-10-17T08:11:25Z</time>
      </trkpt>
      <trkpt lat="39.7253650" lon="-6.4466890">
        <ele>279.8</ele>
        <time>2021-10-17T08:11:28Z</time>
      </trkpt>
      <trkpt lat="39.7253810" lon="-6.4467260">
        <ele>279.4</ele>
        <time>2021-10-17T08:11:29Z</time>
      </trkpt>
      <trkpt lat="39.7253860" lon="-6.4468120">
        <ele>279.0</ele>
        <time>2021-10-17T08:11:31Z</time>
      </trkpt>
      <trkpt lat="39.7253990" lon="-6.4470190">
        <ele>278.2</ele>
        <time>2021-10-17T08:11:35Z</time>
      </trkpt>
      <trkpt lat="39.7254010" lon="-6.4470700">
        <ele>278.0</ele>
        <time>2021-10-17T08:11:36Z</time>
      </trkpt>
      <trkpt lat="39.7253640" lon="-6.4472430">
        <ele>277.6</ele>
        <time>2021-10-17T08:11:40Z</time>
      </trkpt>
      <trkpt lat="39.7252710" lon="-6.4474070">
        <ele>276.8</ele>
        <time>2021-10-17T08:11:45Z</time>
      </trkpt>
      <trkpt lat="39.7252340" lon="-6.4474510">
        <ele>276.2</ele>
        <time>2021-10-17T08:11:47Z</time>
      </trkpt>
      <trkpt lat="39.7251770" lon="-6.4474540">
        <ele>275.8</ele>
        <time>2021-10-17T08:11:49Z</time>
      </trkpt>
      <trkpt lat="39.7250800" lon="-6.4474480">
        <ele>274.6</ele>
        <time>2021-10-17T08:11:52Z</time>
      </trkpt>
      <trkpt lat="39.7250250" lon="-6.4474700">
        <ele>274.2</ele>
        <time>2021-10-17T08:11:54Z</time>
      </trkpt>
      <trkpt lat="39.7249920" lon="-6.4474560">
        <ele>273.8</ele>
        <time>2021-10-17T08:11:56Z</time>
      </trkpt>
      <trkpt lat="39.7249900" lon="-6.4474500">
        <ele>273.8</ele>
        <time>2021-10-17T08:11:57Z</time>
      </trkpt>
      <trkpt lat="39.7249900" lon="-6.4474500">
        <ele>273.6</ele>
        <time>2021-10-17T08:11:59Z</time>
      </trkpt>
      <trkpt lat="39.7250210" lon="-6.4474370">
        <ele>274.0</ele>
        <time>2021-10-17T08:18:12Z</time>
      </trkpt>
      <trkpt lat="39.7250520" lon="-6.4474360">
        <ele>274.0</ele>
        <time>2021-10-17T08:18:14Z</time>
      </trkpt>
      <trkpt lat="39.7251370" lon="-6.4474400">
        <ele>273.8</ele>
        <time>2021-10-17T08:18:18Z</time>
      </trkpt>
      <trkpt lat="39.7252140" lon="-6.4474850">
        <ele>273.8</ele>
        <time>2021-10-17T08:18:22Z</time>
      </trkpt>
      <trkpt lat="39.7253160" lon="-6.4476710">
        <ele>274.0</ele>
        <time>2021-10-17T08:18:30Z</time>
      </trkpt>
      <trkpt lat="39.7254360" lon="-6.4478290">
        <ele>274.2</ele>
        <time>2021-10-17T08:18:36Z</time>
      </trkpt>
      <trkpt lat="39.7255570" lon="-6.4479290">
        <ele>273.8</ele>
        <time>2021-10-17T08:18:42Z</time>
      </trkpt>
      <trkpt lat="39.7257390" lon="-6.4479460">
        <ele>273.8</ele>
        <time>2021-10-17T08:18:48Z</time>
      </trkpt>
      <trkpt lat="39.7259290" lon="-6.4479230">
        <ele>274.2</ele>
        <time>2021-10-17T08:18:55Z</time>
      </trkpt>
      <trkpt lat="39.7259520" lon="-6.4479270">
        <ele>274.0</ele>
        <time>2021-10-17T08:18:56Z</time>
      </trkpt>
      <trkpt lat="39.7260760" lon="-6.4479520">
        <ele>275.0</ele>
        <time>2021-10-17T08:19:02Z</time>
      </trkpt>
      <trkpt lat="39.7261470" lon="-6.4479730">
        <ele>276.0</ele>
        <time>2021-10-17T08:19:06Z</time>
      </trkpt>
      <trkpt lat="39.7261970" lon="-6.4479770">
        <ele>276.8</ele>
        <time>2021-10-17T08:19:09Z</time>
      </trkpt>
      <trkpt lat="39.7262330" lon="-6.4479720">
        <ele>277.2</ele>
        <time>2021-10-17T08:19:11Z</time>
      </trkpt>
      <trkpt lat="39.7263050" lon="-6.4479860">
        <ele>277.8</ele>
        <time>2021-10-17T08:19:15Z</time>
      </trkpt>
      <trkpt lat="39.7263500" lon="-6.4480030">
        <ele>278.0</ele>
        <time>2021-10-17T08:19:17Z</time>
      </trkpt>
      <trkpt lat="39.7263980" lon="-6.4480290">
        <ele>278.2</ele>
        <time>2021-10-17T08:19:19Z</time>
      </trkpt>
      <trkpt lat="39.7264460" lon="-6.4480430">
        <ele>278.2</ele>
        <time>2021-10-17T08:19:21Z</time>
      </trkpt>
      <trkpt lat="39.7264650" lon="-6.4480600">
        <ele>278.2</ele>
        <time>2021-10-17T08:19:22Z</time>
      </trkpt>
      <trkpt lat="39.7266010" lon="-6.4481040">
        <ele>277.8</ele>
        <time>2021-10-17T08:19:27Z</time>
      </trkpt>
      <trkpt lat="39.7267050" lon="-6.4481620">
        <ele>276.0</ele>
        <time>2021-10-17T08:19:31Z</time>
      </trkpt>
      <trkpt lat="39.7267660" lon="-6.4481910">
        <ele>275.6</ele>
        <time>2021-10-17T08:19:33Z</time>
      </trkpt>
      <trkpt lat="39.7268280" lon="-6.4482170">
        <ele>274.6</ele>
        <time>2021-10-17T08:19:35Z</time>
      </trkpt>
      <trkpt lat="39.7269090" lon="-6.4482530">
        <ele>273.4</ele>
        <time>2021-10-17T08:19:38Z</time>
      </trkpt>
      <trkpt lat="39.7269610" lon="-6.4482840">
        <ele>272.2</ele>
        <time>2021-10-17T08:19:40Z</time>
      </trkpt>
      <trkpt lat="39.7270700" lon="-6.4483240">
        <ele>271.0</ele>
        <time>2021-10-17T08:19:43Z</time>
      </trkpt>
      <trkpt lat="39.7271120" lon="-6.4483330">
        <ele>270.6</ele>
        <time>2021-10-17T08:19:44Z</time>
      </trkpt>
      <trkpt lat="39.7271510" lon="-6.4483540">
        <ele>270.4</ele>
        <time>2021-10-17T08:19:45Z</time>
      </trkpt>
      <trkpt lat="39.7271890" lon="-6.4483770">
        <ele>270.0</ele>
        <time>2021-10-17T08:19:46Z</time>
      </trkpt>
      <trkpt lat="39.7273170" lon="-6.4484420">
        <ele>268.6</ele>
        <time>2021-10-17T08:19:49Z</time>
      </trkpt>
      <trkpt lat="39.7273570" lon="-6.4484670">
        <ele>268.2</ele>
        <time>2021-10-17T08:19:50Z</time>
      </trkpt>
      <trkpt lat="39.7274340" lon="-6.4485280">
        <ele>267.4</ele>
        <time>2021-10-17T08:19:52Z</time>
      </trkpt>
      <trkpt lat="39.7275010" lon="-6.4485990">
        <ele>266.6</ele>
        <time>2021-10-17T08:19:54Z</time>
      </trkpt>
      <trkpt lat="39.7275370" lon="-6.4486220">
        <ele>266.2</ele>
        <time>2021-10-17T08:19:55Z</time>
      </trkpt>
      <trkpt lat="39.7276020" lon="-6.4486190">
        <ele>265.2</ele>
        <time>2021-10-17T08:19:57Z</time>
      </trkpt>
      <trkpt lat="39.7277030" lon="-6.4485700">
        <ele>264.0</ele>
        <time>2021-10-17T08:20:00Z</time>
      </trkpt>
      <trkpt lat="39.7277740" lon="-6.4485680">
        <ele>263.4</ele>
        <time>2021-10-17T08:20:02Z</time>
      </trkpt>
      <trkpt lat="39.7278310" lon="-6.4485870">
        <ele>262.6</ele>
        <time>2021-10-17T08:20:04Z</time>
      </trkpt>
      <trkpt lat="39.7278470" lon="-6.4486050">
        <ele>262.4</ele>
        <time>2021-10-17T08:20:05Z</time>
      </trkpt>
      <trkpt lat="39.7278500" lon="-6.4486240">
        <ele>261.8</ele>
        <time>2021-10-17T08:20:06Z</time>
      </trkpt>
      <trkpt lat="39.7278510" lon="-6.4486470">
        <ele>261.6</ele>
        <time>2021-10-17T08:20:07Z</time>
      </trkpt>
      <trkpt lat="39.7278500" lon="-6.4487890">
        <ele>260.2</ele>
        <time>2021-10-17T08:20:11Z</time>
      </trkpt>
      <trkpt lat="39.7278470" lon="-6.4489080">
        <ele>259.0</ele>
        <time>2021-10-17T08:20:15Z</time>
      </trkpt>
      <trkpt lat="39.7278470" lon="-6.4489080">
        <ele>258.8</ele>
        <time>2021-10-17T08:20:16Z</time>
      </trkpt>
      <trkpt lat="39.7278470" lon="-6.4489080">
        <ele>258.2</ele>
        <time>2021-10-17T08:20:17Z</time>
      </trkpt>
      <trkpt lat="39.7278390" lon="-6.4489280">
        <ele>257.6</ele>
        <time>2021-10-17T08:20:41Z</time>
      </trkpt>
      <trkpt lat="39.7278280" lon="-6.4489510">
        <ele>257.6</ele>
        <time>2021-10-17T08:20:42Z</time>
      </trkpt>
      <trkpt lat="39.7278120" lon="-6.4489720">
        <ele>257.6</ele>
        <time>2021-10-17T08:20:43Z</time>
      </trkpt>
      <trkpt lat="39.7277920" lon="-6.4489830">
        <ele>257.6</ele>
        <time>2021-10-17T08:20:44Z</time>
      </trkpt>
      <trkpt lat="39.7277220" lon="-6.4489850">
        <ele>257.6</ele>
        <time>2021-10-17T08:20:47Z</time>
      </trkpt>
      <trkpt lat="39.7276400" lon="-6.4489780">
        <ele>258.0</ele>
        <time>2021-10-17T08:20:51Z</time>
      </trkpt>
      <trkpt lat="39.7275700" lon="-6.4489610">
        <ele>258.4</ele>
        <time>2021-10-17T08:20:55Z</time>
      </trkpt>
      <trkpt lat="39.7275360" lon="-6.4489600">
        <ele>258.6</ele>
        <time>2021-10-17T08:20:57Z</time>
      </trkpt>
      <trkpt lat="39.7275190" lon="-6.4489570">
        <ele>258.6</ele>
        <time>2021-10-17T08:20:58Z</time>
      </trkpt>
      <trkpt lat="39.7274520" lon="-6.4489410">
        <ele>259.0</ele>
        <time>2021-10-17T08:21:04Z</time>
      </trkpt>
      <trkpt lat="39.7274520" lon="-6.4489410">
        <ele>259.0</ele>
        <time>2021-10-17T08:21:06Z</time>
      </trkpt>
      <trkpt lat="39.7273790" lon="-6.4488910">
        <ele>259.6</ele>
        <time>2021-10-17T08:22:23Z</time>
      </trkpt>
      <trkpt lat="39.7273510" lon="-6.4488830">
        <ele>259.6</ele>
        <time>2021-10-17T08:22:24Z</time>
      </trkpt>
      <trkpt lat="39.7272850" lon="-6.4488600">
        <ele>259.6</ele>
        <time>2021-10-17T08:22:27Z</time>
      </trkpt>
      <trkpt lat="39.7272420" lon="-6.4488490">
        <ele>259.8</ele>
        <time>2021-10-17T08:22:29Z</time>
      </trkpt>
      <trkpt lat="39.7271960" lon="-6.4488370">
        <ele>260.2</ele>
        <time>2021-10-17T08:22:31Z</time>
      </trkpt>
      <trkpt lat="39.7271130" lon="-6.4488090">
        <ele>260.6</ele>
        <time>2021-10-17T08:22:35Z</time>
      </trkpt>
      <trkpt lat="39.7270760" lon="-6.4487960">
        <ele>260.8</ele>
        <time>2021-10-17T08:22:37Z</time>
      </trkpt>
      <trkpt lat="39.7270320" lon="-6.4487850">
        <ele>261.0</ele>
        <time>2021-10-17T08:22:39Z</time>
      </trkpt>
      <trkpt lat="39.7269690" lon="-6.4487690">
        <ele>261.4</ele>
        <time>2021-10-17T08:22:42Z</time>
      </trkpt>
      <trkpt lat="39.7268600" lon="-6.4487310">
        <ele>261.6</ele>
        <time>2021-10-17T08:22:47Z</time>
      </trkpt>
      <trkpt lat="39.7268380" lon="-6.4487270">
        <ele>261.6</ele>
        <time>2021-10-17T08:22:48Z</time>
      </trkpt>
      <trkpt lat="39.7267630" lon="-6.4487040">
        <ele>262.0</ele>
        <time>2021-10-17T08:22:51Z</time>
      </trkpt>
      <trkpt lat="39.7266630" lon="-6.4486760">
        <ele>262.4</ele>
        <time>2021-10-17T08:22:55Z</time>
      </trkpt>
      <trkpt lat="39.7265870" lon="-6.4486540">
        <ele>262.4</ele>
        <time>2021-10-17T08:22:58Z</time>
      </trkpt>
      <trkpt lat="39.7265590" lon="-6.4486470">
        <ele>262.6</ele>
        <time>2021-10-17T08:22:59Z</time>
      </trkpt>
      <trkpt lat="39.7265070" lon="-6.4486380">
        <ele>262.6</ele>
        <time>2021-10-17T08:23:01Z</time>
      </trkpt>
      <trkpt lat="39.7263680" lon="-6.4485960">
        <ele>262.8</ele>
        <time>2021-10-17T08:23:06Z</time>
      </trkpt>
      <trkpt lat="39.7262720" lon="-6.4485780">
        <ele>262.8</ele>
        <time>2021-10-17T08:23:10Z</time>
      </trkpt>
      <trkpt lat="39.7262570" lon="-6.4485780">
        <ele>262.6</ele>
        <time>2021-10-17T08:23:13Z</time>
      </trkpt>
      <trkpt lat="39.7261900" lon="-6.4485570">
        <ele>262.4</ele>
        <time>2021-10-17T08:23:24Z</time>
      </trkpt>
      <trkpt lat="39.7260300" lon="-6.4485110">
        <ele>262.2</ele>
        <time>2021-10-17T08:23:29Z</time>
      </trkpt>
      <trkpt lat="39.7257120" lon="-6.4484210">
        <ele>261.8</ele>
        <time>2021-10-17T08:23:36Z</time>
      </trkpt>
      <trkpt lat="39.7256530" lon="-6.4484050">
        <ele>261.6</ele>
        <time>2021-10-17T08:23:37Z</time>
      </trkpt>
      <trkpt lat="39.7253440" lon="-6.4483160">
        <ele>260.4</ele>
        <time>2021-10-17T08:23:42Z</time>
      </trkpt>
      <trkpt lat="39.7249920" lon="-6.4482190">
        <ele>259.2</ele>
        <time>2021-10-17T08:23:47Z</time>
      </trkpt>
      <trkpt lat="39.7247470" lon="-6.4481460">
        <ele>258.2</ele>
        <time>2021-10-17T08:23:50Z</time>
      </trkpt>
      <trkpt lat="39.7246020" lon="-6.4481050">
        <ele>257.2</ele>
        <time>2021-10-17T08:23:52Z</time>
      </trkpt>
      <trkpt lat="39.7245200" lon="-6.4480860">
        <ele>256.6</ele>
        <time>2021-10-17T08:23:53Z</time>
      </trkpt>
      <trkpt lat="39.7242590" lon="-6.4480500">
        <ele>256.0</ele>
        <time>2021-10-17T08:23:56Z</time>
      </trkpt>
      <trkpt lat="39.7241690" lon="-6.4480550">
        <ele>255.4</ele>
        <time>2021-10-17T08:23:57Z</time>
      </trkpt>
      <trkpt lat="39.7238810" lon="-6.4481330">
        <ele>254.6</ele>
        <time>2021-10-17T08:24:00Z</time>
      </trkpt>
      <trkpt lat="39.7238100" lon="-6.4481610">
        <ele>254.0</ele>
        <time>2021-10-17T08:24:01Z</time>
      </trkpt>
      <trkpt lat="39.7237220" lon="-6.4482010">
        <ele>253.0</ele>
        <time>2021-10-17T08:24:02Z</time>
      </trkpt>
      <trkpt lat="39.7234560" lon="-6.4483150">
        <ele>251.8</ele>
        <time>2021-10-17T08:24:05Z</time>
      </trkpt>
      <trkpt lat="39.7232720" lon="-6.4483960">
        <ele>251.0</ele>
        <time>2021-10-17T08:24:07Z</time>
      </trkpt>
      <trkpt lat="39.7231810" lon="-6.4484350">
        <ele>250.2</ele>
        <time>2021-10-17T08:24:08Z</time>
      </trkpt>
      <trkpt lat="39.7228990" lon="-6.4485570">
        <ele>248.8</ele>
        <time>2021-10-17T08:24:11Z</time>
      </trkpt>
      <trkpt lat="39.7225930" lon="-6.4486940">
        <ele>247.4</ele>
        <time>2021-10-17T08:24:14Z</time>
      </trkpt>
      <trkpt lat="39.7223260" lon="-6.4488170">
        <ele>246.0</ele>
        <time>2021-10-17T08:24:17Z</time>
      </trkpt>
      <trkpt lat="39.7222290" lon="-6.4488620">
        <ele>245.6</ele>
        <time>2021-10-17T08:24:18Z</time>
      </trkpt>
      <trkpt lat="39.7220360" lon="-6.4489490">
        <ele>244.6</ele>
        <time>2021-10-17T08:24:20Z</time>
      </trkpt>
      <trkpt lat="39.7218430" lon="-6.4490300">
        <ele>243.2</ele>
        <time>2021-10-17T08:24:22Z</time>
      </trkpt>
      <trkpt lat="39.7214600" lon="-6.4491530">
        <ele>241.4</ele>
        <time>2021-10-17T08:24:26Z</time>
      </trkpt>
      <trkpt lat="39.7213630" lon="-6.4491620">
        <ele>240.8</ele>
        <time>2021-10-17T08:24:27Z</time>
      </trkpt>
      <trkpt lat="39.7212670" lon="-6.4491600">
        <ele>240.0</ele>
        <time>2021-10-17T08:24:28Z</time>
      </trkpt>
      <trkpt lat="39.7210750" lon="-6.4491230">
        <ele>239.2</ele>
        <time>2021-10-17T08:24:30Z</time>
      </trkpt>
      <trkpt lat="39.7209810" lon="-6.4490910">
        <ele>238.8</ele>
        <time>2021-10-17T08:24:31Z</time>
      </trkpt>
      <trkpt lat="39.7207980" lon="-6.4489970">
        <ele>238.0</ele>
        <time>2021-10-17T08:24:33Z</time>
      </trkpt>
      <trkpt lat="39.7207090" lon="-6.4489390">
        <ele>237.2</ele>
        <time>2021-10-17T08:24:34Z</time>
      </trkpt>
      <trkpt lat="39.7206030" lon="-6.4488670">
        <ele>236.4</ele>
        <time>2021-10-17T08:24:35Z</time>
      </trkpt>
      <trkpt lat="39.7204420" lon="-6.4487610">
        <ele>235.4</ele>
        <time>2021-10-17T08:24:37Z</time>
      </trkpt>
      <trkpt lat="39.7202670" lon="-6.4486490">
        <ele>234.2</ele>
        <time>2021-10-17T08:24:39Z</time>
      </trkpt>
      <trkpt lat="39.7200870" lon="-6.4485650">
        <ele>233.4</ele>
        <time>2021-10-17T08:24:41Z</time>
      </trkpt>
      <trkpt lat="39.7199980" lon="-6.4485410">
        <ele>232.6</ele>
        <time>2021-10-17T08:24:42Z</time>
      </trkpt>
      <trkpt lat="39.7197390" lon="-6.4485290">
        <ele>231.4</ele>
        <time>2021-10-17T08:24:45Z</time>
      </trkpt>
      <trkpt lat="39.7195150" lon="-6.4485950">
        <ele>230.2</ele>
        <time>2021-10-17T08:24:48Z</time>
      </trkpt>
      <trkpt lat="39.7194480" lon="-6.4486230">
        <ele>230.0</ele>
        <time>2021-10-17T08:24:49Z</time>
      </trkpt>
      <trkpt lat="39.7190980" lon="-6.4487790">
        <ele>229.4</ele>
        <time>2021-10-17T08:24:55Z</time>
      </trkpt>
      <trkpt lat="39.7187560" lon="-6.4489350">
        <ele>229.4</ele>
        <time>2021-10-17T08:25:02Z</time>
      </trkpt>
      <trkpt lat="39.7184940" lon="-6.4490490">
        <ele>229.4</ele>
        <time>2021-10-17T08:25:08Z</time>
      </trkpt>
      <trkpt lat="39.7183250" lon="-6.4491320">
        <ele>229.6</ele>
        <time>2021-10-17T08:25:12Z</time>
      </trkpt>
      <trkpt lat="39.7182000" lon="-6.4491930">
        <ele>229.4</ele>
        <time>2021-10-17T08:25:15Z</time>
      </trkpt>
      <trkpt lat="39.7181570" lon="-6.4492100">
        <ele>229.4</ele>
        <time>2021-10-17T08:25:16Z</time>
      </trkpt>
      <trkpt lat="39.7178950" lon="-6.4493290">
        <ele>229.2</ele>
        <time>2021-10-17T08:25:22Z</time>
      </trkpt>
      <trkpt lat="39.7178480" lon="-6.4493530">
        <ele>229.2</ele>
        <time>2021-10-17T08:25:23Z</time>
      </trkpt>
      <trkpt lat="39.7175780" lon="-6.4494810">
        <ele>229.2</ele>
        <time>2021-10-17T08:25:29Z</time>
      </trkpt>
      <trkpt lat="39.7175340" lon="-6.4495020">
        <ele>229.2</ele>
        <time>2021-10-17T08:25:30Z</time>
      </trkpt>
      <trkpt lat="39.7170710" lon="-6.4497070">
        <ele>229.0</ele>
        <time>2021-10-17T08:25:40Z</time>
      </trkpt>
      <trkpt lat="39.7170320" lon="-6.4497240">
        <ele>229.0</ele>
        <time>2021-10-17T08:25:41Z</time>
      </trkpt>
      <trkpt lat="39.7166920" lon="-6.4498880">
        <ele>228.8</ele>
        <time>2021-10-17T08:25:48Z</time>
      </trkpt>
      <trkpt lat="39.7165820" lon="-6.4499420">
        <ele>228.6</ele>
        <time>2021-10-17T08:25:50Z</time>
      </trkpt>
      <trkpt lat="39.7161520" lon="-6.4501420">
        <ele>228.8</ele>
        <time>2021-10-17T08:25:59Z</time>
      </trkpt>
      <trkpt lat="39.7159610" lon="-6.4502320">
        <ele>228.8</ele>
        <time>2021-10-17T08:26:03Z</time>
      </trkpt>
      <trkpt lat="39.7157830" lon="-6.4503060">
        <ele>229.0</ele>
        <time>2021-10-17T08:26:07Z</time>
      </trkpt>
      <trkpt lat="39.7155730" lon="-6.4504070">
        <ele>229.2</ele>
        <time>2021-10-17T08:26:12Z</time>
      </trkpt>
      <trkpt lat="39.7153660" lon="-6.4505180">
        <ele>229.8</ele>
        <time>2021-10-17T08:26:17Z</time>
      </trkpt>
      <trkpt lat="39.7152400" lon="-6.4506080">
        <ele>230.0</ele>
        <time>2021-10-17T08:26:20Z</time>
      </trkpt>
      <trkpt lat="39.7151780" lon="-6.4506620">
        <ele>230.0</ele>
        <time>2021-10-17T08:26:22Z</time>
      </trkpt>
      <trkpt lat="39.7150850" lon="-6.4507710">
        <ele>230.4</ele>
        <time>2021-10-17T08:26:25Z</time>
      </trkpt>
      <trkpt lat="39.7150570" lon="-6.4508080">
        <ele>230.6</ele>
        <time>2021-10-17T08:26:26Z</time>
      </trkpt>
      <trkpt lat="39.7149840" lon="-6.4509420">
        <ele>230.8</ele>
        <time>2021-10-17T08:26:29Z</time>
      </trkpt>
      <trkpt lat="39.7148630" lon="-6.4512100">
        <ele>231.0</ele>
        <time>2021-10-17T08:26:35Z</time>
      </trkpt>
      <trkpt lat="39.7148440" lon="-6.4512520">
        <ele>231.2</ele>
        <time>2021-10-17T08:26:36Z</time>
      </trkpt>
      <trkpt lat="39.7148090" lon="-6.4513320">
        <ele>231.4</ele>
        <time>2021-10-17T08:26:38Z</time>
      </trkpt>
      <trkpt lat="39.7147440" lon="-6.4515040">
        <ele>232.0</ele>
        <time>2021-10-17T08:26:42Z</time>
      </trkpt>
      <trkpt lat="39.7146980" lon="-6.4516260">
        <ele>232.2</ele>
        <time>2021-10-17T08:26:45Z</time>
      </trkpt>
      <trkpt lat="39.7146380" lon="-6.4517630">
        <ele>232.6</ele>
        <time>2021-10-17T08:26:48Z</time>
      </trkpt>
      <trkpt lat="39.7145220" lon="-6.4519700">
        <ele>233.0</ele>
        <time>2021-10-17T08:26:53Z</time>
      </trkpt>
      <trkpt lat="39.7144350" lon="-6.4520920">
        <ele>233.4</ele>
        <time>2021-10-17T08:26:57Z</time>
      </trkpt>
      <trkpt lat="39.7144160" lon="-6.4521180">
        <ele>233.6</ele>
        <time>2021-10-17T08:26:58Z</time>
      </trkpt>
      <trkpt lat="39.7143760" lon="-6.4521720">
        <ele>233.6</ele>
        <time>2021-10-17T08:27:00Z</time>
      </trkpt>
      <trkpt lat="39.7143240" lon="-6.4522310">
        <ele>233.8</ele>
        <time>2021-10-17T08:27:02Z</time>
      </trkpt>
      <trkpt lat="39.7141480" lon="-6.4523690">
        <ele>234.0</ele>
        <time>2021-10-17T08:27:08Z</time>
      </trkpt>
      <trkpt lat="39.7140360" lon="-6.4524330">
        <ele>234.2</ele>
        <time>2021-10-17T08:27:11Z</time>
      </trkpt>
      <trkpt lat="39.7138420" lon="-6.4525140">
        <ele>234.6</ele>
        <time>2021-10-17T08:27:16Z</time>
      </trkpt>
      <trkpt lat="39.7138030" lon="-6.4525320">
        <ele>234.6</ele>
        <time>2021-10-17T08:27:17Z</time>
      </trkpt>
      <trkpt lat="39.7134560" lon="-6.4526270">
        <ele>235.0</ele>
        <time>2021-10-17T08:27:26Z</time>
      </trkpt>
      <trkpt lat="39.7133020" lon="-6.4526610">
        <ele>235.2</ele>
        <time>2021-10-17T08:27:30Z</time>
      </trkpt>
      <trkpt lat="39.7132020" lon="-6.4526900">
        <ele>235.6</ele>
        <time>2021-10-17T08:27:33Z</time>
      </trkpt>
      <trkpt lat="39.7131660" lon="-6.4527000">
        <ele>235.8</ele>
        <time>2021-10-17T08:27:34Z</time>
      </trkpt>
      <trkpt lat="39.7131220" lon="-6.4527090">
        <ele>235.8</ele>
        <time>2021-10-17T08:27:35Z</time>
      </trkpt>
      <trkpt lat="39.7128660" lon="-6.4528050">
        <ele>236.2</ele>
        <time>2021-10-17T08:27:42Z</time>
      </trkpt>
      <trkpt lat="39.7126760" lon="-6.4529250">
        <ele>236.8</ele>
        <time>2021-10-17T08:27:47Z</time>
      </trkpt>
      <trkpt lat="39.7125790" lon="-6.4530070">
        <ele>237.2</ele>
        <time>2021-10-17T08:27:50Z</time>
      </trkpt>
      <trkpt lat="39.7124140" lon="-6.4532000">
        <ele>237.8</ele>
        <time>2021-10-17T08:27:56Z</time>
      </trkpt>
      <trkpt lat="39.7123700" lon="-6.4532620">
        <ele>238.2</ele>
        <time>2021-10-17T08:27:58Z</time>
      </trkpt>
      <trkpt lat="39.7122570" lon="-6.4534210">
        <ele>239.0</ele>
        <time>2021-10-17T08:28:03Z</time>
      </trkpt>
      <trkpt lat="39.7121670" lon="-6.4535500">
        <ele>239.6</ele>
        <time>2021-10-17T08:28:07Z</time>
      </trkpt>
      <trkpt lat="39.7120530" lon="-6.4537060">
        <ele>240.2</ele>
        <time>2021-10-17T08:28:12Z</time>
      </trkpt>
      <trkpt lat="39.7119630" lon="-6.4538290">
        <ele>240.8</ele>
        <time>2021-10-17T08:28:16Z</time>
      </trkpt>
      <trkpt lat="39.7118090" lon="-6.4540480">
        <ele>241.2</ele>
        <time>2021-10-17T08:28:23Z</time>
      </trkpt>
      <trkpt lat="39.7116900" lon="-6.4542120">
        <ele>242.0</ele>
        <time>2021-10-17T08:28:28Z</time>
      </trkpt>
      <trkpt lat="39.7116660" lon="-6.4542430">
        <ele>242.0</ele>
        <time>2021-10-17T08:28:29Z</time>
      </trkpt>
      <trkpt lat="39.7115940" lon="-6.4543370">
        <ele>242.4</ele>
        <time>2021-10-17T08:28:32Z</time>
      </trkpt>
      <trkpt lat="39.7114410" lon="-6.4545090">
        <ele>242.8</ele>
        <time>2021-10-17T08:28:38Z</time>
      </trkpt>
      <trkpt lat="39.7113450" lon="-6.4545970">
        <ele>243.2</ele>
        <time>2021-10-17T08:28:41Z</time>
      </trkpt>
      <trkpt lat="39.7112920" lon="-6.4546430">
        <ele>243.4</ele>
        <time>2021-10-17T08:28:43Z</time>
      </trkpt>
      <trkpt lat="39.7111710" lon="-6.4547360">
        <ele>243.8</ele>
        <time>2021-10-17T08:28:47Z</time>
      </trkpt>
      <trkpt lat="39.7110140" lon="-6.4548560">
        <ele>244.4</ele>
        <time>2021-10-17T08:28:52Z</time>
      </trkpt>
      <trkpt lat="39.7108980" lon="-6.4549480">
        <ele>244.6</ele>
        <time>2021-10-17T08:28:56Z</time>
      </trkpt>
      <trkpt lat="39.7108090" lon="-6.4550160">
        <ele>245.0</ele>
        <time>2021-10-17T08:28:59Z</time>
      </trkpt>
      <trkpt lat="39.7107110" lon="-6.4550870">
        <ele>245.2</ele>
        <time>2021-10-17T08:29:02Z</time>
      </trkpt>
      <trkpt lat="39.7106490" lon="-6.4551310">
        <ele>245.4</ele>
        <time>2021-10-17T08:29:04Z</time>
      </trkpt>
      <trkpt lat="39.7105070" lon="-6.4552320">
        <ele>246.0</ele>
        <time>2021-10-17T08:29:09Z</time>
      </trkpt>
      <trkpt lat="39.7103670" lon="-6.4553340">
        <ele>246.6</ele>
        <time>2021-10-17T08:29:14Z</time>
      </trkpt>
      <trkpt lat="39.7103060" lon="-6.4553820">
        <ele>246.8</ele>
        <time>2021-10-17T08:29:16Z</time>
      </trkpt>
      <trkpt lat="39.7102230" lon="-6.4554420">
        <ele>247.0</ele>
        <time>2021-10-17T08:29:19Z</time>
      </trkpt>
      <trkpt lat="39.7102000" lon="-6.4554600">
        <ele>247.0</ele>
        <time>2021-10-17T08:29:20Z</time>
      </trkpt>
      <trkpt lat="39.7100570" lon="-6.4555560">
        <ele>247.6</ele>
        <time>2021-10-17T08:29:25Z</time>
      </trkpt>
      <trkpt lat="39.7099500" lon="-6.4556320">
        <ele>247.8</ele>
        <time>2021-10-17T08:29:29Z</time>
      </trkpt>
      <trkpt lat="39.7098900" lon="-6.4556780">
        <ele>248.2</ele>
        <time>2021-10-17T08:29:31Z</time>
      </trkpt>
      <trkpt lat="39.7097560" lon="-6.4557780">
        <ele>248.6</ele>
        <time>2021-10-17T08:29:36Z</time>
      </trkpt>
      <trkpt lat="39.7096730" lon="-6.4558380">
        <ele>248.8</ele>
        <time>2021-10-17T08:29:39Z</time>
      </trkpt>
      <trkpt lat="39.7096200" lon="-6.4558780">
        <ele>249.2</ele>
        <time>2021-10-17T08:29:41Z</time>
      </trkpt>
      <trkpt lat="39.7095360" lon="-6.4559330">
        <ele>249.6</ele>
        <time>2021-10-17T08:29:44Z</time>
      </trkpt>
      <trkpt lat="39.7094820" lon="-6.4559780">
        <ele>249.6</ele>
        <time>2021-10-17T08:29:46Z</time>
      </trkpt>
      <trkpt lat="39.7093420" lon="-6.4560840">
        <ele>250.2</ele>
        <time>2021-10-17T08:29:51Z</time>
      </trkpt>
      <trkpt lat="39.7092590" lon="-6.4561390">
        <ele>250.4</ele>
        <time>2021-10-17T08:29:54Z</time>
      </trkpt>
      <trkpt lat="39.7091790" lon="-6.4561970">
        <ele>250.6</ele>
        <time>2021-10-17T08:29:57Z</time>
      </trkpt>
      <trkpt lat="39.7089540" lon="-6.4563600">
        <ele>251.6</ele>
        <time>2021-10-17T08:30:05Z</time>
      </trkpt>
      <trkpt lat="39.7089020" lon="-6.4564060">
        <ele>251.8</ele>
        <time>2021-10-17T08:30:07Z</time>
      </trkpt>
      <trkpt lat="39.7087600" lon="-6.4565090">
        <ele>252.2</ele>
        <time>2021-10-17T08:30:12Z</time>
      </trkpt>
      <trkpt lat="39.7086700" lon="-6.4565710">
        <ele>252.6</ele>
        <time>2021-10-17T08:30:15Z</time>
      </trkpt>
      <trkpt lat="39.7086190" lon="-6.4566060">
        <ele>252.8</ele>
        <time>2021-10-17T08:30:17Z</time>
      </trkpt>
      <trkpt lat="39.7085060" lon="-6.4566830">
        <ele>253.4</ele>
        <time>2021-10-17T08:30:21Z</time>
      </trkpt>
      <trkpt lat="39.7083840" lon="-6.4567520">
        <ele>253.8</ele>
        <time>2021-10-17T08:30:25Z</time>
      </trkpt>
      <trkpt lat="39.7083320" lon="-6.4567780">
        <ele>254.0</ele>
        <time>2021-10-17T08:30:27Z</time>
      </trkpt>
      <trkpt lat="39.7081760" lon="-6.4568340">
        <ele>254.6</ele>
        <time>2021-10-17T08:30:32Z</time>
      </trkpt>
      <trkpt lat="39.7080680" lon="-6.4568550">
        <ele>254.8</ele>
        <time>2021-10-17T08:30:35Z</time>
      </trkpt>
      <trkpt lat="39.7080430" lon="-6.4568570">
        <ele>255.0</ele>
        <time>2021-10-17T08:30:36Z</time>
      </trkpt>
      <trkpt lat="39.7077600" lon="-6.4568470">
        <ele>255.8</ele>
        <time>2021-10-17T08:30:45Z</time>
      </trkpt>
      <trkpt lat="39.7076580" lon="-6.4568280">
        <ele>256.0</ele>
        <time>2021-10-17T08:30:48Z</time>
      </trkpt>
      <trkpt lat="39.7076000" lon="-6.4568190">
        <ele>256.2</ele>
        <time>2021-10-17T08:30:50Z</time>
      </trkpt>
      <trkpt lat="39.7074980" lon="-6.4568040">
        <ele>256.4</ele>
        <time>2021-10-17T08:30:53Z</time>
      </trkpt>
      <trkpt lat="39.7074330" lon="-6.4567910">
        <ele>256.6</ele>
        <time>2021-10-17T08:30:55Z</time>
      </trkpt>
      <trkpt lat="39.7071630" lon="-6.4567450">
        <ele>256.8</ele>
        <time>2021-10-17T08:31:02Z</time>
      </trkpt>
      <trkpt lat="39.7070390" lon="-6.4567280">
        <ele>257.0</ele>
        <time>2021-10-17T08:31:05Z</time>
      </trkpt>
      <trkpt lat="39.7067130" lon="-6.4566700">
        <ele>256.8</ele>
        <time>2021-10-17T08:31:12Z</time>
      </trkpt>
      <trkpt lat="39.7065400" lon="-6.4566400">
        <ele>256.8</ele>
        <time>2021-10-17T08:31:15Z</time>
      </trkpt>
      <trkpt lat="39.7063890" lon="-6.4566190">
        <ele>256.6</ele>
        <time>2021-10-17T08:31:18Z</time>
      </trkpt>
      <trkpt lat="39.7063330" lon="-6.4566130">
        <ele>256.6</ele>
        <time>2021-10-17T08:31:19Z</time>
      </trkpt>
      <trkpt lat="39.7059560" lon="-6.4566190">
        <ele>255.4</ele>
        <time>2021-10-17T08:31:26Z</time>
      </trkpt>
      <trkpt lat="39.7058510" lon="-6.4566290">
        <ele>255.0</ele>
        <time>2021-10-17T08:31:28Z</time>
      </trkpt>
      <trkpt lat="39.7054490" lon="-6.4566710">
        <ele>254.4</ele>
        <time>2021-10-17T08:31:35Z</time>
      </trkpt>
      <trkpt lat="39.7051240" lon="-6.4567070">
        <ele>254.0</ele>
        <time>2021-10-17T08:31:41Z</time>
      </trkpt>
      <trkpt lat="39.7049200" lon="-6.4567280">
        <ele>254.0</ele>
        <time>2021-10-17T08:31:45Z</time>
      </trkpt>
      <trkpt lat="39.7045790" lon="-6.4567750">
        <ele>254.2</ele>
        <time>2021-10-17T08:31:52Z</time>
      </trkpt>
      <trkpt lat="39.7041500" lon="-6.4568270">
        <ele>254.6</ele>
        <time>2021-10-17T08:32:01Z</time>
      </trkpt>
      <trkpt lat="39.7040540" lon="-6.4568340">
        <ele>254.8</ele>
        <time>2021-10-17T08:32:03Z</time>
      </trkpt>
      <trkpt lat="39.7038620" lon="-6.4568570">
        <ele>255.0</ele>
        <time>2021-10-17T08:32:07Z</time>
      </trkpt>
      <trkpt lat="39.7037200" lon="-6.4568730">
        <ele>255.2</ele>
        <time>2021-10-17T08:32:10Z</time>
      </trkpt>
      <trkpt lat="39.7036240" lon="-6.4568840">
        <ele>255.2</ele>
        <time>2021-10-17T08:32:12Z</time>
      </trkpt>
      <trkpt lat="39.7033820" lon="-6.4569090">
        <ele>255.4</ele>
        <time>2021-10-17T08:32:17Z</time>
      </trkpt>
      <trkpt lat="39.7032280" lon="-6.4569260">
        <ele>255.4</ele>
        <time>2021-10-17T08:32:20Z</time>
      </trkpt>
      <trkpt lat="39.7030150" lon="-6.4569470">
        <ele>255.4</ele>
        <time>2021-10-17T08:32:24Z</time>
      </trkpt>
      <trkpt lat="39.7028110" lon="-6.4569690">
        <ele>255.2</ele>
        <time>2021-10-17T08:32:28Z</time>
      </trkpt>
      <trkpt lat="39.7025000" lon="-6.4570000">
        <ele>254.6</ele>
        <time>2021-10-17T08:32:34Z</time>
      </trkpt>
      <trkpt lat="39.7023400" lon="-6.4570170">
        <ele>254.4</ele>
        <time>2021-10-17T08:32:37Z</time>
      </trkpt>
      <trkpt lat="39.7021270" lon="-6.4570350">
        <ele>254.0</ele>
        <time>2021-10-17T08:32:41Z</time>
      </trkpt>
      <trkpt lat="39.7020710" lon="-6.4570370">
        <ele>253.8</ele>
        <time>2021-10-17T08:32:42Z</time>
      </trkpt>
      <trkpt lat="39.7020130" lon="-6.4570410">
        <ele>253.6</ele>
        <time>2021-10-17T08:32:43Z</time>
      </trkpt>
      <trkpt lat="39.7018390" lon="-6.4570740">
        <ele>253.4</ele>
        <time>2021-10-17T08:32:46Z</time>
      </trkpt>
      <trkpt lat="39.7014380" lon="-6.4571680">
        <ele>252.8</ele>
        <time>2021-10-17T08:32:53Z</time>
      </trkpt>
      <trkpt lat="39.7013840" lon="-6.4571900">
        <ele>252.8</ele>
        <time>2021-10-17T08:32:54Z</time>
      </trkpt>
      <trkpt lat="39.7011910" lon="-6.4573100">
        <ele>252.4</ele>
        <time>2021-10-17T08:32:58Z</time>
      </trkpt>
      <trkpt lat="39.7009880" lon="-6.4575130">
        <ele>251.8</ele>
        <time>2021-10-17T08:33:03Z</time>
      </trkpt>
      <trkpt lat="39.7009530" lon="-6.4575580">
        <ele>251.8</ele>
        <time>2021-10-17T08:33:04Z</time>
      </trkpt>
      <trkpt lat="39.7009210" lon="-6.4576050">
        <ele>251.6</ele>
        <time>2021-10-17T08:33:05Z</time>
      </trkpt>
      <trkpt lat="39.7008920" lon="-6.4576520">
        <ele>251.6</ele>
        <time>2021-10-17T08:33:06Z</time>
      </trkpt>
      <trkpt lat="39.7008240" lon="-6.4578360">
        <ele>251.4</ele>
        <time>2021-10-17T08:33:09Z</time>
      </trkpt>
      <trkpt lat="39.7007590" lon="-6.4580320">
        <ele>251.2</ele>
        <time>2021-10-17T08:33:12Z</time>
      </trkpt>
      <trkpt lat="39.7007000" lon="-6.4582240">
        <ele>251.0</ele>
        <time>2021-10-17T08:33:15Z</time>
      </trkpt>
      <trkpt lat="39.7006500" lon="-6.4584110">
        <ele>250.8</ele>
        <time>2021-10-17T08:33:18Z</time>
      </trkpt>
      <trkpt lat="39.7005950" lon="-6.4586020">
        <ele>250.8</ele>
        <time>2021-10-17T08:33:21Z</time>
      </trkpt>
      <trkpt lat="39.7005190" lon="-6.4588520">
        <ele>250.8</ele>
        <time>2021-10-17T08:33:25Z</time>
      </trkpt>
      <trkpt lat="39.7004060" lon="-6.4592380">
        <ele>250.6</ele>
        <time>2021-10-17T08:33:31Z</time>
      </trkpt>
      <trkpt lat="39.7003300" lon="-6.4595220">
        <ele>250.2</ele>
        <time>2021-10-17T08:33:35Z</time>
      </trkpt>
      <trkpt lat="39.7002550" lon="-6.4598280">
        <ele>249.4</ele>
        <time>2021-10-17T08:33:39Z</time>
      </trkpt>
      <trkpt lat="39.7001870" lon="-6.4600540">
        <ele>248.8</ele>
        <time>2021-10-17T08:33:42Z</time>
      </trkpt>
      <trkpt lat="39.7001160" lon="-6.4602740">
        <ele>248.2</ele>
        <time>2021-10-17T08:33:45Z</time>
      </trkpt>
      <trkpt lat="39.6999300" lon="-6.4606870">
        <ele>247.4</ele>
        <time>2021-10-17T08:33:51Z</time>
      </trkpt>
      <trkpt lat="39.6998940" lon="-6.4607570">
        <ele>247.2</ele>
        <time>2021-10-17T08:33:52Z</time>
      </trkpt>
      <trkpt lat="39.6997420" lon="-6.4610320">
        <ele>246.0</ele>
        <time>2021-10-17T08:33:56Z</time>
      </trkpt>
      <trkpt lat="39.6995820" lon="-6.4613240">
        <ele>245.0</ele>
        <time>2021-10-17T08:34:00Z</time>
      </trkpt>
      <trkpt lat="39.6993730" lon="-6.4616900">
        <ele>243.8</ele>
        <time>2021-10-17T08:34:05Z</time>
      </trkpt>
      <trkpt lat="39.6992090" lon="-6.4619870">
        <ele>242.8</ele>
        <time>2021-10-17T08:34:09Z</time>
      </trkpt>
      <trkpt lat="39.6991690" lon="-6.4620610">
        <ele>242.6</ele>
        <time>2021-10-17T08:34:10Z</time>
      </trkpt>
      <trkpt lat="39.6989280" lon="-6.4625010">
        <ele>241.6</ele>
        <time>2021-10-17T08:34:16Z</time>
      </trkpt>
      <trkpt lat="39.6987550" lon="-6.4627800">
        <ele>240.4</ele>
        <time>2021-10-17T08:34:20Z</time>
      </trkpt>
      <trkpt lat="39.6987100" lon="-6.4628430">
        <ele>240.4</ele>
        <time>2021-10-17T08:34:21Z</time>
      </trkpt>
      <trkpt lat="39.6984440" lon="-6.4631120">
        <ele>239.2</ele>
        <time>2021-10-17T08:34:26Z</time>
      </trkpt>
      <trkpt lat="39.6983840" lon="-6.4631560">
        <ele>239.0</ele>
        <time>2021-10-17T08:34:27Z</time>
      </trkpt>
      <trkpt lat="39.6981270" lon="-6.4632710">
        <ele>238.2</ele>
        <time>2021-10-17T08:34:31Z</time>
      </trkpt>
      <trkpt lat="39.6977260" lon="-6.4633650">
        <ele>237.0</ele>
        <time>2021-10-17T08:34:37Z</time>
      </trkpt>
      <trkpt lat="39.6975670" lon="-6.4633860">
        <ele>236.4</ele>
        <time>2021-10-17T08:34:39Z</time>
      </trkpt>
      <trkpt lat="39.6974960" lon="-6.4633970">
        <ele>236.0</ele>
        <time>2021-10-17T08:34:40Z</time>
      </trkpt>
      <trkpt lat="39.6970600" lon="-6.4634760">
        <ele>234.6</ele>
        <time>2021-10-17T08:34:46Z</time>
      </trkpt>
      <trkpt lat="39.6967670" lon="-6.4635510">
        <ele>234.0</ele>
        <time>2021-10-17T08:34:50Z</time>
      </trkpt>
      <trkpt lat="39.6966940" lon="-6.4635790">
        <ele>233.6</ele>
        <time>2021-10-17T08:34:51Z</time>
      </trkpt>
      <trkpt lat="39.6964080" lon="-6.4637560">
        <ele>232.6</ele>
        <time>2021-10-17T08:34:55Z</time>
      </trkpt>
      <trkpt lat="39.6961930" lon="-6.4639780">
        <ele>231.4</ele>
        <time>2021-10-17T08:34:59Z</time>
      </trkpt>
      <trkpt lat="39.6960850" lon="-6.4641090">
        <ele>231.0</ele>
        <time>2021-10-17T08:35:01Z</time>
      </trkpt>
      <trkpt lat="39.6959210" lon="-6.4643040">
        <ele>230.2</ele>
        <time>2021-10-17T08:35:04Z</time>
      </trkpt>
      <trkpt lat="39.6956340" lon="-6.4646280">
        <ele>229.2</ele>
        <time>2021-10-17T08:35:09Z</time>
      </trkpt>
      <trkpt lat="39.6955160" lon="-6.4647320">
        <ele>228.8</ele>
        <time>2021-10-17T08:35:11Z</time>
      </trkpt>
      <trkpt lat="39.6953280" lon="-6.4648510">
        <ele>228.2</ele>
        <time>2021-10-17T08:35:14Z</time>
      </trkpt>
      <trkpt lat="39.6952060" lon="-6.4648920">
        <ele>227.8</ele>
        <time>2021-10-17T08:35:16Z</time>
      </trkpt>
      <trkpt lat="39.6948480" lon="-6.4649270">
        <ele>227.0</ele>
        <time>2021-10-17T08:35:21Z</time>
      </trkpt>
      <trkpt lat="39.6947610" lon="-6.4649110">
        <ele>226.6</ele>
        <time>2021-10-17T08:35:22Z</time>
      </trkpt>
      <trkpt lat="39.6944840" lon="-6.4647970">
        <ele>225.8</ele>
        <time>2021-10-17T08:35:26Z</time>
      </trkpt>
      <trkpt lat="39.6941540" lon="-6.4646240">
        <ele>224.8</ele>
        <time>2021-10-17T08:35:31Z</time>
      </trkpt>
      <trkpt lat="39.6939600" lon="-6.4645250">
        <ele>224.2</ele>
        <time>2021-10-17T08:35:34Z</time>
      </trkpt>
      <trkpt lat="39.6934940" lon="-6.4642790">
        <ele>223.8</ele>
        <time>2021-10-17T08:35:42Z</time>
      </trkpt>
      <trkpt lat="39.6930950" lon="-6.4640730">
        <ele>224.4</ele>
        <time>2021-10-17T08:35:50Z</time>
      </trkpt>
      <trkpt lat="39.6927650" lon="-6.4639350">
        <ele>224.8</ele>
        <time>2021-10-17T08:35:57Z</time>
      </trkpt>
      <trkpt lat="39.6924190" lon="-6.4638840">
        <ele>225.8</ele>
        <time>2021-10-17T08:36:05Z</time>
      </trkpt>
      <trkpt lat="39.6923820" lon="-6.4638900">
        <ele>225.8</ele>
        <time>2021-10-17T08:36:06Z</time>
      </trkpt>
      <trkpt lat="39.6920780" lon="-6.4639960">
        <ele>226.6</ele>
        <time>2021-10-17T08:36:13Z</time>
      </trkpt>
      <trkpt lat="39.6919190" lon="-6.4640930">
        <ele>226.8</ele>
        <time>2021-10-17T08:36:17Z</time>
      </trkpt>
      <trkpt lat="39.6918730" lon="-6.4641310">
        <ele>226.8</ele>
        <time>2021-10-17T08:36:18Z</time>
      </trkpt>
      <trkpt lat="39.6917710" lon="-6.4642360">
        <ele>227.2</ele>
        <time>2021-10-17T08:36:21Z</time>
      </trkpt>
      <trkpt lat="39.6916430" lon="-6.4644170">
        <ele>227.2</ele>
        <time>2021-10-17T08:36:25Z</time>
      </trkpt>
      <trkpt lat="39.6915680" lon="-6.4645620">
        <ele>227.4</ele>
        <time>2021-10-17T08:36:28Z</time>
      </trkpt>
      <trkpt lat="39.6914610" lon="-6.4648300">
        <ele>227.4</ele>
        <time>2021-10-17T08:36:33Z</time>
      </trkpt>
      <trkpt lat="39.6913760" lon="-6.4650560">
        <ele>227.4</ele>
        <time>2021-10-17T08:36:37Z</time>
      </trkpt>
      <trkpt lat="39.6911910" lon="-6.4655410">
        <ele>227.4</ele>
        <time>2021-10-17T08:36:45Z</time>
      </trkpt>
      <trkpt lat="39.6910380" lon="-6.4659720">
        <ele>227.6</ele>
        <time>2021-10-17T08:36:52Z</time>
      </trkpt>
      <trkpt lat="39.6909590" lon="-6.4661960">
        <ele>227.4</ele>
        <time>2021-10-17T08:36:56Z</time>
      </trkpt>
      <trkpt lat="39.6908870" lon="-6.4663940">
        <ele>227.6</ele>
        <time>2021-10-17T08:36:59Z</time>
      </trkpt>
      <trkpt lat="39.6908210" lon="-6.4665730">
        <ele>227.4</ele>
        <time>2021-10-17T08:37:02Z</time>
      </trkpt>
      <trkpt lat="39.6907550" lon="-6.4667510">
        <ele>227.4</ele>
        <time>2021-10-17T08:37:05Z</time>
      </trkpt>
      <trkpt lat="39.6905260" lon="-6.4673600">
        <ele>227.6</ele>
        <time>2021-10-17T08:37:15Z</time>
      </trkpt>
      <trkpt lat="39.6904360" lon="-6.4675960">
        <ele>227.4</ele>
        <time>2021-10-17T08:37:19Z</time>
      </trkpt>
      <trkpt lat="39.6903250" lon="-6.4678910">
        <ele>227.6</ele>
        <time>2021-10-17T08:37:24Z</time>
      </trkpt>
      <trkpt lat="39.6902830" lon="-6.4680000">
        <ele>227.6</ele>
        <time>2021-10-17T08:37:26Z</time>
      </trkpt>
      <trkpt lat="39.6901530" lon="-6.4683490">
        <ele>227.2</ele>
        <time>2021-10-17T08:37:34Z</time>
      </trkpt>
      <trkpt lat="39.6901390" lon="-6.4684210">
        <ele>227.0</ele>
        <time>2021-10-17T08:37:36Z</time>
      </trkpt>
      <trkpt lat="39.6901520" lon="-6.4684630">
        <ele>227.0</ele>
        <time>2021-10-17T08:37:38Z</time>
      </trkpt>
      <trkpt lat="39.6901530" lon="-6.4684900">
        <ele>227.2</ele>
        <time>2021-10-17T08:37:42Z</time>
      </trkpt>
      <trkpt lat="39.6901530" lon="-6.4684900">
        <ele>227.2</ele>
        <time>2021-10-17T08:37:44Z</time>
      </trkpt>
      <trkpt lat="39.6901280" lon="-6.4684760">
        <ele>226.6</ele>
        <time>2021-10-17T08:40:48Z</time>
      </trkpt>
      <trkpt lat="39.6901140" lon="-6.4684810">
        <ele>226.6</ele>
        <time>2021-10-17T08:40:49Z</time>
      </trkpt>
      <trkpt lat="39.6900690" lon="-6.4685800">
        <ele>226.8</ele>
        <time>2021-10-17T08:40:54Z</time>
      </trkpt>
      <trkpt lat="39.6900610" lon="-6.4686010">
        <ele>227.0</ele>
        <time>2021-10-17T08:40:55Z</time>
      </trkpt>
      <trkpt lat="39.6899990" lon="-6.4687920">
        <ele>227.6</ele>
        <time>2021-10-17T08:41:02Z</time>
      </trkpt>
      <trkpt lat="39.6899520" lon="-6.4689280">
        <ele>228.0</ele>
        <time>2021-10-17T08:41:06Z</time>
      </trkpt>
      <trkpt lat="39.6899200" lon="-6.4690160">
        <ele>228.2</ele>
        <time>2021-10-17T08:41:09Z</time>
      </trkpt>
      <trkpt lat="39.6898980" lon="-6.4690700">
        <ele>228.6</ele>
        <time>2021-10-17T08:41:11Z</time>
      </trkpt>
      <trkpt lat="39.6898380" lon="-6.4692440">
        <ele>229.0</ele>
        <time>2021-10-17T08:41:16Z</time>
      </trkpt>
      <trkpt lat="39.6898170" lon="-6.4693060">
        <ele>229.2</ele>
        <time>2021-10-17T08:41:18Z</time>
      </trkpt>
      <trkpt lat="39.6897900" lon="-6.4693750">
        <ele>229.4</ele>
        <time>2021-10-17T08:41:20Z</time>
      </trkpt>
      <trkpt lat="39.6897430" lon="-6.4695030">
        <ele>230.0</ele>
        <time>2021-10-17T08:41:24Z</time>
      </trkpt>
      <trkpt lat="39.6897090" lon="-6.4696010">
        <ele>230.2</ele>
        <time>2021-10-17T08:41:27Z</time>
      </trkpt>
      <trkpt lat="39.6896990" lon="-6.4696360">
        <ele>230.4</ele>
        <time>2021-10-17T08:41:28Z</time>
      </trkpt>
      <trkpt lat="39.6896170" lon="-6.4698480">
        <ele>231.0</ele>
        <time>2021-10-17T08:41:35Z</time>
      </trkpt>
      <trkpt lat="39.6896030" lon="-6.4698780">
        <ele>231.2</ele>
        <time>2021-10-17T08:41:36Z</time>
      </trkpt>
      <trkpt lat="39.6895860" lon="-6.4699140">
        <ele>231.4</ele>
        <time>2021-10-17T08:41:37Z</time>
      </trkpt>
      <trkpt lat="39.6895450" lon="-6.4699960">
        <ele>231.8</ele>
        <time>2021-10-17T08:41:40Z</time>
      </trkpt>
      <trkpt lat="39.6894840" lon="-6.4700980">
        <ele>232.2</ele>
        <time>2021-10-17T08:41:44Z</time>
      </trkpt>
      <trkpt lat="39.6894510" lon="-6.4701470">
        <ele>232.4</ele>
        <time>2021-10-17T08:41:46Z</time>
      </trkpt>
      <trkpt lat="39.6893110" lon="-6.4703180">
        <ele>233.4</ele>
        <time>2021-10-17T08:41:53Z</time>
      </trkpt>
      <trkpt lat="39.6892490" lon="-6.4703770">
        <ele>233.8</ele>
        <time>2021-10-17T08:41:56Z</time>
      </trkpt>
      <trkpt lat="39.6890820" lon="-6.4705030">
        <ele>234.6</ele>
        <time>2021-10-17T08:42:03Z</time>
      </trkpt>
      <trkpt lat="39.6888480" lon="-6.4706130">
        <ele>235.2</ele>
        <time>2021-10-17T08:42:12Z</time>
      </trkpt>
      <trkpt lat="39.6887350" lon="-6.4706410">
        <ele>235.4</ele>
        <time>2021-10-17T08:42:16Z</time>
      </trkpt>
      <trkpt lat="39.6886830" lon="-6.4706100">
        <ele>235.6</ele>
        <time>2021-10-17T08:42:18Z</time>
      </trkpt>
      <trkpt lat="39.6885650" lon="-6.4705670">
        <ele>235.8</ele>
        <time>2021-10-17T08:42:23Z</time>
      </trkpt>
      <trkpt lat="39.6884130" lon="-6.4706030">
        <ele>235.8</ele>
        <time>2021-10-17T08:42:29Z</time>
      </trkpt>
      <trkpt lat="39.6883560" lon="-6.4706200">
        <ele>236.0</ele>
        <time>2021-10-17T08:42:31Z</time>
      </trkpt>
      <trkpt lat="39.6882330" lon="-6.4706530">
        <ele>236.2</ele>
        <time>2021-10-17T08:42:36Z</time>
      </trkpt>
      <trkpt lat="39.6881750" lon="-6.4706670">
        <ele>236.6</ele>
        <time>2021-10-17T08:42:39Z</time>
      </trkpt>
      <trkpt lat="39.6881530" lon="-6.4706690">
        <ele>237.0</ele>
        <time>2021-10-17T08:42:40Z</time>
      </trkpt>
      <trkpt lat="39.6881190" lon="-6.4706690">
        <ele>237.4</ele>
        <time>2021-10-17T08:42:42Z</time>
      </trkpt>
      <trkpt lat="39.6880480" lon="-6.4706580">
        <ele>237.8</ele>
        <time>2021-10-17T08:42:46Z</time>
      </trkpt>
      <trkpt lat="39.6880060" lon="-6.4706400">
        <ele>237.8</ele>
        <time>2021-10-17T08:42:49Z</time>
      </trkpt>
      <trkpt lat="39.6878890" lon="-6.4706060">
        <ele>237.4</ele>
        <time>2021-10-17T08:42:55Z</time>
      </trkpt>
      <trkpt lat="39.6878680" lon="-6.4705850">
        <ele>237.2</ele>
        <time>2021-10-17T08:42:58Z</time>
      </trkpt>
      <trkpt lat="39.6878650" lon="-6.4705910">
        <ele>237.2</ele>
        <time>2021-10-17T08:43:00Z</time>
      </trkpt>
      <trkpt lat="39.6873970" lon="-6.4702710">
        <ele>244.0</ele>
        <time>2021-10-17T08:44:39Z</time>
      </trkpt>
      <trkpt lat="39.6873840" lon="-6.4702750">
        <ele>244.0</ele>
        <time>2021-10-17T08:44:40Z</time>
      </trkpt>
      <trkpt lat="39.6873540" lon="-6.4702890">
        <ele>244.0</ele>
        <time>2021-10-17T08:44:42Z</time>
      </trkpt>
      <trkpt lat="39.6873420" lon="-6.4703000">
        <ele>244.0</ele>
        <time>2021-10-17T08:44:43Z</time>
      </trkpt>
      <trkpt lat="39.6873040" lon="-6.4703520">
        <ele>244.0</ele>
        <time>2021-10-17T08:44:46Z</time>
      </trkpt>
      <trkpt lat="39.6872810" lon="-6.4704140">
        <ele>244.0</ele>
        <time>2021-10-17T08:44:49Z</time>
      </trkpt>
      <trkpt lat="39.6872450" lon="-6.4705900">
        <ele>244.8</ele>
        <time>2021-10-17T08:44:56Z</time>
      </trkpt>
      <trkpt lat="39.6872420" lon="-6.4706220">
        <ele>245.0</ele>
        <time>2021-10-17T08:44:57Z</time>
      </trkpt>
      <trkpt lat="39.6872390" lon="-6.4706880">
        <ele>245.2</ele>
        <time>2021-10-17T08:45:00Z</time>
      </trkpt>
      <trkpt lat="39.6872270" lon="-6.4708520">
        <ele>245.8</ele>
        <time>2021-10-17T08:45:06Z</time>
      </trkpt>
      <trkpt lat="39.6872370" lon="-6.4708950">
        <ele>246.2</ele>
        <time>2021-10-17T08:45:08Z</time>
      </trkpt>
      <trkpt lat="39.6872390" lon="-6.4709110">
        <ele>246.2</ele>
        <time>2021-10-17T08:45:09Z</time>
      </trkpt>
      <trkpt lat="39.6872250" lon="-6.4709450">
        <ele>246.8</ele>
        <time>2021-10-17T08:45:11Z</time>
      </trkpt>
      <trkpt lat="39.6872130" lon="-6.4709650">
        <ele>247.2</ele>
        <time>2021-10-17T08:45:12Z</time>
      </trkpt>
      <trkpt lat="39.6872010" lon="-6.4709820">
        <ele>247.4</ele>
        <time>2021-10-17T08:45:13Z</time>
      </trkpt>
      <trkpt lat="39.6871650" lon="-6.4710130">
        <ele>248.0</ele>
        <time>2021-10-17T08:45:16Z</time>
      </trkpt>
      <trkpt lat="39.6871520" lon="-6.4710230">
        <ele>248.4</ele>
        <time>2021-10-17T08:45:17Z</time>
      </trkpt>
      <trkpt lat="39.6871010" lon="-6.4710380">
        <ele>249.0</ele>
        <time>2021-10-17T08:45:21Z</time>
      </trkpt>
      <trkpt lat="39.6870740" lon="-6.4710380">
        <ele>249.2</ele>
        <time>2021-10-17T08:45:23Z</time>
      </trkpt>
      <trkpt lat="39.6870620" lon="-6.4710420">
        <ele>249.6</ele>
        <time>2021-10-17T08:45:24Z</time>
      </trkpt>
      <trkpt lat="39.6869850" lon="-6.4710710">
        <ele>250.4</ele>
        <time>2021-10-17T08:45:30Z</time>
      </trkpt>
      <trkpt lat="39.6869740" lon="-6.4710750">
        <ele>250.6</ele>
        <time>2021-10-17T08:45:31Z</time>
      </trkpt>
      <trkpt lat="39.6869270" lon="-6.4711080">
        <ele>251.8</ele>
        <time>2021-10-17T08:45:35Z</time>
      </trkpt>
      <trkpt lat="39.6868850" lon="-6.4711430">
        <ele>252.6</ele>
        <time>2021-10-17T08:45:39Z</time>
      </trkpt>
      <trkpt lat="39.6868620" lon="-6.4711620">
        <ele>253.0</ele>
        <time>2021-10-17T08:45:41Z</time>
      </trkpt>
      <trkpt lat="39.6868000" lon="-6.4712220">
        <ele>254.0</ele>
        <time>2021-10-17T08:45:48Z</time>
      </trkpt>
      <trkpt lat="39.6867900" lon="-6.4712320">
        <ele>254.2</ele>
        <time>2021-10-17T08:45:49Z</time>
      </trkpt>
      <trkpt lat="39.6867800" lon="-6.4712410">
        <ele>254.4</ele>
        <time>2021-10-17T08:45:50Z</time>
      </trkpt>
      <trkpt lat="39.6867640" lon="-6.4712580">
        <ele>254.6</ele>
        <time>2021-10-17T08:45:52Z</time>
      </trkpt>
      <trkpt lat="39.6867230" lon="-6.4712950">
        <ele>255.2</ele>
        <time>2021-10-17T08:45:56Z</time>
      </trkpt>
      <trkpt lat="39.6867130" lon="-6.4713030">
        <ele>255.4</ele>
        <time>2021-10-17T08:45:57Z</time>
      </trkpt>
      <trkpt lat="39.6866710" lon="-6.4713290">
        <ele>255.6</ele>
        <time>2021-10-17T08:46:01Z</time>
      </trkpt>
      <trkpt lat="39.6866570" lon="-6.4713350">
        <ele>255.8</ele>
        <time>2021-10-17T08:46:02Z</time>
      </trkpt>
      <trkpt lat="39.6866230" lon="-6.4713420">
        <ele>256.0</ele>
        <time>2021-10-17T08:46:05Z</time>
      </trkpt>
      <trkpt lat="39.6866130" lon="-6.4713460">
        <ele>256.2</ele>
        <time>2021-10-17T08:46:06Z</time>
      </trkpt>
      <trkpt lat="39.6865880" lon="-6.4713550">
        <ele>256.6</ele>
        <time>2021-10-17T08:46:08Z</time>
      </trkpt>
      <trkpt lat="39.6865590" lon="-6.4713530">
        <ele>256.8</ele>
        <time>2021-10-17T08:46:10Z</time>
      </trkpt>
      <trkpt lat="39.6865380" lon="-6.4713480">
        <ele>257.2</ele>
        <time>2021-10-17T08:46:12Z</time>
      </trkpt>
      <trkpt lat="39.6865280" lon="-6.4713440">
        <ele>257.2</ele>
        <time>2021-10-17T08:46:13Z</time>
      </trkpt>
      <trkpt lat="39.6865070" lon="-6.4713300">
        <ele>257.4</ele>
        <time>2021-10-17T08:46:15Z</time>
      </trkpt>
      <trkpt lat="39.6864880" lon="-6.4713200">
        <ele>257.6</ele>
        <time>2021-10-17T08:46:17Z</time>
      </trkpt>
      <trkpt lat="39.6864510" lon="-6.4713020">
        <ele>257.8</ele>
        <time>2021-10-17T08:46:20Z</time>
      </trkpt>
      <trkpt lat="39.6864360" lon="-6.4712970">
        <ele>258.0</ele>
        <time>2021-10-17T08:46:21Z</time>
      </trkpt>
      <trkpt lat="39.6864160" lon="-6.4712820">
        <ele>258.2</ele>
        <time>2021-10-17T08:46:23Z</time>
      </trkpt>
      <trkpt lat="39.6863920" lon="-6.4712630">
        <ele>258.6</ele>
        <time>2021-10-17T08:46:25Z</time>
      </trkpt>
      <trkpt lat="39.6863480" lon="-6.4712250">
        <ele>259.2</ele>
        <time>2021-10-17T08:46:29Z</time>
      </trkpt>
      <trkpt lat="39.6863370" lon="-6.4712160">
        <ele>259.4</ele>
        <time>2021-10-17T08:46:30Z</time>
      </trkpt>
      <trkpt lat="39.6863270" lon="-6.4712080">
        <ele>259.4</ele>
        <time>2021-10-17T08:46:31Z</time>
      </trkpt>
      <trkpt lat="39.6863190" lon="-6.4712000">
        <ele>259.6</ele>
        <time>2021-10-17T08:46:32Z</time>
      </trkpt>
      <trkpt lat="39.6862940" lon="-6.4711850">
        <ele>259.8</ele>
        <time>2021-10-17T08:46:34Z</time>
      </trkpt>
      <trkpt lat="39.6862560" lon="-6.4711480">
        <ele>260.2</ele>
        <time>2021-10-17T08:46:38Z</time>
      </trkpt>
      <trkpt lat="39.6862460" lon="-6.4711370">
        <ele>260.4</ele>
        <time>2021-10-17T08:46:39Z</time>
      </trkpt>
      <trkpt lat="39.6862020" lon="-6.4710980">
        <ele>260.4</ele>
        <time>2021-10-17T08:46:42Z</time>
      </trkpt>
      <trkpt lat="39.6861440" lon="-6.4710500">
        <ele>260.6</ele>
        <time>2021-10-17T08:46:45Z</time>
      </trkpt>
      <trkpt lat="39.6860930" lon="-6.4710050">
        <ele>260.6</ele>
        <time>2021-10-17T08:46:47Z</time>
      </trkpt>
      <trkpt lat="39.6859470" lon="-6.4709110">
        <ele>260.6</ele>
        <time>2021-10-17T08:46:51Z</time>
      </trkpt>
      <trkpt lat="39.6858740" lon="-6.4708810">
        <ele>260.4</ele>
        <time>2021-10-17T08:46:53Z</time>
      </trkpt>
      <trkpt lat="39.6858020" lon="-6.4708550">
        <ele>260.0</ele>
        <time>2021-10-17T08:46:56Z</time>
      </trkpt>
      <trkpt lat="39.6857580" lon="-6.4708260">
        <ele>259.8</ele>
        <time>2021-10-17T08:46:59Z</time>
      </trkpt>
      <trkpt lat="39.6856960" lon="-6.4707870">
        <ele>259.8</ele>
        <time>2021-10-17T08:47:03Z</time>
      </trkpt>
      <trkpt lat="39.6855750" lon="-6.4706990">
        <ele>261.0</ele>
        <time>2021-10-17T08:47:11Z</time>
      </trkpt>
      <trkpt lat="39.6855440" lon="-6.4706780">
        <ele>261.0</ele>
        <time>2021-10-17T08:47:13Z</time>
      </trkpt>
      <trkpt lat="39.6854440" lon="-6.4706100">
        <ele>261.4</ele>
        <time>2021-10-17T08:47:17Z</time>
      </trkpt>
      <trkpt lat="39.6853220" lon="-6.4705680">
        <ele>261.4</ele>
        <time>2021-10-17T08:47:20Z</time>
      </trkpt>
      <trkpt lat="39.6852170" lon="-6.4705840">
        <ele>261.0</ele>
        <time>2021-10-17T08:47:22Z</time>
      </trkpt>
      <trkpt lat="39.6851230" lon="-6.4706350">
        <ele>259.2</ele>
        <time>2021-10-17T08:47:25Z</time>
      </trkpt>
      <trkpt lat="39.6850990" lon="-6.4706470">
        <ele>259.0</ele>
        <time>2021-10-17T08:47:26Z</time>
      </trkpt>
      <trkpt lat="39.6850200" lon="-6.4706880">
        <ele>258.8</ele>
        <time>2021-10-17T08:47:31Z</time>
      </trkpt>
      <trkpt lat="39.6849460" lon="-6.4707100">
        <ele>260.0</ele>
        <time>2021-10-17T08:47:37Z</time>
      </trkpt>
      <trkpt lat="39.6849360" lon="-6.4707100">
        <ele>260.2</ele>
        <time>2021-10-17T08:47:38Z</time>
      </trkpt>
      <trkpt lat="39.6848940" lon="-6.4707160">
        <ele>261.2</ele>
        <time>2021-10-17T08:47:41Z</time>
      </trkpt>
      <trkpt lat="39.6848450" lon="-6.4707270">
        <ele>262.2</ele>
        <time>2021-10-17T08:47:45Z</time>
      </trkpt>
      <trkpt lat="39.6848340" lon="-6.4707250">
        <ele>262.6</ele>
        <time>2021-10-17T08:47:46Z</time>
      </trkpt>
      <trkpt lat="39.6848130" lon="-6.4707280">
        <ele>263.2</ele>
        <time>2021-10-17T08:47:48Z</time>
      </trkpt>
      <trkpt lat="39.6847420" lon="-6.4707390">
        <ele>264.2</ele>
        <time>2021-10-17T08:47:54Z</time>
      </trkpt>
      <trkpt lat="39.6847070" lon="-6.4707540">
        <ele>264.6</ele>
        <time>2021-10-17T08:47:57Z</time>
      </trkpt>
      <trkpt lat="39.6846830" lon="-6.4707640">
        <ele>264.8</ele>
        <time>2021-10-17T08:47:59Z</time>
      </trkpt>
      <trkpt lat="39.6846610" lon="-6.4707780">
        <ele>265.2</ele>
        <time>2021-10-17T08:48:01Z</time>
      </trkpt>
      <trkpt lat="39.6846400" lon="-6.4707960">
        <ele>265.4</ele>
        <time>2021-10-17T08:48:03Z</time>
      </trkpt>
      <trkpt lat="39.6846100" lon="-6.4708250">
        <ele>265.6</ele>
        <time>2021-10-17T08:48:06Z</time>
      </trkpt>
      <trkpt lat="39.6845490" lon="-6.4709020">
        <ele>266.4</ele>
        <time>2021-10-17T08:48:12Z</time>
      </trkpt>
      <trkpt lat="39.6845310" lon="-6.4709260">
        <ele>266.6</ele>
        <time>2021-10-17T08:48:14Z</time>
      </trkpt>
      <trkpt lat="39.6845140" lon="-6.4709550">
        <ele>266.8</ele>
        <time>2021-10-17T08:48:16Z</time>
      </trkpt>
      <trkpt lat="39.6845040" lon="-6.4709690">
        <ele>267.0</ele>
        <time>2021-10-17T08:48:17Z</time>
      </trkpt>
      <trkpt lat="39.6844850" lon="-6.4709910">
        <ele>267.2</ele>
        <time>2021-10-17T08:48:19Z</time>
      </trkpt>
      <trkpt lat="39.6844700" lon="-6.4710130">
        <ele>267.2</ele>
        <time>2021-10-17T08:48:21Z</time>
      </trkpt>
      <trkpt lat="39.6844600" lon="-6.4710260">
        <ele>267.4</ele>
        <time>2021-10-17T08:48:22Z</time>
      </trkpt>
      <trkpt lat="39.6844500" lon="-6.4710380">
        <ele>267.4</ele>
        <time>2021-10-17T08:48:23Z</time>
      </trkpt>
      <trkpt lat="39.6844420" lon="-6.4710500">
        <ele>267.6</ele>
        <time>2021-10-17T08:48:24Z</time>
      </trkpt>
      <trkpt lat="39.6844040" lon="-6.4710880">
        <ele>268.0</ele>
        <time>2021-10-17T08:48:27Z</time>
      </trkpt>
      <trkpt lat="39.6843660" lon="-6.4711140">
        <ele>268.4</ele>
        <time>2021-10-17T08:48:30Z</time>
      </trkpt>
      <trkpt lat="39.6843390" lon="-6.4711300">
        <ele>268.6</ele>
        <time>2021-10-17T08:48:32Z</time>
      </trkpt>
      <trkpt lat="39.6843120" lon="-6.4711440">
        <ele>269.0</ele>
        <time>2021-10-17T08:48:34Z</time>
      </trkpt>
      <trkpt lat="39.6842740" lon="-6.4711470">
        <ele>269.4</ele>
        <time>2021-10-17T08:48:37Z</time>
      </trkpt>
      <trkpt lat="39.6842630" lon="-6.4711480">
        <ele>269.6</ele>
        <time>2021-10-17T08:48:38Z</time>
      </trkpt>
      <trkpt lat="39.6842520" lon="-6.4711540">
        <ele>269.8</ele>
        <time>2021-10-17T08:48:39Z</time>
      </trkpt>
      <trkpt lat="39.6842110" lon="-6.4711810">
        <ele>270.4</ele>
        <time>2021-10-17T08:48:43Z</time>
      </trkpt>
      <trkpt lat="39.6842010" lon="-6.4711930">
        <ele>270.6</ele>
        <time>2021-10-17T08:48:44Z</time>
      </trkpt>
      <trkpt lat="39.6841900" lon="-6.4712010">
        <ele>271.0</ele>
        <time>2021-10-17T08:48:45Z</time>
      </trkpt>
      <trkpt lat="39.6841680" lon="-6.4712220">
        <ele>271.4</ele>
        <time>2021-10-17T08:48:47Z</time>
      </trkpt>
      <trkpt lat="39.6841410" lon="-6.4712460">
        <ele>271.6</ele>
        <time>2021-10-17T08:48:49Z</time>
      </trkpt>
      <trkpt lat="39.6841220" lon="-6.4712640">
        <ele>271.6</ele>
        <time>2021-10-17T08:48:50Z</time>
      </trkpt>
      <trkpt lat="39.6840790" lon="-6.4713090">
        <ele>271.6</ele>
        <time>2021-10-17T08:48:52Z</time>
      </trkpt>
      <trkpt lat="39.6840470" lon="-6.4713360">
        <ele>271.6</ele>
        <time>2021-10-17T08:48:53Z</time>
      </trkpt>
      <trkpt lat="39.6840110" lon="-6.4713700">
        <ele>271.6</ele>
        <time>2021-10-17T08:48:54Z</time>
      </trkpt>
      <trkpt lat="39.6839740" lon="-6.4714180">
        <ele>271.6</ele>
        <time>2021-10-17T08:48:55Z</time>
      </trkpt>
      <trkpt lat="39.6839480" lon="-6.4714730">
        <ele>271.6</ele>
        <time>2021-10-17T08:48:56Z</time>
      </trkpt>
      <trkpt lat="39.6839180" lon="-6.4715830">
        <ele>271.6</ele>
        <time>2021-10-17T08:48:58Z</time>
      </trkpt>
      <trkpt lat="39.6839090" lon="-6.4716260">
        <ele>271.6</ele>
        <time>2021-10-17T08:48:59Z</time>
      </trkpt>
      <trkpt lat="39.6838940" lon="-6.4717330">
        <ele>270.8</ele>
        <time>2021-10-17T08:49:03Z</time>
      </trkpt>
      <trkpt lat="39.6838930" lon="-6.4717600">
        <ele>270.8</ele>
        <time>2021-10-17T08:49:04Z</time>
      </trkpt>
      <trkpt lat="39.6838950" lon="-6.4717830">
        <ele>270.8</ele>
        <time>2021-10-17T08:49:05Z</time>
      </trkpt>
      <trkpt lat="39.6839170" lon="-6.4718950">
        <ele>271.2</ele>
        <time>2021-10-17T08:49:10Z</time>
      </trkpt>
      <trkpt lat="39.6839270" lon="-6.4719340">
        <ele>271.4</ele>
        <time>2021-10-17T08:49:12Z</time>
      </trkpt>
      <trkpt lat="39.6839360" lon="-6.4720010">
        <ele>272.0</ele>
        <time>2021-10-17T08:49:15Z</time>
      </trkpt>
      <trkpt lat="39.6839320" lon="-6.4720830">
        <ele>272.8</ele>
        <time>2021-10-17T08:49:19Z</time>
      </trkpt>
      <trkpt lat="39.6839270" lon="-6.4720980">
        <ele>273.0</ele>
        <time>2021-10-17T08:49:20Z</time>
      </trkpt>
      <trkpt lat="39.6839150" lon="-6.4721330">
        <ele>273.0</ele>
        <time>2021-10-17T08:49:22Z</time>
      </trkpt>
      <trkpt lat="39.6839070" lon="-6.4721670">
        <ele>273.2</ele>
        <time>2021-10-17T08:49:24Z</time>
      </trkpt>
      <trkpt lat="39.6838960" lon="-6.4721920">
        <ele>273.4</ele>
        <time>2021-10-17T08:49:26Z</time>
      </trkpt>
      <trkpt lat="39.6838640" lon="-6.4722460">
        <ele>273.4</ele>
        <time>2021-10-17T08:49:29Z</time>
      </trkpt>
      <trkpt lat="39.6837830" lon="-6.4723450">
        <ele>273.4</ele>
        <time>2021-10-17T08:49:34Z</time>
      </trkpt>
      <trkpt lat="39.6836550" lon="-6.4724900">
        <ele>272.8</ele>
        <time>2021-10-17T08:49:40Z</time>
      </trkpt>
      <trkpt lat="39.6836230" lon="-6.4725380">
        <ele>272.0</ele>
        <time>2021-10-17T08:49:42Z</time>
      </trkpt>
      <trkpt lat="39.6836040" lon="-6.4725860">
        <ele>271.4</ele>
        <time>2021-10-17T08:49:44Z</time>
      </trkpt>
      <trkpt lat="39.6835640" lon="-6.4726440">
        <ele>270.4</ele>
        <time>2021-10-17T08:49:46Z</time>
      </trkpt>
      <trkpt lat="39.6835310" lon="-6.4727360">
        <ele>269.6</ele>
        <time>2021-10-17T08:49:48Z</time>
      </trkpt>
      <trkpt lat="39.6835340" lon="-6.4727830">
        <ele>269.4</ele>
        <time>2021-10-17T08:49:49Z</time>
      </trkpt>
      <trkpt lat="39.6835580" lon="-6.4728870">
        <ele>268.6</ele>
        <time>2021-10-17T08:49:52Z</time>
      </trkpt>
      <trkpt lat="39.6835620" lon="-6.4729710">
        <ele>268.2</ele>
        <time>2021-10-17T08:49:55Z</time>
      </trkpt>
      <trkpt lat="39.6835430" lon="-6.4730940">
        <ele>268.2</ele>
        <time>2021-10-17T08:49:59Z</time>
      </trkpt>
      <trkpt lat="39.6835100" lon="-6.4731610">
        <ele>268.0</ele>
        <time>2021-10-17T08:50:01Z</time>
      </trkpt>
      <trkpt lat="39.6834550" lon="-6.4732710">
        <ele>267.8</ele>
        <time>2021-10-17T08:50:04Z</time>
      </trkpt>
      <trkpt lat="39.6834070" lon="-6.4733490">
        <ele>267.6</ele>
        <time>2021-10-17T08:50:07Z</time>
      </trkpt>
      <trkpt lat="39.6833850" lon="-6.4733850">
        <ele>267.6</ele>
        <time>2021-10-17T08:50:09Z</time>
      </trkpt>
      <trkpt lat="39.6832830" lon="-6.4734330">
        <ele>267.6</ele>
        <time>2021-10-17T08:50:14Z</time>
      </trkpt>
      <trkpt lat="39.6831410" lon="-6.4733810">
        <ele>267.8</ele>
        <time>2021-10-17T08:50:20Z</time>
      </trkpt>
      <trkpt lat="39.6830000" lon="-6.4733240">
        <ele>267.6</ele>
        <time>2021-10-17T08:50:24Z</time>
      </trkpt>
      <trkpt lat="39.6829040" lon="-6.4732770">
        <ele>267.0</ele>
        <time>2021-10-17T08:50:26Z</time>
      </trkpt>
      <trkpt lat="39.6827790" lon="-6.4732270">
        <ele>266.6</ele>
        <time>2021-10-17T08:50:29Z</time>
      </trkpt>
      <trkpt lat="39.6827120" lon="-6.4732660">
        <ele>266.2</ele>
        <time>2021-10-17T08:50:31Z</time>
      </trkpt>
      <trkpt lat="39.6826960" lon="-6.4733060">
        <ele>266.0</ele>
        <time>2021-10-17T08:50:32Z</time>
      </trkpt>
      <trkpt lat="39.6826900" lon="-6.4733350">
        <ele>265.8</ele>
        <time>2021-10-17T08:50:33Z</time>
      </trkpt>
      <trkpt lat="39.6826840" lon="-6.4734170">
        <ele>265.8</ele>
        <time>2021-10-17T08:50:36Z</time>
      </trkpt>
      <trkpt lat="39.6826640" lon="-6.4735430">
        <ele>266.6</ele>
        <time>2021-10-17T08:50:42Z</time>
      </trkpt>
      <trkpt lat="39.6826490" lon="-6.4735830">
        <ele>267.2</ele>
        <time>2021-10-17T08:50:44Z</time>
      </trkpt>
      <trkpt lat="39.6826410" lon="-6.4735970">
        <ele>267.4</ele>
        <time>2021-10-17T08:50:45Z</time>
      </trkpt>
      <trkpt lat="39.6825940" lon="-6.4736270">
        <ele>268.4</ele>
        <time>2021-10-17T08:50:49Z</time>
      </trkpt>
      <trkpt lat="39.6825300" lon="-6.4736140">
        <ele>269.4</ele>
        <time>2021-10-17T08:50:54Z</time>
      </trkpt>
      <trkpt lat="39.6825160" lon="-6.4736090">
        <ele>269.6</ele>
        <time>2021-10-17T08:50:55Z</time>
      </trkpt>
      <trkpt lat="39.6825030" lon="-6.4736020">
        <ele>269.6</ele>
        <time>2021-10-17T08:50:56Z</time>
      </trkpt>
      <trkpt lat="39.6823980" lon="-6.4735840">
        <ele>270.0</ele>
        <time>2021-10-17T08:51:01Z</time>
      </trkpt>
      <trkpt lat="39.6822600" lon="-6.4735460">
        <ele>269.8</ele>
        <time>2021-10-17T08:51:06Z</time>
      </trkpt>
      <trkpt lat="39.6822340" lon="-6.4735380">
        <ele>269.8</ele>
        <time>2021-10-17T08:51:07Z</time>
      </trkpt>
      <trkpt lat="39.6822160" lon="-6.4735270">
        <ele>269.8</ele>
        <time>2021-10-17T08:51:08Z</time>
      </trkpt>
      <trkpt lat="39.6820720" lon="-6.4734790">
        <ele>269.6</ele>
        <time>2021-10-17T08:51:13Z</time>
      </trkpt>
      <trkpt lat="39.6818640" lon="-6.4734410">
        <ele>269.4</ele>
        <time>2021-10-17T08:51:19Z</time>
      </trkpt>
      <trkpt lat="39.6817480" lon="-6.4733690">
        <ele>269.0</ele>
        <time>2021-10-17T08:51:22Z</time>
      </trkpt>
      <trkpt lat="39.6817090" lon="-6.4733400">
        <ele>269.0</ele>
        <time>2021-10-17T08:51:23Z</time>
      </trkpt>
      <trkpt lat="39.6816300" lon="-6.4733070">
        <ele>268.2</ele>
        <time>2021-10-17T08:51:25Z</time>
      </trkpt>
      <trkpt lat="39.6815730" lon="-6.4733200">
        <ele>267.4</ele>
        <time>2021-10-17T08:51:27Z</time>
      </trkpt>
      <trkpt lat="39.6815250" lon="-6.4733590">
        <ele>267.2</ele>
        <time>2021-10-17T08:51:29Z</time>
      </trkpt>
      <trkpt lat="39.6814900" lon="-6.4734180">
        <ele>267.2</ele>
        <time>2021-10-17T08:51:32Z</time>
      </trkpt>
      <trkpt lat="39.6814610" lon="-6.4735390">
        <ele>267.8</ele>
        <time>2021-10-17T08:51:38Z</time>
      </trkpt>
      <trkpt lat="39.6814550" lon="-6.4736000">
        <ele>268.2</ele>
        <time>2021-10-17T08:51:41Z</time>
      </trkpt>
      <trkpt lat="39.6814410" lon="-6.4736840">
        <ele>269.0</ele>
        <time>2021-10-17T08:51:45Z</time>
      </trkpt>
      <trkpt lat="39.6814440" lon="-6.4737000">
        <ele>269.4</ele>
        <time>2021-10-17T08:51:46Z</time>
      </trkpt>
      <trkpt lat="39.6814370" lon="-6.4737690">
        <ele>270.6</ele>
        <time>2021-10-17T08:51:50Z</time>
      </trkpt>
      <trkpt lat="39.6814380" lon="-6.4738000">
        <ele>271.2</ele>
        <time>2021-10-17T08:51:52Z</time>
      </trkpt>
      <trkpt lat="39.6814380" lon="-6.4738300">
        <ele>271.4</ele>
        <time>2021-10-17T08:51:54Z</time>
      </trkpt>
      <trkpt lat="39.6814370" lon="-6.4738510">
        <ele>271.6</ele>
        <time>2021-10-17T08:51:55Z</time>
      </trkpt>
      <trkpt lat="39.6814210" lon="-6.4739250">
        <ele>272.6</ele>
        <time>2021-10-17T08:52:00Z</time>
      </trkpt>
      <trkpt lat="39.6814230" lon="-6.4739580">
        <ele>273.2</ele>
        <time>2021-10-17T08:52:02Z</time>
      </trkpt>
      <trkpt lat="39.6813930" lon="-6.4740250">
        <ele>273.6</ele>
        <time>2021-10-17T08:52:06Z</time>
      </trkpt>
      <trkpt lat="39.6813870" lon="-6.4740350">
        <ele>273.8</ele>
        <time>2021-10-17T08:52:07Z</time>
      </trkpt>
      <trkpt lat="39.6813830" lon="-6.4740460">
        <ele>274.0</ele>
        <time>2021-10-17T08:52:08Z</time>
      </trkpt>
      <trkpt lat="39.6813780" lon="-6.4740560">
        <ele>274.0</ele>
        <time>2021-10-17T08:52:09Z</time>
      </trkpt>
      <trkpt lat="39.6813720" lon="-6.4740690">
        <ele>274.8</ele>
        <time>2021-10-17T08:52:12Z</time>
      </trkpt>
      <trkpt lat="39.6813720" lon="-6.4740690">
        <ele>275.0</ele>
        <time>2021-10-17T08:52:13Z</time>
      </trkpt>
      <trkpt lat="39.6813090" lon="-6.4741120">
        <ele>275.8</ele>
        <time>2021-10-17T08:55:45Z</time>
      </trkpt>
      <trkpt lat="39.6812950" lon="-6.4741190">
        <ele>275.8</ele>
        <time>2021-10-17T08:55:46Z</time>
      </trkpt>
      <trkpt lat="39.6812570" lon="-6.4741310">
        <ele>275.8</ele>
        <time>2021-10-17T08:55:48Z</time>
      </trkpt>
      <trkpt lat="39.6811170" lon="-6.4741560">
        <ele>275.4</ele>
        <time>2021-10-17T08:55:52Z</time>
      </trkpt>
      <trkpt lat="39.6810330" lon="-6.4741640">
        <ele>275.0</ele>
        <time>2021-10-17T08:55:54Z</time>
      </trkpt>
      <trkpt lat="39.6809360" lon="-6.4741840">
        <ele>274.6</ele>
        <time>2021-10-17T08:55:56Z</time>
      </trkpt>
      <trkpt lat="39.6808880" lon="-6.4742040">
        <ele>274.4</ele>
        <time>2021-10-17T08:55:57Z</time>
      </trkpt>
      <trkpt lat="39.6808450" lon="-6.4742390">
        <ele>274.0</ele>
        <time>2021-10-17T08:55:58Z</time>
      </trkpt>
      <trkpt lat="39.6807630" lon="-6.4743320">
        <ele>273.8</ele>
        <time>2021-10-17T08:56:01Z</time>
      </trkpt>
      <trkpt lat="39.6806680" lon="-6.4744320">
        <ele>273.4</ele>
        <time>2021-10-17T08:56:07Z</time>
      </trkpt>
      <trkpt lat="39.6805510" lon="-6.4745160">
        <ele>273.6</ele>
        <time>2021-10-17T08:56:12Z</time>
      </trkpt>
      <trkpt lat="39.6805180" lon="-6.4745340">
        <ele>273.6</ele>
        <time>2021-10-17T08:56:13Z</time>
      </trkpt>
      <trkpt lat="39.6804030" lon="-6.4745790">
        <ele>273.6</ele>
        <time>2021-10-17T08:56:17Z</time>
      </trkpt>
      <trkpt lat="39.6803460" lon="-6.4745910">
        <ele>273.6</ele>
        <time>2021-10-17T08:56:19Z</time>
      </trkpt>
      <trkpt lat="39.6802150" lon="-6.4745590">
        <ele>273.8</ele>
        <time>2021-10-17T08:56:24Z</time>
      </trkpt>
      <trkpt lat="39.6800440" lon="-6.4743590">
        <ele>273.8</ele>
        <time>2021-10-17T08:56:31Z</time>
      </trkpt>
      <trkpt lat="39.6800210" lon="-6.4743220">
        <ele>273.8</ele>
        <time>2021-10-17T08:56:32Z</time>
      </trkpt>
      <trkpt lat="39.6799690" lon="-6.4742350">
        <ele>273.6</ele>
        <time>2021-10-17T08:56:34Z</time>
      </trkpt>
      <trkpt lat="39.6798950" lon="-6.4741720">
        <ele>273.2</ele>
        <time>2021-10-17T08:56:36Z</time>
      </trkpt>
      <trkpt lat="39.6798120" lon="-6.4741690">
        <ele>272.4</ele>
        <time>2021-10-17T08:56:38Z</time>
      </trkpt>
      <trkpt lat="39.6797580" lon="-6.4741950">
        <ele>272.4</ele>
        <time>2021-10-17T08:56:40Z</time>
      </trkpt>
      <trkpt lat="39.6797240" lon="-6.4742360">
        <ele>272.2</ele>
        <time>2021-10-17T08:56:43Z</time>
      </trkpt>
      <trkpt lat="39.6797220" lon="-6.4742390">
        <ele>272.2</ele>
        <time>2021-10-17T08:56:44Z</time>
      </trkpt>
      <trkpt lat="39.6797030" lon="-6.4742500">
        <ele>272.8</ele>
        <time>2021-10-17T08:56:47Z</time>
      </trkpt>
      <trkpt lat="39.6796810" lon="-6.4742630">
        <ele>273.4</ele>
        <time>2021-10-17T08:56:51Z</time>
      </trkpt>
      <trkpt lat="39.6796720" lon="-6.4742820">
        <ele>273.6</ele>
        <time>2021-10-17T08:56:54Z</time>
      </trkpt>
      <trkpt lat="39.6796490" lon="-6.4743230">
        <ele>274.6</ele>
        <time>2021-10-17T08:57:01Z</time>
      </trkpt>
      <trkpt lat="39.6796430" lon="-6.4743330">
        <ele>274.8</ele>
        <time>2021-10-17T08:57:02Z</time>
      </trkpt>
      <trkpt lat="39.6796090" lon="-6.4743890">
        <ele>276.0</ele>
        <time>2021-10-17T08:57:08Z</time>
      </trkpt>
      <trkpt lat="39.6796000" lon="-6.4744120">
        <ele>276.2</ele>
        <time>2021-10-17T08:57:10Z</time>
      </trkpt>
      <trkpt lat="39.6795760" lon="-6.4744570">
        <ele>277.2</ele>
        <time>2021-10-17T08:57:14Z</time>
      </trkpt>
      <trkpt lat="39.6795530" lon="-6.4745100">
        <ele>278.0</ele>
        <time>2021-10-17T08:57:19Z</time>
      </trkpt>
      <trkpt lat="39.6795490" lon="-6.4745200">
        <ele>278.4</ele>
        <time>2021-10-17T08:57:20Z</time>
      </trkpt>
      <trkpt lat="39.6795440" lon="-6.4745270">
        <ele>278.4</ele>
        <time>2021-10-17T08:57:21Z</time>
      </trkpt>
      <trkpt lat="39.6795360" lon="-6.4745390">
        <ele>278.6</ele>
        <time>2021-10-17T08:57:23Z</time>
      </trkpt>
      <trkpt lat="39.6795170" lon="-6.4745690">
        <ele>279.2</ele>
        <time>2021-10-17T08:57:26Z</time>
      </trkpt>
      <trkpt lat="39.6795120" lon="-6.4745760">
        <ele>279.8</ele>
        <time>2021-10-17T08:57:27Z</time>
      </trkpt>
      <trkpt lat="39.6795000" lon="-6.4745890">
        <ele>280.4</ele>
        <time>2021-10-17T08:57:29Z</time>
      </trkpt>
      <trkpt lat="39.6794860" lon="-6.4746060">
        <ele>280.8</ele>
        <time>2021-10-17T08:57:31Z</time>
      </trkpt>
      <trkpt lat="39.6794700" lon="-6.4746190">
        <ele>281.0</ele>
        <time>2021-10-17T08:57:33Z</time>
      </trkpt>
      <trkpt lat="39.6794660" lon="-6.4746210">
        <ele>281.2</ele>
        <time>2021-10-17T08:57:36Z</time>
      </trkpt>
      <trkpt lat="39.6791460" lon="-6.4745510">
        <ele>284.6</ele>
        <time>2021-10-17T08:58:15Z</time>
      </trkpt>
      <trkpt lat="39.6791310" lon="-6.4745250">
        <ele>284.6</ele>
        <time>2021-10-17T08:58:17Z</time>
      </trkpt>
      <trkpt lat="39.6791270" lon="-6.4745190">
        <ele>284.6</ele>
        <time>2021-10-17T08:58:20Z</time>
      </trkpt>
      <trkpt lat="39.6791020" lon="-6.4744780">
        <ele>284.0</ele>
        <time>2021-10-17T08:59:25Z</time>
      </trkpt>
      <trkpt lat="39.6790430" lon="-6.4743490">
        <ele>284.0</ele>
        <time>2021-10-17T08:59:29Z</time>
      </trkpt>
      <trkpt lat="39.6789810" lon="-6.4742490">
        <ele>283.6</ele>
        <time>2021-10-17T08:59:32Z</time>
      </trkpt>
      <trkpt lat="39.6789000" lon="-6.4741700">
        <ele>283.4</ele>
        <time>2021-10-17T08:59:35Z</time>
      </trkpt>
      <trkpt lat="39.6787800" lon="-6.4741340">
        <ele>283.2</ele>
        <time>2021-10-17T08:59:39Z</time>
      </trkpt>
      <trkpt lat="39.6786800" lon="-6.4741760">
        <ele>283.4</ele>
        <time>2021-10-17T08:59:44Z</time>
      </trkpt>
      <trkpt lat="39.6785810" lon="-6.4741970">
        <ele>284.8</ele>
        <time>2021-10-17T08:59:50Z</time>
      </trkpt>
      <trkpt lat="39.6784620" lon="-6.4741710">
        <ele>285.8</ele>
        <time>2021-10-17T08:59:57Z</time>
      </trkpt>
      <trkpt lat="39.6784080" lon="-6.4741340">
        <ele>286.0</ele>
        <time>2021-10-17T09:00:00Z</time>
      </trkpt>
      <trkpt lat="39.6783590" lon="-6.4740630">
        <ele>286.2</ele>
        <time>2021-10-17T09:00:03Z</time>
      </trkpt>
      <trkpt lat="39.6783330" lon="-6.4739340">
        <ele>286.2</ele>
        <time>2021-10-17T09:00:06Z</time>
      </trkpt>
      <trkpt lat="39.6782810" lon="-6.4738280">
        <ele>285.8</ele>
        <time>2021-10-17T09:00:08Z</time>
      </trkpt>
      <trkpt lat="39.6782110" lon="-6.4737850">
        <ele>285.6</ele>
        <time>2021-10-17T09:00:10Z</time>
      </trkpt>
      <trkpt lat="39.6781720" lon="-6.4737830">
        <ele>285.2</ele>
        <time>2021-10-17T09:00:11Z</time>
      </trkpt>
      <trkpt lat="39.6781390" lon="-6.4737840">
        <ele>284.6</ele>
        <time>2021-10-17T09:00:12Z</time>
      </trkpt>
      <trkpt lat="39.6781190" lon="-6.4737860">
        <ele>284.0</ele>
        <time>2021-10-17T09:00:15Z</time>
      </trkpt>
      <trkpt lat="39.6781180" lon="-6.4737830">
        <ele>284.0</ele>
        <time>2021-10-17T09:00:17Z</time>
      </trkpt>
      <trkpt lat="39.6776910" lon="-6.4737120">
        <ele>289.8</ele>
        <time>2021-10-17T09:01:14Z</time>
      </trkpt>
      <trkpt lat="39.6776740" lon="-6.4737000">
        <ele>289.8</ele>
        <time>2021-10-17T09:01:15Z</time>
      </trkpt>
      <trkpt lat="39.6776580" lon="-6.4736860">
        <ele>289.8</ele>
        <time>2021-10-17T09:01:16Z</time>
      </trkpt>
      <trkpt lat="39.6776230" lon="-6.4736520">
        <ele>289.8</ele>
        <time>2021-10-17T09:01:18Z</time>
      </trkpt>
      <trkpt lat="39.6775800" lon="-6.4736110">
        <ele>289.8</ele>
        <time>2021-10-17T09:01:20Z</time>
      </trkpt>
      <trkpt lat="39.6775310" lon="-6.4735640">
        <ele>289.8</ele>
        <time>2021-10-17T09:01:22Z</time>
      </trkpt>
      <trkpt lat="39.6774000" lon="-6.4735000">
        <ele>289.6</ele>
        <time>2021-10-17T09:01:27Z</time>
      </trkpt>
      <trkpt lat="39.6773780" lon="-6.4734980">
        <ele>289.6</ele>
        <time>2021-10-17T09:01:28Z</time>
      </trkpt>
      <trkpt lat="39.6773150" lon="-6.4734910">
        <ele>289.6</ele>
        <time>2021-10-17T09:01:31Z</time>
      </trkpt>
      <trkpt lat="39.6773000" lon="-6.4734880">
        <ele>289.8</ele>
        <time>2021-10-17T09:01:32Z</time>
      </trkpt>
      <trkpt lat="39.6772230" lon="-6.4734630">
        <ele>290.2</ele>
        <time>2021-10-17T09:01:37Z</time>
      </trkpt>
      <trkpt lat="39.6772130" lon="-6.4734530">
        <ele>290.6</ele>
        <time>2021-10-17T09:01:38Z</time>
      </trkpt>
      <trkpt lat="39.6772010" lon="-6.4734460">
        <ele>291.0</ele>
        <time>2021-10-17T09:01:39Z</time>
      </trkpt>
      <trkpt lat="39.6771390" lon="-6.4734120">
        <ele>291.6</ele>
        <time>2021-10-17T09:01:44Z</time>
      </trkpt>
      <trkpt lat="39.6770730" lon="-6.4734090">
        <ele>292.0</ele>
        <time>2021-10-17T09:01:48Z</time>
      </trkpt>
      <trkpt lat="39.6770100" lon="-6.4734340">
        <ele>292.4</ele>
        <time>2021-10-17T09:01:51Z</time>
      </trkpt>
      <trkpt lat="39.6768580" lon="-6.4735270">
        <ele>292.4</ele>
        <time>2021-10-17T09:01:59Z</time>
      </trkpt>
      <trkpt lat="39.6767770" lon="-6.4735820">
        <ele>292.4</ele>
        <time>2021-10-17T09:02:02Z</time>
      </trkpt>
      <trkpt lat="39.6766950" lon="-6.4736170">
        <ele>292.4</ele>
        <time>2021-10-17T09:02:04Z</time>
      </trkpt>
      <trkpt lat="39.6765660" lon="-6.4736620">
        <ele>292.0</ele>
        <time>2021-10-17T09:02:09Z</time>
      </trkpt>
      <trkpt lat="39.6764890" lon="-6.4737090">
        <ele>292.2</ele>
        <time>2021-10-17T09:02:14Z</time>
      </trkpt>
      <trkpt lat="39.6764430" lon="-6.4737270">
        <ele>293.0</ele>
        <time>2021-10-17T09:02:18Z</time>
      </trkpt>
      <trkpt lat="39.6764430" lon="-6.4737270">
        <ele>293.4</ele>
        <time>2021-10-17T09:02:19Z</time>
      </trkpt>
      <trkpt lat="39.6759810" lon="-6.4737310">
        <ele>299.8</ele>
        <time>2021-10-17T09:03:13Z</time>
      </trkpt>
      <trkpt lat="39.6759620" lon="-6.4737120">
        <ele>299.6</ele>
        <time>2021-10-17T09:03:14Z</time>
      </trkpt>
      <trkpt lat="39.6759380" lon="-6.4736940">
        <ele>299.6</ele>
        <time>2021-10-17T09:03:15Z</time>
      </trkpt>
      <trkpt lat="39.6757750" lon="-6.4736040">
        <ele>299.0</ele>
        <time>2021-10-17T09:03:20Z</time>
      </trkpt>
      <trkpt lat="39.6757130" lon="-6.4735460">
        <ele>298.6</ele>
        <time>2021-10-17T09:03:22Z</time>
      </trkpt>
      <trkpt lat="39.6756350" lon="-6.4735010">
        <ele>298.2</ele>
        <time>2021-10-17T09:03:24Z</time>
      </trkpt>
      <trkpt lat="39.6755810" lon="-6.4734870">
        <ele>298.0</ele>
        <time>2021-10-17T09:03:25Z</time>
      </trkpt>
      <trkpt lat="39.6754380" lon="-6.4734560">
        <ele>297.8</ele>
        <time>2021-10-17T09:03:28Z</time>
      </trkpt>
      <trkpt lat="39.6754180" lon="-6.4734520">
        <ele>297.4</ele>
        <time>2021-10-17T09:03:29Z</time>
      </trkpt>
      <trkpt lat="39.6753520" lon="-6.4734060">
        <ele>297.2</ele>
        <time>2021-10-17T09:03:34Z</time>
      </trkpt>
      <trkpt lat="39.6753020" lon="-6.4733170">
        <ele>298.6</ele>
        <time>2021-10-17T09:03:40Z</time>
      </trkpt>
      <trkpt lat="39.6752980" lon="-6.4733000">
        <ele>299.0</ele>
        <time>2021-10-17T09:03:41Z</time>
      </trkpt>
      <trkpt lat="39.6752910" lon="-6.4732670">
        <ele>300.0</ele>
        <time>2021-10-17T09:03:43Z</time>
      </trkpt>
      <trkpt lat="39.6752820" lon="-6.4732400">
        <ele>300.4</ele>
        <time>2021-10-17T09:03:45Z</time>
      </trkpt>
      <trkpt lat="39.6752450" lon="-6.4731060">
        <ele>300.6</ele>
        <time>2021-10-17T09:03:51Z</time>
      </trkpt>
      <trkpt lat="39.6751830" lon="-6.4729530">
        <ele>300.0</ele>
        <time>2021-10-17T09:03:55Z</time>
      </trkpt>
      <trkpt lat="39.6751280" lon="-6.4728660">
        <ele>299.4</ele>
        <time>2021-10-17T09:03:57Z</time>
      </trkpt>
      <trkpt lat="39.6751020" lon="-6.4728390">
        <ele>299.0</ele>
        <time>2021-10-17T09:03:58Z</time>
      </trkpt>
      <trkpt lat="39.6750630" lon="-6.4728060">
        <ele>298.6</ele>
        <time>2021-10-17T09:04:00Z</time>
      </trkpt>
      <trkpt lat="39.6749650" lon="-6.4727260">
        <ele>298.8</ele>
        <time>2021-10-17T09:04:07Z</time>
      </trkpt>
      <trkpt lat="39.6749020" lon="-6.4726770">
        <ele>300.2</ele>
        <time>2021-10-17T09:04:12Z</time>
      </trkpt>
      <trkpt lat="39.6748920" lon="-6.4726640">
        <ele>300.6</ele>
        <time>2021-10-17T09:04:13Z</time>
      </trkpt>
      <trkpt lat="39.6748800" lon="-6.4726540">
        <ele>301.0</ele>
        <time>2021-10-17T09:04:14Z</time>
      </trkpt>
      <trkpt lat="39.6748560" lon="-6.4726340">
        <ele>301.6</ele>
        <time>2021-10-17T09:04:16Z</time>
      </trkpt>
      <trkpt lat="39.6748360" lon="-6.4726150">
        <ele>302.0</ele>
        <time>2021-10-17T09:04:18Z</time>
      </trkpt>
      <trkpt lat="39.6748260" lon="-6.4726040">
        <ele>302.2</ele>
        <time>2021-10-17T09:04:19Z</time>
      </trkpt>
      <trkpt lat="39.6748100" lon="-6.4725820">
        <ele>302.2</ele>
        <time>2021-10-17T09:04:21Z</time>
      </trkpt>
      <trkpt lat="39.6747510" lon="-6.4724710">
        <ele>302.4</ele>
        <time>2021-10-17T09:04:26Z</time>
      </trkpt>
      <trkpt lat="39.6747490" lon="-6.4724300">
        <ele>302.4</ele>
        <time>2021-10-17T09:04:27Z</time>
      </trkpt>
      <trkpt lat="39.6747710" lon="-6.4723300">
        <ele>302.2</ele>
        <time>2021-10-17T09:04:31Z</time>
      </trkpt>
      <trkpt lat="39.6747730" lon="-6.4723130">
        <ele>302.2</ele>
        <time>2021-10-17T09:04:32Z</time>
      </trkpt>
      <trkpt lat="39.6747560" lon="-6.4722160">
        <ele>302.0</ele>
        <time>2021-10-17T09:04:35Z</time>
      </trkpt>
      <trkpt lat="39.6747560" lon="-6.4721050">
        <ele>301.8</ele>
        <time>2021-10-17T09:04:37Z</time>
      </trkpt>
      <trkpt lat="39.6747720" lon="-6.4719690">
        <ele>301.4</ele>
        <time>2021-10-17T09:04:39Z</time>
      </trkpt>
      <trkpt lat="39.6747500" lon="-6.4718430">
        <ele>300.4</ele>
        <time>2021-10-17T09:04:41Z</time>
      </trkpt>
      <trkpt lat="39.6747250" lon="-6.4718030">
        <ele>299.6</ele>
        <time>2021-10-17T09:04:42Z</time>
      </trkpt>
      <trkpt lat="39.6746740" lon="-6.4717690">
        <ele>298.8</ele>
        <time>2021-10-17T09:04:44Z</time>
      </trkpt>
      <trkpt lat="39.6746530" lon="-6.4717620">
        <ele>298.8</ele>
        <time>2021-10-17T09:04:45Z</time>
      </trkpt>
      <trkpt lat="39.6745270" lon="-6.4717780">
        <ele>298.8</ele>
        <time>2021-10-17T09:04:51Z</time>
      </trkpt>
      <trkpt lat="39.6744030" lon="-6.4717280">
        <ele>299.8</ele>
        <time>2021-10-17T09:04:58Z</time>
      </trkpt>
      <trkpt lat="39.6743300" lon="-6.4716910">
        <ele>301.0</ele>
        <time>2021-10-17T09:05:03Z</time>
      </trkpt>
      <trkpt lat="39.6743110" lon="-6.4716760">
        <ele>301.4</ele>
        <time>2021-10-17T09:05:05Z</time>
      </trkpt>
      <trkpt lat="39.6743010" lon="-6.4716680">
        <ele>302.0</ele>
        <time>2021-10-17T09:05:06Z</time>
      </trkpt>
      <trkpt lat="39.6742810" lon="-6.4716220">
        <ele>303.0</ele>
        <time>2021-10-17T09:05:09Z</time>
      </trkpt>
      <trkpt lat="39.6742780" lon="-6.4716090">
        <ele>303.2</ele>
        <time>2021-10-17T09:05:10Z</time>
      </trkpt>
      <trkpt lat="39.6742660" lon="-6.4715700">
        <ele>303.8</ele>
        <time>2021-10-17T09:05:13Z</time>
      </trkpt>
      <trkpt lat="39.6742630" lon="-6.4715570">
        <ele>303.8</ele>
        <time>2021-10-17T09:05:14Z</time>
      </trkpt>
      <trkpt lat="39.6742610" lon="-6.4715320">
        <ele>304.0</ele>
        <time>2021-10-17T09:05:17Z</time>
      </trkpt>
      <trkpt lat="39.6742610" lon="-6.4715320">
        <ele>304.2</ele>
        <time>2021-10-17T09:05:18Z</time>
      </trkpt>
      <trkpt lat="39.6742610" lon="-6.4715320">
        <ele>304.2</ele>
        <time>2021-10-17T09:05:19Z</time>
      </trkpt>
      <trkpt lat="39.6742740" lon="-6.4715050">
        <ele>303.8</ele>
        <time>2021-10-17T09:07:02Z</time>
      </trkpt>
      <trkpt lat="39.6742840" lon="-6.4714740">
        <ele>303.8</ele>
        <time>2021-10-17T09:07:03Z</time>
      </trkpt>
      <trkpt lat="39.6742870" lon="-6.4714380">
        <ele>303.8</ele>
        <time>2021-10-17T09:07:04Z</time>
      </trkpt>
      <trkpt lat="39.6742370" lon="-6.4712200">
        <ele>303.4</ele>
        <time>2021-10-17T09:07:09Z</time>
      </trkpt>
      <trkpt lat="39.6741850" lon="-6.4711690">
        <ele>302.6</ele>
        <time>2021-10-17T09:07:10Z</time>
      </trkpt>
      <trkpt lat="39.6741500" lon="-6.4711460">
        <ele>302.2</ele>
        <time>2021-10-17T09:07:11Z</time>
      </trkpt>
      <trkpt lat="39.6741120" lon="-6.4711290">
        <ele>301.8</ele>
        <time>2021-10-17T09:07:12Z</time>
      </trkpt>
      <trkpt lat="39.6740870" lon="-6.4711200">
        <ele>301.4</ele>
        <time>2021-10-17T09:07:13Z</time>
      </trkpt>
      <trkpt lat="39.6740540" lon="-6.4711200">
        <ele>301.0</ele>
        <time>2021-10-17T09:07:15Z</time>
      </trkpt>
      <trkpt lat="39.6740010" lon="-6.4711030">
        <ele>300.8</ele>
        <time>2021-10-17T09:07:19Z</time>
      </trkpt>
      <trkpt lat="39.6739700" lon="-6.4711040">
        <ele>301.0</ele>
        <time>2021-10-17T09:07:21Z</time>
      </trkpt>
      <trkpt lat="39.6738780" lon="-6.4710940">
        <ele>302.6</ele>
        <time>2021-10-17T09:07:27Z</time>
      </trkpt>
      <trkpt lat="39.6738640" lon="-6.4710970">
        <ele>303.0</ele>
        <time>2021-10-17T09:07:28Z</time>
      </trkpt>
      <trkpt lat="39.6738480" lon="-6.4710980">
        <ele>303.0</ele>
        <time>2021-10-17T09:07:29Z</time>
      </trkpt>
      <trkpt lat="39.6738370" lon="-6.4710970">
        <ele>303.4</ele>
        <time>2021-10-17T09:07:30Z</time>
      </trkpt>
      <trkpt lat="39.6738230" lon="-6.4710980">
        <ele>303.6</ele>
        <time>2021-10-17T09:07:31Z</time>
      </trkpt>
      <trkpt lat="39.6738080" lon="-6.4710960">
        <ele>303.8</ele>
        <time>2021-10-17T09:07:32Z</time>
      </trkpt>
      <trkpt lat="39.6737750" lon="-6.4710920">
        <ele>304.2</ele>
        <time>2021-10-17T09:07:34Z</time>
      </trkpt>
      <trkpt lat="39.6737430" lon="-6.4710860">
        <ele>304.4</ele>
        <time>2021-10-17T09:07:36Z</time>
      </trkpt>
      <trkpt lat="39.6737290" lon="-6.4710770">
        <ele>304.6</ele>
        <time>2021-10-17T09:07:37Z</time>
      </trkpt>
      <trkpt lat="39.6736670" lon="-6.4710360">
        <ele>305.4</ele>
        <time>2021-10-17T09:07:42Z</time>
      </trkpt>
      <trkpt lat="39.6736590" lon="-6.4710270">
        <ele>305.6</ele>
        <time>2021-10-17T09:07:43Z</time>
      </trkpt>
      <trkpt lat="39.6736410" lon="-6.4710150">
        <ele>305.8</ele>
        <time>2021-10-17T09:07:45Z</time>
      </trkpt>
      <trkpt lat="39.6736240" lon="-6.4710210">
        <ele>306.2</ele>
        <time>2021-10-17T09:07:48Z</time>
      </trkpt>
      <trkpt lat="39.6736240" lon="-6.4710210">
        <ele>306.2</ele>
        <time>2021-10-17T09:07:49Z</time>
      </trkpt>
      <trkpt lat="39.6735690" lon="-6.4710150">
        <ele>306.4</ele>
        <time>2021-10-17T09:08:26Z</time>
      </trkpt>
      <trkpt lat="39.6735560" lon="-6.4710140">
        <ele>306.4</ele>
        <time>2021-10-17T09:08:27Z</time>
      </trkpt>
      <trkpt lat="39.6735160" lon="-6.4710100">
        <ele>306.4</ele>
        <time>2021-10-17T09:08:29Z</time>
      </trkpt>
      <trkpt lat="39.6734490" lon="-6.4709850">
        <ele>306.4</ele>
        <time>2021-10-17T09:08:33Z</time>
      </trkpt>
      <trkpt lat="39.6733930" lon="-6.4709380">
        <ele>306.4</ele>
        <time>2021-10-17T09:08:36Z</time>
      </trkpt>
      <trkpt lat="39.6733200" lon="-6.4708630">
        <ele>306.2</ele>
        <time>2021-10-17T09:08:39Z</time>
      </trkpt>
      <trkpt lat="39.6732490" lon="-6.4708090">
        <ele>306.0</ele>
        <time>2021-10-17T09:08:41Z</time>
      </trkpt>
      <trkpt lat="39.6730360" lon="-6.4706860">
        <ele>304.8</ele>
        <time>2021-10-17T09:08:46Z</time>
      </trkpt>
      <trkpt lat="39.6729990" lon="-6.4706670">
        <ele>304.4</ele>
        <time>2021-10-17T09:08:47Z</time>
      </trkpt>
      <trkpt lat="39.6729580" lon="-6.4706410">
        <ele>304.2</ele>
        <time>2021-10-17T09:08:48Z</time>
      </trkpt>
      <trkpt lat="39.6728460" lon="-6.4705790">
        <ele>303.2</ele>
        <time>2021-10-17T09:08:52Z</time>
      </trkpt>
      <trkpt lat="39.6728310" lon="-6.4705740">
        <ele>303.0</ele>
        <time>2021-10-17T09:08:53Z</time>
      </trkpt>
      <trkpt lat="39.6728160" lon="-6.4705650">
        <ele>302.8</ele>
        <time>2021-10-17T09:08:54Z</time>
      </trkpt>
      <trkpt lat="39.6727770" lon="-6.4705090">
        <ele>302.8</ele>
        <time>2021-10-17T09:08:58Z</time>
      </trkpt>
      <trkpt lat="39.6727690" lon="-6.4705030">
        <ele>302.8</ele>
        <time>2021-10-17T09:08:59Z</time>
      </trkpt>
      <trkpt lat="39.6727050" lon="-6.4704850">
        <ele>302.8</ele>
        <time>2021-10-17T09:09:04Z</time>
      </trkpt>
      <trkpt lat="39.6726530" lon="-6.4704770">
        <ele>303.4</ele>
        <time>2021-10-17T09:09:08Z</time>
      </trkpt>
      <trkpt lat="39.6726160" lon="-6.4704640">
        <ele>303.8</ele>
        <time>2021-10-17T09:09:11Z</time>
      </trkpt>
      <trkpt lat="39.6725920" lon="-6.4704540">
        <ele>304.2</ele>
        <time>2021-10-17T09:09:13Z</time>
      </trkpt>
      <trkpt lat="39.6725130" lon="-6.4704390">
        <ele>305.0</ele>
        <time>2021-10-17T09:09:18Z</time>
      </trkpt>
      <trkpt lat="39.6724870" lon="-6.4704370">
        <ele>305.4</ele>
        <time>2021-10-17T09:09:20Z</time>
      </trkpt>
      <trkpt lat="39.6723740" lon="-6.4704270">
        <ele>306.2</ele>
        <time>2021-10-17T09:09:28Z</time>
      </trkpt>
      <trkpt lat="39.6723520" lon="-6.4704250">
        <ele>306.4</ele>
        <time>2021-10-17T09:09:29Z</time>
      </trkpt>
      <trkpt lat="39.6722810" lon="-6.4703880">
        <ele>306.6</ele>
        <time>2021-10-17T09:09:32Z</time>
      </trkpt>
      <trkpt lat="39.6722260" lon="-6.4703510">
        <ele>306.8</ele>
        <time>2021-10-17T09:09:34Z</time>
      </trkpt>
      <trkpt lat="39.6721660" lon="-6.4702960">
        <ele>306.8</ele>
        <time>2021-10-17T09:09:36Z</time>
      </trkpt>
      <trkpt lat="39.6720630" lon="-6.4702160">
        <ele>306.6</ele>
        <time>2021-10-17T09:09:39Z</time>
      </trkpt>
      <trkpt lat="39.6719700" lon="-6.4701900">
        <ele>306.4</ele>
        <time>2021-10-17T09:09:42Z</time>
      </trkpt>
      <trkpt lat="39.6719130" lon="-6.4702040">
        <ele>306.2</ele>
        <time>2021-10-17T09:09:44Z</time>
      </trkpt>
      <trkpt lat="39.6718070" lon="-6.4702370">
        <ele>306.0</ele>
        <time>2021-10-17T09:09:48Z</time>
      </trkpt>
      <trkpt lat="39.6717350" lon="-6.4702530">
        <ele>306.0</ele>
        <time>2021-10-17T09:09:51Z</time>
      </trkpt>
      <trkpt lat="39.6716180" lon="-6.4702920">
        <ele>305.8</ele>
        <time>2021-10-17T09:09:55Z</time>
      </trkpt>
      <trkpt lat="39.6715170" lon="-6.4703280">
        <ele>305.6</ele>
        <time>2021-10-17T09:09:58Z</time>
      </trkpt>
      <trkpt lat="39.6713980" lon="-6.4703680">
        <ele>305.2</ele>
        <time>2021-10-17T09:10:01Z</time>
      </trkpt>
      <trkpt lat="39.6713600" lon="-6.4703800">
        <ele>305.2</ele>
        <time>2021-10-17T09:10:02Z</time>
      </trkpt>
      <trkpt lat="39.6712500" lon="-6.4703970">
        <ele>304.8</ele>
        <time>2021-10-17T09:10:05Z</time>
      </trkpt>
      <trkpt lat="39.6711980" lon="-6.4704210">
        <ele>304.2</ele>
        <time>2021-10-17T09:10:07Z</time>
      </trkpt>
      <trkpt lat="39.6711530" lon="-6.4704550">
        <ele>303.6</ele>
        <time>2021-10-17T09:10:09Z</time>
      </trkpt>
      <trkpt lat="39.6710720" lon="-6.4705360">
        <ele>303.2</ele>
        <time>2021-10-17T09:10:13Z</time>
      </trkpt>
      <trkpt lat="39.6710000" lon="-6.4705820">
        <ele>302.6</ele>
        <time>2021-10-17T09:10:16Z</time>
      </trkpt>
      <trkpt lat="39.6708360" lon="-6.4706650">
        <ele>302.4</ele>
        <time>2021-10-17T09:10:20Z</time>
      </trkpt>
      <trkpt lat="39.6707950" lon="-6.4706920">
        <ele>302.2</ele>
        <time>2021-10-17T09:10:21Z</time>
      </trkpt>
      <trkpt lat="39.6706720" lon="-6.4707560">
        <ele>301.6</ele>
        <time>2021-10-17T09:10:24Z</time>
      </trkpt>
      <trkpt lat="39.6705940" lon="-6.4708020">
        <ele>301.2</ele>
        <time>2021-10-17T09:10:26Z</time>
      </trkpt>
      <trkpt lat="39.6705590" lon="-6.4708220">
        <ele>301.0</ele>
        <time>2021-10-17T09:10:27Z</time>
      </trkpt>
      <trkpt lat="39.6704790" lon="-6.4708350">
        <ele>300.6</ele>
        <time>2021-10-17T09:10:30Z</time>
      </trkpt>
      <trkpt lat="39.6704370" lon="-6.4708250">
        <ele>299.8</ele>
        <time>2021-10-17T09:10:32Z</time>
      </trkpt>
      <trkpt lat="39.6704200" lon="-6.4708170">
        <ele>298.8</ele>
        <time>2021-10-17T09:10:34Z</time>
      </trkpt>
      <trkpt lat="39.6704200" lon="-6.4708170">
        <ele>298.6</ele>
        <time>2021-10-17T09:10:35Z</time>
      </trkpt>
      <trkpt lat="39.6704200" lon="-6.4708170">
        <ele>298.0</ele>
        <time>2021-10-17T09:10:36Z</time>
      </trkpt>
      <trkpt lat="39.6704940" lon="-6.4708170">
        <ele>297.6</ele>
        <time>2021-10-17T09:12:49Z</time>
      </trkpt>
      <trkpt lat="39.6705110" lon="-6.4708120">
        <ele>297.6</ele>
        <time>2021-10-17T09:12:50Z</time>
      </trkpt>
      <trkpt lat="39.6705510" lon="-6.4708010">
        <ele>297.8</ele>
        <time>2021-10-17T09:12:52Z</time>
      </trkpt>
      <trkpt lat="39.6705900" lon="-6.4707940">
        <ele>298.2</ele>
        <time>2021-10-17T09:12:55Z</time>
      </trkpt>
      <trkpt lat="39.6706140" lon="-6.4707990">
        <ele>298.4</ele>
        <time>2021-10-17T09:12:57Z</time>
      </trkpt>
      <trkpt lat="39.6706220" lon="-6.4708300">
        <ele>298.6</ele>
        <time>2021-10-17T09:12:59Z</time>
      </trkpt>
      <trkpt lat="39.6706220" lon="-6.4708980">
        <ele>298.4</ele>
        <time>2021-10-17T09:13:05Z</time>
      </trkpt>
      <trkpt lat="39.6706400" lon="-6.4709810">
        <ele>297.8</ele>
        <time>2021-10-17T09:13:16Z</time>
      </trkpt>
      <trkpt lat="39.6706510" lon="-6.4710510">
        <ele>297.6</ele>
        <time>2021-10-17T09:13:19Z</time>
      </trkpt>
      <trkpt lat="39.6706560" lon="-6.4710710">
        <ele>297.4</ele>
        <time>2021-10-17T09:13:20Z</time>
      </trkpt>
      <trkpt lat="39.6706810" lon="-6.4711680">
        <ele>296.2</ele>
        <time>2021-10-17T09:13:24Z</time>
      </trkpt>
      <trkpt lat="39.6706900" lon="-6.4711830">
        <ele>296.0</ele>
        <time>2021-10-17T09:13:25Z</time>
      </trkpt>
      <trkpt lat="39.6706970" lon="-6.4711920">
        <ele>295.8</ele>
        <time>2021-10-17T09:13:26Z</time>
      </trkpt>
      <trkpt lat="39.6707130" lon="-6.4712050">
        <ele>295.4</ele>
        <time>2021-10-17T09:13:30Z</time>
      </trkpt>
      <trkpt lat="39.6707160" lon="-6.4712490">
        <ele>295.8</ele>
        <time>2021-10-17T09:13:56Z</time>
      </trkpt>
      <trkpt lat="39.6706730" lon="-6.4714880">
        <ele>295.4</ele>
        <time>2021-10-17T09:14:02Z</time>
      </trkpt>
      <trkpt lat="39.6706280" lon="-6.4716050">
        <ele>295.4</ele>
        <time>2021-10-17T09:14:05Z</time>
      </trkpt>
      <trkpt lat="39.6705870" lon="-6.4716970">
        <ele>295.2</ele>
        <time>2021-10-17T09:14:08Z</time>
      </trkpt>
      <trkpt lat="39.6705740" lon="-6.4717300">
        <ele>295.2</ele>
        <time>2021-10-17T09:14:09Z</time>
      </trkpt>
      <trkpt lat="39.6705450" lon="-6.4718090">
        <ele>295.0</ele>
        <time>2021-10-17T09:14:11Z</time>
      </trkpt>
      <trkpt lat="39.6704220" lon="-6.4720720">
        <ele>295.2</ele>
        <time>2021-10-17T09:14:19Z</time>
      </trkpt>
      <trkpt lat="39.6704000" lon="-6.4721380">
        <ele>295.2</ele>
        <time>2021-10-17T09:14:21Z</time>
      </trkpt>
      <trkpt lat="39.6703190" lon="-6.4723320">
        <ele>295.2</ele>
        <time>2021-10-17T09:14:27Z</time>
      </trkpt>
      <trkpt lat="39.6702940" lon="-6.4723900">
        <ele>295.2</ele>
        <time>2021-10-17T09:14:29Z</time>
      </trkpt>
      <trkpt lat="39.6702580" lon="-6.4724700">
        <ele>295.2</ele>
        <time>2021-10-17T09:14:32Z</time>
      </trkpt>
      <trkpt lat="39.6702280" lon="-6.4725360">
        <ele>295.0</ele>
        <time>2021-10-17T09:14:35Z</time>
      </trkpt>
      <trkpt lat="39.6702070" lon="-6.4725670">
        <ele>295.0</ele>
        <time>2021-10-17T09:14:37Z</time>
      </trkpt>
      <trkpt lat="39.6701910" lon="-6.4725610">
        <ele>295.0</ele>
        <time>2021-10-17T09:14:38Z</time>
      </trkpt>
      <trkpt lat="39.6701650" lon="-6.4725170">
        <ele>295.0</ele>
        <time>2021-10-17T09:14:41Z</time>
      </trkpt>
      <trkpt lat="39.6701670" lon="-6.4724970">
        <ele>295.2</ele>
        <time>2021-10-17T09:14:43Z</time>
      </trkpt>
      <trkpt lat="39.6701670" lon="-6.4724970">
        <ele>295.2</ele>
        <time>2021-10-17T09:14:45Z</time>
      </trkpt>
      <trkpt lat="39.6701800" lon="-6.4724690">
        <ele>295.2</ele>
        <time>2021-10-17T09:16:22Z</time>
      </trkpt>
      <trkpt lat="39.6701930" lon="-6.4724410">
        <ele>295.2</ele>
        <time>2021-10-17T09:16:23Z</time>
      </trkpt>
      <trkpt lat="39.6702060" lon="-6.4724100">
        <ele>295.2</ele>
        <time>2021-10-17T09:16:24Z</time>
      </trkpt>
      <trkpt lat="39.6702570" lon="-6.4723080">
        <ele>295.4</ele>
        <time>2021-10-17T09:16:27Z</time>
      </trkpt>
      <trkpt lat="39.6703200" lon="-6.4721650">
        <ele>295.4</ele>
        <time>2021-10-17T09:16:31Z</time>
      </trkpt>
      <trkpt lat="39.6703950" lon="-6.4719900">
        <ele>295.4</ele>
        <time>2021-10-17T09:16:37Z</time>
      </trkpt>
      <trkpt lat="39.6704670" lon="-6.4718220">
        <ele>295.4</ele>
        <time>2021-10-17T09:16:42Z</time>
      </trkpt>
      <trkpt lat="39.6704970" lon="-6.4717580">
        <ele>295.4</ele>
        <time>2021-10-17T09:16:44Z</time>
      </trkpt>
      <trkpt lat="39.6706530" lon="-6.4713930">
        <ele>295.2</ele>
        <time>2021-10-17T09:16:54Z</time>
      </trkpt>
      <trkpt lat="39.6707180" lon="-6.4712460">
        <ele>295.6</ele>
        <time>2021-10-17T09:17:00Z</time>
      </trkpt>
      <trkpt lat="39.6707300" lon="-6.4712180">
        <ele>295.8</ele>
        <time>2021-10-17T09:17:02Z</time>
      </trkpt>
      <trkpt lat="39.6707330" lon="-6.4712130">
        <ele>296.0</ele>
        <time>2021-10-17T09:17:05Z</time>
      </trkpt>
      <trkpt lat="39.6707140" lon="-6.4711770">
        <ele>295.2</ele>
        <time>2021-10-17T09:18:38Z</time>
      </trkpt>
      <trkpt lat="39.6706950" lon="-6.4711170">
        <ele>295.4</ele>
        <time>2021-10-17T09:18:41Z</time>
      </trkpt>
      <trkpt lat="39.6706600" lon="-6.4710210">
        <ele>295.6</ele>
        <time>2021-10-17T09:18:46Z</time>
      </trkpt>
      <trkpt lat="39.6706550" lon="-6.4709550">
        <ele>296.0</ele>
        <time>2021-10-17T09:18:50Z</time>
      </trkpt>
      <trkpt lat="39.6706530" lon="-6.4709410">
        <ele>296.2</ele>
        <time>2021-10-17T09:18:51Z</time>
      </trkpt>
      <trkpt lat="39.6706380" lon="-6.4708840">
        <ele>296.8</ele>
        <time>2021-10-17T09:18:55Z</time>
      </trkpt>
      <trkpt lat="39.6706320" lon="-6.4708500">
        <ele>297.2</ele>
        <time>2021-10-17T09:18:57Z</time>
      </trkpt>
      <trkpt lat="39.6706300" lon="-6.4708120">
        <ele>297.8</ele>
        <time>2021-10-17T09:19:00Z</time>
      </trkpt>
      <trkpt lat="39.6706190" lon="-6.4707950">
        <ele>298.2</ele>
        <time>2021-10-17T09:19:02Z</time>
      </trkpt>
      <trkpt lat="39.6706070" lon="-6.4707910">
        <ele>298.2</ele>
        <time>2021-10-17T09:19:03Z</time>
      </trkpt>
      <trkpt lat="39.6705600" lon="-6.4708060">
        <ele>298.8</ele>
        <time>2021-10-17T09:19:07Z</time>
      </trkpt>
      <trkpt lat="39.6705390" lon="-6.4708170">
        <ele>298.8</ele>
        <time>2021-10-17T09:19:09Z</time>
      </trkpt>
      <trkpt lat="39.6704980" lon="-6.4708310">
        <ele>298.8</ele>
        <time>2021-10-17T09:19:12Z</time>
      </trkpt>
      <trkpt lat="39.6704550" lon="-6.4708200">
        <ele>298.8</ele>
        <time>2021-10-17T09:19:15Z</time>
      </trkpt>
      <trkpt lat="39.6704220" lon="-6.4708070">
        <ele>298.2</ele>
        <time>2021-10-17T09:19:18Z</time>
      </trkpt>
      <trkpt lat="39.6704180" lon="-6.4708050">
        <ele>297.8</ele>
        <time>2021-10-17T09:19:20Z</time>
      </trkpt>
      <trkpt lat="39.6703820" lon="-6.4707650">
        <ele>296.8</ele>
        <time>2021-10-17T09:20:07Z</time>
      </trkpt>
      <trkpt lat="39.6703420" lon="-6.4707150">
        <ele>296.8</ele>
        <time>2021-10-17T09:20:09Z</time>
      </trkpt>
      <trkpt lat="39.6702990" lon="-6.4706600">
        <ele>296.8</ele>
        <time>2021-10-17T09:20:11Z</time>
      </trkpt>
      <trkpt lat="39.6702210" lon="-6.4705170">
        <ele>296.4</ele>
        <time>2021-10-17T09:20:16Z</time>
      </trkpt>
      <trkpt lat="39.6701600" lon="-6.4702490">
        <ele>296.4</ele>
        <time>2021-10-17T09:20:24Z</time>
      </trkpt>
      <trkpt lat="39.6701830" lon="-6.4701130">
        <ele>296.8</ele>
        <time>2021-10-17T09:20:29Z</time>
      </trkpt>
      <trkpt lat="39.6701970" lon="-6.4700900">
        <ele>297.0</ele>
        <time>2021-10-17T09:20:30Z</time>
      </trkpt>
      <trkpt lat="39.6703000" lon="-6.4699940">
        <ele>297.8</ele>
        <time>2021-10-17T09:20:36Z</time>
      </trkpt>
      <trkpt lat="39.6703170" lon="-6.4699870">
        <ele>298.0</ele>
        <time>2021-10-17T09:20:37Z</time>
      </trkpt>
      <trkpt lat="39.6703960" lon="-6.4699630">
        <ele>299.0</ele>
        <time>2021-10-17T09:20:42Z</time>
      </trkpt>
      <trkpt lat="39.6704140" lon="-6.4699580">
        <ele>299.6</ele>
        <time>2021-10-17T09:20:43Z</time>
      </trkpt>
      <trkpt lat="39.6704540" lon="-6.4699480">
        <ele>300.0</ele>
        <time>2021-10-17T09:20:46Z</time>
      </trkpt>
      <trkpt lat="39.6704940" lon="-6.4699490">
        <ele>300.6</ele>
        <time>2021-10-17T09:20:49Z</time>
      </trkpt>
      <trkpt lat="39.6705080" lon="-6.4699420">
        <ele>300.8</ele>
        <time>2021-10-17T09:20:50Z</time>
      </trkpt>
      <trkpt lat="39.6705200" lon="-6.4699370">
        <ele>301.0</ele>
        <time>2021-10-17T09:20:51Z</time>
      </trkpt>
      <trkpt lat="39.6705810" lon="-6.4699220">
        <ele>302.2</ele>
        <time>2021-10-17T09:20:56Z</time>
      </trkpt>
      <trkpt lat="39.6706190" lon="-6.4699150">
        <ele>302.6</ele>
        <time>2021-10-17T09:20:59Z</time>
      </trkpt>
      <trkpt lat="39.6706660" lon="-6.4698930">
        <ele>303.2</ele>
        <time>2021-10-17T09:21:03Z</time>
      </trkpt>
      <trkpt lat="39.6706930" lon="-6.4698720">
        <ele>303.6</ele>
        <time>2021-10-17T09:21:05Z</time>
      </trkpt>
      <trkpt lat="39.6707050" lon="-6.4698650">
        <ele>303.6</ele>
        <time>2021-10-17T09:21:06Z</time>
      </trkpt>
      <trkpt lat="39.6707180" lon="-6.4698600">
        <ele>303.8</ele>
        <time>2021-10-17T09:21:07Z</time>
      </trkpt>
      <trkpt lat="39.6707310" lon="-6.4698540">
        <ele>303.8</ele>
        <time>2021-10-17T09:21:08Z</time>
      </trkpt>
      <trkpt lat="39.6707950" lon="-6.4698110">
        <ele>304.2</ele>
        <time>2021-10-17T09:21:13Z</time>
      </trkpt>
      <trkpt lat="39.6708240" lon="-6.4697950">
        <ele>304.4</ele>
        <time>2021-10-17T09:21:15Z</time>
      </trkpt>
      <trkpt lat="39.6708560" lon="-6.4697760">
        <ele>304.6</ele>
        <time>2021-10-17T09:21:17Z</time>
      </trkpt>
      <trkpt lat="39.6708890" lon="-6.4697530">
        <ele>304.6</ele>
        <time>2021-10-17T09:21:19Z</time>
      </trkpt>
      <trkpt lat="39.6709410" lon="-6.4697340">
        <ele>304.6</ele>
        <time>2021-10-17T09:21:22Z</time>
      </trkpt>
      <trkpt lat="39.6709730" lon="-6.4697130">
        <ele>304.6</ele>
        <time>2021-10-17T09:21:24Z</time>
      </trkpt>
      <trkpt lat="39.6710660" lon="-6.4696450">
        <ele>305.0</ele>
        <time>2021-10-17T09:21:30Z</time>
      </trkpt>
      <trkpt lat="39.6710790" lon="-6.4696340">
        <ele>305.0</ele>
        <time>2021-10-17T09:21:31Z</time>
      </trkpt>
      <trkpt lat="39.6711040" lon="-6.4696140">
        <ele>305.4</ele>
        <time>2021-10-17T09:21:33Z</time>
      </trkpt>
      <trkpt lat="39.6711310" lon="-6.4695910">
        <ele>305.6</ele>
        <time>2021-10-17T09:21:35Z</time>
      </trkpt>
      <trkpt lat="39.6712200" lon="-6.4695390">
        <ele>306.2</ele>
        <time>2021-10-17T09:21:41Z</time>
      </trkpt>
      <trkpt lat="39.6712580" lon="-6.4695080">
        <ele>306.2</ele>
        <time>2021-10-17T09:21:44Z</time>
      </trkpt>
      <trkpt lat="39.6712690" lon="-6.4694950">
        <ele>306.4</ele>
        <time>2021-10-17T09:21:45Z</time>
      </trkpt>
      <trkpt lat="39.6712810" lon="-6.4694840">
        <ele>306.6</ele>
        <time>2021-10-17T09:21:46Z</time>
      </trkpt>
      <trkpt lat="39.6713160" lon="-6.4694440">
        <ele>307.0</ele>
        <time>2021-10-17T09:21:49Z</time>
      </trkpt>
      <trkpt lat="39.6713330" lon="-6.4694320">
        <ele>307.4</ele>
        <time>2021-10-17T09:21:51Z</time>
      </trkpt>
      <trkpt lat="39.6713440" lon="-6.4694260">
        <ele>307.4</ele>
        <time>2021-10-17T09:21:52Z</time>
      </trkpt>
      <trkpt lat="39.6713520" lon="-6.4694240">
        <ele>307.6</ele>
        <time>2021-10-17T09:21:53Z</time>
      </trkpt>
      <trkpt lat="39.6713530" lon="-6.4694240">
        <ele>307.6</ele>
        <time>2021-10-17T09:21:54Z</time>
      </trkpt>
      <trkpt lat="39.6713580" lon="-6.4694310">
        <ele>308.4</ele>
        <time>2021-10-17T09:21:57Z</time>
      </trkpt>
      <trkpt lat="39.6713560" lon="-6.4694280">
        <ele>308.4</ele>
        <time>2021-10-17T09:21:58Z</time>
      </trkpt>
      <trkpt lat="39.6713600" lon="-6.4694130">
        <ele>308.6</ele>
        <time>2021-10-17T09:22:01Z</time>
      </trkpt>
      <trkpt lat="39.6713660" lon="-6.4694040">
        <ele>308.6</ele>
        <time>2021-10-17T09:22:02Z</time>
      </trkpt>
      <trkpt lat="39.6713740" lon="-6.4693950">
        <ele>308.6</ele>
        <time>2021-10-17T09:22:03Z</time>
      </trkpt>
      <trkpt lat="39.6713870" lon="-6.4693760">
        <ele>308.8</ele>
        <time>2021-10-17T09:22:05Z</time>
      </trkpt>
      <trkpt lat="39.6713990" lon="-6.4693600">
        <ele>309.0</ele>
        <time>2021-10-17T09:22:07Z</time>
      </trkpt>
      <trkpt lat="39.6714080" lon="-6.4693520">
        <ele>309.0</ele>
        <time>2021-10-17T09:22:08Z</time>
      </trkpt>
      <trkpt lat="39.6714310" lon="-6.4693230">
        <ele>309.4</ele>
        <time>2021-10-17T09:22:11Z</time>
      </trkpt>
      <trkpt lat="39.6714400" lon="-6.4693130">
        <ele>309.4</ele>
        <time>2021-10-17T09:22:12Z</time>
      </trkpt>
      <trkpt lat="39.6714960" lon="-6.4692670">
        <ele>310.4</ele>
        <time>2021-10-17T09:22:19Z</time>
      </trkpt>
      <trkpt lat="39.6715050" lon="-6.4692600">
        <ele>310.6</ele>
        <time>2021-10-17T09:22:20Z</time>
      </trkpt>
      <trkpt lat="39.6715730" lon="-6.4692100">
        <ele>311.6</ele>
        <time>2021-10-17T09:22:28Z</time>
      </trkpt>
      <trkpt lat="39.6715890" lon="-6.4691960">
        <ele>311.8</ele>
        <time>2021-10-17T09:22:30Z</time>
      </trkpt>
      <trkpt lat="39.6716290" lon="-6.4691670">
        <ele>312.6</ele>
        <time>2021-10-17T09:22:35Z</time>
      </trkpt>
      <trkpt lat="39.6716810" lon="-6.4691300">
        <ele>313.6</ele>
        <time>2021-10-17T09:22:42Z</time>
      </trkpt>
      <trkpt lat="39.6717450" lon="-6.4690820">
        <ele>314.8</ele>
        <time>2021-10-17T09:22:50Z</time>
      </trkpt>
      <trkpt lat="39.6717610" lon="-6.4690720">
        <ele>315.0</ele>
        <time>2021-10-17T09:22:52Z</time>
      </trkpt>
      <trkpt lat="39.6718040" lon="-6.4690480">
        <ele>315.8</ele>
        <time>2021-10-17T09:22:57Z</time>
      </trkpt>
      <trkpt lat="39.6718480" lon="-6.4690200">
        <ele>316.4</ele>
        <time>2021-10-17T09:23:02Z</time>
      </trkpt>
      <trkpt lat="39.6718780" lon="-6.4689970">
        <ele>316.8</ele>
        <time>2021-10-17T09:23:06Z</time>
      </trkpt>
      <trkpt lat="39.6719060" lon="-6.4689780">
        <ele>317.4</ele>
        <time>2021-10-17T09:23:11Z</time>
      </trkpt>
      <trkpt lat="39.6719280" lon="-6.4689630">
        <ele>318.0</ele>
        <time>2021-10-17T09:25:39Z</time>
      </trkpt>
      <trkpt lat="39.6719440" lon="-6.4689520">
        <ele>318.0</ele>
        <time>2021-10-17T09:25:40Z</time>
      </trkpt>
      <trkpt lat="39.6720130" lon="-6.4688850">
        <ele>318.2</ele>
        <time>2021-10-17T09:25:44Z</time>
      </trkpt>
      <trkpt lat="39.6720500" lon="-6.4688520">
        <ele>318.4</ele>
        <time>2021-10-17T09:25:46Z</time>
      </trkpt>
      <trkpt lat="39.6722110" lon="-6.4687450">
        <ele>318.8</ele>
        <time>2021-10-17T09:25:54Z</time>
      </trkpt>
      <trkpt lat="39.6722740" lon="-6.4687090">
        <ele>319.2</ele>
        <time>2021-10-17T09:25:57Z</time>
      </trkpt>
      <trkpt lat="39.6723330" lon="-6.4686670">
        <ele>319.2</ele>
        <time>2021-10-17T09:26:00Z</time>
      </trkpt>
      <trkpt lat="39.6723960" lon="-6.4686300">
        <ele>319.4</ele>
        <time>2021-10-17T09:26:03Z</time>
      </trkpt>
      <trkpt lat="39.6724920" lon="-6.4685620">
        <ele>320.2</ele>
        <time>2021-10-17T09:26:08Z</time>
      </trkpt>
      <trkpt lat="39.6725830" lon="-6.4684970">
        <ele>321.0</ele>
        <time>2021-10-17T09:26:13Z</time>
      </trkpt>
      <trkpt lat="39.6726190" lon="-6.4684800">
        <ele>321.4</ele>
        <time>2021-10-17T09:26:15Z</time>
      </trkpt>
      <trkpt lat="39.6727660" lon="-6.4684000">
        <ele>322.2</ele>
        <time>2021-10-17T09:26:22Z</time>
      </trkpt>
      <trkpt lat="39.6729060" lon="-6.4683380">
        <ele>322.0</ele>
        <time>2021-10-17T09:26:25Z</time>
      </trkpt>
      <trkpt lat="39.6729550" lon="-6.4683180">
        <ele>322.0</ele>
        <time>2021-10-17T09:26:26Z</time>
      </trkpt>
      <trkpt lat="39.6730870" lon="-6.4682650">
        <ele>322.0</ele>
        <time>2021-10-17T09:26:28Z</time>
      </trkpt>
      <trkpt lat="39.6732340" lon="-6.4682070">
        <ele>321.0</ele>
        <time>2021-10-17T09:26:30Z</time>
      </trkpt>
      <trkpt lat="39.6733090" lon="-6.4681760">
        <ele>320.4</ele>
        <time>2021-10-17T09:26:31Z</time>
      </trkpt>
      <trkpt lat="39.6733840" lon="-6.4681470">
        <ele>319.4</ele>
        <time>2021-10-17T09:26:32Z</time>
      </trkpt>
      <trkpt lat="39.6735210" lon="-6.4680810">
        <ele>318.4</ele>
        <time>2021-10-17T09:26:34Z</time>
      </trkpt>
      <trkpt lat="39.6735860" lon="-6.4680370">
        <ele>318.2</ele>
        <time>2021-10-17T09:26:35Z</time>
      </trkpt>
      <trkpt lat="39.6736580" lon="-6.4679860">
        <ele>317.2</ele>
        <time>2021-10-17T09:26:36Z</time>
      </trkpt>
      <trkpt lat="39.6737000" lon="-6.4679550">
        <ele>317.0</ele>
        <time>2021-10-17T09:26:37Z</time>
      </trkpt>
      <trkpt lat="39.6737480" lon="-6.4679210">
        <ele>316.0</ele>
        <time>2021-10-17T09:26:38Z</time>
      </trkpt>
      <trkpt lat="39.6738500" lon="-6.4678440">
        <ele>315.6</ele>
        <time>2021-10-17T09:26:41Z</time>
      </trkpt>
      <trkpt lat="39.6739710" lon="-6.4677700">
        <ele>316.4</ele>
        <time>2021-10-17T09:26:47Z</time>
      </trkpt>
      <trkpt lat="39.6740000" lon="-6.4677480">
        <ele>317.4</ele>
        <time>2021-10-17T09:26:50Z</time>
      </trkpt>
      <trkpt lat="39.6740000" lon="-6.4677480">
        <ele>317.6</ele>
        <time>2021-10-17T09:26:52Z</time>
      </trkpt>
      <trkpt lat="39.6741130" lon="-6.4676750">
        <ele>318.2</ele>
        <time>2021-10-17T09:29:48Z</time>
      </trkpt>
      <trkpt lat="39.6741220" lon="-6.4676050">
        <ele>318.2</ele>
        <time>2021-10-17T09:29:51Z</time>
      </trkpt>
      <trkpt lat="39.6740880" lon="-6.4675150">
        <ele>318.2</ele>
        <time>2021-10-17T09:29:56Z</time>
      </trkpt>
      <trkpt lat="39.6740620" lon="-6.4674800">
        <ele>318.2</ele>
        <time>2021-10-17T09:29:58Z</time>
      </trkpt>
      <trkpt lat="39.6739180" lon="-6.4674160">
        <ele>318.0</ele>
        <time>2021-10-17T09:30:03Z</time>
      </trkpt>
      <trkpt lat="39.6737820" lon="-6.4673730">
        <ele>317.8</ele>
        <time>2021-10-17T09:30:09Z</time>
      </trkpt>
      <trkpt lat="39.6736430" lon="-6.4672780">
        <ele>318.2</ele>
        <time>2021-10-17T09:30:16Z</time>
      </trkpt>
      <trkpt lat="39.6736100" lon="-6.4672630">
        <ele>318.6</ele>
        <time>2021-10-17T09:30:18Z</time>
      </trkpt>
      <trkpt lat="39.6735480" lon="-6.4672050">
        <ele>319.2</ele>
        <time>2021-10-17T09:30:22Z</time>
      </trkpt>
      <trkpt lat="39.6735350" lon="-6.4671910">
        <ele>319.2</ele>
        <time>2021-10-17T09:30:23Z</time>
      </trkpt>
      <trkpt lat="39.6734970" lon="-6.4671540">
        <ele>319.8</ele>
        <time>2021-10-17T09:30:26Z</time>
      </trkpt>
      <trkpt lat="39.6734600" lon="-6.4671060">
        <ele>320.4</ele>
        <time>2021-10-17T09:30:29Z</time>
      </trkpt>
      <trkpt lat="39.6734150" lon="-6.4670520">
        <ele>321.4</ele>
        <time>2021-10-17T09:30:33Z</time>
      </trkpt>
      <trkpt lat="39.6734050" lon="-6.4670430">
        <ele>321.2</ele>
        <time>2021-10-17T09:30:34Z</time>
      </trkpt>
      <trkpt lat="39.6733440" lon="-6.4670020">
        <ele>322.4</ele>
        <time>2021-10-17T09:30:38Z</time>
      </trkpt>
      <trkpt lat="39.6732750" lon="-6.4669510">
        <ele>323.2</ele>
        <time>2021-10-17T09:30:42Z</time>
      </trkpt>
      <trkpt lat="39.6732570" lon="-6.4669370">
        <ele>323.4</ele>
        <time>2021-10-17T09:30:43Z</time>
      </trkpt>
      <trkpt lat="39.6731420" lon="-6.4668890">
        <ele>323.6</ele>
        <time>2021-10-17T09:30:47Z</time>
      </trkpt>
      <trkpt lat="39.6730760" lon="-6.4668590">
        <ele>323.8</ele>
        <time>2021-10-17T09:30:50Z</time>
      </trkpt>
      <trkpt lat="39.6729570" lon="-6.4668050">
        <ele>324.0</ele>
        <time>2021-10-17T09:30:55Z</time>
      </trkpt>
      <trkpt lat="39.6729370" lon="-6.4667970">
        <ele>324.0</ele>
        <time>2021-10-17T09:30:56Z</time>
      </trkpt>
      <trkpt lat="39.6729100" lon="-6.4667850">
        <ele>324.0</ele>
        <time>2021-10-17T09:30:57Z</time>
      </trkpt>
      <trkpt lat="39.6727540" lon="-6.4667130">
        <ele>323.8</ele>
        <time>2021-10-17T09:31:01Z</time>
      </trkpt>
      <trkpt lat="39.6725550" lon="-6.4666210">
        <ele>323.6</ele>
        <time>2021-10-17T09:31:05Z</time>
      </trkpt>
      <trkpt lat="39.6724690" lon="-6.4665780">
        <ele>323.0</ele>
        <time>2021-10-17T09:31:07Z</time>
      </trkpt>
      <trkpt lat="39.6723310" lon="-6.4664970">
        <ele>322.2</ele>
        <time>2021-10-17T09:31:10Z</time>
      </trkpt>
      <trkpt lat="39.6721920" lon="-6.4664280">
        <ele>321.4</ele>
        <time>2021-10-17T09:31:13Z</time>
      </trkpt>
      <trkpt lat="39.6721130" lon="-6.4663920">
        <ele>321.0</ele>
        <time>2021-10-17T09:31:15Z</time>
      </trkpt>
      <trkpt lat="39.6719960" lon="-6.4663390">
        <ele>320.6</ele>
        <time>2021-10-17T09:31:18Z</time>
      </trkpt>
      <trkpt lat="39.6718890" lon="-6.4662860">
        <ele>320.4</ele>
        <time>2021-10-17T09:31:21Z</time>
      </trkpt>
      <trkpt lat="39.6717660" lon="-6.4662320">
        <ele>320.4</ele>
        <time>2021-10-17T09:31:25Z</time>
      </trkpt>
      <trkpt lat="39.6717390" lon="-6.4662190">
        <ele>320.6</ele>
        <time>2021-10-17T09:31:26Z</time>
      </trkpt>
      <trkpt lat="39.6716750" lon="-6.4661900">
        <ele>320.6</ele>
        <time>2021-10-17T09:31:28Z</time>
      </trkpt>
      <trkpt lat="39.6715790" lon="-6.4661510">
        <ele>320.6</ele>
        <time>2021-10-17T09:31:31Z</time>
      </trkpt>
      <trkpt lat="39.6714910" lon="-6.4661110">
        <ele>320.6</ele>
        <time>2021-10-17T09:31:33Z</time>
      </trkpt>
      <trkpt lat="39.6713220" lon="-6.4660230">
        <ele>320.4</ele>
        <time>2021-10-17T09:31:37Z</time>
      </trkpt>
      <trkpt lat="39.6711800" lon="-6.4659480">
        <ele>320.4</ele>
        <time>2021-10-17T09:31:41Z</time>
      </trkpt>
      <trkpt lat="39.6711100" lon="-6.4659110">
        <ele>320.6</ele>
        <time>2021-10-17T09:31:43Z</time>
      </trkpt>
      <trkpt lat="39.6710020" lon="-6.4658650">
        <ele>321.0</ele>
        <time>2021-10-17T09:31:46Z</time>
      </trkpt>
      <trkpt lat="39.6709250" lon="-6.4658280">
        <ele>321.2</ele>
        <time>2021-10-17T09:31:48Z</time>
      </trkpt>
      <trkpt lat="39.6706020" lon="-6.4656800">
        <ele>321.0</ele>
        <time>2021-10-17T09:31:55Z</time>
      </trkpt>
      <trkpt lat="39.6705710" lon="-6.4656630">
        <ele>321.0</ele>
        <time>2021-10-17T09:31:56Z</time>
      </trkpt>
      <trkpt lat="39.6704270" lon="-6.4655900">
        <ele>321.0</ele>
        <time>2021-10-17T09:32:00Z</time>
      </trkpt>
      <trkpt lat="39.6702310" lon="-6.4654950">
        <ele>321.8</ele>
        <time>2021-10-17T09:32:06Z</time>
      </trkpt>
      <trkpt lat="39.6701300" lon="-6.4654470">
        <ele>322.2</ele>
        <time>2021-10-17T09:32:09Z</time>
      </trkpt>
      <trkpt lat="39.6700680" lon="-6.4654410">
        <ele>322.4</ele>
        <time>2021-10-17T09:32:11Z</time>
      </trkpt>
      <trkpt lat="39.6699340" lon="-6.4654070">
        <ele>323.2</ele>
        <time>2021-10-17T09:32:15Z</time>
      </trkpt>
      <trkpt lat="39.6699010" lon="-6.4653940">
        <ele>323.4</ele>
        <time>2021-10-17T09:32:16Z</time>
      </trkpt>
      <trkpt lat="39.6697330" lon="-6.4653220">
        <ele>323.8</ele>
        <time>2021-10-17T09:32:21Z</time>
      </trkpt>
      <trkpt lat="39.6696660" lon="-6.4652880">
        <ele>324.0</ele>
        <time>2021-10-17T09:32:23Z</time>
      </trkpt>
      <trkpt lat="39.6695710" lon="-6.4652360">
        <ele>324.2</ele>
        <time>2021-10-17T09:32:26Z</time>
      </trkpt>
      <trkpt lat="39.6693970" lon="-6.4651240">
        <ele>324.4</ele>
        <time>2021-10-17T09:32:32Z</time>
      </trkpt>
      <trkpt lat="39.6692350" lon="-6.4649170">
        <ele>324.8</ele>
        <time>2021-10-17T09:32:40Z</time>
      </trkpt>
      <trkpt lat="39.6692210" lon="-6.4648820">
        <ele>325.2</ele>
        <time>2021-10-17T09:32:41Z</time>
      </trkpt>
      <trkpt lat="39.6691590" lon="-6.4647860">
        <ele>326.0</ele>
        <time>2021-10-17T09:32:45Z</time>
      </trkpt>
      <trkpt lat="39.6691060" lon="-6.4647240">
        <ele>326.4</ele>
        <time>2021-10-17T09:32:48Z</time>
      </trkpt>
      <trkpt lat="39.6690400" lon="-6.4646530">
        <ele>327.0</ele>
        <time>2021-10-17T09:32:52Z</time>
      </trkpt>
      <trkpt lat="39.6689950" lon="-6.4646280">
        <ele>327.2</ele>
        <time>2021-10-17T09:32:54Z</time>
      </trkpt>
      <trkpt lat="39.6688530" lon="-6.4645690">
        <ele>327.8</ele>
        <time>2021-10-17T09:33:00Z</time>
      </trkpt>
      <trkpt lat="39.6687830" lon="-6.4645420">
        <ele>328.2</ele>
        <time>2021-10-17T09:33:03Z</time>
      </trkpt>
      <trkpt lat="39.6687400" lon="-6.4645210">
        <ele>328.4</ele>
        <time>2021-10-17T09:33:05Z</time>
      </trkpt>
      <trkpt lat="39.6686960" lon="-6.4645130">
        <ele>328.6</ele>
        <time>2021-10-17T09:33:07Z</time>
      </trkpt>
      <trkpt lat="39.6686220" lon="-6.4645140">
        <ele>329.0</ele>
        <time>2021-10-17T09:33:10Z</time>
      </trkpt>
      <trkpt lat="39.6685580" lon="-6.4645080">
        <ele>329.2</ele>
        <time>2021-10-17T09:33:13Z</time>
      </trkpt>
      <trkpt lat="39.6685090" lon="-6.4645050">
        <ele>329.4</ele>
        <time>2021-10-17T09:33:15Z</time>
      </trkpt>
      <trkpt lat="39.6684000" lon="-6.4644950">
        <ele>330.2</ele>
        <time>2021-10-17T09:33:20Z</time>
      </trkpt>
      <trkpt lat="39.6683260" lon="-6.4644560">
        <ele>330.4</ele>
        <time>2021-10-17T09:33:24Z</time>
      </trkpt>
      <trkpt lat="39.6683000" lon="-6.4644310">
        <ele>330.8</ele>
        <time>2021-10-17T09:33:26Z</time>
      </trkpt>
      <trkpt lat="39.6682590" lon="-6.4643820">
        <ele>331.4</ele>
        <time>2021-10-17T09:33:29Z</time>
      </trkpt>
      <trkpt lat="39.6682480" lon="-6.4643750">
        <ele>331.6</ele>
        <time>2021-10-17T09:33:30Z</time>
      </trkpt>
      <trkpt lat="39.6682180" lon="-6.4643610">
        <ele>332.0</ele>
        <time>2021-10-17T09:33:32Z</time>
      </trkpt>
      <trkpt lat="39.6681620" lon="-6.4643160">
        <ele>332.4</ele>
        <time>2021-10-17T09:33:36Z</time>
      </trkpt>
      <trkpt lat="39.6681350" lon="-6.4642800">
        <ele>332.6</ele>
        <time>2021-10-17T09:33:38Z</time>
      </trkpt>
      <trkpt lat="39.6681220" lon="-6.4642670">
        <ele>332.6</ele>
        <time>2021-10-17T09:33:39Z</time>
      </trkpt>
      <trkpt lat="39.6680740" lon="-6.4642170">
        <ele>332.6</ele>
        <time>2021-10-17T09:33:42Z</time>
      </trkpt>
      <trkpt lat="39.6680470" lon="-6.4641830">
        <ele>332.6</ele>
        <time>2021-10-17T09:33:44Z</time>
      </trkpt>
      <trkpt lat="39.6680190" lon="-6.4641470">
        <ele>332.6</ele>
        <time>2021-10-17T09:33:46Z</time>
      </trkpt>
      <trkpt lat="39.6679860" lon="-6.4640950">
        <ele>332.6</ele>
        <time>2021-10-17T09:33:48Z</time>
      </trkpt>
      <trkpt lat="39.6679640" lon="-6.4640630">
        <ele>332.6</ele>
        <time>2021-10-17T09:33:49Z</time>
      </trkpt>
      <trkpt lat="39.6679130" lon="-6.4639830">
        <ele>332.6</ele>
        <time>2021-10-17T09:33:51Z</time>
      </trkpt>
      <trkpt lat="39.6678700" lon="-6.4638970">
        <ele>332.4</ele>
        <time>2021-10-17T09:33:53Z</time>
      </trkpt>
      <trkpt lat="39.6678120" lon="-6.4637830">
        <ele>332.2</ele>
        <time>2021-10-17T09:33:55Z</time>
      </trkpt>
      <trkpt lat="39.6677240" lon="-6.4636390">
        <ele>331.6</ele>
        <time>2021-10-17T09:33:58Z</time>
      </trkpt>
      <trkpt lat="39.6676340" lon="-6.4635480">
        <ele>331.2</ele>
        <time>2021-10-17T09:34:00Z</time>
      </trkpt>
      <trkpt lat="39.6675050" lon="-6.4634380">
        <ele>330.8</ele>
        <time>2021-10-17T09:34:03Z</time>
      </trkpt>
      <trkpt lat="39.6673690" lon="-6.4633030">
        <ele>330.4</ele>
        <time>2021-10-17T09:34:06Z</time>
      </trkpt>
      <trkpt lat="39.6672630" lon="-6.4632410">
        <ele>329.4</ele>
        <time>2021-10-17T09:34:09Z</time>
      </trkpt>
      <trkpt lat="39.6671530" lon="-6.4631750">
        <ele>328.8</ele>
        <time>2021-10-17T09:34:12Z</time>
      </trkpt>
      <trkpt lat="39.6670140" lon="-6.4630800">
        <ele>328.4</ele>
        <time>2021-10-17T09:34:16Z</time>
      </trkpt>
      <trkpt lat="39.6669910" lon="-6.4630660">
        <ele>328.4</ele>
        <time>2021-10-17T09:34:17Z</time>
      </trkpt>
      <trkpt lat="39.6668950" lon="-6.4630260">
        <ele>328.2</ele>
        <time>2021-10-17T09:34:20Z</time>
      </trkpt>
      <trkpt lat="39.6668300" lon="-6.4630090">
        <ele>328.2</ele>
        <time>2021-10-17T09:34:22Z</time>
      </trkpt>
      <trkpt lat="39.6665700" lon="-6.4629430">
        <ele>328.4</ele>
        <time>2021-10-17T09:34:30Z</time>
      </trkpt>
      <trkpt lat="39.6663680" lon="-6.4628390">
        <ele>328.8</ele>
        <time>2021-10-17T09:34:37Z</time>
      </trkpt>
      <trkpt lat="39.6662130" lon="-6.4627740">
        <ele>328.8</ele>
        <time>2021-10-17T09:34:42Z</time>
      </trkpt>
      <trkpt lat="39.6661100" lon="-6.4627040">
        <ele>329.0</ele>
        <time>2021-10-17T09:34:46Z</time>
      </trkpt>
      <trkpt lat="39.6660570" lon="-6.4626680">
        <ele>329.6</ele>
        <time>2021-10-17T09:34:49Z</time>
      </trkpt>
      <trkpt lat="39.6660180" lon="-6.4626440">
        <ele>329.8</ele>
        <time>2021-10-17T09:34:51Z</time>
      </trkpt>
      <trkpt lat="39.6658740" lon="-6.4625440">
        <ele>330.2</ele>
        <time>2021-10-17T09:34:57Z</time>
      </trkpt>
      <trkpt lat="39.6657770" lon="-6.4624060">
        <ele>330.8</ele>
        <time>2021-10-17T09:35:03Z</time>
      </trkpt>
      <trkpt lat="39.6657140" lon="-6.4623580">
        <ele>331.0</ele>
        <time>2021-10-17T09:35:06Z</time>
      </trkpt>
      <trkpt lat="39.6656850" lon="-6.4623400">
        <ele>331.2</ele>
        <time>2021-10-17T09:35:07Z</time>
      </trkpt>
      <trkpt lat="39.6655790" lon="-6.4622790">
        <ele>331.6</ele>
        <time>2021-10-17T09:35:11Z</time>
      </trkpt>
      <trkpt lat="39.6654170" lon="-6.4621830">
        <ele>331.8</ele>
        <time>2021-10-17T09:35:16Z</time>
      </trkpt>
      <trkpt lat="39.6653350" lon="-6.4621170">
        <ele>331.8</ele>
        <time>2021-10-17T09:35:19Z</time>
      </trkpt>
      <trkpt lat="39.6652400" lon="-6.4620450">
        <ele>331.4</ele>
        <time>2021-10-17T09:35:22Z</time>
      </trkpt>
      <trkpt lat="39.6651060" lon="-6.4619350">
        <ele>331.2</ele>
        <time>2021-10-17T09:35:26Z</time>
      </trkpt>
      <trkpt lat="39.6648570" lon="-6.4617100">
        <ele>331.4</ele>
        <time>2021-10-17T09:35:34Z</time>
      </trkpt>
      <trkpt lat="39.6648340" lon="-6.4616870">
        <ele>331.4</ele>
        <time>2021-10-17T09:35:35Z</time>
      </trkpt>
      <trkpt lat="39.6647750" lon="-6.4616250">
        <ele>331.4</ele>
        <time>2021-10-17T09:35:37Z</time>
      </trkpt>
      <trkpt lat="39.6646310" lon="-6.4615170">
        <ele>332.0</ele>
        <time>2021-10-17T09:35:42Z</time>
      </trkpt>
      <trkpt lat="39.6645180" lon="-6.4614470">
        <ele>332.0</ele>
        <time>2021-10-17T09:35:46Z</time>
      </trkpt>
      <trkpt lat="39.6644530" lon="-6.4614080">
        <ele>332.2</ele>
        <time>2021-10-17T09:35:48Z</time>
      </trkpt>
      <trkpt lat="39.6643090" lon="-6.4613410">
        <ele>332.4</ele>
        <time>2021-10-17T09:35:53Z</time>
      </trkpt>
      <trkpt lat="39.6641810" lon="-6.4613050">
        <ele>332.8</ele>
        <time>2021-10-17T09:35:57Z</time>
      </trkpt>
      <trkpt lat="39.6637970" lon="-6.4612660">
        <ele>333.0</ele>
        <time>2021-10-17T09:36:08Z</time>
      </trkpt>
      <trkpt lat="39.6635730" lon="-6.4612380">
        <ele>333.0</ele>
        <time>2021-10-17T09:36:14Z</time>
      </trkpt>
      <trkpt lat="39.6634150" lon="-6.4612320">
        <ele>333.0</ele>
        <time>2021-10-17T09:36:18Z</time>
      </trkpt>
      <trkpt lat="39.6631260" lon="-6.4612140">
        <ele>332.8</ele>
        <time>2021-10-17T09:36:25Z</time>
      </trkpt>
      <trkpt lat="39.6628070" lon="-6.4611910">
        <ele>333.0</ele>
        <time>2021-10-17T09:36:33Z</time>
      </trkpt>
      <trkpt lat="39.6626970" lon="-6.4611850">
        <ele>333.2</ele>
        <time>2021-10-17T09:36:36Z</time>
      </trkpt>
      <trkpt lat="39.6624590" lon="-6.4611490">
        <ele>333.4</ele>
        <time>2021-10-17T09:36:42Z</time>
      </trkpt>
      <trkpt lat="39.6622330" lon="-6.4610710">
        <ele>333.2</ele>
        <time>2021-10-17T09:36:48Z</time>
      </trkpt>
      <trkpt lat="39.6621560" lon="-6.4610440">
        <ele>333.2</ele>
        <time>2021-10-17T09:36:50Z</time>
      </trkpt>
      <trkpt lat="39.6619820" lon="-6.4610080">
        <ele>333.2</ele>
        <time>2021-10-17T09:36:54Z</time>
      </trkpt>
      <trkpt lat="39.6618890" lon="-6.4609870">
        <ele>333.0</ele>
        <time>2021-10-17T09:36:56Z</time>
      </trkpt>
      <trkpt lat="39.6618470" lon="-6.4609790">
        <ele>333.0</ele>
        <time>2021-10-17T09:36:57Z</time>
      </trkpt>
      <trkpt lat="39.6617340" lon="-6.4609330">
        <ele>332.8</ele>
        <time>2021-10-17T09:37:00Z</time>
      </trkpt>
      <trkpt lat="39.6616540" lon="-6.4608770">
        <ele>332.8</ele>
        <time>2021-10-17T09:37:02Z</time>
      </trkpt>
      <trkpt lat="39.6614410" lon="-6.4606460">
        <ele>332.6</ele>
        <time>2021-10-17T09:37:09Z</time>
      </trkpt>
      <trkpt lat="39.6612370" lon="-6.4603780">
        <ele>333.0</ele>
        <time>2021-10-17T09:37:17Z</time>
      </trkpt>
      <trkpt lat="39.6610520" lon="-6.4600540">
        <ele>333.6</ele>
        <time>2021-10-17T09:37:26Z</time>
      </trkpt>
      <trkpt lat="39.6609770" lon="-6.4599460">
        <ele>334.0</ele>
        <time>2021-10-17T09:37:30Z</time>
      </trkpt>
      <trkpt lat="39.6609180" lon="-6.4598680">
        <ele>334.4</ele>
        <time>2021-10-17T09:37:33Z</time>
      </trkpt>
      <trkpt lat="39.6608150" lon="-6.4597400">
        <ele>335.0</ele>
        <time>2021-10-17T09:37:39Z</time>
      </trkpt>
      <trkpt lat="39.6607840" lon="-6.4597060">
        <ele>335.2</ele>
        <time>2021-10-17T09:37:41Z</time>
      </trkpt>
      <trkpt lat="39.6607300" lon="-6.4596450">
        <ele>335.4</ele>
        <time>2021-10-17T09:37:44Z</time>
      </trkpt>
      <trkpt lat="39.6606660" lon="-6.4595770">
        <ele>335.6</ele>
        <time>2021-10-17T09:37:48Z</time>
      </trkpt>
      <trkpt lat="39.6605970" lon="-6.4595050">
        <ele>336.2</ele>
        <time>2021-10-17T09:37:52Z</time>
      </trkpt>
      <trkpt lat="39.6605430" lon="-6.4594630">
        <ele>336.6</ele>
        <time>2021-10-17T09:37:55Z</time>
      </trkpt>
      <trkpt lat="39.6604750" lon="-6.4593920">
        <ele>336.8</ele>
        <time>2021-10-17T09:37:59Z</time>
      </trkpt>
      <trkpt lat="39.6604380" lon="-6.4593460">
        <ele>337.2</ele>
        <time>2021-10-17T09:38:01Z</time>
      </trkpt>
      <trkpt lat="39.6603300" lon="-6.4592130">
        <ele>337.8</ele>
        <time>2021-10-17T09:38:08Z</time>
      </trkpt>
      <trkpt lat="39.6602800" lon="-6.4591530">
        <ele>338.0</ele>
        <time>2021-10-17T09:38:11Z</time>
      </trkpt>
      <trkpt lat="39.6602150" lon="-6.4590770">
        <ele>338.6</ele>
        <time>2021-10-17T09:38:15Z</time>
      </trkpt>
      <trkpt lat="39.6601750" lon="-6.4590290">
        <ele>339.2</ele>
        <time>2021-10-17T09:38:18Z</time>
      </trkpt>
      <trkpt lat="39.6601280" lon="-6.4589780">
        <ele>339.4</ele>
        <time>2021-10-17T09:38:21Z</time>
      </trkpt>
      <trkpt lat="39.6601010" lon="-6.4589460">
        <ele>339.6</ele>
        <time>2021-10-17T09:38:23Z</time>
      </trkpt>
      <trkpt lat="39.6600520" lon="-6.4588760">
        <ele>340.2</ele>
        <time>2021-10-17T09:38:27Z</time>
      </trkpt>
      <trkpt lat="39.6599860" lon="-6.4588070">
        <ele>340.6</ele>
        <time>2021-10-17T09:38:31Z</time>
      </trkpt>
      <trkpt lat="39.6598980" lon="-6.4587450">
        <ele>341.0</ele>
        <time>2021-10-17T09:38:36Z</time>
      </trkpt>
      <trkpt lat="39.6598760" lon="-6.4587310">
        <ele>341.2</ele>
        <time>2021-10-17T09:38:37Z</time>
      </trkpt>
      <trkpt lat="39.6598400" lon="-6.4587070">
        <ele>341.4</ele>
        <time>2021-10-17T09:38:39Z</time>
      </trkpt>
      <trkpt lat="39.6598250" lon="-6.4586970">
        <ele>341.4</ele>
        <time>2021-10-17T09:38:40Z</time>
      </trkpt>
      <trkpt lat="39.6597500" lon="-6.4586450">
        <ele>341.6</ele>
        <time>2021-10-17T09:38:44Z</time>
      </trkpt>
      <trkpt lat="39.6596850" lon="-6.4586080">
        <ele>342.2</ele>
        <time>2021-10-17T09:38:48Z</time>
      </trkpt>
      <trkpt lat="39.6596670" lon="-6.4586030">
        <ele>342.2</ele>
        <time>2021-10-17T09:38:49Z</time>
      </trkpt>
      <trkpt lat="39.6594750" lon="-6.4585140">
        <ele>343.2</ele>
        <time>2021-10-17T09:38:59Z</time>
      </trkpt>
      <trkpt lat="39.6594120" lon="-6.4584830">
        <ele>343.2</ele>
        <time>2021-10-17T09:39:02Z</time>
      </trkpt>
      <trkpt lat="39.6593330" lon="-6.4584380">
        <ele>343.6</ele>
        <time>2021-10-17T09:39:05Z</time>
      </trkpt>
      <trkpt lat="39.6592270" lon="-6.4583570">
        <ele>344.2</ele>
        <time>2021-10-17T09:39:11Z</time>
      </trkpt>
      <trkpt lat="39.6592140" lon="-6.4583430">
        <ele>344.2</ele>
        <time>2021-10-17T09:39:12Z</time>
      </trkpt>
      <trkpt lat="39.6591940" lon="-6.4583250">
        <ele>344.4</ele>
        <time>2021-10-17T09:39:14Z</time>
      </trkpt>
      <trkpt lat="39.6590280" lon="-6.4581730">
        <ele>345.4</ele>
        <time>2021-10-17T09:39:23Z</time>
      </trkpt>
      <trkpt lat="39.6590120" lon="-6.4581540">
        <ele>345.4</ele>
        <time>2021-10-17T09:39:24Z</time>
      </trkpt>
      <trkpt lat="39.6589040" lon="-6.4579800">
        <ele>346.4</ele>
        <time>2021-10-17T09:39:32Z</time>
      </trkpt>
      <trkpt lat="39.6588830" lon="-6.4579390">
        <ele>346.6</ele>
        <time>2021-10-17T09:39:34Z</time>
      </trkpt>
      <trkpt lat="39.6587580" lon="-6.4577130">
        <ele>347.2</ele>
        <time>2021-10-17T09:39:42Z</time>
      </trkpt>
      <trkpt lat="39.6586710" lon="-6.4576000">
        <ele>347.2</ele>
        <time>2021-10-17T09:39:45Z</time>
      </trkpt>
      <trkpt lat="39.6586280" lon="-6.4575580">
        <ele>347.2</ele>
        <time>2021-10-17T09:39:47Z</time>
      </trkpt>
      <trkpt lat="39.6585430" lon="-6.4574780">
        <ele>347.0</ele>
        <time>2021-10-17T09:39:48Z</time>
      </trkpt>
      <trkpt lat="39.6584570" lon="-6.4573710">
        <ele>346.6</ele>
        <time>2021-10-17T09:39:50Z</time>
      </trkpt>
      <trkpt lat="39.6584030" lon="-6.4573150">
        <ele>346.2</ele>
        <time>2021-10-17T09:39:51Z</time>
      </trkpt>
      <trkpt lat="39.6583600" lon="-6.4572720">
        <ele>346.0</ele>
        <time>2021-10-17T09:39:52Z</time>
      </trkpt>
      <trkpt lat="39.6583290" lon="-6.4572340">
        <ele>345.8</ele>
        <time>2021-10-17T09:39:53Z</time>
      </trkpt>
      <trkpt lat="39.6582290" lon="-6.4570840">
        <ele>345.0</ele>
        <time>2021-10-17T09:39:56Z</time>
      </trkpt>
      <trkpt lat="39.6580220" lon="-6.4568130">
        <ele>344.2</ele>
        <time>2021-10-17T09:40:03Z</time>
      </trkpt>
      <trkpt lat="39.6579510" lon="-6.4567410">
        <ele>344.2</ele>
        <time>2021-10-17T09:40:04Z</time>
      </trkpt>
      <trkpt lat="39.6578520" lon="-6.4566530">
        <ele>344.0</ele>
        <time>2021-10-17T09:40:07Z</time>
      </trkpt>
      <trkpt lat="39.6578150" lon="-6.4566250">
        <ele>344.0</ele>
        <time>2021-10-17T09:40:08Z</time>
      </trkpt>
      <trkpt lat="39.6575980" lon="-6.4564550">
        <ele>344.0</ele>
        <time>2021-10-17T09:40:15Z</time>
      </trkpt>
      <trkpt lat="39.6575680" lon="-6.4564380">
        <ele>344.0</ele>
        <time>2021-10-17T09:40:17Z</time>
      </trkpt>
      <trkpt lat="39.6574420" lon="-6.4563590">
        <ele>344.2</ele>
        <time>2021-10-17T09:40:19Z</time>
      </trkpt>
      <trkpt lat="39.6573620" lon="-6.4562960">
        <ele>344.2</ele>
        <time>2021-10-17T09:40:21Z</time>
      </trkpt>
      <trkpt lat="39.6571700" lon="-6.4561400">
        <ele>344.0</ele>
        <time>2021-10-17T09:40:26Z</time>
      </trkpt>
      <trkpt lat="39.6570180" lon="-6.4560150">
        <ele>343.0</ele>
        <time>2021-10-17T09:40:29Z</time>
      </trkpt>
      <trkpt lat="39.6567080" lon="-6.4557660">
        <ele>342.2</ele>
        <time>2021-10-17T09:40:36Z</time>
      </trkpt>
      <trkpt lat="39.6566030" lon="-6.4556800">
        <ele>342.2</ele>
        <time>2021-10-17T09:40:40Z</time>
      </trkpt>
      <trkpt lat="39.6564270" lon="-6.4555400">
        <ele>342.2</ele>
        <time>2021-10-17T09:40:44Z</time>
      </trkpt>
      <trkpt lat="39.6561680" lon="-6.4553760">
        <ele>342.4</ele>
        <time>2021-10-17T09:40:51Z</time>
      </trkpt>
      <trkpt lat="39.6560260" lon="-6.4553080">
        <ele>342.6</ele>
        <time>2021-10-17T09:40:55Z</time>
      </trkpt>
      <trkpt lat="39.6558030" lon="-6.4552080">
        <ele>343.2</ele>
        <time>2021-10-17T09:41:03Z</time>
      </trkpt>
      <trkpt lat="39.6555580" lon="-6.4551660">
        <ele>343.4</ele>
        <time>2021-10-17T09:41:10Z</time>
      </trkpt>
      <trkpt lat="39.6554380" lon="-6.4551830">
        <ele>344.0</ele>
        <time>2021-10-17T09:41:15Z</time>
      </trkpt>
      <trkpt lat="39.6552890" lon="-6.4552020">
        <ele>345.0</ele>
        <time>2021-10-17T09:41:22Z</time>
      </trkpt>
      <trkpt lat="39.6552890" lon="-6.4552020">
        <ele>345.2</ele>
        <time>2021-10-17T09:41:23Z</time>
      </trkpt>
      <trkpt lat="39.6551290" lon="-6.4552060">
        <ele>346.2</ele>
        <time>2021-10-17T09:41:29Z</time>
      </trkpt>
      <trkpt lat="39.6550820" lon="-6.4552010">
        <ele>346.4</ele>
        <time>2021-10-17T09:41:31Z</time>
      </trkpt>
      <trkpt lat="39.6549040" lon="-6.4551490">
        <ele>347.2</ele>
        <time>2021-10-17T09:41:39Z</time>
      </trkpt>
      <trkpt lat="39.6546660" lon="-6.4551230">
        <ele>348.0</ele>
        <time>2021-10-17T09:41:48Z</time>
      </trkpt>
      <trkpt lat="39.6545380" lon="-6.4550910">
        <ele>348.0</ele>
        <time>2021-10-17T09:41:51Z</time>
      </trkpt>
      <trkpt lat="39.6544560" lon="-6.4550750">
        <ele>348.0</ele>
        <time>2021-10-17T09:41:53Z</time>
      </trkpt>
      <trkpt lat="39.6541120" lon="-6.4550200">
        <ele>347.0</ele>
        <time>2021-10-17T09:42:00Z</time>
      </trkpt>
      <trkpt lat="39.6540650" lon="-6.4550130">
        <ele>346.8</ele>
        <time>2021-10-17T09:42:01Z</time>
      </trkpt>
      <trkpt lat="39.6539320" lon="-6.4549970">
        <ele>346.2</ele>
        <time>2021-10-17T09:42:04Z</time>
      </trkpt>
      <trkpt lat="39.6538610" lon="-6.4549730">
        <ele>346.2</ele>
        <time>2021-10-17T09:42:06Z</time>
      </trkpt>
      <trkpt lat="39.6537420" lon="-6.4549240">
        <ele>346.0</ele>
        <time>2021-10-17T09:42:09Z</time>
      </trkpt>
      <trkpt lat="39.6534500" lon="-6.4548610">
        <ele>346.0</ele>
        <time>2021-10-17T09:42:17Z</time>
      </trkpt>
      <trkpt lat="39.6532210" lon="-6.4548210">
        <ele>346.2</ele>
        <time>2021-10-17T09:42:24Z</time>
      </trkpt>
      <trkpt lat="39.6530930" lon="-6.4547740">
        <ele>346.2</ele>
        <time>2021-10-17T09:42:28Z</time>
      </trkpt>
      <trkpt lat="39.6529600" lon="-6.4547100">
        <ele>346.8</ele>
        <time>2021-10-17T09:42:33Z</time>
      </trkpt>
      <trkpt lat="39.6529330" lon="-6.4546950">
        <ele>347.0</ele>
        <time>2021-10-17T09:42:35Z</time>
      </trkpt>
      <trkpt lat="39.6528100" lon="-6.4546230">
        <ele>347.4</ele>
        <time>2021-10-17T09:42:40Z</time>
      </trkpt>
      <trkpt lat="39.6526940" lon="-6.4545660">
        <ele>347.6</ele>
        <time>2021-10-17T09:42:44Z</time>
      </trkpt>
      <trkpt lat="39.6525460" lon="-6.4545150">
        <ele>348.2</ele>
        <time>2021-10-17T09:42:50Z</time>
      </trkpt>
      <trkpt lat="39.6525240" lon="-6.4545020">
        <ele>348.4</ele>
        <time>2021-10-17T09:42:51Z</time>
      </trkpt>
      <trkpt lat="39.6524440" lon="-6.4544460">
        <ele>348.6</ele>
        <time>2021-10-17T09:42:55Z</time>
      </trkpt>
      <trkpt lat="39.6523810" lon="-6.4544010">
        <ele>349.0</ele>
        <time>2021-10-17T09:42:58Z</time>
      </trkpt>
      <trkpt lat="39.6522250" lon="-6.4543510">
        <ele>349.6</ele>
        <time>2021-10-17T09:43:04Z</time>
      </trkpt>
      <trkpt lat="39.6521900" lon="-6.4543400">
        <ele>349.6</ele>
        <time>2021-10-17T09:43:05Z</time>
      </trkpt>
      <trkpt lat="39.6521040" lon="-6.4543170">
        <ele>350.0</ele>
        <time>2021-10-17T09:43:08Z</time>
      </trkpt>
      <trkpt lat="39.6519550" lon="-6.4542890">
        <ele>350.4</ele>
        <time>2021-10-17T09:43:13Z</time>
      </trkpt>
      <trkpt lat="39.6518970" lon="-6.4542710">
        <ele>350.6</ele>
        <time>2021-10-17T09:43:15Z</time>
      </trkpt>
      <trkpt lat="39.6517740" lon="-6.4542470">
        <ele>351.0</ele>
        <time>2021-10-17T09:43:19Z</time>
      </trkpt>
      <trkpt lat="39.6517180" lon="-6.4542340">
        <ele>351.2</ele>
        <time>2021-10-17T09:43:21Z</time>
      </trkpt>
      <trkpt lat="39.6516590" lon="-6.4542220">
        <ele>351.2</ele>
        <time>2021-10-17T09:43:23Z</time>
      </trkpt>
      <trkpt lat="39.6515120" lon="-6.4541810">
        <ele>351.6</ele>
        <time>2021-10-17T09:43:28Z</time>
      </trkpt>
      <trkpt lat="39.6514820" lon="-6.4541710">
        <ele>351.6</ele>
        <time>2021-10-17T09:43:29Z</time>
      </trkpt>
      <trkpt lat="39.6513360" lon="-6.4541280">
        <ele>352.0</ele>
        <time>2021-10-17T09:43:34Z</time>
      </trkpt>
      <trkpt lat="39.6512770" lon="-6.4541020">
        <ele>352.0</ele>
        <time>2021-10-17T09:43:36Z</time>
      </trkpt>
      <trkpt lat="39.6511680" lon="-6.4540570">
        <ele>352.0</ele>
        <time>2021-10-17T09:43:42Z</time>
      </trkpt>
      <trkpt lat="39.6511540" lon="-6.4540490">
        <ele>352.0</ele>
        <time>2021-10-17T09:43:45Z</time>
      </trkpt>
      <trkpt lat="39.6510620" lon="-6.4540350">
        <ele>352.0</ele>
        <time>2021-10-17T09:45:18Z</time>
      </trkpt>
      <trkpt lat="39.6510380" lon="-6.4540290">
        <ele>352.0</ele>
        <time>2021-10-17T09:45:19Z</time>
      </trkpt>
      <trkpt lat="39.6509830" lon="-6.4540120">
        <ele>352.0</ele>
        <time>2021-10-17T09:45:21Z</time>
      </trkpt>
      <trkpt lat="39.6507660" lon="-6.4539500">
        <ele>351.8</ele>
        <time>2021-10-17T09:45:28Z</time>
      </trkpt>
      <trkpt lat="39.6505820" lon="-6.4539080">
        <ele>351.6</ele>
        <time>2021-10-17T09:45:32Z</time>
      </trkpt>
      <trkpt lat="39.6504820" lon="-6.4538760">
        <ele>351.4</ele>
        <time>2021-10-17T09:45:34Z</time>
      </trkpt>
      <trkpt lat="39.6503350" lon="-6.4538340">
        <ele>351.2</ele>
        <time>2021-10-17T09:45:37Z</time>
      </trkpt>
      <trkpt lat="39.6501990" lon="-6.4538320">
        <ele>350.4</ele>
        <time>2021-10-17T09:45:40Z</time>
      </trkpt>
      <trkpt lat="39.6501550" lon="-6.4538330">
        <ele>350.2</ele>
        <time>2021-10-17T09:45:41Z</time>
      </trkpt>
      <trkpt lat="39.6499840" lon="-6.4538670">
        <ele>349.6</ele>
        <time>2021-10-17T09:45:45Z</time>
      </trkpt>
      <trkpt lat="39.6497500" lon="-6.4539850">
        <ele>349.4</ele>
        <time>2021-10-17T09:45:52Z</time>
      </trkpt>
      <trkpt lat="39.6496250" lon="-6.4540770">
        <ele>349.4</ele>
        <time>2021-10-17T09:45:56Z</time>
      </trkpt>
      <trkpt lat="39.6495050" lon="-6.4541620">
        <ele>349.4</ele>
        <time>2021-10-17T09:46:00Z</time>
      </trkpt>
      <trkpt lat="39.6492530" lon="-6.4543070">
        <ele>349.6</ele>
        <time>2021-10-17T09:46:08Z</time>
      </trkpt>
      <trkpt lat="39.6490520" lon="-6.4544470">
        <ele>350.2</ele>
        <time>2021-10-17T09:46:16Z</time>
      </trkpt>
      <trkpt lat="39.6489640" lon="-6.4545000">
        <ele>350.4</ele>
        <time>2021-10-17T09:46:20Z</time>
      </trkpt>
      <trkpt lat="39.6488730" lon="-6.4545210">
        <ele>350.8</ele>
        <time>2021-10-17T09:46:24Z</time>
      </trkpt>
      <trkpt lat="39.6488480" lon="-6.4545210">
        <ele>351.0</ele>
        <time>2021-10-17T09:46:25Z</time>
      </trkpt>
      <trkpt lat="39.6487620" lon="-6.4545080">
        <ele>351.2</ele>
        <time>2021-10-17T09:46:28Z</time>
      </trkpt>
      <trkpt lat="39.6486610" lon="-6.4544950">
        <ele>351.4</ele>
        <time>2021-10-17T09:46:32Z</time>
      </trkpt>
      <trkpt lat="39.6486200" lon="-6.4544960">
        <ele>351.6</ele>
        <time>2021-10-17T09:46:34Z</time>
      </trkpt>
      <trkpt lat="39.6485840" lon="-6.4545000">
        <ele>351.6</ele>
        <time>2021-10-17T09:46:36Z</time>
      </trkpt>
      <trkpt lat="39.6485640" lon="-6.4545390">
        <ele>351.8</ele>
        <time>2021-10-17T09:46:38Z</time>
      </trkpt>
      <trkpt lat="39.6485030" lon="-6.4546650">
        <ele>352.0</ele>
        <time>2021-10-17T09:46:42Z</time>
      </trkpt>
      <trkpt lat="39.6484620" lon="-6.4547180">
        <ele>352.2</ele>
        <time>2021-10-17T09:46:44Z</time>
      </trkpt>
      <trkpt lat="39.6483490" lon="-6.4548130">
        <ele>352.4</ele>
        <time>2021-10-17T09:46:49Z</time>
      </trkpt>
      <trkpt lat="39.6482560" lon="-6.4548670">
        <ele>352.4</ele>
        <time>2021-10-17T09:46:53Z</time>
      </trkpt>
      <trkpt lat="39.6481670" lon="-6.4549220">
        <ele>352.8</ele>
        <time>2021-10-17T09:46:57Z</time>
      </trkpt>
      <trkpt lat="39.6480930" lon="-6.4549460">
        <ele>353.0</ele>
        <time>2021-10-17T09:47:00Z</time>
      </trkpt>
      <trkpt lat="39.6479430" lon="-6.4550250">
        <ele>353.6</ele>
        <time>2021-10-17T09:47:07Z</time>
      </trkpt>
      <trkpt lat="39.6478920" lon="-6.4550490">
        <ele>353.8</ele>
        <time>2021-10-17T09:47:10Z</time>
      </trkpt>
      <trkpt lat="39.6478730" lon="-6.4550420">
        <ele>354.0</ele>
        <time>2021-10-17T09:47:11Z</time>
      </trkpt>
      <trkpt lat="39.6478530" lon="-6.4550290">
        <ele>354.0</ele>
        <time>2021-10-17T09:47:12Z</time>
      </trkpt>
      <trkpt lat="39.6477530" lon="-6.4550200">
        <ele>355.2</ele>
        <time>2021-10-17T09:47:18Z</time>
      </trkpt>
      <trkpt lat="39.6476040" lon="-6.4549880">
        <ele>356.0</ele>
        <time>2021-10-17T09:47:26Z</time>
      </trkpt>
      <trkpt lat="39.6475860" lon="-6.4549880">
        <ele>356.2</ele>
        <time>2021-10-17T09:47:27Z</time>
      </trkpt>
      <trkpt lat="39.6474730" lon="-6.4549510">
        <ele>356.6</ele>
        <time>2021-10-17T09:47:33Z</time>
      </trkpt>
      <trkpt lat="39.6473510" lon="-6.4548650">
        <ele>357.2</ele>
        <time>2021-10-17T09:47:39Z</time>
      </trkpt>
      <trkpt lat="39.6473270" lon="-6.4548620">
        <ele>357.4</ele>
        <time>2021-10-17T09:47:40Z</time>
      </trkpt>
      <trkpt lat="39.6472450" lon="-6.4548780">
        <ele>357.8</ele>
        <time>2021-10-17T09:47:45Z</time>
      </trkpt>
      <trkpt lat="39.6471910" lon="-6.4548870">
        <ele>358.4</ele>
        <time>2021-10-17T09:47:49Z</time>
      </trkpt>
      <trkpt lat="39.6471690" lon="-6.4548840">
        <ele>358.6</ele>
        <time>2021-10-17T09:47:51Z</time>
      </trkpt>
      <trkpt lat="39.6471560" lon="-6.4548830">
        <ele>358.8</ele>
        <time>2021-10-17T09:47:52Z</time>
      </trkpt>
      <trkpt lat="39.6471240" lon="-6.4548710">
        <ele>359.0</ele>
        <time>2021-10-17T09:47:54Z</time>
      </trkpt>
      <trkpt lat="39.6470730" lon="-6.4548560">
        <ele>359.2</ele>
        <time>2021-10-17T09:47:57Z</time>
      </trkpt>
      <trkpt lat="39.6470210" lon="-6.4548330">
        <ele>359.4</ele>
        <time>2021-10-17T09:48:00Z</time>
      </trkpt>
      <trkpt lat="39.6470000" lon="-6.4548280">
        <ele>359.4</ele>
        <time>2021-10-17T09:48:01Z</time>
      </trkpt>
      <trkpt lat="39.6469400" lon="-6.4548100">
        <ele>359.8</ele>
        <time>2021-10-17T09:48:04Z</time>
      </trkpt>
      <trkpt lat="39.6468000" lon="-6.4547640">
        <ele>360.2</ele>
        <time>2021-10-17T09:48:11Z</time>
      </trkpt>
      <trkpt lat="39.6467560" lon="-6.4547510">
        <ele>360.6</ele>
        <time>2021-10-17T09:48:13Z</time>
      </trkpt>
      <trkpt lat="39.6466700" lon="-6.4547370">
        <ele>360.8</ele>
        <time>2021-10-17T09:48:17Z</time>
      </trkpt>
      <trkpt lat="39.6466320" lon="-6.4547230">
        <ele>361.0</ele>
        <time>2021-10-17T09:48:19Z</time>
      </trkpt>
      <trkpt lat="39.6465640" lon="-6.4547030">
        <ele>361.2</ele>
        <time>2021-10-17T09:48:22Z</time>
      </trkpt>
      <trkpt lat="39.6464490" lon="-6.4546680">
        <ele>361.4</ele>
        <time>2021-10-17T09:48:28Z</time>
      </trkpt>
      <trkpt lat="39.6464250" lon="-6.4546550">
        <ele>361.6</ele>
        <time>2021-10-17T09:48:29Z</time>
      </trkpt>
      <trkpt lat="39.6464060" lon="-6.4546460">
        <ele>361.6</ele>
        <time>2021-10-17T09:48:30Z</time>
      </trkpt>
      <trkpt lat="39.6463320" lon="-6.4546090">
        <ele>362.0</ele>
        <time>2021-10-17T09:48:34Z</time>
      </trkpt>
      <trkpt lat="39.6462410" lon="-6.4545920">
        <ele>361.8</ele>
        <time>2021-10-17T09:48:38Z</time>
      </trkpt>
      <trkpt lat="39.6461840" lon="-6.4545810">
        <ele>361.6</ele>
        <time>2021-10-17T09:48:41Z</time>
      </trkpt>
      <trkpt lat="39.6460480" lon="-6.4545380">
        <ele>361.2</ele>
        <time>2021-10-17T09:48:48Z</time>
      </trkpt>
      <trkpt lat="39.6459570" lon="-6.4545330">
        <ele>360.8</ele>
        <time>2021-10-17T09:48:52Z</time>
      </trkpt>
      <trkpt lat="39.6458960" lon="-6.4545120">
        <ele>360.4</ele>
        <time>2021-10-17T09:48:55Z</time>
      </trkpt>
      <trkpt lat="39.6458740" lon="-6.4545030">
        <ele>360.4</ele>
        <time>2021-10-17T09:48:56Z</time>
      </trkpt>
      <trkpt lat="39.6457840" lon="-6.4544880">
        <ele>360.2</ele>
        <time>2021-10-17T09:49:01Z</time>
      </trkpt>
      <trkpt lat="39.6457840" lon="-6.4544880">
        <ele>360.0</ele>
        <time>2021-10-17T09:49:02Z</time>
      </trkpt>
      <trkpt lat="39.6457490" lon="-6.4544880">
        <ele>360.0</ele>
        <time>2021-10-17T09:49:43Z</time>
      </trkpt>
      <trkpt lat="39.6457270" lon="-6.4544880">
        <ele>360.0</ele>
        <time>2021-10-17T09:49:44Z</time>
      </trkpt>
      <trkpt lat="39.6457020" lon="-6.4544880">
        <ele>360.0</ele>
        <time>2021-10-17T09:49:45Z</time>
      </trkpt>
      <trkpt lat="39.6455120" lon="-6.4544740">
        <ele>359.8</ele>
        <time>2021-10-17T09:49:52Z</time>
      </trkpt>
      <trkpt lat="39.6452580" lon="-6.4544550">
        <ele>359.6</ele>
        <time>2021-10-17T09:50:01Z</time>
      </trkpt>
      <trkpt lat="39.6449210" lon="-6.4544580">
        <ele>359.8</ele>
        <time>2021-10-17T09:50:11Z</time>
      </trkpt>
      <trkpt lat="39.6446680" lon="-6.4544950">
        <ele>360.2</ele>
        <time>2021-10-17T09:50:19Z</time>
      </trkpt>
      <trkpt lat="39.6444360" lon="-6.4545070">
        <ele>360.8</ele>
        <time>2021-10-17T09:50:27Z</time>
      </trkpt>
      <trkpt lat="39.6442260" lon="-6.4545150">
        <ele>361.2</ele>
        <time>2021-10-17T09:50:34Z</time>
      </trkpt>
      <trkpt lat="39.6441610" lon="-6.4545160">
        <ele>361.4</ele>
        <time>2021-10-17T09:50:36Z</time>
      </trkpt>
      <trkpt lat="39.6439880" lon="-6.4545190">
        <ele>361.2</ele>
        <time>2021-10-17T09:50:41Z</time>
      </trkpt>
      <trkpt lat="39.6438740" lon="-6.4545370">
        <ele>361.0</ele>
        <time>2021-10-17T09:50:44Z</time>
      </trkpt>
      <trkpt lat="39.6436550" lon="-6.4545930">
        <ele>360.8</ele>
        <time>2021-10-17T09:50:51Z</time>
      </trkpt>
      <trkpt lat="39.6434210" lon="-6.4546340">
        <ele>360.4</ele>
        <time>2021-10-17T09:50:58Z</time>
      </trkpt>
      <trkpt lat="39.6433180" lon="-6.4546360">
        <ele>360.2</ele>
        <time>2021-10-17T09:51:01Z</time>
      </trkpt>
      <trkpt lat="39.6432150" lon="-6.4546280">
        <ele>360.2</ele>
        <time>2021-10-17T09:51:04Z</time>
      </trkpt>
      <trkpt lat="39.6431370" lon="-6.4546070">
        <ele>359.8</ele>
        <time>2021-10-17T09:51:06Z</time>
      </trkpt>
      <trkpt lat="39.6429990" lon="-6.4545350">
        <ele>359.8</ele>
        <time>2021-10-17T09:51:10Z</time>
      </trkpt>
      <trkpt lat="39.6429230" lon="-6.4545000">
        <ele>359.6</ele>
        <time>2021-10-17T09:51:12Z</time>
      </trkpt>
      <trkpt lat="39.6428060" lon="-6.4544610">
        <ele>359.8</ele>
        <time>2021-10-17T09:51:15Z</time>
      </trkpt>
      <trkpt lat="39.6426930" lon="-6.4544200">
        <ele>359.6</ele>
        <time>2021-10-17T09:51:18Z</time>
      </trkpt>
      <trkpt lat="39.6426440" lon="-6.4543990">
        <ele>359.6</ele>
        <time>2021-10-17T09:51:19Z</time>
      </trkpt>
      <trkpt lat="39.6423640" lon="-6.4542470">
        <ele>359.6</ele>
        <time>2021-10-17T09:51:27Z</time>
      </trkpt>
      <trkpt lat="39.6421300" lon="-6.4540860">
        <ele>359.8</ele>
        <time>2021-10-17T09:51:34Z</time>
      </trkpt>
      <trkpt lat="39.6420050" lon="-6.4539740">
        <ele>360.0</ele>
        <time>2021-10-17T09:51:38Z</time>
      </trkpt>
      <trkpt lat="39.6418810" lon="-6.4538450">
        <ele>360.2</ele>
        <time>2021-10-17T09:51:42Z</time>
      </trkpt>
      <trkpt lat="39.6417290" lon="-6.4537030">
        <ele>360.4</ele>
        <time>2021-10-17T09:51:47Z</time>
      </trkpt>
      <trkpt lat="39.6414240" lon="-6.4535230">
        <ele>360.6</ele>
        <time>2021-10-17T09:51:56Z</time>
      </trkpt>
      <trkpt lat="39.6413270" lon="-6.4534810">
        <ele>361.0</ele>
        <time>2021-10-17T09:51:59Z</time>
      </trkpt>
      <trkpt lat="39.6412110" lon="-6.4534050">
        <ele>361.2</ele>
        <time>2021-10-17T09:52:03Z</time>
      </trkpt>
      <trkpt lat="39.6409880" lon="-6.4532500">
        <ele>361.8</ele>
        <time>2021-10-17T09:52:11Z</time>
      </trkpt>
      <trkpt lat="39.6409240" lon="-6.4531820">
        <ele>362.0</ele>
        <time>2021-10-17T09:52:14Z</time>
      </trkpt>
      <trkpt lat="39.6408000" lon="-6.4530740">
        <ele>362.8</ele>
        <time>2021-10-17T09:52:19Z</time>
      </trkpt>
      <trkpt lat="39.6407270" lon="-6.4530200">
        <ele>363.2</ele>
        <time>2021-10-17T09:52:22Z</time>
      </trkpt>
      <trkpt lat="39.6405560" lon="-6.4529050">
        <ele>363.6</ele>
        <time>2021-10-17T09:52:29Z</time>
      </trkpt>
      <trkpt lat="39.6404220" lon="-6.4528820">
        <ele>364.2</ele>
        <time>2021-10-17T09:52:34Z</time>
      </trkpt>
      <trkpt lat="39.6404030" lon="-6.4528810">
        <ele>364.2</ele>
        <time>2021-10-17T09:52:35Z</time>
      </trkpt>
      <trkpt lat="39.6402410" lon="-6.4528280">
        <ele>365.2</ele>
        <time>2021-10-17T09:52:42Z</time>
      </trkpt>
      <trkpt lat="39.6402220" lon="-6.4528180">
        <ele>365.2</ele>
        <time>2021-10-17T09:52:43Z</time>
      </trkpt>
      <trkpt lat="39.6401230" lon="-6.4527620">
        <ele>365.6</ele>
        <time>2021-10-17T09:52:47Z</time>
      </trkpt>
      <trkpt lat="39.6399920" lon="-6.4526890">
        <ele>366.0</ele>
        <time>2021-10-17T09:52:52Z</time>
      </trkpt>
      <trkpt lat="39.6398630" lon="-6.4526420">
        <ele>366.0</ele>
        <time>2021-10-17T09:52:56Z</time>
      </trkpt>
      <trkpt lat="39.6398350" lon="-6.4526310">
        <ele>366.2</ele>
        <time>2021-10-17T09:52:57Z</time>
      </trkpt>
      <trkpt lat="39.6397010" lon="-6.4525700">
        <ele>366.2</ele>
        <time>2021-10-17T09:53:01Z</time>
      </trkpt>
      <trkpt lat="39.6394590" lon="-6.4524660">
        <ele>366.2</ele>
        <time>2021-10-17T09:53:09Z</time>
      </trkpt>
      <trkpt lat="39.6392770" lon="-6.4523860">
        <ele>366.2</ele>
        <time>2021-10-17T09:53:13Z</time>
      </trkpt>
      <trkpt lat="39.6391770" lon="-6.4523380">
        <ele>366.0</ele>
        <time>2021-10-17T09:53:15Z</time>
      </trkpt>
      <trkpt lat="39.6390310" lon="-6.4522930">
        <ele>365.0</ele>
        <time>2021-10-17T09:53:18Z</time>
      </trkpt>
      <trkpt lat="39.6389290" lon="-6.4522290">
        <ele>364.4</ele>
        <time>2021-10-17T09:53:20Z</time>
      </trkpt>
      <trkpt lat="39.6388180" lon="-6.4521170">
        <ele>363.8</ele>
        <time>2021-10-17T09:53:22Z</time>
      </trkpt>
      <trkpt lat="39.6386830" lon="-6.4519450">
        <ele>362.4</ele>
        <time>2021-10-17T09:53:25Z</time>
      </trkpt>
      <trkpt lat="39.6385600" lon="-6.4517230">
        <ele>361.4</ele>
        <time>2021-10-17T09:53:28Z</time>
      </trkpt>
      <trkpt lat="39.6384760" lon="-6.4516350">
        <ele>360.6</ele>
        <time>2021-10-17T09:53:30Z</time>
      </trkpt>
      <trkpt lat="39.6384190" lon="-6.4515890">
        <ele>360.2</ele>
        <time>2021-10-17T09:53:31Z</time>
      </trkpt>
      <trkpt lat="39.6383760" lon="-6.4515520">
        <ele>360.0</ele>
        <time>2021-10-17T09:53:32Z</time>
      </trkpt>
      <trkpt lat="39.6383190" lon="-6.4514800">
        <ele>359.4</ele>
        <time>2021-10-17T09:53:34Z</time>
      </trkpt>
      <trkpt lat="39.6382930" lon="-6.4514430">
        <ele>359.2</ele>
        <time>2021-10-17T09:53:35Z</time>
      </trkpt>
      <trkpt lat="39.6382700" lon="-6.4514080">
        <ele>359.0</ele>
        <time>2021-10-17T09:53:36Z</time>
      </trkpt>
      <trkpt lat="39.6381820" lon="-6.4512910">
        <ele>358.6</ele>
        <time>2021-10-17T09:53:40Z</time>
      </trkpt>
      <trkpt lat="39.6380140" lon="-6.4511390">
        <ele>359.0</ele>
        <time>2021-10-17T09:53:47Z</time>
      </trkpt>
      <trkpt lat="39.6379540" lon="-6.4510480">
        <ele>359.2</ele>
        <time>2021-10-17T09:53:52Z</time>
      </trkpt>
      <trkpt lat="39.6379440" lon="-6.4509850">
        <ele>360.0</ele>
        <time>2021-10-17T09:53:55Z</time>
      </trkpt>
      <trkpt lat="39.6379350" lon="-6.4509290">
        <ele>360.8</ele>
        <time>2021-10-17T09:53:58Z</time>
      </trkpt>
      <trkpt lat="39.6379280" lon="-6.4509110">
        <ele>360.8</ele>
        <time>2021-10-17T09:53:59Z</time>
      </trkpt>
      <trkpt lat="39.6379180" lon="-6.4508980">
        <ele>361.2</ele>
        <time>2021-10-17T09:54:00Z</time>
      </trkpt>
      <trkpt lat="39.6378760" lon="-6.4508680">
        <ele>361.4</ele>
        <time>2021-10-17T09:54:03Z</time>
      </trkpt>
      <trkpt lat="39.6378590" lon="-6.4508640">
        <ele>361.6</ele>
        <time>2021-10-17T09:54:04Z</time>
      </trkpt>
      <trkpt lat="39.6378350" lon="-6.4508650">
        <ele>361.8</ele>
        <time>2021-10-17T09:54:06Z</time>
      </trkpt>
      <trkpt lat="39.6378060" lon="-6.4508740">
        <ele>362.0</ele>
        <time>2021-10-17T09:54:08Z</time>
      </trkpt>
      <trkpt lat="39.6377740" lon="-6.4508710">
        <ele>362.2</ele>
        <time>2021-10-17T09:54:10Z</time>
      </trkpt>
      <trkpt lat="39.6377610" lon="-6.4508680">
        <ele>362.2</ele>
        <time>2021-10-17T09:54:11Z</time>
      </trkpt>
      <trkpt lat="39.6377420" lon="-6.4508640">
        <ele>362.4</ele>
        <time>2021-10-17T09:54:12Z</time>
      </trkpt>
      <trkpt lat="39.6377080" lon="-6.4508570">
        <ele>362.6</ele>
        <time>2021-10-17T09:54:14Z</time>
      </trkpt>
      <trkpt lat="39.6376580" lon="-6.4508340">
        <ele>362.8</ele>
        <time>2021-10-17T09:54:17Z</time>
      </trkpt>
      <trkpt lat="39.6375720" lon="-6.4507650">
        <ele>363.2</ele>
        <time>2021-10-17T09:54:22Z</time>
      </trkpt>
      <trkpt lat="39.6375200" lon="-6.4507100">
        <ele>363.4</ele>
        <time>2021-10-17T09:54:25Z</time>
      </trkpt>
      <trkpt lat="39.6374080" lon="-6.4506470">
        <ele>363.8</ele>
        <time>2021-10-17T09:54:31Z</time>
      </trkpt>
      <trkpt lat="39.6373120" lon="-6.4505630">
        <ele>364.4</ele>
        <time>2021-10-17T09:54:37Z</time>
      </trkpt>
      <trkpt lat="39.6372870" lon="-6.4505280">
        <ele>364.6</ele>
        <time>2021-10-17T09:54:39Z</time>
      </trkpt>
      <trkpt lat="39.6371940" lon="-6.4503380">
        <ele>365.2</ele>
        <time>2021-10-17T09:54:46Z</time>
      </trkpt>
      <trkpt lat="39.6371740" lon="-6.4502870">
        <ele>365.2</ele>
        <time>2021-10-17T09:54:48Z</time>
      </trkpt>
      <trkpt lat="39.6371540" lon="-6.4502320">
        <ele>365.2</ele>
        <time>2021-10-17T09:54:50Z</time>
      </trkpt>
      <trkpt lat="39.6371350" lon="-6.4501680">
        <ele>365.2</ele>
        <time>2021-10-17T09:54:52Z</time>
      </trkpt>
      <trkpt lat="39.6370960" lon="-6.4500480">
        <ele>365.2</ele>
        <time>2021-10-17T09:54:55Z</time>
      </trkpt>
      <trkpt lat="39.6369930" lon="-6.4497760">
        <ele>364.8</ele>
        <time>2021-10-17T09:55:02Z</time>
      </trkpt>
      <trkpt lat="39.6368750" lon="-6.4495330">
        <ele>364.4</ele>
        <time>2021-10-17T09:55:09Z</time>
      </trkpt>
      <trkpt lat="39.6368390" lon="-6.4494830">
        <ele>364.4</ele>
        <time>2021-10-17T09:55:11Z</time>
      </trkpt>
      <trkpt lat="39.6366600" lon="-6.4492490">
        <ele>365.2</ele>
        <time>2021-10-17T09:55:20Z</time>
      </trkpt>
      <trkpt lat="39.6366240" lon="-6.4491870">
        <ele>365.2</ele>
        <time>2021-10-17T09:55:22Z</time>
      </trkpt>
      <trkpt lat="39.6365000" lon="-6.4490500">
        <ele>365.2</ele>
        <time>2021-10-17T09:55:27Z</time>
      </trkpt>
      <trkpt lat="39.6363010" lon="-6.4489040">
        <ele>365.2</ele>
        <time>2021-10-17T09:55:33Z</time>
      </trkpt>
      <trkpt lat="39.6361670" lon="-6.4487460">
        <ele>365.0</ele>
        <time>2021-10-17T09:55:38Z</time>
      </trkpt>
      <trkpt lat="39.6359860" lon="-6.4484980">
        <ele>365.0</ele>
        <time>2021-10-17T09:55:45Z</time>
      </trkpt>
      <trkpt lat="39.6359480" lon="-6.4482300">
        <ele>365.0</ele>
        <time>2021-10-17T09:55:50Z</time>
      </trkpt>
      <trkpt lat="39.6359470" lon="-6.4481660">
        <ele>364.8</ele>
        <time>2021-10-17T09:55:51Z</time>
      </trkpt>
      <trkpt lat="39.6359210" lon="-6.4480540">
        <ele>364.4</ele>
        <time>2021-10-17T09:55:53Z</time>
      </trkpt>
      <trkpt lat="39.6358910" lon="-6.4479920">
        <ele>364.0</ele>
        <time>2021-10-17T09:55:54Z</time>
      </trkpt>
      <trkpt lat="39.6358450" lon="-6.4479190">
        <ele>363.6</ele>
        <time>2021-10-17T09:55:55Z</time>
      </trkpt>
      <trkpt lat="39.6357700" lon="-6.4478170">
        <ele>363.0</ele>
        <time>2021-10-17T09:55:57Z</time>
      </trkpt>
      <trkpt lat="39.6356920" lon="-6.4476860">
        <ele>361.6</ele>
        <time>2021-10-17T09:55:59Z</time>
      </trkpt>
      <trkpt lat="39.6356110" lon="-6.4475020">
        <ele>360.6</ele>
        <time>2021-10-17T09:56:02Z</time>
      </trkpt>
      <trkpt lat="39.6355290" lon="-6.4473290">
        <ele>360.0</ele>
        <time>2021-10-17T09:56:05Z</time>
      </trkpt>
      <trkpt lat="39.6354740" lon="-6.4472290">
        <ele>359.6</ele>
        <time>2021-10-17T09:56:07Z</time>
      </trkpt>
      <trkpt lat="39.6354480" lon="-6.4471800">
        <ele>359.4</ele>
        <time>2021-10-17T09:56:08Z</time>
      </trkpt>
      <trkpt lat="39.6353090" lon="-6.4469200">
        <ele>359.2</ele>
        <time>2021-10-17T09:56:13Z</time>
      </trkpt>
      <trkpt lat="39.6351670" lon="-6.4466880">
        <ele>359.6</ele>
        <time>2021-10-17T09:56:19Z</time>
      </trkpt>
      <trkpt lat="39.6349930" lon="-6.4465600">
        <ele>360.0</ele>
        <time>2021-10-17T09:56:25Z</time>
      </trkpt>
      <trkpt lat="39.6349200" lon="-6.4465100">
        <ele>360.6</ele>
        <time>2021-10-17T09:56:28Z</time>
      </trkpt>
      <trkpt lat="39.6347850" lon="-6.4464020">
        <ele>361.2</ele>
        <time>2021-10-17T09:56:33Z</time>
      </trkpt>
      <trkpt lat="39.6345630" lon="-6.4462210">
        <ele>361.6</ele>
        <time>2021-10-17T09:56:39Z</time>
      </trkpt>
      <trkpt lat="39.6342440" lon="-6.4460090">
        <ele>361.2</ele>
        <time>2021-10-17T09:56:45Z</time>
      </trkpt>
      <trkpt lat="39.6341920" lon="-6.4459620">
        <ele>360.8</ele>
        <time>2021-10-17T09:56:46Z</time>
      </trkpt>
      <trkpt lat="39.6340200" lon="-6.4457710">
        <ele>360.0</ele>
        <time>2021-10-17T09:56:50Z</time>
      </trkpt>
      <trkpt lat="39.6339010" lon="-6.4456670">
        <ele>359.4</ele>
        <time>2021-10-17T09:56:53Z</time>
      </trkpt>
      <trkpt lat="39.6338670" lon="-6.4456410">
        <ele>359.2</ele>
        <time>2021-10-17T09:56:54Z</time>
      </trkpt>
      <trkpt lat="39.6338500" lon="-6.4456320">
        <ele>358.6</ele>
        <time>2021-10-17T09:56:57Z</time>
      </trkpt>
      <trkpt lat="39.6337860" lon="-6.4455730">
        <ele>358.2</ele>
        <time>2021-10-17T09:57:56Z</time>
      </trkpt>
      <trkpt lat="39.6337660" lon="-6.4455610">
        <ele>358.2</ele>
        <time>2021-10-17T09:57:57Z</time>
      </trkpt>
      <trkpt lat="39.6337440" lon="-6.4455460">
        <ele>358.2</ele>
        <time>2021-10-17T09:57:58Z</time>
      </trkpt>
      <trkpt lat="39.6336680" lon="-6.4455080">
        <ele>358.2</ele>
        <time>2021-10-17T09:58:01Z</time>
      </trkpt>
      <trkpt lat="39.6336050" lon="-6.4454780">
        <ele>358.2</ele>
        <time>2021-10-17T09:58:03Z</time>
      </trkpt>
      <trkpt lat="39.6334990" lon="-6.4454420">
        <ele>358.2</ele>
        <time>2021-10-17T09:58:06Z</time>
      </trkpt>
      <trkpt lat="39.6334010" lon="-6.4454270">
        <ele>358.2</ele>
        <time>2021-10-17T09:58:08Z</time>
      </trkpt>
      <trkpt lat="39.6332270" lon="-6.4453810">
        <ele>357.8</ele>
        <time>2021-10-17T09:58:12Z</time>
      </trkpt>
      <trkpt lat="39.6331070" lon="-6.4453380">
        <ele>357.6</ele>
        <time>2021-10-17T09:58:15Z</time>
      </trkpt>
      <trkpt lat="39.6330590" lon="-6.4453090">
        <ele>357.4</ele>
        <time>2021-10-17T09:58:16Z</time>
      </trkpt>
      <trkpt lat="39.6328830" lon="-6.4451590">
        <ele>357.4</ele>
        <time>2021-10-17T09:58:21Z</time>
      </trkpt>
      <trkpt lat="39.6327730" lon="-6.4450680">
        <ele>357.2</ele>
        <time>2021-10-17T09:58:24Z</time>
      </trkpt>
      <trkpt lat="39.6326960" lon="-6.4450000">
        <ele>357.2</ele>
        <time>2021-10-17T09:58:26Z</time>
      </trkpt>
      <trkpt lat="39.6325620" lon="-6.4448990">
        <ele>357.4</ele>
        <time>2021-10-17T09:58:30Z</time>
      </trkpt>
      <trkpt lat="39.6324660" lon="-6.4448250">
        <ele>357.4</ele>
        <time>2021-10-17T09:58:33Z</time>
      </trkpt>
      <trkpt lat="39.6322060" lon="-6.4446260">
        <ele>358.2</ele>
        <time>2021-10-17T09:58:42Z</time>
      </trkpt>
      <trkpt lat="39.6320540" lon="-6.4445590">
        <ele>358.8</ele>
        <time>2021-10-17T09:58:47Z</time>
      </trkpt>
      <trkpt lat="39.6319330" lon="-6.4445280">
        <ele>359.2</ele>
        <time>2021-10-17T09:58:51Z</time>
      </trkpt>
      <trkpt lat="39.6317230" lon="-6.4444730">
        <ele>359.8</ele>
        <time>2021-10-17T09:58:58Z</time>
      </trkpt>
      <trkpt lat="39.6316040" lon="-6.4444430">
        <ele>360.4</ele>
        <time>2021-10-17T09:59:02Z</time>
      </trkpt>
      <trkpt lat="39.6314620" lon="-6.4444130">
        <ele>361.0</ele>
        <time>2021-10-17T09:59:07Z</time>
      </trkpt>
      <trkpt lat="39.6313600" lon="-6.4443900">
        <ele>361.4</ele>
        <time>2021-10-17T09:59:11Z</time>
      </trkpt>
      <trkpt lat="39.6312520" lon="-6.4443670">
        <ele>362.0</ele>
        <time>2021-10-17T09:59:15Z</time>
      </trkpt>
      <trkpt lat="39.6311550" lon="-6.4443610">
        <ele>362.2</ele>
        <time>2021-10-17T09:59:18Z</time>
      </trkpt>
      <trkpt lat="39.6309760" lon="-6.4443530">
        <ele>362.4</ele>
        <time>2021-10-17T09:59:23Z</time>
      </trkpt>
      <trkpt lat="39.6306770" lon="-6.4443190">
        <ele>362.2</ele>
        <time>2021-10-17T09:59:31Z</time>
      </trkpt>
      <trkpt lat="39.6304240" lon="-6.4442700">
        <ele>362.4</ele>
        <time>2021-10-17T09:59:38Z</time>
      </trkpt>
      <trkpt lat="39.6303530" lon="-6.4442620">
        <ele>362.4</ele>
        <time>2021-10-17T09:59:40Z</time>
      </trkpt>
      <trkpt lat="39.6301130" lon="-6.4442420">
        <ele>362.6</ele>
        <time>2021-10-17T09:59:47Z</time>
      </trkpt>
      <trkpt lat="39.6299740" lon="-6.4442230">
        <ele>362.8</ele>
        <time>2021-10-17T09:59:51Z</time>
      </trkpt>
      <trkpt lat="39.6299010" lon="-6.4442140">
        <ele>363.0</ele>
        <time>2021-10-17T09:59:53Z</time>
      </trkpt>
      <trkpt lat="39.6296770" lon="-6.4441830">
        <ele>363.2</ele>
        <time>2021-10-17T10:00:00Z</time>
      </trkpt>
      <trkpt lat="39.6295790" lon="-6.4441790">
        <ele>363.4</ele>
        <time>2021-10-17T10:00:03Z</time>
      </trkpt>
      <trkpt lat="39.6294420" lon="-6.4441820">
        <ele>363.4</ele>
        <time>2021-10-17T10:00:07Z</time>
      </trkpt>
      <trkpt lat="39.6294110" lon="-6.4441850">
        <ele>363.6</ele>
        <time>2021-10-17T10:00:08Z</time>
      </trkpt>
      <trkpt lat="39.6291910" lon="-6.4441950">
        <ele>364.4</ele>
        <time>2021-10-17T10:00:15Z</time>
      </trkpt>
      <trkpt lat="39.6290930" lon="-6.4441940">
        <ele>364.6</ele>
        <time>2021-10-17T10:00:18Z</time>
      </trkpt>
      <trkpt lat="39.6289360" lon="-6.4441740">
        <ele>364.8</ele>
        <time>2021-10-17T10:00:23Z</time>
      </trkpt>
      <trkpt lat="39.6288770" lon="-6.4441660">
        <ele>365.0</ele>
        <time>2021-10-17T10:00:25Z</time>
      </trkpt>
      <trkpt lat="39.6287190" lon="-6.4441960">
        <ele>365.4</ele>
        <time>2021-10-17T10:00:30Z</time>
      </trkpt>
      <trkpt lat="39.6286970" lon="-6.4442040">
        <ele>365.6</ele>
        <time>2021-10-17T10:00:31Z</time>
      </trkpt>
      <trkpt lat="39.6284630" lon="-6.4442930">
        <ele>366.4</ele>
        <time>2021-10-17T10:00:40Z</time>
      </trkpt>
      <trkpt lat="39.6284370" lon="-6.4443010">
        <ele>366.4</ele>
        <time>2021-10-17T10:00:41Z</time>
      </trkpt>
      <trkpt lat="39.6282370" lon="-6.4442790">
        <ele>367.6</ele>
        <time>2021-10-17T10:00:48Z</time>
      </trkpt>
      <trkpt lat="39.6280270" lon="-6.4442130">
        <ele>368.4</ele>
        <time>2021-10-17T10:00:55Z</time>
      </trkpt>
      <trkpt lat="39.6279800" lon="-6.4442040">
        <ele>368.4</ele>
        <time>2021-10-17T10:00:56Z</time>
      </trkpt>
      <trkpt lat="39.6277440" lon="-6.4441490">
        <ele>368.6</ele>
        <time>2021-10-17T10:01:02Z</time>
      </trkpt>
      <trkpt lat="39.6275420" lon="-6.4441040">
        <ele>368.4</ele>
        <time>2021-10-17T10:01:07Z</time>
      </trkpt>
      <trkpt lat="39.6274310" lon="-6.4440620">
        <ele>368.6</ele>
        <time>2021-10-17T10:01:10Z</time>
      </trkpt>
      <trkpt lat="39.6273550" lon="-6.4440340">
        <ele>368.6</ele>
        <time>2021-10-17T10:01:12Z</time>
      </trkpt>
      <trkpt lat="39.6272090" lon="-6.4439640">
        <ele>369.0</ele>
        <time>2021-10-17T10:01:17Z</time>
      </trkpt>
      <trkpt lat="39.6269890" lon="-6.4438770">
        <ele>369.6</ele>
        <time>2021-10-17T10:01:25Z</time>
      </trkpt>
      <trkpt lat="39.6267510" lon="-6.4438200">
        <ele>370.6</ele>
        <time>2021-10-17T10:01:33Z</time>
      </trkpt>
      <trkpt lat="39.6266760" lon="-6.4438060">
        <ele>370.6</ele>
        <time>2021-10-17T10:01:35Z</time>
      </trkpt>
      <trkpt lat="39.6265970" lon="-6.4437880">
        <ele>370.6</ele>
        <time>2021-10-17T10:01:37Z</time>
      </trkpt>
      <trkpt lat="39.6264760" lon="-6.4437770">
        <ele>370.6</ele>
        <time>2021-10-17T10:01:40Z</time>
      </trkpt>
      <trkpt lat="39.6264330" lon="-6.4437790">
        <ele>370.6</ele>
        <time>2021-10-17T10:01:41Z</time>
      </trkpt>
      <trkpt lat="39.6263000" lon="-6.4437920">
        <ele>370.6</ele>
        <time>2021-10-17T10:01:44Z</time>
      </trkpt>
      <trkpt lat="39.6261650" lon="-6.4437740">
        <ele>370.4</ele>
        <time>2021-10-17T10:01:47Z</time>
      </trkpt>
      <trkpt lat="39.6261210" lon="-6.4437670">
        <ele>370.4</ele>
        <time>2021-10-17T10:01:48Z</time>
      </trkpt>
      <trkpt lat="39.6260360" lon="-6.4437550">
        <ele>370.2</ele>
        <time>2021-10-17T10:01:50Z</time>
      </trkpt>
      <trkpt lat="39.6259580" lon="-6.4437230">
        <ele>370.2</ele>
        <time>2021-10-17T10:01:52Z</time>
      </trkpt>
      <trkpt lat="39.6258830" lon="-6.4436730">
        <ele>370.2</ele>
        <time>2021-10-17T10:01:54Z</time>
      </trkpt>
      <trkpt lat="39.6256660" lon="-6.4435780">
        <ele>370.2</ele>
        <time>2021-10-17T10:01:59Z</time>
      </trkpt>
      <trkpt lat="39.6256170" lon="-6.4435610">
        <ele>370.2</ele>
        <time>2021-10-17T10:02:00Z</time>
      </trkpt>
      <trkpt lat="39.6254870" lon="-6.4434840">
        <ele>370.0</ele>
        <time>2021-10-17T10:02:03Z</time>
      </trkpt>
      <trkpt lat="39.6254140" lon="-6.4434100">
        <ele>369.8</ele>
        <time>2021-10-17T10:02:05Z</time>
      </trkpt>
      <trkpt lat="39.6253800" lon="-6.4433730">
        <ele>369.8</ele>
        <time>2021-10-17T10:02:06Z</time>
      </trkpt>
      <trkpt lat="39.6252870" lon="-6.4432470">
        <ele>369.8</ele>
        <time>2021-10-17T10:02:09Z</time>
      </trkpt>
      <trkpt lat="39.6252550" lon="-6.4432140">
        <ele>369.6</ele>
        <time>2021-10-17T10:02:10Z</time>
      </trkpt>
      <trkpt lat="39.6252210" lon="-6.4431870">
        <ele>369.6</ele>
        <time>2021-10-17T10:02:11Z</time>
      </trkpt>
      <trkpt lat="39.6251160" lon="-6.4431310">
        <ele>369.6</ele>
        <time>2021-10-17T10:02:14Z</time>
      </trkpt>
      <trkpt lat="39.6250780" lon="-6.4431190">
        <ele>369.6</ele>
        <time>2021-10-17T10:02:15Z</time>
      </trkpt>
      <trkpt lat="39.6248100" lon="-6.4430520">
        <ele>370.2</ele>
        <time>2021-10-17T10:02:22Z</time>
      </trkpt>
      <trkpt lat="39.6245630" lon="-6.4429930">
        <ele>370.2</ele>
        <time>2021-10-17T10:02:29Z</time>
      </trkpt>
      <trkpt lat="39.6243380" lon="-6.4429670">
        <ele>369.8</ele>
        <time>2021-10-17T10:02:35Z</time>
      </trkpt>
      <trkpt lat="39.6242150" lon="-6.4430600">
        <ele>369.4</ele>
        <time>2021-10-17T10:02:38Z</time>
      </trkpt>
      <trkpt lat="39.6241720" lon="-6.4431000">
        <ele>369.4</ele>
        <time>2021-10-17T10:02:39Z</time>
      </trkpt>
      <trkpt lat="39.6241270" lon="-6.4431390">
        <ele>369.4</ele>
        <time>2021-10-17T10:02:40Z</time>
      </trkpt>
      <trkpt lat="39.6240190" lon="-6.4432010">
        <ele>368.8</ele>
        <time>2021-10-17T10:02:42Z</time>
      </trkpt>
      <trkpt lat="39.6239760" lon="-6.4432150">
        <ele>368.4</ele>
        <time>2021-10-17T10:02:43Z</time>
      </trkpt>
      <trkpt lat="39.6238750" lon="-6.4432350">
        <ele>368.0</ele>
        <time>2021-10-17T10:02:45Z</time>
      </trkpt>
      <trkpt lat="39.6236820" lon="-6.4432310">
        <ele>367.6</ele>
        <time>2021-10-17T10:02:49Z</time>
      </trkpt>
      <trkpt lat="39.6236380" lon="-6.4432260">
        <ele>367.4</ele>
        <time>2021-10-17T10:02:50Z</time>
      </trkpt>
      <trkpt lat="39.6235950" lon="-6.4432180">
        <ele>367.4</ele>
        <time>2021-10-17T10:02:51Z</time>
      </trkpt>
      <trkpt lat="39.6234680" lon="-6.4431870">
        <ele>367.2</ele>
        <time>2021-10-17T10:02:54Z</time>
      </trkpt>
      <trkpt lat="39.6232660" lon="-6.4431330">
        <ele>367.6</ele>
        <time>2021-10-17T10:02:59Z</time>
      </trkpt>
      <trkpt lat="39.6231880" lon="-6.4431090">
        <ele>367.6</ele>
        <time>2021-10-17T10:03:01Z</time>
      </trkpt>
      <trkpt lat="39.6231500" lon="-6.4430940">
        <ele>367.6</ele>
        <time>2021-10-17T10:03:02Z</time>
      </trkpt>
      <trkpt lat="39.6227830" lon="-6.4429740">
        <ele>368.6</ele>
        <time>2021-10-17T10:03:12Z</time>
      </trkpt>
      <trkpt lat="39.6226290" lon="-6.4429310">
        <ele>369.0</ele>
        <time>2021-10-17T10:03:17Z</time>
      </trkpt>
      <trkpt lat="39.6225700" lon="-6.4429110">
        <ele>369.2</ele>
        <time>2021-10-17T10:03:19Z</time>
      </trkpt>
      <trkpt lat="39.6224440" lon="-6.4428680">
        <ele>369.8</ele>
        <time>2021-10-17T10:03:23Z</time>
      </trkpt>
      <trkpt lat="39.6222600" lon="-6.4428100">
        <ele>370.0</ele>
        <time>2021-10-17T10:03:28Z</time>
      </trkpt>
      <trkpt lat="39.6219720" lon="-6.4427150">
        <ele>369.8</ele>
        <time>2021-10-17T10:03:34Z</time>
      </trkpt>
      <trkpt lat="39.6216100" lon="-6.4426490">
        <ele>369.2</ele>
        <time>2021-10-17T10:03:40Z</time>
      </trkpt>
      <trkpt lat="39.6214940" lon="-6.4426420">
        <ele>368.8</ele>
        <time>2021-10-17T10:03:42Z</time>
      </trkpt>
      <trkpt lat="39.6213050" lon="-6.4426330">
        <ele>367.4</ele>
        <time>2021-10-17T10:03:45Z</time>
      </trkpt>
      <trkpt lat="39.6212440" lon="-6.4426330">
        <ele>367.2</ele>
        <time>2021-10-17T10:03:46Z</time>
      </trkpt>
      <trkpt lat="39.6210680" lon="-6.4426300">
        <ele>366.8</ele>
        <time>2021-10-17T10:03:49Z</time>
      </trkpt>
      <trkpt lat="39.6209070" lon="-6.4426330">
        <ele>366.4</ele>
        <time>2021-10-17T10:03:52Z</time>
      </trkpt>
      <trkpt lat="39.6208560" lon="-6.4426310">
        <ele>366.2</ele>
        <time>2021-10-17T10:03:53Z</time>
      </trkpt>
      <trkpt lat="39.6205970" lon="-6.4426170">
        <ele>366.2</ele>
        <time>2021-10-17T10:03:58Z</time>
      </trkpt>
      <trkpt lat="39.6203170" lon="-6.4425970">
        <ele>366.0</ele>
        <time>2021-10-17T10:04:03Z</time>
      </trkpt>
      <trkpt lat="39.6199570" lon="-6.4425290">
        <ele>366.0</ele>
        <time>2021-10-17T10:04:10Z</time>
      </trkpt>
      <trkpt lat="39.6195600" lon="-6.4423620">
        <ele>366.6</ele>
        <time>2021-10-17T10:04:19Z</time>
      </trkpt>
      <trkpt lat="39.6191320" lon="-6.4422040">
        <ele>366.8</ele>
        <time>2021-10-17T10:04:28Z</time>
      </trkpt>
      <trkpt lat="39.6188560" lon="-6.4421150">
        <ele>366.6</ele>
        <time>2021-10-17T10:04:33Z</time>
      </trkpt>
      <trkpt lat="39.6186720" lon="-6.4420540">
        <ele>366.2</ele>
        <time>2021-10-17T10:04:36Z</time>
      </trkpt>
      <trkpt lat="39.6184710" lon="-6.4419800">
        <ele>366.0</ele>
        <time>2021-10-17T10:04:39Z</time>
      </trkpt>
      <trkpt lat="39.6182590" lon="-6.4418980">
        <ele>365.0</ele>
        <time>2021-10-17T10:04:43Z</time>
      </trkpt>
      <trkpt lat="39.6181270" lon="-6.4418430">
        <ele>364.6</ele>
        <time>2021-10-17T10:04:46Z</time>
      </trkpt>
      <trkpt lat="39.6180530" lon="-6.4417990">
        <ele>364.6</ele>
        <time>2021-10-17T10:04:48Z</time>
      </trkpt>
      <trkpt lat="39.6178770" lon="-6.4417440">
        <ele>365.0</ele>
        <time>2021-10-17T10:04:53Z</time>
      </trkpt>
      <trkpt lat="39.6175550" lon="-6.4416460">
        <ele>366.2</ele>
        <time>2021-10-17T10:05:02Z</time>
      </trkpt>
      <trkpt lat="39.6172440" lon="-6.4414800">
        <ele>366.6</ele>
        <time>2021-10-17T10:05:11Z</time>
      </trkpt>
      <trkpt lat="39.6171290" lon="-6.4413680">
        <ele>367.0</ele>
        <time>2021-10-17T10:05:15Z</time>
      </trkpt>
      <trkpt lat="39.6170470" lon="-6.4412680">
        <ele>367.4</ele>
        <time>2021-10-17T10:05:18Z</time>
      </trkpt>
      <trkpt lat="39.6169610" lon="-6.4411770">
        <ele>367.4</ele>
        <time>2021-10-17T10:05:21Z</time>
      </trkpt>
      <trkpt lat="39.6168520" lon="-6.4410460">
        <ele>367.6</ele>
        <time>2021-10-17T10:05:25Z</time>
      </trkpt>
      <trkpt lat="39.6166390" lon="-6.4407960">
        <ele>367.8</ele>
        <time>2021-10-17T10:05:33Z</time>
      </trkpt>
      <trkpt lat="39.6164650" lon="-6.4406110">
        <ele>368.0</ele>
        <time>2021-10-17T10:05:39Z</time>
      </trkpt>
      <trkpt lat="39.6164070" lon="-6.4405550">
        <ele>368.2</ele>
        <time>2021-10-17T10:05:41Z</time>
      </trkpt>
      <trkpt lat="39.6162180" lon="-6.4403670">
        <ele>368.2</ele>
        <time>2021-10-17T10:05:48Z</time>
      </trkpt>
      <trkpt lat="39.6159830" lon="-6.4401290">
        <ele>368.8</ele>
        <time>2021-10-17T10:05:57Z</time>
      </trkpt>
      <trkpt lat="39.6158670" lon="-6.4399750">
        <ele>369.2</ele>
        <time>2021-10-17T10:06:02Z</time>
      </trkpt>
      <trkpt lat="39.6157630" lon="-6.4398010">
        <ele>369.4</ele>
        <time>2021-10-17T10:06:07Z</time>
      </trkpt>
      <trkpt lat="39.6155950" lon="-6.4395080">
        <ele>370.0</ele>
        <time>2021-10-17T10:06:16Z</time>
      </trkpt>
      <trkpt lat="39.6155440" lon="-6.4394170">
        <ele>370.2</ele>
        <time>2021-10-17T10:06:19Z</time>
      </trkpt>
      <trkpt lat="39.6154330" lon="-6.4392420">
        <ele>370.6</ele>
        <time>2021-10-17T10:06:25Z</time>
      </trkpt>
      <trkpt lat="39.6152490" lon="-6.4390760">
        <ele>371.2</ele>
        <time>2021-10-17T10:06:33Z</time>
      </trkpt>
      <trkpt lat="39.6152250" lon="-6.4390610">
        <ele>371.2</ele>
        <time>2021-10-17T10:06:34Z</time>
      </trkpt>
      <trkpt lat="39.6150720" lon="-6.4389690">
        <ele>372.2</ele>
        <time>2021-10-17T10:06:40Z</time>
      </trkpt>
      <trkpt lat="39.6150190" lon="-6.4389390">
        <ele>372.4</ele>
        <time>2021-10-17T10:06:42Z</time>
      </trkpt>
      <trkpt lat="39.6149900" lon="-6.4389250">
        <ele>372.4</ele>
        <time>2021-10-17T10:06:43Z</time>
      </trkpt>
      <trkpt lat="39.6147630" lon="-6.4387980">
        <ele>372.8</ele>
        <time>2021-10-17T10:06:51Z</time>
      </trkpt>
      <trkpt lat="39.6144860" lon="-6.4386140">
        <ele>373.0</ele>
        <time>2021-10-17T10:06:59Z</time>
      </trkpt>
      <trkpt lat="39.6144120" lon="-6.4385660">
        <ele>373.0</ele>
        <time>2021-10-17T10:07:01Z</time>
      </trkpt>
      <trkpt lat="39.6143030" lon="-6.4384980">
        <ele>373.0</ele>
        <time>2021-10-17T10:07:04Z</time>
      </trkpt>
      <trkpt lat="39.6141600" lon="-6.4384280">
        <ele>373.0</ele>
        <time>2021-10-17T10:07:08Z</time>
      </trkpt>
      <trkpt lat="39.6138440" lon="-6.4383190">
        <ele>373.2</ele>
        <time>2021-10-17T10:07:17Z</time>
      </trkpt>
      <trkpt lat="39.6138110" lon="-6.4383120">
        <ele>373.2</ele>
        <time>2021-10-17T10:07:18Z</time>
      </trkpt>
      <trkpt lat="39.6137770" lon="-6.4383070">
        <ele>373.4</ele>
        <time>2021-10-17T10:07:19Z</time>
      </trkpt>
      <trkpt lat="39.6135320" lon="-6.4382420">
        <ele>374.0</ele>
        <time>2021-10-17T10:07:26Z</time>
      </trkpt>
      <trkpt lat="39.6132480" lon="-6.4381540">
        <ele>374.2</ele>
        <time>2021-10-17T10:07:34Z</time>
      </trkpt>
      <trkpt lat="39.6130880" lon="-6.4381010">
        <ele>374.4</ele>
        <time>2021-10-17T10:07:39Z</time>
      </trkpt>
      <trkpt lat="39.6128750" lon="-6.4380410">
        <ele>374.6</ele>
        <time>2021-10-17T10:07:45Z</time>
      </trkpt>
      <trkpt lat="39.6126190" lon="-6.4379470">
        <ele>375.6</ele>
        <time>2021-10-17T10:07:53Z</time>
      </trkpt>
      <trkpt lat="39.6125560" lon="-6.4379240">
        <ele>375.6</ele>
        <time>2021-10-17T10:07:55Z</time>
      </trkpt>
      <trkpt lat="39.6122970" lon="-6.4378300">
        <ele>376.2</ele>
        <time>2021-10-17T10:08:03Z</time>
      </trkpt>
      <trkpt lat="39.6118830" lon="-6.4376830">
        <ele>376.4</ele>
        <time>2021-10-17T10:08:15Z</time>
      </trkpt>
      <trkpt lat="39.6117510" lon="-6.4376390">
        <ele>376.6</ele>
        <time>2021-10-17T10:08:19Z</time>
      </trkpt>
      <trkpt lat="39.6115780" lon="-6.4375770">
        <ele>376.8</ele>
        <time>2021-10-17T10:08:24Z</time>
      </trkpt>
      <trkpt lat="39.6112610" lon="-6.4374720">
        <ele>376.8</ele>
        <time>2021-10-17T10:08:32Z</time>
      </trkpt>
      <trkpt lat="39.6109860" lon="-6.4373780">
        <ele>376.4</ele>
        <time>2021-10-17T10:08:38Z</time>
      </trkpt>
      <trkpt lat="39.6108950" lon="-6.4373500">
        <ele>376.4</ele>
        <time>2021-10-17T10:08:40Z</time>
      </trkpt>
      <trkpt lat="39.6105990" lon="-6.4372580">
        <ele>376.2</ele>
        <time>2021-10-17T10:08:47Z</time>
      </trkpt>
      <trkpt lat="39.6105600" lon="-6.4372450">
        <ele>376.0</ele>
        <time>2021-10-17T10:08:48Z</time>
      </trkpt>
      <trkpt lat="39.6103720" lon="-6.4371820">
        <ele>376.4</ele>
        <time>2021-10-17T10:08:53Z</time>
      </trkpt>
      <trkpt lat="39.6101250" lon="-6.4371020">
        <ele>377.4</ele>
        <time>2021-10-17T10:09:00Z</time>
      </trkpt>
      <trkpt lat="39.6100560" lon="-6.4370830">
        <ele>377.6</ele>
        <time>2021-10-17T10:09:02Z</time>
      </trkpt>
      <trkpt lat="39.6098080" lon="-6.4369990">
        <ele>378.2</ele>
        <time>2021-10-17T10:09:09Z</time>
      </trkpt>
      <trkpt lat="39.6097340" lon="-6.4369690">
        <ele>378.4</ele>
        <time>2021-10-17T10:09:11Z</time>
      </trkpt>
      <trkpt lat="39.6096610" lon="-6.4369400">
        <ele>378.4</ele>
        <time>2021-10-17T10:09:13Z</time>
      </trkpt>
      <trkpt lat="39.6094650" lon="-6.4368750">
        <ele>378.6</ele>
        <time>2021-10-17T10:09:18Z</time>
      </trkpt>
      <trkpt lat="39.6093470" lon="-6.4368430">
        <ele>378.6</ele>
        <time>2021-10-17T10:09:21Z</time>
      </trkpt>
      <trkpt lat="39.6091000" lon="-6.4367780">
        <ele>378.8</ele>
        <time>2021-10-17T10:09:28Z</time>
      </trkpt>
      <trkpt lat="39.6088910" lon="-6.4368170">
        <ele>379.2</ele>
        <time>2021-10-17T10:09:34Z</time>
      </trkpt>
      <trkpt lat="39.6086270" lon="-6.4369690">
        <ele>379.2</ele>
        <time>2021-10-17T10:09:41Z</time>
      </trkpt>
      <trkpt lat="39.6085870" lon="-6.4369990">
        <ele>379.2</ele>
        <time>2021-10-17T10:09:42Z</time>
      </trkpt>
      <trkpt lat="39.6085060" lon="-6.4370530">
        <ele>379.2</ele>
        <time>2021-10-17T10:09:44Z</time>
      </trkpt>
      <trkpt lat="39.6082390" lon="-6.4371830">
        <ele>379.0</ele>
        <time>2021-10-17T10:09:50Z</time>
      </trkpt>
      <trkpt lat="39.6078550" lon="-6.4372370">
        <ele>379.0</ele>
        <time>2021-10-17T10:09:58Z</time>
      </trkpt>
      <trkpt lat="39.6074580" lon="-6.4372620">
        <ele>379.0</ele>
        <time>2021-10-17T10:10:07Z</time>
      </trkpt>
      <trkpt lat="39.6072520" lon="-6.4372340">
        <ele>379.4</ele>
        <time>2021-10-17T10:10:12Z</time>
      </trkpt>
      <trkpt lat="39.6071830" lon="-6.4372120">
        <ele>379.6</ele>
        <time>2021-10-17T10:10:14Z</time>
      </trkpt>
      <trkpt lat="39.6067910" lon="-6.4370710">
        <ele>379.8</ele>
        <time>2021-10-17T10:10:23Z</time>
      </trkpt>
      <trkpt lat="39.6065110" lon="-6.4369700">
        <ele>379.2</ele>
        <time>2021-10-17T10:10:28Z</time>
      </trkpt>
      <trkpt lat="39.6062970" lon="-6.4368980">
        <ele>378.4</ele>
        <time>2021-10-17T10:10:31Z</time>
      </trkpt>
      <trkpt lat="39.6061240" lon="-6.4368420">
        <ele>377.4</ele>
        <time>2021-10-17T10:10:34Z</time>
      </trkpt>
      <trkpt lat="39.6060540" lon="-6.4368190">
        <ele>377.2</ele>
        <time>2021-10-17T10:10:35Z</time>
      </trkpt>
      <trkpt lat="39.6058650" lon="-6.4367500">
        <ele>376.2</ele>
        <time>2021-10-17T10:10:39Z</time>
      </trkpt>
      <trkpt lat="39.6058200" lon="-6.4367330">
        <ele>376.0</ele>
        <time>2021-10-17T10:10:40Z</time>
      </trkpt>
      <trkpt lat="39.6055690" lon="-6.4366440">
        <ele>376.4</ele>
        <time>2021-10-17T10:10:46Z</time>
      </trkpt>
      <trkpt lat="39.6052970" lon="-6.4365450">
        <ele>376.8</ele>
        <time>2021-10-17T10:10:53Z</time>
      </trkpt>
      <trkpt lat="39.6052170" lon="-6.4365170">
        <ele>377.2</ele>
        <time>2021-10-17T10:10:55Z</time>
      </trkpt>
      <trkpt lat="39.6050020" lon="-6.4364470">
        <ele>378.0</ele>
        <time>2021-10-17T10:11:01Z</time>
      </trkpt>
      <trkpt lat="39.6049270" lon="-6.4364270">
        <ele>378.2</ele>
        <time>2021-10-17T10:11:03Z</time>
      </trkpt>
      <trkpt lat="39.6047330" lon="-6.4363580">
        <ele>378.8</ele>
        <time>2021-10-17T10:11:08Z</time>
      </trkpt>
      <trkpt lat="39.6046990" lon="-6.4363460">
        <ele>378.8</ele>
        <time>2021-10-17T10:11:09Z</time>
      </trkpt>
      <trkpt lat="39.6043490" lon="-6.4362220">
        <ele>378.8</ele>
        <time>2021-10-17T10:11:17Z</time>
      </trkpt>
      <trkpt lat="39.6039880" lon="-6.4361000">
        <ele>378.4</ele>
        <time>2021-10-17T10:11:25Z</time>
      </trkpt>
      <trkpt lat="39.6035960" lon="-6.4359580">
        <ele>378.4</ele>
        <time>2021-10-17T10:11:34Z</time>
      </trkpt>
      <trkpt lat="39.6031480" lon="-6.4357990">
        <ele>378.0</ele>
        <time>2021-10-17T10:11:43Z</time>
      </trkpt>
      <trkpt lat="39.6026680" lon="-6.4356280">
        <ele>377.2</ele>
        <time>2021-10-17T10:11:52Z</time>
      </trkpt>
      <trkpt lat="39.6025120" lon="-6.4355770">
        <ele>377.0</ele>
        <time>2021-10-17T10:11:55Z</time>
      </trkpt>
      <trkpt lat="39.6022510" lon="-6.4354930">
        <ele>377.0</ele>
        <time>2021-10-17T10:12:01Z</time>
      </trkpt>
      <trkpt lat="39.6018650" lon="-6.4353600">
        <ele>377.2</ele>
        <time>2021-10-17T10:12:10Z</time>
      </trkpt>
      <trkpt lat="39.6014850" lon="-6.4352230">
        <ele>377.6</ele>
        <time>2021-10-17T10:12:19Z</time>
      </trkpt>
      <trkpt lat="39.6012230" lon="-6.4351250">
        <ele>377.6</ele>
        <time>2021-10-17T10:12:25Z</time>
      </trkpt>
      <trkpt lat="39.6011410" lon="-6.4350720">
        <ele>377.4</ele>
        <time>2021-10-17T10:12:27Z</time>
      </trkpt>
      <trkpt lat="39.6009830" lon="-6.4349560">
        <ele>377.4</ele>
        <time>2021-10-17T10:12:31Z</time>
      </trkpt>
      <trkpt lat="39.6008590" lon="-6.4348760">
        <ele>377.6</ele>
        <time>2021-10-17T10:12:34Z</time>
      </trkpt>
      <trkpt lat="39.6007780" lon="-6.4348300">
        <ele>377.6</ele>
        <time>2021-10-17T10:12:36Z</time>
      </trkpt>
      <trkpt lat="39.6005760" lon="-6.4347560">
        <ele>377.8</ele>
        <time>2021-10-17T10:12:41Z</time>
      </trkpt>
      <trkpt lat="39.6004300" lon="-6.4346960">
        <ele>378.2</ele>
        <time>2021-10-17T10:12:45Z</time>
      </trkpt>
      <trkpt lat="39.6002360" lon="-6.4346110">
        <ele>378.6</ele>
        <time>2021-10-17T10:12:50Z</time>
      </trkpt>
      <trkpt lat="39.5999210" lon="-6.4345390">
        <ele>379.2</ele>
        <time>2021-10-17T10:12:58Z</time>
      </trkpt>
      <trkpt lat="39.5995790" lon="-6.4345520">
        <ele>379.6</ele>
        <time>2021-10-17T10:13:07Z</time>
      </trkpt>
      <trkpt lat="39.5993790" lon="-6.4345610">
        <ele>380.2</ele>
        <time>2021-10-17T10:13:12Z</time>
      </trkpt>
      <trkpt lat="39.5992060" lon="-6.4345710">
        <ele>380.4</ele>
        <time>2021-10-17T10:13:16Z</time>
      </trkpt>
      <trkpt lat="39.5991030" lon="-6.4345770">
        <ele>380.4</ele>
        <time>2021-10-17T10:13:18Z</time>
      </trkpt>
      <trkpt lat="39.5988960" lon="-6.4345890">
        <ele>380.2</ele>
        <time>2021-10-17T10:13:22Z</time>
      </trkpt>
      <trkpt lat="39.5987440" lon="-6.4346040">
        <ele>380.0</ele>
        <time>2021-10-17T10:13:25Z</time>
      </trkpt>
      <trkpt lat="39.5984940" lon="-6.4346000">
        <ele>379.4</ele>
        <time>2021-10-17T10:13:30Z</time>
      </trkpt>
      <trkpt lat="39.5984460" lon="-6.4345920">
        <ele>379.2</ele>
        <time>2021-10-17T10:13:31Z</time>
      </trkpt>
      <trkpt lat="39.5983030" lon="-6.4345570">
        <ele>379.2</ele>
        <time>2021-10-17T10:13:34Z</time>
      </trkpt>
      <trkpt lat="39.5979660" lon="-6.4344180">
        <ele>379.6</ele>
        <time>2021-10-17T10:13:42Z</time>
      </trkpt>
      <trkpt lat="39.5976350" lon="-6.4342490">
        <ele>380.2</ele>
        <time>2021-10-17T10:13:50Z</time>
      </trkpt>
      <trkpt lat="39.5972320" lon="-6.4340360">
        <ele>381.2</ele>
        <time>2021-10-17T10:14:01Z</time>
      </trkpt>
      <trkpt lat="39.5971960" lon="-6.4340280">
        <ele>381.4</ele>
        <time>2021-10-17T10:14:02Z</time>
      </trkpt>
      <trkpt lat="39.5969910" lon="-6.4339940">
        <ele>381.8</ele>
        <time>2021-10-17T10:14:08Z</time>
      </trkpt>
      <trkpt lat="39.5969590" lon="-6.4339900">
        <ele>381.8</ele>
        <time>2021-10-17T10:14:09Z</time>
      </trkpt>
      <trkpt lat="39.5967540" lon="-6.4339440">
        <ele>382.0</ele>
        <time>2021-10-17T10:14:15Z</time>
      </trkpt>
      <trkpt lat="39.5966930" lon="-6.4339120">
        <ele>382.0</ele>
        <time>2021-10-17T10:14:17Z</time>
      </trkpt>
      <trkpt lat="39.5964620" lon="-6.4337890">
        <ele>381.8</ele>
        <time>2021-10-17T10:14:24Z</time>
      </trkpt>
      <trkpt lat="39.5962570" lon="-6.4337370">
        <ele>381.8</ele>
        <time>2021-10-17T10:14:29Z</time>
      </trkpt>
      <trkpt lat="39.5962120" lon="-6.4337320">
        <ele>381.8</ele>
        <time>2021-10-17T10:14:30Z</time>
      </trkpt>
      <trkpt lat="39.5961650" lon="-6.4337310">
        <ele>381.8</ele>
        <time>2021-10-17T10:14:31Z</time>
      </trkpt>
      <trkpt lat="39.5959680" lon="-6.4337450">
        <ele>381.6</ele>
        <time>2021-10-17T10:14:35Z</time>
      </trkpt>
      <trkpt lat="39.5957670" lon="-6.4337400">
        <ele>381.2</ele>
        <time>2021-10-17T10:14:39Z</time>
      </trkpt>
      <trkpt lat="39.5955220" lon="-6.4337280">
        <ele>380.4</ele>
        <time>2021-10-17T10:14:44Z</time>
      </trkpt>
      <trkpt lat="39.5954770" lon="-6.4337240">
        <ele>380.4</ele>
        <time>2021-10-17T10:14:45Z</time>
      </trkpt>
      <trkpt lat="39.5952620" lon="-6.4336960">
        <ele>380.0</ele>
        <time>2021-10-17T10:14:50Z</time>
      </trkpt>
      <trkpt lat="39.5952180" lon="-6.4336870">
        <ele>380.0</ele>
        <time>2021-10-17T10:14:51Z</time>
      </trkpt>
      <trkpt lat="39.5951290" lon="-6.4336600">
        <ele>379.8</ele>
        <time>2021-10-17T10:14:53Z</time>
      </trkpt>
      <trkpt lat="39.5950020" lon="-6.4335890">
        <ele>379.8</ele>
        <time>2021-10-17T10:14:56Z</time>
      </trkpt>
      <trkpt lat="39.5949600" lon="-6.4335600">
        <ele>379.8</ele>
        <time>2021-10-17T10:14:57Z</time>
      </trkpt>
      <trkpt lat="39.5946200" lon="-6.4332930">
        <ele>379.4</ele>
        <time>2021-10-17T10:15:06Z</time>
      </trkpt>
      <trkpt lat="39.5942700" lon="-6.4330260">
        <ele>379.6</ele>
        <time>2021-10-17T10:15:15Z</time>
      </trkpt>
      <trkpt lat="39.5942280" lon="-6.4330110">
        <ele>379.6</ele>
        <time>2021-10-17T10:15:16Z</time>
      </trkpt>
      <trkpt lat="39.5941430" lon="-6.4329920">
        <ele>379.2</ele>
        <time>2021-10-17T10:15:18Z</time>
      </trkpt>
      <trkpt lat="39.5939700" lon="-6.4329610">
        <ele>378.8</ele>
        <time>2021-10-17T10:15:22Z</time>
      </trkpt>
      <trkpt lat="39.5937870" lon="-6.4329330">
        <ele>378.4</ele>
        <time>2021-10-17T10:15:26Z</time>
      </trkpt>
      <trkpt lat="39.5934070" lon="-6.4328750">
        <ele>378.4</ele>
        <time>2021-10-17T10:15:34Z</time>
      </trkpt>
      <trkpt lat="39.5930780" lon="-6.4328030">
        <ele>378.8</ele>
        <time>2021-10-17T10:15:42Z</time>
      </trkpt>
      <trkpt lat="39.5930010" lon="-6.4327870">
        <ele>379.0</ele>
        <time>2021-10-17T10:15:44Z</time>
      </trkpt>
      <trkpt lat="39.5928390" lon="-6.4327090">
        <ele>379.2</ele>
        <time>2021-10-17T10:15:48Z</time>
      </trkpt>
      <trkpt lat="39.5925390" lon="-6.4324850">
        <ele>379.6</ele>
        <time>2021-10-17T10:15:55Z</time>
      </trkpt>
      <trkpt lat="39.5924180" lon="-6.4323860">
        <ele>379.2</ele>
        <time>2021-10-17T10:15:58Z</time>
      </trkpt>
      <trkpt lat="39.5922080" lon="-6.4322690">
        <ele>378.8</ele>
        <time>2021-10-17T10:16:03Z</time>
      </trkpt>
      <trkpt lat="39.5920810" lon="-6.4322150">
        <ele>378.6</ele>
        <time>2021-10-17T10:16:06Z</time>
      </trkpt>
      <trkpt lat="39.5920150" lon="-6.4321750">
        <ele>378.8</ele>
        <time>2021-10-17T10:16:08Z</time>
      </trkpt>
      <trkpt lat="39.5919810" lon="-6.4321440">
        <ele>378.8</ele>
        <time>2021-10-17T10:16:09Z</time>
      </trkpt>
      <trkpt lat="39.5919430" lon="-6.4321110">
        <ele>378.8</ele>
        <time>2021-10-17T10:16:10Z</time>
      </trkpt>
      <trkpt lat="39.5917600" lon="-6.4319720">
        <ele>379.0</ele>
        <time>2021-10-17T10:16:14Z</time>
      </trkpt>
      <trkpt lat="39.5914700" lon="-6.4316790">
        <ele>378.2</ele>
        <time>2021-10-17T10:16:20Z</time>
      </trkpt>
      <trkpt lat="39.5913750" lon="-6.4316150">
        <ele>377.6</ele>
        <time>2021-10-17T10:16:22Z</time>
      </trkpt>
      <trkpt lat="39.5912830" lon="-6.4315800">
        <ele>377.2</ele>
        <time>2021-10-17T10:16:24Z</time>
      </trkpt>
      <trkpt lat="39.5912350" lon="-6.4315670">
        <ele>377.2</ele>
        <time>2021-10-17T10:16:25Z</time>
      </trkpt>
      <trkpt lat="39.5911030" lon="-6.4315460">
        <ele>377.0</ele>
        <time>2021-10-17T10:16:29Z</time>
      </trkpt>
      <trkpt lat="39.5909710" lon="-6.4315180">
        <ele>377.2</ele>
        <time>2021-10-17T10:16:35Z</time>
      </trkpt>
      <trkpt lat="39.5909630" lon="-6.4315170">
        <ele>377.2</ele>
        <time>2021-10-17T10:16:36Z</time>
      </trkpt>
      <trkpt lat="39.5909610" lon="-6.4315140">
        <ele>377.6</ele>
        <time>2021-10-17T10:16:39Z</time>
      </trkpt>
      <trkpt lat="39.5909000" lon="-6.4315170">
        <ele>377.4</ele>
        <time>2021-10-17T10:19:47Z</time>
      </trkpt>
      <trkpt lat="39.5908440" lon="-6.4315100">
        <ele>377.2</ele>
        <time>2021-10-17T10:19:49Z</time>
      </trkpt>
      <trkpt lat="39.5907390" lon="-6.4315050">
        <ele>377.2</ele>
        <time>2021-10-17T10:19:52Z</time>
      </trkpt>
      <trkpt lat="39.5906520" lon="-6.4314940">
        <ele>377.2</ele>
        <time>2021-10-17T10:19:54Z</time>
      </trkpt>
      <trkpt lat="39.5903170" lon="-6.4314540">
        <ele>377.0</ele>
        <time>2021-10-17T10:20:01Z</time>
      </trkpt>
      <trkpt lat="39.5900420" lon="-6.4314050">
        <ele>377.2</ele>
        <time>2021-10-17T10:20:08Z</time>
      </trkpt>
      <trkpt lat="39.5898980" lon="-6.4313860">
        <ele>377.8</ele>
        <time>2021-10-17T10:20:12Z</time>
      </trkpt>
      <trkpt lat="39.5897840" lon="-6.4313720">
        <ele>378.2</ele>
        <time>2021-10-17T10:20:15Z</time>
      </trkpt>
      <trkpt lat="39.5897420" lon="-6.4313630">
        <ele>378.2</ele>
        <time>2021-10-17T10:20:16Z</time>
      </trkpt>
      <trkpt lat="39.5896130" lon="-6.4313420">
        <ele>378.6</ele>
        <time>2021-10-17T10:20:19Z</time>
      </trkpt>
      <trkpt lat="39.5895700" lon="-6.4313400">
        <ele>378.6</ele>
        <time>2021-10-17T10:20:20Z</time>
      </trkpt>
      <trkpt lat="39.5895260" lon="-6.4313410">
        <ele>378.6</ele>
        <time>2021-10-17T10:20:21Z</time>
      </trkpt>
      <trkpt lat="39.5893990" lon="-6.4313390">
        <ele>378.6</ele>
        <time>2021-10-17T10:20:24Z</time>
      </trkpt>
      <trkpt lat="39.5892820" lon="-6.4313230">
        <ele>378.8</ele>
        <time>2021-10-17T10:20:27Z</time>
      </trkpt>
      <trkpt lat="39.5892440" lon="-6.4313170">
        <ele>379.0</ele>
        <time>2021-10-17T10:20:28Z</time>
      </trkpt>
      <trkpt lat="39.5889410" lon="-6.4312820">
        <ele>379.2</ele>
        <time>2021-10-17T10:20:36Z</time>
      </trkpt>
      <trkpt lat="39.5885940" lon="-6.4312050">
        <ele>379.8</ele>
        <time>2021-10-17T10:20:45Z</time>
      </trkpt>
      <trkpt lat="39.5883170" lon="-6.4311540">
        <ele>380.0</ele>
        <time>2021-10-17T10:20:51Z</time>
      </trkpt>
      <trkpt lat="39.5880230" lon="-6.4310820">
        <ele>380.0</ele>
        <time>2021-10-17T10:20:58Z</time>
      </trkpt>
      <trkpt lat="39.5879810" lon="-6.4310780">
        <ele>380.0</ele>
        <time>2021-10-17T10:20:59Z</time>
      </trkpt>
      <trkpt lat="39.5878100" lon="-6.4310570">
        <ele>380.2</ele>
        <time>2021-10-17T10:21:03Z</time>
      </trkpt>
      <trkpt lat="39.5874650" lon="-6.4310020">
        <ele>380.4</ele>
        <time>2021-10-17T10:21:12Z</time>
      </trkpt>
      <trkpt lat="39.5873080" lon="-6.4309710">
        <ele>380.8</ele>
        <time>2021-10-17T10:21:17Z</time>
      </trkpt>
      <trkpt lat="39.5872780" lon="-6.4309670">
        <ele>381.0</ele>
        <time>2021-10-17T10:21:18Z</time>
      </trkpt>
      <trkpt lat="39.5872490" lon="-6.4309610">
        <ele>381.2</ele>
        <time>2021-10-17T10:21:19Z</time>
      </trkpt>
      <trkpt lat="39.5870810" lon="-6.4309270">
        <ele>381.8</ele>
        <time>2021-10-17T10:21:25Z</time>
      </trkpt>
      <trkpt lat="39.5870530" lon="-6.4309230">
        <ele>382.0</ele>
        <time>2021-10-17T10:21:26Z</time>
      </trkpt>
      <trkpt lat="39.5868240" lon="-6.4308840">
        <ele>383.2</ele>
        <time>2021-10-17T10:21:34Z</time>
      </trkpt>
      <trkpt lat="39.5867360" lon="-6.4308690">
        <ele>383.4</ele>
        <time>2021-10-17T10:21:37Z</time>
      </trkpt>
      <trkpt lat="39.5865360" lon="-6.4308400">
        <ele>383.8</ele>
        <time>2021-10-17T10:21:43Z</time>
      </trkpt>
      <trkpt lat="39.5865000" lon="-6.4308340">
        <ele>383.8</ele>
        <time>2021-10-17T10:21:44Z</time>
      </trkpt>
      <trkpt lat="39.5864620" lon="-6.4308310">
        <ele>383.8</ele>
        <time>2021-10-17T10:21:45Z</time>
      </trkpt>
      <trkpt lat="39.5863890" lon="-6.4308270">
        <ele>384.0</ele>
        <time>2021-10-17T10:21:47Z</time>
      </trkpt>
      <trkpt lat="39.5861870" lon="-6.4307950">
        <ele>384.0</ele>
        <time>2021-10-17T10:21:53Z</time>
      </trkpt>
      <trkpt lat="39.5861260" lon="-6.4307860">
        <ele>384.2</ele>
        <time>2021-10-17T10:21:55Z</time>
      </trkpt>
      <trkpt lat="39.5859830" lon="-6.4307640">
        <ele>384.4</ele>
        <time>2021-10-17T10:22:00Z</time>
      </trkpt>
      <trkpt lat="39.5857710" lon="-6.4307390">
        <ele>385.2</ele>
        <time>2021-10-17T10:22:07Z</time>
      </trkpt>
      <trkpt lat="39.5857070" lon="-6.4307320">
        <ele>385.4</ele>
        <time>2021-10-17T10:22:09Z</time>
      </trkpt>
      <trkpt lat="39.5856750" lon="-6.4307250">
        <ele>385.6</ele>
        <time>2021-10-17T10:22:10Z</time>
      </trkpt>
      <trkpt lat="39.5855710" lon="-6.4307020">
        <ele>385.8</ele>
        <time>2021-10-17T10:22:13Z</time>
      </trkpt>
      <trkpt lat="39.5855360" lon="-6.4306980">
        <ele>385.8</ele>
        <time>2021-10-17T10:22:14Z</time>
      </trkpt>
      <trkpt lat="39.5854940" lon="-6.4306920">
        <ele>386.0</ele>
        <time>2021-10-17T10:22:15Z</time>
      </trkpt>
      <trkpt lat="39.5852610" lon="-6.4306820">
        <ele>386.0</ele>
        <time>2021-10-17T10:22:22Z</time>
      </trkpt>
      <trkpt lat="39.5852370" lon="-6.4306750">
        <ele>386.2</ele>
        <time>2021-10-17T10:22:23Z</time>
      </trkpt>
      <trkpt lat="39.5849740" lon="-6.4306330">
        <ele>386.6</ele>
        <time>2021-10-17T10:22:31Z</time>
      </trkpt>
      <trkpt lat="39.5848290" lon="-6.4306050">
        <ele>386.8</ele>
        <time>2021-10-17T10:22:36Z</time>
      </trkpt>
      <trkpt lat="39.5847670" lon="-6.4305900">
        <ele>386.8</ele>
        <time>2021-10-17T10:22:38Z</time>
      </trkpt>
      <trkpt lat="39.5846750" lon="-6.4305790">
        <ele>387.2</ele>
        <time>2021-10-17T10:22:41Z</time>
      </trkpt>
      <trkpt lat="39.5844870" lon="-6.4305540">
        <ele>387.6</ele>
        <time>2021-10-17T10:22:47Z</time>
      </trkpt>
      <trkpt lat="39.5843270" lon="-6.4305350">
        <ele>387.8</ele>
        <time>2021-10-17T10:22:52Z</time>
      </trkpt>
      <trkpt lat="39.5842270" lon="-6.4305180">
        <ele>388.2</ele>
        <time>2021-10-17T10:22:55Z</time>
      </trkpt>
      <trkpt lat="39.5841940" lon="-6.4305110">
        <ele>388.2</ele>
        <time>2021-10-17T10:22:56Z</time>
      </trkpt>
      <trkpt lat="39.5840960" lon="-6.4304990">
        <ele>388.4</ele>
        <time>2021-10-17T10:22:59Z</time>
      </trkpt>
      <trkpt lat="39.5839650" lon="-6.4304800">
        <ele>388.4</ele>
        <time>2021-10-17T10:23:03Z</time>
      </trkpt>
      <trkpt lat="39.5839410" lon="-6.4304770">
        <ele>388.4</ele>
        <time>2021-10-17T10:23:04Z</time>
      </trkpt>
      <trkpt lat="39.5836920" lon="-6.4304290">
        <ele>388.6</ele>
        <time>2021-10-17T10:23:12Z</time>
      </trkpt>
      <trkpt lat="39.5836540" lon="-6.4304260">
        <ele>388.6</ele>
        <time>2021-10-17T10:23:13Z</time>
      </trkpt>
      <trkpt lat="39.5833870" lon="-6.4303790">
        <ele>389.0</ele>
        <time>2021-10-17T10:23:22Z</time>
      </trkpt>
      <trkpt lat="39.5833410" lon="-6.4303670">
        <ele>389.0</ele>
        <time>2021-10-17T10:23:24Z</time>
      </trkpt>
      <trkpt lat="39.5832910" lon="-6.4303500">
        <ele>389.0</ele>
        <time>2021-10-17T10:23:28Z</time>
      </trkpt>
      <trkpt lat="39.5832540" lon="-6.4303410">
        <ele>388.4</ele>
        <time>2021-10-17T10:24:19Z</time>
      </trkpt>
      <trkpt lat="39.5832290" lon="-6.4303380">
        <ele>388.4</ele>
        <time>2021-10-17T10:24:20Z</time>
      </trkpt>
      <trkpt lat="39.5832090" lon="-6.4303300">
        <ele>388.4</ele>
        <time>2021-10-17T10:24:21Z</time>
      </trkpt>
      <trkpt lat="39.5830070" lon="-6.4302900">
        <ele>388.0</ele>
        <time>2021-10-17T10:24:27Z</time>
      </trkpt>
      <trkpt lat="39.5828690" lon="-6.4302710">
        <ele>387.4</ele>
        <time>2021-10-17T10:24:30Z</time>
      </trkpt>
      <trkpt lat="39.5827020" lon="-6.4302500">
        <ele>387.0</ele>
        <time>2021-10-17T10:24:33Z</time>
      </trkpt>
      <trkpt lat="39.5825450" lon="-6.4302100">
        <ele>386.8</ele>
        <time>2021-10-17T10:24:36Z</time>
      </trkpt>
      <trkpt lat="39.5824990" lon="-6.4301880">
        <ele>386.8</ele>
        <time>2021-10-17T10:24:37Z</time>
      </trkpt>
      <trkpt lat="39.5824530" lon="-6.4301740">
        <ele>386.6</ele>
        <time>2021-10-17T10:24:38Z</time>
      </trkpt>
      <trkpt lat="39.5823540" lon="-6.4301600">
        <ele>386.0</ele>
        <time>2021-10-17T10:24:40Z</time>
      </trkpt>
      <trkpt lat="39.5821950" lon="-6.4301350">
        <ele>385.0</ele>
        <time>2021-10-17T10:24:43Z</time>
      </trkpt>
      <trkpt lat="39.5821520" lon="-6.4301280">
        <ele>384.8</ele>
        <time>2021-10-17T10:24:44Z</time>
      </trkpt>
      <trkpt lat="39.5817570" lon="-6.4300590">
        <ele>383.8</ele>
        <time>2021-10-17T10:24:51Z</time>
      </trkpt>
      <trkpt lat="39.5816580" lon="-6.4300470">
        <ele>383.2</ele>
        <time>2021-10-17T10:24:53Z</time>
      </trkpt>
      <trkpt lat="39.5813530" lon="-6.4300020">
        <ele>382.8</ele>
        <time>2021-10-17T10:25:00Z</time>
      </trkpt>
      <trkpt lat="39.5812850" lon="-6.4299930">
        <ele>382.8</ele>
        <time>2021-10-17T10:25:02Z</time>
      </trkpt>
      <trkpt lat="39.5811400" lon="-6.4299740">
        <ele>382.8</ele>
        <time>2021-10-17T10:25:06Z</time>
      </trkpt>
      <trkpt lat="39.5808820" lon="-6.4299290">
        <ele>383.2</ele>
        <time>2021-10-17T10:25:13Z</time>
      </trkpt>
      <trkpt lat="39.5806350" lon="-6.4299240">
        <ele>383.4</ele>
        <time>2021-10-17T10:25:19Z</time>
      </trkpt>
      <trkpt lat="39.5805900" lon="-6.4299280">
        <ele>383.4</ele>
        <time>2021-10-17T10:25:20Z</time>
      </trkpt>
      <trkpt lat="39.5803920" lon="-6.4298990">
        <ele>383.4</ele>
        <time>2021-10-17T10:25:24Z</time>
      </trkpt>
      <trkpt lat="39.5801450" lon="-6.4298590">
        <ele>383.0</ele>
        <time>2021-10-17T10:25:29Z</time>
      </trkpt>
      <trkpt lat="39.5800440" lon="-6.4298360">
        <ele>382.6</ele>
        <time>2021-10-17T10:25:31Z</time>
      </trkpt>
      <trkpt lat="39.5796500" lon="-6.4297430">
        <ele>382.6</ele>
        <time>2021-10-17T10:25:40Z</time>
      </trkpt>
      <trkpt lat="39.5793910" lon="-6.4297120">
        <ele>383.4</ele>
        <time>2021-10-17T10:25:47Z</time>
      </trkpt>
      <trkpt lat="39.5792810" lon="-6.4297000">
        <ele>383.8</ele>
        <time>2021-10-17T10:25:50Z</time>
      </trkpt>
      <trkpt lat="39.5790090" lon="-6.4296550">
        <ele>384.4</ele>
        <time>2021-10-17T10:25:57Z</time>
      </trkpt>
      <trkpt lat="39.5788350" lon="-6.4296270">
        <ele>384.2</ele>
        <time>2021-10-17T10:26:01Z</time>
      </trkpt>
      <trkpt lat="39.5787870" lon="-6.4296160">
        <ele>384.0</ele>
        <time>2021-10-17T10:26:02Z</time>
      </trkpt>
      <trkpt lat="39.5786870" lon="-6.4295960">
        <ele>384.0</ele>
        <time>2021-10-17T10:26:04Z</time>
      </trkpt>
      <trkpt lat="39.5785700" lon="-6.4295770">
        <ele>384.0</ele>
        <time>2021-10-17T10:26:06Z</time>
      </trkpt>
      <trkpt lat="39.5784250" lon="-6.4295620">
        <ele>383.4</ele>
        <time>2021-10-17T10:26:09Z</time>
      </trkpt>
      <trkpt lat="39.5783240" lon="-6.4295440">
        <ele>382.8</ele>
        <time>2021-10-17T10:26:11Z</time>
      </trkpt>
      <trkpt lat="39.5780350" lon="-6.4295010">
        <ele>382.4</ele>
        <time>2021-10-17T10:26:17Z</time>
      </trkpt>
      <trkpt lat="39.5778160" lon="-6.4294590">
        <ele>382.0</ele>
        <time>2021-10-17T10:26:22Z</time>
      </trkpt>
      <trkpt lat="39.5777730" lon="-6.4294430">
        <ele>382.0</ele>
        <time>2021-10-17T10:26:23Z</time>
      </trkpt>
      <trkpt lat="39.5776850" lon="-6.4294010">
        <ele>381.8</ele>
        <time>2021-10-17T10:26:25Z</time>
      </trkpt>
      <trkpt lat="39.5775870" lon="-6.4293790">
        <ele>381.6</ele>
        <time>2021-10-17T10:26:27Z</time>
      </trkpt>
      <trkpt lat="39.5775360" lon="-6.4293710">
        <ele>381.4</ele>
        <time>2021-10-17T10:26:28Z</time>
      </trkpt>
      <trkpt lat="39.5771430" lon="-6.4292990">
        <ele>381.0</ele>
        <time>2021-10-17T10:26:36Z</time>
      </trkpt>
      <trkpt lat="39.5770440" lon="-6.4292800">
        <ele>380.8</ele>
        <time>2021-10-17T10:26:38Z</time>
      </trkpt>
      <trkpt lat="39.5768730" lon="-6.4292560">
        <ele>380.8</ele>
        <time>2021-10-17T10:26:42Z</time>
      </trkpt>
      <trkpt lat="39.5765510" lon="-6.4291980">
        <ele>380.8</ele>
        <time>2021-10-17T10:26:49Z</time>
      </trkpt>
      <trkpt lat="39.5761110" lon="-6.4291190">
        <ele>380.6</ele>
        <time>2021-10-17T10:26:59Z</time>
      </trkpt>
      <trkpt lat="39.5758680" lon="-6.4290840">
        <ele>380.8</ele>
        <time>2021-10-17T10:27:06Z</time>
      </trkpt>
      <trkpt lat="39.5755610" lon="-6.4290470">
        <ele>382.0</ele>
        <time>2021-10-17T10:27:15Z</time>
      </trkpt>
      <trkpt lat="39.5752880" lon="-6.4290110">
        <ele>382.6</ele>
        <time>2021-10-17T10:27:23Z</time>
      </trkpt>
      <trkpt lat="39.5752570" lon="-6.4290080">
        <ele>382.6</ele>
        <time>2021-10-17T10:27:24Z</time>
      </trkpt>
      <trkpt lat="39.5751580" lon="-6.4290010">
        <ele>382.6</ele>
        <time>2021-10-17T10:27:28Z</time>
      </trkpt>
      <trkpt lat="39.5751120" lon="-6.4290070">
        <ele>382.6</ele>
        <time>2021-10-17T10:27:30Z</time>
      </trkpt>
      <trkpt lat="39.5750040" lon="-6.4290190">
        <ele>381.8</ele>
        <time>2021-10-17T10:27:36Z</time>
      </trkpt>
      <trkpt lat="39.5750040" lon="-6.4290190">
        <ele>381.6</ele>
        <time>2021-10-17T10:27:37Z</time>
      </trkpt>
      <trkpt lat="39.5749830" lon="-6.4290120">
        <ele>380.6</ele>
        <time>2021-10-17T10:28:01Z</time>
      </trkpt>
      <trkpt lat="39.5749610" lon="-6.4290010">
        <ele>380.6</ele>
        <time>2021-10-17T10:28:02Z</time>
      </trkpt>
      <trkpt lat="39.5749380" lon="-6.4289900">
        <ele>380.6</ele>
        <time>2021-10-17T10:28:03Z</time>
      </trkpt>
      <trkpt lat="39.5747730" lon="-6.4289360">
        <ele>380.6</ele>
        <time>2021-10-17T10:28:08Z</time>
      </trkpt>
      <trkpt lat="39.5746980" lon="-6.4288800">
        <ele>380.4</ele>
        <time>2021-10-17T10:28:10Z</time>
      </trkpt>
      <trkpt lat="39.5746280" lon="-6.4287890">
        <ele>380.2</ele>
        <time>2021-10-17T10:28:12Z</time>
      </trkpt>
      <trkpt lat="39.5745940" lon="-6.4287300">
        <ele>380.0</ele>
        <time>2021-10-17T10:28:13Z</time>
      </trkpt>
      <trkpt lat="39.5745620" lon="-6.4286600">
        <ele>379.8</ele>
        <time>2021-10-17T10:28:14Z</time>
      </trkpt>
      <trkpt lat="39.5745330" lon="-6.4285820">
        <ele>379.6</ele>
        <time>2021-10-17T10:28:15Z</time>
      </trkpt>
      <trkpt lat="39.5744670" lon="-6.4283970">
        <ele>379.0</ele>
        <time>2021-10-17T10:28:17Z</time>
      </trkpt>
      <trkpt lat="39.5744010" lon="-6.4281880">
        <ele>378.4</ele>
        <time>2021-10-17T10:28:19Z</time>
      </trkpt>
      <trkpt lat="39.5743300" lon="-6.4279690">
        <ele>377.4</ele>
        <time>2021-10-17T10:28:21Z</time>
      </trkpt>
      <trkpt lat="39.5742860" lon="-6.4278610">
        <ele>376.8</ele>
        <time>2021-10-17T10:28:22Z</time>
      </trkpt>
      <trkpt lat="39.5742400" lon="-6.4277560">
        <ele>375.8</ele>
        <time>2021-10-17T10:28:23Z</time>
      </trkpt>
      <trkpt lat="39.5741450" lon="-6.4275580">
        <ele>374.4</ele>
        <time>2021-10-17T10:28:25Z</time>
      </trkpt>
      <trkpt lat="39.5740500" lon="-6.4273710">
        <ele>373.2</ele>
        <time>2021-10-17T10:28:27Z</time>
      </trkpt>
      <trkpt lat="39.5740030" lon="-6.4272850">
        <ele>372.0</ele>
        <time>2021-10-17T10:28:28Z</time>
      </trkpt>
      <trkpt lat="39.5739600" lon="-6.4272030">
        <ele>371.8</ele>
        <time>2021-10-17T10:28:29Z</time>
      </trkpt>
      <trkpt lat="39.5738540" lon="-6.4269980">
        <ele>371.0</ele>
        <time>2021-10-17T10:28:32Z</time>
      </trkpt>
      <trkpt lat="39.5738230" lon="-6.4269480">
        <ele>371.0</ele>
        <time>2021-10-17T10:28:33Z</time>
      </trkpt>
      <trkpt lat="39.5737930" lon="-6.4268970">
        <ele>371.0</ele>
        <time>2021-10-17T10:28:34Z</time>
      </trkpt>
      <trkpt lat="39.5736590" lon="-6.4266680">
        <ele>371.8</ele>
        <time>2021-10-17T10:28:39Z</time>
      </trkpt>
      <trkpt lat="39.5736130" lon="-6.4265970">
        <ele>372.2</ele>
        <time>2021-10-17T10:28:41Z</time>
      </trkpt>
      <trkpt lat="39.5734800" lon="-6.4263850">
        <ele>372.8</ele>
        <time>2021-10-17T10:28:46Z</time>
      </trkpt>
      <trkpt lat="39.5733260" lon="-6.4261600">
        <ele>372.6</ele>
        <time>2021-10-17T10:28:50Z</time>
      </trkpt>
      <trkpt lat="39.5732790" lon="-6.4260950">
        <ele>372.6</ele>
        <time>2021-10-17T10:28:51Z</time>
      </trkpt>
      <trkpt lat="39.5730770" lon="-6.4258180">
        <ele>371.2</ele>
        <time>2021-10-17T10:28:55Z</time>
      </trkpt>
      <trkpt lat="39.5729680" lon="-6.4256690">
        <ele>370.0</ele>
        <time>2021-10-17T10:28:57Z</time>
      </trkpt>
      <trkpt lat="39.5728520" lon="-6.4255050">
        <ele>369.4</ele>
        <time>2021-10-17T10:28:59Z</time>
      </trkpt>
      <trkpt lat="39.5727950" lon="-6.4254200">
        <ele>369.0</ele>
        <time>2021-10-17T10:29:00Z</time>
      </trkpt>
      <trkpt lat="39.5726100" lon="-6.4251520">
        <ele>367.0</ele>
        <time>2021-10-17T10:29:03Z</time>
      </trkpt>
      <trkpt lat="39.5724870" lon="-6.4249550">
        <ele>365.8</ele>
        <time>2021-10-17T10:29:05Z</time>
      </trkpt>
      <trkpt lat="39.5723730" lon="-6.4247510">
        <ele>364.2</ele>
        <time>2021-10-17T10:29:07Z</time>
      </trkpt>
      <trkpt lat="39.5722640" lon="-6.4245470">
        <ele>363.2</ele>
        <time>2021-10-17T10:29:09Z</time>
      </trkpt>
      <trkpt lat="39.5721630" lon="-6.4243400">
        <ele>362.0</ele>
        <time>2021-10-17T10:29:11Z</time>
      </trkpt>
      <trkpt lat="39.5720680" lon="-6.4241390">
        <ele>361.0</ele>
        <time>2021-10-17T10:29:13Z</time>
      </trkpt>
      <trkpt lat="39.5719100" lon="-6.4238580">
        <ele>359.6</ele>
        <time>2021-10-17T10:29:16Z</time>
      </trkpt>
      <trkpt lat="39.5716800" lon="-6.4235300">
        <ele>358.6</ele>
        <time>2021-10-17T10:29:20Z</time>
      </trkpt>
      <trkpt lat="39.5715670" lon="-6.4233740">
        <ele>357.6</ele>
        <time>2021-10-17T10:29:22Z</time>
      </trkpt>
      <trkpt lat="39.5715130" lon="-6.4232970">
        <ele>356.8</ele>
        <time>2021-10-17T10:29:23Z</time>
      </trkpt>
      <trkpt lat="39.5714590" lon="-6.4232170">
        <ele>356.6</ele>
        <time>2021-10-17T10:29:24Z</time>
      </trkpt>
      <trkpt lat="39.5712080" lon="-6.4228430">
        <ele>355.4</ele>
        <time>2021-10-17T10:29:29Z</time>
      </trkpt>
      <trkpt lat="39.5711710" lon="-6.4227700">
        <ele>354.8</ele>
        <time>2021-10-17T10:29:30Z</time>
      </trkpt>
      <trkpt lat="39.5711080" lon="-6.4226410">
        <ele>354.2</ele>
        <time>2021-10-17T10:29:32Z</time>
      </trkpt>
      <trkpt lat="39.5710240" lon="-6.4224670">
        <ele>353.8</ele>
        <time>2021-10-17T10:29:35Z</time>
      </trkpt>
      <trkpt lat="39.5708600" lon="-6.4221770">
        <ele>353.0</ele>
        <time>2021-10-17T10:29:41Z</time>
      </trkpt>
      <trkpt lat="39.5707770" lon="-6.4220420">
        <ele>352.6</ele>
        <time>2021-10-17T10:29:44Z</time>
      </trkpt>
      <trkpt lat="39.5706630" lon="-6.4219080">
        <ele>352.2</ele>
        <time>2021-10-17T10:29:47Z</time>
      </trkpt>
      <trkpt lat="39.5705800" lon="-6.4218120">
        <ele>351.6</ele>
        <time>2021-10-17T10:29:49Z</time>
      </trkpt>
      <trkpt lat="39.5703940" lon="-6.4215930">
        <ele>351.0</ele>
        <time>2021-10-17T10:29:53Z</time>
      </trkpt>
      <trkpt lat="39.5702930" lon="-6.4214800">
        <ele>350.6</ele>
        <time>2021-10-17T10:29:55Z</time>
      </trkpt>
      <trkpt lat="39.5701400" lon="-6.4213090">
        <ele>349.6</ele>
        <time>2021-10-17T10:29:58Z</time>
      </trkpt>
      <trkpt lat="39.5700390" lon="-6.4212000">
        <ele>348.8</ele>
        <time>2021-10-17T10:30:00Z</time>
      </trkpt>
      <trkpt lat="39.5699880" lon="-6.4211470">
        <ele>348.4</ele>
        <time>2021-10-17T10:30:01Z</time>
      </trkpt>
      <trkpt lat="39.5697920" lon="-6.4209440">
        <ele>347.8</ele>
        <time>2021-10-17T10:30:05Z</time>
      </trkpt>
      <trkpt lat="39.5697000" lon="-6.4208530">
        <ele>347.2</ele>
        <time>2021-10-17T10:30:07Z</time>
      </trkpt>
      <trkpt lat="39.5696140" lon="-6.4207600">
        <ele>346.8</ele>
        <time>2021-10-17T10:30:09Z</time>
      </trkpt>
      <trkpt lat="39.5694160" lon="-6.4205360">
        <ele>346.2</ele>
        <time>2021-10-17T10:30:15Z</time>
      </trkpt>
      <trkpt lat="39.5693950" lon="-6.4205150">
        <ele>346.2</ele>
        <time>2021-10-17T10:30:16Z</time>
      </trkpt>
      <trkpt lat="39.5693720" lon="-6.4204880">
        <ele>346.0</ele>
        <time>2021-10-17T10:30:19Z</time>
      </trkpt>
      <trkpt lat="39.5693720" lon="-6.4204880">
        <ele>345.8</ele>
        <time>2021-10-17T10:30:20Z</time>
      </trkpt>
      <trkpt lat="39.5693080" lon="-6.4204620">
        <ele>344.6</ele>
        <time>2021-10-17T10:30:53Z</time>
      </trkpt>
      <trkpt lat="39.5692840" lon="-6.4204470">
        <ele>344.6</ele>
        <time>2021-10-17T10:30:54Z</time>
      </trkpt>
      <trkpt lat="39.5692570" lon="-6.4204280">
        <ele>344.6</ele>
        <time>2021-10-17T10:30:55Z</time>
      </trkpt>
      <trkpt lat="39.5690590" lon="-6.4203000">
        <ele>344.4</ele>
        <time>2021-10-17T10:31:01Z</time>
      </trkpt>
      <trkpt lat="39.5690190" lon="-6.4202760">
        <ele>344.2</ele>
        <time>2021-10-17T10:31:02Z</time>
      </trkpt>
      <trkpt lat="39.5688160" lon="-6.4201940">
        <ele>343.6</ele>
        <time>2021-10-17T10:31:06Z</time>
      </trkpt>
      <trkpt lat="39.5685040" lon="-6.4200780">
        <ele>342.2</ele>
        <time>2021-10-17T10:31:11Z</time>
      </trkpt>
      <trkpt lat="39.5681810" lon="-6.4199460">
        <ele>341.0</ele>
        <time>2021-10-17T10:31:16Z</time>
      </trkpt>
      <trkpt lat="39.5680630" lon="-6.4198850">
        <ele>340.4</ele>
        <time>2021-10-17T10:31:18Z</time>
      </trkpt>
      <trkpt lat="39.5679480" lon="-6.4198290">
        <ele>339.8</ele>
        <time>2021-10-17T10:31:20Z</time>
      </trkpt>
      <trkpt lat="39.5676240" lon="-6.4196930">
        <ele>339.2</ele>
        <time>2021-10-17T10:31:26Z</time>
      </trkpt>
      <trkpt lat="39.5675230" lon="-6.4196560">
        <ele>339.2</ele>
        <time>2021-10-17T10:31:28Z</time>
      </trkpt>
      <trkpt lat="39.5673780" lon="-6.4196280">
        <ele>339.2</ele>
        <time>2021-10-17T10:31:31Z</time>
      </trkpt>
      <trkpt lat="39.5672290" lon="-6.4196370">
        <ele>338.8</ele>
        <time>2021-10-17T10:31:34Z</time>
      </trkpt>
      <trkpt lat="39.5671360" lon="-6.4196240">
        <ele>338.6</ele>
        <time>2021-10-17T10:31:36Z</time>
      </trkpt>
      <trkpt lat="39.5670110" lon="-6.4195890">
        <ele>338.6</ele>
        <time>2021-10-17T10:31:39Z</time>
      </trkpt>
      <trkpt lat="39.5668610" lon="-6.4195260">
        <ele>338.2</ele>
        <time>2021-10-17T10:31:43Z</time>
      </trkpt>
      <trkpt lat="39.5666420" lon="-6.4194180">
        <ele>338.2</ele>
        <time>2021-10-17T10:31:50Z</time>
      </trkpt>
      <trkpt lat="39.5664270" lon="-6.4193120">
        <ele>338.4</ele>
        <time>2021-10-17T10:31:57Z</time>
      </trkpt>
      <trkpt lat="39.5661910" lon="-6.4191890">
        <ele>338.4</ele>
        <time>2021-10-17T10:32:05Z</time>
      </trkpt>
      <trkpt lat="39.5660030" lon="-6.4190720">
        <ele>338.4</ele>
        <time>2021-10-17T10:32:12Z</time>
      </trkpt>
      <trkpt lat="39.5658240" lon="-6.4188650">
        <ele>338.4</ele>
        <time>2021-10-17T10:32:20Z</time>
      </trkpt>
      <trkpt lat="39.5656250" lon="-6.4187790">
        <ele>339.2</ele>
        <time>2021-10-17T10:32:27Z</time>
      </trkpt>
      <trkpt lat="39.5654710" lon="-6.4187130">
        <ele>339.8</ele>
        <time>2021-10-17T10:32:33Z</time>
      </trkpt>
      <trkpt lat="39.5654190" lon="-6.4186860">
        <ele>339.8</ele>
        <time>2021-10-17T10:32:35Z</time>
      </trkpt>
      <trkpt lat="39.5653080" lon="-6.4186420">
        <ele>340.0</ele>
        <time>2021-10-17T10:32:39Z</time>
      </trkpt>
      <trkpt lat="39.5652550" lon="-6.4186090">
        <ele>340.2</ele>
        <time>2021-10-17T10:32:41Z</time>
      </trkpt>
      <trkpt lat="39.5650580" lon="-6.4184440">
        <ele>340.2</ele>
        <time>2021-10-17T10:32:49Z</time>
      </trkpt>
      <trkpt lat="39.5649150" lon="-6.4183470">
        <ele>340.4</ele>
        <time>2021-10-17T10:32:54Z</time>
      </trkpt>
      <trkpt lat="39.5647710" lon="-6.4182410">
        <ele>340.6</ele>
        <time>2021-10-17T10:32:59Z</time>
      </trkpt>
      <trkpt lat="39.5646620" lon="-6.4181730">
        <ele>340.6</ele>
        <time>2021-10-17T10:33:03Z</time>
      </trkpt>
      <trkpt lat="39.5645920" lon="-6.4181360">
        <ele>341.0</ele>
        <time>2021-10-17T10:33:06Z</time>
      </trkpt>
      <trkpt lat="39.5645460" lon="-6.4181030">
        <ele>341.0</ele>
        <time>2021-10-17T10:33:08Z</time>
      </trkpt>
      <trkpt lat="39.5643100" lon="-6.4179770">
        <ele>341.8</ele>
        <time>2021-10-17T10:33:17Z</time>
      </trkpt>
      <trkpt lat="39.5642850" lon="-6.4179630">
        <ele>341.8</ele>
        <time>2021-10-17T10:33:18Z</time>
      </trkpt>
      <trkpt lat="39.5642420" lon="-6.4179340">
        <ele>342.0</ele>
        <time>2021-10-17T10:33:20Z</time>
      </trkpt>
      <trkpt lat="39.5641660" lon="-6.4178910">
        <ele>342.2</ele>
        <time>2021-10-17T10:33:24Z</time>
      </trkpt>
      <trkpt lat="39.5640480" lon="-6.4178330">
        <ele>342.6</ele>
        <time>2021-10-17T10:33:30Z</time>
      </trkpt>
      <trkpt lat="39.5640120" lon="-6.4178300">
        <ele>342.8</ele>
        <time>2021-10-17T10:33:32Z</time>
      </trkpt>
      <trkpt lat="39.5639470" lon="-6.4177970">
        <ele>343.0</ele>
        <time>2021-10-17T10:33:35Z</time>
      </trkpt>
      <trkpt lat="39.5638700" lon="-6.4177640">
        <ele>343.4</ele>
        <time>2021-10-17T10:33:39Z</time>
      </trkpt>
      <trkpt lat="39.5637500" lon="-6.4177070">
        <ele>344.2</ele>
        <time>2021-10-17T10:33:44Z</time>
      </trkpt>
      <trkpt lat="39.5637270" lon="-6.4176980">
        <ele>344.2</ele>
        <time>2021-10-17T10:33:45Z</time>
      </trkpt>
      <trkpt lat="39.5635790" lon="-6.4176010">
        <ele>344.8</ele>
        <time>2021-10-17T10:33:51Z</time>
      </trkpt>
      <trkpt lat="39.5635300" lon="-6.4175680">
        <ele>345.0</ele>
        <time>2021-10-17T10:33:53Z</time>
      </trkpt>
      <trkpt lat="39.5634880" lon="-6.4175500">
        <ele>345.2</ele>
        <time>2021-10-17T10:33:55Z</time>
      </trkpt>
      <trkpt lat="39.5634570" lon="-6.4175350">
        <ele>345.4</ele>
        <time>2021-10-17T10:33:57Z</time>
      </trkpt>
      <trkpt lat="39.5634450" lon="-6.4175250">
        <ele>345.6</ele>
        <time>2021-10-17T10:33:59Z</time>
      </trkpt>
      <trkpt lat="39.5634270" lon="-6.4175030">
        <ele>345.8</ele>
        <time>2021-10-17T10:34:00Z</time>
      </trkpt>
      <trkpt lat="39.5634030" lon="-6.4174800">
        <ele>345.8</ele>
        <time>2021-10-17T10:34:01Z</time>
      </trkpt>
      <trkpt lat="39.5633730" lon="-6.4174630">
        <ele>345.8</ele>
        <time>2021-10-17T10:34:02Z</time>
      </trkpt>
      <trkpt lat="39.5633270" lon="-6.4174440">
        <ele>346.0</ele>
        <time>2021-10-17T10:34:04Z</time>
      </trkpt>
      <trkpt lat="39.5633070" lon="-6.4174420">
        <ele>346.0</ele>
        <time>2021-10-17T10:34:05Z</time>
      </trkpt>
      <trkpt lat="39.5632580" lon="-6.4174340">
        <ele>346.4</ele>
        <time>2021-10-17T10:34:08Z</time>
      </trkpt>
      <trkpt lat="39.5632410" lon="-6.4174300">
        <ele>346.4</ele>
        <time>2021-10-17T10:34:09Z</time>
      </trkpt>
      <trkpt lat="39.5631500" lon="-6.4174020">
        <ele>347.0</ele>
        <time>2021-10-17T10:34:13Z</time>
      </trkpt>
      <trkpt lat="39.5630660" lon="-6.4173780">
        <ele>347.6</ele>
        <time>2021-10-17T10:34:17Z</time>
      </trkpt>
      <trkpt lat="39.5630330" lon="-6.4173730">
        <ele>347.8</ele>
        <time>2021-10-17T10:34:19Z</time>
      </trkpt>
      <trkpt lat="39.5630080" lon="-6.4173490">
        <ele>347.8</ele>
        <time>2021-10-17T10:34:21Z</time>
      </trkpt>
      <trkpt lat="39.5629120" lon="-6.4173470">
        <ele>348.2</ele>
        <time>2021-10-17T10:34:26Z</time>
      </trkpt>
      <trkpt lat="39.5628700" lon="-6.4173610">
        <ele>348.4</ele>
        <time>2021-10-17T10:34:28Z</time>
      </trkpt>
      <trkpt lat="39.5628270" lon="-6.4173550">
        <ele>348.4</ele>
        <time>2021-10-17T10:34:30Z</time>
      </trkpt>
      <trkpt lat="39.5626820" lon="-6.4173050">
        <ele>348.6</ele>
        <time>2021-10-17T10:34:36Z</time>
      </trkpt>
      <trkpt lat="39.5626130" lon="-6.4172710">
        <ele>348.8</ele>
        <time>2021-10-17T10:34:39Z</time>
      </trkpt>
      <trkpt lat="39.5625830" lon="-6.4172480">
        <ele>348.8</ele>
        <time>2021-10-17T10:34:41Z</time>
      </trkpt>
      <trkpt lat="39.5625620" lon="-6.4172390">
        <ele>348.8</ele>
        <time>2021-10-17T10:34:42Z</time>
      </trkpt>
      <trkpt lat="39.5624650" lon="-6.4172110">
        <ele>349.0</ele>
        <time>2021-10-17T10:34:46Z</time>
      </trkpt>
      <trkpt lat="39.5623840" lon="-6.4172030">
        <ele>349.4</ele>
        <time>2021-10-17T10:34:51Z</time>
      </trkpt>
      <trkpt lat="39.5623580" lon="-6.4172120">
        <ele>349.4</ele>
        <time>2021-10-17T10:34:52Z</time>
      </trkpt>
      <trkpt lat="39.5622450" lon="-6.4171970">
        <ele>349.6</ele>
        <time>2021-10-17T10:34:56Z</time>
      </trkpt>
      <trkpt lat="39.5621930" lon="-6.4171760">
        <ele>349.6</ele>
        <time>2021-10-17T10:34:58Z</time>
      </trkpt>
      <trkpt lat="39.5620550" lon="-6.4171350">
        <ele>349.8</ele>
        <time>2021-10-17T10:35:03Z</time>
      </trkpt>
      <trkpt lat="39.5620070" lon="-6.4171220">
        <ele>349.8</ele>
        <time>2021-10-17T10:35:05Z</time>
      </trkpt>
      <trkpt lat="39.5618300" lon="-6.4171110">
        <ele>350.2</ele>
        <time>2021-10-17T10:35:13Z</time>
      </trkpt>
      <trkpt lat="39.5617650" lon="-6.4171070">
        <ele>350.4</ele>
        <time>2021-10-17T10:35:16Z</time>
      </trkpt>
      <trkpt lat="39.5616810" lon="-6.4170890">
        <ele>350.4</ele>
        <time>2021-10-17T10:35:20Z</time>
      </trkpt>
      <trkpt lat="39.5616470" lon="-6.4170820">
        <ele>350.6</ele>
        <time>2021-10-17T10:35:25Z</time>
      </trkpt>
      <trkpt lat="39.5616470" lon="-6.4170820">
        <ele>350.6</ele>
        <time>2021-10-17T10:35:26Z</time>
      </trkpt>
      <trkpt lat="39.5604920" lon="-6.4167320">
        <ele>352.0</ele>
        <time>2021-10-17T10:44:09Z</time>
      </trkpt>
      <trkpt lat="39.5604620" lon="-6.4167250">
        <ele>352.2</ele>
        <time>2021-10-17T10:44:12Z</time>
      </trkpt>
      <trkpt lat="39.5603870" lon="-6.4167210">
        <ele>352.2</ele>
        <time>2021-10-17T10:44:19Z</time>
      </trkpt>
      <trkpt lat="39.5603170" lon="-6.4167130">
        <ele>352.2</ele>
        <time>2021-10-17T10:44:25Z</time>
      </trkpt>
      <trkpt lat="39.5603050" lon="-6.4167090">
        <ele>352.4</ele>
        <time>2021-10-17T10:44:26Z</time>
      </trkpt>
      <trkpt lat="39.5602110" lon="-6.4166880">
        <ele>352.6</ele>
        <time>2021-10-17T10:44:33Z</time>
      </trkpt>
      <trkpt lat="39.5601750" lon="-6.4166710">
        <ele>352.8</ele>
        <time>2021-10-17T10:44:37Z</time>
      </trkpt>
      <trkpt lat="39.5600820" lon="-6.4166500">
        <ele>353.0</ele>
        <time>2021-10-17T10:44:44Z</time>
      </trkpt>
      <trkpt lat="39.5600450" lon="-6.4166500">
        <ele>353.0</ele>
        <time>2021-10-17T10:44:47Z</time>
      </trkpt>
      <trkpt lat="39.5599150" lon="-6.4166000">
        <ele>353.4</ele>
        <time>2021-10-17T10:44:57Z</time>
      </trkpt>
      <trkpt lat="39.5598160" lon="-6.4165560">
        <ele>353.6</ele>
        <time>2021-10-17T10:45:05Z</time>
      </trkpt>
      <trkpt lat="39.5597610" lon="-6.4165220">
        <ele>353.8</ele>
        <time>2021-10-17T10:45:11Z</time>
      </trkpt>
      <trkpt lat="39.5597220" lon="-6.4164980">
        <ele>354.0</ele>
        <time>2021-10-17T10:45:14Z</time>
      </trkpt>
      <trkpt lat="39.5596390" lon="-6.4164520">
        <ele>354.2</ele>
        <time>2021-10-17T10:45:20Z</time>
      </trkpt>
      <trkpt lat="39.5595400" lon="-6.4164520">
        <ele>354.8</ele>
        <time>2021-10-17T10:45:28Z</time>
      </trkpt>
      <trkpt lat="39.5594280" lon="-6.4164180">
        <ele>355.0</ele>
        <time>2021-10-17T10:45:36Z</time>
      </trkpt>
      <trkpt lat="39.5593430" lon="-6.4163900">
        <ele>355.2</ele>
        <time>2021-10-17T10:45:44Z</time>
      </trkpt>
      <trkpt lat="39.5592640" lon="-6.4163700">
        <ele>355.2</ele>
        <time>2021-10-17T10:45:51Z</time>
      </trkpt>
      <trkpt lat="39.5592570" lon="-6.4163680">
        <ele>355.2</ele>
        <time>2021-10-17T10:45:52Z</time>
      </trkpt>
      <trkpt lat="39.5591730" lon="-6.4163340">
        <ele>355.4</ele>
        <time>2021-10-17T10:45:57Z</time>
      </trkpt>
      <trkpt lat="39.5590780" lon="-6.4163200">
        <ele>355.6</ele>
        <time>2021-10-17T10:46:01Z</time>
      </trkpt>
      <trkpt lat="39.5588800" lon="-6.4162310">
        <ele>355.8</ele>
        <time>2021-10-17T10:46:08Z</time>
      </trkpt>
      <trkpt lat="39.5588040" lon="-6.4161950">
        <ele>356.2</ele>
        <time>2021-10-17T10:46:10Z</time>
      </trkpt>
      <trkpt lat="39.5587060" lon="-6.4161710">
        <ele>356.6</ele>
        <time>2021-10-17T10:46:14Z</time>
      </trkpt>
      <trkpt lat="39.5586820" lon="-6.4161640">
        <ele>356.6</ele>
        <time>2021-10-17T10:46:15Z</time>
      </trkpt>
      <trkpt lat="39.5585930" lon="-6.4161170">
        <ele>357.0</ele>
        <time>2021-10-17T10:46:19Z</time>
      </trkpt>
      <trkpt lat="39.5585350" lon="-6.4160840">
        <ele>357.2</ele>
        <time>2021-10-17T10:46:21Z</time>
      </trkpt>
      <trkpt lat="39.5584890" lon="-6.4160680">
        <ele>357.2</ele>
        <time>2021-10-17T10:46:23Z</time>
      </trkpt>
      <trkpt lat="39.5584200" lon="-6.4160340">
        <ele>357.4</ele>
        <time>2021-10-17T10:46:26Z</time>
      </trkpt>
      <trkpt lat="39.5583750" lon="-6.4160110">
        <ele>357.8</ele>
        <time>2021-10-17T10:46:28Z</time>
      </trkpt>
      <trkpt lat="39.5582210" lon="-6.4159690">
        <ele>358.2</ele>
        <time>2021-10-17T10:46:34Z</time>
      </trkpt>
      <trkpt lat="39.5581780" lon="-6.4159520">
        <ele>358.4</ele>
        <time>2021-10-17T10:46:36Z</time>
      </trkpt>
      <trkpt lat="39.5580680" lon="-6.4159300">
        <ele>358.6</ele>
        <time>2021-10-17T10:46:41Z</time>
      </trkpt>
      <trkpt lat="39.5580210" lon="-6.4159430">
        <ele>358.6</ele>
        <time>2021-10-17T10:46:44Z</time>
      </trkpt>
      <trkpt lat="39.5579430" lon="-6.4159260">
        <ele>359.0</ele>
        <time>2021-10-17T10:46:50Z</time>
      </trkpt>
      <trkpt lat="39.5579040" lon="-6.4159190">
        <ele>359.0</ele>
        <time>2021-10-17T10:46:52Z</time>
      </trkpt>
      <trkpt lat="39.5578200" lon="-6.4159000">
        <ele>359.0</ele>
        <time>2021-10-17T10:46:56Z</time>
      </trkpt>
      <trkpt lat="39.5577360" lon="-6.4158880">
        <ele>359.2</ele>
        <time>2021-10-17T10:47:00Z</time>
      </trkpt>
      <trkpt lat="39.5577010" lon="-6.4158860">
        <ele>359.2</ele>
        <time>2021-10-17T10:47:02Z</time>
      </trkpt>
      <trkpt lat="39.5576800" lon="-6.4158880">
        <ele>359.2</ele>
        <time>2021-10-17T10:47:04Z</time>
      </trkpt>
      <trkpt lat="39.5576620" lon="-6.4158790">
        <ele>359.2</ele>
        <time>2021-10-17T10:47:06Z</time>
      </trkpt>
      <trkpt lat="39.5576640" lon="-6.4158100">
        <ele>359.4</ele>
        <time>2021-10-17T10:47:10Z</time>
      </trkpt>
      <trkpt lat="39.5576370" lon="-6.4157670">
        <ele>359.4</ele>
        <time>2021-10-17T10:47:12Z</time>
      </trkpt>
      <trkpt lat="39.5575940" lon="-6.4157700">
        <ele>359.4</ele>
        <time>2021-10-17T10:47:14Z</time>
      </trkpt>
      <trkpt lat="39.5574930" lon="-6.4157780">
        <ele>359.4</ele>
        <time>2021-10-17T10:47:18Z</time>
      </trkpt>
      <trkpt lat="39.5574680" lon="-6.4157710">
        <ele>359.4</ele>
        <time>2021-10-17T10:47:19Z</time>
      </trkpt>
      <trkpt lat="39.5573120" lon="-6.4157360">
        <ele>359.4</ele>
        <time>2021-10-17T10:47:26Z</time>
      </trkpt>
      <trkpt lat="39.5571970" lon="-6.4157280">
        <ele>359.4</ele>
        <time>2021-10-17T10:47:32Z</time>
      </trkpt>
      <trkpt lat="39.5570270" lon="-6.4156820">
        <ele>359.6</ele>
        <time>2021-10-17T10:47:40Z</time>
      </trkpt>
      <trkpt lat="39.5568350" lon="-6.4156170">
        <ele>359.8</ele>
        <time>2021-10-17T10:47:48Z</time>
      </trkpt>
      <trkpt lat="39.5567310" lon="-6.4155610">
        <ele>359.8</ele>
        <time>2021-10-17T10:47:54Z</time>
      </trkpt>
      <trkpt lat="39.5567220" lon="-6.4155560">
        <ele>359.8</ele>
        <time>2021-10-17T10:47:57Z</time>
      </trkpt>
      <trkpt lat="39.5566770" lon="-6.4155400">
        <ele>360.0</ele>
        <time>2021-10-17T10:48:10Z</time>
      </trkpt>
      <trkpt lat="39.5566610" lon="-6.4155350">
        <ele>360.0</ele>
        <time>2021-10-17T10:48:11Z</time>
      </trkpt>
      <trkpt lat="39.5565650" lon="-6.4155050">
        <ele>360.0</ele>
        <time>2021-10-17T10:48:16Z</time>
      </trkpt>
      <trkpt lat="39.5565110" lon="-6.4154850">
        <ele>360.0</ele>
        <time>2021-10-17T10:48:19Z</time>
      </trkpt>
      <trkpt lat="39.5564950" lon="-6.4154870">
        <ele>360.2</ele>
        <time>2021-10-17T10:48:21Z</time>
      </trkpt>
      <trkpt lat="39.5564800" lon="-6.4155300">
        <ele>360.2</ele>
        <time>2021-10-17T10:48:24Z</time>
      </trkpt>
      <trkpt lat="39.5564710" lon="-6.4155980">
        <ele>360.2</ele>
        <time>2021-10-17T10:48:27Z</time>
      </trkpt>
      <trkpt lat="39.5564600" lon="-6.4156150">
        <ele>360.2</ele>
        <time>2021-10-17T10:48:28Z</time>
      </trkpt>
      <trkpt lat="39.5564150" lon="-6.4156170">
        <ele>360.2</ele>
        <time>2021-10-17T10:48:30Z</time>
      </trkpt>
      <trkpt lat="39.5562980" lon="-6.4155990">
        <ele>360.0</ele>
        <time>2021-10-17T10:48:35Z</time>
      </trkpt>
      <trkpt lat="39.5562740" lon="-6.4156150">
        <ele>360.0</ele>
        <time>2021-10-17T10:48:36Z</time>
      </trkpt>
      <trkpt lat="39.5562280" lon="-6.4156240">
        <ele>360.0</ele>
        <time>2021-10-17T10:48:38Z</time>
      </trkpt>
      <trkpt lat="39.5561820" lon="-6.4156050">
        <ele>359.8</ele>
        <time>2021-10-17T10:48:40Z</time>
      </trkpt>
      <trkpt lat="39.5560500" lon="-6.4155780">
        <ele>359.8</ele>
        <time>2021-10-17T10:48:45Z</time>
      </trkpt>
      <trkpt lat="39.5559640" lon="-6.4155560">
        <ele>359.8</ele>
        <time>2021-10-17T10:48:49Z</time>
      </trkpt>
      <trkpt lat="39.5558560" lon="-6.4155210">
        <ele>359.8</ele>
        <time>2021-10-17T10:48:53Z</time>
      </trkpt>
      <trkpt lat="39.5558020" lon="-6.4155050">
        <ele>359.8</ele>
        <time>2021-10-17T10:48:55Z</time>
      </trkpt>
      <trkpt lat="39.5556960" lon="-6.4154760">
        <ele>360.0</ele>
        <time>2021-10-17T10:48:59Z</time>
      </trkpt>
      <trkpt lat="39.5555170" lon="-6.4154250">
        <ele>360.0</ele>
        <time>2021-10-17T10:49:05Z</time>
      </trkpt>
      <trkpt lat="39.5553340" lon="-6.4153570">
        <ele>360.0</ele>
        <time>2021-10-17T10:49:12Z</time>
      </trkpt>
      <trkpt lat="39.5551500" lon="-6.4152980">
        <ele>360.4</ele>
        <time>2021-10-17T10:49:20Z</time>
      </trkpt>
      <trkpt lat="39.5550860" lon="-6.4152250">
        <ele>360.4</ele>
        <time>2021-10-17T10:49:26Z</time>
      </trkpt>
      <trkpt lat="39.5551060" lon="-6.4151740">
        <ele>360.6</ele>
        <time>2021-10-17T10:49:29Z</time>
      </trkpt>
      <trkpt lat="39.5551250" lon="-6.4151220">
        <ele>361.0</ele>
        <time>2021-10-17T10:50:21Z</time>
      </trkpt>
      <trkpt lat="39.5551450" lon="-6.4150700">
        <ele>361.0</ele>
        <time>2021-10-17T10:50:22Z</time>
      </trkpt>
      <trkpt lat="39.5552760" lon="-6.4151100">
        <ele>361.0</ele>
        <time>2021-10-17T10:50:27Z</time>
      </trkpt>
      <trkpt lat="39.5553250" lon="-6.4151180">
        <ele>361.0</ele>
        <time>2021-10-17T10:50:29Z</time>
      </trkpt>
      <trkpt lat="39.5553920" lon="-6.4151310">
        <ele>360.8</ele>
        <time>2021-10-17T10:50:31Z</time>
      </trkpt>
      <trkpt lat="39.5555440" lon="-6.4151760">
        <ele>360.6</ele>
        <time>2021-10-17T10:50:36Z</time>
      </trkpt>
      <trkpt lat="39.5556050" lon="-6.4151880">
        <ele>360.6</ele>
        <time>2021-10-17T10:50:38Z</time>
      </trkpt>
      <trkpt lat="39.5557700" lon="-6.4152310">
        <ele>360.6</ele>
        <time>2021-10-17T10:50:43Z</time>
      </trkpt>
      <trkpt lat="39.5559320" lon="-6.4152800">
        <ele>360.4</ele>
        <time>2021-10-17T10:50:48Z</time>
      </trkpt>
      <trkpt lat="39.5560660" lon="-6.4153190">
        <ele>360.6</ele>
        <time>2021-10-17T10:50:53Z</time>
      </trkpt>
      <trkpt lat="39.5560960" lon="-6.4153260">
        <ele>360.6</ele>
        <time>2021-10-17T10:50:54Z</time>
      </trkpt>
      <trkpt lat="39.5562900" lon="-6.4153990">
        <ele>360.2</ele>
        <time>2021-10-17T10:51:01Z</time>
      </trkpt>
      <trkpt lat="39.5564650" lon="-6.4154690">
        <ele>360.0</ele>
        <time>2021-10-17T10:51:07Z</time>
      </trkpt>
      <trkpt lat="39.5566220" lon="-6.4155200">
        <ele>360.0</ele>
        <time>2021-10-17T10:51:13Z</time>
      </trkpt>
      <trkpt lat="39.5567190" lon="-6.4155470">
        <ele>360.0</ele>
        <time>2021-10-17T10:51:18Z</time>
      </trkpt>
      <trkpt lat="39.5567310" lon="-6.4155420">
        <ele>360.0</ele>
        <time>2021-10-17T10:51:19Z</time>
      </trkpt>
      <trkpt lat="39.5567290" lon="-6.4155300">
        <ele>359.8</ele>
        <time>2021-10-17T10:51:21Z</time>
      </trkpt>
      <trkpt lat="39.5567260" lon="-6.4155280">
        <ele>359.8</ele>
        <time>2021-10-17T10:51:28Z</time>
      </trkpt>
      <trkpt lat="39.5560430" lon="-6.4155600">
        <ele>360.2</ele>
        <time>2021-10-17T12:05:01Z</time>
      </trkpt>
      <trkpt lat="39.5560190" lon="-6.4155520">
        <ele>360.2</ele>
        <time>2021-10-17T12:05:02Z</time>
      </trkpt>
      <trkpt lat="39.5559970" lon="-6.4155420">
        <ele>360.2</ele>
        <time>2021-10-17T12:05:03Z</time>
      </trkpt>
      <trkpt lat="39.5559230" lon="-6.4155060">
        <ele>360.2</ele>
        <time>2021-10-17T12:05:06Z</time>
      </trkpt>
      <trkpt lat="39.5558460" lon="-6.4154660">
        <ele>360.2</ele>
        <time>2021-10-17T12:05:10Z</time>
      </trkpt>
      <trkpt lat="39.5557690" lon="-6.4154490">
        <ele>360.2</ele>
        <time>2021-10-17T12:05:13Z</time>
      </trkpt>
      <trkpt lat="39.5556210" lon="-6.4154130">
        <ele>360.2</ele>
        <time>2021-10-17T12:05:19Z</time>
      </trkpt>
      <trkpt lat="39.5556010" lon="-6.4154100">
        <ele>360.2</ele>
        <time>2021-10-17T12:05:20Z</time>
      </trkpt>
      <trkpt lat="39.5554340" lon="-6.4153610">
        <ele>360.4</ele>
        <time>2021-10-17T12:05:27Z</time>
      </trkpt>
      <trkpt lat="39.5554140" lon="-6.4153530">
        <ele>360.4</ele>
        <time>2021-10-17T12:05:28Z</time>
      </trkpt>
      <trkpt lat="39.5552040" lon="-6.4152860">
        <ele>360.8</ele>
        <time>2021-10-17T12:05:37Z</time>
      </trkpt>
      <trkpt lat="39.5550830" lon="-6.4152270">
        <ele>361.0</ele>
        <time>2021-10-17T12:05:44Z</time>
      </trkpt>
      <trkpt lat="39.5550670" lon="-6.4152200">
        <ele>361.0</ele>
        <time>2021-10-17T12:05:48Z</time>
      </trkpt>
      <trkpt lat="39.5550630" lon="-6.4150630">
        <ele>361.6</ele>
        <time>2021-10-17T12:07:09Z</time>
      </trkpt>
      <trkpt lat="39.5550530" lon="-6.4150420">
        <ele>361.6</ele>
        <time>2021-10-17T12:07:10Z</time>
      </trkpt>
      <trkpt lat="39.5550400" lon="-6.4150260">
        <ele>361.6</ele>
        <time>2021-10-17T12:07:11Z</time>
      </trkpt>
      <trkpt lat="39.5550020" lon="-6.4150030">
        <ele>361.6</ele>
        <time>2021-10-17T12:07:13Z</time>
      </trkpt>
      <trkpt lat="39.5549580" lon="-6.4149920">
        <ele>361.6</ele>
        <time>2021-10-17T12:07:15Z</time>
      </trkpt>
      <trkpt lat="39.5548400" lon="-6.4149750">
        <ele>361.6</ele>
        <time>2021-10-17T12:07:20Z</time>
      </trkpt>
      <trkpt lat="39.5547310" lon="-6.4149290">
        <ele>361.6</ele>
        <time>2021-10-17T12:07:25Z</time>
      </trkpt>
      <trkpt lat="39.5546810" lon="-6.4149090">
        <ele>361.6</ele>
        <time>2021-10-17T12:07:27Z</time>
      </trkpt>
      <trkpt lat="39.5546290" lon="-6.4148930">
        <ele>361.8</ele>
        <time>2021-10-17T12:07:29Z</time>
      </trkpt>
      <trkpt lat="39.5545270" lon="-6.4148620">
        <ele>361.8</ele>
        <time>2021-10-17T12:07:33Z</time>
      </trkpt>
      <trkpt lat="39.5544570" lon="-6.4148400">
        <ele>361.8</ele>
        <time>2021-10-17T12:07:36Z</time>
      </trkpt>
      <trkpt lat="39.5542520" lon="-6.4147710">
        <ele>362.2</ele>
        <time>2021-10-17T12:07:44Z</time>
      </trkpt>
      <trkpt lat="39.5541940" lon="-6.4147530">
        <ele>362.2</ele>
        <time>2021-10-17T12:07:46Z</time>
      </trkpt>
      <trkpt lat="39.5538970" lon="-6.4146540">
        <ele>362.4</ele>
        <time>2021-10-17T12:07:57Z</time>
      </trkpt>
      <trkpt lat="39.5537050" lon="-6.4146020">
        <ele>362.8</ele>
        <time>2021-10-17T12:08:04Z</time>
      </trkpt>
      <trkpt lat="39.5536240" lon="-6.4145720">
        <ele>362.8</ele>
        <time>2021-10-17T12:08:07Z</time>
      </trkpt>
      <trkpt lat="39.5534280" lon="-6.4145120">
        <ele>363.2</ele>
        <time>2021-10-17T12:08:14Z</time>
      </trkpt>
      <trkpt lat="39.5532250" lon="-6.4144430">
        <ele>363.4</ele>
        <time>2021-10-17T12:08:21Z</time>
      </trkpt>
      <trkpt lat="39.5531160" lon="-6.4144020">
        <ele>363.4</ele>
        <time>2021-10-17T12:08:25Z</time>
      </trkpt>
      <trkpt lat="39.5529770" lon="-6.4143560">
        <ele>363.8</ele>
        <time>2021-10-17T12:08:30Z</time>
      </trkpt>
      <trkpt lat="39.5528680" lon="-6.4143190">
        <ele>364.2</ele>
        <time>2021-10-17T12:08:34Z</time>
      </trkpt>
      <trkpt lat="39.5526000" lon="-6.4142330">
        <ele>364.6</ele>
        <time>2021-10-17T12:08:44Z</time>
      </trkpt>
      <trkpt lat="39.5524690" lon="-6.4141900">
        <ele>364.8</ele>
        <time>2021-10-17T12:08:49Z</time>
      </trkpt>
      <trkpt lat="39.5523650" lon="-6.4141600">
        <ele>365.2</ele>
        <time>2021-10-17T12:08:54Z</time>
      </trkpt>
      <trkpt lat="39.5523260" lon="-6.4141560">
        <ele>365.2</ele>
        <time>2021-10-17T12:08:57Z</time>
      </trkpt>
      <trkpt lat="39.5523150" lon="-6.4141650">
        <ele>365.4</ele>
        <time>2021-10-17T12:09:00Z</time>
      </trkpt>
      <trkpt lat="39.5523150" lon="-6.4141650">
        <ele>365.4</ele>
        <time>2021-10-17T12:09:01Z</time>
      </trkpt>
      <trkpt lat="39.5522950" lon="-6.4142060">
        <ele>365.2</ele>
        <time>2021-10-17T12:09:10Z</time>
      </trkpt>
      <trkpt lat="39.5522660" lon="-6.4142490">
        <ele>365.2</ele>
        <time>2021-10-17T12:09:12Z</time>
      </trkpt>
      <trkpt lat="39.5521870" lon="-6.4143300">
        <ele>365.2</ele>
        <time>2021-10-17T12:09:16Z</time>
      </trkpt>
      <trkpt lat="39.5521580" lon="-6.4143390">
        <ele>365.2</ele>
        <time>2021-10-17T12:09:17Z</time>
      </trkpt>
      <trkpt lat="39.5519710" lon="-6.4143930">
        <ele>365.4</ele>
        <time>2021-10-17T12:09:23Z</time>
      </trkpt>
      <trkpt lat="39.5517220" lon="-6.4144230">
        <ele>365.6</ele>
        <time>2021-10-17T12:09:31Z</time>
      </trkpt>
      <trkpt lat="39.5515710" lon="-6.4144690">
        <ele>366.0</ele>
        <time>2021-10-17T12:09:36Z</time>
      </trkpt>
      <trkpt lat="39.5515380" lon="-6.4144780">
        <ele>366.0</ele>
        <time>2021-10-17T12:09:37Z</time>
      </trkpt>
      <trkpt lat="39.5513780" lon="-6.4145320">
        <ele>366.2</ele>
        <time>2021-10-17T12:09:42Z</time>
      </trkpt>
      <trkpt lat="39.5512600" lon="-6.4145790">
        <ele>366.4</ele>
        <time>2021-10-17T12:09:46Z</time>
      </trkpt>
      <trkpt lat="39.5509710" lon="-6.4146520">
        <ele>367.0</ele>
        <time>2021-10-17T12:09:56Z</time>
      </trkpt>
      <trkpt lat="39.5508560" lon="-6.4146500">
        <ele>367.2</ele>
        <time>2021-10-17T12:10:00Z</time>
      </trkpt>
      <trkpt lat="39.5507650" lon="-6.4146250">
        <ele>367.2</ele>
        <time>2021-10-17T12:10:03Z</time>
      </trkpt>
      <trkpt lat="39.5507430" lon="-6.4146170">
        <ele>367.4</ele>
        <time>2021-10-17T12:10:04Z</time>
      </trkpt>
      <trkpt lat="39.5506470" lon="-6.4145820">
        <ele>367.6</ele>
        <time>2021-10-17T12:10:07Z</time>
      </trkpt>
      <trkpt lat="39.5505340" lon="-6.4145340">
        <ele>367.8</ele>
        <time>2021-10-17T12:10:11Z</time>
      </trkpt>
      <trkpt lat="39.5505050" lon="-6.4145210">
        <ele>367.8</ele>
        <time>2021-10-17T12:10:12Z</time>
      </trkpt>
      <trkpt lat="39.5503110" lon="-6.4144230">
        <ele>368.2</ele>
        <time>2021-10-17T12:10:19Z</time>
      </trkpt>
      <trkpt lat="39.5502850" lon="-6.4144080">
        <ele>368.2</ele>
        <time>2021-10-17T12:10:20Z</time>
      </trkpt>
      <trkpt lat="39.5502400" lon="-6.4143860">
        <ele>368.4</ele>
        <time>2021-10-17T12:10:22Z</time>
      </trkpt>
      <trkpt lat="39.5501330" lon="-6.4143370">
        <ele>368.6</ele>
        <time>2021-10-17T12:10:26Z</time>
      </trkpt>
      <trkpt lat="39.5500200" lon="-6.4142940">
        <ele>369.0</ele>
        <time>2021-10-17T12:10:30Z</time>
      </trkpt>
      <trkpt lat="39.5498610" lon="-6.4142230">
        <ele>369.2</ele>
        <time>2021-10-17T12:10:36Z</time>
      </trkpt>
      <trkpt lat="39.5497790" lon="-6.4141880">
        <ele>369.4</ele>
        <time>2021-10-17T12:10:39Z</time>
      </trkpt>
      <trkpt lat="39.5496770" lon="-6.4141330">
        <ele>369.4</ele>
        <time>2021-10-17T12:10:43Z</time>
      </trkpt>
      <trkpt lat="39.5495420" lon="-6.4140630">
        <ele>370.0</ele>
        <time>2021-10-17T12:10:48Z</time>
      </trkpt>
      <trkpt lat="39.5494560" lon="-6.4140200">
        <ele>370.2</ele>
        <time>2021-10-17T12:10:51Z</time>
      </trkpt>
      <trkpt lat="39.5493790" lon="-6.4139850">
        <ele>370.2</ele>
        <time>2021-10-17T12:10:54Z</time>
      </trkpt>
      <trkpt lat="39.5493220" lon="-6.4139490">
        <ele>370.2</ele>
        <time>2021-10-17T12:10:56Z</time>
      </trkpt>
      <trkpt lat="39.5492950" lon="-6.4139370">
        <ele>370.4</ele>
        <time>2021-10-17T12:10:57Z</time>
      </trkpt>
      <trkpt lat="39.5491520" lon="-6.4138790">
        <ele>370.4</ele>
        <time>2021-10-17T12:11:02Z</time>
      </trkpt>
      <trkpt lat="39.5489810" lon="-6.4138050">
        <ele>370.8</ele>
        <time>2021-10-17T12:11:08Z</time>
      </trkpt>
      <trkpt lat="39.5488950" lon="-6.4137660">
        <ele>371.0</ele>
        <time>2021-10-17T12:11:11Z</time>
      </trkpt>
      <trkpt lat="39.5487420" lon="-6.4137060">
        <ele>371.0</ele>
        <time>2021-10-17T12:11:16Z</time>
      </trkpt>
      <trkpt lat="39.5487110" lon="-6.4136930">
        <ele>371.0</ele>
        <time>2021-10-17T12:11:17Z</time>
      </trkpt>
      <trkpt lat="39.5485100" lon="-6.4135860">
        <ele>371.2</ele>
        <time>2021-10-17T12:11:24Z</time>
      </trkpt>
      <trkpt lat="39.5482670" lon="-6.4134800">
        <ele>371.4</ele>
        <time>2021-10-17T12:11:32Z</time>
      </trkpt>
      <trkpt lat="39.5480730" lon="-6.4133890">
        <ele>371.4</ele>
        <time>2021-10-17T12:11:38Z</time>
      </trkpt>
      <trkpt lat="39.5479330" lon="-6.4133280">
        <ele>371.4</ele>
        <time>2021-10-17T12:11:42Z</time>
      </trkpt>
      <trkpt lat="39.5475970" lon="-6.4131400">
        <ele>371.2</ele>
        <time>2021-10-17T12:11:52Z</time>
      </trkpt>
      <trkpt lat="39.5474230" lon="-6.4130500">
        <ele>370.8</ele>
        <time>2021-10-17T12:11:57Z</time>
      </trkpt>
      <trkpt lat="39.5473440" lon="-6.4130070">
        <ele>370.6</ele>
        <time>2021-10-17T12:11:59Z</time>
      </trkpt>
      <trkpt lat="39.5469060" lon="-6.4127700">
        <ele>370.4</ele>
        <time>2021-10-17T12:12:11Z</time>
      </trkpt>
      <trkpt lat="39.5466820" lon="-6.4127110">
        <ele>370.0</ele>
        <time>2021-10-17T12:12:17Z</time>
      </trkpt>
      <trkpt lat="39.5464120" lon="-6.4126070">
        <ele>370.0</ele>
        <time>2021-10-17T12:12:24Z</time>
      </trkpt>
      <trkpt lat="39.5460470" lon="-6.4125160">
        <ele>370.0</ele>
        <time>2021-10-17T12:12:34Z</time>
      </trkpt>
      <trkpt lat="39.5458250" lon="-6.4124430">
        <ele>370.2</ele>
        <time>2021-10-17T12:12:40Z</time>
      </trkpt>
      <trkpt lat="39.5456740" lon="-6.4123750">
        <ele>370.0</ele>
        <time>2021-10-17T12:12:44Z</time>
      </trkpt>
      <trkpt lat="39.5454830" lon="-6.4122900">
        <ele>370.0</ele>
        <time>2021-10-17T12:12:49Z</time>
      </trkpt>
      <trkpt lat="39.5453370" lon="-6.4122250">
        <ele>369.8</ele>
        <time>2021-10-17T12:12:53Z</time>
      </trkpt>
      <trkpt lat="39.5450510" lon="-6.4121000">
        <ele>369.8</ele>
        <time>2021-10-17T12:13:01Z</time>
      </trkpt>
      <trkpt lat="39.5450200" lon="-6.4121110">
        <ele>369.8</ele>
        <time>2021-10-17T12:13:02Z</time>
      </trkpt>
      <trkpt lat="39.5449170" lon="-6.4121820">
        <ele>370.0</ele>
        <time>2021-10-17T12:13:06Z</time>
      </trkpt>
      <trkpt lat="39.5448870" lon="-6.4121810">
        <ele>370.0</ele>
        <time>2021-10-17T12:13:07Z</time>
      </trkpt>
      <trkpt lat="39.5446400" lon="-6.4121130">
        <ele>370.2</ele>
        <time>2021-10-17T12:13:15Z</time>
      </trkpt>
      <trkpt lat="39.5444800" lon="-6.4120910">
        <ele>370.4</ele>
        <time>2021-10-17T12:13:22Z</time>
      </trkpt>
      <trkpt lat="39.5444600" lon="-6.4120900">
        <ele>370.4</ele>
        <time>2021-10-17T12:13:24Z</time>
      </trkpt>
      <trkpt lat="39.5444570" lon="-6.4120890">
        <ele>370.4</ele>
        <time>2021-10-17T12:13:26Z</time>
      </trkpt>
      <trkpt lat="39.5444570" lon="-6.4120890">
        <ele>370.4</ele>
        <time>2021-10-17T12:13:27Z</time>
      </trkpt>
      <trkpt lat="39.5444500" lon="-6.4120610">
        <ele>369.6</ele>
        <time>2021-10-17T12:14:16Z</time>
      </trkpt>
      <trkpt lat="39.5444270" lon="-6.4120040">
        <ele>369.6</ele>
        <time>2021-10-17T12:14:18Z</time>
      </trkpt>
      <trkpt lat="39.5444090" lon="-6.4119810">
        <ele>369.6</ele>
        <time>2021-10-17T12:14:19Z</time>
      </trkpt>
      <trkpt lat="39.5442910" lon="-6.4119090">
        <ele>369.4</ele>
        <time>2021-10-17T12:14:23Z</time>
      </trkpt>
      <trkpt lat="39.5440590" lon="-6.4118080">
        <ele>369.2</ele>
        <time>2021-10-17T12:14:29Z</time>
      </trkpt>
      <trkpt lat="39.5437540" lon="-6.4116870">
        <ele>368.6</ele>
        <time>2021-10-17T12:14:36Z</time>
      </trkpt>
      <trkpt lat="39.5437070" lon="-6.4116700">
        <ele>368.6</ele>
        <time>2021-10-17T12:14:37Z</time>
      </trkpt>
      <trkpt lat="39.5433410" lon="-6.4115370">
        <ele>368.0</ele>
        <time>2021-10-17T12:14:45Z</time>
      </trkpt>
      <trkpt lat="39.5428440" lon="-6.4113580">
        <ele>367.8</ele>
        <time>2021-10-17T12:14:56Z</time>
      </trkpt>
      <trkpt lat="39.5423130" lon="-6.4111580">
        <ele>367.6</ele>
        <time>2021-10-17T12:15:08Z</time>
      </trkpt>
      <trkpt lat="39.5422690" lon="-6.4111420">
        <ele>367.4</ele>
        <time>2021-10-17T12:15:09Z</time>
      </trkpt>
      <trkpt lat="39.5417760" lon="-6.4109630">
        <ele>367.4</ele>
        <time>2021-10-17T12:15:20Z</time>
      </trkpt>
      <trkpt lat="39.5416360" lon="-6.4109110">
        <ele>367.4</ele>
        <time>2021-10-17T12:15:23Z</time>
      </trkpt>
      <trkpt lat="39.5413690" lon="-6.4108140">
        <ele>367.0</ele>
        <time>2021-10-17T12:15:29Z</time>
      </trkpt>
      <trkpt lat="39.5412610" lon="-6.4107590">
        <ele>367.0</ele>
        <time>2021-10-17T12:15:32Z</time>
      </trkpt>
      <trkpt lat="39.5412420" lon="-6.4107270">
        <ele>367.0</ele>
        <time>2021-10-17T12:15:33Z</time>
      </trkpt>
      <trkpt lat="39.5412220" lon="-6.4106450">
        <ele>367.0</ele>
        <time>2021-10-17T12:15:35Z</time>
      </trkpt>
      <trkpt lat="39.5411670" lon="-6.4105760">
        <ele>366.8</ele>
        <time>2021-10-17T12:15:37Z</time>
      </trkpt>
      <trkpt lat="39.5408950" lon="-6.4104400">
        <ele>366.6</ele>
        <time>2021-10-17T12:15:44Z</time>
      </trkpt>
      <trkpt lat="39.5407700" lon="-6.4103930">
        <ele>366.6</ele>
        <time>2021-10-17T12:15:47Z</time>
      </trkpt>
      <trkpt lat="39.5406450" lon="-6.4103630">
        <ele>366.8</ele>
        <time>2021-10-17T12:15:50Z</time>
      </trkpt>
      <trkpt lat="39.5404810" lon="-6.4103160">
        <ele>366.8</ele>
        <time>2021-10-17T12:15:54Z</time>
      </trkpt>
      <trkpt lat="39.5402400" lon="-6.4102490">
        <ele>367.0</ele>
        <time>2021-10-17T12:16:00Z</time>
      </trkpt>
      <trkpt lat="39.5401640" lon="-6.4102410">
        <ele>367.2</ele>
        <time>2021-10-17T12:16:02Z</time>
      </trkpt>
      <trkpt lat="39.5399340" lon="-6.4101940">
        <ele>367.8</ele>
        <time>2021-10-17T12:16:09Z</time>
      </trkpt>
      <trkpt lat="39.5398110" lon="-6.4101780">
        <ele>368.0</ele>
        <time>2021-10-17T12:16:13Z</time>
      </trkpt>
      <trkpt lat="39.5396600" lon="-6.4101350">
        <ele>368.6</ele>
        <time>2021-10-17T12:16:18Z</time>
      </trkpt>
      <trkpt lat="39.5396010" lon="-6.4101140">
        <ele>368.8</ele>
        <time>2021-10-17T12:16:20Z</time>
      </trkpt>
      <trkpt lat="39.5394070" lon="-6.4100450">
        <ele>369.4</ele>
        <time>2021-10-17T12:16:26Z</time>
      </trkpt>
      <trkpt lat="39.5392940" lon="-6.4099960">
        <ele>369.6</ele>
        <time>2021-10-17T12:16:29Z</time>
      </trkpt>
      <trkpt lat="39.5391660" lon="-6.4099510">
        <ele>369.6</ele>
        <time>2021-10-17T12:16:32Z</time>
      </trkpt>
      <trkpt lat="39.5388690" lon="-6.4098280">
        <ele>368.6</ele>
        <time>2021-10-17T12:16:38Z</time>
      </trkpt>
      <trkpt lat="39.5386290" lon="-6.4097160">
        <ele>367.8</ele>
        <time>2021-10-17T12:16:42Z</time>
      </trkpt>
      <trkpt lat="39.5385040" lon="-6.4096500">
        <ele>367.6</ele>
        <time>2021-10-17T12:16:44Z</time>
      </trkpt>
      <trkpt lat="39.5383110" lon="-6.4095360">
        <ele>366.8</ele>
        <time>2021-10-17T12:16:47Z</time>
      </trkpt>
      <trkpt lat="39.5381180" lon="-6.4094230">
        <ele>365.8</ele>
        <time>2021-10-17T12:16:50Z</time>
      </trkpt>
      <trkpt lat="39.5380520" lon="-6.4093930">
        <ele>365.4</ele>
        <time>2021-10-17T12:16:51Z</time>
      </trkpt>
      <trkpt lat="39.5379170" lon="-6.4093540">
        <ele>365.0</ele>
        <time>2021-10-17T12:16:53Z</time>
      </trkpt>
      <trkpt lat="39.5378610" lon="-6.4093520">
        <ele>364.8</ele>
        <time>2021-10-17T12:16:54Z</time>
      </trkpt>
      <trkpt lat="39.5378140" lon="-6.4093620">
        <ele>364.8</ele>
        <time>2021-10-17T12:16:55Z</time>
      </trkpt>
      <trkpt lat="39.5377330" lon="-6.4094010">
        <ele>364.8</ele>
        <time>2021-10-17T12:16:57Z</time>
      </trkpt>
      <trkpt lat="39.5376100" lon="-6.4094610">
        <ele>364.8</ele>
        <time>2021-10-17T12:17:00Z</time>
      </trkpt>
      <trkpt lat="39.5373460" lon="-6.4095610">
        <ele>365.0</ele>
        <time>2021-10-17T12:17:07Z</time>
      </trkpt>
      <trkpt lat="39.5371170" lon="-6.4096350">
        <ele>365.4</ele>
        <time>2021-10-17T12:17:13Z</time>
      </trkpt>
      <trkpt lat="39.5367820" lon="-6.4097260">
        <ele>365.0</ele>
        <time>2021-10-17T12:17:20Z</time>
      </trkpt>
      <trkpt lat="39.5365600" lon="-6.4097890">
        <ele>364.2</ele>
        <time>2021-10-17T12:17:24Z</time>
      </trkpt>
      <trkpt lat="39.5364170" lon="-6.4098450">
        <ele>363.8</ele>
        <time>2021-10-17T12:17:26Z</time>
      </trkpt>
      <trkpt lat="39.5361990" lon="-6.4099370">
        <ele>362.6</ele>
        <time>2021-10-17T12:17:29Z</time>
      </trkpt>
      <trkpt lat="39.5360710" lon="-6.4099960">
        <ele>361.4</ele>
        <time>2021-10-17T12:17:31Z</time>
      </trkpt>
      <trkpt lat="39.5359480" lon="-6.4100150">
        <ele>360.6</ele>
        <time>2021-10-17T12:17:33Z</time>
      </trkpt>
      <trkpt lat="39.5358900" lon="-6.4099990">
        <ele>360.2</ele>
        <time>2021-10-17T12:17:34Z</time>
      </trkpt>
      <trkpt lat="39.5358360" lon="-6.4099650">
        <ele>359.8</ele>
        <time>2021-10-17T12:17:35Z</time>
      </trkpt>
      <trkpt lat="39.5357480" lon="-6.4098670">
        <ele>359.4</ele>
        <time>2021-10-17T12:17:37Z</time>
      </trkpt>
      <trkpt lat="39.5356990" lon="-6.4097990">
        <ele>359.0</ele>
        <time>2021-10-17T12:17:38Z</time>
      </trkpt>
      <trkpt lat="39.5354460" lon="-6.4095000">
        <ele>358.4</ele>
        <time>2021-10-17T12:17:44Z</time>
      </trkpt>
      <trkpt lat="39.5354010" lon="-6.4094470">
        <ele>358.2</ele>
        <time>2021-10-17T12:17:45Z</time>
      </trkpt>
      <trkpt lat="39.5352200" lon="-6.4091790">
        <ele>357.2</ele>
        <time>2021-10-17T12:17:50Z</time>
      </trkpt>
      <trkpt lat="39.5351800" lon="-6.4091310">
        <ele>357.0</ele>
        <time>2021-10-17T12:17:51Z</time>
      </trkpt>
      <trkpt lat="39.5349480" lon="-6.4088690">
        <ele>356.4</ele>
        <time>2021-10-17T12:17:57Z</time>
      </trkpt>
      <trkpt lat="39.5348200" lon="-6.4087760">
        <ele>356.0</ele>
        <time>2021-10-17T12:18:01Z</time>
      </trkpt>
      <trkpt lat="39.5347870" lon="-6.4087630">
        <ele>356.0</ele>
        <time>2021-10-17T12:18:02Z</time>
      </trkpt>
      <trkpt lat="39.5346000" lon="-6.4087520">
        <ele>355.8</ele>
        <time>2021-10-17T12:18:07Z</time>
      </trkpt>
      <trkpt lat="39.5345610" lon="-6.4087570">
        <ele>355.8</ele>
        <time>2021-10-17T12:18:08Z</time>
      </trkpt>
      <trkpt lat="39.5343250" lon="-6.4088330">
        <ele>355.8</ele>
        <time>2021-10-17T12:18:15Z</time>
      </trkpt>
      <trkpt lat="39.5342650" lon="-6.4088550">
        <ele>356.0</ele>
        <time>2021-10-17T12:18:17Z</time>
      </trkpt>
      <trkpt lat="39.5340170" lon="-6.4089350">
        <ele>357.0</ele>
        <time>2021-10-17T12:18:25Z</time>
      </trkpt>
      <trkpt lat="39.5337980" lon="-6.4090180">
        <ele>358.2</ele>
        <time>2021-10-17T12:18:33Z</time>
      </trkpt>
      <trkpt lat="39.5336940" lon="-6.4090760">
        <ele>359.4</ele>
        <time>2021-10-17T12:18:37Z</time>
      </trkpt>
      <trkpt lat="39.5336260" lon="-6.4091220">
        <ele>359.8</ele>
        <time>2021-10-17T12:18:40Z</time>
      </trkpt>
      <trkpt lat="39.5335090" lon="-6.4092090">
        <ele>360.4</ele>
        <time>2021-10-17T12:18:45Z</time>
      </trkpt>
      <trkpt lat="39.5334630" lon="-6.4092480">
        <ele>360.6</ele>
        <time>2021-10-17T12:18:47Z</time>
      </trkpt>
      <trkpt lat="39.5334380" lon="-6.4092640">
        <ele>360.8</ele>
        <time>2021-10-17T12:18:48Z</time>
      </trkpt>
      <trkpt lat="39.5333770" lon="-6.4093000">
        <ele>360.8</ele>
        <time>2021-10-17T12:18:50Z</time>
      </trkpt>
      <trkpt lat="39.5332640" lon="-6.4093320">
        <ele>360.8</ele>
        <time>2021-10-17T12:18:53Z</time>
      </trkpt>
      <trkpt lat="39.5332210" lon="-6.4093400">
        <ele>360.8</ele>
        <time>2021-10-17T12:18:54Z</time>
      </trkpt>
      <trkpt lat="39.5330740" lon="-6.4093500">
        <ele>360.4</ele>
        <time>2021-10-17T12:18:57Z</time>
      </trkpt>
      <trkpt lat="39.5329680" lon="-6.4093620">
        <ele>360.4</ele>
        <time>2021-10-17T12:18:59Z</time>
      </trkpt>
      <trkpt lat="39.5329150" lon="-6.4093710">
        <ele>360.0</ele>
        <time>2021-10-17T12:19:00Z</time>
      </trkpt>
      <trkpt lat="39.5328610" lon="-6.4093760">
        <ele>360.0</ele>
        <time>2021-10-17T12:19:01Z</time>
      </trkpt>
      <trkpt lat="39.5327470" lon="-6.4093660">
        <ele>359.4</ele>
        <time>2021-10-17T12:19:03Z</time>
      </trkpt>
      <trkpt lat="39.5326850" lon="-6.4093500">
        <ele>359.0</ele>
        <time>2021-10-17T12:19:04Z</time>
      </trkpt>
      <trkpt lat="39.5325610" lon="-6.4092880">
        <ele>358.2</ele>
        <time>2021-10-17T12:19:06Z</time>
      </trkpt>
      <trkpt lat="39.5324330" lon="-6.4091930">
        <ele>357.0</ele>
        <time>2021-10-17T12:19:08Z</time>
      </trkpt>
      <trkpt lat="39.5322230" lon="-6.4090110">
        <ele>355.8</ele>
        <time>2021-10-17T12:19:11Z</time>
      </trkpt>
      <trkpt lat="39.5320780" lon="-6.4088740">
        <ele>355.2</ele>
        <time>2021-10-17T12:19:13Z</time>
      </trkpt>
      <trkpt lat="39.5320060" lon="-6.4088090">
        <ele>354.8</ele>
        <time>2021-10-17T12:19:14Z</time>
      </trkpt>
      <trkpt lat="39.5319350" lon="-6.4087460">
        <ele>353.8</ele>
        <time>2021-10-17T12:19:15Z</time>
      </trkpt>
      <trkpt lat="39.5318630" lon="-6.4086910">
        <ele>353.4</ele>
        <time>2021-10-17T12:19:16Z</time>
      </trkpt>
      <trkpt lat="39.5317880" lon="-6.4086480">
        <ele>352.4</ele>
        <time>2021-10-17T12:19:17Z</time>
      </trkpt>
      <trkpt lat="39.5317140" lon="-6.4086140">
        <ele>352.0</ele>
        <time>2021-10-17T12:19:18Z</time>
      </trkpt>
      <trkpt lat="39.5315940" lon="-6.4085670">
        <ele>351.4</ele>
        <time>2021-10-17T12:19:20Z</time>
      </trkpt>
      <trkpt lat="39.5315450" lon="-6.4085430">
        <ele>351.2</ele>
        <time>2021-10-17T12:19:21Z</time>
      </trkpt>
      <trkpt lat="39.5315000" lon="-6.4085200">
        <ele>351.2</ele>
        <time>2021-10-17T12:19:22Z</time>
      </trkpt>
      <trkpt lat="39.5313200" lon="-6.4084010">
        <ele>351.2</ele>
        <time>2021-10-17T12:19:27Z</time>
      </trkpt>
      <trkpt lat="39.5312230" lon="-6.4083300">
        <ele>352.0</ele>
        <time>2021-10-17T12:19:30Z</time>
      </trkpt>
      <trkpt lat="39.5311110" lon="-6.4082710">
        <ele>352.4</ele>
        <time>2021-10-17T12:19:33Z</time>
      </trkpt>
      <trkpt lat="39.5310710" lon="-6.4082540">
        <ele>352.4</ele>
        <time>2021-10-17T12:19:34Z</time>
      </trkpt>
      <trkpt lat="39.5309520" lon="-6.4082080">
        <ele>352.6</ele>
        <time>2021-10-17T12:19:37Z</time>
      </trkpt>
      <trkpt lat="39.5307390" lon="-6.4081770">
        <ele>352.6</ele>
        <time>2021-10-17T12:19:43Z</time>
      </trkpt>
      <trkpt lat="39.5305390" lon="-6.4081810">
        <ele>353.4</ele>
        <time>2021-10-17T12:19:50Z</time>
      </trkpt>
      <trkpt lat="39.5303690" lon="-6.4081410">
        <ele>354.6</ele>
        <time>2021-10-17T12:19:57Z</time>
      </trkpt>
      <trkpt lat="39.5302580" lon="-6.4080940">
        <ele>355.2</ele>
        <time>2021-10-17T12:20:02Z</time>
      </trkpt>
      <trkpt lat="39.5301160" lon="-6.4079880">
        <ele>355.4</ele>
        <time>2021-10-17T12:20:07Z</time>
      </trkpt>
      <trkpt lat="39.5300090" lon="-6.4078690">
        <ele>355.4</ele>
        <time>2021-10-17T12:20:10Z</time>
      </trkpt>
      <trkpt lat="39.5299220" lon="-6.4077730">
        <ele>355.2</ele>
        <time>2021-10-17T12:20:12Z</time>
      </trkpt>
      <trkpt lat="39.5297580" lon="-6.4076310">
        <ele>354.6</ele>
        <time>2021-10-17T12:20:15Z</time>
      </trkpt>
      <trkpt lat="39.5296340" lon="-6.4075310">
        <ele>353.8</ele>
        <time>2021-10-17T12:20:17Z</time>
      </trkpt>
      <trkpt lat="39.5295680" lon="-6.4074790">
        <ele>353.6</ele>
        <time>2021-10-17T12:20:18Z</time>
      </trkpt>
      <trkpt lat="39.5293600" lon="-6.4073150">
        <ele>352.4</ele>
        <time>2021-10-17T12:20:21Z</time>
      </trkpt>
      <trkpt lat="39.5291540" lon="-6.4071270">
        <ele>351.0</ele>
        <time>2021-10-17T12:20:24Z</time>
      </trkpt>
      <trkpt lat="39.5290250" lon="-6.4070080">
        <ele>349.6</ele>
        <time>2021-10-17T12:20:26Z</time>
      </trkpt>
      <trkpt lat="39.5288010" lon="-6.4067750">
        <ele>348.4</ele>
        <time>2021-10-17T12:20:30Z</time>
      </trkpt>
      <trkpt lat="39.5287620" lon="-6.4067200">
        <ele>348.2</ele>
        <time>2021-10-17T12:20:31Z</time>
      </trkpt>
      <trkpt lat="39.5286610" lon="-6.4065490">
        <ele>347.6</ele>
        <time>2021-10-17T12:20:34Z</time>
      </trkpt>
      <trkpt lat="39.5285200" lon="-6.4063460">
        <ele>347.6</ele>
        <time>2021-10-17T12:20:38Z</time>
      </trkpt>
      <trkpt lat="39.5283760" lon="-6.4061950">
        <ele>348.2</ele>
        <time>2021-10-17T12:20:42Z</time>
      </trkpt>
      <trkpt lat="39.5283400" lon="-6.4061660">
        <ele>348.4</ele>
        <time>2021-10-17T12:20:43Z</time>
      </trkpt>
      <trkpt lat="39.5282160" lon="-6.4060780">
        <ele>349.8</ele>
        <time>2021-10-17T12:20:47Z</time>
      </trkpt>
      <trkpt lat="39.5281580" lon="-6.4060420">
        <ele>350.0</ele>
        <time>2021-10-17T12:20:49Z</time>
      </trkpt>
      <trkpt lat="39.5280680" lon="-6.4059890">
        <ele>350.8</ele>
        <time>2021-10-17T12:20:52Z</time>
      </trkpt>
      <trkpt lat="39.5280360" lon="-6.4059720">
        <ele>350.8</ele>
        <time>2021-10-17T12:20:53Z</time>
      </trkpt>
      <trkpt lat="39.5278750" lon="-6.4058880">
        <ele>351.4</ele>
        <time>2021-10-17T12:20:58Z</time>
      </trkpt>
      <trkpt lat="39.5278090" lon="-6.4058530">
        <ele>351.6</ele>
        <time>2021-10-17T12:21:00Z</time>
      </trkpt>
      <trkpt lat="39.5275890" lon="-6.4057180">
        <ele>351.8</ele>
        <time>2021-10-17T12:21:06Z</time>
      </trkpt>
      <trkpt lat="39.5275460" lon="-6.4056970">
        <ele>351.8</ele>
        <time>2021-10-17T12:21:07Z</time>
      </trkpt>
      <trkpt lat="39.5274580" lon="-6.4056540">
        <ele>351.8</ele>
        <time>2021-10-17T12:21:09Z</time>
      </trkpt>
      <trkpt lat="39.5273660" lon="-6.4055950">
        <ele>351.8</ele>
        <time>2021-10-17T12:21:11Z</time>
      </trkpt>
      <trkpt lat="39.5273240" lon="-6.4055580">
        <ele>351.6</ele>
        <time>2021-10-17T12:21:12Z</time>
      </trkpt>
      <trkpt lat="39.5272040" lon="-6.4054410">
        <ele>351.6</ele>
        <time>2021-10-17T12:21:15Z</time>
      </trkpt>
      <trkpt lat="39.5270980" lon="-6.4053160">
        <ele>351.4</ele>
        <time>2021-10-17T12:21:18Z</time>
      </trkpt>
      <trkpt lat="39.5269390" lon="-6.4051120">
        <ele>351.8</ele>
        <time>2021-10-17T12:21:24Z</time>
      </trkpt>
      <trkpt lat="39.5268910" lon="-6.4050600">
        <ele>352.0</ele>
        <time>2021-10-17T12:21:26Z</time>
      </trkpt>
      <trkpt lat="39.5267600" lon="-6.4049090">
        <ele>353.0</ele>
        <time>2021-10-17T12:21:32Z</time>
      </trkpt>
      <trkpt lat="39.5266520" lon="-6.4047870">
        <ele>353.6</ele>
        <time>2021-10-17T12:21:37Z</time>
      </trkpt>
      <trkpt lat="39.5266100" lon="-6.4047450">
        <ele>353.8</ele>
        <time>2021-10-17T12:21:39Z</time>
      </trkpt>
      <trkpt lat="39.5265630" lon="-6.4046980">
        <ele>354.2</ele>
        <time>2021-10-17T12:21:41Z</time>
      </trkpt>
      <trkpt lat="39.5264360" lon="-6.4045880">
        <ele>354.8</ele>
        <time>2021-10-17T12:21:47Z</time>
      </trkpt>
      <trkpt lat="39.5263650" lon="-6.4045230">
        <ele>355.0</ele>
        <time>2021-10-17T12:21:50Z</time>
      </trkpt>
      <trkpt lat="39.5263230" lon="-6.4044890">
        <ele>355.6</ele>
        <time>2021-10-17T12:21:52Z</time>
      </trkpt>
      <trkpt lat="39.5261110" lon="-6.4043440">
        <ele>356.2</ele>
        <time>2021-10-17T12:22:00Z</time>
      </trkpt>
      <trkpt lat="39.5260840" lon="-6.4043260">
        <ele>356.2</ele>
        <time>2021-10-17T12:22:01Z</time>
      </trkpt>
      <trkpt lat="39.5260290" lon="-6.4042870">
        <ele>356.4</ele>
        <time>2021-10-17T12:22:03Z</time>
      </trkpt>
      <trkpt lat="39.5258570" lon="-6.4041740">
        <ele>356.8</ele>
        <time>2021-10-17T12:22:09Z</time>
      </trkpt>
      <trkpt lat="39.5258280" lon="-6.4041520">
        <ele>356.8</ele>
        <time>2021-10-17T12:22:10Z</time>
      </trkpt>
      <trkpt lat="39.5255670" lon="-6.4039400">
        <ele>357.0</ele>
        <time>2021-10-17T12:22:19Z</time>
      </trkpt>
      <trkpt lat="39.5255080" lon="-6.4038900">
        <ele>357.0</ele>
        <time>2021-10-17T12:22:21Z</time>
      </trkpt>
      <trkpt lat="39.5253170" lon="-6.4037500">
        <ele>357.2</ele>
        <time>2021-10-17T12:22:28Z</time>
      </trkpt>
      <trkpt lat="39.5252130" lon="-6.4036890">
        <ele>357.6</ele>
        <time>2021-10-17T12:22:32Z</time>
      </trkpt>
      <trkpt lat="39.5251700" lon="-6.4036620">
        <ele>357.8</ele>
        <time>2021-10-17T12:22:34Z</time>
      </trkpt>
      <trkpt lat="39.5251050" lon="-6.4036190">
        <ele>358.0</ele>
        <time>2021-10-17T12:22:37Z</time>
      </trkpt>
      <trkpt lat="39.5250200" lon="-6.4035600">
        <ele>358.0</ele>
        <time>2021-10-17T12:22:40Z</time>
      </trkpt>
      <trkpt lat="39.5248950" lon="-6.4034530">
        <ele>358.0</ele>
        <time>2021-10-17T12:22:44Z</time>
      </trkpt>
      <trkpt lat="39.5246640" lon="-6.4032450">
        <ele>357.6</ele>
        <time>2021-10-17T12:22:51Z</time>
      </trkpt>
      <trkpt lat="39.5243270" lon="-6.4029160">
        <ele>356.8</ele>
        <time>2021-10-17T12:23:00Z</time>
      </trkpt>
      <trkpt lat="39.5242880" lon="-6.4028700">
        <ele>356.4</ele>
        <time>2021-10-17T12:23:01Z</time>
      </trkpt>
      <trkpt lat="39.5241680" lon="-6.4027350">
        <ele>356.0</ele>
        <time>2021-10-17T12:23:04Z</time>
      </trkpt>
      <trkpt lat="39.5239940" lon="-6.4025690">
        <ele>355.4</ele>
        <time>2021-10-17T12:23:08Z</time>
      </trkpt>
      <trkpt lat="39.5239520" lon="-6.4025310">
        <ele>355.2</ele>
        <time>2021-10-17T12:23:09Z</time>
      </trkpt>
      <trkpt lat="39.5237510" lon="-6.4023360">
        <ele>354.4</ele>
        <time>2021-10-17T12:23:14Z</time>
      </trkpt>
      <trkpt lat="39.5236830" lon="-6.4022650">
        <ele>354.4</ele>
        <time>2021-10-17T12:23:16Z</time>
      </trkpt>
      <trkpt lat="39.5236130" lon="-6.4021800">
        <ele>354.2</ele>
        <time>2021-10-17T12:23:18Z</time>
      </trkpt>
      <trkpt lat="39.5235490" lon="-6.4020820">
        <ele>354.0</ele>
        <time>2021-10-17T12:23:20Z</time>
      </trkpt>
      <trkpt lat="39.5234500" lon="-6.4018890">
        <ele>353.8</ele>
        <time>2021-10-17T12:23:23Z</time>
      </trkpt>
      <trkpt lat="39.5232810" lon="-6.4016140">
        <ele>353.4</ele>
        <time>2021-10-17T12:23:27Z</time>
      </trkpt>
      <trkpt lat="39.5231800" lon="-6.4014870">
        <ele>352.2</ele>
        <time>2021-10-17T12:23:29Z</time>
      </trkpt>
      <trkpt lat="39.5230630" lon="-6.4013890">
        <ele>351.6</ele>
        <time>2021-10-17T12:23:31Z</time>
      </trkpt>
      <trkpt lat="39.5229990" lon="-6.4013520">
        <ele>351.2</ele>
        <time>2021-10-17T12:23:32Z</time>
      </trkpt>
      <trkpt lat="39.5229330" lon="-6.4013170">
        <ele>350.6</ele>
        <time>2021-10-17T12:23:33Z</time>
      </trkpt>
      <trkpt lat="39.5228660" lon="-6.4012840">
        <ele>350.0</ele>
        <time>2021-10-17T12:23:34Z</time>
      </trkpt>
      <trkpt lat="39.5226590" lon="-6.4011840">
        <ele>348.8</ele>
        <time>2021-10-17T12:23:37Z</time>
      </trkpt>
      <trkpt lat="39.5223840" lon="-6.4010570">
        <ele>347.4</ele>
        <time>2021-10-17T12:23:41Z</time>
      </trkpt>
      <trkpt lat="39.5220810" lon="-6.4010300">
        <ele>346.0</ele>
        <time>2021-10-17T12:23:45Z</time>
      </trkpt>
      <trkpt lat="39.5220100" lon="-6.4010290">
        <ele>345.6</ele>
        <time>2021-10-17T12:23:46Z</time>
      </trkpt>
      <trkpt lat="39.5219430" lon="-6.4010230">
        <ele>345.2</ele>
        <time>2021-10-17T12:23:47Z</time>
      </trkpt>
      <trkpt lat="39.5218210" lon="-6.4009820">
        <ele>344.8</ele>
        <time>2021-10-17T12:23:49Z</time>
      </trkpt>
      <trkpt lat="39.5217690" lon="-6.4009470">
        <ele>344.6</ele>
        <time>2021-10-17T12:23:50Z</time>
      </trkpt>
      <trkpt lat="39.5217230" lon="-6.4009080">
        <ele>344.0</ele>
        <time>2021-10-17T12:23:51Z</time>
      </trkpt>
      <trkpt lat="39.5216830" lon="-6.4008630">
        <ele>343.8</ele>
        <time>2021-10-17T12:23:52Z</time>
      </trkpt>
      <trkpt lat="39.5216460" lon="-6.4008130">
        <ele>343.6</ele>
        <time>2021-10-17T12:23:53Z</time>
      </trkpt>
      <trkpt lat="39.5216120" lon="-6.4007620">
        <ele>343.4</ele>
        <time>2021-10-17T12:23:54Z</time>
      </trkpt>
      <trkpt lat="39.5214650" lon="-6.4005720">
        <ele>343.0</ele>
        <time>2021-10-17T12:23:58Z</time>
      </trkpt>
      <trkpt lat="39.5213410" lon="-6.4004280">
        <ele>343.0</ele>
        <time>2021-10-17T12:24:01Z</time>
      </trkpt>
      <trkpt lat="39.5211540" lon="-6.4002170">
        <ele>343.0</ele>
        <time>2021-10-17T12:24:05Z</time>
      </trkpt>
      <trkpt lat="39.5209780" lon="-6.4000220">
        <ele>342.6</ele>
        <time>2021-10-17T12:24:09Z</time>
      </trkpt>
      <trkpt lat="39.5209310" lon="-6.3999740">
        <ele>342.6</ele>
        <time>2021-10-17T12:24:10Z</time>
      </trkpt>
      <trkpt lat="39.5208350" lon="-6.3998920">
        <ele>342.4</ele>
        <time>2021-10-17T12:24:12Z</time>
      </trkpt>
      <trkpt lat="39.5206270" lon="-6.3997730">
        <ele>342.2</ele>
        <time>2021-10-17T12:24:16Z</time>
      </trkpt>
      <trkpt lat="39.5202820" lon="-6.3995950">
        <ele>342.0</ele>
        <time>2021-10-17T12:24:23Z</time>
      </trkpt>
      <trkpt lat="39.5199720" lon="-6.3993900">
        <ele>342.6</ele>
        <time>2021-10-17T12:24:31Z</time>
      </trkpt>
      <trkpt lat="39.5197830" lon="-6.3992520">
        <ele>343.4</ele>
        <time>2021-10-17T12:24:36Z</time>
      </trkpt>
      <trkpt lat="39.5196700" lon="-6.3991780">
        <ele>343.6</ele>
        <time>2021-10-17T12:24:39Z</time>
      </trkpt>
      <trkpt lat="39.5196350" lon="-6.3991540">
        <ele>343.6</ele>
        <time>2021-10-17T12:24:40Z</time>
      </trkpt>
      <trkpt lat="39.5195330" lon="-6.3990900">
        <ele>343.8</ele>
        <time>2021-10-17T12:24:43Z</time>
      </trkpt>
      <trkpt lat="39.5192860" lon="-6.3989470">
        <ele>344.8</ele>
        <time>2021-10-17T12:24:51Z</time>
      </trkpt>
      <trkpt lat="39.5191180" lon="-6.3988270">
        <ele>345.4</ele>
        <time>2021-10-17T12:24:57Z</time>
      </trkpt>
      <trkpt lat="39.5190330" lon="-6.3987600">
        <ele>345.8</ele>
        <time>2021-10-17T12:25:00Z</time>
      </trkpt>
      <trkpt lat="39.5189760" lon="-6.3987150">
        <ele>346.0</ele>
        <time>2021-10-17T12:25:02Z</time>
      </trkpt>
      <trkpt lat="39.5188250" lon="-6.3985820">
        <ele>346.2</ele>
        <time>2021-10-17T12:25:08Z</time>
      </trkpt>
      <trkpt lat="39.5187600" lon="-6.3985150">
        <ele>346.6</ele>
        <time>2021-10-17T12:25:11Z</time>
      </trkpt>
      <trkpt lat="39.5186720" lon="-6.3984290">
        <ele>347.0</ele>
        <time>2021-10-17T12:25:15Z</time>
      </trkpt>
      <trkpt lat="39.5186230" lon="-6.3983940">
        <ele>347.2</ele>
        <time>2021-10-17T12:25:17Z</time>
      </trkpt>
      <trkpt lat="39.5185760" lon="-6.3983560">
        <ele>347.2</ele>
        <time>2021-10-17T12:25:19Z</time>
      </trkpt>
      <trkpt lat="39.5185290" lon="-6.3983230">
        <ele>347.2</ele>
        <time>2021-10-17T12:25:21Z</time>
      </trkpt>
      <trkpt lat="39.5184440" lon="-6.3982660">
        <ele>347.2</ele>
        <time>2021-10-17T12:25:24Z</time>
      </trkpt>
      <trkpt lat="39.5183410" lon="-6.3981900">
        <ele>347.0</ele>
        <time>2021-10-17T12:25:27Z</time>
      </trkpt>
      <trkpt lat="39.5182180" lon="-6.3981100">
        <ele>346.8</ele>
        <time>2021-10-17T12:25:30Z</time>
      </trkpt>
      <trkpt lat="39.5180690" lon="-6.3980430">
        <ele>346.6</ele>
        <time>2021-10-17T12:25:33Z</time>
      </trkpt>
      <trkpt lat="39.5179090" lon="-6.3979680">
        <ele>346.0</ele>
        <time>2021-10-17T12:25:36Z</time>
      </trkpt>
      <trkpt lat="39.5177110" lon="-6.3979100">
        <ele>344.8</ele>
        <time>2021-10-17T12:25:40Z</time>
      </trkpt>
      <trkpt lat="39.5175730" lon="-6.3978920">
        <ele>343.8</ele>
        <time>2021-10-17T12:25:43Z</time>
      </trkpt>
      <trkpt lat="39.5175290" lon="-6.3978820">
        <ele>343.2</ele>
        <time>2021-10-17T12:25:44Z</time>
      </trkpt>
      <trkpt lat="39.5174510" lon="-6.3978590">
        <ele>342.8</ele>
        <time>2021-10-17T12:25:46Z</time>
      </trkpt>
      <trkpt lat="39.5174200" lon="-6.3978520">
        <ele>342.4</ele>
        <time>2021-10-17T12:25:47Z</time>
      </trkpt>
      <trkpt lat="39.5173630" lon="-6.3978350">
        <ele>341.8</ele>
        <time>2021-10-17T12:25:49Z</time>
      </trkpt>
      <trkpt lat="39.5172120" lon="-6.3978010">
        <ele>341.0</ele>
        <time>2021-10-17T12:25:54Z</time>
      </trkpt>
      <trkpt lat="39.5171240" lon="-6.3977800">
        <ele>341.0</ele>
        <time>2021-10-17T12:25:57Z</time>
      </trkpt>
      <trkpt lat="39.5170410" lon="-6.3977550">
        <ele>341.2</ele>
        <time>2021-10-17T12:26:00Z</time>
      </trkpt>
      <trkpt lat="39.5169650" lon="-6.3977320">
        <ele>341.6</ele>
        <time>2021-10-17T12:26:03Z</time>
      </trkpt>
      <trkpt lat="39.5168070" lon="-6.3976490">
        <ele>342.6</ele>
        <time>2021-10-17T12:26:10Z</time>
      </trkpt>
      <trkpt lat="39.5167850" lon="-6.3976390">
        <ele>342.8</ele>
        <time>2021-10-17T12:26:11Z</time>
      </trkpt>
      <trkpt lat="39.5166720" lon="-6.3975670">
        <ele>343.4</ele>
        <time>2021-10-17T12:26:16Z</time>
      </trkpt>
      <trkpt lat="39.5165990" lon="-6.3975270">
        <ele>343.8</ele>
        <time>2021-10-17T12:26:19Z</time>
      </trkpt>
      <trkpt lat="39.5165700" lon="-6.3975100">
        <ele>343.8</ele>
        <time>2021-10-17T12:26:20Z</time>
      </trkpt>
      <trkpt lat="39.5165510" lon="-6.3974950">
        <ele>343.8</ele>
        <time>2021-10-17T12:26:21Z</time>
      </trkpt>
      <trkpt lat="39.5164750" lon="-6.3974450">
        <ele>344.0</ele>
        <time>2021-10-17T12:26:24Z</time>
      </trkpt>
      <trkpt lat="39.5164040" lon="-6.3973930">
        <ele>344.2</ele>
        <time>2021-10-17T12:26:27Z</time>
      </trkpt>
      <trkpt lat="39.5163590" lon="-6.3973630">
        <ele>344.2</ele>
        <time>2021-10-17T12:26:29Z</time>
      </trkpt>
      <trkpt lat="39.5162850" lon="-6.3973260">
        <ele>344.4</ele>
        <time>2021-10-17T12:26:32Z</time>
      </trkpt>
      <trkpt lat="39.5161860" lon="-6.3973040">
        <ele>344.8</ele>
        <time>2021-10-17T12:26:36Z</time>
      </trkpt>
      <trkpt lat="39.5161610" lon="-6.3972990">
        <ele>344.8</ele>
        <time>2021-10-17T12:26:37Z</time>
      </trkpt>
      <trkpt lat="39.5161370" lon="-6.3972930">
        <ele>345.2</ele>
        <time>2021-10-17T12:26:38Z</time>
      </trkpt>
      <trkpt lat="39.5159250" lon="-6.3972690">
        <ele>345.8</ele>
        <time>2021-10-17T12:26:47Z</time>
      </trkpt>
      <trkpt lat="39.5159040" lon="-6.3972620">
        <ele>346.0</ele>
        <time>2021-10-17T12:26:48Z</time>
      </trkpt>
      <trkpt lat="39.5158610" lon="-6.3972500">
        <ele>346.2</ele>
        <time>2021-10-17T12:26:50Z</time>
      </trkpt>
      <trkpt lat="39.5157970" lon="-6.3972460">
        <ele>346.4</ele>
        <time>2021-10-17T12:26:53Z</time>
      </trkpt>
      <trkpt lat="39.5157340" lon="-6.3972390">
        <ele>346.6</ele>
        <time>2021-10-17T12:26:56Z</time>
      </trkpt>
      <trkpt lat="39.5156700" lon="-6.3972210">
        <ele>347.0</ele>
        <time>2021-10-17T12:26:59Z</time>
      </trkpt>
      <trkpt lat="39.5156280" lon="-6.3972150">
        <ele>347.0</ele>
        <time>2021-10-17T12:27:01Z</time>
      </trkpt>
      <trkpt lat="39.5155860" lon="-6.3972090">
        <ele>347.0</ele>
        <time>2021-10-17T12:27:03Z</time>
      </trkpt>
      <trkpt lat="39.5155020" lon="-6.3971880">
        <ele>347.6</ele>
        <time>2021-10-17T12:27:07Z</time>
      </trkpt>
      <trkpt lat="39.5154390" lon="-6.3971810">
        <ele>348.0</ele>
        <time>2021-10-17T12:27:10Z</time>
      </trkpt>
      <trkpt lat="39.5154130" lon="-6.3971770">
        <ele>348.0</ele>
        <time>2021-10-17T12:27:11Z</time>
      </trkpt>
      <trkpt lat="39.5153950" lon="-6.3971730">
        <ele>348.2</ele>
        <time>2021-10-17T12:27:12Z</time>
      </trkpt>
      <trkpt lat="39.5153520" lon="-6.3971620">
        <ele>348.6</ele>
        <time>2021-10-17T12:27:14Z</time>
      </trkpt>
      <trkpt lat="39.5152860" lon="-6.3971440">
        <ele>348.8</ele>
        <time>2021-10-17T12:27:17Z</time>
      </trkpt>
      <trkpt lat="39.5152250" lon="-6.3971330">
        <ele>349.4</ele>
        <time>2021-10-17T12:27:20Z</time>
      </trkpt>
      <trkpt lat="39.5151830" lon="-6.3971240">
        <ele>349.6</ele>
        <time>2021-10-17T12:27:22Z</time>
      </trkpt>
      <trkpt lat="39.5151180" lon="-6.3971110">
        <ele>349.8</ele>
        <time>2021-10-17T12:27:25Z</time>
      </trkpt>
      <trkpt lat="39.5150560" lon="-6.3970980">
        <ele>350.0</ele>
        <time>2021-10-17T12:27:28Z</time>
      </trkpt>
      <trkpt lat="39.5149940" lon="-6.3970880">
        <ele>350.2</ele>
        <time>2021-10-17T12:27:31Z</time>
      </trkpt>
      <trkpt lat="39.5149720" lon="-6.3970850">
        <ele>350.2</ele>
        <time>2021-10-17T12:27:32Z</time>
      </trkpt>
      <trkpt lat="39.5149510" lon="-6.3970830">
        <ele>350.4</ele>
        <time>2021-10-17T12:27:33Z</time>
      </trkpt>
      <trkpt lat="39.5147940" lon="-6.3970530">
        <ele>351.2</ele>
        <time>2021-10-17T12:27:41Z</time>
      </trkpt>
      <trkpt lat="39.5147330" lon="-6.3970360">
        <ele>351.6</ele>
        <time>2021-10-17T12:27:44Z</time>
      </trkpt>
      <trkpt lat="39.5146370" lon="-6.3970190">
        <ele>352.2</ele>
        <time>2021-10-17T12:27:49Z</time>
      </trkpt>
      <trkpt lat="39.5146170" lon="-6.3970150">
        <ele>352.6</ele>
        <time>2021-10-17T12:27:50Z</time>
      </trkpt>
      <trkpt lat="39.5145790" lon="-6.3970070">
        <ele>352.8</ele>
        <time>2021-10-17T12:27:52Z</time>
      </trkpt>
      <trkpt lat="39.5145410" lon="-6.3969960">
        <ele>353.0</ele>
        <time>2021-10-17T12:27:54Z</time>
      </trkpt>
      <trkpt lat="39.5144840" lon="-6.3969830">
        <ele>353.6</ele>
        <time>2021-10-17T12:27:57Z</time>
      </trkpt>
      <trkpt lat="39.5144450" lon="-6.3969770">
        <ele>353.8</ele>
        <time>2021-10-17T12:27:59Z</time>
      </trkpt>
      <trkpt lat="39.5144070" lon="-6.3969720">
        <ele>354.0</ele>
        <time>2021-10-17T12:28:01Z</time>
      </trkpt>
      <trkpt lat="39.5143500" lon="-6.3969640">
        <ele>354.2</ele>
        <time>2021-10-17T12:28:04Z</time>
      </trkpt>
      <trkpt lat="39.5142500" lon="-6.3969510">
        <ele>354.6</ele>
        <time>2021-10-17T12:28:09Z</time>
      </trkpt>
      <trkpt lat="39.5141930" lon="-6.3969390">
        <ele>354.8</ele>
        <time>2021-10-17T12:28:12Z</time>
      </trkpt>
      <trkpt lat="39.5141580" lon="-6.3969170">
        <ele>355.0</ele>
        <time>2021-10-17T12:28:14Z</time>
      </trkpt>
      <trkpt lat="39.5141160" lon="-6.3969050">
        <ele>355.2</ele>
        <time>2021-10-17T12:28:16Z</time>
      </trkpt>
      <trkpt lat="39.5140750" lon="-6.3969020">
        <ele>355.2</ele>
        <time>2021-10-17T12:28:18Z</time>
      </trkpt>
      <trkpt lat="39.5140160" lon="-6.3969010">
        <ele>355.4</ele>
        <time>2021-10-17T12:28:21Z</time>
      </trkpt>
      <trkpt lat="39.5139770" lon="-6.3968920">
        <ele>355.6</ele>
        <time>2021-10-17T12:28:23Z</time>
      </trkpt>
      <trkpt lat="39.5139170" lon="-6.3968710">
        <ele>355.8</ele>
        <time>2021-10-17T12:28:26Z</time>
      </trkpt>
      <trkpt lat="39.5138990" lon="-6.3968640">
        <ele>356.0</ele>
        <time>2021-10-17T12:28:27Z</time>
      </trkpt>
      <trkpt lat="39.5137510" lon="-6.3968090">
        <ele>356.4</ele>
        <time>2021-10-17T12:28:35Z</time>
      </trkpt>
      <trkpt lat="39.5137330" lon="-6.3968030">
        <ele>356.6</ele>
        <time>2021-10-17T12:28:36Z</time>
      </trkpt>
      <trkpt lat="39.5136780" lon="-6.3967710">
        <ele>356.8</ele>
        <time>2021-10-17T12:28:39Z</time>
      </trkpt>
      <trkpt lat="39.5136230" lon="-6.3967370">
        <ele>357.0</ele>
        <time>2021-10-17T12:28:42Z</time>
      </trkpt>
      <trkpt lat="39.5135680" lon="-6.3966900">
        <ele>357.2</ele>
        <time>2021-10-17T12:28:45Z</time>
      </trkpt>
      <trkpt lat="39.5134520" lon="-6.3966010">
        <ele>358.0</ele>
        <time>2021-10-17T12:28:52Z</time>
      </trkpt>
      <trkpt lat="39.5133690" lon="-6.3965250">
        <ele>358.4</ele>
        <time>2021-10-17T12:28:57Z</time>
      </trkpt>
      <trkpt lat="39.5133230" lon="-6.3964660">
        <ele>358.6</ele>
        <time>2021-10-17T12:29:00Z</time>
      </trkpt>
      <trkpt lat="39.5132220" lon="-6.3963690">
        <ele>359.0</ele>
        <time>2021-10-17T12:29:06Z</time>
      </trkpt>
      <trkpt lat="39.5132050" lon="-6.3963520">
        <ele>359.0</ele>
        <time>2021-10-17T12:29:07Z</time>
      </trkpt>
      <trkpt lat="39.5131890" lon="-6.3963360">
        <ele>359.2</ele>
        <time>2021-10-17T12:29:08Z</time>
      </trkpt>
      <trkpt lat="39.5131170" lon="-6.3962610">
        <ele>359.4</ele>
        <time>2021-10-17T12:29:12Z</time>
      </trkpt>
      <trkpt lat="39.5130530" lon="-6.3961880">
        <ele>359.6</ele>
        <time>2021-10-17T12:29:15Z</time>
      </trkpt>
      <trkpt lat="39.5128890" lon="-6.3960230">
        <ele>359.8</ele>
        <time>2021-10-17T12:29:21Z</time>
      </trkpt>
      <trkpt lat="39.5126870" lon="-6.3957870">
        <ele>359.0</ele>
        <time>2021-10-17T12:29:28Z</time>
      </trkpt>
      <trkpt lat="39.5125590" lon="-6.3956410">
        <ele>359.0</ele>
        <time>2021-10-17T12:29:32Z</time>
      </trkpt>
      <trkpt lat="39.5123860" lon="-6.3954470">
        <ele>358.6</ele>
        <time>2021-10-17T12:29:37Z</time>
      </trkpt>
      <trkpt lat="39.5123500" lon="-6.3954080">
        <ele>358.2</ele>
        <time>2021-10-17T12:29:38Z</time>
      </trkpt>
      <trkpt lat="39.5122440" lon="-6.3952880">
        <ele>358.2</ele>
        <time>2021-10-17T12:29:41Z</time>
      </trkpt>
      <trkpt lat="39.5120980" lon="-6.3951230">
        <ele>357.8</ele>
        <time>2021-10-17T12:29:45Z</time>
      </trkpt>
      <trkpt lat="39.5119840" lon="-6.3950060">
        <ele>357.4</ele>
        <time>2021-10-17T12:29:48Z</time>
      </trkpt>
      <trkpt lat="39.5118740" lon="-6.3948780">
        <ele>357.0</ele>
        <time>2021-10-17T12:29:51Z</time>
      </trkpt>
      <trkpt lat="39.5116540" lon="-6.3946380">
        <ele>356.6</ele>
        <time>2021-10-17T12:29:57Z</time>
      </trkpt>
      <trkpt lat="39.5114910" lon="-6.3944580">
        <ele>356.0</ele>
        <time>2021-10-17T12:30:02Z</time>
      </trkpt>
      <trkpt lat="39.5114580" lon="-6.3944220">
        <ele>356.0</ele>
        <time>2021-10-17T12:30:03Z</time>
      </trkpt>
      <trkpt lat="39.5113870" lon="-6.3943660">
        <ele>355.8</ele>
        <time>2021-10-17T12:30:05Z</time>
      </trkpt>
      <trkpt lat="39.5111330" lon="-6.3942500">
        <ele>355.2</ele>
        <time>2021-10-17T12:30:12Z</time>
      </trkpt>
      <trkpt lat="39.5109850" lon="-6.3941830">
        <ele>355.2</ele>
        <time>2021-10-17T12:30:16Z</time>
      </trkpt>
      <trkpt lat="39.5108100" lon="-6.3941150">
        <ele>355.4</ele>
        <time>2021-10-17T12:30:21Z</time>
      </trkpt>
      <trkpt lat="39.5105160" lon="-6.3940100">
        <ele>355.6</ele>
        <time>2021-10-17T12:30:30Z</time>
      </trkpt>
      <trkpt lat="39.5101520" lon="-6.3938600">
        <ele>355.0</ele>
        <time>2021-10-17T12:30:39Z</time>
      </trkpt>
      <trkpt lat="39.5101090" lon="-6.3938390">
        <ele>354.8</ele>
        <time>2021-10-17T12:30:40Z</time>
      </trkpt>
      <trkpt lat="39.5098750" lon="-6.3937380">
        <ele>354.0</ele>
        <time>2021-10-17T12:30:45Z</time>
      </trkpt>
      <trkpt lat="39.5098220" lon="-6.3937160">
        <ele>353.8</ele>
        <time>2021-10-17T12:30:46Z</time>
      </trkpt>
      <trkpt lat="39.5096360" lon="-6.3936650">
        <ele>352.8</ele>
        <time>2021-10-17T12:30:49Z</time>
      </trkpt>
      <trkpt lat="39.5095020" lon="-6.3936460">
        <ele>352.4</ele>
        <time>2021-10-17T12:30:51Z</time>
      </trkpt>
      <trkpt lat="39.5094370" lon="-6.3936290">
        <ele>352.0</ele>
        <time>2021-10-17T12:30:52Z</time>
      </trkpt>
      <trkpt lat="39.5093640" lon="-6.3935970">
        <ele>351.8</ele>
        <time>2021-10-17T12:30:53Z</time>
      </trkpt>
      <trkpt lat="39.5092640" lon="-6.3935370">
        <ele>351.2</ele>
        <time>2021-10-17T12:30:55Z</time>
      </trkpt>
      <trkpt lat="39.5091570" lon="-6.3934820">
        <ele>350.6</ele>
        <time>2021-10-17T12:30:57Z</time>
      </trkpt>
      <trkpt lat="39.5090500" lon="-6.3934500">
        <ele>350.4</ele>
        <time>2021-10-17T12:30:59Z</time>
      </trkpt>
      <trkpt lat="39.5089060" lon="-6.3933990">
        <ele>349.8</ele>
        <time>2021-10-17T12:31:02Z</time>
      </trkpt>
      <trkpt lat="39.5088410" lon="-6.3933640">
        <ele>349.8</ele>
        <time>2021-10-17T12:31:04Z</time>
      </trkpt>
      <trkpt lat="39.5087170" lon="-6.3932820">
        <ele>349.4</ele>
        <time>2021-10-17T12:31:08Z</time>
      </trkpt>
      <trkpt lat="39.5086560" lon="-6.3932380">
        <ele>349.4</ele>
        <time>2021-10-17T12:31:10Z</time>
      </trkpt>
      <trkpt lat="39.5085230" lon="-6.3931460">
        <ele>349.4</ele>
        <time>2021-10-17T12:31:14Z</time>
      </trkpt>
      <trkpt lat="39.5084080" lon="-6.3930890">
        <ele>349.4</ele>
        <time>2021-10-17T12:31:17Z</time>
      </trkpt>
      <trkpt lat="39.5081390" lon="-6.3929820">
        <ele>348.6</ele>
        <time>2021-10-17T12:31:23Z</time>
      </trkpt>
      <trkpt lat="39.5080850" lon="-6.3929680">
        <ele>348.4</ele>
        <time>2021-10-17T12:31:24Z</time>
      </trkpt>
      <trkpt lat="39.5080390" lon="-6.3929660">
        <ele>348.2</ele>
        <time>2021-10-17T12:31:25Z</time>
      </trkpt>
      <trkpt lat="39.5079320" lon="-6.3929640">
        <ele>348.0</ele>
        <time>2021-10-17T12:31:28Z</time>
      </trkpt>
      <trkpt lat="39.5078550" lon="-6.3929350">
        <ele>347.4</ele>
        <time>2021-10-17T12:31:30Z</time>
      </trkpt>
      <trkpt lat="39.5077570" lon="-6.3928720">
        <ele>346.8</ele>
        <time>2021-10-17T12:31:33Z</time>
      </trkpt>
      <trkpt lat="39.5075910" lon="-6.3927510">
        <ele>346.8</ele>
        <time>2021-10-17T12:31:39Z</time>
      </trkpt>
      <trkpt lat="39.5074420" lon="-6.3926570">
        <ele>347.8</ele>
        <time>2021-10-17T12:31:46Z</time>
      </trkpt>
      <trkpt lat="39.5074000" lon="-6.3925990">
        <ele>348.0</ele>
        <time>2021-10-17T12:31:51Z</time>
      </trkpt>
      <trkpt lat="39.5073990" lon="-6.3925950">
        <ele>348.2</ele>
        <time>2021-10-17T12:31:52Z</time>
      </trkpt>
      <trkpt lat="39.5073990" lon="-6.3925950">
        <ele>348.2</ele>
        <time>2021-10-17T12:31:53Z</time>
      </trkpt>
      <trkpt lat="39.5073980" lon="-6.3925660">
        <ele>348.4</ele>
        <time>2021-10-17T12:33:26Z</time>
      </trkpt>
      <trkpt lat="39.5074000" lon="-6.3925360">
        <ele>348.4</ele>
        <time>2021-10-17T12:33:27Z</time>
      </trkpt>
      <trkpt lat="39.5074010" lon="-6.3925030">
        <ele>348.4</ele>
        <time>2021-10-17T12:33:28Z</time>
      </trkpt>
      <trkpt lat="39.5074050" lon="-6.3923260">
        <ele>348.0</ele>
        <time>2021-10-17T12:33:32Z</time>
      </trkpt>
      <trkpt lat="39.5074210" lon="-6.3922770">
        <ele>347.8</ele>
        <time>2021-10-17T12:33:33Z</time>
      </trkpt>
      <trkpt lat="39.5074720" lon="-6.3921290">
        <ele>347.6</ele>
        <time>2021-10-17T12:33:37Z</time>
      </trkpt>
      <trkpt lat="39.5074600" lon="-6.3921010">
        <ele>347.4</ele>
        <time>2021-10-17T12:33:38Z</time>
      </trkpt>
      <trkpt lat="39.5074350" lon="-6.3920820">
        <ele>347.4</ele>
        <time>2021-10-17T12:33:39Z</time>
      </trkpt>
      <trkpt lat="39.5073370" lon="-6.3920290">
        <ele>347.6</ele>
        <time>2021-10-17T12:33:42Z</time>
      </trkpt>
      <trkpt lat="39.5071910" lon="-6.3919610">
        <ele>348.0</ele>
        <time>2021-10-17T12:33:46Z</time>
      </trkpt>
      <trkpt lat="39.5070690" lon="-6.3919070">
        <ele>348.2</ele>
        <time>2021-10-17T12:33:49Z</time>
      </trkpt>
      <trkpt lat="39.5069640" lon="-6.3918530">
        <ele>348.4</ele>
        <time>2021-10-17T12:33:52Z</time>
      </trkpt>
      <trkpt lat="39.5068930" lon="-6.3918170">
        <ele>348.4</ele>
        <time>2021-10-17T12:33:54Z</time>
      </trkpt>
      <trkpt lat="39.5067100" lon="-6.3917280">
        <ele>348.8</ele>
        <time>2021-10-17T12:34:00Z</time>
      </trkpt>
      <trkpt lat="39.5066730" lon="-6.3917100">
        <ele>349.0</ele>
        <time>2021-10-17T12:34:02Z</time>
      </trkpt>
      <trkpt lat="39.5066650" lon="-6.3917060">
        <ele>349.0</ele>
        <time>2021-10-17T12:34:05Z</time>
      </trkpt>
      <trkpt lat="39.5066080" lon="-6.3916810">
        <ele>349.2</ele>
        <time>2021-10-17T12:34:20Z</time>
      </trkpt>
      <trkpt lat="39.5065850" lon="-6.3916670">
        <ele>349.2</ele>
        <time>2021-10-17T12:34:21Z</time>
      </trkpt>
      <trkpt lat="39.5064350" lon="-6.3915900">
        <ele>349.2</ele>
        <time>2021-10-17T12:34:26Z</time>
      </trkpt>
      <trkpt lat="39.5061680" lon="-6.3914510">
        <ele>349.4</ele>
        <time>2021-10-17T12:34:34Z</time>
      </trkpt>
      <trkpt lat="39.5057970" lon="-6.3912680">
        <ele>349.8</ele>
        <time>2021-10-17T12:34:44Z</time>
      </trkpt>
      <trkpt lat="39.5056480" lon="-6.3911900">
        <ele>349.8</ele>
        <time>2021-10-17T12:34:48Z</time>
      </trkpt>
      <trkpt lat="39.5054260" lon="-6.3910750">
        <ele>350.0</ele>
        <time>2021-10-17T12:34:54Z</time>
      </trkpt>
      <trkpt lat="39.5049840" lon="-6.3908600">
        <ele>350.4</ele>
        <time>2021-10-17T12:35:06Z</time>
      </trkpt>
      <trkpt lat="39.5045720" lon="-6.3906480">
        <ele>350.8</ele>
        <time>2021-10-17T12:35:17Z</time>
      </trkpt>
      <trkpt lat="39.5045050" lon="-6.3906140">
        <ele>351.0</ele>
        <time>2021-10-17T12:35:19Z</time>
      </trkpt>
      <trkpt lat="39.5043170" lon="-6.3905170">
        <ele>351.2</ele>
        <time>2021-10-17T12:35:24Z</time>
      </trkpt>
      <trkpt lat="39.5042060" lon="-6.3904630">
        <ele>351.4</ele>
        <time>2021-10-17T12:35:27Z</time>
      </trkpt>
      <trkpt lat="39.5039850" lon="-6.3903530">
        <ele>352.0</ele>
        <time>2021-10-17T12:35:33Z</time>
      </trkpt>
      <trkpt lat="39.5038400" lon="-6.3902850">
        <ele>352.4</ele>
        <time>2021-10-17T12:35:37Z</time>
      </trkpt>
      <trkpt lat="39.5036270" lon="-6.3901760">
        <ele>352.6</ele>
        <time>2021-10-17T12:35:43Z</time>
      </trkpt>
      <trkpt lat="39.5035230" lon="-6.3901220">
        <ele>352.8</ele>
        <time>2021-10-17T12:35:46Z</time>
      </trkpt>
      <trkpt lat="39.5034200" lon="-6.3900750">
        <ele>353.0</ele>
        <time>2021-10-17T12:35:49Z</time>
      </trkpt>
      <trkpt lat="39.5033230" lon="-6.3900270">
        <ele>353.2</ele>
        <time>2021-10-17T12:35:52Z</time>
      </trkpt>
      <trkpt lat="39.5032260" lon="-6.3899790">
        <ele>353.6</ele>
        <time>2021-10-17T12:35:55Z</time>
      </trkpt>
      <trkpt lat="39.5031650" lon="-6.3899500">
        <ele>353.6</ele>
        <time>2021-10-17T12:35:57Z</time>
      </trkpt>
      <trkpt lat="39.5030760" lon="-6.3899040">
        <ele>354.0</ele>
        <time>2021-10-17T12:36:00Z</time>
      </trkpt>
      <trkpt lat="39.5028750" lon="-6.3897910">
        <ele>354.6</ele>
        <time>2021-10-17T12:36:07Z</time>
      </trkpt>
      <trkpt lat="39.5027550" lon="-6.3897330">
        <ele>355.0</ele>
        <time>2021-10-17T12:36:11Z</time>
      </trkpt>
      <trkpt lat="39.5026690" lon="-6.3896890">
        <ele>355.4</ele>
        <time>2021-10-17T12:36:14Z</time>
      </trkpt>
      <trkpt lat="39.5026110" lon="-6.3896620">
        <ele>355.6</ele>
        <time>2021-10-17T12:36:16Z</time>
      </trkpt>
      <trkpt lat="39.5024910" lon="-6.3896060">
        <ele>356.2</ele>
        <time>2021-10-17T12:36:20Z</time>
      </trkpt>
      <trkpt lat="39.5023140" lon="-6.3895140">
        <ele>356.6</ele>
        <time>2021-10-17T12:36:26Z</time>
      </trkpt>
      <trkpt lat="39.5022270" lon="-6.3894710">
        <ele>357.0</ele>
        <time>2021-10-17T12:36:29Z</time>
      </trkpt>
      <trkpt lat="39.5021990" lon="-6.3894580">
        <ele>357.2</ele>
        <time>2021-10-17T12:36:30Z</time>
      </trkpt>
      <trkpt lat="39.5021140" lon="-6.3894200">
        <ele>357.4</ele>
        <time>2021-10-17T12:36:33Z</time>
      </trkpt>
      <trkpt lat="39.5019670" lon="-6.3893480">
        <ele>358.2</ele>
        <time>2021-10-17T12:36:38Z</time>
      </trkpt>
      <trkpt lat="39.5019080" lon="-6.3893140">
        <ele>358.4</ele>
        <time>2021-10-17T12:36:40Z</time>
      </trkpt>
      <trkpt lat="39.5018200" lon="-6.3892730">
        <ele>358.8</ele>
        <time>2021-10-17T12:36:43Z</time>
      </trkpt>
      <trkpt lat="39.5017360" lon="-6.3892320">
        <ele>359.0</ele>
        <time>2021-10-17T12:36:46Z</time>
      </trkpt>
      <trkpt lat="39.5017060" lon="-6.3892180">
        <ele>359.2</ele>
        <time>2021-10-17T12:36:47Z</time>
      </trkpt>
      <trkpt lat="39.5016250" lon="-6.3891750">
        <ele>359.6</ele>
        <time>2021-10-17T12:36:50Z</time>
      </trkpt>
      <trkpt lat="39.5014670" lon="-6.3890920">
        <ele>360.4</ele>
        <time>2021-10-17T12:36:56Z</time>
      </trkpt>
      <trkpt lat="39.5014130" lon="-6.3890680">
        <ele>360.6</ele>
        <time>2021-10-17T12:36:58Z</time>
      </trkpt>
      <trkpt lat="39.5013320" lon="-6.3890280">
        <ele>360.8</ele>
        <time>2021-10-17T12:37:01Z</time>
      </trkpt>
      <trkpt lat="39.5012720" lon="-6.3889980">
        <ele>361.0</ele>
        <time>2021-10-17T12:37:03Z</time>
      </trkpt>
      <trkpt lat="39.5011670" lon="-6.3889410">
        <ele>361.4</ele>
        <time>2021-10-17T12:37:07Z</time>
      </trkpt>
      <trkpt lat="39.5009800" lon="-6.3888510">
        <ele>361.8</ele>
        <time>2021-10-17T12:37:14Z</time>
      </trkpt>
      <trkpt lat="39.5009280" lon="-6.3888230">
        <ele>362.0</ele>
        <time>2021-10-17T12:37:16Z</time>
      </trkpt>
      <trkpt lat="39.5007350" lon="-6.3887330">
        <ele>362.2</ele>
        <time>2021-10-17T12:37:23Z</time>
      </trkpt>
      <trkpt lat="39.5006230" lon="-6.3886720">
        <ele>362.4</ele>
        <time>2021-10-17T12:37:27Z</time>
      </trkpt>
      <trkpt lat="39.5005920" lon="-6.3886570">
        <ele>362.6</ele>
        <time>2021-10-17T12:37:28Z</time>
      </trkpt>
      <trkpt lat="39.5005320" lon="-6.3886290">
        <ele>362.6</ele>
        <time>2021-10-17T12:37:30Z</time>
      </trkpt>
      <trkpt lat="39.5003790" lon="-6.3885590">
        <ele>363.0</ele>
        <time>2021-10-17T12:37:35Z</time>
      </trkpt>
      <trkpt lat="39.5002830" lon="-6.3885060">
        <ele>363.0</ele>
        <time>2021-10-17T12:37:38Z</time>
      </trkpt>
      <trkpt lat="39.5001850" lon="-6.3884550">
        <ele>363.2</ele>
        <time>2021-10-17T12:37:41Z</time>
      </trkpt>
      <trkpt lat="39.5000500" lon="-6.3883850">
        <ele>363.4</ele>
        <time>2021-10-17T12:37:45Z</time>
      </trkpt>
      <trkpt lat="39.4999460" lon="-6.3883330">
        <ele>363.4</ele>
        <time>2021-10-17T12:37:48Z</time>
      </trkpt>
      <trkpt lat="39.4999120" lon="-6.3883160">
        <ele>363.6</ele>
        <time>2021-10-17T12:37:49Z</time>
      </trkpt>
      <trkpt lat="39.4996940" lon="-6.3882110">
        <ele>363.8</ele>
        <time>2021-10-17T12:37:56Z</time>
      </trkpt>
      <trkpt lat="39.4996220" lon="-6.3881740">
        <ele>364.0</ele>
        <time>2021-10-17T12:37:58Z</time>
      </trkpt>
      <trkpt lat="39.4991990" lon="-6.3879600">
        <ele>364.6</ele>
        <time>2021-10-17T12:38:11Z</time>
      </trkpt>
      <trkpt lat="39.4991320" lon="-6.3879260">
        <ele>364.6</ele>
        <time>2021-10-17T12:38:13Z</time>
      </trkpt>
      <trkpt lat="39.4987990" lon="-6.3877630">
        <ele>365.0</ele>
        <time>2021-10-17T12:38:22Z</time>
      </trkpt>
      <trkpt lat="39.4986950" lon="-6.3877060">
        <ele>365.2</ele>
        <time>2021-10-17T12:38:25Z</time>
      </trkpt>
      <trkpt lat="39.4986270" lon="-6.3876720">
        <ele>365.2</ele>
        <time>2021-10-17T12:38:27Z</time>
      </trkpt>
      <trkpt lat="39.4983310" lon="-6.3875240">
        <ele>365.0</ele>
        <time>2021-10-17T12:38:34Z</time>
      </trkpt>
      <trkpt lat="39.4981160" lon="-6.3874140">
        <ele>364.8</ele>
        <time>2021-10-17T12:38:39Z</time>
      </trkpt>
      <trkpt lat="39.4978920" lon="-6.3873020">
        <ele>364.4</ele>
        <time>2021-10-17T12:38:44Z</time>
      </trkpt>
      <trkpt lat="39.4978090" lon="-6.3872610">
        <ele>364.2</ele>
        <time>2021-10-17T12:38:46Z</time>
      </trkpt>
      <trkpt lat="39.4975660" lon="-6.3871380">
        <ele>363.8</ele>
        <time>2021-10-17T12:38:51Z</time>
      </trkpt>
      <trkpt lat="39.4975180" lon="-6.3871130">
        <ele>363.6</ele>
        <time>2021-10-17T12:38:52Z</time>
      </trkpt>
      <trkpt lat="39.4973790" lon="-6.3870430">
        <ele>363.2</ele>
        <time>2021-10-17T12:38:55Z</time>
      </trkpt>
      <trkpt lat="39.4973350" lon="-6.3870200">
        <ele>363.0</ele>
        <time>2021-10-17T12:38:56Z</time>
      </trkpt>
      <trkpt lat="39.4969000" lon="-6.3868070">
        <ele>362.8</ele>
        <time>2021-10-17T12:39:06Z</time>
      </trkpt>
      <trkpt lat="39.4964430" lon="-6.3865790">
        <ele>363.6</ele>
        <time>2021-10-17T12:39:18Z</time>
      </trkpt>
      <trkpt lat="39.4961950" lon="-6.3864530">
        <ele>364.6</ele>
        <time>2021-10-17T12:39:26Z</time>
      </trkpt>
      <trkpt lat="39.4961670" lon="-6.3864370">
        <ele>364.8</ele>
        <time>2021-10-17T12:39:27Z</time>
      </trkpt>
      <trkpt lat="39.4959620" lon="-6.3863340">
        <ele>365.6</ele>
        <time>2021-10-17T12:39:34Z</time>
      </trkpt>
      <trkpt lat="39.4957600" lon="-6.3862310">
        <ele>366.6</ele>
        <time>2021-10-17T12:39:41Z</time>
      </trkpt>
      <trkpt lat="39.4957320" lon="-6.3862180">
        <ele>366.8</ele>
        <time>2021-10-17T12:39:42Z</time>
      </trkpt>
      <trkpt lat="39.4956740" lon="-6.3861890">
        <ele>367.0</ele>
        <time>2021-10-17T12:39:44Z</time>
      </trkpt>
      <trkpt lat="39.4956480" lon="-6.3861760">
        <ele>367.2</ele>
        <time>2021-10-17T12:39:45Z</time>
      </trkpt>
      <trkpt lat="39.4955050" lon="-6.3861070">
        <ele>368.0</ele>
        <time>2021-10-17T12:39:51Z</time>
      </trkpt>
      <trkpt lat="39.4954810" lon="-6.3860950">
        <ele>368.0</ele>
        <time>2021-10-17T12:39:52Z</time>
      </trkpt>
      <trkpt lat="39.4953470" lon="-6.3860260">
        <ele>368.8</ele>
        <time>2021-10-17T12:39:57Z</time>
      </trkpt>
      <trkpt lat="39.4953250" lon="-6.3860160">
        <ele>369.0</ele>
        <time>2021-10-17T12:39:58Z</time>
      </trkpt>
      <trkpt lat="39.4952720" lon="-6.3859910">
        <ele>369.0</ele>
        <time>2021-10-17T12:40:00Z</time>
      </trkpt>
      <trkpt lat="39.4951700" lon="-6.3859360">
        <ele>369.4</ele>
        <time>2021-10-17T12:40:04Z</time>
      </trkpt>
      <trkpt lat="39.4949870" lon="-6.3858400">
        <ele>369.8</ele>
        <time>2021-10-17T12:40:10Z</time>
      </trkpt>
      <trkpt lat="39.4949310" lon="-6.3858150">
        <ele>370.0</ele>
        <time>2021-10-17T12:40:12Z</time>
      </trkpt>
      <trkpt lat="39.4948340" lon="-6.3857660">
        <ele>370.2</ele>
        <time>2021-10-17T12:40:15Z</time>
      </trkpt>
      <trkpt lat="39.4947960" lon="-6.3857450">
        <ele>370.4</ele>
        <time>2021-10-17T12:40:16Z</time>
      </trkpt>
      <trkpt lat="39.4946660" lon="-6.3856800">
        <ele>370.6</ele>
        <time>2021-10-17T12:40:20Z</time>
      </trkpt>
      <trkpt lat="39.4946080" lon="-6.3856510">
        <ele>370.6</ele>
        <time>2021-10-17T12:40:22Z</time>
      </trkpt>
      <trkpt lat="39.4945440" lon="-6.3856170">
        <ele>370.8</ele>
        <time>2021-10-17T12:40:24Z</time>
      </trkpt>
      <trkpt lat="39.4944730" lon="-6.3855830">
        <ele>371.0</ele>
        <time>2021-10-17T12:40:26Z</time>
      </trkpt>
      <trkpt lat="39.4944460" lon="-6.3855720">
        <ele>371.0</ele>
        <time>2021-10-17T12:40:27Z</time>
      </trkpt>
      <trkpt lat="39.4943770" lon="-6.3855470">
        <ele>371.2</ele>
        <time>2021-10-17T12:40:29Z</time>
      </trkpt>
      <trkpt lat="39.4942750" lon="-6.3855050">
        <ele>371.2</ele>
        <time>2021-10-17T12:40:32Z</time>
      </trkpt>
      <trkpt lat="39.4942000" lon="-6.3854710">
        <ele>371.4</ele>
        <time>2021-10-17T12:40:34Z</time>
      </trkpt>
      <trkpt lat="39.4939370" lon="-6.3853800">
        <ele>371.8</ele>
        <time>2021-10-17T12:40:42Z</time>
      </trkpt>
      <trkpt lat="39.4938970" lon="-6.3853680">
        <ele>371.8</ele>
        <time>2021-10-17T12:40:43Z</time>
      </trkpt>
      <trkpt lat="39.4938360" lon="-6.3853480">
        <ele>372.0</ele>
        <time>2021-10-17T12:40:45Z</time>
      </trkpt>
      <trkpt lat="39.4935580" lon="-6.3852520">
        <ele>372.6</ele>
        <time>2021-10-17T12:40:53Z</time>
      </trkpt>
      <trkpt lat="39.4934980" lon="-6.3852280">
        <ele>372.8</ele>
        <time>2021-10-17T12:40:55Z</time>
      </trkpt>
      <trkpt lat="39.4934560" lon="-6.3852130">
        <ele>373.0</ele>
        <time>2021-10-17T12:40:56Z</time>
      </trkpt>
      <trkpt lat="39.4933950" lon="-6.3851910">
        <ele>373.0</ele>
        <time>2021-10-17T12:40:58Z</time>
      </trkpt>
      <trkpt lat="39.4932130" lon="-6.3851250">
        <ele>373.6</ele>
        <time>2021-10-17T12:41:03Z</time>
      </trkpt>
      <trkpt lat="39.4930140" lon="-6.3850430">
        <ele>374.0</ele>
        <time>2021-10-17T12:41:09Z</time>
      </trkpt>
      <trkpt lat="39.4929720" lon="-6.3850270">
        <ele>374.2</ele>
        <time>2021-10-17T12:41:10Z</time>
      </trkpt>
      <trkpt lat="39.4929090" lon="-6.3850080">
        <ele>374.2</ele>
        <time>2021-10-17T12:41:12Z</time>
      </trkpt>
      <trkpt lat="39.4928030" lon="-6.3849690">
        <ele>374.4</ele>
        <time>2021-10-17T12:41:15Z</time>
      </trkpt>
      <trkpt lat="39.4926260" lon="-6.3849070">
        <ele>374.8</ele>
        <time>2021-10-17T12:41:20Z</time>
      </trkpt>
      <trkpt lat="39.4925910" lon="-6.3848930">
        <ele>374.8</ele>
        <time>2021-10-17T12:41:21Z</time>
      </trkpt>
      <trkpt lat="39.4925270" lon="-6.3848680">
        <ele>375.0</ele>
        <time>2021-10-17T12:41:23Z</time>
      </trkpt>
      <trkpt lat="39.4924580" lon="-6.3848410">
        <ele>375.0</ele>
        <time>2021-10-17T12:41:25Z</time>
      </trkpt>
      <trkpt lat="39.4923530" lon="-6.3847990">
        <ele>375.4</ele>
        <time>2021-10-17T12:41:28Z</time>
      </trkpt>
      <trkpt lat="39.4921390" lon="-6.3847210">
        <ele>375.6</ele>
        <time>2021-10-17T12:41:34Z</time>
      </trkpt>
      <trkpt lat="39.4918510" lon="-6.3846140">
        <ele>376.2</ele>
        <time>2021-10-17T12:41:42Z</time>
      </trkpt>
      <trkpt lat="39.4917130" lon="-6.3845620">
        <ele>376.4</ele>
        <time>2021-10-17T12:41:46Z</time>
      </trkpt>
      <trkpt lat="39.4916450" lon="-6.3845380">
        <ele>376.6</ele>
        <time>2021-10-17T12:41:48Z</time>
      </trkpt>
      <trkpt lat="39.4915440" lon="-6.3845000">
        <ele>376.8</ele>
        <time>2021-10-17T12:41:51Z</time>
      </trkpt>
      <trkpt lat="39.4914400" lon="-6.3844590">
        <ele>377.2</ele>
        <time>2021-10-17T12:41:54Z</time>
      </trkpt>
      <trkpt lat="39.4913700" lon="-6.3844320">
        <ele>377.4</ele>
        <time>2021-10-17T12:41:56Z</time>
      </trkpt>
      <trkpt lat="39.4911930" lon="-6.3843670">
        <ele>377.8</ele>
        <time>2021-10-17T12:42:01Z</time>
      </trkpt>
      <trkpt lat="39.4909900" lon="-6.3842900">
        <ele>378.0</ele>
        <time>2021-10-17T12:42:07Z</time>
      </trkpt>
      <trkpt lat="39.4908620" lon="-6.3842460">
        <ele>378.0</ele>
        <time>2021-10-17T12:42:11Z</time>
      </trkpt>
      <trkpt lat="39.4907320" lon="-6.3841950">
        <ele>378.4</ele>
        <time>2021-10-17T12:42:15Z</time>
      </trkpt>
      <trkpt lat="39.4906620" lon="-6.3841690">
        <ele>378.4</ele>
        <time>2021-10-17T12:42:17Z</time>
      </trkpt>
      <trkpt lat="39.4905410" lon="-6.3841200">
        <ele>378.6</ele>
        <time>2021-10-17T12:42:21Z</time>
      </trkpt>
      <trkpt lat="39.4903480" lon="-6.3840550">
        <ele>379.2</ele>
        <time>2021-10-17T12:42:28Z</time>
      </trkpt>
      <trkpt lat="39.4902650" lon="-6.3840480">
        <ele>379.4</ele>
        <time>2021-10-17T12:42:32Z</time>
      </trkpt>
      <trkpt lat="39.4902550" lon="-6.3840410">
        <ele>379.6</ele>
        <time>2021-10-17T12:42:33Z</time>
      </trkpt>
      <trkpt lat="39.4902480" lon="-6.3840370">
        <ele>379.8</ele>
        <time>2021-10-17T12:42:35Z</time>
      </trkpt>
      <trkpt lat="39.4902140" lon="-6.3840380">
        <ele>380.6</ele>
        <time>2021-10-17T12:46:10Z</time>
      </trkpt>
      <trkpt lat="39.4901910" lon="-6.3840310">
        <ele>380.8</ele>
        <time>2021-10-17T12:46:11Z</time>
      </trkpt>
      <trkpt lat="39.4900380" lon="-6.3839600">
        <ele>381.0</ele>
        <time>2021-10-17T12:46:17Z</time>
      </trkpt>
      <trkpt lat="39.4899420" lon="-6.3839200">
        <ele>381.4</ele>
        <time>2021-10-17T12:46:21Z</time>
      </trkpt>
      <trkpt lat="39.4898920" lon="-6.3839010">
        <ele>381.8</ele>
        <time>2021-10-17T12:46:23Z</time>
      </trkpt>
      <trkpt lat="39.4898140" lon="-6.3838710">
        <ele>382.2</ele>
        <time>2021-10-17T12:46:26Z</time>
      </trkpt>
      <trkpt lat="39.4897100" lon="-6.3838300">
        <ele>382.4</ele>
        <time>2021-10-17T12:46:30Z</time>
      </trkpt>
      <trkpt lat="39.4896570" lon="-6.3838040">
        <ele>382.8</ele>
        <time>2021-10-17T12:46:32Z</time>
      </trkpt>
      <trkpt lat="39.4896300" lon="-6.3837910">
        <ele>383.0</ele>
        <time>2021-10-17T12:46:33Z</time>
      </trkpt>
      <trkpt lat="39.4895750" lon="-6.3837720">
        <ele>383.2</ele>
        <time>2021-10-17T12:46:35Z</time>
      </trkpt>
      <trkpt lat="39.4894940" lon="-6.3837430">
        <ele>383.8</ele>
        <time>2021-10-17T12:46:38Z</time>
      </trkpt>
      <trkpt lat="39.4894380" lon="-6.3837210">
        <ele>383.8</ele>
        <time>2021-10-17T12:46:40Z</time>
      </trkpt>
      <trkpt lat="39.4894130" lon="-6.3837160">
        <ele>384.0</ele>
        <time>2021-10-17T12:46:41Z</time>
      </trkpt>
      <trkpt lat="39.4893080" lon="-6.3836750">
        <ele>384.6</ele>
        <time>2021-10-17T12:46:45Z</time>
      </trkpt>
      <trkpt lat="39.4892540" lon="-6.3836560">
        <ele>384.8</ele>
        <time>2021-10-17T12:46:47Z</time>
      </trkpt>
      <trkpt lat="39.4892010" lon="-6.3836360">
        <ele>385.0</ele>
        <time>2021-10-17T12:46:49Z</time>
      </trkpt>
      <trkpt lat="39.4891760" lon="-6.3836240">
        <ele>385.0</ele>
        <time>2021-10-17T12:46:50Z</time>
      </trkpt>
      <trkpt lat="39.4890990" lon="-6.3835940">
        <ele>385.6</ele>
        <time>2021-10-17T12:46:53Z</time>
      </trkpt>
      <trkpt lat="39.4890180" lon="-6.3835690">
        <ele>386.0</ele>
        <time>2021-10-17T12:46:56Z</time>
      </trkpt>
      <trkpt lat="39.4889850" lon="-6.3835590">
        <ele>386.0</ele>
        <time>2021-10-17T12:46:57Z</time>
      </trkpt>
      <trkpt lat="39.4888800" lon="-6.3835120">
        <ele>386.4</ele>
        <time>2021-10-17T12:47:01Z</time>
      </trkpt>
      <trkpt lat="39.4888220" lon="-6.3834920">
        <ele>386.6</ele>
        <time>2021-10-17T12:47:03Z</time>
      </trkpt>
      <trkpt lat="39.4887750" lon="-6.3834730">
        <ele>387.0</ele>
        <time>2021-10-17T12:47:05Z</time>
      </trkpt>
      <trkpt lat="39.4886730" lon="-6.3834410">
        <ele>387.6</ele>
        <time>2021-10-17T12:47:09Z</time>
      </trkpt>
      <trkpt lat="39.4886190" lon="-6.3834170">
        <ele>387.6</ele>
        <time>2021-10-17T12:47:11Z</time>
      </trkpt>
      <trkpt lat="39.4885620" lon="-6.3833950">
        <ele>387.8</ele>
        <time>2021-10-17T12:47:13Z</time>
      </trkpt>
      <trkpt lat="39.4885410" lon="-6.3833870">
        <ele>388.0</ele>
        <time>2021-10-17T12:47:14Z</time>
      </trkpt>
      <trkpt lat="39.4884890" lon="-6.3833640">
        <ele>388.4</ele>
        <time>2021-10-17T12:47:16Z</time>
      </trkpt>
      <trkpt lat="39.4884630" lon="-6.3833570">
        <ele>388.4</ele>
        <time>2021-10-17T12:47:17Z</time>
      </trkpt>
      <trkpt lat="39.4884110" lon="-6.3833390">
        <ele>388.8</ele>
        <time>2021-10-17T12:47:19Z</time>
      </trkpt>
      <trkpt lat="39.4883840" lon="-6.3833290">
        <ele>389.0</ele>
        <time>2021-10-17T12:47:20Z</time>
      </trkpt>
      <trkpt lat="39.4883060" lon="-6.3832980">
        <ele>389.2</ele>
        <time>2021-10-17T12:47:23Z</time>
      </trkpt>
      <trkpt lat="39.4881620" lon="-6.3832460">
        <ele>389.6</ele>
        <time>2021-10-17T12:47:28Z</time>
      </trkpt>
      <trkpt lat="39.4879800" lon="-6.3831780">
        <ele>390.0</ele>
        <time>2021-10-17T12:47:34Z</time>
      </trkpt>
      <trkpt lat="39.4879130" lon="-6.3831550">
        <ele>390.2</ele>
        <time>2021-10-17T12:47:36Z</time>
      </trkpt>
      <trkpt lat="39.4877470" lon="-6.3830920">
        <ele>390.2</ele>
        <time>2021-10-17T12:47:41Z</time>
      </trkpt>
      <trkpt lat="39.4876120" lon="-6.3830430">
        <ele>390.2</ele>
        <time>2021-10-17T12:47:45Z</time>
      </trkpt>
      <trkpt lat="39.4875800" lon="-6.3830270">
        <ele>390.2</ele>
        <time>2021-10-17T12:47:46Z</time>
      </trkpt>
      <trkpt lat="39.4874830" lon="-6.3829910">
        <ele>390.0</ele>
        <time>2021-10-17T12:47:49Z</time>
      </trkpt>
      <trkpt lat="39.4873670" lon="-6.3829430">
        <ele>390.0</ele>
        <time>2021-10-17T12:47:52Z</time>
      </trkpt>
      <trkpt lat="39.4872340" lon="-6.3828980">
        <ele>389.6</ele>
        <time>2021-10-17T12:47:55Z</time>
      </trkpt>
      <trkpt lat="39.4870870" lon="-6.3828470">
        <ele>389.0</ele>
        <time>2021-10-17T12:47:58Z</time>
      </trkpt>
      <trkpt lat="39.4870370" lon="-6.3828280">
        <ele>389.0</ele>
        <time>2021-10-17T12:47:59Z</time>
      </trkpt>
      <trkpt lat="39.4868740" lon="-6.3827670">
        <ele>388.4</ele>
        <time>2021-10-17T12:48:02Z</time>
      </trkpt>
      <trkpt lat="39.4867330" lon="-6.3827170">
        <ele>387.8</ele>
        <time>2021-10-17T12:48:05Z</time>
      </trkpt>
      <trkpt lat="39.4866230" lon="-6.3826860">
        <ele>387.2</ele>
        <time>2021-10-17T12:48:08Z</time>
      </trkpt>
      <trkpt lat="39.4865790" lon="-6.3826890">
        <ele>386.8</ele>
        <time>2021-10-17T12:48:10Z</time>
      </trkpt>
      <trkpt lat="39.4864920" lon="-6.3826830">
        <ele>385.8</ele>
        <time>2021-10-17T12:48:13Z</time>
      </trkpt>
      <trkpt lat="39.4864560" lon="-6.3826820">
        <ele>385.6</ele>
        <time>2021-10-17T12:48:14Z</time>
      </trkpt>
      <trkpt lat="39.4862280" lon="-6.3826900">
        <ele>384.6</ele>
        <time>2021-10-17T12:48:20Z</time>
      </trkpt>
      <trkpt lat="39.4860890" lon="-6.3827710">
        <ele>384.6</ele>
        <time>2021-10-17T12:48:25Z</time>
      </trkpt>
      <trkpt lat="39.4859370" lon="-6.3828040">
        <ele>384.8</ele>
        <time>2021-10-17T12:48:31Z</time>
      </trkpt>
      <trkpt lat="39.4858460" lon="-6.3828110">
        <ele>384.8</ele>
        <time>2021-10-17T12:48:34Z</time>
      </trkpt>
      <trkpt lat="39.4856970" lon="-6.3828580">
        <ele>384.8</ele>
        <time>2021-10-17T12:48:39Z</time>
      </trkpt>
      <trkpt lat="39.4855450" lon="-6.3829320">
        <ele>384.8</ele>
        <time>2021-10-17T12:48:45Z</time>
      </trkpt>
      <trkpt lat="39.4854430" lon="-6.3829870">
        <ele>384.8</ele>
        <time>2021-10-17T12:48:50Z</time>
      </trkpt>
      <trkpt lat="39.4854300" lon="-6.3829790">
        <ele>384.8</ele>
        <time>2021-10-17T12:48:51Z</time>
      </trkpt>
      <trkpt lat="39.4854260" lon="-6.3829720">
        <ele>384.8</ele>
        <time>2021-10-17T12:48:54Z</time>
      </trkpt>
      <trkpt lat="39.4854130" lon="-6.3829340">
        <ele>384.8</ele>
        <time>2021-10-17T12:49:07Z</time>
      </trkpt>
      <trkpt lat="39.4853710" lon="-6.3826920">
        <ele>384.4</ele>
        <time>2021-10-17T12:49:13Z</time>
      </trkpt>
      <trkpt lat="39.4853800" lon="-6.3826440">
        <ele>384.4</ele>
        <time>2021-10-17T12:49:15Z</time>
      </trkpt>
      <trkpt lat="39.4853990" lon="-6.3826290">
        <ele>384.2</ele>
        <time>2021-10-17T12:49:16Z</time>
      </trkpt>
      <trkpt lat="39.4856020" lon="-6.3825100">
        <ele>383.8</ele>
        <time>2021-10-17T12:49:24Z</time>
      </trkpt>
      <trkpt lat="39.4856330" lon="-6.3824590">
        <ele>383.8</ele>
        <time>2021-10-17T12:49:26Z</time>
      </trkpt>
      <trkpt lat="39.4856350" lon="-6.3823880">
        <ele>384.0</ele>
        <time>2021-10-17T12:49:28Z</time>
      </trkpt>
      <trkpt lat="39.4856050" lon="-6.3823180">
        <ele>384.0</ele>
        <time>2021-10-17T12:49:30Z</time>
      </trkpt>
      <trkpt lat="39.4855460" lon="-6.3822750">
        <ele>384.0</ele>
        <time>2021-10-17T12:49:32Z</time>
      </trkpt>
      <trkpt lat="39.4854640" lon="-6.3822350">
        <ele>383.6</ele>
        <time>2021-10-17T12:49:37Z</time>
      </trkpt>
      <trkpt lat="39.4854640" lon="-6.3822350">
        <ele>383.6</ele>
        <time>2021-10-17T12:49:38Z</time>
      </trkpt>
      <trkpt lat="39.4853890" lon="-6.3821550">
        <ele>383.4</ele>
        <time>2021-10-17T12:50:08Z</time>
      </trkpt>
      <trkpt lat="39.4853380" lon="-6.3821200">
        <ele>383.4</ele>
        <time>2021-10-17T12:50:10Z</time>
      </trkpt>
      <trkpt lat="39.4851370" lon="-6.3819900">
        <ele>383.2</ele>
        <time>2021-10-17T12:50:16Z</time>
      </trkpt>
      <trkpt lat="39.4848680" lon="-6.3818120">
        <ele>382.8</ele>
        <time>2021-10-17T12:50:23Z</time>
      </trkpt>
      <trkpt lat="39.4847450" lon="-6.3817270">
        <ele>382.4</ele>
        <time>2021-10-17T12:50:26Z</time>
      </trkpt>
      <trkpt lat="39.4844200" lon="-6.3815110">
        <ele>382.2</ele>
        <time>2021-10-17T12:50:34Z</time>
      </trkpt>
      <trkpt lat="39.4841840" lon="-6.3813550">
        <ele>382.6</ele>
        <time>2021-10-17T12:50:41Z</time>
      </trkpt>
      <trkpt lat="39.4840190" lon="-6.3812430">
        <ele>383.4</ele>
        <time>2021-10-17T12:50:46Z</time>
      </trkpt>
      <trkpt lat="39.4839590" lon="-6.3811970">
        <ele>383.6</ele>
        <time>2021-10-17T12:50:48Z</time>
      </trkpt>
      <trkpt lat="39.4838960" lon="-6.3811530">
        <ele>383.8</ele>
        <time>2021-10-17T12:50:50Z</time>
      </trkpt>
      <trkpt lat="39.4838050" lon="-6.3810950">
        <ele>384.0</ele>
        <time>2021-10-17T12:50:53Z</time>
      </trkpt>
      <trkpt lat="39.4836900" lon="-6.3810180">
        <ele>384.6</ele>
        <time>2021-10-17T12:50:57Z</time>
      </trkpt>
      <trkpt lat="39.4836010" lon="-6.3809590">
        <ele>384.8</ele>
        <time>2021-10-17T12:51:00Z</time>
      </trkpt>
      <trkpt lat="39.4834060" lon="-6.3808240">
        <ele>385.6</ele>
        <time>2021-10-17T12:51:07Z</time>
      </trkpt>
      <trkpt lat="39.4833220" lon="-6.3807700">
        <ele>386.0</ele>
        <time>2021-10-17T12:51:10Z</time>
      </trkpt>
      <trkpt lat="39.4831580" lon="-6.3806610">
        <ele>386.6</ele>
        <time>2021-10-17T12:51:16Z</time>
      </trkpt>
      <trkpt lat="39.4831300" lon="-6.3806410">
        <ele>386.8</ele>
        <time>2021-10-17T12:51:17Z</time>
      </trkpt>
      <trkpt lat="39.4830420" lon="-6.3805760">
        <ele>387.0</ele>
        <time>2021-10-17T12:51:20Z</time>
      </trkpt>
      <trkpt lat="39.4829000" lon="-6.3804820">
        <ele>387.4</ele>
        <time>2021-10-17T12:51:25Z</time>
      </trkpt>
      <trkpt lat="39.4828490" lon="-6.3804490">
        <ele>387.8</ele>
        <time>2021-10-17T12:51:27Z</time>
      </trkpt>
      <trkpt lat="39.4827880" lon="-6.3804080">
        <ele>388.0</ele>
        <time>2021-10-17T12:51:29Z</time>
      </trkpt>
      <trkpt lat="39.4827090" lon="-6.3803610">
        <ele>388.2</ele>
        <time>2021-10-17T12:51:32Z</time>
      </trkpt>
      <trkpt lat="39.4826200" lon="-6.3803100">
        <ele>388.4</ele>
        <time>2021-10-17T12:51:35Z</time>
      </trkpt>
      <trkpt lat="39.4825900" lon="-6.3802940">
        <ele>388.6</ele>
        <time>2021-10-17T12:51:36Z</time>
      </trkpt>
      <trkpt lat="39.4825280" lon="-6.3802620">
        <ele>388.6</ele>
        <time>2021-10-17T12:51:38Z</time>
      </trkpt>
      <trkpt lat="39.4824600" lon="-6.3802280">
        <ele>388.8</ele>
        <time>2021-10-17T12:51:40Z</time>
      </trkpt>
      <trkpt lat="39.4824300" lon="-6.3802110">
        <ele>389.0</ele>
        <time>2021-10-17T12:51:41Z</time>
      </trkpt>
      <trkpt lat="39.4823700" lon="-6.3801780">
        <ele>389.0</ele>
        <time>2021-10-17T12:51:43Z</time>
      </trkpt>
      <trkpt lat="39.4823380" lon="-6.3801640">
        <ele>389.2</ele>
        <time>2021-10-17T12:51:44Z</time>
      </trkpt>
      <trkpt lat="39.4822540" lon="-6.3801200">
        <ele>389.2</ele>
        <time>2021-10-17T12:51:47Z</time>
      </trkpt>
      <trkpt lat="39.4821330" lon="-6.3800610">
        <ele>389.4</ele>
        <time>2021-10-17T12:51:51Z</time>
      </trkpt>
      <trkpt lat="39.4821020" lon="-6.3800460">
        <ele>389.6</ele>
        <time>2021-10-17T12:51:52Z</time>
      </trkpt>
      <trkpt lat="39.4820170" lon="-6.3800020">
        <ele>389.8</ele>
        <time>2021-10-17T12:51:55Z</time>
      </trkpt>
      <trkpt lat="39.4819430" lon="-6.3799560">
        <ele>390.0</ele>
        <time>2021-10-17T12:51:58Z</time>
      </trkpt>
      <trkpt lat="39.4819190" lon="-6.3799410">
        <ele>390.2</ele>
        <time>2021-10-17T12:51:59Z</time>
      </trkpt>
      <trkpt lat="39.4818590" lon="-6.3798940">
        <ele>390.4</ele>
        <time>2021-10-17T12:52:02Z</time>
      </trkpt>
      <trkpt lat="39.4817780" lon="-6.3798390">
        <ele>391.0</ele>
        <time>2021-10-17T12:52:06Z</time>
      </trkpt>
      <trkpt lat="39.4817550" lon="-6.3798220">
        <ele>391.0</ele>
        <time>2021-10-17T12:52:07Z</time>
      </trkpt>
      <trkpt lat="39.4816420" lon="-6.3797490">
        <ele>392.0</ele>
        <time>2021-10-17T12:52:13Z</time>
      </trkpt>
      <trkpt lat="39.4815700" lon="-6.3796980">
        <ele>392.6</ele>
        <time>2021-10-17T12:52:17Z</time>
      </trkpt>
      <trkpt lat="39.4815140" lon="-6.3796600">
        <ele>393.0</ele>
        <time>2021-10-17T12:52:20Z</time>
      </trkpt>
      <trkpt lat="39.4814250" lon="-6.3796010">
        <ele>393.8</ele>
        <time>2021-10-17T12:52:25Z</time>
      </trkpt>
      <trkpt lat="39.4813910" lon="-6.3795780">
        <ele>394.2</ele>
        <time>2021-10-17T12:52:27Z</time>
      </trkpt>
      <trkpt lat="39.4813420" lon="-6.3795440">
        <ele>394.6</ele>
        <time>2021-10-17T12:52:30Z</time>
      </trkpt>
      <trkpt lat="39.4812940" lon="-6.3795180">
        <ele>395.0</ele>
        <time>2021-10-17T12:52:33Z</time>
      </trkpt>
      <trkpt lat="39.4812740" lon="-6.3795080">
        <ele>395.4</ele>
        <time>2021-10-17T12:52:34Z</time>
      </trkpt>
      <trkpt lat="39.4812330" lon="-6.3794860">
        <ele>395.6</ele>
        <time>2021-10-17T12:52:36Z</time>
      </trkpt>
      <trkpt lat="39.4811480" lon="-6.3794350">
        <ele>396.4</ele>
        <time>2021-10-17T12:52:41Z</time>
      </trkpt>
      <trkpt lat="39.4811320" lon="-6.3794270">
        <ele>396.6</ele>
        <time>2021-10-17T12:52:42Z</time>
      </trkpt>
      <trkpt lat="39.4810900" lon="-6.3794070">
        <ele>396.8</ele>
        <time>2021-10-17T12:52:44Z</time>
      </trkpt>
      <trkpt lat="39.4810590" lon="-6.3793900">
        <ele>397.0</ele>
        <time>2021-10-17T12:52:46Z</time>
      </trkpt>
      <trkpt lat="39.4810230" lon="-6.3793710">
        <ele>397.0</ele>
        <time>2021-10-17T12:52:48Z</time>
      </trkpt>
      <trkpt lat="39.4810070" lon="-6.3793630">
        <ele>397.4</ele>
        <time>2021-10-17T12:52:49Z</time>
      </trkpt>
      <trkpt lat="39.4809890" lon="-6.3793530">
        <ele>397.6</ele>
        <time>2021-10-17T12:52:50Z</time>
      </trkpt>
      <trkpt lat="39.4809720" lon="-6.3793420">
        <ele>397.6</ele>
        <time>2021-10-17T12:52:51Z</time>
      </trkpt>
      <trkpt lat="39.4809250" lon="-6.3793210">
        <ele>398.0</ele>
        <time>2021-10-17T12:52:54Z</time>
      </trkpt>
      <trkpt lat="39.4808780" lon="-6.3792960">
        <ele>398.4</ele>
        <time>2021-10-17T12:52:57Z</time>
      </trkpt>
      <trkpt lat="39.4808590" lon="-6.3792840">
        <ele>398.8</ele>
        <time>2021-10-17T12:52:58Z</time>
      </trkpt>
      <trkpt lat="39.4808450" lon="-6.3792770">
        <ele>398.8</ele>
        <time>2021-10-17T12:52:59Z</time>
      </trkpt>
      <trkpt lat="39.4807870" lon="-6.3792600">
        <ele>399.4</ele>
        <time>2021-10-17T12:53:03Z</time>
      </trkpt>
      <trkpt lat="39.4807700" lon="-6.3792540">
        <ele>399.4</ele>
        <time>2021-10-17T12:53:04Z</time>
      </trkpt>
      <trkpt lat="39.4807570" lon="-6.3792420">
        <ele>399.6</ele>
        <time>2021-10-17T12:53:05Z</time>
      </trkpt>
      <trkpt lat="39.4807450" lon="-6.3792330">
        <ele>399.8</ele>
        <time>2021-10-17T12:53:06Z</time>
      </trkpt>
      <trkpt lat="39.4807320" lon="-6.3792210">
        <ele>400.0</ele>
        <time>2021-10-17T12:53:07Z</time>
      </trkpt>
      <trkpt lat="39.4807130" lon="-6.3792100">
        <ele>400.0</ele>
        <time>2021-10-17T12:53:08Z</time>
      </trkpt>
      <trkpt lat="39.4807000" lon="-6.3792000">
        <ele>400.2</ele>
        <time>2021-10-17T12:53:09Z</time>
      </trkpt>
      <trkpt lat="39.4806730" lon="-6.3791780">
        <ele>400.4</ele>
        <time>2021-10-17T12:53:11Z</time>
      </trkpt>
      <trkpt lat="39.4806410" lon="-6.3791560">
        <ele>400.8</ele>
        <time>2021-10-17T12:53:13Z</time>
      </trkpt>
      <trkpt lat="39.4806130" lon="-6.3791350">
        <ele>401.0</ele>
        <time>2021-10-17T12:53:15Z</time>
      </trkpt>
      <trkpt lat="39.4805670" lon="-6.3790980">
        <ele>401.4</ele>
        <time>2021-10-17T12:53:18Z</time>
      </trkpt>
      <trkpt lat="39.4805190" lon="-6.3790700">
        <ele>402.0</ele>
        <time>2021-10-17T12:53:21Z</time>
      </trkpt>
      <trkpt lat="39.4805040" lon="-6.3790610">
        <ele>402.2</ele>
        <time>2021-10-17T12:53:22Z</time>
      </trkpt>
      <trkpt lat="39.4804580" lon="-6.3790620">
        <ele>402.2</ele>
        <time>2021-10-17T12:53:25Z</time>
      </trkpt>
      <trkpt lat="39.4804060" lon="-6.3790160">
        <ele>403.0</ele>
        <time>2021-10-17T12:53:29Z</time>
      </trkpt>
      <trkpt lat="39.4803630" lon="-6.3789780">
        <ele>403.4</ele>
        <time>2021-10-17T12:53:32Z</time>
      </trkpt>
      <trkpt lat="39.4802810" lon="-6.3789160">
        <ele>404.0</ele>
        <time>2021-10-17T12:53:37Z</time>
      </trkpt>
      <trkpt lat="39.4802150" lon="-6.3788640">
        <ele>404.6</ele>
        <time>2021-10-17T12:53:41Z</time>
      </trkpt>
      <trkpt lat="39.4801940" lon="-6.3788310">
        <ele>405.0</ele>
        <time>2021-10-17T12:53:43Z</time>
      </trkpt>
      <trkpt lat="39.4801060" lon="-6.3787070">
        <ele>406.0</ele>
        <time>2021-10-17T12:53:51Z</time>
      </trkpt>
      <trkpt lat="39.4800910" lon="-6.3786750">
        <ele>406.4</ele>
        <time>2021-10-17T12:53:53Z</time>
      </trkpt>
      <trkpt lat="39.4800820" lon="-6.3786580">
        <ele>406.6</ele>
        <time>2021-10-17T12:53:54Z</time>
      </trkpt>
      <trkpt lat="39.4800550" lon="-6.3786100">
        <ele>406.8</ele>
        <time>2021-10-17T12:53:57Z</time>
      </trkpt>
      <trkpt lat="39.4800380" lon="-6.3785770">
        <ele>407.0</ele>
        <time>2021-10-17T12:53:59Z</time>
      </trkpt>
      <trkpt lat="39.4800320" lon="-6.3785570">
        <ele>407.4</ele>
        <time>2021-10-17T12:54:00Z</time>
      </trkpt>
      <trkpt lat="39.4800180" lon="-6.3784980">
        <ele>407.6</ele>
        <time>2021-10-17T12:54:03Z</time>
      </trkpt>
      <trkpt lat="39.4800120" lon="-6.3784140">
        <ele>408.4</ele>
        <time>2021-10-17T12:54:07Z</time>
      </trkpt>
      <trkpt lat="39.4800110" lon="-6.3783930">
        <ele>408.4</ele>
        <time>2021-10-17T12:54:08Z</time>
      </trkpt>
      <trkpt lat="39.4800090" lon="-6.3783710">
        <ele>408.6</ele>
        <time>2021-10-17T12:54:09Z</time>
      </trkpt>
      <trkpt lat="39.4800150" lon="-6.3782720">
        <ele>409.4</ele>
        <time>2021-10-17T12:54:14Z</time>
      </trkpt>
      <trkpt lat="39.4800240" lon="-6.3781830">
        <ele>410.0</ele>
        <time>2021-10-17T12:54:18Z</time>
      </trkpt>
      <trkpt lat="39.4800290" lon="-6.3781170">
        <ele>410.4</ele>
        <time>2021-10-17T12:54:21Z</time>
      </trkpt>
      <trkpt lat="39.4800330" lon="-6.3780780">
        <ele>410.6</ele>
        <time>2021-10-17T12:54:23Z</time>
      </trkpt>
      <trkpt lat="39.4800420" lon="-6.3780090">
        <ele>411.0</ele>
        <time>2021-10-17T12:54:27Z</time>
      </trkpt>
      <trkpt lat="39.4800430" lon="-6.3779710">
        <ele>411.2</ele>
        <time>2021-10-17T12:54:28Z</time>
      </trkpt>
      <trkpt lat="39.4800440" lon="-6.3779020">
        <ele>411.6</ele>
        <time>2021-10-17T12:54:31Z</time>
      </trkpt>
      <trkpt lat="39.4800450" lon="-6.3778820">
        <ele>411.6</ele>
        <time>2021-10-17T12:54:32Z</time>
      </trkpt>
      <trkpt lat="39.4800460" lon="-6.3778450">
        <ele>411.8</ele>
        <time>2021-10-17T12:54:34Z</time>
      </trkpt>
      <trkpt lat="39.4800460" lon="-6.3778450">
        <ele>412.0</ele>
        <time>2021-10-17T12:54:35Z</time>
      </trkpt>
      <trkpt lat="39.4800500" lon="-6.3777880">
        <ele>412.2</ele>
        <time>2021-10-17T12:54:37Z</time>
      </trkpt>
      <trkpt lat="39.4800560" lon="-6.3777270">
        <ele>412.8</ele>
        <time>2021-10-17T12:54:40Z</time>
      </trkpt>
      <trkpt lat="39.4800570" lon="-6.3776900">
        <ele>413.0</ele>
        <time>2021-10-17T12:54:42Z</time>
      </trkpt>
      <trkpt lat="39.4800630" lon="-6.3776290">
        <ele>413.6</ele>
        <time>2021-10-17T12:54:45Z</time>
      </trkpt>
      <trkpt lat="39.4800670" lon="-6.3776080">
        <ele>413.8</ele>
        <time>2021-10-17T12:54:46Z</time>
      </trkpt>
      <trkpt lat="39.4800710" lon="-6.3775710">
        <ele>414.0</ele>
        <time>2021-10-17T12:54:48Z</time>
      </trkpt>
      <trkpt lat="39.4800730" lon="-6.3775470">
        <ele>414.2</ele>
        <time>2021-10-17T12:54:49Z</time>
      </trkpt>
      <trkpt lat="39.4800790" lon="-6.3774420">
        <ele>414.6</ele>
        <time>2021-10-17T12:54:54Z</time>
      </trkpt>
      <trkpt lat="39.4800820" lon="-6.3774240">
        <ele>414.8</ele>
        <time>2021-10-17T12:54:55Z</time>
      </trkpt>
      <trkpt lat="39.4800820" lon="-6.3773840">
        <ele>415.2</ele>
        <time>2021-10-17T12:54:57Z</time>
      </trkpt>
      <trkpt lat="39.4800900" lon="-6.3772360">
        <ele>416.0</ele>
        <time>2021-10-17T12:55:04Z</time>
      </trkpt>
      <trkpt lat="39.4800870" lon="-6.3772170">
        <ele>416.0</ele>
        <time>2021-10-17T12:55:05Z</time>
      </trkpt>
      <trkpt lat="39.4800810" lon="-6.3771610">
        <ele>416.2</ele>
        <time>2021-10-17T12:55:08Z</time>
      </trkpt>
      <trkpt lat="39.4800930" lon="-6.3770290">
        <ele>416.8</ele>
        <time>2021-10-17T12:55:14Z</time>
      </trkpt>
      <trkpt lat="39.4800970" lon="-6.3770110">
        <ele>417.0</ele>
        <time>2021-10-17T12:55:15Z</time>
      </trkpt>
      <trkpt lat="39.4801040" lon="-6.3769650">
        <ele>417.2</ele>
        <time>2021-10-17T12:55:17Z</time>
      </trkpt>
      <trkpt lat="39.4801200" lon="-6.3768540">
        <ele>418.0</ele>
        <time>2021-10-17T12:55:22Z</time>
      </trkpt>
      <trkpt lat="39.4801210" lon="-6.3768100">
        <ele>418.2</ele>
        <time>2021-10-17T12:55:24Z</time>
      </trkpt>
      <trkpt lat="39.4801220" lon="-6.3767930">
        <ele>418.4</ele>
        <time>2021-10-17T12:55:25Z</time>
      </trkpt>
      <trkpt lat="39.4801250" lon="-6.3767520">
        <ele>418.6</ele>
        <time>2021-10-17T12:55:27Z</time>
      </trkpt>
      <trkpt lat="39.4801370" lon="-6.3766480">
        <ele>419.2</ele>
        <time>2021-10-17T12:55:32Z</time>
      </trkpt>
      <trkpt lat="39.4801430" lon="-6.3766280">
        <ele>419.4</ele>
        <time>2021-10-17T12:55:33Z</time>
      </trkpt>
      <trkpt lat="39.4801500" lon="-6.3765850">
        <ele>419.4</ele>
        <time>2021-10-17T12:55:35Z</time>
      </trkpt>
      <trkpt lat="39.4801550" lon="-6.3765190">
        <ele>419.8</ele>
        <time>2021-10-17T12:55:38Z</time>
      </trkpt>
      <trkpt lat="39.4801310" lon="-6.3763990">
        <ele>420.4</ele>
        <time>2021-10-17T12:55:44Z</time>
      </trkpt>
      <trkpt lat="39.4801280" lon="-6.3762640">
        <ele>421.0</ele>
        <time>2021-10-17T12:55:50Z</time>
      </trkpt>
      <trkpt lat="39.4801150" lon="-6.3761800">
        <ele>421.4</ele>
        <time>2021-10-17T12:55:54Z</time>
      </trkpt>
      <trkpt lat="39.4801020" lon="-6.3761440">
        <ele>421.8</ele>
        <time>2021-10-17T12:55:56Z</time>
      </trkpt>
      <trkpt lat="39.4800950" lon="-6.3761250">
        <ele>421.8</ele>
        <time>2021-10-17T12:55:57Z</time>
      </trkpt>
      <trkpt lat="39.4800520" lon="-6.3760860">
        <ele>422.2</ele>
        <time>2021-10-17T12:56:00Z</time>
      </trkpt>
      <trkpt lat="39.4800030" lon="-6.3760570">
        <ele>422.6</ele>
        <time>2021-10-17T12:56:03Z</time>
      </trkpt>
      <trkpt lat="39.4799970" lon="-6.3760540">
        <ele>422.8</ele>
        <time>2021-10-17T12:56:05Z</time>
      </trkpt>
      <trkpt lat="39.4799970" lon="-6.3760540">
        <ele>423.2</ele>
        <time>2021-10-17T12:56:06Z</time>
      </trkpt>
      <trkpt lat="39.4796980" lon="-6.3761360">
        <ele>424.8</ele>
        <time>2021-10-17T13:01:22Z</time>
      </trkpt>
      <trkpt lat="39.4796690" lon="-6.3761300">
        <ele>424.6</ele>
        <time>2021-10-17T13:01:23Z</time>
      </trkpt>
      <trkpt lat="39.4796410" lon="-6.3761190">
        <ele>424.8</ele>
        <time>2021-10-17T13:01:24Z</time>
      </trkpt>
      <trkpt lat="39.4796000" lon="-6.3760830">
        <ele>425.0</ele>
        <time>2021-10-17T13:01:26Z</time>
      </trkpt>
      <trkpt lat="39.4795810" lon="-6.3760260">
        <ele>425.2</ele>
        <time>2021-10-17T13:01:28Z</time>
      </trkpt>
      <trkpt lat="39.4796130" lon="-6.3758890">
        <ele>425.6</ele>
        <time>2021-10-17T13:01:32Z</time>
      </trkpt>
      <trkpt lat="39.4796310" lon="-6.3758540">
        <ele>425.6</ele>
        <time>2021-10-17T13:01:33Z</time>
      </trkpt>
      <trkpt lat="39.4797100" lon="-6.3756970">
        <ele>425.6</ele>
        <time>2021-10-17T13:01:37Z</time>
      </trkpt>
      <trkpt lat="39.4797400" lon="-6.3756070">
        <ele>425.4</ele>
        <time>2021-10-17T13:01:39Z</time>
      </trkpt>
      <trkpt lat="39.4797440" lon="-6.3754660">
        <ele>425.2</ele>
        <time>2021-10-17T13:01:42Z</time>
      </trkpt>
      <trkpt lat="39.4797270" lon="-6.3753770">
        <ele>425.2</ele>
        <time>2021-10-17T13:01:44Z</time>
      </trkpt>
      <trkpt lat="39.4797090" lon="-6.3752050">
        <ele>425.0</ele>
        <time>2021-10-17T13:01:49Z</time>
      </trkpt>
      <trkpt lat="39.4796860" lon="-6.3751600">
        <ele>424.8</ele>
        <time>2021-10-17T13:01:51Z</time>
      </trkpt>
      <trkpt lat="39.4796440" lon="-6.3751450">
        <ele>424.8</ele>
        <time>2021-10-17T13:01:53Z</time>
      </trkpt>
      <trkpt lat="39.4795070" lon="-6.3751230">
        <ele>425.2</ele>
        <time>2021-10-17T13:01:59Z</time>
      </trkpt>
      <trkpt lat="39.4794890" lon="-6.3751300">
        <ele>425.2</ele>
        <time>2021-10-17T13:02:00Z</time>
      </trkpt>
      <trkpt lat="39.4793940" lon="-6.3751220">
        <ele>425.4</ele>
        <time>2021-10-17T13:02:04Z</time>
      </trkpt>
      <trkpt lat="39.4793320" lon="-6.3751040">
        <ele>425.6</ele>
        <time>2021-10-17T13:02:07Z</time>
      </trkpt>
      <trkpt lat="39.4792450" lon="-6.3751010">
        <ele>426.0</ele>
        <time>2021-10-17T13:02:12Z</time>
      </trkpt>
      <trkpt lat="39.4792310" lon="-6.3751070">
        <ele>426.0</ele>
        <time>2021-10-17T13:02:13Z</time>
      </trkpt>
      <trkpt lat="39.4792020" lon="-6.3751190">
        <ele>426.0</ele>
        <time>2021-10-17T13:02:15Z</time>
      </trkpt>
      <trkpt lat="39.4791180" lon="-6.3750990">
        <ele>426.2</ele>
        <time>2021-10-17T13:02:19Z</time>
      </trkpt>
      <trkpt lat="39.4790510" lon="-6.3750800">
        <ele>426.4</ele>
        <time>2021-10-17T13:02:23Z</time>
      </trkpt>
      <trkpt lat="39.4790040" lon="-6.3750800">
        <ele>426.4</ele>
        <time>2021-10-17T13:02:25Z</time>
      </trkpt>
      <trkpt lat="39.4790040" lon="-6.3750560">
        <ele>426.4</ele>
        <time>2021-10-17T13:02:26Z</time>
      </trkpt>
      <trkpt lat="39.4790040" lon="-6.3750340">
        <ele>426.6</ele>
        <time>2021-10-17T13:02:27Z</time>
      </trkpt>
      <trkpt lat="39.4789310" lon="-6.3749880">
        <ele>426.8</ele>
        <time>2021-10-17T13:02:30Z</time>
      </trkpt>
      <trkpt lat="39.4789050" lon="-6.3749640">
        <ele>426.8</ele>
        <time>2021-10-17T13:02:31Z</time>
      </trkpt>
      <trkpt lat="39.4788170" lon="-6.3749410">
        <ele>427.2</ele>
        <time>2021-10-17T13:02:35Z</time>
      </trkpt>
      <trkpt lat="39.4787790" lon="-6.3749390">
        <ele>427.4</ele>
        <time>2021-10-17T13:02:37Z</time>
      </trkpt>
      <trkpt lat="39.4787520" lon="-6.3749300">
        <ele>428.0</ele>
        <time>2021-10-17T13:02:38Z</time>
      </trkpt>
      <trkpt lat="39.4786670" lon="-6.3748910">
        <ele>429.0</ele>
        <time>2021-10-17T13:02:43Z</time>
      </trkpt>
      <trkpt lat="39.4786510" lon="-6.3748810">
        <ele>429.2</ele>
        <time>2021-10-17T13:02:44Z</time>
      </trkpt>
      <trkpt lat="39.4786290" lon="-6.3748700">
        <ele>429.6</ele>
        <time>2021-10-17T13:02:45Z</time>
      </trkpt>
      <trkpt lat="39.4785940" lon="-6.3748740">
        <ele>429.8</ele>
        <time>2021-10-17T13:02:47Z</time>
      </trkpt>
      <trkpt lat="39.4785790" lon="-6.3748720">
        <ele>430.0</ele>
        <time>2021-10-17T13:02:48Z</time>
      </trkpt>
      <trkpt lat="39.4785610" lon="-6.3748730">
        <ele>430.2</ele>
        <time>2021-10-17T13:02:49Z</time>
      </trkpt>
      <trkpt lat="39.4785120" lon="-6.3748560">
        <ele>430.8</ele>
        <time>2021-10-17T13:02:52Z</time>
      </trkpt>
      <trkpt lat="39.4784760" lon="-6.3748490">
        <ele>431.2</ele>
        <time>2021-10-17T13:02:54Z</time>
      </trkpt>
      <trkpt lat="39.4784390" lon="-6.3748370">
        <ele>431.8</ele>
        <time>2021-10-17T13:02:56Z</time>
      </trkpt>
      <trkpt lat="39.4784140" lon="-6.3748340">
        <ele>432.2</ele>
        <time>2021-10-17T13:02:58Z</time>
      </trkpt>
      <trkpt lat="39.4783980" lon="-6.3748420">
        <ele>432.4</ele>
        <time>2021-10-17T13:02:59Z</time>
      </trkpt>
      <trkpt lat="39.4783580" lon="-6.3748780">
        <ele>432.8</ele>
        <time>2021-10-17T13:03:02Z</time>
      </trkpt>
      <trkpt lat="39.4783450" lon="-6.3748840">
        <ele>433.0</ele>
        <time>2021-10-17T13:03:03Z</time>
      </trkpt>
      <trkpt lat="39.4783160" lon="-6.3748860">
        <ele>433.2</ele>
        <time>2021-10-17T13:03:05Z</time>
      </trkpt>
      <trkpt lat="39.4782960" lon="-6.3748740">
        <ele>433.2</ele>
        <time>2021-10-17T13:03:06Z</time>
      </trkpt>
      <trkpt lat="39.4782440" lon="-6.3748380">
        <ele>433.6</ele>
        <time>2021-10-17T13:03:09Z</time>
      </trkpt>
      <trkpt lat="39.4782310" lon="-6.3748450">
        <ele>433.6</ele>
        <time>2021-10-17T13:03:10Z</time>
      </trkpt>
      <trkpt lat="39.4782110" lon="-6.3748630">
        <ele>433.8</ele>
        <time>2021-10-17T13:03:12Z</time>
      </trkpt>
      <trkpt lat="39.4781980" lon="-6.3748700">
        <ele>434.0</ele>
        <time>2021-10-17T13:03:13Z</time>
      </trkpt>
      <trkpt lat="39.4781680" lon="-6.3748790">
        <ele>434.4</ele>
        <time>2021-10-17T13:03:15Z</time>
      </trkpt>
      <trkpt lat="39.4781540" lon="-6.3748780">
        <ele>434.4</ele>
        <time>2021-10-17T13:03:16Z</time>
      </trkpt>
      <trkpt lat="39.4781340" lon="-6.3748760">
        <ele>434.6</ele>
        <time>2021-10-17T13:03:17Z</time>
      </trkpt>
      <trkpt lat="39.4781190" lon="-6.3748880">
        <ele>434.8</ele>
        <time>2021-10-17T13:03:18Z</time>
      </trkpt>
      <trkpt lat="39.4781040" lon="-6.3749030">
        <ele>434.8</ele>
        <time>2021-10-17T13:03:20Z</time>
      </trkpt>
      <trkpt lat="39.4781040" lon="-6.3749030">
        <ele>435.2</ele>
        <time>2021-10-17T13:03:23Z</time>
      </trkpt>
      <trkpt lat="39.4780710" lon="-6.3749100">
        <ele>435.8</ele>
        <time>2021-10-17T13:03:54Z</time>
      </trkpt>
      <trkpt lat="39.4779960" lon="-6.3749010">
        <ele>436.0</ele>
        <time>2021-10-17T13:03:57Z</time>
      </trkpt>
      <trkpt lat="39.4779520" lon="-6.3748840">
        <ele>436.2</ele>
        <time>2021-10-17T13:03:59Z</time>
      </trkpt>
      <trkpt lat="39.4778860" lon="-6.3748590">
        <ele>436.4</ele>
        <time>2021-10-17T13:04:02Z</time>
      </trkpt>
      <trkpt lat="39.4778200" lon="-6.3748260">
        <ele>436.6</ele>
        <time>2021-10-17T13:04:05Z</time>
      </trkpt>
      <trkpt lat="39.4776540" lon="-6.3747370">
        <ele>436.6</ele>
        <time>2021-10-17T13:04:11Z</time>
      </trkpt>
      <trkpt lat="39.4775420" lon="-6.3746710">
        <ele>436.6</ele>
        <time>2021-10-17T13:04:15Z</time>
      </trkpt>
      <trkpt lat="39.4774570" lon="-6.3746250">
        <ele>436.6</ele>
        <time>2021-10-17T13:04:19Z</time>
      </trkpt>
      <trkpt lat="39.4773990" lon="-6.3745760">
        <ele>436.6</ele>
        <time>2021-10-17T13:04:23Z</time>
      </trkpt>
      <trkpt lat="39.4773730" lon="-6.3745530">
        <ele>436.6</ele>
        <time>2021-10-17T13:04:25Z</time>
      </trkpt>
      <trkpt lat="39.4773540" lon="-6.3745470">
        <ele>436.6</ele>
        <time>2021-10-17T13:04:29Z</time>
      </trkpt>
      <trkpt lat="39.4773400" lon="-6.3745530">
        <ele>436.6</ele>
        <time>2021-10-17T13:04:30Z</time>
      </trkpt>
      <trkpt lat="39.4773130" lon="-6.3745810">
        <ele>436.8</ele>
        <time>2021-10-17T13:04:32Z</time>
      </trkpt>
      <trkpt lat="39.4772920" lon="-6.3746340">
        <ele>436.8</ele>
        <time>2021-10-17T13:04:34Z</time>
      </trkpt>
      <trkpt lat="39.4772660" lon="-6.3746690">
        <ele>437.0</ele>
        <time>2021-10-17T13:04:36Z</time>
      </trkpt>
      <trkpt lat="39.4771770" lon="-6.3747630">
        <ele>438.0</ele>
        <time>2021-10-17T13:04:42Z</time>
      </trkpt>
      <trkpt lat="39.4771640" lon="-6.3747770">
        <ele>438.2</ele>
        <time>2021-10-17T13:04:43Z</time>
      </trkpt>
      <trkpt lat="39.4770810" lon="-6.3748810">
        <ele>438.8</ele>
        <time>2021-10-17T13:04:49Z</time>
      </trkpt>
      <trkpt lat="39.4770650" lon="-6.3748920">
        <ele>439.2</ele>
        <time>2021-10-17T13:04:50Z</time>
      </trkpt>
      <trkpt lat="39.4769440" lon="-6.3749760">
        <ele>440.2</ele>
        <time>2021-10-17T13:04:57Z</time>
      </trkpt>
      <trkpt lat="39.4769230" lon="-6.3749880">
        <ele>440.4</ele>
        <time>2021-10-17T13:04:58Z</time>
      </trkpt>
      <trkpt lat="39.4768280" lon="-6.3750500">
        <ele>441.4</ele>
        <time>2021-10-17T13:05:04Z</time>
      </trkpt>
      <trkpt lat="39.4768100" lon="-6.3750620">
        <ele>441.4</ele>
        <time>2021-10-17T13:05:05Z</time>
      </trkpt>
      <trkpt lat="39.4767760" lon="-6.3750770">
        <ele>441.8</ele>
        <time>2021-10-17T13:05:07Z</time>
      </trkpt>
      <trkpt lat="39.4767410" lon="-6.3750920">
        <ele>442.4</ele>
        <time>2021-10-17T13:05:09Z</time>
      </trkpt>
      <trkpt lat="39.4767060" lon="-6.3750990">
        <ele>442.8</ele>
        <time>2021-10-17T13:05:11Z</time>
      </trkpt>
      <trkpt lat="39.4766470" lon="-6.3751000">
        <ele>443.6</ele>
        <time>2021-10-17T13:05:15Z</time>
      </trkpt>
      <trkpt lat="39.4766120" lon="-6.3751040">
        <ele>443.8</ele>
        <time>2021-10-17T13:05:17Z</time>
      </trkpt>
      <trkpt lat="39.4765540" lon="-6.3751110">
        <ele>444.4</ele>
        <time>2021-10-17T13:05:20Z</time>
      </trkpt>
      <trkpt lat="39.4765320" lon="-6.3751090">
        <ele>444.6</ele>
        <time>2021-10-17T13:05:21Z</time>
      </trkpt>
      <trkpt lat="39.4765020" lon="-6.3751090">
        <ele>444.8</ele>
        <time>2021-10-17T13:05:23Z</time>
      </trkpt>
      <trkpt lat="39.4764690" lon="-6.3751140">
        <ele>445.2</ele>
        <time>2021-10-17T13:05:25Z</time>
      </trkpt>
      <trkpt lat="39.4764320" lon="-6.3751260">
        <ele>445.4</ele>
        <time>2021-10-17T13:05:27Z</time>
      </trkpt>
      <trkpt lat="39.4764150" lon="-6.3751290">
        <ele>445.6</ele>
        <time>2021-10-17T13:05:28Z</time>
      </trkpt>
      <trkpt lat="39.4763480" lon="-6.3751510">
        <ele>446.2</ele>
        <time>2021-10-17T13:05:32Z</time>
      </trkpt>
      <trkpt lat="39.4763000" lon="-6.3751780">
        <ele>446.8</ele>
        <time>2021-10-17T13:05:35Z</time>
      </trkpt>
      <trkpt lat="39.4762730" lon="-6.3751840">
        <ele>447.2</ele>
        <time>2021-10-17T13:05:37Z</time>
      </trkpt>
      <trkpt lat="39.4762080" lon="-6.3752050">
        <ele>448.0</ele>
        <time>2021-10-17T13:05:41Z</time>
      </trkpt>
      <trkpt lat="39.4761840" lon="-6.3752280">
        <ele>448.2</ele>
        <time>2021-10-17T13:05:43Z</time>
      </trkpt>
      <trkpt lat="39.4761470" lon="-6.3752370">
        <ele>448.8</ele>
        <time>2021-10-17T13:05:46Z</time>
      </trkpt>
      <trkpt lat="39.4761190" lon="-6.3752510">
        <ele>449.0</ele>
        <time>2021-10-17T13:05:48Z</time>
      </trkpt>
      <trkpt lat="39.4760900" lon="-6.3752550">
        <ele>449.4</ele>
        <time>2021-10-17T13:05:50Z</time>
      </trkpt>
      <trkpt lat="39.4760230" lon="-6.3752620">
        <ele>450.0</ele>
        <time>2021-10-17T13:05:55Z</time>
      </trkpt>
      <trkpt lat="39.4760000" lon="-6.3752600">
        <ele>450.6</ele>
        <time>2021-10-17T13:05:57Z</time>
      </trkpt>
      <trkpt lat="39.4759520" lon="-6.3752340">
        <ele>451.0</ele>
        <time>2021-10-17T13:06:00Z</time>
      </trkpt>
      <trkpt lat="39.4759190" lon="-6.3752160">
        <ele>451.6</ele>
        <time>2021-10-17T13:06:03Z</time>
      </trkpt>
      <trkpt lat="39.4758440" lon="-6.3751780">
        <ele>452.2</ele>
        <time>2021-10-17T13:06:08Z</time>
      </trkpt>
      <trkpt lat="39.4758090" lon="-6.3751690">
        <ele>452.4</ele>
        <time>2021-10-17T13:06:10Z</time>
      </trkpt>
      <trkpt lat="39.4757180" lon="-6.3751220">
        <ele>453.0</ele>
        <time>2021-10-17T13:06:17Z</time>
      </trkpt>
      <trkpt lat="39.4757100" lon="-6.3751180">
        <ele>453.0</ele>
        <time>2021-10-17T13:06:18Z</time>
      </trkpt>
      <trkpt lat="39.4756890" lon="-6.3751120">
        <ele>453.2</ele>
        <time>2021-10-17T13:06:20Z</time>
      </trkpt>
      <trkpt lat="39.4756630" lon="-6.3751020">
        <ele>453.4</ele>
        <time>2021-10-17T13:06:23Z</time>
      </trkpt>
      <trkpt lat="39.4756630" lon="-6.3751020">
        <ele>453.4</ele>
        <time>2021-10-17T13:06:24Z</time>
      </trkpt>
      <trkpt lat="39.4755920" lon="-6.3750920">
        <ele>454.0</ele>
        <time>2021-10-17T13:07:02Z</time>
      </trkpt>
      <trkpt lat="39.4755540" lon="-6.3750930">
        <ele>454.0</ele>
        <time>2021-10-17T13:07:04Z</time>
      </trkpt>
      <trkpt lat="39.4755160" lon="-6.3750950">
        <ele>454.4</ele>
        <time>2021-10-17T13:07:06Z</time>
      </trkpt>
      <trkpt lat="39.4753810" lon="-6.3750770">
        <ele>455.0</ele>
        <time>2021-10-17T13:07:12Z</time>
      </trkpt>
      <trkpt lat="39.4752000" lon="-6.3750660">
        <ele>455.0</ele>
        <time>2021-10-17T13:07:19Z</time>
      </trkpt>
      <trkpt lat="39.4750310" lon="-6.3750520">
        <ele>454.6</ele>
        <time>2021-10-17T13:07:24Z</time>
      </trkpt>
      <trkpt lat="39.4749530" lon="-6.3750320">
        <ele>454.0</ele>
        <time>2021-10-17T13:07:29Z</time>
      </trkpt>
      <trkpt lat="39.4749450" lon="-6.3750130">
        <ele>453.4</ele>
        <time>2021-10-17T13:07:33Z</time>
      </trkpt>
      <trkpt lat="39.4749420" lon="-6.3749740">
        <ele>453.4</ele>
        <time>2021-10-17T13:07:35Z</time>
      </trkpt>
      <trkpt lat="39.4748970" lon="-6.3748300">
        <ele>453.2</ele>
        <time>2021-10-17T13:07:39Z</time>
      </trkpt>
      <trkpt lat="39.4748660" lon="-6.3747540">
        <ele>453.0</ele>
        <time>2021-10-17T13:07:41Z</time>
      </trkpt>
      <trkpt lat="39.4747960" lon="-6.3746720">
        <ele>452.2</ele>
        <time>2021-10-17T13:07:44Z</time>
      </trkpt>
      <trkpt lat="39.4747760" lon="-6.3746420">
        <ele>451.8</ele>
        <time>2021-10-17T13:07:45Z</time>
      </trkpt>
      <trkpt lat="39.4747500" lon="-6.3745560">
        <ele>450.6</ele>
        <time>2021-10-17T13:07:48Z</time>
      </trkpt>
      <trkpt lat="39.4747410" lon="-6.3745310">
        <ele>450.4</ele>
        <time>2021-10-17T13:07:49Z</time>
      </trkpt>
      <trkpt lat="39.4747100" lon="-6.3744810">
        <ele>449.4</ele>
        <time>2021-10-17T13:07:51Z</time>
      </trkpt>
      <trkpt lat="39.4746500" lon="-6.3743690">
        <ele>448.2</ele>
        <time>2021-10-17T13:07:54Z</time>
      </trkpt>
      <trkpt lat="39.4746230" lon="-6.3743280">
        <ele>448.0</ele>
        <time>2021-10-17T13:07:55Z</time>
      </trkpt>
      <trkpt lat="39.4746210" lon="-6.3742380">
        <ele>447.2</ele>
        <time>2021-10-17T13:07:57Z</time>
      </trkpt>
      <trkpt lat="39.4746050" lon="-6.3741360">
        <ele>445.6</ele>
        <time>2021-10-17T13:07:59Z</time>
      </trkpt>
      <trkpt lat="39.4746010" lon="-6.3740850">
        <ele>445.0</ele>
        <time>2021-10-17T13:08:00Z</time>
      </trkpt>
      <trkpt lat="39.4745840" lon="-6.3740340">
        <ele>444.0</ele>
        <time>2021-10-17T13:08:01Z</time>
      </trkpt>
      <trkpt lat="39.4745520" lon="-6.3739540">
        <ele>442.6</ele>
        <time>2021-10-17T13:08:03Z</time>
      </trkpt>
      <trkpt lat="39.4744920" lon="-6.3738660">
        <ele>441.6</ele>
        <time>2021-10-17T13:08:06Z</time>
      </trkpt>
      <trkpt lat="39.4744830" lon="-6.3738470">
        <ele>440.8</ele>
        <time>2021-10-17T13:08:07Z</time>
      </trkpt>
      <trkpt lat="39.4744780" lon="-6.3738280">
        <ele>439.8</ele>
        <time>2021-10-17T13:08:09Z</time>
      </trkpt>
      <trkpt lat="39.4744780" lon="-6.3738280">
        <ele>438.4</ele>
        <time>2021-10-17T13:08:11Z</time>
      </trkpt>
      <trkpt lat="39.4745170" lon="-6.3737880">
        <ele>437.0</ele>
        <time>2021-10-17T13:08:17Z</time>
      </trkpt>
      <trkpt lat="39.4745240" lon="-6.3737740">
        <ele>436.8</ele>
        <time>2021-10-17T13:08:18Z</time>
      </trkpt>
      <trkpt lat="39.4746230" lon="-6.3736670">
        <ele>436.4</ele>
        <time>2021-10-17T13:08:24Z</time>
      </trkpt>
      <trkpt lat="39.4747510" lon="-6.3735780">
        <ele>436.2</ele>
        <time>2021-10-17T13:08:29Z</time>
      </trkpt>
      <trkpt lat="39.4748580" lon="-6.3735080">
        <ele>436.0</ele>
        <time>2021-10-17T13:08:32Z</time>
      </trkpt>
      <trkpt lat="39.4749300" lon="-6.3734620">
        <ele>435.8</ele>
        <time>2021-10-17T13:08:34Z</time>
      </trkpt>
      <trkpt lat="39.4750610" lon="-6.3733860">
        <ele>435.6</ele>
        <time>2021-10-17T13:08:38Z</time>
      </trkpt>
      <trkpt lat="39.4751910" lon="-6.3734290">
        <ele>435.4</ele>
        <time>2021-10-17T13:08:43Z</time>
      </trkpt>
      <trkpt lat="39.4753320" lon="-6.3734700">
        <ele>435.6</ele>
        <time>2021-10-17T13:08:49Z</time>
      </trkpt>
      <trkpt lat="39.4753960" lon="-6.3734160">
        <ele>435.6</ele>
        <time>2021-10-17T13:08:51Z</time>
      </trkpt>
      <trkpt lat="39.4754620" lon="-6.3734010">
        <ele>435.6</ele>
        <time>2021-10-17T13:08:53Z</time>
      </trkpt>
      <trkpt lat="39.4755750" lon="-6.3734500">
        <ele>436.0</ele>
        <time>2021-10-17T13:08:57Z</time>
      </trkpt>
      <trkpt lat="39.4756450" lon="-6.3735280">
        <ele>436.2</ele>
        <time>2021-10-17T13:09:00Z</time>
      </trkpt>
      <trkpt lat="39.4756670" lon="-6.3735770">
        <ele>436.2</ele>
        <time>2021-10-17T13:09:02Z</time>
      </trkpt>
      <trkpt lat="39.4757000" lon="-6.3736150">
        <ele>436.4</ele>
        <time>2021-10-17T13:09:04Z</time>
      </trkpt>
      <trkpt lat="39.4758010" lon="-6.3737110">
        <ele>437.2</ele>
        <time>2021-10-17T13:09:09Z</time>
      </trkpt>
      <trkpt lat="39.4758500" lon="-6.3737420">
        <ele>437.2</ele>
        <time>2021-10-17T13:09:11Z</time>
      </trkpt>
      <trkpt lat="39.4759520" lon="-6.3738800">
        <ele>437.8</ele>
        <time>2021-10-17T13:09:16Z</time>
      </trkpt>
      <trkpt lat="39.4759690" lon="-6.3739110">
        <ele>437.8</ele>
        <time>2021-10-17T13:09:17Z</time>
      </trkpt>
      <trkpt lat="39.4759920" lon="-6.3739400">
        <ele>438.0</ele>
        <time>2021-10-17T13:09:18Z</time>
      </trkpt>
      <trkpt lat="39.4760060" lon="-6.3739630">
        <ele>438.0</ele>
        <time>2021-10-17T13:09:19Z</time>
      </trkpt>
      <trkpt lat="39.4760320" lon="-6.3739950">
        <ele>438.2</ele>
        <time>2021-10-17T13:09:21Z</time>
      </trkpt>
      <trkpt lat="39.4760870" lon="-6.3740730">
        <ele>438.6</ele>
        <time>2021-10-17T13:09:24Z</time>
      </trkpt>
      <trkpt lat="39.4761390" lon="-6.3741000">
        <ele>439.0</ele>
        <time>2021-10-17T13:09:26Z</time>
      </trkpt>
      <trkpt lat="39.4761560" lon="-6.3741240">
        <ele>439.2</ele>
        <time>2021-10-17T13:09:27Z</time>
      </trkpt>
      <trkpt lat="39.4761910" lon="-6.3741820">
        <ele>439.4</ele>
        <time>2021-10-17T13:09:29Z</time>
      </trkpt>
      <trkpt lat="39.4762080" lon="-6.3742040">
        <ele>439.4</ele>
        <time>2021-10-17T13:09:30Z</time>
      </trkpt>
      <trkpt lat="39.4762810" lon="-6.3742460">
        <ele>439.6</ele>
        <time>2021-10-17T13:09:33Z</time>
      </trkpt>
      <trkpt lat="39.4763190" lon="-6.3742330">
        <ele>439.6</ele>
        <time>2021-10-17T13:09:34Z</time>
      </trkpt>
      <trkpt lat="39.4764760" lon="-6.3742620">
        <ele>439.6</ele>
        <time>2021-10-17T13:09:39Z</time>
      </trkpt>
      <trkpt lat="39.4765430" lon="-6.3742820">
        <ele>439.6</ele>
        <time>2021-10-17T13:09:41Z</time>
      </trkpt>
      <trkpt lat="39.4767360" lon="-6.3743080">
        <ele>439.4</ele>
        <time>2021-10-17T13:09:46Z</time>
      </trkpt>
      <trkpt lat="39.4767800" lon="-6.3743150">
        <ele>439.4</ele>
        <time>2021-10-17T13:09:47Z</time>
      </trkpt>
      <trkpt lat="39.4771070" lon="-6.3743970">
        <ele>438.6</ele>
        <time>2021-10-17T13:09:55Z</time>
      </trkpt>
      <trkpt lat="39.4771870" lon="-6.3744230">
        <ele>438.4</ele>
        <time>2021-10-17T13:09:57Z</time>
      </trkpt>
      <trkpt lat="39.4773190" lon="-6.3744690">
        <ele>438.0</ele>
        <time>2021-10-17T13:10:00Z</time>
      </trkpt>
      <trkpt lat="39.4774360" lon="-6.3745410">
        <ele>437.8</ele>
        <time>2021-10-17T13:10:03Z</time>
      </trkpt>
      <trkpt lat="39.4774750" lon="-6.3745690">
        <ele>437.8</ele>
        <time>2021-10-17T13:10:04Z</time>
      </trkpt>
      <trkpt lat="39.4775840" lon="-6.3746530">
        <ele>437.2</ele>
        <time>2021-10-17T13:10:07Z</time>
      </trkpt>
      <trkpt lat="39.4776310" lon="-6.3746750">
        <ele>437.0</ele>
        <time>2021-10-17T13:10:09Z</time>
      </trkpt>
      <trkpt lat="39.4776450" lon="-6.3746620">
        <ele>437.0</ele>
        <time>2021-10-17T13:10:10Z</time>
      </trkpt>
      <trkpt lat="39.4777220" lon="-6.3744600">
        <ele>436.4</ele>
        <time>2021-10-17T13:10:14Z</time>
      </trkpt>
      <trkpt lat="39.4777400" lon="-6.3744010">
        <ele>436.4</ele>
        <time>2021-10-17T13:10:15Z</time>
      </trkpt>
      <trkpt lat="39.4777850" lon="-6.3742740">
        <ele>435.8</ele>
        <time>2021-10-17T13:10:17Z</time>
      </trkpt>
      <trkpt lat="39.4778100" lon="-6.3742200">
        <ele>435.0</ele>
        <time>2021-10-17T13:10:18Z</time>
      </trkpt>
      <trkpt lat="39.4778310" lon="-6.3741720">
        <ele>434.6</ele>
        <time>2021-10-17T13:10:19Z</time>
      </trkpt>
      <trkpt lat="39.4778480" lon="-6.3741330">
        <ele>433.8</ele>
        <time>2021-10-17T13:10:20Z</time>
      </trkpt>
      <trkpt lat="39.4778620" lon="-6.3741010">
        <ele>433.6</ele>
        <time>2021-10-17T13:10:21Z</time>
      </trkpt>
      <trkpt lat="39.4778590" lon="-6.3740720">
        <ele>432.8</ele>
        <time>2021-10-17T13:10:22Z</time>
      </trkpt>
      <trkpt lat="39.4778370" lon="-6.3740580">
        <ele>432.0</ele>
        <time>2021-10-17T13:10:23Z</time>
      </trkpt>
      <trkpt lat="39.4777710" lon="-6.3740270">
        <ele>430.8</ele>
        <time>2021-10-17T13:10:25Z</time>
      </trkpt>
      <trkpt lat="39.4776800" lon="-6.3739780">
        <ele>430.0</ele>
        <time>2021-10-17T13:10:28Z</time>
      </trkpt>
      <trkpt lat="39.4776110" lon="-6.3739340">
        <ele>429.6</ele>
        <time>2021-10-17T13:10:31Z</time>
      </trkpt>
      <trkpt lat="39.4775180" lon="-6.3738650">
        <ele>429.6</ele>
        <time>2021-10-17T13:10:35Z</time>
      </trkpt>
      <trkpt lat="39.4773290" lon="-6.3737450">
        <ele>429.8</ele>
        <time>2021-10-17T13:10:42Z</time>
      </trkpt>
      <trkpt lat="39.4771340" lon="-6.3735520">
        <ele>429.2</ele>
        <time>2021-10-17T13:10:50Z</time>
      </trkpt>
      <trkpt lat="39.4769370" lon="-6.3733680">
        <ele>428.4</ele>
        <time>2021-10-17T13:10:57Z</time>
      </trkpt>
      <trkpt lat="39.4768590" lon="-6.3731730">
        <ele>428.0</ele>
        <time>2021-10-17T13:11:01Z</time>
      </trkpt>
      <trkpt lat="39.4768240" lon="-6.3730680">
        <ele>427.4</ele>
        <time>2021-10-17T13:11:03Z</time>
      </trkpt>
      <trkpt lat="39.4767840" lon="-6.3729070">
        <ele>426.6</ele>
        <time>2021-10-17T13:11:06Z</time>
      </trkpt>
      <trkpt lat="39.4767730" lon="-6.3728640">
        <ele>426.2</ele>
        <time>2021-10-17T13:11:07Z</time>
      </trkpt>
      <trkpt lat="39.4767540" lon="-6.3728120">
        <ele>426.2</ele>
        <time>2021-10-17T13:11:08Z</time>
      </trkpt>
      <trkpt lat="39.4766970" lon="-6.3726590">
        <ele>425.2</ele>
        <time>2021-10-17T13:11:11Z</time>
      </trkpt>
      <trkpt lat="39.4766700" lon="-6.3726090">
        <ele>424.8</ele>
        <time>2021-10-17T13:11:12Z</time>
      </trkpt>
      <trkpt lat="39.4766270" lon="-6.3725060">
        <ele>424.0</ele>
        <time>2021-10-17T13:11:14Z</time>
      </trkpt>
      <trkpt lat="39.4765880" lon="-6.3724090">
        <ele>422.8</ele>
        <time>2021-10-17T13:11:16Z</time>
      </trkpt>
      <trkpt lat="39.4765620" lon="-6.3723140">
        <ele>422.0</ele>
        <time>2021-10-17T13:11:18Z</time>
      </trkpt>
      <trkpt lat="39.4765430" lon="-6.3722520">
        <ele>421.4</ele>
        <time>2021-10-17T13:11:20Z</time>
      </trkpt>
      <trkpt lat="39.4765370" lon="-6.3722400">
        <ele>420.4</ele>
        <time>2021-10-17T13:11:22Z</time>
      </trkpt>
      <trkpt lat="39.4765300" lon="-6.3722360">
        <ele>420.2</ele>
        <time>2021-10-17T13:11:23Z</time>
      </trkpt>
      <trkpt lat="39.4765010" lon="-6.3722480">
        <ele>419.2</ele>
        <time>2021-10-17T13:11:25Z</time>
      </trkpt>
      <trkpt lat="39.4764820" lon="-6.3722610">
        <ele>419.2</ele>
        <time>2021-10-17T13:11:26Z</time>
      </trkpt>
      <trkpt lat="39.4764720" lon="-6.3722710">
        <ele>419.0</ele>
        <time>2021-10-17T13:11:27Z</time>
      </trkpt>
      <trkpt lat="39.4764060" lon="-6.3722910">
        <ele>419.0</ele>
        <time>2021-10-17T13:11:31Z</time>
      </trkpt>
      <trkpt lat="39.4763680" lon="-6.3722670">
        <ele>419.0</ele>
        <time>2021-10-17T13:11:32Z</time>
      </trkpt>
      <trkpt lat="39.4763450" lon="-6.3722610">
        <ele>419.0</ele>
        <time>2021-10-17T13:11:33Z</time>
      </trkpt>
      <trkpt lat="39.4763170" lon="-6.3722700">
        <ele>419.2</ele>
        <time>2021-10-17T13:11:35Z</time>
      </trkpt>
      <trkpt lat="39.4763040" lon="-6.3722700">
        <ele>419.4</ele>
        <time>2021-10-17T13:11:38Z</time>
      </trkpt>
      <trkpt lat="39.4762110" lon="-6.3722860">
        <ele>420.0</ele>
        <time>2021-10-17T13:13:25Z</time>
      </trkpt>
      <trkpt lat="39.4761970" lon="-6.3723010">
        <ele>420.2</ele>
        <time>2021-10-17T13:13:26Z</time>
      </trkpt>
      <trkpt lat="39.4761180" lon="-6.3724010">
        <ele>420.8</ele>
        <time>2021-10-17T13:13:31Z</time>
      </trkpt>
      <trkpt lat="39.4761070" lon="-6.3724130">
        <ele>420.8</ele>
        <time>2021-10-17T13:13:32Z</time>
      </trkpt>
      <trkpt lat="39.4760810" lon="-6.3724350">
        <ele>421.0</ele>
        <time>2021-10-17T13:13:34Z</time>
      </trkpt>
      <trkpt lat="39.4760670" lon="-6.3724400">
        <ele>421.2</ele>
        <time>2021-10-17T13:13:35Z</time>
      </trkpt>
      <trkpt lat="39.4760080" lon="-6.3724650">
        <ele>421.6</ele>
        <time>2021-10-17T13:13:39Z</time>
      </trkpt>
      <trkpt lat="39.4759890" lon="-6.3725030">
        <ele>422.0</ele>
        <time>2021-10-17T13:13:41Z</time>
      </trkpt>
      <trkpt lat="39.4759840" lon="-6.3725250">
        <ele>422.0</ele>
        <time>2021-10-17T13:13:42Z</time>
      </trkpt>
      <trkpt lat="39.4759770" lon="-6.3725470">
        <ele>422.2</ele>
        <time>2021-10-17T13:13:43Z</time>
      </trkpt>
      <trkpt lat="39.4759650" lon="-6.3725660">
        <ele>422.4</ele>
        <time>2021-10-17T13:13:44Z</time>
      </trkpt>
      <trkpt lat="39.4759300" lon="-6.3725980">
        <ele>422.6</ele>
        <time>2021-10-17T13:13:46Z</time>
      </trkpt>
      <trkpt lat="39.4758210" lon="-6.3726770">
        <ele>423.2</ele>
        <time>2021-10-17T13:13:52Z</time>
      </trkpt>
      <trkpt lat="39.4758080" lon="-6.3726870">
        <ele>423.4</ele>
        <time>2021-10-17T13:13:53Z</time>
      </trkpt>
      <trkpt lat="39.4757460" lon="-6.3727290">
        <ele>424.2</ele>
        <time>2021-10-17T13:13:57Z</time>
      </trkpt>
      <trkpt lat="39.4757320" lon="-6.3727320">
        <ele>424.4</ele>
        <time>2021-10-17T13:13:58Z</time>
      </trkpt>
      <trkpt lat="39.4757170" lon="-6.3727430">
        <ele>424.4</ele>
        <time>2021-10-17T13:13:59Z</time>
      </trkpt>
      <trkpt lat="39.4756730" lon="-6.3727870">
        <ele>424.8</ele>
        <time>2021-10-17T13:14:02Z</time>
      </trkpt>
      <trkpt lat="39.4756450" lon="-6.3728190">
        <ele>424.8</ele>
        <time>2021-10-17T13:14:04Z</time>
      </trkpt>
      <trkpt lat="39.4756120" lon="-6.3728420">
        <ele>425.0</ele>
        <time>2021-10-17T13:14:06Z</time>
      </trkpt>
      <trkpt lat="39.4755750" lon="-6.3728640">
        <ele>425.4</ele>
        <time>2021-10-17T13:14:08Z</time>
      </trkpt>
      <trkpt lat="39.4755380" lon="-6.3728780">
        <ele>425.6</ele>
        <time>2021-10-17T13:14:10Z</time>
      </trkpt>
      <trkpt lat="39.4755010" lon="-6.3728890">
        <ele>425.8</ele>
        <time>2021-10-17T13:14:12Z</time>
      </trkpt>
      <trkpt lat="39.4754490" lon="-6.3728830">
        <ele>426.2</ele>
        <time>2021-10-17T13:14:15Z</time>
      </trkpt>
      <trkpt lat="39.4754140" lon="-6.3728870">
        <ele>426.4</ele>
        <time>2021-10-17T13:14:17Z</time>
      </trkpt>
      <trkpt lat="39.4753910" lon="-6.3728840">
        <ele>426.6</ele>
        <time>2021-10-17T13:14:18Z</time>
      </trkpt>
      <trkpt lat="39.4752910" lon="-6.3729410">
        <ele>427.4</ele>
        <time>2021-10-17T13:14:23Z</time>
      </trkpt>
      <trkpt lat="39.4752740" lon="-6.3729460">
        <ele>427.4</ele>
        <time>2021-10-17T13:14:24Z</time>
      </trkpt>
      <trkpt lat="39.4751920" lon="-6.3729700">
        <ele>428.2</ele>
        <time>2021-10-17T13:14:28Z</time>
      </trkpt>
      <trkpt lat="39.4751580" lon="-6.3729910">
        <ele>428.4</ele>
        <time>2021-10-17T13:14:30Z</time>
      </trkpt>
      <trkpt lat="39.4751280" lon="-6.3730010">
        <ele>428.6</ele>
        <time>2021-10-17T13:14:32Z</time>
      </trkpt>
      <trkpt lat="39.4751200" lon="-6.3730080">
        <ele>428.8</ele>
        <time>2021-10-17T13:14:34Z</time>
      </trkpt>
      <trkpt lat="39.4751090" lon="-6.3730100">
        <ele>429.0</ele>
        <time>2021-10-17T13:14:35Z</time>
      </trkpt>
      <trkpt lat="39.4751000" lon="-6.3730120">
        <ele>429.4</ele>
        <time>2021-10-17T13:14:39Z</time>
      </trkpt>
      <trkpt lat="39.4749630" lon="-6.3734510">
        <ele>436.0</ele>
        <time>2021-10-17T13:16:12Z</time>
      </trkpt>
      <trkpt lat="39.4749070" lon="-6.3734860">
        <ele>436.0</ele>
        <time>2021-10-17T13:16:15Z</time>
      </trkpt>
      <trkpt lat="39.4748310" lon="-6.3735460">
        <ele>436.4</ele>
        <time>2021-10-17T13:16:19Z</time>
      </trkpt>
      <trkpt lat="39.4748030" lon="-6.3735610">
        <ele>436.4</ele>
        <time>2021-10-17T13:16:20Z</time>
      </trkpt>
      <trkpt lat="39.4747040" lon="-6.3735830">
        <ele>436.6</ele>
        <time>2021-10-17T13:16:24Z</time>
      </trkpt>
      <trkpt lat="39.4746570" lon="-6.3736150">
        <ele>436.6</ele>
        <time>2021-10-17T13:16:26Z</time>
      </trkpt>
      <trkpt lat="39.4745040" lon="-6.3737750">
        <ele>437.0</ele>
        <time>2021-10-17T13:16:32Z</time>
      </trkpt>
      <trkpt lat="39.4744860" lon="-6.3738170">
        <ele>437.0</ele>
        <time>2021-10-17T13:16:34Z</time>
      </trkpt>
      <trkpt lat="39.4744810" lon="-6.3738350">
        <ele>437.0</ele>
        <time>2021-10-17T13:16:35Z</time>
      </trkpt>
      <trkpt lat="39.4744400" lon="-6.3738790">
        <ele>437.2</ele>
        <time>2021-10-17T13:16:38Z</time>
      </trkpt>
      <trkpt lat="39.4744160" lon="-6.3738880">
        <ele>437.4</ele>
        <time>2021-10-17T13:16:42Z</time>
      </trkpt>
      <trkpt lat="39.4742830" lon="-6.3739360">
        <ele>438.0</ele>
        <time>2021-10-17T13:16:55Z</time>
      </trkpt>
      <trkpt lat="39.4742420" lon="-6.3739580">
        <ele>438.0</ele>
        <time>2021-10-17T13:16:57Z</time>
      </trkpt>
      <trkpt lat="39.4741650" lon="-6.3740170">
        <ele>438.4</ele>
        <time>2021-10-17T13:17:01Z</time>
      </trkpt>
      <trkpt lat="39.4741260" lon="-6.3741390">
        <ele>438.4</ele>
        <time>2021-10-17T13:17:06Z</time>
      </trkpt>
      <trkpt lat="39.4740590" lon="-6.3742250">
        <ele>438.6</ele>
        <time>2021-10-17T13:17:10Z</time>
      </trkpt>
      <trkpt lat="39.4739380" lon="-6.3743800">
        <ele>438.6</ele>
        <time>2021-10-17T13:17:16Z</time>
      </trkpt>
      <trkpt lat="39.4738400" lon="-6.3744760">
        <ele>438.2</ele>
        <time>2021-10-17T13:17:21Z</time>
      </trkpt>
      <trkpt lat="39.4738200" lon="-6.3744910">
        <ele>438.2</ele>
        <time>2021-10-17T13:17:22Z</time>
      </trkpt>
      <trkpt lat="39.4737990" lon="-6.3745130">
        <ele>438.0</ele>
        <time>2021-10-17T13:17:23Z</time>
      </trkpt>
      <trkpt lat="39.4737350" lon="-6.3746090">
        <ele>438.0</ele>
        <time>2021-10-17T13:17:26Z</time>
      </trkpt>
      <trkpt lat="39.4736050" lon="-6.3747890">
        <ele>437.4</ele>
        <time>2021-10-17T13:17:30Z</time>
      </trkpt>
      <trkpt lat="39.4735610" lon="-6.3748380">
        <ele>437.2</ele>
        <time>2021-10-17T13:17:31Z</time>
      </trkpt>
      <trkpt lat="39.4735490" lon="-6.3748600">
        <ele>437.0</ele>
        <time>2021-10-17T13:17:32Z</time>
      </trkpt>
      <trkpt lat="39.4735110" lon="-6.3749180">
        <ele>436.6</ele>
        <time>2021-10-17T13:17:34Z</time>
      </trkpt>
      <trkpt lat="39.4734890" lon="-6.3749510">
        <ele>436.2</ele>
        <time>2021-10-17T13:17:35Z</time>
      </trkpt>
      <trkpt lat="39.4734320" lon="-6.3750550">
        <ele>435.6</ele>
        <time>2021-10-17T13:17:38Z</time>
      </trkpt>
      <trkpt lat="39.4733980" lon="-6.3751060">
        <ele>435.4</ele>
        <time>2021-10-17T13:17:39Z</time>
      </trkpt>
      <trkpt lat="39.4733610" lon="-6.3751440">
        <ele>435.2</ele>
        <time>2021-10-17T13:17:40Z</time>
      </trkpt>
      <trkpt lat="39.4732420" lon="-6.3752610">
        <ele>434.8</ele>
        <time>2021-10-17T13:17:44Z</time>
      </trkpt>
      <trkpt lat="39.4732050" lon="-6.3752610">
        <ele>434.2</ele>
        <time>2021-10-17T13:17:45Z</time>
      </trkpt>
      <trkpt lat="39.4731780" lon="-6.3752840">
        <ele>434.2</ele>
        <time>2021-10-17T13:17:46Z</time>
      </trkpt>
      <trkpt lat="39.4731450" lon="-6.3753680">
        <ele>433.6</ele>
        <time>2021-10-17T13:17:49Z</time>
      </trkpt>
      <trkpt lat="39.4731750" lon="-6.3754240">
        <ele>433.6</ele>
        <time>2021-10-17T13:17:55Z</time>
      </trkpt>
      <trkpt lat="39.4731770" lon="-6.3754430">
        <ele>433.6</ele>
        <time>2021-10-17T13:17:57Z</time>
      </trkpt>
      <trkpt lat="39.4731870" lon="-6.3754700">
        <ele>433.8</ele>
        <time>2021-10-17T13:17:59Z</time>
      </trkpt>
      <trkpt lat="39.4732090" lon="-6.3755110">
        <ele>434.2</ele>
        <time>2021-10-17T13:18:01Z</time>
      </trkpt>
      <trkpt lat="39.4732510" lon="-6.3755870">
        <ele>434.8</ele>
        <time>2021-10-17T13:18:06Z</time>
      </trkpt>
      <trkpt lat="39.4732520" lon="-6.3756000">
        <ele>435.0</ele>
        <time>2021-10-17T13:18:07Z</time>
      </trkpt>
      <trkpt lat="39.4732670" lon="-6.3756270">
        <ele>435.4</ele>
        <time>2021-10-17T13:18:08Z</time>
      </trkpt>
      <trkpt lat="39.4733120" lon="-6.3757130">
        <ele>436.2</ele>
        <time>2021-10-17T13:18:12Z</time>
      </trkpt>
      <trkpt lat="39.4733190" lon="-6.3757380">
        <ele>436.6</ele>
        <time>2021-10-17T13:18:14Z</time>
      </trkpt>
      <trkpt lat="39.4733200" lon="-6.3757590">
        <ele>436.8</ele>
        <time>2021-10-17T13:18:16Z</time>
      </trkpt>
      <trkpt lat="39.4733290" lon="-6.3757770">
        <ele>437.4</ele>
        <time>2021-10-17T13:18:18Z</time>
      </trkpt>
      <trkpt lat="39.4733360" lon="-6.3757960">
        <ele>437.8</ele>
        <time>2021-10-17T13:18:20Z</time>
      </trkpt>
      <trkpt lat="39.4733370" lon="-6.3758030">
        <ele>438.0</ele>
        <time>2021-10-17T13:18:21Z</time>
      </trkpt>
      <trkpt lat="39.4733430" lon="-6.3758400">
        <ele>438.4</ele>
        <time>2021-10-17T13:18:24Z</time>
      </trkpt>
      <trkpt lat="39.4733370" lon="-6.3758930">
        <ele>439.2</ele>
        <time>2021-10-17T13:18:29Z</time>
      </trkpt>
      <trkpt lat="39.4733440" lon="-6.3759070">
        <ele>439.6</ele>
        <time>2021-10-17T13:18:31Z</time>
      </trkpt>
      <trkpt lat="39.4733550" lon="-6.3759140">
        <ele>439.8</ele>
        <time>2021-10-17T13:18:33Z</time>
      </trkpt>
      <trkpt lat="39.4733660" lon="-6.3759360">
        <ele>440.2</ele>
        <time>2021-10-17T13:18:35Z</time>
      </trkpt>
      <trkpt lat="39.4733740" lon="-6.3759610">
        <ele>440.4</ele>
        <time>2021-10-17T13:18:37Z</time>
      </trkpt>
      <trkpt lat="39.4733800" lon="-6.3759900">
        <ele>440.6</ele>
        <time>2021-10-17T13:18:39Z</time>
      </trkpt>
      <trkpt lat="39.4733850" lon="-6.3760050">
        <ele>440.6</ele>
        <time>2021-10-17T13:18:40Z</time>
      </trkpt>
      <trkpt lat="39.4733940" lon="-6.3760340">
        <ele>441.0</ele>
        <time>2021-10-17T13:18:42Z</time>
      </trkpt>
      <trkpt lat="39.4733950" lon="-6.3760570">
        <ele>441.2</ele>
        <time>2021-10-17T13:18:44Z</time>
      </trkpt>
      <trkpt lat="39.4733960" lon="-6.3760750">
        <ele>441.4</ele>
        <time>2021-10-17T13:18:46Z</time>
      </trkpt>
      <trkpt lat="39.4733970" lon="-6.3761030">
        <ele>441.6</ele>
        <time>2021-10-17T13:18:48Z</time>
      </trkpt>
      <trkpt lat="39.4734230" lon="-6.3761590">
        <ele>442.4</ele>
        <time>2021-10-17T13:18:52Z</time>
      </trkpt>
      <trkpt lat="39.4734260" lon="-6.3761870">
        <ele>442.6</ele>
        <time>2021-10-17T13:18:54Z</time>
      </trkpt>
      <trkpt lat="39.4734370" lon="-6.3762130">
        <ele>443.0</ele>
        <time>2021-10-17T13:18:56Z</time>
      </trkpt>
      <trkpt lat="39.4734540" lon="-6.3762560">
        <ele>443.2</ele>
        <time>2021-10-17T13:18:59Z</time>
      </trkpt>
      <trkpt lat="39.4734730" lon="-6.3763100">
        <ele>443.8</ele>
        <time>2021-10-17T13:19:05Z</time>
      </trkpt>
      <trkpt lat="39.4734790" lon="-6.3763220">
        <ele>444.2</ele>
        <time>2021-10-17T13:19:07Z</time>
      </trkpt>
      <trkpt lat="39.4735110" lon="-6.3763100">
        <ele>445.0</ele>
        <time>2021-10-17T13:19:12Z</time>
      </trkpt>
      <trkpt lat="39.4735260" lon="-6.3762970">
        <ele>445.0</ele>
        <time>2021-10-17T13:19:13Z</time>
      </trkpt>
      <trkpt lat="39.4735430" lon="-6.3762900">
        <ele>445.2</ele>
        <time>2021-10-17T13:19:14Z</time>
      </trkpt>
      <trkpt lat="39.4735730" lon="-6.3762820">
        <ele>445.4</ele>
        <time>2021-10-17T13:19:18Z</time>
      </trkpt>
      <trkpt lat="39.4735960" lon="-6.3762580">
        <ele>445.6</ele>
        <time>2021-10-17T13:19:20Z</time>
      </trkpt>
      <trkpt lat="39.4736090" lon="-6.3762460">
        <ele>445.6</ele>
        <time>2021-10-17T13:19:21Z</time>
      </trkpt>
      <trkpt lat="39.4736300" lon="-6.3762260">
        <ele>445.6</ele>
        <time>2021-10-17T13:19:23Z</time>
      </trkpt>
      <trkpt lat="39.4736440" lon="-6.3762020">
        <ele>445.8</ele>
        <time>2021-10-17T13:19:25Z</time>
      </trkpt>
      <trkpt lat="39.4736820" lon="-6.3761360">
        <ele>446.0</ele>
        <time>2021-10-17T13:19:29Z</time>
      </trkpt>
      <trkpt lat="39.4736910" lon="-6.3761190">
        <ele>446.0</ele>
        <time>2021-10-17T13:19:31Z</time>
      </trkpt>
      <trkpt lat="39.4736910" lon="-6.3761190">
        <ele>446.2</ele>
        <time>2021-10-17T13:19:34Z</time>
      </trkpt>
      <trkpt lat="39.4735900" lon="-6.3761830">
        <ele>445.4</ele>
        <time>2021-10-17T13:37:32Z</time>
      </trkpt>
      <trkpt lat="39.4735840" lon="-6.3761980">
        <ele>445.4</ele>
        <time>2021-10-17T13:37:33Z</time>
      </trkpt>
      <trkpt lat="39.4735740" lon="-6.3762530">
        <ele>445.4</ele>
        <time>2021-10-17T13:37:36Z</time>
      </trkpt>
      <trkpt lat="39.4735270" lon="-6.3762730">
        <ele>445.4</ele>
        <time>2021-10-17T13:37:40Z</time>
      </trkpt>
      <trkpt lat="39.4734960" lon="-6.3762600">
        <ele>445.2</ele>
        <time>2021-10-17T13:37:42Z</time>
      </trkpt>
      <trkpt lat="39.4734380" lon="-6.3762400">
        <ele>445.2</ele>
        <time>2021-10-17T13:37:46Z</time>
      </trkpt>
      <trkpt lat="39.4734290" lon="-6.3762430">
        <ele>445.0</ele>
        <time>2021-10-17T13:37:47Z</time>
      </trkpt>
      <trkpt lat="39.4733710" lon="-6.3762480">
        <ele>445.0</ele>
        <time>2021-10-17T13:37:51Z</time>
      </trkpt>
      <trkpt lat="39.4733490" lon="-6.3762520">
        <ele>445.0</ele>
        <time>2021-10-17T13:37:53Z</time>
      </trkpt>
      <trkpt lat="39.4733280" lon="-6.3762720">
        <ele>444.8</ele>
        <time>2021-10-17T13:37:55Z</time>
      </trkpt>
      <trkpt lat="39.4733010" lon="-6.3762830">
        <ele>444.8</ele>
        <time>2021-10-17T13:37:57Z</time>
      </trkpt>
      <trkpt lat="39.4732900" lon="-6.3762940">
        <ele>444.8</ele>
        <time>2021-10-17T13:37:58Z</time>
      </trkpt>
      <trkpt lat="39.4732650" lon="-6.3763070">
        <ele>444.8</ele>
        <time>2021-10-17T13:38:00Z</time>
      </trkpt>
      <trkpt lat="39.4732480" lon="-6.3763080">
        <ele>444.8</ele>
        <time>2021-10-17T13:38:01Z</time>
      </trkpt>
      <trkpt lat="39.4732290" lon="-6.3763240">
        <ele>444.8</ele>
        <time>2021-10-17T13:38:02Z</time>
      </trkpt>
      <trkpt lat="39.4732150" lon="-6.3764010">
        <ele>444.8</ele>
        <time>2021-10-17T13:38:05Z</time>
      </trkpt>
      <trkpt lat="39.4732160" lon="-6.3764300">
        <ele>444.8</ele>
        <time>2021-10-17T13:38:06Z</time>
      </trkpt>
      <trkpt lat="39.4731870" lon="-6.3764560">
        <ele>444.6</ele>
        <time>2021-10-17T13:38:11Z</time>
      </trkpt>
      <trkpt lat="39.4731570" lon="-6.3764690">
        <ele>444.4</ele>
        <time>2021-10-17T13:38:14Z</time>
      </trkpt>
      <trkpt lat="39.4731080" lon="-6.3765120">
        <ele>444.4</ele>
        <time>2021-10-17T13:38:18Z</time>
      </trkpt>
      <trkpt lat="39.4730810" lon="-6.3765110">
        <ele>444.0</ele>
        <time>2021-10-17T13:38:23Z</time>
      </trkpt>
      <trkpt lat="39.4730810" lon="-6.3765110">
        <ele>444.0</ele>
        <time>2021-10-17T13:38:25Z</time>
      </trkpt>
      <trkpt lat="39.4734430" lon="-6.3763780">
        <ele>446.0</ele>
        <time>2021-10-17T13:57:58Z</time>
      </trkpt>
      <trkpt lat="39.4734540" lon="-6.3763650">
        <ele>446.0</ele>
        <time>2021-10-17T13:58:00Z</time>
      </trkpt>
      <trkpt lat="39.4734810" lon="-6.3763400">
        <ele>446.0</ele>
        <time>2021-10-17T13:58:02Z</time>
      </trkpt>
      <trkpt lat="39.4735180" lon="-6.3763210">
        <ele>446.0</ele>
        <time>2021-10-17T13:58:06Z</time>
      </trkpt>
      <trkpt lat="39.4735580" lon="-6.3763430">
        <ele>446.0</ele>
        <time>2021-10-17T13:58:11Z</time>
      </trkpt>
      <trkpt lat="39.4735700" lon="-6.3763400">
        <ele>446.2</ele>
        <time>2021-10-17T13:58:13Z</time>
      </trkpt>
      <trkpt lat="39.4735980" lon="-6.3762890">
        <ele>446.4</ele>
        <time>2021-10-17T13:58:18Z</time>
      </trkpt>
      <trkpt lat="39.4736250" lon="-6.3762400">
        <ele>446.4</ele>
        <time>2021-10-17T13:58:21Z</time>
      </trkpt>
      <trkpt lat="39.4736250" lon="-6.3762230">
        <ele>446.4</ele>
        <time>2021-10-17T13:58:23Z</time>
      </trkpt>
      <trkpt lat="39.4736830" lon="-6.3761300">
        <ele>446.8</ele>
        <time>2021-10-17T13:58:29Z</time>
      </trkpt>
      <trkpt lat="39.4737150" lon="-6.3760420">
        <ele>447.0</ele>
        <time>2021-10-17T13:58:37Z</time>
      </trkpt>
      <trkpt lat="39.4737150" lon="-6.3760420">
        <ele>447.0</ele>
        <time>2021-10-17T13:58:38Z</time>
      </trkpt>
      <trkpt lat="39.4736630" lon="-6.3760780">
        <ele>445.2</ele>
        <time>2021-10-17T14:46:44Z</time>
      </trkpt>
      <trkpt lat="39.4736190" lon="-6.3761410">
        <ele>445.2</ele>
        <time>2021-10-17T14:46:47Z</time>
      </trkpt>
      <trkpt lat="39.4735320" lon="-6.3762640">
        <ele>445.0</ele>
        <time>2021-10-17T14:46:52Z</time>
      </trkpt>
      <trkpt lat="39.4735110" lon="-6.3762800">
        <ele>444.8</ele>
        <time>2021-10-17T14:46:53Z</time>
      </trkpt>
      <trkpt lat="39.4734690" lon="-6.3763100">
        <ele>444.8</ele>
        <time>2021-10-17T14:46:55Z</time>
      </trkpt>
      <trkpt lat="39.4734270" lon="-6.3763290">
        <ele>444.8</ele>
        <time>2021-10-17T14:46:57Z</time>
      </trkpt>
      <trkpt lat="39.4732720" lon="-6.3764310">
        <ele>444.4</ele>
        <time>2021-10-17T14:47:04Z</time>
      </trkpt>
      <trkpt lat="39.4731970" lon="-6.3765390">
        <ele>444.2</ele>
        <time>2021-10-17T14:47:09Z</time>
      </trkpt>
      <trkpt lat="39.4731440" lon="-6.3765790">
        <ele>444.2</ele>
        <time>2021-10-17T14:47:12Z</time>
      </trkpt>
      <trkpt lat="39.4731230" lon="-6.3765750">
        <ele>444.0</ele>
        <time>2021-10-17T14:47:13Z</time>
      </trkpt>
      <trkpt lat="39.4730730" lon="-6.3765190">
        <ele>443.6</ele>
        <time>2021-10-17T14:47:16Z</time>
      </trkpt>
      <trkpt lat="39.4730580" lon="-6.3765040">
        <ele>443.4</ele>
        <time>2021-10-17T14:47:17Z</time>
      </trkpt>
      <trkpt lat="39.4730300" lon="-6.3764450">
        <ele>443.0</ele>
        <time>2021-10-17T14:47:19Z</time>
      </trkpt>
      <trkpt lat="39.4729450" lon="-6.3763460">
        <ele>442.2</ele>
        <time>2021-10-17T14:47:23Z</time>
      </trkpt>
      <trkpt lat="39.4729100" lon="-6.3763360">
        <ele>442.0</ele>
        <time>2021-10-17T14:47:24Z</time>
      </trkpt>
      <trkpt lat="39.4728390" lon="-6.3763180">
        <ele>441.2</ele>
        <time>2021-10-17T14:47:26Z</time>
      </trkpt>
      <trkpt lat="39.4727670" lon="-6.3763440">
        <ele>440.8</ele>
        <time>2021-10-17T14:47:28Z</time>
      </trkpt>
      <trkpt lat="39.4727060" lon="-6.3763610">
        <ele>440.2</ele>
        <time>2021-10-17T14:47:30Z</time>
      </trkpt>
      <trkpt lat="39.4726680" lon="-6.3763900">
        <ele>439.6</ele>
        <time>2021-10-17T14:47:31Z</time>
      </trkpt>
      <trkpt lat="39.4726430" lon="-6.3764450">
        <ele>439.4</ele>
        <time>2021-10-17T14:47:32Z</time>
      </trkpt>
      <trkpt lat="39.4725680" lon="-6.3764190">
        <ele>438.4</ele>
        <time>2021-10-17T14:47:35Z</time>
      </trkpt>
      <trkpt lat="39.4725610" lon="-6.3763650">
        <ele>437.8</ele>
        <time>2021-10-17T14:47:36Z</time>
      </trkpt>
      <trkpt lat="39.4725480" lon="-6.3763050">
        <ele>437.6</ele>
        <time>2021-10-17T14:47:37Z</time>
      </trkpt>
      <trkpt lat="39.4725360" lon="-6.3762320">
        <ele>437.2</ele>
        <time>2021-10-17T14:47:38Z</time>
      </trkpt>
      <trkpt lat="39.4725800" lon="-6.3761530">
        <ele>436.8</ele>
        <time>2021-10-17T14:47:39Z</time>
      </trkpt>
      <trkpt lat="39.4726110" lon="-6.3761110">
        <ele>436.4</ele>
        <time>2021-10-17T14:47:40Z</time>
      </trkpt>
      <trkpt lat="39.4726610" lon="-6.3760240">
        <ele>436.0</ele>
        <time>2021-10-17T14:47:42Z</time>
      </trkpt>
      <trkpt lat="39.4727310" lon="-6.3758850">
        <ele>435.6</ele>
        <time>2021-10-17T14:47:45Z</time>
      </trkpt>
      <trkpt lat="39.4729130" lon="-6.3755860">
        <ele>435.2</ele>
        <time>2021-10-17T14:47:51Z</time>
      </trkpt>
      <trkpt lat="39.4729770" lon="-6.3755240">
        <ele>435.0</ele>
        <time>2021-10-17T14:47:53Z</time>
      </trkpt>
      <trkpt lat="39.4731020" lon="-6.3753940">
        <ele>434.8</ele>
        <time>2021-10-17T14:47:56Z</time>
      </trkpt>
      <trkpt lat="39.4731620" lon="-6.3753210">
        <ele>434.0</ele>
        <time>2021-10-17T14:47:58Z</time>
      </trkpt>
      <trkpt lat="39.4731800" lon="-6.3752810">
        <ele>433.8</ele>
        <time>2021-10-17T14:47:59Z</time>
      </trkpt>
      <trkpt lat="39.4732010" lon="-6.3752460">
        <ele>433.6</ele>
        <time>2021-10-17T14:48:00Z</time>
      </trkpt>
      <trkpt lat="39.4732630" lon="-6.3751470">
        <ele>432.6</ele>
        <time>2021-10-17T14:48:04Z</time>
      </trkpt>
      <trkpt lat="39.4732630" lon="-6.3751160">
        <ele>432.0</ele>
        <time>2021-10-17T14:48:06Z</time>
      </trkpt>
      <trkpt lat="39.4732770" lon="-6.3750730">
        <ele>431.8</ele>
        <time>2021-10-17T14:48:08Z</time>
      </trkpt>
      <trkpt lat="39.4732870" lon="-6.3750570">
        <ele>431.8</ele>
        <time>2021-10-17T14:48:09Z</time>
      </trkpt>
      <trkpt lat="39.4732950" lon="-6.3750490">
        <ele>431.8</ele>
        <time>2021-10-17T14:48:10Z</time>
      </trkpt>
      <trkpt lat="39.4733000" lon="-6.3750430">
        <ele>431.6</ele>
        <time>2021-10-17T14:48:12Z</time>
      </trkpt>
      <trkpt lat="39.4733030" lon="-6.3750310">
        <ele>431.6</ele>
        <time>2021-10-17T14:48:13Z</time>
      </trkpt>
      <trkpt lat="39.4733020" lon="-6.3749940">
        <ele>431.6</ele>
        <time>2021-10-17T14:48:15Z</time>
      </trkpt>
      <trkpt lat="39.4732850" lon="-6.3749460">
        <ele>431.6</ele>
        <time>2021-10-17T14:48:17Z</time>
      </trkpt>
      <trkpt lat="39.4732670" lon="-6.3749120">
        <ele>431.6</ele>
        <time>2021-10-17T14:48:18Z</time>
      </trkpt>
      <trkpt lat="39.4732370" lon="-6.3748110">
        <ele>431.6</ele>
        <time>2021-10-17T14:48:21Z</time>
      </trkpt>
      <trkpt lat="39.4732350" lon="-6.3747850">
        <ele>431.6</ele>
        <time>2021-10-17T14:48:22Z</time>
      </trkpt>
      <trkpt lat="39.4732400" lon="-6.3747620">
        <ele>431.6</ele>
        <time>2021-10-17T14:48:23Z</time>
      </trkpt>
      <trkpt lat="39.4732850" lon="-6.3746420">
        <ele>432.0</ele>
        <time>2021-10-17T14:48:27Z</time>
      </trkpt>
      <trkpt lat="39.4733350" lon="-6.3745250">
        <ele>432.4</ele>
        <time>2021-10-17T14:48:30Z</time>
      </trkpt>
      <trkpt lat="39.4733480" lon="-6.3744480">
        <ele>432.6</ele>
        <time>2021-10-17T14:48:32Z</time>
      </trkpt>
      <trkpt lat="39.4733540" lon="-6.3744180">
        <ele>432.6</ele>
        <time>2021-10-17T14:48:33Z</time>
      </trkpt>
      <trkpt lat="39.4733950" lon="-6.3743690">
        <ele>432.8</ele>
        <time>2021-10-17T14:48:35Z</time>
      </trkpt>
      <trkpt lat="39.4734450" lon="-6.3741850">
        <ele>432.8</ele>
        <time>2021-10-17T14:48:39Z</time>
      </trkpt>
      <trkpt lat="39.4734570" lon="-6.3741380">
        <ele>432.8</ele>
        <time>2021-10-17T14:48:40Z</time>
      </trkpt>
      <trkpt lat="39.4734980" lon="-6.3740440">
        <ele>433.0</ele>
        <time>2021-10-17T14:48:43Z</time>
      </trkpt>
      <trkpt lat="39.4735590" lon="-6.3739180">
        <ele>433.2</ele>
        <time>2021-10-17T14:48:47Z</time>
      </trkpt>
      <trkpt lat="39.4735470" lon="-6.3738400">
        <ele>433.4</ele>
        <time>2021-10-17T14:48:51Z</time>
      </trkpt>
      <trkpt lat="39.4735690" lon="-6.3738160">
        <ele>433.4</ele>
        <time>2021-10-17T14:48:53Z</time>
      </trkpt>
      <trkpt lat="39.4735830" lon="-6.3737940">
        <ele>433.4</ele>
        <time>2021-10-17T14:48:55Z</time>
      </trkpt>
      <trkpt lat="39.4735810" lon="-6.3737640">
        <ele>433.6</ele>
        <time>2021-10-17T14:48:57Z</time>
      </trkpt>
      <trkpt lat="39.4736230" lon="-6.3736370">
        <ele>433.6</ele>
        <time>2021-10-17T14:49:02Z</time>
      </trkpt>
      <trkpt lat="39.4737090" lon="-6.3734310">
        <ele>433.8</ele>
        <time>2021-10-17T14:49:10Z</time>
      </trkpt>
      <trkpt lat="39.4737450" lon="-6.3733160">
        <ele>433.8</ele>
        <time>2021-10-17T14:49:15Z</time>
      </trkpt>
      <trkpt lat="39.4738100" lon="-6.3730650">
        <ele>434.2</ele>
        <time>2021-10-17T14:49:24Z</time>
      </trkpt>
      <trkpt lat="39.4738230" lon="-6.3730070">
        <ele>434.2</ele>
        <time>2021-10-17T14:49:26Z</time>
      </trkpt>
      <trkpt lat="39.4738470" lon="-6.3729200">
        <ele>434.4</ele>
        <time>2021-10-17T14:49:29Z</time>
      </trkpt>
      <trkpt lat="39.4738490" lon="-6.3727510">
        <ele>434.6</ele>
        <time>2021-10-17T14:49:35Z</time>
      </trkpt>
      <trkpt lat="39.4738590" lon="-6.3727000">
        <ele>435.0</ele>
        <time>2021-10-17T14:49:37Z</time>
      </trkpt>
      <trkpt lat="39.4738690" lon="-6.3726780">
        <ele>435.0</ele>
        <time>2021-10-17T14:49:38Z</time>
      </trkpt>
      <trkpt lat="39.4739790" lon="-6.3725060">
        <ele>434.8</ele>
        <time>2021-10-17T14:49:45Z</time>
      </trkpt>
      <trkpt lat="39.4739960" lon="-6.3724970">
        <ele>434.8</ele>
        <time>2021-10-17T14:49:46Z</time>
      </trkpt>
      <trkpt lat="39.4741080" lon="-6.3724290">
        <ele>434.2</ele>
        <time>2021-10-17T14:49:50Z</time>
      </trkpt>
      <trkpt lat="39.4741280" lon="-6.3724020">
        <ele>434.0</ele>
        <time>2021-10-17T14:49:51Z</time>
      </trkpt>
      <trkpt lat="39.4741610" lon="-6.3724020">
        <ele>434.0</ele>
        <time>2021-10-17T14:49:52Z</time>
      </trkpt>
      <trkpt lat="39.4741970" lon="-6.3723840">
        <ele>433.4</ele>
        <time>2021-10-17T14:49:53Z</time>
      </trkpt>
      <trkpt lat="39.4743300" lon="-6.3722180">
        <ele>431.8</ele>
        <time>2021-10-17T14:49:57Z</time>
      </trkpt>
      <trkpt lat="39.4744150" lon="-6.3721560">
        <ele>430.6</ele>
        <time>2021-10-17T14:50:00Z</time>
      </trkpt>
      <trkpt lat="39.4744340" lon="-6.3721340">
        <ele>430.2</ele>
        <time>2021-10-17T14:50:01Z</time>
      </trkpt>
      <trkpt lat="39.4744860" lon="-6.3720970">
        <ele>429.6</ele>
        <time>2021-10-17T14:50:03Z</time>
      </trkpt>
      <trkpt lat="39.4745770" lon="-6.3720300">
        <ele>428.4</ele>
        <time>2021-10-17T14:50:06Z</time>
      </trkpt>
      <trkpt lat="39.4746080" lon="-6.3720100">
        <ele>428.0</ele>
        <time>2021-10-17T14:50:07Z</time>
      </trkpt>
      <trkpt lat="39.4746630" lon="-6.3719640">
        <ele>426.8</ele>
        <time>2021-10-17T14:50:09Z</time>
      </trkpt>
      <trkpt lat="39.4747210" lon="-6.3718060">
        <ele>425.4</ele>
        <time>2021-10-17T14:50:13Z</time>
      </trkpt>
      <trkpt lat="39.4747950" lon="-6.3715920">
        <ele>424.8</ele>
        <time>2021-10-17T14:50:18Z</time>
      </trkpt>
      <trkpt lat="39.4748070" lon="-6.3715130">
        <ele>424.4</ele>
        <time>2021-10-17T14:50:20Z</time>
      </trkpt>
      <trkpt lat="39.4748490" lon="-6.3714240">
        <ele>424.0</ele>
        <time>2021-10-17T14:50:24Z</time>
      </trkpt>
      <trkpt lat="39.4748760" lon="-6.3713930">
        <ele>424.0</ele>
        <time>2021-10-17T14:50:26Z</time>
      </trkpt>
      <trkpt lat="39.4749000" lon="-6.3713700">
        <ele>423.8</ele>
        <time>2021-10-17T14:50:29Z</time>
      </trkpt>
      <trkpt lat="39.4749000" lon="-6.3713700">
        <ele>423.6</ele>
        <time>2021-10-17T14:50:32Z</time>
      </trkpt>
      <trkpt lat="39.4749180" lon="-6.3711000">
        <ele>426.2</ele>
        <time>2021-10-17T15:00:24Z</time>
      </trkpt>
      <trkpt lat="39.4749230" lon="-6.3710910">
        <ele>426.4</ele>
        <time>2021-10-17T15:00:25Z</time>
      </trkpt>
      <trkpt lat="39.4749300" lon="-6.3710490">
        <ele>426.8</ele>
        <time>2021-10-17T15:00:28Z</time>
      </trkpt>
      <trkpt lat="39.4749130" lon="-6.3710170">
        <ele>427.2</ele>
        <time>2021-10-17T15:00:30Z</time>
      </trkpt>
      <trkpt lat="39.4749040" lon="-6.3710050">
        <ele>427.4</ele>
        <time>2021-10-17T15:00:31Z</time>
      </trkpt>
      <trkpt lat="39.4748540" lon="-6.3709610">
        <ele>427.8</ele>
        <time>2021-10-17T15:00:36Z</time>
      </trkpt>
      <trkpt lat="39.4748130" lon="-6.3708550">
        <ele>428.4</ele>
        <time>2021-10-17T15:00:41Z</time>
      </trkpt>
      <trkpt lat="39.4748010" lon="-6.3708420">
        <ele>428.4</ele>
        <time>2021-10-17T15:00:42Z</time>
      </trkpt>
      <trkpt lat="39.4747890" lon="-6.3708270">
        <ele>428.6</ele>
        <time>2021-10-17T15:00:43Z</time>
      </trkpt>
      <trkpt lat="39.4747590" lon="-6.3707750">
        <ele>428.8</ele>
        <time>2021-10-17T15:00:46Z</time>
      </trkpt>
      <trkpt lat="39.4747500" lon="-6.3707600">
        <ele>428.8</ele>
        <time>2021-10-17T15:00:47Z</time>
      </trkpt>
      <trkpt lat="39.4746980" lon="-6.3706520">
        <ele>429.2</ele>
        <time>2021-10-17T15:00:53Z</time>
      </trkpt>
      <trkpt lat="39.4746990" lon="-6.3706050">
        <ele>429.4</ele>
        <time>2021-10-17T15:00:55Z</time>
      </trkpt>
      <trkpt lat="39.4747010" lon="-6.3705720">
        <ele>429.6</ele>
        <time>2021-10-17T15:00:56Z</time>
      </trkpt>
      <trkpt lat="39.4747160" lon="-6.3705200">
        <ele>429.8</ele>
        <time>2021-10-17T15:00:58Z</time>
      </trkpt>
      <trkpt lat="39.4747140" lon="-6.3704250">
        <ele>430.2</ele>
        <time>2021-10-17T15:01:04Z</time>
      </trkpt>
      <trkpt lat="39.4747140" lon="-6.3704250">
        <ele>430.4</ele>
        <time>2021-10-17T15:01:06Z</time>
      </trkpt>
      <trkpt lat="39.4745380" lon="-6.3704150">
        <ele>431.2</ele>
        <time>2021-10-17T15:02:26Z</time>
      </trkpt>
      <trkpt lat="39.4745230" lon="-6.3704110">
        <ele>431.4</ele>
        <time>2021-10-17T15:02:27Z</time>
      </trkpt>
      <trkpt lat="39.4744730" lon="-6.3703790">
        <ele>431.6</ele>
        <time>2021-10-17T15:02:30Z</time>
      </trkpt>
      <trkpt lat="39.4744410" lon="-6.3703460">
        <ele>431.6</ele>
        <time>2021-10-17T15:02:32Z</time>
      </trkpt>
      <trkpt lat="39.4744040" lon="-6.3703270">
        <ele>431.6</ele>
        <time>2021-10-17T15:02:34Z</time>
      </trkpt>
      <trkpt lat="39.4743390" lon="-6.3703080">
        <ele>431.8</ele>
        <time>2021-10-17T15:02:37Z</time>
      </trkpt>
      <trkpt lat="39.4743220" lon="-6.3702820">
        <ele>432.0</ele>
        <time>2021-10-17T15:02:40Z</time>
      </trkpt>
      <trkpt lat="39.4743100" lon="-6.3702830">
        <ele>432.0</ele>
        <time>2021-10-17T15:02:41Z</time>
      </trkpt>
      <trkpt lat="39.4743020" lon="-6.3702800">
        <ele>432.2</ele>
        <time>2021-10-17T15:02:44Z</time>
      </trkpt>
      <trkpt lat="39.4743020" lon="-6.3702800">
        <ele>432.2</ele>
        <time>2021-10-17T15:02:45Z</time>
      </trkpt>
      <trkpt lat="39.4742730" lon="-6.3702680">
        <ele>432.2</ele>
        <time>2021-10-17T15:02:47Z</time>
      </trkpt>
      <trkpt lat="39.4742700" lon="-6.3702680">
        <ele>432.4</ele>
        <time>2021-10-17T15:02:51Z</time>
      </trkpt>
      <trkpt lat="39.4742700" lon="-6.3702680">
        <ele>432.4</ele>
        <time>2021-10-17T15:02:53Z</time>
      </trkpt>
      <trkpt lat="39.4741830" lon="-6.3702630">
        <ele>432.2</ele>
        <time>2021-10-17T15:03:42Z</time>
      </trkpt>
      <trkpt lat="39.4741640" lon="-6.3702610">
        <ele>432.0</ele>
        <time>2021-10-17T15:03:43Z</time>
      </trkpt>
      <trkpt lat="39.4741530" lon="-6.3702500">
        <ele>432.0</ele>
        <time>2021-10-17T15:03:44Z</time>
      </trkpt>
      <trkpt lat="39.4741490" lon="-6.3702020">
        <ele>432.0</ele>
        <time>2021-10-17T15:03:46Z</time>
      </trkpt>
      <trkpt lat="39.4741410" lon="-6.3701930">
        <ele>431.8</ele>
        <time>2021-10-17T15:03:51Z</time>
      </trkpt>
      <trkpt lat="39.4742940" lon="-6.3702680">
        <ele>432.2</ele>
        <time>2021-10-17T15:04:58Z</time>
      </trkpt>
      <trkpt lat="39.4743110" lon="-6.3702940">
        <ele>432.2</ele>
        <time>2021-10-17T15:05:00Z</time>
      </trkpt>
      <trkpt lat="39.4743270" lon="-6.3703730">
        <ele>432.2</ele>
        <time>2021-10-17T15:05:04Z</time>
      </trkpt>
      <trkpt lat="39.4743520" lon="-6.3703870">
        <ele>432.0</ele>
        <time>2021-10-17T15:05:06Z</time>
      </trkpt>
      <trkpt lat="39.4743940" lon="-6.3703870">
        <ele>431.6</ele>
        <time>2021-10-17T15:05:09Z</time>
      </trkpt>
      <trkpt lat="39.4744120" lon="-6.3704000">
        <ele>431.6</ele>
        <time>2021-10-17T15:05:12Z</time>
      </trkpt>
      <trkpt lat="39.4744120" lon="-6.3704000">
        <ele>431.4</ele>
        <time>2021-10-17T15:05:13Z</time>
      </trkpt>
      <trkpt lat="39.4744570" lon="-6.3703090">
        <ele>431.0</ele>
        <time>2021-10-17T15:05:28Z</time>
      </trkpt>
      <trkpt lat="39.4745240" lon="-6.3702440">
        <ele>431.0</ele>
        <time>2021-10-17T15:05:31Z</time>
      </trkpt>
      <trkpt lat="39.4745940" lon="-6.3701780">
        <ele>430.8</ele>
        <time>2021-10-17T15:05:35Z</time>
      </trkpt>
      <trkpt lat="39.4746530" lon="-6.3701230">
        <ele>430.6</ele>
        <time>2021-10-17T15:05:38Z</time>
      </trkpt>
      <trkpt lat="39.4747470" lon="-6.3700400">
        <ele>430.4</ele>
        <time>2021-10-17T15:05:45Z</time>
      </trkpt>
      <trkpt lat="39.4748050" lon="-6.3699640">
        <ele>430.4</ele>
        <time>2021-10-17T15:05:51Z</time>
      </trkpt>
      <trkpt lat="39.4748090" lon="-6.3699610">
        <ele>430.2</ele>
        <time>2021-10-17T15:05:56Z</time>
      </trkpt>
      <trkpt lat="39.4748090" lon="-6.3699610">
        <ele>430.2</ele>
        <time>2021-10-17T15:05:58Z</time>
      </trkpt>
      <trkpt lat="39.4748770" lon="-6.3698770">
        <ele>430.2</ele>
        <time>2021-10-17T15:06:05Z</time>
      </trkpt>
      <trkpt lat="39.4748940" lon="-6.3698610">
        <ele>430.2</ele>
        <time>2021-10-17T15:06:06Z</time>
      </trkpt>
      <trkpt lat="39.4749170" lon="-6.3698330">
        <ele>430.2</ele>
        <time>2021-10-17T15:06:07Z</time>
      </trkpt>
      <trkpt lat="39.4749960" lon="-6.3697400">
        <ele>430.0</ele>
        <time>2021-10-17T15:06:11Z</time>
      </trkpt>
      <trkpt lat="39.4750280" lon="-6.3697100">
        <ele>429.8</ele>
        <time>2021-10-17T15:06:13Z</time>
      </trkpt>
      <trkpt lat="39.4751490" lon="-6.3696790">
        <ele>429.0</ele>
        <time>2021-10-17T15:06:19Z</time>
      </trkpt>
      <trkpt lat="39.4751660" lon="-6.3696680">
        <ele>429.0</ele>
        <time>2021-10-17T15:06:20Z</time>
      </trkpt>
      <trkpt lat="39.4751760" lon="-6.3696660">
        <ele>428.8</ele>
        <time>2021-10-17T15:06:21Z</time>
      </trkpt>
      <trkpt lat="39.4751860" lon="-6.3696580">
        <ele>428.8</ele>
        <time>2021-10-17T15:06:22Z</time>
      </trkpt>
      <trkpt lat="39.4752320" lon="-6.3696400">
        <ele>427.6</ele>
        <time>2021-10-17T15:06:28Z</time>
      </trkpt>
      <trkpt lat="39.4753150" lon="-6.3695540">
        <ele>427.0</ele>
        <time>2021-10-17T15:06:33Z</time>
      </trkpt>
      <trkpt lat="39.4753310" lon="-6.3695450">
        <ele>426.6</ele>
        <time>2021-10-17T15:06:35Z</time>
      </trkpt>
      <trkpt lat="39.4753310" lon="-6.3695450">
        <ele>425.8</ele>
        <time>2021-10-17T15:06:37Z</time>
      </trkpt>
      <trkpt lat="39.4753560" lon="-6.3695650">
        <ele>424.4</ele>
        <time>2021-10-17T15:07:23Z</time>
      </trkpt>
      <trkpt lat="39.4754070" lon="-6.3695940">
        <ele>424.2</ele>
        <time>2021-10-17T15:07:26Z</time>
      </trkpt>
      <trkpt lat="39.4754220" lon="-6.3696010">
        <ele>424.2</ele>
        <time>2021-10-17T15:07:27Z</time>
      </trkpt>
      <trkpt lat="39.4754330" lon="-6.3696140">
        <ele>424.0</ele>
        <time>2021-10-17T15:07:28Z</time>
      </trkpt>
      <trkpt lat="39.4754580" lon="-6.3696460">
        <ele>423.8</ele>
        <time>2021-10-17T15:07:30Z</time>
      </trkpt>
      <trkpt lat="39.4754970" lon="-6.3696510">
        <ele>423.6</ele>
        <time>2021-10-17T15:07:32Z</time>
      </trkpt>
      <trkpt lat="39.4756010" lon="-6.3696710">
        <ele>423.2</ele>
        <time>2021-10-17T15:07:36Z</time>
      </trkpt>
      <trkpt lat="39.4756490" lon="-6.3696830">
        <ele>422.6</ele>
        <time>2021-10-17T15:07:38Z</time>
      </trkpt>
      <trkpt lat="39.4756740" lon="-6.3696850">
        <ele>422.2</ele>
        <time>2021-10-17T15:07:39Z</time>
      </trkpt>
      <trkpt lat="39.4757430" lon="-6.3696680">
        <ele>421.0</ele>
        <time>2021-10-17T15:07:42Z</time>
      </trkpt>
      <trkpt lat="39.4757900" lon="-6.3696410">
        <ele>420.6</ele>
        <time>2021-10-17T15:07:44Z</time>
      </trkpt>
      <trkpt lat="39.4758660" lon="-6.3696330">
        <ele>420.0</ele>
        <time>2021-10-17T15:07:46Z</time>
      </trkpt>
      <trkpt lat="39.4759630" lon="-6.3695920">
        <ele>419.0</ele>
        <time>2021-10-17T15:07:49Z</time>
      </trkpt>
      <trkpt lat="39.4759840" lon="-6.3695820">
        <ele>418.6</ele>
        <time>2021-10-17T15:07:50Z</time>
      </trkpt>
      <trkpt lat="39.4760230" lon="-6.3695580">
        <ele>417.8</ele>
        <time>2021-10-17T15:07:52Z</time>
      </trkpt>
      <trkpt lat="39.4760490" lon="-6.3695420">
        <ele>417.2</ele>
        <time>2021-10-17T15:07:54Z</time>
      </trkpt>
      <trkpt lat="39.4760680" lon="-6.3695230">
        <ele>416.8</ele>
        <time>2021-10-17T15:07:56Z</time>
      </trkpt>
      <trkpt lat="39.4760740" lon="-6.3695240">
        <ele>416.6</ele>
        <time>2021-10-17T15:07:57Z</time>
      </trkpt>
      <trkpt lat="39.4760750" lon="-6.3695280">
        <ele>416.4</ele>
        <time>2021-10-17T15:07:58Z</time>
      </trkpt>
      <trkpt lat="39.4760830" lon="-6.3695390">
        <ele>416.2</ele>
        <time>2021-10-17T15:07:59Z</time>
      </trkpt>
      <trkpt lat="39.4760850" lon="-6.3695370">
        <ele>415.8</ele>
        <time>2021-10-17T15:08:01Z</time>
      </trkpt>
      <trkpt lat="39.4761150" lon="-6.3696720">
        <ele>415.4</ele>
        <time>2021-10-17T15:09:29Z</time>
      </trkpt>
      <trkpt lat="39.4761280" lon="-6.3697030">
        <ele>415.4</ele>
        <time>2021-10-17T15:09:30Z</time>
      </trkpt>
      <trkpt lat="39.4761940" lon="-6.3698800">
        <ele>415.2</ele>
        <time>2021-10-17T15:09:34Z</time>
      </trkpt>
      <trkpt lat="39.4762710" lon="-6.3700480">
        <ele>414.8</ele>
        <time>2021-10-17T15:09:39Z</time>
      </trkpt>
      <trkpt lat="39.4762690" lon="-6.3700800">
        <ele>414.6</ele>
        <time>2021-10-17T15:09:40Z</time>
      </trkpt>
      <trkpt lat="39.4762800" lon="-6.3701160">
        <ele>414.6</ele>
        <time>2021-10-17T15:09:41Z</time>
      </trkpt>
      <trkpt lat="39.4763090" lon="-6.3701680">
        <ele>414.4</ele>
        <time>2021-10-17T15:09:43Z</time>
      </trkpt>
      <trkpt lat="39.4763150" lon="-6.3701910">
        <ele>414.4</ele>
        <time>2021-10-17T15:09:44Z</time>
      </trkpt>
      <trkpt lat="39.4763410" lon="-6.3702290">
        <ele>414.2</ele>
        <time>2021-10-17T15:09:46Z</time>
      </trkpt>
      <trkpt lat="39.4763560" lon="-6.3702380">
        <ele>414.0</ele>
        <time>2021-10-17T15:09:47Z</time>
      </trkpt>
      <trkpt lat="39.4763710" lon="-6.3702520">
        <ele>413.8</ele>
        <time>2021-10-17T15:09:48Z</time>
      </trkpt>
      <trkpt lat="39.4763970" lon="-6.3703340">
        <ele>413.6</ele>
        <time>2021-10-17T15:09:51Z</time>
      </trkpt>
      <trkpt lat="39.4764300" lon="-6.3704610">
        <ele>413.4</ele>
        <time>2021-10-17T15:09:55Z</time>
      </trkpt>
      <trkpt lat="39.4764730" lon="-6.3705810">
        <ele>413.2</ele>
        <time>2021-10-17T15:09:58Z</time>
      </trkpt>
      <trkpt lat="39.4765190" lon="-6.3708050">
        <ele>412.0</ele>
        <time>2021-10-17T15:10:03Z</time>
      </trkpt>
      <trkpt lat="39.4765260" lon="-6.3708780">
        <ele>411.6</ele>
        <time>2021-10-17T15:10:05Z</time>
      </trkpt>
      <trkpt lat="39.4765210" lon="-6.3709510">
        <ele>410.6</ele>
        <time>2021-10-17T15:10:07Z</time>
      </trkpt>
      <trkpt lat="39.4764770" lon="-6.3710190">
        <ele>410.0</ele>
        <time>2021-10-17T15:10:10Z</time>
      </trkpt>
      <trkpt lat="39.4764510" lon="-6.3710390">
        <ele>410.0</ele>
        <time>2021-10-17T15:10:11Z</time>
      </trkpt>
      <trkpt lat="39.4764150" lon="-6.3710830">
        <ele>410.0</ele>
        <time>2021-10-17T15:10:14Z</time>
      </trkpt>
      <trkpt lat="39.4764290" lon="-6.3712030">
        <ele>410.0</ele>
        <time>2021-10-17T15:10:18Z</time>
      </trkpt>
      <trkpt lat="39.4764300" lon="-6.3712320">
        <ele>410.2</ele>
        <time>2021-10-17T15:10:19Z</time>
      </trkpt>
      <trkpt lat="39.4764610" lon="-6.3713530">
        <ele>410.2</ele>
        <time>2021-10-17T15:10:23Z</time>
      </trkpt>
      <trkpt lat="39.4764680" lon="-6.3713700">
        <ele>410.2</ele>
        <time>2021-10-17T15:10:24Z</time>
      </trkpt>
      <trkpt lat="39.4764960" lon="-6.3714100">
        <ele>410.2</ele>
        <time>2021-10-17T15:10:26Z</time>
      </trkpt>
      <trkpt lat="39.4765190" lon="-6.3714620">
        <ele>410.2</ele>
        <time>2021-10-17T15:10:28Z</time>
      </trkpt>
      <trkpt lat="39.4766040" lon="-6.3716100">
        <ele>410.6</ele>
        <time>2021-10-17T15:10:33Z</time>
      </trkpt>
      <trkpt lat="39.4767090" lon="-6.3717690">
        <ele>411.2</ele>
        <time>2021-10-17T15:10:40Z</time>
      </trkpt>
      <trkpt lat="39.4767350" lon="-6.3718190">
        <ele>411.4</ele>
        <time>2021-10-17T15:10:42Z</time>
      </trkpt>
      <trkpt lat="39.4767470" lon="-6.3718440">
        <ele>411.8</ele>
        <time>2021-10-17T15:10:43Z</time>
      </trkpt>
      <trkpt lat="39.4767710" lon="-6.3718980">
        <ele>412.0</ele>
        <time>2021-10-17T15:10:45Z</time>
      </trkpt>
      <trkpt lat="39.4767990" lon="-6.3719860">
        <ele>412.4</ele>
        <time>2021-10-17T15:10:48Z</time>
      </trkpt>
      <trkpt lat="39.4768070" lon="-6.3720080">
        <ele>412.4</ele>
        <time>2021-10-17T15:10:49Z</time>
      </trkpt>
      <trkpt lat="39.4768310" lon="-6.3720520">
        <ele>412.8</ele>
        <time>2021-10-17T15:10:51Z</time>
      </trkpt>
      <trkpt lat="39.4768940" lon="-6.3721840">
        <ele>413.6</ele>
        <time>2021-10-17T15:10:56Z</time>
      </trkpt>
      <trkpt lat="39.4769140" lon="-6.3722330">
        <ele>414.0</ele>
        <time>2021-10-17T15:10:58Z</time>
      </trkpt>
      <trkpt lat="39.4769420" lon="-6.3723020">
        <ele>414.4</ele>
        <time>2021-10-17T15:11:01Z</time>
      </trkpt>
      <trkpt lat="39.4769810" lon="-6.3723640">
        <ele>414.8</ele>
        <time>2021-10-17T15:11:04Z</time>
      </trkpt>
      <trkpt lat="39.4770310" lon="-6.3724360">
        <ele>415.0</ele>
        <time>2021-10-17T15:11:07Z</time>
      </trkpt>
      <trkpt lat="39.4770750" lon="-6.3725030">
        <ele>415.6</ele>
        <time>2021-10-17T15:11:10Z</time>
      </trkpt>
      <trkpt lat="39.4771130" lon="-6.3725400">
        <ele>416.0</ele>
        <time>2021-10-17T15:11:12Z</time>
      </trkpt>
      <trkpt lat="39.4771990" lon="-6.3726730">
        <ele>416.8</ele>
        <time>2021-10-17T15:11:18Z</time>
      </trkpt>
      <trkpt lat="39.4772160" lon="-6.3727130">
        <ele>417.0</ele>
        <time>2021-10-17T15:11:20Z</time>
      </trkpt>
      <trkpt lat="39.4772300" lon="-6.3727470">
        <ele>417.4</ele>
        <time>2021-10-17T15:11:22Z</time>
      </trkpt>
      <trkpt lat="39.4772340" lon="-6.3727510">
        <ele>417.6</ele>
        <time>2021-10-17T15:11:24Z</time>
      </trkpt>
      <trkpt lat="39.4772340" lon="-6.3727510">
        <ele>417.6</ele>
        <time>2021-10-17T15:11:25Z</time>
      </trkpt>
      <trkpt lat="39.4772510" lon="-6.3727840">
        <ele>418.0</ele>
        <time>2021-10-17T15:12:46Z</time>
      </trkpt>
      <trkpt lat="39.4772680" lon="-6.3728070">
        <ele>418.0</ele>
        <time>2021-10-17T15:12:47Z</time>
      </trkpt>
      <trkpt lat="39.4772850" lon="-6.3728320">
        <ele>418.0</ele>
        <time>2021-10-17T15:12:48Z</time>
      </trkpt>
      <trkpt lat="39.4774090" lon="-6.3729920">
        <ele>418.0</ele>
        <time>2021-10-17T15:12:54Z</time>
      </trkpt>
      <trkpt lat="39.4774300" lon="-6.3730180">
        <ele>418.2</ele>
        <time>2021-10-17T15:12:55Z</time>
      </trkpt>
      <trkpt lat="39.4774920" lon="-6.3730900">
        <ele>418.6</ele>
        <time>2021-10-17T15:12:58Z</time>
      </trkpt>
      <trkpt lat="39.4775350" lon="-6.3731380">
        <ele>419.0</ele>
        <time>2021-10-17T15:13:00Z</time>
      </trkpt>
      <trkpt lat="39.4776000" lon="-6.3732060">
        <ele>419.2</ele>
        <time>2021-10-17T15:13:03Z</time>
      </trkpt>
      <trkpt lat="39.4776720" lon="-6.3732650">
        <ele>419.6</ele>
        <time>2021-10-17T15:13:06Z</time>
      </trkpt>
      <trkpt lat="39.4777640" lon="-6.3733390">
        <ele>420.2</ele>
        <time>2021-10-17T15:13:10Z</time>
      </trkpt>
      <trkpt lat="39.4777850" lon="-6.3733580">
        <ele>420.4</ele>
        <time>2021-10-17T15:13:11Z</time>
      </trkpt>
      <trkpt lat="39.4778510" lon="-6.3733990">
        <ele>420.6</ele>
        <time>2021-10-17T15:13:14Z</time>
      </trkpt>
      <trkpt lat="39.4778760" lon="-6.3734180">
        <ele>420.6</ele>
        <time>2021-10-17T15:13:15Z</time>
      </trkpt>
      <trkpt lat="39.4779490" lon="-6.3734780">
        <ele>420.8</ele>
        <time>2021-10-17T15:13:18Z</time>
      </trkpt>
      <trkpt lat="39.4780200" lon="-6.3735310">
        <ele>421.0</ele>
        <time>2021-10-17T15:13:21Z</time>
      </trkpt>
      <trkpt lat="39.4780830" lon="-6.3735830">
        <ele>421.0</ele>
        <time>2021-10-17T15:13:24Z</time>
      </trkpt>
      <trkpt lat="39.4781570" lon="-6.3736290">
        <ele>421.2</ele>
        <time>2021-10-17T15:13:27Z</time>
      </trkpt>
      <trkpt lat="39.4782200" lon="-6.3736800">
        <ele>421.4</ele>
        <time>2021-10-17T15:13:30Z</time>
      </trkpt>
      <trkpt lat="39.4782400" lon="-6.3737030">
        <ele>421.4</ele>
        <time>2021-10-17T15:13:31Z</time>
      </trkpt>
      <trkpt lat="39.4783470" lon="-6.3738070">
        <ele>421.8</ele>
        <time>2021-10-17T15:13:36Z</time>
      </trkpt>
      <trkpt lat="39.4784590" lon="-6.3739130">
        <ele>422.0</ele>
        <time>2021-10-17T15:13:41Z</time>
      </trkpt>
      <trkpt lat="39.4786050" lon="-6.3740850">
        <ele>422.4</ele>
        <time>2021-10-17T15:13:48Z</time>
      </trkpt>
      <trkpt lat="39.4787060" lon="-6.3742170">
        <ele>422.6</ele>
        <time>2021-10-17T15:13:53Z</time>
      </trkpt>
      <trkpt lat="39.4787810" lon="-6.3742970">
        <ele>423.0</ele>
        <time>2021-10-17T15:13:56Z</time>
      </trkpt>
      <trkpt lat="39.4789580" lon="-6.3744790">
        <ele>423.0</ele>
        <time>2021-10-17T15:14:03Z</time>
      </trkpt>
      <trkpt lat="39.4790660" lon="-6.3745930">
        <ele>422.6</ele>
        <time>2021-10-17T15:14:07Z</time>
      </trkpt>
      <trkpt lat="39.4791710" lon="-6.3747010">
        <ele>422.6</ele>
        <time>2021-10-17T15:14:11Z</time>
      </trkpt>
      <trkpt lat="39.4792910" lon="-6.3747810">
        <ele>422.6</ele>
        <time>2021-10-17T15:14:15Z</time>
      </trkpt>
      <trkpt lat="39.4793200" lon="-6.3747990">
        <ele>422.6</ele>
        <time>2021-10-17T15:14:16Z</time>
      </trkpt>
      <trkpt lat="39.4794770" lon="-6.3749020">
        <ele>422.8</ele>
        <time>2021-10-17T15:14:22Z</time>
      </trkpt>
      <trkpt lat="39.4795180" lon="-6.3749600">
        <ele>423.2</ele>
        <time>2021-10-17T15:14:25Z</time>
      </trkpt>
      <trkpt lat="39.4795200" lon="-6.3749810">
        <ele>423.2</ele>
        <time>2021-10-17T15:14:26Z</time>
      </trkpt>
      <trkpt lat="39.4795130" lon="-6.3749860">
        <ele>423.6</ele>
        <time>2021-10-17T15:14:29Z</time>
      </trkpt>
      <trkpt lat="39.4795010" lon="-6.3749810">
        <ele>423.8</ele>
        <time>2021-10-17T15:14:30Z</time>
      </trkpt>
      <trkpt lat="39.4794210" lon="-6.3749570">
        <ele>424.8</ele>
        <time>2021-10-17T15:14:34Z</time>
      </trkpt>
      <trkpt lat="39.4793540" lon="-6.3749470">
        <ele>425.2</ele>
        <time>2021-10-17T15:14:37Z</time>
      </trkpt>
      <trkpt lat="39.4792610" lon="-6.3749310">
        <ele>425.2</ele>
        <time>2021-10-17T15:14:41Z</time>
      </trkpt>
      <trkpt lat="39.4791670" lon="-6.3749200">
        <ele>425.4</ele>
        <time>2021-10-17T15:14:45Z</time>
      </trkpt>
      <trkpt lat="39.4790340" lon="-6.3749120">
        <ele>426.0</ele>
        <time>2021-10-17T15:14:51Z</time>
      </trkpt>
      <trkpt lat="39.4790110" lon="-6.3749160">
        <ele>426.0</ele>
        <time>2021-10-17T15:14:52Z</time>
      </trkpt>
      <trkpt lat="39.4788480" lon="-6.3749400">
        <ele>426.6</ele>
        <time>2021-10-17T15:14:59Z</time>
      </trkpt>
      <trkpt lat="39.4787670" lon="-6.3749420">
        <ele>427.2</ele>
        <time>2021-10-17T15:15:03Z</time>
      </trkpt>
      <trkpt lat="39.4786850" lon="-6.3749610">
        <ele>428.4</ele>
        <time>2021-10-17T15:15:08Z</time>
      </trkpt>
      <trkpt lat="39.4786850" lon="-6.3749610">
        <ele>429.0</ele>
        <time>2021-10-17T15:15:10Z</time>
      </trkpt>
      <trkpt lat="39.4779720" lon="-6.3749810">
        <ele>435.6</ele>
        <time>2021-10-17T15:16:18Z</time>
      </trkpt>
      <trkpt lat="39.4779400" lon="-6.3749840">
        <ele>435.6</ele>
        <time>2021-10-17T15:16:19Z</time>
      </trkpt>
      <trkpt lat="39.4778690" lon="-6.3749180">
        <ele>435.8</ele>
        <time>2021-10-17T15:16:22Z</time>
      </trkpt>
      <trkpt lat="39.4778070" lon="-6.3748720">
        <ele>436.0</ele>
        <time>2021-10-17T15:16:24Z</time>
      </trkpt>
      <trkpt lat="39.4777310" lon="-6.3747750">
        <ele>436.0</ele>
        <time>2021-10-17T15:16:28Z</time>
      </trkpt>
      <trkpt lat="39.4777150" lon="-6.3747380">
        <ele>436.0</ele>
        <time>2021-10-17T15:16:30Z</time>
      </trkpt>
      <trkpt lat="39.4775740" lon="-6.3746330">
        <ele>436.0</ele>
        <time>2021-10-17T15:16:35Z</time>
      </trkpt>
      <trkpt lat="39.4773840" lon="-6.3745160">
        <ele>436.2</ele>
        <time>2021-10-17T15:16:42Z</time>
      </trkpt>
      <trkpt lat="39.4773650" lon="-6.3745060">
        <ele>436.2</ele>
        <time>2021-10-17T15:16:43Z</time>
      </trkpt>
      <trkpt lat="39.4772760" lon="-6.3744390">
        <ele>436.4</ele>
        <time>2021-10-17T15:16:47Z</time>
      </trkpt>
      <trkpt lat="39.4772300" lon="-6.3743940">
        <ele>436.4</ele>
        <time>2021-10-17T15:16:49Z</time>
      </trkpt>
      <trkpt lat="39.4771330" lon="-6.3742990">
        <ele>436.6</ele>
        <time>2021-10-17T15:16:53Z</time>
      </trkpt>
      <trkpt lat="39.4770750" lon="-6.3742770">
        <ele>436.8</ele>
        <time>2021-10-17T15:16:55Z</time>
      </trkpt>
      <trkpt lat="39.4770120" lon="-6.3742560">
        <ele>437.0</ele>
        <time>2021-10-17T15:16:57Z</time>
      </trkpt>
      <trkpt lat="39.4768900" lon="-6.3741970">
        <ele>437.2</ele>
        <time>2021-10-17T15:17:02Z</time>
      </trkpt>
      <trkpt lat="39.4766990" lon="-6.3741260">
        <ele>437.8</ele>
        <time>2021-10-17T15:17:10Z</time>
      </trkpt>
      <trkpt lat="39.4766320" lon="-6.3741090">
        <ele>438.0</ele>
        <time>2021-10-17T15:17:13Z</time>
      </trkpt>
      <trkpt lat="39.4765880" lon="-6.3741090">
        <ele>438.0</ele>
        <time>2021-10-17T15:17:15Z</time>
      </trkpt>
      <trkpt lat="39.4764370" lon="-6.3741120">
        <ele>438.2</ele>
        <time>2021-10-17T15:17:21Z</time>
      </trkpt>
      <trkpt lat="39.4763180" lon="-6.3740330">
        <ele>438.6</ele>
        <time>2021-10-17T15:17:27Z</time>
      </trkpt>
      <trkpt lat="39.4763010" lon="-6.3740240">
        <ele>438.8</ele>
        <time>2021-10-17T15:17:28Z</time>
      </trkpt>
      <trkpt lat="39.4762960" lon="-6.3740230">
        <ele>439.0</ele>
        <time>2021-10-17T15:17:31Z</time>
      </trkpt>
      <trkpt lat="39.4762760" lon="-6.3740010">
        <ele>439.2</ele>
        <time>2021-10-17T15:17:58Z</time>
      </trkpt>
      <trkpt lat="39.4762660" lon="-6.3739930">
        <ele>439.2</ele>
        <time>2021-10-17T15:17:59Z</time>
      </trkpt>
      <trkpt lat="39.4762520" lon="-6.3739860">
        <ele>439.2</ele>
        <time>2021-10-17T15:18:00Z</time>
      </trkpt>
      <trkpt lat="39.4761990" lon="-6.3739830">
        <ele>439.4</ele>
        <time>2021-10-17T15:18:04Z</time>
      </trkpt>
      <trkpt lat="39.4761140" lon="-6.3739550">
        <ele>439.2</ele>
        <time>2021-10-17T15:18:09Z</time>
      </trkpt>
      <trkpt lat="39.4760480" lon="-6.3739120">
        <ele>439.0</ele>
        <time>2021-10-17T15:18:11Z</time>
      </trkpt>
      <trkpt lat="39.4759540" lon="-6.3738590">
        <ele>439.0</ele>
        <time>2021-10-17T15:18:13Z</time>
      </trkpt>
      <trkpt lat="39.4757440" lon="-6.3737440">
        <ele>438.4</ele>
        <time>2021-10-17T15:18:18Z</time>
      </trkpt>
      <trkpt lat="39.4757100" lon="-6.3737260">
        <ele>438.4</ele>
        <time>2021-10-17T15:18:19Z</time>
      </trkpt>
      <trkpt lat="39.4756370" lon="-6.3736750">
        <ele>438.2</ele>
        <time>2021-10-17T15:18:22Z</time>
      </trkpt>
      <trkpt lat="39.4756170" lon="-6.3736520">
        <ele>438.2</ele>
        <time>2021-10-17T15:18:23Z</time>
      </trkpt>
      <trkpt lat="39.4755760" lon="-6.3734790">
        <ele>437.6</ele>
        <time>2021-10-17T15:18:27Z</time>
      </trkpt>
      <trkpt lat="39.4755010" lon="-6.3734100">
        <ele>437.2</ele>
        <time>2021-10-17T15:18:29Z</time>
      </trkpt>
      <trkpt lat="39.4753760" lon="-6.3733860">
        <ele>436.6</ele>
        <time>2021-10-17T15:18:33Z</time>
      </trkpt>
      <trkpt lat="39.4753130" lon="-6.3733920">
        <ele>436.2</ele>
        <time>2021-10-17T15:18:35Z</time>
      </trkpt>
      <trkpt lat="39.4752200" lon="-6.3733860">
        <ele>435.8</ele>
        <time>2021-10-17T15:18:38Z</time>
      </trkpt>
      <trkpt lat="39.4751650" lon="-6.3733800">
        <ele>435.4</ele>
        <time>2021-10-17T15:18:43Z</time>
      </trkpt>
      <trkpt lat="39.4751440" lon="-6.3733800">
        <ele>435.4</ele>
        <time>2021-10-17T15:18:44Z</time>
      </trkpt>
      <trkpt lat="39.4750570" lon="-6.3733990">
        <ele>435.2</ele>
        <time>2021-10-17T15:18:47Z</time>
      </trkpt>
      <trkpt lat="39.4750120" lon="-6.3734220">
        <ele>435.2</ele>
        <time>2021-10-17T15:18:49Z</time>
      </trkpt>
      <trkpt lat="39.4749320" lon="-6.3734640">
        <ele>435.2</ele>
        <time>2021-10-17T15:18:53Z</time>
      </trkpt>
      <trkpt lat="39.4748100" lon="-6.3735380">
        <ele>435.6</ele>
        <time>2021-10-17T15:18:59Z</time>
      </trkpt>
      <trkpt lat="39.4747740" lon="-6.3735610">
        <ele>435.6</ele>
        <time>2021-10-17T15:19:01Z</time>
      </trkpt>
      <trkpt lat="39.4746770" lon="-6.3735710">
        <ele>435.8</ele>
        <time>2021-10-17T15:19:05Z</time>
      </trkpt>
      <trkpt lat="39.4745910" lon="-6.3736100">
        <ele>436.2</ele>
        <time>2021-10-17T15:19:08Z</time>
      </trkpt>
      <trkpt lat="39.4745420" lon="-6.3736490">
        <ele>436.2</ele>
        <time>2021-10-17T15:19:10Z</time>
      </trkpt>
      <trkpt lat="39.4744370" lon="-6.3737690">
        <ele>436.4</ele>
        <time>2021-10-17T15:19:14Z</time>
      </trkpt>
      <trkpt lat="39.4744150" lon="-6.3737900">
        <ele>436.6</ele>
        <time>2021-10-17T15:19:15Z</time>
      </trkpt>
      <trkpt lat="39.4742990" lon="-6.3738780">
        <ele>437.2</ele>
        <time>2021-10-17T15:19:20Z</time>
      </trkpt>
      <trkpt lat="39.4741890" lon="-6.3739950">
        <ele>437.6</ele>
        <time>2021-10-17T15:19:25Z</time>
      </trkpt>
      <trkpt lat="39.4741090" lon="-6.3741420">
        <ele>438.0</ele>
        <time>2021-10-17T15:19:31Z</time>
      </trkpt>
      <trkpt lat="39.4740400" lon="-6.3742000">
        <ele>438.2</ele>
        <time>2021-10-17T15:19:34Z</time>
      </trkpt>
      <trkpt lat="39.4739940" lon="-6.3742350">
        <ele>438.0</ele>
        <time>2021-10-17T15:19:36Z</time>
      </trkpt>
      <trkpt lat="39.4739300" lon="-6.3742870">
        <ele>438.0</ele>
        <time>2021-10-17T15:19:39Z</time>
      </trkpt>
      <trkpt lat="39.4738980" lon="-6.3743180">
        <ele>438.0</ele>
        <time>2021-10-17T15:19:41Z</time>
      </trkpt>
      <trkpt lat="39.4738570" lon="-6.3743760">
        <ele>437.6</ele>
        <time>2021-10-17T15:19:45Z</time>
      </trkpt>
      <trkpt lat="39.4736660" lon="-6.3746420">
        <ele>436.6</ele>
        <time>2021-10-17T15:19:52Z</time>
      </trkpt>
      <trkpt lat="39.4735890" lon="-6.3747100">
        <ele>436.0</ele>
        <time>2021-10-17T15:19:55Z</time>
      </trkpt>
      <trkpt lat="39.4735340" lon="-6.3747730">
        <ele>435.6</ele>
        <time>2021-10-17T15:19:58Z</time>
      </trkpt>
      <trkpt lat="39.4735000" lon="-6.3748680">
        <ele>435.2</ele>
        <time>2021-10-17T15:20:00Z</time>
      </trkpt>
      <trkpt lat="39.4734920" lon="-6.3749610">
        <ele>434.8</ele>
        <time>2021-10-17T15:20:02Z</time>
      </trkpt>
      <trkpt lat="39.4734520" lon="-6.3750500">
        <ele>434.4</ele>
        <time>2021-10-17T15:20:04Z</time>
      </trkpt>
      <trkpt lat="39.4733210" lon="-6.3751750">
        <ele>433.6</ele>
        <time>2021-10-17T15:20:08Z</time>
      </trkpt>
      <trkpt lat="39.4733000" lon="-6.3752180">
        <ele>433.6</ele>
        <time>2021-10-17T15:20:09Z</time>
      </trkpt>
      <trkpt lat="39.4732800" lon="-6.3753270">
        <ele>432.6</ele>
        <time>2021-10-17T15:20:12Z</time>
      </trkpt>
      <trkpt lat="39.4732220" lon="-6.3753630">
        <ele>432.6</ele>
        <time>2021-10-17T15:20:14Z</time>
      </trkpt>
      <trkpt lat="39.4731410" lon="-6.3754430">
        <ele>432.8</ele>
        <time>2021-10-17T15:20:18Z</time>
      </trkpt>
      <trkpt lat="39.4731190" lon="-6.3754920">
        <ele>433.2</ele>
        <time>2021-10-17T15:20:20Z</time>
      </trkpt>
      <trkpt lat="39.4729330" lon="-6.3755550">
        <ele>433.8</ele>
        <time>2021-10-17T15:20:26Z</time>
      </trkpt>
      <trkpt lat="39.4728500" lon="-6.3756050">
        <ele>434.4</ele>
        <time>2021-10-17T15:20:29Z</time>
      </trkpt>
      <trkpt lat="39.4728260" lon="-6.3756330">
        <ele>434.6</ele>
        <time>2021-10-17T15:20:30Z</time>
      </trkpt>
      <trkpt lat="39.4728070" lon="-6.3756470">
        <ele>434.6</ele>
        <time>2021-10-17T15:20:31Z</time>
      </trkpt>
      <trkpt lat="39.4727460" lon="-6.3757110">
        <ele>435.2</ele>
        <time>2021-10-17T15:20:34Z</time>
      </trkpt>
      <trkpt lat="39.4727070" lon="-6.3757590">
        <ele>435.4</ele>
        <time>2021-10-17T15:20:36Z</time>
      </trkpt>
      <trkpt lat="39.4726950" lon="-6.3757830">
        <ele>435.6</ele>
        <time>2021-10-17T15:20:37Z</time>
      </trkpt>
      <trkpt lat="39.4726510" lon="-6.3759020">
        <ele>435.8</ele>
        <time>2021-10-17T15:20:40Z</time>
      </trkpt>
      <trkpt lat="39.4726470" lon="-6.3759310">
        <ele>436.0</ele>
        <time>2021-10-17T15:20:41Z</time>
      </trkpt>
      <trkpt lat="39.4726410" lon="-6.3759620">
        <ele>436.2</ele>
        <time>2021-10-17T15:20:45Z</time>
      </trkpt>
      <trkpt lat="39.4726410" lon="-6.3759620">
        <ele>436.4</ele>
        <time>2021-10-17T15:20:46Z</time>
      </trkpt>
      <trkpt lat="39.4726400" lon="-6.3760510">
        <ele>436.4</ele>
        <time>2021-10-17T15:20:58Z</time>
      </trkpt>
      <trkpt lat="39.4726360" lon="-6.3760700">
        <ele>436.2</ele>
        <time>2021-10-17T15:20:59Z</time>
      </trkpt>
      <trkpt lat="39.4726270" lon="-6.3760840">
        <ele>436.2</ele>
        <time>2021-10-17T15:21:00Z</time>
      </trkpt>
      <trkpt lat="39.4725160" lon="-6.3762350">
        <ele>436.6</ele>
        <time>2021-10-17T15:21:07Z</time>
      </trkpt>
      <trkpt lat="39.4724670" lon="-6.3762940">
        <ele>436.8</ele>
        <time>2021-10-17T15:21:10Z</time>
      </trkpt>
      <trkpt lat="39.4724350" lon="-6.3763360">
        <ele>437.0</ele>
        <time>2021-10-17T15:21:12Z</time>
      </trkpt>
      <trkpt lat="39.4724150" lon="-6.3763530">
        <ele>437.0</ele>
        <time>2021-10-17T15:21:13Z</time>
      </trkpt>
      <trkpt lat="39.4723450" lon="-6.3764090">
        <ele>437.0</ele>
        <time>2021-10-17T15:21:16Z</time>
      </trkpt>
      <trkpt lat="39.4722010" lon="-6.3765360">
        <ele>437.2</ele>
        <time>2021-10-17T15:21:22Z</time>
      </trkpt>
      <trkpt lat="39.4720680" lon="-6.3766260">
        <ele>437.4</ele>
        <time>2021-10-17T15:21:26Z</time>
      </trkpt>
      <trkpt lat="39.4720510" lon="-6.3766390">
        <ele>437.4</ele>
        <time>2021-10-17T15:21:27Z</time>
      </trkpt>
      <trkpt lat="39.4719560" lon="-6.3767320">
        <ele>437.6</ele>
        <time>2021-10-17T15:21:32Z</time>
      </trkpt>
      <trkpt lat="39.4719410" lon="-6.3767540">
        <ele>437.6</ele>
        <time>2021-10-17T15:21:33Z</time>
      </trkpt>
      <trkpt lat="39.4718050" lon="-6.3768890">
        <ele>437.8</ele>
        <time>2021-10-17T15:21:38Z</time>
      </trkpt>
      <trkpt lat="39.4717040" lon="-6.3769390">
        <ele>437.8</ele>
        <time>2021-10-17T15:21:40Z</time>
      </trkpt>
      <trkpt lat="39.4715410" lon="-6.3770720">
        <ele>438.0</ele>
        <time>2021-10-17T15:21:47Z</time>
      </trkpt>
      <trkpt lat="39.4714590" lon="-6.3771080">
        <ele>438.2</ele>
        <time>2021-10-17T15:21:51Z</time>
      </trkpt>
      <trkpt lat="39.4714280" lon="-6.3771190">
        <ele>438.4</ele>
        <time>2021-10-17T15:21:52Z</time>
      </trkpt>
      <trkpt lat="39.4713520" lon="-6.3771980">
        <ele>439.0</ele>
        <time>2021-10-17T15:21:57Z</time>
      </trkpt>
      <trkpt lat="39.4713430" lon="-6.3772130">
        <ele>439.0</ele>
        <time>2021-10-17T15:21:58Z</time>
      </trkpt>
      <trkpt lat="39.4712450" lon="-6.3772630">
        <ele>439.2</ele>
        <time>2021-10-17T15:22:02Z</time>
      </trkpt>
      <trkpt lat="39.4711910" lon="-6.3773010">
        <ele>439.4</ele>
        <time>2021-10-17T15:22:04Z</time>
      </trkpt>
      <trkpt lat="39.4710790" lon="-6.3773940">
        <ele>439.6</ele>
        <time>2021-10-17T15:22:09Z</time>
      </trkpt>
      <trkpt lat="39.4710440" lon="-6.3774230">
        <ele>439.6</ele>
        <time>2021-10-17T15:22:10Z</time>
      </trkpt>
      <trkpt lat="39.4709850" lon="-6.3774620">
        <ele>439.8</ele>
        <time>2021-10-17T15:22:12Z</time>
      </trkpt>
      <trkpt lat="39.4708690" lon="-6.3775300">
        <ele>440.0</ele>
        <time>2021-10-17T15:22:16Z</time>
      </trkpt>
      <trkpt lat="39.4708360" lon="-6.3775620">
        <ele>440.2</ele>
        <time>2021-10-17T15:22:18Z</time>
      </trkpt>
      <trkpt lat="39.4707060" lon="-6.3776950">
        <ele>440.6</ele>
        <time>2021-10-17T15:22:24Z</time>
      </trkpt>
      <trkpt lat="39.4706260" lon="-6.3777540">
        <ele>440.8</ele>
        <time>2021-10-17T15:22:28Z</time>
      </trkpt>
      <trkpt lat="39.4705470" lon="-6.3778070">
        <ele>441.0</ele>
        <time>2021-10-17T15:22:32Z</time>
      </trkpt>
      <trkpt lat="39.4703790" lon="-6.3779480">
        <ele>441.8</ele>
        <time>2021-10-17T15:22:40Z</time>
      </trkpt>
      <trkpt lat="39.4702570" lon="-6.3780090">
        <ele>442.0</ele>
        <time>2021-10-17T15:22:45Z</time>
      </trkpt>
      <trkpt lat="39.4701890" lon="-6.3780500">
        <ele>442.2</ele>
        <time>2021-10-17T15:22:48Z</time>
      </trkpt>
      <trkpt lat="39.4701050" lon="-6.3781040">
        <ele>442.6</ele>
        <time>2021-10-17T15:22:52Z</time>
      </trkpt>
      <trkpt lat="39.4700670" lon="-6.3781220">
        <ele>442.6</ele>
        <time>2021-10-17T15:22:54Z</time>
      </trkpt>
      <trkpt lat="39.4699860" lon="-6.3781780">
        <ele>442.8</ele>
        <time>2021-10-17T15:22:58Z</time>
      </trkpt>
      <trkpt lat="39.4699640" lon="-6.3781950">
        <ele>443.0</ele>
        <time>2021-10-17T15:22:59Z</time>
      </trkpt>
      <trkpt lat="39.4698940" lon="-6.3782420">
        <ele>443.2</ele>
        <time>2021-10-17T15:23:02Z</time>
      </trkpt>
      <trkpt lat="39.4698340" lon="-6.3782890">
        <ele>443.6</ele>
        <time>2021-10-17T15:23:05Z</time>
      </trkpt>
      <trkpt lat="39.4697820" lon="-6.3783270">
        <ele>443.6</ele>
        <time>2021-10-17T15:23:07Z</time>
      </trkpt>
      <trkpt lat="39.4696650" lon="-6.3784020">
        <ele>443.8</ele>
        <time>2021-10-17T15:23:12Z</time>
      </trkpt>
      <trkpt lat="39.4696460" lon="-6.3784080">
        <ele>443.8</ele>
        <time>2021-10-17T15:23:13Z</time>
      </trkpt>
      <trkpt lat="39.4696250" lon="-6.3784190">
        <ele>444.0</ele>
        <time>2021-10-17T15:23:14Z</time>
      </trkpt>
      <trkpt lat="39.4695230" lon="-6.3784580">
        <ele>444.2</ele>
        <time>2021-10-17T15:23:18Z</time>
      </trkpt>
      <trkpt lat="39.4694560" lon="-6.3784960">
        <ele>444.4</ele>
        <time>2021-10-17T15:23:21Z</time>
      </trkpt>
      <trkpt lat="39.4694080" lon="-6.3785250">
        <ele>444.4</ele>
        <time>2021-10-17T15:23:23Z</time>
      </trkpt>
      <trkpt lat="39.4693460" lon="-6.3785740">
        <ele>444.6</ele>
        <time>2021-10-17T15:23:26Z</time>
      </trkpt>
      <trkpt lat="39.4692730" lon="-6.3786350">
        <ele>444.6</ele>
        <time>2021-10-17T15:23:29Z</time>
      </trkpt>
      <trkpt lat="39.4692500" lon="-6.3786550">
        <ele>444.8</ele>
        <time>2021-10-17T15:23:30Z</time>
      </trkpt>
      <trkpt lat="39.4691810" lon="-6.3787000">
        <ele>445.0</ele>
        <time>2021-10-17T15:23:33Z</time>
      </trkpt>
      <trkpt lat="39.4691190" lon="-6.3787480">
        <ele>445.2</ele>
        <time>2021-10-17T15:23:37Z</time>
      </trkpt>
      <trkpt lat="39.4690380" lon="-6.3787880">
        <ele>445.2</ele>
        <time>2021-10-17T15:23:42Z</time>
      </trkpt>
      <trkpt lat="39.4690030" lon="-6.3787990">
        <ele>445.2</ele>
        <time>2021-10-17T15:23:46Z</time>
      </trkpt>
      <trkpt lat="39.4690030" lon="-6.3787990">
        <ele>445.2</ele>
        <time>2021-10-17T15:23:47Z</time>
      </trkpt>
      <trkpt lat="39.4689540" lon="-6.3788620">
        <ele>444.6</ele>
        <time>2021-10-17T15:23:56Z</time>
      </trkpt>
      <trkpt lat="39.4689260" lon="-6.3788680">
        <ele>444.6</ele>
        <time>2021-10-17T15:23:58Z</time>
      </trkpt>
      <trkpt lat="39.4688460" lon="-6.3788240">
        <ele>444.6</ele>
        <time>2021-10-17T15:24:02Z</time>
      </trkpt>
      <trkpt lat="39.4688380" lon="-6.3788030">
        <ele>444.6</ele>
        <time>2021-10-17T15:24:03Z</time>
      </trkpt>
      <trkpt lat="39.4688160" lon="-6.3787310">
        <ele>444.2</ele>
        <time>2021-10-17T15:24:10Z</time>
      </trkpt>
      <trkpt lat="39.4688030" lon="-6.3787730">
        <ele>444.0</ele>
        <time>2021-10-17T15:24:53Z</time>
      </trkpt>
      <trkpt lat="39.4688050" lon="-6.3787830">
        <ele>444.0</ele>
        <time>2021-10-17T15:24:54Z</time>
      </trkpt>
      <trkpt lat="39.4688050" lon="-6.3787830">
        <ele>444.2</ele>
        <time>2021-10-17T15:24:55Z</time>
      </trkpt>
      <trkpt lat="39.4687300" lon="-6.3787760">
        <ele>444.4</ele>
        <time>2021-10-17T15:24:59Z</time>
      </trkpt>
      <trkpt lat="39.4686900" lon="-6.3787590">
        <ele>444.6</ele>
        <time>2021-10-17T15:25:01Z</time>
      </trkpt>
      <trkpt lat="39.4686070" lon="-6.3787740">
        <ele>445.0</ele>
        <time>2021-10-17T15:25:04Z</time>
      </trkpt>
      <trkpt lat="39.4685440" lon="-6.3787570">
        <ele>445.2</ele>
        <time>2021-10-17T15:25:08Z</time>
      </trkpt>
      <trkpt lat="39.4685420" lon="-6.3787510">
        <ele>445.2</ele>
        <time>2021-10-17T15:25:09Z</time>
      </trkpt>
      <trkpt lat="39.4684590" lon="-6.3787570">
        <ele>445.0</ele>
        <time>2021-10-17T15:25:13Z</time>
      </trkpt>
      <trkpt lat="39.4684590" lon="-6.3787520">
        <ele>445.0</ele>
        <time>2021-10-17T15:25:15Z</time>
      </trkpt>
      <trkpt lat="39.4684590" lon="-6.3787520">
        <ele>445.0</ele>
        <time>2021-10-17T15:25:16Z</time>
      </trkpt>
      <trkpt lat="39.4684560" lon="-6.3788030">
        <ele>445.0</ele>
        <time>2021-10-17T15:26:10Z</time>
      </trkpt>
      <trkpt lat="39.4684410" lon="-6.3788600">
        <ele>445.0</ele>
        <time>2021-10-17T15:26:12Z</time>
      </trkpt>
      <trkpt lat="39.4683490" lon="-6.3789320">
        <ele>445.0</ele>
        <time>2021-10-17T15:26:15Z</time>
      </trkpt>
      <trkpt lat="39.4682890" lon="-6.3789690">
        <ele>445.0</ele>
        <time>2021-10-17T15:26:17Z</time>
      </trkpt>
      <trkpt lat="39.4682620" lon="-6.3789820">
        <ele>445.0</ele>
        <time>2021-10-17T15:26:18Z</time>
      </trkpt>
      <trkpt lat="39.4681440" lon="-6.3789730">
        <ele>445.0</ele>
        <time>2021-10-17T15:26:22Z</time>
      </trkpt>
      <trkpt lat="39.4679270" lon="-6.3789760">
        <ele>445.0</ele>
        <time>2021-10-17T15:26:28Z</time>
      </trkpt>
      <trkpt lat="39.4676480" lon="-6.3790310">
        <ele>444.4</ele>
        <time>2021-10-17T15:26:36Z</time>
      </trkpt>
      <trkpt lat="39.4673970" lon="-6.3790280">
        <ele>444.0</ele>
        <time>2021-10-17T15:26:44Z</time>
      </trkpt>
      <trkpt lat="39.4672620" lon="-6.3789810">
        <ele>444.0</ele>
        <time>2021-10-17T15:26:49Z</time>
      </trkpt>
      <trkpt lat="39.4672530" lon="-6.3789690">
        <ele>444.0</ele>
        <time>2021-10-17T15:26:50Z</time>
      </trkpt>
      <trkpt lat="39.4671820" lon="-6.3788730">
        <ele>443.8</ele>
        <time>2021-10-17T15:26:52Z</time>
      </trkpt>
      <trkpt lat="39.4670770" lon="-6.3786790">
        <ele>443.8</ele>
        <time>2021-10-17T15:26:57Z</time>
      </trkpt>
      <trkpt lat="39.4669640" lon="-6.3785090">
        <ele>443.8</ele>
        <time>2021-10-17T15:27:02Z</time>
      </trkpt>
      <trkpt lat="39.4668580" lon="-6.3783310">
        <ele>443.6</ele>
        <time>2021-10-17T15:27:08Z</time>
      </trkpt>
      <trkpt lat="39.4667920" lon="-6.3782360">
        <ele>443.6</ele>
        <time>2021-10-17T15:27:12Z</time>
      </trkpt>
      <trkpt lat="39.4667650" lon="-6.3782240">
        <ele>443.6</ele>
        <time>2021-10-17T15:27:13Z</time>
      </trkpt>
      <trkpt lat="39.4667500" lon="-6.3782120">
        <ele>443.6</ele>
        <time>2021-10-17T15:27:14Z</time>
      </trkpt>
      <trkpt lat="39.4667290" lon="-6.3781840">
        <ele>443.4</ele>
        <time>2021-10-17T15:27:16Z</time>
      </trkpt>
      <trkpt lat="39.4667050" lon="-6.3781530">
        <ele>443.2</ele>
        <time>2021-10-17T15:27:20Z</time>
      </trkpt>
      <trkpt lat="39.4667020" lon="-6.3781550">
        <ele>443.2</ele>
        <time>2021-10-17T15:27:21Z</time>
      </trkpt>
      <trkpt lat="39.4667030" lon="-6.3781500">
        <ele>443.2</ele>
        <time>2021-10-17T15:27:22Z</time>
      </trkpt>
      <trkpt lat="39.4666840" lon="-6.3781760">
        <ele>443.0</ele>
        <time>2021-10-17T15:27:24Z</time>
      </trkpt>
      <trkpt lat="39.4666630" lon="-6.3781960">
        <ele>443.0</ele>
        <time>2021-10-17T15:27:25Z</time>
      </trkpt>
      <trkpt lat="39.4665320" lon="-6.3783910">
        <ele>442.4</ele>
        <time>2021-10-17T15:27:31Z</time>
      </trkpt>
      <trkpt lat="39.4665000" lon="-6.3784560">
        <ele>442.0</ele>
        <time>2021-10-17T15:27:33Z</time>
      </trkpt>
      <trkpt lat="39.4664710" lon="-6.3785230">
        <ele>441.8</ele>
        <time>2021-10-17T15:27:36Z</time>
      </trkpt>
      <trkpt lat="39.4664580" lon="-6.3785450">
        <ele>441.6</ele>
        <time>2021-10-17T15:27:37Z</time>
      </trkpt>
      <trkpt lat="39.4664030" lon="-6.3785810">
        <ele>441.4</ele>
        <time>2021-10-17T15:27:40Z</time>
      </trkpt>
      <trkpt lat="39.4664150" lon="-6.3787240">
        <ele>441.2</ele>
        <time>2021-10-17T15:27:44Z</time>
      </trkpt>
      <trkpt lat="39.4664770" lon="-6.3788670">
        <ele>441.0</ele>
        <time>2021-10-17T15:27:50Z</time>
      </trkpt>
      <trkpt lat="39.4665210" lon="-6.3790550">
        <ele>441.2</ele>
        <time>2021-10-17T15:27:57Z</time>
      </trkpt>
      <trkpt lat="39.4665180" lon="-6.3790900">
        <ele>441.2</ele>
        <time>2021-10-17T15:27:58Z</time>
      </trkpt>
      <trkpt lat="39.4664580" lon="-6.3791890">
        <ele>441.2</ele>
        <time>2021-10-17T15:28:01Z</time>
      </trkpt>
      <trkpt lat="39.4664280" lon="-6.3792100">
        <ele>441.2</ele>
        <time>2021-10-17T15:28:02Z</time>
      </trkpt>
      <trkpt lat="39.4663100" lon="-6.3792070">
        <ele>441.2</ele>
        <time>2021-10-17T15:28:05Z</time>
      </trkpt>
      <trkpt lat="39.4660170" lon="-6.3791710">
        <ele>440.6</ele>
        <time>2021-10-17T15:28:11Z</time>
      </trkpt>
      <trkpt lat="39.4658070" lon="-6.3791380">
        <ele>440.0</ele>
        <time>2021-10-17T15:28:15Z</time>
      </trkpt>
      <trkpt lat="39.4655940" lon="-6.3791160">
        <ele>439.2</ele>
        <time>2021-10-17T15:28:19Z</time>
      </trkpt>
      <trkpt lat="39.4654870" lon="-6.3791120">
        <ele>438.8</ele>
        <time>2021-10-17T15:28:21Z</time>
      </trkpt>
      <trkpt lat="39.4652310" lon="-6.3791260">
        <ele>438.0</ele>
        <time>2021-10-17T15:28:26Z</time>
      </trkpt>
      <trkpt lat="39.4651780" lon="-6.3791280">
        <ele>437.8</ele>
        <time>2021-10-17T15:28:27Z</time>
      </trkpt>
      <trkpt lat="39.4650210" lon="-6.3791380">
        <ele>437.0</ele>
        <time>2021-10-17T15:28:30Z</time>
      </trkpt>
      <trkpt lat="39.4648650" lon="-6.3791600">
        <ele>436.8</ele>
        <time>2021-10-17T15:28:33Z</time>
      </trkpt>
      <trkpt lat="39.4648100" lon="-6.3791610">
        <ele>436.6</ele>
        <time>2021-10-17T15:28:34Z</time>
      </trkpt>
      <trkpt lat="39.4646170" lon="-6.3792210">
        <ele>436.0</ele>
        <time>2021-10-17T15:28:38Z</time>
      </trkpt>
      <trkpt lat="39.4643370" lon="-6.3792800">
        <ele>435.8</ele>
        <time>2021-10-17T15:28:44Z</time>
      </trkpt>
      <trkpt lat="39.4642840" lon="-6.3792870">
        <ele>435.8</ele>
        <time>2021-10-17T15:28:45Z</time>
      </trkpt>
      <trkpt lat="39.4642340" lon="-6.3792920">
        <ele>435.6</ele>
        <time>2021-10-17T15:28:46Z</time>
      </trkpt>
      <trkpt lat="39.4639510" lon="-6.3793410">
        <ele>435.2</ele>
        <time>2021-10-17T15:28:52Z</time>
      </trkpt>
      <trkpt lat="39.4638690" lon="-6.3793520">
        <ele>434.8</ele>
        <time>2021-10-17T15:28:54Z</time>
      </trkpt>
      <trkpt lat="39.4637450" lon="-6.3793560">
        <ele>434.6</ele>
        <time>2021-10-17T15:28:57Z</time>
      </trkpt>
      <trkpt lat="39.4636320" lon="-6.3793690">
        <ele>434.2</ele>
        <time>2021-10-17T15:29:00Z</time>
      </trkpt>
      <trkpt lat="39.4633660" lon="-6.3794180">
        <ele>433.6</ele>
        <time>2021-10-17T15:29:07Z</time>
      </trkpt>
      <trkpt lat="39.4633290" lon="-6.3794290">
        <ele>433.6</ele>
        <time>2021-10-17T15:29:08Z</time>
      </trkpt>
      <trkpt lat="39.4632220" lon="-6.3794050">
        <ele>433.4</ele>
        <time>2021-10-17T15:29:11Z</time>
      </trkpt>
      <trkpt lat="39.4631650" lon="-6.3792520">
        <ele>433.2</ele>
        <time>2021-10-17T15:29:15Z</time>
      </trkpt>
      <trkpt lat="39.4631490" lon="-6.3789550">
        <ele>432.8</ele>
        <time>2021-10-17T15:29:21Z</time>
      </trkpt>
      <trkpt lat="39.4631320" lon="-6.3788150">
        <ele>432.4</ele>
        <time>2021-10-17T15:29:24Z</time>
      </trkpt>
      <trkpt lat="39.4631030" lon="-6.3787170">
        <ele>432.0</ele>
        <time>2021-10-17T15:29:27Z</time>
      </trkpt>
      <trkpt lat="39.4630850" lon="-6.3786740">
        <ele>431.6</ele>
        <time>2021-10-17T15:29:31Z</time>
      </trkpt>
      <trkpt lat="39.4630850" lon="-6.3786740">
        <ele>431.4</ele>
        <time>2021-10-17T15:29:32Z</time>
      </trkpt>
      <trkpt lat="39.4630880" lon="-6.3785990">
        <ele>431.0</ele>
        <time>2021-10-17T15:30:56Z</time>
      </trkpt>
      <trkpt lat="39.4631010" lon="-6.3785200">
        <ele>431.2</ele>
        <time>2021-10-17T15:30:58Z</time>
      </trkpt>
      <trkpt lat="39.4631150" lon="-6.3783270">
        <ele>431.2</ele>
        <time>2021-10-17T15:31:02Z</time>
      </trkpt>
      <trkpt lat="39.4631200" lon="-6.3782780">
        <ele>431.2</ele>
        <time>2021-10-17T15:31:03Z</time>
      </trkpt>
      <trkpt lat="39.4631370" lon="-6.3780520">
        <ele>431.4</ele>
        <time>2021-10-17T15:31:09Z</time>
      </trkpt>
      <trkpt lat="39.4631730" lon="-6.3779030">
        <ele>432.4</ele>
        <time>2021-10-17T15:31:14Z</time>
      </trkpt>
      <trkpt lat="39.4631880" lon="-6.3778380">
        <ele>432.6</ele>
        <time>2021-10-17T15:31:16Z</time>
      </trkpt>
      <trkpt lat="39.4632060" lon="-6.3777080">
        <ele>433.4</ele>
        <time>2021-10-17T15:31:20Z</time>
      </trkpt>
      <trkpt lat="39.4632100" lon="-6.3776830">
        <ele>433.6</ele>
        <time>2021-10-17T15:31:21Z</time>
      </trkpt>
      <trkpt lat="39.4632030" lon="-6.3775040">
        <ele>434.4</ele>
        <time>2021-10-17T15:31:27Z</time>
      </trkpt>
      <trkpt lat="39.4632080" lon="-6.3774650">
        <ele>434.4</ele>
        <time>2021-10-17T15:31:28Z</time>
      </trkpt>
      <trkpt lat="39.4632300" lon="-6.3773870">
        <ele>434.8</ele>
        <time>2021-10-17T15:31:30Z</time>
      </trkpt>
      <trkpt lat="39.4632330" lon="-6.3773480">
        <ele>435.0</ele>
        <time>2021-10-17T15:31:31Z</time>
      </trkpt>
      <trkpt lat="39.4632900" lon="-6.3771640">
        <ele>435.4</ele>
        <time>2021-10-17T15:31:36Z</time>
      </trkpt>
      <trkpt lat="39.4632790" lon="-6.3771260">
        <ele>435.4</ele>
        <time>2021-10-17T15:31:37Z</time>
      </trkpt>
      <trkpt lat="39.4632720" lon="-6.3770120">
        <ele>435.6</ele>
        <time>2021-10-17T15:31:40Z</time>
      </trkpt>
      <trkpt lat="39.4632870" lon="-6.3769260">
        <ele>435.8</ele>
        <time>2021-10-17T15:31:42Z</time>
      </trkpt>
      <trkpt lat="39.4632990" lon="-6.3768480">
        <ele>435.8</ele>
        <time>2021-10-17T15:31:44Z</time>
      </trkpt>
      <trkpt lat="39.4633150" lon="-6.3767280">
        <ele>436.0</ele>
        <time>2021-10-17T15:31:47Z</time>
      </trkpt>
      <trkpt lat="39.4633300" lon="-6.3766350">
        <ele>436.0</ele>
        <time>2021-10-17T15:31:50Z</time>
      </trkpt>
      <trkpt lat="39.4633360" lon="-6.3765710">
        <ele>436.2</ele>
        <time>2021-10-17T15:31:52Z</time>
      </trkpt>
      <trkpt lat="39.4633460" lon="-6.3765060">
        <ele>436.2</ele>
        <time>2021-10-17T15:31:54Z</time>
      </trkpt>
      <trkpt lat="39.4633560" lon="-6.3764360">
        <ele>436.4</ele>
        <time>2021-10-17T15:31:56Z</time>
      </trkpt>
      <trkpt lat="39.4633720" lon="-6.3763330">
        <ele>436.6</ele>
        <time>2021-10-17T15:31:59Z</time>
      </trkpt>
      <trkpt lat="39.4633780" lon="-6.3761850">
        <ele>436.6</ele>
        <time>2021-10-17T15:32:03Z</time>
      </trkpt>
      <trkpt lat="39.4633710" lon="-6.3759900">
        <ele>436.6</ele>
        <time>2021-10-17T15:32:08Z</time>
      </trkpt>
      <trkpt lat="39.4633830" lon="-6.3758060">
        <ele>436.6</ele>
        <time>2021-10-17T15:32:12Z</time>
      </trkpt>
      <trkpt lat="39.4633940" lon="-6.3756220">
        <ele>436.4</ele>
        <time>2021-10-17T15:32:17Z</time>
      </trkpt>
      <trkpt lat="39.4634060" lon="-6.3754570">
        <ele>436.4</ele>
        <time>2021-10-17T15:32:22Z</time>
      </trkpt>
      <trkpt lat="39.4633570" lon="-6.3753590">
        <ele>436.4</ele>
        <time>2021-10-17T15:32:27Z</time>
      </trkpt>
      <trkpt lat="39.4633460" lon="-6.3753480">
        <ele>436.4</ele>
        <time>2021-10-17T15:32:31Z</time>
      </trkpt>
      <trkpt lat="39.4633020" lon="-6.3753290">
        <ele>436.0</ele>
        <time>2021-10-17T15:32:48Z</time>
      </trkpt>
      <trkpt lat="39.4631580" lon="-6.3753120">
        <ele>436.0</ele>
        <time>2021-10-17T15:32:53Z</time>
      </trkpt>
      <trkpt lat="39.4630440" lon="-6.3753010">
        <ele>435.4</ele>
        <time>2021-10-17T15:32:56Z</time>
      </trkpt>
      <trkpt lat="39.4628740" lon="-6.3752840">
        <ele>434.8</ele>
        <time>2021-10-17T15:33:00Z</time>
      </trkpt>
      <trkpt lat="39.4627640" lon="-6.3752700">
        <ele>434.6</ele>
        <time>2021-10-17T15:33:02Z</time>
      </trkpt>
      <trkpt lat="39.4627060" lon="-6.3752610">
        <ele>434.2</ele>
        <time>2021-10-17T15:33:03Z</time>
      </trkpt>
      <trkpt lat="39.4626440" lon="-6.3752520">
        <ele>434.0</ele>
        <time>2021-10-17T15:33:04Z</time>
      </trkpt>
      <trkpt lat="39.4624420" lon="-6.3752340">
        <ele>433.2</ele>
        <time>2021-10-17T15:33:07Z</time>
      </trkpt>
      <trkpt lat="39.4622410" lon="-6.3752190">
        <ele>432.0</ele>
        <time>2021-10-17T15:33:10Z</time>
      </trkpt>
      <trkpt lat="39.4619620" lon="-6.3751920">
        <ele>430.6</ele>
        <time>2021-10-17T15:33:14Z</time>
      </trkpt>
      <trkpt lat="39.4617190" lon="-6.3751340">
        <ele>429.4</ele>
        <time>2021-10-17T15:33:17Z</time>
      </trkpt>
      <trkpt lat="39.4616520" lon="-6.3751220">
        <ele>429.2</ele>
        <time>2021-10-17T15:33:18Z</time>
      </trkpt>
      <trkpt lat="39.4615320" lon="-6.3750890">
        <ele>428.4</ele>
        <time>2021-10-17T15:33:20Z</time>
      </trkpt>
      <trkpt lat="39.4614660" lon="-6.3750940">
        <ele>428.0</ele>
        <time>2021-10-17T15:33:21Z</time>
      </trkpt>
      <trkpt lat="39.4613770" lon="-6.3751140">
        <ele>427.2</ele>
        <time>2021-10-17T15:33:23Z</time>
      </trkpt>
      <trkpt lat="39.4612590" lon="-6.3751070">
        <ele>426.6</ele>
        <time>2021-10-17T15:33:26Z</time>
      </trkpt>
      <trkpt lat="39.4612380" lon="-6.3751100">
        <ele>426.4</ele>
        <time>2021-10-17T15:33:27Z</time>
      </trkpt>
      <trkpt lat="39.4612180" lon="-6.3751320">
        <ele>426.2</ele>
        <time>2021-10-17T15:33:28Z</time>
      </trkpt>
      <trkpt lat="39.4611910" lon="-6.3751390">
        <ele>426.2</ele>
        <time>2021-10-17T15:33:29Z</time>
      </trkpt>
      <trkpt lat="39.4610950" lon="-6.3751460">
        <ele>426.0</ele>
        <time>2021-10-17T15:33:32Z</time>
      </trkpt>
      <trkpt lat="39.4609100" lon="-6.3750630">
        <ele>425.8</ele>
        <time>2021-10-17T15:33:38Z</time>
      </trkpt>
      <trkpt lat="39.4606780" lon="-6.3750360">
        <ele>425.8</ele>
        <time>2021-10-17T15:33:45Z</time>
      </trkpt>
      <trkpt lat="39.4604640" lon="-6.3750360">
        <ele>425.8</ele>
        <time>2021-10-17T15:33:52Z</time>
      </trkpt>
      <trkpt lat="39.4603100" lon="-6.3750370">
        <ele>426.4</ele>
        <time>2021-10-17T15:33:57Z</time>
      </trkpt>
      <trkpt lat="39.4602820" lon="-6.3750370">
        <ele>426.6</ele>
        <time>2021-10-17T15:33:58Z</time>
      </trkpt>
      <trkpt lat="39.4601590" lon="-6.3750380">
        <ele>426.8</ele>
        <time>2021-10-17T15:34:02Z</time>
      </trkpt>
      <trkpt lat="39.4600630" lon="-6.3750410">
        <ele>427.0</ele>
        <time>2021-10-17T15:34:05Z</time>
      </trkpt>
      <trkpt lat="39.4600110" lon="-6.3750360">
        <ele>427.2</ele>
        <time>2021-10-17T15:34:07Z</time>
      </trkpt>
      <trkpt lat="39.4599000" lon="-6.3750610">
        <ele>427.6</ele>
        <time>2021-10-17T15:34:11Z</time>
      </trkpt>
      <trkpt lat="39.4597950" lon="-6.3750970">
        <ele>428.0</ele>
        <time>2021-10-17T15:34:15Z</time>
      </trkpt>
      <trkpt lat="39.4596330" lon="-6.3751040">
        <ele>428.4</ele>
        <time>2021-10-17T15:34:21Z</time>
      </trkpt>
      <trkpt lat="39.4594800" lon="-6.3750930">
        <ele>428.8</ele>
        <time>2021-10-17T15:34:26Z</time>
      </trkpt>
      <trkpt lat="39.4594190" lon="-6.3751190">
        <ele>429.0</ele>
        <time>2021-10-17T15:34:28Z</time>
      </trkpt>
      <trkpt lat="39.4593500" lon="-6.3751530">
        <ele>429.2</ele>
        <time>2021-10-17T15:34:31Z</time>
      </trkpt>
      <trkpt lat="39.4592630" lon="-6.3751520">
        <ele>429.6</ele>
        <time>2021-10-17T15:34:34Z</time>
      </trkpt>
      <trkpt lat="39.4592370" lon="-6.3751540">
        <ele>429.4</ele>
        <time>2021-10-17T15:34:35Z</time>
      </trkpt>
      <trkpt lat="39.4590880" lon="-6.3751610">
        <ele>430.0</ele>
        <time>2021-10-17T15:34:40Z</time>
      </trkpt>
      <trkpt lat="39.4590510" lon="-6.3751670">
        <ele>430.2</ele>
        <time>2021-10-17T15:34:41Z</time>
      </trkpt>
      <trkpt lat="39.4589670" lon="-6.3751780">
        <ele>430.2</ele>
        <time>2021-10-17T15:34:44Z</time>
      </trkpt>
      <trkpt lat="39.4588760" lon="-6.3751870">
        <ele>430.2</ele>
        <time>2021-10-17T15:34:47Z</time>
      </trkpt>
      <trkpt lat="39.4587860" lon="-6.3751980">
        <ele>430.6</ele>
        <time>2021-10-17T15:34:50Z</time>
      </trkpt>
      <trkpt lat="39.4585830" lon="-6.3752120">
        <ele>430.8</ele>
        <time>2021-10-17T15:34:56Z</time>
      </trkpt>
      <trkpt lat="39.4583720" lon="-6.3751850">
        <ele>430.8</ele>
        <time>2021-10-17T15:35:02Z</time>
      </trkpt>
      <trkpt lat="39.4583460" lon="-6.3751800">
        <ele>431.0</ele>
        <time>2021-10-17T15:35:03Z</time>
      </trkpt>
      <trkpt lat="39.4581110" lon="-6.3751070">
        <ele>431.4</ele>
        <time>2021-10-17T15:35:10Z</time>
      </trkpt>
      <trkpt lat="39.4580410" lon="-6.3750930">
        <ele>431.4</ele>
        <time>2021-10-17T15:35:13Z</time>
      </trkpt>
      <trkpt lat="39.4579850" lon="-6.3751000">
        <ele>431.6</ele>
        <time>2021-10-17T15:35:15Z</time>
      </trkpt>
      <trkpt lat="39.4579340" lon="-6.3750880">
        <ele>431.6</ele>
        <time>2021-10-17T15:35:17Z</time>
      </trkpt>
      <trkpt lat="39.4578100" lon="-6.3750540">
        <ele>432.0</ele>
        <time>2021-10-17T15:35:21Z</time>
      </trkpt>
      <trkpt lat="39.4575640" lon="-6.3749790">
        <ele>432.8</ele>
        <time>2021-10-17T15:35:29Z</time>
      </trkpt>
      <trkpt lat="39.4573330" lon="-6.3749340">
        <ele>433.6</ele>
        <time>2021-10-17T15:35:37Z</time>
      </trkpt>
      <trkpt lat="39.4573020" lon="-6.3749250">
        <ele>433.8</ele>
        <time>2021-10-17T15:35:38Z</time>
      </trkpt>
      <trkpt lat="39.4571560" lon="-6.3748950">
        <ele>434.4</ele>
        <time>2021-10-17T15:35:43Z</time>
      </trkpt>
      <trkpt lat="39.4570680" lon="-6.3748680">
        <ele>434.6</ele>
        <time>2021-10-17T15:35:46Z</time>
      </trkpt>
      <trkpt lat="39.4570460" lon="-6.3748630">
        <ele>434.6</ele>
        <time>2021-10-17T15:35:47Z</time>
      </trkpt>
      <trkpt lat="39.4569870" lon="-6.3748440">
        <ele>434.8</ele>
        <time>2021-10-17T15:35:49Z</time>
      </trkpt>
      <trkpt lat="39.4568700" lon="-6.3748180">
        <ele>435.2</ele>
        <time>2021-10-17T15:35:53Z</time>
      </trkpt>
      <trkpt lat="39.4567960" lon="-6.3748080">
        <ele>435.6</ele>
        <time>2021-10-17T15:35:56Z</time>
      </trkpt>
      <trkpt lat="39.4567680" lon="-6.3748040">
        <ele>435.8</ele>
        <time>2021-10-17T15:35:57Z</time>
      </trkpt>
      <trkpt lat="39.4567510" lon="-6.3748040">
        <ele>435.8</ele>
        <time>2021-10-17T15:35:58Z</time>
      </trkpt>
      <trkpt lat="39.4567000" lon="-6.3748300">
        <ele>436.2</ele>
        <time>2021-10-17T15:36:01Z</time>
      </trkpt>
      <trkpt lat="39.4566870" lon="-6.3748480">
        <ele>436.2</ele>
        <time>2021-10-17T15:36:02Z</time>
      </trkpt>
      <trkpt lat="39.4565460" lon="-6.3749240">
        <ele>436.4</ele>
        <time>2021-10-17T15:36:07Z</time>
      </trkpt>
      <trkpt lat="39.4564540" lon="-6.3748750">
        <ele>437.0</ele>
        <time>2021-10-17T15:36:10Z</time>
      </trkpt>
      <trkpt lat="39.4564300" lon="-6.3748450">
        <ele>437.0</ele>
        <time>2021-10-17T15:36:11Z</time>
      </trkpt>
      <trkpt lat="39.4564120" lon="-6.3748090">
        <ele>437.0</ele>
        <time>2021-10-17T15:36:12Z</time>
      </trkpt>
      <trkpt lat="39.4564030" lon="-6.3747110">
        <ele>437.0</ele>
        <time>2021-10-17T15:36:14Z</time>
      </trkpt>
      <trkpt lat="39.4564390" lon="-6.3746190">
        <ele>437.0</ele>
        <time>2021-10-17T15:36:16Z</time>
      </trkpt>
      <trkpt lat="39.4564940" lon="-6.3745500">
        <ele>436.8</ele>
        <time>2021-10-17T15:36:18Z</time>
      </trkpt>
      <trkpt lat="39.4566000" lon="-6.3744130">
        <ele>436.6</ele>
        <time>2021-10-17T15:36:21Z</time>
      </trkpt>
      <trkpt lat="39.4566360" lon="-6.3743090">
        <ele>436.4</ele>
        <time>2021-10-17T15:36:23Z</time>
      </trkpt>
      <trkpt lat="39.4566720" lon="-6.3741060">
        <ele>436.2</ele>
        <time>2021-10-17T15:36:26Z</time>
      </trkpt>
      <trkpt lat="39.4566900" lon="-6.3739400">
        <ele>435.8</ele>
        <time>2021-10-17T15:36:29Z</time>
      </trkpt>
      <trkpt lat="39.4567190" lon="-6.3736830">
        <ele>435.4</ele>
        <time>2021-10-17T15:36:34Z</time>
      </trkpt>
      <trkpt lat="39.4567440" lon="-6.3734780">
        <ele>435.2</ele>
        <time>2021-10-17T15:36:38Z</time>
      </trkpt>
      <trkpt lat="39.4567740" lon="-6.3732910">
        <ele>435.6</ele>
        <time>2021-10-17T15:36:42Z</time>
      </trkpt>
      <trkpt lat="39.4568110" lon="-6.3730130">
        <ele>435.8</ele>
        <time>2021-10-17T15:36:48Z</time>
      </trkpt>
      <trkpt lat="39.4568360" lon="-6.3728360">
        <ele>436.2</ele>
        <time>2021-10-17T15:36:52Z</time>
      </trkpt>
      <trkpt lat="39.4568670" lon="-6.3726230">
        <ele>436.4</ele>
        <time>2021-10-17T15:36:57Z</time>
      </trkpt>
      <trkpt lat="39.4568840" lon="-6.3725040">
        <ele>436.6</ele>
        <time>2021-10-17T15:37:00Z</time>
      </trkpt>
      <trkpt lat="39.4569150" lon="-6.3722590">
        <ele>437.0</ele>
        <time>2021-10-17T15:37:06Z</time>
      </trkpt>
      <trkpt lat="39.4569290" lon="-6.3721930">
        <ele>437.2</ele>
        <time>2021-10-17T15:37:08Z</time>
      </trkpt>
      <trkpt lat="39.4569350" lon="-6.3721590">
        <ele>437.2</ele>
        <time>2021-10-17T15:37:09Z</time>
      </trkpt>
      <trkpt lat="39.4569140" lon="-6.3719640">
        <ele>437.6</ele>
        <time>2021-10-17T15:37:15Z</time>
      </trkpt>
      <trkpt lat="39.4568870" lon="-6.3719370">
        <ele>437.6</ele>
        <time>2021-10-17T15:37:16Z</time>
      </trkpt>
      <trkpt lat="39.4568130" lon="-6.3719040">
        <ele>437.6</ele>
        <time>2021-10-17T15:37:19Z</time>
      </trkpt>
      <trkpt lat="39.4566200" lon="-6.3718530">
        <ele>437.6</ele>
        <time>2021-10-17T15:37:25Z</time>
      </trkpt>
      <trkpt lat="39.4565830" lon="-6.3718460">
        <ele>437.6</ele>
        <time>2021-10-17T15:37:26Z</time>
      </trkpt>
      <trkpt lat="39.4564230" lon="-6.3718130">
        <ele>437.0</ele>
        <time>2021-10-17T15:37:29Z</time>
      </trkpt>
      <trkpt lat="39.4562630" lon="-6.3717710">
        <ele>436.4</ele>
        <time>2021-10-17T15:37:32Z</time>
      </trkpt>
      <trkpt lat="39.4561860" lon="-6.3717540">
        <ele>436.0</ele>
        <time>2021-10-17T15:37:33Z</time>
      </trkpt>
      <trkpt lat="39.4560160" lon="-6.3717070">
        <ele>434.6</ele>
        <time>2021-10-17T15:37:36Z</time>
      </trkpt>
      <trkpt lat="39.4558230" lon="-6.3716620">
        <ele>433.8</ele>
        <time>2021-10-17T15:37:39Z</time>
      </trkpt>
      <trkpt lat="39.4557610" lon="-6.3716510">
        <ele>433.4</ele>
        <time>2021-10-17T15:37:40Z</time>
      </trkpt>
      <trkpt lat="39.4557100" lon="-6.3716400">
        <ele>433.2</ele>
        <time>2021-10-17T15:37:41Z</time>
      </trkpt>
      <trkpt lat="39.4555710" lon="-6.3716180">
        <ele>432.2</ele>
        <time>2021-10-17T15:37:43Z</time>
      </trkpt>
      <trkpt lat="39.4554080" lon="-6.3716160">
        <ele>431.0</ele>
        <time>2021-10-17T15:37:46Z</time>
      </trkpt>
      <trkpt lat="39.4553520" lon="-6.3716210">
        <ele>430.6</ele>
        <time>2021-10-17T15:37:47Z</time>
      </trkpt>
      <trkpt lat="39.4552350" lon="-6.3716370">
        <ele>430.0</ele>
        <time>2021-10-17T15:37:49Z</time>
      </trkpt>
      <trkpt lat="39.4550450" lon="-6.3717000">
        <ele>429.4</ele>
        <time>2021-10-17T15:37:53Z</time>
      </trkpt>
      <trkpt lat="39.4548380" lon="-6.3718250">
        <ele>429.4</ele>
        <time>2021-10-17T15:37:59Z</time>
      </trkpt>
      <trkpt lat="39.4546280" lon="-6.3720150">
        <ele>430.0</ele>
        <time>2021-10-17T15:38:06Z</time>
      </trkpt>
      <trkpt lat="39.4544350" lon="-6.3722870">
        <ele>430.8</ele>
        <time>2021-10-17T15:38:14Z</time>
      </trkpt>
      <trkpt lat="39.4543410" lon="-6.3724790">
        <ele>431.2</ele>
        <time>2021-10-17T15:38:19Z</time>
      </trkpt>
      <trkpt lat="39.4542810" lon="-6.3726370">
        <ele>431.4</ele>
        <time>2021-10-17T15:38:23Z</time>
      </trkpt>
      <trkpt lat="39.4542010" lon="-6.3729480">
        <ele>431.8</ele>
        <time>2021-10-17T15:38:31Z</time>
      </trkpt>
      <trkpt lat="39.4541750" lon="-6.3731430">
        <ele>432.2</ele>
        <time>2021-10-17T15:38:36Z</time>
      </trkpt>
      <trkpt lat="39.4541280" lon="-6.3732030">
        <ele>432.2</ele>
        <time>2021-10-17T15:38:38Z</time>
      </trkpt>
      <trkpt lat="39.4540620" lon="-6.3732070">
        <ele>432.2</ele>
        <time>2021-10-17T15:38:40Z</time>
      </trkpt>
      <trkpt lat="39.4540320" lon="-6.3731910">
        <ele>432.4</ele>
        <time>2021-10-17T15:38:41Z</time>
      </trkpt>
      <trkpt lat="39.4539590" lon="-6.3730920">
        <ele>432.4</ele>
        <time>2021-10-17T15:38:44Z</time>
      </trkpt>
      <trkpt lat="39.4538760" lon="-6.3730040">
        <ele>432.2</ele>
        <time>2021-10-17T15:38:47Z</time>
      </trkpt>
      <trkpt lat="39.4537860" lon="-6.3729270">
        <ele>432.2</ele>
        <time>2021-10-17T15:38:50Z</time>
      </trkpt>
      <trkpt lat="39.4536290" lon="-6.3728190">
        <ele>432.4</ele>
        <time>2021-10-17T15:38:55Z</time>
      </trkpt>
      <trkpt lat="39.4535980" lon="-6.3727960">
        <ele>432.4</ele>
        <time>2021-10-17T15:38:56Z</time>
      </trkpt>
      <trkpt lat="39.4535020" lon="-6.3727360">
        <ele>432.6</ele>
        <time>2021-10-17T15:38:59Z</time>
      </trkpt>
      <trkpt lat="39.4531550" lon="-6.3725260">
        <ele>433.4</ele>
        <time>2021-10-17T15:39:10Z</time>
      </trkpt>
      <trkpt lat="39.4531280" lon="-6.3725070">
        <ele>433.6</ele>
        <time>2021-10-17T15:39:11Z</time>
      </trkpt>
      <trkpt lat="39.4529370" lon="-6.3723990">
        <ele>434.0</ele>
        <time>2021-10-17T15:39:18Z</time>
      </trkpt>
      <trkpt lat="39.4528400" lon="-6.3723430">
        <ele>434.0</ele>
        <time>2021-10-17T15:39:21Z</time>
      </trkpt>
      <trkpt lat="39.4526120" lon="-6.3722160">
        <ele>434.4</ele>
        <time>2021-10-17T15:39:28Z</time>
      </trkpt>
      <trkpt lat="39.4524470" lon="-6.3721210">
        <ele>434.8</ele>
        <time>2021-10-17T15:39:33Z</time>
      </trkpt>
      <trkpt lat="39.4523260" lon="-6.3720520">
        <ele>435.0</ele>
        <time>2021-10-17T15:39:37Z</time>
      </trkpt>
      <trkpt lat="39.4520990" lon="-6.3719170">
        <ele>435.2</ele>
        <time>2021-10-17T15:39:44Z</time>
      </trkpt>
      <trkpt lat="39.4519880" lon="-6.3718560">
        <ele>435.2</ele>
        <time>2021-10-17T15:39:47Z</time>
      </trkpt>
      <trkpt lat="39.4518650" lon="-6.3717880">
        <ele>435.4</ele>
        <time>2021-10-17T15:39:51Z</time>
      </trkpt>
      <trkpt lat="39.4516930" lon="-6.3716960">
        <ele>435.6</ele>
        <time>2021-10-17T15:39:56Z</time>
      </trkpt>
      <trkpt lat="39.4516610" lon="-6.3716760">
        <ele>435.6</ele>
        <time>2021-10-17T15:39:57Z</time>
      </trkpt>
      <trkpt lat="39.4514660" lon="-6.3715640">
        <ele>435.8</ele>
        <time>2021-10-17T15:40:03Z</time>
      </trkpt>
      <trkpt lat="39.4514390" lon="-6.3715490">
        <ele>435.8</ele>
        <time>2021-10-17T15:40:04Z</time>
      </trkpt>
      <trkpt lat="39.4513690" lon="-6.3715040">
        <ele>435.8</ele>
        <time>2021-10-17T15:40:06Z</time>
      </trkpt>
      <trkpt lat="39.4512020" lon="-6.3714140">
        <ele>436.0</ele>
        <time>2021-10-17T15:40:11Z</time>
      </trkpt>
      <trkpt lat="39.4511140" lon="-6.3713600">
        <ele>436.2</ele>
        <time>2021-10-17T15:40:14Z</time>
      </trkpt>
      <trkpt lat="39.4507910" lon="-6.3711820">
        <ele>436.4</ele>
        <time>2021-10-17T15:40:24Z</time>
      </trkpt>
      <trkpt lat="39.4505450" lon="-6.3710460">
        <ele>436.8</ele>
        <time>2021-10-17T15:40:32Z</time>
      </trkpt>
      <trkpt lat="39.4503160" lon="-6.3709020">
        <ele>436.8</ele>
        <time>2021-10-17T15:40:40Z</time>
      </trkpt>
      <trkpt lat="39.4502560" lon="-6.3708670">
        <ele>437.0</ele>
        <time>2021-10-17T15:40:42Z</time>
      </trkpt>
      <trkpt lat="39.4499890" lon="-6.3707120">
        <ele>437.4</ele>
        <time>2021-10-17T15:40:50Z</time>
      </trkpt>
      <trkpt lat="39.4499550" lon="-6.3706960">
        <ele>437.4</ele>
        <time>2021-10-17T15:40:51Z</time>
      </trkpt>
      <trkpt lat="39.4497070" lon="-6.3705540">
        <ele>437.6</ele>
        <time>2021-10-17T15:40:58Z</time>
      </trkpt>
      <trkpt lat="39.4496050" lon="-6.3705000">
        <ele>437.8</ele>
        <time>2021-10-17T15:41:01Z</time>
      </trkpt>
      <trkpt lat="39.4494360" lon="-6.3704040">
        <ele>438.0</ele>
        <time>2021-10-17T15:41:06Z</time>
      </trkpt>
      <trkpt lat="39.4493660" lon="-6.3703660">
        <ele>438.0</ele>
        <time>2021-10-17T15:41:08Z</time>
      </trkpt>
      <trkpt lat="39.4491640" lon="-6.3702530">
        <ele>438.2</ele>
        <time>2021-10-17T15:41:14Z</time>
      </trkpt>
      <trkpt lat="39.4490230" lon="-6.3701770">
        <ele>438.4</ele>
        <time>2021-10-17T15:41:18Z</time>
      </trkpt>
      <trkpt lat="39.4487060" lon="-6.3700130">
        <ele>438.8</ele>
        <time>2021-10-17T15:41:27Z</time>
      </trkpt>
      <trkpt lat="39.4484550" lon="-6.3698700">
        <ele>439.0</ele>
        <time>2021-10-17T15:41:34Z</time>
      </trkpt>
      <trkpt lat="39.4482800" lon="-6.3697720">
        <ele>439.2</ele>
        <time>2021-10-17T15:41:39Z</time>
      </trkpt>
      <trkpt lat="39.4482470" lon="-6.3697520">
        <ele>439.2</ele>
        <time>2021-10-17T15:41:40Z</time>
      </trkpt>
      <trkpt lat="39.4481880" lon="-6.3697170">
        <ele>439.4</ele>
        <time>2021-10-17T15:41:42Z</time>
      </trkpt>
      <trkpt lat="39.4481150" lon="-6.3696750">
        <ele>439.4</ele>
        <time>2021-10-17T15:41:44Z</time>
      </trkpt>
      <trkpt lat="39.4478860" lon="-6.3695490">
        <ele>439.4</ele>
        <time>2021-10-17T15:41:51Z</time>
      </trkpt>
      <trkpt lat="39.4477480" lon="-6.3694920">
        <ele>439.8</ele>
        <time>2021-10-17T15:41:55Z</time>
      </trkpt>
      <trkpt lat="39.4475830" lon="-6.3694060">
        <ele>440.0</ele>
        <time>2021-10-17T15:42:00Z</time>
      </trkpt>
      <trkpt lat="39.4473820" lon="-6.3693580">
        <ele>440.0</ele>
        <time>2021-10-17T15:42:06Z</time>
      </trkpt>
      <trkpt lat="39.4472500" lon="-6.3694150">
        <ele>440.6</ele>
        <time>2021-10-17T15:42:11Z</time>
      </trkpt>
      <trkpt lat="39.4472270" lon="-6.3694320">
        <ele>440.6</ele>
        <time>2021-10-17T15:42:12Z</time>
      </trkpt>
      <trkpt lat="39.4471130" lon="-6.3695060">
        <ele>441.0</ele>
        <time>2021-10-17T15:42:17Z</time>
      </trkpt>
      <trkpt lat="39.4470860" lon="-6.3694960">
        <ele>441.2</ele>
        <time>2021-10-17T15:42:18Z</time>
      </trkpt>
      <trkpt lat="39.4468910" lon="-6.3694380">
        <ele>441.2</ele>
        <time>2021-10-17T15:42:24Z</time>
      </trkpt>
      <trkpt lat="39.4467750" lon="-6.3694120">
        <ele>441.0</ele>
        <time>2021-10-17T15:42:28Z</time>
      </trkpt>
      <trkpt lat="39.4466950" lon="-6.3694000">
        <ele>441.4</ele>
        <time>2021-10-17T15:42:31Z</time>
      </trkpt>
      <trkpt lat="39.4466680" lon="-6.3693950">
        <ele>441.4</ele>
        <time>2021-10-17T15:42:32Z</time>
      </trkpt>
      <trkpt lat="39.4465830" lon="-6.3693830">
        <ele>441.6</ele>
        <time>2021-10-17T15:42:35Z</time>
      </trkpt>
      <trkpt lat="39.4465320" lon="-6.3693870">
        <ele>441.8</ele>
        <time>2021-10-17T15:42:37Z</time>
      </trkpt>
      <trkpt lat="39.4464670" lon="-6.3693990">
        <ele>442.4</ele>
        <time>2021-10-17T15:42:40Z</time>
      </trkpt>
      <trkpt lat="39.4464090" lon="-6.3694400">
        <ele>442.8</ele>
        <time>2021-10-17T15:42:43Z</time>
      </trkpt>
      <trkpt lat="39.4463560" lon="-6.3694950">
        <ele>443.4</ele>
        <time>2021-10-17T15:42:46Z</time>
      </trkpt>
      <trkpt lat="39.4462650" lon="-6.3695860">
        <ele>444.0</ele>
        <time>2021-10-17T15:42:51Z</time>
      </trkpt>
      <trkpt lat="39.4462120" lon="-6.3696420">
        <ele>444.2</ele>
        <time>2021-10-17T15:42:54Z</time>
      </trkpt>
      <trkpt lat="39.4461720" lon="-6.3696800">
        <ele>444.4</ele>
        <time>2021-10-17T15:42:56Z</time>
      </trkpt>
      <trkpt lat="39.4460990" lon="-6.3697440">
        <ele>444.8</ele>
        <time>2021-10-17T15:43:00Z</time>
      </trkpt>
      <trkpt lat="39.4460350" lon="-6.3697760">
        <ele>445.0</ele>
        <time>2021-10-17T15:43:03Z</time>
      </trkpt>
      <trkpt lat="39.4459020" lon="-6.3698180">
        <ele>445.6</ele>
        <time>2021-10-17T15:43:09Z</time>
      </trkpt>
      <trkpt lat="39.4458550" lon="-6.3698210">
        <ele>445.8</ele>
        <time>2021-10-17T15:43:11Z</time>
      </trkpt>
      <trkpt lat="39.4457650" lon="-6.3697990">
        <ele>446.0</ele>
        <time>2021-10-17T15:43:15Z</time>
      </trkpt>
      <trkpt lat="39.4456740" lon="-6.3697780">
        <ele>446.2</ele>
        <time>2021-10-17T15:43:19Z</time>
      </trkpt>
      <trkpt lat="39.4455750" lon="-6.3697580">
        <ele>447.2</ele>
        <time>2021-10-17T15:43:24Z</time>
      </trkpt>
      <trkpt lat="39.4454780" lon="-6.3697370">
        <ele>447.8</ele>
        <time>2021-10-17T15:43:29Z</time>
      </trkpt>
      <trkpt lat="39.4454430" lon="-6.3697300">
        <ele>448.2</ele>
        <time>2021-10-17T15:43:31Z</time>
      </trkpt>
      <trkpt lat="39.4452890" lon="-6.3697030">
        <ele>449.2</ele>
        <time>2021-10-17T15:43:39Z</time>
      </trkpt>
      <trkpt lat="39.4452690" lon="-6.3696990">
        <ele>449.4</ele>
        <time>2021-10-17T15:43:40Z</time>
      </trkpt>
      <trkpt lat="39.4451900" lon="-6.3696900">
        <ele>450.0</ele>
        <time>2021-10-17T15:43:44Z</time>
      </trkpt>
      <trkpt lat="39.4451530" lon="-6.3696860">
        <ele>450.2</ele>
        <time>2021-10-17T15:43:46Z</time>
      </trkpt>
      <trkpt lat="39.4451130" lon="-6.3696830">
        <ele>450.4</ele>
        <time>2021-10-17T15:43:48Z</time>
      </trkpt>
      <trkpt lat="39.4450770" lon="-6.3696740">
        <ele>450.6</ele>
        <time>2021-10-17T15:43:50Z</time>
      </trkpt>
      <trkpt lat="39.4450000" lon="-6.3696640">
        <ele>451.0</ele>
        <time>2021-10-17T15:43:54Z</time>
      </trkpt>
      <trkpt lat="39.4449640" lon="-6.3696530">
        <ele>451.4</ele>
        <time>2021-10-17T15:43:56Z</time>
      </trkpt>
      <trkpt lat="39.4449110" lon="-6.3696400">
        <ele>451.8</ele>
        <time>2021-10-17T15:43:59Z</time>
      </trkpt>
      <trkpt lat="39.4448020" lon="-6.3695930">
        <ele>452.6</ele>
        <time>2021-10-17T15:44:05Z</time>
      </trkpt>
      <trkpt lat="39.4447640" lon="-6.3695720">
        <ele>453.0</ele>
        <time>2021-10-17T15:44:07Z</time>
      </trkpt>
      <trkpt lat="39.4447440" lon="-6.3695630">
        <ele>453.2</ele>
        <time>2021-10-17T15:44:08Z</time>
      </trkpt>
      <trkpt lat="39.4446510" lon="-6.3695200">
        <ele>453.6</ele>
        <time>2021-10-17T15:44:13Z</time>
      </trkpt>
      <trkpt lat="39.4446310" lon="-6.3695070">
        <ele>453.8</ele>
        <time>2021-10-17T15:44:14Z</time>
      </trkpt>
      <trkpt lat="39.4445510" lon="-6.3694560">
        <ele>454.0</ele>
        <time>2021-10-17T15:44:18Z</time>
      </trkpt>
      <trkpt lat="39.4444620" lon="-6.3694260">
        <ele>454.2</ele>
        <time>2021-10-17T15:44:22Z</time>
      </trkpt>
      <trkpt lat="39.4444160" lon="-6.3694100">
        <ele>454.2</ele>
        <time>2021-10-17T15:44:24Z</time>
      </trkpt>
      <trkpt lat="39.4443440" lon="-6.3693910">
        <ele>454.4</ele>
        <time>2021-10-17T15:44:27Z</time>
      </trkpt>
      <trkpt lat="39.4442970" lon="-6.3693790">
        <ele>454.6</ele>
        <time>2021-10-17T15:44:29Z</time>
      </trkpt>
      <trkpt lat="39.4442550" lon="-6.3693670">
        <ele>454.6</ele>
        <time>2021-10-17T15:44:31Z</time>
      </trkpt>
      <trkpt lat="39.4441440" lon="-6.3693230">
        <ele>454.6</ele>
        <time>2021-10-17T15:44:38Z</time>
      </trkpt>
      <trkpt lat="39.4441440" lon="-6.3693230">
        <ele>454.4</ele>
        <time>2021-10-17T15:44:40Z</time>
      </trkpt>
      <trkpt lat="39.4441110" lon="-6.3693060">
        <ele>454.0</ele>
        <time>2021-10-17T15:47:31Z</time>
      </trkpt>
      <trkpt lat="39.4440960" lon="-6.3692960">
        <ele>453.8</ele>
        <time>2021-10-17T15:47:32Z</time>
      </trkpt>
      <trkpt lat="39.4439470" lon="-6.3692020">
        <ele>453.8</ele>
        <time>2021-10-17T15:47:38Z</time>
      </trkpt>
      <trkpt lat="39.4437960" lon="-6.3691280">
        <ele>453.4</ele>
        <time>2021-10-17T15:47:43Z</time>
      </trkpt>
      <trkpt lat="39.4437270" lon="-6.3690910">
        <ele>453.2</ele>
        <time>2021-10-17T15:47:45Z</time>
      </trkpt>
      <trkpt lat="39.4436110" lon="-6.3690310">
        <ele>453.0</ele>
        <time>2021-10-17T15:47:48Z</time>
      </trkpt>
      <trkpt lat="39.4435340" lon="-6.3689960">
        <ele>452.8</ele>
        <time>2021-10-17T15:47:50Z</time>
      </trkpt>
      <trkpt lat="39.4433870" lon="-6.3689510">
        <ele>452.4</ele>
        <time>2021-10-17T15:47:53Z</time>
      </trkpt>
      <trkpt lat="39.4431520" lon="-6.3688800">
        <ele>452.0</ele>
        <time>2021-10-17T15:47:58Z</time>
      </trkpt>
      <trkpt lat="39.4431060" lon="-6.3688680">
        <ele>451.8</ele>
        <time>2021-10-17T15:47:59Z</time>
      </trkpt>
      <trkpt lat="39.4427200" lon="-6.3687420">
        <ele>451.4</ele>
        <time>2021-10-17T15:48:08Z</time>
      </trkpt>
      <trkpt lat="39.4426420" lon="-6.3687260">
        <ele>451.4</ele>
        <time>2021-10-17T15:48:10Z</time>
      </trkpt>
      <trkpt lat="39.4424900" lon="-6.3687110">
        <ele>451.2</ele>
        <time>2021-10-17T15:48:14Z</time>
      </trkpt>
      <trkpt lat="39.4422140" lon="-6.3686610">
        <ele>451.0</ele>
        <time>2021-10-17T15:48:21Z</time>
      </trkpt>
      <trkpt lat="39.4420110" lon="-6.3686570">
        <ele>451.2</ele>
        <time>2021-10-17T15:48:27Z</time>
      </trkpt>
      <trkpt lat="39.4417230" lon="-6.3686520">
        <ele>451.6</ele>
        <time>2021-10-17T15:48:35Z</time>
      </trkpt>
      <trkpt lat="39.4415910" lon="-6.3686410">
        <ele>451.6</ele>
        <time>2021-10-17T15:48:39Z</time>
      </trkpt>
      <trkpt lat="39.4415020" lon="-6.3686310">
        <ele>451.8</ele>
        <time>2021-10-17T15:48:42Z</time>
      </trkpt>
      <trkpt lat="39.4414340" lon="-6.3685340">
        <ele>452.0</ele>
        <time>2021-10-17T15:48:46Z</time>
      </trkpt>
      <trkpt lat="39.4413170" lon="-6.3683520">
        <ele>452.2</ele>
        <time>2021-10-17T15:48:53Z</time>
      </trkpt>
      <trkpt lat="39.4412510" lon="-6.3682420">
        <ele>453.0</ele>
        <time>2021-10-17T15:48:58Z</time>
      </trkpt>
      <trkpt lat="39.4412440" lon="-6.3682210">
        <ele>453.2</ele>
        <time>2021-10-17T15:48:59Z</time>
      </trkpt>
      <trkpt lat="39.4412350" lon="-6.3681980">
        <ele>453.2</ele>
        <time>2021-10-17T15:49:00Z</time>
      </trkpt>
      <trkpt lat="39.4411630" lon="-6.3680750">
        <ele>454.2</ele>
        <time>2021-10-17T15:49:06Z</time>
      </trkpt>
      <trkpt lat="39.4411430" lon="-6.3680370">
        <ele>454.4</ele>
        <time>2021-10-17T15:49:08Z</time>
      </trkpt>
      <trkpt lat="39.4411050" lon="-6.3679380">
        <ele>455.2</ele>
        <time>2021-10-17T15:49:13Z</time>
      </trkpt>
      <trkpt lat="39.4410940" lon="-6.3679180">
        <ele>455.6</ele>
        <time>2021-10-17T15:49:14Z</time>
      </trkpt>
      <trkpt lat="39.4410840" lon="-6.3678950">
        <ele>455.6</ele>
        <time>2021-10-17T15:49:15Z</time>
      </trkpt>
      <trkpt lat="39.4410190" lon="-6.3677870">
        <ele>456.6</ele>
        <time>2021-10-17T15:49:21Z</time>
      </trkpt>
      <trkpt lat="39.4410110" lon="-6.3677710">
        <ele>456.6</ele>
        <time>2021-10-17T15:49:22Z</time>
      </trkpt>
      <trkpt lat="39.4409750" lon="-6.3676880">
        <ele>457.2</ele>
        <time>2021-10-17T15:49:26Z</time>
      </trkpt>
      <trkpt lat="39.4409420" lon="-6.3676080">
        <ele>457.8</ele>
        <time>2021-10-17T15:49:30Z</time>
      </trkpt>
      <trkpt lat="39.4409360" lon="-6.3675900">
        <ele>457.8</ele>
        <time>2021-10-17T15:49:31Z</time>
      </trkpt>
      <trkpt lat="39.4409190" lon="-6.3675440">
        <ele>458.0</ele>
        <time>2021-10-17T15:49:33Z</time>
      </trkpt>
      <trkpt lat="39.4408490" lon="-6.3673580">
        <ele>458.8</ele>
        <time>2021-10-17T15:49:41Z</time>
      </trkpt>
      <trkpt lat="39.4408320" lon="-6.3673280">
        <ele>459.0</ele>
        <time>2021-10-17T15:49:42Z</time>
      </trkpt>
      <trkpt lat="39.4407480" lon="-6.3672240">
        <ele>459.4</ele>
        <time>2021-10-17T15:49:47Z</time>
      </trkpt>
      <trkpt lat="39.4407110" lon="-6.3671830">
        <ele>459.4</ele>
        <time>2021-10-17T15:49:49Z</time>
      </trkpt>
      <trkpt lat="39.4406650" lon="-6.3671490">
        <ele>459.4</ele>
        <time>2021-10-17T15:49:51Z</time>
      </trkpt>
      <trkpt lat="39.4405960" lon="-6.3670970">
        <ele>459.4</ele>
        <time>2021-10-17T15:49:54Z</time>
      </trkpt>
      <trkpt lat="39.4405120" lon="-6.3670320">
        <ele>459.2</ele>
        <time>2021-10-17T15:49:57Z</time>
      </trkpt>
      <trkpt lat="39.4404830" lon="-6.3670120">
        <ele>459.0</ele>
        <time>2021-10-17T15:49:58Z</time>
      </trkpt>
      <trkpt lat="39.4402950" lon="-6.3669130">
        <ele>458.4</ele>
        <time>2021-10-17T15:50:03Z</time>
      </trkpt>
      <trkpt lat="39.4401280" lon="-6.3668180">
        <ele>458.0</ele>
        <time>2021-10-17T15:50:07Z</time>
      </trkpt>
      <trkpt lat="39.4399730" lon="-6.3667030">
        <ele>457.4</ele>
        <time>2021-10-17T15:50:11Z</time>
      </trkpt>
      <trkpt lat="39.4398710" lon="-6.3666110">
        <ele>457.2</ele>
        <time>2021-10-17T15:50:14Z</time>
      </trkpt>
      <trkpt lat="39.4397820" lon="-6.3665400">
        <ele>457.2</ele>
        <time>2021-10-17T15:50:17Z</time>
      </trkpt>
      <trkpt lat="39.4397090" lon="-6.3664930">
        <ele>457.0</ele>
        <time>2021-10-17T15:50:19Z</time>
      </trkpt>
      <trkpt lat="39.4396090" lon="-6.3664320">
        <ele>456.8</ele>
        <time>2021-10-17T15:50:22Z</time>
      </trkpt>
      <trkpt lat="39.4394010" lon="-6.3662940">
        <ele>456.6</ele>
        <time>2021-10-17T15:50:28Z</time>
      </trkpt>
      <trkpt lat="39.4393150" lon="-6.3662230">
        <ele>456.4</ele>
        <time>2021-10-17T15:50:31Z</time>
      </trkpt>
      <trkpt lat="39.4391470" lon="-6.3661020">
        <ele>456.6</ele>
        <time>2021-10-17T15:50:36Z</time>
      </trkpt>
      <trkpt lat="39.4389610" lon="-6.3659250">
        <ele>456.4</ele>
        <time>2021-10-17T15:50:42Z</time>
      </trkpt>
      <trkpt lat="39.4388550" lon="-6.3658120">
        <ele>456.0</ele>
        <time>2021-10-17T15:50:46Z</time>
      </trkpt>
      <trkpt lat="39.4387950" lon="-6.3657460">
        <ele>455.8</ele>
        <time>2021-10-17T15:50:48Z</time>
      </trkpt>
      <trkpt lat="39.4386170" lon="-6.3655850">
        <ele>455.6</ele>
        <time>2021-10-17T15:50:54Z</time>
      </trkpt>
      <trkpt lat="39.4384290" lon="-6.3655710">
        <ele>455.6</ele>
        <time>2021-10-17T15:50:59Z</time>
      </trkpt>
      <trkpt lat="39.4382600" lon="-6.3655340">
        <ele>455.6</ele>
        <time>2021-10-17T15:51:03Z</time>
      </trkpt>
      <trkpt lat="39.4382130" lon="-6.3655180">
        <ele>455.6</ele>
        <time>2021-10-17T15:51:04Z</time>
      </trkpt>
      <trkpt lat="39.4379300" lon="-6.3653880">
        <ele>455.0</ele>
        <time>2021-10-17T15:51:10Z</time>
      </trkpt>
      <trkpt lat="39.4376960" lon="-6.3651970">
        <ele>454.8</ele>
        <time>2021-10-17T15:51:16Z</time>
      </trkpt>
      <trkpt lat="39.4376300" lon="-6.3651360">
        <ele>454.8</ele>
        <time>2021-10-17T15:51:18Z</time>
      </trkpt>
      <trkpt lat="39.4375290" lon="-6.3650250">
        <ele>454.8</ele>
        <time>2021-10-17T15:51:21Z</time>
      </trkpt>
      <trkpt lat="39.4373840" lon="-6.3648360">
        <ele>454.8</ele>
        <time>2021-10-17T15:51:26Z</time>
      </trkpt>
      <trkpt lat="39.4372320" lon="-6.3646460">
        <ele>454.8</ele>
        <time>2021-10-17T15:51:31Z</time>
      </trkpt>
      <trkpt lat="39.4370950" lon="-6.3644810">
        <ele>454.6</ele>
        <time>2021-10-17T15:51:36Z</time>
      </trkpt>
      <trkpt lat="39.4369160" lon="-6.3643640">
        <ele>454.8</ele>
        <time>2021-10-17T15:51:42Z</time>
      </trkpt>
      <trkpt lat="39.4367550" lon="-6.3642570">
        <ele>455.8</ele>
        <time>2021-10-17T15:51:49Z</time>
      </trkpt>
      <trkpt lat="39.4367340" lon="-6.3642350">
        <ele>456.0</ele>
        <time>2021-10-17T15:51:50Z</time>
      </trkpt>
      <trkpt lat="39.4366000" lon="-6.3641400">
        <ele>456.6</ele>
        <time>2021-10-17T15:51:55Z</time>
      </trkpt>
      <trkpt lat="39.4365290" lon="-6.3640810">
        <ele>457.0</ele>
        <time>2021-10-17T15:51:58Z</time>
      </trkpt>
      <trkpt lat="39.4364290" lon="-6.3639990">
        <ele>457.4</ele>
        <time>2021-10-17T15:52:02Z</time>
      </trkpt>
      <trkpt lat="39.4362330" lon="-6.3639260">
        <ele>458.2</ele>
        <time>2021-10-17T15:52:09Z</time>
      </trkpt>
      <trkpt lat="39.4361560" lon="-6.3639130">
        <ele>458.6</ele>
        <time>2021-10-17T15:52:12Z</time>
      </trkpt>
      <trkpt lat="39.4360300" lon="-6.3638820">
        <ele>459.0</ele>
        <time>2021-10-17T15:52:16Z</time>
      </trkpt>
      <trkpt lat="39.4359670" lon="-6.3638650">
        <ele>459.0</ele>
        <time>2021-10-17T15:52:18Z</time>
      </trkpt>
      <trkpt lat="39.4359360" lon="-6.3638550">
        <ele>459.0</ele>
        <time>2021-10-17T15:52:19Z</time>
      </trkpt>
      <trkpt lat="39.4358800" lon="-6.3638300">
        <ele>459.2</ele>
        <time>2021-10-17T15:52:21Z</time>
      </trkpt>
      <trkpt lat="39.4358130" lon="-6.3637990">
        <ele>459.2</ele>
        <time>2021-10-17T15:52:23Z</time>
      </trkpt>
      <trkpt lat="39.4357290" lon="-6.3637520">
        <ele>459.4</ele>
        <time>2021-10-17T15:52:26Z</time>
      </trkpt>
      <trkpt lat="39.4356940" lon="-6.3637300">
        <ele>459.4</ele>
        <time>2021-10-17T15:52:27Z</time>
      </trkpt>
      <trkpt lat="39.4356060" lon="-6.3636680">
        <ele>459.4</ele>
        <time>2021-10-17T15:52:30Z</time>
      </trkpt>
      <trkpt lat="39.4355240" lon="-6.3635990">
        <ele>459.6</ele>
        <time>2021-10-17T15:52:33Z</time>
      </trkpt>
      <trkpt lat="39.4354780" lon="-6.3635530">
        <ele>459.6</ele>
        <time>2021-10-17T15:52:35Z</time>
      </trkpt>
      <trkpt lat="39.4354060" lon="-6.3634660">
        <ele>459.8</ele>
        <time>2021-10-17T15:52:38Z</time>
      </trkpt>
      <trkpt lat="39.4352880" lon="-6.3633360">
        <ele>460.4</ele>
        <time>2021-10-17T15:52:43Z</time>
      </trkpt>
      <trkpt lat="39.4352500" lon="-6.3632860">
        <ele>460.4</ele>
        <time>2021-10-17T15:52:45Z</time>
      </trkpt>
      <trkpt lat="39.4351690" lon="-6.3632030">
        <ele>460.4</ele>
        <time>2021-10-17T15:52:48Z</time>
      </trkpt>
      <trkpt lat="39.4350540" lon="-6.3630960">
        <ele>460.6</ele>
        <time>2021-10-17T15:52:52Z</time>
      </trkpt>
      <trkpt lat="39.4348880" lon="-6.3629260">
        <ele>460.6</ele>
        <time>2021-10-17T15:52:56Z</time>
      </trkpt>
      <trkpt lat="39.4348630" lon="-6.3628970">
        <ele>460.4</ele>
        <time>2021-10-17T15:52:57Z</time>
      </trkpt>
      <trkpt lat="39.4348320" lon="-6.3628570">
        <ele>460.4</ele>
        <time>2021-10-17T15:52:58Z</time>
      </trkpt>
      <trkpt lat="39.4346690" lon="-6.3626650">
        <ele>459.8</ele>
        <time>2021-10-17T15:53:03Z</time>
      </trkpt>
      <trkpt lat="39.4345750" lon="-6.3625690">
        <ele>459.6</ele>
        <time>2021-10-17T15:53:06Z</time>
      </trkpt>
      <trkpt lat="39.4344310" lon="-6.3624580">
        <ele>459.4</ele>
        <time>2021-10-17T15:53:10Z</time>
      </trkpt>
      <trkpt lat="39.4343640" lon="-6.3623990">
        <ele>459.4</ele>
        <time>2021-10-17T15:53:12Z</time>
      </trkpt>
      <trkpt lat="39.4340900" lon="-6.3622080">
        <ele>459.0</ele>
        <time>2021-10-17T15:53:20Z</time>
      </trkpt>
      <trkpt lat="39.4338040" lon="-6.3619780">
        <ele>459.4</ele>
        <time>2021-10-17T15:53:30Z</time>
      </trkpt>
      <trkpt lat="39.4334800" lon="-6.3616990">
        <ele>459.0</ele>
        <time>2021-10-17T15:53:38Z</time>
      </trkpt>
      <trkpt lat="39.4332560" lon="-6.3615400">
        <ele>458.2</ele>
        <time>2021-10-17T15:53:44Z</time>
      </trkpt>
      <trkpt lat="39.4331500" lon="-6.3614640">
        <ele>458.0</ele>
        <time>2021-10-17T15:53:45Z</time>
      </trkpt>
      <trkpt lat="39.4330170" lon="-6.3613490">
        <ele>457.4</ele>
        <time>2021-10-17T15:53:48Z</time>
      </trkpt>
      <trkpt lat="39.4327860" lon="-6.3611680">
        <ele>456.4</ele>
        <time>2021-10-17T15:53:53Z</time>
      </trkpt>
      <trkpt lat="39.4327380" lon="-6.3611340">
        <ele>456.0</ele>
        <time>2021-10-17T15:53:54Z</time>
      </trkpt>
      <trkpt lat="39.4326030" lon="-6.3610460">
        <ele>455.6</ele>
        <time>2021-10-17T15:53:58Z</time>
      </trkpt>
      <trkpt lat="39.4324380" lon="-6.3609450">
        <ele>455.4</ele>
        <time>2021-10-17T15:54:01Z</time>
      </trkpt>
      <trkpt lat="39.4323120" lon="-6.3608660">
        <ele>455.2</ele>
        <time>2021-10-17T15:54:04Z</time>
      </trkpt>
      <trkpt lat="39.4322630" lon="-6.3608250">
        <ele>455.2</ele>
        <time>2021-10-17T15:54:05Z</time>
      </trkpt>
      <trkpt lat="39.4321910" lon="-6.3607670">
        <ele>455.0</ele>
        <time>2021-10-17T15:54:07Z</time>
      </trkpt>
      <trkpt lat="39.4318210" lon="-6.3604860">
        <ele>454.2</ele>
        <time>2021-10-17T15:54:16Z</time>
      </trkpt>
      <trkpt lat="39.4314530" lon="-6.3602430">
        <ele>453.0</ele>
        <time>2021-10-17T15:54:25Z</time>
      </trkpt>
      <trkpt lat="39.4310960" lon="-6.3600000">
        <ele>452.0</ele>
        <time>2021-10-17T15:54:33Z</time>
      </trkpt>
      <trkpt lat="39.4309970" lon="-6.3599400">
        <ele>452.0</ele>
        <time>2021-10-17T15:54:35Z</time>
      </trkpt>
      <trkpt lat="39.4306210" lon="-6.3597190">
        <ele>451.0</ele>
        <time>2021-10-17T15:54:42Z</time>
      </trkpt>
      <trkpt lat="39.4305280" lon="-6.3596650">
        <ele>450.6</ele>
        <time>2021-10-17T15:54:44Z</time>
      </trkpt>
      <trkpt lat="39.4302090" lon="-6.3595550">
        <ele>449.8</ele>
        <time>2021-10-17T15:54:50Z</time>
      </trkpt>
      <trkpt lat="39.4301500" lon="-6.3595410">
        <ele>449.8</ele>
        <time>2021-10-17T15:54:51Z</time>
      </trkpt>
      <trkpt lat="39.4298680" lon="-6.3594150">
        <ele>449.2</ele>
        <time>2021-10-17T15:54:58Z</time>
      </trkpt>
      <trkpt lat="39.4295370" lon="-6.3592110">
        <ele>448.8</ele>
        <time>2021-10-17T15:55:07Z</time>
      </trkpt>
      <trkpt lat="39.4292960" lon="-6.3591150">
        <ele>448.8</ele>
        <time>2021-10-17T15:55:14Z</time>
      </trkpt>
      <trkpt lat="39.4291760" lon="-6.3590300">
        <ele>449.6</ele>
        <time>2021-10-17T15:55:20Z</time>
      </trkpt>
      <trkpt lat="39.4290090" lon="-6.3589380">
        <ele>451.0</ele>
        <time>2021-10-17T15:55:29Z</time>
      </trkpt>
      <trkpt lat="39.4289770" lon="-6.3589090">
        <ele>451.4</ele>
        <time>2021-10-17T15:55:31Z</time>
      </trkpt>
      <trkpt lat="39.4289390" lon="-6.3588400">
        <ele>452.0</ele>
        <time>2021-10-17T15:55:35Z</time>
      </trkpt>
      <trkpt lat="39.4289290" lon="-6.3588220">
        <ele>452.0</ele>
        <time>2021-10-17T15:55:36Z</time>
      </trkpt>
      <trkpt lat="39.4288990" lon="-6.3587740">
        <ele>452.6</ele>
        <time>2021-10-17T15:55:39Z</time>
      </trkpt>
      <trkpt lat="39.4288990" lon="-6.3587740">
        <ele>452.8</ele>
        <time>2021-10-17T15:55:40Z</time>
      </trkpt>
      <trkpt lat="39.4288940" lon="-6.3587070">
        <ele>453.2</ele>
        <time>2021-10-17T15:55:42Z</time>
      </trkpt>
      <trkpt lat="39.4288480" lon="-6.3586480">
        <ele>454.0</ele>
        <time>2021-10-17T15:55:46Z</time>
      </trkpt>
      <trkpt lat="39.4288070" lon="-6.3586140">
        <ele>454.4</ele>
        <time>2021-10-17T15:55:49Z</time>
      </trkpt>
      <trkpt lat="39.4287440" lon="-6.3585790">
        <ele>455.0</ele>
        <time>2021-10-17T15:55:53Z</time>
      </trkpt>
      <trkpt lat="39.4287300" lon="-6.3585670">
        <ele>455.0</ele>
        <time>2021-10-17T15:55:54Z</time>
      </trkpt>
      <trkpt lat="39.4287140" lon="-6.3585550">
        <ele>455.2</ele>
        <time>2021-10-17T15:55:55Z</time>
      </trkpt>
      <trkpt lat="39.4286850" lon="-6.3585370">
        <ele>455.4</ele>
        <time>2021-10-17T15:55:57Z</time>
      </trkpt>
      <trkpt lat="39.4285860" lon="-6.3584890">
        <ele>456.0</ele>
        <time>2021-10-17T15:56:03Z</time>
      </trkpt>
      <trkpt lat="39.4285370" lon="-6.3584800">
        <ele>456.4</ele>
        <time>2021-10-17T15:56:06Z</time>
      </trkpt>
      <trkpt lat="39.4285200" lon="-6.3584770">
        <ele>456.4</ele>
        <time>2021-10-17T15:56:07Z</time>
      </trkpt>
      <trkpt lat="39.4284670" lon="-6.3584660">
        <ele>456.6</ele>
        <time>2021-10-17T15:56:10Z</time>
      </trkpt>
      <trkpt lat="39.4284330" lon="-6.3584650">
        <ele>456.8</ele>
        <time>2021-10-17T15:56:12Z</time>
      </trkpt>
      <trkpt lat="39.4284110" lon="-6.3584670">
        <ele>456.8</ele>
        <time>2021-10-17T15:56:13Z</time>
      </trkpt>
      <trkpt lat="39.4283720" lon="-6.3584750">
        <ele>457.0</ele>
        <time>2021-10-17T15:56:15Z</time>
      </trkpt>
      <trkpt lat="39.4282940" lon="-6.3584790">
        <ele>457.0</ele>
        <time>2021-10-17T15:56:19Z</time>
      </trkpt>
      <trkpt lat="39.4282570" lon="-6.3584800">
        <ele>457.2</ele>
        <time>2021-10-17T15:56:21Z</time>
      </trkpt>
      <trkpt lat="39.4282140" lon="-6.3584850">
        <ele>457.2</ele>
        <time>2021-10-17T15:56:23Z</time>
      </trkpt>
      <trkpt lat="39.4281710" lon="-6.3584850">
        <ele>457.4</ele>
        <time>2021-10-17T15:56:25Z</time>
      </trkpt>
      <trkpt lat="39.4280990" lon="-6.3584850">
        <ele>457.4</ele>
        <time>2021-10-17T15:56:28Z</time>
      </trkpt>
      <trkpt lat="39.4280800" lon="-6.3584820">
        <ele>457.6</ele>
        <time>2021-10-17T15:56:29Z</time>
      </trkpt>
      <trkpt lat="39.4280180" lon="-6.3584690">
        <ele>457.6</ele>
        <time>2021-10-17T15:56:32Z</time>
      </trkpt>
      <trkpt lat="39.4278220" lon="-6.3584190">
        <ele>458.0</ele>
        <time>2021-10-17T15:56:40Z</time>
      </trkpt>
      <trkpt lat="39.4276110" lon="-6.3584250">
        <ele>458.4</ele>
        <time>2021-10-17T15:56:48Z</time>
      </trkpt>
      <trkpt lat="39.4274930" lon="-6.3584370">
        <ele>458.4</ele>
        <time>2021-10-17T15:56:52Z</time>
      </trkpt>
      <trkpt lat="39.4273830" lon="-6.3584570">
        <ele>458.4</ele>
        <time>2021-10-17T15:56:56Z</time>
      </trkpt>
      <trkpt lat="39.4273140" lon="-6.3584800">
        <ele>458.6</ele>
        <time>2021-10-17T15:56:59Z</time>
      </trkpt>
      <trkpt lat="39.4271290" lon="-6.3584950">
        <ele>458.8</ele>
        <time>2021-10-17T15:57:06Z</time>
      </trkpt>
      <trkpt lat="39.4270360" lon="-6.3584940">
        <ele>459.4</ele>
        <time>2021-10-17T15:57:11Z</time>
      </trkpt>
      <trkpt lat="39.4269200" lon="-6.3584920">
        <ele>459.6</ele>
        <time>2021-10-17T15:57:15Z</time>
      </trkpt>
      <trkpt lat="39.4269040" lon="-6.3584890">
        <ele>459.6</ele>
        <time>2021-10-17T15:57:16Z</time>
      </trkpt>
      <trkpt lat="39.4267470" lon="-6.3584300">
        <ele>460.4</ele>
        <time>2021-10-17T15:57:23Z</time>
      </trkpt>
      <trkpt lat="39.4267090" lon="-6.3584160">
        <ele>460.8</ele>
        <time>2021-10-17T15:57:25Z</time>
      </trkpt>
      <trkpt lat="39.4266200" lon="-6.3583820">
        <ele>461.6</ele>
        <time>2021-10-17T15:57:30Z</time>
      </trkpt>
      <trkpt lat="39.4265820" lon="-6.3583550">
        <ele>461.8</ele>
        <time>2021-10-17T15:57:32Z</time>
      </trkpt>
      <trkpt lat="39.4264740" lon="-6.3582830">
        <ele>462.4</ele>
        <time>2021-10-17T15:57:38Z</time>
      </trkpt>
      <trkpt lat="39.4264230" lon="-6.3582400">
        <ele>462.8</ele>
        <time>2021-10-17T15:57:41Z</time>
      </trkpt>
      <trkpt lat="39.4263560" lon="-6.3581840">
        <ele>463.4</ele>
        <time>2021-10-17T15:57:45Z</time>
      </trkpt>
      <trkpt lat="39.4263000" lon="-6.3581540">
        <ele>463.6</ele>
        <time>2021-10-17T15:57:47Z</time>
      </trkpt>
      <trkpt lat="39.4262130" lon="-6.3581170">
        <ele>463.8</ele>
        <time>2021-10-17T15:57:50Z</time>
      </trkpt>
      <trkpt lat="39.4261240" lon="-6.3580530">
        <ele>464.0</ele>
        <time>2021-10-17T15:57:53Z</time>
      </trkpt>
      <trkpt lat="39.4260370" lon="-6.3580090">
        <ele>464.0</ele>
        <time>2021-10-17T15:57:55Z</time>
      </trkpt>
      <trkpt lat="39.4259460" lon="-6.3579880">
        <ele>463.8</ele>
        <time>2021-10-17T15:57:57Z</time>
      </trkpt>
      <trkpt lat="39.4258160" lon="-6.3579970">
        <ele>463.0</ele>
        <time>2021-10-17T15:58:00Z</time>
      </trkpt>
      <trkpt lat="39.4257840" lon="-6.3579920">
        <ele>462.8</ele>
        <time>2021-10-17T15:58:01Z</time>
      </trkpt>
      <trkpt lat="39.4257570" lon="-6.3579860">
        <ele>462.6</ele>
        <time>2021-10-17T15:58:02Z</time>
      </trkpt>
      <trkpt lat="39.4256400" lon="-6.3579150">
        <ele>462.0</ele>
        <time>2021-10-17T15:58:05Z</time>
      </trkpt>
      <trkpt lat="39.4256010" lon="-6.3578800">
        <ele>461.8</ele>
        <time>2021-10-17T15:58:06Z</time>
      </trkpt>
      <trkpt lat="39.4255650" lon="-6.3578460">
        <ele>461.6</ele>
        <time>2021-10-17T15:58:07Z</time>
      </trkpt>
      <trkpt lat="39.4254950" lon="-6.3577960">
        <ele>460.8</ele>
        <time>2021-10-17T15:58:09Z</time>
      </trkpt>
      <trkpt lat="39.4254600" lon="-6.3577760">
        <ele>460.6</ele>
        <time>2021-10-17T15:58:10Z</time>
      </trkpt>
      <trkpt lat="39.4253940" lon="-6.3577380">
        <ele>460.0</ele>
        <time>2021-10-17T15:58:12Z</time>
      </trkpt>
      <trkpt lat="39.4252700" lon="-6.3576690">
        <ele>459.0</ele>
        <time>2021-10-17T15:58:15Z</time>
      </trkpt>
      <trkpt lat="39.4252380" lon="-6.3576490">
        <ele>458.8</ele>
        <time>2021-10-17T15:58:16Z</time>
      </trkpt>
      <trkpt lat="39.4251020" lon="-6.3575930">
        <ele>458.2</ele>
        <time>2021-10-17T15:58:19Z</time>
      </trkpt>
      <trkpt lat="39.4250460" lon="-6.3575720">
        <ele>458.0</ele>
        <time>2021-10-17T15:58:21Z</time>
      </trkpt>
      <trkpt lat="39.4250080" lon="-6.3575460">
        <ele>457.8</ele>
        <time>2021-10-17T15:58:23Z</time>
      </trkpt>
      <trkpt lat="39.4249980" lon="-6.3575340">
        <ele>457.6</ele>
        <time>2021-10-17T15:58:27Z</time>
      </trkpt>
      <trkpt lat="39.4249980" lon="-6.3575340">
        <ele>457.4</ele>
        <time>2021-10-17T15:58:28Z</time>
      </trkpt>
      <trkpt lat="39.4249700" lon="-6.3575390">
        <ele>456.8</ele>
        <time>2021-10-17T16:02:23Z</time>
      </trkpt>
      <trkpt lat="39.4249510" lon="-6.3575390">
        <ele>456.8</ele>
        <time>2021-10-17T16:02:24Z</time>
      </trkpt>
      <trkpt lat="39.4249230" lon="-6.3575340">
        <ele>456.8</ele>
        <time>2021-10-17T16:02:25Z</time>
      </trkpt>
      <trkpt lat="39.4247340" lon="-6.3574560">
        <ele>456.6</ele>
        <time>2021-10-17T16:02:31Z</time>
      </trkpt>
      <trkpt lat="39.4246030" lon="-6.3573430">
        <ele>456.4</ele>
        <time>2021-10-17T16:02:36Z</time>
      </trkpt>
      <trkpt lat="39.4243560" lon="-6.3572260">
        <ele>456.2</ele>
        <time>2021-10-17T16:02:43Z</time>
      </trkpt>
      <trkpt lat="39.4241300" lon="-6.3571460">
        <ele>456.4</ele>
        <time>2021-10-17T16:02:49Z</time>
      </trkpt>
      <trkpt lat="39.4239010" lon="-6.3570670">
        <ele>456.4</ele>
        <time>2021-10-17T16:02:55Z</time>
      </trkpt>
      <trkpt lat="39.4238160" lon="-6.3570570">
        <ele>456.4</ele>
        <time>2021-10-17T16:02:57Z</time>
      </trkpt>
      <trkpt lat="39.4236990" lon="-6.3570060">
        <ele>456.2</ele>
        <time>2021-10-17T16:03:00Z</time>
      </trkpt>
      <trkpt lat="39.4235730" lon="-6.3569500">
        <ele>456.2</ele>
        <time>2021-10-17T16:03:03Z</time>
      </trkpt>
      <trkpt lat="39.4234990" lon="-6.3569100">
        <ele>456.2</ele>
        <time>2021-10-17T16:03:05Z</time>
      </trkpt>
      <trkpt lat="39.4234300" lon="-6.3568910">
        <ele>456.0</ele>
        <time>2021-10-17T16:03:07Z</time>
      </trkpt>
      <trkpt lat="39.4233070" lon="-6.3568540">
        <ele>456.2</ele>
        <time>2021-10-17T16:03:10Z</time>
      </trkpt>
      <trkpt lat="39.4231520" lon="-6.3567930">
        <ele>456.0</ele>
        <time>2021-10-17T16:03:14Z</time>
      </trkpt>
      <trkpt lat="39.4228970" lon="-6.3566960">
        <ele>456.2</ele>
        <time>2021-10-17T16:03:22Z</time>
      </trkpt>
      <trkpt lat="39.4228290" lon="-6.3566870">
        <ele>457.6</ele>
        <time>2021-10-17T16:03:27Z</time>
      </trkpt>
      <trkpt lat="39.4228110" lon="-6.3566810">
        <ele>458.2</ele>
        <time>2021-10-17T16:03:29Z</time>
      </trkpt>
      <trkpt lat="39.4227920" lon="-6.3566750">
        <ele>459.0</ele>
        <time>2021-10-17T16:03:31Z</time>
      </trkpt>
      <trkpt lat="39.4227870" lon="-6.3566760">
        <ele>459.2</ele>
        <time>2021-10-17T16:03:33Z</time>
      </trkpt>
      <trkpt lat="39.4227230" lon="-6.3566890">
        <ele>459.0</ele>
        <time>2021-10-17T16:03:49Z</time>
      </trkpt>
      <trkpt lat="39.4226990" lon="-6.3566830">
        <ele>459.2</ele>
        <time>2021-10-17T16:03:50Z</time>
      </trkpt>
      <trkpt lat="39.4226990" lon="-6.3566830">
        <ele>459.0</ele>
        <time>2021-10-17T16:03:51Z</time>
      </trkpt>
      <trkpt lat="39.4224140" lon="-6.3565570">
        <ele>459.0</ele>
        <time>2021-10-17T16:03:58Z</time>
      </trkpt>
      <trkpt lat="39.4222810" lon="-6.3565060">
        <ele>459.0</ele>
        <time>2021-10-17T16:04:01Z</time>
      </trkpt>
      <trkpt lat="39.4221680" lon="-6.3564550">
        <ele>458.8</ele>
        <time>2021-10-17T16:04:03Z</time>
      </trkpt>
      <trkpt lat="39.4220390" lon="-6.3563690">
        <ele>457.4</ele>
        <time>2021-10-17T16:04:06Z</time>
      </trkpt>
      <trkpt lat="39.4219150" lon="-6.3562550">
        <ele>456.6</ele>
        <time>2021-10-17T16:04:09Z</time>
      </trkpt>
      <trkpt lat="39.4218450" lon="-6.3562220">
        <ele>456.4</ele>
        <time>2021-10-17T16:04:11Z</time>
      </trkpt>
      <trkpt lat="39.4217570" lon="-6.3562250">
        <ele>456.2</ele>
        <time>2021-10-17T16:04:13Z</time>
      </trkpt>
      <trkpt lat="39.4216290" lon="-6.3562490">
        <ele>456.2</ele>
        <time>2021-10-17T16:04:17Z</time>
      </trkpt>
      <trkpt lat="39.4215560" lon="-6.3562540">
        <ele>456.4</ele>
        <time>2021-10-17T16:04:19Z</time>
      </trkpt>
      <trkpt lat="39.4212920" lon="-6.3562370">
        <ele>456.8</ele>
        <time>2021-10-17T16:04:28Z</time>
      </trkpt>
      <trkpt lat="39.4211740" lon="-6.3561870">
        <ele>457.6</ele>
        <time>2021-10-17T16:04:33Z</time>
      </trkpt>
      <trkpt lat="39.4211550" lon="-6.3561820">
        <ele>457.6</ele>
        <time>2021-10-17T16:04:34Z</time>
      </trkpt>
      <trkpt lat="39.4210810" lon="-6.3561640">
        <ele>458.2</ele>
        <time>2021-10-17T16:04:38Z</time>
      </trkpt>
      <trkpt lat="39.4210610" lon="-6.3561560">
        <ele>458.4</ele>
        <time>2021-10-17T16:04:39Z</time>
      </trkpt>
      <trkpt lat="39.4209970" lon="-6.3561500">
        <ele>458.8</ele>
        <time>2021-10-17T16:04:42Z</time>
      </trkpt>
      <trkpt lat="39.4209400" lon="-6.3561350">
        <ele>459.2</ele>
        <time>2021-10-17T16:04:45Z</time>
      </trkpt>
      <trkpt lat="39.4208650" lon="-6.3560880">
        <ele>459.6</ele>
        <time>2021-10-17T16:04:50Z</time>
      </trkpt>
      <trkpt lat="39.4208260" lon="-6.3560710">
        <ele>460.0</ele>
        <time>2021-10-17T16:04:52Z</time>
      </trkpt>
      <trkpt lat="39.4207160" lon="-6.3560300">
        <ele>460.8</ele>
        <time>2021-10-17T16:04:58Z</time>
      </trkpt>
      <trkpt lat="39.4206270" lon="-6.3559980">
        <ele>461.6</ele>
        <time>2021-10-17T16:05:03Z</time>
      </trkpt>
      <trkpt lat="39.4206080" lon="-6.3559950">
        <ele>461.6</ele>
        <time>2021-10-17T16:05:04Z</time>
      </trkpt>
      <trkpt lat="39.4205740" lon="-6.3559910">
        <ele>461.8</ele>
        <time>2021-10-17T16:05:06Z</time>
      </trkpt>
      <trkpt lat="39.4205320" lon="-6.3559840">
        <ele>462.2</ele>
        <time>2021-10-17T16:05:08Z</time>
      </trkpt>
      <trkpt lat="39.4204550" lon="-6.3559690">
        <ele>462.4</ele>
        <time>2021-10-17T16:05:12Z</time>
      </trkpt>
      <trkpt lat="39.4204370" lon="-6.3559690">
        <ele>462.4</ele>
        <time>2021-10-17T16:05:13Z</time>
      </trkpt>
      <trkpt lat="39.4203420" lon="-6.3559520">
        <ele>462.8</ele>
        <time>2021-10-17T16:05:18Z</time>
      </trkpt>
      <trkpt lat="39.4202590" lon="-6.3559460">
        <ele>462.8</ele>
        <time>2021-10-17T16:05:22Z</time>
      </trkpt>
      <trkpt lat="39.4201870" lon="-6.3559690">
        <ele>463.0</ele>
        <time>2021-10-17T16:05:25Z</time>
      </trkpt>
      <trkpt lat="39.4201050" lon="-6.3559750">
        <ele>463.2</ele>
        <time>2021-10-17T16:05:29Z</time>
      </trkpt>
      <trkpt lat="39.4200260" lon="-6.3559810">
        <ele>463.2</ele>
        <time>2021-10-17T16:05:33Z</time>
      </trkpt>
      <trkpt lat="39.4199770" lon="-6.3559800">
        <ele>463.2</ele>
        <time>2021-10-17T16:05:35Z</time>
      </trkpt>
      <trkpt lat="39.4197990" lon="-6.3559440">
        <ele>463.6</ele>
        <time>2021-10-17T16:05:43Z</time>
      </trkpt>
      <trkpt lat="39.4197030" lon="-6.3558940">
        <ele>463.6</ele>
        <time>2021-10-17T16:05:47Z</time>
      </trkpt>
      <trkpt lat="39.4196230" lon="-6.3558640">
        <ele>463.8</ele>
        <time>2021-10-17T16:05:50Z</time>
      </trkpt>
      <trkpt lat="39.4194710" lon="-6.3559240">
        <ele>463.8</ele>
        <time>2021-10-17T16:05:56Z</time>
      </trkpt>
      <trkpt lat="39.4194040" lon="-6.3559370">
        <ele>463.8</ele>
        <time>2021-10-17T16:05:59Z</time>
      </trkpt>
      <trkpt lat="39.4193400" lon="-6.3559450">
        <ele>463.8</ele>
        <time>2021-10-17T16:06:02Z</time>
      </trkpt>
      <trkpt lat="39.4192230" lon="-6.3559330">
        <ele>463.8</ele>
        <time>2021-10-17T16:06:07Z</time>
      </trkpt>
      <trkpt lat="39.4191310" lon="-6.3558990">
        <ele>463.8</ele>
        <time>2021-10-17T16:06:11Z</time>
      </trkpt>
      <trkpt lat="39.4190370" lon="-6.3558620">
        <ele>463.6</ele>
        <time>2021-10-17T16:06:15Z</time>
      </trkpt>
      <trkpt lat="39.4188310" lon="-6.3558680">
        <ele>463.4</ele>
        <time>2021-10-17T16:06:23Z</time>
      </trkpt>
      <trkpt lat="39.4186580" lon="-6.3558200">
        <ele>463.0</ele>
        <time>2021-10-17T16:06:30Z</time>
      </trkpt>
      <trkpt lat="39.4184680" lon="-6.3558290">
        <ele>462.8</ele>
        <time>2021-10-17T16:06:37Z</time>
      </trkpt>
      <trkpt lat="39.4182940" lon="-6.3558150">
        <ele>462.6</ele>
        <time>2021-10-17T16:06:44Z</time>
      </trkpt>
      <trkpt lat="39.4180340" lon="-6.3558350">
        <ele>462.6</ele>
        <time>2021-10-17T16:06:53Z</time>
      </trkpt>
      <trkpt lat="39.4178200" lon="-6.3558370">
        <ele>462.2</ele>
        <time>2021-10-17T16:07:00Z</time>
      </trkpt>
      <trkpt lat="39.4176760" lon="-6.3558090">
        <ele>462.0</ele>
        <time>2021-10-17T16:07:04Z</time>
      </trkpt>
      <trkpt lat="39.4175880" lon="-6.3557860">
        <ele>462.0</ele>
        <time>2021-10-17T16:07:06Z</time>
      </trkpt>
      <trkpt lat="39.4174500" lon="-6.3557450">
        <ele>461.6</ele>
        <time>2021-10-17T16:07:09Z</time>
      </trkpt>
      <trkpt lat="39.4173120" lon="-6.3557280">
        <ele>460.8</ele>
        <time>2021-10-17T16:07:12Z</time>
      </trkpt>
      <trkpt lat="39.4172360" lon="-6.3556990">
        <ele>460.4</ele>
        <time>2021-10-17T16:07:14Z</time>
      </trkpt>
      <trkpt lat="39.4171600" lon="-6.3556700">
        <ele>460.0</ele>
        <time>2021-10-17T16:07:16Z</time>
      </trkpt>
      <trkpt lat="39.4171180" lon="-6.3556630">
        <ele>460.0</ele>
        <time>2021-10-17T16:07:17Z</time>
      </trkpt>
      <trkpt lat="39.4170750" lon="-6.3556630">
        <ele>459.8</ele>
        <time>2021-10-17T16:07:18Z</time>
      </trkpt>
      <trkpt lat="39.4170370" lon="-6.3556780">
        <ele>459.6</ele>
        <time>2021-10-17T16:07:19Z</time>
      </trkpt>
      <trkpt lat="39.4169750" lon="-6.3557160">
        <ele>458.8</ele>
        <time>2021-10-17T16:07:21Z</time>
      </trkpt>
      <trkpt lat="39.4169480" lon="-6.3557350">
        <ele>458.0</ele>
        <time>2021-10-17T16:07:22Z</time>
      </trkpt>
      <trkpt lat="39.4168400" lon="-6.3558130">
        <ele>456.8</ele>
        <time>2021-10-17T16:07:26Z</time>
      </trkpt>
      <trkpt lat="39.4167870" lon="-6.3558320">
        <ele>456.4</ele>
        <time>2021-10-17T16:07:28Z</time>
      </trkpt>
      <trkpt lat="39.4165930" lon="-6.3559130">
        <ele>455.8</ele>
        <time>2021-10-17T16:07:34Z</time>
      </trkpt>
      <trkpt lat="39.4165210" lon="-6.3559480">
        <ele>455.4</ele>
        <time>2021-10-17T16:07:36Z</time>
      </trkpt>
      <trkpt lat="39.4163680" lon="-6.3560160">
        <ele>454.6</ele>
        <time>2021-10-17T16:07:41Z</time>
      </trkpt>
      <trkpt lat="39.4163370" lon="-6.3560220">
        <ele>454.4</ele>
        <time>2021-10-17T16:07:42Z</time>
      </trkpt>
      <trkpt lat="39.4162280" lon="-6.3559870">
        <ele>454.2</ele>
        <time>2021-10-17T16:07:45Z</time>
      </trkpt>
      <trkpt lat="39.4161990" lon="-6.3559790">
        <ele>453.6</ele>
        <time>2021-10-17T16:07:46Z</time>
      </trkpt>
      <trkpt lat="39.4161570" lon="-6.3559750">
        <ele>453.6</ele>
        <time>2021-10-17T16:07:47Z</time>
      </trkpt>
      <trkpt lat="39.4160080" lon="-6.3559790">
        <ele>452.8</ele>
        <time>2021-10-17T16:07:50Z</time>
      </trkpt>
      <trkpt lat="39.4158550" lon="-6.3559900">
        <ele>452.2</ele>
        <time>2021-10-17T16:07:53Z</time>
      </trkpt>
      <trkpt lat="39.4156960" lon="-6.3559800">
        <ele>451.6</ele>
        <time>2021-10-17T16:07:56Z</time>
      </trkpt>
      <trkpt lat="39.4155770" lon="-6.3559740">
        <ele>451.2</ele>
        <time>2021-10-17T16:07:58Z</time>
      </trkpt>
      <trkpt lat="39.4153640" lon="-6.3559800">
        <ele>450.2</ele>
        <time>2021-10-17T16:08:02Z</time>
      </trkpt>
      <trkpt lat="39.4152610" lon="-6.3559760">
        <ele>449.4</ele>
        <time>2021-10-17T16:08:04Z</time>
      </trkpt>
      <trkpt lat="39.4151640" lon="-6.3559680">
        <ele>448.8</ele>
        <time>2021-10-17T16:08:06Z</time>
      </trkpt>
      <trkpt lat="39.4149960" lon="-6.3559410">
        <ele>448.2</ele>
        <time>2021-10-17T16:08:10Z</time>
      </trkpt>
      <trkpt lat="39.4147830" lon="-6.3558660">
        <ele>448.0</ele>
        <time>2021-10-17T16:08:15Z</time>
      </trkpt>
      <trkpt lat="39.4147410" lon="-6.3558630">
        <ele>447.8</ele>
        <time>2021-10-17T16:08:16Z</time>
      </trkpt>
      <trkpt lat="39.4147010" lon="-6.3558590">
        <ele>447.8</ele>
        <time>2021-10-17T16:08:17Z</time>
      </trkpt>
      <trkpt lat="39.4144770" lon="-6.3558000">
        <ele>447.2</ele>
        <time>2021-10-17T16:08:23Z</time>
      </trkpt>
      <trkpt lat="39.4143100" lon="-6.3557810">
        <ele>447.2</ele>
        <time>2021-10-17T16:08:27Z</time>
      </trkpt>
      <trkpt lat="39.4142160" lon="-6.3557620">
        <ele>446.8</ele>
        <time>2021-10-17T16:08:29Z</time>
      </trkpt>
      <trkpt lat="39.4141660" lon="-6.3557560">
        <ele>446.6</ele>
        <time>2021-10-17T16:08:30Z</time>
      </trkpt>
      <trkpt lat="39.4139560" lon="-6.3557170">
        <ele>445.4</ele>
        <time>2021-10-17T16:08:34Z</time>
      </trkpt>
      <trkpt lat="39.4139020" lon="-6.3557010">
        <ele>445.2</ele>
        <time>2021-10-17T16:08:35Z</time>
      </trkpt>
      <trkpt lat="39.4136370" lon="-6.3556090">
        <ele>444.4</ele>
        <time>2021-10-17T16:08:40Z</time>
      </trkpt>
      <trkpt lat="39.4135840" lon="-6.3555960">
        <ele>444.0</ele>
        <time>2021-10-17T16:08:41Z</time>
      </trkpt>
      <trkpt lat="39.4134270" lon="-6.3555660">
        <ele>443.4</ele>
        <time>2021-10-17T16:08:44Z</time>
      </trkpt>
      <trkpt lat="39.4133340" lon="-6.3555760">
        <ele>442.8</ele>
        <time>2021-10-17T16:08:46Z</time>
      </trkpt>
      <trkpt lat="39.4132930" lon="-6.3555810">
        <ele>442.6</ele>
        <time>2021-10-17T16:08:47Z</time>
      </trkpt>
      <trkpt lat="39.4132040" lon="-6.3555720">
        <ele>442.2</ele>
        <time>2021-10-17T16:08:49Z</time>
      </trkpt>
      <trkpt lat="39.4131550" lon="-6.3555640">
        <ele>441.8</ele>
        <time>2021-10-17T16:08:50Z</time>
      </trkpt>
      <trkpt lat="39.4130570" lon="-6.3555430">
        <ele>441.2</ele>
        <time>2021-10-17T16:08:52Z</time>
      </trkpt>
      <trkpt lat="39.4128010" lon="-6.3554640">
        <ele>440.2</ele>
        <time>2021-10-17T16:08:58Z</time>
      </trkpt>
      <trkpt lat="39.4127670" lon="-6.3554620">
        <ele>440.0</ele>
        <time>2021-10-17T16:08:59Z</time>
      </trkpt>
      <trkpt lat="39.4127130" lon="-6.3554540">
        <ele>439.6</ele>
        <time>2021-10-17T16:09:01Z</time>
      </trkpt>
      <trkpt lat="39.4127020" lon="-6.3554410">
        <ele>439.4</ele>
        <time>2021-10-17T16:09:02Z</time>
      </trkpt>
      <trkpt lat="39.4126880" lon="-6.3554280">
        <ele>438.6</ele>
        <time>2021-10-17T16:09:05Z</time>
      </trkpt>
      <trkpt lat="39.4126600" lon="-6.3553980">
        <ele>438.4</ele>
        <time>2021-10-17T16:09:19Z</time>
      </trkpt>
      <trkpt lat="39.4126330" lon="-6.3553710">
        <ele>438.4</ele>
        <time>2021-10-17T16:09:20Z</time>
      </trkpt>
      <trkpt lat="39.4124930" lon="-6.3552410">
        <ele>438.6</ele>
        <time>2021-10-17T16:09:25Z</time>
      </trkpt>
      <trkpt lat="39.4123790" lon="-6.3551250">
        <ele>438.4</ele>
        <time>2021-10-17T16:09:29Z</time>
      </trkpt>
      <trkpt lat="39.4122830" lon="-6.3550500">
        <ele>438.0</ele>
        <time>2021-10-17T16:09:32Z</time>
      </trkpt>
      <trkpt lat="39.4120860" lon="-6.3548800">
        <ele>438.0</ele>
        <time>2021-10-17T16:09:39Z</time>
      </trkpt>
      <trkpt lat="39.4119670" lon="-6.3548150">
        <ele>437.8</ele>
        <time>2021-10-17T16:09:43Z</time>
      </trkpt>
      <trkpt lat="39.4118920" lon="-6.3547920">
        <ele>437.4</ele>
        <time>2021-10-17T16:09:46Z</time>
      </trkpt>
      <trkpt lat="39.4118020" lon="-6.3547690">
        <ele>436.8</ele>
        <time>2021-10-17T16:09:50Z</time>
      </trkpt>
      <trkpt lat="39.4117060" lon="-6.3547560">
        <ele>436.2</ele>
        <time>2021-10-17T16:09:54Z</time>
      </trkpt>
      <trkpt lat="39.4116760" lon="-6.3547480">
        <ele>435.6</ele>
        <time>2021-10-17T16:09:56Z</time>
      </trkpt>
      <trkpt lat="39.4116690" lon="-6.3547480">
        <ele>435.2</ele>
        <time>2021-10-17T16:09:58Z</time>
      </trkpt>
      <trkpt lat="39.4116690" lon="-6.3547480">
        <ele>434.8</ele>
        <time>2021-10-17T16:09:59Z</time>
      </trkpt>
      <trkpt lat="39.4116430" lon="-6.3547260">
        <ele>434.0</ele>
        <time>2021-10-17T16:10:38Z</time>
      </trkpt>
      <trkpt lat="39.4115690" lon="-6.3546770">
        <ele>434.0</ele>
        <time>2021-10-17T16:10:40Z</time>
      </trkpt>
      <trkpt lat="39.4113540" lon="-6.3545530">
        <ele>433.6</ele>
        <time>2021-10-17T16:10:45Z</time>
      </trkpt>
      <trkpt lat="39.4112390" lon="-6.3544950">
        <ele>432.8</ele>
        <time>2021-10-17T16:10:48Z</time>
      </trkpt>
      <trkpt lat="39.4111870" lon="-6.3544700">
        <ele>432.2</ele>
        <time>2021-10-17T16:10:50Z</time>
      </trkpt>
      <trkpt lat="39.4110900" lon="-6.3544310">
        <ele>432.2</ele>
        <time>2021-10-17T16:10:55Z</time>
      </trkpt>
      <trkpt lat="39.4110710" lon="-6.3544380">
        <ele>432.2</ele>
        <time>2021-10-17T16:10:56Z</time>
      </trkpt>
      <trkpt lat="39.4109890" lon="-6.3544330">
        <ele>433.0</ele>
        <time>2021-10-17T16:11:00Z</time>
      </trkpt>
      <trkpt lat="39.4109690" lon="-6.3544250">
        <ele>433.0</ele>
        <time>2021-10-17T16:11:01Z</time>
      </trkpt>
      <trkpt lat="39.4109460" lon="-6.3544180">
        <ele>433.0</ele>
        <time>2021-10-17T16:11:02Z</time>
      </trkpt>
      <trkpt lat="39.4108240" lon="-6.3543340">
        <ele>433.6</ele>
        <time>2021-10-17T16:11:09Z</time>
      </trkpt>
      <trkpt lat="39.4107950" lon="-6.3543040">
        <ele>434.0</ele>
        <time>2021-10-17T16:11:11Z</time>
      </trkpt>
      <trkpt lat="39.4107580" lon="-6.3542340">
        <ele>434.6</ele>
        <time>2021-10-17T16:11:15Z</time>
      </trkpt>
      <trkpt lat="39.4107200" lon="-6.3541980">
        <ele>435.2</ele>
        <time>2021-10-17T16:11:18Z</time>
      </trkpt>
      <trkpt lat="39.4106770" lon="-6.3541690">
        <ele>435.6</ele>
        <time>2021-10-17T16:11:21Z</time>
      </trkpt>
      <trkpt lat="39.4106480" lon="-6.3541500">
        <ele>436.2</ele>
        <time>2021-10-17T16:11:23Z</time>
      </trkpt>
      <trkpt lat="39.4105980" lon="-6.3541230">
        <ele>437.0</ele>
        <time>2021-10-17T16:11:27Z</time>
      </trkpt>
      <trkpt lat="39.4105860" lon="-6.3541140">
        <ele>437.2</ele>
        <time>2021-10-17T16:11:28Z</time>
      </trkpt>
      <trkpt lat="39.4105140" lon="-6.3540860">
        <ele>438.2</ele>
        <time>2021-10-17T16:11:33Z</time>
      </trkpt>
      <trkpt lat="39.4105020" lon="-6.3540810">
        <ele>438.2</ele>
        <time>2021-10-17T16:11:34Z</time>
      </trkpt>
      <trkpt lat="39.4104760" lon="-6.3540700">
        <ele>438.4</ele>
        <time>2021-10-17T16:11:36Z</time>
      </trkpt>
      <trkpt lat="39.4104530" lon="-6.3540640">
        <ele>438.4</ele>
        <time>2021-10-17T16:11:38Z</time>
      </trkpt>
      <trkpt lat="39.4104150" lon="-6.3540550">
        <ele>438.6</ele>
        <time>2021-10-17T16:11:41Z</time>
      </trkpt>
      <trkpt lat="39.4103790" lon="-6.3540540">
        <ele>438.6</ele>
        <time>2021-10-17T16:11:43Z</time>
      </trkpt>
      <trkpt lat="39.4103610" lon="-6.3540530">
        <ele>438.8</ele>
        <time>2021-10-17T16:11:44Z</time>
      </trkpt>
      <trkpt lat="39.4103440" lon="-6.3540560">
        <ele>438.8</ele>
        <time>2021-10-17T16:11:45Z</time>
      </trkpt>
      <trkpt lat="39.4103240" lon="-6.3540550">
        <ele>438.8</ele>
        <time>2021-10-17T16:11:46Z</time>
      </trkpt>
      <trkpt lat="39.4103020" lon="-6.3540570">
        <ele>438.8</ele>
        <time>2021-10-17T16:11:47Z</time>
      </trkpt>
      <trkpt lat="39.4102180" lon="-6.3540810">
        <ele>438.8</ele>
        <time>2021-10-17T16:11:50Z</time>
      </trkpt>
      <trkpt lat="39.4100490" lon="-6.3541140">
        <ele>438.8</ele>
        <time>2021-10-17T16:11:55Z</time>
      </trkpt>
      <trkpt lat="39.4098030" lon="-6.3541900">
        <ele>438.0</ele>
        <time>2021-10-17T16:12:02Z</time>
      </trkpt>
      <trkpt lat="39.4097740" lon="-6.3542050">
        <ele>437.8</ele>
        <time>2021-10-17T16:12:03Z</time>
      </trkpt>
      <trkpt lat="39.4096420" lon="-6.3542210">
        <ele>437.2</ele>
        <time>2021-10-17T16:12:07Z</time>
      </trkpt>
      <trkpt lat="39.4096100" lon="-6.3542250">
        <ele>437.0</ele>
        <time>2021-10-17T16:12:08Z</time>
      </trkpt>
      <trkpt lat="39.4094260" lon="-6.3542550">
        <ele>435.6</ele>
        <time>2021-10-17T16:12:13Z</time>
      </trkpt>
      <trkpt lat="39.4093430" lon="-6.3542750">
        <ele>435.2</ele>
        <time>2021-10-17T16:12:15Z</time>
      </trkpt>
      <trkpt lat="39.4092330" lon="-6.3543070">
        <ele>434.6</ele>
        <time>2021-10-17T16:12:18Z</time>
      </trkpt>
      <trkpt lat="39.4091100" lon="-6.3543440">
        <ele>434.0</ele>
        <time>2021-10-17T16:12:21Z</time>
      </trkpt>
      <trkpt lat="39.4090670" lon="-6.3543530">
        <ele>433.4</ele>
        <time>2021-10-17T16:12:22Z</time>
      </trkpt>
      <trkpt lat="39.4089800" lon="-6.3543720">
        <ele>432.6</ele>
        <time>2021-10-17T16:12:24Z</time>
      </trkpt>
      <trkpt lat="39.4089420" lon="-6.3543910">
        <ele>432.2</ele>
        <time>2021-10-17T16:12:25Z</time>
      </trkpt>
      <trkpt lat="39.4089030" lon="-6.3544010">
        <ele>432.0</ele>
        <time>2021-10-17T16:12:26Z</time>
      </trkpt>
      <trkpt lat="39.4088010" lon="-6.3544120">
        <ele>431.0</ele>
        <time>2021-10-17T16:12:29Z</time>
      </trkpt>
      <trkpt lat="39.4087410" lon="-6.3544230">
        <ele>430.8</ele>
        <time>2021-10-17T16:12:31Z</time>
      </trkpt>
      <trkpt lat="39.4086530" lon="-6.3544560">
        <ele>430.0</ele>
        <time>2021-10-17T16:12:34Z</time>
      </trkpt>
      <trkpt lat="39.4085890" lon="-6.3544650">
        <ele>429.8</ele>
        <time>2021-10-17T16:12:36Z</time>
      </trkpt>
      <trkpt lat="39.4084810" lon="-6.3544810">
        <ele>429.6</ele>
        <time>2021-10-17T16:12:39Z</time>
      </trkpt>
      <trkpt lat="39.4083730" lon="-6.3545180">
        <ele>429.2</ele>
        <time>2021-10-17T16:12:42Z</time>
      </trkpt>
      <trkpt lat="39.4083030" lon="-6.3545330">
        <ele>428.8</ele>
        <time>2021-10-17T16:12:44Z</time>
      </trkpt>
      <trkpt lat="39.4081330" lon="-6.3545780">
        <ele>428.4</ele>
        <time>2021-10-17T16:12:48Z</time>
      </trkpt>
      <trkpt lat="39.4080910" lon="-6.3545910">
        <ele>428.2</ele>
        <time>2021-10-17T16:12:49Z</time>
      </trkpt>
      <trkpt lat="39.4080000" lon="-6.3545930">
        <ele>427.4</ele>
        <time>2021-10-17T16:12:51Z</time>
      </trkpt>
      <trkpt lat="39.4078990" lon="-6.3546060">
        <ele>426.8</ele>
        <time>2021-10-17T16:12:53Z</time>
      </trkpt>
      <trkpt lat="39.4077550" lon="-6.3546530">
        <ele>426.2</ele>
        <time>2021-10-17T16:12:56Z</time>
      </trkpt>
      <trkpt lat="39.4077080" lon="-6.3546670">
        <ele>426.0</ele>
        <time>2021-10-17T16:12:57Z</time>
      </trkpt>
      <trkpt lat="39.4076150" lon="-6.3546740">
        <ele>425.8</ele>
        <time>2021-10-17T16:12:59Z</time>
      </trkpt>
      <trkpt lat="39.4074400" lon="-6.3547140">
        <ele>425.0</ele>
        <time>2021-10-17T16:13:03Z</time>
      </trkpt>
      <trkpt lat="39.4073260" lon="-6.3547280">
        <ele>424.6</ele>
        <time>2021-10-17T16:13:06Z</time>
      </trkpt>
      <trkpt lat="39.4072110" lon="-6.3547370">
        <ele>424.6</ele>
        <time>2021-10-17T16:13:09Z</time>
      </trkpt>
      <trkpt lat="39.4069560" lon="-6.3547980">
        <ele>424.4</ele>
        <time>2021-10-17T16:13:15Z</time>
      </trkpt>
      <trkpt lat="39.4068300" lon="-6.3548260">
        <ele>424.0</ele>
        <time>2021-10-17T16:13:19Z</time>
      </trkpt>
      <trkpt lat="39.4068000" lon="-6.3547700">
        <ele>423.8</ele>
        <time>2021-10-17T16:13:20Z</time>
      </trkpt>
      <trkpt lat="39.4067850" lon="-6.3547090">
        <ele>423.2</ele>
        <time>2021-10-17T16:13:23Z</time>
      </trkpt>
      <trkpt lat="39.4067710" lon="-6.3546470">
        <ele>422.8</ele>
        <time>2021-10-17T16:13:39Z</time>
      </trkpt>
      <trkpt lat="39.4067570" lon="-6.3545860">
        <ele>422.8</ele>
        <time>2021-10-17T16:13:45Z</time>
      </trkpt>
      <trkpt lat="39.4067430" lon="-6.3545240">
        <ele>423.0</ele>
        <time>2021-10-17T16:13:46Z</time>
      </trkpt>
      <trkpt lat="39.4067280" lon="-6.3544630">
        <ele>423.2</ele>
        <time>2021-10-17T16:13:49Z</time>
      </trkpt>
      <trkpt lat="39.4067140" lon="-6.3544010">
        <ele>423.2</ele>
        <time>2021-10-17T16:13:50Z</time>
      </trkpt>
      <trkpt lat="39.4066850" lon="-6.3543980">
        <ele>423.4</ele>
        <time>2021-10-17T16:13:51Z</time>
      </trkpt>
      <trkpt lat="39.4064920" lon="-6.3543940">
        <ele>423.6</ele>
        <time>2021-10-17T16:13:56Z</time>
      </trkpt>
      <trkpt lat="39.4064080" lon="-6.3543790">
        <ele>423.6</ele>
        <time>2021-10-17T16:13:58Z</time>
      </trkpt>
      <trkpt lat="39.4062240" lon="-6.3544030">
        <ele>423.6</ele>
        <time>2021-10-17T16:14:03Z</time>
      </trkpt>
      <trkpt lat="39.4060210" lon="-6.3544670">
        <ele>423.4</ele>
        <time>2021-10-17T16:14:08Z</time>
      </trkpt>
      <trkpt lat="39.4056390" lon="-6.3545460">
        <ele>423.4</ele>
        <time>2021-10-17T16:14:17Z</time>
      </trkpt>
      <trkpt lat="39.4054080" lon="-6.3546010">
        <ele>423.6</ele>
        <time>2021-10-17T16:14:23Z</time>
      </trkpt>
      <trkpt lat="39.4053370" lon="-6.3546280">
        <ele>423.8</ele>
        <time>2021-10-17T16:14:25Z</time>
      </trkpt>
      <trkpt lat="39.4050920" lon="-6.3547560">
        <ele>424.4</ele>
        <time>2021-10-17T16:14:32Z</time>
      </trkpt>
      <trkpt lat="39.4050150" lon="-6.3547740">
        <ele>424.6</ele>
        <time>2021-10-17T16:14:34Z</time>
      </trkpt>
      <trkpt lat="39.4049410" lon="-6.3547720">
        <ele>424.6</ele>
        <time>2021-10-17T16:14:36Z</time>
      </trkpt>
      <trkpt lat="39.4049040" lon="-6.3547710">
        <ele>424.6</ele>
        <time>2021-10-17T16:14:37Z</time>
      </trkpt>
      <trkpt lat="39.4048030" lon="-6.3547750">
        <ele>424.6</ele>
        <time>2021-10-17T16:14:40Z</time>
      </trkpt>
      <trkpt lat="39.4045820" lon="-6.3548130">
        <ele>424.2</ele>
        <time>2021-10-17T16:14:46Z</time>
      </trkpt>
      <trkpt lat="39.4042720" lon="-6.3547900">
        <ele>423.4</ele>
        <time>2021-10-17T16:14:54Z</time>
      </trkpt>
      <trkpt lat="39.4040020" lon="-6.3546100">
        <ele>422.8</ele>
        <time>2021-10-17T16:15:01Z</time>
      </trkpt>
      <trkpt lat="39.4039260" lon="-6.3545440">
        <ele>422.6</ele>
        <time>2021-10-17T16:15:03Z</time>
      </trkpt>
      <trkpt lat="39.4037580" lon="-6.3544030">
        <ele>422.0</ele>
        <time>2021-10-17T16:15:07Z</time>
      </trkpt>
      <trkpt lat="39.4037220" lon="-6.3543670">
        <ele>421.8</ele>
        <time>2021-10-17T16:15:08Z</time>
      </trkpt>
      <trkpt lat="39.4036910" lon="-6.3543290">
        <ele>421.4</ele>
        <time>2021-10-17T16:15:09Z</time>
      </trkpt>
      <trkpt lat="39.4035860" lon="-6.3541910">
        <ele>420.4</ele>
        <time>2021-10-17T16:15:12Z</time>
      </trkpt>
      <trkpt lat="39.4034760" lon="-6.3540220">
        <ele>419.0</ele>
        <time>2021-10-17T16:15:15Z</time>
      </trkpt>
      <trkpt lat="39.4033820" lon="-6.3538520">
        <ele>418.2</ele>
        <time>2021-10-17T16:15:18Z</time>
      </trkpt>
      <trkpt lat="39.4033510" lon="-6.3538020">
        <ele>418.0</ele>
        <time>2021-10-17T16:15:19Z</time>
      </trkpt>
      <trkpt lat="39.4032660" lon="-6.3536650">
        <ele>417.6</ele>
        <time>2021-10-17T16:15:22Z</time>
      </trkpt>
      <trkpt lat="39.4032270" lon="-6.3536310">
        <ele>417.4</ele>
        <time>2021-10-17T16:15:23Z</time>
      </trkpt>
      <trkpt lat="39.4031810" lon="-6.3536100">
        <ele>417.2</ele>
        <time>2021-10-17T16:15:24Z</time>
      </trkpt>
      <trkpt lat="39.4030690" lon="-6.3535900">
        <ele>417.0</ele>
        <time>2021-10-17T16:15:26Z</time>
      </trkpt>
      <trkpt lat="39.4028880" lon="-6.3535200">
        <ele>416.0</ele>
        <time>2021-10-17T16:15:29Z</time>
      </trkpt>
      <trkpt lat="39.4028320" lon="-6.3534860">
        <ele>415.6</ele>
        <time>2021-10-17T16:15:30Z</time>
      </trkpt>
      <trkpt lat="39.4027760" lon="-6.3534450">
        <ele>415.0</ele>
        <time>2021-10-17T16:15:31Z</time>
      </trkpt>
      <trkpt lat="39.4027200" lon="-6.3534090">
        <ele>414.6</ele>
        <time>2021-10-17T16:15:32Z</time>
      </trkpt>
      <trkpt lat="39.4024280" lon="-6.3532430">
        <ele>413.4</ele>
        <time>2021-10-17T16:15:37Z</time>
      </trkpt>
      <trkpt lat="39.4023660" lon="-6.3532130">
        <ele>413.0</ele>
        <time>2021-10-17T16:15:38Z</time>
      </trkpt>
      <trkpt lat="39.4021020" lon="-6.3531090">
        <ele>412.0</ele>
        <time>2021-10-17T16:15:42Z</time>
      </trkpt>
      <trkpt lat="39.4019720" lon="-6.3530400">
        <ele>411.6</ele>
        <time>2021-10-17T16:15:44Z</time>
      </trkpt>
      <trkpt lat="39.4019120" lon="-6.3529960">
        <ele>411.2</ele>
        <time>2021-10-17T16:15:45Z</time>
      </trkpt>
      <trkpt lat="39.4018600" lon="-6.3529520">
        <ele>410.8</ele>
        <time>2021-10-17T16:15:46Z</time>
      </trkpt>
      <trkpt lat="39.4018160" lon="-6.3529140">
        <ele>410.6</ele>
        <time>2021-10-17T16:15:47Z</time>
      </trkpt>
      <trkpt lat="39.4017750" lon="-6.3528860">
        <ele>410.4</ele>
        <time>2021-10-17T16:15:48Z</time>
      </trkpt>
      <trkpt lat="39.4017020" lon="-6.3528470">
        <ele>410.0</ele>
        <time>2021-10-17T16:15:50Z</time>
      </trkpt>
      <trkpt lat="39.4016760" lon="-6.3528250">
        <ele>409.8</ele>
        <time>2021-10-17T16:15:51Z</time>
      </trkpt>
      <trkpt lat="39.4016470" lon="-6.3528020">
        <ele>409.6</ele>
        <time>2021-10-17T16:15:52Z</time>
      </trkpt>
      <trkpt lat="39.4014500" lon="-6.3526530">
        <ele>409.0</ele>
        <time>2021-10-17T16:15:57Z</time>
      </trkpt>
      <trkpt lat="39.4013660" lon="-6.3525880">
        <ele>408.8</ele>
        <time>2021-10-17T16:15:59Z</time>
      </trkpt>
      <trkpt lat="39.4011950" lon="-6.3524850">
        <ele>408.4</ele>
        <time>2021-10-17T16:16:03Z</time>
      </trkpt>
      <trkpt lat="39.4010220" lon="-6.3523970">
        <ele>408.0</ele>
        <time>2021-10-17T16:16:07Z</time>
      </trkpt>
      <trkpt lat="39.4008500" lon="-6.3523250">
        <ele>408.0</ele>
        <time>2021-10-17T16:16:11Z</time>
      </trkpt>
      <trkpt lat="39.4006980" lon="-6.3522580">
        <ele>407.8</ele>
        <time>2021-10-17T16:16:14Z</time>
      </trkpt>
      <trkpt lat="39.4004260" lon="-6.3521530">
        <ele>407.4</ele>
        <time>2021-10-17T16:16:20Z</time>
      </trkpt>
      <trkpt lat="39.4003340" lon="-6.3521320">
        <ele>407.4</ele>
        <time>2021-10-17T16:16:22Z</time>
      </trkpt>
      <trkpt lat="39.4002870" lon="-6.3521240">
        <ele>407.4</ele>
        <time>2021-10-17T16:16:23Z</time>
      </trkpt>
      <trkpt lat="39.4000960" lon="-6.3520870">
        <ele>407.0</ele>
        <time>2021-10-17T16:16:27Z</time>
      </trkpt>
      <trkpt lat="39.3999920" lon="-6.3520690">
        <ele>406.8</ele>
        <time>2021-10-17T16:16:29Z</time>
      </trkpt>
      <trkpt lat="39.3998170" lon="-6.3520190">
        <ele>406.4</ele>
        <time>2021-10-17T16:16:32Z</time>
      </trkpt>
      <trkpt lat="39.3995560" lon="-6.3519170">
        <ele>405.6</ele>
        <time>2021-10-17T16:16:36Z</time>
      </trkpt>
      <trkpt lat="39.3994210" lon="-6.3518690">
        <ele>405.2</ele>
        <time>2021-10-17T16:16:38Z</time>
      </trkpt>
      <trkpt lat="39.3993540" lon="-6.3518420">
        <ele>404.6</ele>
        <time>2021-10-17T16:16:39Z</time>
      </trkpt>
      <trkpt lat="39.3992210" lon="-6.3518150">
        <ele>403.4</ele>
        <time>2021-10-17T16:16:41Z</time>
      </trkpt>
      <trkpt lat="39.3990940" lon="-6.3517900">
        <ele>402.6</ele>
        <time>2021-10-17T16:16:43Z</time>
      </trkpt>
      <trkpt lat="39.3989110" lon="-6.3517350">
        <ele>402.2</ele>
        <time>2021-10-17T16:16:46Z</time>
      </trkpt>
      <trkpt lat="39.3986860" lon="-6.3516760">
        <ele>401.6</ele>
        <time>2021-10-17T16:16:50Z</time>
      </trkpt>
      <trkpt lat="39.3986360" lon="-6.3516480">
        <ele>401.4</ele>
        <time>2021-10-17T16:16:51Z</time>
      </trkpt>
      <trkpt lat="39.3985870" lon="-6.3516210">
        <ele>401.4</ele>
        <time>2021-10-17T16:16:52Z</time>
      </trkpt>
      <trkpt lat="39.3984340" lon="-6.3515740">
        <ele>401.2</ele>
        <time>2021-10-17T16:16:55Z</time>
      </trkpt>
      <trkpt lat="39.3982040" lon="-6.3515220">
        <ele>400.6</ele>
        <time>2021-10-17T16:17:00Z</time>
      </trkpt>
      <trkpt lat="39.3981590" lon="-6.3515080">
        <ele>400.6</ele>
        <time>2021-10-17T16:17:01Z</time>
      </trkpt>
      <trkpt lat="39.3980690" lon="-6.3514770">
        <ele>400.6</ele>
        <time>2021-10-17T16:17:03Z</time>
      </trkpt>
      <trkpt lat="39.3978820" lon="-6.3514520">
        <ele>400.6</ele>
        <time>2021-10-17T16:17:07Z</time>
      </trkpt>
      <trkpt lat="39.3975240" lon="-6.3514110">
        <ele>401.0</ele>
        <time>2021-10-17T16:17:15Z</time>
      </trkpt>
      <trkpt lat="39.3971540" lon="-6.3513580">
        <ele>401.8</ele>
        <time>2021-10-17T16:17:24Z</time>
      </trkpt>
      <trkpt lat="39.3969800" lon="-6.3513080">
        <ele>402.2</ele>
        <time>2021-10-17T16:17:28Z</time>
      </trkpt>
      <trkpt lat="39.3968440" lon="-6.3512740">
        <ele>402.4</ele>
        <time>2021-10-17T16:17:31Z</time>
      </trkpt>
      <trkpt lat="39.3967930" lon="-6.3512670">
        <ele>402.4</ele>
        <time>2021-10-17T16:17:32Z</time>
      </trkpt>
      <trkpt lat="39.3965990" lon="-6.3512040">
        <ele>402.6</ele>
        <time>2021-10-17T16:17:37Z</time>
      </trkpt>
      <trkpt lat="39.3965290" lon="-6.3511800">
        <ele>402.6</ele>
        <time>2021-10-17T16:17:39Z</time>
      </trkpt>
      <trkpt lat="39.3963070" lon="-6.3511390">
        <ele>402.6</ele>
        <time>2021-10-17T16:17:44Z</time>
      </trkpt>
      <trkpt lat="39.3960290" lon="-6.3510740">
        <ele>402.8</ele>
        <time>2021-10-17T16:17:50Z</time>
      </trkpt>
      <trkpt lat="39.3959800" lon="-6.3510610">
        <ele>402.8</ele>
        <time>2021-10-17T16:17:51Z</time>
      </trkpt>
      <trkpt lat="39.3957860" lon="-6.3510040">
        <ele>402.4</ele>
        <time>2021-10-17T16:17:55Z</time>
      </trkpt>
      <trkpt lat="39.3955890" lon="-6.3509390">
        <ele>402.0</ele>
        <time>2021-10-17T16:17:59Z</time>
      </trkpt>
      <trkpt lat="39.3954370" lon="-6.3508980">
        <ele>401.6</ele>
        <time>2021-10-17T16:18:02Z</time>
      </trkpt>
      <trkpt lat="39.3952870" lon="-6.3508390">
        <ele>401.0</ele>
        <time>2021-10-17T16:18:05Z</time>
      </trkpt>
      <trkpt lat="39.3951850" lon="-6.3507990">
        <ele>401.0</ele>
        <time>2021-10-17T16:18:07Z</time>
      </trkpt>
      <trkpt lat="39.3950790" lon="-6.3507610">
        <ele>400.8</ele>
        <time>2021-10-17T16:18:09Z</time>
      </trkpt>
      <trkpt lat="39.3949710" lon="-6.3507260">
        <ele>400.0</ele>
        <time>2021-10-17T16:18:11Z</time>
      </trkpt>
      <trkpt lat="39.3946890" lon="-6.3506610">
        <ele>399.4</ele>
        <time>2021-10-17T16:18:16Z</time>
      </trkpt>
      <trkpt lat="39.3946300" lon="-6.3506480">
        <ele>399.0</ele>
        <time>2021-10-17T16:18:17Z</time>
      </trkpt>
      <trkpt lat="39.3945730" lon="-6.3506340">
        <ele>398.8</ele>
        <time>2021-10-17T16:18:18Z</time>
      </trkpt>
      <trkpt lat="39.3944560" lon="-6.3505990">
        <ele>398.4</ele>
        <time>2021-10-17T16:18:20Z</time>
      </trkpt>
      <trkpt lat="39.3943970" lon="-6.3505930">
        <ele>398.2</ele>
        <time>2021-10-17T16:18:21Z</time>
      </trkpt>
      <trkpt lat="39.3943360" lon="-6.3505860">
        <ele>397.8</ele>
        <time>2021-10-17T16:18:22Z</time>
      </trkpt>
      <trkpt lat="39.3940060" lon="-6.3505150">
        <ele>397.0</ele>
        <time>2021-10-17T16:18:28Z</time>
      </trkpt>
      <trkpt lat="39.3939530" lon="-6.3504920">
        <ele>396.8</ele>
        <time>2021-10-17T16:18:29Z</time>
      </trkpt>
      <trkpt lat="39.3939020" lon="-6.3504700">
        <ele>396.4</ele>
        <time>2021-10-17T16:18:30Z</time>
      </trkpt>
      <trkpt lat="39.3937030" lon="-6.3503770">
        <ele>395.8</ele>
        <time>2021-10-17T16:18:34Z</time>
      </trkpt>
      <trkpt lat="39.3936510" lon="-6.3503520">
        <ele>395.8</ele>
        <time>2021-10-17T16:18:35Z</time>
      </trkpt>
      <trkpt lat="39.3935500" lon="-6.3502970">
        <ele>395.6</ele>
        <time>2021-10-17T16:18:37Z</time>
      </trkpt>
      <trkpt lat="39.3934540" lon="-6.3502250">
        <ele>395.4</ele>
        <time>2021-10-17T16:18:39Z</time>
      </trkpt>
      <trkpt lat="39.3930880" lon="-6.3500480">
        <ele>395.0</ele>
        <time>2021-10-17T16:18:46Z</time>
      </trkpt>
      <trkpt lat="39.3927650" lon="-6.3499940">
        <ele>394.8</ele>
        <time>2021-10-17T16:18:52Z</time>
      </trkpt>
      <trkpt lat="39.3926640" lon="-6.3499790">
        <ele>394.6</ele>
        <time>2021-10-17T16:18:54Z</time>
      </trkpt>
      <trkpt lat="39.3925110" lon="-6.3499560">
        <ele>394.6</ele>
        <time>2021-10-17T16:18:57Z</time>
      </trkpt>
      <trkpt lat="39.3924010" lon="-6.3499510">
        <ele>394.4</ele>
        <time>2021-10-17T16:18:59Z</time>
      </trkpt>
      <trkpt lat="39.3923490" lon="-6.3499420">
        <ele>394.4</ele>
        <time>2021-10-17T16:19:00Z</time>
      </trkpt>
      <trkpt lat="39.3920380" lon="-6.3498190">
        <ele>394.0</ele>
        <time>2021-10-17T16:19:06Z</time>
      </trkpt>
      <trkpt lat="39.3916010" lon="-6.3496360">
        <ele>394.0</ele>
        <time>2021-10-17T16:19:15Z</time>
      </trkpt>
      <trkpt lat="39.3915690" lon="-6.3496120">
        <ele>394.0</ele>
        <time>2021-10-17T16:19:16Z</time>
      </trkpt>
      <trkpt lat="39.3914680" lon="-6.3494960">
        <ele>394.2</ele>
        <time>2021-10-17T16:19:19Z</time>
      </trkpt>
      <trkpt lat="39.3914370" lon="-6.3494580">
        <ele>394.2</ele>
        <time>2021-10-17T16:19:20Z</time>
      </trkpt>
      <trkpt lat="39.3913610" lon="-6.3493980">
        <ele>394.4</ele>
        <time>2021-10-17T16:19:22Z</time>
      </trkpt>
      <trkpt lat="39.3913160" lon="-6.3493780">
        <ele>394.4</ele>
        <time>2021-10-17T16:19:23Z</time>
      </trkpt>
      <trkpt lat="39.3912200" lon="-6.3493470">
        <ele>394.4</ele>
        <time>2021-10-17T16:19:25Z</time>
      </trkpt>
      <trkpt lat="39.3910600" lon="-6.3493180">
        <ele>394.6</ele>
        <time>2021-10-17T16:19:28Z</time>
      </trkpt>
      <trkpt lat="39.3909540" lon="-6.3493090">
        <ele>394.4</ele>
        <time>2021-10-17T16:19:30Z</time>
      </trkpt>
      <trkpt lat="39.3907260" lon="-6.3493310">
        <ele>394.0</ele>
        <time>2021-10-17T16:19:34Z</time>
      </trkpt>
      <trkpt lat="39.3905120" lon="-6.3493940">
        <ele>393.8</ele>
        <time>2021-10-17T16:19:38Z</time>
      </trkpt>
      <trkpt lat="39.3904630" lon="-6.3494000">
        <ele>394.0</ele>
        <time>2021-10-17T16:19:39Z</time>
      </trkpt>
      <trkpt lat="39.3904140" lon="-6.3493980">
        <ele>394.0</ele>
        <time>2021-10-17T16:19:40Z</time>
      </trkpt>
      <trkpt lat="39.3902340" lon="-6.3493630">
        <ele>394.0</ele>
        <time>2021-10-17T16:19:44Z</time>
      </trkpt>
      <trkpt lat="39.3898890" lon="-6.3492740">
        <ele>394.0</ele>
        <time>2021-10-17T16:19:51Z</time>
      </trkpt>
      <trkpt lat="39.3897890" lon="-6.3492370">
        <ele>393.8</ele>
        <time>2021-10-17T16:19:53Z</time>
      </trkpt>
      <trkpt lat="39.3894370" lon="-6.3490870">
        <ele>393.4</ele>
        <time>2021-10-17T16:20:00Z</time>
      </trkpt>
      <trkpt lat="39.3892760" lon="-6.3490320">
        <ele>392.8</ele>
        <time>2021-10-17T16:20:03Z</time>
      </trkpt>
      <trkpt lat="39.3890490" lon="-6.3489540">
        <ele>392.0</ele>
        <time>2021-10-17T16:20:07Z</time>
      </trkpt>
      <trkpt lat="39.3888960" lon="-6.3488840">
        <ele>391.8</ele>
        <time>2021-10-17T16:20:10Z</time>
      </trkpt>
      <trkpt lat="39.3887390" lon="-6.3488370">
        <ele>391.4</ele>
        <time>2021-10-17T16:20:13Z</time>
      </trkpt>
      <trkpt lat="39.3884230" lon="-6.3487570">
        <ele>390.6</ele>
        <time>2021-10-17T16:20:19Z</time>
      </trkpt>
      <trkpt lat="39.3883770" lon="-6.3487430">
        <ele>390.6</ele>
        <time>2021-10-17T16:20:20Z</time>
      </trkpt>
      <trkpt lat="39.3882990" lon="-6.3486920">
        <ele>390.6</ele>
        <time>2021-10-17T16:20:22Z</time>
      </trkpt>
      <trkpt lat="39.3881760" lon="-6.3485650">
        <ele>390.2</ele>
        <time>2021-10-17T16:20:25Z</time>
      </trkpt>
      <trkpt lat="39.3879460" lon="-6.3481960">
        <ele>390.0</ele>
        <time>2021-10-17T16:20:32Z</time>
      </trkpt>
      <trkpt lat="39.3878300" lon="-6.3479740">
        <ele>390.0</ele>
        <time>2021-10-17T16:20:36Z</time>
      </trkpt>
      <trkpt lat="39.3877740" lon="-6.3478110">
        <ele>390.0</ele>
        <time>2021-10-17T16:20:39Z</time>
      </trkpt>
      <trkpt lat="39.3876950" lon="-6.3475070">
        <ele>390.6</ele>
        <time>2021-10-17T16:20:45Z</time>
      </trkpt>
      <trkpt lat="39.3876560" lon="-6.3472020">
        <ele>391.6</ele>
        <time>2021-10-17T16:20:52Z</time>
      </trkpt>
      <trkpt lat="39.3876520" lon="-6.3471620">
        <ele>391.8</ele>
        <time>2021-10-17T16:20:53Z</time>
      </trkpt>
      <trkpt lat="39.3875930" lon="-6.3469640">
        <ele>392.4</ele>
        <time>2021-10-17T16:20:58Z</time>
      </trkpt>
      <trkpt lat="39.3875490" lon="-6.3468970">
        <ele>392.8</ele>
        <time>2021-10-17T16:21:00Z</time>
      </trkpt>
      <trkpt lat="39.3874650" lon="-6.3468260">
        <ele>393.6</ele>
        <time>2021-10-17T16:21:03Z</time>
      </trkpt>
      <trkpt lat="39.3873760" lon="-6.3467930">
        <ele>394.0</ele>
        <time>2021-10-17T16:21:06Z</time>
      </trkpt>
      <trkpt lat="39.3872810" lon="-6.3467970">
        <ele>394.4</ele>
        <time>2021-10-17T16:21:09Z</time>
      </trkpt>
      <trkpt lat="39.3871390" lon="-6.3469090">
        <ele>395.0</ele>
        <time>2021-10-17T16:21:14Z</time>
      </trkpt>
      <trkpt lat="39.3870870" lon="-6.3469760">
        <ele>395.0</ele>
        <time>2021-10-17T16:21:16Z</time>
      </trkpt>
      <trkpt lat="39.3870620" lon="-6.3470100">
        <ele>395.2</ele>
        <time>2021-10-17T16:21:17Z</time>
      </trkpt>
      <trkpt lat="39.3868580" lon="-6.3472680">
        <ele>395.2</ele>
        <time>2021-10-17T16:21:25Z</time>
      </trkpt>
      <trkpt lat="39.3867060" lon="-6.3474660">
        <ele>395.0</ele>
        <time>2021-10-17T16:21:30Z</time>
      </trkpt>
      <trkpt lat="39.3866360" lon="-6.3475690">
        <ele>394.6</ele>
        <time>2021-10-17T16:21:32Z</time>
      </trkpt>
      <trkpt lat="39.3865420" lon="-6.3476490">
        <ele>394.6</ele>
        <time>2021-10-17T16:21:34Z</time>
      </trkpt>
      <trkpt lat="39.3864220" lon="-6.3477010">
        <ele>394.4</ele>
        <time>2021-10-17T16:21:36Z</time>
      </trkpt>
      <trkpt lat="39.3863540" lon="-6.3477200">
        <ele>394.0</ele>
        <time>2021-10-17T16:21:37Z</time>
      </trkpt>
      <trkpt lat="39.3861330" lon="-6.3477660">
        <ele>393.4</ele>
        <time>2021-10-17T16:21:40Z</time>
      </trkpt>
      <trkpt lat="39.3860320" lon="-6.3477860">
        <ele>393.0</ele>
        <time>2021-10-17T16:21:41Z</time>
      </trkpt>
      <trkpt lat="39.3858550" lon="-6.3478220">
        <ele>392.2</ele>
        <time>2021-10-17T16:21:43Z</time>
      </trkpt>
      <trkpt lat="39.3857640" lon="-6.3478390">
        <ele>391.8</ele>
        <time>2021-10-17T16:21:44Z</time>
      </trkpt>
      <trkpt lat="39.3854820" lon="-6.3478800">
        <ele>390.4</ele>
        <time>2021-10-17T16:21:47Z</time>
      </trkpt>
      <trkpt lat="39.3853140" lon="-6.3478730">
        <ele>389.4</ele>
        <time>2021-10-17T16:21:49Z</time>
      </trkpt>
      <trkpt lat="39.3851120" lon="-6.3478510">
        <ele>387.8</ele>
        <time>2021-10-17T16:21:51Z</time>
      </trkpt>
      <trkpt lat="39.3849340" lon="-6.3478290">
        <ele>386.8</ele>
        <time>2021-10-17T16:21:53Z</time>
      </trkpt>
      <trkpt lat="39.3846930" lon="-6.3477560">
        <ele>385.6</ele>
        <time>2021-10-17T16:21:56Z</time>
      </trkpt>
      <trkpt lat="39.3843650" lon="-6.3476420">
        <ele>384.2</ele>
        <time>2021-10-17T16:22:01Z</time>
      </trkpt>
      <trkpt lat="39.3841910" lon="-6.3476040">
        <ele>383.6</ele>
        <time>2021-10-17T16:22:04Z</time>
      </trkpt>
      <trkpt lat="39.3840870" lon="-6.3475580">
        <ele>383.4</ele>
        <time>2021-10-17T16:22:06Z</time>
      </trkpt>
      <trkpt lat="39.3840000" lon="-6.3475260">
        <ele>383.0</ele>
        <time>2021-10-17T16:22:08Z</time>
      </trkpt>
      <trkpt lat="39.3839410" lon="-6.3475110">
        <ele>383.0</ele>
        <time>2021-10-17T16:22:09Z</time>
      </trkpt>
      <trkpt lat="39.3838490" lon="-6.3475030">
        <ele>382.8</ele>
        <time>2021-10-17T16:22:11Z</time>
      </trkpt>
      <trkpt lat="39.3837200" lon="-6.3475820">
        <ele>382.6</ele>
        <time>2021-10-17T16:22:15Z</time>
      </trkpt>
      <trkpt lat="39.3836060" lon="-6.3476910">
        <ele>382.4</ele>
        <time>2021-10-17T16:22:20Z</time>
      </trkpt>
      <trkpt lat="39.3834430" lon="-6.3476780">
        <ele>382.4</ele>
        <time>2021-10-17T16:22:25Z</time>
      </trkpt>
      <trkpt lat="39.3832590" lon="-6.3475820">
        <ele>382.2</ele>
        <time>2021-10-17T16:22:30Z</time>
      </trkpt>
      <trkpt lat="39.3831830" lon="-6.3475530">
        <ele>382.2</ele>
        <time>2021-10-17T16:22:32Z</time>
      </trkpt>
      <trkpt lat="39.3830210" lon="-6.3475040">
        <ele>382.0</ele>
        <time>2021-10-17T16:22:36Z</time>
      </trkpt>
      <trkpt lat="39.3828130" lon="-6.3474480">
        <ele>381.8</ele>
        <time>2021-10-17T16:22:41Z</time>
      </trkpt>
      <trkpt lat="39.3826510" lon="-6.3474080">
        <ele>381.6</ele>
        <time>2021-10-17T16:22:45Z</time>
      </trkpt>
      <trkpt lat="39.3825550" lon="-6.3473630">
        <ele>381.6</ele>
        <time>2021-10-17T16:22:47Z</time>
      </trkpt>
      <trkpt lat="39.3825160" lon="-6.3473360">
        <ele>381.6</ele>
        <time>2021-10-17T16:22:48Z</time>
      </trkpt>
      <trkpt lat="39.3824770" lon="-6.3473170">
        <ele>381.6</ele>
        <time>2021-10-17T16:22:49Z</time>
      </trkpt>
      <trkpt lat="39.3823960" lon="-6.3473010">
        <ele>381.4</ele>
        <time>2021-10-17T16:22:51Z</time>
      </trkpt>
      <trkpt lat="39.3823100" lon="-6.3473020">
        <ele>381.2</ele>
        <time>2021-10-17T16:22:53Z</time>
      </trkpt>
      <trkpt lat="39.3822040" lon="-6.3472530">
        <ele>381.0</ele>
        <time>2021-10-17T16:22:56Z</time>
      </trkpt>
      <trkpt lat="39.3821210" lon="-6.3472180">
        <ele>381.0</ele>
        <time>2021-10-17T16:22:58Z</time>
      </trkpt>
      <trkpt lat="39.3817160" lon="-6.3470590">
        <ele>380.6</ele>
        <time>2021-10-17T16:23:07Z</time>
      </trkpt>
      <trkpt lat="39.3813360" lon="-6.3468760">
        <ele>380.2</ele>
        <time>2021-10-17T16:23:15Z</time>
      </trkpt>
      <trkpt lat="39.3811050" lon="-6.3467760">
        <ele>380.0</ele>
        <time>2021-10-17T16:23:20Z</time>
      </trkpt>
      <trkpt lat="39.3809660" lon="-6.3467400">
        <ele>379.6</ele>
        <time>2021-10-17T16:23:23Z</time>
      </trkpt>
      <trkpt lat="39.3806650" lon="-6.3466440">
        <ele>379.4</ele>
        <time>2021-10-17T16:23:29Z</time>
      </trkpt>
      <trkpt lat="39.3806180" lon="-6.3466260">
        <ele>379.2</ele>
        <time>2021-10-17T16:23:30Z</time>
      </trkpt>
      <trkpt lat="39.3805240" lon="-6.3465980">
        <ele>379.0</ele>
        <time>2021-10-17T16:23:32Z</time>
      </trkpt>
      <trkpt lat="39.3802360" lon="-6.3464970">
        <ele>378.6</ele>
        <time>2021-10-17T16:23:38Z</time>
      </trkpt>
      <trkpt lat="39.3801440" lon="-6.3464770">
        <ele>378.0</ele>
        <time>2021-10-17T16:23:40Z</time>
      </trkpt>
      <trkpt lat="39.3798390" lon="-6.3463980">
        <ele>377.6</ele>
        <time>2021-10-17T16:23:47Z</time>
      </trkpt>
      <trkpt lat="39.3797960" lon="-6.3463780">
        <ele>377.6</ele>
        <time>2021-10-17T16:23:48Z</time>
      </trkpt>
      <trkpt lat="39.3796130" lon="-6.3462550">
        <ele>377.6</ele>
        <time>2021-10-17T16:23:53Z</time>
      </trkpt>
      <trkpt lat="39.3795410" lon="-6.3462230">
        <ele>377.6</ele>
        <time>2021-10-17T16:23:55Z</time>
      </trkpt>
      <trkpt lat="39.3794260" lon="-6.3462110">
        <ele>377.2</ele>
        <time>2021-10-17T16:23:58Z</time>
      </trkpt>
      <trkpt lat="39.3791540" lon="-6.3462150">
        <ele>377.2</ele>
        <time>2021-10-17T16:24:05Z</time>
      </trkpt>
      <trkpt lat="39.3789580" lon="-6.3461660">
        <ele>377.2</ele>
        <time>2021-10-17T16:24:11Z</time>
      </trkpt>
      <trkpt lat="39.3788270" lon="-6.3461660">
        <ele>377.6</ele>
        <time>2021-10-17T16:24:16Z</time>
      </trkpt>
      <trkpt lat="39.3787830" lon="-6.3461930">
        <ele>377.8</ele>
        <time>2021-10-17T16:24:21Z</time>
      </trkpt>
      <trkpt lat="39.3787830" lon="-6.3461930">
        <ele>377.8</ele>
        <time>2021-10-17T16:24:22Z</time>
      </trkpt>
      <trkpt lat="39.3787490" lon="-6.3462260">
        <ele>377.8</ele>
        <time>2021-10-17T16:24:40Z</time>
      </trkpt>
      <trkpt lat="39.3787200" lon="-6.3462390">
        <ele>377.8</ele>
        <time>2021-10-17T16:24:41Z</time>
      </trkpt>
      <trkpt lat="39.3787000" lon="-6.3462480">
        <ele>377.8</ele>
        <time>2021-10-17T16:24:42Z</time>
      </trkpt>
      <trkpt lat="39.3785460" lon="-6.3462360">
        <ele>377.6</ele>
        <time>2021-10-17T16:24:47Z</time>
      </trkpt>
      <trkpt lat="39.3782230" lon="-6.3461310">
        <ele>377.4</ele>
        <time>2021-10-17T16:24:56Z</time>
      </trkpt>
      <trkpt lat="39.3781330" lon="-6.3461490">
        <ele>377.2</ele>
        <time>2021-10-17T16:24:59Z</time>
      </trkpt>
      <trkpt lat="39.3781150" lon="-6.3461770">
        <ele>377.2</ele>
        <time>2021-10-17T16:25:00Z</time>
      </trkpt>
      <trkpt lat="39.3780920" lon="-6.3462200">
        <ele>377.0</ele>
        <time>2021-10-17T16:25:02Z</time>
      </trkpt>
      <trkpt lat="39.3780800" lon="-6.3462340">
        <ele>377.0</ele>
        <time>2021-10-17T16:25:03Z</time>
      </trkpt>
      <trkpt lat="39.3780590" lon="-6.3462270">
        <ele>377.2</ele>
        <time>2021-10-17T16:25:05Z</time>
      </trkpt>
      <trkpt lat="39.3779620" lon="-6.3461670">
        <ele>377.0</ele>
        <time>2021-10-17T16:25:10Z</time>
      </trkpt>
      <trkpt lat="39.3777710" lon="-6.3460740">
        <ele>376.8</ele>
        <time>2021-10-17T16:25:15Z</time>
      </trkpt>
      <trkpt lat="39.3774710" lon="-6.3459570">
        <ele>376.0</ele>
        <time>2021-10-17T16:25:22Z</time>
      </trkpt>
      <trkpt lat="39.3772940" lon="-6.3459070">
        <ele>375.6</ele>
        <time>2021-10-17T16:25:26Z</time>
      </trkpt>
      <trkpt lat="39.3771380" lon="-6.3458640">
        <ele>375.4</ele>
        <time>2021-10-17T16:25:30Z</time>
      </trkpt>
      <trkpt lat="39.3770390" lon="-6.3458390">
        <ele>375.0</ele>
        <time>2021-10-17T16:25:33Z</time>
      </trkpt>
      <trkpt lat="39.3770100" lon="-6.3458390">
        <ele>375.0</ele>
        <time>2021-10-17T16:25:34Z</time>
      </trkpt>
      <trkpt lat="39.3769860" lon="-6.3458470">
        <ele>375.0</ele>
        <time>2021-10-17T16:25:35Z</time>
      </trkpt>
      <trkpt lat="39.3768910" lon="-6.3459630">
        <ele>375.0</ele>
        <time>2021-10-17T16:25:41Z</time>
      </trkpt>
      <trkpt lat="39.3768500" lon="-6.3460050">
        <ele>375.0</ele>
        <time>2021-10-17T16:25:44Z</time>
      </trkpt>
      <trkpt lat="39.3768150" lon="-6.3460610">
        <ele>375.2</ele>
        <time>2021-10-17T16:25:48Z</time>
      </trkpt>
      <trkpt lat="39.3767990" lon="-6.3461810">
        <ele>375.4</ele>
        <time>2021-10-17T16:25:55Z</time>
      </trkpt>
      <trkpt lat="39.3767850" lon="-6.3461610">
        <ele>375.4</ele>
        <time>2021-10-17T16:25:58Z</time>
      </trkpt>
      <trkpt lat="39.3768580" lon="-6.3460130">
        <ele>375.4</ele>
        <time>2021-10-17T16:26:03Z</time>
      </trkpt>
      <trkpt lat="39.3769570" lon="-6.3458580">
        <ele>375.4</ele>
        <time>2021-10-17T16:26:08Z</time>
      </trkpt>
      <trkpt lat="39.3769560" lon="-6.3457770">
        <ele>375.4</ele>
        <time>2021-10-17T16:26:10Z</time>
      </trkpt>
      <trkpt lat="39.3769350" lon="-6.3457450">
        <ele>375.2</ele>
        <time>2021-10-17T16:26:11Z</time>
      </trkpt>
      <trkpt lat="39.3768660" lon="-6.3457290">
        <ele>374.8</ele>
        <time>2021-10-17T16:26:13Z</time>
      </trkpt>
      <trkpt lat="39.3768310" lon="-6.3457410">
        <ele>374.8</ele>
        <time>2021-10-17T16:26:14Z</time>
      </trkpt>
      <trkpt lat="39.3767220" lon="-6.3457940">
        <ele>374.6</ele>
        <time>2021-10-17T16:26:19Z</time>
      </trkpt>
      <trkpt lat="39.3766620" lon="-6.3457860">
        <ele>374.6</ele>
        <time>2021-10-17T16:26:23Z</time>
      </trkpt>
      <trkpt lat="39.3766020" lon="-6.3458020">
        <ele>374.6</ele>
        <time>2021-10-17T16:26:27Z</time>
      </trkpt>
      <trkpt lat="39.3764950" lon="-6.3458050">
        <ele>374.6</ele>
        <time>2021-10-17T16:26:33Z</time>
      </trkpt>
      <trkpt lat="39.3764580" lon="-6.3458020">
        <ele>374.4</ele>
        <time>2021-10-17T16:26:35Z</time>
      </trkpt>
      <trkpt lat="39.3764050" lon="-6.3457950">
        <ele>374.4</ele>
        <time>2021-10-17T16:26:41Z</time>
      </trkpt>
      <trkpt lat="39.3764050" lon="-6.3457950">
        <ele>374.4</ele>
        <time>2021-10-17T16:26:42Z</time>
      </trkpt>
      <trkpt lat="39.3763360" lon="-6.3457850">
        <ele>374.0</ele>
        <time>2021-10-17T16:27:10Z</time>
      </trkpt>
      <trkpt lat="39.3762790" lon="-6.3457750">
        <ele>374.0</ele>
        <time>2021-10-17T16:27:12Z</time>
      </trkpt>
      <trkpt lat="39.3760930" lon="-6.3457800">
        <ele>374.2</ele>
        <time>2021-10-17T16:27:17Z</time>
      </trkpt>
      <trkpt lat="39.3758300" lon="-6.3458980">
        <ele>374.2</ele>
        <time>2021-10-17T16:27:24Z</time>
      </trkpt>
      <trkpt lat="39.3756310" lon="-6.3461350">
        <ele>374.6</ele>
        <time>2021-10-17T16:27:31Z</time>
      </trkpt>
      <trkpt lat="39.3754990" lon="-6.3464010">
        <ele>374.8</ele>
        <time>2021-10-17T16:27:38Z</time>
      </trkpt>
      <trkpt lat="39.3754870" lon="-6.3464350">
        <ele>374.8</ele>
        <time>2021-10-17T16:27:39Z</time>
      </trkpt>
      <trkpt lat="39.3754430" lon="-6.3465090">
        <ele>374.8</ele>
        <time>2021-10-17T16:27:41Z</time>
      </trkpt>
      <trkpt lat="39.3753790" lon="-6.3465420">
        <ele>374.8</ele>
        <time>2021-10-17T16:27:43Z</time>
      </trkpt>
      <trkpt lat="39.3751200" lon="-6.3465400">
        <ele>374.8</ele>
        <time>2021-10-17T16:27:51Z</time>
      </trkpt>
      <trkpt lat="39.3748160" lon="-6.3465020">
        <ele>374.2</ele>
        <time>2021-10-17T16:27:59Z</time>
      </trkpt>
      <trkpt lat="39.3747700" lon="-6.3465020">
        <ele>374.2</ele>
        <time>2021-10-17T16:28:00Z</time>
      </trkpt>
      <trkpt lat="39.3746770" lon="-6.3464980">
        <ele>373.6</ele>
        <time>2021-10-17T16:28:02Z</time>
      </trkpt>
      <trkpt lat="39.3745780" lon="-6.3465030">
        <ele>373.4</ele>
        <time>2021-10-17T16:28:04Z</time>
      </trkpt>
      <trkpt lat="39.3743780" lon="-6.3465130">
        <ele>372.8</ele>
        <time>2021-10-17T16:28:08Z</time>
      </trkpt>
      <trkpt lat="39.3741300" lon="-6.3464990">
        <ele>372.4</ele>
        <time>2021-10-17T16:28:13Z</time>
      </trkpt>
      <trkpt lat="39.3739880" lon="-6.3464890">
        <ele>372.0</ele>
        <time>2021-10-17T16:28:16Z</time>
      </trkpt>
      <trkpt lat="39.3738990" lon="-6.3464730">
        <ele>371.8</ele>
        <time>2021-10-17T16:28:18Z</time>
      </trkpt>
      <trkpt lat="39.3738090" lon="-6.3464620">
        <ele>371.8</ele>
        <time>2021-10-17T16:28:20Z</time>
      </trkpt>
      <trkpt lat="39.3737600" lon="-6.3464580">
        <ele>371.8</ele>
        <time>2021-10-17T16:28:21Z</time>
      </trkpt>
      <trkpt lat="39.3736200" lon="-6.3464930">
        <ele>371.4</ele>
        <time>2021-10-17T16:28:24Z</time>
      </trkpt>
      <trkpt lat="39.3735740" lon="-6.3465010">
        <ele>371.4</ele>
        <time>2021-10-17T16:28:25Z</time>
      </trkpt>
      <trkpt lat="39.3733570" lon="-6.3464950">
        <ele>371.0</ele>
        <time>2021-10-17T16:28:30Z</time>
      </trkpt>
      <trkpt lat="39.3733130" lon="-6.3464970">
        <ele>371.0</ele>
        <time>2021-10-17T16:28:31Z</time>
      </trkpt>
      <trkpt lat="39.3732230" lon="-6.3465180">
        <ele>370.8</ele>
        <time>2021-10-17T16:28:33Z</time>
      </trkpt>
      <trkpt lat="39.3731330" lon="-6.3465580">
        <ele>370.8</ele>
        <time>2021-10-17T16:28:35Z</time>
      </trkpt>
      <trkpt lat="39.3729390" lon="-6.3465820">
        <ele>370.4</ele>
        <time>2021-10-17T16:28:39Z</time>
      </trkpt>
      <trkpt lat="39.3728370" lon="-6.3465800">
        <ele>370.2</ele>
        <time>2021-10-17T16:28:41Z</time>
      </trkpt>
      <trkpt lat="39.3725540" lon="-6.3465600">
        <ele>369.8</ele>
        <time>2021-10-17T16:28:46Z</time>
      </trkpt>
      <trkpt lat="39.3724310" lon="-6.3465610">
        <ele>369.4</ele>
        <time>2021-10-17T16:28:48Z</time>
      </trkpt>
      <trkpt lat="39.3723080" lon="-6.3465570">
        <ele>368.8</ele>
        <time>2021-10-17T16:28:50Z</time>
      </trkpt>
      <trkpt lat="39.3722470" lon="-6.3465460">
        <ele>368.8</ele>
        <time>2021-10-17T16:28:51Z</time>
      </trkpt>
      <trkpt lat="39.3720620" lon="-6.3465240">
        <ele>367.6</ele>
        <time>2021-10-17T16:28:54Z</time>
      </trkpt>
      <trkpt lat="39.3717800" lon="-6.3465140">
        <ele>366.6</ele>
        <time>2021-10-17T16:28:59Z</time>
      </trkpt>
      <trkpt lat="39.3716740" lon="-6.3465170">
        <ele>366.2</ele>
        <time>2021-10-17T16:29:01Z</time>
      </trkpt>
      <trkpt lat="39.3715190" lon="-6.3465210">
        <ele>366.0</ele>
        <time>2021-10-17T16:29:04Z</time>
      </trkpt>
      <trkpt lat="39.3713070" lon="-6.3464980">
        <ele>365.6</ele>
        <time>2021-10-17T16:29:08Z</time>
      </trkpt>
      <trkpt lat="39.3708880" lon="-6.3464700">
        <ele>365.6</ele>
        <time>2021-10-17T16:29:16Z</time>
      </trkpt>
      <trkpt lat="39.3708320" lon="-6.3464640">
        <ele>365.4</ele>
        <time>2021-10-17T16:29:17Z</time>
      </trkpt>
      <trkpt lat="39.3703640" lon="-6.3464980">
        <ele>365.0</ele>
        <time>2021-10-17T16:29:26Z</time>
      </trkpt>
      <trkpt lat="39.3699110" lon="-6.3464690">
        <ele>364.6</ele>
        <time>2021-10-17T16:29:35Z</time>
      </trkpt>
      <trkpt lat="39.3695320" lon="-6.3464510">
        <ele>364.0</ele>
        <time>2021-10-17T16:29:43Z</time>
      </trkpt>
      <trkpt lat="39.3692860" lon="-6.3464360">
        <ele>363.6</ele>
        <time>2021-10-17T16:29:48Z</time>
      </trkpt>
      <trkpt lat="39.3690340" lon="-6.3464360">
        <ele>363.2</ele>
        <time>2021-10-17T16:29:53Z</time>
      </trkpt>
      <trkpt lat="39.3688490" lon="-6.3464450">
        <ele>363.0</ele>
        <time>2021-10-17T16:29:57Z</time>
      </trkpt>
      <trkpt lat="39.3686990" lon="-6.3464240">
        <ele>363.0</ele>
        <time>2021-10-17T16:30:00Z</time>
      </trkpt>
      <trkpt lat="39.3683190" lon="-6.3463800">
        <ele>362.6</ele>
        <time>2021-10-17T16:30:08Z</time>
      </trkpt>
      <trkpt lat="39.3680370" lon="-6.3463420">
        <ele>362.2</ele>
        <time>2021-10-17T16:30:15Z</time>
      </trkpt>
      <trkpt lat="39.3679950" lon="-6.3463430">
        <ele>362.2</ele>
        <time>2021-10-17T16:30:16Z</time>
      </trkpt>
      <trkpt lat="39.3677690" lon="-6.3464060">
        <ele>361.8</ele>
        <time>2021-10-17T16:30:22Z</time>
      </trkpt>
      <trkpt lat="39.3676010" lon="-6.3463910">
        <ele>361.4</ele>
        <time>2021-10-17T16:30:26Z</time>
      </trkpt>
      <trkpt lat="39.3675070" lon="-6.3463800">
        <ele>361.4</ele>
        <time>2021-10-17T16:30:28Z</time>
      </trkpt>
      <trkpt lat="39.3672710" lon="-6.3463530">
        <ele>360.8</ele>
        <time>2021-10-17T16:30:34Z</time>
      </trkpt>
      <trkpt lat="39.3671660" lon="-6.3463410">
        <ele>360.8</ele>
        <time>2021-10-17T16:30:37Z</time>
      </trkpt>
      <trkpt lat="39.3669470" lon="-6.3463040">
        <ele>361.4</ele>
        <time>2021-10-17T16:30:43Z</time>
      </trkpt>
      <trkpt lat="39.3668700" lon="-6.3462920">
        <ele>361.4</ele>
        <time>2021-10-17T16:30:45Z</time>
      </trkpt>
      <trkpt lat="39.3667460" lon="-6.3462800">
        <ele>361.4</ele>
        <time>2021-10-17T16:30:48Z</time>
      </trkpt>
      <trkpt lat="39.3664800" lon="-6.3462460">
        <ele>361.2</ele>
        <time>2021-10-17T16:30:54Z</time>
      </trkpt>
      <trkpt lat="39.3664320" lon="-6.3462430">
        <ele>361.0</ele>
        <time>2021-10-17T16:30:55Z</time>
      </trkpt>
      <trkpt lat="39.3663430" lon="-6.3462760">
        <ele>360.8</ele>
        <time>2021-10-17T16:30:57Z</time>
      </trkpt>
      <trkpt lat="39.3663130" lon="-6.3463120">
        <ele>360.6</ele>
        <time>2021-10-17T16:30:58Z</time>
      </trkpt>
      <trkpt lat="39.3662950" lon="-6.3463580">
        <ele>360.4</ele>
        <time>2021-10-17T16:30:59Z</time>
      </trkpt>
      <trkpt lat="39.3662810" lon="-6.3464330">
        <ele>360.0</ele>
        <time>2021-10-17T16:31:01Z</time>
      </trkpt>
      <trkpt lat="39.3662840" lon="-6.3464670">
        <ele>359.6</ele>
        <time>2021-10-17T16:31:04Z</time>
      </trkpt>
      <trkpt lat="39.3662840" lon="-6.3464670">
        <ele>359.6</ele>
        <time>2021-10-17T16:31:05Z</time>
      </trkpt>
      <trkpt lat="39.3662810" lon="-6.3465090">
        <ele>359.0</ele>
        <time>2021-10-17T16:32:13Z</time>
      </trkpt>
      <trkpt lat="39.3662870" lon="-6.3465390">
        <ele>359.0</ele>
        <time>2021-10-17T16:32:14Z</time>
      </trkpt>
      <trkpt lat="39.3662980" lon="-6.3465790">
        <ele>359.0</ele>
        <time>2021-10-17T16:32:15Z</time>
      </trkpt>
      <trkpt lat="39.3663490" lon="-6.3467660">
        <ele>359.2</ele>
        <time>2021-10-17T16:32:20Z</time>
      </trkpt>
      <trkpt lat="39.3663470" lon="-6.3468080">
        <ele>359.2</ele>
        <time>2021-10-17T16:32:21Z</time>
      </trkpt>
      <trkpt lat="39.3663130" lon="-6.3469790">
        <ele>359.2</ele>
        <time>2021-10-17T16:32:25Z</time>
      </trkpt>
      <trkpt lat="39.3662790" lon="-6.3471090">
        <ele>359.4</ele>
        <time>2021-10-17T16:32:28Z</time>
      </trkpt>
      <trkpt lat="39.3661430" lon="-6.3473900">
        <ele>359.4</ele>
        <time>2021-10-17T16:32:35Z</time>
      </trkpt>
      <trkpt lat="39.3659710" lon="-6.3474940">
        <ele>359.4</ele>
        <time>2021-10-17T16:32:40Z</time>
      </trkpt>
      <trkpt lat="39.3657860" lon="-6.3474970">
        <ele>359.4</ele>
        <time>2021-10-17T16:32:45Z</time>
      </trkpt>
      <trkpt lat="39.3657090" lon="-6.3475010">
        <ele>359.4</ele>
        <time>2021-10-17T16:32:47Z</time>
      </trkpt>
      <trkpt lat="39.3653970" lon="-6.3476160">
        <ele>359.8</ele>
        <time>2021-10-17T16:32:56Z</time>
      </trkpt>
      <trkpt lat="39.3653430" lon="-6.3476500">
        <ele>360.0</ele>
        <time>2021-10-17T16:32:58Z</time>
      </trkpt>
      <trkpt lat="39.3652590" lon="-6.3477160">
        <ele>360.6</ele>
        <time>2021-10-17T16:33:02Z</time>
      </trkpt>
      <trkpt lat="39.3652190" lon="-6.3477470">
        <ele>361.0</ele>
        <time>2021-10-17T16:33:04Z</time>
      </trkpt>
      <trkpt lat="39.3651130" lon="-6.3478410">
        <ele>361.8</ele>
        <time>2021-10-17T16:33:09Z</time>
      </trkpt>
      <trkpt lat="39.3650740" lon="-6.3478790">
        <ele>362.2</ele>
        <time>2021-10-17T16:33:11Z</time>
      </trkpt>
      <trkpt lat="39.3649570" lon="-6.3479960">
        <ele>362.6</ele>
        <time>2021-10-17T16:33:17Z</time>
      </trkpt>
      <trkpt lat="39.3648550" lon="-6.3480900">
        <ele>363.4</ele>
        <time>2021-10-17T16:33:22Z</time>
      </trkpt>
      <trkpt lat="39.3647750" lon="-6.3481640">
        <ele>363.8</ele>
        <time>2021-10-17T16:33:26Z</time>
      </trkpt>
      <trkpt lat="39.3647130" lon="-6.3482170">
        <ele>364.0</ele>
        <time>2021-10-17T16:33:29Z</time>
      </trkpt>
      <trkpt lat="39.3646450" lon="-6.3482550">
        <ele>364.4</ele>
        <time>2021-10-17T16:33:32Z</time>
      </trkpt>
      <trkpt lat="39.3646040" lon="-6.3482800">
        <ele>364.4</ele>
        <time>2021-10-17T16:33:34Z</time>
      </trkpt>
      <trkpt lat="39.3644530" lon="-6.3483370">
        <ele>365.0</ele>
        <time>2021-10-17T16:33:40Z</time>
      </trkpt>
      <trkpt lat="39.3644110" lon="-6.3483500">
        <ele>365.2</ele>
        <time>2021-10-17T16:33:42Z</time>
      </trkpt>
      <trkpt lat="39.3643330" lon="-6.3483450">
        <ele>365.4</ele>
        <time>2021-10-17T16:33:45Z</time>
      </trkpt>
      <trkpt lat="39.3642860" lon="-6.3483570">
        <ele>365.6</ele>
        <time>2021-10-17T16:33:47Z</time>
      </trkpt>
      <trkpt lat="39.3640830" lon="-6.3484230">
        <ele>366.2</ele>
        <time>2021-10-17T16:33:55Z</time>
      </trkpt>
      <trkpt lat="39.3638850" lon="-6.3484420">
        <ele>366.2</ele>
        <time>2021-10-17T16:34:02Z</time>
      </trkpt>
      <trkpt lat="39.3637390" lon="-6.3484580">
        <ele>366.4</ele>
        <time>2021-10-17T16:34:07Z</time>
      </trkpt>
      <trkpt lat="39.3636500" lon="-6.3484560">
        <ele>366.6</ele>
        <time>2021-10-17T16:34:10Z</time>
      </trkpt>
      <trkpt lat="39.3635020" lon="-6.3484640">
        <ele>366.6</ele>
        <time>2021-10-17T16:34:15Z</time>
      </trkpt>
      <trkpt lat="39.3634090" lon="-6.3484630">
        <ele>366.8</ele>
        <time>2021-10-17T16:34:18Z</time>
      </trkpt>
      <trkpt lat="39.3633150" lon="-6.3484530">
        <ele>366.8</ele>
        <time>2021-10-17T16:34:21Z</time>
      </trkpt>
      <trkpt lat="39.3631610" lon="-6.3484370">
        <ele>367.0</ele>
        <time>2021-10-17T16:34:26Z</time>
      </trkpt>
      <trkpt lat="39.3630650" lon="-6.3484160">
        <ele>367.0</ele>
        <time>2021-10-17T16:34:29Z</time>
      </trkpt>
      <trkpt lat="39.3628720" lon="-6.3483880">
        <ele>367.2</ele>
        <time>2021-10-17T16:34:35Z</time>
      </trkpt>
      <trkpt lat="39.3627040" lon="-6.3483620">
        <ele>367.6</ele>
        <time>2021-10-17T16:34:40Z</time>
      </trkpt>
      <trkpt lat="39.3625950" lon="-6.3483400">
        <ele>368.0</ele>
        <time>2021-10-17T16:34:43Z</time>
      </trkpt>
      <trkpt lat="39.3622490" lon="-6.3483220">
        <ele>368.4</ele>
        <time>2021-10-17T16:34:53Z</time>
      </trkpt>
      <trkpt lat="39.3620790" lon="-6.3483090">
        <ele>368.6</ele>
        <time>2021-10-17T16:34:58Z</time>
      </trkpt>
      <trkpt lat="39.3619740" lon="-6.3483060">
        <ele>368.6</ele>
        <time>2021-10-17T16:35:01Z</time>
      </trkpt>
      <trkpt lat="39.3619050" lon="-6.3483030">
        <ele>368.6</ele>
        <time>2021-10-17T16:35:03Z</time>
      </trkpt>
      <trkpt lat="39.3616280" lon="-6.3483060">
        <ele>368.6</ele>
        <time>2021-10-17T16:35:11Z</time>
      </trkpt>
      <trkpt lat="39.3614340" lon="-6.3482470">
        <ele>368.6</ele>
        <time>2021-10-17T16:35:17Z</time>
      </trkpt>
      <trkpt lat="39.3614000" lon="-6.3482300">
        <ele>368.8</ele>
        <time>2021-10-17T16:35:18Z</time>
      </trkpt>
      <trkpt lat="39.3613340" lon="-6.3482040">
        <ele>368.8</ele>
        <time>2021-10-17T16:35:20Z</time>
      </trkpt>
      <trkpt lat="39.3609610" lon="-6.3480680">
        <ele>369.0</ele>
        <time>2021-10-17T16:35:31Z</time>
      </trkpt>
      <trkpt lat="39.3607040" lon="-6.3479820">
        <ele>369.4</ele>
        <time>2021-10-17T16:35:39Z</time>
      </trkpt>
      <trkpt lat="39.3605830" lon="-6.3479430">
        <ele>369.8</ele>
        <time>2021-10-17T16:35:43Z</time>
      </trkpt>
      <trkpt lat="39.3604120" lon="-6.3478880">
        <ele>370.0</ele>
        <time>2021-10-17T16:35:49Z</time>
      </trkpt>
      <trkpt lat="39.3601200" lon="-6.3478280">
        <ele>370.8</ele>
        <time>2021-10-17T16:35:59Z</time>
      </trkpt>
      <trkpt lat="39.3600940" lon="-6.3478240">
        <ele>370.8</ele>
        <time>2021-10-17T16:36:00Z</time>
      </trkpt>
      <trkpt lat="39.3599040" lon="-6.3478170">
        <ele>371.6</ele>
        <time>2021-10-17T16:36:07Z</time>
      </trkpt>
      <trkpt lat="39.3598500" lon="-6.3478110">
        <ele>372.0</ele>
        <time>2021-10-17T16:36:09Z</time>
      </trkpt>
      <trkpt lat="39.3596990" lon="-6.3478040">
        <ele>372.4</ele>
        <time>2021-10-17T16:36:15Z</time>
      </trkpt>
      <trkpt lat="39.3594610" lon="-6.3477820">
        <ele>373.0</ele>
        <time>2021-10-17T16:36:24Z</time>
      </trkpt>
      <trkpt lat="39.3593810" lon="-6.3477820">
        <ele>373.2</ele>
        <time>2021-10-17T16:36:27Z</time>
      </trkpt>
      <trkpt lat="39.3592560" lon="-6.3477870">
        <ele>373.6</ele>
        <time>2021-10-17T16:36:32Z</time>
      </trkpt>
      <trkpt lat="39.3592360" lon="-6.3477850">
        <ele>373.6</ele>
        <time>2021-10-17T16:36:33Z</time>
      </trkpt>
      <trkpt lat="39.3591560" lon="-6.3477810">
        <ele>373.8</ele>
        <time>2021-10-17T16:36:36Z</time>
      </trkpt>
      <trkpt lat="39.3590300" lon="-6.3477640">
        <ele>374.0</ele>
        <time>2021-10-17T16:36:41Z</time>
      </trkpt>
      <trkpt lat="39.3589280" lon="-6.3477480">
        <ele>374.4</ele>
        <time>2021-10-17T16:36:45Z</time>
      </trkpt>
      <trkpt lat="39.3587250" lon="-6.3477100">
        <ele>374.8</ele>
        <time>2021-10-17T16:36:53Z</time>
      </trkpt>
      <trkpt lat="39.3586160" lon="-6.3476800">
        <ele>375.0</ele>
        <time>2021-10-17T16:36:57Z</time>
      </trkpt>
      <trkpt lat="39.3585910" lon="-6.3476740">
        <ele>375.2</ele>
        <time>2021-10-17T16:36:58Z</time>
      </trkpt>
      <trkpt lat="39.3584200" lon="-6.3476340">
        <ele>375.6</ele>
        <time>2021-10-17T16:37:05Z</time>
      </trkpt>
      <trkpt lat="39.3580570" lon="-6.3475600">
        <ele>376.2</ele>
        <time>2021-10-17T16:37:19Z</time>
      </trkpt>
      <trkpt lat="39.3577630" lon="-6.3475050">
        <ele>377.0</ele>
        <time>2021-10-17T16:37:30Z</time>
      </trkpt>
      <trkpt lat="39.3575940" lon="-6.3474880">
        <ele>377.0</ele>
        <time>2021-10-17T16:37:36Z</time>
      </trkpt>
      <trkpt lat="39.3575090" lon="-6.3474800">
        <ele>377.4</ele>
        <time>2021-10-17T16:37:39Z</time>
      </trkpt>
      <trkpt lat="39.3572750" lon="-6.3474530">
        <ele>377.6</ele>
        <time>2021-10-17T16:37:47Z</time>
      </trkpt>
      <trkpt lat="39.3570030" lon="-6.3474090">
        <ele>378.0</ele>
        <time>2021-10-17T16:37:56Z</time>
      </trkpt>
      <trkpt lat="39.3566960" lon="-6.3473890">
        <ele>378.4</ele>
        <time>2021-10-17T16:38:06Z</time>
      </trkpt>
      <trkpt lat="39.3566030" lon="-6.3473930">
        <ele>378.4</ele>
        <time>2021-10-17T16:38:09Z</time>
      </trkpt>
      <trkpt lat="39.3564420" lon="-6.3473970">
        <ele>378.4</ele>
        <time>2021-10-17T16:38:14Z</time>
      </trkpt>
      <trkpt lat="39.3561460" lon="-6.3474700">
        <ele>379.0</ele>
        <time>2021-10-17T16:38:23Z</time>
      </trkpt>
      <trkpt lat="39.3558520" lon="-6.3476120">
        <ele>379.2</ele>
        <time>2021-10-17T16:38:32Z</time>
      </trkpt>
      <trkpt lat="39.3558180" lon="-6.3476270">
        <ele>379.2</ele>
        <time>2021-10-17T16:38:33Z</time>
      </trkpt>
      <trkpt lat="39.3556660" lon="-6.3477170">
        <ele>379.4</ele>
        <time>2021-10-17T16:38:38Z</time>
      </trkpt>
      <trkpt lat="39.3556370" lon="-6.3477300">
        <ele>379.4</ele>
        <time>2021-10-17T16:38:39Z</time>
      </trkpt>
      <trkpt lat="39.3555170" lon="-6.3477550">
        <ele>379.6</ele>
        <time>2021-10-17T16:38:43Z</time>
      </trkpt>
      <trkpt lat="39.3554050" lon="-6.3477730">
        <ele>379.6</ele>
        <time>2021-10-17T16:38:47Z</time>
      </trkpt>
      <trkpt lat="39.3553030" lon="-6.3477670">
        <ele>379.8</ele>
        <time>2021-10-17T16:38:50Z</time>
      </trkpt>
      <trkpt lat="39.3551720" lon="-6.3478170">
        <ele>379.8</ele>
        <time>2021-10-17T16:38:54Z</time>
      </trkpt>
      <trkpt lat="39.3551380" lon="-6.3478270">
        <ele>379.8</ele>
        <time>2021-10-17T16:38:55Z</time>
      </trkpt>
      <trkpt lat="39.3549050" lon="-6.3478800">
        <ele>380.0</ele>
        <time>2021-10-17T16:39:02Z</time>
      </trkpt>
      <trkpt lat="39.3547170" lon="-6.3479080">
        <ele>380.0</ele>
        <time>2021-10-17T16:39:08Z</time>
      </trkpt>
      <trkpt lat="39.3545810" lon="-6.3479500">
        <ele>380.2</ele>
        <time>2021-10-17T16:39:12Z</time>
      </trkpt>
      <trkpt lat="39.3544440" lon="-6.3479920">
        <ele>380.4</ele>
        <time>2021-10-17T16:39:16Z</time>
      </trkpt>
      <trkpt lat="39.3541810" lon="-6.3480430">
        <ele>380.4</ele>
        <time>2021-10-17T16:39:24Z</time>
      </trkpt>
      <trkpt lat="39.3538390" lon="-6.3480510">
        <ele>380.4</ele>
        <time>2021-10-17T16:39:33Z</time>
      </trkpt>
      <trkpt lat="39.3536700" lon="-6.3480630">
        <ele>380.4</ele>
        <time>2021-10-17T16:39:38Z</time>
      </trkpt>
      <trkpt lat="39.3536000" lon="-6.3480670">
        <ele>380.6</ele>
        <time>2021-10-17T16:39:40Z</time>
      </trkpt>
      <trkpt lat="39.3534620" lon="-6.3480630">
        <ele>380.8</ele>
        <time>2021-10-17T16:39:44Z</time>
      </trkpt>
      <trkpt lat="39.3532310" lon="-6.3481220">
        <ele>381.2</ele>
        <time>2021-10-17T16:39:51Z</time>
      </trkpt>
      <trkpt lat="39.3530740" lon="-6.3482100">
        <ele>381.4</ele>
        <time>2021-10-17T16:39:56Z</time>
      </trkpt>
      <trkpt lat="39.3529010" lon="-6.3482440">
        <ele>381.8</ele>
        <time>2021-10-17T16:40:02Z</time>
      </trkpt>
      <trkpt lat="39.3528410" lon="-6.3482470">
        <ele>382.0</ele>
        <time>2021-10-17T16:40:04Z</time>
      </trkpt>
      <trkpt lat="39.3525770" lon="-6.3482540">
        <ele>382.4</ele>
        <time>2021-10-17T16:40:13Z</time>
      </trkpt>
      <trkpt lat="39.3524230" lon="-6.3482550">
        <ele>382.8</ele>
        <time>2021-10-17T16:40:18Z</time>
      </trkpt>
      <trkpt lat="39.3523350" lon="-6.3482390">
        <ele>383.0</ele>
        <time>2021-10-17T16:40:21Z</time>
      </trkpt>
      <trkpt lat="39.3520940" lon="-6.3481750">
        <ele>383.4</ele>
        <time>2021-10-17T16:40:29Z</time>
      </trkpt>
      <trkpt lat="39.3518670" lon="-6.3481500">
        <ele>383.8</ele>
        <time>2021-10-17T16:40:37Z</time>
      </trkpt>
      <trkpt lat="39.3516850" lon="-6.3481530">
        <ele>384.0</ele>
        <time>2021-10-17T16:40:43Z</time>
      </trkpt>
      <trkpt lat="39.3516560" lon="-6.3481550">
        <ele>384.0</ele>
        <time>2021-10-17T16:40:44Z</time>
      </trkpt>
      <trkpt lat="39.3514270" lon="-6.3481540">
        <ele>384.2</ele>
        <time>2021-10-17T16:40:52Z</time>
      </trkpt>
      <trkpt lat="39.3511750" lon="-6.3481380">
        <ele>384.6</ele>
        <time>2021-10-17T16:41:01Z</time>
      </trkpt>
      <trkpt lat="39.3510280" lon="-6.3481160">
        <ele>384.8</ele>
        <time>2021-10-17T16:41:06Z</time>
      </trkpt>
      <trkpt lat="39.3509690" lon="-6.3481200">
        <ele>385.0</ele>
        <time>2021-10-17T16:41:08Z</time>
      </trkpt>
      <trkpt lat="39.3507920" lon="-6.3481450">
        <ele>385.4</ele>
        <time>2021-10-17T16:41:14Z</time>
      </trkpt>
      <trkpt lat="39.3505510" lon="-6.3481580">
        <ele>385.8</ele>
        <time>2021-10-17T16:41:22Z</time>
      </trkpt>
      <trkpt lat="39.3504920" lon="-6.3481690">
        <ele>385.8</ele>
        <time>2021-10-17T16:41:24Z</time>
      </trkpt>
      <trkpt lat="39.3504040" lon="-6.3482000">
        <ele>386.0</ele>
        <time>2021-10-17T16:41:27Z</time>
      </trkpt>
      <trkpt lat="39.3503160" lon="-6.3482340">
        <ele>386.2</ele>
        <time>2021-10-17T16:41:30Z</time>
      </trkpt>
      <trkpt lat="39.3501650" lon="-6.3482680">
        <ele>386.4</ele>
        <time>2021-10-17T16:41:35Z</time>
      </trkpt>
      <trkpt lat="39.3500500" lon="-6.3482990">
        <ele>386.4</ele>
        <time>2021-10-17T16:41:39Z</time>
      </trkpt>
      <trkpt lat="39.3498510" lon="-6.3483450">
        <ele>386.6</ele>
        <time>2021-10-17T16:41:46Z</time>
      </trkpt>
      <trkpt lat="39.3495910" lon="-6.3484320">
        <ele>386.8</ele>
        <time>2021-10-17T16:41:55Z</time>
      </trkpt>
      <trkpt lat="39.3495630" lon="-6.3484440">
        <ele>386.8</ele>
        <time>2021-10-17T16:41:56Z</time>
      </trkpt>
      <trkpt lat="39.3494280" lon="-6.3485030">
        <ele>387.0</ele>
        <time>2021-10-17T16:42:02Z</time>
      </trkpt>
      <trkpt lat="39.3493690" lon="-6.3485120">
        <ele>387.2</ele>
        <time>2021-10-17T16:42:04Z</time>
      </trkpt>
      <trkpt lat="39.3491660" lon="-6.3485640">
        <ele>387.6</ele>
        <time>2021-10-17T16:42:11Z</time>
      </trkpt>
      <trkpt lat="39.3490760" lon="-6.3485410">
        <ele>387.6</ele>
        <time>2021-10-17T16:42:16Z</time>
      </trkpt>
      <trkpt lat="39.3490760" lon="-6.3485460">
        <ele>387.8</ele>
        <time>2021-10-17T16:42:18Z</time>
      </trkpt>
      <trkpt lat="39.3490270" lon="-6.3485820">
        <ele>387.8</ele>
        <time>2021-10-17T16:43:19Z</time>
      </trkpt>
      <trkpt lat="39.3490060" lon="-6.3485950">
        <ele>387.8</ele>
        <time>2021-10-17T16:43:20Z</time>
      </trkpt>
      <trkpt lat="39.3487670" lon="-6.3486860">
        <ele>388.0</ele>
        <time>2021-10-17T16:43:28Z</time>
      </trkpt>
      <trkpt lat="39.3487370" lon="-6.3486960">
        <ele>388.0</ele>
        <time>2021-10-17T16:43:29Z</time>
      </trkpt>
      <trkpt lat="39.3486070" lon="-6.3487280">
        <ele>388.2</ele>
        <time>2021-10-17T16:43:33Z</time>
      </trkpt>
      <trkpt lat="39.3485100" lon="-6.3487590">
        <ele>388.4</ele>
        <time>2021-10-17T16:43:36Z</time>
      </trkpt>
      <trkpt lat="39.3484830" lon="-6.3487680">
        <ele>388.4</ele>
        <time>2021-10-17T16:43:37Z</time>
      </trkpt>
      <trkpt lat="39.3482360" lon="-6.3488760">
        <ele>388.8</ele>
        <time>2021-10-17T16:43:45Z</time>
      </trkpt>
      <trkpt lat="39.3480500" lon="-6.3489300">
        <ele>389.2</ele>
        <time>2021-10-17T16:43:51Z</time>
      </trkpt>
      <trkpt lat="39.3478210" lon="-6.3490380">
        <ele>389.6</ele>
        <time>2021-10-17T16:43:59Z</time>
      </trkpt>
      <trkpt lat="39.3476860" lon="-6.3490600">
        <ele>390.2</ele>
        <time>2021-10-17T16:44:04Z</time>
      </trkpt>
      <trkpt lat="39.3476570" lon="-6.3490530">
        <ele>390.2</ele>
        <time>2021-10-17T16:44:05Z</time>
      </trkpt>
      <trkpt lat="39.3474520" lon="-6.3490050">
        <ele>390.6</ele>
        <time>2021-10-17T16:44:12Z</time>
      </trkpt>
      <trkpt lat="39.3473360" lon="-6.3489980">
        <ele>391.2</ele>
        <time>2021-10-17T16:44:16Z</time>
      </trkpt>
      <trkpt lat="39.3471670" lon="-6.3489720">
        <ele>391.8</ele>
        <time>2021-10-17T16:44:22Z</time>
      </trkpt>
      <trkpt lat="39.3469310" lon="-6.3489460">
        <ele>392.4</ele>
        <time>2021-10-17T16:44:30Z</time>
      </trkpt>
      <trkpt lat="39.3467910" lon="-6.3489450">
        <ele>393.0</ele>
        <time>2021-10-17T16:44:35Z</time>
      </trkpt>
      <trkpt lat="39.3467090" lon="-6.3489370">
        <ele>393.2</ele>
        <time>2021-10-17T16:44:38Z</time>
      </trkpt>
      <trkpt lat="39.3466800" lon="-6.3489310">
        <ele>393.4</ele>
        <time>2021-10-17T16:44:39Z</time>
      </trkpt>
      <trkpt lat="39.3464810" lon="-6.3488930">
        <ele>394.0</ele>
        <time>2021-10-17T16:44:46Z</time>
      </trkpt>
      <trkpt lat="39.3462230" lon="-6.3487800">
        <ele>394.2</ele>
        <time>2021-10-17T16:44:55Z</time>
      </trkpt>
      <trkpt lat="39.3461100" lon="-6.3487300">
        <ele>394.4</ele>
        <time>2021-10-17T16:44:59Z</time>
      </trkpt>
      <trkpt lat="39.3460190" lon="-6.3487170">
        <ele>394.4</ele>
        <time>2021-10-17T16:45:02Z</time>
      </trkpt>
      <trkpt lat="39.3457450" lon="-6.3486630">
        <ele>394.8</ele>
        <time>2021-10-17T16:45:11Z</time>
      </trkpt>
      <trkpt lat="39.3455870" lon="-6.3486240">
        <ele>395.4</ele>
        <time>2021-10-17T16:45:17Z</time>
      </trkpt>
      <trkpt lat="39.3455580" lon="-6.3486200">
        <ele>395.4</ele>
        <time>2021-10-17T16:45:18Z</time>
      </trkpt>
      <trkpt lat="39.3454280" lon="-6.3486020">
        <ele>395.6</ele>
        <time>2021-10-17T16:45:23Z</time>
      </trkpt>
      <trkpt lat="39.3453510" lon="-6.3486080">
        <ele>395.8</ele>
        <time>2021-10-17T16:45:26Z</time>
      </trkpt>
      <trkpt lat="39.3451550" lon="-6.3486080">
        <ele>396.2</ele>
        <time>2021-10-17T16:45:33Z</time>
      </trkpt>
      <trkpt lat="39.3450120" lon="-6.3485930">
        <ele>396.4</ele>
        <time>2021-10-17T16:45:38Z</time>
      </trkpt>
      <trkpt lat="39.3449030" lon="-6.3485830">
        <ele>397.0</ele>
        <time>2021-10-17T16:45:42Z</time>
      </trkpt>
      <trkpt lat="39.3447930" lon="-6.3485780">
        <ele>397.2</ele>
        <time>2021-10-17T16:45:46Z</time>
      </trkpt>
      <trkpt lat="39.3447110" lon="-6.3485710">
        <ele>397.6</ele>
        <time>2021-10-17T16:45:49Z</time>
      </trkpt>
      <trkpt lat="39.3446830" lon="-6.3485680">
        <ele>397.6</ele>
        <time>2021-10-17T16:45:50Z</time>
      </trkpt>
      <trkpt lat="39.3446560" lon="-6.3485680">
        <ele>397.6</ele>
        <time>2021-10-17T16:45:51Z</time>
      </trkpt>
      <trkpt lat="39.3445500" lon="-6.3485670">
        <ele>398.0</ele>
        <time>2021-10-17T16:45:55Z</time>
      </trkpt>
      <trkpt lat="39.3444690" lon="-6.3485570">
        <ele>398.4</ele>
        <time>2021-10-17T16:45:58Z</time>
      </trkpt>
      <trkpt lat="39.3443580" lon="-6.3485260">
        <ele>398.8</ele>
        <time>2021-10-17T16:46:02Z</time>
      </trkpt>
      <trkpt lat="39.3442660" lon="-6.3485070">
        <ele>398.8</ele>
        <time>2021-10-17T16:46:05Z</time>
      </trkpt>
      <trkpt lat="39.3441820" lon="-6.3484750">
        <ele>398.8</ele>
        <time>2021-10-17T16:46:08Z</time>
      </trkpt>
      <trkpt lat="39.3440180" lon="-6.3484150">
        <ele>399.2</ele>
        <time>2021-10-17T16:46:14Z</time>
      </trkpt>
      <trkpt lat="39.3438710" lon="-6.3483970">
        <ele>399.6</ele>
        <time>2021-10-17T16:46:19Z</time>
      </trkpt>
      <trkpt lat="39.3438390" lon="-6.3483980">
        <ele>399.8</ele>
        <time>2021-10-17T16:46:20Z</time>
      </trkpt>
      <trkpt lat="39.3438080" lon="-6.3484000">
        <ele>399.8</ele>
        <time>2021-10-17T16:46:21Z</time>
      </trkpt>
      <trkpt lat="39.3436370" lon="-6.3483310">
        <ele>400.0</ele>
        <time>2021-10-17T16:46:27Z</time>
      </trkpt>
      <trkpt lat="39.3434330" lon="-6.3482290">
        <ele>400.4</ele>
        <time>2021-10-17T16:46:34Z</time>
      </trkpt>
      <trkpt lat="39.3432690" lon="-6.3480970">
        <ele>400.8</ele>
        <time>2021-10-17T16:46:40Z</time>
      </trkpt>
      <trkpt lat="39.3432380" lon="-6.3480790">
        <ele>400.8</ele>
        <time>2021-10-17T16:46:41Z</time>
      </trkpt>
      <trkpt lat="39.3432070" lon="-6.3480650">
        <ele>401.0</ele>
        <time>2021-10-17T16:46:42Z</time>
      </trkpt>
      <trkpt lat="39.3429900" lon="-6.3479860">
        <ele>401.2</ele>
        <time>2021-10-17T16:46:49Z</time>
      </trkpt>
      <trkpt lat="39.3428280" lon="-6.3479090">
        <ele>401.4</ele>
        <time>2021-10-17T16:46:54Z</time>
      </trkpt>
      <trkpt lat="39.3427050" lon="-6.3478320">
        <ele>401.4</ele>
        <time>2021-10-17T16:46:58Z</time>
      </trkpt>
      <trkpt lat="39.3424900" lon="-6.3477130">
        <ele>401.8</ele>
        <time>2021-10-17T16:47:05Z</time>
      </trkpt>
      <trkpt lat="39.3424600" lon="-6.3476930">
        <ele>401.8</ele>
        <time>2021-10-17T16:47:06Z</time>
      </trkpt>
      <trkpt lat="39.3424030" lon="-6.3476510">
        <ele>402.0</ele>
        <time>2021-10-17T16:47:08Z</time>
      </trkpt>
      <trkpt lat="39.3422860" lon="-6.3475700">
        <ele>402.2</ele>
        <time>2021-10-17T16:47:12Z</time>
      </trkpt>
      <trkpt lat="39.3421980" lon="-6.3475170">
        <ele>402.4</ele>
        <time>2021-10-17T16:47:15Z</time>
      </trkpt>
      <trkpt lat="39.3419490" lon="-6.3473850">
        <ele>403.0</ele>
        <time>2021-10-17T16:47:24Z</time>
      </trkpt>
      <trkpt lat="39.3417660" lon="-6.3472950">
        <ele>403.8</ele>
        <time>2021-10-17T16:47:31Z</time>
      </trkpt>
      <trkpt lat="39.3417130" lon="-6.3472670">
        <ele>404.0</ele>
        <time>2021-10-17T16:47:33Z</time>
      </trkpt>
      <trkpt lat="39.3414570" lon="-6.3471230">
        <ele>404.8</ele>
        <time>2021-10-17T16:47:43Z</time>
      </trkpt>
      <trkpt lat="39.3413840" lon="-6.3470680">
        <ele>405.0</ele>
        <time>2021-10-17T16:47:46Z</time>
      </trkpt>
      <trkpt lat="39.3412560" lon="-6.3469740">
        <ele>405.4</ele>
        <time>2021-10-17T16:47:51Z</time>
      </trkpt>
      <trkpt lat="39.3410930" lon="-6.3468640">
        <ele>405.6</ele>
        <time>2021-10-17T16:47:57Z</time>
      </trkpt>
      <trkpt lat="39.3410080" lon="-6.3468070">
        <ele>405.6</ele>
        <time>2021-10-17T16:48:00Z</time>
      </trkpt>
      <trkpt lat="39.3408660" lon="-6.3467040">
        <ele>405.6</ele>
        <time>2021-10-17T16:48:05Z</time>
      </trkpt>
      <trkpt lat="39.3407490" lon="-6.3466210">
        <ele>405.8</ele>
        <time>2021-10-17T16:48:09Z</time>
      </trkpt>
      <trkpt lat="39.3406330" lon="-6.3465450">
        <ele>406.0</ele>
        <time>2021-10-17T16:48:13Z</time>
      </trkpt>
      <trkpt lat="39.3405720" lon="-6.3465150">
        <ele>406.2</ele>
        <time>2021-10-17T16:48:15Z</time>
      </trkpt>
      <trkpt lat="39.3403130" lon="-6.3464000">
        <ele>406.2</ele>
        <time>2021-10-17T16:48:23Z</time>
      </trkpt>
      <trkpt lat="39.3400280" lon="-6.3463420">
        <ele>406.0</ele>
        <time>2021-10-17T16:48:32Z</time>
      </trkpt>
      <trkpt lat="39.3398910" lon="-6.3463020">
        <ele>406.0</ele>
        <time>2021-10-17T16:48:36Z</time>
      </trkpt>
      <trkpt lat="39.3398190" lon="-6.3462790">
        <ele>406.0</ele>
        <time>2021-10-17T16:48:38Z</time>
      </trkpt>
      <trkpt lat="39.3394520" lon="-6.3461390">
        <ele>405.6</ele>
        <time>2021-10-17T16:48:48Z</time>
      </trkpt>
      <trkpt lat="39.3392320" lon="-6.3460030">
        <ele>405.2</ele>
        <time>2021-10-17T16:48:54Z</time>
      </trkpt>
      <trkpt lat="39.3390440" lon="-6.3459030">
        <ele>405.0</ele>
        <time>2021-10-17T16:48:59Z</time>
      </trkpt>
      <trkpt lat="39.3390030" lon="-6.3458890">
        <ele>404.8</ele>
        <time>2021-10-17T16:49:00Z</time>
      </trkpt>
      <trkpt lat="39.3389630" lon="-6.3458750">
        <ele>404.8</ele>
        <time>2021-10-17T16:49:01Z</time>
      </trkpt>
      <trkpt lat="39.3388400" lon="-6.3458150">
        <ele>404.6</ele>
        <time>2021-10-17T16:49:04Z</time>
      </trkpt>
      <trkpt lat="39.3386630" lon="-6.3457430">
        <ele>404.4</ele>
        <time>2021-10-17T16:49:08Z</time>
      </trkpt>
      <trkpt lat="39.3384900" lon="-6.3456450">
        <ele>403.8</ele>
        <time>2021-10-17T16:49:12Z</time>
      </trkpt>
      <trkpt lat="39.3383960" lon="-6.3456130">
        <ele>403.2</ele>
        <time>2021-10-17T16:49:14Z</time>
      </trkpt>
      <trkpt lat="39.3382560" lon="-6.3455700">
        <ele>402.8</ele>
        <time>2021-10-17T16:49:17Z</time>
      </trkpt>
      <trkpt lat="39.3382090" lon="-6.3455480">
        <ele>402.8</ele>
        <time>2021-10-17T16:49:18Z</time>
      </trkpt>
      <trkpt lat="39.3381130" lon="-6.3454900">
        <ele>402.4</ele>
        <time>2021-10-17T16:49:20Z</time>
      </trkpt>
      <trkpt lat="39.3380120" lon="-6.3454310">
        <ele>402.0</ele>
        <time>2021-10-17T16:49:22Z</time>
      </trkpt>
      <trkpt lat="39.3379040" lon="-6.3453870">
        <ele>401.8</ele>
        <time>2021-10-17T16:49:24Z</time>
      </trkpt>
      <trkpt lat="39.3377980" lon="-6.3453530">
        <ele>401.4</ele>
        <time>2021-10-17T16:49:26Z</time>
      </trkpt>
      <trkpt lat="39.3375260" lon="-6.3452630">
        <ele>400.6</ele>
        <time>2021-10-17T16:49:31Z</time>
      </trkpt>
      <trkpt lat="39.3374180" lon="-6.3452190">
        <ele>400.2</ele>
        <time>2021-10-17T16:49:33Z</time>
      </trkpt>
      <trkpt lat="39.3371990" lon="-6.3451050">
        <ele>399.6</ele>
        <time>2021-10-17T16:49:37Z</time>
      </trkpt>
      <trkpt lat="39.3371450" lon="-6.3450740">
        <ele>399.4</ele>
        <time>2021-10-17T16:49:38Z</time>
      </trkpt>
      <trkpt lat="39.3369450" lon="-6.3449310">
        <ele>398.6</ele>
        <time>2021-10-17T16:49:42Z</time>
      </trkpt>
      <trkpt lat="39.3368430" lon="-6.3448560">
        <ele>398.4</ele>
        <time>2021-10-17T16:49:44Z</time>
      </trkpt>
      <trkpt lat="39.3367890" lon="-6.3448350">
        <ele>397.8</ele>
        <time>2021-10-17T16:49:45Z</time>
      </trkpt>
      <trkpt lat="39.3367340" lon="-6.3448190">
        <ele>397.8</ele>
        <time>2021-10-17T16:49:46Z</time>
      </trkpt>
      <trkpt lat="39.3366790" lon="-6.3448080">
        <ele>397.4</ele>
        <time>2021-10-17T16:49:47Z</time>
      </trkpt>
      <trkpt lat="39.3366280" lon="-6.3447930">
        <ele>397.0</ele>
        <time>2021-10-17T16:49:48Z</time>
      </trkpt>
      <trkpt lat="39.3365810" lon="-6.3447620">
        <ele>396.6</ele>
        <time>2021-10-17T16:49:49Z</time>
      </trkpt>
      <trkpt lat="39.3365340" lon="-6.3447270">
        <ele>396.2</ele>
        <time>2021-10-17T16:49:50Z</time>
      </trkpt>
      <trkpt lat="39.3364850" lon="-6.3447020">
        <ele>396.4</ele>
        <time>2021-10-17T16:49:51Z</time>
      </trkpt>
      <trkpt lat="39.3363820" lon="-6.3446750">
        <ele>396.2</ele>
        <time>2021-10-17T16:49:53Z</time>
      </trkpt>
      <trkpt lat="39.3361980" lon="-6.3445830">
        <ele>395.2</ele>
        <time>2021-10-17T16:49:57Z</time>
      </trkpt>
      <trkpt lat="39.3360570" lon="-6.3445020">
        <ele>395.0</ele>
        <time>2021-10-17T16:50:00Z</time>
      </trkpt>
      <trkpt lat="39.3360100" lon="-6.3444850">
        <ele>394.8</ele>
        <time>2021-10-17T16:50:01Z</time>
      </trkpt>
      <trkpt lat="39.3358680" lon="-6.3444480">
        <ele>394.4</ele>
        <time>2021-10-17T16:50:04Z</time>
      </trkpt>
      <trkpt lat="39.3358190" lon="-6.3444390">
        <ele>394.2</ele>
        <time>2021-10-17T16:50:05Z</time>
      </trkpt>
      <trkpt lat="39.3356060" lon="-6.3443970">
        <ele>393.2</ele>
        <time>2021-10-17T16:50:09Z</time>
      </trkpt>
      <trkpt lat="39.3355510" lon="-6.3443900">
        <ele>393.0</ele>
        <time>2021-10-17T16:50:10Z</time>
      </trkpt>
      <trkpt lat="39.3353830" lon="-6.3443490">
        <ele>393.0</ele>
        <time>2021-10-17T16:50:13Z</time>
      </trkpt>
      <trkpt lat="39.3351750" lon="-6.3442760">
        <ele>392.0</ele>
        <time>2021-10-17T16:50:17Z</time>
      </trkpt>
      <trkpt lat="39.3350730" lon="-6.3442420">
        <ele>391.6</ele>
        <time>2021-10-17T16:50:19Z</time>
      </trkpt>
      <trkpt lat="39.3349780" lon="-6.3442100">
        <ele>391.4</ele>
        <time>2021-10-17T16:50:21Z</time>
      </trkpt>
      <trkpt lat="39.3348810" lon="-6.3441910">
        <ele>390.6</ele>
        <time>2021-10-17T16:50:23Z</time>
      </trkpt>
      <trkpt lat="39.3346840" lon="-6.3441660">
        <ele>390.0</ele>
        <time>2021-10-17T16:50:27Z</time>
      </trkpt>
      <trkpt lat="39.3346320" lon="-6.3441580">
        <ele>390.0</ele>
        <time>2021-10-17T16:50:28Z</time>
      </trkpt>
      <trkpt lat="39.3344670" lon="-6.3441320">
        <ele>389.4</ele>
        <time>2021-10-17T16:50:31Z</time>
      </trkpt>
      <trkpt lat="39.3344100" lon="-6.3441370">
        <ele>389.4</ele>
        <time>2021-10-17T16:50:32Z</time>
      </trkpt>
      <trkpt lat="39.3341240" lon="-6.3441960">
        <ele>388.2</ele>
        <time>2021-10-17T16:50:37Z</time>
      </trkpt>
      <trkpt lat="39.3340700" lon="-6.3442000">
        <ele>388.0</ele>
        <time>2021-10-17T16:50:38Z</time>
      </trkpt>
      <trkpt lat="39.3340160" lon="-6.3441960">
        <ele>388.0</ele>
        <time>2021-10-17T16:50:39Z</time>
      </trkpt>
      <trkpt lat="39.3339090" lon="-6.3441810">
        <ele>387.4</ele>
        <time>2021-10-17T16:50:41Z</time>
      </trkpt>
      <trkpt lat="39.3338110" lon="-6.3441940">
        <ele>387.2</ele>
        <time>2021-10-17T16:50:43Z</time>
      </trkpt>
      <trkpt lat="39.3337670" lon="-6.3442210">
        <ele>387.0</ele>
        <time>2021-10-17T16:50:44Z</time>
      </trkpt>
      <trkpt lat="39.3336250" lon="-6.3443170">
        <ele>386.8</ele>
        <time>2021-10-17T16:50:48Z</time>
      </trkpt>
      <trkpt lat="39.3334940" lon="-6.3442910">
        <ele>386.8</ele>
        <time>2021-10-17T16:50:52Z</time>
      </trkpt>
      <trkpt lat="39.3332650" lon="-6.3440830">
        <ele>387.2</ele>
        <time>2021-10-17T16:50:59Z</time>
      </trkpt>
      <trkpt lat="39.3329860" lon="-6.3439710">
        <ele>387.8</ele>
        <time>2021-10-17T16:51:07Z</time>
      </trkpt>
      <trkpt lat="39.3328330" lon="-6.3439380">
        <ele>388.0</ele>
        <time>2021-10-17T16:51:12Z</time>
      </trkpt>
      <trkpt lat="39.3327770" lon="-6.3439380">
        <ele>388.2</ele>
        <time>2021-10-17T16:51:14Z</time>
      </trkpt>
      <trkpt lat="39.3326200" lon="-6.3439470">
        <ele>389.0</ele>
        <time>2021-10-17T16:51:20Z</time>
      </trkpt>
      <trkpt lat="39.3325410" lon="-6.3439270">
        <ele>389.4</ele>
        <time>2021-10-17T16:51:23Z</time>
      </trkpt>
      <trkpt lat="39.3323870" lon="-6.3439060">
        <ele>390.2</ele>
        <time>2021-10-17T16:51:29Z</time>
      </trkpt>
      <trkpt lat="39.3322870" lon="-6.3438730">
        <ele>390.6</ele>
        <time>2021-10-17T16:51:33Z</time>
      </trkpt>
      <trkpt lat="39.3322160" lon="-6.3438460">
        <ele>391.0</ele>
        <time>2021-10-17T16:51:36Z</time>
      </trkpt>
      <trkpt lat="39.3320180" lon="-6.3437820">
        <ele>391.6</ele>
        <time>2021-10-17T16:51:45Z</time>
      </trkpt>
      <trkpt lat="39.3319350" lon="-6.3437530">
        <ele>392.2</ele>
        <time>2021-10-17T16:51:49Z</time>
      </trkpt>
      <trkpt lat="39.3318880" lon="-6.3437330">
        <ele>392.2</ele>
        <time>2021-10-17T16:51:51Z</time>
      </trkpt>
      <trkpt lat="39.3318020" lon="-6.3436960">
        <ele>392.6</ele>
        <time>2021-10-17T16:51:55Z</time>
      </trkpt>
      <trkpt lat="39.3317340" lon="-6.3436720">
        <ele>392.8</ele>
        <time>2021-10-17T16:51:58Z</time>
      </trkpt>
      <trkpt lat="39.3316560" lon="-6.3436450">
        <ele>393.2</ele>
        <time>2021-10-17T16:52:01Z</time>
      </trkpt>
      <trkpt lat="39.3315200" lon="-6.3436180">
        <ele>393.6</ele>
        <time>2021-10-17T16:52:07Z</time>
      </trkpt>
      <trkpt lat="39.3315010" lon="-6.3436150">
        <ele>393.6</ele>
        <time>2021-10-17T16:52:08Z</time>
      </trkpt>
      <trkpt lat="39.3314260" lon="-6.3435970">
        <ele>394.0</ele>
        <time>2021-10-17T16:52:11Z</time>
      </trkpt>
      <trkpt lat="39.3313570" lon="-6.3435840">
        <ele>394.2</ele>
        <time>2021-10-17T16:52:14Z</time>
      </trkpt>
      <trkpt lat="39.3313130" lon="-6.3435760">
        <ele>394.4</ele>
        <time>2021-10-17T16:52:16Z</time>
      </trkpt>
      <trkpt lat="39.3311940" lon="-6.3435440">
        <ele>394.8</ele>
        <time>2021-10-17T16:52:21Z</time>
      </trkpt>
      <trkpt lat="39.3311490" lon="-6.3435330">
        <ele>395.0</ele>
        <time>2021-10-17T16:52:23Z</time>
      </trkpt>
      <trkpt lat="39.3310320" lon="-6.3435330">
        <ele>395.4</ele>
        <time>2021-10-17T16:52:28Z</time>
      </trkpt>
      <trkpt lat="39.3308920" lon="-6.3435220">
        <ele>395.8</ele>
        <time>2021-10-17T16:52:34Z</time>
      </trkpt>
      <trkpt lat="39.3307100" lon="-6.3434180">
        <ele>396.2</ele>
        <time>2021-10-17T16:52:42Z</time>
      </trkpt>
      <trkpt lat="39.3305870" lon="-6.3433310">
        <ele>396.8</ele>
        <time>2021-10-17T16:52:48Z</time>
      </trkpt>
      <trkpt lat="39.3305460" lon="-6.3432970">
        <ele>397.0</ele>
        <time>2021-10-17T16:52:50Z</time>
      </trkpt>
      <trkpt lat="39.3303500" lon="-6.3431950">
        <ele>397.4</ele>
        <time>2021-10-17T16:52:59Z</time>
      </trkpt>
      <trkpt lat="39.3302430" lon="-6.3431220">
        <ele>397.8</ele>
        <time>2021-10-17T16:53:04Z</time>
      </trkpt>
      <trkpt lat="39.3301740" lon="-6.3430720">
        <ele>398.0</ele>
        <time>2021-10-17T16:53:07Z</time>
      </trkpt>
      <trkpt lat="39.3299680" lon="-6.3429790">
        <ele>398.2</ele>
        <time>2021-10-17T16:53:15Z</time>
      </trkpt>
      <trkpt lat="39.3297900" lon="-6.3429460">
        <ele>398.6</ele>
        <time>2021-10-17T16:53:21Z</time>
      </trkpt>
      <trkpt lat="39.3295000" lon="-6.3429220">
        <ele>398.6</ele>
        <time>2021-10-17T16:53:29Z</time>
      </trkpt>
      <trkpt lat="39.3292480" lon="-6.3429490">
        <ele>398.6</ele>
        <time>2021-10-17T16:53:36Z</time>
      </trkpt>
      <trkpt lat="39.3292120" lon="-6.3429530">
        <ele>398.6</ele>
        <time>2021-10-17T16:53:37Z</time>
      </trkpt>
      <trkpt lat="39.3290420" lon="-6.3429490">
        <ele>398.6</ele>
        <time>2021-10-17T16:53:42Z</time>
      </trkpt>
      <trkpt lat="39.3288410" lon="-6.3429350">
        <ele>398.8</ele>
        <time>2021-10-17T16:53:48Z</time>
      </trkpt>
      <trkpt lat="39.3287730" lon="-6.3429250">
        <ele>399.0</ele>
        <time>2021-10-17T16:53:50Z</time>
      </trkpt>
      <trkpt lat="39.3285750" lon="-6.3428720">
        <ele>399.2</ele>
        <time>2021-10-17T16:53:56Z</time>
      </trkpt>
      <trkpt lat="39.3285400" lon="-6.3428620">
        <ele>399.2</ele>
        <time>2021-10-17T16:53:57Z</time>
      </trkpt>
      <trkpt lat="39.3283490" lon="-6.3428140">
        <ele>399.2</ele>
        <time>2021-10-17T16:54:03Z</time>
      </trkpt>
      <trkpt lat="39.3282410" lon="-6.3428570">
        <ele>399.2</ele>
        <time>2021-10-17T16:54:07Z</time>
      </trkpt>
      <trkpt lat="39.3281930" lon="-6.3428880">
        <ele>399.2</ele>
        <time>2021-10-17T16:54:09Z</time>
      </trkpt>
      <trkpt lat="39.3280960" lon="-6.3429520">
        <ele>399.0</ele>
        <time>2021-10-17T16:54:13Z</time>
      </trkpt>
      <trkpt lat="39.3280350" lon="-6.3430290">
        <ele>399.0</ele>
        <time>2021-10-17T16:54:16Z</time>
      </trkpt>
      <trkpt lat="39.3278990" lon="-6.3431100">
        <ele>399.0</ele>
        <time>2021-10-17T16:54:21Z</time>
      </trkpt>
      <trkpt lat="39.3276140" lon="-6.3430570">
        <ele>398.8</ele>
        <time>2021-10-17T16:54:29Z</time>
      </trkpt>
      <trkpt lat="39.3273720" lon="-6.3430030">
        <ele>398.8</ele>
        <time>2021-10-17T16:54:35Z</time>
      </trkpt>
      <trkpt lat="39.3273320" lon="-6.3429900">
        <ele>398.8</ele>
        <time>2021-10-17T16:54:36Z</time>
      </trkpt>
      <trkpt lat="39.3272940" lon="-6.3429740">
        <ele>398.8</ele>
        <time>2021-10-17T16:54:37Z</time>
      </trkpt>
      <trkpt lat="39.3272190" lon="-6.3429420">
        <ele>398.6</ele>
        <time>2021-10-17T16:54:39Z</time>
      </trkpt>
      <trkpt lat="39.3271570" lon="-6.3428850">
        <ele>398.6</ele>
        <time>2021-10-17T16:54:41Z</time>
      </trkpt>
      <trkpt lat="39.3271400" lon="-6.3428450">
        <ele>398.4</ele>
        <time>2021-10-17T16:54:42Z</time>
      </trkpt>
      <trkpt lat="39.3270930" lon="-6.3427460">
        <ele>398.2</ele>
        <time>2021-10-17T16:54:45Z</time>
      </trkpt>
      <trkpt lat="39.3270760" lon="-6.3427430">
        <ele>398.2</ele>
        <time>2021-10-17T16:54:46Z</time>
      </trkpt>
      <trkpt lat="39.3269900" lon="-6.3427910">
        <ele>398.2</ele>
        <time>2021-10-17T16:54:50Z</time>
      </trkpt>
      <trkpt lat="39.3268900" lon="-6.3427630">
        <ele>398.2</ele>
        <time>2021-10-17T16:54:53Z</time>
      </trkpt>
      <trkpt lat="39.3268130" lon="-6.3427330">
        <ele>398.2</ele>
        <time>2021-10-17T16:54:55Z</time>
      </trkpt>
      <trkpt lat="39.3267290" lon="-6.3427030">
        <ele>398.2</ele>
        <time>2021-10-17T16:54:57Z</time>
      </trkpt>
      <trkpt lat="39.3265540" lon="-6.3426510">
        <ele>397.8</ele>
        <time>2021-10-17T16:55:01Z</time>
      </trkpt>
      <trkpt lat="39.3265110" lon="-6.3426360">
        <ele>397.8</ele>
        <time>2021-10-17T16:55:02Z</time>
      </trkpt>
      <trkpt lat="39.3263510" lon="-6.3425770">
        <ele>397.4</ele>
        <time>2021-10-17T16:55:06Z</time>
      </trkpt>
      <trkpt lat="39.3262720" lon="-6.3425680">
        <ele>397.2</ele>
        <time>2021-10-17T16:55:08Z</time>
      </trkpt>
      <trkpt lat="39.3262340" lon="-6.3425670">
        <ele>397.0</ele>
        <time>2021-10-17T16:55:09Z</time>
      </trkpt>
      <trkpt lat="39.3260310" lon="-6.3425270">
        <ele>396.8</ele>
        <time>2021-10-17T16:55:14Z</time>
      </trkpt>
      <trkpt lat="39.3259880" lon="-6.3425240">
        <ele>396.6</ele>
        <time>2021-10-17T16:55:15Z</time>
      </trkpt>
      <trkpt lat="39.3259060" lon="-6.3425030">
        <ele>396.6</ele>
        <time>2021-10-17T16:55:17Z</time>
      </trkpt>
      <trkpt lat="39.3258670" lon="-6.3424830">
        <ele>396.6</ele>
        <time>2021-10-17T16:55:18Z</time>
      </trkpt>
      <trkpt lat="39.3257230" lon="-6.3424000">
        <ele>395.8</ele>
        <time>2021-10-17T16:55:22Z</time>
      </trkpt>
      <trkpt lat="39.3256510" lon="-6.3423810">
        <ele>395.6</ele>
        <time>2021-10-17T16:55:24Z</time>
      </trkpt>
      <trkpt lat="39.3256080" lon="-6.3423680">
        <ele>395.6</ele>
        <time>2021-10-17T16:55:25Z</time>
      </trkpt>
      <trkpt lat="39.3253130" lon="-6.3422860">
        <ele>395.6</ele>
        <time>2021-10-17T16:55:32Z</time>
      </trkpt>
      <trkpt lat="39.3250290" lon="-6.3422310">
        <ele>395.0</ele>
        <time>2021-10-17T16:55:39Z</time>
      </trkpt>
      <trkpt lat="39.3248170" lon="-6.3421360">
        <ele>394.6</ele>
        <time>2021-10-17T16:55:44Z</time>
      </trkpt>
      <trkpt lat="39.3247400" lon="-6.3421040">
        <ele>394.2</ele>
        <time>2021-10-17T16:55:46Z</time>
      </trkpt>
      <trkpt lat="39.3245830" lon="-6.3419900">
        <ele>393.8</ele>
        <time>2021-10-17T16:55:51Z</time>
      </trkpt>
      <trkpt lat="39.3244180" lon="-6.3418940">
        <ele>393.8</ele>
        <time>2021-10-17T16:55:56Z</time>
      </trkpt>
      <trkpt lat="39.3241060" lon="-6.3419170">
        <ele>393.6</ele>
        <time>2021-10-17T16:56:04Z</time>
      </trkpt>
      <trkpt lat="39.3239010" lon="-6.3419400">
        <ele>393.6</ele>
        <time>2021-10-17T16:56:09Z</time>
      </trkpt>
      <trkpt lat="39.3237780" lon="-6.3419270">
        <ele>393.8</ele>
        <time>2021-10-17T16:56:12Z</time>
      </trkpt>
      <trkpt lat="39.3235790" lon="-6.3419110">
        <ele>394.0</ele>
        <time>2021-10-17T16:56:17Z</time>
      </trkpt>
      <trkpt lat="39.3234590" lon="-6.3418900">
        <ele>394.2</ele>
        <time>2021-10-17T16:56:20Z</time>
      </trkpt>
      <trkpt lat="39.3231580" lon="-6.3418070">
        <ele>394.6</ele>
        <time>2021-10-17T16:56:28Z</time>
      </trkpt>
      <trkpt lat="39.3229050" lon="-6.3417950">
        <ele>395.0</ele>
        <time>2021-10-17T16:56:35Z</time>
      </trkpt>
      <trkpt lat="39.3226240" lon="-6.3418020">
        <ele>395.4</ele>
        <time>2021-10-17T16:56:43Z</time>
      </trkpt>
      <trkpt lat="39.3224440" lon="-6.3417740">
        <ele>395.6</ele>
        <time>2021-10-17T16:56:48Z</time>
      </trkpt>
      <trkpt lat="39.3223460" lon="-6.3417630">
        <ele>395.8</ele>
        <time>2021-10-17T16:56:51Z</time>
      </trkpt>
      <trkpt lat="39.3221490" lon="-6.3417430">
        <ele>396.0</ele>
        <time>2021-10-17T16:56:57Z</time>
      </trkpt>
      <trkpt lat="39.3219910" lon="-6.3417160">
        <ele>396.4</ele>
        <time>2021-10-17T16:57:02Z</time>
      </trkpt>
      <trkpt lat="39.3219610" lon="-6.3417120">
        <ele>396.4</ele>
        <time>2021-10-17T16:57:03Z</time>
      </trkpt>
      <trkpt lat="39.3219300" lon="-6.3417060">
        <ele>396.6</ele>
        <time>2021-10-17T16:57:04Z</time>
      </trkpt>
      <trkpt lat="39.3216940" lon="-6.3416500">
        <ele>397.2</ele>
        <time>2021-10-17T16:57:12Z</time>
      </trkpt>
      <trkpt lat="39.3215180" lon="-6.3416310">
        <ele>397.4</ele>
        <time>2021-10-17T16:57:18Z</time>
      </trkpt>
      <trkpt lat="39.3214600" lon="-6.3416320">
        <ele>397.6</ele>
        <time>2021-10-17T16:57:20Z</time>
      </trkpt>
      <trkpt lat="39.3213750" lon="-6.3416190">
        <ele>397.8</ele>
        <time>2021-10-17T16:57:23Z</time>
      </trkpt>
      <trkpt lat="39.3212380" lon="-6.3415760">
        <ele>398.2</ele>
        <time>2021-10-17T16:57:28Z</time>
      </trkpt>
      <trkpt lat="39.3211830" lon="-6.3415690">
        <ele>398.4</ele>
        <time>2021-10-17T16:57:30Z</time>
      </trkpt>
      <trkpt lat="39.3209930" lon="-6.3415640">
        <ele>398.6</ele>
        <time>2021-10-17T16:57:36Z</time>
      </trkpt>
      <trkpt lat="39.3208990" lon="-6.3415530">
        <ele>398.6</ele>
        <time>2021-10-17T16:57:39Z</time>
      </trkpt>
      <trkpt lat="39.3208110" lon="-6.3415320">
        <ele>398.8</ele>
        <time>2021-10-17T16:57:42Z</time>
      </trkpt>
      <trkpt lat="39.3207260" lon="-6.3415090">
        <ele>399.2</ele>
        <time>2021-10-17T16:57:45Z</time>
      </trkpt>
      <trkpt lat="39.3206620" lon="-6.3414840">
        <ele>399.4</ele>
        <time>2021-10-17T16:57:47Z</time>
      </trkpt>
      <trkpt lat="39.3205780" lon="-6.3414390">
        <ele>399.6</ele>
        <time>2021-10-17T16:57:50Z</time>
      </trkpt>
      <trkpt lat="39.3205200" lon="-6.3414190">
        <ele>399.6</ele>
        <time>2021-10-17T16:57:52Z</time>
      </trkpt>
      <trkpt lat="39.3203350" lon="-6.3413660">
        <ele>399.8</ele>
        <time>2021-10-17T16:57:58Z</time>
      </trkpt>
      <trkpt lat="39.3201930" lon="-6.3413330">
        <ele>399.6</ele>
        <time>2021-10-17T16:58:02Z</time>
      </trkpt>
      <trkpt lat="39.3200680" lon="-6.3413170">
        <ele>399.6</ele>
        <time>2021-10-17T16:58:05Z</time>
      </trkpt>
      <trkpt lat="39.3197390" lon="-6.3413120">
        <ele>399.2</ele>
        <time>2021-10-17T16:58:12Z</time>
      </trkpt>
      <trkpt lat="39.3194830" lon="-6.3412560">
        <ele>398.8</ele>
        <time>2021-10-17T16:58:17Z</time>
      </trkpt>
      <trkpt lat="39.3194300" lon="-6.3412580">
        <ele>398.6</ele>
        <time>2021-10-17T16:58:18Z</time>
      </trkpt>
      <trkpt lat="39.3193200" lon="-6.3412660">
        <ele>398.4</ele>
        <time>2021-10-17T16:58:20Z</time>
      </trkpt>
      <trkpt lat="39.3191030" lon="-6.3412510">
        <ele>397.8</ele>
        <time>2021-10-17T16:58:24Z</time>
      </trkpt>
      <trkpt lat="39.3190510" lon="-6.3412410">
        <ele>397.8</ele>
        <time>2021-10-17T16:58:25Z</time>
      </trkpt>
      <trkpt lat="39.3189980" lon="-6.3412260">
        <ele>397.6</ele>
        <time>2021-10-17T16:58:26Z</time>
      </trkpt>
      <trkpt lat="39.3188920" lon="-6.3411870">
        <ele>396.8</ele>
        <time>2021-10-17T16:58:28Z</time>
      </trkpt>
      <trkpt lat="39.3188400" lon="-6.3411750">
        <ele>396.6</ele>
        <time>2021-10-17T16:58:29Z</time>
      </trkpt>
      <trkpt lat="39.3186840" lon="-6.3411690">
        <ele>396.2</ele>
        <time>2021-10-17T16:58:32Z</time>
      </trkpt>
      <trkpt lat="39.3186330" lon="-6.3411740">
        <ele>396.2</ele>
        <time>2021-10-17T16:58:33Z</time>
      </trkpt>
      <trkpt lat="39.3185350" lon="-6.3411860">
        <ele>396.0</ele>
        <time>2021-10-17T16:58:35Z</time>
      </trkpt>
      <trkpt lat="39.3184380" lon="-6.3411750">
        <ele>395.6</ele>
        <time>2021-10-17T16:58:37Z</time>
      </trkpt>
      <trkpt lat="39.3183360" lon="-6.3411700">
        <ele>394.8</ele>
        <time>2021-10-17T16:58:39Z</time>
      </trkpt>
      <trkpt lat="39.3182310" lon="-6.3411810">
        <ele>394.4</ele>
        <time>2021-10-17T16:58:41Z</time>
      </trkpt>
      <trkpt lat="39.3181790" lon="-6.3411920">
        <ele>394.2</ele>
        <time>2021-10-17T16:58:42Z</time>
      </trkpt>
      <trkpt lat="39.3180700" lon="-6.3412250">
        <ele>393.4</ele>
        <time>2021-10-17T16:58:44Z</time>
      </trkpt>
      <trkpt lat="39.3177940" lon="-6.3411920">
        <ele>392.6</ele>
        <time>2021-10-17T16:58:49Z</time>
      </trkpt>
      <trkpt lat="39.3177030" lon="-6.3412120">
        <ele>392.4</ele>
        <time>2021-10-17T16:58:51Z</time>
      </trkpt>
      <trkpt lat="39.3176270" lon="-6.3412540">
        <ele>392.2</ele>
        <time>2021-10-17T16:58:53Z</time>
      </trkpt>
      <trkpt lat="39.3174770" lon="-6.3413280">
        <ele>392.0</ele>
        <time>2021-10-17T16:58:57Z</time>
      </trkpt>
      <trkpt lat="39.3173980" lon="-6.3413390">
        <ele>392.0</ele>
        <time>2021-10-17T16:58:59Z</time>
      </trkpt>
      <trkpt lat="39.3172180" lon="-6.3412940">
        <ele>392.2</ele>
        <time>2021-10-17T16:59:04Z</time>
      </trkpt>
      <trkpt lat="39.3170200" lon="-6.3412580">
        <ele>392.4</ele>
        <time>2021-10-17T16:59:10Z</time>
      </trkpt>
      <trkpt lat="39.3168780" lon="-6.3412420">
        <ele>393.2</ele>
        <time>2021-10-17T16:59:15Z</time>
      </trkpt>
      <trkpt lat="39.3168520" lon="-6.3412340">
        <ele>393.4</ele>
        <time>2021-10-17T16:59:16Z</time>
      </trkpt>
      <trkpt lat="39.3166820" lon="-6.3411780">
        <ele>394.2</ele>
        <time>2021-10-17T16:59:22Z</time>
      </trkpt>
      <trkpt lat="39.3165540" lon="-6.3411360">
        <ele>394.4</ele>
        <time>2021-10-17T16:59:26Z</time>
      </trkpt>
      <trkpt lat="39.3163410" lon="-6.3411070">
        <ele>394.8</ele>
        <time>2021-10-17T16:59:32Z</time>
      </trkpt>
      <trkpt lat="39.3162360" lon="-6.3411140">
        <ele>394.6</ele>
        <time>2021-10-17T16:59:35Z</time>
      </trkpt>
      <trkpt lat="39.3160590" lon="-6.3411060">
        <ele>394.2</ele>
        <time>2021-10-17T16:59:39Z</time>
      </trkpt>
      <trkpt lat="39.3159110" lon="-6.3411200">
        <ele>394.0</ele>
        <time>2021-10-17T16:59:42Z</time>
      </trkpt>
      <trkpt lat="39.3157600" lon="-6.3411170">
        <ele>393.2</ele>
        <time>2021-10-17T16:59:45Z</time>
      </trkpt>
      <trkpt lat="39.3156590" lon="-6.3411080">
        <ele>392.8</ele>
        <time>2021-10-17T16:59:47Z</time>
      </trkpt>
      <trkpt lat="39.3155580" lon="-6.3410480">
        <ele>392.4</ele>
        <time>2021-10-17T16:59:49Z</time>
      </trkpt>
      <trkpt lat="39.3155100" lon="-6.3410070">
        <ele>392.2</ele>
        <time>2021-10-17T16:59:50Z</time>
      </trkpt>
      <trkpt lat="39.3153240" lon="-6.3408630">
        <ele>391.2</ele>
        <time>2021-10-17T16:59:54Z</time>
      </trkpt>
      <trkpt lat="39.3152800" lon="-6.3408330">
        <ele>391.0</ele>
        <time>2021-10-17T16:59:55Z</time>
      </trkpt>
      <trkpt lat="39.3150780" lon="-6.3407270">
        <ele>390.8</ele>
        <time>2021-10-17T17:00:00Z</time>
      </trkpt>
      <trkpt lat="39.3148590" lon="-6.3406420">
        <ele>391.2</ele>
        <time>2021-10-17T17:00:06Z</time>
      </trkpt>
      <trkpt lat="39.3147030" lon="-6.3404910">
        <ele>391.6</ele>
        <time>2021-10-17T17:00:11Z</time>
      </trkpt>
      <trkpt lat="39.3144850" lon="-6.3403260">
        <ele>391.6</ele>
        <time>2021-10-17T17:00:17Z</time>
      </trkpt>
      <trkpt lat="39.3144090" lon="-6.3402610">
        <ele>391.4</ele>
        <time>2021-10-17T17:00:19Z</time>
      </trkpt>
      <trkpt lat="39.3142850" lon="-6.3401880">
        <ele>391.2</ele>
        <time>2021-10-17T17:00:22Z</time>
      </trkpt>
      <trkpt lat="39.3142410" lon="-6.3401690">
        <ele>391.2</ele>
        <time>2021-10-17T17:00:23Z</time>
      </trkpt>
      <trkpt lat="39.3141040" lon="-6.3401470">
        <ele>391.0</ele>
        <time>2021-10-17T17:00:26Z</time>
      </trkpt>
      <trkpt lat="39.3140590" lon="-6.3401510">
        <ele>391.0</ele>
        <time>2021-10-17T17:00:27Z</time>
      </trkpt>
      <trkpt lat="39.3139650" lon="-6.3401660">
        <ele>391.0</ele>
        <time>2021-10-17T17:00:29Z</time>
      </trkpt>
      <trkpt lat="39.3138660" lon="-6.3401460">
        <ele>391.0</ele>
        <time>2021-10-17T17:00:31Z</time>
      </trkpt>
      <trkpt lat="39.3137680" lon="-6.3401170">
        <ele>391.0</ele>
        <time>2021-10-17T17:00:33Z</time>
      </trkpt>
      <trkpt lat="39.3136680" lon="-6.3400940">
        <ele>390.8</ele>
        <time>2021-10-17T17:00:35Z</time>
      </trkpt>
      <trkpt lat="39.3136200" lon="-6.3400700">
        <ele>390.8</ele>
        <time>2021-10-17T17:00:36Z</time>
      </trkpt>
      <trkpt lat="39.3135710" lon="-6.3400380">
        <ele>390.8</ele>
        <time>2021-10-17T17:00:37Z</time>
      </trkpt>
      <trkpt lat="39.3134160" lon="-6.3399200">
        <ele>390.4</ele>
        <time>2021-10-17T17:00:40Z</time>
      </trkpt>
      <trkpt lat="39.3133630" lon="-6.3398770">
        <ele>390.4</ele>
        <time>2021-10-17T17:00:41Z</time>
      </trkpt>
      <trkpt lat="39.3133160" lon="-6.3398280">
        <ele>390.2</ele>
        <time>2021-10-17T17:00:42Z</time>
      </trkpt>
      <trkpt lat="39.3132720" lon="-6.3397700">
        <ele>389.8</ele>
        <time>2021-10-17T17:00:43Z</time>
      </trkpt>
      <trkpt lat="39.3131760" lon="-6.3396500">
        <ele>389.4</ele>
        <time>2021-10-17T17:00:45Z</time>
      </trkpt>
      <trkpt lat="39.3131230" lon="-6.3395930">
        <ele>389.2</ele>
        <time>2021-10-17T17:00:46Z</time>
      </trkpt>
      <trkpt lat="39.3130060" lon="-6.3395110">
        <ele>389.0</ele>
        <time>2021-10-17T17:00:48Z</time>
      </trkpt>
      <trkpt lat="39.3129470" lon="-6.3394900">
        <ele>388.8</ele>
        <time>2021-10-17T17:00:49Z</time>
      </trkpt>
      <trkpt lat="39.3128900" lon="-6.3394840">
        <ele>388.8</ele>
        <time>2021-10-17T17:00:50Z</time>
      </trkpt>
      <trkpt lat="39.3127890" lon="-6.3395000">
        <ele>388.2</ele>
        <time>2021-10-17T17:00:52Z</time>
      </trkpt>
      <trkpt lat="39.3127330" lon="-6.3394990">
        <ele>387.8</ele>
        <time>2021-10-17T17:00:53Z</time>
      </trkpt>
      <trkpt lat="39.3126870" lon="-6.3394890">
        <ele>387.6</ele>
        <time>2021-10-17T17:00:54Z</time>
      </trkpt>
      <trkpt lat="39.3125240" lon="-6.3394090">
        <ele>387.6</ele>
        <time>2021-10-17T17:00:58Z</time>
      </trkpt>
      <trkpt lat="39.3121850" lon="-6.3392120">
        <ele>388.2</ele>
        <time>2021-10-17T17:01:06Z</time>
      </trkpt>
      <trkpt lat="39.3119240" lon="-6.3390720">
        <ele>388.2</ele>
        <time>2021-10-17T17:01:12Z</time>
      </trkpt>
      <trkpt lat="39.3118600" lon="-6.3390050">
        <ele>388.2</ele>
        <time>2021-10-17T17:01:14Z</time>
      </trkpt>
      <trkpt lat="39.3118210" lon="-6.3389680">
        <ele>388.2</ele>
        <time>2021-10-17T17:01:15Z</time>
      </trkpt>
      <trkpt lat="39.3116470" lon="-6.3388280">
        <ele>387.2</ele>
        <time>2021-10-17T17:01:19Z</time>
      </trkpt>
      <trkpt lat="39.3115520" lon="-6.3387390">
        <ele>386.8</ele>
        <time>2021-10-17T17:01:21Z</time>
      </trkpt>
      <trkpt lat="39.3115040" lon="-6.3387140">
        <ele>386.6</ele>
        <time>2021-10-17T17:01:22Z</time>
      </trkpt>
      <trkpt lat="39.3114210" lon="-6.3386840">
        <ele>386.4</ele>
        <time>2021-10-17T17:01:24Z</time>
      </trkpt>
      <trkpt lat="39.3113410" lon="-6.3386520">
        <ele>386.2</ele>
        <time>2021-10-17T17:01:26Z</time>
      </trkpt>
      <trkpt lat="39.3111810" lon="-6.3385350">
        <ele>385.8</ele>
        <time>2021-10-17T17:01:30Z</time>
      </trkpt>
      <trkpt lat="39.3110710" lon="-6.3384690">
        <ele>385.8</ele>
        <time>2021-10-17T17:01:33Z</time>
      </trkpt>
      <trkpt lat="39.3109840" lon="-6.3384280">
        <ele>385.8</ele>
        <time>2021-10-17T17:01:35Z</time>
      </trkpt>
      <trkpt lat="39.3109540" lon="-6.3384100">
        <ele>385.8</ele>
        <time>2021-10-17T17:01:36Z</time>
      </trkpt>
      <trkpt lat="39.3109210" lon="-6.3383820">
        <ele>385.8</ele>
        <time>2021-10-17T17:01:37Z</time>
      </trkpt>
      <trkpt lat="39.3108060" lon="-6.3383030">
        <ele>385.8</ele>
        <time>2021-10-17T17:01:40Z</time>
      </trkpt>
      <trkpt lat="39.3107710" lon="-6.3382860">
        <ele>385.8</ele>
        <time>2021-10-17T17:01:41Z</time>
      </trkpt>
      <trkpt lat="39.3105930" lon="-6.3381670">
        <ele>387.0</ele>
        <time>2021-10-17T17:01:47Z</time>
      </trkpt>
      <trkpt lat="39.3104140" lon="-6.3380400">
        <ele>387.6</ele>
        <time>2021-10-17T17:01:53Z</time>
      </trkpt>
      <trkpt lat="39.3102360" lon="-6.3379360">
        <ele>388.4</ele>
        <time>2021-10-17T17:02:00Z</time>
      </trkpt>
      <trkpt lat="39.3101880" lon="-6.3379310">
        <ele>388.8</ele>
        <time>2021-10-17T17:02:02Z</time>
      </trkpt>
      <trkpt lat="39.3100750" lon="-6.3379430">
        <ele>389.6</ele>
        <time>2021-10-17T17:02:07Z</time>
      </trkpt>
      <trkpt lat="39.3099790" lon="-6.3379180">
        <ele>389.8</ele>
        <time>2021-10-17T17:02:11Z</time>
      </trkpt>
      <trkpt lat="39.3098970" lon="-6.3378800">
        <ele>390.2</ele>
        <time>2021-10-17T17:02:15Z</time>
      </trkpt>
      <trkpt lat="39.3097970" lon="-6.3378130">
        <ele>390.8</ele>
        <time>2021-10-17T17:02:20Z</time>
      </trkpt>
      <trkpt lat="39.3097520" lon="-6.3377840">
        <ele>390.8</ele>
        <time>2021-10-17T17:02:22Z</time>
      </trkpt>
      <trkpt lat="39.3096500" lon="-6.3377110">
        <ele>391.4</ele>
        <time>2021-10-17T17:02:27Z</time>
      </trkpt>
      <trkpt lat="39.3095480" lon="-6.3376530">
        <ele>391.8</ele>
        <time>2021-10-17T17:02:32Z</time>
      </trkpt>
      <trkpt lat="39.3095150" lon="-6.3376340">
        <ele>392.2</ele>
        <time>2021-10-17T17:02:34Z</time>
      </trkpt>
      <trkpt lat="39.3093840" lon="-6.3375570">
        <ele>393.0</ele>
        <time>2021-10-17T17:02:41Z</time>
      </trkpt>
      <trkpt lat="39.3093300" lon="-6.3375290">
        <ele>393.4</ele>
        <time>2021-10-17T17:02:44Z</time>
      </trkpt>
      <trkpt lat="39.3092250" lon="-6.3374710">
        <ele>393.8</ele>
        <time>2021-10-17T17:02:49Z</time>
      </trkpt>
      <trkpt lat="39.3091910" lon="-6.3374510">
        <ele>394.0</ele>
        <time>2021-10-17T17:02:51Z</time>
      </trkpt>
      <trkpt lat="39.3091720" lon="-6.3374380">
        <ele>394.0</ele>
        <time>2021-10-17T17:02:52Z</time>
      </trkpt>
      <trkpt lat="39.3089690" lon="-6.3373220">
        <ele>395.0</ele>
        <time>2021-10-17T17:03:02Z</time>
      </trkpt>
      <trkpt lat="39.3089490" lon="-6.3373100">
        <ele>395.0</ele>
        <time>2021-10-17T17:03:03Z</time>
      </trkpt>
      <trkpt lat="39.3088720" lon="-6.3372750">
        <ele>395.4</ele>
        <time>2021-10-17T17:03:07Z</time>
      </trkpt>
      <trkpt lat="39.3087880" lon="-6.3372400">
        <ele>395.6</ele>
        <time>2021-10-17T17:03:11Z</time>
      </trkpt>
      <trkpt lat="39.3087650" lon="-6.3372280">
        <ele>395.8</ele>
        <time>2021-10-17T17:03:12Z</time>
      </trkpt>
      <trkpt lat="39.3087250" lon="-6.3372040">
        <ele>396.2</ele>
        <time>2021-10-17T17:03:14Z</time>
      </trkpt>
      <trkpt lat="39.3086110" lon="-6.3371310">
        <ele>396.6</ele>
        <time>2021-10-17T17:03:20Z</time>
      </trkpt>
      <trkpt lat="39.3084430" lon="-6.3370430">
        <ele>396.8</ele>
        <time>2021-10-17T17:03:27Z</time>
      </trkpt>
      <trkpt lat="39.3084190" lon="-6.3370280">
        <ele>397.0</ele>
        <time>2021-10-17T17:03:28Z</time>
      </trkpt>
      <trkpt lat="39.3083600" lon="-6.3369710">
        <ele>397.2</ele>
        <time>2021-10-17T17:03:31Z</time>
      </trkpt>
      <trkpt lat="39.3083100" lon="-6.3369030">
        <ele>397.2</ele>
        <time>2021-10-17T17:03:34Z</time>
      </trkpt>
      <trkpt lat="39.3082710" lon="-6.3368450">
        <ele>397.4</ele>
        <time>2021-10-17T17:03:36Z</time>
      </trkpt>
      <trkpt lat="39.3082340" lon="-6.3367980">
        <ele>397.4</ele>
        <time>2021-10-17T17:03:38Z</time>
      </trkpt>
      <trkpt lat="39.3081620" lon="-6.3367280">
        <ele>397.6</ele>
        <time>2021-10-17T17:03:41Z</time>
      </trkpt>
      <trkpt lat="39.3081230" lon="-6.3366930">
        <ele>397.4</ele>
        <time>2021-10-17T17:03:43Z</time>
      </trkpt>
      <trkpt lat="39.3080260" lon="-6.3366250">
        <ele>397.6</ele>
        <time>2021-10-17T17:03:47Z</time>
      </trkpt>
      <trkpt lat="39.3079560" lon="-6.3365530">
        <ele>397.4</ele>
        <time>2021-10-17T17:03:50Z</time>
      </trkpt>
      <trkpt lat="39.3078570" lon="-6.3364630">
        <ele>397.4</ele>
        <time>2021-10-17T17:03:54Z</time>
      </trkpt>
      <trkpt lat="39.3078110" lon="-6.3364040">
        <ele>397.4</ele>
        <time>2021-10-17T17:03:56Z</time>
      </trkpt>
      <trkpt lat="39.3077030" lon="-6.3362960">
        <ele>397.2</ele>
        <time>2021-10-17T17:04:00Z</time>
      </trkpt>
      <trkpt lat="39.3076820" lon="-6.3362770">
        <ele>397.2</ele>
        <time>2021-10-17T17:04:01Z</time>
      </trkpt>
      <trkpt lat="39.3074380" lon="-6.3360850">
        <ele>396.8</ele>
        <time>2021-10-17T17:04:09Z</time>
      </trkpt>
      <trkpt lat="39.3073280" lon="-6.3360280">
        <ele>396.4</ele>
        <time>2021-10-17T17:04:13Z</time>
      </trkpt>
      <trkpt lat="39.3072370" lon="-6.3360050">
        <ele>396.0</ele>
        <time>2021-10-17T17:04:16Z</time>
      </trkpt>
      <trkpt lat="39.3071940" lon="-6.3359860">
        <ele>395.8</ele>
        <time>2021-10-17T17:04:17Z</time>
      </trkpt>
      <trkpt lat="39.3070240" lon="-6.3358940">
        <ele>395.4</ele>
        <time>2021-10-17T17:04:21Z</time>
      </trkpt>
      <trkpt lat="39.3068890" lon="-6.3358110">
        <ele>394.8</ele>
        <time>2021-10-17T17:04:24Z</time>
      </trkpt>
      <trkpt lat="39.3068330" lon="-6.3357670">
        <ele>394.8</ele>
        <time>2021-10-17T17:04:25Z</time>
      </trkpt>
      <trkpt lat="39.3067530" lon="-6.3356950">
        <ele>394.2</ele>
        <time>2021-10-17T17:04:27Z</time>
      </trkpt>
      <trkpt lat="39.3067100" lon="-6.3356530">
        <ele>393.8</ele>
        <time>2021-10-17T17:04:28Z</time>
      </trkpt>
      <trkpt lat="39.3066150" lon="-6.3355570">
        <ele>393.4</ele>
        <time>2021-10-17T17:04:30Z</time>
      </trkpt>
      <trkpt lat="39.3064860" lon="-6.3354690">
        <ele>393.2</ele>
        <time>2021-10-17T17:04:33Z</time>
      </trkpt>
      <trkpt lat="39.3064420" lon="-6.3354480">
        <ele>393.0</ele>
        <time>2021-10-17T17:04:34Z</time>
      </trkpt>
      <trkpt lat="39.3063100" lon="-6.3353710">
        <ele>392.8</ele>
        <time>2021-10-17T17:04:37Z</time>
      </trkpt>
      <trkpt lat="39.3062660" lon="-6.3353420">
        <ele>392.8</ele>
        <time>2021-10-17T17:04:38Z</time>
      </trkpt>
      <trkpt lat="39.3061310" lon="-6.3352460">
        <ele>392.0</ele>
        <time>2021-10-17T17:04:41Z</time>
      </trkpt>
      <trkpt lat="39.3060920" lon="-6.3352130">
        <ele>391.8</ele>
        <time>2021-10-17T17:04:42Z</time>
      </trkpt>
      <trkpt lat="39.3060180" lon="-6.3351540">
        <ele>391.6</ele>
        <time>2021-10-17T17:04:44Z</time>
      </trkpt>
      <trkpt lat="39.3059860" lon="-6.3351380">
        <ele>391.4</ele>
        <time>2021-10-17T17:04:45Z</time>
      </trkpt>
      <trkpt lat="39.3057090" lon="-6.3349860">
        <ele>391.2</ele>
        <time>2021-10-17T17:04:52Z</time>
      </trkpt>
      <trkpt lat="39.3054780" lon="-6.3348370">
        <ele>391.0</ele>
        <time>2021-10-17T17:04:58Z</time>
      </trkpt>
      <trkpt lat="39.3054500" lon="-6.3348100">
        <ele>390.8</ele>
        <time>2021-10-17T17:04:59Z</time>
      </trkpt>
      <trkpt lat="39.3053760" lon="-6.3347470">
        <ele>390.8</ele>
        <time>2021-10-17T17:05:01Z</time>
      </trkpt>
      <trkpt lat="39.3053080" lon="-6.3346850">
        <ele>390.6</ele>
        <time>2021-10-17T17:05:03Z</time>
      </trkpt>
      <trkpt lat="39.3052080" lon="-6.3345790">
        <ele>390.4</ele>
        <time>2021-10-17T17:05:06Z</time>
      </trkpt>
      <trkpt lat="39.3051640" lon="-6.3345430">
        <ele>390.2</ele>
        <time>2021-10-17T17:05:07Z</time>
      </trkpt>
      <trkpt lat="39.3050910" lon="-6.3344740">
        <ele>390.2</ele>
        <time>2021-10-17T17:05:09Z</time>
      </trkpt>
      <trkpt lat="39.3050210" lon="-6.3344220">
        <ele>390.0</ele>
        <time>2021-10-17T17:05:11Z</time>
      </trkpt>
      <trkpt lat="39.3049410" lon="-6.3343400">
        <ele>389.8</ele>
        <time>2021-10-17T17:05:13Z</time>
      </trkpt>
      <trkpt lat="39.3048790" lon="-6.3341950">
        <ele>389.6</ele>
        <time>2021-10-17T17:05:16Z</time>
      </trkpt>
      <trkpt lat="39.3048530" lon="-6.3341440">
        <ele>389.2</ele>
        <time>2021-10-17T17:05:17Z</time>
      </trkpt>
      <trkpt lat="39.3047810" lon="-6.3339910">
        <ele>388.8</ele>
        <time>2021-10-17T17:05:20Z</time>
      </trkpt>
      <trkpt lat="39.3047500" lon="-6.3339280">
        <ele>388.6</ele>
        <time>2021-10-17T17:05:21Z</time>
      </trkpt>
      <trkpt lat="39.3046790" lon="-6.3338360">
        <ele>388.4</ele>
        <time>2021-10-17T17:05:23Z</time>
      </trkpt>
      <trkpt lat="39.3045040" lon="-6.3336660">
        <ele>388.0</ele>
        <time>2021-10-17T17:05:27Z</time>
      </trkpt>
      <trkpt lat="39.3044170" lon="-6.3335750">
        <ele>387.8</ele>
        <time>2021-10-17T17:05:29Z</time>
      </trkpt>
      <trkpt lat="39.3043680" lon="-6.3335230">
        <ele>387.6</ele>
        <time>2021-10-17T17:05:30Z</time>
      </trkpt>
      <trkpt lat="39.3041710" lon="-6.3333010">
        <ele>386.6</ele>
        <time>2021-10-17T17:05:34Z</time>
      </trkpt>
      <trkpt lat="39.3041060" lon="-6.3332330">
        <ele>386.4</ele>
        <time>2021-10-17T17:05:35Z</time>
      </trkpt>
      <trkpt lat="39.3038480" lon="-6.3329370">
        <ele>385.2</ele>
        <time>2021-10-17T17:05:40Z</time>
      </trkpt>
      <trkpt lat="39.3037490" lon="-6.3328130">
        <ele>385.0</ele>
        <time>2021-10-17T17:05:42Z</time>
      </trkpt>
      <trkpt lat="39.3037020" lon="-6.3327570">
        <ele>384.2</ele>
        <time>2021-10-17T17:05:43Z</time>
      </trkpt>
      <trkpt lat="39.3036500" lon="-6.3327060">
        <ele>383.8</ele>
        <time>2021-10-17T17:05:44Z</time>
      </trkpt>
      <trkpt lat="39.3035200" lon="-6.3326160">
        <ele>382.8</ele>
        <time>2021-10-17T17:05:46Z</time>
      </trkpt>
      <trkpt lat="39.3031390" lon="-6.3324660">
        <ele>381.8</ele>
        <time>2021-10-17T17:05:52Z</time>
      </trkpt>
      <trkpt lat="39.3030810" lon="-6.3324290">
        <ele>381.8</ele>
        <time>2021-10-17T17:05:53Z</time>
      </trkpt>
      <trkpt lat="39.3030260" lon="-6.3323920">
        <ele>381.4</ele>
        <time>2021-10-17T17:05:54Z</time>
      </trkpt>
      <trkpt lat="39.3029670" lon="-6.3323380">
        <ele>380.8</ele>
        <time>2021-10-17T17:05:55Z</time>
      </trkpt>
      <trkpt lat="39.3028950" lon="-6.3322380">
        <ele>380.2</ele>
        <time>2021-10-17T17:05:57Z</time>
      </trkpt>
      <trkpt lat="39.3028590" lon="-6.3321710">
        <ele>380.0</ele>
        <time>2021-10-17T17:05:58Z</time>
      </trkpt>
      <trkpt lat="39.3027880" lon="-6.3320560">
        <ele>379.8</ele>
        <time>2021-10-17T17:06:01Z</time>
      </trkpt>
      <trkpt lat="39.3026660" lon="-6.3319560">
        <ele>379.6</ele>
        <time>2021-10-17T17:06:05Z</time>
      </trkpt>
      <trkpt lat="39.3024800" lon="-6.3319810">
        <ele>379.6</ele>
        <time>2021-10-17T17:06:10Z</time>
      </trkpt>
      <trkpt lat="39.3022210" lon="-6.3318520">
        <ele>380.0</ele>
        <time>2021-10-17T17:06:17Z</time>
      </trkpt>
      <trkpt lat="39.3019250" lon="-6.3317660">
        <ele>379.8</ele>
        <time>2021-10-17T17:06:24Z</time>
      </trkpt>
      <trkpt lat="39.3018850" lon="-6.3317560">
        <ele>379.6</ele>
        <time>2021-10-17T17:06:25Z</time>
      </trkpt>
      <trkpt lat="39.3017300" lon="-6.3317120">
        <ele>379.6</ele>
        <time>2021-10-17T17:06:29Z</time>
      </trkpt>
      <trkpt lat="39.3016390" lon="-6.3316880">
        <ele>379.4</ele>
        <time>2021-10-17T17:06:31Z</time>
      </trkpt>
      <trkpt lat="39.3015960" lon="-6.3316800">
        <ele>379.4</ele>
        <time>2021-10-17T17:06:32Z</time>
      </trkpt>
      <trkpt lat="39.3011800" lon="-6.3316310">
        <ele>380.0</ele>
        <time>2021-10-17T17:06:41Z</time>
      </trkpt>
      <trkpt lat="39.3009070" lon="-6.3316040">
        <ele>379.6</ele>
        <time>2021-10-17T17:06:47Z</time>
      </trkpt>
      <trkpt lat="39.3008040" lon="-6.3316090">
        <ele>379.6</ele>
        <time>2021-10-17T17:06:49Z</time>
      </trkpt>
      <trkpt lat="39.3006340" lon="-6.3316070">
        <ele>379.6</ele>
        <time>2021-10-17T17:06:53Z</time>
      </trkpt>
      <trkpt lat="39.3004900" lon="-6.3315640">
        <ele>379.8</ele>
        <time>2021-10-17T17:06:56Z</time>
      </trkpt>
      <trkpt lat="39.3002370" lon="-6.3314830">
        <ele>380.0</ele>
        <time>2021-10-17T17:07:02Z</time>
      </trkpt>
      <trkpt lat="39.2999400" lon="-6.3313670">
        <ele>380.4</ele>
        <time>2021-10-17T17:07:10Z</time>
      </trkpt>
      <trkpt lat="39.2997050" lon="-6.3312330">
        <ele>381.4</ele>
        <time>2021-10-17T17:07:18Z</time>
      </trkpt>
      <trkpt lat="39.2995620" lon="-6.3311670">
        <ele>382.4</ele>
        <time>2021-10-17T17:07:24Z</time>
      </trkpt>
      <trkpt lat="39.2995370" lon="-6.3311510">
        <ele>382.4</ele>
        <time>2021-10-17T17:07:25Z</time>
      </trkpt>
      <trkpt lat="39.2995140" lon="-6.3311310">
        <ele>382.4</ele>
        <time>2021-10-17T17:07:26Z</time>
      </trkpt>
      <trkpt lat="39.2993810" lon="-6.3310090">
        <ele>383.0</ele>
        <time>2021-10-17T17:07:32Z</time>
      </trkpt>
      <trkpt lat="39.2992690" lon="-6.3309450">
        <ele>383.4</ele>
        <time>2021-10-17T17:07:36Z</time>
      </trkpt>
      <trkpt lat="39.2991680" lon="-6.3308990">
        <ele>383.6</ele>
        <time>2021-10-17T17:07:39Z</time>
      </trkpt>
      <trkpt lat="39.2990780" lon="-6.3308700">
        <ele>383.4</ele>
        <time>2021-10-17T17:07:41Z</time>
      </trkpt>
      <trkpt lat="39.2990330" lon="-6.3308570">
        <ele>383.4</ele>
        <time>2021-10-17T17:07:42Z</time>
      </trkpt>
      <trkpt lat="39.2989370" lon="-6.3308350">
        <ele>383.4</ele>
        <time>2021-10-17T17:07:44Z</time>
      </trkpt>
      <trkpt lat="39.2988850" lon="-6.3308280">
        <ele>383.4</ele>
        <time>2021-10-17T17:07:45Z</time>
      </trkpt>
      <trkpt lat="39.2988430" lon="-6.3308260">
        <ele>383.4</ele>
        <time>2021-10-17T17:07:46Z</time>
      </trkpt>
      <trkpt lat="39.2987920" lon="-6.3308280">
        <ele>383.0</ele>
        <time>2021-10-17T17:07:47Z</time>
      </trkpt>
      <trkpt lat="39.2987400" lon="-6.3308370">
        <ele>382.6</ele>
        <time>2021-10-17T17:07:48Z</time>
      </trkpt>
      <trkpt lat="39.2986380" lon="-6.3308910">
        <ele>382.0</ele>
        <time>2021-10-17T17:07:50Z</time>
      </trkpt>
      <trkpt lat="39.2985340" lon="-6.3309680">
        <ele>381.6</ele>
        <time>2021-10-17T17:07:52Z</time>
      </trkpt>
      <trkpt lat="39.2983520" lon="-6.3310670">
        <ele>381.0</ele>
        <time>2021-10-17T17:07:55Z</time>
      </trkpt>
      <trkpt lat="39.2982920" lon="-6.3310770">
        <ele>380.8</ele>
        <time>2021-10-17T17:07:56Z</time>
      </trkpt>
      <trkpt lat="39.2981770" lon="-6.3310710">
        <ele>380.4</ele>
        <time>2021-10-17T17:07:58Z</time>
      </trkpt>
      <trkpt lat="39.2981280" lon="-6.3310540">
        <ele>380.4</ele>
        <time>2021-10-17T17:07:59Z</time>
      </trkpt>
      <trkpt lat="39.2980850" lon="-6.3310300">
        <ele>380.2</ele>
        <time>2021-10-17T17:08:00Z</time>
      </trkpt>
      <trkpt lat="39.2979750" lon="-6.3309560">
        <ele>379.8</ele>
        <time>2021-10-17T17:08:03Z</time>
      </trkpt>
      <trkpt lat="39.2979080" lon="-6.3308840">
        <ele>379.8</ele>
        <time>2021-10-17T17:08:05Z</time>
      </trkpt>
      <trkpt lat="39.2978200" lon="-6.3307610">
        <ele>379.4</ele>
        <time>2021-10-17T17:08:08Z</time>
      </trkpt>
      <trkpt lat="39.2977390" lon="-6.3306510">
        <ele>379.0</ele>
        <time>2021-10-17T17:08:11Z</time>
      </trkpt>
      <trkpt lat="39.2976870" lon="-6.3305880">
        <ele>379.0</ele>
        <time>2021-10-17T17:08:13Z</time>
      </trkpt>
      <trkpt lat="39.2975950" lon="-6.3304960">
        <ele>378.8</ele>
        <time>2021-10-17T17:08:16Z</time>
      </trkpt>
      <trkpt lat="39.2975650" lon="-6.3304610">
        <ele>378.8</ele>
        <time>2021-10-17T17:08:17Z</time>
      </trkpt>
      <trkpt lat="39.2975650" lon="-6.3304610">
        <ele>378.8</ele>
        <time>2021-10-17T17:08:19Z</time>
      </trkpt>
      <trkpt lat="39.2974300" lon="-6.3302490">
        <ele>379.2</ele>
        <time>2021-10-17T17:08:24Z</time>
      </trkpt>
      <trkpt lat="39.2972500" lon="-6.3300830">
        <ele>379.8</ele>
        <time>2021-10-17T17:08:31Z</time>
      </trkpt>
      <trkpt lat="39.2972210" lon="-6.3300710">
        <ele>380.0</ele>
        <time>2021-10-17T17:08:32Z</time>
      </trkpt>
      <trkpt lat="39.2971490" lon="-6.3300360">
        <ele>380.0</ele>
        <time>2021-10-17T17:08:34Z</time>
      </trkpt>
      <trkpt lat="39.2970780" lon="-6.3300020">
        <ele>380.0</ele>
        <time>2021-10-17T17:08:36Z</time>
      </trkpt>
      <trkpt lat="39.2969670" lon="-6.3300340">
        <ele>379.6</ele>
        <time>2021-10-17T17:08:40Z</time>
      </trkpt>
      <trkpt lat="39.2968080" lon="-6.3301780">
        <ele>379.8</ele>
        <time>2021-10-17T17:08:46Z</time>
      </trkpt>
      <trkpt lat="39.2966480" lon="-6.3302730">
        <ele>380.4</ele>
        <time>2021-10-17T17:08:51Z</time>
      </trkpt>
      <trkpt lat="39.2965030" lon="-6.3302840">
        <ele>381.0</ele>
        <time>2021-10-17T17:08:56Z</time>
      </trkpt>
      <trkpt lat="39.2964760" lon="-6.3302740">
        <ele>381.2</ele>
        <time>2021-10-17T17:08:57Z</time>
      </trkpt>
      <trkpt lat="39.2964540" lon="-6.3302640">
        <ele>381.2</ele>
        <time>2021-10-17T17:08:58Z</time>
      </trkpt>
      <trkpt lat="39.2964210" lon="-6.3302480">
        <ele>381.4</ele>
        <time>2021-10-17T17:08:59Z</time>
      </trkpt>
      <trkpt lat="39.2963170" lon="-6.3301920">
        <ele>382.0</ele>
        <time>2021-10-17T17:09:03Z</time>
      </trkpt>
      <trkpt lat="39.2962880" lon="-6.3301710">
        <ele>382.2</ele>
        <time>2021-10-17T17:09:04Z</time>
      </trkpt>
      <trkpt lat="39.2960530" lon="-6.3300200">
        <ele>383.2</ele>
        <time>2021-10-17T17:09:13Z</time>
      </trkpt>
      <trkpt lat="39.2959950" lon="-6.3300030">
        <ele>383.4</ele>
        <time>2021-10-17T17:09:15Z</time>
      </trkpt>
      <trkpt lat="39.2959720" lon="-6.3299990">
        <ele>383.6</ele>
        <time>2021-10-17T17:09:16Z</time>
      </trkpt>
      <trkpt lat="39.2959430" lon="-6.3299910">
        <ele>383.6</ele>
        <time>2021-10-17T17:09:17Z</time>
      </trkpt>
      <trkpt lat="39.2959070" lon="-6.3299790">
        <ele>383.6</ele>
        <time>2021-10-17T17:09:18Z</time>
      </trkpt>
      <trkpt lat="39.2958220" lon="-6.3299440">
        <ele>383.6</ele>
        <time>2021-10-17T17:09:21Z</time>
      </trkpt>
      <trkpt lat="39.2957600" lon="-6.3298970">
        <ele>383.8</ele>
        <time>2021-10-17T17:09:23Z</time>
      </trkpt>
      <trkpt lat="39.2957050" lon="-6.3298620">
        <ele>383.8</ele>
        <time>2021-10-17T17:09:25Z</time>
      </trkpt>
      <trkpt lat="39.2955690" lon="-6.3297770">
        <ele>384.0</ele>
        <time>2021-10-17T17:09:29Z</time>
      </trkpt>
      <trkpt lat="39.2954760" lon="-6.3297380">
        <ele>384.0</ele>
        <time>2021-10-17T17:09:32Z</time>
      </trkpt>
      <trkpt lat="39.2954090" lon="-6.3296990">
        <ele>384.0</ele>
        <time>2021-10-17T17:09:34Z</time>
      </trkpt>
      <trkpt lat="39.2953360" lon="-6.3296320">
        <ele>384.0</ele>
        <time>2021-10-17T17:09:36Z</time>
      </trkpt>
      <trkpt lat="39.2952320" lon="-6.3295340">
        <ele>383.8</ele>
        <time>2021-10-17T17:09:39Z</time>
      </trkpt>
      <trkpt lat="39.2951220" lon="-6.3294410">
        <ele>383.6</ele>
        <time>2021-10-17T17:09:42Z</time>
      </trkpt>
      <trkpt lat="39.2950800" lon="-6.3294120">
        <ele>383.6</ele>
        <time>2021-10-17T17:09:43Z</time>
      </trkpt>
      <trkpt lat="39.2948620" lon="-6.3293090">
        <ele>383.6</ele>
        <time>2021-10-17T17:09:48Z</time>
      </trkpt>
      <trkpt lat="39.2947580" lon="-6.3292500">
        <ele>383.4</ele>
        <time>2021-10-17T17:09:50Z</time>
      </trkpt>
      <trkpt lat="39.2946220" lon="-6.3291820">
        <ele>383.2</ele>
        <time>2021-10-17T17:09:53Z</time>
      </trkpt>
      <trkpt lat="39.2944750" lon="-6.3291370">
        <ele>383.0</ele>
        <time>2021-10-17T17:09:56Z</time>
      </trkpt>
      <trkpt lat="39.2941210" lon="-6.3290410">
        <ele>383.0</ele>
        <time>2021-10-17T17:10:04Z</time>
      </trkpt>
      <trkpt lat="39.2937130" lon="-6.3288970">
        <ele>383.4</ele>
        <time>2021-10-17T17:10:13Z</time>
      </trkpt>
      <trkpt lat="39.2934220" lon="-6.3287590">
        <ele>383.4</ele>
        <time>2021-10-17T17:10:20Z</time>
      </trkpt>
      <trkpt lat="39.2933830" lon="-6.3287380">
        <ele>383.2</ele>
        <time>2021-10-17T17:10:21Z</time>
      </trkpt>
      <trkpt lat="39.2932210" lon="-6.3286500">
        <ele>383.2</ele>
        <time>2021-10-17T17:10:25Z</time>
      </trkpt>
      <trkpt lat="39.2931330" lon="-6.3286090">
        <ele>383.2</ele>
        <time>2021-10-17T17:10:27Z</time>
      </trkpt>
      <trkpt lat="39.2930810" lon="-6.3285790">
        <ele>383.2</ele>
        <time>2021-10-17T17:10:28Z</time>
      </trkpt>
      <trkpt lat="39.2927210" lon="-6.3283880">
        <ele>382.8</ele>
        <time>2021-10-17T17:10:36Z</time>
      </trkpt>
      <trkpt lat="39.2925940" lon="-6.3283150">
        <ele>382.6</ele>
        <time>2021-10-17T17:10:39Z</time>
      </trkpt>
      <trkpt lat="39.2922620" lon="-6.3281410">
        <ele>382.2</ele>
        <time>2021-10-17T17:10:46Z</time>
      </trkpt>
      <trkpt lat="39.2921430" lon="-6.3280620">
        <ele>382.0</ele>
        <time>2021-10-17T17:10:49Z</time>
      </trkpt>
      <trkpt lat="39.2920280" lon="-6.3279990">
        <ele>381.8</ele>
        <time>2021-10-17T17:10:53Z</time>
      </trkpt>
      <trkpt lat="39.2918960" lon="-6.3279500">
        <ele>381.4</ele>
        <time>2021-10-17T17:11:00Z</time>
      </trkpt>
      <trkpt lat="39.2917840" lon="-6.3278920">
        <ele>381.2</ele>
        <time>2021-10-17T17:11:04Z</time>
      </trkpt>
      <trkpt lat="39.2917280" lon="-6.3278600">
        <ele>381.2</ele>
        <time>2021-10-17T17:11:06Z</time>
      </trkpt>
      <trkpt lat="39.2914530" lon="-6.3277130">
        <ele>381.0</ele>
        <time>2021-10-17T17:11:14Z</time>
      </trkpt>
      <trkpt lat="39.2911980" lon="-6.3275680">
        <ele>380.8</ele>
        <time>2021-10-17T17:11:21Z</time>
      </trkpt>
      <trkpt lat="39.2909250" lon="-6.3274430">
        <ele>380.6</ele>
        <time>2021-10-17T17:11:28Z</time>
      </trkpt>
      <trkpt lat="39.2908860" lon="-6.3274230">
        <ele>380.6</ele>
        <time>2021-10-17T17:11:29Z</time>
      </trkpt>
      <trkpt lat="39.2906790" lon="-6.3273260">
        <ele>380.4</ele>
        <time>2021-10-17T17:11:34Z</time>
      </trkpt>
      <trkpt lat="39.2906480" lon="-6.3273090">
        <ele>380.2</ele>
        <time>2021-10-17T17:11:35Z</time>
      </trkpt>
      <trkpt lat="39.2904920" lon="-6.3272270">
        <ele>379.6</ele>
        <time>2021-10-17T17:11:39Z</time>
      </trkpt>
      <trkpt lat="39.2904080" lon="-6.3271940">
        <ele>379.6</ele>
        <time>2021-10-17T17:11:41Z</time>
      </trkpt>
      <trkpt lat="39.2902360" lon="-6.3271080">
        <ele>379.4</ele>
        <time>2021-10-17T17:11:45Z</time>
      </trkpt>
      <trkpt lat="39.2901110" lon="-6.3270080">
        <ele>379.2</ele>
        <time>2021-10-17T17:11:48Z</time>
      </trkpt>
      <trkpt lat="39.2900800" lon="-6.3269870">
        <ele>379.0</ele>
        <time>2021-10-17T17:11:49Z</time>
      </trkpt>
      <trkpt lat="39.2899600" lon="-6.3269230">
        <ele>378.6</ele>
        <time>2021-10-17T17:11:52Z</time>
      </trkpt>
      <trkpt lat="39.2898060" lon="-6.3268450">
        <ele>378.2</ele>
        <time>2021-10-17T17:11:56Z</time>
      </trkpt>
      <trkpt lat="39.2896920" lon="-6.3267800">
        <ele>378.0</ele>
        <time>2021-10-17T17:11:59Z</time>
      </trkpt>
      <trkpt lat="39.2894950" lon="-6.3266950">
        <ele>378.0</ele>
        <time>2021-10-17T17:12:04Z</time>
      </trkpt>
      <trkpt lat="39.2893810" lon="-6.3266460">
        <ele>377.8</ele>
        <time>2021-10-17T17:12:07Z</time>
      </trkpt>
      <trkpt lat="39.2892880" lon="-6.3265960">
        <ele>377.4</ele>
        <time>2021-10-17T17:12:10Z</time>
      </trkpt>
      <trkpt lat="39.2891740" lon="-6.3265550">
        <ele>377.0</ele>
        <time>2021-10-17T17:12:15Z</time>
      </trkpt>
      <trkpt lat="39.2891410" lon="-6.3265060">
        <ele>376.8</ele>
        <time>2021-10-17T17:12:17Z</time>
      </trkpt>
      <trkpt lat="39.2890950" lon="-6.3264560">
        <ele>376.8</ele>
        <time>2021-10-17T17:12:20Z</time>
      </trkpt>
      <trkpt lat="39.2890550" lon="-6.3264420">
        <ele>376.8</ele>
        <time>2021-10-17T17:12:23Z</time>
      </trkpt>
      <trkpt lat="39.2890160" lon="-6.3264310">
        <ele>376.6</ele>
        <time>2021-10-17T17:12:25Z</time>
      </trkpt>
      <trkpt lat="39.2888630" lon="-6.3263890">
        <ele>376.2</ele>
        <time>2021-10-17T17:12:30Z</time>
      </trkpt>
      <trkpt lat="39.2886470" lon="-6.3262620">
        <ele>375.8</ele>
        <time>2021-10-17T17:12:37Z</time>
      </trkpt>
      <trkpt lat="39.2886110" lon="-6.3262390">
        <ele>375.8</ele>
        <time>2021-10-17T17:12:38Z</time>
      </trkpt>
      <trkpt lat="39.2883880" lon="-6.3261130">
        <ele>375.8</ele>
        <time>2021-10-17T17:12:44Z</time>
      </trkpt>
      <trkpt lat="39.2880270" lon="-6.3259200">
        <ele>375.2</ele>
        <time>2021-10-17T17:12:53Z</time>
      </trkpt>
      <trkpt lat="39.2876820" lon="-6.3257450">
        <ele>374.8</ele>
        <time>2021-10-17T17:13:01Z</time>
      </trkpt>
      <trkpt lat="39.2874170" lon="-6.3255950">
        <ele>374.4</ele>
        <time>2021-10-17T17:13:07Z</time>
      </trkpt>
      <trkpt lat="39.2873750" lon="-6.3255670">
        <ele>374.4</ele>
        <time>2021-10-17T17:13:08Z</time>
      </trkpt>
      <trkpt lat="39.2871950" lon="-6.3254840">
        <ele>374.2</ele>
        <time>2021-10-17T17:13:12Z</time>
      </trkpt>
      <trkpt lat="39.2870640" lon="-6.3254160">
        <ele>374.0</ele>
        <time>2021-10-17T17:13:15Z</time>
      </trkpt>
      <trkpt lat="39.2869860" lon="-6.3253710">
        <ele>374.0</ele>
        <time>2021-10-17T17:13:17Z</time>
      </trkpt>
      <trkpt lat="39.2868970" lon="-6.3253320">
        <ele>374.0</ele>
        <time>2021-10-17T17:13:19Z</time>
      </trkpt>
      <trkpt lat="39.2868460" lon="-6.3253020">
        <ele>374.0</ele>
        <time>2021-10-17T17:13:20Z</time>
      </trkpt>
      <trkpt lat="39.2865200" lon="-6.3251190">
        <ele>374.2</ele>
        <time>2021-10-17T17:13:28Z</time>
      </trkpt>
      <trkpt lat="39.2860750" lon="-6.3249050">
        <ele>374.0</ele>
        <time>2021-10-17T17:13:39Z</time>
      </trkpt>
      <trkpt lat="39.2860140" lon="-6.3248780">
        <ele>374.2</ele>
        <time>2021-10-17T17:13:41Z</time>
      </trkpt>
      <trkpt lat="39.2859200" lon="-6.3247920">
        <ele>374.0</ele>
        <time>2021-10-17T17:13:44Z</time>
      </trkpt>
      <trkpt lat="39.2858950" lon="-6.3246000">
        <ele>374.2</ele>
        <time>2021-10-17T17:13:48Z</time>
      </trkpt>
      <trkpt lat="39.2858960" lon="-6.3245480">
        <ele>374.2</ele>
        <time>2021-10-17T17:13:49Z</time>
      </trkpt>
      <trkpt lat="39.2859340" lon="-6.3242950">
        <ele>374.4</ele>
        <time>2021-10-17T17:13:54Z</time>
      </trkpt>
      <trkpt lat="39.2859690" lon="-6.3239440">
        <ele>374.6</ele>
        <time>2021-10-17T17:14:02Z</time>
      </trkpt>
      <trkpt lat="39.2860000" lon="-6.3236090">
        <ele>375.6</ele>
        <time>2021-10-17T17:14:10Z</time>
      </trkpt>
      <trkpt lat="39.2860170" lon="-6.3234530">
        <ele>376.0</ele>
        <time>2021-10-17T17:14:14Z</time>
      </trkpt>
      <trkpt lat="39.2860380" lon="-6.3232200">
        <ele>376.6</ele>
        <time>2021-10-17T17:14:20Z</time>
      </trkpt>
      <trkpt lat="39.2860530" lon="-6.3230690">
        <ele>377.0</ele>
        <time>2021-10-17T17:14:24Z</time>
      </trkpt>
      <trkpt lat="39.2860710" lon="-6.3228780">
        <ele>377.2</ele>
        <time>2021-10-17T17:14:29Z</time>
      </trkpt>
      <trkpt lat="39.2860870" lon="-6.3226720">
        <ele>377.6</ele>
        <time>2021-10-17T17:14:35Z</time>
      </trkpt>
      <trkpt lat="39.2860960" lon="-6.3225310">
        <ele>378.0</ele>
        <time>2021-10-17T17:14:39Z</time>
      </trkpt>
      <trkpt lat="39.2861090" lon="-6.3223870">
        <ele>378.0</ele>
        <time>2021-10-17T17:14:43Z</time>
      </trkpt>
      <trkpt lat="39.2861550" lon="-6.3221700">
        <ele>378.4</ele>
        <time>2021-10-17T17:14:49Z</time>
      </trkpt>
      <trkpt lat="39.2861740" lon="-6.3220610">
        <ele>378.6</ele>
        <time>2021-10-17T17:14:52Z</time>
      </trkpt>
      <trkpt lat="39.2862100" lon="-6.3218710">
        <ele>378.8</ele>
        <time>2021-10-17T17:14:57Z</time>
      </trkpt>
      <trkpt lat="39.2862870" lon="-6.3214880">
        <ele>379.0</ele>
        <time>2021-10-17T17:15:07Z</time>
      </trkpt>
      <trkpt lat="39.2862920" lon="-6.3214580">
        <ele>379.0</ele>
        <time>2021-10-17T17:15:08Z</time>
      </trkpt>
      <trkpt lat="39.2863330" lon="-6.3212220">
        <ele>379.2</ele>
        <time>2021-10-17T17:15:14Z</time>
      </trkpt>
      <trkpt lat="39.2864860" lon="-6.3209070">
        <ele>379.6</ele>
        <time>2021-10-17T17:15:24Z</time>
      </trkpt>
      <trkpt lat="39.2865550" lon="-6.3207730">
        <ele>379.8</ele>
        <time>2021-10-17T17:15:28Z</time>
      </trkpt>
      <trkpt lat="39.2866290" lon="-6.3206390">
        <ele>380.0</ele>
        <time>2021-10-17T17:15:32Z</time>
      </trkpt>
      <trkpt lat="39.2866660" lon="-6.3205730">
        <ele>380.2</ele>
        <time>2021-10-17T17:15:34Z</time>
      </trkpt>
      <trkpt lat="39.2867060" lon="-6.3205280">
        <ele>380.2</ele>
        <time>2021-10-17T17:15:36Z</time>
      </trkpt>
      <trkpt lat="39.2867440" lon="-6.3205140">
        <ele>380.2</ele>
        <time>2021-10-17T17:15:38Z</time>
      </trkpt>
      <trkpt lat="39.2868120" lon="-6.3205180">
        <ele>380.4</ele>
        <time>2021-10-17T17:15:43Z</time>
      </trkpt>
      <trkpt lat="39.2868170" lon="-6.3205130">
        <ele>380.4</ele>
        <time>2021-10-17T17:15:44Z</time>
      </trkpt>
      <trkpt lat="39.2868110" lon="-6.3204960">
        <ele>380.8</ele>
        <time>2021-10-17T17:15:50Z</time>
      </trkpt>
      <trkpt lat="39.2868040" lon="-6.3204890">
        <ele>380.8</ele>
        <time>2021-10-17T17:15:51Z</time>
      </trkpt>
      <trkpt lat="39.2867340" lon="-6.3204760">
        <ele>380.8</ele>
        <time>2021-10-17T17:15:56Z</time>
      </trkpt>
      <trkpt lat="39.2866610" lon="-6.3204850">
        <ele>380.6</ele>
        <time>2021-10-17T17:16:00Z</time>
      </trkpt>
      <trkpt lat="39.2866430" lon="-6.3204830">
        <ele>380.6</ele>
        <time>2021-10-17T17:16:03Z</time>
      </trkpt>
      <trkpt lat="39.2866430" lon="-6.3204830">
        <ele>380.6</ele>
        <time>2021-10-17T17:16:04Z</time>
      </trkpt>
      <trkpt lat="39.2864580" lon="-6.3205030">
        <ele>390.8</ele>
        <time>2021-10-18T06:35:17Z</time>
      </trkpt>
      <trkpt lat="39.2864550" lon="-6.3205110">
        <ele>393.8</ele>
        <time>2021-10-18T06:35:18Z</time>
      </trkpt>
      <trkpt lat="39.2865680" lon="-6.3205050">
        <ele>394.2</ele>
        <time>2021-10-18T06:36:13Z</time>
      </trkpt>
      <trkpt lat="39.2866020" lon="-6.3204850">
        <ele>394.2</ele>
        <time>2021-10-18T06:36:15Z</time>
      </trkpt>
      <trkpt lat="39.2866350" lon="-6.3204550">
        <ele>394.2</ele>
        <time>2021-10-18T06:36:17Z</time>
      </trkpt>
      <trkpt lat="39.2866680" lon="-6.3204540">
        <ele>394.2</ele>
        <time>2021-10-18T06:36:19Z</time>
      </trkpt>
      <trkpt lat="39.2866600" lon="-6.3204680">
        <ele>394.0</ele>
        <time>2021-10-18T06:36:23Z</time>
      </trkpt>
      <trkpt lat="39.2866340" lon="-6.3205230">
        <ele>394.0</ele>
        <time>2021-10-18T06:36:26Z</time>
      </trkpt>
      <trkpt lat="39.2866110" lon="-6.3205680">
        <ele>393.8</ele>
        <time>2021-10-18T06:36:28Z</time>
      </trkpt>
      <trkpt lat="39.2866050" lon="-6.3205930">
        <ele>393.6</ele>
        <time>2021-10-18T06:36:32Z</time>
      </trkpt>
      <trkpt lat="39.2866250" lon="-6.3206350">
        <ele>393.6</ele>
        <time>2021-10-18T06:37:30Z</time>
      </trkpt>
      <trkpt lat="39.2865430" lon="-6.3207970">
        <ele>393.2</ele>
        <time>2021-10-18T06:37:36Z</time>
      </trkpt>
      <trkpt lat="39.2864780" lon="-6.3209360">
        <ele>393.2</ele>
        <time>2021-10-18T06:37:40Z</time>
      </trkpt>
      <trkpt lat="39.2864230" lon="-6.3210440">
        <ele>393.0</ele>
        <time>2021-10-18T06:37:43Z</time>
      </trkpt>
      <trkpt lat="39.2863720" lon="-6.3211600">
        <ele>393.0</ele>
        <time>2021-10-18T06:37:47Z</time>
      </trkpt>
      <trkpt lat="39.2863460" lon="-6.3212050">
        <ele>392.8</ele>
        <time>2021-10-18T06:37:49Z</time>
      </trkpt>
      <trkpt lat="39.2863000" lon="-6.3213860">
        <ele>392.4</ele>
        <time>2021-10-18T06:37:55Z</time>
      </trkpt>
      <trkpt lat="39.2862840" lon="-6.3214550">
        <ele>392.2</ele>
        <time>2021-10-18T06:37:57Z</time>
      </trkpt>
      <trkpt lat="39.2862420" lon="-6.3216080">
        <ele>392.2</ele>
        <time>2021-10-18T06:38:01Z</time>
      </trkpt>
      <trkpt lat="39.2861800" lon="-6.3218820">
        <ele>391.6</ele>
        <time>2021-10-18T06:38:08Z</time>
      </trkpt>
      <trkpt lat="39.2861360" lon="-6.3221040">
        <ele>391.6</ele>
        <time>2021-10-18T06:38:13Z</time>
      </trkpt>
      <trkpt lat="39.2861190" lon="-6.3222010">
        <ele>391.6</ele>
        <time>2021-10-18T06:38:15Z</time>
      </trkpt>
      <trkpt lat="39.2861010" lon="-6.3224500">
        <ele>391.2</ele>
        <time>2021-10-18T06:38:20Z</time>
      </trkpt>
      <trkpt lat="39.2860980" lon="-6.3225010">
        <ele>391.2</ele>
        <time>2021-10-18T06:38:21Z</time>
      </trkpt>
      <trkpt lat="39.2860600" lon="-6.3229060">
        <ele>391.0</ele>
        <time>2021-10-18T06:38:28Z</time>
      </trkpt>
      <trkpt lat="39.2860190" lon="-6.3233890">
        <ele>390.4</ele>
        <time>2021-10-18T06:38:36Z</time>
      </trkpt>
      <trkpt lat="39.2860090" lon="-6.3235140">
        <ele>390.2</ele>
        <time>2021-10-18T06:38:38Z</time>
      </trkpt>
      <trkpt lat="39.2859750" lon="-6.3238910">
        <ele>389.4</ele>
        <time>2021-10-18T06:38:44Z</time>
      </trkpt>
      <trkpt lat="39.2859690" lon="-6.3239570">
        <ele>389.2</ele>
        <time>2021-10-18T06:38:45Z</time>
      </trkpt>
      <trkpt lat="39.2859600" lon="-6.3240810">
        <ele>388.8</ele>
        <time>2021-10-18T06:38:47Z</time>
      </trkpt>
      <trkpt lat="39.2859250" lon="-6.3244070">
        <ele>388.0</ele>
        <time>2021-10-18T06:38:53Z</time>
      </trkpt>
      <trkpt lat="39.2859180" lon="-6.3244500">
        <ele>388.0</ele>
        <time>2021-10-18T06:38:54Z</time>
      </trkpt>
      <trkpt lat="39.2859040" lon="-6.3247110">
        <ele>387.0</ele>
        <time>2021-10-18T06:39:00Z</time>
      </trkpt>
      <trkpt lat="39.2859110" lon="-6.3247560">
        <ele>387.0</ele>
        <time>2021-10-18T06:39:01Z</time>
      </trkpt>
      <trkpt lat="39.2859480" lon="-6.3248580">
        <ele>386.8</ele>
        <time>2021-10-18T06:39:04Z</time>
      </trkpt>
      <trkpt lat="39.2859530" lon="-6.3249010">
        <ele>386.2</ele>
        <time>2021-10-18T07:02:31Z</time>
      </trkpt>
      <trkpt lat="39.2858020" lon="-6.3247720">
        <ele>386.2</ele>
        <time>2021-10-18T07:02:36Z</time>
      </trkpt>
      <trkpt lat="39.2855590" lon="-6.3246340">
        <ele>386.0</ele>
        <time>2021-10-18T07:02:43Z</time>
      </trkpt>
      <trkpt lat="39.2852550" lon="-6.3245210">
        <ele>386.2</ele>
        <time>2021-10-18T07:02:52Z</time>
      </trkpt>
      <trkpt lat="39.2850060" lon="-6.3244170">
        <ele>387.0</ele>
        <time>2021-10-18T07:03:00Z</time>
      </trkpt>
      <trkpt lat="39.2849770" lon="-6.3244000">
        <ele>387.2</ele>
        <time>2021-10-18T07:03:01Z</time>
      </trkpt>
      <trkpt lat="39.2848230" lon="-6.3243170">
        <ele>387.6</ele>
        <time>2021-10-18T07:03:06Z</time>
      </trkpt>
      <trkpt lat="39.2847900" lon="-6.3243020">
        <ele>387.6</ele>
        <time>2021-10-18T07:03:07Z</time>
      </trkpt>
      <trkpt lat="39.2847590" lon="-6.3242860">
        <ele>387.8</ele>
        <time>2021-10-18T07:03:08Z</time>
      </trkpt>
      <trkpt lat="39.2846650" lon="-6.3242410">
        <ele>388.0</ele>
        <time>2021-10-18T07:03:11Z</time>
      </trkpt>
      <trkpt lat="39.2845760" lon="-6.3242050">
        <ele>388.0</ele>
        <time>2021-10-18T07:03:14Z</time>
      </trkpt>
      <trkpt lat="39.2845200" lon="-6.3241690">
        <ele>388.2</ele>
        <time>2021-10-18T07:03:16Z</time>
      </trkpt>
      <trkpt lat="39.2844900" lon="-6.3241540">
        <ele>388.2</ele>
        <time>2021-10-18T07:03:17Z</time>
      </trkpt>
      <trkpt lat="39.2842890" lon="-6.3241130">
        <ele>388.4</ele>
        <time>2021-10-18T07:03:23Z</time>
      </trkpt>
      <trkpt lat="39.2840570" lon="-6.3240360">
        <ele>388.6</ele>
        <time>2021-10-18T07:03:30Z</time>
      </trkpt>
      <trkpt lat="39.2839080" lon="-6.3239560">
        <ele>388.8</ele>
        <time>2021-10-18T07:03:35Z</time>
      </trkpt>
      <trkpt lat="39.2838470" lon="-6.3239270">
        <ele>389.0</ele>
        <time>2021-10-18T07:03:37Z</time>
      </trkpt>
      <trkpt lat="39.2837590" lon="-6.3238650">
        <ele>389.0</ele>
        <time>2021-10-18T07:03:40Z</time>
      </trkpt>
      <trkpt lat="39.2837060" lon="-6.3238250">
        <ele>389.2</ele>
        <time>2021-10-18T07:03:42Z</time>
      </trkpt>
      <trkpt lat="39.2836620" lon="-6.3238120">
        <ele>389.4</ele>
        <time>2021-10-18T07:03:44Z</time>
      </trkpt>
      <trkpt lat="39.2835850" lon="-6.3237840">
        <ele>389.4</ele>
        <time>2021-10-18T07:03:47Z</time>
      </trkpt>
      <trkpt lat="39.2834740" lon="-6.3237250">
        <ele>389.8</ele>
        <time>2021-10-18T07:03:51Z</time>
      </trkpt>
      <trkpt lat="39.2832610" lon="-6.3236040">
        <ele>390.0</ele>
        <time>2021-10-18T07:03:58Z</time>
      </trkpt>
      <trkpt lat="39.2829680" lon="-6.3233930">
        <ele>390.2</ele>
        <time>2021-10-18T07:04:08Z</time>
      </trkpt>
      <trkpt lat="39.2827450" lon="-6.3232630">
        <ele>390.2</ele>
        <time>2021-10-18T07:04:15Z</time>
      </trkpt>
      <trkpt lat="39.2824900" lon="-6.3230900">
        <ele>390.0</ele>
        <time>2021-10-18T07:04:23Z</time>
      </trkpt>
      <trkpt lat="39.2821270" lon="-6.3228520">
        <ele>389.6</ele>
        <time>2021-10-18T07:04:34Z</time>
      </trkpt>
      <trkpt lat="39.2819530" lon="-6.3227250">
        <ele>389.4</ele>
        <time>2021-10-18T07:04:39Z</time>
      </trkpt>
      <trkpt lat="39.2818430" lon="-6.3226450">
        <ele>389.0</ele>
        <time>2021-10-18T07:04:42Z</time>
      </trkpt>
      <trkpt lat="39.2818060" lon="-6.3226160">
        <ele>389.0</ele>
        <time>2021-10-18T07:04:43Z</time>
      </trkpt>
      <trkpt lat="39.2816810" lon="-6.3225190">
        <ele>388.6</ele>
        <time>2021-10-18T07:04:46Z</time>
      </trkpt>
      <trkpt lat="39.2816110" lon="-6.3224600">
        <ele>388.2</ele>
        <time>2021-10-18T07:04:48Z</time>
      </trkpt>
      <trkpt lat="39.2814080" lon="-6.3222900">
        <ele>387.4</ele>
        <time>2021-10-18T07:04:53Z</time>
      </trkpt>
      <trkpt lat="39.2812290" lon="-6.3221590">
        <ele>387.0</ele>
        <time>2021-10-18T07:04:57Z</time>
      </trkpt>
      <trkpt lat="39.2810430" lon="-6.3220210">
        <ele>386.6</ele>
        <time>2021-10-18T07:05:01Z</time>
      </trkpt>
      <trkpt lat="39.2808540" lon="-6.3218690">
        <ele>386.0</ele>
        <time>2021-10-18T07:05:05Z</time>
      </trkpt>
      <trkpt lat="39.2806050" lon="-6.3216820">
        <ele>385.6</ele>
        <time>2021-10-18T07:05:10Z</time>
      </trkpt>
      <trkpt lat="39.2805070" lon="-6.3216040">
        <ele>385.4</ele>
        <time>2021-10-18T07:05:12Z</time>
      </trkpt>
      <trkpt lat="39.2803600" lon="-6.3214860">
        <ele>385.2</ele>
        <time>2021-10-18T07:05:15Z</time>
      </trkpt>
      <trkpt lat="39.2801610" lon="-6.3213480">
        <ele>382.6</ele>
        <time>2021-10-18T07:05:19Z</time>
      </trkpt>
      <trkpt lat="39.2801120" lon="-6.3213240">
        <ele>384.0</ele>
        <time>2021-10-18T07:05:20Z</time>
      </trkpt>
      <trkpt lat="39.2800660" lon="-6.3213050">
        <ele>383.8</ele>
        <time>2021-10-18T07:05:21Z</time>
      </trkpt>
      <trkpt lat="39.2800190" lon="-6.3212900">
        <ele>383.6</ele>
        <time>2021-10-18T07:05:22Z</time>
      </trkpt>
      <trkpt lat="39.2798560" lon="-6.3212520">
        <ele>383.2</ele>
        <time>2021-10-18T07:05:26Z</time>
      </trkpt>
      <trkpt lat="39.2797500" lon="-6.3212060">
        <ele>383.0</ele>
        <time>2021-10-18T07:05:29Z</time>
      </trkpt>
      <trkpt lat="39.2796760" lon="-6.3211400">
        <ele>382.8</ele>
        <time>2021-10-18T07:05:31Z</time>
      </trkpt>
      <trkpt lat="39.2795960" lon="-6.3210710">
        <ele>382.6</ele>
        <time>2021-10-18T07:05:33Z</time>
      </trkpt>
      <trkpt lat="39.2794620" lon="-6.3209860">
        <ele>382.2</ele>
        <time>2021-10-18T07:05:36Z</time>
      </trkpt>
      <trkpt lat="39.2794060" lon="-6.3209650">
        <ele>381.8</ele>
        <time>2021-10-18T07:05:37Z</time>
      </trkpt>
      <trkpt lat="39.2790840" lon="-6.3209160">
        <ele>380.6</ele>
        <time>2021-10-18T07:05:44Z</time>
      </trkpt>
      <trkpt lat="39.2790390" lon="-6.3209150">
        <ele>380.6</ele>
        <time>2021-10-18T07:05:45Z</time>
      </trkpt>
      <trkpt lat="39.2787950" lon="-6.3208650">
        <ele>380.0</ele>
        <time>2021-10-18T07:05:51Z</time>
      </trkpt>
      <trkpt lat="39.2786940" lon="-6.3208290">
        <ele>379.6</ele>
        <time>2021-10-18T07:05:54Z</time>
      </trkpt>
      <trkpt lat="39.2785480" lon="-6.3207610">
        <ele>379.6</ele>
        <time>2021-10-18T07:05:58Z</time>
      </trkpt>
      <trkpt lat="39.2784030" lon="-6.3206210">
        <ele>379.4</ele>
        <time>2021-10-18T07:06:03Z</time>
      </trkpt>
      <trkpt lat="39.2782800" lon="-6.3205150">
        <ele>379.0</ele>
        <time>2021-10-18T07:06:07Z</time>
      </trkpt>
      <trkpt lat="39.2782080" lon="-6.3204270">
        <ele>378.4</ele>
        <time>2021-10-18T07:06:10Z</time>
      </trkpt>
      <trkpt lat="39.2781910" lon="-6.3203950">
        <ele>378.4</ele>
        <time>2021-10-18T07:06:11Z</time>
      </trkpt>
      <trkpt lat="39.2781000" lon="-6.3202130">
        <ele>378.2</ele>
        <time>2021-10-18T07:06:17Z</time>
      </trkpt>
      <trkpt lat="39.2779670" lon="-6.3200430">
        <ele>379.2</ele>
        <time>2021-10-18T07:06:24Z</time>
      </trkpt>
      <trkpt lat="39.2779460" lon="-6.3200320">
        <ele>379.2</ele>
        <time>2021-10-18T07:06:25Z</time>
      </trkpt>
      <trkpt lat="39.2777270" lon="-6.3198680">
        <ele>379.2</ele>
        <time>2021-10-18T07:06:33Z</time>
      </trkpt>
      <trkpt lat="39.2776140" lon="-6.3197980">
        <ele>379.4</ele>
        <time>2021-10-18T07:06:37Z</time>
      </trkpt>
      <trkpt lat="39.2775250" lon="-6.3197710">
        <ele>379.4</ele>
        <time>2021-10-18T07:06:40Z</time>
      </trkpt>
      <trkpt lat="39.2774400" lon="-6.3197650">
        <ele>379.6</ele>
        <time>2021-10-18T07:06:43Z</time>
      </trkpt>
      <trkpt lat="39.2773120" lon="-6.3197560">
        <ele>379.6</ele>
        <time>2021-10-18T07:06:47Z</time>
      </trkpt>
      <trkpt lat="39.2770930" lon="-6.3197300">
        <ele>379.8</ele>
        <time>2021-10-18T07:06:54Z</time>
      </trkpt>
      <trkpt lat="39.2770600" lon="-6.3197260">
        <ele>379.8</ele>
        <time>2021-10-18T07:06:55Z</time>
      </trkpt>
      <trkpt lat="39.2767830" lon="-6.3196370">
        <ele>379.8</ele>
        <time>2021-10-18T07:07:03Z</time>
      </trkpt>
      <trkpt lat="39.2765870" lon="-6.3195410">
        <ele>380.0</ele>
        <time>2021-10-18T07:07:09Z</time>
      </trkpt>
      <trkpt lat="39.2763960" lon="-6.3194710">
        <ele>380.4</ele>
        <time>2021-10-18T07:07:15Z</time>
      </trkpt>
      <trkpt lat="39.2763320" lon="-6.3194510">
        <ele>380.6</ele>
        <time>2021-10-18T07:07:17Z</time>
      </trkpt>
      <trkpt lat="39.2761740" lon="-6.3194040">
        <ele>380.8</ele>
        <time>2021-10-18T07:07:22Z</time>
      </trkpt>
      <trkpt lat="39.2759450" lon="-6.3193370">
        <ele>381.4</ele>
        <time>2021-10-18T07:07:29Z</time>
      </trkpt>
      <trkpt lat="39.2757470" lon="-6.3192990">
        <ele>381.2</ele>
        <time>2021-10-18T07:07:34Z</time>
      </trkpt>
      <trkpt lat="39.2757120" lon="-6.3192800">
        <ele>381.0</ele>
        <time>2021-10-18T07:07:35Z</time>
      </trkpt>
      <trkpt lat="39.2756710" lon="-6.3192530">
        <ele>381.0</ele>
        <time>2021-10-18T07:07:36Z</time>
      </trkpt>
      <trkpt lat="39.2755810" lon="-6.3191910">
        <ele>380.8</ele>
        <time>2021-10-18T07:07:38Z</time>
      </trkpt>
      <trkpt lat="39.2755080" lon="-6.3191660">
        <ele>380.8</ele>
        <time>2021-10-18T07:07:40Z</time>
      </trkpt>
      <trkpt lat="39.2753730" lon="-6.3191480">
        <ele>380.4</ele>
        <time>2021-10-18T07:07:43Z</time>
      </trkpt>
      <trkpt lat="39.2752380" lon="-6.3190890">
        <ele>379.8</ele>
        <time>2021-10-18T07:07:47Z</time>
      </trkpt>
      <trkpt lat="39.2750190" lon="-6.3190150">
        <ele>379.6</ele>
        <time>2021-10-18T07:07:53Z</time>
      </trkpt>
      <trkpt lat="39.2747860" lon="-6.3188860">
        <ele>379.8</ele>
        <time>2021-10-18T07:08:00Z</time>
      </trkpt>
      <trkpt lat="39.2746250" lon="-6.3187950">
        <ele>380.0</ele>
        <time>2021-10-18T07:08:05Z</time>
      </trkpt>
      <trkpt lat="39.2745330" lon="-6.3187400">
        <ele>380.0</ele>
        <time>2021-10-18T07:08:08Z</time>
      </trkpt>
      <trkpt lat="39.2744290" lon="-6.3186920">
        <ele>380.0</ele>
        <time>2021-10-18T07:08:11Z</time>
      </trkpt>
      <trkpt lat="39.2743320" lon="-6.3186580">
        <ele>380.2</ele>
        <time>2021-10-18T07:08:14Z</time>
      </trkpt>
      <trkpt lat="39.2742070" lon="-6.3185680">
        <ele>380.4</ele>
        <time>2021-10-18T07:08:18Z</time>
      </trkpt>
      <trkpt lat="39.2739720" lon="-6.3184290">
        <ele>380.6</ele>
        <time>2021-10-18T07:08:25Z</time>
      </trkpt>
      <trkpt lat="39.2738140" lon="-6.3183260">
        <ele>380.6</ele>
        <time>2021-10-18T07:08:30Z</time>
      </trkpt>
      <trkpt lat="39.2736570" lon="-6.3182290">
        <ele>380.6</ele>
        <time>2021-10-18T07:08:35Z</time>
      </trkpt>
      <trkpt lat="39.2735320" lon="-6.3181260">
        <ele>380.6</ele>
        <time>2021-10-18T07:08:39Z</time>
      </trkpt>
      <trkpt lat="39.2733990" lon="-6.3180530">
        <ele>380.8</ele>
        <time>2021-10-18T07:08:43Z</time>
      </trkpt>
      <trkpt lat="39.2732710" lon="-6.3180020">
        <ele>380.8</ele>
        <time>2021-10-18T07:08:47Z</time>
      </trkpt>
      <trkpt lat="39.2731680" lon="-6.3179810">
        <ele>380.8</ele>
        <time>2021-10-18T07:08:50Z</time>
      </trkpt>
      <trkpt lat="39.2730490" lon="-6.3179630">
        <ele>380.6</ele>
        <time>2021-10-18T07:08:53Z</time>
      </trkpt>
      <trkpt lat="39.2729500" lon="-6.3179500">
        <ele>380.6</ele>
        <time>2021-10-18T07:08:56Z</time>
      </trkpt>
      <trkpt lat="39.2728850" lon="-6.3179320">
        <ele>380.4</ele>
        <time>2021-10-18T07:08:58Z</time>
      </trkpt>
      <trkpt lat="39.2727550" lon="-6.3178850">
        <ele>380.6</ele>
        <time>2021-10-18T07:09:02Z</time>
      </trkpt>
      <trkpt lat="39.2726400" lon="-6.3178230">
        <ele>380.8</ele>
        <time>2021-10-18T07:09:06Z</time>
      </trkpt>
      <trkpt lat="39.2725080" lon="-6.3177600">
        <ele>381.0</ele>
        <time>2021-10-18T07:09:10Z</time>
      </trkpt>
      <trkpt lat="39.2723460" lon="-6.3176760">
        <ele>381.0</ele>
        <time>2021-10-18T07:09:15Z</time>
      </trkpt>
      <trkpt lat="39.2722200" lon="-6.3176200">
        <ele>381.2</ele>
        <time>2021-10-18T07:09:21Z</time>
      </trkpt>
      <trkpt lat="39.2722200" lon="-6.3176200">
        <ele>381.2</ele>
        <time>2021-10-18T07:09:23Z</time>
      </trkpt>
      <trkpt lat="39.2721520" lon="-6.3175760">
        <ele>380.8</ele>
        <time>2021-10-18T07:09:53Z</time>
      </trkpt>
      <trkpt lat="39.2721180" lon="-6.3175580">
        <ele>380.8</ele>
        <time>2021-10-18T07:09:54Z</time>
      </trkpt>
      <trkpt lat="39.2719640" lon="-6.3174230">
        <ele>381.0</ele>
        <time>2021-10-18T07:09:59Z</time>
      </trkpt>
      <trkpt lat="39.2719290" lon="-6.3173880">
        <ele>381.0</ele>
        <time>2021-10-18T07:10:00Z</time>
      </trkpt>
      <trkpt lat="39.2717410" lon="-6.3172610">
        <ele>381.2</ele>
        <time>2021-10-18T07:10:05Z</time>
      </trkpt>
      <trkpt lat="39.2717040" lon="-6.3172350">
        <ele>381.0</ele>
        <time>2021-10-18T07:10:06Z</time>
      </trkpt>
      <trkpt lat="39.2714470" lon="-6.3171120">
        <ele>381.4</ele>
        <time>2021-10-18T07:10:12Z</time>
      </trkpt>
      <trkpt lat="39.2712080" lon="-6.3169800">
        <ele>381.6</ele>
        <time>2021-10-18T07:10:18Z</time>
      </trkpt>
      <trkpt lat="39.2709620" lon="-6.3168630">
        <ele>381.8</ele>
        <time>2021-10-18T07:10:24Z</time>
      </trkpt>
      <trkpt lat="39.2708710" lon="-6.3168220">
        <ele>382.0</ele>
        <time>2021-10-18T07:10:26Z</time>
      </trkpt>
      <trkpt lat="39.2705620" lon="-6.3166760">
        <ele>382.2</ele>
        <time>2021-10-18T07:10:34Z</time>
      </trkpt>
      <trkpt lat="39.2703260" lon="-6.3165890">
        <ele>382.6</ele>
        <time>2021-10-18T07:10:40Z</time>
      </trkpt>
      <trkpt lat="39.2702190" lon="-6.3165590">
        <ele>382.6</ele>
        <time>2021-10-18T07:10:43Z</time>
      </trkpt>
      <trkpt lat="39.2700000" lon="-6.3165620">
        <ele>383.0</ele>
        <time>2021-10-18T07:10:49Z</time>
      </trkpt>
      <trkpt lat="39.2698880" lon="-6.3165780">
        <ele>383.4</ele>
        <time>2021-10-18T07:10:53Z</time>
      </trkpt>
      <trkpt lat="39.2698560" lon="-6.3165850">
        <ele>383.6</ele>
        <time>2021-10-18T07:10:54Z</time>
      </trkpt>
      <trkpt lat="39.2698090" lon="-6.3165930">
        <ele>383.8</ele>
        <time>2021-10-18T07:10:56Z</time>
      </trkpt>
      <trkpt lat="39.2696970" lon="-6.3166080">
        <ele>384.6</ele>
        <time>2021-10-18T07:11:00Z</time>
      </trkpt>
      <trkpt lat="39.2696450" lon="-6.3165990">
        <ele>385.4</ele>
        <time>2021-10-18T07:11:02Z</time>
      </trkpt>
      <trkpt lat="39.2696160" lon="-6.3165950">
        <ele>385.8</ele>
        <time>2021-10-18T07:11:03Z</time>
      </trkpt>
      <trkpt lat="39.2695110" lon="-6.3165710">
        <ele>386.2</ele>
        <time>2021-10-18T07:11:07Z</time>
      </trkpt>
      <trkpt lat="39.2694180" lon="-6.3165520">
        <ele>386.4</ele>
        <time>2021-10-18T07:11:10Z</time>
      </trkpt>
      <trkpt lat="39.2693130" lon="-6.3165330">
        <ele>386.4</ele>
        <time>2021-10-18T07:11:13Z</time>
      </trkpt>
      <trkpt lat="39.2692430" lon="-6.3165170">
        <ele>386.6</ele>
        <time>2021-10-18T07:11:15Z</time>
      </trkpt>
      <trkpt lat="39.2691710" lon="-6.3165050">
        <ele>386.6</ele>
        <time>2021-10-18T07:11:17Z</time>
      </trkpt>
      <trkpt lat="39.2691330" lon="-6.3164970">
        <ele>386.6</ele>
        <time>2021-10-18T07:11:18Z</time>
      </trkpt>
      <trkpt lat="39.2690950" lon="-6.3164880">
        <ele>386.8</ele>
        <time>2021-10-18T07:11:19Z</time>
      </trkpt>
      <trkpt lat="39.2690150" lon="-6.3164670">
        <ele>386.8</ele>
        <time>2021-10-18T07:11:21Z</time>
      </trkpt>
      <trkpt lat="39.2689450" lon="-6.3164460">
        <ele>386.8</ele>
        <time>2021-10-18T07:11:23Z</time>
      </trkpt>
      <trkpt lat="39.2688660" lon="-6.3164230">
        <ele>386.8</ele>
        <time>2021-10-18T07:11:25Z</time>
      </trkpt>
      <trkpt lat="39.2687830" lon="-6.3164070">
        <ele>386.8</ele>
        <time>2021-10-18T07:11:27Z</time>
      </trkpt>
      <trkpt lat="39.2687530" lon="-6.3163990">
        <ele>386.6</ele>
        <time>2021-10-18T07:11:28Z</time>
      </trkpt>
      <trkpt lat="39.2684330" lon="-6.3162960">
        <ele>386.4</ele>
        <time>2021-10-18T07:11:36Z</time>
      </trkpt>
      <trkpt lat="39.2681700" lon="-6.3161380">
        <ele>385.6</ele>
        <time>2021-10-18T07:11:43Z</time>
      </trkpt>
      <trkpt lat="39.2681310" lon="-6.3161150">
        <ele>385.6</ele>
        <time>2021-10-18T07:11:44Z</time>
      </trkpt>
      <trkpt lat="39.2679820" lon="-6.3160310">
        <ele>385.2</ele>
        <time>2021-10-18T07:11:48Z</time>
      </trkpt>
      <trkpt lat="39.2678500" lon="-6.3159470">
        <ele>384.6</ele>
        <time>2021-10-18T07:11:52Z</time>
      </trkpt>
      <trkpt lat="39.2678170" lon="-6.3159240">
        <ele>384.6</ele>
        <time>2021-10-18T07:11:53Z</time>
      </trkpt>
      <trkpt lat="39.2677230" lon="-6.3158500">
        <ele>384.4</ele>
        <time>2021-10-18T07:11:56Z</time>
      </trkpt>
      <trkpt lat="39.2676240" lon="-6.3157790">
        <ele>384.2</ele>
        <time>2021-10-18T07:11:59Z</time>
      </trkpt>
      <trkpt lat="39.2675480" lon="-6.3157490">
        <ele>384.0</ele>
        <time>2021-10-18T07:12:01Z</time>
      </trkpt>
      <trkpt lat="39.2674230" lon="-6.3156870">
        <ele>383.6</ele>
        <time>2021-10-18T07:12:04Z</time>
      </trkpt>
      <trkpt lat="39.2673920" lon="-6.3156690">
        <ele>383.6</ele>
        <time>2021-10-18T07:12:05Z</time>
      </trkpt>
      <trkpt lat="39.2672210" lon="-6.3155890">
        <ele>383.4</ele>
        <time>2021-10-18T07:12:09Z</time>
      </trkpt>
      <trkpt lat="39.2669920" lon="-6.3154770">
        <ele>382.6</ele>
        <time>2021-10-18T07:12:15Z</time>
      </trkpt>
      <trkpt lat="39.2669150" lon="-6.3154350">
        <ele>382.2</ele>
        <time>2021-10-18T07:12:17Z</time>
      </trkpt>
      <trkpt lat="39.2666870" lon="-6.3153130">
        <ele>381.4</ele>
        <time>2021-10-18T07:12:23Z</time>
      </trkpt>
      <trkpt lat="39.2665220" lon="-6.3152400">
        <ele>381.0</ele>
        <time>2021-10-18T07:12:27Z</time>
      </trkpt>
      <trkpt lat="39.2664910" lon="-6.3152280">
        <ele>380.8</ele>
        <time>2021-10-18T07:12:28Z</time>
      </trkpt>
      <trkpt lat="39.2664520" lon="-6.3152080">
        <ele>380.8</ele>
        <time>2021-10-18T07:12:29Z</time>
      </trkpt>
      <trkpt lat="39.2662960" lon="-6.3151020">
        <ele>380.4</ele>
        <time>2021-10-18T07:12:33Z</time>
      </trkpt>
      <trkpt lat="39.2662560" lon="-6.3150770">
        <ele>380.4</ele>
        <time>2021-10-18T07:12:34Z</time>
      </trkpt>
      <trkpt lat="39.2659790" lon="-6.3149300">
        <ele>379.2</ele>
        <time>2021-10-18T07:12:41Z</time>
      </trkpt>
      <trkpt lat="39.2659580" lon="-6.3149090">
        <ele>379.0</ele>
        <time>2021-10-18T07:12:42Z</time>
      </trkpt>
      <trkpt lat="39.2658850" lon="-6.3147960">
        <ele>378.6</ele>
        <time>2021-10-18T07:12:46Z</time>
      </trkpt>
      <trkpt lat="39.2658760" lon="-6.3147730">
        <ele>378.6</ele>
        <time>2021-10-18T07:12:47Z</time>
      </trkpt>
      <trkpt lat="39.2657730" lon="-6.3145200">
        <ele>378.4</ele>
        <time>2021-10-18T07:12:54Z</time>
      </trkpt>
      <trkpt lat="39.2657050" lon="-6.3143470">
        <ele>378.4</ele>
        <time>2021-10-18T07:12:59Z</time>
      </trkpt>
      <trkpt lat="39.2655970" lon="-6.3142760">
        <ele>378.0</ele>
        <time>2021-10-18T07:13:03Z</time>
      </trkpt>
      <trkpt lat="39.2655290" lon="-6.3142550">
        <ele>377.8</ele>
        <time>2021-10-18T07:13:05Z</time>
      </trkpt>
      <trkpt lat="39.2653340" lon="-6.3141710">
        <ele>377.4</ele>
        <time>2021-10-18T07:13:11Z</time>
      </trkpt>
      <trkpt lat="39.2652040" lon="-6.3140910">
        <ele>377.0</ele>
        <time>2021-10-18T07:13:15Z</time>
      </trkpt>
      <trkpt lat="39.2650200" lon="-6.3139460">
        <ele>376.4</ele>
        <time>2021-10-18T07:13:21Z</time>
      </trkpt>
      <trkpt lat="39.2647910" lon="-6.3137510">
        <ele>376.0</ele>
        <time>2021-10-18T07:13:30Z</time>
      </trkpt>
      <trkpt lat="39.2645970" lon="-6.3136630">
        <ele>375.2</ele>
        <time>2021-10-18T07:13:37Z</time>
      </trkpt>
      <trkpt lat="39.2645480" lon="-6.3136440">
        <ele>375.2</ele>
        <time>2021-10-18T07:13:39Z</time>
      </trkpt>
      <trkpt lat="39.2644660" lon="-6.3136350">
        <ele>375.0</ele>
        <time>2021-10-18T07:13:44Z</time>
      </trkpt>
      <trkpt lat="39.2644620" lon="-6.3136320">
        <ele>375.0</ele>
        <time>2021-10-18T07:13:47Z</time>
      </trkpt>
      <trkpt lat="39.2644410" lon="-6.3136250">
        <ele>375.0</ele>
        <time>2021-10-18T07:14:06Z</time>
      </trkpt>
      <trkpt lat="39.2644210" lon="-6.3136190">
        <ele>375.0</ele>
        <time>2021-10-18T07:14:07Z</time>
      </trkpt>
      <trkpt lat="39.2643770" lon="-6.3136070">
        <ele>374.8</ele>
        <time>2021-10-18T07:14:09Z</time>
      </trkpt>
      <trkpt lat="39.2642990" lon="-6.3135780">
        <ele>374.6</ele>
        <time>2021-10-18T07:14:14Z</time>
      </trkpt>
      <trkpt lat="39.2642990" lon="-6.3135780">
        <ele>374.4</ele>
        <time>2021-10-18T07:14:15Z</time>
      </trkpt>
      <trkpt lat="39.2641520" lon="-6.3134620">
        <ele>375.0</ele>
        <time>2021-10-18T07:15:55Z</time>
      </trkpt>
      <trkpt lat="39.2641110" lon="-6.3134290">
        <ele>375.0</ele>
        <time>2021-10-18T07:15:57Z</time>
      </trkpt>
      <trkpt lat="39.2639740" lon="-6.3133670">
        <ele>375.4</ele>
        <time>2021-10-18T07:16:03Z</time>
      </trkpt>
      <trkpt lat="39.2639170" lon="-6.3133490">
        <ele>375.8</ele>
        <time>2021-10-18T07:16:06Z</time>
      </trkpt>
      <trkpt lat="39.2638590" lon="-6.3133350">
        <ele>376.0</ele>
        <time>2021-10-18T07:16:09Z</time>
      </trkpt>
      <trkpt lat="39.2638410" lon="-6.3133310">
        <ele>376.2</ele>
        <time>2021-10-18T07:16:10Z</time>
      </trkpt>
      <trkpt lat="39.2637860" lon="-6.3133130">
        <ele>376.4</ele>
        <time>2021-10-18T07:16:13Z</time>
      </trkpt>
      <trkpt lat="39.2637560" lon="-6.3133170">
        <ele>376.8</ele>
        <time>2021-10-18T07:16:15Z</time>
      </trkpt>
      <trkpt lat="39.2637410" lon="-6.3133170">
        <ele>376.8</ele>
        <time>2021-10-18T07:16:16Z</time>
      </trkpt>
      <trkpt lat="39.2636800" lon="-6.3133080">
        <ele>377.2</ele>
        <time>2021-10-18T07:16:20Z</time>
      </trkpt>
      <trkpt lat="39.2636240" lon="-6.3132900">
        <ele>377.4</ele>
        <time>2021-10-18T07:16:23Z</time>
      </trkpt>
      <trkpt lat="39.2636030" lon="-6.3132820">
        <ele>377.4</ele>
        <time>2021-10-18T07:16:24Z</time>
      </trkpt>
      <trkpt lat="39.2635400" lon="-6.3132540">
        <ele>377.4</ele>
        <time>2021-10-18T07:16:27Z</time>
      </trkpt>
      <trkpt lat="39.2634260" lon="-6.3132070">
        <ele>377.6</ele>
        <time>2021-10-18T07:16:33Z</time>
      </trkpt>
      <trkpt lat="39.2633170" lon="-6.3131530">
        <ele>377.6</ele>
        <time>2021-10-18T07:16:38Z</time>
      </trkpt>
      <trkpt lat="39.2631840" lon="-6.3130940">
        <ele>377.6</ele>
        <time>2021-10-18T07:16:44Z</time>
      </trkpt>
      <trkpt lat="39.2631630" lon="-6.3130880">
        <ele>377.6</ele>
        <time>2021-10-18T07:16:45Z</time>
      </trkpt>
      <trkpt lat="39.2629920" lon="-6.3129990">
        <ele>377.6</ele>
        <time>2021-10-18T07:16:52Z</time>
      </trkpt>
      <trkpt lat="39.2628710" lon="-6.3129270">
        <ele>377.6</ele>
        <time>2021-10-18T07:16:56Z</time>
      </trkpt>
      <trkpt lat="39.2628380" lon="-6.3129130">
        <ele>377.6</ele>
        <time>2021-10-18T07:16:57Z</time>
      </trkpt>
      <trkpt lat="39.2626840" lon="-6.3128420">
        <ele>377.6</ele>
        <time>2021-10-18T07:17:02Z</time>
      </trkpt>
      <trkpt lat="39.2625770" lon="-6.3127970">
        <ele>377.6</ele>
        <time>2021-10-18T07:17:05Z</time>
      </trkpt>
      <trkpt lat="39.2623450" lon="-6.3126860">
        <ele>377.4</ele>
        <time>2021-10-18T07:17:11Z</time>
      </trkpt>
      <trkpt lat="39.2620470" lon="-6.3125260">
        <ele>377.2</ele>
        <time>2021-10-18T07:17:20Z</time>
      </trkpt>
      <trkpt lat="39.2618160" lon="-6.3123970">
        <ele>377.2</ele>
        <time>2021-10-18T07:17:27Z</time>
      </trkpt>
      <trkpt lat="39.2616420" lon="-6.3122820">
        <ele>377.2</ele>
        <time>2021-10-18T07:17:33Z</time>
      </trkpt>
      <trkpt lat="39.2614370" lon="-6.3121770">
        <ele>377.0</ele>
        <time>2021-10-18T07:17:39Z</time>
      </trkpt>
      <trkpt lat="39.2611640" lon="-6.3120610">
        <ele>377.0</ele>
        <time>2021-10-18T07:17:47Z</time>
      </trkpt>
      <trkpt lat="39.2608370" lon="-6.3119210">
        <ele>377.2</ele>
        <time>2021-10-18T07:17:57Z</time>
      </trkpt>
      <trkpt lat="39.2606260" lon="-6.3118000">
        <ele>377.8</ele>
        <time>2021-10-18T07:18:04Z</time>
      </trkpt>
      <trkpt lat="39.2605080" lon="-6.3117410">
        <ele>378.2</ele>
        <time>2021-10-18T07:18:08Z</time>
      </trkpt>
      <trkpt lat="39.2603500" lon="-6.3116700">
        <ele>378.4</ele>
        <time>2021-10-18T07:18:13Z</time>
      </trkpt>
      <trkpt lat="39.2602390" lon="-6.3116150">
        <ele>378.6</ele>
        <time>2021-10-18T07:18:17Z</time>
      </trkpt>
      <trkpt lat="39.2601180" lon="-6.3115500">
        <ele>378.8</ele>
        <time>2021-10-18T07:18:21Z</time>
      </trkpt>
      <trkpt lat="39.2600590" lon="-6.3115200">
        <ele>378.8</ele>
        <time>2021-10-18T07:18:23Z</time>
      </trkpt>
      <trkpt lat="39.2599130" lon="-6.3114460">
        <ele>379.0</ele>
        <time>2021-10-18T07:18:28Z</time>
      </trkpt>
      <trkpt lat="39.2598790" lon="-6.3114290">
        <ele>379.2</ele>
        <time>2021-10-18T07:18:29Z</time>
      </trkpt>
      <trkpt lat="39.2597740" lon="-6.3113750">
        <ele>379.2</ele>
        <time>2021-10-18T07:18:33Z</time>
      </trkpt>
      <trkpt lat="39.2596990" lon="-6.3113240">
        <ele>379.4</ele>
        <time>2021-10-18T07:18:36Z</time>
      </trkpt>
      <trkpt lat="39.2596110" lon="-6.3112770">
        <ele>379.4</ele>
        <time>2021-10-18T07:18:39Z</time>
      </trkpt>
      <trkpt lat="39.2595510" lon="-6.3112450">
        <ele>379.6</ele>
        <time>2021-10-18T07:18:41Z</time>
      </trkpt>
      <trkpt lat="39.2592830" lon="-6.3111380">
        <ele>380.0</ele>
        <time>2021-10-18T07:18:50Z</time>
      </trkpt>
      <trkpt lat="39.2591270" lon="-6.3110810">
        <ele>380.0</ele>
        <time>2021-10-18T07:18:55Z</time>
      </trkpt>
      <trkpt lat="39.2590440" lon="-6.3110220">
        <ele>380.0</ele>
        <time>2021-10-18T07:18:58Z</time>
      </trkpt>
      <trkpt lat="39.2590150" lon="-6.3110080">
        <ele>380.2</ele>
        <time>2021-10-18T07:18:59Z</time>
      </trkpt>
      <trkpt lat="39.2588290" lon="-6.3109390">
        <ele>380.2</ele>
        <time>2021-10-18T07:19:05Z</time>
      </trkpt>
      <trkpt lat="39.2585390" lon="-6.3107990">
        <ele>380.4</ele>
        <time>2021-10-18T07:19:15Z</time>
      </trkpt>
      <trkpt lat="39.2583080" lon="-6.3106760">
        <ele>380.6</ele>
        <time>2021-10-18T07:19:23Z</time>
      </trkpt>
      <trkpt lat="39.2579700" lon="-6.3105200">
        <ele>380.4</ele>
        <time>2021-10-18T07:19:34Z</time>
      </trkpt>
      <trkpt lat="39.2577750" lon="-6.3104120">
        <ele>380.6</ele>
        <time>2021-10-18T07:19:41Z</time>
      </trkpt>
      <trkpt lat="39.2575770" lon="-6.3103050">
        <ele>380.8</ele>
        <time>2021-10-18T07:19:48Z</time>
      </trkpt>
      <trkpt lat="39.2574920" lon="-6.3102690">
        <ele>381.0</ele>
        <time>2021-10-18T07:19:51Z</time>
      </trkpt>
      <trkpt lat="39.2574160" lon="-6.3102250">
        <ele>381.2</ele>
        <time>2021-10-18T07:19:54Z</time>
      </trkpt>
      <trkpt lat="39.2573900" lon="-6.3102120">
        <ele>381.2</ele>
        <time>2021-10-18T07:19:55Z</time>
      </trkpt>
      <trkpt lat="39.2573130" lon="-6.3101710">
        <ele>381.4</ele>
        <time>2021-10-18T07:19:58Z</time>
      </trkpt>
      <trkpt lat="39.2572580" lon="-6.3101410">
        <ele>381.6</ele>
        <time>2021-10-18T07:20:00Z</time>
      </trkpt>
      <trkpt lat="39.2571860" lon="-6.3100920">
        <ele>381.8</ele>
        <time>2021-10-18T07:20:03Z</time>
      </trkpt>
      <trkpt lat="39.2571650" lon="-6.3100730">
        <ele>381.8</ele>
        <time>2021-10-18T07:20:04Z</time>
      </trkpt>
      <trkpt lat="39.2570290" lon="-6.3099720">
        <ele>382.2</ele>
        <time>2021-10-18T07:20:10Z</time>
      </trkpt>
      <trkpt lat="39.2569810" lon="-6.3099300">
        <ele>382.4</ele>
        <time>2021-10-18T07:20:12Z</time>
      </trkpt>
      <trkpt lat="39.2569140" lon="-6.3098620">
        <ele>382.6</ele>
        <time>2021-10-18T07:20:15Z</time>
      </trkpt>
      <trkpt lat="39.2568640" lon="-6.3098310">
        <ele>382.6</ele>
        <time>2021-10-18T07:20:17Z</time>
      </trkpt>
      <trkpt lat="39.2568370" lon="-6.3098210">
        <ele>382.8</ele>
        <time>2021-10-18T07:20:18Z</time>
      </trkpt>
      <trkpt lat="39.2567570" lon="-6.3097930">
        <ele>382.8</ele>
        <time>2021-10-18T07:20:21Z</time>
      </trkpt>
      <trkpt lat="39.2566800" lon="-6.3097480">
        <ele>383.0</ele>
        <time>2021-10-18T07:20:24Z</time>
      </trkpt>
      <trkpt lat="39.2566540" lon="-6.3097340">
        <ele>383.0</ele>
        <time>2021-10-18T07:20:25Z</time>
      </trkpt>
      <trkpt lat="39.2565320" lon="-6.3096490">
        <ele>383.0</ele>
        <time>2021-10-18T07:20:30Z</time>
      </trkpt>
      <trkpt lat="39.2564640" lon="-6.3095810">
        <ele>383.2</ele>
        <time>2021-10-18T07:20:33Z</time>
      </trkpt>
      <trkpt lat="39.2563340" lon="-6.3095120">
        <ele>383.4</ele>
        <time>2021-10-18T07:20:38Z</time>
      </trkpt>
      <trkpt lat="39.2562810" lon="-6.3094880">
        <ele>383.4</ele>
        <time>2021-10-18T07:20:40Z</time>
      </trkpt>
      <trkpt lat="39.2560010" lon="-6.3093440">
        <ele>383.4</ele>
        <time>2021-10-18T07:20:50Z</time>
      </trkpt>
      <trkpt lat="39.2557310" lon="-6.3092050">
        <ele>383.6</ele>
        <time>2021-10-18T07:20:59Z</time>
      </trkpt>
      <trkpt lat="39.2556510" lon="-6.3091390">
        <ele>383.6</ele>
        <time>2021-10-18T07:21:04Z</time>
      </trkpt>
      <trkpt lat="39.2556510" lon="-6.3091390">
        <ele>383.4</ele>
        <time>2021-10-18T07:21:05Z</time>
      </trkpt>
      <trkpt lat="39.2555970" lon="-6.3091270">
        <ele>383.0</ele>
        <time>2021-10-18T07:21:19Z</time>
      </trkpt>
      <trkpt lat="39.2555370" lon="-6.3090970">
        <ele>383.2</ele>
        <time>2021-10-18T07:21:21Z</time>
      </trkpt>
      <trkpt lat="39.2552790" lon="-6.3089620">
        <ele>382.6</ele>
        <time>2021-10-18T07:21:29Z</time>
      </trkpt>
      <trkpt lat="39.2551190" lon="-6.3087940">
        <ele>382.2</ele>
        <time>2021-10-18T07:21:35Z</time>
      </trkpt>
      <trkpt lat="39.2549950" lon="-6.3086530">
        <ele>382.0</ele>
        <time>2021-10-18T07:21:40Z</time>
      </trkpt>
      <trkpt lat="39.2549200" lon="-6.3085890">
        <ele>382.0</ele>
        <time>2021-10-18T07:21:43Z</time>
      </trkpt>
      <trkpt lat="39.2548560" lon="-6.3085680">
        <ele>382.0</ele>
        <time>2021-10-18T07:21:46Z</time>
      </trkpt>
      <trkpt lat="39.2548390" lon="-6.3085740">
        <ele>381.8</ele>
        <time>2021-10-18T07:21:47Z</time>
      </trkpt>
      <trkpt lat="39.2548210" lon="-6.3085780">
        <ele>381.8</ele>
        <time>2021-10-18T07:21:50Z</time>
      </trkpt>
      <trkpt lat="39.2547860" lon="-6.3085510">
        <ele>381.8</ele>
        <time>2021-10-18T07:22:22Z</time>
      </trkpt>
      <trkpt lat="39.2546530" lon="-6.3084920">
        <ele>381.8</ele>
        <time>2021-10-18T07:22:28Z</time>
      </trkpt>
      <trkpt lat="39.2546300" lon="-6.3084790">
        <ele>381.8</ele>
        <time>2021-10-18T07:22:29Z</time>
      </trkpt>
      <trkpt lat="39.2545200" lon="-6.3084300">
        <ele>381.8</ele>
        <time>2021-10-18T07:22:33Z</time>
      </trkpt>
      <trkpt lat="39.2544640" lon="-6.3084110">
        <ele>381.8</ele>
        <time>2021-10-18T07:22:35Z</time>
      </trkpt>
      <trkpt lat="39.2542030" lon="-6.3083660">
        <ele>382.0</ele>
        <time>2021-10-18T07:22:43Z</time>
      </trkpt>
      <trkpt lat="39.2539520" lon="-6.3083290">
        <ele>382.0</ele>
        <time>2021-10-18T07:22:50Z</time>
      </trkpt>
      <trkpt lat="39.2537230" lon="-6.3082620">
        <ele>382.2</ele>
        <time>2021-10-18T07:22:57Z</time>
      </trkpt>
      <trkpt lat="39.2535780" lon="-6.3081170">
        <ele>382.2</ele>
        <time>2021-10-18T07:23:03Z</time>
      </trkpt>
      <trkpt lat="39.2534190" lon="-6.3080310">
        <ele>382.4</ele>
        <time>2021-10-18T07:23:08Z</time>
      </trkpt>
      <trkpt lat="39.2532150" lon="-6.3079170">
        <ele>382.8</ele>
        <time>2021-10-18T07:23:14Z</time>
      </trkpt>
      <trkpt lat="39.2530380" lon="-6.3078330">
        <ele>383.0</ele>
        <time>2021-10-18T07:23:19Z</time>
      </trkpt>
      <trkpt lat="39.2528840" lon="-6.3078030">
        <ele>383.2</ele>
        <time>2021-10-18T07:23:23Z</time>
      </trkpt>
      <trkpt lat="39.2527650" lon="-6.3077830">
        <ele>383.2</ele>
        <time>2021-10-18T07:23:26Z</time>
      </trkpt>
      <trkpt lat="39.2527330" lon="-6.3077620">
        <ele>383.2</ele>
        <time>2021-10-18T07:23:27Z</time>
      </trkpt>
      <trkpt lat="39.2527070" lon="-6.3077310">
        <ele>383.2</ele>
        <time>2021-10-18T07:23:28Z</time>
      </trkpt>
      <trkpt lat="39.2525760" lon="-6.3076530">
        <ele>383.4</ele>
        <time>2021-10-18T07:23:32Z</time>
      </trkpt>
      <trkpt lat="39.2524270" lon="-6.3075790">
        <ele>383.6</ele>
        <time>2021-10-18T07:23:37Z</time>
      </trkpt>
      <trkpt lat="39.2524020" lon="-6.3075570">
        <ele>383.6</ele>
        <time>2021-10-18T07:23:38Z</time>
      </trkpt>
      <trkpt lat="39.2522680" lon="-6.3074640">
        <ele>383.8</ele>
        <time>2021-10-18T07:23:43Z</time>
      </trkpt>
      <trkpt lat="39.2521880" lon="-6.3074140">
        <ele>383.8</ele>
        <time>2021-10-18T07:23:46Z</time>
      </trkpt>
      <trkpt lat="39.2520570" lon="-6.3073130">
        <ele>383.8</ele>
        <time>2021-10-18T07:23:51Z</time>
      </trkpt>
      <trkpt lat="39.2518220" lon="-6.3071330">
        <ele>383.8</ele>
        <time>2021-10-18T07:23:59Z</time>
      </trkpt>
      <trkpt lat="39.2517410" lon="-6.3070630">
        <ele>383.8</ele>
        <time>2021-10-18T07:24:02Z</time>
      </trkpt>
      <trkpt lat="39.2516540" lon="-6.3070110">
        <ele>384.0</ele>
        <time>2021-10-18T07:24:05Z</time>
      </trkpt>
      <trkpt lat="39.2515350" lon="-6.3069470">
        <ele>384.0</ele>
        <time>2021-10-18T07:24:09Z</time>
      </trkpt>
      <trkpt lat="39.2515060" lon="-6.3069250">
        <ele>384.2</ele>
        <time>2021-10-18T07:24:10Z</time>
      </trkpt>
      <trkpt lat="39.2514190" lon="-6.3068420">
        <ele>384.2</ele>
        <time>2021-10-18T07:24:13Z</time>
      </trkpt>
      <trkpt lat="39.2513420" lon="-6.3067780">
        <ele>384.4</ele>
        <time>2021-10-18T07:24:16Z</time>
      </trkpt>
      <trkpt lat="39.2511840" lon="-6.3067630">
        <ele>384.6</ele>
        <time>2021-10-18T07:24:21Z</time>
      </trkpt>
      <trkpt lat="39.2511510" lon="-6.3067610">
        <ele>384.6</ele>
        <time>2021-10-18T07:24:22Z</time>
      </trkpt>
      <trkpt lat="39.2509070" lon="-6.3067270">
        <ele>384.8</ele>
        <time>2021-10-18T07:24:30Z</time>
      </trkpt>
      <trkpt lat="39.2507160" lon="-6.3066760">
        <ele>385.0</ele>
        <time>2021-10-18T07:24:36Z</time>
      </trkpt>
      <trkpt lat="39.2506860" lon="-6.3066650">
        <ele>385.0</ele>
        <time>2021-10-18T07:24:37Z</time>
      </trkpt>
      <trkpt lat="39.2506560" lon="-6.3066560">
        <ele>385.2</ele>
        <time>2021-10-18T07:24:38Z</time>
      </trkpt>
      <trkpt lat="39.2504820" lon="-6.3065970">
        <ele>385.4</ele>
        <time>2021-10-18T07:24:44Z</time>
      </trkpt>
      <trkpt lat="39.2503700" lon="-6.3065170">
        <ele>385.6</ele>
        <time>2021-10-18T07:24:49Z</time>
      </trkpt>
      <trkpt lat="39.2502940" lon="-6.3063710">
        <ele>386.2</ele>
        <time>2021-10-18T07:24:55Z</time>
      </trkpt>
      <trkpt lat="39.2502830" lon="-6.3063500">
        <ele>386.4</ele>
        <time>2021-10-18T07:24:56Z</time>
      </trkpt>
      <trkpt lat="39.2501760" lon="-6.3062530">
        <ele>387.0</ele>
        <time>2021-10-18T07:25:02Z</time>
      </trkpt>
      <trkpt lat="39.2501020" lon="-6.3062390">
        <ele>387.2</ele>
        <time>2021-10-18T07:25:05Z</time>
      </trkpt>
      <trkpt lat="39.2499730" lon="-6.3062070">
        <ele>387.8</ele>
        <time>2021-10-18T07:25:10Z</time>
      </trkpt>
      <trkpt lat="39.2499470" lon="-6.3062010">
        <ele>387.8</ele>
        <time>2021-10-18T07:25:11Z</time>
      </trkpt>
      <trkpt lat="39.2497440" lon="-6.3061680">
        <ele>388.2</ele>
        <time>2021-10-18T07:25:18Z</time>
      </trkpt>
      <trkpt lat="39.2496870" lon="-6.3061610">
        <ele>388.4</ele>
        <time>2021-10-18T07:25:20Z</time>
      </trkpt>
      <trkpt lat="39.2496580" lon="-6.3061550">
        <ele>388.4</ele>
        <time>2021-10-18T07:25:21Z</time>
      </trkpt>
      <trkpt lat="39.2495400" lon="-6.3061130">
        <ele>388.6</ele>
        <time>2021-10-18T07:25:25Z</time>
      </trkpt>
      <trkpt lat="39.2494600" lon="-6.3060610">
        <ele>388.6</ele>
        <time>2021-10-18T07:25:28Z</time>
      </trkpt>
      <trkpt lat="39.2491740" lon="-6.3059030">
        <ele>388.6</ele>
        <time>2021-10-18T07:25:37Z</time>
      </trkpt>
      <trkpt lat="39.2489300" lon="-6.3058290">
        <ele>388.2</ele>
        <time>2021-10-18T07:25:43Z</time>
      </trkpt>
      <trkpt lat="39.2487010" lon="-6.3056940">
        <ele>387.4</ele>
        <time>2021-10-18T07:25:48Z</time>
      </trkpt>
      <trkpt lat="39.2486520" lon="-6.3056720">
        <ele>387.2</ele>
        <time>2021-10-18T07:25:49Z</time>
      </trkpt>
      <trkpt lat="39.2484040" lon="-6.3055460">
        <ele>386.4</ele>
        <time>2021-10-18T07:25:54Z</time>
      </trkpt>
      <trkpt lat="39.2483130" lon="-6.3054820">
        <ele>386.0</ele>
        <time>2021-10-18T07:25:56Z</time>
      </trkpt>
      <trkpt lat="39.2481770" lon="-6.3053890">
        <ele>385.8</ele>
        <time>2021-10-18T07:25:59Z</time>
      </trkpt>
      <trkpt lat="39.2480040" lon="-6.3052790">
        <ele>384.8</ele>
        <time>2021-10-18T07:26:03Z</time>
      </trkpt>
      <trkpt lat="39.2479210" lon="-6.3052260">
        <ele>384.6</ele>
        <time>2021-10-18T07:26:05Z</time>
      </trkpt>
      <trkpt lat="39.2478810" lon="-6.3052020">
        <ele>384.4</ele>
        <time>2021-10-18T07:26:06Z</time>
      </trkpt>
      <trkpt lat="39.2478030" lon="-6.3051630">
        <ele>384.4</ele>
        <time>2021-10-18T07:26:08Z</time>
      </trkpt>
      <trkpt lat="39.2477350" lon="-6.3051080">
        <ele>384.2</ele>
        <time>2021-10-18T07:26:10Z</time>
      </trkpt>
      <trkpt lat="39.2475940" lon="-6.3049930">
        <ele>384.0</ele>
        <time>2021-10-18T07:26:15Z</time>
      </trkpt>
      <trkpt lat="39.2475120" lon="-6.3049280">
        <ele>384.0</ele>
        <time>2021-10-18T07:26:18Z</time>
      </trkpt>
      <trkpt lat="39.2473950" lon="-6.3048440">
        <ele>383.8</ele>
        <time>2021-10-18T07:26:22Z</time>
      </trkpt>
      <trkpt lat="39.2471680" lon="-6.3046610">
        <ele>383.6</ele>
        <time>2021-10-18T07:26:30Z</time>
      </trkpt>
      <trkpt lat="39.2469890" lon="-6.3045440">
        <ele>383.4</ele>
        <time>2021-10-18T07:26:36Z</time>
      </trkpt>
      <trkpt lat="39.2469220" lon="-6.3045180">
        <ele>383.4</ele>
        <time>2021-10-18T07:26:38Z</time>
      </trkpt>
      <trkpt lat="39.2468060" lon="-6.3044510">
        <ele>383.2</ele>
        <time>2021-10-18T07:26:42Z</time>
      </trkpt>
      <trkpt lat="39.2467170" lon="-6.3044030">
        <ele>383.0</ele>
        <time>2021-10-18T07:26:45Z</time>
      </trkpt>
      <trkpt lat="39.2465200" lon="-6.3043160">
        <ele>383.0</ele>
        <time>2021-10-18T07:26:51Z</time>
      </trkpt>
      <trkpt lat="39.2463240" lon="-6.3042390">
        <ele>382.8</ele>
        <time>2021-10-18T07:26:57Z</time>
      </trkpt>
      <trkpt lat="39.2460680" lon="-6.3041560">
        <ele>382.6</ele>
        <time>2021-10-18T07:27:04Z</time>
      </trkpt>
      <trkpt lat="39.2457570" lon="-6.3040760">
        <ele>382.0</ele>
        <time>2021-10-18T07:27:13Z</time>
      </trkpt>
      <trkpt lat="39.2455980" lon="-6.3039800">
        <ele>381.8</ele>
        <time>2021-10-18T07:27:18Z</time>
      </trkpt>
      <trkpt lat="39.2454130" lon="-6.3038690">
        <ele>381.8</ele>
        <time>2021-10-18T07:27:24Z</time>
      </trkpt>
      <trkpt lat="39.2452120" lon="-6.3037330">
        <ele>382.0</ele>
        <time>2021-10-18T07:27:31Z</time>
      </trkpt>
      <trkpt lat="39.2451800" lon="-6.3037150">
        <ele>382.0</ele>
        <time>2021-10-18T07:27:32Z</time>
      </trkpt>
      <trkpt lat="39.2449650" lon="-6.3035820">
        <ele>382.4</ele>
        <time>2021-10-18T07:27:39Z</time>
      </trkpt>
      <trkpt lat="39.2447260" lon="-6.3034670">
        <ele>382.6</ele>
        <time>2021-10-18T07:27:47Z</time>
      </trkpt>
      <trkpt lat="39.2445530" lon="-6.3033900">
        <ele>382.8</ele>
        <time>2021-10-18T07:27:53Z</time>
      </trkpt>
      <trkpt lat="39.2443320" lon="-6.3033050">
        <ele>383.2</ele>
        <time>2021-10-18T07:28:01Z</time>
      </trkpt>
      <trkpt lat="39.2441420" lon="-6.3032040">
        <ele>383.6</ele>
        <time>2021-10-18T07:28:08Z</time>
      </trkpt>
      <trkpt lat="39.2440350" lon="-6.3031710">
        <ele>383.8</ele>
        <time>2021-10-18T07:28:12Z</time>
      </trkpt>
      <trkpt lat="39.2439560" lon="-6.3031440">
        <ele>384.0</ele>
        <time>2021-10-18T07:28:15Z</time>
      </trkpt>
      <trkpt lat="39.2438200" lon="-6.3030880">
        <ele>384.6</ele>
        <time>2021-10-18T07:28:20Z</time>
      </trkpt>
      <trkpt lat="39.2437480" lon="-6.3030270">
        <ele>384.6</ele>
        <time>2021-10-18T07:28:23Z</time>
      </trkpt>
      <trkpt lat="39.2435970" lon="-6.3029910">
        <ele>385.0</ele>
        <time>2021-10-18T07:28:29Z</time>
      </trkpt>
      <trkpt lat="39.2435690" lon="-6.3029800">
        <ele>385.2</ele>
        <time>2021-10-18T07:28:30Z</time>
      </trkpt>
      <trkpt lat="39.2434970" lon="-6.3029090">
        <ele>385.4</ele>
        <time>2021-10-18T07:28:33Z</time>
      </trkpt>
      <trkpt lat="39.2434150" lon="-6.3028510">
        <ele>385.4</ele>
        <time>2021-10-18T07:28:36Z</time>
      </trkpt>
      <trkpt lat="39.2433260" lon="-6.3028110">
        <ele>385.4</ele>
        <time>2021-10-18T07:28:39Z</time>
      </trkpt>
      <trkpt lat="39.2432910" lon="-6.3028000">
        <ele>385.4</ele>
        <time>2021-10-18T07:28:40Z</time>
      </trkpt>
      <trkpt lat="39.2430060" lon="-6.3026940">
        <ele>385.4</ele>
        <time>2021-10-18T07:28:48Z</time>
      </trkpt>
      <trkpt lat="39.2429280" lon="-6.3026630">
        <ele>385.4</ele>
        <time>2021-10-18T07:28:50Z</time>
      </trkpt>
      <trkpt lat="39.2427640" lon="-6.3025930">
        <ele>385.6</ele>
        <time>2021-10-18T07:28:55Z</time>
      </trkpt>
      <trkpt lat="39.2426950" lon="-6.3025610">
        <ele>385.6</ele>
        <time>2021-10-18T07:28:57Z</time>
      </trkpt>
      <trkpt lat="39.2425150" lon="-6.3024730">
        <ele>385.8</ele>
        <time>2021-10-18T07:29:02Z</time>
      </trkpt>
      <trkpt lat="39.2424040" lon="-6.3024100">
        <ele>385.8</ele>
        <time>2021-10-18T07:29:05Z</time>
      </trkpt>
      <trkpt lat="39.2422910" lon="-6.3023560">
        <ele>385.8</ele>
        <time>2021-10-18T07:29:08Z</time>
      </trkpt>
      <trkpt lat="39.2421800" lon="-6.3022930">
        <ele>385.8</ele>
        <time>2021-10-18T07:29:11Z</time>
      </trkpt>
      <trkpt lat="39.2419060" lon="-6.3021120">
        <ele>385.4</ele>
        <time>2021-10-18T07:29:19Z</time>
      </trkpt>
      <trkpt lat="39.2417530" lon="-6.3019920">
        <ele>385.2</ele>
        <time>2021-10-18T07:29:24Z</time>
      </trkpt>
      <trkpt lat="39.2415550" lon="-6.3018740">
        <ele>385.0</ele>
        <time>2021-10-18T07:29:30Z</time>
      </trkpt>
      <trkpt lat="39.2414030" lon="-6.3017980">
        <ele>384.4</ele>
        <time>2021-10-18T07:29:34Z</time>
      </trkpt>
      <trkpt lat="39.2412880" lon="-6.3017310">
        <ele>384.2</ele>
        <time>2021-10-18T07:29:37Z</time>
      </trkpt>
      <trkpt lat="39.2410690" lon="-6.3016320">
        <ele>383.8</ele>
        <time>2021-10-18T07:29:43Z</time>
      </trkpt>
      <trkpt lat="39.2409700" lon="-6.3015950">
        <ele>383.6</ele>
        <time>2021-10-18T07:29:46Z</time>
      </trkpt>
      <trkpt lat="39.2407270" lon="-6.3014900">
        <ele>383.6</ele>
        <time>2021-10-18T07:29:53Z</time>
      </trkpt>
      <trkpt lat="39.2405100" lon="-6.3014670">
        <ele>384.0</ele>
        <time>2021-10-18T07:29:59Z</time>
      </trkpt>
      <trkpt lat="39.2403260" lon="-6.3014640">
        <ele>384.2</ele>
        <time>2021-10-18T07:30:05Z</time>
      </trkpt>
      <trkpt lat="39.2403010" lon="-6.3014600">
        <ele>384.4</ele>
        <time>2021-10-18T07:30:06Z</time>
      </trkpt>
      <trkpt lat="39.2401740" lon="-6.3013960">
        <ele>385.4</ele>
        <time>2021-10-18T07:30:12Z</time>
      </trkpt>
      <trkpt lat="39.2401050" lon="-6.3013580">
        <ele>385.8</ele>
        <time>2021-10-18T07:30:15Z</time>
      </trkpt>
      <trkpt lat="39.2400370" lon="-6.3013120">
        <ele>386.2</ele>
        <time>2021-10-18T07:30:18Z</time>
      </trkpt>
      <trkpt lat="39.2400150" lon="-6.3012930">
        <ele>386.4</ele>
        <time>2021-10-18T07:30:19Z</time>
      </trkpt>
      <trkpt lat="39.2399740" lon="-6.3012410">
        <ele>386.4</ele>
        <time>2021-10-18T07:30:21Z</time>
      </trkpt>
      <trkpt lat="39.2399130" lon="-6.3011320">
        <ele>386.6</ele>
        <time>2021-10-18T07:30:25Z</time>
      </trkpt>
      <trkpt lat="39.2397920" lon="-6.3009780">
        <ele>387.2</ele>
        <time>2021-10-18T07:30:31Z</time>
      </trkpt>
      <trkpt lat="39.2397070" lon="-6.3009140">
        <ele>387.4</ele>
        <time>2021-10-18T07:30:34Z</time>
      </trkpt>
      <trkpt lat="39.2395800" lon="-6.3008620">
        <ele>387.8</ele>
        <time>2021-10-18T07:30:38Z</time>
      </trkpt>
      <trkpt lat="39.2393290" lon="-6.3008070">
        <ele>388.0</ele>
        <time>2021-10-18T07:30:45Z</time>
      </trkpt>
      <trkpt lat="39.2391190" lon="-6.3007650">
        <ele>387.8</ele>
        <time>2021-10-18T07:30:50Z</time>
      </trkpt>
      <trkpt lat="39.2390780" lon="-6.3007480">
        <ele>387.8</ele>
        <time>2021-10-18T07:30:51Z</time>
      </trkpt>
      <trkpt lat="39.2390400" lon="-6.3007260">
        <ele>387.8</ele>
        <time>2021-10-18T07:30:52Z</time>
      </trkpt>
      <trkpt lat="39.2390010" lon="-6.3006970">
        <ele>387.8</ele>
        <time>2021-10-18T07:30:53Z</time>
      </trkpt>
      <trkpt lat="39.2388840" lon="-6.3006090">
        <ele>387.8</ele>
        <time>2021-10-18T07:30:56Z</time>
      </trkpt>
      <trkpt lat="39.2388090" lon="-6.3005400">
        <ele>387.8</ele>
        <time>2021-10-18T07:30:58Z</time>
      </trkpt>
      <trkpt lat="39.2387010" lon="-6.3004590">
        <ele>387.6</ele>
        <time>2021-10-18T07:31:01Z</time>
      </trkpt>
      <trkpt lat="39.2386250" lon="-6.3003990">
        <ele>387.6</ele>
        <time>2021-10-18T07:31:03Z</time>
      </trkpt>
      <trkpt lat="39.2385840" lon="-6.3003730">
        <ele>387.6</ele>
        <time>2021-10-18T07:31:04Z</time>
      </trkpt>
      <trkpt lat="39.2382870" lon="-6.3002240">
        <ele>387.6</ele>
        <time>2021-10-18T07:31:11Z</time>
      </trkpt>
      <trkpt lat="39.2381090" lon="-6.3001220">
        <ele>387.4</ele>
        <time>2021-10-18T07:31:15Z</time>
      </trkpt>
      <trkpt lat="39.2379670" lon="-6.3000820">
        <ele>387.2</ele>
        <time>2021-10-18T07:31:18Z</time>
      </trkpt>
      <trkpt lat="39.2378780" lon="-6.3000620">
        <ele>387.2</ele>
        <time>2021-10-18T07:31:20Z</time>
      </trkpt>
      <trkpt lat="39.2377980" lon="-6.3000120">
        <ele>387.2</ele>
        <time>2021-10-18T07:31:22Z</time>
      </trkpt>
      <trkpt lat="39.2376920" lon="-6.2999100">
        <ele>387.2</ele>
        <time>2021-10-18T07:31:25Z</time>
      </trkpt>
      <trkpt lat="39.2376380" lon="-6.2998230">
        <ele>386.8</ele>
        <time>2021-10-18T07:31:27Z</time>
      </trkpt>
      <trkpt lat="39.2375960" lon="-6.2997230">
        <ele>386.8</ele>
        <time>2021-10-18T07:31:29Z</time>
      </trkpt>
      <trkpt lat="39.2375480" lon="-6.2996350">
        <ele>386.6</ele>
        <time>2021-10-18T07:31:31Z</time>
      </trkpt>
      <trkpt lat="39.2374910" lon="-6.2995620">
        <ele>386.4</ele>
        <time>2021-10-18T07:31:33Z</time>
      </trkpt>
      <trkpt lat="39.2374620" lon="-6.2995250">
        <ele>386.4</ele>
        <time>2021-10-18T07:31:34Z</time>
      </trkpt>
      <trkpt lat="39.2373670" lon="-6.2994290">
        <ele>386.0</ele>
        <time>2021-10-18T07:31:37Z</time>
      </trkpt>
      <trkpt lat="39.2373350" lon="-6.2994060">
        <ele>386.0</ele>
        <time>2021-10-18T07:31:38Z</time>
      </trkpt>
      <trkpt lat="39.2372280" lon="-6.2993510">
        <ele>385.6</ele>
        <time>2021-10-18T07:31:41Z</time>
      </trkpt>
      <trkpt lat="39.2371890" lon="-6.2993370">
        <ele>385.4</ele>
        <time>2021-10-18T07:31:42Z</time>
      </trkpt>
      <trkpt lat="39.2371490" lon="-6.2993210">
        <ele>385.4</ele>
        <time>2021-10-18T07:31:43Z</time>
      </trkpt>
      <trkpt lat="39.2369530" lon="-6.2991960">
        <ele>385.2</ele>
        <time>2021-10-18T07:31:48Z</time>
      </trkpt>
      <trkpt lat="39.2367570" lon="-6.2990680">
        <ele>385.2</ele>
        <time>2021-10-18T07:31:53Z</time>
      </trkpt>
      <trkpt lat="39.2366870" lon="-6.2989960">
        <ele>385.2</ele>
        <time>2021-10-18T07:31:55Z</time>
      </trkpt>
      <trkpt lat="39.2366560" lon="-6.2989530">
        <ele>385.2</ele>
        <time>2021-10-18T07:31:56Z</time>
      </trkpt>
      <trkpt lat="39.2364880" lon="-6.2987680">
        <ele>385.2</ele>
        <time>2021-10-18T07:32:02Z</time>
      </trkpt>
      <trkpt lat="39.2363880" lon="-6.2986680">
        <ele>385.8</ele>
        <time>2021-10-18T07:32:06Z</time>
      </trkpt>
      <trkpt lat="39.2363060" lon="-6.2985950">
        <ele>386.4</ele>
        <time>2021-10-18T07:32:09Z</time>
      </trkpt>
      <trkpt lat="39.2362030" lon="-6.2984920">
        <ele>386.8</ele>
        <time>2021-10-18T07:32:13Z</time>
      </trkpt>
      <trkpt lat="39.2361230" lon="-6.2984240">
        <ele>387.0</ele>
        <time>2021-10-18T07:32:16Z</time>
      </trkpt>
      <trkpt lat="39.2359280" lon="-6.2982780">
        <ele>387.0</ele>
        <time>2021-10-18T07:32:22Z</time>
      </trkpt>
      <trkpt lat="39.2358400" lon="-6.2982340">
        <ele>387.0</ele>
        <time>2021-10-18T07:32:25Z</time>
      </trkpt>
      <trkpt lat="39.2357400" lon="-6.2981990">
        <ele>387.2</ele>
        <time>2021-10-18T07:32:28Z</time>
      </trkpt>
      <trkpt lat="39.2356800" lon="-6.2981710">
        <ele>387.2</ele>
        <time>2021-10-18T07:32:30Z</time>
      </trkpt>
      <trkpt lat="39.2355650" lon="-6.2981350">
        <ele>387.2</ele>
        <time>2021-10-18T07:32:33Z</time>
      </trkpt>
      <trkpt lat="39.2354990" lon="-6.2980780">
        <ele>387.2</ele>
        <time>2021-10-18T07:32:35Z</time>
      </trkpt>
      <trkpt lat="39.2353940" lon="-6.2980170">
        <ele>387.4</ele>
        <time>2021-10-18T07:32:39Z</time>
      </trkpt>
      <trkpt lat="39.2353770" lon="-6.2979920">
        <ele>387.6</ele>
        <time>2021-10-18T07:32:40Z</time>
      </trkpt>
      <trkpt lat="39.2353360" lon="-6.2978960">
        <ele>388.2</ele>
        <time>2021-10-18T07:32:43Z</time>
      </trkpt>
      <trkpt lat="39.2352390" lon="-6.2977150">
        <ele>388.2</ele>
        <time>2021-10-18T07:32:48Z</time>
      </trkpt>
      <trkpt lat="39.2352050" lon="-6.2976780">
        <ele>388.4</ele>
        <time>2021-10-18T07:32:49Z</time>
      </trkpt>
      <trkpt lat="39.2350960" lon="-6.2975760">
        <ele>388.0</ele>
        <time>2021-10-18T07:32:52Z</time>
      </trkpt>
      <trkpt lat="39.2349200" lon="-6.2974540">
        <ele>387.4</ele>
        <time>2021-10-18T07:32:57Z</time>
      </trkpt>
      <trkpt lat="39.2347950" lon="-6.2973800">
        <ele>387.4</ele>
        <time>2021-10-18T07:33:01Z</time>
      </trkpt>
      <trkpt lat="39.2347100" lon="-6.2973430">
        <ele>387.2</ele>
        <time>2021-10-18T07:33:04Z</time>
      </trkpt>
      <trkpt lat="39.2346230" lon="-6.2973140">
        <ele>387.2</ele>
        <time>2021-10-18T07:33:07Z</time>
      </trkpt>
      <trkpt lat="39.2345610" lon="-6.2973010">
        <ele>387.2</ele>
        <time>2021-10-18T07:33:09Z</time>
      </trkpt>
      <trkpt lat="39.2345220" lon="-6.2972950">
        <ele>387.0</ele>
        <time>2021-10-18T07:33:11Z</time>
      </trkpt>
      <trkpt lat="39.2344650" lon="-6.2972670">
        <ele>387.0</ele>
        <time>2021-10-18T07:33:14Z</time>
      </trkpt>
      <trkpt lat="39.2344370" lon="-6.2972270">
        <ele>387.0</ele>
        <time>2021-10-18T07:33:16Z</time>
      </trkpt>
      <trkpt lat="39.2343310" lon="-6.2971280">
        <ele>386.8</ele>
        <time>2021-10-18T07:33:23Z</time>
      </trkpt>
      <trkpt lat="39.2343300" lon="-6.2971120">
        <ele>386.8</ele>
        <time>2021-10-18T07:33:24Z</time>
      </trkpt>
      <trkpt lat="39.2343740" lon="-6.2971000">
        <ele>386.8</ele>
        <time>2021-10-18T07:33:27Z</time>
      </trkpt>
      <trkpt lat="39.2344180" lon="-6.2970910">
        <ele>386.8</ele>
        <time>2021-10-18T07:33:29Z</time>
      </trkpt>
      <trkpt lat="39.2344410" lon="-6.2970430">
        <ele>386.8</ele>
        <time>2021-10-18T07:33:31Z</time>
      </trkpt>
      <trkpt lat="39.2344430" lon="-6.2968560">
        <ele>386.8</ele>
        <time>2021-10-18T07:33:37Z</time>
      </trkpt>
      <trkpt lat="39.2344370" lon="-6.2967860">
        <ele>386.8</ele>
        <time>2021-10-18T07:33:39Z</time>
      </trkpt>
      <trkpt lat="39.2344050" lon="-6.2965650">
        <ele>387.0</ele>
        <time>2021-10-18T07:33:44Z</time>
      </trkpt>
      <trkpt lat="39.2343530" lon="-6.2961900">
        <ele>386.8</ele>
        <time>2021-10-18T07:33:51Z</time>
      </trkpt>
      <trkpt lat="39.2343370" lon="-6.2959930">
        <ele>386.4</ele>
        <time>2021-10-18T07:33:55Z</time>
      </trkpt>
      <trkpt lat="39.2343410" lon="-6.2956610">
        <ele>386.2</ele>
        <time>2021-10-18T07:34:01Z</time>
      </trkpt>
      <trkpt lat="39.2343790" lon="-6.2953450">
        <ele>386.0</ele>
        <time>2021-10-18T07:34:07Z</time>
      </trkpt>
      <trkpt lat="39.2343840" lon="-6.2952930">
        <ele>386.0</ele>
        <time>2021-10-18T07:34:08Z</time>
      </trkpt>
      <trkpt lat="39.2343800" lon="-6.2951060">
        <ele>386.0</ele>
        <time>2021-10-18T07:34:12Z</time>
      </trkpt>
      <trkpt lat="39.2343470" lon="-6.2949930">
        <ele>386.0</ele>
        <time>2021-10-18T07:34:16Z</time>
      </trkpt>
      <trkpt lat="39.2342870" lon="-6.2949720">
        <ele>386.0</ele>
        <time>2021-10-18T07:34:19Z</time>
      </trkpt>
      <trkpt lat="39.2342450" lon="-6.2949930">
        <ele>386.0</ele>
        <time>2021-10-18T07:34:21Z</time>
      </trkpt>
      <trkpt lat="39.2341600" lon="-6.2950370">
        <ele>385.6</ele>
        <time>2021-10-18T07:34:25Z</time>
      </trkpt>
      <trkpt lat="39.2341490" lon="-6.2950540">
        <ele>385.2</ele>
        <time>2021-10-18T07:34:26Z</time>
      </trkpt>
      <trkpt lat="39.2341350" lon="-6.2950670">
        <ele>385.0</ele>
        <time>2021-10-18T07:34:27Z</time>
      </trkpt>
      <trkpt lat="39.2341120" lon="-6.2950380">
        <ele>384.6</ele>
        <time>2021-10-18T07:34:30Z</time>
      </trkpt>
      <trkpt lat="39.2341480" lon="-6.2950320">
        <ele>384.4</ele>
        <time>2021-10-18T07:34:32Z</time>
      </trkpt>
      <trkpt lat="39.2341980" lon="-6.2950260">
        <ele>384.4</ele>
        <time>2021-10-18T07:34:34Z</time>
      </trkpt>
      <trkpt lat="39.2343220" lon="-6.2949800">
        <ele>384.4</ele>
        <time>2021-10-18T07:34:39Z</time>
      </trkpt>
      <trkpt lat="39.2343370" lon="-6.2949540">
        <ele>384.8</ele>
        <time>2021-10-18T07:34:40Z</time>
      </trkpt>
      <trkpt lat="39.2343430" lon="-6.2949220">
        <ele>385.0</ele>
        <time>2021-10-18T07:34:41Z</time>
      </trkpt>
      <trkpt lat="39.2343330" lon="-6.2948070">
        <ele>385.8</ele>
        <time>2021-10-18T07:34:44Z</time>
      </trkpt>
      <trkpt lat="39.2343150" lon="-6.2945800">
        <ele>386.0</ele>
        <time>2021-10-18T07:34:49Z</time>
      </trkpt>
      <trkpt lat="39.2343230" lon="-6.2941910">
        <ele>385.8</ele>
        <time>2021-10-18T07:34:57Z</time>
      </trkpt>
      <trkpt lat="39.2343430" lon="-6.2937930">
        <ele>385.6</ele>
        <time>2021-10-18T07:35:05Z</time>
      </trkpt>
      <trkpt lat="39.2343750" lon="-6.2933470">
        <ele>385.6</ele>
        <time>2021-10-18T07:35:14Z</time>
      </trkpt>
      <trkpt lat="39.2343980" lon="-6.2931540">
        <ele>385.8</ele>
        <time>2021-10-18T07:35:18Z</time>
      </trkpt>
      <trkpt lat="39.2344160" lon="-6.2930150">
        <ele>386.0</ele>
        <time>2021-10-18T07:35:21Z</time>
      </trkpt>
      <trkpt lat="39.2344310" lon="-6.2928710">
        <ele>386.0</ele>
        <time>2021-10-18T07:35:24Z</time>
      </trkpt>
      <trkpt lat="39.2344550" lon="-6.2926760">
        <ele>386.2</ele>
        <time>2021-10-18T07:35:28Z</time>
      </trkpt>
      <trkpt lat="39.2344910" lon="-6.2924360">
        <ele>386.6</ele>
        <time>2021-10-18T07:35:33Z</time>
      </trkpt>
      <trkpt lat="39.2345490" lon="-6.2918810">
        <ele>387.0</ele>
        <time>2021-10-18T07:35:44Z</time>
      </trkpt>
      <trkpt lat="39.2345520" lon="-6.2917130">
        <ele>387.0</ele>
        <time>2021-10-18T07:35:47Z</time>
      </trkpt>
      <trkpt lat="39.2345340" lon="-6.2915420">
        <ele>387.0</ele>
        <time>2021-10-18T07:35:50Z</time>
      </trkpt>
      <trkpt lat="39.2345250" lon="-6.2914210">
        <ele>386.8</ele>
        <time>2021-10-18T07:35:52Z</time>
      </trkpt>
      <trkpt lat="39.2345010" lon="-6.2911170">
        <ele>386.8</ele>
        <time>2021-10-18T07:35:57Z</time>
      </trkpt>
      <trkpt lat="39.2344650" lon="-6.2907680">
        <ele>386.6</ele>
        <time>2021-10-18T07:36:03Z</time>
      </trkpt>
      <trkpt lat="39.2344600" lon="-6.2907130">
        <ele>386.6</ele>
        <time>2021-10-18T07:36:04Z</time>
      </trkpt>
      <trkpt lat="39.2344290" lon="-6.2902930">
        <ele>386.6</ele>
        <time>2021-10-18T07:36:12Z</time>
      </trkpt>
      <trkpt lat="39.2344110" lon="-6.2900580">
        <ele>386.6</ele>
        <time>2021-10-18T07:36:17Z</time>
      </trkpt>
      <trkpt lat="39.2344000" lon="-6.2898840">
        <ele>386.6</ele>
        <time>2021-10-18T07:36:21Z</time>
      </trkpt>
      <trkpt lat="39.2343540" lon="-6.2896310">
        <ele>386.4</ele>
        <time>2021-10-18T07:36:28Z</time>
      </trkpt>
      <trkpt lat="39.2342870" lon="-6.2896500">
        <ele>386.4</ele>
        <time>2021-10-18T07:36:31Z</time>
      </trkpt>
      <trkpt lat="39.2342380" lon="-6.2897730">
        <ele>386.2</ele>
        <time>2021-10-18T07:36:36Z</time>
      </trkpt>
      <trkpt lat="39.2342380" lon="-6.2897730">
        <ele>386.0</ele>
        <time>2021-10-18T07:36:37Z</time>
      </trkpt>
      <trkpt lat="39.2342020" lon="-6.2898060">
        <ele>385.2</ele>
        <time>2021-10-18T07:36:55Z</time>
      </trkpt>
      <trkpt lat="39.2341830" lon="-6.2898180">
        <ele>385.4</ele>
        <time>2021-10-18T07:36:56Z</time>
      </trkpt>
      <trkpt lat="39.2341620" lon="-6.2898270">
        <ele>385.4</ele>
        <time>2021-10-18T07:36:57Z</time>
      </trkpt>
      <trkpt lat="39.2340410" lon="-6.2898600">
        <ele>385.8</ele>
        <time>2021-10-18T07:37:04Z</time>
      </trkpt>
      <trkpt lat="39.2339060" lon="-6.2898910">
        <ele>386.2</ele>
        <time>2021-10-18T07:37:11Z</time>
      </trkpt>
      <trkpt lat="39.2338130" lon="-6.2898980">
        <ele>386.4</ele>
        <time>2021-10-18T07:37:14Z</time>
      </trkpt>
      <trkpt lat="39.2337640" lon="-6.2898620">
        <ele>386.2</ele>
        <time>2021-10-18T07:37:16Z</time>
      </trkpt>
      <trkpt lat="39.2337470" lon="-6.2897660">
        <ele>385.4</ele>
        <time>2021-10-18T07:37:20Z</time>
      </trkpt>
      <trkpt lat="39.2337470" lon="-6.2897660">
        <ele>385.4</ele>
        <time>2021-10-18T07:37:21Z</time>
      </trkpt>
      <trkpt lat="39.2337320" lon="-6.2897330">
        <ele>385.6</ele>
        <time>2021-10-18T07:37:52Z</time>
      </trkpt>
      <trkpt lat="39.2337140" lon="-6.2897100">
        <ele>385.4</ele>
        <time>2021-10-18T07:37:53Z</time>
      </trkpt>
      <trkpt lat="39.2337010" lon="-6.2896870">
        <ele>385.2</ele>
        <time>2021-10-18T07:37:54Z</time>
      </trkpt>
      <trkpt lat="39.2336420" lon="-6.2895460">
        <ele>385.6</ele>
        <time>2021-10-18T07:37:59Z</time>
      </trkpt>
      <trkpt lat="39.2335950" lon="-6.2894750">
        <ele>385.8</ele>
        <time>2021-10-18T07:38:02Z</time>
      </trkpt>
      <trkpt lat="39.2334660" lon="-6.2893250">
        <ele>386.2</ele>
        <time>2021-10-18T07:38:09Z</time>
      </trkpt>
      <trkpt lat="39.2334070" lon="-6.2892700">
        <ele>386.2</ele>
        <time>2021-10-18T07:38:12Z</time>
      </trkpt>
      <trkpt lat="39.2333110" lon="-6.2891880">
        <ele>386.4</ele>
        <time>2021-10-18T07:38:17Z</time>
      </trkpt>
      <trkpt lat="39.2332540" lon="-6.2891400">
        <ele>386.8</ele>
        <time>2021-10-18T07:38:20Z</time>
      </trkpt>
      <trkpt lat="39.2332360" lon="-6.2891250">
        <ele>386.8</ele>
        <time>2021-10-18T07:38:21Z</time>
      </trkpt>
      <trkpt lat="39.2331000" lon="-6.2890230">
        <ele>387.6</ele>
        <time>2021-10-18T07:38:28Z</time>
      </trkpt>
      <trkpt lat="39.2330570" lon="-6.2889860">
        <ele>387.8</ele>
        <time>2021-10-18T07:38:30Z</time>
      </trkpt>
      <trkpt lat="39.2330420" lon="-6.2889730">
        <ele>387.8</ele>
        <time>2021-10-18T07:38:31Z</time>
      </trkpt>
      <trkpt lat="39.2330090" lon="-6.2889360">
        <ele>388.4</ele>
        <time>2021-10-18T07:38:33Z</time>
      </trkpt>
      <trkpt lat="39.2329240" lon="-6.2888450">
        <ele>388.8</ele>
        <time>2021-10-18T07:38:38Z</time>
      </trkpt>
      <trkpt lat="39.2329070" lon="-6.2888310">
        <ele>389.0</ele>
        <time>2021-10-18T07:38:39Z</time>
      </trkpt>
      <trkpt lat="39.2328450" lon="-6.2887620">
        <ele>389.6</ele>
        <time>2021-10-18T07:38:43Z</time>
      </trkpt>
      <trkpt lat="39.2327800" lon="-6.2887010">
        <ele>390.0</ele>
        <time>2021-10-18T07:38:47Z</time>
      </trkpt>
      <trkpt lat="39.2327670" lon="-6.2886840">
        <ele>390.4</ele>
        <time>2021-10-18T07:38:48Z</time>
      </trkpt>
      <trkpt lat="39.2327150" lon="-6.2886180">
        <ele>390.8</ele>
        <time>2021-10-18T07:38:52Z</time>
      </trkpt>
      <trkpt lat="39.2326490" lon="-6.2885500">
        <ele>391.4</ele>
        <time>2021-10-18T07:38:57Z</time>
      </trkpt>
      <trkpt lat="39.2326320" lon="-6.2885360">
        <ele>391.6</ele>
        <time>2021-10-18T07:38:58Z</time>
      </trkpt>
      <trkpt lat="39.2325720" lon="-6.2884740">
        <ele>392.2</ele>
        <time>2021-10-18T07:39:02Z</time>
      </trkpt>
      <trkpt lat="39.2325180" lon="-6.2884330">
        <ele>392.4</ele>
        <time>2021-10-18T07:39:05Z</time>
      </trkpt>
      <trkpt lat="39.2325000" lon="-6.2884200">
        <ele>392.6</ele>
        <time>2021-10-18T07:39:06Z</time>
      </trkpt>
      <trkpt lat="39.2324320" lon="-6.2883530">
        <ele>393.0</ele>
        <time>2021-10-18T07:39:10Z</time>
      </trkpt>
      <trkpt lat="39.2323650" lon="-6.2883010">
        <ele>393.2</ele>
        <time>2021-10-18T07:39:14Z</time>
      </trkpt>
      <trkpt lat="39.2323370" lon="-6.2882730">
        <ele>393.2</ele>
        <time>2021-10-18T07:39:16Z</time>
      </trkpt>
      <trkpt lat="39.2322830" lon="-6.2882240">
        <ele>393.6</ele>
        <time>2021-10-18T07:39:19Z</time>
      </trkpt>
      <trkpt lat="39.2321460" lon="-6.2881240">
        <ele>393.8</ele>
        <time>2021-10-18T07:39:26Z</time>
      </trkpt>
      <trkpt lat="39.2319680" lon="-6.2880130">
        <ele>394.0</ele>
        <time>2021-10-18T07:39:34Z</time>
      </trkpt>
      <trkpt lat="39.2319450" lon="-6.2880000">
        <ele>394.2</ele>
        <time>2021-10-18T07:39:35Z</time>
      </trkpt>
      <trkpt lat="39.2318450" lon="-6.2879490">
        <ele>394.2</ele>
        <time>2021-10-18T07:39:39Z</time>
      </trkpt>
      <trkpt lat="39.2317130" lon="-6.2878730">
        <ele>394.4</ele>
        <time>2021-10-18T07:39:44Z</time>
      </trkpt>
      <trkpt lat="39.2316610" lon="-6.2878460">
        <ele>394.4</ele>
        <time>2021-10-18T07:39:46Z</time>
      </trkpt>
      <trkpt lat="39.2315530" lon="-6.2877920">
        <ele>394.6</ele>
        <time>2021-10-18T07:39:50Z</time>
      </trkpt>
      <trkpt lat="39.2314280" lon="-6.2877290">
        <ele>395.0</ele>
        <time>2021-10-18T07:39:55Z</time>
      </trkpt>
      <trkpt lat="39.2311650" lon="-6.2875850">
        <ele>395.6</ele>
        <time>2021-10-18T07:40:06Z</time>
      </trkpt>
      <trkpt lat="39.2311170" lon="-6.2875580">
        <ele>395.6</ele>
        <time>2021-10-18T07:40:08Z</time>
      </trkpt>
      <trkpt lat="39.2309120" lon="-6.2874260">
        <ele>396.8</ele>
        <time>2021-10-18T07:40:17Z</time>
      </trkpt>
      <trkpt lat="39.2308430" lon="-6.2873810">
        <ele>396.8</ele>
        <time>2021-10-18T07:40:20Z</time>
      </trkpt>
      <trkpt lat="39.2307310" lon="-6.2872850">
        <ele>397.4</ele>
        <time>2021-10-18T07:40:25Z</time>
      </trkpt>
      <trkpt lat="39.2306810" lon="-6.2872440">
        <ele>397.6</ele>
        <time>2021-10-18T07:40:27Z</time>
      </trkpt>
      <trkpt lat="39.2306140" lon="-6.2871900">
        <ele>397.8</ele>
        <time>2021-10-18T07:40:30Z</time>
      </trkpt>
      <trkpt lat="39.2304830" lon="-6.2870800">
        <ele>398.0</ele>
        <time>2021-10-18T07:40:36Z</time>
      </trkpt>
      <trkpt lat="39.2303420" lon="-6.2869530">
        <ele>398.2</ele>
        <time>2021-10-18T07:40:42Z</time>
      </trkpt>
      <trkpt lat="39.2302890" lon="-6.2869050">
        <ele>398.2</ele>
        <time>2021-10-18T07:40:44Z</time>
      </trkpt>
      <trkpt lat="39.2300510" lon="-6.2866720">
        <ele>398.2</ele>
        <time>2021-10-18T07:40:52Z</time>
      </trkpt>
      <trkpt lat="39.2299110" lon="-6.2865510">
        <ele>398.0</ele>
        <time>2021-10-18T07:40:57Z</time>
      </trkpt>
      <trkpt lat="39.2298190" lon="-6.2864720">
        <ele>398.0</ele>
        <time>2021-10-18T07:41:00Z</time>
      </trkpt>
      <trkpt lat="39.2296680" lon="-6.2863170">
        <ele>397.8</ele>
        <time>2021-10-18T07:41:05Z</time>
      </trkpt>
      <trkpt lat="39.2295760" lon="-6.2862260">
        <ele>397.6</ele>
        <time>2021-10-18T07:41:08Z</time>
      </trkpt>
      <trkpt lat="39.2294820" lon="-6.2861280">
        <ele>397.6</ele>
        <time>2021-10-18T07:41:11Z</time>
      </trkpt>
      <trkpt lat="39.2292350" lon="-6.2858750">
        <ele>397.6</ele>
        <time>2021-10-18T07:41:19Z</time>
      </trkpt>
      <trkpt lat="39.2289020" lon="-6.2855740">
        <ele>397.6</ele>
        <time>2021-10-18T07:41:29Z</time>
      </trkpt>
      <trkpt lat="39.2287930" lon="-6.2855210">
        <ele>397.6</ele>
        <time>2021-10-18T07:41:32Z</time>
      </trkpt>
      <trkpt lat="39.2286010" lon="-6.2854180">
        <ele>397.8</ele>
        <time>2021-10-18T07:41:37Z</time>
      </trkpt>
      <trkpt lat="39.2285620" lon="-6.2853910">
        <ele>397.8</ele>
        <time>2021-10-18T07:41:38Z</time>
      </trkpt>
      <trkpt lat="39.2281780" lon="-6.2851260">
        <ele>397.6</ele>
        <time>2021-10-18T07:41:48Z</time>
      </trkpt>
      <trkpt lat="39.2276920" lon="-6.2848380">
        <ele>397.4</ele>
        <time>2021-10-18T07:42:00Z</time>
      </trkpt>
      <trkpt lat="39.2273630" lon="-6.2846400">
        <ele>397.2</ele>
        <time>2021-10-18T07:42:08Z</time>
      </trkpt>
      <trkpt lat="39.2272070" lon="-6.2845500">
        <ele>397.2</ele>
        <time>2021-10-18T07:42:12Z</time>
      </trkpt>
      <trkpt lat="39.2268320" lon="-6.2843580">
        <ele>397.2</ele>
        <time>2021-10-18T07:42:21Z</time>
      </trkpt>
      <trkpt lat="39.2267520" lon="-6.2843140">
        <ele>397.2</ele>
        <time>2021-10-18T07:42:23Z</time>
      </trkpt>
      <trkpt lat="39.2265920" lon="-6.2842250">
        <ele>397.2</ele>
        <time>2021-10-18T07:42:27Z</time>
      </trkpt>
      <trkpt lat="39.2264000" lon="-6.2841220">
        <ele>397.2</ele>
        <time>2021-10-18T07:42:32Z</time>
      </trkpt>
      <trkpt lat="39.2263620" lon="-6.2841120">
        <ele>397.2</ele>
        <time>2021-10-18T07:42:33Z</time>
      </trkpt>
      <trkpt lat="39.2262640" lon="-6.2841270">
        <ele>397.4</ele>
        <time>2021-10-18T07:42:36Z</time>
      </trkpt>
      <trkpt lat="39.2261120" lon="-6.2842020">
        <ele>397.4</ele>
        <time>2021-10-18T07:42:42Z</time>
      </trkpt>
      <trkpt lat="39.2260150" lon="-6.2840970">
        <ele>397.6</ele>
        <time>2021-10-18T07:42:47Z</time>
      </trkpt>
      <trkpt lat="39.2257630" lon="-6.2838300">
        <ele>398.4</ele>
        <time>2021-10-18T07:42:57Z</time>
      </trkpt>
      <trkpt lat="39.2256170" lon="-6.2837040">
        <ele>398.8</ele>
        <time>2021-10-18T07:43:02Z</time>
      </trkpt>
      <trkpt lat="39.2255380" lon="-6.2836290">
        <ele>399.2</ele>
        <time>2021-10-18T07:43:05Z</time>
      </trkpt>
      <trkpt lat="39.2253960" lon="-6.2834970">
        <ele>399.8</ele>
        <time>2021-10-18T07:43:11Z</time>
      </trkpt>
      <trkpt lat="39.2253730" lon="-6.2834780">
        <ele>399.8</ele>
        <time>2021-10-18T07:43:12Z</time>
      </trkpt>
      <trkpt lat="39.2252660" lon="-6.2833770">
        <ele>400.2</ele>
        <time>2021-10-18T07:43:16Z</time>
      </trkpt>
      <trkpt lat="39.2251560" lon="-6.2832860">
        <ele>400.4</ele>
        <time>2021-10-18T07:43:20Z</time>
      </trkpt>
      <trkpt lat="39.2250700" lon="-6.2832150">
        <ele>400.6</ele>
        <time>2021-10-18T07:43:23Z</time>
      </trkpt>
      <trkpt lat="39.2249630" lon="-6.2831150">
        <ele>401.0</ele>
        <time>2021-10-18T07:43:27Z</time>
      </trkpt>
      <trkpt lat="39.2248820" lon="-6.2830450">
        <ele>401.4</ele>
        <time>2021-10-18T07:43:30Z</time>
      </trkpt>
      <trkpt lat="39.2247790" lon="-6.2829460">
        <ele>401.6</ele>
        <time>2021-10-18T07:43:34Z</time>
      </trkpt>
      <trkpt lat="39.2247010" lon="-6.2828690">
        <ele>401.8</ele>
        <time>2021-10-18T07:43:37Z</time>
      </trkpt>
      <trkpt lat="39.2245560" lon="-6.2827480">
        <ele>402.0</ele>
        <time>2021-10-18T07:43:42Z</time>
      </trkpt>
      <trkpt lat="39.2244320" lon="-6.2826260">
        <ele>402.0</ele>
        <time>2021-10-18T07:43:47Z</time>
      </trkpt>
      <trkpt lat="39.2244060" lon="-6.2826030">
        <ele>402.0</ele>
        <time>2021-10-18T07:43:48Z</time>
      </trkpt>
      <trkpt lat="39.2241680" lon="-6.2824520">
        <ele>402.2</ele>
        <time>2021-10-18T07:43:56Z</time>
      </trkpt>
      <trkpt lat="39.2241370" lon="-6.2824330">
        <ele>402.2</ele>
        <time>2021-10-18T07:43:57Z</time>
      </trkpt>
      <trkpt lat="39.2239790" lon="-6.2822740">
        <ele>402.6</ele>
        <time>2021-10-18T07:44:03Z</time>
      </trkpt>
      <trkpt lat="39.2238350" lon="-6.2821530">
        <ele>403.0</ele>
        <time>2021-10-18T07:44:08Z</time>
      </trkpt>
      <trkpt lat="39.2238050" lon="-6.2821340">
        <ele>403.0</ele>
        <time>2021-10-18T07:44:09Z</time>
      </trkpt>
      <trkpt lat="39.2237430" lon="-6.2820880">
        <ele>403.2</ele>
        <time>2021-10-18T07:44:11Z</time>
      </trkpt>
      <trkpt lat="39.2235370" lon="-6.2819780">
        <ele>403.6</ele>
        <time>2021-10-18T07:44:18Z</time>
      </trkpt>
      <trkpt lat="39.2232570" lon="-6.2818580">
        <ele>404.2</ele>
        <time>2021-10-18T07:44:27Z</time>
      </trkpt>
      <trkpt lat="39.2230240" lon="-6.2817090">
        <ele>404.4</ele>
        <time>2021-10-18T07:44:35Z</time>
      </trkpt>
      <trkpt lat="39.2227860" lon="-6.2816400">
        <ele>404.8</ele>
        <time>2021-10-18T07:44:42Z</time>
      </trkpt>
      <trkpt lat="39.2226420" lon="-6.2816210">
        <ele>405.0</ele>
        <time>2021-10-18T07:44:46Z</time>
      </trkpt>
      <trkpt lat="39.2225650" lon="-6.2816010">
        <ele>405.0</ele>
        <time>2021-10-18T07:44:48Z</time>
      </trkpt>
      <trkpt lat="39.2224720" lon="-6.2815790">
        <ele>405.0</ele>
        <time>2021-10-18T07:44:51Z</time>
      </trkpt>
      <trkpt lat="39.2223340" lon="-6.2815530">
        <ele>405.0</ele>
        <time>2021-10-18T07:44:55Z</time>
      </trkpt>
      <trkpt lat="39.2221530" lon="-6.2815340">
        <ele>405.4</ele>
        <time>2021-10-18T07:45:00Z</time>
      </trkpt>
      <trkpt lat="39.2218750" lon="-6.2814500">
        <ele>405.2</ele>
        <time>2021-10-18T07:45:07Z</time>
      </trkpt>
      <trkpt lat="39.2218360" lon="-6.2814410">
        <ele>405.0</ele>
        <time>2021-10-18T07:45:08Z</time>
      </trkpt>
      <trkpt lat="39.2216790" lon="-6.2813930">
        <ele>405.0</ele>
        <time>2021-10-18T07:45:12Z</time>
      </trkpt>
      <trkpt lat="39.2215200" lon="-6.2813670">
        <ele>405.0</ele>
        <time>2021-10-18T07:45:16Z</time>
      </trkpt>
      <trkpt lat="39.2212760" lon="-6.2813330">
        <ele>404.8</ele>
        <time>2021-10-18T07:45:22Z</time>
      </trkpt>
      <trkpt lat="39.2209880" lon="-6.2812550">
        <ele>404.6</ele>
        <time>2021-10-18T07:45:29Z</time>
      </trkpt>
      <trkpt lat="39.2209140" lon="-6.2812270">
        <ele>404.4</ele>
        <time>2021-10-18T07:45:31Z</time>
      </trkpt>
      <trkpt lat="39.2206870" lon="-6.2811150">
        <ele>404.4</ele>
        <time>2021-10-18T07:45:37Z</time>
      </trkpt>
      <trkpt lat="39.2206030" lon="-6.2810660">
        <ele>404.2</ele>
        <time>2021-10-18T07:45:39Z</time>
      </trkpt>
      <trkpt lat="39.2203080" lon="-6.2809160">
        <ele>404.2</ele>
        <time>2021-10-18T07:45:47Z</time>
      </trkpt>
      <trkpt lat="39.2202050" lon="-6.2808520">
        <ele>404.2</ele>
        <time>2021-10-18T07:45:50Z</time>
      </trkpt>
      <trkpt lat="39.2200980" lon="-6.2808150">
        <ele>404.2</ele>
        <time>2021-10-18T07:45:53Z</time>
      </trkpt>
      <trkpt lat="39.2200610" lon="-6.2807990">
        <ele>404.4</ele>
        <time>2021-10-18T07:45:54Z</time>
      </trkpt>
      <trkpt lat="39.2198370" lon="-6.2806450">
        <ele>404.8</ele>
        <time>2021-10-18T07:46:01Z</time>
      </trkpt>
      <trkpt lat="39.2194850" lon="-6.2804900">
        <ele>405.0</ele>
        <time>2021-10-18T07:46:11Z</time>
      </trkpt>
      <trkpt lat="39.2192720" lon="-6.2803420">
        <ele>405.0</ele>
        <time>2021-10-18T07:46:17Z</time>
      </trkpt>
      <trkpt lat="39.2190750" lon="-6.2802640">
        <ele>405.0</ele>
        <time>2021-10-18T07:46:22Z</time>
      </trkpt>
      <trkpt lat="39.2189590" lon="-6.2802080">
        <ele>405.0</ele>
        <time>2021-10-18T07:46:25Z</time>
      </trkpt>
      <trkpt lat="39.2187250" lon="-6.2800870">
        <ele>404.8</ele>
        <time>2021-10-18T07:46:31Z</time>
      </trkpt>
      <trkpt lat="39.2186420" lon="-6.2800690">
        <ele>404.8</ele>
        <time>2021-10-18T07:46:33Z</time>
      </trkpt>
      <trkpt lat="39.2183380" lon="-6.2800680">
        <ele>405.0</ele>
        <time>2021-10-18T07:46:40Z</time>
      </trkpt>
      <trkpt lat="39.2182980" lon="-6.2800610">
        <ele>405.0</ele>
        <time>2021-10-18T07:46:41Z</time>
      </trkpt>
      <trkpt lat="39.2181130" lon="-6.2799960">
        <ele>405.0</ele>
        <time>2021-10-18T07:46:46Z</time>
      </trkpt>
      <trkpt lat="39.2178750" lon="-6.2799290">
        <ele>405.2</ele>
        <time>2021-10-18T07:46:52Z</time>
      </trkpt>
      <trkpt lat="39.2176580" lon="-6.2798660">
        <ele>405.2</ele>
        <time>2021-10-18T07:46:58Z</time>
      </trkpt>
      <trkpt lat="39.2173450" lon="-6.2798110">
        <ele>405.4</ele>
        <time>2021-10-18T07:47:06Z</time>
      </trkpt>
      <trkpt lat="39.2171040" lon="-6.2798070">
        <ele>405.4</ele>
        <time>2021-10-18T07:47:12Z</time>
      </trkpt>
      <trkpt lat="39.2170630" lon="-6.2798020">
        <ele>405.4</ele>
        <time>2021-10-18T07:47:13Z</time>
      </trkpt>
      <trkpt lat="39.2167850" lon="-6.2797250">
        <ele>405.6</ele>
        <time>2021-10-18T07:47:20Z</time>
      </trkpt>
      <trkpt lat="39.2167500" lon="-6.2797070">
        <ele>405.6</ele>
        <time>2021-10-18T07:47:21Z</time>
      </trkpt>
      <trkpt lat="39.2165320" lon="-6.2795840">
        <ele>405.4</ele>
        <time>2021-10-18T07:47:27Z</time>
      </trkpt>
      <trkpt lat="39.2163000" lon="-6.2794530">
        <ele>405.0</ele>
        <time>2021-10-18T07:47:33Z</time>
      </trkpt>
      <trkpt lat="39.2162150" lon="-6.2794170">
        <ele>405.0</ele>
        <time>2021-10-18T07:47:35Z</time>
      </trkpt>
      <trkpt lat="39.2161260" lon="-6.2794050">
        <ele>404.8</ele>
        <time>2021-10-18T07:47:37Z</time>
      </trkpt>
      <trkpt lat="39.2160820" lon="-6.2793960">
        <ele>404.8</ele>
        <time>2021-10-18T07:47:38Z</time>
      </trkpt>
      <trkpt lat="39.2157740" lon="-6.2793620">
        <ele>404.4</ele>
        <time>2021-10-18T07:47:45Z</time>
      </trkpt>
      <trkpt lat="39.2157420" lon="-6.2793490">
        <ele>404.4</ele>
        <time>2021-10-18T07:47:46Z</time>
      </trkpt>
      <trkpt lat="39.2156700" lon="-6.2793070">
        <ele>404.4</ele>
        <time>2021-10-18T07:47:48Z</time>
      </trkpt>
      <trkpt lat="39.2155640" lon="-6.2792530">
        <ele>404.4</ele>
        <time>2021-10-18T07:47:51Z</time>
      </trkpt>
      <trkpt lat="39.2155260" lon="-6.2792410">
        <ele>404.4</ele>
        <time>2021-10-18T07:47:52Z</time>
      </trkpt>
      <trkpt lat="39.2154060" lon="-6.2792340">
        <ele>404.4</ele>
        <time>2021-10-18T07:47:55Z</time>
      </trkpt>
      <trkpt lat="39.2153220" lon="-6.2792430">
        <ele>404.4</ele>
        <time>2021-10-18T07:47:57Z</time>
      </trkpt>
      <trkpt lat="39.2150320" lon="-6.2792250">
        <ele>404.4</ele>
        <time>2021-10-18T07:48:04Z</time>
      </trkpt>
      <trkpt lat="39.2149470" lon="-6.2792200">
        <ele>404.4</ele>
        <time>2021-10-18T07:48:06Z</time>
      </trkpt>
      <trkpt lat="39.2147850" lon="-6.2791950">
        <ele>404.4</ele>
        <time>2021-10-18T07:48:10Z</time>
      </trkpt>
      <trkpt lat="39.2147450" lon="-6.2791970">
        <ele>404.4</ele>
        <time>2021-10-18T07:48:11Z</time>
      </trkpt>
      <trkpt lat="39.2146100" lon="-6.2792110">
        <ele>404.4</ele>
        <time>2021-10-18T07:48:14Z</time>
      </trkpt>
      <trkpt lat="39.2143720" lon="-6.2792070">
        <ele>404.4</ele>
        <time>2021-10-18T07:48:20Z</time>
      </trkpt>
      <trkpt lat="39.2142050" lon="-6.2791790">
        <ele>404.4</ele>
        <time>2021-10-18T07:48:25Z</time>
      </trkpt>
      <trkpt lat="39.2141360" lon="-6.2792670">
        <ele>404.2</ele>
        <time>2021-10-18T07:48:29Z</time>
      </trkpt>
      <trkpt lat="39.2141050" lon="-6.2792870">
        <ele>404.2</ele>
        <time>2021-10-18T07:48:31Z</time>
      </trkpt>
      <trkpt lat="39.2140990" lon="-6.2792870">
        <ele>404.2</ele>
        <time>2021-10-18T07:48:33Z</time>
      </trkpt>
      <trkpt lat="39.2141500" lon="-6.2792360">
        <ele>403.8</ele>
        <time>2021-10-18T07:48:47Z</time>
      </trkpt>
      <trkpt lat="39.2141690" lon="-6.2792030">
        <ele>404.0</ele>
        <time>2021-10-18T07:48:49Z</time>
      </trkpt>
      <trkpt lat="39.2141460" lon="-6.2790910">
        <ele>404.2</ele>
        <time>2021-10-18T07:48:54Z</time>
      </trkpt>
      <trkpt lat="39.2141050" lon="-6.2790300">
        <ele>404.4</ele>
        <time>2021-10-18T07:48:57Z</time>
      </trkpt>
      <trkpt lat="39.2140340" lon="-6.2789230">
        <ele>404.6</ele>
        <time>2021-10-18T07:49:02Z</time>
      </trkpt>
      <trkpt lat="39.2138560" lon="-6.2787340">
        <ele>405.2</ele>
        <time>2021-10-18T07:49:11Z</time>
      </trkpt>
      <trkpt lat="39.2137750" lon="-6.2786430">
        <ele>405.4</ele>
        <time>2021-10-18T07:49:15Z</time>
      </trkpt>
      <trkpt lat="39.2137180" lon="-6.2785870">
        <ele>405.4</ele>
        <time>2021-10-18T07:49:18Z</time>
      </trkpt>
      <trkpt lat="39.2136060" lon="-6.2784380">
        <ele>405.8</ele>
        <time>2021-10-18T07:49:24Z</time>
      </trkpt>
      <trkpt lat="39.2135630" lon="-6.2783850">
        <ele>405.8</ele>
        <time>2021-10-18T07:49:26Z</time>
      </trkpt>
      <trkpt lat="39.2134260" lon="-6.2782270">
        <ele>406.2</ele>
        <time>2021-10-18T07:49:32Z</time>
      </trkpt>
      <trkpt lat="39.2132480" lon="-6.2780360">
        <ele>406.6</ele>
        <time>2021-10-18T07:49:39Z</time>
      </trkpt>
      <trkpt lat="39.2130770" lon="-6.2778590">
        <ele>406.6</ele>
        <time>2021-10-18T07:49:45Z</time>
      </trkpt>
      <trkpt lat="39.2129880" lon="-6.2777390">
        <ele>406.6</ele>
        <time>2021-10-18T07:49:48Z</time>
      </trkpt>
      <trkpt lat="39.2128970" lon="-6.2776350">
        <ele>406.6</ele>
        <time>2021-10-18T07:49:51Z</time>
      </trkpt>
      <trkpt lat="39.2127470" lon="-6.2774610">
        <ele>406.6</ele>
        <time>2021-10-18T07:49:56Z</time>
      </trkpt>
      <trkpt lat="39.2126260" lon="-6.2773070">
        <ele>406.4</ele>
        <time>2021-10-18T07:50:00Z</time>
      </trkpt>
      <trkpt lat="39.2125040" lon="-6.2771650">
        <ele>406.2</ele>
        <time>2021-10-18T07:50:04Z</time>
      </trkpt>
      <trkpt lat="39.2122220" lon="-6.2768710">
        <ele>406.6</ele>
        <time>2021-10-18T07:50:13Z</time>
      </trkpt>
      <trkpt lat="39.2119960" lon="-6.2766160">
        <ele>406.6</ele>
        <time>2021-10-18T07:50:21Z</time>
      </trkpt>
      <trkpt lat="39.2119690" lon="-6.2765830">
        <ele>406.8</ele>
        <time>2021-10-18T07:50:22Z</time>
      </trkpt>
      <trkpt lat="39.2117730" lon="-6.2763600">
        <ele>407.0</ele>
        <time>2021-10-18T07:50:29Z</time>
      </trkpt>
      <trkpt lat="39.2115970" lon="-6.2761660">
        <ele>407.4</ele>
        <time>2021-10-18T07:50:36Z</time>
      </trkpt>
      <trkpt lat="39.2114930" lon="-6.2760450">
        <ele>407.8</ele>
        <time>2021-10-18T07:50:40Z</time>
      </trkpt>
      <trkpt lat="39.2114100" lon="-6.2759430">
        <ele>408.0</ele>
        <time>2021-10-18T07:50:43Z</time>
      </trkpt>
      <trkpt lat="39.2111830" lon="-6.2756810">
        <ele>408.4</ele>
        <time>2021-10-18T07:50:51Z</time>
      </trkpt>
      <trkpt lat="39.2109460" lon="-6.2753960">
        <ele>408.4</ele>
        <time>2021-10-18T07:50:59Z</time>
      </trkpt>
      <trkpt lat="39.2109140" lon="-6.2753630">
        <ele>408.4</ele>
        <time>2021-10-18T07:51:00Z</time>
      </trkpt>
      <trkpt lat="39.2107260" lon="-6.2751790">
        <ele>408.4</ele>
        <time>2021-10-18T07:51:06Z</time>
      </trkpt>
      <trkpt lat="39.2106960" lon="-6.2751390">
        <ele>408.4</ele>
        <time>2021-10-18T07:51:07Z</time>
      </trkpt>
      <trkpt lat="39.2106420" lon="-6.2750540">
        <ele>408.4</ele>
        <time>2021-10-18T07:51:09Z</time>
      </trkpt>
      <trkpt lat="39.2105510" lon="-6.2749480">
        <ele>408.4</ele>
        <time>2021-10-18T07:51:12Z</time>
      </trkpt>
      <trkpt lat="39.2104590" lon="-6.2748330">
        <ele>408.4</ele>
        <time>2021-10-18T07:51:15Z</time>
      </trkpt>
      <trkpt lat="39.2103280" lon="-6.2746900">
        <ele>408.4</ele>
        <time>2021-10-18T07:51:19Z</time>
      </trkpt>
      <trkpt lat="39.2100660" lon="-6.2743740">
        <ele>408.4</ele>
        <time>2021-10-18T07:51:27Z</time>
      </trkpt>
      <trkpt lat="39.2099000" lon="-6.2741990">
        <ele>408.4</ele>
        <time>2021-10-18T07:51:32Z</time>
      </trkpt>
      <trkpt lat="39.2097840" lon="-6.2740550">
        <ele>408.6</ele>
        <time>2021-10-18T07:51:36Z</time>
      </trkpt>
      <trkpt lat="39.2097300" lon="-6.2739890">
        <ele>408.8</ele>
        <time>2021-10-18T07:51:38Z</time>
      </trkpt>
      <trkpt lat="39.2096920" lon="-6.2739510">
        <ele>408.8</ele>
        <time>2021-10-18T07:51:39Z</time>
      </trkpt>
      <trkpt lat="39.2095970" lon="-6.2738480">
        <ele>409.0</ele>
        <time>2021-10-18T07:51:42Z</time>
      </trkpt>
      <trkpt lat="39.2095680" lon="-6.2738080">
        <ele>409.0</ele>
        <time>2021-10-18T07:51:43Z</time>
      </trkpt>
      <trkpt lat="39.2094150" lon="-6.2736090">
        <ele>409.0</ele>
        <time>2021-10-18T07:51:48Z</time>
      </trkpt>
      <trkpt lat="39.2093510" lon="-6.2735310">
        <ele>409.0</ele>
        <time>2021-10-18T07:51:50Z</time>
      </trkpt>
      <trkpt lat="39.2090840" lon="-6.2732080">
        <ele>409.0</ele>
        <time>2021-10-18T07:51:58Z</time>
      </trkpt>
      <trkpt lat="39.2089440" lon="-6.2730390">
        <ele>409.0</ele>
        <time>2021-10-18T07:52:02Z</time>
      </trkpt>
      <trkpt lat="39.2087000" lon="-6.2727470">
        <ele>408.8</ele>
        <time>2021-10-18T07:52:09Z</time>
      </trkpt>
      <trkpt lat="39.2086670" lon="-6.2727060">
        <ele>408.6</ele>
        <time>2021-10-18T07:52:10Z</time>
      </trkpt>
      <trkpt lat="39.2084140" lon="-6.2724130">
        <ele>408.4</ele>
        <time>2021-10-18T07:52:18Z</time>
      </trkpt>
      <trkpt lat="39.2082910" lon="-6.2722730">
        <ele>408.2</ele>
        <time>2021-10-18T07:52:22Z</time>
      </trkpt>
      <trkpt lat="39.2081490" lon="-6.2720910">
        <ele>408.2</ele>
        <time>2021-10-18T07:52:27Z</time>
      </trkpt>
      <trkpt lat="39.2081200" lon="-6.2720560">
        <ele>408.2</ele>
        <time>2021-10-18T07:52:28Z</time>
      </trkpt>
      <trkpt lat="39.2078430" lon="-6.2717080">
        <ele>408.6</ele>
        <time>2021-10-18T07:52:38Z</time>
      </trkpt>
      <trkpt lat="39.2077170" lon="-6.2714790">
        <ele>409.0</ele>
        <time>2021-10-18T07:52:44Z</time>
      </trkpt>
      <trkpt lat="39.2076180" lon="-6.2712460">
        <ele>409.4</ele>
        <time>2021-10-18T07:52:50Z</time>
      </trkpt>
      <trkpt lat="39.2076030" lon="-6.2712070">
        <ele>409.4</ele>
        <time>2021-10-18T07:52:51Z</time>
      </trkpt>
      <trkpt lat="39.2075200" lon="-6.2710190">
        <ele>409.8</ele>
        <time>2021-10-18T07:52:56Z</time>
      </trkpt>
      <trkpt lat="39.2074850" lon="-6.2709350">
        <ele>410.0</ele>
        <time>2021-10-18T07:52:58Z</time>
      </trkpt>
      <trkpt lat="39.2073290" lon="-6.2705980">
        <ele>410.2</ele>
        <time>2021-10-18T07:53:06Z</time>
      </trkpt>
      <trkpt lat="39.2073100" lon="-6.2705560">
        <ele>410.2</ele>
        <time>2021-10-18T07:53:07Z</time>
      </trkpt>
      <trkpt lat="39.2072580" lon="-6.2704270">
        <ele>410.2</ele>
        <time>2021-10-18T07:53:10Z</time>
      </trkpt>
      <trkpt lat="39.2071910" lon="-6.2703080">
        <ele>410.2</ele>
        <time>2021-10-18T07:53:13Z</time>
      </trkpt>
      <trkpt lat="39.2071590" lon="-6.2702640">
        <ele>410.2</ele>
        <time>2021-10-18T07:53:14Z</time>
      </trkpt>
      <trkpt lat="39.2070800" lon="-6.2701720">
        <ele>410.2</ele>
        <time>2021-10-18T07:53:17Z</time>
      </trkpt>
      <trkpt lat="39.2069580" lon="-6.2700570">
        <ele>410.2</ele>
        <time>2021-10-18T07:53:21Z</time>
      </trkpt>
      <trkpt lat="39.2069250" lon="-6.2700260">
        <ele>410.0</ele>
        <time>2021-10-18T07:53:22Z</time>
      </trkpt>
      <trkpt lat="39.2067180" lon="-6.2698890">
        <ele>410.0</ele>
        <time>2021-10-18T07:53:28Z</time>
      </trkpt>
      <trkpt lat="39.2065970" lon="-6.2697680">
        <ele>410.0</ele>
        <time>2021-10-18T07:53:32Z</time>
      </trkpt>
      <trkpt lat="39.2065440" lon="-6.2696960">
        <ele>410.0</ele>
        <time>2021-10-18T07:53:34Z</time>
      </trkpt>
      <trkpt lat="39.2064010" lon="-6.2693990">
        <ele>409.8</ele>
        <time>2021-10-18T07:53:41Z</time>
      </trkpt>
      <trkpt lat="39.2062690" lon="-6.2690860">
        <ele>410.2</ele>
        <time>2021-10-18T07:53:49Z</time>
      </trkpt>
      <trkpt lat="39.2061430" lon="-6.2688530">
        <ele>410.6</ele>
        <time>2021-10-18T07:53:55Z</time>
      </trkpt>
      <trkpt lat="39.2061220" lon="-6.2688110">
        <ele>410.6</ele>
        <time>2021-10-18T07:53:56Z</time>
      </trkpt>
      <trkpt lat="39.2060310" lon="-6.2686590">
        <ele>410.6</ele>
        <time>2021-10-18T07:54:00Z</time>
      </trkpt>
      <trkpt lat="39.2059500" lon="-6.2684710">
        <ele>410.6</ele>
        <time>2021-10-18T07:54:04Z</time>
      </trkpt>
      <trkpt lat="39.2058800" lon="-6.2683630">
        <ele>410.2</ele>
        <time>2021-10-18T07:54:06Z</time>
      </trkpt>
      <trkpt lat="39.2057580" lon="-6.2682120">
        <ele>409.8</ele>
        <time>2021-10-18T07:54:09Z</time>
      </trkpt>
      <trkpt lat="39.2057110" lon="-6.2681610">
        <ele>409.4</ele>
        <time>2021-10-18T07:54:10Z</time>
      </trkpt>
      <trkpt lat="39.2055530" lon="-6.2680340">
        <ele>408.8</ele>
        <time>2021-10-18T07:54:13Z</time>
      </trkpt>
      <trkpt lat="39.2055050" lon="-6.2679900">
        <ele>408.6</ele>
        <time>2021-10-18T07:54:14Z</time>
      </trkpt>
      <trkpt lat="39.2052780" lon="-6.2677760">
        <ele>407.8</ele>
        <time>2021-10-18T07:54:19Z</time>
      </trkpt>
      <trkpt lat="39.2052360" lon="-6.2677340">
        <ele>407.8</ele>
        <time>2021-10-18T07:54:20Z</time>
      </trkpt>
      <trkpt lat="39.2051270" lon="-6.2675880">
        <ele>407.4</ele>
        <time>2021-10-18T07:54:23Z</time>
      </trkpt>
      <trkpt lat="39.2050560" lon="-6.2674780">
        <ele>407.2</ele>
        <time>2021-10-18T07:54:25Z</time>
      </trkpt>
      <trkpt lat="39.2050090" lon="-6.2673470">
        <ele>407.0</ele>
        <time>2021-10-18T07:54:27Z</time>
      </trkpt>
      <trkpt lat="39.2049820" lon="-6.2672080">
        <ele>406.8</ele>
        <time>2021-10-18T07:54:29Z</time>
      </trkpt>
      <trkpt lat="39.2049630" lon="-6.2671400">
        <ele>406.6</ele>
        <time>2021-10-18T07:54:30Z</time>
      </trkpt>
      <trkpt lat="39.2049040" lon="-6.2668930">
        <ele>405.8</ele>
        <time>2021-10-18T07:54:34Z</time>
      </trkpt>
      <trkpt lat="39.2048370" lon="-6.2664870">
        <ele>405.6</ele>
        <time>2021-10-18T07:54:42Z</time>
      </trkpt>
      <trkpt lat="39.2047790" lon="-6.2661500">
        <ele>406.0</ele>
        <time>2021-10-18T07:54:49Z</time>
      </trkpt>
      <trkpt lat="39.2047000" lon="-6.2658970">
        <ele>406.6</ele>
        <time>2021-10-18T07:54:55Z</time>
      </trkpt>
      <trkpt lat="39.2045280" lon="-6.2655650">
        <ele>407.6</ele>
        <time>2021-10-18T07:55:04Z</time>
      </trkpt>
      <trkpt lat="39.2042930" lon="-6.2652660">
        <ele>408.2</ele>
        <time>2021-10-18T07:55:14Z</time>
      </trkpt>
      <trkpt lat="39.2041350" lon="-6.2650570">
        <ele>408.4</ele>
        <time>2021-10-18T07:55:21Z</time>
      </trkpt>
      <trkpt lat="39.2040950" lon="-6.2649960">
        <ele>408.6</ele>
        <time>2021-10-18T07:55:23Z</time>
      </trkpt>
      <trkpt lat="39.2040350" lon="-6.2648530">
        <ele>409.0</ele>
        <time>2021-10-18T07:55:27Z</time>
      </trkpt>
      <trkpt lat="39.2040240" lon="-6.2648140">
        <ele>409.0</ele>
        <time>2021-10-18T07:55:28Z</time>
      </trkpt>
      <trkpt lat="39.2039450" lon="-6.2645090">
        <ele>409.6</ele>
        <time>2021-10-18T07:55:36Z</time>
      </trkpt>
      <trkpt lat="39.2038720" lon="-6.2643450">
        <ele>410.2</ele>
        <time>2021-10-18T07:55:41Z</time>
      </trkpt>
      <trkpt lat="39.2038060" lon="-6.2642230">
        <ele>410.4</ele>
        <time>2021-10-18T07:55:45Z</time>
      </trkpt>
      <trkpt lat="39.2037900" lon="-6.2641940">
        <ele>410.4</ele>
        <time>2021-10-18T07:55:46Z</time>
      </trkpt>
      <trkpt lat="39.2037460" lon="-6.2641060">
        <ele>410.6</ele>
        <time>2021-10-18T07:55:49Z</time>
      </trkpt>
      <trkpt lat="39.2037290" lon="-6.2640780">
        <ele>410.6</ele>
        <time>2021-10-18T07:55:50Z</time>
      </trkpt>
      <trkpt lat="39.2036690" lon="-6.2639570">
        <ele>411.0</ele>
        <time>2021-10-18T07:55:54Z</time>
      </trkpt>
      <trkpt lat="39.2036380" lon="-6.2639010">
        <ele>411.2</ele>
        <time>2021-10-18T07:55:56Z</time>
      </trkpt>
      <trkpt lat="39.2035960" lon="-6.2638120">
        <ele>411.2</ele>
        <time>2021-10-18T07:55:59Z</time>
      </trkpt>
      <trkpt lat="39.2035180" lon="-6.2636500">
        <ele>411.2</ele>
        <time>2021-10-18T07:56:04Z</time>
      </trkpt>
      <trkpt lat="39.2034640" lon="-6.2635630">
        <ele>411.6</ele>
        <time>2021-10-18T07:56:07Z</time>
      </trkpt>
      <trkpt lat="39.2033660" lon="-6.2634280">
        <ele>411.8</ele>
        <time>2021-10-18T07:56:12Z</time>
      </trkpt>
      <trkpt lat="39.2031880" lon="-6.2632580">
        <ele>412.2</ele>
        <time>2021-10-18T07:56:20Z</time>
      </trkpt>
      <trkpt lat="39.2030990" lon="-6.2631690">
        <ele>412.6</ele>
        <time>2021-10-18T07:56:24Z</time>
      </trkpt>
      <trkpt lat="39.2030290" lon="-6.2630550">
        <ele>413.0</ele>
        <time>2021-10-18T07:56:28Z</time>
      </trkpt>
      <trkpt lat="39.2029150" lon="-6.2628920">
        <ele>413.2</ele>
        <time>2021-10-18T07:56:34Z</time>
      </trkpt>
      <trkpt lat="39.2028310" lon="-6.2627860">
        <ele>413.4</ele>
        <time>2021-10-18T07:56:38Z</time>
      </trkpt>
      <trkpt lat="39.2026670" lon="-6.2626550">
        <ele>413.4</ele>
        <time>2021-10-18T07:56:44Z</time>
      </trkpt>
      <trkpt lat="39.2026060" lon="-6.2626100">
        <ele>413.4</ele>
        <time>2021-10-18T07:56:46Z</time>
      </trkpt>
      <trkpt lat="39.2024060" lon="-6.2624810">
        <ele>413.4</ele>
        <time>2021-10-18T07:56:52Z</time>
      </trkpt>
      <trkpt lat="39.2023030" lon="-6.2624100">
        <ele>413.4</ele>
        <time>2021-10-18T07:56:55Z</time>
      </trkpt>
      <trkpt lat="39.2021350" lon="-6.2622650">
        <ele>413.4</ele>
        <time>2021-10-18T07:57:00Z</time>
      </trkpt>
      <trkpt lat="39.2019960" lon="-6.2621550">
        <ele>413.4</ele>
        <time>2021-10-18T07:57:04Z</time>
      </trkpt>
      <trkpt lat="39.2018430" lon="-6.2620390">
        <ele>413.4</ele>
        <time>2021-10-18T07:57:08Z</time>
      </trkpt>
      <trkpt lat="39.2016800" lon="-6.2619480">
        <ele>413.0</ele>
        <time>2021-10-18T07:57:12Z</time>
      </trkpt>
      <trkpt lat="39.2014830" lon="-6.2618220">
        <ele>413.0</ele>
        <time>2021-10-18T07:57:17Z</time>
      </trkpt>
      <trkpt lat="39.2012910" lon="-6.2616670">
        <ele>412.8</ele>
        <time>2021-10-18T07:57:22Z</time>
      </trkpt>
      <trkpt lat="39.2011440" lon="-6.2615510">
        <ele>413.0</ele>
        <time>2021-10-18T07:57:26Z</time>
      </trkpt>
      <trkpt lat="39.2009420" lon="-6.2613750">
        <ele>413.2</ele>
        <time>2021-10-18T07:57:32Z</time>
      </trkpt>
      <trkpt lat="39.2007880" lon="-6.2612310">
        <ele>413.4</ele>
        <time>2021-10-18T07:57:37Z</time>
      </trkpt>
      <trkpt lat="39.2007580" lon="-6.2612060">
        <ele>413.6</ele>
        <time>2021-10-18T07:57:38Z</time>
      </trkpt>
      <trkpt lat="39.2006970" lon="-6.2611530">
        <ele>413.6</ele>
        <time>2021-10-18T07:57:40Z</time>
      </trkpt>
      <trkpt lat="39.2003980" lon="-6.2608490">
        <ele>413.8</ele>
        <time>2021-10-18T07:57:50Z</time>
      </trkpt>
      <trkpt lat="39.2003690" lon="-6.2608170">
        <ele>413.8</ele>
        <time>2021-10-18T07:57:51Z</time>
      </trkpt>
      <trkpt lat="39.2000280" lon="-6.2604130">
        <ele>414.2</ele>
        <time>2021-10-18T07:58:03Z</time>
      </trkpt>
      <trkpt lat="39.1998710" lon="-6.2602120">
        <ele>414.2</ele>
        <time>2021-10-18T07:58:09Z</time>
      </trkpt>
      <trkpt lat="39.1997520" lon="-6.2600820">
        <ele>414.4</ele>
        <time>2021-10-18T07:58:13Z</time>
      </trkpt>
      <trkpt lat="39.1995990" lon="-6.2599590">
        <ele>414.4</ele>
        <time>2021-10-18T07:58:18Z</time>
      </trkpt>
      <trkpt lat="39.1994820" lon="-6.2598670">
        <ele>414.6</ele>
        <time>2021-10-18T07:58:22Z</time>
      </trkpt>
      <trkpt lat="39.1992750" lon="-6.2596370">
        <ele>415.2</ele>
        <time>2021-10-18T07:58:30Z</time>
      </trkpt>
      <trkpt lat="39.1991780" lon="-6.2595190">
        <ele>415.6</ele>
        <time>2021-10-18T07:58:34Z</time>
      </trkpt>
      <trkpt lat="39.1991140" lon="-6.2594140">
        <ele>415.8</ele>
        <time>2021-10-18T07:58:37Z</time>
      </trkpt>
      <trkpt lat="39.1990090" lon="-6.2591860">
        <ele>416.0</ele>
        <time>2021-10-18T07:58:43Z</time>
      </trkpt>
      <trkpt lat="39.1989430" lon="-6.2589980">
        <ele>416.0</ele>
        <time>2021-10-18T07:58:47Z</time>
      </trkpt>
      <trkpt lat="39.1989160" lon="-6.2588970">
        <ele>416.0</ele>
        <time>2021-10-18T07:58:49Z</time>
      </trkpt>
      <trkpt lat="39.1987830" lon="-6.2584020">
        <ele>415.4</ele>
        <time>2021-10-18T07:58:58Z</time>
      </trkpt>
      <trkpt lat="39.1986450" lon="-6.2578500">
        <ele>414.6</ele>
        <time>2021-10-18T07:59:07Z</time>
      </trkpt>
      <trkpt lat="39.1985620" lon="-6.2574790">
        <ele>414.4</ele>
        <time>2021-10-18T07:59:13Z</time>
      </trkpt>
      <trkpt lat="39.1985260" lon="-6.2572990">
        <ele>414.2</ele>
        <time>2021-10-18T07:59:16Z</time>
      </trkpt>
      <trkpt lat="39.1984940" lon="-6.2570460">
        <ele>414.2</ele>
        <time>2021-10-18T07:59:20Z</time>
      </trkpt>
      <trkpt lat="39.1984740" lon="-6.2568510">
        <ele>414.2</ele>
        <time>2021-10-18T07:59:23Z</time>
      </trkpt>
      <trkpt lat="39.1984670" lon="-6.2566590">
        <ele>414.2</ele>
        <time>2021-10-18T07:59:26Z</time>
      </trkpt>
      <trkpt lat="39.1984650" lon="-6.2563400">
        <ele>414.2</ele>
        <time>2021-10-18T07:59:31Z</time>
      </trkpt>
      <trkpt lat="39.1984630" lon="-6.2560890">
        <ele>414.0</ele>
        <time>2021-10-18T07:59:35Z</time>
      </trkpt>
      <trkpt lat="39.1984210" lon="-6.2555300">
        <ele>414.2</ele>
        <time>2021-10-18T07:59:44Z</time>
      </trkpt>
      <trkpt lat="39.1983160" lon="-6.2551650">
        <ele>414.6</ele>
        <time>2021-10-18T07:59:51Z</time>
      </trkpt>
      <trkpt lat="39.1982800" lon="-6.2550610">
        <ele>414.6</ele>
        <time>2021-10-18T07:59:53Z</time>
      </trkpt>
      <trkpt lat="39.1981960" lon="-6.2548470">
        <ele>414.6</ele>
        <time>2021-10-18T07:59:57Z</time>
      </trkpt>
      <trkpt lat="39.1980470" lon="-6.2545260">
        <ele>414.2</ele>
        <time>2021-10-18T08:00:03Z</time>
      </trkpt>
      <trkpt lat="39.1979850" lon="-6.2544210">
        <ele>414.2</ele>
        <time>2021-10-18T08:00:05Z</time>
      </trkpt>
      <trkpt lat="39.1978380" lon="-6.2542650">
        <ele>413.8</ele>
        <time>2021-10-18T08:00:09Z</time>
      </trkpt>
      <trkpt lat="39.1975550" lon="-6.2540170">
        <ele>413.4</ele>
        <time>2021-10-18T08:00:16Z</time>
      </trkpt>
      <trkpt lat="39.1974700" lon="-6.2539490">
        <ele>413.4</ele>
        <time>2021-10-18T08:00:18Z</time>
      </trkpt>
      <trkpt lat="39.1970910" lon="-6.2536670">
        <ele>413.4</ele>
        <time>2021-10-18T08:00:27Z</time>
      </trkpt>
      <trkpt lat="39.1969680" lon="-6.2535890">
        <ele>413.4</ele>
        <time>2021-10-18T08:00:30Z</time>
      </trkpt>
      <trkpt lat="39.1968830" lon="-6.2535430">
        <ele>413.4</ele>
        <time>2021-10-18T08:00:32Z</time>
      </trkpt>
      <trkpt lat="39.1967380" lon="-6.2534870">
        <ele>413.2</ele>
        <time>2021-10-18T08:00:35Z</time>
      </trkpt>
      <trkpt lat="39.1965410" lon="-6.2534270">
        <ele>413.2</ele>
        <time>2021-10-18T08:00:39Z</time>
      </trkpt>
      <trkpt lat="39.1963610" lon="-6.2533920">
        <ele>413.0</ele>
        <time>2021-10-18T08:00:43Z</time>
      </trkpt>
      <trkpt lat="39.1960510" lon="-6.2533190">
        <ele>413.2</ele>
        <time>2021-10-18T08:00:50Z</time>
      </trkpt>
      <trkpt lat="39.1959630" lon="-6.2532990">
        <ele>413.4</ele>
        <time>2021-10-18T08:00:52Z</time>
      </trkpt>
      <trkpt lat="39.1957840" lon="-6.2532590">
        <ele>413.4</ele>
        <time>2021-10-18T08:00:56Z</time>
      </trkpt>
      <trkpt lat="39.1955740" lon="-6.2532120">
        <ele>413.6</ele>
        <time>2021-10-18T08:01:01Z</time>
      </trkpt>
      <trkpt lat="39.1954500" lon="-6.2531990">
        <ele>413.6</ele>
        <time>2021-10-18T08:01:04Z</time>
      </trkpt>
      <trkpt lat="39.1953760" lon="-6.2531460">
        <ele>413.8</ele>
        <time>2021-10-18T08:01:06Z</time>
      </trkpt>
      <trkpt lat="39.1953300" lon="-6.2530470">
        <ele>413.8</ele>
        <time>2021-10-18T08:01:08Z</time>
      </trkpt>
      <trkpt lat="39.1953000" lon="-6.2529350">
        <ele>414.0</ele>
        <time>2021-10-18T08:01:10Z</time>
      </trkpt>
      <trkpt lat="39.1952520" lon="-6.2528380">
        <ele>414.0</ele>
        <time>2021-10-18T08:01:12Z</time>
      </trkpt>
      <trkpt lat="39.1951910" lon="-6.2527590">
        <ele>414.0</ele>
        <time>2021-10-18T08:01:14Z</time>
      </trkpt>
      <trkpt lat="39.1950830" lon="-6.2526610">
        <ele>414.0</ele>
        <time>2021-10-18T08:01:17Z</time>
      </trkpt>
      <trkpt lat="39.1950040" lon="-6.2526260">
        <ele>414.0</ele>
        <time>2021-10-18T08:01:19Z</time>
      </trkpt>
      <trkpt lat="39.1946940" lon="-6.2525010">
        <ele>414.2</ele>
        <time>2021-10-18T08:01:27Z</time>
      </trkpt>
      <trkpt lat="39.1945450" lon="-6.2524400">
        <ele>414.4</ele>
        <time>2021-10-18T08:01:31Z</time>
      </trkpt>
      <trkpt lat="39.1944330" lon="-6.2523910">
        <ele>414.6</ele>
        <time>2021-10-18T08:01:34Z</time>
      </trkpt>
      <trkpt lat="39.1943150" lon="-6.2523400">
        <ele>414.6</ele>
        <time>2021-10-18T08:01:37Z</time>
      </trkpt>
      <trkpt lat="39.1941700" lon="-6.2522500">
        <ele>414.8</ele>
        <time>2021-10-18T08:01:41Z</time>
      </trkpt>
      <trkpt lat="39.1940510" lon="-6.2521180">
        <ele>414.8</ele>
        <time>2021-10-18T08:01:45Z</time>
      </trkpt>
      <trkpt lat="39.1939660" lon="-6.2520110">
        <ele>415.0</ele>
        <time>2021-10-18T08:01:48Z</time>
      </trkpt>
      <trkpt lat="39.1938100" lon="-6.2518070">
        <ele>415.4</ele>
        <time>2021-10-18T08:01:54Z</time>
      </trkpt>
      <trkpt lat="39.1937600" lon="-6.2517390">
        <ele>415.4</ele>
        <time>2021-10-18T08:01:56Z</time>
      </trkpt>
      <trkpt lat="39.1936450" lon="-6.2515520">
        <ele>415.6</ele>
        <time>2021-10-18T08:02:01Z</time>
      </trkpt>
      <trkpt lat="39.1935400" lon="-6.2513610">
        <ele>416.2</ele>
        <time>2021-10-18T08:02:06Z</time>
      </trkpt>
      <trkpt lat="39.1933580" lon="-6.2509990">
        <ele>416.4</ele>
        <time>2021-10-18T08:02:15Z</time>
      </trkpt>
      <trkpt lat="39.1933200" lon="-6.2509170">
        <ele>416.4</ele>
        <time>2021-10-18T08:02:17Z</time>
      </trkpt>
      <trkpt lat="39.1932240" lon="-6.2506670">
        <ele>416.6</ele>
        <time>2021-10-18T08:02:23Z</time>
      </trkpt>
      <trkpt lat="39.1931890" lon="-6.2505810">
        <ele>416.6</ele>
        <time>2021-10-18T08:02:25Z</time>
      </trkpt>
      <trkpt lat="39.1930820" lon="-6.2503900">
        <ele>417.0</ele>
        <time>2021-10-18T08:02:30Z</time>
      </trkpt>
      <trkpt lat="39.1929910" lon="-6.2502360">
        <ele>417.2</ele>
        <time>2021-10-18T08:02:34Z</time>
      </trkpt>
      <trkpt lat="39.1928910" lon="-6.2500970">
        <ele>417.2</ele>
        <time>2021-10-18T08:02:38Z</time>
      </trkpt>
      <trkpt lat="39.1928370" lon="-6.2500230">
        <ele>417.4</ele>
        <time>2021-10-18T08:02:40Z</time>
      </trkpt>
      <trkpt lat="39.1927860" lon="-6.2499470">
        <ele>417.4</ele>
        <time>2021-10-18T08:02:42Z</time>
      </trkpt>
      <trkpt lat="39.1925460" lon="-6.2496650">
        <ele>417.8</ele>
        <time>2021-10-18T08:02:51Z</time>
      </trkpt>
      <trkpt lat="39.1923660" lon="-6.2494420">
        <ele>418.4</ele>
        <time>2021-10-18T08:02:58Z</time>
      </trkpt>
      <trkpt lat="39.1923100" lon="-6.2493810">
        <ele>418.4</ele>
        <time>2021-10-18T08:03:00Z</time>
      </trkpt>
      <trkpt lat="39.1920350" lon="-6.2490620">
        <ele>418.6</ele>
        <time>2021-10-18T08:03:09Z</time>
      </trkpt>
      <trkpt lat="39.1917010" lon="-6.2486910">
        <ele>418.8</ele>
        <time>2021-10-18T08:03:20Z</time>
      </trkpt>
      <trkpt lat="39.1915810" lon="-6.2485530">
        <ele>419.0</ele>
        <time>2021-10-18T08:03:24Z</time>
      </trkpt>
      <trkpt lat="39.1914040" lon="-6.2483570">
        <ele>419.0</ele>
        <time>2021-10-18T08:03:30Z</time>
      </trkpt>
      <trkpt lat="39.1911490" lon="-6.2481280">
        <ele>419.4</ele>
        <time>2021-10-18T08:03:38Z</time>
      </trkpt>
      <trkpt lat="39.1910540" lon="-6.2480450">
        <ele>419.4</ele>
        <time>2021-10-18T08:03:41Z</time>
      </trkpt>
      <trkpt lat="39.1910210" lon="-6.2480190">
        <ele>419.4</ele>
        <time>2021-10-18T08:03:42Z</time>
      </trkpt>
      <trkpt lat="39.1909590" lon="-6.2479600">
        <ele>419.4</ele>
        <time>2021-10-18T08:03:44Z</time>
      </trkpt>
      <trkpt lat="39.1907340" lon="-6.2477740">
        <ele>419.6</ele>
        <time>2021-10-18T08:03:51Z</time>
      </trkpt>
      <trkpt lat="39.1906170" lon="-6.2476580">
        <ele>419.8</ele>
        <time>2021-10-18T08:03:55Z</time>
      </trkpt>
      <trkpt lat="39.1905370" lon="-6.2475630">
        <ele>419.8</ele>
        <time>2021-10-18T08:03:58Z</time>
      </trkpt>
      <trkpt lat="39.1905100" lon="-6.2475300">
        <ele>420.0</ele>
        <time>2021-10-18T08:03:59Z</time>
      </trkpt>
      <trkpt lat="39.1903800" lon="-6.2473590">
        <ele>420.2</ele>
        <time>2021-10-18T08:04:04Z</time>
      </trkpt>
      <trkpt lat="39.1902790" lon="-6.2472180">
        <ele>420.2</ele>
        <time>2021-10-18T08:04:08Z</time>
      </trkpt>
      <trkpt lat="39.1901580" lon="-6.2470350">
        <ele>420.4</ele>
        <time>2021-10-18T08:04:13Z</time>
      </trkpt>
      <trkpt lat="39.1900810" lon="-6.2468750">
        <ele>420.8</ele>
        <time>2021-10-18T08:04:17Z</time>
      </trkpt>
      <trkpt lat="39.1900640" lon="-6.2468310">
        <ele>420.8</ele>
        <time>2021-10-18T08:04:18Z</time>
      </trkpt>
      <trkpt lat="39.1899560" lon="-6.2464630">
        <ele>421.2</ele>
        <time>2021-10-18T08:04:26Z</time>
      </trkpt>
      <trkpt lat="39.1898320" lon="-6.2461800">
        <ele>421.6</ele>
        <time>2021-10-18T08:04:33Z</time>
      </trkpt>
      <trkpt lat="39.1898090" lon="-6.2461470">
        <ele>421.8</ele>
        <time>2021-10-18T08:04:34Z</time>
      </trkpt>
      <trkpt lat="39.1896000" lon="-6.2458400">
        <ele>422.4</ele>
        <time>2021-10-18T08:04:43Z</time>
      </trkpt>
      <trkpt lat="39.1894890" lon="-6.2457040">
        <ele>422.8</ele>
        <time>2021-10-18T08:04:48Z</time>
      </trkpt>
      <trkpt lat="39.1894170" lon="-6.2456290">
        <ele>422.8</ele>
        <time>2021-10-18T08:04:51Z</time>
      </trkpt>
      <trkpt lat="39.1892930" lon="-6.2454950">
        <ele>423.2</ele>
        <time>2021-10-18T08:04:56Z</time>
      </trkpt>
      <trkpt lat="39.1892090" lon="-6.2454160">
        <ele>423.4</ele>
        <time>2021-10-18T08:04:59Z</time>
      </trkpt>
      <trkpt lat="39.1889980" lon="-6.2451990">
        <ele>423.4</ele>
        <time>2021-10-18T08:05:07Z</time>
      </trkpt>
      <trkpt lat="39.1889180" lon="-6.2451060">
        <ele>423.6</ele>
        <time>2021-10-18T08:05:10Z</time>
      </trkpt>
      <trkpt lat="39.1887340" lon="-6.2448660">
        <ele>423.6</ele>
        <time>2021-10-18T08:05:17Z</time>
      </trkpt>
      <trkpt lat="39.1885550" lon="-6.2446210">
        <ele>423.8</ele>
        <time>2021-10-18T08:05:24Z</time>
      </trkpt>
      <trkpt lat="39.1885050" lon="-6.2445520">
        <ele>424.0</ele>
        <time>2021-10-18T08:05:26Z</time>
      </trkpt>
      <trkpt lat="39.1883750" lon="-6.2443810">
        <ele>424.0</ele>
        <time>2021-10-18T08:05:31Z</time>
      </trkpt>
      <trkpt lat="39.1883470" lon="-6.2443520">
        <ele>424.2</ele>
        <time>2021-10-18T08:05:32Z</time>
      </trkpt>
      <trkpt lat="39.1882030" lon="-6.2442340">
        <ele>424.4</ele>
        <time>2021-10-18T08:05:37Z</time>
      </trkpt>
      <trkpt lat="39.1881390" lon="-6.2442050">
        <ele>424.4</ele>
        <time>2021-10-18T08:05:39Z</time>
      </trkpt>
      <trkpt lat="39.1880700" lon="-6.2441820">
        <ele>424.6</ele>
        <time>2021-10-18T08:05:41Z</time>
      </trkpt>
      <trkpt lat="39.1879050" lon="-6.2441370">
        <ele>425.4</ele>
        <time>2021-10-18T08:05:46Z</time>
      </trkpt>
      <trkpt lat="39.1878370" lon="-6.2441200">
        <ele>425.8</ele>
        <time>2021-10-18T08:05:48Z</time>
      </trkpt>
      <trkpt lat="39.1878020" lon="-6.2441130">
        <ele>425.8</ele>
        <time>2021-10-18T08:05:49Z</time>
      </trkpt>
      <trkpt lat="39.1875420" lon="-6.2440250">
        <ele>426.0</ele>
        <time>2021-10-18T08:05:56Z</time>
      </trkpt>
      <trkpt lat="39.1874420" lon="-6.2439820">
        <ele>426.2</ele>
        <time>2021-10-18T08:05:59Z</time>
      </trkpt>
      <trkpt lat="39.1873020" lon="-6.2439210">
        <ele>426.4</ele>
        <time>2021-10-18T08:06:03Z</time>
      </trkpt>
      <trkpt lat="39.1871720" lon="-6.2438600">
        <ele>426.8</ele>
        <time>2021-10-18T08:06:07Z</time>
      </trkpt>
      <trkpt lat="39.1871080" lon="-6.2438330">
        <ele>427.0</ele>
        <time>2021-10-18T08:06:09Z</time>
      </trkpt>
      <trkpt lat="39.1868780" lon="-6.2437310">
        <ele>427.4</ele>
        <time>2021-10-18T08:06:17Z</time>
      </trkpt>
      <trkpt lat="39.1867950" lon="-6.2436930">
        <ele>427.8</ele>
        <time>2021-10-18T08:06:20Z</time>
      </trkpt>
      <trkpt lat="39.1866170" lon="-6.2436290">
        <ele>428.4</ele>
        <time>2021-10-18T08:06:26Z</time>
      </trkpt>
      <trkpt lat="39.1865380" lon="-6.2436050">
        <ele>428.8</ele>
        <time>2021-10-18T08:06:29Z</time>
      </trkpt>
      <trkpt lat="39.1864320" lon="-6.2435550">
        <ele>429.8</ele>
        <time>2021-10-18T08:06:34Z</time>
      </trkpt>
      <trkpt lat="39.1864110" lon="-6.2435490">
        <ele>430.0</ele>
        <time>2021-10-18T08:06:35Z</time>
      </trkpt>
      <trkpt lat="39.1863030" lon="-6.2435150">
        <ele>430.6</ele>
        <time>2021-10-18T08:06:40Z</time>
      </trkpt>
      <trkpt lat="39.1862740" lon="-6.2434720">
        <ele>430.8</ele>
        <time>2021-10-18T08:06:42Z</time>
      </trkpt>
      <trkpt lat="39.1862470" lon="-6.2434310">
        <ele>431.0</ele>
        <time>2021-10-18T08:06:44Z</time>
      </trkpt>
      <trkpt lat="39.1861990" lon="-6.2433750">
        <ele>431.2</ele>
        <time>2021-10-18T08:06:47Z</time>
      </trkpt>
      <trkpt lat="39.1861280" lon="-6.2432910">
        <ele>431.6</ele>
        <time>2021-10-18T08:06:51Z</time>
      </trkpt>
      <trkpt lat="39.1860180" lon="-6.2431790">
        <ele>431.8</ele>
        <time>2021-10-18T08:06:56Z</time>
      </trkpt>
      <trkpt lat="39.1859540" lon="-6.2431000">
        <ele>432.0</ele>
        <time>2021-10-18T08:06:59Z</time>
      </trkpt>
      <trkpt lat="39.1858680" lon="-6.2430000">
        <ele>432.4</ele>
        <time>2021-10-18T08:07:03Z</time>
      </trkpt>
      <trkpt lat="39.1858000" lon="-6.2429340">
        <ele>432.6</ele>
        <time>2021-10-18T08:07:06Z</time>
      </trkpt>
      <trkpt lat="39.1856750" lon="-6.2427960">
        <ele>432.8</ele>
        <time>2021-10-18T08:07:12Z</time>
      </trkpt>
      <trkpt lat="39.1856530" lon="-6.2427750">
        <ele>433.0</ele>
        <time>2021-10-18T08:07:13Z</time>
      </trkpt>
      <trkpt lat="39.1855940" lon="-6.2427080">
        <ele>433.2</ele>
        <time>2021-10-18T08:07:16Z</time>
      </trkpt>
      <trkpt lat="39.1855300" lon="-6.2426430">
        <ele>433.4</ele>
        <time>2021-10-18T08:07:19Z</time>
      </trkpt>
      <trkpt lat="39.1854670" lon="-6.2425730">
        <ele>433.6</ele>
        <time>2021-10-18T08:07:22Z</time>
      </trkpt>
      <trkpt lat="39.1854450" lon="-6.2425470">
        <ele>433.6</ele>
        <time>2021-10-18T08:07:23Z</time>
      </trkpt>
      <trkpt lat="39.1853130" lon="-6.2423910">
        <ele>434.0</ele>
        <time>2021-10-18T08:07:29Z</time>
      </trkpt>
      <trkpt lat="39.1852430" lon="-6.2423170">
        <ele>434.2</ele>
        <time>2021-10-18T08:07:32Z</time>
      </trkpt>
      <trkpt lat="39.1852190" lon="-6.2422900">
        <ele>434.2</ele>
        <time>2021-10-18T08:07:33Z</time>
      </trkpt>
      <trkpt lat="39.1850290" lon="-6.2420510">
        <ele>434.4</ele>
        <time>2021-10-18T08:07:41Z</time>
      </trkpt>
      <trkpt lat="39.1849110" lon="-6.2419060">
        <ele>434.6</ele>
        <time>2021-10-18T08:07:46Z</time>
      </trkpt>
      <trkpt lat="39.1848690" lon="-6.2418520">
        <ele>434.6</ele>
        <time>2021-10-18T08:07:48Z</time>
      </trkpt>
      <trkpt lat="39.1848460" lon="-6.2418260">
        <ele>434.6</ele>
        <time>2021-10-18T08:07:49Z</time>
      </trkpt>
      <trkpt lat="39.1846590" lon="-6.2415780">
        <ele>434.8</ele>
        <time>2021-10-18T08:07:57Z</time>
      </trkpt>
      <trkpt lat="39.1846360" lon="-6.2415430">
        <ele>434.8</ele>
        <time>2021-10-18T08:07:58Z</time>
      </trkpt>
      <trkpt lat="39.1844280" lon="-6.2412530">
        <ele>435.0</ele>
        <time>2021-10-18T08:08:07Z</time>
      </trkpt>
      <trkpt lat="39.1844050" lon="-6.2412230">
        <ele>435.0</ele>
        <time>2021-10-18T08:08:08Z</time>
      </trkpt>
      <trkpt lat="39.1842390" lon="-6.2409430">
        <ele>435.4</ele>
        <time>2021-10-18T08:08:16Z</time>
      </trkpt>
      <trkpt lat="39.1841070" lon="-6.2407250">
        <ele>435.4</ele>
        <time>2021-10-18T08:08:22Z</time>
      </trkpt>
      <trkpt lat="39.1839980" lon="-6.2405460">
        <ele>435.6</ele>
        <time>2021-10-18T08:08:27Z</time>
      </trkpt>
      <trkpt lat="39.1838260" lon="-6.2402710">
        <ele>436.0</ele>
        <time>2021-10-18T08:08:35Z</time>
      </trkpt>
      <trkpt lat="39.1838100" lon="-6.2402460">
        <ele>436.0</ele>
        <time>2021-10-18T08:08:36Z</time>
      </trkpt>
      <trkpt lat="39.1836880" lon="-6.2400630">
        <ele>436.6</ele>
        <time>2021-10-18T08:08:42Z</time>
      </trkpt>
      <trkpt lat="39.1835440" lon="-6.2398340">
        <ele>437.0</ele>
        <time>2021-10-18T08:08:49Z</time>
      </trkpt>
      <trkpt lat="39.1835270" lon="-6.2398080">
        <ele>437.0</ele>
        <time>2021-10-18T08:08:50Z</time>
      </trkpt>
      <trkpt lat="39.1834690" lon="-6.2397030">
        <ele>437.2</ele>
        <time>2021-10-18T08:08:53Z</time>
      </trkpt>
      <trkpt lat="39.1834090" lon="-6.2395470">
        <ele>437.4</ele>
        <time>2021-10-18T08:08:58Z</time>
      </trkpt>
      <trkpt lat="39.1832600" lon="-6.2392700">
        <ele>437.6</ele>
        <time>2021-10-18T08:09:06Z</time>
      </trkpt>
      <trkpt lat="39.1832040" lon="-6.2391740">
        <ele>437.8</ele>
        <time>2021-10-18T08:09:09Z</time>
      </trkpt>
      <trkpt lat="39.1831050" lon="-6.2390030">
        <ele>438.0</ele>
        <time>2021-10-18T08:09:14Z</time>
      </trkpt>
      <trkpt lat="39.1830620" lon="-6.2389250">
        <ele>438.0</ele>
        <time>2021-10-18T08:09:16Z</time>
      </trkpt>
      <trkpt lat="39.1830400" lon="-6.2388920">
        <ele>438.2</ele>
        <time>2021-10-18T08:09:17Z</time>
      </trkpt>
      <trkpt lat="39.1828720" lon="-6.2386480">
        <ele>438.6</ele>
        <time>2021-10-18T08:09:25Z</time>
      </trkpt>
      <trkpt lat="39.1827740" lon="-6.2384950">
        <ele>439.2</ele>
        <time>2021-10-18T08:09:30Z</time>
      </trkpt>
      <trkpt lat="39.1826760" lon="-6.2383830">
        <ele>439.8</ele>
        <time>2021-10-18T08:09:35Z</time>
      </trkpt>
      <trkpt lat="39.1826020" lon="-6.2382750">
        <ele>440.2</ele>
        <time>2021-10-18T08:09:39Z</time>
      </trkpt>
      <trkpt lat="39.1825020" lon="-6.2381550">
        <ele>440.6</ele>
        <time>2021-10-18T08:09:44Z</time>
      </trkpt>
      <trkpt lat="39.1824390" lon="-6.2380800">
        <ele>440.8</ele>
        <time>2021-10-18T08:09:47Z</time>
      </trkpt>
      <trkpt lat="39.1823770" lon="-6.2380060">
        <ele>441.2</ele>
        <time>2021-10-18T08:09:50Z</time>
      </trkpt>
      <trkpt lat="39.1823210" lon="-6.2379580">
        <ele>441.2</ele>
        <time>2021-10-18T08:09:52Z</time>
      </trkpt>
      <trkpt lat="39.1822260" lon="-6.2378780">
        <ele>441.6</ele>
        <time>2021-10-18T08:09:56Z</time>
      </trkpt>
      <trkpt lat="39.1821740" lon="-6.2378310">
        <ele>441.6</ele>
        <time>2021-10-18T08:09:58Z</time>
      </trkpt>
      <trkpt lat="39.1820650" lon="-6.2377000">
        <ele>442.2</ele>
        <time>2021-10-18T08:10:03Z</time>
      </trkpt>
      <trkpt lat="39.1820470" lon="-6.2376790">
        <ele>442.6</ele>
        <time>2021-10-18T08:10:04Z</time>
      </trkpt>
      <trkpt lat="39.1819280" lon="-6.2375130">
        <ele>443.4</ele>
        <time>2021-10-18T08:10:10Z</time>
      </trkpt>
      <trkpt lat="39.1818850" lon="-6.2374560">
        <ele>443.6</ele>
        <time>2021-10-18T08:10:12Z</time>
      </trkpt>
      <trkpt lat="39.1818100" lon="-6.2373420">
        <ele>444.0</ele>
        <time>2021-10-18T08:10:16Z</time>
      </trkpt>
      <trkpt lat="39.1817390" lon="-6.2372420">
        <ele>444.2</ele>
        <time>2021-10-18T08:10:20Z</time>
      </trkpt>
      <trkpt lat="39.1816860" lon="-6.2371510">
        <ele>444.6</ele>
        <time>2021-10-18T08:10:24Z</time>
      </trkpt>
      <trkpt lat="39.1816670" lon="-6.2371330">
        <ele>444.8</ele>
        <time>2021-10-18T08:10:25Z</time>
      </trkpt>
      <trkpt lat="39.1816480" lon="-6.2371280">
        <ele>444.8</ele>
        <time>2021-10-18T08:10:26Z</time>
      </trkpt>
      <trkpt lat="39.1816190" lon="-6.2371210">
        <ele>445.0</ele>
        <time>2021-10-18T08:10:28Z</time>
      </trkpt>
      <trkpt lat="39.1815670" lon="-6.2371510">
        <ele>445.0</ele>
        <time>2021-10-18T08:10:31Z</time>
      </trkpt>
      <trkpt lat="39.1814670" lon="-6.2372970">
        <ele>445.4</ele>
        <time>2021-10-18T08:10:38Z</time>
      </trkpt>
      <trkpt lat="39.1814510" lon="-6.2373470">
        <ele>445.4</ele>
        <time>2021-10-18T08:10:43Z</time>
      </trkpt>
      <trkpt lat="39.1814100" lon="-6.2373760">
        <ele>444.6</ele>
        <time>2021-10-18T08:11:52Z</time>
      </trkpt>
      <trkpt lat="39.1813900" lon="-6.2373930">
        <ele>444.6</ele>
        <time>2021-10-18T08:11:53Z</time>
      </trkpt>
      <trkpt lat="39.1813060" lon="-6.2374880">
        <ele>444.4</ele>
        <time>2021-10-18T08:11:58Z</time>
      </trkpt>
      <trkpt lat="39.1812890" lon="-6.2375110">
        <ele>444.4</ele>
        <time>2021-10-18T08:11:59Z</time>
      </trkpt>
      <trkpt lat="39.1812440" lon="-6.2375780">
        <ele>444.4</ele>
        <time>2021-10-18T08:12:02Z</time>
      </trkpt>
      <trkpt lat="39.1811600" lon="-6.2377130">
        <ele>444.2</ele>
        <time>2021-10-18T08:12:07Z</time>
      </trkpt>
      <trkpt lat="39.1810720" lon="-6.2378500">
        <ele>444.2</ele>
        <time>2021-10-18T08:12:11Z</time>
      </trkpt>
      <trkpt lat="39.1810280" lon="-6.2379170">
        <ele>443.8</ele>
        <time>2021-10-18T08:12:13Z</time>
      </trkpt>
      <trkpt lat="39.1807910" lon="-6.2382630">
        <ele>443.6</ele>
        <time>2021-10-18T08:12:23Z</time>
      </trkpt>
      <trkpt lat="39.1806120" lon="-6.2385330">
        <ele>443.4</ele>
        <time>2021-10-18T08:12:31Z</time>
      </trkpt>
      <trkpt lat="39.1805570" lon="-6.2386110">
        <ele>443.4</ele>
        <time>2021-10-18T08:12:33Z</time>
      </trkpt>
      <trkpt lat="39.1803590" lon="-6.2388970">
        <ele>443.2</ele>
        <time>2021-10-18T08:12:41Z</time>
      </trkpt>
      <trkpt lat="39.1801280" lon="-6.2392360">
        <ele>443.2</ele>
        <time>2021-10-18T08:12:49Z</time>
      </trkpt>
      <trkpt lat="39.1800480" lon="-6.2393510">
        <ele>443.2</ele>
        <time>2021-10-18T08:12:52Z</time>
      </trkpt>
      <trkpt lat="39.1799360" lon="-6.2395190">
        <ele>443.2</ele>
        <time>2021-10-18T08:12:56Z</time>
      </trkpt>
      <trkpt lat="39.1796520" lon="-6.2399380">
        <ele>443.2</ele>
        <time>2021-10-18T08:13:06Z</time>
      </trkpt>
      <trkpt lat="39.1794020" lon="-6.2403020">
        <ele>443.0</ele>
        <time>2021-10-18T08:13:16Z</time>
      </trkpt>
      <trkpt lat="39.1792320" lon="-6.2404480">
        <ele>442.8</ele>
        <time>2021-10-18T08:13:22Z</time>
      </trkpt>
      <trkpt lat="39.1790760" lon="-6.2404070">
        <ele>442.6</ele>
        <time>2021-10-18T08:13:27Z</time>
      </trkpt>
      <trkpt lat="39.1788310" lon="-6.2404210">
        <ele>442.6</ele>
        <time>2021-10-18T08:13:35Z</time>
      </trkpt>
      <trkpt lat="39.1786970" lon="-6.2404160">
        <ele>443.2</ele>
        <time>2021-10-18T08:13:40Z</time>
      </trkpt>
      <trkpt lat="39.1785210" lon="-6.2404530">
        <ele>444.0</ele>
        <time>2021-10-18T08:13:47Z</time>
      </trkpt>
      <trkpt lat="39.1784290" lon="-6.2404600">
        <ele>444.4</ele>
        <time>2021-10-18T08:13:51Z</time>
      </trkpt>
      <trkpt lat="39.1783860" lon="-6.2404610">
        <ele>444.4</ele>
        <time>2021-10-18T08:13:53Z</time>
      </trkpt>
      <trkpt lat="39.1782070" lon="-6.2404840">
        <ele>444.8</ele>
        <time>2021-10-18T08:14:00Z</time>
      </trkpt>
      <trkpt lat="39.1780240" lon="-6.2405460">
        <ele>445.4</ele>
        <time>2021-10-18T08:14:06Z</time>
      </trkpt>
      <trkpt lat="39.1779910" lon="-6.2405600">
        <ele>445.4</ele>
        <time>2021-10-18T08:14:07Z</time>
      </trkpt>
      <trkpt lat="39.1778080" lon="-6.2406320">
        <ele>446.4</ele>
        <time>2021-10-18T08:14:13Z</time>
      </trkpt>
      <trkpt lat="39.1775540" lon="-6.2407860">
        <ele>446.8</ele>
        <time>2021-10-18T08:14:21Z</time>
      </trkpt>
      <trkpt lat="39.1775230" lon="-6.2408100">
        <ele>446.8</ele>
        <time>2021-10-18T08:14:22Z</time>
      </trkpt>
      <trkpt lat="39.1773740" lon="-6.2410130">
        <ele>446.8</ele>
        <time>2021-10-18T08:14:28Z</time>
      </trkpt>
      <trkpt lat="39.1772910" lon="-6.2412100">
        <ele>447.0</ele>
        <time>2021-10-18T08:14:33Z</time>
      </trkpt>
      <trkpt lat="39.1772280" lon="-6.2413280">
        <ele>447.4</ele>
        <time>2021-10-18T08:14:37Z</time>
      </trkpt>
      <trkpt lat="39.1771630" lon="-6.2414170">
        <ele>448.2</ele>
        <time>2021-10-18T08:14:41Z</time>
      </trkpt>
      <trkpt lat="39.1770720" lon="-6.2414970">
        <ele>448.6</ele>
        <time>2021-10-18T08:14:45Z</time>
      </trkpt>
      <trkpt lat="39.1770340" lon="-6.2415400">
        <ele>449.0</ele>
        <time>2021-10-18T08:14:47Z</time>
      </trkpt>
      <trkpt lat="39.1769540" lon="-6.2415950">
        <ele>449.6</ele>
        <time>2021-10-18T08:14:51Z</time>
      </trkpt>
      <trkpt lat="39.1769250" lon="-6.2416020">
        <ele>450.0</ele>
        <time>2021-10-18T08:14:53Z</time>
      </trkpt>
      <trkpt lat="39.1769090" lon="-6.2416020">
        <ele>450.6</ele>
        <time>2021-10-18T08:14:54Z</time>
      </trkpt>
      <trkpt lat="39.1768960" lon="-6.2415960">
        <ele>450.6</ele>
        <time>2021-10-18T08:14:55Z</time>
      </trkpt>
      <trkpt lat="39.1768830" lon="-6.2415940">
        <ele>451.0</ele>
        <time>2021-10-18T08:14:56Z</time>
      </trkpt>
      <trkpt lat="39.1768490" lon="-6.2416010">
        <ele>451.4</ele>
        <time>2021-10-18T08:14:58Z</time>
      </trkpt>
      <trkpt lat="39.1768320" lon="-6.2416180">
        <ele>451.8</ele>
        <time>2021-10-18T08:15:00Z</time>
      </trkpt>
      <trkpt lat="39.1768130" lon="-6.2416630">
        <ele>452.4</ele>
        <time>2021-10-18T08:15:03Z</time>
      </trkpt>
      <trkpt lat="39.1767940" lon="-6.2416900">
        <ele>452.8</ele>
        <time>2021-10-18T08:15:05Z</time>
      </trkpt>
      <trkpt lat="39.1767710" lon="-6.2417150">
        <ele>453.0</ele>
        <time>2021-10-18T08:15:07Z</time>
      </trkpt>
      <trkpt lat="39.1767410" lon="-6.2417430">
        <ele>453.4</ele>
        <time>2021-10-18T08:15:10Z</time>
      </trkpt>
      <trkpt lat="39.1767140" lon="-6.2417700">
        <ele>453.8</ele>
        <time>2021-10-18T08:15:13Z</time>
      </trkpt>
      <trkpt lat="39.1766940" lon="-6.2417950">
        <ele>454.0</ele>
        <time>2021-10-18T08:15:15Z</time>
      </trkpt>
      <trkpt lat="39.1766750" lon="-6.2418180">
        <ele>454.0</ele>
        <time>2021-10-18T08:15:17Z</time>
      </trkpt>
      <trkpt lat="39.1766540" lon="-6.2418500">
        <ele>454.4</ele>
        <time>2021-10-18T08:15:19Z</time>
      </trkpt>
      <trkpt lat="39.1766330" lon="-6.2418690">
        <ele>454.6</ele>
        <time>2021-10-18T08:15:21Z</time>
      </trkpt>
      <trkpt lat="39.1766070" lon="-6.2418880">
        <ele>454.8</ele>
        <time>2021-10-18T08:15:23Z</time>
      </trkpt>
      <trkpt lat="39.1765950" lon="-6.2418990">
        <ele>455.0</ele>
        <time>2021-10-18T08:15:24Z</time>
      </trkpt>
      <trkpt lat="39.1765620" lon="-6.2419270">
        <ele>455.0</ele>
        <time>2021-10-18T08:15:26Z</time>
      </trkpt>
      <trkpt lat="39.1765520" lon="-6.2419380">
        <ele>455.2</ele>
        <time>2021-10-18T08:15:27Z</time>
      </trkpt>
      <trkpt lat="39.1765200" lon="-6.2419690">
        <ele>455.6</ele>
        <time>2021-10-18T08:15:29Z</time>
      </trkpt>
      <trkpt lat="39.1764710" lon="-6.2420220">
        <ele>456.0</ele>
        <time>2021-10-18T08:15:33Z</time>
      </trkpt>
      <trkpt lat="39.1764600" lon="-6.2420360">
        <ele>456.2</ele>
        <time>2021-10-18T08:15:34Z</time>
      </trkpt>
      <trkpt lat="39.1764210" lon="-6.2420850">
        <ele>456.4</ele>
        <time>2021-10-18T08:15:37Z</time>
      </trkpt>
      <trkpt lat="39.1763660" lon="-6.2421680">
        <ele>457.0</ele>
        <time>2021-10-18T08:15:42Z</time>
      </trkpt>
      <trkpt lat="39.1763570" lon="-6.2421850">
        <ele>457.2</ele>
        <time>2021-10-18T08:15:43Z</time>
      </trkpt>
      <trkpt lat="39.1763310" lon="-6.2422250">
        <ele>457.6</ele>
        <time>2021-10-18T08:15:46Z</time>
      </trkpt>
      <trkpt lat="39.1762850" lon="-6.2422780">
        <ele>458.2</ele>
        <time>2021-10-18T08:15:50Z</time>
      </trkpt>
      <trkpt lat="39.1762280" lon="-6.2423280">
        <ele>459.0</ele>
        <time>2021-10-18T08:15:55Z</time>
      </trkpt>
      <trkpt lat="39.1762000" lon="-6.2423550">
        <ele>459.2</ele>
        <time>2021-10-18T08:15:57Z</time>
      </trkpt>
      <trkpt lat="39.1761650" lon="-6.2423830">
        <ele>459.8</ele>
        <time>2021-10-18T08:16:00Z</time>
      </trkpt>
      <trkpt lat="39.1761180" lon="-6.2424230">
        <ele>460.0</ele>
        <time>2021-10-18T08:16:03Z</time>
      </trkpt>
      <trkpt lat="39.1761050" lon="-6.2424340">
        <ele>460.0</ele>
        <time>2021-10-18T08:16:04Z</time>
      </trkpt>
      <trkpt lat="39.1760180" lon="-6.2425090">
        <ele>460.2</ele>
        <time>2021-10-18T08:16:09Z</time>
      </trkpt>
      <trkpt lat="39.1759430" lon="-6.2425700">
        <ele>460.4</ele>
        <time>2021-10-18T08:16:13Z</time>
      </trkpt>
      <trkpt lat="39.1759290" lon="-6.2425830">
        <ele>460.4</ele>
        <time>2021-10-18T08:16:14Z</time>
      </trkpt>
      <trkpt lat="39.1758420" lon="-6.2426850">
        <ele>460.4</ele>
        <time>2021-10-18T08:16:19Z</time>
      </trkpt>
      <trkpt lat="39.1757790" lon="-6.2427460">
        <ele>460.2</ele>
        <time>2021-10-18T08:16:22Z</time>
      </trkpt>
      <trkpt lat="39.1757000" lon="-6.2428420">
        <ele>460.4</ele>
        <time>2021-10-18T08:16:26Z</time>
      </trkpt>
      <trkpt lat="39.1756110" lon="-6.2429650">
        <ele>460.2</ele>
        <time>2021-10-18T08:16:30Z</time>
      </trkpt>
      <trkpt lat="39.1755060" lon="-6.2431060">
        <ele>460.0</ele>
        <time>2021-10-18T08:16:34Z</time>
      </trkpt>
      <trkpt lat="39.1754340" lon="-6.2432240">
        <ele>459.8</ele>
        <time>2021-10-18T08:16:37Z</time>
      </trkpt>
      <trkpt lat="39.1753290" lon="-6.2434150">
        <ele>459.6</ele>
        <time>2021-10-18T08:16:41Z</time>
      </trkpt>
      <trkpt lat="39.1753020" lon="-6.2434640">
        <ele>459.4</ele>
        <time>2021-10-18T08:16:42Z</time>
      </trkpt>
      <trkpt lat="39.1752180" lon="-6.2436250">
        <ele>459.0</ele>
        <time>2021-10-18T08:16:45Z</time>
      </trkpt>
      <trkpt lat="39.1751480" lon="-6.2437770">
        <ele>458.8</ele>
        <time>2021-10-18T08:16:48Z</time>
      </trkpt>
      <trkpt lat="39.1751010" lon="-6.2438910">
        <ele>458.4</ele>
        <time>2021-10-18T08:16:50Z</time>
      </trkpt>
      <trkpt lat="39.1750190" lon="-6.2440500">
        <ele>458.0</ele>
        <time>2021-10-18T08:16:53Z</time>
      </trkpt>
      <trkpt lat="39.1749300" lon="-6.2441520">
        <ele>458.0</ele>
        <time>2021-10-18T08:16:55Z</time>
      </trkpt>
      <trkpt lat="39.1746380" lon="-6.2445110">
        <ele>456.6</ele>
        <time>2021-10-18T08:17:02Z</time>
      </trkpt>
      <trkpt lat="39.1744170" lon="-6.2447740">
        <ele>455.6</ele>
        <time>2021-10-18T08:17:07Z</time>
      </trkpt>
      <trkpt lat="39.1742170" lon="-6.2450170">
        <ele>455.0</ele>
        <time>2021-10-18T08:17:12Z</time>
      </trkpt>
      <trkpt lat="39.1741700" lon="-6.2450740">
        <ele>455.0</ele>
        <time>2021-10-18T08:17:13Z</time>
      </trkpt>
      <trkpt lat="39.1739800" lon="-6.2452780">
        <ele>454.4</ele>
        <time>2021-10-18T08:17:18Z</time>
      </trkpt>
      <trkpt lat="39.1738120" lon="-6.2455120">
        <ele>454.2</ele>
        <time>2021-10-18T08:17:24Z</time>
      </trkpt>
      <trkpt lat="39.1736780" lon="-6.2457240">
        <ele>454.2</ele>
        <time>2021-10-18T08:17:29Z</time>
      </trkpt>
      <trkpt lat="39.1736590" lon="-6.2457660">
        <ele>454.2</ele>
        <time>2021-10-18T08:17:30Z</time>
      </trkpt>
      <trkpt lat="39.1736280" lon="-6.2458600">
        <ele>454.2</ele>
        <time>2021-10-18T08:17:32Z</time>
      </trkpt>
      <trkpt lat="39.1736100" lon="-6.2459780">
        <ele>454.0</ele>
        <time>2021-10-18T08:17:34Z</time>
      </trkpt>
      <trkpt lat="39.1736090" lon="-6.2460410">
        <ele>454.0</ele>
        <time>2021-10-18T08:17:35Z</time>
      </trkpt>
      <trkpt lat="39.1735790" lon="-6.2462890">
        <ele>453.6</ele>
        <time>2021-10-18T08:17:39Z</time>
      </trkpt>
      <trkpt lat="39.1735650" lon="-6.2463420">
        <ele>453.4</ele>
        <time>2021-10-18T08:17:40Z</time>
      </trkpt>
      <trkpt lat="39.1735050" lon="-6.2465630">
        <ele>453.0</ele>
        <time>2021-10-18T08:17:45Z</time>
      </trkpt>
      <trkpt lat="39.1734510" lon="-6.2466650">
        <ele>453.4</ele>
        <time>2021-10-18T08:17:50Z</time>
      </trkpt>
      <trkpt lat="39.1734430" lon="-6.2466770">
        <ele>453.6</ele>
        <time>2021-10-18T08:17:51Z</time>
      </trkpt>
      <trkpt lat="39.1734260" lon="-6.2467020">
        <ele>453.8</ele>
        <time>2021-10-18T08:17:53Z</time>
      </trkpt>
      <trkpt lat="39.1734250" lon="-6.2467070">
        <ele>453.8</ele>
        <time>2021-10-18T08:17:55Z</time>
      </trkpt>
      <trkpt lat="39.1734250" lon="-6.2467070">
        <ele>453.8</ele>
        <time>2021-10-18T08:17:56Z</time>
      </trkpt>
      <trkpt lat="39.1734120" lon="-6.2467110">
        <ele>453.0</ele>
        <time>2021-10-18T08:20:40Z</time>
      </trkpt>
      <trkpt lat="39.1734030" lon="-6.2467280">
        <ele>453.0</ele>
        <time>2021-10-18T08:20:41Z</time>
      </trkpt>
      <trkpt lat="39.1733900" lon="-6.2467510">
        <ele>453.2</ele>
        <time>2021-10-18T08:20:42Z</time>
      </trkpt>
      <trkpt lat="39.1733350" lon="-6.2468590">
        <ele>453.6</ele>
        <time>2021-10-18T08:20:49Z</time>
      </trkpt>
      <trkpt lat="39.1733200" lon="-6.2468980">
        <ele>454.0</ele>
        <time>2021-10-18T08:20:51Z</time>
      </trkpt>
      <trkpt lat="39.1732970" lon="-6.2469640">
        <ele>454.2</ele>
        <time>2021-10-18T08:20:54Z</time>
      </trkpt>
      <trkpt lat="39.1732740" lon="-6.2470380">
        <ele>454.6</ele>
        <time>2021-10-18T08:20:57Z</time>
      </trkpt>
      <trkpt lat="39.1732160" lon="-6.2471740">
        <ele>455.0</ele>
        <time>2021-10-18T08:21:02Z</time>
      </trkpt>
      <trkpt lat="39.1731920" lon="-6.2472400">
        <ele>455.4</ele>
        <time>2021-10-18T08:21:05Z</time>
      </trkpt>
      <trkpt lat="39.1731790" lon="-6.2472700">
        <ele>455.6</ele>
        <time>2021-10-18T08:21:06Z</time>
      </trkpt>
      <trkpt lat="39.1731250" lon="-6.2473890">
        <ele>456.2</ele>
        <time>2021-10-18T08:21:11Z</time>
      </trkpt>
      <trkpt lat="39.1730750" lon="-6.2475060">
        <ele>456.4</ele>
        <time>2021-10-18T08:21:15Z</time>
      </trkpt>
      <trkpt lat="39.1730080" lon="-6.2476280">
        <ele>457.0</ele>
        <time>2021-10-18T08:21:20Z</time>
      </trkpt>
      <trkpt lat="39.1729970" lon="-6.2476470">
        <ele>457.2</ele>
        <time>2021-10-18T08:21:21Z</time>
      </trkpt>
      <trkpt lat="39.1729870" lon="-6.2476710">
        <ele>457.4</ele>
        <time>2021-10-18T08:21:22Z</time>
      </trkpt>
      <trkpt lat="39.1729000" lon="-6.2478290">
        <ele>458.4</ele>
        <time>2021-10-18T08:21:28Z</time>
      </trkpt>
      <trkpt lat="39.1728650" lon="-6.2478820">
        <ele>458.6</ele>
        <time>2021-10-18T08:21:30Z</time>
      </trkpt>
      <trkpt lat="39.1727350" lon="-6.2480670">
        <ele>458.8</ele>
        <time>2021-10-18T08:21:38Z</time>
      </trkpt>
      <trkpt lat="39.1726900" lon="-6.2481320">
        <ele>459.0</ele>
        <time>2021-10-18T08:21:41Z</time>
      </trkpt>
      <trkpt lat="39.1726290" lon="-6.2482120">
        <ele>459.2</ele>
        <time>2021-10-18T08:21:44Z</time>
      </trkpt>
      <trkpt lat="39.1725110" lon="-6.2483810">
        <ele>460.0</ele>
        <time>2021-10-18T08:21:51Z</time>
      </trkpt>
      <trkpt lat="39.1724370" lon="-6.2484810">
        <ele>460.6</ele>
        <time>2021-10-18T08:21:55Z</time>
      </trkpt>
      <trkpt lat="39.1723150" lon="-6.2486470">
        <ele>461.0</ele>
        <time>2021-10-18T08:22:01Z</time>
      </trkpt>
      <trkpt lat="39.1722190" lon="-6.2487640">
        <ele>461.4</ele>
        <time>2021-10-18T08:22:06Z</time>
      </trkpt>
      <trkpt lat="39.1721300" lon="-6.2488950">
        <ele>461.6</ele>
        <time>2021-10-18T08:22:10Z</time>
      </trkpt>
      <trkpt lat="39.1721110" lon="-6.2489200">
        <ele>461.6</ele>
        <time>2021-10-18T08:22:11Z</time>
      </trkpt>
      <trkpt lat="39.1719810" lon="-6.2490970">
        <ele>461.6</ele>
        <time>2021-10-18T08:22:16Z</time>
      </trkpt>
      <trkpt lat="39.1718970" lon="-6.2492030">
        <ele>461.6</ele>
        <time>2021-10-18T08:22:19Z</time>
      </trkpt>
      <trkpt lat="39.1716140" lon="-6.2495470">
        <ele>461.0</ele>
        <time>2021-10-18T08:22:28Z</time>
      </trkpt>
      <trkpt lat="39.1715820" lon="-6.2495840">
        <ele>460.8</ele>
        <time>2021-10-18T08:22:29Z</time>
      </trkpt>
      <trkpt lat="39.1714860" lon="-6.2496930">
        <ele>460.6</ele>
        <time>2021-10-18T08:22:32Z</time>
      </trkpt>
      <trkpt lat="39.1714040" lon="-6.2497730">
        <ele>460.4</ele>
        <time>2021-10-18T08:22:34Z</time>
      </trkpt>
      <trkpt lat="39.1713720" lon="-6.2498000">
        <ele>460.2</ele>
        <time>2021-10-18T08:22:35Z</time>
      </trkpt>
      <trkpt lat="39.1711500" lon="-6.2499740">
        <ele>460.0</ele>
        <time>2021-10-18T08:22:40Z</time>
      </trkpt>
      <trkpt lat="39.1708770" lon="-6.2501630">
        <ele>459.2</ele>
        <time>2021-10-18T08:22:46Z</time>
      </trkpt>
      <trkpt lat="39.1707250" lon="-6.2502440">
        <ele>458.8</ele>
        <time>2021-10-18T08:22:49Z</time>
      </trkpt>
      <trkpt lat="39.1705630" lon="-6.2503040">
        <ele>458.0</ele>
        <time>2021-10-18T08:22:52Z</time>
      </trkpt>
      <trkpt lat="39.1704040" lon="-6.2503360">
        <ele>457.6</ele>
        <time>2021-10-18T08:22:55Z</time>
      </trkpt>
      <trkpt lat="39.1699820" lon="-6.2504160">
        <ele>457.0</ele>
        <time>2021-10-18T08:23:03Z</time>
      </trkpt>
      <trkpt lat="39.1699450" lon="-6.2504290">
        <ele>457.0</ele>
        <time>2021-10-18T08:23:04Z</time>
      </trkpt>
      <trkpt lat="39.1697140" lon="-6.2505010">
        <ele>456.8</ele>
        <time>2021-10-18T08:23:09Z</time>
      </trkpt>
      <trkpt lat="39.1693820" lon="-6.2506070">
        <ele>457.0</ele>
        <time>2021-10-18T08:23:16Z</time>
      </trkpt>
      <trkpt lat="39.1693440" lon="-6.2506230">
        <ele>457.0</ele>
        <time>2021-10-18T08:23:17Z</time>
      </trkpt>
      <trkpt lat="39.1689460" lon="-6.2508180">
        <ele>457.0</ele>
        <time>2021-10-18T08:23:26Z</time>
      </trkpt>
      <trkpt lat="39.1688690" lon="-6.2508710">
        <ele>457.0</ele>
        <time>2021-10-18T08:23:28Z</time>
      </trkpt>
      <trkpt lat="39.1687020" lon="-6.2509460">
        <ele>457.2</ele>
        <time>2021-10-18T08:23:33Z</time>
      </trkpt>
      <trkpt lat="39.1685400" lon="-6.2509940">
        <ele>457.8</ele>
        <time>2021-10-18T08:23:38Z</time>
      </trkpt>
      <trkpt lat="39.1684600" lon="-6.2510040">
        <ele>458.0</ele>
        <time>2021-10-18T08:23:40Z</time>
      </trkpt>
      <trkpt lat="39.1682620" lon="-6.2510320">
        <ele>458.4</ele>
        <time>2021-10-18T08:23:45Z</time>
      </trkpt>
      <trkpt lat="39.1681320" lon="-6.2510170">
        <ele>458.6</ele>
        <time>2021-10-18T08:23:48Z</time>
      </trkpt>
      <trkpt lat="39.1679880" lon="-6.2509790">
        <ele>458.6</ele>
        <time>2021-10-18T08:23:51Z</time>
      </trkpt>
      <trkpt lat="39.1678910" lon="-6.2509630">
        <ele>458.6</ele>
        <time>2021-10-18T08:23:53Z</time>
      </trkpt>
      <trkpt lat="39.1677420" lon="-6.2509590">
        <ele>458.2</ele>
        <time>2021-10-18T08:23:56Z</time>
      </trkpt>
      <trkpt lat="39.1675400" lon="-6.2509800">
        <ele>458.0</ele>
        <time>2021-10-18T08:24:00Z</time>
      </trkpt>
      <trkpt lat="39.1674420" lon="-6.2509940">
        <ele>458.0</ele>
        <time>2021-10-18T08:24:02Z</time>
      </trkpt>
      <trkpt lat="39.1673850" lon="-6.2510000">
        <ele>458.0</ele>
        <time>2021-10-18T08:24:03Z</time>
      </trkpt>
      <trkpt lat="39.1671720" lon="-6.2509960">
        <ele>458.4</ele>
        <time>2021-10-18T08:24:08Z</time>
      </trkpt>
      <trkpt lat="39.1669450" lon="-6.2509790">
        <ele>459.0</ele>
        <time>2021-10-18T08:24:14Z</time>
      </trkpt>
      <trkpt lat="39.1669130" lon="-6.2509750">
        <ele>459.2</ele>
        <time>2021-10-18T08:24:15Z</time>
      </trkpt>
      <trkpt lat="39.1667310" lon="-6.2509470">
        <ele>460.2</ele>
        <time>2021-10-18T08:24:21Z</time>
      </trkpt>
      <trkpt lat="39.1667030" lon="-6.2509430">
        <ele>460.4</ele>
        <time>2021-10-18T08:24:22Z</time>
      </trkpt>
      <trkpt lat="39.1666070" lon="-6.2509310">
        <ele>461.2</ele>
        <time>2021-10-18T08:24:26Z</time>
      </trkpt>
      <trkpt lat="39.1665140" lon="-6.2509200">
        <ele>461.8</ele>
        <time>2021-10-18T08:24:30Z</time>
      </trkpt>
      <trkpt lat="39.1664680" lon="-6.2509130">
        <ele>462.2</ele>
        <time>2021-10-18T08:24:32Z</time>
      </trkpt>
      <trkpt lat="39.1663660" lon="-6.2508940">
        <ele>463.0</ele>
        <time>2021-10-18T08:24:36Z</time>
      </trkpt>
      <trkpt lat="39.1663400" lon="-6.2508970">
        <ele>463.4</ele>
        <time>2021-10-18T08:24:37Z</time>
      </trkpt>
      <trkpt lat="39.1662590" lon="-6.2509000">
        <ele>463.6</ele>
        <time>2021-10-18T08:24:40Z</time>
      </trkpt>
      <trkpt lat="39.1661960" lon="-6.2509020">
        <ele>463.8</ele>
        <time>2021-10-18T08:24:42Z</time>
      </trkpt>
      <trkpt lat="39.1661240" lon="-6.2509120">
        <ele>464.0</ele>
        <time>2021-10-18T08:24:44Z</time>
      </trkpt>
      <trkpt lat="39.1660080" lon="-6.2509320">
        <ele>464.0</ele>
        <time>2021-10-18T08:24:47Z</time>
      </trkpt>
      <trkpt lat="39.1659070" lon="-6.2509560">
        <ele>464.0</ele>
        <time>2021-10-18T08:24:50Z</time>
      </trkpt>
      <trkpt lat="39.1657310" lon="-6.2509720">
        <ele>464.2</ele>
        <time>2021-10-18T08:24:55Z</time>
      </trkpt>
      <trkpt lat="39.1655540" lon="-6.2509950">
        <ele>464.4</ele>
        <time>2021-10-18T08:25:00Z</time>
      </trkpt>
      <trkpt lat="39.1653670" lon="-6.2510270">
        <ele>464.8</ele>
        <time>2021-10-18T08:25:05Z</time>
      </trkpt>
      <trkpt lat="39.1651440" lon="-6.2510900">
        <ele>465.0</ele>
        <time>2021-10-18T08:25:11Z</time>
      </trkpt>
      <trkpt lat="39.1650220" lon="-6.2511140">
        <ele>465.0</ele>
        <time>2021-10-18T08:25:14Z</time>
      </trkpt>
      <trkpt lat="39.1648690" lon="-6.2511260">
        <ele>464.8</ele>
        <time>2021-10-18T08:25:18Z</time>
      </trkpt>
      <trkpt lat="39.1647950" lon="-6.2511220">
        <ele>465.0</ele>
        <time>2021-10-18T08:25:20Z</time>
      </trkpt>
      <trkpt lat="39.1647270" lon="-6.2511190">
        <ele>465.2</ele>
        <time>2021-10-18T08:25:22Z</time>
      </trkpt>
      <trkpt lat="39.1646270" lon="-6.2511170">
        <ele>465.2</ele>
        <time>2021-10-18T08:25:25Z</time>
      </trkpt>
      <trkpt lat="39.1645340" lon="-6.2511170">
        <ele>465.6</ele>
        <time>2021-10-18T08:25:28Z</time>
      </trkpt>
      <trkpt lat="39.1643530" lon="-6.2511260">
        <ele>466.0</ele>
        <time>2021-10-18T08:25:34Z</time>
      </trkpt>
      <trkpt lat="39.1642960" lon="-6.2511390">
        <ele>466.2</ele>
        <time>2021-10-18T08:25:36Z</time>
      </trkpt>
      <trkpt lat="39.1641600" lon="-6.2511420">
        <ele>466.6</ele>
        <time>2021-10-18T08:25:41Z</time>
      </trkpt>
      <trkpt lat="39.1640120" lon="-6.2511550">
        <ele>467.2</ele>
        <time>2021-10-18T08:25:47Z</time>
      </trkpt>
      <trkpt lat="39.1639380" lon="-6.2511540">
        <ele>468.4</ele>
        <time>2021-10-18T08:25:50Z</time>
      </trkpt>
      <trkpt lat="39.1639120" lon="-6.2511540">
        <ele>468.6</ele>
        <time>2021-10-18T08:25:51Z</time>
      </trkpt>
      <trkpt lat="39.1637430" lon="-6.2511630">
        <ele>469.4</ele>
        <time>2021-10-18T08:25:58Z</time>
      </trkpt>
      <trkpt lat="39.1636500" lon="-6.2511690">
        <ele>470.2</ele>
        <time>2021-10-18T08:26:02Z</time>
      </trkpt>
      <trkpt lat="39.1636010" lon="-6.2511730">
        <ele>470.4</ele>
        <time>2021-10-18T08:26:04Z</time>
      </trkpt>
      <trkpt lat="39.1635780" lon="-6.2511730">
        <ele>470.6</ele>
        <time>2021-10-18T08:26:05Z</time>
      </trkpt>
      <trkpt lat="39.1635060" lon="-6.2511730">
        <ele>471.0</ele>
        <time>2021-10-18T08:26:08Z</time>
      </trkpt>
      <trkpt lat="39.1634800" lon="-6.2511740">
        <ele>471.0</ele>
        <time>2021-10-18T08:26:09Z</time>
      </trkpt>
      <trkpt lat="39.1634030" lon="-6.2511900">
        <ele>471.6</ele>
        <time>2021-10-18T08:26:12Z</time>
      </trkpt>
      <trkpt lat="39.1633530" lon="-6.2511940">
        <ele>471.8</ele>
        <time>2021-10-18T08:26:14Z</time>
      </trkpt>
      <trkpt lat="39.1633270" lon="-6.2511940">
        <ele>471.8</ele>
        <time>2021-10-18T08:26:15Z</time>
      </trkpt>
      <trkpt lat="39.1631360" lon="-6.2511990">
        <ele>472.6</ele>
        <time>2021-10-18T08:26:22Z</time>
      </trkpt>
      <trkpt lat="39.1631090" lon="-6.2511930">
        <ele>472.4</ele>
        <time>2021-10-18T08:26:23Z</time>
      </trkpt>
      <trkpt lat="39.1630550" lon="-6.2511910">
        <ele>472.6</ele>
        <time>2021-10-18T08:26:25Z</time>
      </trkpt>
      <trkpt lat="39.1630010" lon="-6.2511900">
        <ele>472.6</ele>
        <time>2021-10-18T08:26:27Z</time>
      </trkpt>
      <trkpt lat="39.1629140" lon="-6.2511990">
        <ele>472.6</ele>
        <time>2021-10-18T08:26:30Z</time>
      </trkpt>
      <trkpt lat="39.1626480" lon="-6.2511730">
        <ele>473.0</ele>
        <time>2021-10-18T08:26:39Z</time>
      </trkpt>
      <trkpt lat="39.1624800" lon="-6.2511720">
        <ele>473.2</ele>
        <time>2021-10-18T08:26:44Z</time>
      </trkpt>
      <trkpt lat="39.1624140" lon="-6.2511720">
        <ele>473.2</ele>
        <time>2021-10-18T08:26:46Z</time>
      </trkpt>
      <trkpt lat="39.1623830" lon="-6.2511690">
        <ele>473.2</ele>
        <time>2021-10-18T08:26:47Z</time>
      </trkpt>
      <trkpt lat="39.1622290" lon="-6.2511510">
        <ele>473.4</ele>
        <time>2021-10-18T08:26:52Z</time>
      </trkpt>
      <trkpt lat="39.1621360" lon="-6.2511360">
        <ele>473.6</ele>
        <time>2021-10-18T08:26:55Z</time>
      </trkpt>
      <trkpt lat="39.1621040" lon="-6.2511320">
        <ele>473.6</ele>
        <time>2021-10-18T08:26:56Z</time>
      </trkpt>
      <trkpt lat="39.1620120" lon="-6.2511160">
        <ele>474.0</ele>
        <time>2021-10-18T08:26:59Z</time>
      </trkpt>
      <trkpt lat="39.1618900" lon="-6.2510910">
        <ele>474.2</ele>
        <time>2021-10-18T08:27:03Z</time>
      </trkpt>
      <trkpt lat="39.1618070" lon="-6.2510790">
        <ele>474.4</ele>
        <time>2021-10-18T08:27:06Z</time>
      </trkpt>
      <trkpt lat="39.1616600" lon="-6.2510680">
        <ele>475.2</ele>
        <time>2021-10-18T08:27:12Z</time>
      </trkpt>
      <trkpt lat="39.1616180" lon="-6.2510590">
        <ele>475.6</ele>
        <time>2021-10-18T08:27:14Z</time>
      </trkpt>
      <trkpt lat="39.1615570" lon="-6.2510550">
        <ele>476.0</ele>
        <time>2021-10-18T08:27:17Z</time>
      </trkpt>
      <trkpt lat="39.1615330" lon="-6.2510540">
        <ele>476.4</ele>
        <time>2021-10-18T08:27:18Z</time>
      </trkpt>
      <trkpt lat="39.1615060" lon="-6.2510520">
        <ele>476.6</ele>
        <time>2021-10-18T08:27:19Z</time>
      </trkpt>
      <trkpt lat="39.1613370" lon="-6.2510240">
        <ele>477.6</ele>
        <time>2021-10-18T08:27:27Z</time>
      </trkpt>
      <trkpt lat="39.1612450" lon="-6.2510290">
        <ele>478.0</ele>
        <time>2021-10-18T08:27:31Z</time>
      </trkpt>
      <trkpt lat="39.1611560" lon="-6.2510450">
        <ele>478.4</ele>
        <time>2021-10-18T08:27:35Z</time>
      </trkpt>
      <trkpt lat="39.1610950" lon="-6.2510480">
        <ele>478.8</ele>
        <time>2021-10-18T08:27:38Z</time>
      </trkpt>
      <trkpt lat="39.1609780" lon="-6.2510700">
        <ele>479.2</ele>
        <time>2021-10-18T08:27:43Z</time>
      </trkpt>
      <trkpt lat="39.1609270" lon="-6.2510800">
        <ele>479.4</ele>
        <time>2021-10-18T08:27:45Z</time>
      </trkpt>
      <trkpt lat="39.1608370" lon="-6.2511050">
        <ele>479.6</ele>
        <time>2021-10-18T08:27:49Z</time>
      </trkpt>
      <trkpt lat="39.1607730" lon="-6.2511290">
        <ele>479.6</ele>
        <time>2021-10-18T08:27:52Z</time>
      </trkpt>
      <trkpt lat="39.1607090" lon="-6.2511500">
        <ele>479.8</ele>
        <time>2021-10-18T08:27:55Z</time>
      </trkpt>
      <trkpt lat="39.1606480" lon="-6.2511770">
        <ele>480.2</ele>
        <time>2021-10-18T08:27:58Z</time>
      </trkpt>
      <trkpt lat="39.1605880" lon="-6.2512060">
        <ele>480.8</ele>
        <time>2021-10-18T08:28:01Z</time>
      </trkpt>
      <trkpt lat="39.1605070" lon="-6.2512430">
        <ele>482.0</ele>
        <time>2021-10-18T08:28:06Z</time>
      </trkpt>
      <trkpt lat="39.1604510" lon="-6.2512690">
        <ele>482.8</ele>
        <time>2021-10-18T08:28:10Z</time>
      </trkpt>
      <trkpt lat="39.1604250" lon="-6.2512780">
        <ele>483.0</ele>
        <time>2021-10-18T08:28:12Z</time>
      </trkpt>
      <trkpt lat="39.1604110" lon="-6.2512840">
        <ele>483.2</ele>
        <time>2021-10-18T08:28:13Z</time>
      </trkpt>
      <trkpt lat="39.1602870" lon="-6.2513590">
        <ele>483.6</ele>
        <time>2021-10-18T08:28:20Z</time>
      </trkpt>
      <trkpt lat="39.1601550" lon="-6.2513720">
        <ele>483.0</ele>
        <time>2021-10-18T08:28:25Z</time>
      </trkpt>
      <trkpt lat="39.1599700" lon="-6.2513540">
        <ele>482.8</ele>
        <time>2021-10-18T08:28:29Z</time>
      </trkpt>
      <trkpt lat="39.1597840" lon="-6.2513330">
        <ele>481.8</ele>
        <time>2021-10-18T08:28:32Z</time>
      </trkpt>
      <trkpt lat="39.1596650" lon="-6.2513180">
        <ele>481.0</ele>
        <time>2021-10-18T08:28:34Z</time>
      </trkpt>
      <trkpt lat="39.1595660" lon="-6.2513040">
        <ele>480.0</ele>
        <time>2021-10-18T08:28:36Z</time>
      </trkpt>
      <trkpt lat="39.1594790" lon="-6.2512960">
        <ele>478.8</ele>
        <time>2021-10-18T08:28:38Z</time>
      </trkpt>
      <trkpt lat="39.1594370" lon="-6.2512910">
        <ele>478.4</ele>
        <time>2021-10-18T08:28:39Z</time>
      </trkpt>
      <trkpt lat="39.1592830" lon="-6.2512700">
        <ele>477.8</ele>
        <time>2021-10-18T08:28:43Z</time>
      </trkpt>
      <trkpt lat="39.1590760" lon="-6.2512470">
        <ele>476.6</ele>
        <time>2021-10-18T08:28:48Z</time>
      </trkpt>
      <trkpt lat="39.1587570" lon="-6.2511890">
        <ele>475.6</ele>
        <time>2021-10-18T08:28:55Z</time>
      </trkpt>
      <trkpt lat="39.1586490" lon="-6.2511480">
        <ele>475.2</ele>
        <time>2021-10-18T08:28:57Z</time>
      </trkpt>
      <trkpt lat="39.1585260" lon="-6.2510990">
        <ele>474.4</ele>
        <time>2021-10-18T08:28:59Z</time>
      </trkpt>
      <trkpt lat="39.1583240" lon="-6.2509990">
        <ele>473.6</ele>
        <time>2021-10-18T08:29:02Z</time>
      </trkpt>
      <trkpt lat="39.1582540" lon="-6.2509620">
        <ele>472.4</ele>
        <time>2021-10-18T08:29:03Z</time>
      </trkpt>
      <trkpt lat="39.1579560" lon="-6.2508160">
        <ele>471.4</ele>
        <time>2021-10-18T08:29:07Z</time>
      </trkpt>
      <trkpt lat="39.1578790" lon="-6.2507850">
        <ele>471.2</ele>
        <time>2021-10-18T08:29:08Z</time>
      </trkpt>
      <trkpt lat="39.1576580" lon="-6.2506850">
        <ele>470.2</ele>
        <time>2021-10-18T08:29:11Z</time>
      </trkpt>
      <trkpt lat="39.1574410" lon="-6.2505990">
        <ele>468.8</ele>
        <time>2021-10-18T08:29:14Z</time>
      </trkpt>
      <trkpt lat="39.1570800" lon="-6.2504970">
        <ele>468.4</ele>
        <time>2021-10-18T08:29:19Z</time>
      </trkpt>
      <trkpt lat="39.1569320" lon="-6.2504770">
        <ele>467.6</ele>
        <time>2021-10-18T08:29:21Z</time>
      </trkpt>
      <trkpt lat="39.1563930" lon="-6.2504350">
        <ele>466.6</ele>
        <time>2021-10-18T08:29:28Z</time>
      </trkpt>
      <trkpt lat="39.1561580" lon="-6.2504220">
        <ele>465.6</ele>
        <time>2021-10-18T08:29:31Z</time>
      </trkpt>
      <trkpt lat="39.1560770" lon="-6.2504190">
        <ele>465.2</ele>
        <time>2021-10-18T08:29:32Z</time>
      </trkpt>
      <trkpt lat="39.1557410" lon="-6.2504140">
        <ele>464.0</ele>
        <time>2021-10-18T08:29:36Z</time>
      </trkpt>
      <trkpt lat="39.1555730" lon="-6.2504320">
        <ele>462.8</ele>
        <time>2021-10-18T08:29:38Z</time>
      </trkpt>
      <trkpt lat="39.1554940" lon="-6.2504440">
        <ele>462.6</ele>
        <time>2021-10-18T08:29:39Z</time>
      </trkpt>
      <trkpt lat="39.1553650" lon="-6.2504700">
        <ele>461.2</ele>
        <time>2021-10-18T08:29:41Z</time>
      </trkpt>
      <trkpt lat="39.1553190" lon="-6.2504830">
        <ele>460.8</ele>
        <time>2021-10-18T08:29:42Z</time>
      </trkpt>
      <trkpt lat="39.1552540" lon="-6.2504960">
        <ele>460.0</ele>
        <time>2021-10-18T08:29:44Z</time>
      </trkpt>
      <trkpt lat="39.1552280" lon="-6.2504960">
        <ele>459.6</ele>
        <time>2021-10-18T08:29:45Z</time>
      </trkpt>
      <trkpt lat="39.1551380" lon="-6.2504930">
        <ele>459.0</ele>
        <time>2021-10-18T08:29:47Z</time>
      </trkpt>
      <trkpt lat="39.1549890" lon="-6.2504710">
        <ele>458.2</ele>
        <time>2021-10-18T08:29:51Z</time>
      </trkpt>
      <trkpt lat="39.1549890" lon="-6.2504710">
        <ele>458.0</ele>
        <time>2021-10-18T08:29:52Z</time>
      </trkpt>
      <trkpt lat="39.1548070" lon="-6.2504340">
        <ele>457.2</ele>
        <time>2021-10-18T08:29:57Z</time>
      </trkpt>
      <trkpt lat="39.1545980" lon="-6.2504690">
        <ele>457.0</ele>
        <time>2021-10-18T08:30:02Z</time>
      </trkpt>
      <trkpt lat="39.1545520" lon="-6.2504880">
        <ele>457.0</ele>
        <time>2021-10-18T08:30:03Z</time>
      </trkpt>
      <trkpt lat="39.1541660" lon="-6.2507270">
        <ele>456.4</ele>
        <time>2021-10-18T08:30:10Z</time>
      </trkpt>
      <trkpt lat="39.1541170" lon="-6.2507690">
        <ele>455.4</ele>
        <time>2021-10-18T08:30:12Z</time>
      </trkpt>
      <trkpt lat="39.1539190" lon="-6.2509280">
        <ele>454.8</ele>
        <time>2021-10-18T08:30:15Z</time>
      </trkpt>
      <trkpt lat="39.1538070" lon="-6.2509780">
        <ele>454.6</ele>
        <time>2021-10-18T08:30:17Z</time>
      </trkpt>
      <trkpt lat="39.1536850" lon="-6.2509890">
        <ele>454.4</ele>
        <time>2021-10-18T08:30:19Z</time>
      </trkpt>
      <trkpt lat="39.1535500" lon="-6.2509840">
        <ele>454.2</ele>
        <time>2021-10-18T08:30:21Z</time>
      </trkpt>
      <trkpt lat="39.1533220" lon="-6.2509810">
        <ele>453.4</ele>
        <time>2021-10-18T08:30:24Z</time>
      </trkpt>
      <trkpt lat="39.1531660" lon="-6.2509700">
        <ele>452.6</ele>
        <time>2021-10-18T08:30:26Z</time>
      </trkpt>
      <trkpt lat="39.1530920" lon="-6.2509600">
        <ele>452.2</ele>
        <time>2021-10-18T08:30:27Z</time>
      </trkpt>
      <trkpt lat="39.1529520" lon="-6.2509490">
        <ele>451.6</ele>
        <time>2021-10-18T08:30:29Z</time>
      </trkpt>
      <trkpt lat="39.1528240" lon="-6.2509630">
        <ele>451.4</ele>
        <time>2021-10-18T08:30:31Z</time>
      </trkpt>
      <trkpt lat="39.1527170" lon="-6.2509760">
        <ele>451.2</ele>
        <time>2021-10-18T08:30:33Z</time>
      </trkpt>
      <trkpt lat="39.1526280" lon="-6.2509880">
        <ele>451.0</ele>
        <time>2021-10-18T08:30:35Z</time>
      </trkpt>
      <trkpt lat="39.1525880" lon="-6.2509930">
        <ele>451.0</ele>
        <time>2021-10-18T08:30:36Z</time>
      </trkpt>
      <trkpt lat="39.1521900" lon="-6.2510410">
        <ele>452.0</ele>
        <time>2021-10-18T08:30:45Z</time>
      </trkpt>
      <trkpt lat="39.1521510" lon="-6.2510480">
        <ele>452.4</ele>
        <time>2021-10-18T08:30:47Z</time>
      </trkpt>
      <trkpt lat="39.1520760" lon="-6.2510540">
        <ele>452.6</ele>
        <time>2021-10-18T08:30:48Z</time>
      </trkpt>
      <trkpt lat="39.1519960" lon="-6.2510630">
        <ele>453.0</ele>
        <time>2021-10-18T08:30:50Z</time>
      </trkpt>
      <trkpt lat="39.1519170" lon="-6.2510870">
        <ele>453.6</ele>
        <time>2021-10-18T08:30:52Z</time>
      </trkpt>
      <trkpt lat="39.1515380" lon="-6.2511870">
        <ele>454.0</ele>
        <time>2021-10-18T08:31:03Z</time>
      </trkpt>
      <trkpt lat="39.1513760" lon="-6.2512470">
        <ele>454.0</ele>
        <time>2021-10-18T08:31:07Z</time>
      </trkpt>
      <trkpt lat="39.1512160" lon="-6.2512990">
        <ele>453.8</ele>
        <time>2021-10-18T08:31:10Z</time>
      </trkpt>
      <trkpt lat="39.1512160" lon="-6.2512990">
        <ele>453.8</ele>
        <time>2021-10-18T08:31:11Z</time>
      </trkpt>
      <trkpt lat="39.1510380" lon="-6.2513430">
        <ele>453.6</ele>
        <time>2021-10-18T08:31:14Z</time>
      </trkpt>
      <trkpt lat="39.1509420" lon="-6.2513590">
        <ele>453.4</ele>
        <time>2021-10-18T08:31:16Z</time>
      </trkpt>
      <trkpt lat="39.1507930" lon="-6.2513760">
        <ele>453.0</ele>
        <time>2021-10-18T08:31:19Z</time>
      </trkpt>
      <trkpt lat="39.1505040" lon="-6.2513890">
        <ele>452.4</ele>
        <time>2021-10-18T08:31:25Z</time>
      </trkpt>
      <trkpt lat="39.1504590" lon="-6.2513990">
        <ele>452.2</ele>
        <time>2021-10-18T08:31:26Z</time>
      </trkpt>
      <trkpt lat="39.1503340" lon="-6.2514160">
        <ele>451.8</ele>
        <time>2021-10-18T08:31:29Z</time>
      </trkpt>
      <trkpt lat="39.1502550" lon="-6.2514090">
        <ele>451.8</ele>
        <time>2021-10-18T08:31:31Z</time>
      </trkpt>
      <trkpt lat="39.1502150" lon="-6.2514100">
        <ele>452.0</ele>
        <time>2021-10-18T08:31:32Z</time>
      </trkpt>
      <trkpt lat="39.1500510" lon="-6.2514600">
        <ele>452.0</ele>
        <time>2021-10-18T08:31:36Z</time>
      </trkpt>
      <trkpt lat="39.1499240" lon="-6.2515020">
        <ele>452.2</ele>
        <time>2021-10-18T08:31:39Z</time>
      </trkpt>
      <trkpt lat="39.1498040" lon="-6.2515600">
        <ele>452.6</ele>
        <time>2021-10-18T08:31:43Z</time>
      </trkpt>
      <trkpt lat="39.1494930" lon="-6.2516930">
        <ele>453.4</ele>
        <time>2021-10-18T08:31:51Z</time>
      </trkpt>
      <trkpt lat="39.1494620" lon="-6.2516920">
        <ele>453.4</ele>
        <time>2021-10-18T08:31:52Z</time>
      </trkpt>
      <trkpt lat="39.1492760" lon="-6.2516750">
        <ele>454.2</ele>
        <time>2021-10-18T08:31:58Z</time>
      </trkpt>
      <trkpt lat="39.1491630" lon="-6.2516660">
        <ele>454.6</ele>
        <time>2021-10-18T08:32:02Z</time>
      </trkpt>
      <trkpt lat="39.1491020" lon="-6.2516710">
        <ele>454.8</ele>
        <time>2021-10-18T08:32:04Z</time>
      </trkpt>
      <trkpt lat="39.1489410" lon="-6.2516960">
        <ele>455.6</ele>
        <time>2021-10-18T08:32:10Z</time>
      </trkpt>
      <trkpt lat="39.1488770" lon="-6.2517010">
        <ele>455.8</ele>
        <time>2021-10-18T08:32:11Z</time>
      </trkpt>
      <trkpt lat="39.1486520" lon="-6.2516580">
        <ele>456.2</ele>
        <time>2021-10-18T08:32:18Z</time>
      </trkpt>
      <trkpt lat="39.1485000" lon="-6.2516080">
        <ele>456.6</ele>
        <time>2021-10-18T08:32:23Z</time>
      </trkpt>
      <trkpt lat="39.1484400" lon="-6.2515940">
        <ele>456.6</ele>
        <time>2021-10-18T08:32:25Z</time>
      </trkpt>
      <trkpt lat="39.1483450" lon="-6.2515690">
        <ele>456.8</ele>
        <time>2021-10-18T08:32:28Z</time>
      </trkpt>
      <trkpt lat="39.1482750" lon="-6.2515610">
        <ele>457.0</ele>
        <time>2021-10-18T08:32:30Z</time>
      </trkpt>
      <trkpt lat="39.1478890" lon="-6.2515710">
        <ele>457.0</ele>
        <time>2021-10-18T08:32:40Z</time>
      </trkpt>
      <trkpt lat="39.1476630" lon="-6.2515730">
        <ele>456.6</ele>
        <time>2021-10-18T08:32:45Z</time>
      </trkpt>
      <trkpt lat="39.1474710" lon="-6.2515410">
        <ele>456.2</ele>
        <time>2021-10-18T08:32:49Z</time>
      </trkpt>
      <trkpt lat="39.1472040" lon="-6.2514660">
        <ele>455.6</ele>
        <time>2021-10-18T08:32:54Z</time>
      </trkpt>
      <trkpt lat="39.1471460" lon="-6.2514470">
        <ele>455.4</ele>
        <time>2021-10-18T08:32:55Z</time>
      </trkpt>
      <trkpt lat="39.1470240" lon="-6.2514040">
        <ele>455.2</ele>
        <time>2021-10-18T08:32:58Z</time>
      </trkpt>
      <trkpt lat="39.1468220" lon="-6.2513450">
        <ele>454.6</ele>
        <time>2021-10-18T08:33:00Z</time>
      </trkpt>
      <trkpt lat="39.1467510" lon="-6.2513260">
        <ele>454.4</ele>
        <time>2021-10-18T08:33:01Z</time>
      </trkpt>
      <trkpt lat="39.1466770" lon="-6.2513070">
        <ele>453.4</ele>
        <time>2021-10-18T08:33:02Z</time>
      </trkpt>
      <trkpt lat="39.1462810" lon="-6.2512480">
        <ele>452.0</ele>
        <time>2021-10-18T08:33:07Z</time>
      </trkpt>
      <trkpt lat="39.1459640" lon="-6.2512770">
        <ele>450.8</ele>
        <time>2021-10-18T08:33:11Z</time>
      </trkpt>
      <trkpt lat="39.1458160" lon="-6.2513000">
        <ele>450.2</ele>
        <time>2021-10-18T08:33:13Z</time>
      </trkpt>
      <trkpt lat="39.1456670" lon="-6.2513240">
        <ele>449.6</ele>
        <time>2021-10-18T08:33:15Z</time>
      </trkpt>
      <trkpt lat="39.1453860" lon="-6.2514230">
        <ele>449.0</ele>
        <time>2021-10-18T08:33:19Z</time>
      </trkpt>
      <trkpt lat="39.1452550" lon="-6.2515000">
        <ele>448.6</ele>
        <time>2021-10-18T08:33:21Z</time>
      </trkpt>
      <trkpt lat="39.1449310" lon="-6.2517040">
        <ele>447.4</ele>
        <time>2021-10-18T08:33:26Z</time>
      </trkpt>
      <trkpt lat="39.1448650" lon="-6.2517470">
        <ele>446.8</ele>
        <time>2021-10-18T08:33:27Z</time>
      </trkpt>
      <trkpt lat="39.1448030" lon="-6.2517860">
        <ele>446.4</ele>
        <time>2021-10-18T08:33:29Z</time>
      </trkpt>
      <trkpt lat="39.1444470" lon="-6.2520180">
        <ele>445.4</ele>
        <time>2021-10-18T08:33:34Z</time>
      </trkpt>
      <trkpt lat="39.1443860" lon="-6.2520590">
        <ele>445.2</ele>
        <time>2021-10-18T08:33:35Z</time>
      </trkpt>
      <trkpt lat="39.1441420" lon="-6.2522430">
        <ele>444.2</ele>
        <time>2021-10-18T08:33:39Z</time>
      </trkpt>
      <trkpt lat="39.1439500" lon="-6.2523830">
        <ele>443.0</ele>
        <time>2021-10-18T08:33:42Z</time>
      </trkpt>
      <trkpt lat="39.1437640" lon="-6.2525020">
        <ele>441.8</ele>
        <time>2021-10-18T08:33:45Z</time>
      </trkpt>
      <trkpt lat="39.1436420" lon="-6.2525550">
        <ele>441.2</ele>
        <time>2021-10-18T08:33:47Z</time>
      </trkpt>
      <trkpt lat="39.1435270" lon="-6.2525770">
        <ele>440.8</ele>
        <time>2021-10-18T08:33:49Z</time>
      </trkpt>
      <trkpt lat="39.1432050" lon="-6.2525930">
        <ele>440.2</ele>
        <time>2021-10-18T08:33:55Z</time>
      </trkpt>
      <trkpt lat="39.1430420" lon="-6.2526200">
        <ele>439.6</ele>
        <time>2021-10-18T08:33:59Z</time>
      </trkpt>
      <trkpt lat="39.1428140" lon="-6.2527010">
        <ele>438.8</ele>
        <time>2021-10-18T08:34:02Z</time>
      </trkpt>
      <trkpt lat="39.1427540" lon="-6.2527220">
        <ele>438.4</ele>
        <time>2021-10-18T08:34:04Z</time>
      </trkpt>
      <trkpt lat="39.1423270" lon="-6.2528590">
        <ele>437.2</ele>
        <time>2021-10-18T08:34:10Z</time>
      </trkpt>
      <trkpt lat="39.1422660" lon="-6.2528800">
        <ele>436.8</ele>
        <time>2021-10-18T08:34:11Z</time>
      </trkpt>
      <trkpt lat="39.1421430" lon="-6.2529370">
        <ele>436.2</ele>
        <time>2021-10-18T08:34:14Z</time>
      </trkpt>
      <trkpt lat="39.1420310" lon="-6.2530050">
        <ele>436.2</ele>
        <time>2021-10-18T08:34:15Z</time>
      </trkpt>
      <trkpt lat="39.1419320" lon="-6.2530840">
        <ele>436.0</ele>
        <time>2021-10-18T08:34:17Z</time>
      </trkpt>
      <trkpt lat="39.1417500" lon="-6.2532360">
        <ele>435.4</ele>
        <time>2021-10-18T08:34:22Z</time>
      </trkpt>
      <trkpt lat="39.1417280" lon="-6.2532470">
        <ele>435.2</ele>
        <time>2021-10-18T08:34:23Z</time>
      </trkpt>
      <trkpt lat="39.1417100" lon="-6.2532590">
        <ele>434.2</ele>
        <time>2021-10-18T08:34:26Z</time>
      </trkpt>
      <trkpt lat="39.1417100" lon="-6.2532590">
        <ele>434.0</ele>
        <time>2021-10-18T08:34:27Z</time>
      </trkpt>
      <trkpt lat="39.1416850" lon="-6.2532870">
        <ele>433.6</ele>
        <time>2021-10-18T08:34:34Z</time>
      </trkpt>
      <trkpt lat="39.1416230" lon="-6.2533590">
        <ele>433.4</ele>
        <time>2021-10-18T08:34:36Z</time>
      </trkpt>
      <trkpt lat="39.1414750" lon="-6.2535490">
        <ele>433.0</ele>
        <time>2021-10-18T08:34:41Z</time>
      </trkpt>
      <trkpt lat="39.1414390" lon="-6.2535880">
        <ele>432.8</ele>
        <time>2021-10-18T08:34:42Z</time>
      </trkpt>
      <trkpt lat="39.1412410" lon="-6.2537570">
        <ele>432.4</ele>
        <time>2021-10-18T08:34:47Z</time>
      </trkpt>
      <trkpt lat="39.1408570" lon="-6.2540360">
        <ele>431.8</ele>
        <time>2021-10-18T08:34:56Z</time>
      </trkpt>
      <trkpt lat="39.1408140" lon="-6.2540660">
        <ele>431.6</ele>
        <time>2021-10-18T08:34:57Z</time>
      </trkpt>
      <trkpt lat="39.1406750" lon="-6.2541640">
        <ele>431.4</ele>
        <time>2021-10-18T08:35:00Z</time>
      </trkpt>
      <trkpt lat="39.1404500" lon="-6.2543150">
        <ele>430.6</ele>
        <time>2021-10-18T08:35:05Z</time>
      </trkpt>
      <trkpt lat="39.1403190" lon="-6.2543810">
        <ele>430.4</ele>
        <time>2021-10-18T08:35:08Z</time>
      </trkpt>
      <trkpt lat="39.1400760" lon="-6.2544820">
        <ele>429.6</ele>
        <time>2021-10-18T08:35:13Z</time>
      </trkpt>
      <trkpt lat="39.1399250" lon="-6.2545290">
        <ele>428.8</ele>
        <time>2021-10-18T08:35:16Z</time>
      </trkpt>
      <trkpt lat="39.1396710" lon="-6.2545870">
        <ele>428.4</ele>
        <time>2021-10-18T08:35:21Z</time>
      </trkpt>
      <trkpt lat="39.1394640" lon="-6.2546440">
        <ele>428.0</ele>
        <time>2021-10-18T08:35:25Z</time>
      </trkpt>
      <trkpt lat="39.1391570" lon="-6.2548020">
        <ele>427.4</ele>
        <time>2021-10-18T08:35:31Z</time>
      </trkpt>
      <trkpt lat="39.1390570" lon="-6.2548570">
        <ele>427.2</ele>
        <time>2021-10-18T08:35:33Z</time>
      </trkpt>
      <trkpt lat="39.1386730" lon="-6.2550480">
        <ele>426.4</ele>
        <time>2021-10-18T08:35:41Z</time>
      </trkpt>
      <trkpt lat="39.1385790" lon="-6.2550900">
        <ele>426.2</ele>
        <time>2021-10-18T08:35:43Z</time>
      </trkpt>
      <trkpt lat="39.1382840" lon="-6.2552230">
        <ele>425.2</ele>
        <time>2021-10-18T08:35:49Z</time>
      </trkpt>
      <trkpt lat="39.1382270" lon="-6.2552490">
        <ele>425.2</ele>
        <time>2021-10-18T08:35:51Z</time>
      </trkpt>
      <trkpt lat="39.1378280" lon="-6.2553650">
        <ele>424.6</ele>
        <time>2021-10-18T08:35:58Z</time>
      </trkpt>
      <trkpt lat="39.1375180" lon="-6.2554360">
        <ele>424.2</ele>
        <time>2021-10-18T08:36:04Z</time>
      </trkpt>
      <trkpt lat="39.1374700" lon="-6.2554460">
        <ele>424.2</ele>
        <time>2021-10-18T08:36:05Z</time>
      </trkpt>
      <trkpt lat="39.1373760" lon="-6.2554710">
        <ele>424.0</ele>
        <time>2021-10-18T08:36:08Z</time>
      </trkpt>
      <trkpt lat="39.1369890" lon="-6.2555700">
        <ele>423.4</ele>
        <time>2021-10-18T08:36:15Z</time>
      </trkpt>
      <trkpt lat="39.1367400" lon="-6.2555680">
        <ele>423.0</ele>
        <time>2021-10-18T08:36:20Z</time>
      </trkpt>
      <trkpt lat="39.1366080" lon="-6.2555550">
        <ele>422.8</ele>
        <time>2021-10-18T08:36:23Z</time>
      </trkpt>
      <trkpt lat="39.1361900" lon="-6.2555190">
        <ele>422.2</ele>
        <time>2021-10-18T08:36:32Z</time>
      </trkpt>
      <trkpt lat="39.1361430" lon="-6.2555150">
        <ele>422.0</ele>
        <time>2021-10-18T08:36:33Z</time>
      </trkpt>
      <trkpt lat="39.1358090" lon="-6.2555080">
        <ele>421.4</ele>
        <time>2021-10-18T08:36:40Z</time>
      </trkpt>
      <trkpt lat="39.1356540" lon="-6.2555080">
        <ele>421.2</ele>
        <time>2021-10-18T08:36:43Z</time>
      </trkpt>
      <trkpt lat="39.1354940" lon="-6.2555070">
        <ele>421.0</ele>
        <time>2021-10-18T08:36:46Z</time>
      </trkpt>
      <trkpt lat="39.1353220" lon="-6.2555000">
        <ele>420.6</ele>
        <time>2021-10-18T08:36:50Z</time>
      </trkpt>
      <trkpt lat="39.1352350" lon="-6.2554930">
        <ele>420.2</ele>
        <time>2021-10-18T08:36:52Z</time>
      </trkpt>
      <trkpt lat="39.1349020" lon="-6.2554820">
        <ele>419.8</ele>
        <time>2021-10-18T08:36:59Z</time>
      </trkpt>
      <trkpt lat="39.1348070" lon="-6.2554920">
        <ele>419.6</ele>
        <time>2021-10-18T08:37:01Z</time>
      </trkpt>
      <trkpt lat="39.1346040" lon="-6.2555160">
        <ele>419.4</ele>
        <time>2021-10-18T08:37:05Z</time>
      </trkpt>
      <trkpt lat="39.1345100" lon="-6.2555410">
        <ele>419.2</ele>
        <time>2021-10-18T08:37:07Z</time>
      </trkpt>
      <trkpt lat="39.1342550" lon="-6.2556250">
        <ele>418.6</ele>
        <time>2021-10-18T08:37:12Z</time>
      </trkpt>
      <trkpt lat="39.1341070" lon="-6.2556740">
        <ele>418.6</ele>
        <time>2021-10-18T08:37:15Z</time>
      </trkpt>
      <trkpt lat="39.1340500" lon="-6.2556900">
        <ele>418.6</ele>
        <time>2021-10-18T08:37:16Z</time>
      </trkpt>
      <trkpt lat="39.1338310" lon="-6.2557450">
        <ele>418.2</ele>
        <time>2021-10-18T08:37:21Z</time>
      </trkpt>
      <trkpt lat="39.1335730" lon="-6.2557560">
        <ele>417.6</ele>
        <time>2021-10-18T08:37:26Z</time>
      </trkpt>
      <trkpt lat="39.1334360" lon="-6.2557650">
        <ele>417.0</ele>
        <time>2021-10-18T08:37:29Z</time>
      </trkpt>
      <trkpt lat="39.1332440" lon="-6.2557750">
        <ele>416.6</ele>
        <time>2021-10-18T08:37:33Z</time>
      </trkpt>
      <trkpt lat="39.1330410" lon="-6.2557760">
        <ele>416.4</ele>
        <time>2021-10-18T08:37:37Z</time>
      </trkpt>
      <trkpt lat="39.1329350" lon="-6.2557840">
        <ele>416.2</ele>
        <time>2021-10-18T08:37:39Z</time>
      </trkpt>
      <trkpt lat="39.1328350" lon="-6.2558000">
        <ele>416.2</ele>
        <time>2021-10-18T08:37:41Z</time>
      </trkpt>
      <trkpt lat="39.1327380" lon="-6.2558340">
        <ele>415.8</ele>
        <time>2021-10-18T08:37:43Z</time>
      </trkpt>
      <trkpt lat="39.1326810" lon="-6.2558610">
        <ele>415.4</ele>
        <time>2021-10-18T08:37:45Z</time>
      </trkpt>
      <trkpt lat="39.1324500" lon="-6.2559350">
        <ele>415.2</ele>
        <time>2021-10-18T08:37:49Z</time>
      </trkpt>
      <trkpt lat="39.1324020" lon="-6.2559370">
        <ele>415.0</ele>
        <time>2021-10-18T08:37:51Z</time>
      </trkpt>
      <trkpt lat="39.1323000" lon="-6.2559470">
        <ele>415.0</ele>
        <time>2021-10-18T08:37:52Z</time>
      </trkpt>
      <trkpt lat="39.1320900" lon="-6.2559720">
        <ele>414.4</ele>
        <time>2021-10-18T08:37:57Z</time>
      </trkpt>
      <trkpt lat="39.1320570" lon="-6.2559740">
        <ele>414.4</ele>
        <time>2021-10-18T08:37:58Z</time>
      </trkpt>
      <trkpt lat="39.1316860" lon="-6.2560830">
        <ele>413.6</ele>
        <time>2021-10-18T08:38:06Z</time>
      </trkpt>
      <trkpt lat="39.1314330" lon="-6.2561280">
        <ele>413.4</ele>
        <time>2021-10-18T08:38:11Z</time>
      </trkpt>
      <trkpt lat="39.1313960" lon="-6.2561290">
        <ele>413.2</ele>
        <time>2021-10-18T08:38:12Z</time>
      </trkpt>
      <trkpt lat="39.1313510" lon="-6.2561330">
        <ele>413.2</ele>
        <time>2021-10-18T08:38:13Z</time>
      </trkpt>
      <trkpt lat="39.1312250" lon="-6.2561860">
        <ele>413.0</ele>
        <time>2021-10-18T08:38:16Z</time>
      </trkpt>
      <trkpt lat="39.1311770" lon="-6.2562000">
        <ele>413.0</ele>
        <time>2021-10-18T08:38:17Z</time>
      </trkpt>
      <trkpt lat="39.1309230" lon="-6.2562570">
        <ele>412.4</ele>
        <time>2021-10-18T08:38:23Z</time>
      </trkpt>
      <trkpt lat="39.1308740" lon="-6.2562700">
        <ele>412.2</ele>
        <time>2021-10-18T08:38:24Z</time>
      </trkpt>
      <trkpt lat="39.1305540" lon="-6.2563460">
        <ele>411.8</ele>
        <time>2021-10-18T08:38:30Z</time>
      </trkpt>
      <trkpt lat="39.1305030" lon="-6.2563580">
        <ele>411.8</ele>
        <time>2021-10-18T08:38:31Z</time>
      </trkpt>
      <trkpt lat="39.1303510" lon="-6.2563980">
        <ele>411.6</ele>
        <time>2021-10-18T08:38:34Z</time>
      </trkpt>
      <trkpt lat="39.1301060" lon="-6.2565120">
        <ele>411.2</ele>
        <time>2021-10-18T08:38:39Z</time>
      </trkpt>
      <trkpt lat="39.1300460" lon="-6.2565420">
        <ele>411.0</ele>
        <time>2021-10-18T08:38:40Z</time>
      </trkpt>
      <trkpt lat="39.1298060" lon="-6.2566990">
        <ele>410.8</ele>
        <time>2021-10-18T08:38:45Z</time>
      </trkpt>
      <trkpt lat="39.1294890" lon="-6.2569160">
        <ele>410.8</ele>
        <time>2021-10-18T08:38:52Z</time>
      </trkpt>
      <trkpt lat="39.1290780" lon="-6.2571110">
        <ele>410.2</ele>
        <time>2021-10-18T08:39:00Z</time>
      </trkpt>
      <trkpt lat="39.1289740" lon="-6.2571630">
        <ele>410.0</ele>
        <time>2021-10-18T08:39:02Z</time>
      </trkpt>
      <trkpt lat="39.1289150" lon="-6.2571980">
        <ele>410.0</ele>
        <time>2021-10-18T08:39:03Z</time>
      </trkpt>
      <trkpt lat="39.1287840" lon="-6.2572980">
        <ele>409.6</ele>
        <time>2021-10-18T08:39:06Z</time>
      </trkpt>
      <trkpt lat="39.1287390" lon="-6.2573330">
        <ele>409.4</ele>
        <time>2021-10-18T08:39:07Z</time>
      </trkpt>
      <trkpt lat="39.1284860" lon="-6.2576030">
        <ele>409.0</ele>
        <time>2021-10-18T08:39:13Z</time>
      </trkpt>
      <trkpt lat="39.1284540" lon="-6.2576440">
        <ele>409.0</ele>
        <time>2021-10-18T08:39:14Z</time>
      </trkpt>
      <trkpt lat="39.1284130" lon="-6.2576960">
        <ele>408.8</ele>
        <time>2021-10-18T08:39:15Z</time>
      </trkpt>
      <trkpt lat="39.1282700" lon="-6.2578420">
        <ele>408.4</ele>
        <time>2021-10-18T08:39:18Z</time>
      </trkpt>
      <trkpt lat="39.1281840" lon="-6.2579050">
        <ele>408.2</ele>
        <time>2021-10-18T08:39:20Z</time>
      </trkpt>
      <trkpt lat="39.1280770" lon="-6.2579660">
        <ele>408.2</ele>
        <time>2021-10-18T08:39:22Z</time>
      </trkpt>
      <trkpt lat="39.1279390" lon="-6.2580360">
        <ele>408.2</ele>
        <time>2021-10-18T08:39:25Z</time>
      </trkpt>
      <trkpt lat="39.1277640" lon="-6.2581980">
        <ele>408.0</ele>
        <time>2021-10-18T08:39:29Z</time>
      </trkpt>
      <trkpt lat="39.1276850" lon="-6.2582950">
        <ele>407.8</ele>
        <time>2021-10-18T08:39:31Z</time>
      </trkpt>
      <trkpt lat="39.1276320" lon="-6.2583440">
        <ele>407.8</ele>
        <time>2021-10-18T08:39:32Z</time>
      </trkpt>
      <trkpt lat="39.1274870" lon="-6.2584290">
        <ele>407.4</ele>
        <time>2021-10-18T08:39:35Z</time>
      </trkpt>
      <trkpt lat="39.1270690" lon="-6.2586340">
        <ele>406.8</ele>
        <time>2021-10-18T08:39:43Z</time>
      </trkpt>
      <trkpt lat="39.1269590" lon="-6.2586630">
        <ele>406.8</ele>
        <time>2021-10-18T08:39:45Z</time>
      </trkpt>
      <trkpt lat="39.1267340" lon="-6.2587000">
        <ele>406.6</ele>
        <time>2021-10-18T08:39:49Z</time>
      </trkpt>
      <trkpt lat="39.1264390" lon="-6.2587570">
        <ele>406.2</ele>
        <time>2021-10-18T08:39:54Z</time>
      </trkpt>
      <trkpt lat="39.1263800" lon="-6.2587700">
        <ele>406.2</ele>
        <time>2021-10-18T08:39:55Z</time>
      </trkpt>
      <trkpt lat="39.1262770" lon="-6.2587970">
        <ele>406.0</ele>
        <time>2021-10-18T08:39:57Z</time>
      </trkpt>
      <trkpt lat="39.1261740" lon="-6.2588470">
        <ele>406.0</ele>
        <time>2021-10-18T08:39:59Z</time>
      </trkpt>
      <trkpt lat="39.1261170" lon="-6.2588840">
        <ele>405.8</ele>
        <time>2021-10-18T08:40:00Z</time>
      </trkpt>
      <trkpt lat="39.1256050" lon="-6.2591630">
        <ele>405.0</ele>
        <time>2021-10-18T08:40:10Z</time>
      </trkpt>
      <trkpt lat="39.1254590" lon="-6.2592760">
        <ele>404.8</ele>
        <time>2021-10-18T08:40:13Z</time>
      </trkpt>
      <trkpt lat="39.1253650" lon="-6.2593670">
        <ele>404.4</ele>
        <time>2021-10-18T08:40:16Z</time>
      </trkpt>
      <trkpt lat="39.1250320" lon="-6.2596800">
        <ele>403.6</ele>
        <time>2021-10-18T08:40:22Z</time>
      </trkpt>
      <trkpt lat="39.1248200" lon="-6.2598370">
        <ele>403.4</ele>
        <time>2021-10-18T08:40:26Z</time>
      </trkpt>
      <trkpt lat="39.1244280" lon="-6.2601060">
        <ele>402.8</ele>
        <time>2021-10-18T08:40:33Z</time>
      </trkpt>
      <trkpt lat="39.1243780" lon="-6.2601510">
        <ele>402.8</ele>
        <time>2021-10-18T08:40:34Z</time>
      </trkpt>
      <trkpt lat="39.1242820" lon="-6.2602460">
        <ele>402.6</ele>
        <time>2021-10-18T08:40:36Z</time>
      </trkpt>
      <trkpt lat="39.1242210" lon="-6.2602930">
        <ele>402.6</ele>
        <time>2021-10-18T08:40:37Z</time>
      </trkpt>
      <trkpt lat="39.1240480" lon="-6.2603810">
        <ele>402.0</ele>
        <time>2021-10-18T08:40:40Z</time>
      </trkpt>
      <trkpt lat="39.1239390" lon="-6.2604120">
        <ele>401.6</ele>
        <time>2021-10-18T08:40:42Z</time>
      </trkpt>
      <trkpt lat="39.1238780" lon="-6.2604290">
        <ele>401.6</ele>
        <time>2021-10-18T08:40:43Z</time>
      </trkpt>
      <trkpt lat="39.1236810" lon="-6.2605110">
        <ele>401.2</ele>
        <time>2021-10-18T08:40:46Z</time>
      </trkpt>
      <trkpt lat="39.1235770" lon="-6.2605760">
        <ele>401.0</ele>
        <time>2021-10-18T08:40:48Z</time>
      </trkpt>
      <trkpt lat="39.1230890" lon="-6.2608000">
        <ele>400.6</ele>
        <time>2021-10-18T08:40:56Z</time>
      </trkpt>
      <trkpt lat="39.1228980" lon="-6.2608800">
        <ele>400.4</ele>
        <time>2021-10-18T08:40:59Z</time>
      </trkpt>
      <trkpt lat="39.1224740" lon="-6.2610840">
        <ele>399.6</ele>
        <time>2021-10-18T08:41:06Z</time>
      </trkpt>
      <trkpt lat="39.1220540" lon="-6.2613040">
        <ele>399.4</ele>
        <time>2021-10-18T08:41:13Z</time>
      </trkpt>
      <trkpt lat="39.1216860" lon="-6.2614360">
        <ele>398.6</ele>
        <time>2021-10-18T08:41:19Z</time>
      </trkpt>
      <trkpt lat="39.1215700" lon="-6.2614790">
        <ele>398.6</ele>
        <time>2021-10-18T08:41:21Z</time>
      </trkpt>
      <trkpt lat="39.1213910" lon="-6.2615550">
        <ele>398.0</ele>
        <time>2021-10-18T08:41:24Z</time>
      </trkpt>
      <trkpt lat="39.1210750" lon="-6.2617230">
        <ele>397.6</ele>
        <time>2021-10-18T08:41:30Z</time>
      </trkpt>
      <trkpt lat="39.1207120" lon="-6.2618710">
        <ele>397.0</ele>
        <time>2021-10-18T08:41:36Z</time>
      </trkpt>
      <trkpt lat="39.1206520" lon="-6.2618990">
        <ele>397.2</ele>
        <time>2021-10-18T08:41:37Z</time>
      </trkpt>
      <trkpt lat="39.1202290" lon="-6.2621100">
        <ele>396.6</ele>
        <time>2021-10-18T08:41:44Z</time>
      </trkpt>
      <trkpt lat="39.1197250" lon="-6.2622930">
        <ele>396.0</ele>
        <time>2021-10-18T08:41:52Z</time>
      </trkpt>
      <trkpt lat="39.1192210" lon="-6.2624960">
        <ele>395.4</ele>
        <time>2021-10-18T08:42:00Z</time>
      </trkpt>
      <trkpt lat="39.1189560" lon="-6.2626310">
        <ele>395.0</ele>
        <time>2021-10-18T08:42:04Z</time>
      </trkpt>
      <trkpt lat="39.1184950" lon="-6.2628330">
        <ele>394.6</ele>
        <time>2021-10-18T08:42:11Z</time>
      </trkpt>
      <trkpt lat="39.1181020" lon="-6.2629680">
        <ele>394.0</ele>
        <time>2021-10-18T08:42:17Z</time>
      </trkpt>
      <trkpt lat="39.1178940" lon="-6.2630390">
        <ele>393.6</ele>
        <time>2021-10-18T08:42:20Z</time>
      </trkpt>
      <trkpt lat="39.1176970" lon="-6.2630990">
        <ele>393.2</ele>
        <time>2021-10-18T08:42:24Z</time>
      </trkpt>
      <trkpt lat="39.1175110" lon="-6.2631620">
        <ele>393.0</ele>
        <time>2021-10-18T08:42:27Z</time>
      </trkpt>
      <trkpt lat="39.1173790" lon="-6.2632130">
        <ele>393.0</ele>
        <time>2021-10-18T08:42:28Z</time>
      </trkpt>
      <trkpt lat="39.1171090" lon="-6.2632970">
        <ele>392.4</ele>
        <time>2021-10-18T08:42:32Z</time>
      </trkpt>
      <trkpt lat="39.1170010" lon="-6.2633360">
        <ele>392.0</ele>
        <time>2021-10-18T08:42:34Z</time>
      </trkpt>
      <trkpt lat="39.1169410" lon="-6.2633540">
        <ele>392.0</ele>
        <time>2021-10-18T08:42:35Z</time>
      </trkpt>
      <trkpt lat="39.1168070" lon="-6.2633770">
        <ele>391.6</ele>
        <time>2021-10-18T08:42:37Z</time>
      </trkpt>
      <trkpt lat="39.1166460" lon="-6.2633670">
        <ele>391.6</ele>
        <time>2021-10-18T08:42:40Z</time>
      </trkpt>
      <trkpt lat="39.1164670" lon="-6.2634130">
        <ele>391.4</ele>
        <time>2021-10-18T08:42:43Z</time>
      </trkpt>
      <trkpt lat="39.1161880" lon="-6.2635190">
        <ele>391.0</ele>
        <time>2021-10-18T08:42:48Z</time>
      </trkpt>
      <trkpt lat="39.1160620" lon="-6.2635430">
        <ele>390.8</ele>
        <time>2021-10-18T08:42:50Z</time>
      </trkpt>
      <trkpt lat="39.1155980" lon="-6.2636690">
        <ele>390.2</ele>
        <time>2021-10-18T08:42:57Z</time>
      </trkpt>
      <trkpt lat="39.1153450" lon="-6.2636990">
        <ele>390.0</ele>
        <time>2021-10-18T08:43:01Z</time>
      </trkpt>
      <trkpt lat="39.1151500" lon="-6.2637640">
        <ele>390.0</ele>
        <time>2021-10-18T08:43:04Z</time>
      </trkpt>
      <trkpt lat="39.1150850" lon="-6.2637840">
        <ele>389.8</ele>
        <time>2021-10-18T08:43:05Z</time>
      </trkpt>
      <trkpt lat="39.1145630" lon="-6.2639350">
        <ele>389.4</ele>
        <time>2021-10-18T08:43:13Z</time>
      </trkpt>
      <trkpt lat="39.1142950" lon="-6.2639790">
        <ele>388.8</ele>
        <time>2021-10-18T08:43:17Z</time>
      </trkpt>
      <trkpt lat="39.1140790" lon="-6.2639870">
        <ele>388.4</ele>
        <time>2021-10-18T08:43:20Z</time>
      </trkpt>
      <trkpt lat="39.1137420" lon="-6.2639960">
        <ele>387.8</ele>
        <time>2021-10-18T08:43:25Z</time>
      </trkpt>
      <trkpt lat="39.1136300" lon="-6.2640340">
        <ele>387.8</ele>
        <time>2021-10-18T08:43:27Z</time>
      </trkpt>
      <trkpt lat="39.1131080" lon="-6.2642340">
        <ele>386.8</ele>
        <time>2021-10-18T08:43:35Z</time>
      </trkpt>
      <trkpt lat="39.1125970" lon="-6.2644110">
        <ele>386.0</ele>
        <time>2021-10-18T08:43:43Z</time>
      </trkpt>
      <trkpt lat="39.1122660" lon="-6.2645360">
        <ele>385.6</ele>
        <time>2021-10-18T08:43:48Z</time>
      </trkpt>
      <trkpt lat="39.1121290" lon="-6.2645700">
        <ele>385.6</ele>
        <time>2021-10-18T08:43:50Z</time>
      </trkpt>
      <trkpt lat="39.1119900" lon="-6.2645770">
        <ele>385.4</ele>
        <time>2021-10-18T08:43:52Z</time>
      </trkpt>
      <trkpt lat="39.1118420" lon="-6.2645530">
        <ele>385.2</ele>
        <time>2021-10-18T08:43:54Z</time>
      </trkpt>
      <trkpt lat="39.1114010" lon="-6.2644640">
        <ele>384.8</ele>
        <time>2021-10-18T08:44:01Z</time>
      </trkpt>
      <trkpt lat="39.1113310" lon="-6.2644580">
        <ele>384.8</ele>
        <time>2021-10-18T08:44:02Z</time>
      </trkpt>
      <trkpt lat="39.1112860" lon="-6.2644600">
        <ele>384.6</ele>
        <time>2021-10-18T08:44:03Z</time>
      </trkpt>
      <trkpt lat="39.1112350" lon="-6.2644670">
        <ele>384.6</ele>
        <time>2021-10-18T08:44:04Z</time>
      </trkpt>
      <trkpt lat="39.1111900" lon="-6.2644810">
        <ele>384.4</ele>
        <time>2021-10-18T08:44:05Z</time>
      </trkpt>
      <trkpt lat="39.1111530" lon="-6.2644980">
        <ele>384.2</ele>
        <time>2021-10-18T08:44:06Z</time>
      </trkpt>
      <trkpt lat="39.1110680" lon="-6.2645430">
        <ele>383.6</ele>
        <time>2021-10-18T08:44:09Z</time>
      </trkpt>
      <trkpt lat="39.1110460" lon="-6.2645550">
        <ele>383.2</ele>
        <time>2021-10-18T08:44:11Z</time>
      </trkpt>
      <trkpt lat="39.1110310" lon="-6.2645500">
        <ele>383.0</ele>
        <time>2021-10-18T08:44:13Z</time>
      </trkpt>
      <trkpt lat="39.1110130" lon="-6.2645480">
        <ele>382.8</ele>
        <time>2021-10-18T08:44:15Z</time>
      </trkpt>
      <trkpt lat="39.1110010" lon="-6.2645520">
        <ele>382.8</ele>
        <time>2021-10-18T08:44:17Z</time>
      </trkpt>
      <trkpt lat="39.1110010" lon="-6.2645520">
        <ele>382.6</ele>
        <time>2021-10-18T08:44:19Z</time>
      </trkpt>
      <trkpt lat="39.1109680" lon="-6.2645670">
        <ele>382.6</ele>
        <time>2021-10-18T08:45:05Z</time>
      </trkpt>
      <trkpt lat="39.1109230" lon="-6.2645860">
        <ele>382.4</ele>
        <time>2021-10-18T08:45:07Z</time>
      </trkpt>
      <trkpt lat="39.1109000" lon="-6.2646030">
        <ele>382.2</ele>
        <time>2021-10-18T08:45:08Z</time>
      </trkpt>
      <trkpt lat="39.1107870" lon="-6.2647210">
        <ele>382.0</ele>
        <time>2021-10-18T08:45:13Z</time>
      </trkpt>
      <trkpt lat="39.1106290" lon="-6.2649310">
        <ele>381.8</ele>
        <time>2021-10-18T08:45:19Z</time>
      </trkpt>
      <trkpt lat="39.1103220" lon="-6.2652060">
        <ele>381.4</ele>
        <time>2021-10-18T08:45:27Z</time>
      </trkpt>
      <trkpt lat="39.1099790" lon="-6.2654950">
        <ele>381.4</ele>
        <time>2021-10-18T08:45:34Z</time>
      </trkpt>
      <trkpt lat="39.1098830" lon="-6.2655990">
        <ele>381.2</ele>
        <time>2021-10-18T08:45:36Z</time>
      </trkpt>
      <trkpt lat="39.1096720" lon="-6.2658020">
        <ele>380.8</ele>
        <time>2021-10-18T08:45:40Z</time>
      </trkpt>
      <trkpt lat="39.1096290" lon="-6.2658380">
        <ele>380.6</ele>
        <time>2021-10-18T08:45:41Z</time>
      </trkpt>
      <trkpt lat="39.1093430" lon="-6.2660030">
        <ele>380.4</ele>
        <time>2021-10-18T08:45:46Z</time>
      </trkpt>
      <trkpt lat="39.1092110" lon="-6.2660880">
        <ele>380.2</ele>
        <time>2021-10-18T08:45:48Z</time>
      </trkpt>
      <trkpt lat="39.1090040" lon="-6.2662800">
        <ele>379.6</ele>
        <time>2021-10-18T08:45:52Z</time>
      </trkpt>
      <trkpt lat="39.1088150" lon="-6.2665320">
        <ele>379.0</ele>
        <time>2021-10-18T08:45:56Z</time>
      </trkpt>
      <trkpt lat="39.1086600" lon="-6.2667500">
        <ele>378.8</ele>
        <time>2021-10-18T08:45:59Z</time>
      </trkpt>
      <trkpt lat="39.1083490" lon="-6.2670840">
        <ele>378.4</ele>
        <time>2021-10-18T08:46:05Z</time>
      </trkpt>
      <trkpt lat="39.1081940" lon="-6.2672760">
        <ele>378.2</ele>
        <time>2021-10-18T08:46:08Z</time>
      </trkpt>
      <trkpt lat="39.1081540" lon="-6.2673380">
        <ele>378.0</ele>
        <time>2021-10-18T08:46:09Z</time>
      </trkpt>
      <trkpt lat="39.1081220" lon="-6.2673870">
        <ele>377.8</ele>
        <time>2021-10-18T08:46:10Z</time>
      </trkpt>
      <trkpt lat="39.1080810" lon="-6.2674440">
        <ele>377.6</ele>
        <time>2021-10-18T08:46:11Z</time>
      </trkpt>
      <trkpt lat="39.1079780" lon="-6.2675280">
        <ele>377.4</ele>
        <time>2021-10-18T08:46:13Z</time>
      </trkpt>
      <trkpt lat="39.1079370" lon="-6.2675460">
        <ele>377.2</ele>
        <time>2021-10-18T08:46:14Z</time>
      </trkpt>
      <trkpt lat="39.1078150" lon="-6.2676010">
        <ele>376.8</ele>
        <time>2021-10-18T08:46:16Z</time>
      </trkpt>
      <trkpt lat="39.1075860" lon="-6.2676770">
        <ele>376.4</ele>
        <time>2021-10-18T08:46:20Z</time>
      </trkpt>
      <trkpt lat="39.1072800" lon="-6.2677980">
        <ele>376.0</ele>
        <time>2021-10-18T08:46:25Z</time>
      </trkpt>
      <trkpt lat="39.1071550" lon="-6.2678430">
        <ele>375.6</ele>
        <time>2021-10-18T08:46:27Z</time>
      </trkpt>
      <trkpt lat="39.1066390" lon="-6.2680180">
        <ele>375.0</ele>
        <time>2021-10-18T08:46:35Z</time>
      </trkpt>
      <trkpt lat="39.1065770" lon="-6.2680410">
        <ele>375.0</ele>
        <time>2021-10-18T08:46:36Z</time>
      </trkpt>
      <trkpt lat="39.1063220" lon="-6.2681240">
        <ele>375.0</ele>
        <time>2021-10-18T08:46:40Z</time>
      </trkpt>
      <trkpt lat="39.1062100" lon="-6.2681560">
        <ele>374.8</ele>
        <time>2021-10-18T08:46:42Z</time>
      </trkpt>
      <trkpt lat="39.1060790" lon="-6.2681970">
        <ele>374.6</ele>
        <time>2021-10-18T08:46:44Z</time>
      </trkpt>
      <trkpt lat="39.1059590" lon="-6.2682330">
        <ele>374.2</ele>
        <time>2021-10-18T08:46:46Z</time>
      </trkpt>
      <trkpt lat="39.1058410" lon="-6.2682700">
        <ele>374.0</ele>
        <time>2021-10-18T08:46:48Z</time>
      </trkpt>
      <trkpt lat="39.1057370" lon="-6.2683360">
        <ele>373.8</ele>
        <time>2021-10-18T08:46:50Z</time>
      </trkpt>
      <trkpt lat="39.1057000" lon="-6.2683690">
        <ele>373.4</ele>
        <time>2021-10-18T08:46:51Z</time>
      </trkpt>
      <trkpt lat="39.1056590" lon="-6.2684150">
        <ele>373.4</ele>
        <time>2021-10-18T08:46:52Z</time>
      </trkpt>
      <trkpt lat="39.1055570" lon="-6.2685870">
        <ele>372.8</ele>
        <time>2021-10-18T08:46:55Z</time>
      </trkpt>
      <trkpt lat="39.1054860" lon="-6.2686650">
        <ele>372.8</ele>
        <time>2021-10-18T08:46:57Z</time>
      </trkpt>
      <trkpt lat="39.1054310" lon="-6.2686920">
        <ele>372.6</ele>
        <time>2021-10-18T08:46:58Z</time>
      </trkpt>
      <trkpt lat="39.1053820" lon="-6.2687030">
        <ele>372.6</ele>
        <time>2021-10-18T08:46:59Z</time>
      </trkpt>
      <trkpt lat="39.1053320" lon="-6.2687090">
        <ele>372.4</ele>
        <time>2021-10-18T08:47:00Z</time>
      </trkpt>
      <trkpt lat="39.1051600" lon="-6.2687290">
        <ele>372.2</ele>
        <time>2021-10-18T08:47:03Z</time>
      </trkpt>
      <trkpt lat="39.1049150" lon="-6.2687590">
        <ele>371.8</ele>
        <time>2021-10-18T08:47:07Z</time>
      </trkpt>
      <trkpt lat="39.1047420" lon="-6.2687830">
        <ele>371.6</ele>
        <time>2021-10-18T08:47:10Z</time>
      </trkpt>
      <trkpt lat="39.1046820" lon="-6.2687930">
        <ele>371.2</ele>
        <time>2021-10-18T08:47:11Z</time>
      </trkpt>
      <trkpt lat="39.1043910" lon="-6.2688180">
        <ele>370.2</ele>
        <time>2021-10-18T08:47:16Z</time>
      </trkpt>
      <trkpt lat="39.1043200" lon="-6.2688110">
        <ele>370.0</ele>
        <time>2021-10-18T08:47:17Z</time>
      </trkpt>
      <trkpt lat="39.1042630" lon="-6.2688130">
        <ele>370.2</ele>
        <time>2021-10-18T08:47:18Z</time>
      </trkpt>
      <trkpt lat="39.1041040" lon="-6.2688720">
        <ele>370.0</ele>
        <time>2021-10-18T08:47:21Z</time>
      </trkpt>
      <trkpt lat="39.1039490" lon="-6.2689250">
        <ele>369.4</ele>
        <time>2021-10-18T08:47:24Z</time>
      </trkpt>
      <trkpt lat="39.1038510" lon="-6.2689290">
        <ele>369.2</ele>
        <time>2021-10-18T08:47:26Z</time>
      </trkpt>
      <trkpt lat="39.1038110" lon="-6.2689200">
        <ele>368.8</ele>
        <time>2021-10-18T08:47:27Z</time>
      </trkpt>
      <trkpt lat="39.1037040" lon="-6.2688890">
        <ele>368.4</ele>
        <time>2021-10-18T08:47:30Z</time>
      </trkpt>
      <trkpt lat="39.1036700" lon="-6.2688870">
        <ele>368.0</ele>
        <time>2021-10-18T08:47:31Z</time>
      </trkpt>
      <trkpt lat="39.1036060" lon="-6.2688750">
        <ele>367.6</ele>
        <time>2021-10-18T08:47:33Z</time>
      </trkpt>
      <trkpt lat="39.1035030" lon="-6.2688530">
        <ele>366.8</ele>
        <time>2021-10-18T08:47:36Z</time>
      </trkpt>
      <trkpt lat="39.1034410" lon="-6.2688510">
        <ele>366.6</ele>
        <time>2021-10-18T08:47:38Z</time>
      </trkpt>
      <trkpt lat="39.1033250" lon="-6.2688190">
        <ele>366.2</ele>
        <time>2021-10-18T08:47:41Z</time>
      </trkpt>
      <trkpt lat="39.1032910" lon="-6.2687950">
        <ele>365.2</ele>
        <time>2021-10-18T08:47:42Z</time>
      </trkpt>
      <trkpt lat="39.1032660" lon="-6.2687720">
        <ele>364.8</ele>
        <time>2021-10-18T08:47:43Z</time>
      </trkpt>
      <trkpt lat="39.1031880" lon="-6.2687150">
        <ele>364.0</ele>
        <time>2021-10-18T08:47:45Z</time>
      </trkpt>
      <trkpt lat="39.1031130" lon="-6.2686790">
        <ele>363.4</ele>
        <time>2021-10-18T08:47:47Z</time>
      </trkpt>
      <trkpt lat="39.1030390" lon="-6.2686430">
        <ele>363.0</ele>
        <time>2021-10-18T08:47:49Z</time>
      </trkpt>
      <trkpt lat="39.1029410" lon="-6.2685990">
        <ele>361.8</ele>
        <time>2021-10-18T08:47:52Z</time>
      </trkpt>
      <trkpt lat="39.1029030" lon="-6.2685950">
        <ele>361.2</ele>
        <time>2021-10-18T08:47:53Z</time>
      </trkpt>
      <trkpt lat="39.1028530" lon="-6.2685990">
        <ele>360.6</ele>
        <time>2021-10-18T08:47:54Z</time>
      </trkpt>
      <trkpt lat="39.1028030" lon="-6.2686030">
        <ele>360.4</ele>
        <time>2021-10-18T08:47:55Z</time>
      </trkpt>
      <trkpt lat="39.1027070" lon="-6.2686070">
        <ele>359.6</ele>
        <time>2021-10-18T08:47:57Z</time>
      </trkpt>
      <trkpt lat="39.1026440" lon="-6.2686210">
        <ele>359.2</ele>
        <time>2021-10-18T08:47:58Z</time>
      </trkpt>
      <trkpt lat="39.1025960" lon="-6.2686300">
        <ele>358.8</ele>
        <time>2021-10-18T08:47:59Z</time>
      </trkpt>
      <trkpt lat="39.1025470" lon="-6.2686340">
        <ele>358.2</ele>
        <time>2021-10-18T08:48:00Z</time>
      </trkpt>
      <trkpt lat="39.1024030" lon="-6.2686460">
        <ele>357.0</ele>
        <time>2021-10-18T08:48:03Z</time>
      </trkpt>
      <trkpt lat="39.1022090" lon="-6.2686660">
        <ele>355.4</ele>
        <time>2021-10-18T08:48:07Z</time>
      </trkpt>
      <trkpt lat="39.1021010" lon="-6.2686860">
        <ele>354.2</ele>
        <time>2021-10-18T08:48:09Z</time>
      </trkpt>
      <trkpt lat="39.1020000" lon="-6.2687080">
        <ele>353.4</ele>
        <time>2021-10-18T08:48:11Z</time>
      </trkpt>
      <trkpt lat="39.1019270" lon="-6.2687120">
        <ele>353.2</ele>
        <time>2021-10-18T08:48:12Z</time>
      </trkpt>
      <trkpt lat="39.1017980" lon="-6.2686860">
        <ele>352.2</ele>
        <time>2021-10-18T08:48:14Z</time>
      </trkpt>
      <trkpt lat="39.1016290" lon="-6.2686260">
        <ele>351.6</ele>
        <time>2021-10-18T08:48:17Z</time>
      </trkpt>
      <trkpt lat="39.1015350" lon="-6.2686110">
        <ele>351.0</ele>
        <time>2021-10-18T08:48:19Z</time>
      </trkpt>
      <trkpt lat="39.1013680" lon="-6.2685960">
        <ele>350.0</ele>
        <time>2021-10-18T08:48:22Z</time>
      </trkpt>
      <trkpt lat="39.1013260" lon="-6.2685960">
        <ele>349.8</ele>
        <time>2021-10-18T08:48:23Z</time>
      </trkpt>
      <trkpt lat="39.1012970" lon="-6.2686000">
        <ele>349.4</ele>
        <time>2021-10-18T08:48:24Z</time>
      </trkpt>
      <trkpt lat="39.1012240" lon="-6.2686150">
        <ele>348.4</ele>
        <time>2021-10-18T08:48:26Z</time>
      </trkpt>
      <trkpt lat="39.1011440" lon="-6.2685990">
        <ele>347.6</ele>
        <time>2021-10-18T08:48:29Z</time>
      </trkpt>
      <trkpt lat="39.1010750" lon="-6.2685790">
        <ele>347.2</ele>
        <time>2021-10-18T08:48:31Z</time>
      </trkpt>
      <trkpt lat="39.1009930" lon="-6.2685840">
        <ele>346.8</ele>
        <time>2021-10-18T08:48:34Z</time>
      </trkpt>
      <trkpt lat="39.1009710" lon="-6.2685860">
        <ele>346.8</ele>
        <time>2021-10-18T08:48:35Z</time>
      </trkpt>
      <trkpt lat="39.1009140" lon="-6.2685360">
        <ele>346.6</ele>
        <time>2021-10-18T08:48:38Z</time>
      </trkpt>
      <trkpt lat="39.1007540" lon="-6.2684840">
        <ele>346.2</ele>
        <time>2021-10-18T08:48:42Z</time>
      </trkpt>
      <trkpt lat="39.1006950" lon="-6.2684700">
        <ele>346.2</ele>
        <time>2021-10-18T08:48:43Z</time>
      </trkpt>
      <trkpt lat="39.1006230" lon="-6.2684560">
        <ele>346.0</ele>
        <time>2021-10-18T08:48:44Z</time>
      </trkpt>
      <trkpt lat="39.1004970" lon="-6.2684550">
        <ele>345.6</ele>
        <time>2021-10-18T08:48:46Z</time>
      </trkpt>
      <trkpt lat="39.1004330" lon="-6.2684650">
        <ele>345.4</ele>
        <time>2021-10-18T08:48:47Z</time>
      </trkpt>
      <trkpt lat="39.1003080" lon="-6.2685060">
        <ele>344.4</ele>
        <time>2021-10-18T08:48:49Z</time>
      </trkpt>
      <trkpt lat="39.1002490" lon="-6.2685340">
        <ele>344.0</ele>
        <time>2021-10-18T08:48:50Z</time>
      </trkpt>
      <trkpt lat="39.1001520" lon="-6.2685900">
        <ele>343.2</ele>
        <time>2021-10-18T08:48:52Z</time>
      </trkpt>
      <trkpt lat="39.1000450" lon="-6.2686630">
        <ele>342.0</ele>
        <time>2021-10-18T08:48:54Z</time>
      </trkpt>
      <trkpt lat="39.0999950" lon="-6.2686790">
        <ele>341.2</ele>
        <time>2021-10-18T08:48:55Z</time>
      </trkpt>
      <trkpt lat="39.0999520" lon="-6.2686940">
        <ele>340.8</ele>
        <time>2021-10-18T08:48:56Z</time>
      </trkpt>
      <trkpt lat="39.0997800" lon="-6.2687650">
        <ele>339.8</ele>
        <time>2021-10-18T08:48:59Z</time>
      </trkpt>
      <trkpt lat="39.0997360" lon="-6.2687960">
        <ele>339.4</ele>
        <time>2021-10-18T08:49:00Z</time>
      </trkpt>
      <trkpt lat="39.0997010" lon="-6.2688290">
        <ele>339.0</ele>
        <time>2021-10-18T08:49:01Z</time>
      </trkpt>
      <trkpt lat="39.0995950" lon="-6.2689010">
        <ele>338.4</ele>
        <time>2021-10-18T08:49:03Z</time>
      </trkpt>
      <trkpt lat="39.0995370" lon="-6.2689270">
        <ele>337.8</ele>
        <time>2021-10-18T08:49:04Z</time>
      </trkpt>
      <trkpt lat="39.0994790" lon="-6.2689620">
        <ele>337.0</ele>
        <time>2021-10-18T08:49:05Z</time>
      </trkpt>
      <trkpt lat="39.0994340" lon="-6.2689970">
        <ele>336.6</ele>
        <time>2021-10-18T08:49:06Z</time>
      </trkpt>
      <trkpt lat="39.0993180" lon="-6.2691000">
        <ele>335.6</ele>
        <time>2021-10-18T08:49:08Z</time>
      </trkpt>
      <trkpt lat="39.0992650" lon="-6.2691380">
        <ele>335.0</ele>
        <time>2021-10-18T08:49:09Z</time>
      </trkpt>
      <trkpt lat="39.0991010" lon="-6.2692680">
        <ele>333.8</ele>
        <time>2021-10-18T08:49:13Z</time>
      </trkpt>
      <trkpt lat="39.0990770" lon="-6.2692910">
        <ele>332.6</ele>
        <time>2021-10-18T08:49:15Z</time>
      </trkpt>
      <trkpt lat="39.0990690" lon="-6.2693010">
        <ele>332.0</ele>
        <time>2021-10-18T08:49:16Z</time>
      </trkpt>
      <trkpt lat="39.0990620" lon="-6.2693090">
        <ele>332.0</ele>
        <time>2021-10-18T08:49:17Z</time>
      </trkpt>
      <trkpt lat="39.0990560" lon="-6.2693340">
        <ele>331.6</ele>
        <time>2021-10-18T08:49:19Z</time>
      </trkpt>
      <trkpt lat="39.0990240" lon="-6.2693890">
        <ele>331.4</ele>
        <time>2021-10-18T08:49:21Z</time>
      </trkpt>
      <trkpt lat="39.0989040" lon="-6.2694730">
        <ele>330.6</ele>
        <time>2021-10-18T08:49:25Z</time>
      </trkpt>
      <trkpt lat="39.0988620" lon="-6.2695040">
        <ele>330.6</ele>
        <time>2021-10-18T08:49:26Z</time>
      </trkpt>
      <trkpt lat="39.0987620" lon="-6.2696290">
        <ele>329.8</ele>
        <time>2021-10-18T08:49:31Z</time>
      </trkpt>
      <trkpt lat="39.0987620" lon="-6.2696290">
        <ele>329.4</ele>
        <time>2021-10-18T08:49:33Z</time>
      </trkpt>
      <trkpt lat="39.0987320" lon="-6.2696690">
        <ele>328.8</ele>
        <time>2021-10-18T08:50:02Z</time>
      </trkpt>
      <trkpt lat="39.0987080" lon="-6.2696920">
        <ele>328.8</ele>
        <time>2021-10-18T08:50:03Z</time>
      </trkpt>
      <trkpt lat="39.0986100" lon="-6.2697760">
        <ele>328.8</ele>
        <time>2021-10-18T08:50:06Z</time>
      </trkpt>
      <trkpt lat="39.0985690" lon="-6.2698080">
        <ele>328.6</ele>
        <time>2021-10-18T08:50:07Z</time>
      </trkpt>
      <trkpt lat="39.0985130" lon="-6.2698510">
        <ele>328.4</ele>
        <time>2021-10-18T08:50:08Z</time>
      </trkpt>
      <trkpt lat="39.0983670" lon="-6.2699490">
        <ele>327.6</ele>
        <time>2021-10-18T08:50:11Z</time>
      </trkpt>
      <trkpt lat="39.0983240" lon="-6.2699870">
        <ele>327.6</ele>
        <time>2021-10-18T08:50:12Z</time>
      </trkpt>
      <trkpt lat="39.0982740" lon="-6.2700340">
        <ele>327.4</ele>
        <time>2021-10-18T08:50:13Z</time>
      </trkpt>
      <trkpt lat="39.0981610" lon="-6.2701270">
        <ele>326.4</ele>
        <time>2021-10-18T08:50:16Z</time>
      </trkpt>
      <trkpt lat="39.0981270" lon="-6.2701590">
        <ele>326.4</ele>
        <time>2021-10-18T08:50:17Z</time>
      </trkpt>
      <trkpt lat="39.0980070" lon="-6.2703100">
        <ele>325.6</ele>
        <time>2021-10-18T08:50:21Z</time>
      </trkpt>
      <trkpt lat="39.0979640" lon="-6.2703670">
        <ele>325.4</ele>
        <time>2021-10-18T08:50:22Z</time>
      </trkpt>
      <trkpt lat="39.0978790" lon="-6.2704540">
        <ele>325.2</ele>
        <time>2021-10-18T08:50:24Z</time>
      </trkpt>
      <trkpt lat="39.0978390" lon="-6.2704910">
        <ele>325.2</ele>
        <time>2021-10-18T08:50:25Z</time>
      </trkpt>
      <trkpt lat="39.0976200" lon="-6.2707530">
        <ele>324.2</ele>
        <time>2021-10-18T08:50:30Z</time>
      </trkpt>
      <trkpt lat="39.0975790" lon="-6.2708020">
        <ele>324.0</ele>
        <time>2021-10-18T08:50:31Z</time>
      </trkpt>
      <trkpt lat="39.0974210" lon="-6.2710130">
        <ele>323.8</ele>
        <time>2021-10-18T08:50:35Z</time>
      </trkpt>
      <trkpt lat="39.0973740" lon="-6.2710550">
        <ele>323.8</ele>
        <time>2021-10-18T08:50:36Z</time>
      </trkpt>
      <trkpt lat="39.0973180" lon="-6.2710880">
        <ele>323.6</ele>
        <time>2021-10-18T08:50:37Z</time>
      </trkpt>
      <trkpt lat="39.0972220" lon="-6.2711120">
        <ele>323.4</ele>
        <time>2021-10-18T08:50:39Z</time>
      </trkpt>
      <trkpt lat="39.0971790" lon="-6.2711150">
        <ele>323.2</ele>
        <time>2021-10-18T08:50:40Z</time>
      </trkpt>
      <trkpt lat="39.0971260" lon="-6.2711110">
        <ele>323.0</ele>
        <time>2021-10-18T08:50:41Z</time>
      </trkpt>
      <trkpt lat="39.0970600" lon="-6.2711060">
        <ele>323.0</ele>
        <time>2021-10-18T08:50:42Z</time>
      </trkpt>
      <trkpt lat="39.0970060" lon="-6.2711120">
        <ele>322.8</ele>
        <time>2021-10-18T08:50:43Z</time>
      </trkpt>
      <trkpt lat="39.0969630" lon="-6.2711130">
        <ele>322.4</ele>
        <time>2021-10-18T08:50:44Z</time>
      </trkpt>
      <trkpt lat="39.0968470" lon="-6.2710840">
        <ele>322.2</ele>
        <time>2021-10-18T08:50:46Z</time>
      </trkpt>
      <trkpt lat="39.0968070" lon="-6.2710850">
        <ele>322.0</ele>
        <time>2021-10-18T08:50:47Z</time>
      </trkpt>
      <trkpt lat="39.0964630" lon="-6.2711230">
        <ele>322.0</ele>
        <time>2021-10-18T08:50:53Z</time>
      </trkpt>
      <trkpt lat="39.0964180" lon="-6.2711240">
        <ele>322.0</ele>
        <time>2021-10-18T08:50:54Z</time>
      </trkpt>
      <trkpt lat="39.0962510" lon="-6.2710820">
        <ele>321.8</ele>
        <time>2021-10-18T08:50:57Z</time>
      </trkpt>
      <trkpt lat="39.0961920" lon="-6.2710680">
        <ele>321.8</ele>
        <time>2021-10-18T08:50:58Z</time>
      </trkpt>
      <trkpt lat="39.0961460" lon="-6.2710550">
        <ele>321.6</ele>
        <time>2021-10-18T08:50:59Z</time>
      </trkpt>
      <trkpt lat="39.0959820" lon="-6.2709580">
        <ele>321.2</ele>
        <time>2021-10-18T08:51:02Z</time>
      </trkpt>
      <trkpt lat="39.0957490" lon="-6.2708140">
        <ele>321.0</ele>
        <time>2021-10-18T08:51:07Z</time>
      </trkpt>
      <trkpt lat="39.0957170" lon="-6.2707990">
        <ele>321.0</ele>
        <time>2021-10-18T08:51:08Z</time>
      </trkpt>
      <trkpt lat="39.0956170" lon="-6.2707850">
        <ele>320.8</ele>
        <time>2021-10-18T08:51:10Z</time>
      </trkpt>
      <trkpt lat="39.0955120" lon="-6.2707880">
        <ele>320.8</ele>
        <time>2021-10-18T08:51:12Z</time>
      </trkpt>
      <trkpt lat="39.0954200" lon="-6.2708000">
        <ele>320.6</ele>
        <time>2021-10-18T08:51:14Z</time>
      </trkpt>
      <trkpt lat="39.0953730" lon="-6.2708160">
        <ele>320.4</ele>
        <time>2021-10-18T08:51:15Z</time>
      </trkpt>
      <trkpt lat="39.0953460" lon="-6.2708260">
        <ele>320.4</ele>
        <time>2021-10-18T08:51:16Z</time>
      </trkpt>
      <trkpt lat="39.0953250" lon="-6.2708350">
        <ele>320.2</ele>
        <time>2021-10-18T08:51:19Z</time>
      </trkpt>
      <trkpt lat="39.0952720" lon="-6.2708470">
        <ele>319.8</ele>
        <time>2021-10-18T08:51:26Z</time>
      </trkpt>
      <trkpt lat="39.0952180" lon="-6.2708570">
        <ele>319.8</ele>
        <time>2021-10-18T08:51:28Z</time>
      </trkpt>
      <trkpt lat="39.0951200" lon="-6.2709500">
        <ele>319.6</ele>
        <time>2021-10-18T08:51:32Z</time>
      </trkpt>
      <trkpt lat="39.0950350" lon="-6.2711120">
        <ele>319.4</ele>
        <time>2021-10-18T08:51:36Z</time>
      </trkpt>
      <trkpt lat="39.0949910" lon="-6.2712540">
        <ele>319.0</ele>
        <time>2021-10-18T08:51:41Z</time>
      </trkpt>
      <trkpt lat="39.0949920" lon="-6.2713580">
        <ele>319.0</ele>
        <time>2021-10-18T08:51:46Z</time>
      </trkpt>
      <trkpt lat="39.0949970" lon="-6.2713630">
        <ele>319.2</ele>
        <time>2021-10-18T08:51:47Z</time>
      </trkpt>
      <trkpt lat="39.0949960" lon="-6.2713670">
        <ele>319.2</ele>
        <time>2021-10-18T08:51:51Z</time>
      </trkpt>
      <trkpt lat="39.0949560" lon="-6.2713880">
        <ele>318.6</ele>
        <time>2021-10-18T08:58:19Z</time>
      </trkpt>
      <trkpt lat="39.0949100" lon="-6.2714090">
        <ele>318.6</ele>
        <time>2021-10-18T08:58:21Z</time>
      </trkpt>
      <trkpt lat="39.0948110" lon="-6.2714400">
        <ele>318.4</ele>
        <time>2021-10-18T08:58:24Z</time>
      </trkpt>
      <trkpt lat="39.0947220" lon="-6.2714970">
        <ele>318.2</ele>
        <time>2021-10-18T08:58:27Z</time>
      </trkpt>
      <trkpt lat="39.0944220" lon="-6.2717210">
        <ele>318.2</ele>
        <time>2021-10-18T08:58:36Z</time>
      </trkpt>
      <trkpt lat="39.0941470" lon="-6.2718520">
        <ele>318.0</ele>
        <time>2021-10-18T08:58:43Z</time>
      </trkpt>
      <trkpt lat="39.0938710" lon="-6.2719630">
        <ele>318.0</ele>
        <time>2021-10-18T08:58:50Z</time>
      </trkpt>
      <trkpt lat="39.0936980" lon="-6.2720040">
        <ele>318.2</ele>
        <time>2021-10-18T08:58:54Z</time>
      </trkpt>
      <trkpt lat="39.0935290" lon="-6.2720160">
        <ele>318.2</ele>
        <time>2021-10-18T08:58:58Z</time>
      </trkpt>
      <trkpt lat="39.0932130" lon="-6.2720820">
        <ele>317.8</ele>
        <time>2021-10-18T08:59:05Z</time>
      </trkpt>
      <trkpt lat="39.0930180" lon="-6.2721500">
        <ele>317.8</ele>
        <time>2021-10-18T08:59:09Z</time>
      </trkpt>
      <trkpt lat="39.0928680" lon="-6.2721890">
        <ele>317.6</ele>
        <time>2021-10-18T08:59:12Z</time>
      </trkpt>
      <trkpt lat="39.0925190" lon="-6.2722500">
        <ele>317.4</ele>
        <time>2021-10-18T08:59:19Z</time>
      </trkpt>
      <trkpt lat="39.0924750" lon="-6.2722690">
        <ele>317.2</ele>
        <time>2021-10-18T08:59:20Z</time>
      </trkpt>
      <trkpt lat="39.0923880" lon="-6.2723090">
        <ele>317.0</ele>
        <time>2021-10-18T08:59:22Z</time>
      </trkpt>
      <trkpt lat="39.0922130" lon="-6.2723940">
        <ele>316.8</ele>
        <time>2021-10-18T08:59:26Z</time>
      </trkpt>
      <trkpt lat="39.0917810" lon="-6.2726170">
        <ele>317.0</ele>
        <time>2021-10-18T08:59:35Z</time>
      </trkpt>
      <trkpt lat="39.0916310" lon="-6.2727090">
        <ele>317.0</ele>
        <time>2021-10-18T08:59:38Z</time>
      </trkpt>
      <trkpt lat="39.0914230" lon="-6.2728150">
        <ele>316.8</ele>
        <time>2021-10-18T08:59:42Z</time>
      </trkpt>
      <trkpt lat="39.0912630" lon="-6.2728920">
        <ele>316.2</ele>
        <time>2021-10-18T08:59:45Z</time>
      </trkpt>
      <trkpt lat="39.0912100" lon="-6.2729170">
        <ele>316.0</ele>
        <time>2021-10-18T08:59:46Z</time>
      </trkpt>
      <trkpt lat="39.0910520" lon="-6.2730120">
        <ele>315.8</ele>
        <time>2021-10-18T08:59:49Z</time>
      </trkpt>
      <trkpt lat="39.0906850" lon="-6.2732450">
        <ele>315.6</ele>
        <time>2021-10-18T08:59:56Z</time>
      </trkpt>
      <trkpt lat="39.0904260" lon="-6.2734160">
        <ele>315.6</ele>
        <time>2021-10-18T09:00:01Z</time>
      </trkpt>
      <trkpt lat="39.0902290" lon="-6.2735520">
        <ele>315.4</ele>
        <time>2021-10-18T09:00:05Z</time>
      </trkpt>
      <trkpt lat="39.0901360" lon="-6.2736280">
        <ele>315.4</ele>
        <time>2021-10-18T09:00:07Z</time>
      </trkpt>
      <trkpt lat="39.0900470" lon="-6.2737080">
        <ele>315.4</ele>
        <time>2021-10-18T09:00:09Z</time>
      </trkpt>
      <trkpt lat="39.0898850" lon="-6.2738820">
        <ele>315.4</ele>
        <time>2021-10-18T09:00:13Z</time>
      </trkpt>
      <trkpt lat="39.0896080" lon="-6.2742340">
        <ele>315.4</ele>
        <time>2021-10-18T09:00:21Z</time>
      </trkpt>
      <trkpt lat="39.0892740" lon="-6.2746200">
        <ele>316.2</ele>
        <time>2021-10-18T09:00:31Z</time>
      </trkpt>
      <trkpt lat="39.0889220" lon="-6.2749710">
        <ele>316.4</ele>
        <time>2021-10-18T09:00:40Z</time>
      </trkpt>
      <trkpt lat="39.0886130" lon="-6.2752960">
        <ele>316.0</ele>
        <time>2021-10-18T09:00:48Z</time>
      </trkpt>
      <trkpt lat="39.0885730" lon="-6.2753390">
        <ele>316.0</ele>
        <time>2021-10-18T09:00:49Z</time>
      </trkpt>
      <trkpt lat="39.0883860" lon="-6.2755710">
        <ele>316.0</ele>
        <time>2021-10-18T09:00:54Z</time>
      </trkpt>
      <trkpt lat="39.0882680" lon="-6.2757090">
        <ele>316.0</ele>
        <time>2021-10-18T09:00:57Z</time>
      </trkpt>
      <trkpt lat="39.0881930" lon="-6.2757950">
        <ele>315.8</ele>
        <time>2021-10-18T09:00:59Z</time>
      </trkpt>
      <trkpt lat="39.0880700" lon="-6.2759050">
        <ele>315.8</ele>
        <time>2021-10-18T09:01:02Z</time>
      </trkpt>
      <trkpt lat="39.0877840" lon="-6.2762230">
        <ele>315.4</ele>
        <time>2021-10-18T09:01:09Z</time>
      </trkpt>
      <trkpt lat="39.0875290" lon="-6.2765430">
        <ele>315.2</ele>
        <time>2021-10-18T09:01:16Z</time>
      </trkpt>
      <trkpt lat="39.0874880" lon="-6.2766010">
        <ele>315.2</ele>
        <time>2021-10-18T09:01:17Z</time>
      </trkpt>
      <trkpt lat="39.0872460" lon="-6.2768390">
        <ele>315.0</ele>
        <time>2021-10-18T09:01:23Z</time>
      </trkpt>
      <trkpt lat="39.0869100" lon="-6.2771330">
        <ele>314.8</ele>
        <time>2021-10-18T09:01:31Z</time>
      </trkpt>
      <trkpt lat="39.0867920" lon="-6.2772560">
        <ele>314.6</ele>
        <time>2021-10-18T09:01:34Z</time>
      </trkpt>
      <trkpt lat="39.0866190" lon="-6.2773980">
        <ele>314.6</ele>
        <time>2021-10-18T09:01:38Z</time>
      </trkpt>
      <trkpt lat="39.0863430" lon="-6.2776220">
        <ele>315.0</ele>
        <time>2021-10-18T09:01:44Z</time>
      </trkpt>
      <trkpt lat="39.0859860" lon="-6.2778260">
        <ele>315.0</ele>
        <time>2021-10-18T09:01:51Z</time>
      </trkpt>
      <trkpt lat="39.0859350" lon="-6.2778540">
        <ele>314.8</ele>
        <time>2021-10-18T09:01:52Z</time>
      </trkpt>
      <trkpt lat="39.0856990" lon="-6.2780460">
        <ele>314.6</ele>
        <time>2021-10-18T09:01:57Z</time>
      </trkpt>
      <trkpt lat="39.0853570" lon="-6.2783220">
        <ele>314.4</ele>
        <time>2021-10-18T09:02:04Z</time>
      </trkpt>
      <trkpt lat="39.0852840" lon="-6.2783570">
        <ele>314.2</ele>
        <time>2021-10-18T09:02:05Z</time>
      </trkpt>
      <trkpt lat="39.0849780" lon="-6.2784650">
        <ele>313.2</ele>
        <time>2021-10-18T09:02:10Z</time>
      </trkpt>
      <trkpt lat="39.0849160" lon="-6.2784920">
        <ele>312.8</ele>
        <time>2021-10-18T09:02:11Z</time>
      </trkpt>
      <trkpt lat="39.0848000" lon="-6.2785350">
        <ele>312.0</ele>
        <time>2021-10-18T09:02:13Z</time>
      </trkpt>
      <trkpt lat="39.0846450" lon="-6.2786010">
        <ele>311.6</ele>
        <time>2021-10-18T09:02:16Z</time>
      </trkpt>
      <trkpt lat="39.0843190" lon="-6.2787510">
        <ele>311.4</ele>
        <time>2021-10-18T09:02:23Z</time>
      </trkpt>
      <trkpt lat="39.0841480" lon="-6.2788130">
        <ele>311.6</ele>
        <time>2021-10-18T09:02:27Z</time>
      </trkpt>
      <trkpt lat="39.0840170" lon="-6.2788350">
        <ele>312.2</ele>
        <time>2021-10-18T09:02:30Z</time>
      </trkpt>
      <trkpt lat="39.0837680" lon="-6.2788400">
        <ele>313.0</ele>
        <time>2021-10-18T09:02:36Z</time>
      </trkpt>
      <trkpt lat="39.0836970" lon="-6.2788420">
        <ele>313.0</ele>
        <time>2021-10-18T09:02:38Z</time>
      </trkpt>
      <trkpt lat="39.0835130" lon="-6.2789020">
        <ele>313.8</ele>
        <time>2021-10-18T09:02:43Z</time>
      </trkpt>
      <trkpt lat="39.0832800" lon="-6.2790690">
        <ele>314.0</ele>
        <time>2021-10-18T09:02:50Z</time>
      </trkpt>
      <trkpt lat="39.0832540" lon="-6.2790880">
        <ele>314.2</ele>
        <time>2021-10-18T09:02:51Z</time>
      </trkpt>
      <trkpt lat="39.0830420" lon="-6.2791850">
        <ele>314.8</ele>
        <time>2021-10-18T09:02:57Z</time>
      </trkpt>
      <trkpt lat="39.0829050" lon="-6.2792340">
        <ele>315.2</ele>
        <time>2021-10-18T09:03:01Z</time>
      </trkpt>
      <trkpt lat="39.0826780" lon="-6.2792960">
        <ele>315.8</ele>
        <time>2021-10-18T09:03:07Z</time>
      </trkpt>
      <trkpt lat="39.0825270" lon="-6.2793390">
        <ele>316.0</ele>
        <time>2021-10-18T09:03:11Z</time>
      </trkpt>
      <trkpt lat="39.0824110" lon="-6.2793960">
        <ele>316.2</ele>
        <time>2021-10-18T09:03:14Z</time>
      </trkpt>
      <trkpt lat="39.0823260" lon="-6.2794330">
        <ele>316.2</ele>
        <time>2021-10-18T09:03:16Z</time>
      </trkpt>
      <trkpt lat="39.0822890" lon="-6.2794530">
        <ele>316.4</ele>
        <time>2021-10-18T09:03:17Z</time>
      </trkpt>
      <trkpt lat="39.0821510" lon="-6.2795340">
        <ele>316.4</ele>
        <time>2021-10-18T09:03:21Z</time>
      </trkpt>
      <trkpt lat="39.0821180" lon="-6.2795580">
        <ele>316.6</ele>
        <time>2021-10-18T09:03:22Z</time>
      </trkpt>
      <trkpt lat="39.0818100" lon="-6.2797820">
        <ele>317.0</ele>
        <time>2021-10-18T09:03:31Z</time>
      </trkpt>
      <trkpt lat="39.0815790" lon="-6.2798990">
        <ele>317.0</ele>
        <time>2021-10-18T09:03:38Z</time>
      </trkpt>
      <trkpt lat="39.0815440" lon="-6.2799130">
        <ele>317.0</ele>
        <time>2021-10-18T09:03:39Z</time>
      </trkpt>
      <trkpt lat="39.0813850" lon="-6.2799760">
        <ele>317.2</ele>
        <time>2021-10-18T09:03:43Z</time>
      </trkpt>
      <trkpt lat="39.0813410" lon="-6.2799950">
        <ele>317.4</ele>
        <time>2021-10-18T09:03:44Z</time>
      </trkpt>
      <trkpt lat="39.0812380" lon="-6.2800320">
        <ele>317.2</ele>
        <time>2021-10-18T09:03:46Z</time>
      </trkpt>
      <trkpt lat="39.0809290" lon="-6.2801820">
        <ele>316.2</ele>
        <time>2021-10-18T09:03:51Z</time>
      </trkpt>
      <trkpt lat="39.0806290" lon="-6.2803380">
        <ele>315.2</ele>
        <time>2021-10-18T09:03:56Z</time>
      </trkpt>
      <trkpt lat="39.0805060" lon="-6.2804050">
        <ele>314.6</ele>
        <time>2021-10-18T09:03:58Z</time>
      </trkpt>
      <trkpt lat="39.0803340" lon="-6.2804940">
        <ele>314.0</ele>
        <time>2021-10-18T09:04:02Z</time>
      </trkpt>
      <trkpt lat="39.0802920" lon="-6.2805130">
        <ele>314.0</ele>
        <time>2021-10-18T09:04:03Z</time>
      </trkpt>
      <trkpt lat="39.0800400" lon="-6.2806080">
        <ele>314.0</ele>
        <time>2021-10-18T09:04:09Z</time>
      </trkpt>
      <trkpt lat="39.0798390" lon="-6.2806760">
        <ele>314.4</ele>
        <time>2021-10-18T09:04:14Z</time>
      </trkpt>
      <trkpt lat="39.0797260" lon="-6.2807280">
        <ele>314.4</ele>
        <time>2021-10-18T09:04:17Z</time>
      </trkpt>
      <trkpt lat="39.0794630" lon="-6.2807970">
        <ele>314.6</ele>
        <time>2021-10-18T09:04:24Z</time>
      </trkpt>
      <trkpt lat="39.0791960" lon="-6.2809010">
        <ele>315.0</ele>
        <time>2021-10-18T09:04:31Z</time>
      </trkpt>
      <trkpt lat="39.0790510" lon="-6.2810130">
        <ele>315.4</ele>
        <time>2021-10-18T09:04:36Z</time>
      </trkpt>
      <trkpt lat="39.0788560" lon="-6.2811300">
        <ele>315.6</ele>
        <time>2021-10-18T09:04:42Z</time>
      </trkpt>
      <trkpt lat="39.0787220" lon="-6.2812320">
        <ele>315.8</ele>
        <time>2021-10-18T09:04:46Z</time>
      </trkpt>
      <trkpt lat="39.0784870" lon="-6.2814250">
        <ele>315.8</ele>
        <time>2021-10-18T09:04:53Z</time>
      </trkpt>
      <trkpt lat="39.0782870" lon="-6.2815200">
        <ele>316.0</ele>
        <time>2021-10-18T09:04:58Z</time>
      </trkpt>
      <trkpt lat="39.0782590" lon="-6.2815390">
        <ele>315.8</ele>
        <time>2021-10-18T09:04:59Z</time>
      </trkpt>
      <trkpt lat="39.0780020" lon="-6.2817430">
        <ele>315.8</ele>
        <time>2021-10-18T09:05:06Z</time>
      </trkpt>
      <trkpt lat="39.0779610" lon="-6.2817640">
        <ele>315.8</ele>
        <time>2021-10-18T09:05:07Z</time>
      </trkpt>
      <trkpt lat="39.0777900" lon="-6.2818230">
        <ele>315.8</ele>
        <time>2021-10-18T09:05:11Z</time>
      </trkpt>
      <trkpt lat="39.0776500" lon="-6.2818790">
        <ele>315.8</ele>
        <time>2021-10-18T09:05:14Z</time>
      </trkpt>
      <trkpt lat="39.0774710" lon="-6.2819760">
        <ele>315.8</ele>
        <time>2021-10-18T09:05:18Z</time>
      </trkpt>
      <trkpt lat="39.0772500" lon="-6.2820920">
        <ele>315.6</ele>
        <time>2021-10-18T09:05:23Z</time>
      </trkpt>
      <trkpt lat="39.0771300" lon="-6.2821640">
        <ele>315.2</ele>
        <time>2021-10-18T09:05:26Z</time>
      </trkpt>
      <trkpt lat="39.0770520" lon="-6.2822200">
        <ele>315.2</ele>
        <time>2021-10-18T09:05:28Z</time>
      </trkpt>
      <trkpt lat="39.0770090" lon="-6.2822350">
        <ele>315.0</ele>
        <time>2021-10-18T09:05:29Z</time>
      </trkpt>
      <trkpt lat="39.0769640" lon="-6.2822500">
        <ele>315.0</ele>
        <time>2021-10-18T09:05:30Z</time>
      </trkpt>
      <trkpt lat="39.0768780" lon="-6.2823110">
        <ele>315.0</ele>
        <time>2021-10-18T09:05:32Z</time>
      </trkpt>
      <trkpt lat="39.0768360" lon="-6.2823630">
        <ele>314.8</ele>
        <time>2021-10-18T09:05:33Z</time>
      </trkpt>
      <trkpt lat="39.0767720" lon="-6.2824410">
        <ele>314.6</ele>
        <time>2021-10-18T09:05:35Z</time>
      </trkpt>
      <trkpt lat="39.0766360" lon="-6.2825480">
        <ele>314.0</ele>
        <time>2021-10-18T09:05:38Z</time>
      </trkpt>
      <trkpt lat="39.0764820" lon="-6.2826560">
        <ele>313.6</ele>
        <time>2021-10-18T09:05:41Z</time>
      </trkpt>
      <trkpt lat="39.0763830" lon="-6.2827560">
        <ele>313.4</ele>
        <time>2021-10-18T09:05:43Z</time>
      </trkpt>
      <trkpt lat="39.0762390" lon="-6.2829350">
        <ele>312.4</ele>
        <time>2021-10-18T09:05:46Z</time>
      </trkpt>
      <trkpt lat="39.0760970" lon="-6.2831240">
        <ele>311.4</ele>
        <time>2021-10-18T09:05:49Z</time>
      </trkpt>
      <trkpt lat="39.0759980" lon="-6.2832490">
        <ele>311.0</ele>
        <time>2021-10-18T09:05:51Z</time>
      </trkpt>
      <trkpt lat="39.0758020" lon="-6.2835200">
        <ele>310.2</ele>
        <time>2021-10-18T09:05:55Z</time>
      </trkpt>
      <trkpt lat="39.0757480" lon="-6.2836000">
        <ele>310.2</ele>
        <time>2021-10-18T09:05:56Z</time>
      </trkpt>
      <trkpt lat="39.0757180" lon="-6.2836600">
        <ele>309.6</ele>
        <time>2021-10-18T09:05:57Z</time>
      </trkpt>
      <trkpt lat="39.0756890" lon="-6.2837370">
        <ele>309.6</ele>
        <time>2021-10-18T09:05:58Z</time>
      </trkpt>
      <trkpt lat="39.0756440" lon="-6.2839170">
        <ele>309.0</ele>
        <time>2021-10-18T09:06:00Z</time>
      </trkpt>
      <trkpt lat="39.0756310" lon="-6.2839850">
        <ele>308.8</ele>
        <time>2021-10-18T09:06:01Z</time>
      </trkpt>
      <trkpt lat="39.0756110" lon="-6.2840650">
        <ele>308.4</ele>
        <time>2021-10-18T09:06:02Z</time>
      </trkpt>
      <trkpt lat="39.0755440" lon="-6.2842090">
        <ele>308.0</ele>
        <time>2021-10-18T09:06:04Z</time>
      </trkpt>
      <trkpt lat="39.0754930" lon="-6.2842850">
        <ele>307.8</ele>
        <time>2021-10-18T09:06:05Z</time>
      </trkpt>
      <trkpt lat="39.0754440" lon="-6.2843420">
        <ele>307.8</ele>
        <time>2021-10-18T09:06:06Z</time>
      </trkpt>
      <trkpt lat="39.0752990" lon="-6.2844920">
        <ele>307.4</ele>
        <time>2021-10-18T09:06:09Z</time>
      </trkpt>
      <trkpt lat="39.0752440" lon="-6.2845660">
        <ele>307.4</ele>
        <time>2021-10-18T09:06:10Z</time>
      </trkpt>
      <trkpt lat="39.0752100" lon="-6.2846200">
        <ele>306.8</ele>
        <time>2021-10-18T09:06:11Z</time>
      </trkpt>
      <trkpt lat="39.0751740" lon="-6.2846910">
        <ele>306.4</ele>
        <time>2021-10-18T09:06:12Z</time>
      </trkpt>
      <trkpt lat="39.0751200" lon="-6.2848450">
        <ele>305.8</ele>
        <time>2021-10-18T09:06:14Z</time>
      </trkpt>
      <trkpt lat="39.0750980" lon="-6.2849210">
        <ele>305.8</ele>
        <time>2021-10-18T09:06:15Z</time>
      </trkpt>
      <trkpt lat="39.0750430" lon="-6.2850660">
        <ele>305.2</ele>
        <time>2021-10-18T09:06:17Z</time>
      </trkpt>
      <trkpt lat="39.0749660" lon="-6.2852090">
        <ele>304.8</ele>
        <time>2021-10-18T09:06:19Z</time>
      </trkpt>
      <trkpt lat="39.0749150" lon="-6.2852980">
        <ele>304.4</ele>
        <time>2021-10-18T09:06:20Z</time>
      </trkpt>
      <trkpt lat="39.0748150" lon="-6.2855180">
        <ele>303.2</ele>
        <time>2021-10-18T09:06:23Z</time>
      </trkpt>
      <trkpt lat="39.0747670" lon="-6.2856990">
        <ele>302.6</ele>
        <time>2021-10-18T09:06:25Z</time>
      </trkpt>
      <trkpt lat="39.0747120" lon="-6.2859640">
        <ele>301.8</ele>
        <time>2021-10-18T09:06:28Z</time>
      </trkpt>
      <trkpt lat="39.0746920" lon="-6.2860320">
        <ele>301.6</ele>
        <time>2021-10-18T09:06:29Z</time>
      </trkpt>
      <trkpt lat="39.0746710" lon="-6.2860810">
        <ele>301.4</ele>
        <time>2021-10-18T09:06:30Z</time>
      </trkpt>
      <trkpt lat="39.0746130" lon="-6.2861900">
        <ele>301.0</ele>
        <time>2021-10-18T09:06:32Z</time>
      </trkpt>
      <trkpt lat="39.0745470" lon="-6.2862940">
        <ele>300.8</ele>
        <time>2021-10-18T09:06:34Z</time>
      </trkpt>
      <trkpt lat="39.0745180" lon="-6.2863240">
        <ele>300.8</ele>
        <time>2021-10-18T09:06:35Z</time>
      </trkpt>
      <trkpt lat="39.0743530" lon="-6.2864820">
        <ele>301.2</ele>
        <time>2021-10-18T09:06:40Z</time>
      </trkpt>
      <trkpt lat="39.0742560" lon="-6.2865780">
        <ele>301.8</ele>
        <time>2021-10-18T09:06:44Z</time>
      </trkpt>
      <trkpt lat="39.0742120" lon="-6.2866220">
        <ele>302.6</ele>
        <time>2021-10-18T09:06:46Z</time>
      </trkpt>
      <trkpt lat="39.0741850" lon="-6.2866470">
        <ele>302.8</ele>
        <time>2021-10-18T09:06:47Z</time>
      </trkpt>
      <trkpt lat="39.0741160" lon="-6.2867260">
        <ele>303.8</ele>
        <time>2021-10-18T09:06:50Z</time>
      </trkpt>
      <trkpt lat="39.0740480" lon="-6.2867980">
        <ele>304.4</ele>
        <time>2021-10-18T09:06:53Z</time>
      </trkpt>
      <trkpt lat="39.0739350" lon="-6.2869620">
        <ele>304.8</ele>
        <time>2021-10-18T09:06:59Z</time>
      </trkpt>
      <trkpt lat="39.0739200" lon="-6.2869910">
        <ele>304.8</ele>
        <time>2021-10-18T09:07:00Z</time>
      </trkpt>
      <trkpt lat="39.0738670" lon="-6.2871230">
        <ele>304.8</ele>
        <time>2021-10-18T09:07:06Z</time>
      </trkpt>
      <trkpt lat="39.0738670" lon="-6.2871230">
        <ele>304.8</ele>
        <time>2021-10-18T09:07:07Z</time>
      </trkpt>
      <trkpt lat="39.0738590" lon="-6.2871920">
        <ele>304.4</ele>
        <time>2021-10-18T09:07:46Z</time>
      </trkpt>
      <trkpt lat="39.0738520" lon="-6.2872280">
        <ele>304.4</ele>
        <time>2021-10-18T09:07:47Z</time>
      </trkpt>
      <trkpt lat="39.0738430" lon="-6.2872580">
        <ele>304.4</ele>
        <time>2021-10-18T09:07:48Z</time>
      </trkpt>
      <trkpt lat="39.0737760" lon="-6.2874960">
        <ele>304.4</ele>
        <time>2021-10-18T09:07:55Z</time>
      </trkpt>
      <trkpt lat="39.0736560" lon="-6.2877360">
        <ele>304.0</ele>
        <time>2021-10-18T09:08:03Z</time>
      </trkpt>
      <trkpt lat="39.0735800" lon="-6.2879080">
        <ele>303.6</ele>
        <time>2021-10-18T09:08:09Z</time>
      </trkpt>
      <trkpt lat="39.0735030" lon="-6.2881080">
        <ele>303.6</ele>
        <time>2021-10-18T09:08:17Z</time>
      </trkpt>
      <trkpt lat="39.0734330" lon="-6.2883100">
        <ele>303.4</ele>
        <time>2021-10-18T09:08:22Z</time>
      </trkpt>
      <trkpt lat="39.0733720" lon="-6.2885710">
        <ele>303.4</ele>
        <time>2021-10-18T09:08:28Z</time>
      </trkpt>
      <trkpt lat="39.0732880" lon="-6.2888310">
        <ele>303.4</ele>
        <time>2021-10-18T09:08:34Z</time>
      </trkpt>
      <trkpt lat="39.0731330" lon="-6.2891400">
        <ele>304.2</ele>
        <time>2021-10-18T09:08:43Z</time>
      </trkpt>
      <trkpt lat="39.0730150" lon="-6.2893520">
        <ele>305.0</ele>
        <time>2021-10-18T09:08:50Z</time>
      </trkpt>
      <trkpt lat="39.0730010" lon="-6.2893910">
        <ele>305.2</ele>
        <time>2021-10-18T09:08:51Z</time>
      </trkpt>
      <trkpt lat="39.0728950" lon="-6.2895570">
        <ele>305.8</ele>
        <time>2021-10-18T09:08:56Z</time>
      </trkpt>
      <trkpt lat="39.0728070" lon="-6.2896510">
        <ele>306.0</ele>
        <time>2021-10-18T09:08:59Z</time>
      </trkpt>
      <trkpt lat="39.0726600" lon="-6.2897770">
        <ele>306.0</ele>
        <time>2021-10-18T09:09:03Z</time>
      </trkpt>
      <trkpt lat="39.0726230" lon="-6.2898090">
        <ele>306.0</ele>
        <time>2021-10-18T09:09:04Z</time>
      </trkpt>
      <trkpt lat="39.0725350" lon="-6.2898950">
        <ele>306.0</ele>
        <time>2021-10-18T09:09:06Z</time>
      </trkpt>
      <trkpt lat="39.0724650" lon="-6.2899830">
        <ele>306.0</ele>
        <time>2021-10-18T09:09:08Z</time>
      </trkpt>
      <trkpt lat="39.0722120" lon="-6.2902270">
        <ele>304.8</ele>
        <time>2021-10-18T09:09:13Z</time>
      </trkpt>
      <trkpt lat="39.0721580" lon="-6.2902880">
        <ele>304.6</ele>
        <time>2021-10-18T09:09:14Z</time>
      </trkpt>
      <trkpt lat="39.0719460" lon="-6.2905790">
        <ele>303.8</ele>
        <time>2021-10-18T09:09:18Z</time>
      </trkpt>
      <trkpt lat="39.0718790" lon="-6.2906730">
        <ele>303.4</ele>
        <time>2021-10-18T09:09:19Z</time>
      </trkpt>
      <trkpt lat="39.0718360" lon="-6.2907370">
        <ele>302.8</ele>
        <time>2021-10-18T09:09:20Z</time>
      </trkpt>
      <trkpt lat="39.0717360" lon="-6.2908940">
        <ele>301.4</ele>
        <time>2021-10-18T09:09:22Z</time>
      </trkpt>
      <trkpt lat="39.0716320" lon="-6.2910370">
        <ele>300.6</ele>
        <time>2021-10-18T09:09:24Z</time>
      </trkpt>
      <trkpt lat="39.0715360" lon="-6.2911680">
        <ele>299.6</ele>
        <time>2021-10-18T09:09:26Z</time>
      </trkpt>
      <trkpt lat="39.0714280" lon="-6.2912810">
        <ele>299.2</ele>
        <time>2021-10-18T09:09:28Z</time>
      </trkpt>
      <trkpt lat="39.0713260" lon="-6.2913720">
        <ele>298.8</ele>
        <time>2021-10-18T09:09:30Z</time>
      </trkpt>
      <trkpt lat="39.0711290" lon="-6.2915380">
        <ele>298.4</ele>
        <time>2021-10-18T09:09:34Z</time>
      </trkpt>
      <trkpt lat="39.0708120" lon="-6.2918430">
        <ele>298.0</ele>
        <time>2021-10-18T09:09:40Z</time>
      </trkpt>
      <trkpt lat="39.0707510" lon="-6.2918980">
        <ele>297.8</ele>
        <time>2021-10-18T09:09:41Z</time>
      </trkpt>
      <trkpt lat="39.0706880" lon="-6.2919550">
        <ele>297.4</ele>
        <time>2021-10-18T09:09:42Z</time>
      </trkpt>
      <trkpt lat="39.0705520" lon="-6.2920770">
        <ele>295.8</ele>
        <time>2021-10-18T09:09:44Z</time>
      </trkpt>
      <trkpt lat="39.0704170" lon="-6.2921960">
        <ele>294.2</ele>
        <time>2021-10-18T09:09:46Z</time>
      </trkpt>
      <trkpt lat="39.0703520" lon="-6.2922570">
        <ele>293.8</ele>
        <time>2021-10-18T09:09:47Z</time>
      </trkpt>
      <trkpt lat="39.0702920" lon="-6.2923190">
        <ele>292.8</ele>
        <time>2021-10-18T09:09:48Z</time>
      </trkpt>
      <trkpt lat="39.0701810" lon="-6.2924520">
        <ele>291.6</ele>
        <time>2021-10-18T09:09:50Z</time>
      </trkpt>
      <trkpt lat="39.0700730" lon="-6.2925980">
        <ele>290.6</ele>
        <time>2021-10-18T09:09:52Z</time>
      </trkpt>
      <trkpt lat="39.0699510" lon="-6.2927570">
        <ele>288.8</ele>
        <time>2021-10-18T09:09:55Z</time>
      </trkpt>
      <trkpt lat="39.0698600" lon="-6.2928750">
        <ele>287.6</ele>
        <time>2021-10-18T09:09:57Z</time>
      </trkpt>
      <trkpt lat="39.0697050" lon="-6.2930470">
        <ele>285.8</ele>
        <time>2021-10-18T09:10:00Z</time>
      </trkpt>
      <trkpt lat="39.0695990" lon="-6.2931720">
        <ele>284.8</ele>
        <time>2021-10-18T09:10:02Z</time>
      </trkpt>
      <trkpt lat="39.0695670" lon="-6.2932260">
        <ele>284.6</ele>
        <time>2021-10-18T09:10:03Z</time>
      </trkpt>
      <trkpt lat="39.0695510" lon="-6.2932710">
        <ele>284.2</ele>
        <time>2021-10-18T09:10:04Z</time>
      </trkpt>
      <trkpt lat="39.0695410" lon="-6.2933280">
        <ele>284.0</ele>
        <time>2021-10-18T09:10:05Z</time>
      </trkpt>
      <trkpt lat="39.0695360" lon="-6.2933810">
        <ele>283.6</ele>
        <time>2021-10-18T09:10:06Z</time>
      </trkpt>
      <trkpt lat="39.0695440" lon="-6.2934980">
        <ele>282.8</ele>
        <time>2021-10-18T09:10:08Z</time>
      </trkpt>
      <trkpt lat="39.0695580" lon="-6.2935360">
        <ele>282.2</ele>
        <time>2021-10-18T09:10:09Z</time>
      </trkpt>
      <trkpt lat="39.0695640" lon="-6.2935910">
        <ele>282.0</ele>
        <time>2021-10-18T09:10:10Z</time>
      </trkpt>
      <trkpt lat="39.0695600" lon="-6.2936480">
        <ele>281.6</ele>
        <time>2021-10-18T09:10:11Z</time>
      </trkpt>
      <trkpt lat="39.0695460" lon="-6.2937100">
        <ele>281.6</ele>
        <time>2021-10-18T09:10:12Z</time>
      </trkpt>
      <trkpt lat="39.0695000" lon="-6.2937820">
        <ele>281.2</ele>
        <time>2021-10-18T09:10:14Z</time>
      </trkpt>
      <trkpt lat="39.0693710" lon="-6.2939320">
        <ele>280.8</ele>
        <time>2021-10-18T09:10:18Z</time>
      </trkpt>
      <trkpt lat="39.0692960" lon="-6.2940420">
        <ele>280.6</ele>
        <time>2021-10-18T09:10:20Z</time>
      </trkpt>
      <trkpt lat="39.0691830" lon="-6.2941920">
        <ele>280.6</ele>
        <time>2021-10-18T09:10:23Z</time>
      </trkpt>
      <trkpt lat="39.0690480" lon="-6.2943580">
        <ele>280.2</ele>
        <time>2021-10-18T09:10:26Z</time>
      </trkpt>
      <trkpt lat="39.0689940" lon="-6.2944060">
        <ele>280.2</ele>
        <time>2021-10-18T09:10:27Z</time>
      </trkpt>
      <trkpt lat="39.0688760" lon="-6.2944830">
        <ele>279.6</ele>
        <time>2021-10-18T09:10:29Z</time>
      </trkpt>
      <trkpt lat="39.0688120" lon="-6.2945070">
        <ele>279.4</ele>
        <time>2021-10-18T09:10:30Z</time>
      </trkpt>
      <trkpt lat="39.0687330" lon="-6.2945240">
        <ele>279.0</ele>
        <time>2021-10-18T09:10:31Z</time>
      </trkpt>
      <trkpt lat="39.0685320" lon="-6.2946170">
        <ele>278.6</ele>
        <time>2021-10-18T09:10:34Z</time>
      </trkpt>
      <trkpt lat="39.0683270" lon="-6.2947140">
        <ele>278.0</ele>
        <time>2021-10-18T09:10:37Z</time>
      </trkpt>
      <trkpt lat="39.0681050" lon="-6.2948080">
        <ele>276.8</ele>
        <time>2021-10-18T09:10:40Z</time>
      </trkpt>
      <trkpt lat="39.0678200" lon="-6.2949180">
        <ele>275.6</ele>
        <time>2021-10-18T09:10:44Z</time>
      </trkpt>
      <trkpt lat="39.0677710" lon="-6.2949320">
        <ele>275.2</ele>
        <time>2021-10-18T09:10:45Z</time>
      </trkpt>
      <trkpt lat="39.0675690" lon="-6.2949550">
        <ele>274.4</ele>
        <time>2021-10-18T09:10:49Z</time>
      </trkpt>
      <trkpt lat="39.0675200" lon="-6.2949660">
        <ele>274.4</ele>
        <time>2021-10-18T09:10:50Z</time>
      </trkpt>
      <trkpt lat="39.0674490" lon="-6.2950060">
        <ele>274.4</ele>
        <time>2021-10-18T09:10:52Z</time>
      </trkpt>
      <trkpt lat="39.0674060" lon="-6.2950450">
        <ele>274.6</ele>
        <time>2021-10-18T09:10:53Z</time>
      </trkpt>
      <trkpt lat="39.0673340" lon="-6.2951050">
        <ele>274.6</ele>
        <time>2021-10-18T09:10:55Z</time>
      </trkpt>
      <trkpt lat="39.0672400" lon="-6.2951480">
        <ele>274.6</ele>
        <time>2021-10-18T09:10:57Z</time>
      </trkpt>
      <trkpt lat="39.0671890" lon="-6.2951600">
        <ele>274.6</ele>
        <time>2021-10-18T09:10:58Z</time>
      </trkpt>
      <trkpt lat="39.0669420" lon="-6.2952440">
        <ele>274.6</ele>
        <time>2021-10-18T09:11:03Z</time>
      </trkpt>
      <trkpt lat="39.0665560" lon="-6.2953080">
        <ele>274.2</ele>
        <time>2021-10-18T09:11:10Z</time>
      </trkpt>
      <trkpt lat="39.0663380" lon="-6.2953300">
        <ele>273.4</ele>
        <time>2021-10-18T09:11:14Z</time>
      </trkpt>
      <trkpt lat="39.0662850" lon="-6.2953440">
        <ele>273.2</ele>
        <time>2021-10-18T09:11:15Z</time>
      </trkpt>
      <trkpt lat="39.0662220" lon="-6.2953690">
        <ele>273.2</ele>
        <time>2021-10-18T09:11:16Z</time>
      </trkpt>
      <trkpt lat="39.0660280" lon="-6.2954630">
        <ele>273.2</ele>
        <time>2021-10-18T09:11:20Z</time>
      </trkpt>
      <trkpt lat="39.0659270" lon="-6.2954710">
        <ele>273.2</ele>
        <time>2021-10-18T09:11:22Z</time>
      </trkpt>
      <trkpt lat="39.0658450" lon="-6.2954790">
        <ele>273.4</ele>
        <time>2021-10-18T09:11:24Z</time>
      </trkpt>
      <trkpt lat="39.0657530" lon="-6.2955290">
        <ele>273.4</ele>
        <time>2021-10-18T09:11:26Z</time>
      </trkpt>
      <trkpt lat="39.0657090" lon="-6.2956120">
        <ele>273.4</ele>
        <time>2021-10-18T09:11:28Z</time>
      </trkpt>
      <trkpt lat="39.0656640" lon="-6.2957040">
        <ele>273.4</ele>
        <time>2021-10-18T09:11:30Z</time>
      </trkpt>
      <trkpt lat="39.0655260" lon="-6.2957870">
        <ele>273.2</ele>
        <time>2021-10-18T09:11:33Z</time>
      </trkpt>
      <trkpt lat="39.0654850" lon="-6.2958250">
        <ele>273.2</ele>
        <time>2021-10-18T09:11:34Z</time>
      </trkpt>
      <trkpt lat="39.0654460" lon="-6.2958830">
        <ele>273.2</ele>
        <time>2021-10-18T09:11:35Z</time>
      </trkpt>
      <trkpt lat="39.0653590" lon="-6.2960300">
        <ele>272.4</ele>
        <time>2021-10-18T09:11:38Z</time>
      </trkpt>
      <trkpt lat="39.0653170" lon="-6.2960810">
        <ele>272.0</ele>
        <time>2021-10-18T09:11:39Z</time>
      </trkpt>
      <trkpt lat="39.0652660" lon="-6.2961220">
        <ele>271.4</ele>
        <time>2021-10-18T09:11:40Z</time>
      </trkpt>
      <trkpt lat="39.0651520" lon="-6.2961870">
        <ele>270.2</ele>
        <time>2021-10-18T09:11:42Z</time>
      </trkpt>
      <trkpt lat="39.0650930" lon="-6.2962210">
        <ele>269.8</ele>
        <time>2021-10-18T09:11:43Z</time>
      </trkpt>
      <trkpt lat="39.0649090" lon="-6.2963180">
        <ele>269.0</ele>
        <time>2021-10-18T09:11:46Z</time>
      </trkpt>
      <trkpt lat="39.0647230" lon="-6.2964030">
        <ele>268.0</ele>
        <time>2021-10-18T09:11:49Z</time>
      </trkpt>
      <trkpt lat="39.0646660" lon="-6.2964310">
        <ele>267.8</ele>
        <time>2021-10-18T09:11:50Z</time>
      </trkpt>
      <trkpt lat="39.0644920" lon="-6.2965200">
        <ele>266.8</ele>
        <time>2021-10-18T09:11:53Z</time>
      </trkpt>
      <trkpt lat="39.0644340" lon="-6.2965650">
        <ele>266.6</ele>
        <time>2021-10-18T09:11:54Z</time>
      </trkpt>
      <trkpt lat="39.0643610" lon="-6.2966260">
        <ele>266.4</ele>
        <time>2021-10-18T09:11:55Z</time>
      </trkpt>
      <trkpt lat="39.0641760" lon="-6.2967870">
        <ele>265.6</ele>
        <time>2021-10-18T09:11:58Z</time>
      </trkpt>
      <trkpt lat="39.0640810" lon="-6.2968640">
        <ele>265.2</ele>
        <time>2021-10-18T09:12:00Z</time>
      </trkpt>
      <trkpt lat="39.0640340" lon="-6.2969010">
        <ele>265.0</ele>
        <time>2021-10-18T09:12:01Z</time>
      </trkpt>
      <trkpt lat="39.0639440" lon="-6.2969310">
        <ele>264.8</ele>
        <time>2021-10-18T09:12:03Z</time>
      </trkpt>
      <trkpt lat="39.0637380" lon="-6.2969630">
        <ele>265.0</ele>
        <time>2021-10-18T09:12:08Z</time>
      </trkpt>
      <trkpt lat="39.0633620" lon="-6.2970360">
        <ele>265.0</ele>
        <time>2021-10-18T09:12:15Z</time>
      </trkpt>
      <trkpt lat="39.0631710" lon="-6.2970540">
        <ele>264.6</ele>
        <time>2021-10-18T09:12:18Z</time>
      </trkpt>
      <trkpt lat="39.0629020" lon="-6.2970640">
        <ele>263.2</ele>
        <time>2021-10-18T09:12:22Z</time>
      </trkpt>
      <trkpt lat="39.0624720" lon="-6.2971080">
        <ele>261.6</ele>
        <time>2021-10-18T09:12:28Z</time>
      </trkpt>
      <trkpt lat="39.0623180" lon="-6.2971280">
        <ele>261.2</ele>
        <time>2021-10-18T09:12:30Z</time>
      </trkpt>
      <trkpt lat="39.0621620" lon="-6.2971550">
        <ele>260.6</ele>
        <time>2021-10-18T09:12:32Z</time>
      </trkpt>
      <trkpt lat="39.0619290" lon="-6.2972170">
        <ele>259.4</ele>
        <time>2021-10-18T09:12:35Z</time>
      </trkpt>
      <trkpt lat="39.0618530" lon="-6.2972430">
        <ele>259.2</ele>
        <time>2021-10-18T09:12:36Z</time>
      </trkpt>
      <trkpt lat="39.0616230" lon="-6.2973190">
        <ele>258.2</ele>
        <time>2021-10-18T09:12:39Z</time>
      </trkpt>
      <trkpt lat="39.0615340" lon="-6.2973570">
        <ele>258.0</ele>
        <time>2021-10-18T09:12:40Z</time>
      </trkpt>
      <trkpt lat="39.0614120" lon="-6.2974350">
        <ele>257.6</ele>
        <time>2021-10-18T09:12:42Z</time>
      </trkpt>
      <trkpt lat="39.0612990" lon="-6.2975570">
        <ele>257.0</ele>
        <time>2021-10-18T09:12:44Z</time>
      </trkpt>
      <trkpt lat="39.0612470" lon="-6.2976440">
        <ele>257.0</ele>
        <time>2021-10-18T09:12:45Z</time>
      </trkpt>
      <trkpt lat="39.0610970" lon="-6.2979910">
        <ele>256.2</ele>
        <time>2021-10-18T09:12:50Z</time>
      </trkpt>
      <trkpt lat="39.0609660" lon="-6.2982920">
        <ele>256.0</ele>
        <time>2021-10-18T09:12:55Z</time>
      </trkpt>
      <trkpt lat="39.0609420" lon="-6.2983450">
        <ele>256.0</ele>
        <time>2021-10-18T09:12:56Z</time>
      </trkpt>
      <trkpt lat="39.0608110" lon="-6.2986410">
        <ele>256.2</ele>
        <time>2021-10-18T09:13:02Z</time>
      </trkpt>
      <trkpt lat="39.0607750" lon="-6.2987430">
        <ele>256.4</ele>
        <time>2021-10-18T09:13:04Z</time>
      </trkpt>
      <trkpt lat="39.0607480" lon="-6.2989390">
        <ele>256.4</ele>
        <time>2021-10-18T09:13:08Z</time>
      </trkpt>
      <trkpt lat="39.0607660" lon="-6.2991530">
        <ele>256.8</ele>
        <time>2021-10-18T09:13:13Z</time>
      </trkpt>
      <trkpt lat="39.0607770" lon="-6.2992530">
        <ele>257.2</ele>
        <time>2021-10-18T09:13:16Z</time>
      </trkpt>
      <trkpt lat="39.0607950" lon="-6.2993500">
        <ele>257.6</ele>
        <time>2021-10-18T09:13:19Z</time>
      </trkpt>
      <trkpt lat="39.0608450" lon="-6.2994970">
        <ele>258.2</ele>
        <time>2021-10-18T09:13:24Z</time>
      </trkpt>
      <trkpt lat="39.0608830" lon="-6.2996510">
        <ele>259.4</ele>
        <time>2021-10-18T09:13:30Z</time>
      </trkpt>
      <trkpt lat="39.0608900" lon="-6.2996760">
        <ele>259.6</ele>
        <time>2021-10-18T09:13:31Z</time>
      </trkpt>
      <trkpt lat="39.0608960" lon="-6.2998990">
        <ele>260.4</ele>
        <time>2021-10-18T09:13:39Z</time>
      </trkpt>
      <trkpt lat="39.0608470" lon="-6.3000620">
        <ele>261.2</ele>
        <time>2021-10-18T09:13:46Z</time>
      </trkpt>
      <trkpt lat="39.0608350" lon="-6.3000880">
        <ele>261.4</ele>
        <time>2021-10-18T09:13:47Z</time>
      </trkpt>
      <trkpt lat="39.0608240" lon="-6.3001080">
        <ele>261.6</ele>
        <time>2021-10-18T09:13:48Z</time>
      </trkpt>
      <trkpt lat="39.0606880" lon="-6.3002690">
        <ele>262.6</ele>
        <time>2021-10-18T09:13:57Z</time>
      </trkpt>
      <trkpt lat="39.0605530" lon="-6.3004350">
        <ele>263.0</ele>
        <time>2021-10-18T09:14:04Z</time>
      </trkpt>
      <trkpt lat="39.0604830" lon="-6.3006230">
        <ele>263.0</ele>
        <time>2021-10-18T09:14:08Z</time>
      </trkpt>
      <trkpt lat="39.0604600" lon="-6.3006770">
        <ele>263.0</ele>
        <time>2021-10-18T09:14:09Z</time>
      </trkpt>
      <trkpt lat="39.0603920" lon="-6.3007940">
        <ele>263.0</ele>
        <time>2021-10-18T09:14:11Z</time>
      </trkpt>
      <trkpt lat="39.0602850" lon="-6.3009440">
        <ele>262.8</ele>
        <time>2021-10-18T09:14:14Z</time>
      </trkpt>
      <trkpt lat="39.0601620" lon="-6.3011200">
        <ele>261.8</ele>
        <time>2021-10-18T09:14:17Z</time>
      </trkpt>
      <trkpt lat="39.0601200" lon="-6.3011750">
        <ele>261.6</ele>
        <time>2021-10-18T09:14:18Z</time>
      </trkpt>
      <trkpt lat="39.0600820" lon="-6.3012370">
        <ele>261.4</ele>
        <time>2021-10-18T09:14:19Z</time>
      </trkpt>
      <trkpt lat="39.0600230" lon="-6.3013750">
        <ele>260.8</ele>
        <time>2021-10-18T09:14:21Z</time>
      </trkpt>
      <trkpt lat="39.0599970" lon="-6.3014470">
        <ele>260.6</ele>
        <time>2021-10-18T09:14:22Z</time>
      </trkpt>
      <trkpt lat="39.0599440" lon="-6.3015950">
        <ele>260.0</ele>
        <time>2021-10-18T09:14:24Z</time>
      </trkpt>
      <trkpt lat="39.0599080" lon="-6.3016780">
        <ele>259.8</ele>
        <time>2021-10-18T09:14:25Z</time>
      </trkpt>
      <trkpt lat="39.0598400" lon="-6.3017670">
        <ele>259.6</ele>
        <time>2021-10-18T09:14:27Z</time>
      </trkpt>
      <trkpt lat="39.0597960" lon="-6.3017980">
        <ele>259.2</ele>
        <time>2021-10-18T09:14:28Z</time>
      </trkpt>
      <trkpt lat="39.0597200" lon="-6.3018480">
        <ele>258.8</ele>
        <time>2021-10-18T09:14:30Z</time>
      </trkpt>
      <trkpt lat="39.0596940" lon="-6.3018900">
        <ele>258.4</ele>
        <time>2021-10-18T09:14:31Z</time>
      </trkpt>
      <trkpt lat="39.0596720" lon="-6.3019400">
        <ele>258.4</ele>
        <time>2021-10-18T09:14:32Z</time>
      </trkpt>
      <trkpt lat="39.0596330" lon="-6.3020630">
        <ele>257.8</ele>
        <time>2021-10-18T09:14:34Z</time>
      </trkpt>
      <trkpt lat="39.0596200" lon="-6.3021200">
        <ele>257.0</ele>
        <time>2021-10-18T09:14:35Z</time>
      </trkpt>
      <trkpt lat="39.0596060" lon="-6.3021610">
        <ele>256.8</ele>
        <time>2021-10-18T09:14:36Z</time>
      </trkpt>
      <trkpt lat="39.0595840" lon="-6.3022130">
        <ele>256.4</ele>
        <time>2021-10-18T09:14:37Z</time>
      </trkpt>
      <trkpt lat="39.0595310" lon="-6.3023110">
        <ele>256.0</ele>
        <time>2021-10-18T09:14:39Z</time>
      </trkpt>
      <trkpt lat="39.0594980" lon="-6.3023540">
        <ele>255.8</ele>
        <time>2021-10-18T09:14:40Z</time>
      </trkpt>
      <trkpt lat="39.0594300" lon="-6.3024270">
        <ele>255.4</ele>
        <time>2021-10-18T09:14:42Z</time>
      </trkpt>
      <trkpt lat="39.0592750" lon="-6.3025270">
        <ele>255.0</ele>
        <time>2021-10-18T09:14:47Z</time>
      </trkpt>
      <trkpt lat="39.0592650" lon="-6.3025330">
        <ele>254.8</ele>
        <time>2021-10-18T09:14:48Z</time>
      </trkpt>
      <trkpt lat="39.0592620" lon="-6.3025290">
        <ele>254.6</ele>
        <time>2021-10-18T09:14:50Z</time>
      </trkpt>
      <trkpt lat="39.0592490" lon="-6.3025280">
        <ele>254.6</ele>
        <time>2021-10-18T09:14:52Z</time>
      </trkpt>
      <trkpt lat="39.0591870" lon="-6.3025640">
        <ele>254.4</ele>
        <time>2021-10-18T09:14:55Z</time>
      </trkpt>
      <trkpt lat="39.0590420" lon="-6.3025770">
        <ele>254.2</ele>
        <time>2021-10-18T09:14:59Z</time>
      </trkpt>
      <trkpt lat="39.0589380" lon="-6.3025500">
        <ele>254.2</ele>
        <time>2021-10-18T09:15:04Z</time>
      </trkpt>
      <trkpt lat="39.0589050" lon="-6.3025470">
        <ele>254.4</ele>
        <time>2021-10-18T09:15:08Z</time>
      </trkpt>
      <trkpt lat="39.0589630" lon="-6.3025520">
        <ele>254.4</ele>
        <time>2021-10-18T09:16:41Z</time>
      </trkpt>
      <trkpt lat="39.0591380" lon="-6.3025820">
        <ele>254.2</ele>
        <time>2021-10-18T09:16:47Z</time>
      </trkpt>
      <trkpt lat="39.0592150" lon="-6.3025210">
        <ele>254.0</ele>
        <time>2021-10-18T09:16:51Z</time>
      </trkpt>
      <trkpt lat="39.0592610" lon="-6.3024890">
        <ele>254.0</ele>
        <time>2021-10-18T09:16:56Z</time>
      </trkpt>
      <trkpt lat="39.0592610" lon="-6.3024890">
        <ele>254.0</ele>
        <time>2021-10-18T09:16:58Z</time>
      </trkpt>
      <trkpt lat="39.0592650" lon="-6.3025560">
        <ele>254.2</ele>
        <time>2021-10-18T09:17:24Z</time>
      </trkpt>
      <trkpt lat="39.0592640" lon="-6.3026070">
        <ele>254.0</ele>
        <time>2021-10-18T09:17:26Z</time>
      </trkpt>
      <trkpt lat="39.0592350" lon="-6.3027290">
        <ele>254.0</ele>
        <time>2021-10-18T09:17:30Z</time>
      </trkpt>
      <trkpt lat="39.0592160" lon="-6.3028030">
        <ele>253.8</ele>
        <time>2021-10-18T09:17:32Z</time>
      </trkpt>
      <trkpt lat="39.0591370" lon="-6.3030600">
        <ele>253.2</ele>
        <time>2021-10-18T09:17:38Z</time>
      </trkpt>
      <trkpt lat="39.0589850" lon="-6.3033380">
        <ele>253.2</ele>
        <time>2021-10-18T09:17:46Z</time>
      </trkpt>
      <trkpt lat="39.0589050" lon="-6.3035610">
        <ele>253.2</ele>
        <time>2021-10-18T09:17:51Z</time>
      </trkpt>
      <trkpt lat="39.0588660" lon="-6.3037560">
        <ele>253.2</ele>
        <time>2021-10-18T09:17:56Z</time>
      </trkpt>
      <trkpt lat="39.0588500" lon="-6.3037920">
        <ele>253.2</ele>
        <time>2021-10-18T09:17:57Z</time>
      </trkpt>
      <trkpt lat="39.0588230" lon="-6.3039210">
        <ele>253.4</ele>
        <time>2021-10-18T09:18:01Z</time>
      </trkpt>
      <trkpt lat="39.0587680" lon="-6.3041120">
        <ele>253.4</ele>
        <time>2021-10-18T09:18:06Z</time>
      </trkpt>
      <trkpt lat="39.0587310" lon="-6.3043300">
        <ele>253.4</ele>
        <time>2021-10-18T09:18:11Z</time>
      </trkpt>
      <trkpt lat="39.0586810" lon="-6.3046200">
        <ele>253.4</ele>
        <time>2021-10-18T09:18:17Z</time>
      </trkpt>
      <trkpt lat="39.0586730" lon="-6.3049040">
        <ele>253.6</ele>
        <time>2021-10-18T09:18:23Z</time>
      </trkpt>
      <trkpt lat="39.0586810" lon="-6.3050650">
        <ele>253.6</ele>
        <time>2021-10-18T09:18:26Z</time>
      </trkpt>
      <trkpt lat="39.0587210" lon="-6.3055650">
        <ele>253.4</ele>
        <time>2021-10-18T09:18:35Z</time>
      </trkpt>
      <trkpt lat="39.0587470" lon="-6.3060990">
        <ele>253.4</ele>
        <time>2021-10-18T09:18:44Z</time>
      </trkpt>
      <trkpt lat="39.0587090" lon="-6.3065700">
        <ele>253.2</ele>
        <time>2021-10-18T09:18:51Z</time>
      </trkpt>
      <trkpt lat="39.0586930" lon="-6.3067160">
        <ele>252.8</ele>
        <time>2021-10-18T09:18:53Z</time>
      </trkpt>
      <trkpt lat="39.0586530" lon="-6.3070720">
        <ele>252.8</ele>
        <time>2021-10-18T09:18:59Z</time>
      </trkpt>
      <trkpt lat="39.0585900" lon="-6.3076470">
        <ele>252.8</ele>
        <time>2021-10-18T09:19:08Z</time>
      </trkpt>
      <trkpt lat="39.0585120" lon="-6.3082300">
        <ele>252.8</ele>
        <time>2021-10-18T09:19:17Z</time>
      </trkpt>
      <trkpt lat="39.0584420" lon="-6.3087730">
        <ele>252.6</ele>
        <time>2021-10-18T09:19:26Z</time>
      </trkpt>
      <trkpt lat="39.0583960" lon="-6.3092870">
        <ele>252.6</ele>
        <time>2021-10-18T09:19:34Z</time>
      </trkpt>
      <trkpt lat="39.0583900" lon="-6.3097970">
        <ele>252.2</ele>
        <time>2021-10-18T09:19:42Z</time>
      </trkpt>
      <trkpt lat="39.0584000" lon="-6.3099470">
        <ele>252.0</ele>
        <time>2021-10-18T09:19:44Z</time>
      </trkpt>
      <trkpt lat="39.0584500" lon="-6.3101360">
        <ele>252.0</ele>
        <time>2021-10-18T09:19:47Z</time>
      </trkpt>
      <trkpt lat="39.0586420" lon="-6.3106780">
        <ele>251.8</ele>
        <time>2021-10-18T09:19:56Z</time>
      </trkpt>
      <trkpt lat="39.0586670" lon="-6.3107870">
        <ele>251.6</ele>
        <time>2021-10-18T09:19:58Z</time>
      </trkpt>
      <trkpt lat="39.0586920" lon="-6.3110330">
        <ele>251.4</ele>
        <time>2021-10-18T09:20:02Z</time>
      </trkpt>
      <trkpt lat="39.0587130" lon="-6.3114440">
        <ele>251.4</ele>
        <time>2021-10-18T09:20:09Z</time>
      </trkpt>
      <trkpt lat="39.0587960" lon="-6.3117910">
        <ele>251.4</ele>
        <time>2021-10-18T09:20:15Z</time>
      </trkpt>
      <trkpt lat="39.0588060" lon="-6.3118470">
        <ele>251.4</ele>
        <time>2021-10-18T09:20:16Z</time>
      </trkpt>
      <trkpt lat="39.0588170" lon="-6.3119480">
        <ele>251.4</ele>
        <time>2021-10-18T09:20:18Z</time>
      </trkpt>
      <trkpt lat="39.0588130" lon="-6.3121680">
        <ele>251.4</ele>
        <time>2021-10-18T09:20:22Z</time>
      </trkpt>
      <trkpt lat="39.0587750" lon="-6.3125080">
        <ele>251.2</ele>
        <time>2021-10-18T09:20:28Z</time>
      </trkpt>
      <trkpt lat="39.0587410" lon="-6.3126370">
        <ele>251.2</ele>
        <time>2021-10-18T09:20:30Z</time>
      </trkpt>
      <trkpt lat="39.0587210" lon="-6.3127510">
        <ele>251.0</ele>
        <time>2021-10-18T09:20:32Z</time>
      </trkpt>
      <trkpt lat="39.0586800" lon="-6.3130430">
        <ele>251.0</ele>
        <time>2021-10-18T09:20:37Z</time>
      </trkpt>
      <trkpt lat="39.0586110" lon="-6.3135080">
        <ele>251.2</ele>
        <time>2021-10-18T09:20:45Z</time>
      </trkpt>
      <trkpt lat="39.0585440" lon="-6.3137860">
        <ele>251.0</ele>
        <time>2021-10-18T09:20:50Z</time>
      </trkpt>
      <trkpt lat="39.0585330" lon="-6.3138960">
        <ele>251.2</ele>
        <time>2021-10-18T09:20:52Z</time>
      </trkpt>
      <trkpt lat="39.0585250" lon="-6.3139570">
        <ele>251.2</ele>
        <time>2021-10-18T09:20:53Z</time>
      </trkpt>
      <trkpt lat="39.0584650" lon="-6.3141500">
        <ele>251.4</ele>
        <time>2021-10-18T09:20:57Z</time>
      </trkpt>
      <trkpt lat="39.0583510" lon="-6.3144540">
        <ele>251.8</ele>
        <time>2021-10-18T09:21:03Z</time>
      </trkpt>
      <trkpt lat="39.0582990" lon="-6.3145280">
        <ele>251.8</ele>
        <time>2021-10-18T09:21:05Z</time>
      </trkpt>
      <trkpt lat="39.0581400" lon="-6.3146940">
        <ele>251.8</ele>
        <time>2021-10-18T09:21:09Z</time>
      </trkpt>
      <trkpt lat="39.0579940" lon="-6.3148840">
        <ele>251.0</ele>
        <time>2021-10-18T09:21:13Z</time>
      </trkpt>
      <trkpt lat="39.0579650" lon="-6.3149390">
        <ele>250.8</ele>
        <time>2021-10-18T09:21:14Z</time>
      </trkpt>
      <trkpt lat="39.0579180" lon="-6.3150560">
        <ele>250.6</ele>
        <time>2021-10-18T09:21:16Z</time>
      </trkpt>
      <trkpt lat="39.0579020" lon="-6.3151090">
        <ele>250.4</ele>
        <time>2021-10-18T09:21:17Z</time>
      </trkpt>
      <trkpt lat="39.0578670" lon="-6.3151940">
        <ele>250.2</ele>
        <time>2021-10-18T09:21:19Z</time>
      </trkpt>
      <trkpt lat="39.0577900" lon="-6.3153350">
        <ele>250.2</ele>
        <time>2021-10-18T09:21:22Z</time>
      </trkpt>
      <trkpt lat="39.0577320" lon="-6.3154200">
        <ele>250.2</ele>
        <time>2021-10-18T09:21:24Z</time>
      </trkpt>
      <trkpt lat="39.0575980" lon="-6.3155700">
        <ele>250.2</ele>
        <time>2021-10-18T09:21:28Z</time>
      </trkpt>
      <trkpt lat="39.0575350" lon="-6.3156620">
        <ele>250.2</ele>
        <time>2021-10-18T09:21:30Z</time>
      </trkpt>
      <trkpt lat="39.0574090" lon="-6.3159120">
        <ele>250.4</ele>
        <time>2021-10-18T09:21:35Z</time>
      </trkpt>
      <trkpt lat="39.0573310" lon="-6.3160480">
        <ele>250.4</ele>
        <time>2021-10-18T09:21:38Z</time>
      </trkpt>
      <trkpt lat="39.0572370" lon="-6.3162230">
        <ele>250.2</ele>
        <time>2021-10-18T09:21:42Z</time>
      </trkpt>
      <trkpt lat="39.0571540" lon="-6.3164280">
        <ele>250.4</ele>
        <time>2021-10-18T09:21:46Z</time>
      </trkpt>
      <trkpt lat="39.0571040" lon="-6.3165870">
        <ele>250.4</ele>
        <time>2021-10-18T09:21:49Z</time>
      </trkpt>
      <trkpt lat="39.0569200" lon="-6.3169610">
        <ele>250.4</ele>
        <time>2021-10-18T09:21:57Z</time>
      </trkpt>
      <trkpt lat="39.0568530" lon="-6.3171170">
        <ele>250.4</ele>
        <time>2021-10-18T09:22:00Z</time>
      </trkpt>
      <trkpt lat="39.0567970" lon="-6.3172810">
        <ele>250.2</ele>
        <time>2021-10-18T09:22:03Z</time>
      </trkpt>
      <trkpt lat="39.0567810" lon="-6.3173370">
        <ele>250.2</ele>
        <time>2021-10-18T09:22:04Z</time>
      </trkpt>
      <trkpt lat="39.0567250" lon="-6.3175170">
        <ele>250.2</ele>
        <time>2021-10-18T09:22:07Z</time>
      </trkpt>
      <trkpt lat="39.0566740" lon="-6.3176890">
        <ele>250.2</ele>
        <time>2021-10-18T09:22:10Z</time>
      </trkpt>
      <trkpt lat="39.0566090" lon="-6.3179070">
        <ele>250.2</ele>
        <time>2021-10-18T09:22:14Z</time>
      </trkpt>
      <trkpt lat="39.0565700" lon="-6.3180840">
        <ele>250.2</ele>
        <time>2021-10-18T09:22:17Z</time>
      </trkpt>
      <trkpt lat="39.0565260" lon="-6.3182900">
        <ele>250.6</ele>
        <time>2021-10-18T09:22:22Z</time>
      </trkpt>
      <trkpt lat="39.0564290" lon="-6.3185820">
        <ele>250.6</ele>
        <time>2021-10-18T09:22:29Z</time>
      </trkpt>
      <trkpt lat="39.0563370" lon="-6.3188370">
        <ele>250.4</ele>
        <time>2021-10-18T09:22:35Z</time>
      </trkpt>
      <trkpt lat="39.0562120" lon="-6.3190900">
        <ele>250.2</ele>
        <time>2021-10-18T09:22:42Z</time>
      </trkpt>
      <trkpt lat="39.0560650" lon="-6.3193700">
        <ele>250.8</ele>
        <time>2021-10-18T09:22:49Z</time>
      </trkpt>
      <trkpt lat="39.0559670" lon="-6.3197590">
        <ele>251.0</ele>
        <time>2021-10-18T09:22:57Z</time>
      </trkpt>
      <trkpt lat="39.0559030" lon="-6.3200760">
        <ele>251.2</ele>
        <time>2021-10-18T09:23:04Z</time>
      </trkpt>
      <trkpt lat="39.0558800" lon="-6.3201830">
        <ele>251.4</ele>
        <time>2021-10-18T09:23:06Z</time>
      </trkpt>
      <trkpt lat="39.0558230" lon="-6.3205170">
        <ele>251.6</ele>
        <time>2021-10-18T09:23:13Z</time>
      </trkpt>
      <trkpt lat="39.0558380" lon="-6.3207260">
        <ele>251.8</ele>
        <time>2021-10-18T09:23:18Z</time>
      </trkpt>
      <trkpt lat="39.0558880" lon="-6.3209090">
        <ele>252.4</ele>
        <time>2021-10-18T09:23:23Z</time>
      </trkpt>
      <trkpt lat="39.0559010" lon="-6.3210590">
        <ele>252.2</ele>
        <time>2021-10-18T09:23:28Z</time>
      </trkpt>
      <trkpt lat="39.0559080" lon="-6.3211270">
        <ele>252.4</ele>
        <time>2021-10-18T09:23:31Z</time>
      </trkpt>
      <trkpt lat="39.0559100" lon="-6.3211610">
        <ele>252.4</ele>
        <time>2021-10-18T09:23:33Z</time>
      </trkpt>
      <trkpt lat="39.0559060" lon="-6.3211880">
        <ele>252.6</ele>
        <time>2021-10-18T09:23:34Z</time>
      </trkpt>
      <trkpt lat="39.0558840" lon="-6.3213140">
        <ele>252.8</ele>
        <time>2021-10-18T09:23:39Z</time>
      </trkpt>
      <trkpt lat="39.0557680" lon="-6.3214250">
        <ele>253.2</ele>
        <time>2021-10-18T09:23:46Z</time>
      </trkpt>
      <trkpt lat="39.0557570" lon="-6.3214420">
        <ele>253.2</ele>
        <time>2021-10-18T09:23:47Z</time>
      </trkpt>
      <trkpt lat="39.0557290" lon="-6.3214860">
        <ele>253.4</ele>
        <time>2021-10-18T09:23:52Z</time>
      </trkpt>
      <trkpt lat="39.0556860" lon="-6.3215090">
        <ele>253.2</ele>
        <time>2021-10-18T09:24:05Z</time>
      </trkpt>
      <trkpt lat="39.0556380" lon="-6.3215350">
        <ele>253.2</ele>
        <time>2021-10-18T09:24:07Z</time>
      </trkpt>
      <trkpt lat="39.0554430" lon="-6.3216370">
        <ele>253.2</ele>
        <time>2021-10-18T09:24:15Z</time>
      </trkpt>
      <trkpt lat="39.0551480" lon="-6.3217290">
        <ele>253.0</ele>
        <time>2021-10-18T09:24:25Z</time>
      </trkpt>
      <trkpt lat="39.0550020" lon="-6.3217460">
        <ele>253.0</ele>
        <time>2021-10-18T09:24:29Z</time>
      </trkpt>
      <trkpt lat="39.0548050" lon="-6.3217450">
        <ele>253.0</ele>
        <time>2021-10-18T09:24:34Z</time>
      </trkpt>
      <trkpt lat="39.0544210" lon="-6.3216620">
        <ele>253.0</ele>
        <time>2021-10-18T09:24:43Z</time>
      </trkpt>
      <trkpt lat="39.0540440" lon="-6.3215150">
        <ele>253.0</ele>
        <time>2021-10-18T09:24:51Z</time>
      </trkpt>
      <trkpt lat="39.0535300" lon="-6.3212940">
        <ele>253.0</ele>
        <time>2021-10-18T09:25:02Z</time>
      </trkpt>
      <trkpt lat="39.0534580" lon="-6.3212640">
        <ele>253.0</ele>
        <time>2021-10-18T09:25:04Z</time>
      </trkpt>
      <trkpt lat="39.0533780" lon="-6.3212290">
        <ele>253.0</ele>
        <time>2021-10-18T09:25:06Z</time>
      </trkpt>
      <trkpt lat="39.0532150" lon="-6.3211590">
        <ele>253.0</ele>
        <time>2021-10-18T09:25:10Z</time>
      </trkpt>
      <trkpt lat="39.0530430" lon="-6.3210820">
        <ele>253.2</ele>
        <time>2021-10-18T09:25:14Z</time>
      </trkpt>
      <trkpt lat="39.0526640" lon="-6.3209400">
        <ele>253.2</ele>
        <time>2021-10-18T09:25:23Z</time>
      </trkpt>
      <trkpt lat="39.0526210" lon="-6.3209370">
        <ele>253.0</ele>
        <time>2021-10-18T09:25:24Z</time>
      </trkpt>
      <trkpt lat="39.0525700" lon="-6.3209390">
        <ele>253.2</ele>
        <time>2021-10-18T09:25:25Z</time>
      </trkpt>
      <trkpt lat="39.0524900" lon="-6.3209660">
        <ele>253.2</ele>
        <time>2021-10-18T09:25:27Z</time>
      </trkpt>
      <trkpt lat="39.0524600" lon="-6.3209860">
        <ele>253.0</ele>
        <time>2021-10-18T09:25:28Z</time>
      </trkpt>
      <trkpt lat="39.0523880" lon="-6.3210380">
        <ele>252.8</ele>
        <time>2021-10-18T09:25:30Z</time>
      </trkpt>
      <trkpt lat="39.0523010" lon="-6.3211460">
        <ele>252.6</ele>
        <time>2021-10-18T09:25:33Z</time>
      </trkpt>
      <trkpt lat="39.0521820" lon="-6.3213540">
        <ele>252.2</ele>
        <time>2021-10-18T09:25:37Z</time>
      </trkpt>
      <trkpt lat="39.0521150" lon="-6.3214700">
        <ele>252.2</ele>
        <time>2021-10-18T09:25:39Z</time>
      </trkpt>
      <trkpt lat="39.0519730" lon="-6.3217220">
        <ele>251.6</ele>
        <time>2021-10-18T09:25:43Z</time>
      </trkpt>
      <trkpt lat="39.0518290" lon="-6.3219730">
        <ele>250.8</ele>
        <time>2021-10-18T09:25:47Z</time>
      </trkpt>
      <trkpt lat="39.0517940" lon="-6.3220340">
        <ele>250.6</ele>
        <time>2021-10-18T09:25:48Z</time>
      </trkpt>
      <trkpt lat="39.0514590" lon="-6.3226120">
        <ele>249.8</ele>
        <time>2021-10-18T09:25:58Z</time>
      </trkpt>
      <trkpt lat="39.0512690" lon="-6.3229260">
        <ele>249.4</ele>
        <time>2021-10-18T09:26:04Z</time>
      </trkpt>
      <trkpt lat="39.0512150" lon="-6.3230250">
        <ele>249.4</ele>
        <time>2021-10-18T09:26:06Z</time>
      </trkpt>
      <trkpt lat="39.0508860" lon="-6.3235970">
        <ele>249.0</ele>
        <time>2021-10-18T09:26:16Z</time>
      </trkpt>
      <trkpt lat="39.0508540" lon="-6.3236550">
        <ele>249.0</ele>
        <time>2021-10-18T09:26:17Z</time>
      </trkpt>
      <trkpt lat="39.0505810" lon="-6.3241280">
        <ele>248.8</ele>
        <time>2021-10-18T09:26:25Z</time>
      </trkpt>
      <trkpt lat="39.0502480" lon="-6.3247110">
        <ele>248.6</ele>
        <time>2021-10-18T09:26:35Z</time>
      </trkpt>
      <trkpt lat="39.0501450" lon="-6.3248880">
        <ele>248.6</ele>
        <time>2021-10-18T09:26:38Z</time>
      </trkpt>
      <trkpt lat="39.0499610" lon="-6.3251530">
        <ele>248.4</ele>
        <time>2021-10-18T09:26:43Z</time>
      </trkpt>
      <trkpt lat="39.0499100" lon="-6.3252150">
        <ele>248.4</ele>
        <time>2021-10-18T09:26:44Z</time>
      </trkpt>
      <trkpt lat="39.0495880" lon="-6.3255160">
        <ele>248.2</ele>
        <time>2021-10-18T09:26:51Z</time>
      </trkpt>
      <trkpt lat="39.0491910" lon="-6.3259190">
        <ele>248.0</ele>
        <time>2021-10-18T09:27:00Z</time>
      </trkpt>
      <trkpt lat="39.0490010" lon="-6.3262430">
        <ele>247.8</ele>
        <time>2021-10-18T09:27:06Z</time>
      </trkpt>
      <trkpt lat="39.0486900" lon="-6.3268650">
        <ele>247.4</ele>
        <time>2021-10-18T09:27:16Z</time>
      </trkpt>
      <trkpt lat="39.0484830" lon="-6.3272870">
        <ele>247.4</ele>
        <time>2021-10-18T09:27:23Z</time>
      </trkpt>
      <trkpt lat="39.0483710" lon="-6.3275090">
        <ele>247.2</ele>
        <time>2021-10-18T09:27:27Z</time>
      </trkpt>
      <trkpt lat="39.0481390" lon="-6.3279890">
        <ele>247.6</ele>
        <time>2021-10-18T09:27:36Z</time>
      </trkpt>
      <trkpt lat="39.0480270" lon="-6.3282170">
        <ele>247.6</ele>
        <time>2021-10-18T09:27:40Z</time>
      </trkpt>
      <trkpt lat="39.0479120" lon="-6.3284440">
        <ele>247.6</ele>
        <time>2021-10-18T09:27:44Z</time>
      </trkpt>
      <trkpt lat="39.0478820" lon="-6.3284960">
        <ele>247.6</ele>
        <time>2021-10-18T09:27:45Z</time>
      </trkpt>
      <trkpt lat="39.0476200" lon="-6.3288730">
        <ele>247.6</ele>
        <time>2021-10-18T09:27:53Z</time>
      </trkpt>
      <trkpt lat="39.0472820" lon="-6.3291470">
        <ele>247.6</ele>
        <time>2021-10-18T09:28:01Z</time>
      </trkpt>
      <trkpt lat="39.0469580" lon="-6.3294180">
        <ele>247.6</ele>
        <time>2021-10-18T09:28:09Z</time>
      </trkpt>
      <trkpt lat="39.0468110" lon="-6.3295440">
        <ele>247.6</ele>
        <time>2021-10-18T09:28:13Z</time>
      </trkpt>
      <trkpt lat="39.0467100" lon="-6.3296400">
        <ele>247.6</ele>
        <time>2021-10-18T09:28:16Z</time>
      </trkpt>
      <trkpt lat="39.0466830" lon="-6.3296750">
        <ele>247.6</ele>
        <time>2021-10-18T09:28:17Z</time>
      </trkpt>
      <trkpt lat="39.0466360" lon="-6.3297810">
        <ele>247.8</ele>
        <time>2021-10-18T09:28:20Z</time>
      </trkpt>
      <trkpt lat="39.0466050" lon="-6.3299870">
        <ele>247.6</ele>
        <time>2021-10-18T09:28:25Z</time>
      </trkpt>
      <trkpt lat="39.0466000" lon="-6.3300940">
        <ele>247.6</ele>
        <time>2021-10-18T09:28:29Z</time>
      </trkpt>
      <trkpt lat="39.0465970" lon="-6.3301020">
        <ele>247.6</ele>
        <time>2021-10-18T09:28:30Z</time>
      </trkpt>
      <trkpt lat="39.0465970" lon="-6.3301020">
        <ele>247.4</ele>
        <time>2021-10-18T09:28:31Z</time>
      </trkpt>
      <trkpt lat="39.0465360" lon="-6.3301180">
        <ele>247.8</ele>
        <time>2021-10-18T09:29:51Z</time>
      </trkpt>
      <trkpt lat="39.0464950" lon="-6.3301140">
        <ele>247.8</ele>
        <time>2021-10-18T09:29:53Z</time>
      </trkpt>
      <trkpt lat="39.0463090" lon="-6.3301490">
        <ele>247.8</ele>
        <time>2021-10-18T09:30:00Z</time>
      </trkpt>
      <trkpt lat="39.0460890" lon="-6.3301870">
        <ele>247.8</ele>
        <time>2021-10-18T09:30:08Z</time>
      </trkpt>
      <trkpt lat="39.0459430" lon="-6.3302230">
        <ele>248.0</ele>
        <time>2021-10-18T09:30:13Z</time>
      </trkpt>
      <trkpt lat="39.0458380" lon="-6.3302610">
        <ele>248.2</ele>
        <time>2021-10-18T09:30:17Z</time>
      </trkpt>
      <trkpt lat="39.0457440" lon="-6.3302830">
        <ele>248.6</ele>
        <time>2021-10-18T09:30:22Z</time>
      </trkpt>
      <trkpt lat="39.0457290" lon="-6.3302830">
        <ele>248.6</ele>
        <time>2021-10-18T09:30:23Z</time>
      </trkpt>
      <trkpt lat="39.0457230" lon="-6.3302860">
        <ele>248.6</ele>
        <time>2021-10-18T09:30:26Z</time>
      </trkpt>
      <trkpt lat="39.0456690" lon="-6.3303000">
        <ele>248.8</ele>
        <time>2021-10-18T09:31:03Z</time>
      </trkpt>
      <trkpt lat="39.0456400" lon="-6.3303090">
        <ele>249.0</ele>
        <time>2021-10-18T09:31:04Z</time>
      </trkpt>
      <trkpt lat="39.0456130" lon="-6.3303200">
        <ele>249.0</ele>
        <time>2021-10-18T09:31:05Z</time>
      </trkpt>
      <trkpt lat="39.0455030" lon="-6.3303720">
        <ele>249.2</ele>
        <time>2021-10-18T09:31:10Z</time>
      </trkpt>
      <trkpt lat="39.0454730" lon="-6.3303890">
        <ele>249.4</ele>
        <time>2021-10-18T09:31:12Z</time>
      </trkpt>
      <trkpt lat="39.0454510" lon="-6.3304020">
        <ele>249.6</ele>
        <time>2021-10-18T09:31:13Z</time>
      </trkpt>
      <trkpt lat="39.0453070" lon="-6.3304840">
        <ele>250.8</ele>
        <time>2021-10-18T09:31:20Z</time>
      </trkpt>
      <trkpt lat="39.0452160" lon="-6.3305240">
        <ele>251.4</ele>
        <time>2021-10-18T09:31:24Z</time>
      </trkpt>
      <trkpt lat="39.0451560" lon="-6.3305610">
        <ele>251.8</ele>
        <time>2021-10-18T09:31:27Z</time>
      </trkpt>
      <trkpt lat="39.0450570" lon="-6.3306170">
        <ele>252.8</ele>
        <time>2021-10-18T09:31:32Z</time>
      </trkpt>
      <trkpt lat="39.0449630" lon="-6.3306660">
        <ele>253.6</ele>
        <time>2021-10-18T09:31:37Z</time>
      </trkpt>
      <trkpt lat="39.0449310" lon="-6.3306820">
        <ele>254.0</ele>
        <time>2021-10-18T09:31:39Z</time>
      </trkpt>
      <trkpt lat="39.0449110" lon="-6.3306920">
        <ele>254.4</ele>
        <time>2021-10-18T09:31:40Z</time>
      </trkpt>
      <trkpt lat="39.0448450" lon="-6.3307240">
        <ele>255.2</ele>
        <time>2021-10-18T09:31:44Z</time>
      </trkpt>
      <trkpt lat="39.0447360" lon="-6.3307700">
        <ele>256.4</ele>
        <time>2021-10-18T09:31:50Z</time>
      </trkpt>
      <trkpt lat="39.0446300" lon="-6.3308240">
        <ele>257.4</ele>
        <time>2021-10-18T09:31:57Z</time>
      </trkpt>
      <trkpt lat="39.0445860" lon="-6.3308560">
        <ele>258.2</ele>
        <time>2021-10-18T09:32:00Z</time>
      </trkpt>
      <trkpt lat="39.0445620" lon="-6.3308810">
        <ele>258.6</ele>
        <time>2021-10-18T09:32:02Z</time>
      </trkpt>
      <trkpt lat="39.0444770" lon="-6.3309470">
        <ele>259.6</ele>
        <time>2021-10-18T09:32:09Z</time>
      </trkpt>
      <trkpt lat="39.0444420" lon="-6.3309680">
        <ele>260.6</ele>
        <time>2021-10-18T09:32:12Z</time>
      </trkpt>
      <trkpt lat="39.0444230" lon="-6.3309760">
        <ele>260.8</ele>
        <time>2021-10-18T09:32:13Z</time>
      </trkpt>
      <trkpt lat="39.0443550" lon="-6.3310250">
        <ele>261.4</ele>
        <time>2021-10-18T09:32:18Z</time>
      </trkpt>
      <trkpt lat="39.0443280" lon="-6.3310420">
        <ele>262.0</ele>
        <time>2021-10-18T09:32:20Z</time>
      </trkpt>
      <trkpt lat="39.0442970" lon="-6.3310670">
        <ele>262.2</ele>
        <time>2021-10-18T09:32:22Z</time>
      </trkpt>
      <trkpt lat="39.0442640" lon="-6.3310900">
        <ele>262.4</ele>
        <time>2021-10-18T09:32:24Z</time>
      </trkpt>
      <trkpt lat="39.0442370" lon="-6.3311070">
        <ele>262.8</ele>
        <time>2021-10-18T09:32:26Z</time>
      </trkpt>
      <trkpt lat="39.0442180" lon="-6.3311160">
        <ele>262.8</ele>
        <time>2021-10-18T09:32:27Z</time>
      </trkpt>
      <trkpt lat="39.0441930" lon="-6.3311290">
        <ele>263.0</ele>
        <time>2021-10-18T09:32:29Z</time>
      </trkpt>
      <trkpt lat="39.0441600" lon="-6.3311450">
        <ele>263.4</ele>
        <time>2021-10-18T09:32:31Z</time>
      </trkpt>
      <trkpt lat="39.0441170" lon="-6.3311740">
        <ele>263.6</ele>
        <time>2021-10-18T09:32:34Z</time>
      </trkpt>
      <trkpt lat="39.0440880" lon="-6.3311910">
        <ele>264.0</ele>
        <time>2021-10-18T09:32:36Z</time>
      </trkpt>
      <trkpt lat="39.0440310" lon="-6.3312100">
        <ele>264.6</ele>
        <time>2021-10-18T09:32:40Z</time>
      </trkpt>
      <trkpt lat="39.0439870" lon="-6.3312190">
        <ele>264.6</ele>
        <time>2021-10-18T09:32:43Z</time>
      </trkpt>
      <trkpt lat="39.0439560" lon="-6.3312280">
        <ele>264.6</ele>
        <time>2021-10-18T09:32:45Z</time>
      </trkpt>
      <trkpt lat="39.0439310" lon="-6.3312430">
        <ele>264.8</ele>
        <time>2021-10-18T09:32:47Z</time>
      </trkpt>
      <trkpt lat="39.0438560" lon="-6.3312700">
        <ele>264.6</ele>
        <time>2021-10-18T09:32:52Z</time>
      </trkpt>
      <trkpt lat="39.0438410" lon="-6.3312730">
        <ele>264.6</ele>
        <time>2021-10-18T09:32:53Z</time>
      </trkpt>
      <trkpt lat="39.0438230" lon="-6.3312660">
        <ele>264.6</ele>
        <time>2021-10-18T09:32:54Z</time>
      </trkpt>
      <trkpt lat="39.0437720" lon="-6.3311620">
        <ele>264.4</ele>
        <time>2021-10-18T09:33:00Z</time>
      </trkpt>
      <trkpt lat="39.0437500" lon="-6.3310610">
        <ele>264.6</ele>
        <time>2021-10-18T09:33:05Z</time>
      </trkpt>
      <trkpt lat="39.0437350" lon="-6.3309760">
        <ele>265.0</ele>
        <time>2021-10-18T09:33:09Z</time>
      </trkpt>
      <trkpt lat="39.0437270" lon="-6.3309130">
        <ele>265.4</ele>
        <time>2021-10-18T09:33:12Z</time>
      </trkpt>
      <trkpt lat="39.0437260" lon="-6.3308420">
        <ele>265.6</ele>
        <time>2021-10-18T09:33:16Z</time>
      </trkpt>
      <trkpt lat="39.0437280" lon="-6.3308250">
        <ele>265.8</ele>
        <time>2021-10-18T09:33:17Z</time>
      </trkpt>
      <trkpt lat="39.0437370" lon="-6.3307970">
        <ele>266.2</ele>
        <time>2021-10-18T09:33:19Z</time>
      </trkpt>
      <trkpt lat="39.0437470" lon="-6.3307860">
        <ele>266.4</ele>
        <time>2021-10-18T09:33:22Z</time>
      </trkpt>
      <trkpt lat="39.0437470" lon="-6.3307860">
        <ele>266.4</ele>
        <time>2021-10-18T09:33:23Z</time>
      </trkpt>
      <trkpt lat="39.0437900" lon="-6.3307440">
        <ele>266.6</ele>
        <time>2021-10-18T09:33:39Z</time>
      </trkpt>
      <trkpt lat="39.0437910" lon="-6.3307130">
        <ele>266.6</ele>
        <time>2021-10-18T09:33:41Z</time>
      </trkpt>
      <trkpt lat="39.0437910" lon="-6.3307040">
        <ele>266.6</ele>
        <time>2021-10-18T09:33:42Z</time>
      </trkpt>
      <trkpt lat="39.0437960" lon="-6.3306810">
        <ele>266.6</ele>
        <time>2021-10-18T09:33:46Z</time>
      </trkpt>
      <trkpt lat="39.0438020" lon="-6.3306680">
        <ele>266.6</ele>
        <time>2021-10-18T09:33:48Z</time>
      </trkpt>
      <trkpt lat="39.0438050" lon="-6.3306600">
        <ele>266.8</ele>
        <time>2021-10-18T09:33:49Z</time>
      </trkpt>
      <trkpt lat="39.0438070" lon="-6.3306560">
        <ele>266.8</ele>
        <time>2021-10-18T09:33:53Z</time>
      </trkpt>
      <trkpt lat="39.0437780" lon="-6.3307040">
        <ele>266.4</ele>
        <time>2021-10-18T09:55:59Z</time>
      </trkpt>
      <trkpt lat="39.0437470" lon="-6.3307120">
        <ele>266.4</ele>
        <time>2021-10-18T09:56:01Z</time>
      </trkpt>
      <trkpt lat="39.0437160" lon="-6.3307150">
        <ele>266.4</ele>
        <time>2021-10-18T09:56:03Z</time>
      </trkpt>
      <trkpt lat="39.0436690" lon="-6.3306750">
        <ele>266.6</ele>
        <time>2021-10-18T09:56:07Z</time>
      </trkpt>
      <trkpt lat="39.0436360" lon="-6.3306370">
        <ele>266.8</ele>
        <time>2021-10-18T09:56:10Z</time>
      </trkpt>
      <trkpt lat="39.0435770" lon="-6.3306050">
        <ele>267.0</ele>
        <time>2021-10-18T09:56:14Z</time>
      </trkpt>
      <trkpt lat="39.0435390" lon="-6.3305810">
        <ele>267.4</ele>
        <time>2021-10-18T09:56:17Z</time>
      </trkpt>
      <trkpt lat="39.0435180" lon="-6.3305640">
        <ele>267.6</ele>
        <time>2021-10-18T09:56:19Z</time>
      </trkpt>
      <trkpt lat="39.0434930" lon="-6.3305470">
        <ele>267.8</ele>
        <time>2021-10-18T09:56:21Z</time>
      </trkpt>
      <trkpt lat="39.0434770" lon="-6.3305420">
        <ele>267.8</ele>
        <time>2021-10-18T09:56:22Z</time>
      </trkpt>
      <trkpt lat="39.0434150" lon="-6.3305030">
        <ele>268.0</ele>
        <time>2021-10-18T09:56:26Z</time>
      </trkpt>
      <trkpt lat="39.0433670" lon="-6.3304770">
        <ele>268.4</ele>
        <time>2021-10-18T09:56:29Z</time>
      </trkpt>
      <trkpt lat="39.0433500" lon="-6.3304780">
        <ele>268.6</ele>
        <time>2021-10-18T09:56:31Z</time>
      </trkpt>
      <trkpt lat="39.0433500" lon="-6.3304780">
        <ele>268.8</ele>
        <time>2021-10-18T09:56:33Z</time>
      </trkpt>
      <trkpt lat="39.0433500" lon="-6.3304780">
        <ele>269.0</ele>
        <time>2021-10-18T09:56:34Z</time>
      </trkpt>
      <trkpt lat="39.0433180" lon="-6.3304430">
        <ele>269.2</ele>
        <time>2021-10-18T09:56:47Z</time>
      </trkpt>
      <trkpt lat="39.0433070" lon="-6.3304250">
        <ele>269.2</ele>
        <time>2021-10-18T09:56:48Z</time>
      </trkpt>
      <trkpt lat="39.0432350" lon="-6.3303590">
        <ele>269.4</ele>
        <time>2021-10-18T09:56:53Z</time>
      </trkpt>
      <trkpt lat="39.0432180" lon="-6.3303480">
        <ele>269.6</ele>
        <time>2021-10-18T09:56:54Z</time>
      </trkpt>
      <trkpt lat="39.0431840" lon="-6.3303330">
        <ele>269.8</ele>
        <time>2021-10-18T09:56:56Z</time>
      </trkpt>
      <trkpt lat="39.0430950" lon="-6.3302980">
        <ele>270.6</ele>
        <time>2021-10-18T09:57:01Z</time>
      </trkpt>
      <trkpt lat="39.0430780" lon="-6.3302920">
        <ele>270.8</ele>
        <time>2021-10-18T09:57:02Z</time>
      </trkpt>
      <trkpt lat="39.0430270" lon="-6.3302770">
        <ele>271.0</ele>
        <time>2021-10-18T09:57:05Z</time>
      </trkpt>
      <trkpt lat="39.0429960" lon="-6.3302640">
        <ele>271.2</ele>
        <time>2021-10-18T09:57:07Z</time>
      </trkpt>
      <trkpt lat="39.0429660" lon="-6.3302640">
        <ele>271.6</ele>
        <time>2021-10-18T09:57:09Z</time>
      </trkpt>
      <trkpt lat="39.0429130" lon="-6.3302460">
        <ele>271.8</ele>
        <time>2021-10-18T09:57:13Z</time>
      </trkpt>
      <trkpt lat="39.0428810" lon="-6.3302290">
        <ele>272.0</ele>
        <time>2021-10-18T09:57:15Z</time>
      </trkpt>
      <trkpt lat="39.0428640" lon="-6.3302230">
        <ele>272.2</ele>
        <time>2021-10-18T09:57:16Z</time>
      </trkpt>
      <trkpt lat="39.0427350" lon="-6.3301490">
        <ele>272.6</ele>
        <time>2021-10-18T09:57:23Z</time>
      </trkpt>
      <trkpt lat="39.0426390" lon="-6.3300830">
        <ele>273.2</ele>
        <time>2021-10-18T09:57:28Z</time>
      </trkpt>
      <trkpt lat="39.0426200" lon="-6.3300710">
        <ele>273.4</ele>
        <time>2021-10-18T09:57:29Z</time>
      </trkpt>
      <trkpt lat="39.0425320" lon="-6.3300090">
        <ele>274.0</ele>
        <time>2021-10-18T09:57:34Z</time>
      </trkpt>
      <trkpt lat="39.0425120" lon="-6.3299960">
        <ele>274.2</ele>
        <time>2021-10-18T09:57:35Z</time>
      </trkpt>
      <trkpt lat="39.0424930" lon="-6.3299840">
        <ele>274.4</ele>
        <time>2021-10-18T09:57:36Z</time>
      </trkpt>
      <trkpt lat="39.0424170" lon="-6.3299350">
        <ele>275.0</ele>
        <time>2021-10-18T09:57:40Z</time>
      </trkpt>
      <trkpt lat="39.0423470" lon="-6.3298700">
        <ele>275.4</ele>
        <time>2021-10-18T09:57:44Z</time>
      </trkpt>
      <trkpt lat="39.0423290" lon="-6.3298580">
        <ele>275.6</ele>
        <time>2021-10-18T09:57:45Z</time>
      </trkpt>
      <trkpt lat="39.0422240" lon="-6.3297780">
        <ele>276.2</ele>
        <time>2021-10-18T09:57:51Z</time>
      </trkpt>
      <trkpt lat="39.0421550" lon="-6.3297250">
        <ele>276.6</ele>
        <time>2021-10-18T09:57:55Z</time>
      </trkpt>
      <trkpt lat="39.0421220" lon="-6.3297040">
        <ele>276.8</ele>
        <time>2021-10-18T09:57:57Z</time>
      </trkpt>
      <trkpt lat="39.0420100" lon="-6.3296100">
        <ele>277.6</ele>
        <time>2021-10-18T09:58:04Z</time>
      </trkpt>
      <trkpt lat="39.0419410" lon="-6.3295650">
        <ele>278.0</ele>
        <time>2021-10-18T09:58:08Z</time>
      </trkpt>
      <trkpt lat="39.0418580" lon="-6.3295070">
        <ele>278.6</ele>
        <time>2021-10-18T09:58:13Z</time>
      </trkpt>
      <trkpt lat="39.0417830" lon="-6.3294680">
        <ele>279.4</ele>
        <time>2021-10-18T09:58:17Z</time>
      </trkpt>
      <trkpt lat="39.0417210" lon="-6.3294590">
        <ele>279.8</ele>
        <time>2021-10-18T09:58:20Z</time>
      </trkpt>
      <trkpt lat="39.0416810" lon="-6.3294650">
        <ele>280.0</ele>
        <time>2021-10-18T09:58:22Z</time>
      </trkpt>
      <trkpt lat="39.0416260" lon="-6.3294890">
        <ele>280.4</ele>
        <time>2021-10-18T09:58:25Z</time>
      </trkpt>
      <trkpt lat="39.0415880" lon="-6.3294980">
        <ele>280.8</ele>
        <time>2021-10-18T09:58:27Z</time>
      </trkpt>
      <trkpt lat="39.0415670" lon="-6.3295020">
        <ele>280.8</ele>
        <time>2021-10-18T09:58:28Z</time>
      </trkpt>
      <trkpt lat="39.0414520" lon="-6.3295470">
        <ele>281.6</ele>
        <time>2021-10-18T09:58:37Z</time>
      </trkpt>
      <trkpt lat="39.0414520" lon="-6.3295470">
        <ele>281.6</ele>
        <time>2021-10-18T09:58:38Z</time>
      </trkpt>
      <trkpt lat="39.0414080" lon="-6.3295790">
        <ele>281.0</ele>
        <time>2021-10-18T10:00:05Z</time>
      </trkpt>
      <trkpt lat="39.0413850" lon="-6.3296030">
        <ele>281.0</ele>
        <time>2021-10-18T10:00:06Z</time>
      </trkpt>
      <trkpt lat="39.0413610" lon="-6.3296330">
        <ele>281.0</ele>
        <time>2021-10-18T10:00:07Z</time>
      </trkpt>
      <trkpt lat="39.0412480" lon="-6.3297940">
        <ele>280.8</ele>
        <time>2021-10-18T10:00:11Z</time>
      </trkpt>
      <trkpt lat="39.0412190" lon="-6.3298440">
        <ele>280.6</ele>
        <time>2021-10-18T10:00:12Z</time>
      </trkpt>
      <trkpt lat="39.0411300" lon="-6.3300150">
        <ele>279.8</ele>
        <time>2021-10-18T10:00:15Z</time>
      </trkpt>
      <trkpt lat="39.0410600" lon="-6.3301680">
        <ele>279.6</ele>
        <time>2021-10-18T10:00:17Z</time>
      </trkpt>
      <trkpt lat="39.0410330" lon="-6.3302270">
        <ele>279.0</ele>
        <time>2021-10-18T10:00:18Z</time>
      </trkpt>
      <trkpt lat="39.0409420" lon="-6.3304580">
        <ele>277.4</ele>
        <time>2021-10-18T10:00:21Z</time>
      </trkpt>
      <trkpt lat="39.0408440" lon="-6.3307160">
        <ele>276.6</ele>
        <time>2021-10-18T10:00:24Z</time>
      </trkpt>
      <trkpt lat="39.0408070" lon="-6.3308240">
        <ele>276.0</ele>
        <time>2021-10-18T10:00:25Z</time>
      </trkpt>
      <trkpt lat="39.0407250" lon="-6.3310770">
        <ele>274.8</ele>
        <time>2021-10-18T10:00:28Z</time>
      </trkpt>
      <trkpt lat="39.0406270" lon="-6.3313820">
        <ele>273.6</ele>
        <time>2021-10-18T10:00:31Z</time>
      </trkpt>
      <trkpt lat="39.0405530" lon="-6.3316750">
        <ele>272.0</ele>
        <time>2021-10-18T10:00:34Z</time>
      </trkpt>
      <trkpt lat="39.0404620" lon="-6.3320110">
        <ele>270.4</ele>
        <time>2021-10-18T10:00:38Z</time>
      </trkpt>
      <trkpt lat="39.0404400" lon="-6.3320750">
        <ele>269.8</ele>
        <time>2021-10-18T10:00:39Z</time>
      </trkpt>
      <trkpt lat="39.0403830" lon="-6.3321470">
        <ele>269.0</ele>
        <time>2021-10-18T10:00:41Z</time>
      </trkpt>
      <trkpt lat="39.0403570" lon="-6.3321450">
        <ele>268.8</ele>
        <time>2021-10-18T10:00:42Z</time>
      </trkpt>
      <trkpt lat="39.0403190" lon="-6.3321320">
        <ele>268.2</ele>
        <time>2021-10-18T10:00:44Z</time>
      </trkpt>
      <trkpt lat="39.0403090" lon="-6.3321340">
        <ele>268.0</ele>
        <time>2021-10-18T10:00:45Z</time>
      </trkpt>
      <trkpt lat="39.0403050" lon="-6.3321380">
        <ele>267.8</ele>
        <time>2021-10-18T10:00:46Z</time>
      </trkpt>
      <trkpt lat="39.0403050" lon="-6.3321380">
        <ele>267.6</ele>
        <time>2021-10-18T10:00:48Z</time>
      </trkpt>
      <trkpt lat="39.0403840" lon="-6.3322480">
        <ele>267.0</ele>
        <time>2021-10-18T10:01:01Z</time>
      </trkpt>
      <trkpt lat="39.0403890" lon="-6.3322870">
        <ele>267.0</ele>
        <time>2021-10-18T10:01:02Z</time>
      </trkpt>
      <trkpt lat="39.0403860" lon="-6.3324060">
        <ele>266.8</ele>
        <time>2021-10-18T10:01:05Z</time>
      </trkpt>
      <trkpt lat="39.0403720" lon="-6.3325360">
        <ele>266.6</ele>
        <time>2021-10-18T10:01:08Z</time>
      </trkpt>
      <trkpt lat="39.0403320" lon="-6.3327230">
        <ele>266.6</ele>
        <time>2021-10-18T10:01:12Z</time>
      </trkpt>
      <trkpt lat="39.0402940" lon="-6.3329030">
        <ele>266.2</ele>
        <time>2021-10-18T10:01:16Z</time>
      </trkpt>
      <trkpt lat="39.0402480" lon="-6.3331050">
        <ele>266.2</ele>
        <time>2021-10-18T10:01:20Z</time>
      </trkpt>
      <trkpt lat="39.0401730" lon="-6.3334200">
        <ele>266.2</ele>
        <time>2021-10-18T10:01:26Z</time>
      </trkpt>
      <trkpt lat="39.0400950" lon="-6.3337250">
        <ele>266.8</ele>
        <time>2021-10-18T10:01:33Z</time>
      </trkpt>
      <trkpt lat="39.0400830" lon="-6.3337470">
        <ele>266.8</ele>
        <time>2021-10-18T10:01:34Z</time>
      </trkpt>
      <trkpt lat="39.0399810" lon="-6.3338040">
        <ele>267.2</ele>
        <time>2021-10-18T10:01:38Z</time>
      </trkpt>
      <trkpt lat="39.0397750" lon="-6.3338200">
        <ele>267.8</ele>
        <time>2021-10-18T10:01:46Z</time>
      </trkpt>
      <trkpt lat="39.0396920" lon="-6.3338280">
        <ele>268.0</ele>
        <time>2021-10-18T10:01:49Z</time>
      </trkpt>
      <trkpt lat="39.0395360" lon="-6.3338570">
        <ele>269.0</ele>
        <time>2021-10-18T10:01:56Z</time>
      </trkpt>
      <trkpt lat="39.0394570" lon="-6.3338620">
        <ele>269.8</ele>
        <time>2021-10-18T10:02:00Z</time>
      </trkpt>
      <trkpt lat="39.0394200" lon="-6.3338620">
        <ele>270.0</ele>
        <time>2021-10-18T10:02:02Z</time>
      </trkpt>
      <trkpt lat="39.0393360" lon="-6.3338830">
        <ele>271.2</ele>
        <time>2021-10-18T10:02:07Z</time>
      </trkpt>
      <trkpt lat="39.0392680" lon="-6.3338990">
        <ele>272.2</ele>
        <time>2021-10-18T10:02:11Z</time>
      </trkpt>
      <trkpt lat="39.0392230" lon="-6.3339130">
        <ele>272.8</ele>
        <time>2021-10-18T10:02:14Z</time>
      </trkpt>
      <trkpt lat="39.0391760" lon="-6.3339240">
        <ele>273.4</ele>
        <time>2021-10-18T10:02:17Z</time>
      </trkpt>
      <trkpt lat="39.0391120" lon="-6.3339430">
        <ele>274.0</ele>
        <time>2021-10-18T10:02:21Z</time>
      </trkpt>
      <trkpt lat="39.0390570" lon="-6.3339570">
        <ele>274.6</ele>
        <time>2021-10-18T10:02:25Z</time>
      </trkpt>
      <trkpt lat="39.0389950" lon="-6.3339800">
        <ele>275.0</ele>
        <time>2021-10-18T10:02:29Z</time>
      </trkpt>
      <trkpt lat="39.0389800" lon="-6.3339870">
        <ele>275.0</ele>
        <time>2021-10-18T10:02:30Z</time>
      </trkpt>
      <trkpt lat="39.0389440" lon="-6.3340160">
        <ele>275.6</ele>
        <time>2021-10-18T10:02:33Z</time>
      </trkpt>
      <trkpt lat="39.0389160" lon="-6.3340290">
        <ele>275.8</ele>
        <time>2021-10-18T10:02:35Z</time>
      </trkpt>
      <trkpt lat="39.0388830" lon="-6.3340440">
        <ele>276.0</ele>
        <time>2021-10-18T10:02:37Z</time>
      </trkpt>
      <trkpt lat="39.0388580" lon="-6.3340580">
        <ele>276.2</ele>
        <time>2021-10-18T10:02:39Z</time>
      </trkpt>
      <trkpt lat="39.0388290" lon="-6.3340730">
        <ele>276.4</ele>
        <time>2021-10-18T10:02:41Z</time>
      </trkpt>
      <trkpt lat="39.0388150" lon="-6.3340790">
        <ele>276.6</ele>
        <time>2021-10-18T10:02:42Z</time>
      </trkpt>
      <trkpt lat="39.0387980" lon="-6.3340810">
        <ele>276.6</ele>
        <time>2021-10-18T10:02:43Z</time>
      </trkpt>
      <trkpt lat="39.0387690" lon="-6.3340900">
        <ele>276.8</ele>
        <time>2021-10-18T10:02:45Z</time>
      </trkpt>
      <trkpt lat="39.0387380" lon="-6.3341040">
        <ele>276.8</ele>
        <time>2021-10-18T10:02:47Z</time>
      </trkpt>
      <trkpt lat="39.0387050" lon="-6.3341160">
        <ele>277.0</ele>
        <time>2021-10-18T10:02:49Z</time>
      </trkpt>
      <trkpt lat="39.0386560" lon="-6.3341250">
        <ele>277.0</ele>
        <time>2021-10-18T10:02:52Z</time>
      </trkpt>
      <trkpt lat="39.0386400" lon="-6.3341270">
        <ele>277.0</ele>
        <time>2021-10-18T10:02:53Z</time>
      </trkpt>
      <trkpt lat="39.0385120" lon="-6.3341550">
        <ele>277.6</ele>
        <time>2021-10-18T10:03:01Z</time>
      </trkpt>
      <trkpt lat="39.0384820" lon="-6.3341600">
        <ele>277.8</ele>
        <time>2021-10-18T10:03:03Z</time>
      </trkpt>
      <trkpt lat="39.0383560" lon="-6.3341730">
        <ele>278.6</ele>
        <time>2021-10-18T10:03:11Z</time>
      </trkpt>
      <trkpt lat="39.0383090" lon="-6.3341780">
        <ele>279.0</ele>
        <time>2021-10-18T10:03:14Z</time>
      </trkpt>
      <trkpt lat="39.0382090" lon="-6.3341700">
        <ele>279.8</ele>
        <time>2021-10-18T10:03:21Z</time>
      </trkpt>
      <trkpt lat="39.0381780" lon="-6.3341690">
        <ele>280.0</ele>
        <time>2021-10-18T10:03:23Z</time>
      </trkpt>
      <trkpt lat="39.0381440" lon="-6.3341680">
        <ele>280.2</ele>
        <time>2021-10-18T10:03:25Z</time>
      </trkpt>
      <trkpt lat="39.0381180" lon="-6.3341700">
        <ele>280.4</ele>
        <time>2021-10-18T10:03:27Z</time>
      </trkpt>
      <trkpt lat="39.0380720" lon="-6.3341690">
        <ele>280.8</ele>
        <time>2021-10-18T10:03:30Z</time>
      </trkpt>
      <trkpt lat="39.0380400" lon="-6.3341680">
        <ele>281.2</ele>
        <time>2021-10-18T10:03:32Z</time>
      </trkpt>
      <trkpt lat="39.0379940" lon="-6.3341700">
        <ele>281.6</ele>
        <time>2021-10-18T10:03:35Z</time>
      </trkpt>
      <trkpt lat="39.0379790" lon="-6.3341690">
        <ele>281.8</ele>
        <time>2021-10-18T10:03:36Z</time>
      </trkpt>
      <trkpt lat="39.0378920" lon="-6.3341690">
        <ele>282.4</ele>
        <time>2021-10-18T10:03:42Z</time>
      </trkpt>
      <trkpt lat="39.0378460" lon="-6.3341810">
        <ele>283.0</ele>
        <time>2021-10-18T10:03:45Z</time>
      </trkpt>
      <trkpt lat="39.0378010" lon="-6.3341990">
        <ele>283.4</ele>
        <time>2021-10-18T10:03:48Z</time>
      </trkpt>
      <trkpt lat="39.0377700" lon="-6.3342100">
        <ele>283.8</ele>
        <time>2021-10-18T10:03:50Z</time>
      </trkpt>
      <trkpt lat="39.0377570" lon="-6.3342190">
        <ele>283.8</ele>
        <time>2021-10-18T10:03:51Z</time>
      </trkpt>
      <trkpt lat="39.0377210" lon="-6.3342610">
        <ele>284.2</ele>
        <time>2021-10-18T10:03:54Z</time>
      </trkpt>
      <trkpt lat="39.0376690" lon="-6.3343480">
        <ele>284.4</ele>
        <time>2021-10-18T10:03:59Z</time>
      </trkpt>
      <trkpt lat="39.0375690" lon="-6.3344980">
        <ele>285.0</ele>
        <time>2021-10-18T10:04:08Z</time>
      </trkpt>
      <trkpt lat="39.0375590" lon="-6.3345080">
        <ele>285.2</ele>
        <time>2021-10-18T10:04:09Z</time>
      </trkpt>
      <trkpt lat="39.0374550" lon="-6.3345820">
        <ele>286.2</ele>
        <time>2021-10-18T10:04:16Z</time>
      </trkpt>
      <trkpt lat="39.0373450" lon="-6.3346450">
        <ele>287.2</ele>
        <time>2021-10-18T10:04:24Z</time>
      </trkpt>
      <trkpt lat="39.0373200" lon="-6.3346640">
        <ele>287.8</ele>
        <time>2021-10-18T10:04:26Z</time>
      </trkpt>
      <trkpt lat="39.0372750" lon="-6.3346980">
        <ele>288.4</ele>
        <time>2021-10-18T10:04:30Z</time>
      </trkpt>
      <trkpt lat="39.0372290" lon="-6.3347420">
        <ele>289.0</ele>
        <time>2021-10-18T10:04:34Z</time>
      </trkpt>
      <trkpt lat="39.0371950" lon="-6.3347730">
        <ele>289.6</ele>
        <time>2021-10-18T10:04:37Z</time>
      </trkpt>
      <trkpt lat="39.0371310" lon="-6.3348150">
        <ele>290.2</ele>
        <time>2021-10-18T10:04:42Z</time>
      </trkpt>
      <trkpt lat="39.0370930" lon="-6.3348340">
        <ele>290.8</ele>
        <time>2021-10-18T10:04:45Z</time>
      </trkpt>
      <trkpt lat="39.0370670" lon="-6.3348420">
        <ele>291.2</ele>
        <time>2021-10-18T10:04:47Z</time>
      </trkpt>
      <trkpt lat="39.0370310" lon="-6.3348570">
        <ele>291.4</ele>
        <time>2021-10-18T10:04:50Z</time>
      </trkpt>
      <trkpt lat="39.0369990" lon="-6.3348630">
        <ele>291.8</ele>
        <time>2021-10-18T10:04:52Z</time>
      </trkpt>
      <trkpt lat="39.0369690" lon="-6.3348800">
        <ele>292.2</ele>
        <time>2021-10-18T10:04:54Z</time>
      </trkpt>
      <trkpt lat="39.0369580" lon="-6.3348900">
        <ele>292.4</ele>
        <time>2021-10-18T10:04:55Z</time>
      </trkpt>
      <trkpt lat="39.0369530" lon="-6.3349020">
        <ele>292.4</ele>
        <time>2021-10-18T10:04:58Z</time>
      </trkpt>
      <trkpt lat="39.0369530" lon="-6.3349020">
        <ele>292.6</ele>
        <time>2021-10-18T10:04:59Z</time>
      </trkpt>
      <trkpt lat="39.0368890" lon="-6.3349210">
        <ele>292.6</ele>
        <time>2021-10-18T10:05:54Z</time>
      </trkpt>
      <trkpt lat="39.0368310" lon="-6.3349440">
        <ele>292.8</ele>
        <time>2021-10-18T10:05:57Z</time>
      </trkpt>
      <trkpt lat="39.0367040" lon="-6.3349980">
        <ele>293.0</ele>
        <time>2021-10-18T10:06:04Z</time>
      </trkpt>
      <trkpt lat="39.0366640" lon="-6.3350200">
        <ele>293.2</ele>
        <time>2021-10-18T10:06:06Z</time>
      </trkpt>
      <trkpt lat="39.0364510" lon="-6.3351210">
        <ele>293.0</ele>
        <time>2021-10-18T10:06:15Z</time>
      </trkpt>
      <trkpt lat="39.0362300" lon="-6.3352420">
        <ele>292.4</ele>
        <time>2021-10-18T10:06:20Z</time>
      </trkpt>
      <trkpt lat="39.0360960" lon="-6.3353280">
        <ele>292.0</ele>
        <time>2021-10-18T10:06:22Z</time>
      </trkpt>
      <trkpt lat="39.0359630" lon="-6.3354100">
        <ele>291.2</ele>
        <time>2021-10-18T10:06:24Z</time>
      </trkpt>
      <trkpt lat="39.0357940" lon="-6.3355010">
        <ele>290.4</ele>
        <time>2021-10-18T10:06:26Z</time>
      </trkpt>
      <trkpt lat="39.0356120" lon="-6.3355750">
        <ele>289.2</ele>
        <time>2021-10-18T10:06:28Z</time>
      </trkpt>
      <trkpt lat="39.0354220" lon="-6.3356380">
        <ele>287.2</ele>
        <time>2021-10-18T10:06:30Z</time>
      </trkpt>
      <trkpt lat="39.0352250" lon="-6.3356860">
        <ele>285.6</ele>
        <time>2021-10-18T10:06:32Z</time>
      </trkpt>
      <trkpt lat="39.0351300" lon="-6.3357050">
        <ele>285.0</ele>
        <time>2021-10-18T10:06:33Z</time>
      </trkpt>
      <trkpt lat="39.0350350" lon="-6.3357250">
        <ele>284.0</ele>
        <time>2021-10-18T10:06:34Z</time>
      </trkpt>
      <trkpt lat="39.0348640" lon="-6.3357850">
        <ele>282.6</ele>
        <time>2021-10-18T10:06:36Z</time>
      </trkpt>
      <trkpt lat="39.0347880" lon="-6.3358380">
        <ele>282.0</ele>
        <time>2021-10-18T10:06:37Z</time>
      </trkpt>
      <trkpt lat="39.0347090" lon="-6.3359220">
        <ele>281.8</ele>
        <time>2021-10-18T10:06:38Z</time>
      </trkpt>
      <trkpt lat="39.0346740" lon="-6.3359930">
        <ele>281.2</ele>
        <time>2021-10-18T10:06:39Z</time>
      </trkpt>
      <trkpt lat="39.0346400" lon="-6.3360880">
        <ele>280.8</ele>
        <time>2021-10-18T10:06:40Z</time>
      </trkpt>
      <trkpt lat="39.0345880" lon="-6.3362910">
        <ele>279.8</ele>
        <time>2021-10-18T10:06:42Z</time>
      </trkpt>
      <trkpt lat="39.0345500" lon="-6.3364490">
        <ele>279.2</ele>
        <time>2021-10-18T10:06:44Z</time>
      </trkpt>
      <trkpt lat="39.0345330" lon="-6.3366200">
        <ele>278.8</ele>
        <time>2021-10-18T10:06:46Z</time>
      </trkpt>
      <trkpt lat="39.0345330" lon="-6.3366200">
        <ele>278.6</ele>
        <time>2021-10-18T10:06:47Z</time>
      </trkpt>
      <trkpt lat="39.0345330" lon="-6.3366200">
        <ele>278.4</ele>
        <time>2021-10-18T10:06:48Z</time>
      </trkpt>
      <trkpt lat="39.0344210" lon="-6.3370450">
        <ele>277.4</ele>
        <time>2021-10-18T10:06:51Z</time>
      </trkpt>
      <trkpt lat="39.0343780" lon="-6.3370660">
        <ele>277.0</ele>
        <time>2021-10-18T10:06:52Z</time>
      </trkpt>
      <trkpt lat="39.0342610" lon="-6.3370670">
        <ele>276.4</ele>
        <time>2021-10-18T10:06:55Z</time>
      </trkpt>
      <trkpt lat="39.0341910" lon="-6.3370480">
        <ele>276.2</ele>
        <time>2021-10-18T10:06:57Z</time>
      </trkpt>
      <trkpt lat="39.0340530" lon="-6.3369830">
        <ele>276.0</ele>
        <time>2021-10-18T10:07:03Z</time>
      </trkpt>
      <trkpt lat="39.0338360" lon="-6.3368920">
        <ele>276.8</ele>
        <time>2021-10-18T10:07:12Z</time>
      </trkpt>
      <trkpt lat="39.0335720" lon="-6.3368070">
        <ele>277.6</ele>
        <time>2021-10-18T10:07:21Z</time>
      </trkpt>
      <trkpt lat="39.0335390" lon="-6.3367970">
        <ele>277.6</ele>
        <time>2021-10-18T10:07:22Z</time>
      </trkpt>
      <trkpt lat="39.0335030" lon="-6.3367870">
        <ele>277.6</ele>
        <time>2021-10-18T10:07:23Z</time>
      </trkpt>
      <trkpt lat="39.0334280" lon="-6.3367800">
        <ele>277.6</ele>
        <time>2021-10-18T10:07:25Z</time>
      </trkpt>
      <trkpt lat="39.0333070" lon="-6.3367700">
        <ele>277.8</ele>
        <time>2021-10-18T10:07:28Z</time>
      </trkpt>
      <trkpt lat="39.0330930" lon="-6.3367730">
        <ele>278.0</ele>
        <time>2021-10-18T10:07:33Z</time>
      </trkpt>
      <trkpt lat="39.0330050" lon="-6.3367710">
        <ele>278.0</ele>
        <time>2021-10-18T10:07:35Z</time>
      </trkpt>
      <trkpt lat="39.0328720" lon="-6.3367700">
        <ele>278.0</ele>
        <time>2021-10-18T10:07:38Z</time>
      </trkpt>
      <trkpt lat="39.0327420" lon="-6.3367620">
        <ele>278.0</ele>
        <time>2021-10-18T10:07:41Z</time>
      </trkpt>
      <trkpt lat="39.0325820" lon="-6.3367610">
        <ele>278.0</ele>
        <time>2021-10-18T10:07:45Z</time>
      </trkpt>
      <trkpt lat="39.0324010" lon="-6.3367990">
        <ele>278.0</ele>
        <time>2021-10-18T10:07:50Z</time>
      </trkpt>
      <trkpt lat="39.0322740" lon="-6.3368350">
        <ele>278.0</ele>
        <time>2021-10-18T10:07:53Z</time>
      </trkpt>
      <trkpt lat="39.0321380" lon="-6.3368740">
        <ele>277.8</ele>
        <time>2021-10-18T10:07:56Z</time>
      </trkpt>
      <trkpt lat="39.0319430" lon="-6.3369370">
        <ele>277.8</ele>
        <time>2021-10-18T10:08:02Z</time>
      </trkpt>
      <trkpt lat="39.0318140" lon="-6.3369740">
        <ele>278.6</ele>
        <time>2021-10-18T10:08:08Z</time>
      </trkpt>
      <trkpt lat="39.0317000" lon="-6.3370130">
        <ele>279.8</ele>
        <time>2021-10-18T10:08:13Z</time>
      </trkpt>
      <trkpt lat="39.0315760" lon="-6.3370600">
        <ele>280.6</ele>
        <time>2021-10-18T10:08:19Z</time>
      </trkpt>
      <trkpt lat="39.0315580" lon="-6.3370690">
        <ele>280.8</ele>
        <time>2021-10-18T10:08:20Z</time>
      </trkpt>
      <trkpt lat="39.0314640" lon="-6.3371150">
        <ele>281.6</ele>
        <time>2021-10-18T10:08:25Z</time>
      </trkpt>
      <trkpt lat="39.0314270" lon="-6.3371300">
        <ele>281.8</ele>
        <time>2021-10-18T10:08:27Z</time>
      </trkpt>
      <trkpt lat="39.0314080" lon="-6.3371380">
        <ele>282.0</ele>
        <time>2021-10-18T10:08:28Z</time>
      </trkpt>
      <trkpt lat="39.0313360" lon="-6.3371680">
        <ele>283.0</ele>
        <time>2021-10-18T10:08:33Z</time>
      </trkpt>
      <trkpt lat="39.0312880" lon="-6.3371870">
        <ele>283.4</ele>
        <time>2021-10-18T10:08:36Z</time>
      </trkpt>
      <trkpt lat="39.0312390" lon="-6.3372050">
        <ele>283.8</ele>
        <time>2021-10-18T10:08:39Z</time>
      </trkpt>
      <trkpt lat="39.0311730" lon="-6.3372360">
        <ele>284.2</ele>
        <time>2021-10-18T10:08:43Z</time>
      </trkpt>
      <trkpt lat="39.0311090" lon="-6.3372580">
        <ele>284.8</ele>
        <time>2021-10-18T10:08:47Z</time>
      </trkpt>
      <trkpt lat="39.0310580" lon="-6.3372710">
        <ele>285.2</ele>
        <time>2021-10-18T10:08:50Z</time>
      </trkpt>
      <trkpt lat="39.0309720" lon="-6.3372930">
        <ele>285.8</ele>
        <time>2021-10-18T10:08:55Z</time>
      </trkpt>
      <trkpt lat="39.0309170" lon="-6.3372980">
        <ele>286.0</ele>
        <time>2021-10-18T10:08:58Z</time>
      </trkpt>
      <trkpt lat="39.0309000" lon="-6.3373030">
        <ele>286.2</ele>
        <time>2021-10-18T10:08:59Z</time>
      </trkpt>
      <trkpt lat="39.0308410" lon="-6.3373130">
        <ele>286.4</ele>
        <time>2021-10-18T10:09:02Z</time>
      </trkpt>
      <trkpt lat="39.0307900" lon="-6.3373140">
        <ele>286.6</ele>
        <time>2021-10-18T10:09:04Z</time>
      </trkpt>
      <trkpt lat="39.0307090" lon="-6.3373060">
        <ele>286.6</ele>
        <time>2021-10-18T10:09:07Z</time>
      </trkpt>
      <trkpt lat="39.0306450" lon="-6.3373040">
        <ele>286.8</ele>
        <time>2021-10-18T10:09:09Z</time>
      </trkpt>
      <trkpt lat="39.0305000" lon="-6.3373010">
        <ele>286.6</ele>
        <time>2021-10-18T10:09:13Z</time>
      </trkpt>
      <trkpt lat="39.0303380" lon="-6.3372870">
        <ele>286.2</ele>
        <time>2021-10-18T10:09:17Z</time>
      </trkpt>
      <trkpt lat="39.0301380" lon="-6.3372670">
        <ele>285.6</ele>
        <time>2021-10-18T10:09:22Z</time>
      </trkpt>
      <trkpt lat="39.0300210" lon="-6.3372520">
        <ele>285.2</ele>
        <time>2021-10-18T10:09:25Z</time>
      </trkpt>
      <trkpt lat="39.0299430" lon="-6.3372430">
        <ele>285.2</ele>
        <time>2021-10-18T10:09:27Z</time>
      </trkpt>
      <trkpt lat="39.0298200" lon="-6.3372240">
        <ele>285.0</ele>
        <time>2021-10-18T10:09:30Z</time>
      </trkpt>
      <trkpt lat="39.0297340" lon="-6.3372150">
        <ele>284.8</ele>
        <time>2021-10-18T10:09:32Z</time>
      </trkpt>
      <trkpt lat="39.0295730" lon="-6.3372120">
        <ele>284.8</ele>
        <time>2021-10-18T10:09:36Z</time>
      </trkpt>
      <trkpt lat="39.0294480" lon="-6.3372320">
        <ele>284.6</ele>
        <time>2021-10-18T10:09:39Z</time>
      </trkpt>
      <trkpt lat="39.0292180" lon="-6.3372780">
        <ele>284.6</ele>
        <time>2021-10-18T10:09:45Z</time>
      </trkpt>
      <trkpt lat="39.0289150" lon="-6.3373610">
        <ele>285.0</ele>
        <time>2021-10-18T10:09:54Z</time>
      </trkpt>
      <trkpt lat="39.0287240" lon="-6.3374250">
        <ele>285.6</ele>
        <time>2021-10-18T10:10:01Z</time>
      </trkpt>
      <trkpt lat="39.0285810" lon="-6.3374740">
        <ele>286.2</ele>
        <time>2021-10-18T10:10:07Z</time>
      </trkpt>
      <trkpt lat="39.0285390" lon="-6.3374880">
        <ele>286.4</ele>
        <time>2021-10-18T10:10:09Z</time>
      </trkpt>
      <trkpt lat="39.0283590" lon="-6.3375380">
        <ele>287.4</ele>
        <time>2021-10-18T10:10:17Z</time>
      </trkpt>
      <trkpt lat="39.0283180" lon="-6.3375480">
        <ele>287.8</ele>
        <time>2021-10-18T10:10:19Z</time>
      </trkpt>
      <trkpt lat="39.0282390" lon="-6.3375680">
        <ele>288.4</ele>
        <time>2021-10-18T10:10:23Z</time>
      </trkpt>
      <trkpt lat="39.0281540" lon="-6.3375890">
        <ele>289.6</ele>
        <time>2021-10-18T10:10:28Z</time>
      </trkpt>
      <trkpt lat="39.0280330" lon="-6.3376190">
        <ele>290.8</ele>
        <time>2021-10-18T10:10:35Z</time>
      </trkpt>
      <trkpt lat="39.0280150" lon="-6.3376200">
        <ele>290.8</ele>
        <time>2021-10-18T10:10:36Z</time>
      </trkpt>
      <trkpt lat="39.0278800" lon="-6.3376320">
        <ele>291.8</ele>
        <time>2021-10-18T10:10:43Z</time>
      </trkpt>
      <trkpt lat="39.0278170" lon="-6.3376350">
        <ele>292.4</ele>
        <time>2021-10-18T10:10:46Z</time>
      </trkpt>
      <trkpt lat="39.0277120" lon="-6.3376420">
        <ele>292.8</ele>
        <time>2021-10-18T10:10:51Z</time>
      </trkpt>
      <trkpt lat="39.0276720" lon="-6.3376460">
        <ele>292.8</ele>
        <time>2021-10-18T10:10:53Z</time>
      </trkpt>
      <trkpt lat="39.0276520" lon="-6.3376490">
        <ele>292.8</ele>
        <time>2021-10-18T10:10:54Z</time>
      </trkpt>
      <trkpt lat="39.0275860" lon="-6.3376550">
        <ele>293.0</ele>
        <time>2021-10-18T10:10:57Z</time>
      </trkpt>
      <trkpt lat="39.0275420" lon="-6.3376590">
        <ele>293.2</ele>
        <time>2021-10-18T10:10:59Z</time>
      </trkpt>
      <trkpt lat="39.0274820" lon="-6.3376660">
        <ele>293.2</ele>
        <time>2021-10-18T10:11:01Z</time>
      </trkpt>
      <trkpt lat="39.0274280" lon="-6.3376710">
        <ele>293.4</ele>
        <time>2021-10-18T10:11:03Z</time>
      </trkpt>
      <trkpt lat="39.0273820" lon="-6.3376730">
        <ele>293.2</ele>
        <time>2021-10-18T10:11:05Z</time>
      </trkpt>
      <trkpt lat="39.0272720" lon="-6.3376890">
        <ele>293.2</ele>
        <time>2021-10-18T10:11:09Z</time>
      </trkpt>
      <trkpt lat="39.0270110" lon="-6.3377600">
        <ele>293.0</ele>
        <time>2021-10-18T10:11:17Z</time>
      </trkpt>
      <trkpt lat="39.0267390" lon="-6.3378830">
        <ele>292.4</ele>
        <time>2021-10-18T10:11:23Z</time>
      </trkpt>
      <trkpt lat="39.0265350" lon="-6.3380080">
        <ele>291.6</ele>
        <time>2021-10-18T10:11:27Z</time>
      </trkpt>
      <trkpt lat="39.0264810" lon="-6.3380440">
        <ele>291.4</ele>
        <time>2021-10-18T10:11:28Z</time>
      </trkpt>
      <trkpt lat="39.0262460" lon="-6.3381720">
        <ele>290.4</ele>
        <time>2021-10-18T10:11:32Z</time>
      </trkpt>
      <trkpt lat="39.0261100" lon="-6.3382320">
        <ele>290.0</ele>
        <time>2021-10-18T10:11:34Z</time>
      </trkpt>
      <trkpt lat="39.0259510" lon="-6.3383100">
        <ele>289.2</ele>
        <time>2021-10-18T10:11:36Z</time>
      </trkpt>
      <trkpt lat="39.0257400" lon="-6.3384020">
        <ele>288.0</ele>
        <time>2021-10-18T10:11:39Z</time>
      </trkpt>
      <trkpt lat="39.0256760" lon="-6.3384330">
        <ele>287.6</ele>
        <time>2021-10-18T10:11:40Z</time>
      </trkpt>
      <trkpt lat="39.0256260" lon="-6.3384530">
        <ele>286.6</ele>
        <time>2021-10-18T10:11:41Z</time>
      </trkpt>
      <trkpt lat="39.0254600" lon="-6.3385290">
        <ele>285.2</ele>
        <time>2021-10-18T10:11:44Z</time>
      </trkpt>
      <trkpt lat="39.0254070" lon="-6.3385660">
        <ele>285.0</ele>
        <time>2021-10-18T10:11:45Z</time>
      </trkpt>
      <trkpt lat="39.0253750" lon="-6.3385950">
        <ele>283.6</ele>
        <time>2021-10-18T10:11:46Z</time>
      </trkpt>
      <trkpt lat="39.0252960" lon="-6.3386910">
        <ele>282.6</ele>
        <time>2021-10-18T10:11:48Z</time>
      </trkpt>
      <trkpt lat="39.0252390" lon="-6.3387820">
        <ele>281.6</ele>
        <time>2021-10-18T10:11:50Z</time>
      </trkpt>
      <trkpt lat="39.0251510" lon="-6.3388530">
        <ele>280.8</ele>
        <time>2021-10-18T10:11:52Z</time>
      </trkpt>
      <trkpt lat="39.0250990" lon="-6.3388680">
        <ele>280.4</ele>
        <time>2021-10-18T10:11:53Z</time>
      </trkpt>
      <trkpt lat="39.0250360" lon="-6.3388730">
        <ele>280.2</ele>
        <time>2021-10-18T10:11:54Z</time>
      </trkpt>
      <trkpt lat="39.0249470" lon="-6.3388470">
        <ele>280.0</ele>
        <time>2021-10-18T10:11:56Z</time>
      </trkpt>
      <trkpt lat="39.0248920" lon="-6.3388260">
        <ele>279.8</ele>
        <time>2021-10-18T10:11:57Z</time>
      </trkpt>
      <trkpt lat="39.0246860" lon="-6.3387170">
        <ele>279.6</ele>
        <time>2021-10-18T10:12:02Z</time>
      </trkpt>
      <trkpt lat="39.0243500" lon="-6.3384760">
        <ele>280.2</ele>
        <time>2021-10-18T10:12:11Z</time>
      </trkpt>
      <trkpt lat="39.0242070" lon="-6.3383610">
        <ele>281.2</ele>
        <time>2021-10-18T10:12:17Z</time>
      </trkpt>
      <trkpt lat="39.0241760" lon="-6.3383270">
        <ele>281.6</ele>
        <time>2021-10-18T10:12:19Z</time>
      </trkpt>
      <trkpt lat="39.0241250" lon="-6.3382680">
        <ele>282.6</ele>
        <time>2021-10-18T10:12:22Z</time>
      </trkpt>
      <trkpt lat="39.0240990" lon="-6.3382330">
        <ele>283.0</ele>
        <time>2021-10-18T10:12:24Z</time>
      </trkpt>
      <trkpt lat="39.0240430" lon="-6.3381620">
        <ele>283.6</ele>
        <time>2021-10-18T10:12:28Z</time>
      </trkpt>
      <trkpt lat="39.0239600" lon="-6.3380920">
        <ele>284.6</ele>
        <time>2021-10-18T10:12:33Z</time>
      </trkpt>
      <trkpt lat="39.0239440" lon="-6.3380770">
        <ele>284.8</ele>
        <time>2021-10-18T10:12:34Z</time>
      </trkpt>
      <trkpt lat="39.0238660" lon="-6.3379930">
        <ele>285.8</ele>
        <time>2021-10-18T10:12:39Z</time>
      </trkpt>
      <trkpt lat="39.0238540" lon="-6.3379770">
        <ele>285.8</ele>
        <time>2021-10-18T10:12:40Z</time>
      </trkpt>
      <trkpt lat="39.0238120" lon="-6.3379270">
        <ele>286.2</ele>
        <time>2021-10-18T10:12:43Z</time>
      </trkpt>
      <trkpt lat="39.0237410" lon="-6.3378370">
        <ele>287.0</ele>
        <time>2021-10-18T10:12:48Z</time>
      </trkpt>
      <trkpt lat="39.0236950" lon="-6.3377760">
        <ele>287.2</ele>
        <time>2021-10-18T10:12:51Z</time>
      </trkpt>
      <trkpt lat="39.0236300" lon="-6.3377010">
        <ele>288.0</ele>
        <time>2021-10-18T10:12:56Z</time>
      </trkpt>
      <trkpt lat="39.0236000" lon="-6.3376540">
        <ele>288.4</ele>
        <time>2021-10-18T10:12:59Z</time>
      </trkpt>
      <trkpt lat="39.0235530" lon="-6.3375890">
        <ele>288.8</ele>
        <time>2021-10-18T10:13:03Z</time>
      </trkpt>
      <trkpt lat="39.0235290" lon="-6.3375640">
        <ele>289.2</ele>
        <time>2021-10-18T10:13:05Z</time>
      </trkpt>
      <trkpt lat="39.0235040" lon="-6.3375350">
        <ele>289.4</ele>
        <time>2021-10-18T10:13:07Z</time>
      </trkpt>
      <trkpt lat="39.0234740" lon="-6.3375100">
        <ele>289.8</ele>
        <time>2021-10-18T10:13:09Z</time>
      </trkpt>
      <trkpt lat="39.0234330" lon="-6.3374720">
        <ele>290.2</ele>
        <time>2021-10-18T10:13:12Z</time>
      </trkpt>
      <trkpt lat="39.0233650" lon="-6.3374210">
        <ele>291.0</ele>
        <time>2021-10-18T10:13:17Z</time>
      </trkpt>
      <trkpt lat="39.0233380" lon="-6.3374000">
        <ele>291.4</ele>
        <time>2021-10-18T10:13:19Z</time>
      </trkpt>
      <trkpt lat="39.0232600" lon="-6.3373420">
        <ele>292.4</ele>
        <time>2021-10-18T10:13:25Z</time>
      </trkpt>
      <trkpt lat="39.0232090" lon="-6.3372940">
        <ele>293.0</ele>
        <time>2021-10-18T10:13:29Z</time>
      </trkpt>
      <trkpt lat="39.0231690" lon="-6.3372650">
        <ele>293.6</ele>
        <time>2021-10-18T10:13:32Z</time>
      </trkpt>
      <trkpt lat="39.0231580" lon="-6.3372530">
        <ele>293.8</ele>
        <time>2021-10-18T10:13:33Z</time>
      </trkpt>
      <trkpt lat="39.0230970" lon="-6.3372030">
        <ele>294.6</ele>
        <time>2021-10-18T10:13:38Z</time>
      </trkpt>
      <trkpt lat="39.0230470" lon="-6.3371580">
        <ele>295.6</ele>
        <time>2021-10-18T10:13:42Z</time>
      </trkpt>
      <trkpt lat="39.0230340" lon="-6.3371470">
        <ele>295.8</ele>
        <time>2021-10-18T10:13:43Z</time>
      </trkpt>
      <trkpt lat="39.0230080" lon="-6.3371190">
        <ele>296.0</ele>
        <time>2021-10-18T10:13:45Z</time>
      </trkpt>
      <trkpt lat="39.0229800" lon="-6.3370970">
        <ele>296.4</ele>
        <time>2021-10-18T10:13:47Z</time>
      </trkpt>
      <trkpt lat="39.0229660" lon="-6.3370870">
        <ele>296.8</ele>
        <time>2021-10-18T10:13:48Z</time>
      </trkpt>
      <trkpt lat="39.0229390" lon="-6.3370760">
        <ele>297.0</ele>
        <time>2021-10-18T10:13:50Z</time>
      </trkpt>
      <trkpt lat="39.0228850" lon="-6.3370800">
        <ele>297.2</ele>
        <time>2021-10-18T10:13:54Z</time>
      </trkpt>
      <trkpt lat="39.0228710" lon="-6.3370770">
        <ele>297.4</ele>
        <time>2021-10-18T10:13:55Z</time>
      </trkpt>
      <trkpt lat="39.0228550" lon="-6.3370740">
        <ele>297.4</ele>
        <time>2021-10-18T10:13:56Z</time>
      </trkpt>
      <trkpt lat="39.0228200" lon="-6.3370710">
        <ele>297.6</ele>
        <time>2021-10-18T10:13:58Z</time>
      </trkpt>
      <trkpt lat="39.0228030" lon="-6.3370730">
        <ele>297.8</ele>
        <time>2021-10-18T10:13:59Z</time>
      </trkpt>
      <trkpt lat="39.0227720" lon="-6.3370790">
        <ele>298.2</ele>
        <time>2021-10-18T10:14:01Z</time>
      </trkpt>
      <trkpt lat="39.0227440" lon="-6.3370910">
        <ele>298.2</ele>
        <time>2021-10-18T10:14:03Z</time>
      </trkpt>
      <trkpt lat="39.0227160" lon="-6.3370990">
        <ele>298.4</ele>
        <time>2021-10-18T10:14:05Z</time>
      </trkpt>
      <trkpt lat="39.0226660" lon="-6.3371200">
        <ele>298.8</ele>
        <time>2021-10-18T10:14:08Z</time>
      </trkpt>
      <trkpt lat="39.0226480" lon="-6.3371640">
        <ele>299.0</ele>
        <time>2021-10-18T10:14:10Z</time>
      </trkpt>
      <trkpt lat="39.0226540" lon="-6.3372350">
        <ele>299.0</ele>
        <time>2021-10-18T10:14:13Z</time>
      </trkpt>
      <trkpt lat="39.0226750" lon="-6.3373090">
        <ele>299.0</ele>
        <time>2021-10-18T10:14:16Z</time>
      </trkpt>
      <trkpt lat="39.0227070" lon="-6.3374130">
        <ele>298.8</ele>
        <time>2021-10-18T10:14:20Z</time>
      </trkpt>
      <trkpt lat="39.0227240" lon="-6.3374930">
        <ele>298.6</ele>
        <time>2021-10-18T10:14:23Z</time>
      </trkpt>
      <trkpt lat="39.0227460" lon="-6.3375770">
        <ele>298.4</ele>
        <time>2021-10-18T10:14:26Z</time>
      </trkpt>
      <trkpt lat="39.0227750" lon="-6.3376700">
        <ele>298.0</ele>
        <time>2021-10-18T10:14:29Z</time>
      </trkpt>
      <trkpt lat="39.0228060" lon="-6.3377810">
        <ele>298.0</ele>
        <time>2021-10-18T10:14:32Z</time>
      </trkpt>
      <trkpt lat="39.0228170" lon="-6.3378160">
        <ele>297.6</ele>
        <time>2021-10-18T10:14:33Z</time>
      </trkpt>
      <trkpt lat="39.0228360" lon="-6.3378910">
        <ele>297.4</ele>
        <time>2021-10-18T10:14:35Z</time>
      </trkpt>
      <trkpt lat="39.0228600" lon="-6.3379660">
        <ele>297.2</ele>
        <time>2021-10-18T10:14:37Z</time>
      </trkpt>
      <trkpt lat="39.0228610" lon="-6.3381780">
        <ele>296.8</ele>
        <time>2021-10-18T10:14:42Z</time>
      </trkpt>
      <trkpt lat="39.0227990" lon="-6.3382820">
        <ele>296.6</ele>
        <time>2021-10-18T10:14:45Z</time>
      </trkpt>
      <trkpt lat="39.0227240" lon="-6.3384080">
        <ele>296.4</ele>
        <time>2021-10-18T10:14:48Z</time>
      </trkpt>
      <trkpt lat="39.0225710" lon="-6.3386570">
        <ele>295.8</ele>
        <time>2021-10-18T10:14:53Z</time>
      </trkpt>
      <trkpt lat="39.0225390" lon="-6.3387140">
        <ele>295.8</ele>
        <time>2021-10-18T10:14:54Z</time>
      </trkpt>
      <trkpt lat="39.0224650" lon="-6.3388360">
        <ele>295.6</ele>
        <time>2021-10-18T10:14:56Z</time>
      </trkpt>
      <trkpt lat="39.0223760" lon="-6.3389520">
        <ele>295.4</ele>
        <time>2021-10-18T10:14:58Z</time>
      </trkpt>
      <trkpt lat="39.0222340" lon="-6.3391160">
        <ele>294.4</ele>
        <time>2021-10-18T10:15:01Z</time>
      </trkpt>
      <trkpt lat="39.0221350" lon="-6.3392020">
        <ele>294.0</ele>
        <time>2021-10-18T10:15:03Z</time>
      </trkpt>
      <trkpt lat="39.0219950" lon="-6.3392730">
        <ele>293.4</ele>
        <time>2021-10-18T10:15:05Z</time>
      </trkpt>
      <trkpt lat="39.0218090" lon="-6.3393700">
        <ele>291.6</ele>
        <time>2021-10-18T10:15:08Z</time>
      </trkpt>
      <trkpt lat="39.0216820" lon="-6.3394960">
        <ele>290.4</ele>
        <time>2021-10-18T10:15:10Z</time>
      </trkpt>
      <trkpt lat="39.0216280" lon="-6.3395430">
        <ele>289.8</ele>
        <time>2021-10-18T10:15:11Z</time>
      </trkpt>
      <trkpt lat="39.0215830" lon="-6.3395680">
        <ele>289.0</ele>
        <time>2021-10-18T10:15:12Z</time>
      </trkpt>
      <trkpt lat="39.0214360" lon="-6.3396350">
        <ele>288.0</ele>
        <time>2021-10-18T10:15:15Z</time>
      </trkpt>
      <trkpt lat="39.0213640" lon="-6.3396680">
        <ele>287.8</ele>
        <time>2021-10-18T10:15:17Z</time>
      </trkpt>
      <trkpt lat="39.0212200" lon="-6.3397510">
        <ele>288.8</ele>
        <time>2021-10-18T10:15:23Z</time>
      </trkpt>
      <trkpt lat="39.0211820" lon="-6.3397820">
        <ele>289.0</ele>
        <time>2021-10-18T10:15:25Z</time>
      </trkpt>
      <trkpt lat="39.0211240" lon="-6.3398150">
        <ele>290.2</ele>
        <time>2021-10-18T10:15:28Z</time>
      </trkpt>
      <trkpt lat="39.0210840" lon="-6.3398370">
        <ele>290.6</ele>
        <time>2021-10-18T10:15:30Z</time>
      </trkpt>
      <trkpt lat="39.0210270" lon="-6.3398750">
        <ele>291.0</ele>
        <time>2021-10-18T10:15:33Z</time>
      </trkpt>
      <trkpt lat="39.0209890" lon="-6.3399030">
        <ele>291.2</ele>
        <time>2021-10-18T10:15:35Z</time>
      </trkpt>
      <trkpt lat="39.0209350" lon="-6.3399430">
        <ele>291.4</ele>
        <time>2021-10-18T10:15:38Z</time>
      </trkpt>
      <trkpt lat="39.0208650" lon="-6.3399890">
        <ele>292.0</ele>
        <time>2021-10-18T10:15:42Z</time>
      </trkpt>
      <trkpt lat="39.0208280" lon="-6.3400170">
        <ele>292.4</ele>
        <time>2021-10-18T10:15:44Z</time>
      </trkpt>
      <trkpt lat="39.0207910" lon="-6.3400430">
        <ele>292.4</ele>
        <time>2021-10-18T10:15:46Z</time>
      </trkpt>
      <trkpt lat="39.0206750" lon="-6.3401320">
        <ele>292.6</ele>
        <time>2021-10-18T10:15:52Z</time>
      </trkpt>
      <trkpt lat="39.0205910" lon="-6.3401950">
        <ele>293.0</ele>
        <time>2021-10-18T10:15:56Z</time>
      </trkpt>
      <trkpt lat="39.0204910" lon="-6.3402820">
        <ele>293.2</ele>
        <time>2021-10-18T10:16:01Z</time>
      </trkpt>
      <trkpt lat="39.0203950" lon="-6.3403690">
        <ele>293.6</ele>
        <time>2021-10-18T10:16:06Z</time>
      </trkpt>
      <trkpt lat="39.0203740" lon="-6.3403800">
        <ele>293.6</ele>
        <time>2021-10-18T10:16:07Z</time>
      </trkpt>
      <trkpt lat="39.0203060" lon="-6.3404100">
        <ele>293.8</ele>
        <time>2021-10-18T10:16:10Z</time>
      </trkpt>
      <trkpt lat="39.0202860" lon="-6.3404230">
        <ele>293.8</ele>
        <time>2021-10-18T10:16:11Z</time>
      </trkpt>
      <trkpt lat="39.0202470" lon="-6.3404480">
        <ele>294.2</ele>
        <time>2021-10-18T10:16:13Z</time>
      </trkpt>
      <trkpt lat="39.0201070" lon="-6.3405130">
        <ele>294.6</ele>
        <time>2021-10-18T10:16:19Z</time>
      </trkpt>
      <trkpt lat="39.0200850" lon="-6.3405230">
        <ele>294.6</ele>
        <time>2021-10-18T10:16:20Z</time>
      </trkpt>
      <trkpt lat="39.0199690" lon="-6.3405690">
        <ele>294.8</ele>
        <time>2021-10-18T10:16:25Z</time>
      </trkpt>
      <trkpt lat="39.0198600" lon="-6.3406170">
        <ele>295.2</ele>
        <time>2021-10-18T10:16:30Z</time>
      </trkpt>
      <trkpt lat="39.0196850" lon="-6.3406960">
        <ele>295.8</ele>
        <time>2021-10-18T10:16:38Z</time>
      </trkpt>
      <trkpt lat="39.0196640" lon="-6.3407040">
        <ele>296.0</ele>
        <time>2021-10-18T10:16:39Z</time>
      </trkpt>
      <trkpt lat="39.0195970" lon="-6.3407260">
        <ele>296.2</ele>
        <time>2021-10-18T10:16:42Z</time>
      </trkpt>
      <trkpt lat="39.0195340" lon="-6.3407620">
        <ele>296.4</ele>
        <time>2021-10-18T10:16:45Z</time>
      </trkpt>
      <trkpt lat="39.0194920" lon="-6.3407900">
        <ele>296.6</ele>
        <time>2021-10-18T10:16:47Z</time>
      </trkpt>
      <trkpt lat="39.0193510" lon="-6.3408940">
        <ele>297.2</ele>
        <time>2021-10-18T10:16:53Z</time>
      </trkpt>
      <trkpt lat="39.0193510" lon="-6.3408940">
        <ele>297.4</ele>
        <time>2021-10-18T10:16:54Z</time>
      </trkpt>
      <trkpt lat="39.0192740" lon="-6.3409430">
        <ele>297.4</ele>
        <time>2021-10-18T10:16:56Z</time>
      </trkpt>
      <trkpt lat="39.0190960" lon="-6.3410380">
        <ele>297.4</ele>
        <time>2021-10-18T10:17:02Z</time>
      </trkpt>
      <trkpt lat="39.0188980" lon="-6.3411280">
        <ele>297.0</ele>
        <time>2021-10-18T10:17:08Z</time>
      </trkpt>
      <trkpt lat="39.0188210" lon="-6.3411650">
        <ele>297.0</ele>
        <time>2021-10-18T10:17:10Z</time>
      </trkpt>
      <trkpt lat="39.0186520" lon="-6.3412360">
        <ele>296.8</ele>
        <time>2021-10-18T10:17:14Z</time>
      </trkpt>
      <trkpt lat="39.0184410" lon="-6.3413320">
        <ele>296.6</ele>
        <time>2021-10-18T10:17:19Z</time>
      </trkpt>
      <trkpt lat="39.0181420" lon="-6.3414450">
        <ele>296.8</ele>
        <time>2021-10-18T10:17:27Z</time>
      </trkpt>
      <trkpt lat="39.0179280" lon="-6.3414820">
        <ele>296.8</ele>
        <time>2021-10-18T10:17:32Z</time>
      </trkpt>
      <trkpt lat="39.0178010" lon="-6.3414940">
        <ele>296.8</ele>
        <time>2021-10-18T10:17:35Z</time>
      </trkpt>
      <trkpt lat="39.0177240" lon="-6.3415240">
        <ele>296.6</ele>
        <time>2021-10-18T10:17:37Z</time>
      </trkpt>
      <trkpt lat="39.0176460" lon="-6.3415560">
        <ele>296.6</ele>
        <time>2021-10-18T10:17:39Z</time>
      </trkpt>
      <trkpt lat="39.0176180" lon="-6.3415650">
        <ele>296.8</ele>
        <time>2021-10-18T10:17:40Z</time>
      </trkpt>
      <trkpt lat="39.0174630" lon="-6.3415860">
        <ele>296.8</ele>
        <time>2021-10-18T10:17:44Z</time>
      </trkpt>
      <trkpt lat="39.0174630" lon="-6.3415860">
        <ele>296.8</ele>
        <time>2021-10-18T10:17:45Z</time>
      </trkpt>
      <trkpt lat="39.0172590" lon="-6.3416070">
        <ele>297.4</ele>
        <time>2021-10-18T10:17:50Z</time>
      </trkpt>
      <trkpt lat="39.0171440" lon="-6.3416400">
        <ele>297.6</ele>
        <time>2021-10-18T10:17:54Z</time>
      </trkpt>
      <trkpt lat="39.0168320" lon="-6.3417510">
        <ele>297.8</ele>
        <time>2021-10-18T10:18:02Z</time>
      </trkpt>
      <trkpt lat="39.0166650" lon="-6.3417860">
        <ele>298.2</ele>
        <time>2021-10-18T10:18:08Z</time>
      </trkpt>
      <trkpt lat="39.0166360" lon="-6.3417900">
        <ele>298.4</ele>
        <time>2021-10-18T10:18:09Z</time>
      </trkpt>
      <trkpt lat="39.0163810" lon="-6.3418050">
        <ele>299.4</ele>
        <time>2021-10-18T10:18:17Z</time>
      </trkpt>
      <trkpt lat="39.0162410" lon="-6.3418150">
        <ele>299.4</ele>
        <time>2021-10-18T10:18:21Z</time>
      </trkpt>
      <trkpt lat="39.0159550" lon="-6.3418440">
        <ele>299.6</ele>
        <time>2021-10-18T10:18:29Z</time>
      </trkpt>
      <trkpt lat="39.0157230" lon="-6.3418420">
        <ele>299.8</ele>
        <time>2021-10-18T10:18:36Z</time>
      </trkpt>
      <trkpt lat="39.0156270" lon="-6.3418390">
        <ele>300.2</ele>
        <time>2021-10-18T10:18:39Z</time>
      </trkpt>
      <trkpt lat="39.0154630" lon="-6.3418340">
        <ele>300.4</ele>
        <time>2021-10-18T10:18:44Z</time>
      </trkpt>
      <trkpt lat="39.0152910" lon="-6.3418380">
        <ele>300.6</ele>
        <time>2021-10-18T10:18:49Z</time>
      </trkpt>
      <trkpt lat="39.0150940" lon="-6.3418440">
        <ele>301.0</ele>
        <time>2021-10-18T10:18:55Z</time>
      </trkpt>
      <trkpt lat="39.0149510" lon="-6.3418630">
        <ele>301.4</ele>
        <time>2021-10-18T10:19:00Z</time>
      </trkpt>
      <trkpt lat="39.0148940" lon="-6.3418680">
        <ele>301.6</ele>
        <time>2021-10-18T10:19:02Z</time>
      </trkpt>
      <trkpt lat="39.0147410" lon="-6.3418990">
        <ele>302.4</ele>
        <time>2021-10-18T10:19:09Z</time>
      </trkpt>
      <trkpt lat="39.0146200" lon="-6.3419080">
        <ele>303.6</ele>
        <time>2021-10-18T10:19:15Z</time>
      </trkpt>
      <trkpt lat="39.0145370" lon="-6.3419110">
        <ele>304.2</ele>
        <time>2021-10-18T10:19:19Z</time>
      </trkpt>
      <trkpt lat="39.0144660" lon="-6.3419090">
        <ele>304.8</ele>
        <time>2021-10-18T10:19:22Z</time>
      </trkpt>
      <trkpt lat="39.0143650" lon="-6.3418980">
        <ele>305.6</ele>
        <time>2021-10-18T10:19:27Z</time>
      </trkpt>
      <trkpt lat="39.0143470" lon="-6.3418980">
        <ele>306.0</ele>
        <time>2021-10-18T10:19:28Z</time>
      </trkpt>
      <trkpt lat="39.0142910" lon="-6.3419000">
        <ele>306.2</ele>
        <time>2021-10-18T10:19:31Z</time>
      </trkpt>
      <trkpt lat="39.0142270" lon="-6.3419130">
        <ele>306.4</ele>
        <time>2021-10-18T10:19:34Z</time>
      </trkpt>
      <trkpt lat="39.0142270" lon="-6.3419130">
        <ele>306.4</ele>
        <time>2021-10-18T10:19:35Z</time>
      </trkpt>
      <trkpt lat="39.0141270" lon="-6.3419410">
        <ele>306.4</ele>
        <time>2021-10-18T10:19:37Z</time>
      </trkpt>
      <trkpt lat="39.0140480" lon="-6.3419510">
        <ele>306.2</ele>
        <time>2021-10-18T10:19:39Z</time>
      </trkpt>
      <trkpt lat="39.0139890" lon="-6.3419630">
        <ele>306.2</ele>
        <time>2021-10-18T10:19:41Z</time>
      </trkpt>
      <trkpt lat="39.0138270" lon="-6.3420090">
        <ele>305.8</ele>
        <time>2021-10-18T10:19:44Z</time>
      </trkpt>
      <trkpt lat="39.0137120" lon="-6.3420360">
        <ele>305.6</ele>
        <time>2021-10-18T10:19:45Z</time>
      </trkpt>
      <trkpt lat="39.0135900" lon="-6.3420570">
        <ele>305.2</ele>
        <time>2021-10-18T10:19:47Z</time>
      </trkpt>
      <trkpt lat="39.0134560" lon="-6.3420830">
        <ele>304.8</ele>
        <time>2021-10-18T10:19:49Z</time>
      </trkpt>
      <trkpt lat="39.0133080" lon="-6.3421130">
        <ele>304.2</ele>
        <time>2021-10-18T10:19:51Z</time>
      </trkpt>
      <trkpt lat="39.0131500" lon="-6.3421520">
        <ele>303.8</ele>
        <time>2021-10-18T10:19:53Z</time>
      </trkpt>
      <trkpt lat="39.0129870" lon="-6.3422320">
        <ele>303.0</ele>
        <time>2021-10-18T10:19:55Z</time>
      </trkpt>
      <trkpt lat="39.0128200" lon="-6.3423170">
        <ele>302.2</ele>
        <time>2021-10-18T10:19:57Z</time>
      </trkpt>
      <trkpt lat="39.0125590" lon="-6.3424220">
        <ele>301.0</ele>
        <time>2021-10-18T10:20:00Z</time>
      </trkpt>
      <trkpt lat="39.0123820" lon="-6.3424940">
        <ele>299.8</ele>
        <time>2021-10-18T10:20:02Z</time>
      </trkpt>
      <trkpt lat="39.0120390" lon="-6.3426180">
        <ele>298.0</ele>
        <time>2021-10-18T10:20:06Z</time>
      </trkpt>
      <trkpt lat="39.0117840" lon="-6.3426750">
        <ele>296.8</ele>
        <time>2021-10-18T10:20:09Z</time>
      </trkpt>
      <trkpt lat="39.0117030" lon="-6.3427000">
        <ele>296.4</ele>
        <time>2021-10-18T10:20:10Z</time>
      </trkpt>
      <trkpt lat="39.0114780" lon="-6.3427780">
        <ele>295.6</ele>
        <time>2021-10-18T10:20:13Z</time>
      </trkpt>
      <trkpt lat="39.0113600" lon="-6.3428340">
        <ele>295.2</ele>
        <time>2021-10-18T10:20:15Z</time>
      </trkpt>
      <trkpt lat="39.0110850" lon="-6.3429520">
        <ele>294.6</ele>
        <time>2021-10-18T10:20:19Z</time>
      </trkpt>
      <trkpt lat="39.0108920" lon="-6.3429830">
        <ele>293.8</ele>
        <time>2021-10-18T10:20:22Z</time>
      </trkpt>
      <trkpt lat="39.0107640" lon="-6.3430020">
        <ele>293.4</ele>
        <time>2021-10-18T10:20:24Z</time>
      </trkpt>
      <trkpt lat="39.0105690" lon="-6.3430740">
        <ele>293.0</ele>
        <time>2021-10-18T10:20:27Z</time>
      </trkpt>
      <trkpt lat="39.0104520" lon="-6.3431260">
        <ele>292.2</ele>
        <time>2021-10-18T10:20:30Z</time>
      </trkpt>
      <trkpt lat="39.0101360" lon="-6.3432730">
        <ele>291.0</ele>
        <time>2021-10-18T10:20:34Z</time>
      </trkpt>
      <trkpt lat="39.0101360" lon="-6.3432730">
        <ele>290.6</ele>
        <time>2021-10-18T10:20:35Z</time>
      </trkpt>
      <trkpt lat="39.0098040" lon="-6.3433500">
        <ele>290.0</ele>
        <time>2021-10-18T10:20:39Z</time>
      </trkpt>
      <trkpt lat="39.0097290" lon="-6.3433570">
        <ele>289.6</ele>
        <time>2021-10-18T10:20:40Z</time>
      </trkpt>
      <trkpt lat="39.0095220" lon="-6.3434170">
        <ele>288.8</ele>
        <time>2021-10-18T10:20:44Z</time>
      </trkpt>
      <trkpt lat="39.0091800" lon="-6.3436020">
        <ele>288.2</ele>
        <time>2021-10-18T10:20:50Z</time>
      </trkpt>
      <trkpt lat="39.0091340" lon="-6.3436210">
        <ele>288.0</ele>
        <time>2021-10-18T10:20:51Z</time>
      </trkpt>
      <trkpt lat="39.0090210" lon="-6.3436560">
        <ele>287.6</ele>
        <time>2021-10-18T10:20:53Z</time>
      </trkpt>
      <trkpt lat="39.0087520" lon="-6.3437740">
        <ele>286.8</ele>
        <time>2021-10-18T10:20:58Z</time>
      </trkpt>
      <trkpt lat="39.0086950" lon="-6.3438170">
        <ele>286.6</ele>
        <time>2021-10-18T10:20:59Z</time>
      </trkpt>
      <trkpt lat="39.0086490" lon="-6.3438590">
        <ele>286.4</ele>
        <time>2021-10-18T10:21:00Z</time>
      </trkpt>
      <trkpt lat="39.0085770" lon="-6.3439400">
        <ele>286.2</ele>
        <time>2021-10-18T10:21:03Z</time>
      </trkpt>
      <trkpt lat="39.0083430" lon="-6.3441970">
        <ele>285.4</ele>
        <time>2021-10-18T10:21:08Z</time>
      </trkpt>
      <trkpt lat="39.0082970" lon="-6.3442350">
        <ele>285.4</ele>
        <time>2021-10-18T10:21:09Z</time>
      </trkpt>
      <trkpt lat="39.0082440" lon="-6.3442620">
        <ele>285.2</ele>
        <time>2021-10-18T10:21:10Z</time>
      </trkpt>
      <trkpt lat="39.0079610" lon="-6.3443160">
        <ele>284.8</ele>
        <time>2021-10-18T10:21:15Z</time>
      </trkpt>
      <trkpt lat="39.0079160" lon="-6.3443130">
        <ele>284.8</ele>
        <time>2021-10-18T10:21:16Z</time>
      </trkpt>
      <trkpt lat="39.0077420" lon="-6.3442850">
        <ele>284.2</ele>
        <time>2021-10-18T10:21:19Z</time>
      </trkpt>
      <trkpt lat="39.0074830" lon="-6.3442490">
        <ele>283.6</ele>
        <time>2021-10-18T10:21:24Z</time>
      </trkpt>
      <trkpt lat="39.0073000" lon="-6.3441570">
        <ele>283.4</ele>
        <time>2021-10-18T10:21:28Z</time>
      </trkpt>
      <trkpt lat="39.0072610" lon="-6.3441420">
        <ele>283.4</ele>
        <time>2021-10-18T10:21:29Z</time>
      </trkpt>
      <trkpt lat="39.0071080" lon="-6.3440790">
        <ele>283.4</ele>
        <time>2021-10-18T10:21:32Z</time>
      </trkpt>
      <trkpt lat="39.0070380" lon="-6.3440100">
        <ele>283.2</ele>
        <time>2021-10-18T10:21:34Z</time>
      </trkpt>
      <trkpt lat="39.0069900" lon="-6.3439760">
        <ele>283.2</ele>
        <time>2021-10-18T10:21:35Z</time>
      </trkpt>
      <trkpt lat="39.0068580" lon="-6.3439700">
        <ele>282.8</ele>
        <time>2021-10-18T10:21:37Z</time>
      </trkpt>
      <trkpt lat="39.0066320" lon="-6.3441050">
        <ele>282.0</ele>
        <time>2021-10-18T10:21:41Z</time>
      </trkpt>
      <trkpt lat="39.0065260" lon="-6.3441770">
        <ele>281.0</ele>
        <time>2021-10-18T10:21:43Z</time>
      </trkpt>
      <trkpt lat="39.0064820" lon="-6.3442060">
        <ele>280.8</ele>
        <time>2021-10-18T10:21:44Z</time>
      </trkpt>
      <trkpt lat="39.0063530" lon="-6.3442780">
        <ele>280.4</ele>
        <time>2021-10-18T10:21:46Z</time>
      </trkpt>
      <trkpt lat="39.0061160" lon="-6.3443620">
        <ele>279.8</ele>
        <time>2021-10-18T10:21:50Z</time>
      </trkpt>
      <trkpt lat="39.0057870" lon="-6.3444400">
        <ele>278.6</ele>
        <time>2021-10-18T10:21:55Z</time>
      </trkpt>
      <trkpt lat="39.0056370" lon="-6.3444850">
        <ele>278.0</ele>
        <time>2021-10-18T10:21:58Z</time>
      </trkpt>
      <trkpt lat="39.0055260" lon="-6.3445190">
        <ele>277.6</ele>
        <time>2021-10-18T10:22:00Z</time>
      </trkpt>
      <trkpt lat="39.0052900" lon="-6.3445920">
        <ele>277.6</ele>
        <time>2021-10-18T10:22:05Z</time>
      </trkpt>
      <trkpt lat="39.0050940" lon="-6.3446790">
        <ele>277.6</ele>
        <time>2021-10-18T10:22:09Z</time>
      </trkpt>
      <trkpt lat="39.0049540" lon="-6.3446940">
        <ele>277.4</ele>
        <time>2021-10-18T10:22:12Z</time>
      </trkpt>
      <trkpt lat="39.0047020" lon="-6.3446600">
        <ele>277.0</ele>
        <time>2021-10-18T10:22:18Z</time>
      </trkpt>
      <trkpt lat="39.0045660" lon="-6.3446500">
        <ele>276.8</ele>
        <time>2021-10-18T10:22:23Z</time>
      </trkpt>
      <trkpt lat="39.0044360" lon="-6.3446220">
        <ele>276.6</ele>
        <time>2021-10-18T10:22:25Z</time>
      </trkpt>
      <trkpt lat="39.0043890" lon="-6.3446170">
        <ele>276.4</ele>
        <time>2021-10-18T10:22:26Z</time>
      </trkpt>
      <trkpt lat="39.0042920" lon="-6.3446120">
        <ele>276.2</ele>
        <time>2021-10-18T10:22:28Z</time>
      </trkpt>
      <trkpt lat="39.0041940" lon="-6.3446110">
        <ele>275.8</ele>
        <time>2021-10-18T10:22:30Z</time>
      </trkpt>
      <trkpt lat="39.0041100" lon="-6.3446300">
        <ele>275.4</ele>
        <time>2021-10-18T10:22:32Z</time>
      </trkpt>
      <trkpt lat="39.0040520" lon="-6.3446450">
        <ele>275.2</ele>
        <time>2021-10-18T10:22:33Z</time>
      </trkpt>
      <trkpt lat="39.0040020" lon="-6.3446500">
        <ele>275.2</ele>
        <time>2021-10-18T10:22:34Z</time>
      </trkpt>
      <trkpt lat="39.0037990" lon="-6.3446140">
        <ele>274.8</ele>
        <time>2021-10-18T10:22:38Z</time>
      </trkpt>
      <trkpt lat="39.0036830" lon="-6.3446020">
        <ele>274.6</ele>
        <time>2021-10-18T10:22:40Z</time>
      </trkpt>
      <trkpt lat="39.0036140" lon="-6.3446390">
        <ele>274.4</ele>
        <time>2021-10-18T10:22:42Z</time>
      </trkpt>
      <trkpt lat="39.0035930" lon="-6.3446560">
        <ele>274.4</ele>
        <time>2021-10-18T10:22:43Z</time>
      </trkpt>
      <trkpt lat="39.0035720" lon="-6.3446600">
        <ele>274.4</ele>
        <time>2021-10-18T10:22:44Z</time>
      </trkpt>
      <trkpt lat="39.0035370" lon="-6.3446460">
        <ele>274.0</ele>
        <time>2021-10-18T10:22:46Z</time>
      </trkpt>
      <trkpt lat="39.0035150" lon="-6.3446460">
        <ele>274.0</ele>
        <time>2021-10-18T10:22:47Z</time>
      </trkpt>
      <trkpt lat="39.0034580" lon="-6.3446760">
        <ele>273.6</ele>
        <time>2021-10-18T10:22:50Z</time>
      </trkpt>
      <trkpt lat="39.0033160" lon="-6.3446320">
        <ele>273.4</ele>
        <time>2021-10-18T10:22:54Z</time>
      </trkpt>
      <trkpt lat="39.0032350" lon="-6.3446180">
        <ele>273.0</ele>
        <time>2021-10-18T10:22:56Z</time>
      </trkpt>
      <trkpt lat="39.0031380" lon="-6.3446180">
        <ele>272.4</ele>
        <time>2021-10-18T10:22:58Z</time>
      </trkpt>
      <trkpt lat="39.0030980" lon="-6.3446170">
        <ele>272.0</ele>
        <time>2021-10-18T10:22:59Z</time>
      </trkpt>
      <trkpt lat="39.0030480" lon="-6.3446130">
        <ele>271.6</ele>
        <time>2021-10-18T10:23:00Z</time>
      </trkpt>
      <trkpt lat="39.0029060" lon="-6.3445830">
        <ele>271.4</ele>
        <time>2021-10-18T10:23:03Z</time>
      </trkpt>
      <trkpt lat="39.0028550" lon="-6.3445830">
        <ele>271.2</ele>
        <time>2021-10-18T10:23:04Z</time>
      </trkpt>
      <trkpt lat="39.0027770" lon="-6.3445870">
        <ele>271.0</ele>
        <time>2021-10-18T10:23:06Z</time>
      </trkpt>
      <trkpt lat="39.0026840" lon="-6.3445670">
        <ele>270.6</ele>
        <time>2021-10-18T10:23:08Z</time>
      </trkpt>
      <trkpt lat="39.0026080" lon="-6.3445670">
        <ele>270.2</ele>
        <time>2021-10-18T10:23:10Z</time>
      </trkpt>
      <trkpt lat="39.0025540" lon="-6.3445660">
        <ele>270.0</ele>
        <time>2021-10-18T10:23:11Z</time>
      </trkpt>
      <trkpt lat="39.0025090" lon="-6.3445640">
        <ele>270.0</ele>
        <time>2021-10-18T10:23:12Z</time>
      </trkpt>
      <trkpt lat="39.0024640" lon="-6.3445550">
        <ele>269.8</ele>
        <time>2021-10-18T10:23:13Z</time>
      </trkpt>
      <trkpt lat="39.0024260" lon="-6.3445430">
        <ele>269.6</ele>
        <time>2021-10-18T10:23:15Z</time>
      </trkpt>
      <trkpt lat="39.0023290" lon="-6.3445150">
        <ele>269.6</ele>
        <time>2021-10-18T10:23:16Z</time>
      </trkpt>
      <trkpt lat="39.0022300" lon="-6.3445040">
        <ele>269.2</ele>
        <time>2021-10-18T10:23:18Z</time>
      </trkpt>
      <trkpt lat="39.0021900" lon="-6.3445000">
        <ele>269.0</ele>
        <time>2021-10-18T10:23:19Z</time>
      </trkpt>
      <trkpt lat="39.0021300" lon="-6.3444990">
        <ele>268.6</ele>
        <time>2021-10-18T10:23:20Z</time>
      </trkpt>
      <trkpt lat="39.0020820" lon="-6.3444930">
        <ele>268.8</ele>
        <time>2021-10-18T10:23:21Z</time>
      </trkpt>
      <trkpt lat="39.0019480" lon="-6.3444380">
        <ele>268.6</ele>
        <time>2021-10-18T10:23:24Z</time>
      </trkpt>
      <trkpt lat="39.0018370" lon="-6.3444070">
        <ele>268.2</ele>
        <time>2021-10-18T10:23:26Z</time>
      </trkpt>
      <trkpt lat="39.0015760" lon="-6.3443910">
        <ele>267.6</ele>
        <time>2021-10-18T10:23:31Z</time>
      </trkpt>
      <trkpt lat="39.0014360" lon="-6.3443750">
        <ele>267.4</ele>
        <time>2021-10-18T10:23:34Z</time>
      </trkpt>
      <trkpt lat="39.0013490" lon="-6.3443750">
        <ele>267.4</ele>
        <time>2021-10-18T10:23:36Z</time>
      </trkpt>
      <trkpt lat="39.0012530" lon="-6.3443700">
        <ele>267.2</ele>
        <time>2021-10-18T10:23:38Z</time>
      </trkpt>
      <trkpt lat="39.0012010" lon="-6.3443480">
        <ele>267.0</ele>
        <time>2021-10-18T10:23:39Z</time>
      </trkpt>
      <trkpt lat="39.0011680" lon="-6.3443250">
        <ele>267.0</ele>
        <time>2021-10-18T10:23:40Z</time>
      </trkpt>
      <trkpt lat="39.0011280" lon="-6.3442990">
        <ele>267.0</ele>
        <time>2021-10-18T10:23:41Z</time>
      </trkpt>
      <trkpt lat="39.0010370" lon="-6.3442870">
        <ele>266.8</ele>
        <time>2021-10-18T10:23:43Z</time>
      </trkpt>
      <trkpt lat="39.0008560" lon="-6.3443090">
        <ele>266.8</ele>
        <time>2021-10-18T10:23:47Z</time>
      </trkpt>
      <trkpt lat="39.0007580" lon="-6.3442890">
        <ele>266.8</ele>
        <time>2021-10-18T10:23:49Z</time>
      </trkpt>
      <trkpt lat="39.0005470" lon="-6.3442390">
        <ele>266.6</ele>
        <time>2021-10-18T10:23:53Z</time>
      </trkpt>
      <trkpt lat="39.0004830" lon="-6.3442320">
        <ele>266.4</ele>
        <time>2021-10-18T10:23:54Z</time>
      </trkpt>
      <trkpt lat="39.0003790" lon="-6.3442220">
        <ele>266.0</ele>
        <time>2021-10-18T10:23:56Z</time>
      </trkpt>
      <trkpt lat="39.0001390" lon="-6.3442260">
        <ele>265.6</ele>
        <time>2021-10-18T10:24:00Z</time>
      </trkpt>
      <trkpt lat="39.0000930" lon="-6.3442170">
        <ele>265.6</ele>
        <time>2021-10-18T10:24:01Z</time>
      </trkpt>
      <trkpt lat="38.9998770" lon="-6.3441670">
        <ele>265.2</ele>
        <time>2021-10-18T10:24:05Z</time>
      </trkpt>
      <trkpt lat="38.9997460" lon="-6.3441050">
        <ele>265.2</ele>
        <time>2021-10-18T10:24:08Z</time>
      </trkpt>
      <trkpt lat="38.9996860" lon="-6.3440750">
        <ele>265.2</ele>
        <time>2021-10-18T10:24:09Z</time>
      </trkpt>
      <trkpt lat="38.9995170" lon="-6.3440530">
        <ele>265.2</ele>
        <time>2021-10-18T10:24:12Z</time>
      </trkpt>
      <trkpt lat="38.9993840" lon="-6.3440770">
        <ele>265.2</ele>
        <time>2021-10-18T10:24:15Z</time>
      </trkpt>
      <trkpt lat="38.9993120" lon="-6.3440940">
        <ele>265.2</ele>
        <time>2021-10-18T10:24:17Z</time>
      </trkpt>
      <trkpt lat="38.9991210" lon="-6.3441200">
        <ele>265.2</ele>
        <time>2021-10-18T10:24:23Z</time>
      </trkpt>
      <trkpt lat="38.9988890" lon="-6.3441930">
        <ele>265.8</ele>
        <time>2021-10-18T10:24:30Z</time>
      </trkpt>
      <trkpt lat="38.9988580" lon="-6.3442300">
        <ele>266.0</ele>
        <time>2021-10-18T10:24:31Z</time>
      </trkpt>
      <trkpt lat="38.9987690" lon="-6.3442950">
        <ele>266.2</ele>
        <time>2021-10-18T10:24:34Z</time>
      </trkpt>
      <trkpt lat="38.9987360" lon="-6.3443120">
        <ele>266.4</ele>
        <time>2021-10-18T10:24:35Z</time>
      </trkpt>
      <trkpt lat="38.9985380" lon="-6.3443800">
        <ele>266.6</ele>
        <time>2021-10-18T10:24:41Z</time>
      </trkpt>
      <trkpt lat="38.9985080" lon="-6.3443930">
        <ele>266.6</ele>
        <time>2021-10-18T10:24:42Z</time>
      </trkpt>
      <trkpt lat="38.9983590" lon="-6.3444640">
        <ele>267.0</ele>
        <time>2021-10-18T10:24:47Z</time>
      </trkpt>
      <trkpt lat="38.9983070" lon="-6.3444890">
        <ele>267.2</ele>
        <time>2021-10-18T10:24:49Z</time>
      </trkpt>
      <trkpt lat="38.9982450" lon="-6.3445060">
        <ele>267.4</ele>
        <time>2021-10-18T10:24:51Z</time>
      </trkpt>
      <trkpt lat="38.9980070" lon="-6.3446100">
        <ele>268.4</ele>
        <time>2021-10-18T10:25:00Z</time>
      </trkpt>
      <trkpt lat="38.9978890" lon="-6.3446180">
        <ele>269.0</ele>
        <time>2021-10-18T10:25:05Z</time>
      </trkpt>
      <trkpt lat="38.9978010" lon="-6.3446300">
        <ele>269.4</ele>
        <time>2021-10-18T10:25:08Z</time>
      </trkpt>
      <trkpt lat="38.9977350" lon="-6.3446480">
        <ele>269.4</ele>
        <time>2021-10-18T10:25:10Z</time>
      </trkpt>
      <trkpt lat="38.9976930" lon="-6.3446650">
        <ele>269.4</ele>
        <time>2021-10-18T10:25:11Z</time>
      </trkpt>
      <trkpt lat="38.9976270" lon="-6.3446990">
        <ele>269.4</ele>
        <time>2021-10-18T10:25:13Z</time>
      </trkpt>
      <trkpt lat="38.9975170" lon="-6.3447610">
        <ele>269.2</ele>
        <time>2021-10-18T10:25:16Z</time>
      </trkpt>
      <trkpt lat="38.9974770" lon="-6.3447720">
        <ele>269.2</ele>
        <time>2021-10-18T10:25:17Z</time>
      </trkpt>
      <trkpt lat="38.9971530" lon="-6.3448030">
        <ele>269.2</ele>
        <time>2021-10-18T10:25:25Z</time>
      </trkpt>
      <trkpt lat="38.9969110" lon="-6.3448570">
        <ele>269.6</ele>
        <time>2021-10-18T10:25:32Z</time>
      </trkpt>
      <trkpt lat="38.9968480" lon="-6.3449150">
        <ele>269.8</ele>
        <time>2021-10-18T10:25:35Z</time>
      </trkpt>
      <trkpt lat="38.9968000" lon="-6.3449610">
        <ele>270.0</ele>
        <time>2021-10-18T10:25:37Z</time>
      </trkpt>
      <trkpt lat="38.9967260" lon="-6.3450090">
        <ele>270.0</ele>
        <time>2021-10-18T10:25:41Z</time>
      </trkpt>
      <trkpt lat="38.9967040" lon="-6.3450170">
        <ele>270.0</ele>
        <time>2021-10-18T10:25:42Z</time>
      </trkpt>
      <trkpt lat="38.9966680" lon="-6.3450180">
        <ele>269.6</ele>
        <time>2021-10-18T10:25:44Z</time>
      </trkpt>
      <trkpt lat="38.9966100" lon="-6.3449910">
        <ele>269.4</ele>
        <time>2021-10-18T10:25:47Z</time>
      </trkpt>
      <trkpt lat="38.9965650" lon="-6.3450170">
        <ele>268.8</ele>
        <time>2021-10-18T10:25:49Z</time>
      </trkpt>
      <trkpt lat="38.9965160" lon="-6.3450760">
        <ele>268.4</ele>
        <time>2021-10-18T10:25:51Z</time>
      </trkpt>
      <trkpt lat="38.9964800" lon="-6.3450980">
        <ele>268.4</ele>
        <time>2021-10-18T10:25:52Z</time>
      </trkpt>
      <trkpt lat="38.9963850" lon="-6.3451680">
        <ele>267.8</ele>
        <time>2021-10-18T10:25:55Z</time>
      </trkpt>
      <trkpt lat="38.9963490" lon="-6.3452180">
        <ele>267.6</ele>
        <time>2021-10-18T10:25:56Z</time>
      </trkpt>
      <trkpt lat="38.9962590" lon="-6.3453600">
        <ele>267.4</ele>
        <time>2021-10-18T10:26:00Z</time>
      </trkpt>
      <trkpt lat="38.9962270" lon="-6.3453850">
        <ele>267.4</ele>
        <time>2021-10-18T10:26:01Z</time>
      </trkpt>
      <trkpt lat="38.9962270" lon="-6.3453850">
        <ele>267.4</ele>
        <time>2021-10-18T10:26:02Z</time>
      </trkpt>
      <trkpt lat="38.9961470" lon="-6.3454270">
        <ele>267.2</ele>
        <time>2021-10-18T10:26:04Z</time>
      </trkpt>
      <trkpt lat="38.9961090" lon="-6.3454220">
        <ele>267.0</ele>
        <time>2021-10-18T10:26:05Z</time>
      </trkpt>
      <trkpt lat="38.9959700" lon="-6.3454070">
        <ele>266.6</ele>
        <time>2021-10-18T10:26:08Z</time>
      </trkpt>
      <trkpt lat="38.9959200" lon="-6.3454110">
        <ele>266.2</ele>
        <time>2021-10-18T10:26:09Z</time>
      </trkpt>
      <trkpt lat="38.9956600" lon="-6.3454330">
        <ele>265.0</ele>
        <time>2021-10-18T10:26:14Z</time>
      </trkpt>
      <trkpt lat="38.9956090" lon="-6.3454430">
        <ele>264.6</ele>
        <time>2021-10-18T10:26:15Z</time>
      </trkpt>
      <trkpt lat="38.9955560" lon="-6.3454470">
        <ele>264.2</ele>
        <time>2021-10-18T10:26:16Z</time>
      </trkpt>
      <trkpt lat="38.9954940" lon="-6.3454500">
        <ele>264.0</ele>
        <time>2021-10-18T10:26:17Z</time>
      </trkpt>
      <trkpt lat="38.9953500" lon="-6.3454870">
        <ele>263.2</ele>
        <time>2021-10-18T10:26:20Z</time>
      </trkpt>
      <trkpt lat="38.9952370" lon="-6.3455340">
        <ele>262.8</ele>
        <time>2021-10-18T10:26:22Z</time>
      </trkpt>
      <trkpt lat="38.9950320" lon="-6.3456280">
        <ele>262.0</ele>
        <time>2021-10-18T10:26:26Z</time>
      </trkpt>
      <trkpt lat="38.9949870" lon="-6.3456400">
        <ele>261.8</ele>
        <time>2021-10-18T10:26:27Z</time>
      </trkpt>
      <trkpt lat="38.9948780" lon="-6.3456750">
        <ele>260.6</ele>
        <time>2021-10-18T10:26:29Z</time>
      </trkpt>
      <trkpt lat="38.9948260" lon="-6.3456920">
        <ele>260.4</ele>
        <time>2021-10-18T10:26:30Z</time>
      </trkpt>
      <trkpt lat="38.9947290" lon="-6.3457000">
        <ele>260.0</ele>
        <time>2021-10-18T10:26:32Z</time>
      </trkpt>
      <trkpt lat="38.9946810" lon="-6.3456940">
        <ele>259.4</ele>
        <time>2021-10-18T10:26:33Z</time>
      </trkpt>
      <trkpt lat="38.9945950" lon="-6.3456930">
        <ele>258.2</ele>
        <time>2021-10-18T10:26:36Z</time>
      </trkpt>
      <trkpt lat="38.9945240" lon="-6.3456970">
        <ele>257.0</ele>
        <time>2021-10-18T10:26:39Z</time>
      </trkpt>
      <trkpt lat="38.9944490" lon="-6.3457080">
        <ele>256.4</ele>
        <time>2021-10-18T10:26:42Z</time>
      </trkpt>
      <trkpt lat="38.9944440" lon="-6.3457920">
        <ele>256.2</ele>
        <time>2021-10-18T10:26:45Z</time>
      </trkpt>
      <trkpt lat="38.9944760" lon="-6.3459380">
        <ele>256.0</ele>
        <time>2021-10-18T10:26:49Z</time>
      </trkpt>
      <trkpt lat="38.9945000" lon="-6.3460250">
        <ele>256.0</ele>
        <time>2021-10-18T10:26:52Z</time>
      </trkpt>
      <trkpt lat="38.9945720" lon="-6.3463570">
        <ele>256.2</ele>
        <time>2021-10-18T10:26:58Z</time>
      </trkpt>
      <trkpt lat="38.9946520" lon="-6.3467650">
        <ele>256.2</ele>
        <time>2021-10-18T10:27:06Z</time>
      </trkpt>
      <trkpt lat="38.9947230" lon="-6.3470850">
        <ele>256.0</ele>
        <time>2021-10-18T10:27:12Z</time>
      </trkpt>
      <trkpt lat="38.9947320" lon="-6.3471390">
        <ele>256.0</ele>
        <time>2021-10-18T10:27:13Z</time>
      </trkpt>
      <trkpt lat="38.9948410" lon="-6.3476380">
        <ele>256.0</ele>
        <time>2021-10-18T10:27:22Z</time>
      </trkpt>
      <trkpt lat="38.9948770" lon="-6.3477980">
        <ele>256.0</ele>
        <time>2021-10-18T10:27:25Z</time>
      </trkpt>
      <trkpt lat="38.9949480" lon="-6.3481380">
        <ele>256.0</ele>
        <time>2021-10-18T10:27:31Z</time>
      </trkpt>
      <trkpt lat="38.9950640" lon="-6.3487020">
        <ele>255.8</ele>
        <time>2021-10-18T10:27:41Z</time>
      </trkpt>
      <trkpt lat="38.9950890" lon="-6.3488980">
        <ele>255.4</ele>
        <time>2021-10-18T10:27:44Z</time>
      </trkpt>
      <trkpt lat="38.9950890" lon="-6.3490320">
        <ele>255.2</ele>
        <time>2021-10-18T10:27:46Z</time>
      </trkpt>
      <trkpt lat="38.9950800" lon="-6.3490930">
        <ele>255.2</ele>
        <time>2021-10-18T10:27:47Z</time>
      </trkpt>
      <trkpt lat="38.9950480" lon="-6.3492030">
        <ele>255.2</ele>
        <time>2021-10-18T10:27:49Z</time>
      </trkpt>
      <trkpt lat="38.9949550" lon="-6.3494280">
        <ele>255.0</ele>
        <time>2021-10-18T10:27:53Z</time>
      </trkpt>
      <trkpt lat="38.9948490" lon="-6.3496670">
        <ele>254.8</ele>
        <time>2021-10-18T10:27:57Z</time>
      </trkpt>
      <trkpt lat="38.9946360" lon="-6.3501730">
        <ele>254.4</ele>
        <time>2021-10-18T10:28:05Z</time>
      </trkpt>
      <trkpt lat="38.9944270" lon="-6.3506740">
        <ele>254.0</ele>
        <time>2021-10-18T10:28:13Z</time>
      </trkpt>
      <trkpt lat="38.9944020" lon="-6.3507330">
        <ele>254.0</ele>
        <time>2021-10-18T10:28:14Z</time>
      </trkpt>
      <trkpt lat="38.9942300" lon="-6.3511560">
        <ele>253.8</ele>
        <time>2021-10-18T10:28:22Z</time>
      </trkpt>
      <trkpt lat="38.9940800" lon="-6.3514400">
        <ele>254.2</ele>
        <time>2021-10-18T10:28:29Z</time>
      </trkpt>
      <trkpt lat="38.9939380" lon="-6.3515440">
        <ele>255.0</ele>
        <time>2021-10-18T10:28:33Z</time>
      </trkpt>
      <trkpt lat="38.9938980" lon="-6.3515640">
        <ele>255.2</ele>
        <time>2021-10-18T10:28:34Z</time>
      </trkpt>
      <trkpt lat="38.9936280" lon="-6.3516860">
        <ele>255.4</ele>
        <time>2021-10-18T10:28:40Z</time>
      </trkpt>
      <trkpt lat="38.9935780" lon="-6.3517080">
        <ele>255.2</ele>
        <time>2021-10-18T10:28:42Z</time>
      </trkpt>
      <trkpt lat="38.9931460" lon="-6.3519020">
        <ele>253.8</ele>
        <time>2021-10-18T10:28:49Z</time>
      </trkpt>
      <trkpt lat="38.9930890" lon="-6.3519230">
        <ele>253.8</ele>
        <time>2021-10-18T10:28:50Z</time>
      </trkpt>
      <trkpt lat="38.9929300" lon="-6.3519860">
        <ele>252.8</ele>
        <time>2021-10-18T10:28:54Z</time>
      </trkpt>
      <trkpt lat="38.9925860" lon="-6.3521330">
        <ele>252.4</ele>
        <time>2021-10-18T10:29:00Z</time>
      </trkpt>
      <trkpt lat="38.9921450" lon="-6.3523210">
        <ele>252.8</ele>
        <time>2021-10-18T10:29:10Z</time>
      </trkpt>
      <trkpt lat="38.9918810" lon="-6.3524290">
        <ele>253.6</ele>
        <time>2021-10-18T10:29:17Z</time>
      </trkpt>
      <trkpt lat="38.9918360" lon="-6.3524480">
        <ele>253.8</ele>
        <time>2021-10-18T10:29:18Z</time>
      </trkpt>
      <trkpt lat="38.9915960" lon="-6.3525490">
        <ele>254.2</ele>
        <time>2021-10-18T10:29:24Z</time>
      </trkpt>
      <trkpt lat="38.9914640" lon="-6.3526030">
        <ele>254.2</ele>
        <time>2021-10-18T10:29:27Z</time>
      </trkpt>
      <trkpt lat="38.9912290" lon="-6.3527040">
        <ele>254.0</ele>
        <time>2021-10-18T10:29:32Z</time>
      </trkpt>
      <trkpt lat="38.9911000" lon="-6.3527660">
        <ele>253.6</ele>
        <time>2021-10-18T10:29:35Z</time>
      </trkpt>
      <trkpt lat="38.9910470" lon="-6.3527880">
        <ele>253.4</ele>
        <time>2021-10-18T10:29:36Z</time>
      </trkpt>
      <trkpt lat="38.9908770" lon="-6.3528580">
        <ele>253.2</ele>
        <time>2021-10-18T10:29:40Z</time>
      </trkpt>
      <trkpt lat="38.9906940" lon="-6.3529580">
        <ele>253.0</ele>
        <time>2021-10-18T10:29:44Z</time>
      </trkpt>
      <trkpt lat="38.9905500" lon="-6.3530800">
        <ele>252.8</ele>
        <time>2021-10-18T10:29:47Z</time>
      </trkpt>
      <trkpt lat="38.9904110" lon="-6.3532230">
        <ele>252.4</ele>
        <time>2021-10-18T10:29:50Z</time>
      </trkpt>
      <trkpt lat="38.9902310" lon="-6.3534160">
        <ele>251.8</ele>
        <time>2021-10-18T10:29:54Z</time>
      </trkpt>
      <trkpt lat="38.9901430" lon="-6.3535060">
        <ele>251.6</ele>
        <time>2021-10-18T10:29:56Z</time>
      </trkpt>
      <trkpt lat="38.9900070" lon="-6.3536460">
        <ele>251.4</ele>
        <time>2021-10-18T10:29:59Z</time>
      </trkpt>
      <trkpt lat="38.9899610" lon="-6.3536900">
        <ele>251.2</ele>
        <time>2021-10-18T10:30:00Z</time>
      </trkpt>
      <trkpt lat="38.9897740" lon="-6.3538760">
        <ele>251.0</ele>
        <time>2021-10-18T10:30:04Z</time>
      </trkpt>
      <trkpt lat="38.9895400" lon="-6.3541120">
        <ele>250.4</ele>
        <time>2021-10-18T10:30:09Z</time>
      </trkpt>
      <trkpt lat="38.9894040" lon="-6.3542560">
        <ele>250.2</ele>
        <time>2021-10-18T10:30:12Z</time>
      </trkpt>
      <trkpt lat="38.9892660" lon="-6.3543940">
        <ele>249.8</ele>
        <time>2021-10-18T10:30:15Z</time>
      </trkpt>
      <trkpt lat="38.9891370" lon="-6.3545250">
        <ele>249.6</ele>
        <time>2021-10-18T10:30:18Z</time>
      </trkpt>
      <trkpt lat="38.9889660" lon="-6.3546910">
        <ele>249.2</ele>
        <time>2021-10-18T10:30:22Z</time>
      </trkpt>
      <trkpt lat="38.9886180" lon="-6.3550540">
        <ele>249.4</ele>
        <time>2021-10-18T10:30:31Z</time>
      </trkpt>
      <trkpt lat="38.9882960" lon="-6.3553780">
        <ele>250.0</ele>
        <time>2021-10-18T10:30:40Z</time>
      </trkpt>
      <trkpt lat="38.9881470" lon="-6.3555300">
        <ele>250.2</ele>
        <time>2021-10-18T10:30:44Z</time>
      </trkpt>
      <trkpt lat="38.9880290" lon="-6.3556520">
        <ele>250.2</ele>
        <time>2021-10-18T10:30:47Z</time>
      </trkpt>
      <trkpt lat="38.9878750" lon="-6.3558060">
        <ele>250.2</ele>
        <time>2021-10-18T10:30:51Z</time>
      </trkpt>
      <trkpt lat="38.9878120" lon="-6.3558810">
        <ele>250.2</ele>
        <time>2021-10-18T10:30:53Z</time>
      </trkpt>
      <trkpt lat="38.9877540" lon="-6.3559770">
        <ele>250.0</ele>
        <time>2021-10-18T10:30:55Z</time>
      </trkpt>
      <trkpt lat="38.9877340" lon="-6.3560350">
        <ele>250.0</ele>
        <time>2021-10-18T10:30:56Z</time>
      </trkpt>
      <trkpt lat="38.9877240" lon="-6.3561000">
        <ele>250.0</ele>
        <time>2021-10-18T10:30:57Z</time>
      </trkpt>
      <trkpt lat="38.9877220" lon="-6.3562410">
        <ele>250.0</ele>
        <time>2021-10-18T10:30:59Z</time>
      </trkpt>
      <trkpt lat="38.9877300" lon="-6.3563120">
        <ele>250.0</ele>
        <time>2021-10-18T10:31:00Z</time>
      </trkpt>
      <trkpt lat="38.9877960" lon="-6.3567590">
        <ele>249.4</ele>
        <time>2021-10-18T10:31:06Z</time>
      </trkpt>
      <trkpt lat="38.9878150" lon="-6.3568990">
        <ele>249.0</ele>
        <time>2021-10-18T10:31:08Z</time>
      </trkpt>
      <trkpt lat="38.9878230" lon="-6.3570310">
        <ele>248.8</ele>
        <time>2021-10-18T10:31:10Z</time>
      </trkpt>
      <trkpt lat="38.9878190" lon="-6.3570970">
        <ele>248.6</ele>
        <time>2021-10-18T10:31:11Z</time>
      </trkpt>
      <trkpt lat="38.9878090" lon="-6.3571620">
        <ele>248.6</ele>
        <time>2021-10-18T10:31:12Z</time>
      </trkpt>
      <trkpt lat="38.9877700" lon="-6.3572830">
        <ele>248.2</ele>
        <time>2021-10-18T10:31:14Z</time>
      </trkpt>
      <trkpt lat="38.9877030" lon="-6.3573880">
        <ele>248.0</ele>
        <time>2021-10-18T10:31:16Z</time>
      </trkpt>
      <trkpt lat="38.9876040" lon="-6.3575000">
        <ele>247.6</ele>
        <time>2021-10-18T10:31:20Z</time>
      </trkpt>
      <trkpt lat="38.9874820" lon="-6.3576020">
        <ele>247.2</ele>
        <time>2021-10-18T10:31:25Z</time>
      </trkpt>
      <trkpt lat="38.9872300" lon="-6.3577950">
        <ele>246.6</ele>
        <time>2021-10-18T10:31:31Z</time>
      </trkpt>
      <trkpt lat="38.9870860" lon="-6.3579010">
        <ele>246.6</ele>
        <time>2021-10-18T10:31:34Z</time>
      </trkpt>
      <trkpt lat="38.9869150" lon="-6.3580470">
        <ele>246.6</ele>
        <time>2021-10-18T10:31:38Z</time>
      </trkpt>
      <trkpt lat="38.9867330" lon="-6.3581960">
        <ele>247.2</ele>
        <time>2021-10-18T10:31:43Z</time>
      </trkpt>
      <trkpt lat="38.9865580" lon="-6.3583560">
        <ele>248.0</ele>
        <time>2021-10-18T10:31:49Z</time>
      </trkpt>
      <trkpt lat="38.9863790" lon="-6.3585130">
        <ele>248.8</ele>
        <time>2021-10-18T10:31:55Z</time>
      </trkpt>
      <trkpt lat="38.9862760" lon="-6.3585910">
        <ele>249.2</ele>
        <time>2021-10-18T10:31:58Z</time>
      </trkpt>
      <trkpt lat="38.9862180" lon="-6.3586400">
        <ele>249.2</ele>
        <time>2021-10-18T10:32:00Z</time>
      </trkpt>
      <trkpt lat="38.9860930" lon="-6.3587500">
        <ele>249.6</ele>
        <time>2021-10-18T10:32:04Z</time>
      </trkpt>
      <trkpt lat="38.9860340" lon="-6.3588030">
        <ele>249.6</ele>
        <time>2021-10-18T10:32:06Z</time>
      </trkpt>
      <trkpt lat="38.9859750" lon="-6.3588540">
        <ele>249.8</ele>
        <time>2021-10-18T10:32:08Z</time>
      </trkpt>
      <trkpt lat="38.9858900" lon="-6.3589320">
        <ele>250.0</ele>
        <time>2021-10-18T10:32:11Z</time>
      </trkpt>
      <trkpt lat="38.9858290" lon="-6.3589810">
        <ele>250.2</ele>
        <time>2021-10-18T10:32:14Z</time>
      </trkpt>
      <trkpt lat="38.9855840" lon="-6.3591900">
        <ele>250.8</ele>
        <time>2021-10-18T10:32:22Z</time>
      </trkpt>
      <trkpt lat="38.9855110" lon="-6.3592490">
        <ele>251.2</ele>
        <time>2021-10-18T10:32:25Z</time>
      </trkpt>
      <trkpt lat="38.9854170" lon="-6.3593300">
        <ele>251.8</ele>
        <time>2021-10-18T10:32:29Z</time>
      </trkpt>
      <trkpt lat="38.9853680" lon="-6.3593710">
        <ele>252.2</ele>
        <time>2021-10-18T10:32:31Z</time>
      </trkpt>
      <trkpt lat="38.9853460" lon="-6.3593890">
        <ele>252.2</ele>
        <time>2021-10-18T10:32:32Z</time>
      </trkpt>
      <trkpt lat="38.9851940" lon="-6.3595200">
        <ele>253.2</ele>
        <time>2021-10-18T10:32:39Z</time>
      </trkpt>
      <trkpt lat="38.9851540" lon="-6.3595540">
        <ele>253.4</ele>
        <time>2021-10-18T10:32:41Z</time>
      </trkpt>
      <trkpt lat="38.9851330" lon="-6.3595720">
        <ele>253.4</ele>
        <time>2021-10-18T10:32:42Z</time>
      </trkpt>
      <trkpt lat="38.9850620" lon="-6.3596280">
        <ele>253.8</ele>
        <time>2021-10-18T10:32:45Z</time>
      </trkpt>
      <trkpt lat="38.9850070" lon="-6.3596760">
        <ele>254.0</ele>
        <time>2021-10-18T10:32:47Z</time>
      </trkpt>
      <trkpt lat="38.9849450" lon="-6.3597230">
        <ele>254.0</ele>
        <time>2021-10-18T10:32:49Z</time>
      </trkpt>
      <trkpt lat="38.9846860" lon="-6.3598130">
        <ele>253.8</ele>
        <time>2021-10-18T10:32:55Z</time>
      </trkpt>
      <trkpt lat="38.9845790" lon="-6.3598280">
        <ele>253.6</ele>
        <time>2021-10-18T10:32:57Z</time>
      </trkpt>
      <trkpt lat="38.9843000" lon="-6.3598480">
        <ele>252.8</ele>
        <time>2021-10-18T10:33:02Z</time>
      </trkpt>
      <trkpt lat="38.9841780" lon="-6.3598560">
        <ele>252.4</ele>
        <time>2021-10-18T10:33:04Z</time>
      </trkpt>
      <trkpt lat="38.9839250" lon="-6.3598770">
        <ele>251.6</ele>
        <time>2021-10-18T10:33:09Z</time>
      </trkpt>
      <trkpt lat="38.9837750" lon="-6.3598880">
        <ele>251.4</ele>
        <time>2021-10-18T10:33:12Z</time>
      </trkpt>
      <trkpt lat="38.9835830" lon="-6.3598920">
        <ele>251.4</ele>
        <time>2021-10-18T10:33:16Z</time>
      </trkpt>
      <trkpt lat="38.9833900" lon="-6.3599030">
        <ele>251.4</ele>
        <time>2021-10-18T10:33:20Z</time>
      </trkpt>
      <trkpt lat="38.9829330" lon="-6.3599340">
        <ele>251.2</ele>
        <time>2021-10-18T10:33:30Z</time>
      </trkpt>
      <trkpt lat="38.9828520" lon="-6.3599410">
        <ele>251.2</ele>
        <time>2021-10-18T10:33:32Z</time>
      </trkpt>
      <trkpt lat="38.9826640" lon="-6.3599550">
        <ele>251.6</ele>
        <time>2021-10-18T10:33:37Z</time>
      </trkpt>
      <trkpt lat="38.9824290" lon="-6.3599680">
        <ele>252.4</ele>
        <time>2021-10-18T10:33:44Z</time>
      </trkpt>
      <trkpt lat="38.9823920" lon="-6.3599690">
        <ele>252.4</ele>
        <time>2021-10-18T10:33:45Z</time>
      </trkpt>
      <trkpt lat="38.9823040" lon="-6.3599660">
        <ele>252.8</ele>
        <time>2021-10-18T10:33:48Z</time>
      </trkpt>
      <trkpt lat="38.9821590" lon="-6.3599620">
        <ele>253.0</ele>
        <time>2021-10-18T10:33:52Z</time>
      </trkpt>
      <trkpt lat="38.9820170" lon="-6.3599600">
        <ele>252.8</ele>
        <time>2021-10-18T10:33:55Z</time>
      </trkpt>
      <trkpt lat="38.9818110" lon="-6.3599590">
        <ele>252.4</ele>
        <time>2021-10-18T10:33:59Z</time>
      </trkpt>
      <trkpt lat="38.9815410" lon="-6.3599500">
        <ele>251.8</ele>
        <time>2021-10-18T10:34:04Z</time>
      </trkpt>
      <trkpt lat="38.9815020" lon="-6.3599510">
        <ele>251.8</ele>
        <time>2021-10-18T10:34:05Z</time>
      </trkpt>
      <trkpt lat="38.9810900" lon="-6.3599330">
        <ele>251.4</ele>
        <time>2021-10-18T10:34:14Z</time>
      </trkpt>
      <trkpt lat="38.9808400" lon="-6.3599580">
        <ele>251.4</ele>
        <time>2021-10-18T10:34:20Z</time>
      </trkpt>
      <trkpt lat="38.9807540" lon="-6.3599900">
        <ele>251.4</ele>
        <time>2021-10-18T10:34:22Z</time>
      </trkpt>
      <trkpt lat="38.9807130" lon="-6.3600090">
        <ele>251.4</ele>
        <time>2021-10-18T10:34:23Z</time>
      </trkpt>
      <trkpt lat="38.9805640" lon="-6.3601300">
        <ele>251.4</ele>
        <time>2021-10-18T10:34:27Z</time>
      </trkpt>
      <trkpt lat="38.9804200" lon="-6.3602830">
        <ele>251.4</ele>
        <time>2021-10-18T10:34:31Z</time>
      </trkpt>
      <trkpt lat="38.9802890" lon="-6.3604100">
        <ele>251.2</ele>
        <time>2021-10-18T10:34:34Z</time>
      </trkpt>
      <trkpt lat="38.9801140" lon="-6.3605930">
        <ele>250.8</ele>
        <time>2021-10-18T10:34:38Z</time>
      </trkpt>
      <trkpt lat="38.9800130" lon="-6.3606780">
        <ele>250.6</ele>
        <time>2021-10-18T10:34:40Z</time>
      </trkpt>
      <trkpt lat="38.9799600" lon="-6.3607090">
        <ele>250.4</ele>
        <time>2021-10-18T10:34:41Z</time>
      </trkpt>
      <trkpt lat="38.9799060" lon="-6.3607310">
        <ele>250.2</ele>
        <time>2021-10-18T10:34:42Z</time>
      </trkpt>
      <trkpt lat="38.9796840" lon="-6.3607790">
        <ele>249.6</ele>
        <time>2021-10-18T10:34:46Z</time>
      </trkpt>
      <trkpt lat="38.9794490" lon="-6.3608090">
        <ele>249.2</ele>
        <time>2021-10-18T10:34:51Z</time>
      </trkpt>
      <trkpt lat="38.9792880" lon="-6.3608570">
        <ele>249.2</ele>
        <time>2021-10-18T10:34:55Z</time>
      </trkpt>
      <trkpt lat="38.9792450" lon="-6.3608760">
        <ele>249.2</ele>
        <time>2021-10-18T10:34:56Z</time>
      </trkpt>
      <trkpt lat="38.9789700" lon="-6.3610310">
        <ele>249.2</ele>
        <time>2021-10-18T10:35:02Z</time>
      </trkpt>
      <trkpt lat="38.9787870" lon="-6.3611420">
        <ele>248.8</ele>
        <time>2021-10-18T10:35:06Z</time>
      </trkpt>
      <trkpt lat="38.9785410" lon="-6.3612880">
        <ele>248.0</ele>
        <time>2021-10-18T10:35:11Z</time>
      </trkpt>
      <trkpt lat="38.9783270" lon="-6.3614170">
        <ele>247.6</ele>
        <time>2021-10-18T10:35:15Z</time>
      </trkpt>
      <trkpt lat="38.9780790" lon="-6.3615640">
        <ele>247.2</ele>
        <time>2021-10-18T10:35:20Z</time>
      </trkpt>
      <trkpt lat="38.9778750" lon="-6.3616850">
        <ele>246.8</ele>
        <time>2021-10-18T10:35:24Z</time>
      </trkpt>
      <trkpt lat="38.9777080" lon="-6.3617920">
        <ele>246.4</ele>
        <time>2021-10-18T10:35:29Z</time>
      </trkpt>
      <trkpt lat="38.9776760" lon="-6.3617590">
        <ele>246.2</ele>
        <time>2021-10-18T10:35:31Z</time>
      </trkpt>
      <trkpt lat="38.9776500" lon="-6.3617070">
        <ele>245.8</ele>
        <time>2021-10-18T10:35:33Z</time>
      </trkpt>
      <trkpt lat="38.9775980" lon="-6.3615600">
        <ele>245.4</ele>
        <time>2021-10-18T10:35:38Z</time>
      </trkpt>
      <trkpt lat="38.9775970" lon="-6.3613060">
        <ele>245.4</ele>
        <time>2021-10-18T10:35:46Z</time>
      </trkpt>
      <trkpt lat="38.9776440" lon="-6.3611560">
        <ele>245.2</ele>
        <time>2021-10-18T10:35:52Z</time>
      </trkpt>
      <trkpt lat="38.9776450" lon="-6.3611200">
        <ele>245.2</ele>
        <time>2021-10-18T10:35:53Z</time>
      </trkpt>
      <trkpt lat="38.9776300" lon="-6.3610240">
        <ele>245.2</ele>
        <time>2021-10-18T10:35:56Z</time>
      </trkpt>
      <trkpt lat="38.9776200" lon="-6.3609940">
        <ele>245.2</ele>
        <time>2021-10-18T10:35:57Z</time>
      </trkpt>
      <trkpt lat="38.9775270" lon="-6.3608720">
        <ele>245.0</ele>
        <time>2021-10-18T10:36:02Z</time>
      </trkpt>
      <trkpt lat="38.9775150" lon="-6.3608260">
        <ele>245.0</ele>
        <time>2021-10-18T10:36:03Z</time>
      </trkpt>
      <trkpt lat="38.9775330" lon="-6.3607430">
        <ele>245.0</ele>
        <time>2021-10-18T10:36:05Z</time>
      </trkpt>
      <trkpt lat="38.9775820" lon="-6.3606370">
        <ele>244.8</ele>
        <time>2021-10-18T10:36:08Z</time>
      </trkpt>
      <trkpt lat="38.9775890" lon="-6.3605480">
        <ele>244.6</ele>
        <time>2021-10-18T10:36:10Z</time>
      </trkpt>
      <trkpt lat="38.9775660" lon="-6.3603160">
        <ele>244.4</ele>
        <time>2021-10-18T10:36:16Z</time>
      </trkpt>
      <trkpt lat="38.9775220" lon="-6.3602320">
        <ele>244.2</ele>
        <time>2021-10-18T10:36:20Z</time>
      </trkpt>
      <trkpt lat="38.9775110" lon="-6.3602220">
        <ele>244.2</ele>
        <time>2021-10-18T10:36:23Z</time>
      </trkpt>
      <trkpt lat="38.9775330" lon="-6.3603230">
        <ele>243.6</ele>
        <time>2021-10-18T10:44:27Z</time>
      </trkpt>
      <trkpt lat="38.9775450" lon="-6.3603420">
        <ele>243.6</ele>
        <time>2021-10-18T10:44:28Z</time>
      </trkpt>
      <trkpt lat="38.9775980" lon="-6.3604480">
        <ele>243.6</ele>
        <time>2021-10-18T10:44:33Z</time>
      </trkpt>
      <trkpt lat="38.9775950" lon="-6.3604710">
        <ele>243.6</ele>
        <time>2021-10-18T10:44:34Z</time>
      </trkpt>
      <trkpt lat="38.9775470" lon="-6.3606300">
        <ele>243.6</ele>
        <time>2021-10-18T10:44:40Z</time>
      </trkpt>
      <trkpt lat="38.9774290" lon="-6.3607350">
        <ele>243.4</ele>
        <time>2021-10-18T10:44:45Z</time>
      </trkpt>
      <trkpt lat="38.9773920" lon="-6.3607540">
        <ele>243.4</ele>
        <time>2021-10-18T10:44:46Z</time>
      </trkpt>
      <trkpt lat="38.9773130" lon="-6.3607820">
        <ele>243.2</ele>
        <time>2021-10-18T10:44:48Z</time>
      </trkpt>
      <trkpt lat="38.9772110" lon="-6.3607880">
        <ele>242.8</ele>
        <time>2021-10-18T10:44:51Z</time>
      </trkpt>
      <trkpt lat="38.9770820" lon="-6.3608180">
        <ele>242.8</ele>
        <time>2021-10-18T10:44:56Z</time>
      </trkpt>
      <trkpt lat="38.9769520" lon="-6.3608550">
        <ele>243.6</ele>
        <time>2021-10-18T10:45:02Z</time>
      </trkpt>
      <trkpt lat="38.9768160" lon="-6.3609950">
        <ele>244.2</ele>
        <time>2021-10-18T10:45:08Z</time>
      </trkpt>
      <trkpt lat="38.9768000" lon="-6.3610290">
        <ele>244.2</ele>
        <time>2021-10-18T10:45:09Z</time>
      </trkpt>
      <trkpt lat="38.9767050" lon="-6.3611180">
        <ele>244.2</ele>
        <time>2021-10-18T10:45:13Z</time>
      </trkpt>
      <trkpt lat="38.9765160" lon="-6.3611640">
        <ele>244.2</ele>
        <time>2021-10-18T10:45:19Z</time>
      </trkpt>
      <trkpt lat="38.9764050" lon="-6.3612420">
        <ele>244.0</ele>
        <time>2021-10-18T10:45:24Z</time>
      </trkpt>
      <trkpt lat="38.9764130" lon="-6.3613590">
        <ele>243.8</ele>
        <time>2021-10-18T10:45:27Z</time>
      </trkpt>
      <trkpt lat="38.9764410" lon="-6.3614290">
        <ele>243.8</ele>
        <time>2021-10-18T10:45:29Z</time>
      </trkpt>
      <trkpt lat="38.9765120" lon="-6.3615710">
        <ele>243.8</ele>
        <time>2021-10-18T10:45:33Z</time>
      </trkpt>
      <trkpt lat="38.9765670" lon="-6.3616540">
        <ele>243.8</ele>
        <time>2021-10-18T10:45:36Z</time>
      </trkpt>
      <trkpt lat="38.9765930" lon="-6.3617750">
        <ele>244.0</ele>
        <time>2021-10-18T10:45:41Z</time>
      </trkpt>
      <trkpt lat="38.9765630" lon="-6.3618960">
        <ele>244.2</ele>
        <time>2021-10-18T10:45:45Z</time>
      </trkpt>
      <trkpt lat="38.9765490" lon="-6.3619210">
        <ele>244.2</ele>
        <time>2021-10-18T10:45:46Z</time>
      </trkpt>
      <trkpt lat="38.9764270" lon="-6.3620330">
        <ele>244.2</ele>
        <time>2021-10-18T10:45:51Z</time>
      </trkpt>
      <trkpt lat="38.9763100" lon="-6.3621810">
        <ele>244.0</ele>
        <time>2021-10-18T10:45:57Z</time>
      </trkpt>
      <trkpt lat="38.9762820" lon="-6.3622950">
        <ele>244.0</ele>
        <time>2021-10-18T10:46:00Z</time>
      </trkpt>
      <trkpt lat="38.9762420" lon="-6.3624380">
        <ele>244.2</ele>
        <time>2021-10-18T10:46:04Z</time>
      </trkpt>
      <trkpt lat="38.9762100" lon="-6.3624940">
        <ele>244.2</ele>
        <time>2021-10-18T10:46:06Z</time>
      </trkpt>
      <trkpt lat="38.9761600" lon="-6.3625220">
        <ele>244.2</ele>
        <time>2021-10-18T10:46:08Z</time>
      </trkpt>
      <trkpt lat="38.9760450" lon="-6.3625750">
        <ele>244.2</ele>
        <time>2021-10-18T10:46:12Z</time>
      </trkpt>
      <trkpt lat="38.9759680" lon="-6.3626260">
        <ele>244.4</ele>
        <time>2021-10-18T10:46:15Z</time>
      </trkpt>
      <trkpt lat="38.9758270" lon="-6.3626340">
        <ele>244.4</ele>
        <time>2021-10-18T10:46:20Z</time>
      </trkpt>
      <trkpt lat="38.9756680" lon="-6.3625570">
        <ele>244.2</ele>
        <time>2021-10-18T10:46:25Z</time>
      </trkpt>
      <trkpt lat="38.9756330" lon="-6.3625430">
        <ele>244.2</ele>
        <time>2021-10-18T10:46:26Z</time>
      </trkpt>
      <trkpt lat="38.9754630" lon="-6.3625440">
        <ele>244.0</ele>
        <time>2021-10-18T10:46:31Z</time>
      </trkpt>
      <trkpt lat="38.9754280" lon="-6.3625520">
        <ele>244.0</ele>
        <time>2021-10-18T10:46:32Z</time>
      </trkpt>
      <trkpt lat="38.9753350" lon="-6.3625680">
        <ele>243.8</ele>
        <time>2021-10-18T10:46:35Z</time>
      </trkpt>
      <trkpt lat="38.9752830" lon="-6.3625330">
        <ele>243.8</ele>
        <time>2021-10-18T10:46:37Z</time>
      </trkpt>
      <trkpt lat="38.9751890" lon="-6.3623620">
        <ele>244.2</ele>
        <time>2021-10-18T10:46:43Z</time>
      </trkpt>
      <trkpt lat="38.9751540" lon="-6.3622760">
        <ele>244.6</ele>
        <time>2021-10-18T10:46:46Z</time>
      </trkpt>
      <trkpt lat="38.9751050" lon="-6.3621750">
        <ele>244.8</ele>
        <time>2021-10-18T10:46:51Z</time>
      </trkpt>
      <trkpt lat="38.9750980" lon="-6.3621610">
        <ele>244.8</ele>
        <time>2021-10-18T10:46:55Z</time>
      </trkpt>
      <trkpt lat="38.9751430" lon="-6.3622200">
        <ele>244.8</ele>
        <time>2021-10-18T10:49:13Z</time>
      </trkpt>
      <trkpt lat="38.9751490" lon="-6.3622460">
        <ele>244.8</ele>
        <time>2021-10-18T10:49:14Z</time>
      </trkpt>
      <trkpt lat="38.9751560" lon="-6.3622700">
        <ele>245.0</ele>
        <time>2021-10-18T10:49:15Z</time>
      </trkpt>
      <trkpt lat="38.9752390" lon="-6.3624180">
        <ele>244.8</ele>
        <time>2021-10-18T10:49:21Z</time>
      </trkpt>
      <trkpt lat="38.9752660" lon="-6.3625660">
        <ele>244.6</ele>
        <time>2021-10-18T10:49:26Z</time>
      </trkpt>
      <trkpt lat="38.9752320" lon="-6.3628610">
        <ele>244.2</ele>
        <time>2021-10-18T10:49:34Z</time>
      </trkpt>
      <trkpt lat="38.9752370" lon="-6.3631150">
        <ele>244.0</ele>
        <time>2021-10-18T10:49:41Z</time>
      </trkpt>
      <trkpt lat="38.9752150" lon="-6.3632360">
        <ele>244.0</ele>
        <time>2021-10-18T10:49:45Z</time>
      </trkpt>
      <trkpt lat="38.9751800" lon="-6.3632840">
        <ele>244.2</ele>
        <time>2021-10-18T10:49:47Z</time>
      </trkpt>
      <trkpt lat="38.9749820" lon="-6.3635000">
        <ele>244.4</ele>
        <time>2021-10-18T10:49:56Z</time>
      </trkpt>
      <trkpt lat="38.9748570" lon="-6.3636720">
        <ele>244.0</ele>
        <time>2021-10-18T10:50:00Z</time>
      </trkpt>
      <trkpt lat="38.9748230" lon="-6.3637090">
        <ele>244.0</ele>
        <time>2021-10-18T10:50:01Z</time>
      </trkpt>
      <trkpt lat="38.9747930" lon="-6.3637500">
        <ele>243.8</ele>
        <time>2021-10-18T10:50:02Z</time>
      </trkpt>
      <trkpt lat="38.9746680" lon="-6.3638910">
        <ele>243.6</ele>
        <time>2021-10-18T10:50:07Z</time>
      </trkpt>
      <trkpt lat="38.9746010" lon="-6.3639470">
        <ele>243.6</ele>
        <time>2021-10-18T10:50:10Z</time>
      </trkpt>
      <trkpt lat="38.9745310" lon="-6.3639780">
        <ele>243.8</ele>
        <time>2021-10-18T10:50:13Z</time>
      </trkpt>
      <trkpt lat="38.9744020" lon="-6.3640350">
        <ele>244.2</ele>
        <time>2021-10-18T10:50:18Z</time>
      </trkpt>
      <trkpt lat="38.9742010" lon="-6.3640540">
        <ele>244.4</ele>
        <time>2021-10-18T10:50:25Z</time>
      </trkpt>
      <trkpt lat="38.9741360" lon="-6.3640690">
        <ele>244.6</ele>
        <time>2021-10-18T10:50:27Z</time>
      </trkpt>
      <trkpt lat="38.9740710" lon="-6.3641290">
        <ele>244.8</ele>
        <time>2021-10-18T10:50:30Z</time>
      </trkpt>
      <trkpt lat="38.9740410" lon="-6.3642780">
        <ele>244.8</ele>
        <time>2021-10-18T10:50:34Z</time>
      </trkpt>
      <trkpt lat="38.9740120" lon="-6.3645390">
        <ele>244.6</ele>
        <time>2021-10-18T10:50:40Z</time>
      </trkpt>
      <trkpt lat="38.9740030" lon="-6.3645820">
        <ele>244.6</ele>
        <time>2021-10-18T10:50:41Z</time>
      </trkpt>
      <trkpt lat="38.9739540" lon="-6.3647460">
        <ele>244.4</ele>
        <time>2021-10-18T10:50:45Z</time>
      </trkpt>
      <trkpt lat="38.9739080" lon="-6.3648300">
        <ele>244.4</ele>
        <time>2021-10-18T10:50:47Z</time>
      </trkpt>
      <trkpt lat="38.9738780" lon="-6.3648720">
        <ele>244.2</ele>
        <time>2021-10-18T10:50:48Z</time>
      </trkpt>
      <trkpt lat="38.9738480" lon="-6.3649110">
        <ele>244.2</ele>
        <time>2021-10-18T10:50:49Z</time>
      </trkpt>
      <trkpt lat="38.9737810" lon="-6.3649780">
        <ele>244.0</ele>
        <time>2021-10-18T10:50:51Z</time>
      </trkpt>
      <trkpt lat="38.9737280" lon="-6.3650520">
        <ele>243.8</ele>
        <time>2021-10-18T10:50:53Z</time>
      </trkpt>
      <trkpt lat="38.9736770" lon="-6.3651250">
        <ele>243.6</ele>
        <time>2021-10-18T10:50:55Z</time>
      </trkpt>
      <trkpt lat="38.9735700" lon="-6.3652380">
        <ele>243.4</ele>
        <time>2021-10-18T10:50:59Z</time>
      </trkpt>
      <trkpt lat="38.9734190" lon="-6.3653490">
        <ele>243.4</ele>
        <time>2021-10-18T10:51:05Z</time>
      </trkpt>
      <trkpt lat="38.9732990" lon="-6.3654300">
        <ele>243.4</ele>
        <time>2021-10-18T10:51:09Z</time>
      </trkpt>
      <trkpt lat="38.9732200" lon="-6.3655000">
        <ele>243.6</ele>
        <time>2021-10-18T10:51:12Z</time>
      </trkpt>
      <trkpt lat="38.9731380" lon="-6.3655780">
        <ele>243.6</ele>
        <time>2021-10-18T10:51:15Z</time>
      </trkpt>
      <trkpt lat="38.9730340" lon="-6.3656820">
        <ele>243.8</ele>
        <time>2021-10-18T10:51:19Z</time>
      </trkpt>
      <trkpt lat="38.9728280" lon="-6.3657530">
        <ele>243.8</ele>
        <time>2021-10-18T10:51:25Z</time>
      </trkpt>
      <trkpt lat="38.9725870" lon="-6.3658380">
        <ele>243.8</ele>
        <time>2021-10-18T10:51:32Z</time>
      </trkpt>
      <trkpt lat="38.9725160" lon="-6.3659460">
        <ele>243.8</ele>
        <time>2021-10-18T10:51:35Z</time>
      </trkpt>
      <trkpt lat="38.9724740" lon="-6.3660300">
        <ele>243.8</ele>
        <time>2021-10-18T10:51:37Z</time>
      </trkpt>
      <trkpt lat="38.9724520" lon="-6.3660710">
        <ele>243.8</ele>
        <time>2021-10-18T10:51:38Z</time>
      </trkpt>
      <trkpt lat="38.9722910" lon="-6.3662710">
        <ele>243.8</ele>
        <time>2021-10-18T10:51:44Z</time>
      </trkpt>
      <trkpt lat="38.9721270" lon="-6.3663950">
        <ele>244.0</ele>
        <time>2021-10-18T10:51:50Z</time>
      </trkpt>
      <trkpt lat="38.9720110" lon="-6.3664950">
        <ele>244.4</ele>
        <time>2021-10-18T10:51:55Z</time>
      </trkpt>
      <trkpt lat="38.9719230" lon="-6.3665890">
        <ele>244.8</ele>
        <time>2021-10-18T10:51:59Z</time>
      </trkpt>
      <trkpt lat="38.9718690" lon="-6.3666620">
        <ele>245.2</ele>
        <time>2021-10-18T10:52:02Z</time>
      </trkpt>
      <trkpt lat="38.9717570" lon="-6.3667020">
        <ele>245.6</ele>
        <time>2021-10-18T10:52:07Z</time>
      </trkpt>
      <trkpt lat="38.9715800" lon="-6.3666680">
        <ele>246.0</ele>
        <time>2021-10-18T10:52:14Z</time>
      </trkpt>
      <trkpt lat="38.9713960" lon="-6.3666460">
        <ele>245.6</ele>
        <time>2021-10-18T10:52:19Z</time>
      </trkpt>
      <trkpt lat="38.9711760" lon="-6.3665950">
        <ele>244.8</ele>
        <time>2021-10-18T10:52:25Z</time>
      </trkpt>
      <trkpt lat="38.9710980" lon="-6.3665600">
        <ele>244.4</ele>
        <time>2021-10-18T10:52:29Z</time>
      </trkpt>
      <trkpt lat="38.9710820" lon="-6.3665540">
        <ele>244.2</ele>
        <time>2021-10-18T10:52:33Z</time>
      </trkpt>
      <trkpt lat="38.9710200" lon="-6.3665420">
        <ele>243.8</ele>
        <time>2021-10-18T10:52:56Z</time>
      </trkpt>
      <trkpt lat="38.9709300" lon="-6.3665300">
        <ele>243.8</ele>
        <time>2021-10-18T10:53:00Z</time>
      </trkpt>
      <trkpt lat="38.9709010" lon="-6.3665270">
        <ele>243.8</ele>
        <time>2021-10-18T10:53:01Z</time>
      </trkpt>
      <trkpt lat="38.9707210" lon="-6.3665620">
        <ele>243.6</ele>
        <time>2021-10-18T10:53:07Z</time>
      </trkpt>
      <trkpt lat="38.9705270" lon="-6.3665670">
        <ele>243.4</ele>
        <time>2021-10-18T10:53:13Z</time>
      </trkpt>
      <trkpt lat="38.9704980" lon="-6.3665630">
        <ele>243.4</ele>
        <time>2021-10-18T10:53:14Z</time>
      </trkpt>
      <trkpt lat="38.9702960" lon="-6.3665330">
        <ele>243.0</ele>
        <time>2021-10-18T10:53:21Z</time>
      </trkpt>
      <trkpt lat="38.9701050" lon="-6.3664900">
        <ele>243.0</ele>
        <time>2021-10-18T10:53:28Z</time>
      </trkpt>
      <trkpt lat="38.9700430" lon="-6.3664630">
        <ele>243.2</ele>
        <time>2021-10-18T10:53:31Z</time>
      </trkpt>
      <trkpt lat="38.9699950" lon="-6.3664430">
        <ele>243.2</ele>
        <time>2021-10-18T10:53:34Z</time>
      </trkpt>
      <trkpt lat="38.9699000" lon="-6.3664360">
        <ele>243.6</ele>
        <time>2021-10-18T10:53:39Z</time>
      </trkpt>
      <trkpt lat="38.9698660" lon="-6.3664470">
        <ele>243.6</ele>
        <time>2021-10-18T10:53:41Z</time>
      </trkpt>
      <trkpt lat="38.9698000" lon="-6.3664660">
        <ele>243.8</ele>
        <time>2021-10-18T10:53:44Z</time>
      </trkpt>
      <trkpt lat="38.9697320" lon="-6.3665000">
        <ele>243.8</ele>
        <time>2021-10-18T10:53:47Z</time>
      </trkpt>
      <trkpt lat="38.9695750" lon="-6.3664960">
        <ele>243.8</ele>
        <time>2021-10-18T10:53:53Z</time>
      </trkpt>
      <trkpt lat="38.9694210" lon="-6.3665150">
        <ele>243.8</ele>
        <time>2021-10-18T10:53:59Z</time>
      </trkpt>
      <trkpt lat="38.9694000" lon="-6.3665380">
        <ele>243.8</ele>
        <time>2021-10-18T10:54:00Z</time>
      </trkpt>
      <trkpt lat="38.9693950" lon="-6.3665580">
        <ele>243.8</ele>
        <time>2021-10-18T10:54:03Z</time>
      </trkpt>
      <trkpt lat="38.9693890" lon="-6.3665770">
        <ele>243.8</ele>
        <time>2021-10-18T10:54:04Z</time>
      </trkpt>
      <trkpt lat="38.9693840" lon="-6.3665970">
        <ele>243.6</ele>
        <time>2021-10-18T10:57:10Z</time>
      </trkpt>
      <trkpt lat="38.9693780" lon="-6.3666170">
        <ele>243.6</ele>
        <time>2021-10-18T10:57:11Z</time>
      </trkpt>
      <trkpt lat="38.9693470" lon="-6.3666430">
        <ele>243.6</ele>
        <time>2021-10-18T10:57:12Z</time>
      </trkpt>
      <trkpt lat="38.9691990" lon="-6.3666830">
        <ele>243.2</ele>
        <time>2021-10-18T10:57:15Z</time>
      </trkpt>
      <trkpt lat="38.9691640" lon="-6.3666990">
        <ele>243.0</ele>
        <time>2021-10-18T10:57:16Z</time>
      </trkpt>
      <trkpt lat="38.9690750" lon="-6.3667470">
        <ele>242.4</ele>
        <time>2021-10-18T10:57:18Z</time>
      </trkpt>
      <trkpt lat="38.9689480" lon="-6.3668050">
        <ele>242.4</ele>
        <time>2021-10-18T10:57:22Z</time>
      </trkpt>
      <trkpt lat="38.9687780" lon="-6.3669090">
        <ele>242.6</ele>
        <time>2021-10-18T10:57:28Z</time>
      </trkpt>
      <trkpt lat="38.9687550" lon="-6.3668870">
        <ele>242.8</ele>
        <time>2021-10-18T10:57:29Z</time>
      </trkpt>
      <trkpt lat="38.9687320" lon="-6.3668350">
        <ele>242.8</ele>
        <time>2021-10-18T10:57:31Z</time>
      </trkpt>
      <trkpt lat="38.9687060" lon="-6.3668250">
        <ele>243.0</ele>
        <time>2021-10-18T10:57:32Z</time>
      </trkpt>
      <trkpt lat="38.9685370" lon="-6.3668760">
        <ele>243.6</ele>
        <time>2021-10-18T10:57:38Z</time>
      </trkpt>
      <trkpt lat="38.9683900" lon="-6.3669390">
        <ele>243.8</ele>
        <time>2021-10-18T10:57:43Z</time>
      </trkpt>
      <trkpt lat="38.9683680" lon="-6.3669510">
        <ele>244.0</ele>
        <time>2021-10-18T10:57:44Z</time>
      </trkpt>
      <trkpt lat="38.9682810" lon="-6.3669790">
        <ele>244.2</ele>
        <time>2021-10-18T10:57:47Z</time>
      </trkpt>
      <trkpt lat="38.9681680" lon="-6.3670270">
        <ele>244.4</ele>
        <time>2021-10-18T10:57:51Z</time>
      </trkpt>
      <trkpt lat="38.9681090" lon="-6.3670610">
        <ele>244.4</ele>
        <time>2021-10-18T10:57:53Z</time>
      </trkpt>
      <trkpt lat="38.9679190" lon="-6.3670950">
        <ele>244.4</ele>
        <time>2021-10-18T10:58:00Z</time>
      </trkpt>
      <trkpt lat="38.9678250" lon="-6.3670660">
        <ele>244.4</ele>
        <time>2021-10-18T10:58:04Z</time>
      </trkpt>
      <trkpt lat="38.9678090" lon="-6.3670310">
        <ele>244.6</ele>
        <time>2021-10-18T10:58:05Z</time>
      </trkpt>
      <trkpt lat="38.9677580" lon="-6.3669000">
        <ele>244.6</ele>
        <time>2021-10-18T10:58:09Z</time>
      </trkpt>
      <trkpt lat="38.9676960" lon="-6.3668050">
        <ele>244.8</ele>
        <time>2021-10-18T10:58:12Z</time>
      </trkpt>
      <trkpt lat="38.9676760" lon="-6.3667860">
        <ele>244.8</ele>
        <time>2021-10-18T10:58:13Z</time>
      </trkpt>
      <trkpt lat="38.9675440" lon="-6.3667140">
        <ele>245.0</ele>
        <time>2021-10-18T10:58:17Z</time>
      </trkpt>
      <trkpt lat="38.9674050" lon="-6.3666110">
        <ele>245.0</ele>
        <time>2021-10-18T10:58:20Z</time>
      </trkpt>
      <trkpt lat="38.9673420" lon="-6.3665440">
        <ele>245.0</ele>
        <time>2021-10-18T10:58:22Z</time>
      </trkpt>
      <trkpt lat="38.9673100" lon="-6.3665050">
        <ele>244.6</ele>
        <time>2021-10-18T10:58:23Z</time>
      </trkpt>
      <trkpt lat="38.9672600" lon="-6.3664060">
        <ele>244.4</ele>
        <time>2021-10-18T10:58:25Z</time>
      </trkpt>
      <trkpt lat="38.9672550" lon="-6.3663660">
        <ele>244.2</ele>
        <time>2021-10-18T10:58:26Z</time>
      </trkpt>
      <trkpt lat="38.9672580" lon="-6.3663150">
        <ele>244.2</ele>
        <time>2021-10-18T10:58:27Z</time>
      </trkpt>
      <trkpt lat="38.9672740" lon="-6.3661790">
        <ele>244.0</ele>
        <time>2021-10-18T10:58:30Z</time>
      </trkpt>
      <trkpt lat="38.9672590" lon="-6.3661110">
        <ele>244.2</ele>
        <time>2021-10-18T10:58:32Z</time>
      </trkpt>
      <trkpt lat="38.9672320" lon="-6.3660910">
        <ele>244.2</ele>
        <time>2021-10-18T10:58:34Z</time>
      </trkpt>
      <trkpt lat="38.9672260" lon="-6.3660880">
        <ele>244.4</ele>
        <time>2021-10-18T10:58:37Z</time>
      </trkpt>
      <trkpt lat="38.9671890" lon="-6.3660770">
        <ele>244.6</ele>
        <time>2021-10-18T10:58:53Z</time>
      </trkpt>
      <trkpt lat="38.9670960" lon="-6.3660410">
        <ele>244.6</ele>
        <time>2021-10-18T10:58:58Z</time>
      </trkpt>
      <trkpt lat="38.9669550" lon="-6.3660390">
        <ele>244.4</ele>
        <time>2021-10-18T10:59:03Z</time>
      </trkpt>
      <trkpt lat="38.9667770" lon="-6.3660180">
        <ele>244.0</ele>
        <time>2021-10-18T10:59:08Z</time>
      </trkpt>
      <trkpt lat="38.9666880" lon="-6.3659660">
        <ele>243.8</ele>
        <time>2021-10-18T10:59:10Z</time>
      </trkpt>
      <trkpt lat="38.9665730" lon="-6.3658810">
        <ele>243.4</ele>
        <time>2021-10-18T10:59:13Z</time>
      </trkpt>
      <trkpt lat="38.9664940" lon="-6.3658070">
        <ele>243.2</ele>
        <time>2021-10-18T10:59:15Z</time>
      </trkpt>
      <trkpt lat="38.9663630" lon="-6.3656860">
        <ele>242.8</ele>
        <time>2021-10-18T10:59:18Z</time>
      </trkpt>
      <trkpt lat="38.9660980" lon="-6.3655080">
        <ele>242.2</ele>
        <time>2021-10-18T10:59:24Z</time>
      </trkpt>
      <trkpt lat="38.9660570" lon="-6.3654900">
        <ele>242.2</ele>
        <time>2021-10-18T10:59:25Z</time>
      </trkpt>
      <trkpt lat="38.9660140" lon="-6.3654700">
        <ele>242.0</ele>
        <time>2021-10-18T10:59:26Z</time>
      </trkpt>
      <trkpt lat="38.9657210" lon="-6.3653380">
        <ele>241.8</ele>
        <time>2021-10-18T10:59:33Z</time>
      </trkpt>
      <trkpt lat="38.9655270" lon="-6.3652520">
        <ele>241.8</ele>
        <time>2021-10-18T10:59:38Z</time>
      </trkpt>
      <trkpt lat="38.9654530" lon="-6.3652220">
        <ele>242.0</ele>
        <time>2021-10-18T10:59:40Z</time>
      </trkpt>
      <trkpt lat="38.9652970" lon="-6.3651560">
        <ele>242.2</ele>
        <time>2021-10-18T10:59:45Z</time>
      </trkpt>
      <trkpt lat="38.9650510" lon="-6.3650530">
        <ele>242.0</ele>
        <time>2021-10-18T10:59:51Z</time>
      </trkpt>
      <trkpt lat="38.9647540" lon="-6.3649210">
        <ele>241.6</ele>
        <time>2021-10-18T10:59:56Z</time>
      </trkpt>
      <trkpt lat="38.9646770" lon="-6.3648870">
        <ele>240.8</ele>
        <time>2021-10-18T10:59:57Z</time>
      </trkpt>
      <trkpt lat="38.9646190" lon="-6.3648620">
        <ele>240.6</ele>
        <time>2021-10-18T10:59:58Z</time>
      </trkpt>
      <trkpt lat="38.9644830" lon="-6.3648010">
        <ele>239.4</ele>
        <time>2021-10-18T11:00:01Z</time>
      </trkpt>
      <trkpt lat="38.9644430" lon="-6.3647810">
        <ele>239.0</ele>
        <time>2021-10-18T11:00:02Z</time>
      </trkpt>
      <trkpt lat="38.9643090" lon="-6.3647090">
        <ele>238.6</ele>
        <time>2021-10-18T11:00:06Z</time>
      </trkpt>
      <trkpt lat="38.9642480" lon="-6.3646570">
        <ele>238.6</ele>
        <time>2021-10-18T11:00:08Z</time>
      </trkpt>
      <trkpt lat="38.9641400" lon="-6.3644860">
        <ele>238.8</ele>
        <time>2021-10-18T11:00:14Z</time>
      </trkpt>
      <trkpt lat="38.9640180" lon="-6.3643660">
        <ele>239.0</ele>
        <time>2021-10-18T11:00:19Z</time>
      </trkpt>
      <trkpt lat="38.9638280" lon="-6.3643400">
        <ele>239.2</ele>
        <time>2021-10-18T11:00:24Z</time>
      </trkpt>
      <trkpt lat="38.9635810" lon="-6.3643730">
        <ele>239.4</ele>
        <time>2021-10-18T11:00:30Z</time>
      </trkpt>
      <trkpt lat="38.9635360" lon="-6.3643580">
        <ele>239.4</ele>
        <time>2021-10-18T11:00:31Z</time>
      </trkpt>
      <trkpt lat="38.9632020" lon="-6.3642050">
        <ele>239.6</ele>
        <time>2021-10-18T11:00:40Z</time>
      </trkpt>
      <trkpt lat="38.9629930" lon="-6.3641140">
        <ele>240.4</ele>
        <time>2021-10-18T11:00:46Z</time>
      </trkpt>
      <trkpt lat="38.9628750" lon="-6.3640580">
        <ele>241.0</ele>
        <time>2021-10-18T11:00:50Z</time>
      </trkpt>
      <trkpt lat="38.9627960" lon="-6.3640250">
        <ele>241.4</ele>
        <time>2021-10-18T11:00:53Z</time>
      </trkpt>
      <trkpt lat="38.9626650" lon="-6.3639690">
        <ele>242.0</ele>
        <time>2021-10-18T11:00:58Z</time>
      </trkpt>
      <trkpt lat="38.9625490" lon="-6.3639190">
        <ele>242.6</ele>
        <time>2021-10-18T11:01:03Z</time>
      </trkpt>
      <trkpt lat="38.9624330" lon="-6.3638590">
        <ele>243.2</ele>
        <time>2021-10-18T11:01:08Z</time>
      </trkpt>
      <trkpt lat="38.9623960" lon="-6.3638450">
        <ele>243.6</ele>
        <time>2021-10-18T11:01:10Z</time>
      </trkpt>
      <trkpt lat="38.9622460" lon="-6.3637800">
        <ele>244.8</ele>
        <time>2021-10-18T11:01:17Z</time>
      </trkpt>
      <trkpt lat="38.9622300" lon="-6.3637720">
        <ele>245.0</ele>
        <time>2021-10-18T11:01:18Z</time>
      </trkpt>
      <trkpt lat="38.9621200" lon="-6.3637170">
        <ele>245.6</ele>
        <time>2021-10-18T11:01:23Z</time>
      </trkpt>
      <trkpt lat="38.9621020" lon="-6.3637100">
        <ele>245.8</ele>
        <time>2021-10-18T11:01:24Z</time>
      </trkpt>
      <trkpt lat="38.9620200" lon="-6.3636790">
        <ele>246.2</ele>
        <time>2021-10-18T11:01:28Z</time>
      </trkpt>
      <trkpt lat="38.9619560" lon="-6.3636480">
        <ele>246.8</ele>
        <time>2021-10-18T11:01:31Z</time>
      </trkpt>
      <trkpt lat="38.9619390" lon="-6.3636400">
        <ele>247.0</ele>
        <time>2021-10-18T11:01:32Z</time>
      </trkpt>
      <trkpt lat="38.9618330" lon="-6.3635860">
        <ele>247.6</ele>
        <time>2021-10-18T11:01:37Z</time>
      </trkpt>
      <trkpt lat="38.9617320" lon="-6.3635450">
        <ele>248.0</ele>
        <time>2021-10-18T11:01:42Z</time>
      </trkpt>
      <trkpt lat="38.9616890" lon="-6.3635270">
        <ele>248.2</ele>
        <time>2021-10-18T11:01:44Z</time>
      </trkpt>
      <trkpt lat="38.9616050" lon="-6.3634870">
        <ele>248.4</ele>
        <time>2021-10-18T11:01:48Z</time>
      </trkpt>
      <trkpt lat="38.9614900" lon="-6.3634400">
        <ele>249.0</ele>
        <time>2021-10-18T11:01:53Z</time>
      </trkpt>
      <trkpt lat="38.9614630" lon="-6.3634300">
        <ele>249.0</ele>
        <time>2021-10-18T11:01:54Z</time>
      </trkpt>
      <trkpt lat="38.9613770" lon="-6.3634010">
        <ele>249.2</ele>
        <time>2021-10-18T11:01:58Z</time>
      </trkpt>
      <trkpt lat="38.9612060" lon="-6.3633240">
        <ele>249.6</ele>
        <time>2021-10-18T11:02:05Z</time>
      </trkpt>
      <trkpt lat="38.9610820" lon="-6.3632730">
        <ele>249.8</ele>
        <time>2021-10-18T11:02:10Z</time>
      </trkpt>
      <trkpt lat="38.9610020" lon="-6.3632340">
        <ele>250.0</ele>
        <time>2021-10-18T11:02:13Z</time>
      </trkpt>
      <trkpt lat="38.9609820" lon="-6.3632220">
        <ele>250.0</ele>
        <time>2021-10-18T11:02:14Z</time>
      </trkpt>
      <trkpt lat="38.9609340" lon="-6.3631990">
        <ele>250.2</ele>
        <time>2021-10-18T11:02:16Z</time>
      </trkpt>
      <trkpt lat="38.9608380" lon="-6.3631570">
        <ele>250.6</ele>
        <time>2021-10-18T11:02:20Z</time>
      </trkpt>
      <trkpt lat="38.9607640" lon="-6.3631210">
        <ele>250.8</ele>
        <time>2021-10-18T11:02:23Z</time>
      </trkpt>
      <trkpt lat="38.9607230" lon="-6.3631020">
        <ele>251.0</ele>
        <time>2021-10-18T11:02:25Z</time>
      </trkpt>
      <trkpt lat="38.9606990" lon="-6.3630900">
        <ele>251.4</ele>
        <time>2021-10-18T11:02:26Z</time>
      </trkpt>
      <trkpt lat="38.9605160" lon="-6.3630020">
        <ele>252.0</ele>
        <time>2021-10-18T11:02:34Z</time>
      </trkpt>
      <trkpt lat="38.9603790" lon="-6.3629370">
        <ele>252.2</ele>
        <time>2021-10-18T11:02:40Z</time>
      </trkpt>
      <trkpt lat="38.9603150" lon="-6.3628940">
        <ele>252.6</ele>
        <time>2021-10-18T11:02:43Z</time>
      </trkpt>
      <trkpt lat="38.9601650" lon="-6.3627810">
        <ele>253.0</ele>
        <time>2021-10-18T11:02:50Z</time>
      </trkpt>
      <trkpt lat="38.9600820" lon="-6.3627170">
        <ele>253.2</ele>
        <time>2021-10-18T11:02:54Z</time>
      </trkpt>
      <trkpt lat="38.9600360" lon="-6.3626690">
        <ele>253.4</ele>
        <time>2021-10-18T11:02:57Z</time>
      </trkpt>
      <trkpt lat="38.9600170" lon="-6.3626510">
        <ele>253.6</ele>
        <time>2021-10-18T11:02:58Z</time>
      </trkpt>
      <trkpt lat="38.9599030" lon="-6.3625140">
        <ele>254.2</ele>
        <time>2021-10-18T11:03:05Z</time>
      </trkpt>
      <trkpt lat="38.9598640" lon="-6.3624510">
        <ele>254.6</ele>
        <time>2021-10-18T11:03:08Z</time>
      </trkpt>
      <trkpt lat="38.9598040" lon="-6.3623640">
        <ele>255.0</ele>
        <time>2021-10-18T11:03:12Z</time>
      </trkpt>
      <trkpt lat="38.9597730" lon="-6.3623140">
        <ele>255.4</ele>
        <time>2021-10-18T11:03:14Z</time>
      </trkpt>
      <trkpt lat="38.9596980" lon="-6.3622080">
        <ele>256.0</ele>
        <time>2021-10-18T11:03:19Z</time>
      </trkpt>
      <trkpt lat="38.9596580" lon="-6.3621470">
        <ele>256.4</ele>
        <time>2021-10-18T11:03:22Z</time>
      </trkpt>
      <trkpt lat="38.9595870" lon="-6.3620120">
        <ele>256.8</ele>
        <time>2021-10-18T11:03:27Z</time>
      </trkpt>
      <trkpt lat="38.9595180" lon="-6.3618980">
        <ele>257.4</ele>
        <time>2021-10-18T11:03:32Z</time>
      </trkpt>
      <trkpt lat="38.9594140" lon="-6.3617130">
        <ele>258.2</ele>
        <time>2021-10-18T11:03:40Z</time>
      </trkpt>
      <trkpt lat="38.9593860" lon="-6.3616600">
        <ele>258.6</ele>
        <time>2021-10-18T11:03:42Z</time>
      </trkpt>
      <trkpt lat="38.9593230" lon="-6.3615490">
        <ele>259.2</ele>
        <time>2021-10-18T11:03:47Z</time>
      </trkpt>
      <trkpt lat="38.9592550" lon="-6.3614350">
        <ele>259.6</ele>
        <time>2021-10-18T11:03:52Z</time>
      </trkpt>
      <trkpt lat="38.9591950" lon="-6.3613420">
        <ele>260.0</ele>
        <time>2021-10-18T11:03:56Z</time>
      </trkpt>
      <trkpt lat="38.9591400" lon="-6.3612500">
        <ele>260.6</ele>
        <time>2021-10-18T11:04:00Z</time>
      </trkpt>
      <trkpt lat="38.9590750" lon="-6.3611270">
        <ele>261.2</ele>
        <time>2021-10-18T11:04:05Z</time>
      </trkpt>
      <trkpt lat="38.9590370" lon="-6.3610600">
        <ele>261.6</ele>
        <time>2021-10-18T11:04:08Z</time>
      </trkpt>
      <trkpt lat="38.9589290" lon="-6.3608780">
        <ele>262.6</ele>
        <time>2021-10-18T11:04:16Z</time>
      </trkpt>
      <trkpt lat="38.9589190" lon="-6.3608590">
        <ele>262.6</ele>
        <time>2021-10-18T11:04:17Z</time>
      </trkpt>
      <trkpt lat="38.9588870" lon="-6.3608130">
        <ele>263.0</ele>
        <time>2021-10-18T11:04:19Z</time>
      </trkpt>
      <trkpt lat="38.9588610" lon="-6.3607780">
        <ele>263.0</ele>
        <time>2021-10-18T11:04:21Z</time>
      </trkpt>
      <trkpt lat="38.9588350" lon="-6.3607420">
        <ele>263.4</ele>
        <time>2021-10-18T11:04:23Z</time>
      </trkpt>
      <trkpt lat="38.9588220" lon="-6.3607180">
        <ele>263.6</ele>
        <time>2021-10-18T11:04:24Z</time>
      </trkpt>
      <trkpt lat="38.9587980" lon="-6.3606750">
        <ele>263.8</ele>
        <time>2021-10-18T11:04:26Z</time>
      </trkpt>
      <trkpt lat="38.9587320" lon="-6.3605640">
        <ele>264.2</ele>
        <time>2021-10-18T11:04:31Z</time>
      </trkpt>
      <trkpt lat="38.9586720" lon="-6.3604590">
        <ele>264.8</ele>
        <time>2021-10-18T11:04:36Z</time>
      </trkpt>
      <trkpt lat="38.9586170" lon="-6.3603710">
        <ele>265.4</ele>
        <time>2021-10-18T11:04:40Z</time>
      </trkpt>
      <trkpt lat="38.9585720" lon="-6.3602900">
        <ele>266.0</ele>
        <time>2021-10-18T11:04:44Z</time>
      </trkpt>
      <trkpt lat="38.9585210" lon="-6.3601960">
        <ele>266.6</ele>
        <time>2021-10-18T11:04:49Z</time>
      </trkpt>
      <trkpt lat="38.9584840" lon="-6.3601410">
        <ele>267.2</ele>
        <time>2021-10-18T11:04:52Z</time>
      </trkpt>
      <trkpt lat="38.9584320" lon="-6.3600450">
        <ele>267.8</ele>
        <time>2021-10-18T11:04:57Z</time>
      </trkpt>
      <trkpt lat="38.9584000" lon="-6.3599940">
        <ele>268.2</ele>
        <time>2021-10-18T11:05:00Z</time>
      </trkpt>
      <trkpt lat="38.9583250" lon="-6.3598650">
        <ele>269.2</ele>
        <time>2021-10-18T11:05:07Z</time>
      </trkpt>
      <trkpt lat="38.9582380" lon="-6.3597310">
        <ele>270.4</ele>
        <time>2021-10-18T11:05:14Z</time>
      </trkpt>
      <trkpt lat="38.9582250" lon="-6.3597130">
        <ele>270.4</ele>
        <time>2021-10-18T11:05:15Z</time>
      </trkpt>
      <trkpt lat="38.9581810" lon="-6.3596360">
        <ele>271.0</ele>
        <time>2021-10-18T11:05:19Z</time>
      </trkpt>
      <trkpt lat="38.9581470" lon="-6.3595740">
        <ele>271.4</ele>
        <time>2021-10-18T11:05:22Z</time>
      </trkpt>
      <trkpt lat="38.9581220" lon="-6.3595440">
        <ele>271.6</ele>
        <time>2021-10-18T11:05:24Z</time>
      </trkpt>
      <trkpt lat="38.9580880" lon="-6.3594920">
        <ele>272.0</ele>
        <time>2021-10-18T11:05:27Z</time>
      </trkpt>
      <trkpt lat="38.9580430" lon="-6.3594100">
        <ele>272.4</ele>
        <time>2021-10-18T11:05:31Z</time>
      </trkpt>
      <trkpt lat="38.9580140" lon="-6.3593590">
        <ele>272.8</ele>
        <time>2021-10-18T11:05:34Z</time>
      </trkpt>
      <trkpt lat="38.9579750" lon="-6.3592930">
        <ele>273.0</ele>
        <time>2021-10-18T11:05:38Z</time>
      </trkpt>
      <trkpt lat="38.9579500" lon="-6.3592450">
        <ele>273.4</ele>
        <time>2021-10-18T11:05:41Z</time>
      </trkpt>
      <trkpt lat="38.9579380" lon="-6.3592280">
        <ele>273.6</ele>
        <time>2021-10-18T11:05:42Z</time>
      </trkpt>
      <trkpt lat="38.9579250" lon="-6.3592050">
        <ele>273.6</ele>
        <time>2021-10-18T11:05:43Z</time>
      </trkpt>
      <trkpt lat="38.9579140" lon="-6.3591870">
        <ele>273.6</ele>
        <time>2021-10-18T11:05:44Z</time>
      </trkpt>
      <trkpt lat="38.9578830" lon="-6.3591410">
        <ele>274.2</ele>
        <time>2021-10-18T11:05:47Z</time>
      </trkpt>
      <trkpt lat="38.9578740" lon="-6.3591200">
        <ele>274.2</ele>
        <time>2021-10-18T11:05:48Z</time>
      </trkpt>
      <trkpt lat="38.9578620" lon="-6.3590970">
        <ele>274.4</ele>
        <time>2021-10-18T11:05:49Z</time>
      </trkpt>
      <trkpt lat="38.9578320" lon="-6.3590480">
        <ele>274.6</ele>
        <time>2021-10-18T11:05:52Z</time>
      </trkpt>
      <trkpt lat="38.9577970" lon="-6.3589920">
        <ele>275.0</ele>
        <time>2021-10-18T11:05:55Z</time>
      </trkpt>
      <trkpt lat="38.9577640" lon="-6.3589360">
        <ele>275.4</ele>
        <time>2021-10-18T11:05:58Z</time>
      </trkpt>
      <trkpt lat="38.9577530" lon="-6.3589180">
        <ele>275.4</ele>
        <time>2021-10-18T11:05:59Z</time>
      </trkpt>
      <trkpt lat="38.9577310" lon="-6.3588900">
        <ele>275.8</ele>
        <time>2021-10-18T11:06:01Z</time>
      </trkpt>
      <trkpt lat="38.9576730" lon="-6.3587800">
        <ele>276.2</ele>
        <time>2021-10-18T11:06:07Z</time>
      </trkpt>
      <trkpt lat="38.9576180" lon="-6.3586860">
        <ele>276.8</ele>
        <time>2021-10-18T11:06:12Z</time>
      </trkpt>
      <trkpt lat="38.9575870" lon="-6.3586300">
        <ele>277.2</ele>
        <time>2021-10-18T11:06:15Z</time>
      </trkpt>
      <trkpt lat="38.9575760" lon="-6.3586130">
        <ele>277.2</ele>
        <time>2021-10-18T11:06:16Z</time>
      </trkpt>
      <trkpt lat="38.9575500" lon="-6.3585710">
        <ele>277.4</ele>
        <time>2021-10-18T11:06:18Z</time>
      </trkpt>
      <trkpt lat="38.9575050" lon="-6.3584960">
        <ele>277.8</ele>
        <time>2021-10-18T11:06:22Z</time>
      </trkpt>
      <trkpt lat="38.9574890" lon="-6.3584660">
        <ele>277.8</ele>
        <time>2021-10-18T11:06:24Z</time>
      </trkpt>
      <trkpt lat="38.9574640" lon="-6.3584260">
        <ele>278.2</ele>
        <time>2021-10-18T11:06:26Z</time>
      </trkpt>
      <trkpt lat="38.9573890" lon="-6.3582930">
        <ele>278.6</ele>
        <time>2021-10-18T11:06:33Z</time>
      </trkpt>
      <trkpt lat="38.9572690" lon="-6.3581070">
        <ele>279.4</ele>
        <time>2021-10-18T11:06:42Z</time>
      </trkpt>
      <trkpt lat="38.9572570" lon="-6.3580880">
        <ele>279.6</ele>
        <time>2021-10-18T11:06:43Z</time>
      </trkpt>
      <trkpt lat="38.9571430" lon="-6.3579440">
        <ele>280.2</ele>
        <time>2021-10-18T11:06:50Z</time>
      </trkpt>
      <trkpt lat="38.9571070" lon="-6.3579020">
        <ele>280.4</ele>
        <time>2021-10-18T11:06:52Z</time>
      </trkpt>
      <trkpt lat="38.9570320" lon="-6.3578170">
        <ele>280.6</ele>
        <time>2021-10-18T11:06:56Z</time>
      </trkpt>
      <trkpt lat="38.9569870" lon="-6.3577750">
        <ele>280.8</ele>
        <time>2021-10-18T11:06:58Z</time>
      </trkpt>
      <trkpt lat="38.9568850" lon="-6.3576900">
        <ele>281.0</ele>
        <time>2021-10-18T11:07:03Z</time>
      </trkpt>
      <trkpt lat="38.9568230" lon="-6.3576390">
        <ele>281.2</ele>
        <time>2021-10-18T11:07:06Z</time>
      </trkpt>
      <trkpt lat="38.9566670" lon="-6.3575410">
        <ele>281.8</ele>
        <time>2021-10-18T11:07:13Z</time>
      </trkpt>
      <trkpt lat="38.9566490" lon="-6.3575300">
        <ele>282.0</ele>
        <time>2021-10-18T11:07:14Z</time>
      </trkpt>
      <trkpt lat="38.9564640" lon="-6.3574430">
        <ele>283.0</ele>
        <time>2021-10-18T11:07:22Z</time>
      </trkpt>
      <trkpt lat="38.9563790" lon="-6.3574120">
        <ele>283.2</ele>
        <time>2021-10-18T11:07:26Z</time>
      </trkpt>
      <trkpt lat="38.9563330" lon="-6.3574020">
        <ele>283.4</ele>
        <time>2021-10-18T11:07:28Z</time>
      </trkpt>
      <trkpt lat="38.9562850" lon="-6.3573920">
        <ele>283.6</ele>
        <time>2021-10-18T11:07:30Z</time>
      </trkpt>
      <trkpt lat="38.9562260" lon="-6.3573810">
        <ele>284.0</ele>
        <time>2021-10-18T11:07:33Z</time>
      </trkpt>
      <trkpt lat="38.9561230" lon="-6.3573540">
        <ele>284.6</ele>
        <time>2021-10-18T11:07:38Z</time>
      </trkpt>
      <trkpt lat="38.9560290" lon="-6.3573310">
        <ele>285.0</ele>
        <time>2021-10-18T11:07:43Z</time>
      </trkpt>
      <trkpt lat="38.9559670" lon="-6.3573180">
        <ele>285.6</ele>
        <time>2021-10-18T11:07:46Z</time>
      </trkpt>
      <trkpt lat="38.9558820" lon="-6.3573030">
        <ele>286.0</ele>
        <time>2021-10-18T11:07:51Z</time>
      </trkpt>
      <trkpt lat="38.9558640" lon="-6.3573020">
        <ele>286.2</ele>
        <time>2021-10-18T11:07:52Z</time>
      </trkpt>
      <trkpt lat="38.9558450" lon="-6.3572990">
        <ele>286.4</ele>
        <time>2021-10-18T11:07:53Z</time>
      </trkpt>
      <trkpt lat="38.9557290" lon="-6.3572750">
        <ele>287.4</ele>
        <time>2021-10-18T11:07:59Z</time>
      </trkpt>
      <trkpt lat="38.9556440" lon="-6.3572560">
        <ele>288.4</ele>
        <time>2021-10-18T11:08:04Z</time>
      </trkpt>
      <trkpt lat="38.9556270" lon="-6.3572510">
        <ele>288.4</ele>
        <time>2021-10-18T11:08:05Z</time>
      </trkpt>
      <trkpt lat="38.9555780" lon="-6.3572380">
        <ele>288.8</ele>
        <time>2021-10-18T11:08:08Z</time>
      </trkpt>
      <trkpt lat="38.9555090" lon="-6.3572300">
        <ele>289.2</ele>
        <time>2021-10-18T11:08:12Z</time>
      </trkpt>
      <trkpt lat="38.9554740" lon="-6.3572250">
        <ele>289.4</ele>
        <time>2021-10-18T11:08:14Z</time>
      </trkpt>
      <trkpt lat="38.9553630" lon="-6.3571980">
        <ele>290.6</ele>
        <time>2021-10-18T11:08:21Z</time>
      </trkpt>
      <trkpt lat="38.9553270" lon="-6.3571890">
        <ele>290.6</ele>
        <time>2021-10-18T11:08:23Z</time>
      </trkpt>
      <trkpt lat="38.9552020" lon="-6.3571650">
        <ele>291.6</ele>
        <time>2021-10-18T11:08:30Z</time>
      </trkpt>
      <trkpt lat="38.9551850" lon="-6.3571600">
        <ele>291.6</ele>
        <time>2021-10-18T11:08:31Z</time>
      </trkpt>
      <trkpt lat="38.9551300" lon="-6.3571520">
        <ele>292.2</ele>
        <time>2021-10-18T11:08:34Z</time>
      </trkpt>
      <trkpt lat="38.9550710" lon="-6.3571370">
        <ele>292.6</ele>
        <time>2021-10-18T11:08:37Z</time>
      </trkpt>
      <trkpt lat="38.9550200" lon="-6.3571290">
        <ele>292.8</ele>
        <time>2021-10-18T11:08:40Z</time>
      </trkpt>
      <trkpt lat="38.9549790" lon="-6.3571210">
        <ele>293.2</ele>
        <time>2021-10-18T11:08:42Z</time>
      </trkpt>
      <trkpt lat="38.9549480" lon="-6.3571140">
        <ele>293.4</ele>
        <time>2021-10-18T11:08:44Z</time>
      </trkpt>
      <trkpt lat="38.9549080" lon="-6.3571080">
        <ele>293.6</ele>
        <time>2021-10-18T11:08:46Z</time>
      </trkpt>
      <trkpt lat="38.9548590" lon="-6.3570990">
        <ele>293.8</ele>
        <time>2021-10-18T11:08:49Z</time>
      </trkpt>
      <trkpt lat="38.9548360" lon="-6.3570920">
        <ele>294.0</ele>
        <time>2021-10-18T11:08:50Z</time>
      </trkpt>
      <trkpt lat="38.9547270" lon="-6.3570320">
        <ele>294.6</ele>
        <time>2021-10-18T11:08:56Z</time>
      </trkpt>
      <trkpt lat="38.9547140" lon="-6.3570160">
        <ele>294.6</ele>
        <time>2021-10-18T11:08:57Z</time>
      </trkpt>
      <trkpt lat="38.9546490" lon="-6.3569350">
        <ele>295.2</ele>
        <time>2021-10-18T11:09:02Z</time>
      </trkpt>
      <trkpt lat="38.9546300" lon="-6.3568630">
        <ele>295.6</ele>
        <time>2021-10-18T11:09:05Z</time>
      </trkpt>
      <trkpt lat="38.9545920" lon="-6.3567530">
        <ele>295.8</ele>
        <time>2021-10-18T11:09:09Z</time>
      </trkpt>
      <trkpt lat="38.9545370" lon="-6.3567000">
        <ele>296.0</ele>
        <time>2021-10-18T11:09:12Z</time>
      </trkpt>
      <trkpt lat="38.9544500" lon="-6.3566670">
        <ele>296.0</ele>
        <time>2021-10-18T11:09:15Z</time>
      </trkpt>
      <trkpt lat="38.9542840" lon="-6.3566380">
        <ele>295.6</ele>
        <time>2021-10-18T11:09:21Z</time>
      </trkpt>
      <trkpt lat="38.9542340" lon="-6.3566450">
        <ele>295.6</ele>
        <time>2021-10-18T11:09:23Z</time>
      </trkpt>
      <trkpt lat="38.9541530" lon="-6.3566820">
        <ele>295.4</ele>
        <time>2021-10-18T11:09:27Z</time>
      </trkpt>
      <trkpt lat="38.9541400" lon="-6.3566940">
        <ele>295.2</ele>
        <time>2021-10-18T11:09:28Z</time>
      </trkpt>
      <trkpt lat="38.9540800" lon="-6.3567540">
        <ele>294.6</ele>
        <time>2021-10-18T11:09:33Z</time>
      </trkpt>
      <trkpt lat="38.9540800" lon="-6.3567540">
        <ele>294.6</ele>
        <time>2021-10-18T11:09:34Z</time>
      </trkpt>
      <trkpt lat="38.9540800" lon="-6.3567540">
        <ele>294.4</ele>
        <time>2021-10-18T11:09:35Z</time>
      </trkpt>
      <trkpt lat="38.9540560" lon="-6.3567650">
        <ele>294.0</ele>
        <time>2021-10-18T11:10:30Z</time>
      </trkpt>
      <trkpt lat="38.9540300" lon="-6.3567820">
        <ele>294.0</ele>
        <time>2021-10-18T11:10:31Z</time>
      </trkpt>
      <trkpt lat="38.9539980" lon="-6.3568020">
        <ele>294.0</ele>
        <time>2021-10-18T11:10:32Z</time>
      </trkpt>
      <trkpt lat="38.9538560" lon="-6.3568470">
        <ele>293.8</ele>
        <time>2021-10-18T11:10:35Z</time>
      </trkpt>
      <trkpt lat="38.9538140" lon="-6.3568520">
        <ele>293.8</ele>
        <time>2021-10-18T11:10:36Z</time>
      </trkpt>
      <trkpt lat="38.9537600" lon="-6.3568520">
        <ele>293.6</ele>
        <time>2021-10-18T11:10:37Z</time>
      </trkpt>
      <trkpt lat="38.9535940" lon="-6.3568060">
        <ele>292.8</ele>
        <time>2021-10-18T11:10:40Z</time>
      </trkpt>
      <trkpt lat="38.9534200" lon="-6.3567400">
        <ele>292.4</ele>
        <time>2021-10-18T11:10:43Z</time>
      </trkpt>
      <trkpt lat="38.9531920" lon="-6.3566510">
        <ele>291.4</ele>
        <time>2021-10-18T11:10:47Z</time>
      </trkpt>
      <trkpt lat="38.9531180" lon="-6.3566150">
        <ele>291.0</ele>
        <time>2021-10-18T11:10:48Z</time>
      </trkpt>
      <trkpt lat="38.9528750" lon="-6.3565110">
        <ele>290.0</ele>
        <time>2021-10-18T11:10:52Z</time>
      </trkpt>
      <trkpt lat="38.9526710" lon="-6.3564210">
        <ele>288.6</ele>
        <time>2021-10-18T11:10:55Z</time>
      </trkpt>
      <trkpt lat="38.9523860" lon="-6.3562910">
        <ele>287.2</ele>
        <time>2021-10-18T11:10:59Z</time>
      </trkpt>
      <trkpt lat="38.9522200" lon="-6.3562130">
        <ele>286.2</ele>
        <time>2021-10-18T11:11:01Z</time>
      </trkpt>
      <trkpt lat="38.9520770" lon="-6.3561440">
        <ele>285.2</ele>
        <time>2021-10-18T11:11:03Z</time>
      </trkpt>
      <trkpt lat="38.9519990" lon="-6.3561080">
        <ele>284.6</ele>
        <time>2021-10-18T11:11:04Z</time>
      </trkpt>
      <trkpt lat="38.9518430" lon="-6.3560320">
        <ele>283.6</ele>
        <time>2021-10-18T11:11:06Z</time>
      </trkpt>
      <trkpt lat="38.9516060" lon="-6.3559090">
        <ele>282.6</ele>
        <time>2021-10-18T11:11:09Z</time>
      </trkpt>
      <trkpt lat="38.9514320" lon="-6.3558320">
        <ele>281.6</ele>
        <time>2021-10-18T11:11:11Z</time>
      </trkpt>
      <trkpt lat="38.9511240" lon="-6.3557010">
        <ele>280.2</ele>
        <time>2021-10-18T11:11:15Z</time>
      </trkpt>
      <trkpt lat="38.9508400" lon="-6.3556000">
        <ele>278.6</ele>
        <time>2021-10-18T11:11:19Z</time>
      </trkpt>
      <trkpt lat="38.9507490" lon="-6.3555710">
        <ele>278.2</ele>
        <time>2021-10-18T11:11:20Z</time>
      </trkpt>
      <trkpt lat="38.9505420" lon="-6.3554710">
        <ele>277.6</ele>
        <time>2021-10-18T11:11:23Z</time>
      </trkpt>
      <trkpt lat="38.9503920" lon="-6.3553850">
        <ele>277.2</ele>
        <time>2021-10-18T11:11:25Z</time>
      </trkpt>
      <trkpt lat="38.9501690" lon="-6.3552560">
        <ele>276.2</ele>
        <time>2021-10-18T11:11:28Z</time>
      </trkpt>
      <trkpt lat="38.9499450" lon="-6.3551310">
        <ele>274.8</ele>
        <time>2021-10-18T11:11:31Z</time>
      </trkpt>
      <trkpt lat="38.9498720" lon="-6.3550900">
        <ele>274.6</ele>
        <time>2021-10-18T11:11:32Z</time>
      </trkpt>
      <trkpt lat="38.9496330" lon="-6.3549740">
        <ele>273.6</ele>
        <time>2021-10-18T11:11:35Z</time>
      </trkpt>
      <trkpt lat="38.9493270" lon="-6.3548730">
        <ele>272.4</ele>
        <time>2021-10-18T11:11:39Z</time>
      </trkpt>
      <trkpt lat="38.9491030" lon="-6.3548410">
        <ele>271.4</ele>
        <time>2021-10-18T11:11:42Z</time>
      </trkpt>
      <trkpt lat="38.9487850" lon="-6.3548350">
        <ele>270.6</ele>
        <time>2021-10-18T11:11:46Z</time>
      </trkpt>
      <trkpt lat="38.9486140" lon="-6.3548350">
        <ele>270.2</ele>
        <time>2021-10-18T11:11:48Z</time>
      </trkpt>
      <trkpt lat="38.9482070" lon="-6.3548340">
        <ele>269.0</ele>
        <time>2021-10-18T11:11:53Z</time>
      </trkpt>
      <trkpt lat="38.9479750" lon="-6.3548250">
        <ele>268.2</ele>
        <time>2021-10-18T11:11:56Z</time>
      </trkpt>
      <trkpt lat="38.9478960" lon="-6.3548200">
        <ele>267.8</ele>
        <time>2021-10-18T11:11:57Z</time>
      </trkpt>
      <trkpt lat="38.9475660" lon="-6.3548050">
        <ele>266.8</ele>
        <time>2021-10-18T11:12:01Z</time>
      </trkpt>
      <trkpt lat="38.9473540" lon="-6.3548020">
        <ele>266.0</ele>
        <time>2021-10-18T11:12:04Z</time>
      </trkpt>
      <trkpt lat="38.9472820" lon="-6.3548120">
        <ele>265.8</ele>
        <time>2021-10-18T11:12:05Z</time>
      </trkpt>
      <trkpt lat="38.9471980" lon="-6.3548320">
        <ele>265.6</ele>
        <time>2021-10-18T11:12:06Z</time>
      </trkpt>
      <trkpt lat="38.9470080" lon="-6.3548950">
        <ele>265.2</ele>
        <time>2021-10-18T11:12:09Z</time>
      </trkpt>
      <trkpt lat="38.9466870" lon="-6.3549870">
        <ele>264.6</ele>
        <time>2021-10-18T11:12:14Z</time>
      </trkpt>
      <trkpt lat="38.9464910" lon="-6.3550320">
        <ele>263.8</ele>
        <time>2021-10-18T11:12:17Z</time>
      </trkpt>
      <trkpt lat="38.9463830" lon="-6.3550490">
        <ele>263.4</ele>
        <time>2021-10-18T11:12:19Z</time>
      </trkpt>
      <trkpt lat="38.9460810" lon="-6.3550500">
        <ele>262.4</ele>
        <time>2021-10-18T11:12:24Z</time>
      </trkpt>
      <trkpt lat="38.9460120" lon="-6.3550300">
        <ele>262.4</ele>
        <time>2021-10-18T11:12:25Z</time>
      </trkpt>
      <trkpt lat="38.9457310" lon="-6.3549160">
        <ele>261.4</ele>
        <time>2021-10-18T11:12:30Z</time>
      </trkpt>
      <trkpt lat="38.9456860" lon="-6.3548970">
        <ele>261.2</ele>
        <time>2021-10-18T11:12:31Z</time>
      </trkpt>
      <trkpt lat="38.9452320" lon="-6.3546880">
        <ele>260.2</ele>
        <time>2021-10-18T11:12:39Z</time>
      </trkpt>
      <trkpt lat="38.9451270" lon="-6.3546370">
        <ele>260.0</ele>
        <time>2021-10-18T11:12:41Z</time>
      </trkpt>
      <trkpt lat="38.9448420" lon="-6.3545090">
        <ele>259.4</ele>
        <time>2021-10-18T11:12:47Z</time>
      </trkpt>
      <trkpt lat="38.9445190" lon="-6.3543900">
        <ele>259.4</ele>
        <time>2021-10-18T11:12:54Z</time>
      </trkpt>
      <trkpt lat="38.9440290" lon="-6.3542380">
        <ele>259.8</ele>
        <time>2021-10-18T11:13:05Z</time>
      </trkpt>
      <trkpt lat="38.9437100" lon="-6.3541610">
        <ele>260.2</ele>
        <time>2021-10-18T11:13:13Z</time>
      </trkpt>
      <trkpt lat="38.9434290" lon="-6.3540940">
        <ele>260.8</ele>
        <time>2021-10-18T11:13:20Z</time>
      </trkpt>
      <trkpt lat="38.9432380" lon="-6.3540480">
        <ele>261.2</ele>
        <time>2021-10-18T11:13:25Z</time>
      </trkpt>
      <trkpt lat="38.9430750" lon="-6.3540150">
        <ele>261.4</ele>
        <time>2021-10-18T11:13:29Z</time>
      </trkpt>
      <trkpt lat="38.9427450" lon="-6.3539410">
        <ele>261.8</ele>
        <time>2021-10-18T11:13:38Z</time>
      </trkpt>
      <trkpt lat="38.9424780" lon="-6.3538820">
        <ele>262.0</ele>
        <time>2021-10-18T11:13:46Z</time>
      </trkpt>
      <trkpt lat="38.9422030" lon="-6.3538110">
        <ele>261.6</ele>
        <time>2021-10-18T11:13:53Z</time>
      </trkpt>
      <trkpt lat="38.9419810" lon="-6.3537520">
        <ele>261.2</ele>
        <time>2021-10-18T11:13:58Z</time>
      </trkpt>
      <trkpt lat="38.9418670" lon="-6.3537240">
        <ele>260.8</ele>
        <time>2021-10-18T11:14:01Z</time>
      </trkpt>
      <trkpt lat="38.9418140" lon="-6.3537100">
        <ele>260.8</ele>
        <time>2021-10-18T11:14:02Z</time>
      </trkpt>
      <trkpt lat="38.9414570" lon="-6.3536130">
        <ele>260.0</ele>
        <time>2021-10-18T11:14:10Z</time>
      </trkpt>
      <trkpt lat="38.9413050" lon="-6.3535700">
        <ele>259.8</ele>
        <time>2021-10-18T11:14:13Z</time>
      </trkpt>
      <trkpt lat="38.9410700" lon="-6.3534940">
        <ele>259.0</ele>
        <time>2021-10-18T11:14:18Z</time>
      </trkpt>
      <trkpt lat="38.9408440" lon="-6.3534100">
        <ele>258.4</ele>
        <time>2021-10-18T11:14:23Z</time>
      </trkpt>
      <trkpt lat="38.9406980" lon="-6.3533520">
        <ele>258.0</ele>
        <time>2021-10-18T11:14:26Z</time>
      </trkpt>
      <trkpt lat="38.9404340" lon="-6.3532380">
        <ele>257.0</ele>
        <time>2021-10-18T11:14:31Z</time>
      </trkpt>
      <trkpt lat="38.9403410" lon="-6.3531980">
        <ele>256.8</ele>
        <time>2021-10-18T11:14:33Z</time>
      </trkpt>
      <trkpt lat="38.9400160" lon="-6.3530520">
        <ele>256.2</ele>
        <time>2021-10-18T11:14:39Z</time>
      </trkpt>
      <trkpt lat="38.9399250" lon="-6.3530170">
        <ele>256.2</ele>
        <time>2021-10-18T11:14:41Z</time>
      </trkpt>
      <trkpt lat="38.9397610" lon="-6.3529600">
        <ele>255.8</ele>
        <time>2021-10-18T11:14:44Z</time>
      </trkpt>
      <trkpt lat="38.9393990" lon="-6.3528450">
        <ele>254.6</ele>
        <time>2021-10-18T11:14:51Z</time>
      </trkpt>
      <trkpt lat="38.9393460" lon="-6.3528280">
        <ele>254.4</ele>
        <time>2021-10-18T11:14:52Z</time>
      </trkpt>
      <trkpt lat="38.9390800" lon="-6.3527560">
        <ele>253.6</ele>
        <time>2021-10-18T11:14:57Z</time>
      </trkpt>
      <trkpt lat="38.9389210" lon="-6.3527170">
        <ele>252.8</ele>
        <time>2021-10-18T11:15:00Z</time>
      </trkpt>
      <trkpt lat="38.9388040" lon="-6.3526880">
        <ele>252.4</ele>
        <time>2021-10-18T11:15:02Z</time>
      </trkpt>
      <trkpt lat="38.9385980" lon="-6.3526230">
        <ele>251.6</ele>
        <time>2021-10-18T11:15:06Z</time>
      </trkpt>
      <trkpt lat="38.9384880" lon="-6.3525930">
        <ele>251.2</ele>
        <time>2021-10-18T11:15:08Z</time>
      </trkpt>
      <trkpt lat="38.9380910" lon="-6.3524800">
        <ele>250.0</ele>
        <time>2021-10-18T11:15:15Z</time>
      </trkpt>
      <trkpt lat="38.9379030" lon="-6.3524170">
        <ele>249.0</ele>
        <time>2021-10-18T11:15:18Z</time>
      </trkpt>
      <trkpt lat="38.9376370" lon="-6.3523400">
        <ele>248.0</ele>
        <time>2021-10-18T11:15:23Z</time>
      </trkpt>
      <trkpt lat="38.9375560" lon="-6.3523220">
        <ele>247.8</ele>
        <time>2021-10-18T11:15:25Z</time>
      </trkpt>
      <trkpt lat="38.9374170" lon="-6.3522950">
        <ele>247.2</ele>
        <time>2021-10-18T11:15:30Z</time>
      </trkpt>
      <trkpt lat="38.9373850" lon="-6.3522820">
        <ele>247.2</ele>
        <time>2021-10-18T11:15:31Z</time>
      </trkpt>
      <trkpt lat="38.9373070" lon="-6.3522620">
        <ele>246.8</ele>
        <time>2021-10-18T11:15:33Z</time>
      </trkpt>
      <trkpt lat="38.9372280" lon="-6.3522500">
        <ele>246.4</ele>
        <time>2021-10-18T11:15:35Z</time>
      </trkpt>
      <trkpt lat="38.9371280" lon="-6.3522270">
        <ele>245.8</ele>
        <time>2021-10-18T11:15:37Z</time>
      </trkpt>
      <trkpt lat="38.9369760" lon="-6.3521930">
        <ele>245.0</ele>
        <time>2021-10-18T11:15:41Z</time>
      </trkpt>
      <trkpt lat="38.9369360" lon="-6.3521950">
        <ele>244.0</ele>
        <time>2021-10-18T11:15:45Z</time>
      </trkpt>
      <trkpt lat="38.9368990" lon="-6.3522360">
        <ele>243.6</ele>
        <time>2021-10-18T11:15:51Z</time>
      </trkpt>
      <trkpt lat="38.9368390" lon="-6.3522660">
        <ele>243.6</ele>
        <time>2021-10-18T11:15:53Z</time>
      </trkpt>
      <trkpt lat="38.9366590" lon="-6.3523950">
        <ele>243.0</ele>
        <time>2021-10-18T11:15:59Z</time>
      </trkpt>
      <trkpt lat="38.9365090" lon="-6.3524490">
        <ele>242.8</ele>
        <time>2021-10-18T11:16:03Z</time>
      </trkpt>
      <trkpt lat="38.9363630" lon="-6.3523740">
        <ele>243.0</ele>
        <time>2021-10-18T11:16:07Z</time>
      </trkpt>
      <trkpt lat="38.9362510" lon="-6.3521890">
        <ele>243.4</ele>
        <time>2021-10-18T11:16:12Z</time>
      </trkpt>
      <trkpt lat="38.9361190" lon="-6.3520660">
        <ele>243.2</ele>
        <time>2021-10-18T11:16:17Z</time>
      </trkpt>
      <trkpt lat="38.9359190" lon="-6.3520040">
        <ele>242.8</ele>
        <time>2021-10-18T11:16:22Z</time>
      </trkpt>
      <trkpt lat="38.9357820" lon="-6.3519840">
        <ele>242.2</ele>
        <time>2021-10-18T11:16:26Z</time>
      </trkpt>
      <trkpt lat="38.9357610" lon="-6.3519830">
        <ele>242.2</ele>
        <time>2021-10-18T11:16:27Z</time>
      </trkpt>
      <trkpt lat="38.9357300" lon="-6.3519780">
        <ele>241.2</ele>
        <time>2021-10-18T11:16:30Z</time>
      </trkpt>
      <trkpt lat="38.9357300" lon="-6.3519780">
        <ele>240.8</ele>
        <time>2021-10-18T11:16:31Z</time>
      </trkpt>
      <trkpt lat="38.9356840" lon="-6.3519530">
        <ele>240.2</ele>
        <time>2021-10-18T11:18:56Z</time>
      </trkpt>
      <trkpt lat="38.9356500" lon="-6.3519420">
        <ele>240.2</ele>
        <time>2021-10-18T11:18:57Z</time>
      </trkpt>
      <trkpt lat="38.9356130" lon="-6.3519310">
        <ele>240.0</ele>
        <time>2021-10-18T11:18:58Z</time>
      </trkpt>
      <trkpt lat="38.9355270" lon="-6.3519120">
        <ele>240.0</ele>
        <time>2021-10-18T11:19:00Z</time>
      </trkpt>
      <trkpt lat="38.9353730" lon="-6.3518940">
        <ele>239.8</ele>
        <time>2021-10-18T11:19:03Z</time>
      </trkpt>
      <trkpt lat="38.9351420" lon="-6.3518970">
        <ele>239.0</ele>
        <time>2021-10-18T11:19:07Z</time>
      </trkpt>
      <trkpt lat="38.9350140" lon="-6.3519050">
        <ele>238.8</ele>
        <time>2021-10-18T11:19:09Z</time>
      </trkpt>
      <trkpt lat="38.9347440" lon="-6.3519360">
        <ele>238.0</ele>
        <time>2021-10-18T11:19:13Z</time>
      </trkpt>
      <trkpt lat="38.9345350" lon="-6.3519570">
        <ele>237.2</ele>
        <time>2021-10-18T11:19:16Z</time>
      </trkpt>
      <trkpt lat="38.9344640" lon="-6.3519640">
        <ele>237.0</ele>
        <time>2021-10-18T11:19:17Z</time>
      </trkpt>
      <trkpt lat="38.9341070" lon="-6.3519560">
        <ele>236.0</ele>
        <time>2021-10-18T11:19:22Z</time>
      </trkpt>
      <trkpt lat="38.9340330" lon="-6.3519430">
        <ele>235.8</ele>
        <time>2021-10-18T11:19:23Z</time>
      </trkpt>
      <trkpt lat="38.9336590" lon="-6.3518690">
        <ele>234.6</ele>
        <time>2021-10-18T11:19:28Z</time>
      </trkpt>
      <trkpt lat="38.9333650" lon="-6.3518010">
        <ele>233.6</ele>
        <time>2021-10-18T11:19:32Z</time>
      </trkpt>
      <trkpt lat="38.9332940" lon="-6.3517830">
        <ele>233.4</ele>
        <time>2021-10-18T11:19:33Z</time>
      </trkpt>
      <trkpt lat="38.9329530" lon="-6.3516990">
        <ele>232.4</ele>
        <time>2021-10-18T11:19:38Z</time>
      </trkpt>
      <trkpt lat="38.9327010" lon="-6.3516340">
        <ele>231.8</ele>
        <time>2021-10-18T11:19:42Z</time>
      </trkpt>
      <trkpt lat="38.9323570" lon="-6.3515420">
        <ele>231.2</ele>
        <time>2021-10-18T11:19:48Z</time>
      </trkpt>
      <trkpt lat="38.9323010" lon="-6.3515230">
        <ele>231.2</ele>
        <time>2021-10-18T11:19:49Z</time>
      </trkpt>
      <trkpt lat="38.9317600" lon="-6.3512830">
        <ele>230.2</ele>
        <time>2021-10-18T11:19:59Z</time>
      </trkpt>
      <trkpt lat="38.9313340" lon="-6.3510160">
        <ele>229.2</ele>
        <time>2021-10-18T11:20:07Z</time>
      </trkpt>
      <trkpt lat="38.9311700" lon="-6.3509150">
        <ele>228.6</ele>
        <time>2021-10-18T11:20:10Z</time>
      </trkpt>
      <trkpt lat="38.9309940" lon="-6.3508140">
        <ele>228.0</ele>
        <time>2021-10-18T11:20:13Z</time>
      </trkpt>
      <trkpt lat="38.9306930" lon="-6.3506150">
        <ele>226.8</ele>
        <time>2021-10-18T11:20:18Z</time>
      </trkpt>
      <trkpt lat="38.9304400" lon="-6.3504390">
        <ele>225.6</ele>
        <time>2021-10-18T11:20:22Z</time>
      </trkpt>
      <trkpt lat="38.9302650" lon="-6.3503110">
        <ele>225.0</ele>
        <time>2021-10-18T11:20:25Z</time>
      </trkpt>
      <trkpt lat="38.9302050" lon="-6.3502870">
        <ele>224.8</ele>
        <time>2021-10-18T11:20:26Z</time>
      </trkpt>
      <trkpt lat="38.9301480" lon="-6.3502820">
        <ele>224.6</ele>
        <time>2021-10-18T11:20:27Z</time>
      </trkpt>
      <trkpt lat="38.9300390" lon="-6.3503020">
        <ele>224.4</ele>
        <time>2021-10-18T11:20:29Z</time>
      </trkpt>
      <trkpt lat="38.9299350" lon="-6.3502850">
        <ele>224.2</ele>
        <time>2021-10-18T11:20:31Z</time>
      </trkpt>
      <trkpt lat="38.9298900" lon="-6.3502510">
        <ele>224.2</ele>
        <time>2021-10-18T11:20:32Z</time>
      </trkpt>
      <trkpt lat="38.9298560" lon="-6.3502040">
        <ele>224.2</ele>
        <time>2021-10-18T11:20:33Z</time>
      </trkpt>
      <trkpt lat="38.9298200" lon="-6.3500910">
        <ele>224.2</ele>
        <time>2021-10-18T11:20:35Z</time>
      </trkpt>
      <trkpt lat="38.9297970" lon="-6.3499750">
        <ele>224.0</ele>
        <time>2021-10-18T11:20:37Z</time>
      </trkpt>
      <trkpt lat="38.9297470" lon="-6.3498820">
        <ele>224.0</ele>
        <time>2021-10-18T11:20:39Z</time>
      </trkpt>
      <trkpt lat="38.9297020" lon="-6.3498460">
        <ele>224.0</ele>
        <time>2021-10-18T11:20:40Z</time>
      </trkpt>
      <trkpt lat="38.9295800" lon="-6.3497760">
        <ele>223.6</ele>
        <time>2021-10-18T11:20:43Z</time>
      </trkpt>
      <trkpt lat="38.9294270" lon="-6.3497140">
        <ele>223.4</ele>
        <time>2021-10-18T11:20:46Z</time>
      </trkpt>
      <trkpt lat="38.9290660" lon="-6.3496170">
        <ele>222.2</ele>
        <time>2021-10-18T11:20:52Z</time>
      </trkpt>
      <trkpt lat="38.9290030" lon="-6.3496010">
        <ele>221.8</ele>
        <time>2021-10-18T11:20:53Z</time>
      </trkpt>
      <trkpt lat="38.9287580" lon="-6.3495390">
        <ele>221.0</ele>
        <time>2021-10-18T11:20:57Z</time>
      </trkpt>
      <trkpt lat="38.9284600" lon="-6.3494700">
        <ele>220.0</ele>
        <time>2021-10-18T11:21:02Z</time>
      </trkpt>
      <trkpt lat="38.9283310" lon="-6.3494410">
        <ele>219.6</ele>
        <time>2021-10-18T11:21:04Z</time>
      </trkpt>
      <trkpt lat="38.9280540" lon="-6.3493740">
        <ele>219.0</ele>
        <time>2021-10-18T11:21:09Z</time>
      </trkpt>
      <trkpt lat="38.9278780" lon="-6.3493380">
        <ele>219.0</ele>
        <time>2021-10-18T11:21:12Z</time>
      </trkpt>
      <trkpt lat="38.9278180" lon="-6.3493230">
        <ele>218.8</ele>
        <time>2021-10-18T11:21:13Z</time>
      </trkpt>
      <trkpt lat="38.9275800" lon="-6.3492770">
        <ele>218.0</ele>
        <time>2021-10-18T11:21:17Z</time>
      </trkpt>
      <trkpt lat="38.9272240" lon="-6.3492110">
        <ele>217.2</ele>
        <time>2021-10-18T11:21:23Z</time>
      </trkpt>
      <trkpt lat="38.9271070" lon="-6.3491900">
        <ele>217.0</ele>
        <time>2021-10-18T11:21:25Z</time>
      </trkpt>
      <trkpt lat="38.9266630" lon="-6.3491030">
        <ele>215.8</ele>
        <time>2021-10-18T11:21:33Z</time>
      </trkpt>
      <trkpt lat="38.9265560" lon="-6.3490820">
        <ele>215.6</ele>
        <time>2021-10-18T11:21:35Z</time>
      </trkpt>
      <trkpt lat="38.9262870" lon="-6.3490400">
        <ele>215.2</ele>
        <time>2021-10-18T11:21:41Z</time>
      </trkpt>
      <trkpt lat="38.9261190" lon="-6.3490060">
        <ele>214.8</ele>
        <time>2021-10-18T11:21:45Z</time>
      </trkpt>
      <trkpt lat="38.9260750" lon="-6.3489820">
        <ele>214.8</ele>
        <time>2021-10-18T11:21:46Z</time>
      </trkpt>
      <trkpt lat="38.9259580" lon="-6.3489050">
        <ele>214.8</ele>
        <time>2021-10-18T11:21:49Z</time>
      </trkpt>
      <trkpt lat="38.9258800" lon="-6.3488890">
        <ele>214.8</ele>
        <time>2021-10-18T11:21:51Z</time>
      </trkpt>
      <trkpt lat="38.9256770" lon="-6.3488210">
        <ele>214.8</ele>
        <time>2021-10-18T11:21:56Z</time>
      </trkpt>
      <trkpt lat="38.9256380" lon="-6.3487970">
        <ele>214.8</ele>
        <time>2021-10-18T11:21:57Z</time>
      </trkpt>
      <trkpt lat="38.9255950" lon="-6.3487760">
        <ele>214.8</ele>
        <time>2021-10-18T11:21:58Z</time>
      </trkpt>
      <trkpt lat="38.9254550" lon="-6.3487130">
        <ele>214.4</ele>
        <time>2021-10-18T11:22:02Z</time>
      </trkpt>
      <trkpt lat="38.9254350" lon="-6.3487020">
        <ele>214.4</ele>
        <time>2021-10-18T11:22:03Z</time>
      </trkpt>
      <trkpt lat="38.9253380" lon="-6.3486430">
        <ele>214.2</ele>
        <time>2021-10-18T11:22:08Z</time>
      </trkpt>
      <trkpt lat="38.9252230" lon="-6.3485190">
        <ele>214.0</ele>
        <time>2021-10-18T11:22:12Z</time>
      </trkpt>
      <trkpt lat="38.9252180" lon="-6.3484130">
        <ele>213.8</ele>
        <time>2021-10-18T11:22:14Z</time>
      </trkpt>
      <trkpt lat="38.9252300" lon="-6.3483630">
        <ele>213.8</ele>
        <time>2021-10-18T11:22:15Z</time>
      </trkpt>
      <trkpt lat="38.9252410" lon="-6.3483140">
        <ele>213.8</ele>
        <time>2021-10-18T11:22:16Z</time>
      </trkpt>
      <trkpt lat="38.9252690" lon="-6.3480570">
        <ele>213.6</ele>
        <time>2021-10-18T11:22:21Z</time>
      </trkpt>
      <trkpt lat="38.9252780" lon="-6.3480100">
        <ele>213.6</ele>
        <time>2021-10-18T11:22:22Z</time>
      </trkpt>
      <trkpt lat="38.9253480" lon="-6.3476640">
        <ele>213.8</ele>
        <time>2021-10-18T11:22:29Z</time>
      </trkpt>
      <trkpt lat="38.9253490" lon="-6.3473450">
        <ele>213.8</ele>
        <time>2021-10-18T11:22:35Z</time>
      </trkpt>
      <trkpt lat="38.9253380" lon="-6.3471300">
        <ele>213.8</ele>
        <time>2021-10-18T11:22:41Z</time>
      </trkpt>
      <trkpt lat="38.9253230" lon="-6.3471000">
        <ele>213.8</ele>
        <time>2021-10-18T11:22:43Z</time>
      </trkpt>
      <trkpt lat="38.9252670" lon="-6.3470850">
        <ele>213.6</ele>
        <time>2021-10-18T11:22:46Z</time>
      </trkpt>
      <trkpt lat="38.9251300" lon="-6.3470820">
        <ele>213.4</ele>
        <time>2021-10-18T11:22:50Z</time>
      </trkpt>
      <trkpt lat="38.9251300" lon="-6.3470820">
        <ele>213.2</ele>
        <time>2021-10-18T11:22:51Z</time>
      </trkpt>
      <trkpt lat="38.9250140" lon="-6.3470840">
        <ele>212.8</ele>
        <time>2021-10-18T11:22:53Z</time>
      </trkpt>
      <trkpt lat="38.9248650" lon="-6.3470990">
        <ele>211.8</ele>
        <time>2021-10-18T11:22:57Z</time>
      </trkpt>
      <trkpt lat="38.9247820" lon="-6.3470960">
        <ele>211.0</ele>
        <time>2021-10-18T11:23:01Z</time>
      </trkpt>
      <trkpt lat="38.9247580" lon="-6.3471030">
        <ele>210.6</ele>
        <time>2021-10-18T11:23:03Z</time>
      </trkpt>
      <trkpt lat="38.9247580" lon="-6.3471030">
        <ele>210.4</ele>
        <time>2021-10-18T11:23:05Z</time>
      </trkpt>
      <trkpt lat="38.9247470" lon="-6.3470430">
        <ele>209.6</ele>
        <time>2021-10-18T11:24:38Z</time>
      </trkpt>
      <trkpt lat="38.9247130" lon="-6.3468640">
        <ele>209.4</ele>
        <time>2021-10-18T11:24:45Z</time>
      </trkpt>
      <trkpt lat="38.9246860" lon="-6.3467240">
        <ele>209.2</ele>
        <time>2021-10-18T11:24:50Z</time>
      </trkpt>
      <trkpt lat="38.9246540" lon="-6.3465280">
        <ele>209.4</ele>
        <time>2021-10-18T11:24:56Z</time>
      </trkpt>
      <trkpt lat="38.9245770" lon="-6.3463700">
        <ele>209.4</ele>
        <time>2021-10-18T11:25:03Z</time>
      </trkpt>
      <trkpt lat="38.9245110" lon="-6.3463760">
        <ele>209.4</ele>
        <time>2021-10-18T11:25:08Z</time>
      </trkpt>
      <trkpt lat="38.9245010" lon="-6.3463820">
        <ele>209.4</ele>
        <time>2021-10-18T11:25:09Z</time>
      </trkpt>
      <trkpt lat="38.9244970" lon="-6.3463850">
        <ele>209.4</ele>
        <time>2021-10-18T11:25:11Z</time>
      </trkpt>
      <trkpt lat="38.9244700" lon="-6.3463800">
        <ele>209.6</ele>
        <time>2021-10-18T11:27:12Z</time>
      </trkpt>
      <trkpt lat="38.9244450" lon="-6.3463730">
        <ele>209.6</ele>
        <time>2021-10-18T11:27:13Z</time>
      </trkpt>
      <trkpt lat="38.9242640" lon="-6.3463350">
        <ele>209.6</ele>
        <time>2021-10-18T11:27:18Z</time>
      </trkpt>
      <trkpt lat="38.9241010" lon="-6.3463880">
        <ele>209.8</ele>
        <time>2021-10-18T11:27:23Z</time>
      </trkpt>
      <trkpt lat="38.9239510" lon="-6.3464620">
        <ele>210.6</ele>
        <time>2021-10-18T11:27:29Z</time>
      </trkpt>
      <trkpt lat="38.9238970" lon="-6.3464940">
        <ele>210.8</ele>
        <time>2021-10-18T11:27:31Z</time>
      </trkpt>
      <trkpt lat="38.9237380" lon="-6.3465970">
        <ele>210.8</ele>
        <time>2021-10-18T11:27:36Z</time>
      </trkpt>
      <trkpt lat="38.9236540" lon="-6.3466740">
        <ele>210.6</ele>
        <time>2021-10-18T11:27:38Z</time>
      </trkpt>
      <trkpt lat="38.9234570" lon="-6.3468960">
        <ele>209.6</ele>
        <time>2021-10-18T11:27:43Z</time>
      </trkpt>
      <trkpt lat="38.9233910" lon="-6.3469840">
        <ele>209.4</ele>
        <time>2021-10-18T11:27:45Z</time>
      </trkpt>
      <trkpt lat="38.9233100" lon="-6.3471110">
        <ele>209.4</ele>
        <time>2021-10-18T11:27:48Z</time>
      </trkpt>
      <trkpt lat="38.9232640" lon="-6.3471950">
        <ele>209.2</ele>
        <time>2021-10-18T11:27:50Z</time>
      </trkpt>
      <trkpt lat="38.9232260" lon="-6.3472760">
        <ele>209.2</ele>
        <time>2021-10-18T11:27:52Z</time>
      </trkpt>
      <trkpt lat="38.9231360" lon="-6.3475750">
        <ele>209.0</ele>
        <time>2021-10-18T11:27:59Z</time>
      </trkpt>
      <trkpt lat="38.9231080" lon="-6.3477010">
        <ele>209.4</ele>
        <time>2021-10-18T11:28:03Z</time>
      </trkpt>
      <trkpt lat="38.9231090" lon="-6.3477250">
        <ele>209.4</ele>
        <time>2021-10-18T11:28:04Z</time>
      </trkpt>
      <trkpt lat="38.9231080" lon="-6.3477670">
        <ele>209.6</ele>
        <time>2021-10-18T11:28:09Z</time>
      </trkpt>
      <trkpt lat="38.9231080" lon="-6.3477670">
        <ele>209.8</ele>
        <time>2021-10-18T11:28:10Z</time>
      </trkpt>
      <trkpt lat="38.9230790" lon="-6.3478120">
        <ele>210.4</ele>
        <time>2021-10-18T11:32:26Z</time>
      </trkpt>
      <trkpt lat="38.9230790" lon="-6.3478450">
        <ele>210.4</ele>
        <time>2021-10-18T11:32:27Z</time>
      </trkpt>
      <trkpt lat="38.9230750" lon="-6.3478750">
        <ele>210.4</ele>
        <time>2021-10-18T11:32:28Z</time>
      </trkpt>
      <trkpt lat="38.9230470" lon="-6.3480170">
        <ele>210.4</ele>
        <time>2021-10-18T11:32:32Z</time>
      </trkpt>
      <trkpt lat="38.9230430" lon="-6.3480510">
        <ele>210.6</ele>
        <time>2021-10-18T11:32:33Z</time>
      </trkpt>
      <trkpt lat="38.9230160" lon="-6.3481280">
        <ele>210.8</ele>
        <time>2021-10-18T11:32:37Z</time>
      </trkpt>
      <trkpt lat="38.9230160" lon="-6.3481670">
        <ele>211.0</ele>
        <time>2021-10-18T11:32:39Z</time>
      </trkpt>
      <trkpt lat="38.9229810" lon="-6.3482390">
        <ele>211.2</ele>
        <time>2021-10-18T11:32:44Z</time>
      </trkpt>
      <trkpt lat="38.9229730" lon="-6.3482500">
        <ele>211.4</ele>
        <time>2021-10-18T11:32:47Z</time>
      </trkpt>
      <trkpt lat="38.9229580" lon="-6.3483180">
        <ele>212.2</ele>
        <time>2021-10-18T11:34:00Z</time>
      </trkpt>
      <trkpt lat="38.9229500" lon="-6.3483460">
        <ele>212.2</ele>
        <time>2021-10-18T11:34:01Z</time>
      </trkpt>
      <trkpt lat="38.9229150" lon="-6.3485040">
        <ele>212.2</ele>
        <time>2021-10-18T11:34:06Z</time>
      </trkpt>
      <trkpt lat="38.9229080" lon="-6.3485530">
        <ele>212.2</ele>
        <time>2021-10-18T11:34:08Z</time>
      </trkpt>
      <trkpt lat="38.9228720" lon="-6.3486020">
        <ele>212.0</ele>
        <time>2021-10-18T11:34:11Z</time>
      </trkpt>
      <trkpt lat="38.9228290" lon="-6.3486310">
        <ele>212.0</ele>
        <time>2021-10-18T11:34:14Z</time>
      </trkpt>
      <trkpt lat="38.9228140" lon="-6.3486420">
        <ele>212.2</ele>
        <time>2021-10-18T11:34:15Z</time>
      </trkpt>
      <trkpt lat="38.9227820" lon="-6.3486670">
        <ele>212.2</ele>
        <time>2021-10-18T11:34:17Z</time>
      </trkpt>
      <trkpt lat="38.9227190" lon="-6.3486880">
        <ele>212.4</ele>
        <time>2021-10-18T11:34:20Z</time>
      </trkpt>
      <trkpt lat="38.9226700" lon="-6.3487150">
        <ele>212.6</ele>
        <time>2021-10-18T11:34:24Z</time>
      </trkpt>
      <trkpt lat="38.9226700" lon="-6.3487150">
        <ele>212.6</ele>
        <time>2021-10-18T11:34:26Z</time>
      </trkpt>
      <trkpt lat="38.9226360" lon="-6.3487090">
        <ele>212.8</ele>
        <time>2021-10-18T11:34:29Z</time>
      </trkpt>
      <trkpt lat="38.9225960" lon="-6.3486790">
        <ele>213.0</ele>
        <time>2021-10-18T11:34:31Z</time>
      </trkpt>
      <trkpt lat="38.9225750" lon="-6.3486670">
        <ele>213.0</ele>
        <time>2021-10-18T11:34:32Z</time>
      </trkpt>
      <trkpt lat="38.9225000" lon="-6.3486230">
        <ele>213.2</ele>
        <time>2021-10-18T11:34:36Z</time>
      </trkpt>
      <trkpt lat="38.9224490" lon="-6.3485830">
        <ele>214.0</ele>
        <time>2021-10-18T11:34:39Z</time>
      </trkpt>
      <trkpt lat="38.9224330" lon="-6.3485730">
        <ele>214.4</ele>
        <time>2021-10-18T11:34:40Z</time>
      </trkpt>
      <trkpt lat="38.9223300" lon="-6.3485270">
        <ele>215.6</ele>
        <time>2021-10-18T11:34:46Z</time>
      </trkpt>
      <trkpt lat="38.9222870" lon="-6.3485140">
        <ele>216.0</ele>
        <time>2021-10-18T11:34:48Z</time>
      </trkpt>
      <trkpt lat="38.9222310" lon="-6.3485010">
        <ele>216.8</ele>
        <time>2021-10-18T11:34:51Z</time>
      </trkpt>
      <trkpt lat="38.9221770" lon="-6.3484450">
        <ele>217.6</ele>
        <time>2021-10-18T11:34:55Z</time>
      </trkpt>
      <trkpt lat="38.9221530" lon="-6.3484340">
        <ele>218.0</ele>
        <time>2021-10-18T11:34:57Z</time>
      </trkpt>
      <trkpt lat="38.9221300" lon="-6.3484370">
        <ele>218.6</ele>
        <time>2021-10-18T11:34:59Z</time>
      </trkpt>
      <trkpt lat="38.9221070" lon="-6.3484340">
        <ele>219.0</ele>
        <time>2021-10-18T11:35:01Z</time>
      </trkpt>
      <trkpt lat="38.9220950" lon="-6.3484330">
        <ele>219.2</ele>
        <time>2021-10-18T11:35:02Z</time>
      </trkpt>
      <trkpt lat="38.9220840" lon="-6.3484350">
        <ele>219.2</ele>
        <time>2021-10-18T11:35:03Z</time>
      </trkpt>
      <trkpt lat="38.9220620" lon="-6.3484350">
        <ele>219.2</ele>
        <time>2021-10-18T11:35:05Z</time>
      </trkpt>
      <trkpt lat="38.9220580" lon="-6.3484310">
        <ele>219.4</ele>
        <time>2021-10-18T11:35:06Z</time>
      </trkpt>
      <trkpt lat="38.9220580" lon="-6.3484310">
        <ele>219.6</ele>
        <time>2021-10-18T11:35:09Z</time>
      </trkpt>
      <trkpt lat="38.9220370" lon="-6.3483630">
        <ele>220.0</ele>
        <time>2021-10-18T11:35:45Z</time>
      </trkpt>
      <trkpt lat="38.9220310" lon="-6.3483410">
        <ele>220.0</ele>
        <time>2021-10-18T11:35:46Z</time>
      </trkpt>
      <trkpt lat="38.9220090" lon="-6.3482810">
        <ele>220.2</ele>
        <time>2021-10-18T11:35:49Z</time>
      </trkpt>
      <trkpt lat="38.9219890" lon="-6.3482480">
        <ele>220.2</ele>
        <time>2021-10-18T11:35:51Z</time>
      </trkpt>
      <trkpt lat="38.9219710" lon="-6.3482320">
        <ele>220.2</ele>
        <time>2021-10-18T11:35:53Z</time>
      </trkpt>
      <trkpt lat="38.9219710" lon="-6.3482260">
        <ele>220.2</ele>
        <time>2021-10-18T11:35:54Z</time>
      </trkpt>
      <trkpt lat="38.9219710" lon="-6.3482260">
        <ele>220.2</ele>
        <time>2021-10-18T11:35:55Z</time>
      </trkpt>
      <trkpt lat="38.9219350" lon="-6.3481900">
        <ele>220.2</ele>
        <time>2021-10-18T11:36:01Z</time>
      </trkpt>
      <trkpt lat="38.9219080" lon="-6.3481350">
        <ele>220.4</ele>
        <time>2021-10-18T11:36:03Z</time>
      </trkpt>
      <trkpt lat="38.9218350" lon="-6.3478930">
        <ele>220.6</ele>
        <time>2021-10-18T11:36:09Z</time>
      </trkpt>
      <trkpt lat="38.9217660" lon="-6.3476970">
        <ele>220.8</ele>
        <time>2021-10-18T11:36:14Z</time>
      </trkpt>
      <trkpt lat="38.9217490" lon="-6.3476570">
        <ele>220.8</ele>
        <time>2021-10-18T11:36:15Z</time>
      </trkpt>
      <trkpt lat="38.9216060" lon="-6.3472870">
        <ele>221.2</ele>
        <time>2021-10-18T11:36:24Z</time>
      </trkpt>
      <trkpt lat="38.9215900" lon="-6.3472450">
        <ele>221.2</ele>
        <time>2021-10-18T11:36:25Z</time>
      </trkpt>
      <trkpt lat="38.9215110" lon="-6.3471250">
        <ele>221.2</ele>
        <time>2021-10-18T11:36:28Z</time>
      </trkpt>
      <trkpt lat="38.9214650" lon="-6.3470110">
        <ele>221.4</ele>
        <time>2021-10-18T11:36:31Z</time>
      </trkpt>
      <trkpt lat="38.9213870" lon="-6.3468250">
        <ele>221.8</ele>
        <time>2021-10-18T11:36:36Z</time>
      </trkpt>
      <trkpt lat="38.9213370" lon="-6.3467150">
        <ele>222.0</ele>
        <time>2021-10-18T11:36:39Z</time>
      </trkpt>
      <trkpt lat="38.9212640" lon="-6.3465700">
        <ele>222.2</ele>
        <time>2021-10-18T11:36:44Z</time>
      </trkpt>
      <trkpt lat="38.9212530" lon="-6.3465440">
        <ele>222.2</ele>
        <time>2021-10-18T11:36:45Z</time>
      </trkpt>
      <trkpt lat="38.9212390" lon="-6.3464920">
        <ele>222.2</ele>
        <time>2021-10-18T11:36:48Z</time>
      </trkpt>
      <trkpt lat="38.9212280" lon="-6.3464850">
        <ele>222.2</ele>
        <time>2021-10-18T11:36:49Z</time>
      </trkpt>
      <trkpt lat="38.9212240" lon="-6.3464830">
        <ele>222.4</ele>
        <time>2021-10-18T11:36:52Z</time>
      </trkpt>
      <trkpt lat="38.9211700" lon="-6.3464640">
        <ele>222.4</ele>
        <time>2021-10-18T11:37:03Z</time>
      </trkpt>
      <trkpt lat="38.9211510" lon="-6.3464590">
        <ele>222.4</ele>
        <time>2021-10-18T11:37:04Z</time>
      </trkpt>
      <trkpt lat="38.9210200" lon="-6.3464650">
        <ele>222.8</ele>
        <time>2021-10-18T11:37:09Z</time>
      </trkpt>
      <trkpt lat="38.9209760" lon="-6.3464610">
        <ele>223.0</ele>
        <time>2021-10-18T11:37:11Z</time>
      </trkpt>
      <trkpt lat="38.9209350" lon="-6.3464190">
        <ele>223.2</ele>
        <time>2021-10-18T11:37:13Z</time>
      </trkpt>
      <trkpt lat="38.9209090" lon="-6.3464050">
        <ele>223.4</ele>
        <time>2021-10-18T11:37:14Z</time>
      </trkpt>
      <trkpt lat="38.9208380" lon="-6.3464450">
        <ele>224.0</ele>
        <time>2021-10-18T11:37:17Z</time>
      </trkpt>
      <trkpt lat="38.9208090" lon="-6.3464530">
        <ele>224.4</ele>
        <time>2021-10-18T11:37:19Z</time>
      </trkpt>
      <trkpt lat="38.9207670" lon="-6.3464600">
        <ele>224.6</ele>
        <time>2021-10-18T11:37:21Z</time>
      </trkpt>
      <trkpt lat="38.9207460" lon="-6.3464670">
        <ele>224.8</ele>
        <time>2021-10-18T11:37:22Z</time>
      </trkpt>
      <trkpt lat="38.9207310" lon="-6.3464590">
        <ele>225.0</ele>
        <time>2021-10-18T11:37:23Z</time>
      </trkpt>
      <trkpt lat="38.9207080" lon="-6.3464450">
        <ele>225.4</ele>
        <time>2021-10-18T11:37:24Z</time>
      </trkpt>
      <trkpt lat="38.9206770" lon="-6.3464270">
        <ele>225.6</ele>
        <time>2021-10-18T11:37:25Z</time>
      </trkpt>
      <trkpt lat="38.9206570" lon="-6.3464040">
        <ele>225.8</ele>
        <time>2021-10-18T11:37:26Z</time>
      </trkpt>
      <trkpt lat="38.9206030" lon="-6.3463520">
        <ele>226.2</ele>
        <time>2021-10-18T11:37:29Z</time>
      </trkpt>
      <trkpt lat="38.9206000" lon="-6.3463550">
        <ele>226.4</ele>
        <time>2021-10-18T11:37:31Z</time>
      </trkpt>
      <trkpt lat="38.9205610" lon="-6.3462630">
        <ele>226.8</ele>
        <time>2021-10-18T11:37:33Z</time>
      </trkpt>
      <trkpt lat="38.9205140" lon="-6.3462340">
        <ele>226.8</ele>
        <time>2021-10-18T11:37:34Z</time>
      </trkpt>
      <trkpt lat="38.9204750" lon="-6.3461490">
        <ele>227.2</ele>
        <time>2021-10-18T11:37:35Z</time>
      </trkpt>
      <trkpt lat="38.9203970" lon="-6.3460640">
        <ele>227.6</ele>
        <time>2021-10-18T11:37:37Z</time>
      </trkpt>
      <trkpt lat="38.9203120" lon="-6.3460800">
        <ele>228.4</ele>
        <time>2021-10-18T11:37:41Z</time>
      </trkpt>
      <trkpt lat="38.9203110" lon="-6.3460770">
        <ele>228.8</ele>
        <time>2021-10-18T11:37:43Z</time>
      </trkpt>
      <trkpt lat="38.9202770" lon="-6.3460640">
        <ele>229.2</ele>
        <time>2021-10-18T11:37:46Z</time>
      </trkpt>
      <trkpt lat="38.9201940" lon="-6.3460420">
        <ele>229.6</ele>
        <time>2021-10-18T11:37:50Z</time>
      </trkpt>
      <trkpt lat="38.9201510" lon="-6.3460440">
        <ele>230.0</ele>
        <time>2021-10-18T11:37:51Z</time>
      </trkpt>
      <trkpt lat="38.9200680" lon="-6.3461110">
        <ele>230.4</ele>
        <time>2021-10-18T11:37:54Z</time>
      </trkpt>
      <trkpt lat="38.9200450" lon="-6.3461020">
        <ele>230.6</ele>
        <time>2021-10-18T11:37:55Z</time>
      </trkpt>
      <trkpt lat="38.9199960" lon="-6.3461050">
        <ele>231.0</ele>
        <time>2021-10-18T11:37:57Z</time>
      </trkpt>
      <trkpt lat="38.9199480" lon="-6.3461010">
        <ele>231.4</ele>
        <time>2021-10-18T11:38:00Z</time>
      </trkpt>
      <trkpt lat="38.9198950" lon="-6.3460780">
        <ele>231.8</ele>
        <time>2021-10-18T11:38:03Z</time>
      </trkpt>
      <trkpt lat="38.9198800" lon="-6.3460700">
        <ele>232.0</ele>
        <time>2021-10-18T11:38:04Z</time>
      </trkpt>
      <trkpt lat="38.9198690" lon="-6.3460580">
        <ele>232.2</ele>
        <time>2021-10-18T11:38:05Z</time>
      </trkpt>
      <trkpt lat="38.9198370" lon="-6.3460040">
        <ele>232.4</ele>
        <time>2021-10-18T11:38:08Z</time>
      </trkpt>
      <trkpt lat="38.9197980" lon="-6.3459480">
        <ele>233.0</ele>
        <time>2021-10-18T11:38:11Z</time>
      </trkpt>
      <trkpt lat="38.9197750" lon="-6.3459020">
        <ele>233.0</ele>
        <time>2021-10-18T11:38:13Z</time>
      </trkpt>
      <trkpt lat="38.9197620" lon="-6.3458800">
        <ele>233.2</ele>
        <time>2021-10-18T11:38:14Z</time>
      </trkpt>
      <trkpt lat="38.9197060" lon="-6.3458220">
        <ele>233.4</ele>
        <time>2021-10-18T11:38:17Z</time>
      </trkpt>
      <trkpt lat="38.9196550" lon="-6.3457850">
        <ele>233.6</ele>
        <time>2021-10-18T11:38:20Z</time>
      </trkpt>
      <trkpt lat="38.9195930" lon="-6.3457550">
        <ele>233.8</ele>
        <time>2021-10-18T11:38:23Z</time>
      </trkpt>
      <trkpt lat="38.9195510" lon="-6.3457220">
        <ele>233.8</ele>
        <time>2021-10-18T11:38:25Z</time>
      </trkpt>
      <trkpt lat="38.9195190" lon="-6.3456810">
        <ele>234.0</ele>
        <time>2021-10-18T11:38:27Z</time>
      </trkpt>
      <trkpt lat="38.9195000" lon="-6.3456640">
        <ele>234.0</ele>
        <time>2021-10-18T11:38:28Z</time>
      </trkpt>
      <trkpt lat="38.9194800" lon="-6.3456500">
        <ele>234.0</ele>
        <time>2021-10-18T11:38:29Z</time>
      </trkpt>
      <trkpt lat="38.9194650" lon="-6.3456330">
        <ele>234.2</ele>
        <time>2021-10-18T11:38:30Z</time>
      </trkpt>
      <trkpt lat="38.9194090" lon="-6.3456000">
        <ele>234.2</ele>
        <time>2021-10-18T11:38:33Z</time>
      </trkpt>
      <trkpt lat="38.9193640" lon="-6.3456040">
        <ele>234.2</ele>
        <time>2021-10-18T11:38:35Z</time>
      </trkpt>
      <trkpt lat="38.9193170" lon="-6.3456060">
        <ele>234.4</ele>
        <time>2021-10-18T11:38:37Z</time>
      </trkpt>
      <trkpt lat="38.9192890" lon="-6.3456300">
        <ele>234.4</ele>
        <time>2021-10-18T11:38:39Z</time>
      </trkpt>
      <trkpt lat="38.9192550" lon="-6.3456810">
        <ele>234.6</ele>
        <time>2021-10-18T11:38:41Z</time>
      </trkpt>
      <trkpt lat="38.9192230" lon="-6.3457420">
        <ele>234.4</ele>
        <time>2021-10-18T11:38:44Z</time>
      </trkpt>
      <trkpt lat="38.9191980" lon="-6.3458270">
        <ele>234.6</ele>
        <time>2021-10-18T11:38:47Z</time>
      </trkpt>
      <trkpt lat="38.9191650" lon="-6.3458800">
        <ele>234.6</ele>
        <time>2021-10-18T11:38:49Z</time>
      </trkpt>
      <trkpt lat="38.9191340" lon="-6.3459340">
        <ele>234.6</ele>
        <time>2021-10-18T11:38:51Z</time>
      </trkpt>
      <trkpt lat="38.9191220" lon="-6.3459730">
        <ele>234.6</ele>
        <time>2021-10-18T11:38:53Z</time>
      </trkpt>
      <trkpt lat="38.9191020" lon="-6.3459950">
        <ele>234.6</ele>
        <time>2021-10-18T11:38:55Z</time>
      </trkpt>
      <trkpt lat="38.9190740" lon="-6.3460470">
        <ele>234.6</ele>
        <time>2021-10-18T11:38:58Z</time>
      </trkpt>
      <trkpt lat="38.9190320" lon="-6.3460940">
        <ele>234.6</ele>
        <time>2021-10-18T11:39:01Z</time>
      </trkpt>
      <trkpt lat="38.9189800" lon="-6.3461710">
        <ele>234.4</ele>
        <time>2021-10-18T11:39:04Z</time>
      </trkpt>
      <trkpt lat="38.9189650" lon="-6.3462440">
        <ele>234.4</ele>
        <time>2021-10-18T11:39:06Z</time>
      </trkpt>
      <trkpt lat="38.9189610" lon="-6.3462730">
        <ele>234.2</ele>
        <time>2021-10-18T11:39:07Z</time>
      </trkpt>
      <trkpt lat="38.9189590" lon="-6.3463870">
        <ele>234.0</ele>
        <time>2021-10-18T11:39:11Z</time>
      </trkpt>
      <trkpt lat="38.9189560" lon="-6.3464110">
        <ele>234.0</ele>
        <time>2021-10-18T11:39:12Z</time>
      </trkpt>
      <trkpt lat="38.9189330" lon="-6.3465820">
        <ele>233.8</ele>
        <time>2021-10-18T11:39:17Z</time>
      </trkpt>
      <trkpt lat="38.9189180" lon="-6.3466460">
        <ele>233.6</ele>
        <time>2021-10-18T11:39:19Z</time>
      </trkpt>
      <trkpt lat="38.9189020" lon="-6.3467360">
        <ele>233.0</ele>
        <time>2021-10-18T11:39:22Z</time>
      </trkpt>
      <trkpt lat="38.9188950" lon="-6.3467580">
        <ele>232.8</ele>
        <time>2021-10-18T11:39:24Z</time>
      </trkpt>
      <trkpt lat="38.9188950" lon="-6.3467580">
        <ele>232.8</ele>
        <time>2021-10-18T11:39:25Z</time>
      </trkpt>
      <trkpt lat="38.9188900" lon="-6.3468120">
        <ele>232.0</ele>
        <time>2021-10-18T11:39:34Z</time>
      </trkpt>
      <trkpt lat="38.9188910" lon="-6.3468590">
        <ele>231.8</ele>
        <time>2021-10-18T11:39:36Z</time>
      </trkpt>
      <trkpt lat="38.9188900" lon="-6.3468860">
        <ele>231.8</ele>
        <time>2021-10-18T11:39:37Z</time>
      </trkpt>
      <trkpt lat="38.9188880" lon="-6.3470120">
        <ele>231.4</ele>
        <time>2021-10-18T11:39:41Z</time>
      </trkpt>
      <trkpt lat="38.9188710" lon="-6.3472290">
        <ele>230.6</ele>
        <time>2021-10-18T11:39:47Z</time>
      </trkpt>
      <trkpt lat="38.9188700" lon="-6.3473010">
        <ele>230.2</ele>
        <time>2021-10-18T11:39:49Z</time>
      </trkpt>
      <trkpt lat="38.9188700" lon="-6.3473950">
        <ele>229.8</ele>
        <time>2021-10-18T11:39:52Z</time>
      </trkpt>
      <trkpt lat="38.9188780" lon="-6.3474190">
        <ele>229.4</ele>
        <time>2021-10-18T11:39:53Z</time>
      </trkpt>
      <trkpt lat="38.9188910" lon="-6.3474600">
        <ele>229.0</ele>
        <time>2021-10-18T11:39:55Z</time>
      </trkpt>
      <trkpt lat="38.9188940" lon="-6.3474870">
        <ele>228.8</ele>
        <time>2021-10-18T11:39:56Z</time>
      </trkpt>
      <trkpt lat="38.9188870" lon="-6.3475840">
        <ele>228.4</ele>
        <time>2021-10-18T11:39:59Z</time>
      </trkpt>
      <trkpt lat="38.9188830" lon="-6.3476170">
        <ele>228.2</ele>
        <time>2021-10-18T11:40:00Z</time>
      </trkpt>
      <trkpt lat="38.9188240" lon="-6.3477490">
        <ele>227.2</ele>
        <time>2021-10-18T11:40:04Z</time>
      </trkpt>
      <trkpt lat="38.9188080" lon="-6.3477780">
        <ele>227.2</ele>
        <time>2021-10-18T11:40:05Z</time>
      </trkpt>
      <trkpt lat="38.9187340" lon="-6.3479170">
        <ele>226.6</ele>
        <time>2021-10-18T11:40:10Z</time>
      </trkpt>
      <trkpt lat="38.9186540" lon="-6.3480570">
        <ele>226.2</ele>
        <time>2021-10-18T11:40:15Z</time>
      </trkpt>
      <trkpt lat="38.9185790" lon="-6.3481690">
        <ele>225.8</ele>
        <time>2021-10-18T11:40:19Z</time>
      </trkpt>
      <trkpt lat="38.9185580" lon="-6.3481860">
        <ele>225.8</ele>
        <time>2021-10-18T11:40:20Z</time>
      </trkpt>
      <trkpt lat="38.9185110" lon="-6.3482390">
        <ele>225.6</ele>
        <time>2021-10-18T11:40:22Z</time>
      </trkpt>
      <trkpt lat="38.9184990" lon="-6.3482680">
        <ele>225.4</ele>
        <time>2021-10-18T11:40:23Z</time>
      </trkpt>
      <trkpt lat="38.9184070" lon="-6.3483770">
        <ele>225.0</ele>
        <time>2021-10-18T11:40:28Z</time>
      </trkpt>
      <trkpt lat="38.9183870" lon="-6.3483960">
        <ele>225.0</ele>
        <time>2021-10-18T11:40:29Z</time>
      </trkpt>
      <trkpt lat="38.9182210" lon="-6.3485640">
        <ele>224.4</ele>
        <time>2021-10-18T11:40:36Z</time>
      </trkpt>
      <trkpt lat="38.9181590" lon="-6.3486600">
        <ele>224.0</ele>
        <time>2021-10-18T11:40:39Z</time>
      </trkpt>
      <trkpt lat="38.9181000" lon="-6.3487850">
        <ele>223.8</ele>
        <time>2021-10-18T11:40:42Z</time>
      </trkpt>
      <trkpt lat="38.9179720" lon="-6.3490010">
        <ele>223.4</ele>
        <time>2021-10-18T11:40:48Z</time>
      </trkpt>
      <trkpt lat="38.9179290" lon="-6.3491060">
        <ele>223.0</ele>
        <time>2021-10-18T11:40:51Z</time>
      </trkpt>
      <trkpt lat="38.9179210" lon="-6.3491820">
        <ele>222.8</ele>
        <time>2021-10-18T11:40:54Z</time>
      </trkpt>
      <trkpt lat="38.9178380" lon="-6.3493330">
        <ele>222.4</ele>
        <time>2021-10-18T11:41:00Z</time>
      </trkpt>
      <trkpt lat="38.9177600" lon="-6.3495100">
        <ele>222.0</ele>
        <time>2021-10-18T11:41:06Z</time>
      </trkpt>
      <trkpt lat="38.9177340" lon="-6.3496670">
        <ele>221.4</ele>
        <time>2021-10-18T11:41:10Z</time>
      </trkpt>
      <trkpt lat="38.9177540" lon="-6.3497690">
        <ele>220.6</ele>
        <time>2021-10-18T11:41:13Z</time>
      </trkpt>
      <trkpt lat="38.9177920" lon="-6.3498860">
        <ele>220.2</ele>
        <time>2021-10-18T11:41:16Z</time>
      </trkpt>
      <trkpt lat="38.9178280" lon="-6.3499880">
        <ele>219.4</ele>
        <time>2021-10-18T11:41:19Z</time>
      </trkpt>
      <trkpt lat="38.9178970" lon="-6.3501710">
        <ele>218.2</ele>
        <time>2021-10-18T11:41:24Z</time>
      </trkpt>
      <trkpt lat="38.9180070" lon="-6.3502480">
        <ele>217.4</ele>
        <time>2021-10-18T11:41:29Z</time>
      </trkpt>
      <trkpt lat="38.9180260" lon="-6.3502590">
        <ele>217.2</ele>
        <time>2021-10-18T11:41:30Z</time>
      </trkpt>
      <trkpt lat="38.9180420" lon="-6.3502730">
        <ele>217.0</ele>
        <time>2021-10-18T11:41:31Z</time>
      </trkpt>
      <trkpt lat="38.9180470" lon="-6.3503020">
        <ele>216.8</ele>
        <time>2021-10-18T11:41:32Z</time>
      </trkpt>
      <trkpt lat="38.9180540" lon="-6.3503650">
        <ele>216.2</ele>
        <time>2021-10-18T11:41:35Z</time>
      </trkpt>
      <trkpt lat="38.9180490" lon="-6.3504270">
        <ele>216.0</ele>
        <time>2021-10-18T11:41:39Z</time>
      </trkpt>
      <trkpt lat="38.9180150" lon="-6.3505660">
        <ele>216.0</ele>
        <time>2021-10-18T11:41:43Z</time>
      </trkpt>
      <trkpt lat="38.9179980" lon="-6.3505940">
        <ele>216.0</ele>
        <time>2021-10-18T11:41:44Z</time>
      </trkpt>
      <trkpt lat="38.9179110" lon="-6.3506980">
        <ele>215.8</ele>
        <time>2021-10-18T11:41:48Z</time>
      </trkpt>
      <trkpt lat="38.9178810" lon="-6.3507500">
        <ele>215.8</ele>
        <time>2021-10-18T11:41:50Z</time>
      </trkpt>
      <trkpt lat="38.9178700" lon="-6.3508100">
        <ele>215.8</ele>
        <time>2021-10-18T11:41:52Z</time>
      </trkpt>
      <trkpt lat="38.9178380" lon="-6.3509420">
        <ele>215.8</ele>
        <time>2021-10-18T11:41:57Z</time>
      </trkpt>
      <trkpt lat="38.9178120" lon="-6.3510420">
        <ele>215.8</ele>
        <time>2021-10-18T11:42:04Z</time>
      </trkpt>
      <trkpt lat="38.9178030" lon="-6.3510220">
        <ele>216.2</ele>
        <time>2021-10-18T11:43:54Z</time>
      </trkpt>
      <trkpt lat="38.9177990" lon="-6.3509980">
        <ele>216.2</ele>
        <time>2021-10-18T11:43:55Z</time>
      </trkpt>
      <trkpt lat="38.9177890" lon="-6.3509500">
        <ele>216.2</ele>
        <time>2021-10-18T11:43:57Z</time>
      </trkpt>
      <trkpt lat="38.9177100" lon="-6.3507970">
        <ele>216.0</ele>
        <time>2021-10-18T11:44:04Z</time>
      </trkpt>
      <trkpt lat="38.9176690" lon="-6.3507930">
        <ele>215.8</ele>
        <time>2021-10-18T11:44:06Z</time>
      </trkpt>
      <trkpt lat="38.9176450" lon="-6.3508350">
        <ele>215.6</ele>
        <time>2021-10-18T11:44:08Z</time>
      </trkpt>
      <trkpt lat="38.9175780" lon="-6.3510430">
        <ele>216.2</ele>
        <time>2021-10-18T11:44:16Z</time>
      </trkpt>
      <trkpt lat="38.9175130" lon="-6.3512220">
        <ele>216.8</ele>
        <time>2021-10-18T11:44:22Z</time>
      </trkpt>
      <trkpt lat="38.9174800" lon="-6.3513660">
        <ele>217.0</ele>
        <time>2021-10-18T11:44:26Z</time>
      </trkpt>
      <trkpt lat="38.9174050" lon="-6.3516440">
        <ele>217.0</ele>
        <time>2021-10-18T11:44:33Z</time>
      </trkpt>
      <trkpt lat="38.9173900" lon="-6.3516910">
        <ele>217.0</ele>
        <time>2021-10-18T11:44:34Z</time>
      </trkpt>
      <trkpt lat="38.9173450" lon="-6.3518490">
        <ele>217.2</ele>
        <time>2021-10-18T11:44:38Z</time>
      </trkpt>
      <trkpt lat="38.9172880" lon="-6.3520450">
        <ele>217.2</ele>
        <time>2021-10-18T11:44:43Z</time>
      </trkpt>
      <trkpt lat="38.9172490" lon="-6.3521570">
        <ele>217.2</ele>
        <time>2021-10-18T11:44:46Z</time>
      </trkpt>
      <trkpt lat="38.9172060" lon="-6.3522900">
        <ele>217.2</ele>
        <time>2021-10-18T11:44:50Z</time>
      </trkpt>
      <trkpt lat="38.9171260" lon="-6.3525550">
        <ele>217.4</ele>
        <time>2021-10-18T11:44:57Z</time>
      </trkpt>
      <trkpt lat="38.9170990" lon="-6.3526390">
        <ele>217.4</ele>
        <time>2021-10-18T11:44:59Z</time>
      </trkpt>
      <trkpt lat="38.9170660" lon="-6.3527410">
        <ele>217.6</ele>
        <time>2021-10-18T11:45:02Z</time>
      </trkpt>
      <trkpt lat="38.9170030" lon="-6.3529180">
        <ele>217.8</ele>
        <time>2021-10-18T11:45:07Z</time>
      </trkpt>
      <trkpt lat="38.9169870" lon="-6.3529570">
        <ele>217.8</ele>
        <time>2021-10-18T11:45:09Z</time>
      </trkpt>
      <trkpt lat="38.9169760" lon="-6.3530120">
        <ele>218.0</ele>
        <time>2021-10-18T11:45:11Z</time>
      </trkpt>
      <trkpt lat="38.9169500" lon="-6.3530980">
        <ele>218.0</ele>
        <time>2021-10-18T11:45:17Z</time>
      </trkpt>
      <trkpt lat="38.9169500" lon="-6.3530980">
        <ele>218.0</ele>
        <time>2021-10-18T11:45:18Z</time>
      </trkpt>
      <trkpt lat="38.9169440" lon="-6.3531830">
        <ele>217.2</ele>
        <time>2021-10-18T11:47:35Z</time>
      </trkpt>
      <trkpt lat="38.9169360" lon="-6.3532180">
        <ele>217.2</ele>
        <time>2021-10-18T11:47:36Z</time>
      </trkpt>
      <trkpt lat="38.9169250" lon="-6.3532640">
        <ele>217.2</ele>
        <time>2021-10-18T11:47:37Z</time>
      </trkpt>
      <trkpt lat="38.9168810" lon="-6.3534260">
        <ele>217.2</ele>
        <time>2021-10-18T11:47:41Z</time>
      </trkpt>
      <trkpt lat="38.9168370" lon="-6.3535670">
        <ele>217.2</ele>
        <time>2021-10-18T11:47:45Z</time>
      </trkpt>
      <trkpt lat="38.9167780" lon="-6.3537710">
        <ele>217.0</ele>
        <time>2021-10-18T11:47:50Z</time>
      </trkpt>
      <trkpt lat="38.9167280" lon="-6.3539600">
        <ele>217.2</ele>
        <time>2021-10-18T11:47:54Z</time>
      </trkpt>
      <trkpt lat="38.9166900" lon="-6.3541080">
        <ele>217.2</ele>
        <time>2021-10-18T11:47:57Z</time>
      </trkpt>
      <trkpt lat="38.9165980" lon="-6.3544030">
        <ele>217.2</ele>
        <time>2021-10-18T11:48:03Z</time>
      </trkpt>
      <trkpt lat="38.9165030" lon="-6.3546780">
        <ele>217.2</ele>
        <time>2021-10-18T11:48:09Z</time>
      </trkpt>
      <trkpt lat="38.9164950" lon="-6.3547500">
        <ele>217.2</ele>
        <time>2021-10-18T11:48:14Z</time>
      </trkpt>
      <trkpt lat="38.9164950" lon="-6.3547500">
        <ele>217.2</ele>
        <time>2021-10-18T11:48:15Z</time>
      </trkpt>
      <trkpt lat="38.9164760" lon="-6.3548130">
        <ele>217.4</ele>
        <time>2021-10-18T11:48:34Z</time>
      </trkpt>
      <trkpt lat="38.9164510" lon="-6.3549000">
        <ele>217.2</ele>
        <time>2021-10-18T11:48:36Z</time>
      </trkpt>
      <trkpt lat="38.9163610" lon="-6.3551580">
        <ele>217.2</ele>
        <time>2021-10-18T11:48:41Z</time>
      </trkpt>
      <trkpt lat="38.9163230" lon="-6.3552640">
        <ele>217.2</ele>
        <time>2021-10-18T11:48:43Z</time>
      </trkpt>
      <trkpt lat="38.9162030" lon="-6.3556700">
        <ele>217.6</ele>
        <time>2021-10-18T11:48:51Z</time>
      </trkpt>
      <trkpt lat="38.9161880" lon="-6.3557180">
        <ele>217.6</ele>
        <time>2021-10-18T11:48:52Z</time>
      </trkpt>
      <trkpt lat="38.9160580" lon="-6.3561540">
        <ele>217.6</ele>
        <time>2021-10-18T11:49:01Z</time>
      </trkpt>
      <trkpt lat="38.9160160" lon="-6.3563190">
        <ele>217.8</ele>
        <time>2021-10-18T11:49:04Z</time>
      </trkpt>
      <trkpt lat="38.9160110" lon="-6.3564190">
        <ele>217.6</ele>
        <time>2021-10-18T11:49:06Z</time>
      </trkpt>
      <trkpt lat="38.9160220" lon="-6.3564540">
        <ele>217.4</ele>
        <time>2021-10-18T11:49:08Z</time>
      </trkpt>
      <trkpt lat="38.9160370" lon="-6.3564670">
        <ele>217.2</ele>
        <time>2021-10-18T11:49:09Z</time>
      </trkpt>
      <trkpt lat="38.9161310" lon="-6.3565390">
        <ele>216.8</ele>
        <time>2021-10-18T11:49:13Z</time>
      </trkpt>
      <trkpt lat="38.9161340" lon="-6.3566680">
        <ele>216.6</ele>
        <time>2021-10-18T11:49:16Z</time>
      </trkpt>
      <trkpt lat="38.9161040" lon="-6.3568350">
        <ele>216.4</ele>
        <time>2021-10-18T11:49:19Z</time>
      </trkpt>
      <trkpt lat="38.9161110" lon="-6.3569400">
        <ele>216.4</ele>
        <time>2021-10-18T11:49:21Z</time>
      </trkpt>
      <trkpt lat="38.9162040" lon="-6.3571870">
        <ele>216.2</ele>
        <time>2021-10-18T11:49:26Z</time>
      </trkpt>
      <trkpt lat="38.9162290" lon="-6.3572270">
        <ele>216.2</ele>
        <time>2021-10-18T11:49:27Z</time>
      </trkpt>
      <trkpt lat="38.9162590" lon="-6.3572630">
        <ele>216.2</ele>
        <time>2021-10-18T11:49:28Z</time>
      </trkpt>
      <trkpt lat="38.9163670" lon="-6.3573370">
        <ele>216.0</ele>
        <time>2021-10-18T11:49:31Z</time>
      </trkpt>
      <trkpt lat="38.9164810" lon="-6.3574160">
        <ele>216.0</ele>
        <time>2021-10-18T11:49:34Z</time>
      </trkpt>
      <trkpt lat="38.9165510" lon="-6.3574830">
        <ele>216.0</ele>
        <time>2021-10-18T11:49:36Z</time>
      </trkpt>
      <trkpt lat="38.9165820" lon="-6.3575250">
        <ele>216.0</ele>
        <time>2021-10-18T11:49:37Z</time>
      </trkpt>
      <trkpt lat="38.9167990" lon="-6.3578430">
        <ele>215.8</ele>
        <time>2021-10-18T11:49:44Z</time>
      </trkpt>
      <trkpt lat="38.9168990" lon="-6.3579840">
        <ele>215.6</ele>
        <time>2021-10-18T11:49:47Z</time>
      </trkpt>
      <trkpt lat="38.9170100" lon="-6.3581080">
        <ele>215.2</ele>
        <time>2021-10-18T11:49:50Z</time>
      </trkpt>
      <trkpt lat="38.9171630" lon="-6.3583090">
        <ele>215.0</ele>
        <time>2021-10-18T11:49:54Z</time>
      </trkpt>
      <trkpt lat="38.9172060" lon="-6.3583530">
        <ele>214.8</ele>
        <time>2021-10-18T11:49:55Z</time>
      </trkpt>
      <trkpt lat="38.9173020" lon="-6.3584300">
        <ele>214.6</ele>
        <time>2021-10-18T11:49:57Z</time>
      </trkpt>
      <trkpt lat="38.9174020" lon="-6.3584900">
        <ele>214.4</ele>
        <time>2021-10-18T11:49:59Z</time>
      </trkpt>
      <trkpt lat="38.9177630" lon="-6.3586710">
        <ele>213.4</ele>
        <time>2021-10-18T11:50:06Z</time>
      </trkpt>
      <trkpt lat="38.9178690" lon="-6.3587240">
        <ele>213.2</ele>
        <time>2021-10-18T11:50:08Z</time>
      </trkpt>
      <trkpt lat="38.9181330" lon="-6.3588550">
        <ele>212.4</ele>
        <time>2021-10-18T11:50:13Z</time>
      </trkpt>
      <trkpt lat="38.9182900" lon="-6.3589200">
        <ele>212.0</ele>
        <time>2021-10-18T11:50:16Z</time>
      </trkpt>
      <trkpt lat="38.9183400" lon="-6.3589280">
        <ele>211.8</ele>
        <time>2021-10-18T11:50:17Z</time>
      </trkpt>
      <trkpt lat="38.9183880" lon="-6.3589210">
        <ele>211.8</ele>
        <time>2021-10-18T11:50:18Z</time>
      </trkpt>
      <trkpt lat="38.9184630" lon="-6.3588850">
        <ele>211.6</ele>
        <time>2021-10-18T11:50:20Z</time>
      </trkpt>
      <trkpt lat="38.9184920" lon="-6.3588640">
        <ele>211.6</ele>
        <time>2021-10-18T11:50:21Z</time>
      </trkpt>
      <trkpt lat="38.9185630" lon="-6.3587760">
        <ele>211.6</ele>
        <time>2021-10-18T11:50:24Z</time>
      </trkpt>
      <trkpt lat="38.9185800" lon="-6.3587380">
        <ele>211.6</ele>
        <time>2021-10-18T11:50:25Z</time>
      </trkpt>
      <trkpt lat="38.9186020" lon="-6.3587060">
        <ele>211.6</ele>
        <time>2021-10-18T11:50:26Z</time>
      </trkpt>
      <trkpt lat="38.9186710" lon="-6.3587050">
        <ele>211.8</ele>
        <time>2021-10-18T11:50:28Z</time>
      </trkpt>
      <trkpt lat="38.9187370" lon="-6.3587720">
        <ele>211.8</ele>
        <time>2021-10-18T11:50:30Z</time>
      </trkpt>
      <trkpt lat="38.9187540" lon="-6.3588250">
        <ele>211.8</ele>
        <time>2021-10-18T11:50:31Z</time>
      </trkpt>
      <trkpt lat="38.9187840" lon="-6.3589430">
        <ele>211.8</ele>
        <time>2021-10-18T11:50:33Z</time>
      </trkpt>
      <trkpt lat="38.9188410" lon="-6.3590590">
        <ele>211.8</ele>
        <time>2021-10-18T11:50:35Z</time>
      </trkpt>
      <trkpt lat="38.9188690" lon="-6.3591230">
        <ele>211.8</ele>
        <time>2021-10-18T11:50:36Z</time>
      </trkpt>
      <trkpt lat="38.9188990" lon="-6.3591850">
        <ele>211.8</ele>
        <time>2021-10-18T11:50:37Z</time>
      </trkpt>
      <trkpt lat="38.9189380" lon="-6.3592360">
        <ele>211.6</ele>
        <time>2021-10-18T11:50:38Z</time>
      </trkpt>
      <trkpt lat="38.9189870" lon="-6.3592740">
        <ele>211.4</ele>
        <time>2021-10-18T11:50:39Z</time>
      </trkpt>
      <trkpt lat="38.9193080" lon="-6.3594040">
        <ele>210.6</ele>
        <time>2021-10-18T11:50:45Z</time>
      </trkpt>
      <trkpt lat="38.9193730" lon="-6.3594280">
        <ele>210.6</ele>
        <time>2021-10-18T11:50:46Z</time>
      </trkpt>
      <trkpt lat="38.9199030" lon="-6.3596240">
        <ele>209.6</ele>
        <time>2021-10-18T11:50:56Z</time>
      </trkpt>
      <trkpt lat="38.9199570" lon="-6.3596470">
        <ele>209.4</ele>
        <time>2021-10-18T11:50:57Z</time>
      </trkpt>
      <trkpt lat="38.9203230" lon="-6.3597950">
        <ele>209.2</ele>
        <time>2021-10-18T11:51:04Z</time>
      </trkpt>
      <trkpt lat="38.9207680" lon="-6.3599760">
        <ele>209.8</ele>
        <time>2021-10-18T11:51:13Z</time>
      </trkpt>
      <trkpt lat="38.9210240" lon="-6.3601520">
        <ele>210.0</ele>
        <time>2021-10-18T11:51:19Z</time>
      </trkpt>
      <trkpt lat="38.9211920" lon="-6.3603340">
        <ele>210.4</ele>
        <time>2021-10-18T11:51:24Z</time>
      </trkpt>
      <trkpt lat="38.9212220" lon="-6.3603720">
        <ele>210.4</ele>
        <time>2021-10-18T11:51:25Z</time>
      </trkpt>
      <trkpt lat="38.9212500" lon="-6.3604080">
        <ele>210.6</ele>
        <time>2021-10-18T11:51:26Z</time>
      </trkpt>
      <trkpt lat="38.9214400" lon="-6.3606600">
        <ele>211.4</ele>
        <time>2021-10-18T11:51:33Z</time>
      </trkpt>
      <trkpt lat="38.9214640" lon="-6.3606970">
        <ele>211.6</ele>
        <time>2021-10-18T11:51:34Z</time>
      </trkpt>
      <trkpt lat="38.9216650" lon="-6.3609710">
        <ele>212.8</ele>
        <time>2021-10-18T11:51:42Z</time>
      </trkpt>
      <trkpt lat="38.9216900" lon="-6.3610050">
        <ele>212.8</ele>
        <time>2021-10-18T11:51:43Z</time>
      </trkpt>
      <trkpt lat="38.9218740" lon="-6.3612430">
        <ele>213.4</ele>
        <time>2021-10-18T11:51:50Z</time>
      </trkpt>
      <trkpt lat="38.9219770" lon="-6.3613860">
        <ele>213.6</ele>
        <time>2021-10-18T11:51:54Z</time>
      </trkpt>
      <trkpt lat="38.9221350" lon="-6.3616090">
        <ele>213.8</ele>
        <time>2021-10-18T11:52:00Z</time>
      </trkpt>
      <trkpt lat="38.9222290" lon="-6.3617510">
        <ele>213.8</ele>
        <time>2021-10-18T11:52:04Z</time>
      </trkpt>
      <trkpt lat="38.9222750" lon="-6.3618770">
        <ele>214.0</ele>
        <time>2021-10-18T11:52:08Z</time>
      </trkpt>
      <trkpt lat="38.9222100" lon="-6.3620350">
        <ele>214.0</ele>
        <time>2021-10-18T11:52:13Z</time>
      </trkpt>
      <trkpt lat="38.9222170" lon="-6.3621830">
        <ele>214.0</ele>
        <time>2021-10-18T11:52:17Z</time>
      </trkpt>
      <trkpt lat="38.9221950" lon="-6.3622630">
        <ele>214.0</ele>
        <time>2021-10-18T11:52:19Z</time>
      </trkpt>
      <trkpt lat="38.9221110" lon="-6.3623860">
        <ele>214.4</ele>
        <time>2021-10-18T11:52:23Z</time>
      </trkpt>
      <trkpt lat="38.9221170" lon="-6.3624960">
        <ele>214.4</ele>
        <time>2021-10-18T11:52:26Z</time>
      </trkpt>
      <trkpt lat="38.9221380" lon="-6.3625200">
        <ele>214.4</ele>
        <time>2021-10-18T11:52:27Z</time>
      </trkpt>
      <trkpt lat="38.9222400" lon="-6.3626200">
        <ele>214.6</ele>
        <time>2021-10-18T11:52:31Z</time>
      </trkpt>
      <trkpt lat="38.9222500" lon="-6.3626610">
        <ele>214.6</ele>
        <time>2021-10-18T11:52:32Z</time>
      </trkpt>
      <trkpt lat="38.9222470" lon="-6.3627040">
        <ele>214.6</ele>
        <time>2021-10-18T11:52:33Z</time>
      </trkpt>
      <trkpt lat="38.9222080" lon="-6.3628100">
        <ele>214.6</ele>
        <time>2021-10-18T11:52:36Z</time>
      </trkpt>
      <trkpt lat="38.9221180" lon="-6.3628680">
        <ele>214.8</ele>
        <time>2021-10-18T11:52:40Z</time>
      </trkpt>
      <trkpt lat="38.9221130" lon="-6.3628920">
        <ele>214.8</ele>
        <time>2021-10-18T11:52:41Z</time>
      </trkpt>
      <trkpt lat="38.9221230" lon="-6.3629200">
        <ele>214.8</ele>
        <time>2021-10-18T11:52:42Z</time>
      </trkpt>
      <trkpt lat="38.9221990" lon="-6.3631750">
        <ele>215.4</ele>
        <time>2021-10-18T11:52:49Z</time>
      </trkpt>
      <trkpt lat="38.9221810" lon="-6.3633860">
        <ele>216.2</ele>
        <time>2021-10-18T11:52:55Z</time>
      </trkpt>
      <trkpt lat="38.9221710" lon="-6.3634460">
        <ele>216.8</ele>
        <time>2021-10-18T11:52:57Z</time>
      </trkpt>
      <trkpt lat="38.9221590" lon="-6.3635220">
        <ele>217.6</ele>
        <time>2021-10-18T11:53:00Z</time>
      </trkpt>
      <trkpt lat="38.9221590" lon="-6.3635780">
        <ele>218.0</ele>
        <time>2021-10-18T11:53:02Z</time>
      </trkpt>
      <trkpt lat="38.9221220" lon="-6.3637680">
        <ele>218.8</ele>
        <time>2021-10-18T11:53:08Z</time>
      </trkpt>
      <trkpt lat="38.9221030" lon="-6.3639220">
        <ele>219.2</ele>
        <time>2021-10-18T11:53:13Z</time>
      </trkpt>
      <trkpt lat="38.9220900" lon="-6.3640120">
        <ele>219.6</ele>
        <time>2021-10-18T11:53:16Z</time>
      </trkpt>
      <trkpt lat="38.9220850" lon="-6.3641070">
        <ele>219.8</ele>
        <time>2021-10-18T11:53:19Z</time>
      </trkpt>
      <trkpt lat="38.9220790" lon="-6.3641740">
        <ele>220.0</ele>
        <time>2021-10-18T11:53:21Z</time>
      </trkpt>
      <trkpt lat="38.9220540" lon="-6.3642620">
        <ele>220.2</ele>
        <time>2021-10-18T11:53:24Z</time>
      </trkpt>
      <trkpt lat="38.9220330" lon="-6.3643500">
        <ele>220.6</ele>
        <time>2021-10-18T11:53:27Z</time>
      </trkpt>
      <trkpt lat="38.9220300" lon="-6.3643790">
        <ele>221.0</ele>
        <time>2021-10-18T11:53:28Z</time>
      </trkpt>
      <trkpt lat="38.9219790" lon="-6.3646210">
        <ele>222.0</ele>
        <time>2021-10-18T11:53:37Z</time>
      </trkpt>
      <trkpt lat="38.9219710" lon="-6.3647070">
        <ele>222.2</ele>
        <time>2021-10-18T11:53:40Z</time>
      </trkpt>
      <trkpt lat="38.9219400" lon="-6.3648530">
        <ele>222.8</ele>
        <time>2021-10-18T11:53:45Z</time>
      </trkpt>
      <trkpt lat="38.9219190" lon="-6.3649360">
        <ele>223.0</ele>
        <time>2021-10-18T11:53:48Z</time>
      </trkpt>
      <trkpt lat="38.9219120" lon="-6.3649850">
        <ele>223.6</ele>
        <time>2021-10-18T11:53:50Z</time>
      </trkpt>
      <trkpt lat="38.9219030" lon="-6.3650440">
        <ele>223.8</ele>
        <time>2021-10-18T11:53:52Z</time>
      </trkpt>
      <trkpt lat="38.9218980" lon="-6.3650720">
        <ele>224.0</ele>
        <time>2021-10-18T11:53:53Z</time>
      </trkpt>
      <trkpt lat="38.9218900" lon="-6.3651250">
        <ele>224.4</ele>
        <time>2021-10-18T11:53:55Z</time>
      </trkpt>
      <trkpt lat="38.9218690" lon="-6.3652350">
        <ele>224.6</ele>
        <time>2021-10-18T11:53:59Z</time>
      </trkpt>
      <trkpt lat="38.9218610" lon="-6.3652640">
        <ele>225.0</ele>
        <time>2021-10-18T11:54:00Z</time>
      </trkpt>
      <trkpt lat="38.9218330" lon="-6.3654330">
        <ele>225.4</ele>
        <time>2021-10-18T11:54:06Z</time>
      </trkpt>
      <trkpt lat="38.9218090" lon="-6.3655440">
        <ele>225.8</ele>
        <time>2021-10-18T11:54:10Z</time>
      </trkpt>
      <trkpt lat="38.9217940" lon="-6.3656610">
        <ele>226.2</ele>
        <time>2021-10-18T11:54:14Z</time>
      </trkpt>
      <trkpt lat="38.9217840" lon="-6.3657260">
        <ele>226.4</ele>
        <time>2021-10-18T11:54:16Z</time>
      </trkpt>
      <trkpt lat="38.9217780" lon="-6.3657580">
        <ele>226.6</ele>
        <time>2021-10-18T11:54:17Z</time>
      </trkpt>
      <trkpt lat="38.9217710" lon="-6.3657900">
        <ele>226.6</ele>
        <time>2021-10-18T11:54:18Z</time>
      </trkpt>
      <trkpt lat="38.9217540" lon="-6.3658810">
        <ele>227.0</ele>
        <time>2021-10-18T11:54:21Z</time>
      </trkpt>
      <trkpt lat="38.9217210" lon="-6.3660140">
        <ele>227.6</ele>
        <time>2021-10-18T11:54:26Z</time>
      </trkpt>
      <trkpt lat="38.9217170" lon="-6.3660640">
        <ele>227.8</ele>
        <time>2021-10-18T11:54:28Z</time>
      </trkpt>
      <trkpt lat="38.9217090" lon="-6.3661440">
        <ele>228.2</ele>
        <time>2021-10-18T11:54:31Z</time>
      </trkpt>
      <trkpt lat="38.9217050" lon="-6.3662880">
        <ele>228.6</ele>
        <time>2021-10-18T11:54:36Z</time>
      </trkpt>
      <trkpt lat="38.9216760" lon="-6.3664480">
        <ele>229.6</ele>
        <time>2021-10-18T11:54:42Z</time>
      </trkpt>
      <trkpt lat="38.9216630" lon="-6.3665040">
        <ele>229.8</ele>
        <time>2021-10-18T11:54:44Z</time>
      </trkpt>
      <trkpt lat="38.9216610" lon="-6.3665860">
        <ele>230.2</ele>
        <time>2021-10-18T11:54:47Z</time>
      </trkpt>
      <trkpt lat="38.9216520" lon="-6.3666680">
        <ele>230.4</ele>
        <time>2021-10-18T11:54:50Z</time>
      </trkpt>
      <trkpt lat="38.9216510" lon="-6.3667030">
        <ele>230.6</ele>
        <time>2021-10-18T11:54:51Z</time>
      </trkpt>
      <trkpt lat="38.9216560" lon="-6.3667350">
        <ele>230.8</ele>
        <time>2021-10-18T11:54:52Z</time>
      </trkpt>
      <trkpt lat="38.9216010" lon="-6.3669050">
        <ele>231.4</ele>
        <time>2021-10-18T11:54:57Z</time>
      </trkpt>
      <trkpt lat="38.9215670" lon="-6.3670790">
        <ele>232.2</ele>
        <time>2021-10-18T11:55:02Z</time>
      </trkpt>
      <trkpt lat="38.9215610" lon="-6.3671550">
        <ele>232.2</ele>
        <time>2021-10-18T11:55:04Z</time>
      </trkpt>
      <trkpt lat="38.9216410" lon="-6.3672990">
        <ele>232.8</ele>
        <time>2021-10-18T11:55:09Z</time>
      </trkpt>
      <trkpt lat="38.9216850" lon="-6.3673600">
        <ele>233.0</ele>
        <time>2021-10-18T11:55:11Z</time>
      </trkpt>
      <trkpt lat="38.9218090" lon="-6.3675240">
        <ele>233.4</ele>
        <time>2021-10-18T11:55:16Z</time>
      </trkpt>
      <trkpt lat="38.9219380" lon="-6.3677030">
        <ele>233.4</ele>
        <time>2021-10-18T11:55:21Z</time>
      </trkpt>
      <trkpt lat="38.9220350" lon="-6.3678590">
        <ele>233.6</ele>
        <time>2021-10-18T11:55:25Z</time>
      </trkpt>
      <trkpt lat="38.9221060" lon="-6.3679800">
        <ele>233.8</ele>
        <time>2021-10-18T11:55:28Z</time>
      </trkpt>
      <trkpt lat="38.9221970" lon="-6.3681250">
        <ele>233.8</ele>
        <time>2021-10-18T11:55:32Z</time>
      </trkpt>
      <trkpt lat="38.9222530" lon="-6.3682250">
        <ele>234.0</ele>
        <time>2021-10-18T11:55:35Z</time>
      </trkpt>
      <trkpt lat="38.9222790" lon="-6.3682850">
        <ele>234.0</ele>
        <time>2021-10-18T11:55:37Z</time>
      </trkpt>
      <trkpt lat="38.9223090" lon="-6.3683370">
        <ele>234.0</ele>
        <time>2021-10-18T11:55:39Z</time>
      </trkpt>
      <trkpt lat="38.9223920" lon="-6.3684140">
        <ele>234.4</ele>
        <time>2021-10-18T11:55:44Z</time>
      </trkpt>
      <trkpt lat="38.9223930" lon="-6.3685490">
        <ele>234.6</ele>
        <time>2021-10-18T11:55:49Z</time>
      </trkpt>
      <trkpt lat="38.9222880" lon="-6.3686890">
        <ele>234.8</ele>
        <time>2021-10-18T11:55:54Z</time>
      </trkpt>
      <trkpt lat="38.9221230" lon="-6.3688510">
        <ele>235.0</ele>
        <time>2021-10-18T11:56:00Z</time>
      </trkpt>
      <trkpt lat="38.9219590" lon="-6.3690180">
        <ele>236.0</ele>
        <time>2021-10-18T11:56:06Z</time>
      </trkpt>
      <trkpt lat="38.9219350" lon="-6.3690500">
        <ele>236.0</ele>
        <time>2021-10-18T11:56:07Z</time>
      </trkpt>
      <trkpt lat="38.9219120" lon="-6.3690840">
        <ele>236.2</ele>
        <time>2021-10-18T11:56:08Z</time>
      </trkpt>
      <trkpt lat="38.9218160" lon="-6.3692000">
        <ele>236.8</ele>
        <time>2021-10-18T11:56:12Z</time>
      </trkpt>
      <trkpt lat="38.9217380" lon="-6.3692570">
        <ele>237.4</ele>
        <time>2021-10-18T11:56:15Z</time>
      </trkpt>
      <trkpt lat="38.9216230" lon="-6.3694610">
        <ele>238.4</ele>
        <time>2021-10-18T11:56:21Z</time>
      </trkpt>
      <trkpt lat="38.9216310" lon="-6.3697140">
        <ele>239.2</ele>
        <time>2021-10-18T11:56:27Z</time>
      </trkpt>
      <trkpt lat="38.9216010" lon="-6.3699740">
        <ele>239.4</ele>
        <time>2021-10-18T11:56:32Z</time>
      </trkpt>
      <trkpt lat="38.9216000" lon="-6.3701990">
        <ele>239.4</ele>
        <time>2021-10-18T11:56:36Z</time>
      </trkpt>
      <trkpt lat="38.9216140" lon="-6.3702560">
        <ele>239.2</ele>
        <time>2021-10-18T11:56:37Z</time>
      </trkpt>
      <trkpt lat="38.9217460" lon="-6.3706220">
        <ele>239.2</ele>
        <time>2021-10-18T11:56:43Z</time>
      </trkpt>
      <trkpt lat="38.9218820" lon="-6.3710780">
        <ele>238.8</ele>
        <time>2021-10-18T11:56:50Z</time>
      </trkpt>
      <trkpt lat="38.9219000" lon="-6.3711450">
        <ele>238.8</ele>
        <time>2021-10-18T11:56:51Z</time>
      </trkpt>
      <trkpt lat="38.9219990" lon="-6.3715530">
        <ele>238.2</ele>
        <time>2021-10-18T11:56:57Z</time>
      </trkpt>
      <trkpt lat="38.9220660" lon="-6.3718130">
        <ele>237.8</ele>
        <time>2021-10-18T11:57:01Z</time>
      </trkpt>
      <trkpt lat="38.9221320" lon="-6.3721280">
        <ele>237.4</ele>
        <time>2021-10-18T11:57:06Z</time>
      </trkpt>
      <trkpt lat="38.9221750" lon="-6.3723060">
        <ele>237.0</ele>
        <time>2021-10-18T11:57:09Z</time>
      </trkpt>
      <trkpt lat="38.9222020" lon="-6.3724350">
        <ele>237.0</ele>
        <time>2021-10-18T11:57:11Z</time>
      </trkpt>
      <trkpt lat="38.9222420" lon="-6.3726450">
        <ele>236.4</ele>
        <time>2021-10-18T11:57:14Z</time>
      </trkpt>
      <trkpt lat="38.9222970" lon="-6.3728490">
        <ele>235.6</ele>
        <time>2021-10-18T11:57:17Z</time>
      </trkpt>
      <trkpt lat="38.9223320" lon="-6.3729120">
        <ele>235.4</ele>
        <time>2021-10-18T11:57:18Z</time>
      </trkpt>
      <trkpt lat="38.9223730" lon="-6.3729700">
        <ele>235.0</ele>
        <time>2021-10-18T11:57:19Z</time>
      </trkpt>
      <trkpt lat="38.9225280" lon="-6.3730930">
        <ele>234.2</ele>
        <time>2021-10-18T11:57:22Z</time>
      </trkpt>
      <trkpt lat="38.9226090" lon="-6.3731980">
        <ele>233.8</ele>
        <time>2021-10-18T11:57:24Z</time>
      </trkpt>
      <trkpt lat="38.9226360" lon="-6.3732650">
        <ele>233.6</ele>
        <time>2021-10-18T11:57:25Z</time>
      </trkpt>
      <trkpt lat="38.9226530" lon="-6.3733390">
        <ele>233.4</ele>
        <time>2021-10-18T11:57:26Z</time>
      </trkpt>
      <trkpt lat="38.9226620" lon="-6.3734940">
        <ele>233.0</ele>
        <time>2021-10-18T11:57:28Z</time>
      </trkpt>
      <trkpt lat="38.9226470" lon="-6.3735730">
        <ele>232.8</ele>
        <time>2021-10-18T11:57:29Z</time>
      </trkpt>
      <trkpt lat="38.9226160" lon="-6.3736590">
        <ele>232.8</ele>
        <time>2021-10-18T11:57:30Z</time>
      </trkpt>
      <trkpt lat="38.9225410" lon="-6.3737600">
        <ele>232.4</ele>
        <time>2021-10-18T11:57:32Z</time>
      </trkpt>
      <trkpt lat="38.9224320" lon="-6.3738280">
        <ele>232.2</ele>
        <time>2021-10-18T11:57:34Z</time>
      </trkpt>
      <trkpt lat="38.9223710" lon="-6.3738440">
        <ele>232.0</ele>
        <time>2021-10-18T11:57:35Z</time>
      </trkpt>
      <trkpt lat="38.9223070" lon="-6.3738440">
        <ele>231.8</ele>
        <time>2021-10-18T11:57:36Z</time>
      </trkpt>
      <trkpt lat="38.9221850" lon="-6.3738120">
        <ele>231.8</ele>
        <time>2021-10-18T11:57:38Z</time>
      </trkpt>
      <trkpt lat="38.9221330" lon="-6.3737780">
        <ele>231.8</ele>
        <time>2021-10-18T11:57:39Z</time>
      </trkpt>
      <trkpt lat="38.9220880" lon="-6.3737360">
        <ele>231.8</ele>
        <time>2021-10-18T11:57:40Z</time>
      </trkpt>
      <trkpt lat="38.9220130" lon="-6.3736520">
        <ele>231.8</ele>
        <time>2021-10-18T11:57:42Z</time>
      </trkpt>
      <trkpt lat="38.9219390" lon="-6.3735740">
        <ele>232.0</ele>
        <time>2021-10-18T11:57:44Z</time>
      </trkpt>
      <trkpt lat="38.9218640" lon="-6.3735100">
        <ele>232.0</ele>
        <time>2021-10-18T11:57:46Z</time>
      </trkpt>
      <trkpt lat="38.9217490" lon="-6.3734510">
        <ele>232.4</ele>
        <time>2021-10-18T11:57:49Z</time>
      </trkpt>
      <trkpt lat="38.9216150" lon="-6.3734310">
        <ele>232.6</ele>
        <time>2021-10-18T11:57:53Z</time>
      </trkpt>
      <trkpt lat="38.9215920" lon="-6.3734600">
        <ele>232.6</ele>
        <time>2021-10-18T11:57:54Z</time>
      </trkpt>
      <trkpt lat="38.9215450" lon="-6.3735750">
        <ele>232.6</ele>
        <time>2021-10-18T11:57:58Z</time>
      </trkpt>
      <trkpt lat="38.9214470" lon="-6.3735940">
        <ele>232.8</ele>
        <time>2021-10-18T11:58:01Z</time>
      </trkpt>
      <trkpt lat="38.9213050" lon="-6.3736200">
        <ele>233.0</ele>
        <time>2021-10-18T11:58:05Z</time>
      </trkpt>
      <trkpt lat="38.9212160" lon="-6.3736590">
        <ele>233.0</ele>
        <time>2021-10-18T11:58:09Z</time>
      </trkpt>
      <trkpt lat="38.9212010" lon="-6.3736580">
        <ele>233.0</ele>
        <time>2021-10-18T11:58:10Z</time>
      </trkpt>
      <trkpt lat="38.9211850" lon="-6.3736520">
        <ele>233.0</ele>
        <time>2021-10-18T11:58:11Z</time>
      </trkpt>
      <trkpt lat="38.9211710" lon="-6.3736210">
        <ele>233.0</ele>
        <time>2021-10-18T11:58:13Z</time>
      </trkpt>
      <trkpt lat="38.9211800" lon="-6.3736100">
        <ele>233.0</ele>
        <time>2021-10-18T11:58:14Z</time>
      </trkpt>
      <trkpt lat="38.9212150" lon="-6.3735790">
        <ele>232.8</ele>
        <time>2021-10-18T11:58:19Z</time>
      </trkpt>
      <trkpt lat="38.9211260" lon="-6.3735770">
        <ele>234.0</ele>
        <time>2021-10-18T12:08:55Z</time>
      </trkpt>
      <trkpt lat="38.9211070" lon="-6.3735400">
        <ele>234.0</ele>
        <time>2021-10-18T12:08:57Z</time>
      </trkpt>
      <trkpt lat="38.9211060" lon="-6.3735190">
        <ele>234.0</ele>
        <time>2021-10-18T12:08:59Z</time>
      </trkpt>
      <trkpt lat="38.9211060" lon="-6.3735190">
        <ele>234.0</ele>
        <time>2021-10-18T12:09:01Z</time>
      </trkpt>
      <trkpt lat="38.9211580" lon="-6.3734990">
        <ele>234.0</ele>
        <time>2021-10-18T12:09:37Z</time>
      </trkpt>
      <trkpt lat="38.9211770" lon="-6.3734960">
        <ele>234.2</ele>
        <time>2021-10-18T12:09:38Z</time>
      </trkpt>
      <trkpt lat="38.9213250" lon="-6.3734710">
        <ele>234.4</ele>
        <time>2021-10-18T12:09:44Z</time>
      </trkpt>
      <trkpt lat="38.9215360" lon="-6.3734620">
        <ele>234.4</ele>
        <time>2021-10-18T12:09:52Z</time>
      </trkpt>
      <trkpt lat="38.9216070" lon="-6.3734340">
        <ele>234.2</ele>
        <time>2021-10-18T12:09:55Z</time>
      </trkpt>
      <trkpt lat="38.9216260" lon="-6.3734010">
        <ele>234.2</ele>
        <time>2021-10-18T12:09:56Z</time>
      </trkpt>
      <trkpt lat="38.9217400" lon="-6.3733210">
        <ele>234.0</ele>
        <time>2021-10-18T12:10:01Z</time>
      </trkpt>
      <trkpt lat="38.9218680" lon="-6.3733230">
        <ele>233.8</ele>
        <time>2021-10-18T12:10:08Z</time>
      </trkpt>
      <trkpt lat="38.9219430" lon="-6.3732850">
        <ele>234.0</ele>
        <time>2021-10-18T12:10:14Z</time>
      </trkpt>
      <trkpt lat="38.9220080" lon="-6.3732120">
        <ele>234.2</ele>
        <time>2021-10-18T12:10:21Z</time>
      </trkpt>
      <trkpt lat="38.9220220" lon="-6.3731840">
        <ele>234.2</ele>
        <time>2021-10-18T12:10:23Z</time>
      </trkpt>
      <trkpt lat="38.9220820" lon="-6.3731350">
        <ele>234.2</ele>
        <time>2021-10-18T12:10:28Z</time>
      </trkpt>
      <trkpt lat="38.9221830" lon="-6.3730910">
        <ele>234.6</ele>
        <time>2021-10-18T12:10:32Z</time>
      </trkpt>
      <trkpt lat="38.9223670" lon="-6.3730490">
        <ele>234.8</ele>
        <time>2021-10-18T12:10:37Z</time>
      </trkpt>
      <trkpt lat="38.9225030" lon="-6.3730970">
        <ele>234.8</ele>
        <time>2021-10-18T12:10:40Z</time>
      </trkpt>
      <trkpt lat="38.9225900" lon="-6.3731780">
        <ele>235.0</ele>
        <time>2021-10-18T12:10:42Z</time>
      </trkpt>
      <trkpt lat="38.9226440" lon="-6.3733080">
        <ele>235.0</ele>
        <time>2021-10-18T12:10:44Z</time>
      </trkpt>
      <trkpt lat="38.9226550" lon="-6.3733820">
        <ele>235.0</ele>
        <time>2021-10-18T12:10:45Z</time>
      </trkpt>
      <trkpt lat="38.9226570" lon="-6.3734590">
        <ele>235.0</ele>
        <time>2021-10-18T12:10:46Z</time>
      </trkpt>
      <trkpt lat="38.9226230" lon="-6.3736080">
        <ele>234.6</ele>
        <time>2021-10-18T12:10:48Z</time>
      </trkpt>
      <trkpt lat="38.9224780" lon="-6.3738650">
        <ele>234.2</ele>
        <time>2021-10-18T12:10:52Z</time>
      </trkpt>
      <trkpt lat="38.9224540" lon="-6.3739360">
        <ele>234.0</ele>
        <time>2021-10-18T12:10:53Z</time>
      </trkpt>
      <trkpt lat="38.9224420" lon="-6.3740110">
        <ele>233.8</ele>
        <time>2021-10-18T12:10:54Z</time>
      </trkpt>
      <trkpt lat="38.9224500" lon="-6.3741650">
        <ele>233.4</ele>
        <time>2021-10-18T12:10:56Z</time>
      </trkpt>
      <trkpt lat="38.9224900" lon="-6.3744690">
        <ele>232.8</ele>
        <time>2021-10-18T12:11:00Z</time>
      </trkpt>
      <trkpt lat="38.9225480" lon="-6.3746020">
        <ele>232.4</ele>
        <time>2021-10-18T12:11:02Z</time>
      </trkpt>
      <trkpt lat="38.9226450" lon="-6.3747110">
        <ele>231.4</ele>
        <time>2021-10-18T12:11:04Z</time>
      </trkpt>
      <trkpt lat="38.9227150" lon="-6.3748490">
        <ele>231.0</ele>
        <time>2021-10-18T12:11:06Z</time>
      </trkpt>
      <trkpt lat="38.9227310" lon="-6.3750080">
        <ele>230.0</ele>
        <time>2021-10-18T12:11:08Z</time>
      </trkpt>
      <trkpt lat="38.9227180" lon="-6.3750820">
        <ele>229.4</ele>
        <time>2021-10-18T12:11:09Z</time>
      </trkpt>
      <trkpt lat="38.9226950" lon="-6.3751450">
        <ele>229.0</ele>
        <time>2021-10-18T12:11:10Z</time>
      </trkpt>
      <trkpt lat="38.9226650" lon="-6.3751960">
        <ele>228.4</ele>
        <time>2021-10-18T12:11:11Z</time>
      </trkpt>
      <trkpt lat="38.9226330" lon="-6.3752330">
        <ele>228.2</ele>
        <time>2021-10-18T12:11:12Z</time>
      </trkpt>
      <trkpt lat="38.9225790" lon="-6.3752760">
        <ele>227.2</ele>
        <time>2021-10-18T12:11:14Z</time>
      </trkpt>
      <trkpt lat="38.9225330" lon="-6.3752970">
        <ele>226.8</ele>
        <time>2021-10-18T12:11:16Z</time>
      </trkpt>
      <trkpt lat="38.9223460" lon="-6.3752890">
        <ele>226.6</ele>
        <time>2021-10-18T12:11:22Z</time>
      </trkpt>
      <trkpt lat="38.9221050" lon="-6.3752710">
        <ele>227.0</ele>
        <time>2021-10-18T12:11:29Z</time>
      </trkpt>
      <trkpt lat="38.9219650" lon="-6.3752310">
        <ele>227.8</ele>
        <time>2021-10-18T12:11:34Z</time>
      </trkpt>
      <trkpt lat="38.9217400" lon="-6.3752530">
        <ele>228.4</ele>
        <time>2021-10-18T12:11:40Z</time>
      </trkpt>
      <trkpt lat="38.9217060" lon="-6.3752590">
        <ele>228.4</ele>
        <time>2021-10-18T12:11:41Z</time>
      </trkpt>
      <trkpt lat="38.9215930" lon="-6.3752750">
        <ele>228.6</ele>
        <time>2021-10-18T12:11:45Z</time>
      </trkpt>
      <trkpt lat="38.9215460" lon="-6.3752790">
        <ele>229.0</ele>
        <time>2021-10-18T12:11:47Z</time>
      </trkpt>
      <trkpt lat="38.9214890" lon="-6.3752670">
        <ele>229.4</ele>
        <time>2021-10-18T12:11:50Z</time>
      </trkpt>
      <trkpt lat="38.9214630" lon="-6.3752510">
        <ele>229.4</ele>
        <time>2021-10-18T12:11:52Z</time>
      </trkpt>
      <trkpt lat="38.9214240" lon="-6.3752180">
        <ele>229.8</ele>
        <time>2021-10-18T12:11:57Z</time>
      </trkpt>
      <trkpt lat="38.9214240" lon="-6.3752180">
        <ele>229.8</ele>
        <time>2021-10-18T12:11:59Z</time>
      </trkpt>
      <trkpt lat="38.9214880" lon="-6.3752040">
        <ele>230.2</ele>
        <time>2021-10-18T12:16:52Z</time>
      </trkpt>
      <trkpt lat="38.9215050" lon="-6.3752060">
        <ele>230.2</ele>
        <time>2021-10-18T12:16:53Z</time>
      </trkpt>
      <trkpt lat="38.9215460" lon="-6.3752160">
        <ele>230.2</ele>
        <time>2021-10-18T12:16:55Z</time>
      </trkpt>
      <trkpt lat="38.9217120" lon="-6.3752020">
        <ele>229.8</ele>
        <time>2021-10-18T12:17:01Z</time>
      </trkpt>
      <trkpt lat="38.9219120" lon="-6.3751670">
        <ele>229.2</ele>
        <time>2021-10-18T12:17:07Z</time>
      </trkpt>
      <trkpt lat="38.9221010" lon="-6.3751330">
        <ele>229.0</ele>
        <time>2021-10-18T12:17:13Z</time>
      </trkpt>
      <trkpt lat="38.9221860" lon="-6.3750590">
        <ele>228.8</ele>
        <time>2021-10-18T12:17:16Z</time>
      </trkpt>
      <trkpt lat="38.9222290" lon="-6.3748720">
        <ele>228.6</ele>
        <time>2021-10-18T12:17:20Z</time>
      </trkpt>
      <trkpt lat="38.9223270" lon="-6.3746510">
        <ele>228.4</ele>
        <time>2021-10-18T12:17:26Z</time>
      </trkpt>
      <trkpt lat="38.9223780" lon="-6.3744230">
        <ele>228.8</ele>
        <time>2021-10-18T12:17:32Z</time>
      </trkpt>
      <trkpt lat="38.9223580" lon="-6.3742010">
        <ele>230.2</ele>
        <time>2021-10-18T12:17:38Z</time>
      </trkpt>
      <trkpt lat="38.9223460" lon="-6.3741300">
        <ele>230.6</ele>
        <time>2021-10-18T12:17:40Z</time>
      </trkpt>
      <trkpt lat="38.9223310" lon="-6.3740310">
        <ele>231.2</ele>
        <time>2021-10-18T12:17:43Z</time>
      </trkpt>
      <trkpt lat="38.9222790" lon="-6.3739030">
        <ele>232.2</ele>
        <time>2021-10-18T12:17:47Z</time>
      </trkpt>
      <trkpt lat="38.9222550" lon="-6.3738780">
        <ele>232.2</ele>
        <time>2021-10-18T12:17:48Z</time>
      </trkpt>
      <trkpt lat="38.9221410" lon="-6.3738060">
        <ele>232.6</ele>
        <time>2021-10-18T12:17:52Z</time>
      </trkpt>
      <trkpt lat="38.9220200" lon="-6.3736630">
        <ele>233.4</ele>
        <time>2021-10-18T12:17:57Z</time>
      </trkpt>
      <trkpt lat="38.9220010" lon="-6.3736280">
        <ele>233.6</ele>
        <time>2021-10-18T12:17:58Z</time>
      </trkpt>
      <trkpt lat="38.9219650" lon="-6.3733980">
        <ele>234.0</ele>
        <time>2021-10-18T12:18:04Z</time>
      </trkpt>
      <trkpt lat="38.9220000" lon="-6.3731780">
        <ele>234.6</ele>
        <time>2021-10-18T12:18:10Z</time>
      </trkpt>
      <trkpt lat="38.9220980" lon="-6.3730380">
        <ele>234.8</ele>
        <time>2021-10-18T12:18:15Z</time>
      </trkpt>
      <trkpt lat="38.9221680" lon="-6.3728570">
        <ele>235.4</ele>
        <time>2021-10-18T12:18:20Z</time>
      </trkpt>
      <trkpt lat="38.9221690" lon="-6.3728170">
        <ele>235.6</ele>
        <time>2021-10-18T12:18:21Z</time>
      </trkpt>
      <trkpt lat="38.9221500" lon="-6.3726280">
        <ele>236.2</ele>
        <time>2021-10-18T12:18:26Z</time>
      </trkpt>
      <trkpt lat="38.9221210" lon="-6.3724910">
        <ele>236.6</ele>
        <time>2021-10-18T12:18:30Z</time>
      </trkpt>
      <trkpt lat="38.9220850" lon="-6.3723240">
        <ele>237.6</ele>
        <time>2021-10-18T12:18:35Z</time>
      </trkpt>
      <trkpt lat="38.9220770" lon="-6.3722920">
        <ele>237.6</ele>
        <time>2021-10-18T12:18:36Z</time>
      </trkpt>
      <trkpt lat="38.9220490" lon="-6.3721600">
        <ele>238.4</ele>
        <time>2021-10-18T12:18:40Z</time>
      </trkpt>
      <trkpt lat="38.9220200" lon="-6.3720500">
        <ele>238.6</ele>
        <time>2021-10-18T12:18:43Z</time>
      </trkpt>
      <trkpt lat="38.9220130" lon="-6.3720220">
        <ele>238.6</ele>
        <time>2021-10-18T12:18:44Z</time>
      </trkpt>
      <trkpt lat="38.9219670" lon="-6.3718390">
        <ele>239.0</ele>
        <time>2021-10-18T12:18:49Z</time>
      </trkpt>
      <trkpt lat="38.9219470" lon="-6.3717670">
        <ele>239.4</ele>
        <time>2021-10-18T12:18:51Z</time>
      </trkpt>
      <trkpt lat="38.9219200" lon="-6.3716580">
        <ele>239.6</ele>
        <time>2021-10-18T12:18:54Z</time>
      </trkpt>
      <trkpt lat="38.9218890" lon="-6.3715400">
        <ele>239.6</ele>
        <time>2021-10-18T12:18:57Z</time>
      </trkpt>
      <trkpt lat="38.9218600" lon="-6.3714320">
        <ele>239.8</ele>
        <time>2021-10-18T12:19:00Z</time>
      </trkpt>
      <trkpt lat="38.9218050" lon="-6.3711910">
        <ele>240.0</ele>
        <time>2021-10-18T12:19:07Z</time>
      </trkpt>
      <trkpt lat="38.9217700" lon="-6.3710390">
        <ele>240.4</ele>
        <time>2021-10-18T12:19:11Z</time>
      </trkpt>
      <trkpt lat="38.9217380" lon="-6.3709310">
        <ele>240.6</ele>
        <time>2021-10-18T12:19:14Z</time>
      </trkpt>
      <trkpt lat="38.9216950" lon="-6.3708070">
        <ele>240.6</ele>
        <time>2021-10-18T12:19:18Z</time>
      </trkpt>
      <trkpt lat="38.9216700" lon="-6.3707320">
        <ele>240.6</ele>
        <time>2021-10-18T12:19:20Z</time>
      </trkpt>
      <trkpt lat="38.9216600" lon="-6.3706990">
        <ele>240.6</ele>
        <time>2021-10-18T12:19:21Z</time>
      </trkpt>
      <trkpt lat="38.9216510" lon="-6.3706730">
        <ele>240.8</ele>
        <time>2021-10-18T12:19:22Z</time>
      </trkpt>
      <trkpt lat="38.9216090" lon="-6.3705390">
        <ele>241.0</ele>
        <time>2021-10-18T12:19:26Z</time>
      </trkpt>
      <trkpt lat="38.9215740" lon="-6.3704510">
        <ele>241.4</ele>
        <time>2021-10-18T12:19:29Z</time>
      </trkpt>
      <trkpt lat="38.9214940" lon="-6.3702690">
        <ele>241.6</ele>
        <time>2021-10-18T12:19:36Z</time>
      </trkpt>
      <trkpt lat="38.9214780" lon="-6.3702450">
        <ele>241.6</ele>
        <time>2021-10-18T12:19:37Z</time>
      </trkpt>
      <trkpt lat="38.9214120" lon="-6.3701940">
        <ele>241.8</ele>
        <time>2021-10-18T12:19:42Z</time>
      </trkpt>
      <trkpt lat="38.9214110" lon="-6.3701710">
        <ele>241.8</ele>
        <time>2021-10-18T12:19:47Z</time>
      </trkpt>
      <trkpt lat="38.9214390" lon="-6.3701060">
        <ele>241.6</ele>
        <time>2021-10-18T12:19:51Z</time>
      </trkpt>
      <trkpt lat="38.9215360" lon="-6.3700660">
        <ele>241.4</ele>
        <time>2021-10-18T12:19:55Z</time>
      </trkpt>
      <trkpt lat="38.9215610" lon="-6.3700440">
        <ele>241.4</ele>
        <time>2021-10-18T12:19:56Z</time>
      </trkpt>
      <trkpt lat="38.9215730" lon="-6.3699740">
        <ele>241.4</ele>
        <time>2021-10-18T12:19:58Z</time>
      </trkpt>
      <trkpt lat="38.9216390" lon="-6.3697600">
        <ele>242.0</ele>
        <time>2021-10-18T12:20:05Z</time>
      </trkpt>
      <trkpt lat="38.9216490" lon="-6.3697320">
        <ele>242.0</ele>
        <time>2021-10-18T12:20:06Z</time>
      </trkpt>
      <trkpt lat="38.9216510" lon="-6.3697030">
        <ele>242.0</ele>
        <time>2021-10-18T12:20:07Z</time>
      </trkpt>
      <trkpt lat="38.9216470" lon="-6.3696290">
        <ele>242.0</ele>
        <time>2021-10-18T12:20:09Z</time>
      </trkpt>
      <trkpt lat="38.9216260" lon="-6.3694090">
        <ele>242.2</ele>
        <time>2021-10-18T12:20:15Z</time>
      </trkpt>
      <trkpt lat="38.9217160" lon="-6.3692440">
        <ele>242.0</ele>
        <time>2021-10-18T12:20:20Z</time>
      </trkpt>
      <trkpt lat="38.9217520" lon="-6.3691380">
        <ele>241.6</ele>
        <time>2021-10-18T12:20:23Z</time>
      </trkpt>
      <trkpt lat="38.9217860" lon="-6.3691040">
        <ele>241.6</ele>
        <time>2021-10-18T12:20:24Z</time>
      </trkpt>
      <trkpt lat="38.9219410" lon="-6.3689490">
        <ele>240.8</ele>
        <time>2021-10-18T12:20:28Z</time>
      </trkpt>
      <trkpt lat="38.9219800" lon="-6.3689090">
        <ele>240.6</ele>
        <time>2021-10-18T12:20:29Z</time>
      </trkpt>
      <trkpt lat="38.9220650" lon="-6.3688250">
        <ele>240.4</ele>
        <time>2021-10-18T12:20:31Z</time>
      </trkpt>
      <trkpt lat="38.9221970" lon="-6.3686670">
        <ele>240.0</ele>
        <time>2021-10-18T12:20:34Z</time>
      </trkpt>
      <trkpt lat="38.9222550" lon="-6.3686030">
        <ele>239.6</ele>
        <time>2021-10-18T12:20:35Z</time>
      </trkpt>
      <trkpt lat="38.9223320" lon="-6.3684980">
        <ele>239.2</ele>
        <time>2021-10-18T12:20:37Z</time>
      </trkpt>
      <trkpt lat="38.9223490" lon="-6.3684190">
        <ele>238.8</ele>
        <time>2021-10-18T12:20:38Z</time>
      </trkpt>
      <trkpt lat="38.9223260" lon="-6.3683510">
        <ele>238.6</ele>
        <time>2021-10-18T12:20:39Z</time>
      </trkpt>
      <trkpt lat="38.9222900" lon="-6.3682880">
        <ele>238.2</ele>
        <time>2021-10-18T12:20:40Z</time>
      </trkpt>
      <trkpt lat="38.9220770" lon="-6.3679450">
        <ele>237.2</ele>
        <time>2021-10-18T12:20:46Z</time>
      </trkpt>
      <trkpt lat="38.9219490" lon="-6.3677190">
        <ele>237.0</ele>
        <time>2021-10-18T12:20:50Z</time>
      </trkpt>
      <trkpt lat="38.9217830" lon="-6.3675180">
        <ele>236.6</ele>
        <time>2021-10-18T12:20:54Z</time>
      </trkpt>
      <trkpt lat="38.9216900" lon="-6.3674050">
        <ele>236.6</ele>
        <time>2021-10-18T12:20:56Z</time>
      </trkpt>
      <trkpt lat="38.9216050" lon="-6.3673060">
        <ele>236.6</ele>
        <time>2021-10-18T12:20:58Z</time>
      </trkpt>
      <trkpt lat="38.9215490" lon="-6.3672040">
        <ele>236.4</ele>
        <time>2021-10-18T12:21:00Z</time>
      </trkpt>
      <trkpt lat="38.9215200" lon="-6.3670760">
        <ele>236.2</ele>
        <time>2021-10-18T12:21:02Z</time>
      </trkpt>
      <trkpt lat="38.9215190" lon="-6.3669900">
        <ele>236.2</ele>
        <time>2021-10-18T12:21:03Z</time>
      </trkpt>
      <trkpt lat="38.9215250" lon="-6.3669280">
        <ele>236.2</ele>
        <time>2021-10-18T12:21:04Z</time>
      </trkpt>
      <trkpt lat="38.9215750" lon="-6.3666070">
        <ele>236.0</ele>
        <time>2021-10-18T12:21:08Z</time>
      </trkpt>
      <trkpt lat="38.9216580" lon="-6.3661440">
        <ele>234.8</ele>
        <time>2021-10-18T12:21:13Z</time>
      </trkpt>
      <trkpt lat="38.9216760" lon="-6.3660460">
        <ele>234.6</ele>
        <time>2021-10-18T12:21:14Z</time>
      </trkpt>
      <trkpt lat="38.9217250" lon="-6.3657510">
        <ele>233.8</ele>
        <time>2021-10-18T12:21:17Z</time>
      </trkpt>
      <trkpt lat="38.9217640" lon="-6.3654380">
        <ele>232.6</ele>
        <time>2021-10-18T12:21:20Z</time>
      </trkpt>
      <trkpt lat="38.9217810" lon="-6.3653330">
        <ele>232.4</ele>
        <time>2021-10-18T12:21:21Z</time>
      </trkpt>
      <trkpt lat="38.9218360" lon="-6.3650110">
        <ele>231.2</ele>
        <time>2021-10-18T12:21:24Z</time>
      </trkpt>
      <trkpt lat="38.9218900" lon="-6.3646810">
        <ele>230.0</ele>
        <time>2021-10-18T12:21:27Z</time>
      </trkpt>
      <trkpt lat="38.9219560" lon="-6.3643250">
        <ele>228.8</ele>
        <time>2021-10-18T12:21:30Z</time>
      </trkpt>
      <trkpt lat="38.9220030" lon="-6.3640230">
        <ele>227.6</ele>
        <time>2021-10-18T12:21:33Z</time>
      </trkpt>
      <trkpt lat="38.9220340" lon="-6.3638010">
        <ele>226.6</ele>
        <time>2021-10-18T12:21:35Z</time>
      </trkpt>
      <trkpt lat="38.9220490" lon="-6.3637250">
        <ele>226.2</ele>
        <time>2021-10-18T12:21:36Z</time>
      </trkpt>
      <trkpt lat="38.9220850" lon="-6.3635280">
        <ele>224.8</ele>
        <time>2021-10-18T12:21:38Z</time>
      </trkpt>
      <trkpt lat="38.9221440" lon="-6.3631960">
        <ele>223.8</ele>
        <time>2021-10-18T12:21:41Z</time>
      </trkpt>
      <trkpt lat="38.9221800" lon="-6.3630150">
        <ele>223.4</ele>
        <time>2021-10-18T12:21:43Z</time>
      </trkpt>
      <trkpt lat="38.9222100" lon="-6.3629010">
        <ele>223.2</ele>
        <time>2021-10-18T12:21:44Z</time>
      </trkpt>
      <trkpt lat="38.9222860" lon="-6.3627310">
        <ele>222.0</ele>
        <time>2021-10-18T12:21:46Z</time>
      </trkpt>
      <trkpt lat="38.9223050" lon="-6.3626600">
        <ele>220.8</ele>
        <time>2021-10-18T12:21:47Z</time>
      </trkpt>
      <trkpt lat="38.9222920" lon="-6.3624560">
        <ele>219.8</ele>
        <time>2021-10-18T12:21:49Z</time>
      </trkpt>
      <trkpt lat="38.9222780" lon="-6.3623710">
        <ele>219.6</ele>
        <time>2021-10-18T12:21:50Z</time>
      </trkpt>
      <trkpt lat="38.9222770" lon="-6.3622870">
        <ele>219.2</ele>
        <time>2021-10-18T12:21:51Z</time>
      </trkpt>
      <trkpt lat="38.9222840" lon="-6.3621430">
        <ele>218.6</ele>
        <time>2021-10-18T12:21:53Z</time>
      </trkpt>
      <trkpt lat="38.9222730" lon="-6.3620580">
        <ele>218.4</ele>
        <time>2021-10-18T12:21:54Z</time>
      </trkpt>
      <trkpt lat="38.9222500" lon="-6.3619560">
        <ele>218.4</ele>
        <time>2021-10-18T12:21:56Z</time>
      </trkpt>
      <trkpt lat="38.9222550" lon="-6.3619110">
        <ele>218.2</ele>
        <time>2021-10-18T12:21:57Z</time>
      </trkpt>
      <trkpt lat="38.9222900" lon="-6.3617900">
        <ele>218.0</ele>
        <time>2021-10-18T12:22:00Z</time>
      </trkpt>
      <trkpt lat="38.9221820" lon="-6.3616300">
        <ele>217.8</ele>
        <time>2021-10-18T12:22:04Z</time>
      </trkpt>
      <trkpt lat="38.9219700" lon="-6.3613610">
        <ele>217.6</ele>
        <time>2021-10-18T12:22:10Z</time>
      </trkpt>
      <trkpt lat="38.9218220" lon="-6.3611750">
        <ele>217.2</ele>
        <time>2021-10-18T12:22:14Z</time>
      </trkpt>
      <trkpt lat="38.9217600" lon="-6.3610960">
        <ele>217.2</ele>
        <time>2021-10-18T12:22:16Z</time>
      </trkpt>
      <trkpt lat="38.9216870" lon="-6.3609980">
        <ele>217.2</ele>
        <time>2021-10-18T12:22:18Z</time>
      </trkpt>
      <trkpt lat="38.9215840" lon="-6.3608680">
        <ele>217.0</ele>
        <time>2021-10-18T12:22:21Z</time>
      </trkpt>
      <trkpt lat="38.9214600" lon="-6.3607150">
        <ele>216.8</ele>
        <time>2021-10-18T12:22:24Z</time>
      </trkpt>
      <trkpt lat="38.9213680" lon="-6.3605950">
        <ele>216.6</ele>
        <time>2021-10-18T12:22:26Z</time>
      </trkpt>
      <trkpt lat="38.9212080" lon="-6.3603770">
        <ele>216.2</ele>
        <time>2021-10-18T12:22:30Z</time>
      </trkpt>
      <trkpt lat="38.9210700" lon="-6.3602170">
        <ele>215.6</ele>
        <time>2021-10-18T12:22:33Z</time>
      </trkpt>
      <trkpt lat="38.9210210" lon="-6.3601680">
        <ele>215.2</ele>
        <time>2021-10-18T12:22:34Z</time>
      </trkpt>
      <trkpt lat="38.9208010" lon="-6.3600100">
        <ele>214.6</ele>
        <time>2021-10-18T12:22:38Z</time>
      </trkpt>
      <trkpt lat="38.9207440" lon="-6.3599790">
        <ele>214.4</ele>
        <time>2021-10-18T12:22:39Z</time>
      </trkpt>
      <trkpt lat="38.9206720" lon="-6.3599450">
        <ele>214.2</ele>
        <time>2021-10-18T12:22:40Z</time>
      </trkpt>
      <trkpt lat="38.9203550" lon="-6.3598140">
        <ele>213.6</ele>
        <time>2021-10-18T12:22:45Z</time>
      </trkpt>
      <trkpt lat="38.9202920" lon="-6.3597900">
        <ele>213.6</ele>
        <time>2021-10-18T12:22:46Z</time>
      </trkpt>
      <trkpt lat="38.9198370" lon="-6.3596090">
        <ele>213.0</ele>
        <time>2021-10-18T12:22:54Z</time>
      </trkpt>
      <trkpt lat="38.9193050" lon="-6.3594100">
        <ele>213.0</ele>
        <time>2021-10-18T12:23:03Z</time>
      </trkpt>
      <trkpt lat="38.9189440" lon="-6.3592550">
        <ele>213.2</ele>
        <time>2021-10-18T12:23:10Z</time>
      </trkpt>
      <trkpt lat="38.9189000" lon="-6.3592180">
        <ele>213.2</ele>
        <time>2021-10-18T12:23:11Z</time>
      </trkpt>
      <trkpt lat="38.9188590" lon="-6.3591610">
        <ele>213.2</ele>
        <time>2021-10-18T12:23:12Z</time>
      </trkpt>
      <trkpt lat="38.9188110" lon="-6.3590470">
        <ele>213.4</ele>
        <time>2021-10-18T12:23:14Z</time>
      </trkpt>
      <trkpt lat="38.9187880" lon="-6.3590060">
        <ele>213.4</ele>
        <time>2021-10-18T12:23:15Z</time>
      </trkpt>
      <trkpt lat="38.9187400" lon="-6.3589040">
        <ele>213.6</ele>
        <time>2021-10-18T12:23:17Z</time>
      </trkpt>
      <trkpt lat="38.9187260" lon="-6.3588460">
        <ele>213.8</ele>
        <time>2021-10-18T12:23:18Z</time>
      </trkpt>
      <trkpt lat="38.9186820" lon="-6.3587250">
        <ele>214.2</ele>
        <time>2021-10-18T12:23:21Z</time>
      </trkpt>
      <trkpt lat="38.9186500" lon="-6.3587020">
        <ele>214.4</ele>
        <time>2021-10-18T12:23:22Z</time>
      </trkpt>
      <trkpt lat="38.9185780" lon="-6.3587000">
        <ele>214.6</ele>
        <time>2021-10-18T12:23:24Z</time>
      </trkpt>
      <trkpt lat="38.9185520" lon="-6.3587290">
        <ele>214.8</ele>
        <time>2021-10-18T12:23:25Z</time>
      </trkpt>
      <trkpt lat="38.9184740" lon="-6.3588500">
        <ele>214.8</ele>
        <time>2021-10-18T12:23:28Z</time>
      </trkpt>
      <trkpt lat="38.9184420" lon="-6.3588690">
        <ele>215.0</ele>
        <time>2021-10-18T12:23:29Z</time>
      </trkpt>
      <trkpt lat="38.9182790" lon="-6.3589330">
        <ele>214.8</ele>
        <time>2021-10-18T12:23:33Z</time>
      </trkpt>
      <trkpt lat="38.9180150" lon="-6.3588130">
        <ele>214.8</ele>
        <time>2021-10-18T12:23:39Z</time>
      </trkpt>
      <trkpt lat="38.9176400" lon="-6.3586450">
        <ele>215.4</ele>
        <time>2021-10-18T12:23:48Z</time>
      </trkpt>
      <trkpt lat="38.9176010" lon="-6.3586250">
        <ele>215.6</ele>
        <time>2021-10-18T12:23:49Z</time>
      </trkpt>
      <trkpt lat="38.9174790" lon="-6.3585670">
        <ele>215.8</ele>
        <time>2021-10-18T12:23:52Z</time>
      </trkpt>
      <trkpt lat="38.9173720" lon="-6.3585130">
        <ele>216.2</ele>
        <time>2021-10-18T12:23:55Z</time>
      </trkpt>
      <trkpt lat="38.9171440" lon="-6.3583390">
        <ele>216.8</ele>
        <time>2021-10-18T12:24:02Z</time>
      </trkpt>
      <trkpt lat="38.9170450" lon="-6.3582180">
        <ele>217.2</ele>
        <time>2021-10-18T12:24:06Z</time>
      </trkpt>
      <trkpt lat="38.9169790" lon="-6.3581240">
        <ele>217.8</ele>
        <time>2021-10-18T12:24:09Z</time>
      </trkpt>
      <trkpt lat="38.9169360" lon="-6.3580540">
        <ele>218.0</ele>
        <time>2021-10-18T12:24:11Z</time>
      </trkpt>
      <trkpt lat="38.9169150" lon="-6.3579870">
        <ele>218.2</ele>
        <time>2021-10-18T12:24:13Z</time>
      </trkpt>
      <trkpt lat="38.9169220" lon="-6.3579440">
        <ele>218.4</ele>
        <time>2021-10-18T12:24:14Z</time>
      </trkpt>
      <trkpt lat="38.9169480" lon="-6.3577640">
        <ele>218.6</ele>
        <time>2021-10-18T12:24:18Z</time>
      </trkpt>
      <trkpt lat="38.9169270" lon="-6.3577250">
        <ele>218.6</ele>
        <time>2021-10-18T12:24:19Z</time>
      </trkpt>
      <trkpt lat="38.9168500" lon="-6.3576290">
        <ele>218.8</ele>
        <time>2021-10-18T12:24:22Z</time>
      </trkpt>
      <trkpt lat="38.9167920" lon="-6.3575430">
        <ele>219.2</ele>
        <time>2021-10-18T12:24:25Z</time>
      </trkpt>
      <trkpt lat="38.9167730" lon="-6.3575130">
        <ele>219.2</ele>
        <time>2021-10-18T12:24:26Z</time>
      </trkpt>
      <trkpt lat="38.9165820" lon="-6.3572680">
        <ele>219.8</ele>
        <time>2021-10-18T12:24:34Z</time>
      </trkpt>
      <trkpt lat="38.9164290" lon="-6.3572480">
        <ele>219.8</ele>
        <time>2021-10-18T12:24:39Z</time>
      </trkpt>
      <trkpt lat="38.9164010" lon="-6.3572490">
        <ele>220.0</ele>
        <time>2021-10-18T12:24:40Z</time>
      </trkpt>
      <trkpt lat="38.9163120" lon="-6.3572060">
        <ele>220.0</ele>
        <time>2021-10-18T12:24:43Z</time>
      </trkpt>
      <trkpt lat="38.9162100" lon="-6.3571300">
        <ele>220.2</ele>
        <time>2021-10-18T12:24:47Z</time>
      </trkpt>
      <trkpt lat="38.9161400" lon="-6.3570640">
        <ele>220.4</ele>
        <time>2021-10-18T12:24:50Z</time>
      </trkpt>
      <trkpt lat="38.9160810" lon="-6.3568170">
        <ele>220.6</ele>
        <time>2021-10-18T12:24:56Z</time>
      </trkpt>
      <trkpt lat="38.9161140" lon="-6.3566710">
        <ele>220.8</ele>
        <time>2021-10-18T12:24:59Z</time>
      </trkpt>
      <trkpt lat="38.9161240" lon="-6.3565560">
        <ele>220.8</ele>
        <time>2021-10-18T12:25:02Z</time>
      </trkpt>
      <trkpt lat="38.9160820" lon="-6.3564670">
        <ele>220.8</ele>
        <time>2021-10-18T12:25:06Z</time>
      </trkpt>
      <trkpt lat="38.9160470" lon="-6.3564440">
        <ele>220.8</ele>
        <time>2021-10-18T12:25:08Z</time>
      </trkpt>
      <trkpt lat="38.9159670" lon="-6.3564180">
        <ele>221.0</ele>
        <time>2021-10-18T12:25:11Z</time>
      </trkpt>
      <trkpt lat="38.9157750" lon="-6.3563990">
        <ele>220.8</ele>
        <time>2021-10-18T12:25:18Z</time>
      </trkpt>
      <trkpt lat="38.9156740" lon="-6.3565820">
        <ele>220.6</ele>
        <time>2021-10-18T12:25:24Z</time>
      </trkpt>
      <trkpt lat="38.9155320" lon="-6.3566920">
        <ele>220.4</ele>
        <time>2021-10-18T12:25:29Z</time>
      </trkpt>
      <trkpt lat="38.9154180" lon="-6.3566590">
        <ele>220.2</ele>
        <time>2021-10-18T12:25:32Z</time>
      </trkpt>
      <trkpt lat="38.9153370" lon="-6.3566080">
        <ele>220.0</ele>
        <time>2021-10-18T12:25:34Z</time>
      </trkpt>
      <trkpt lat="38.9150500" lon="-6.3564100">
        <ele>219.0</ele>
        <time>2021-10-18T12:25:40Z</time>
      </trkpt>
      <trkpt lat="38.9148960" lon="-6.3563050">
        <ele>218.2</ele>
        <time>2021-10-18T12:25:43Z</time>
      </trkpt>
      <trkpt lat="38.9148370" lon="-6.3562660">
        <ele>217.8</ele>
        <time>2021-10-18T12:25:44Z</time>
      </trkpt>
      <trkpt lat="38.9147840" lon="-6.3562330">
        <ele>217.0</ele>
        <time>2021-10-18T12:25:46Z</time>
      </trkpt>
      <trkpt lat="38.9147680" lon="-6.3562220">
        <ele>216.6</ele>
        <time>2021-10-18T12:25:47Z</time>
      </trkpt>
      <trkpt lat="38.9147590" lon="-6.3562070">
        <ele>216.2</ele>
        <time>2021-10-18T12:25:49Z</time>
      </trkpt>
      <trkpt lat="38.9147590" lon="-6.3562070">
        <ele>216.0</ele>
        <time>2021-10-18T12:25:51Z</time>
      </trkpt>
      <trkpt lat="38.9147050" lon="-6.3561890">
        <ele>216.0</ele>
        <time>2021-10-18T12:30:12Z</time>
      </trkpt>
      <trkpt lat="38.9146720" lon="-6.3561720">
        <ele>216.0</ele>
        <time>2021-10-18T12:30:13Z</time>
      </trkpt>
      <trkpt lat="38.9144770" lon="-6.3560410">
        <ele>216.0</ele>
        <time>2021-10-18T12:30:19Z</time>
      </trkpt>
      <trkpt lat="38.9144170" lon="-6.3559970">
        <ele>215.8</ele>
        <time>2021-10-18T12:30:21Z</time>
      </trkpt>
      <trkpt lat="38.9143380" lon="-6.3558830">
        <ele>215.8</ele>
        <time>2021-10-18T12:30:24Z</time>
      </trkpt>
      <trkpt lat="38.9141730" lon="-6.3556680">
        <ele>215.6</ele>
        <time>2021-10-18T12:30:30Z</time>
      </trkpt>
      <trkpt lat="38.9140230" lon="-6.3555650">
        <ele>215.4</ele>
        <time>2021-10-18T12:30:34Z</time>
      </trkpt>
      <trkpt lat="38.9139430" lon="-6.3555100">
        <ele>215.2</ele>
        <time>2021-10-18T12:30:36Z</time>
      </trkpt>
      <trkpt lat="38.9138650" lon="-6.3554700">
        <ele>215.2</ele>
        <time>2021-10-18T12:30:38Z</time>
      </trkpt>
      <trkpt lat="38.9137220" lon="-6.3553440">
        <ele>215.0</ele>
        <time>2021-10-18T12:30:42Z</time>
      </trkpt>
      <trkpt lat="38.9136510" lon="-6.3553050">
        <ele>214.8</ele>
        <time>2021-10-18T12:30:44Z</time>
      </trkpt>
      <trkpt lat="38.9135620" lon="-6.3552960">
        <ele>214.8</ele>
        <time>2021-10-18T12:30:46Z</time>
      </trkpt>
      <trkpt lat="38.9134080" lon="-6.3553080">
        <ele>214.8</ele>
        <time>2021-10-18T12:30:50Z</time>
      </trkpt>
      <trkpt lat="38.9132590" lon="-6.3553040">
        <ele>214.8</ele>
        <time>2021-10-18T12:30:54Z</time>
      </trkpt>
      <trkpt lat="38.9129900" lon="-6.3552980">
        <ele>214.8</ele>
        <time>2021-10-18T12:31:01Z</time>
      </trkpt>
      <trkpt lat="38.9126750" lon="-6.3552610">
        <ele>214.8</ele>
        <time>2021-10-18T12:31:10Z</time>
      </trkpt>
      <trkpt lat="38.9124310" lon="-6.3551940">
        <ele>215.2</ele>
        <time>2021-10-18T12:31:17Z</time>
      </trkpt>
      <trkpt lat="38.9122100" lon="-6.3550820">
        <ele>215.4</ele>
        <time>2021-10-18T12:31:23Z</time>
      </trkpt>
      <trkpt lat="38.9119490" lon="-6.3550430">
        <ele>215.6</ele>
        <time>2021-10-18T12:31:30Z</time>
      </trkpt>
      <trkpt lat="38.9119150" lon="-6.3550490">
        <ele>215.6</ele>
        <time>2021-10-18T12:31:31Z</time>
      </trkpt>
      <trkpt lat="38.9115400" lon="-6.3551340">
        <ele>216.0</ele>
        <time>2021-10-18T12:31:40Z</time>
      </trkpt>
      <trkpt lat="38.9114080" lon="-6.3551650">
        <ele>216.0</ele>
        <time>2021-10-18T12:31:43Z</time>
      </trkpt>
      <trkpt lat="38.9112150" lon="-6.3551960">
        <ele>216.0</ele>
        <time>2021-10-18T12:31:48Z</time>
      </trkpt>
      <trkpt lat="38.9109070" lon="-6.3551880">
        <ele>216.2</ele>
        <time>2021-10-18T12:31:56Z</time>
      </trkpt>
      <trkpt lat="38.9107490" lon="-6.3551170">
        <ele>216.6</ele>
        <time>2021-10-18T12:32:01Z</time>
      </trkpt>
      <trkpt lat="38.9107060" lon="-6.3550430">
        <ele>216.6</ele>
        <time>2021-10-18T12:32:04Z</time>
      </trkpt>
      <trkpt lat="38.9107070" lon="-6.3550020">
        <ele>216.6</ele>
        <time>2021-10-18T12:32:05Z</time>
      </trkpt>
      <trkpt lat="38.9108050" lon="-6.3547880">
        <ele>216.8</ele>
        <time>2021-10-18T12:32:12Z</time>
      </trkpt>
      <trkpt lat="38.9108520" lon="-6.3547040">
        <ele>217.4</ele>
        <time>2021-10-18T12:32:16Z</time>
      </trkpt>
      <trkpt lat="38.9108670" lon="-6.3546910">
        <ele>217.4</ele>
        <time>2021-10-18T12:32:17Z</time>
      </trkpt>
      <trkpt lat="38.9109160" lon="-6.3546000">
        <ele>217.8</ele>
        <time>2021-10-18T12:32:22Z</time>
      </trkpt>
      <trkpt lat="38.9109810" lon="-6.3544990">
        <ele>218.2</ele>
        <time>2021-10-18T12:32:28Z</time>
      </trkpt>
      <trkpt lat="38.9109930" lon="-6.3544830">
        <ele>218.4</ele>
        <time>2021-10-18T12:32:29Z</time>
      </trkpt>
      <trkpt lat="38.9110140" lon="-6.3544500">
        <ele>218.4</ele>
        <time>2021-10-18T12:32:31Z</time>
      </trkpt>
      <trkpt lat="38.9110270" lon="-6.3544070">
        <ele>218.6</ele>
        <time>2021-10-18T12:32:33Z</time>
      </trkpt>
      <trkpt lat="38.9110880" lon="-6.3542750">
        <ele>219.0</ele>
        <time>2021-10-18T12:32:40Z</time>
      </trkpt>
      <trkpt lat="38.9111520" lon="-6.3542250">
        <ele>219.4</ele>
        <time>2021-10-18T12:32:45Z</time>
      </trkpt>
      <trkpt lat="38.9112220" lon="-6.3541110">
        <ele>219.8</ele>
        <time>2021-10-18T12:32:52Z</time>
      </trkpt>
      <trkpt lat="38.9112620" lon="-6.3540330">
        <ele>219.8</ele>
        <time>2021-10-18T12:32:56Z</time>
      </trkpt>
      <trkpt lat="38.9113080" lon="-6.3539260">
        <ele>219.8</ele>
        <time>2021-10-18T12:33:01Z</time>
      </trkpt>
      <trkpt lat="38.9113650" lon="-6.3538450">
        <ele>219.8</ele>
        <time>2021-10-18T12:33:05Z</time>
      </trkpt>
      <trkpt lat="38.9114510" lon="-6.3536980">
        <ele>219.4</ele>
        <time>2021-10-18T12:33:11Z</time>
      </trkpt>
      <trkpt lat="38.9114880" lon="-6.3536410">
        <ele>219.4</ele>
        <time>2021-10-18T12:33:13Z</time>
      </trkpt>
      <trkpt lat="38.9116520" lon="-6.3534050">
        <ele>219.2</ele>
        <time>2021-10-18T12:33:22Z</time>
      </trkpt>
      <trkpt lat="38.9117840" lon="-6.3531290">
        <ele>218.8</ele>
        <time>2021-10-18T12:33:30Z</time>
      </trkpt>
      <trkpt lat="38.9118400" lon="-6.3530460">
        <ele>218.6</ele>
        <time>2021-10-18T12:33:33Z</time>
      </trkpt>
      <trkpt lat="38.9119760" lon="-6.3528280">
        <ele>218.0</ele>
        <time>2021-10-18T12:33:40Z</time>
      </trkpt>
      <trkpt lat="38.9121580" lon="-6.3525450">
        <ele>218.0</ele>
        <time>2021-10-18T12:33:50Z</time>
      </trkpt>
      <trkpt lat="38.9122220" lon="-6.3524340">
        <ele>218.0</ele>
        <time>2021-10-18T12:33:54Z</time>
      </trkpt>
      <trkpt lat="38.9122670" lon="-6.3523430">
        <ele>217.8</ele>
        <time>2021-10-18T12:33:59Z</time>
      </trkpt>
      <trkpt lat="38.9122660" lon="-6.3523210">
        <ele>217.8</ele>
        <time>2021-10-18T12:34:05Z</time>
      </trkpt>
      <trkpt lat="38.9122690" lon="-6.3523140">
        <ele>217.8</ele>
        <time>2021-10-18T12:34:08Z</time>
      </trkpt>
      <trkpt lat="38.9122690" lon="-6.3523140">
        <ele>217.4</ele>
        <time>2021-10-18T12:34:09Z</time>
      </trkpt>
      <trkpt lat="38.9123640" lon="-6.3522240">
        <ele>218.2</ele>
        <time>2021-10-18T12:35:27Z</time>
      </trkpt>
      <trkpt lat="38.9123830" lon="-6.3522060">
        <ele>218.2</ele>
        <time>2021-10-18T12:35:28Z</time>
      </trkpt>
      <trkpt lat="38.9124250" lon="-6.3521510">
        <ele>218.2</ele>
        <time>2021-10-18T12:35:31Z</time>
      </trkpt>
      <trkpt lat="38.9124580" lon="-6.3520910">
        <ele>218.2</ele>
        <time>2021-10-18T12:35:34Z</time>
      </trkpt>
      <trkpt lat="38.9125630" lon="-6.3519180">
        <ele>218.2</ele>
        <time>2021-10-18T12:35:44Z</time>
      </trkpt>
      <trkpt lat="38.9125910" lon="-6.3518640">
        <ele>218.2</ele>
        <time>2021-10-18T12:35:47Z</time>
      </trkpt>
      <trkpt lat="38.9126300" lon="-6.3517910">
        <ele>218.2</ele>
        <time>2021-10-18T12:35:51Z</time>
      </trkpt>
      <trkpt lat="38.9126500" lon="-6.3517570">
        <ele>218.4</ele>
        <time>2021-10-18T12:35:53Z</time>
      </trkpt>
      <trkpt lat="38.9127900" lon="-6.3515790">
        <ele>218.4</ele>
        <time>2021-10-18T12:36:03Z</time>
      </trkpt>
      <trkpt lat="38.9128660" lon="-6.3514240">
        <ele>218.4</ele>
        <time>2021-10-18T12:36:11Z</time>
      </trkpt>
      <trkpt lat="38.9129250" lon="-6.3513240">
        <ele>218.6</ele>
        <time>2021-10-18T12:36:18Z</time>
      </trkpt>
      <trkpt lat="38.9129970" lon="-6.3512070">
        <ele>218.6</ele>
        <time>2021-10-18T12:36:26Z</time>
      </trkpt>
      <trkpt lat="38.9130140" lon="-6.3511880">
        <ele>218.6</ele>
        <time>2021-10-18T12:36:28Z</time>
      </trkpt>
      <trkpt lat="38.9130520" lon="-6.3511580">
        <ele>218.6</ele>
        <time>2021-10-18T12:36:32Z</time>
      </trkpt>
      <trkpt lat="38.9130840" lon="-6.3510700">
        <ele>219.0</ele>
        <time>2021-10-18T12:36:39Z</time>
      </trkpt>
      <trkpt lat="38.9131230" lon="-6.3509800">
        <ele>219.4</ele>
        <time>2021-10-18T12:36:45Z</time>
      </trkpt>
      <trkpt lat="38.9132350" lon="-6.3508180">
        <ele>219.4</ele>
        <time>2021-10-18T12:36:53Z</time>
      </trkpt>
      <trkpt lat="38.9133360" lon="-6.3506540">
        <ele>219.4</ele>
        <time>2021-10-18T12:37:00Z</time>
      </trkpt>
      <trkpt lat="38.9133770" lon="-6.3505820">
        <ele>219.6</ele>
        <time>2021-10-18T12:37:03Z</time>
      </trkpt>
      <trkpt lat="38.9133900" lon="-6.3505620">
        <ele>219.6</ele>
        <time>2021-10-18T12:37:04Z</time>
      </trkpt>
      <trkpt lat="38.9134220" lon="-6.3505110">
        <ele>219.6</ele>
        <time>2021-10-18T12:37:06Z</time>
      </trkpt>
      <trkpt lat="38.9135280" lon="-6.3503500">
        <ele>219.6</ele>
        <time>2021-10-18T12:37:13Z</time>
      </trkpt>
      <trkpt lat="38.9136110" lon="-6.3502150">
        <ele>219.6</ele>
        <time>2021-10-18T12:37:19Z</time>
      </trkpt>
      <trkpt lat="38.9136520" lon="-6.3501440">
        <ele>219.8</ele>
        <time>2021-10-18T12:37:22Z</time>
      </trkpt>
      <trkpt lat="38.9137100" lon="-6.3500440">
        <ele>219.8</ele>
        <time>2021-10-18T12:37:27Z</time>
      </trkpt>
      <trkpt lat="38.9137450" lon="-6.3499790">
        <ele>219.6</ele>
        <time>2021-10-18T12:37:31Z</time>
      </trkpt>
      <trkpt lat="38.9137530" lon="-6.3499680">
        <ele>219.4</ele>
        <time>2021-10-18T12:37:34Z</time>
      </trkpt>
      <trkpt lat="38.9138830" lon="-6.3497800">
        <ele>219.8</ele>
        <time>2021-10-18T12:43:31Z</time>
      </trkpt>
      <trkpt lat="38.9139460" lon="-6.3496910">
        <ele>219.8</ele>
        <time>2021-10-18T12:43:35Z</time>
      </trkpt>
      <trkpt lat="38.9139870" lon="-6.3496190">
        <ele>220.0</ele>
        <time>2021-10-18T12:43:38Z</time>
      </trkpt>
      <trkpt lat="38.9141000" lon="-6.3494380">
        <ele>220.0</ele>
        <time>2021-10-18T12:43:45Z</time>
      </trkpt>
      <trkpt lat="38.9141120" lon="-6.3494160">
        <ele>220.0</ele>
        <time>2021-10-18T12:43:46Z</time>
      </trkpt>
      <trkpt lat="38.9142910" lon="-6.3491410">
        <ele>220.6</ele>
        <time>2021-10-18T12:43:57Z</time>
      </trkpt>
      <trkpt lat="38.9143940" lon="-6.3489740">
        <ele>220.6</ele>
        <time>2021-10-18T12:44:04Z</time>
      </trkpt>
      <trkpt lat="38.9145320" lon="-6.3487610">
        <ele>221.0</ele>
        <time>2021-10-18T12:44:12Z</time>
      </trkpt>
      <trkpt lat="38.9145490" lon="-6.3487330">
        <ele>221.0</ele>
        <time>2021-10-18T12:44:13Z</time>
      </trkpt>
      <trkpt lat="38.9146940" lon="-6.3485080">
        <ele>221.6</ele>
        <time>2021-10-18T12:44:22Z</time>
      </trkpt>
      <trkpt lat="38.9147250" lon="-6.3484600">
        <ele>221.6</ele>
        <time>2021-10-18T12:44:24Z</time>
      </trkpt>
      <trkpt lat="38.9148040" lon="-6.3483310">
        <ele>221.8</ele>
        <time>2021-10-18T12:44:29Z</time>
      </trkpt>
      <trkpt lat="38.9149480" lon="-6.3480920">
        <ele>221.8</ele>
        <time>2021-10-18T12:44:36Z</time>
      </trkpt>
      <trkpt lat="38.9151010" lon="-6.3478490">
        <ele>221.6</ele>
        <time>2021-10-18T12:44:44Z</time>
      </trkpt>
      <trkpt lat="38.9151160" lon="-6.3478350">
        <ele>221.4</ele>
        <time>2021-10-18T12:44:45Z</time>
      </trkpt>
      <trkpt lat="38.9151360" lon="-6.3478230">
        <ele>221.4</ele>
        <time>2021-10-18T12:44:48Z</time>
      </trkpt>
      <trkpt lat="38.9151360" lon="-6.3478230">
        <ele>221.4</ele>
        <time>2021-10-18T12:44:50Z</time>
      </trkpt>
      <trkpt lat="38.9151550" lon="-6.3478380">
        <ele>221.2</ele>
        <time>2021-10-18T12:46:04Z</time>
      </trkpt>
      <trkpt lat="38.9151660" lon="-6.3478230">
        <ele>221.2</ele>
        <time>2021-10-18T12:46:05Z</time>
      </trkpt>
      <trkpt lat="38.9152220" lon="-6.3477190">
        <ele>221.2</ele>
        <time>2021-10-18T12:46:09Z</time>
      </trkpt>
      <trkpt lat="38.9152470" lon="-6.3476670">
        <ele>221.4</ele>
        <time>2021-10-18T12:46:11Z</time>
      </trkpt>
      <trkpt lat="38.9153200" lon="-6.3475710">
        <ele>221.4</ele>
        <time>2021-10-18T12:46:15Z</time>
      </trkpt>
      <trkpt lat="38.9153910" lon="-6.3474410">
        <ele>222.2</ele>
        <time>2021-10-18T12:46:20Z</time>
      </trkpt>
      <trkpt lat="38.9154040" lon="-6.3474160">
        <ele>222.2</ele>
        <time>2021-10-18T12:46:21Z</time>
      </trkpt>
      <trkpt lat="38.9154530" lon="-6.3473300">
        <ele>222.8</ele>
        <time>2021-10-18T12:46:25Z</time>
      </trkpt>
      <trkpt lat="38.9155230" lon="-6.3472270">
        <ele>223.4</ele>
        <time>2021-10-18T12:46:30Z</time>
      </trkpt>
      <trkpt lat="38.9156210" lon="-6.3470640">
        <ele>224.4</ele>
        <time>2021-10-18T12:46:38Z</time>
      </trkpt>
      <trkpt lat="38.9156860" lon="-6.3469340">
        <ele>225.2</ele>
        <time>2021-10-18T12:46:44Z</time>
      </trkpt>
      <trkpt lat="38.9156950" lon="-6.3469170">
        <ele>225.4</ele>
        <time>2021-10-18T12:46:45Z</time>
      </trkpt>
      <trkpt lat="38.9157080" lon="-6.3468940">
        <ele>225.6</ele>
        <time>2021-10-18T12:46:46Z</time>
      </trkpt>
      <trkpt lat="38.9157400" lon="-6.3468250">
        <ele>226.0</ele>
        <time>2021-10-18T12:46:49Z</time>
      </trkpt>
      <trkpt lat="38.9157570" lon="-6.3468050">
        <ele>226.0</ele>
        <time>2021-10-18T12:46:50Z</time>
      </trkpt>
      <trkpt lat="38.9157910" lon="-6.3467700">
        <ele>226.2</ele>
        <time>2021-10-18T12:46:52Z</time>
      </trkpt>
      <trkpt lat="38.9158150" lon="-6.3467220">
        <ele>226.4</ele>
        <time>2021-10-18T12:46:54Z</time>
      </trkpt>
      <trkpt lat="38.9158280" lon="-6.3466970">
        <ele>226.6</ele>
        <time>2021-10-18T12:46:55Z</time>
      </trkpt>
      <trkpt lat="38.9158360" lon="-6.3465590">
        <ele>227.2</ele>
        <time>2021-10-18T12:47:00Z</time>
      </trkpt>
      <trkpt lat="38.9158320" lon="-6.3465380">
        <ele>227.4</ele>
        <time>2021-10-18T12:47:01Z</time>
      </trkpt>
      <trkpt lat="38.9158040" lon="-6.3465030">
        <ele>227.6</ele>
        <time>2021-10-18T12:47:03Z</time>
      </trkpt>
      <trkpt lat="38.9157920" lon="-6.3464780">
        <ele>227.8</ele>
        <time>2021-10-18T12:47:04Z</time>
      </trkpt>
      <trkpt lat="38.9157740" lon="-6.3463340">
        <ele>228.2</ele>
        <time>2021-10-18T12:47:09Z</time>
      </trkpt>
      <trkpt lat="38.9157850" lon="-6.3463070">
        <ele>228.4</ele>
        <time>2021-10-18T12:47:10Z</time>
      </trkpt>
      <trkpt lat="38.9158260" lon="-6.3462570">
        <ele>228.8</ele>
        <time>2021-10-18T12:47:12Z</time>
      </trkpt>
      <trkpt lat="38.9158470" lon="-6.3462460">
        <ele>229.0</ele>
        <time>2021-10-18T12:47:13Z</time>
      </trkpt>
      <trkpt lat="38.9158850" lon="-6.3462480">
        <ele>228.8</ele>
        <time>2021-10-18T12:47:15Z</time>
      </trkpt>
      <trkpt lat="38.9159450" lon="-6.3462740">
        <ele>228.8</ele>
        <time>2021-10-18T12:47:19Z</time>
      </trkpt>
      <trkpt lat="38.9159660" lon="-6.3462770">
        <ele>228.8</ele>
        <time>2021-10-18T12:47:20Z</time>
      </trkpt>
      <trkpt lat="38.9160080" lon="-6.3462810">
        <ele>228.8</ele>
        <time>2021-10-18T12:47:22Z</time>
      </trkpt>
      <trkpt lat="38.9160550" lon="-6.3462410">
        <ele>228.8</ele>
        <time>2021-10-18T12:47:24Z</time>
      </trkpt>
      <trkpt lat="38.9160910" lon="-6.3462040">
        <ele>228.8</ele>
        <time>2021-10-18T12:47:26Z</time>
      </trkpt>
      <trkpt lat="38.9161270" lon="-6.3461420">
        <ele>229.0</ele>
        <time>2021-10-18T12:47:29Z</time>
      </trkpt>
      <trkpt lat="38.9161410" lon="-6.3461220">
        <ele>229.0</ele>
        <time>2021-10-18T12:47:30Z</time>
      </trkpt>
      <trkpt lat="38.9161850" lon="-6.3460840">
        <ele>229.4</ele>
        <time>2021-10-18T12:47:33Z</time>
      </trkpt>
      <trkpt lat="38.9162770" lon="-6.3459920">
        <ele>229.6</ele>
        <time>2021-10-18T12:47:38Z</time>
      </trkpt>
      <trkpt lat="38.9163000" lon="-6.3459720">
        <ele>230.0</ele>
        <time>2021-10-18T12:47:39Z</time>
      </trkpt>
      <trkpt lat="38.9163440" lon="-6.3459230">
        <ele>230.0</ele>
        <time>2021-10-18T12:47:42Z</time>
      </trkpt>
      <trkpt lat="38.9163640" lon="-6.3459200">
        <ele>230.0</ele>
        <time>2021-10-18T12:47:43Z</time>
      </trkpt>
      <trkpt lat="38.9163790" lon="-6.3459200">
        <ele>230.0</ele>
        <time>2021-10-18T12:47:44Z</time>
      </trkpt>
      <trkpt lat="38.9164650" lon="-6.3459140">
        <ele>230.0</ele>
        <time>2021-10-18T12:47:49Z</time>
      </trkpt>
      <trkpt lat="38.9164980" lon="-6.3459350">
        <ele>230.0</ele>
        <time>2021-10-18T12:47:51Z</time>
      </trkpt>
      <trkpt lat="38.9166000" lon="-6.3460690">
        <ele>230.0</ele>
        <time>2021-10-18T12:47:57Z</time>
      </trkpt>
      <trkpt lat="38.9167260" lon="-6.3461660">
        <ele>229.8</ele>
        <time>2021-10-18T12:48:03Z</time>
      </trkpt>
      <trkpt lat="38.9168080" lon="-6.3462400">
        <ele>230.0</ele>
        <time>2021-10-18T12:48:08Z</time>
      </trkpt>
      <trkpt lat="38.9168250" lon="-6.3462450">
        <ele>230.0</ele>
        <time>2021-10-18T12:48:09Z</time>
      </trkpt>
      <trkpt lat="38.9168700" lon="-6.3462330">
        <ele>230.2</ele>
        <time>2021-10-18T12:48:13Z</time>
      </trkpt>
      <trkpt lat="38.9168700" lon="-6.3462330">
        <ele>230.2</ele>
        <time>2021-10-18T12:48:14Z</time>
      </trkpt>
      <trkpt lat="38.9168700" lon="-6.3462480">
        <ele>230.4</ele>
        <time>2021-10-18T12:48:16Z</time>
      </trkpt>
      <trkpt lat="38.9168650" lon="-6.3462730">
        <ele>230.8</ele>
        <time>2021-10-18T12:48:17Z</time>
      </trkpt>
      <trkpt lat="38.9168610" lon="-6.3463000">
        <ele>230.8</ele>
        <time>2021-10-18T12:48:18Z</time>
      </trkpt>
      <trkpt lat="38.9168750" lon="-6.3463490">
        <ele>231.0</ele>
        <time>2021-10-18T12:48:20Z</time>
      </trkpt>
      <trkpt lat="38.9168950" lon="-6.3463650">
        <ele>231.0</ele>
        <time>2021-10-18T12:48:21Z</time>
      </trkpt>
      <trkpt lat="38.9170160" lon="-6.3464520">
        <ele>231.0</ele>
        <time>2021-10-18T12:48:27Z</time>
      </trkpt>
      <trkpt lat="38.9171310" lon="-6.3465560">
        <ele>231.6</ele>
        <time>2021-10-18T12:48:33Z</time>
      </trkpt>
      <trkpt lat="38.9172070" lon="-6.3466190">
        <ele>232.0</ele>
        <time>2021-10-18T12:48:37Z</time>
      </trkpt>
      <trkpt lat="38.9172300" lon="-6.3466220">
        <ele>232.2</ele>
        <time>2021-10-18T12:48:39Z</time>
      </trkpt>
      <trkpt lat="38.9172710" lon="-6.3465890">
        <ele>232.6</ele>
        <time>2021-10-18T12:48:42Z</time>
      </trkpt>
      <trkpt lat="38.9172910" lon="-6.3465550">
        <ele>232.8</ele>
        <time>2021-10-18T12:48:44Z</time>
      </trkpt>
      <trkpt lat="38.9173720" lon="-6.3464840">
        <ele>233.4</ele>
        <time>2021-10-18T12:48:49Z</time>
      </trkpt>
      <trkpt lat="38.9174110" lon="-6.3464210">
        <ele>233.8</ele>
        <time>2021-10-18T12:48:52Z</time>
      </trkpt>
      <trkpt lat="38.9174250" lon="-6.3464050">
        <ele>233.8</ele>
        <time>2021-10-18T12:48:53Z</time>
      </trkpt>
      <trkpt lat="38.9174540" lon="-6.3463740">
        <ele>234.0</ele>
        <time>2021-10-18T12:48:55Z</time>
      </trkpt>
      <trkpt lat="38.9174950" lon="-6.3463260">
        <ele>234.0</ele>
        <time>2021-10-18T12:48:58Z</time>
      </trkpt>
      <trkpt lat="38.9175480" lon="-6.3462440">
        <ele>234.2</ele>
        <time>2021-10-18T12:49:02Z</time>
      </trkpt>
      <trkpt lat="38.9175740" lon="-6.3462110">
        <ele>234.4</ele>
        <time>2021-10-18T12:49:04Z</time>
      </trkpt>
      <trkpt lat="38.9175960" lon="-6.3461810">
        <ele>234.6</ele>
        <time>2021-10-18T12:49:06Z</time>
      </trkpt>
      <trkpt lat="38.9176030" lon="-6.3461650">
        <ele>234.6</ele>
        <time>2021-10-18T12:49:07Z</time>
      </trkpt>
      <trkpt lat="38.9176020" lon="-6.3461610">
        <ele>234.8</ele>
        <time>2021-10-18T12:49:09Z</time>
      </trkpt>
      <trkpt lat="38.9176350" lon="-6.3461830">
        <ele>234.6</ele>
        <time>2021-10-18T12:49:40Z</time>
      </trkpt>
      <trkpt lat="38.9176470" lon="-6.3461920">
        <ele>234.6</ele>
        <time>2021-10-18T12:49:41Z</time>
      </trkpt>
      <trkpt lat="38.9176730" lon="-6.3462330">
        <ele>234.8</ele>
        <time>2021-10-18T12:49:44Z</time>
      </trkpt>
      <trkpt lat="38.9176940" lon="-6.3462530">
        <ele>234.8</ele>
        <time>2021-10-18T12:49:46Z</time>
      </trkpt>
      <trkpt lat="38.9177010" lon="-6.3462640">
        <ele>234.8</ele>
        <time>2021-10-18T12:49:47Z</time>
      </trkpt>
      <trkpt lat="38.9177190" lon="-6.3462840">
        <ele>235.2</ele>
        <time>2021-10-18T12:49:51Z</time>
      </trkpt>
      <trkpt lat="38.9177190" lon="-6.3462840">
        <ele>235.2</ele>
        <time>2021-10-18T12:49:52Z</time>
      </trkpt>
      <trkpt lat="38.9178700" lon="-6.3464220">
        <ele>236.0</ele>
        <time>2021-10-18T12:50:09Z</time>
      </trkpt>
      <trkpt lat="38.9178830" lon="-6.3464300">
        <ele>236.0</ele>
        <time>2021-10-18T12:50:10Z</time>
      </trkpt>
      <trkpt lat="38.9179220" lon="-6.3464540">
        <ele>236.4</ele>
        <time>2021-10-18T12:50:12Z</time>
      </trkpt>
      <trkpt lat="38.9179960" lon="-6.3465100">
        <ele>236.8</ele>
        <time>2021-10-18T12:50:17Z</time>
      </trkpt>
      <trkpt lat="38.9180040" lon="-6.3465030">
        <ele>237.0</ele>
        <time>2021-10-18T12:50:18Z</time>
      </trkpt>
      <trkpt lat="38.9180180" lon="-6.3464830">
        <ele>237.2</ele>
        <time>2021-10-18T12:50:19Z</time>
      </trkpt>
      <trkpt lat="38.9180330" lon="-6.3464660">
        <ele>237.4</ele>
        <time>2021-10-18T12:50:20Z</time>
      </trkpt>
      <trkpt lat="38.9180810" lon="-6.3463630">
        <ele>237.8</ele>
        <time>2021-10-18T12:50:24Z</time>
      </trkpt>
      <trkpt lat="38.9181200" lon="-6.3462550">
        <ele>238.0</ele>
        <time>2021-10-18T12:50:28Z</time>
      </trkpt>
      <trkpt lat="38.9181570" lon="-6.3461880">
        <ele>238.2</ele>
        <time>2021-10-18T12:50:31Z</time>
      </trkpt>
      <trkpt lat="38.9181760" lon="-6.3461700">
        <ele>238.2</ele>
        <time>2021-10-18T12:50:32Z</time>
      </trkpt>
      <trkpt lat="38.9182310" lon="-6.3461030">
        <ele>238.4</ele>
        <time>2021-10-18T12:50:35Z</time>
      </trkpt>
      <trkpt lat="38.9182490" lon="-6.3460080">
        <ele>238.4</ele>
        <time>2021-10-18T12:50:38Z</time>
      </trkpt>
      <trkpt lat="38.9182990" lon="-6.3459110">
        <ele>238.6</ele>
        <time>2021-10-18T12:50:43Z</time>
      </trkpt>
      <trkpt lat="38.9183210" lon="-6.3458280">
        <ele>238.8</ele>
        <time>2021-10-18T12:50:46Z</time>
      </trkpt>
      <trkpt lat="38.9183450" lon="-6.3457730">
        <ele>239.0</ele>
        <time>2021-10-18T12:50:48Z</time>
      </trkpt>
      <trkpt lat="38.9183540" lon="-6.3457490">
        <ele>239.0</ele>
        <time>2021-10-18T12:50:49Z</time>
      </trkpt>
      <trkpt lat="38.9184070" lon="-6.3456500">
        <ele>239.6</ele>
        <time>2021-10-18T12:50:54Z</time>
      </trkpt>
      <trkpt lat="38.9184190" lon="-6.3456290">
        <ele>239.8</ele>
        <time>2021-10-18T12:50:55Z</time>
      </trkpt>
      <trkpt lat="38.9184360" lon="-6.3455400">
        <ele>240.2</ele>
        <time>2021-10-18T12:50:59Z</time>
      </trkpt>
      <trkpt lat="38.9184560" lon="-6.3454790">
        <ele>240.4</ele>
        <time>2021-10-18T12:51:02Z</time>
      </trkpt>
      <trkpt lat="38.9184590" lon="-6.3454380">
        <ele>240.4</ele>
        <time>2021-10-18T12:51:04Z</time>
      </trkpt>
      <trkpt lat="38.9184590" lon="-6.3453860">
        <ele>240.6</ele>
        <time>2021-10-18T12:51:07Z</time>
      </trkpt>
      <trkpt lat="38.9184760" lon="-6.3452860">
        <ele>241.0</ele>
        <time>2021-10-18T12:51:11Z</time>
      </trkpt>
      <trkpt lat="38.9184840" lon="-6.3452610">
        <ele>241.0</ele>
        <time>2021-10-18T12:51:12Z</time>
      </trkpt>
      <trkpt lat="38.9184890" lon="-6.3452370">
        <ele>241.0</ele>
        <time>2021-10-18T12:51:13Z</time>
      </trkpt>
      <trkpt lat="38.9185250" lon="-6.3451480">
        <ele>241.0</ele>
        <time>2021-10-18T12:51:17Z</time>
      </trkpt>
      <trkpt lat="38.9185570" lon="-6.3451040">
        <ele>241.2</ele>
        <time>2021-10-18T12:51:19Z</time>
      </trkpt>
      <trkpt lat="38.9185660" lon="-6.3450780">
        <ele>241.4</ele>
        <time>2021-10-18T12:51:20Z</time>
      </trkpt>
      <trkpt lat="38.9185970" lon="-6.3449790">
        <ele>241.6</ele>
        <time>2021-10-18T12:51:24Z</time>
      </trkpt>
      <trkpt lat="38.9186500" lon="-6.3448380">
        <ele>242.2</ele>
        <time>2021-10-18T12:51:30Z</time>
      </trkpt>
      <trkpt lat="38.9186980" lon="-6.3447470">
        <ele>242.6</ele>
        <time>2021-10-18T12:51:34Z</time>
      </trkpt>
      <trkpt lat="38.9187040" lon="-6.3447210">
        <ele>242.6</ele>
        <time>2021-10-18T12:51:35Z</time>
      </trkpt>
      <trkpt lat="38.9187070" lon="-6.3447040">
        <ele>242.6</ele>
        <time>2021-10-18T12:51:36Z</time>
      </trkpt>
      <trkpt lat="38.9187060" lon="-6.3446900">
        <ele>242.8</ele>
        <time>2021-10-18T12:51:37Z</time>
      </trkpt>
      <trkpt lat="38.9187010" lon="-6.3446880">
        <ele>243.0</ele>
        <time>2021-10-18T12:51:39Z</time>
      </trkpt>
      <trkpt lat="38.9187030" lon="-6.3446700">
        <ele>243.4</ele>
        <time>2021-10-18T12:51:41Z</time>
      </trkpt>
      <trkpt lat="38.9186770" lon="-6.3446020">
        <ele>243.6</ele>
        <time>2021-10-18T12:51:44Z</time>
      </trkpt>
      <trkpt lat="38.9186000" lon="-6.3445270">
        <ele>243.6</ele>
        <time>2021-10-18T12:51:48Z</time>
      </trkpt>
      <trkpt lat="38.9185390" lon="-6.3444990">
        <ele>243.6</ele>
        <time>2021-10-18T12:51:50Z</time>
      </trkpt>
      <trkpt lat="38.9185090" lon="-6.3445030">
        <ele>243.4</ele>
        <time>2021-10-18T12:51:51Z</time>
      </trkpt>
      <trkpt lat="38.9184620" lon="-6.3444730">
        <ele>243.0</ele>
        <time>2021-10-18T12:51:53Z</time>
      </trkpt>
      <trkpt lat="38.9184400" lon="-6.3444560">
        <ele>243.0</ele>
        <time>2021-10-18T12:51:54Z</time>
      </trkpt>
      <trkpt lat="38.9183710" lon="-6.3443850">
        <ele>242.2</ele>
        <time>2021-10-18T12:51:57Z</time>
      </trkpt>
      <trkpt lat="38.9183570" lon="-6.3443450">
        <ele>242.2</ele>
        <time>2021-10-18T12:51:58Z</time>
      </trkpt>
      <trkpt lat="38.9183350" lon="-6.3443130">
        <ele>242.0</ele>
        <time>2021-10-18T12:51:59Z</time>
      </trkpt>
      <trkpt lat="38.9182760" lon="-6.3442610">
        <ele>241.6</ele>
        <time>2021-10-18T12:52:01Z</time>
      </trkpt>
      <trkpt lat="38.9182140" lon="-6.3441970">
        <ele>241.2</ele>
        <time>2021-10-18T12:52:03Z</time>
      </trkpt>
      <trkpt lat="38.9181890" lon="-6.3441780">
        <ele>240.8</ele>
        <time>2021-10-18T12:52:05Z</time>
      </trkpt>
      <trkpt lat="38.9181850" lon="-6.3441760">
        <ele>240.6</ele>
        <time>2021-10-18T12:52:07Z</time>
      </trkpt>
      <trkpt lat="38.9181880" lon="-6.3441780">
        <ele>240.0</ele>
        <time>2021-10-18T12:52:08Z</time>
      </trkpt>
      <trkpt lat="38.9181890" lon="-6.3441700">
        <ele>239.6</ele>
        <time>2021-10-18T12:52:10Z</time>
      </trkpt>
      <trkpt lat="38.9181890" lon="-6.3441700">
        <ele>239.6</ele>
        <time>2021-10-18T12:52:11Z</time>
      </trkpt>
      <trkpt lat="38.9181830" lon="-6.3441630">
        <ele>239.4</ele>
        <time>2021-10-18T12:52:12Z</time>
      </trkpt>
      <trkpt lat="38.9181510" lon="-6.3441280">
        <ele>239.2</ele>
        <time>2021-10-18T12:52:14Z</time>
      </trkpt>
      <trkpt lat="38.9180500" lon="-6.3440210">
        <ele>239.0</ele>
        <time>2021-10-18T12:52:17Z</time>
      </trkpt>
      <trkpt lat="38.9180020" lon="-6.3439780">
        <ele>238.8</ele>
        <time>2021-10-18T12:52:18Z</time>
      </trkpt>
      <trkpt lat="38.9178320" lon="-6.3438000">
        <ele>238.4</ele>
        <time>2021-10-18T12:52:23Z</time>
      </trkpt>
      <trkpt lat="38.9176860" lon="-6.3436750">
        <ele>238.0</ele>
        <time>2021-10-18T12:52:29Z</time>
      </trkpt>
      <trkpt lat="38.9175920" lon="-6.3435690">
        <ele>238.0</ele>
        <time>2021-10-18T12:52:34Z</time>
      </trkpt>
      <trkpt lat="38.9176410" lon="-6.3434730">
        <ele>238.0</ele>
        <time>2021-10-18T12:52:39Z</time>
      </trkpt>
      <trkpt lat="38.9176500" lon="-6.3434560">
        <ele>238.0</ele>
        <time>2021-10-18T12:52:40Z</time>
      </trkpt>
      <trkpt lat="38.9177120" lon="-6.3433340">
        <ele>238.2</ele>
        <time>2021-10-18T12:52:47Z</time>
      </trkpt>
      <trkpt lat="38.9177200" lon="-6.3433130">
        <ele>238.4</ele>
        <time>2021-10-18T12:52:48Z</time>
      </trkpt>
      <trkpt lat="38.9178600" lon="-6.3431840">
        <ele>239.2</ele>
        <time>2021-10-18T12:52:56Z</time>
      </trkpt>
      <trkpt lat="38.9179460" lon="-6.3430050">
        <ele>239.8</ele>
        <time>2021-10-18T12:53:03Z</time>
      </trkpt>
      <trkpt lat="38.9179600" lon="-6.3429800">
        <ele>240.0</ele>
        <time>2021-10-18T12:53:04Z</time>
      </trkpt>
      <trkpt lat="38.9179750" lon="-6.3429650">
        <ele>240.0</ele>
        <time>2021-10-18T12:53:05Z</time>
      </trkpt>
      <trkpt lat="38.9179780" lon="-6.3429640">
        <ele>240.4</ele>
        <time>2021-10-18T12:53:08Z</time>
      </trkpt>
      <trkpt lat="38.9179730" lon="-6.3428650">
        <ele>240.6</ele>
        <time>2021-10-18T12:53:21Z</time>
      </trkpt>
      <trkpt lat="38.9179430" lon="-6.3428260">
        <ele>240.6</ele>
        <time>2021-10-18T12:53:23Z</time>
      </trkpt>
      <trkpt lat="38.9178920" lon="-6.3427710">
        <ele>240.6</ele>
        <time>2021-10-18T12:53:26Z</time>
      </trkpt>
      <trkpt lat="38.9178540" lon="-6.3427330">
        <ele>241.0</ele>
        <time>2021-10-18T12:53:28Z</time>
      </trkpt>
      <trkpt lat="38.9178440" lon="-6.3427090">
        <ele>241.0</ele>
        <time>2021-10-18T12:53:29Z</time>
      </trkpt>
      <trkpt lat="38.9178260" lon="-6.3426190">
        <ele>242.0</ele>
        <time>2021-10-18T12:53:33Z</time>
      </trkpt>
      <trkpt lat="38.9178120" lon="-6.3425810">
        <ele>242.8</ele>
        <time>2021-10-18T12:53:35Z</time>
      </trkpt>
      <trkpt lat="38.9178060" lon="-6.3425660">
        <ele>242.8</ele>
        <time>2021-10-18T12:53:36Z</time>
      </trkpt>
      <trkpt lat="38.9178040" lon="-6.3425500">
        <ele>243.2</ele>
        <time>2021-10-18T12:53:37Z</time>
      </trkpt>
      <trkpt lat="38.9177860" lon="-6.3424940">
        <ele>243.6</ele>
        <time>2021-10-18T12:53:40Z</time>
      </trkpt>
      <trkpt lat="38.9177880" lon="-6.3424550">
        <ele>244.2</ele>
        <time>2021-10-18T12:53:42Z</time>
      </trkpt>
      <trkpt lat="38.9177870" lon="-6.3424370">
        <ele>244.2</ele>
        <time>2021-10-18T12:53:43Z</time>
      </trkpt>
      <trkpt lat="38.9177860" lon="-6.3424180">
        <ele>244.4</ele>
        <time>2021-10-18T12:53:44Z</time>
      </trkpt>
      <trkpt lat="38.9177890" lon="-6.3423850">
        <ele>244.6</ele>
        <time>2021-10-18T12:53:46Z</time>
      </trkpt>
      <trkpt lat="38.9177980" lon="-6.3423560">
        <ele>245.0</ele>
        <time>2021-10-18T12:53:48Z</time>
      </trkpt>
      <trkpt lat="38.9177950" lon="-6.3423410">
        <ele>245.2</ele>
        <time>2021-10-18T12:53:49Z</time>
      </trkpt>
      <trkpt lat="38.9177910" lon="-6.3423260">
        <ele>245.4</ele>
        <time>2021-10-18T12:53:50Z</time>
      </trkpt>
      <trkpt lat="38.9177900" lon="-6.3422770">
        <ele>245.8</ele>
        <time>2021-10-18T12:53:53Z</time>
      </trkpt>
      <trkpt lat="38.9177910" lon="-6.3422560">
        <ele>245.8</ele>
        <time>2021-10-18T12:53:54Z</time>
      </trkpt>
      <trkpt lat="38.9177940" lon="-6.3422220">
        <ele>246.0</ele>
        <time>2021-10-18T12:53:56Z</time>
      </trkpt>
      <trkpt lat="38.9177740" lon="-6.3421640">
        <ele>246.0</ele>
        <time>2021-10-18T12:53:59Z</time>
      </trkpt>
      <trkpt lat="38.9177660" lon="-6.3420990">
        <ele>246.2</ele>
        <time>2021-10-18T12:54:02Z</time>
      </trkpt>
      <trkpt lat="38.9177580" lon="-6.3420310">
        <ele>246.2</ele>
        <time>2021-10-18T12:54:05Z</time>
      </trkpt>
      <trkpt lat="38.9177430" lon="-6.3419640">
        <ele>246.2</ele>
        <time>2021-10-18T12:54:08Z</time>
      </trkpt>
      <trkpt lat="38.9177420" lon="-6.3419110">
        <ele>246.2</ele>
        <time>2021-10-18T12:54:10Z</time>
      </trkpt>
      <trkpt lat="38.9177150" lon="-6.3417430">
        <ele>246.2</ele>
        <time>2021-10-18T12:54:16Z</time>
      </trkpt>
      <trkpt lat="38.9176910" lon="-6.3416680">
        <ele>246.0</ele>
        <time>2021-10-18T12:54:19Z</time>
      </trkpt>
      <trkpt lat="38.9176620" lon="-6.3415890">
        <ele>245.8</ele>
        <time>2021-10-18T12:54:22Z</time>
      </trkpt>
      <trkpt lat="38.9176420" lon="-6.3415300">
        <ele>245.6</ele>
        <time>2021-10-18T12:54:24Z</time>
      </trkpt>
      <trkpt lat="38.9175810" lon="-6.3414520">
        <ele>245.4</ele>
        <time>2021-10-18T12:54:27Z</time>
      </trkpt>
      <trkpt lat="38.9175590" lon="-6.3414240">
        <ele>245.4</ele>
        <time>2021-10-18T12:54:28Z</time>
      </trkpt>
      <trkpt lat="38.9175450" lon="-6.3413930">
        <ele>245.2</ele>
        <time>2021-10-18T12:54:29Z</time>
      </trkpt>
      <trkpt lat="38.9175280" lon="-6.3412920">
        <ele>245.0</ele>
        <time>2021-10-18T12:54:32Z</time>
      </trkpt>
      <trkpt lat="38.9175090" lon="-6.3412310">
        <ele>244.6</ele>
        <time>2021-10-18T12:54:34Z</time>
      </trkpt>
      <trkpt lat="38.9174940" lon="-6.3412000">
        <ele>244.4</ele>
        <time>2021-10-18T12:54:35Z</time>
      </trkpt>
      <trkpt lat="38.9174740" lon="-6.3411400">
        <ele>244.2</ele>
        <time>2021-10-18T12:54:37Z</time>
      </trkpt>
      <trkpt lat="38.9174630" lon="-6.3411120">
        <ele>244.2</ele>
        <time>2021-10-18T12:54:38Z</time>
      </trkpt>
      <trkpt lat="38.9174350" lon="-6.3410370">
        <ele>244.0</ele>
        <time>2021-10-18T12:54:41Z</time>
      </trkpt>
      <trkpt lat="38.9174160" lon="-6.3409830">
        <ele>244.0</ele>
        <time>2021-10-18T12:54:43Z</time>
      </trkpt>
      <trkpt lat="38.9173630" lon="-6.3408490">
        <ele>243.6</ele>
        <time>2021-10-18T12:54:47Z</time>
      </trkpt>
      <trkpt lat="38.9173430" lon="-6.3407450">
        <ele>243.4</ele>
        <time>2021-10-18T12:54:50Z</time>
      </trkpt>
      <trkpt lat="38.9173340" lon="-6.3407110">
        <ele>243.4</ele>
        <time>2021-10-18T12:54:51Z</time>
      </trkpt>
      <trkpt lat="38.9172850" lon="-6.3404630">
        <ele>242.8</ele>
        <time>2021-10-18T12:54:57Z</time>
      </trkpt>
      <trkpt lat="38.9172320" lon="-6.3402760">
        <ele>242.6</ele>
        <time>2021-10-18T12:55:02Z</time>
      </trkpt>
      <trkpt lat="38.9171830" lon="-6.3401890">
        <ele>242.6</ele>
        <time>2021-10-18T12:55:07Z</time>
      </trkpt>
      <trkpt lat="38.9171830" lon="-6.3400990">
        <ele>242.6</ele>
        <time>2021-10-18T12:55:10Z</time>
      </trkpt>
      <trkpt lat="38.9170730" lon="-6.3399780">
        <ele>242.8</ele>
        <time>2021-10-18T12:55:16Z</time>
      </trkpt>
      <trkpt lat="38.9169810" lon="-6.3398590">
        <ele>243.2</ele>
        <time>2021-10-18T12:55:21Z</time>
      </trkpt>
      <trkpt lat="38.9169670" lon="-6.3398310">
        <ele>243.4</ele>
        <time>2021-10-18T12:55:22Z</time>
      </trkpt>
      <trkpt lat="38.9168910" lon="-6.3396980">
        <ele>243.8</ele>
        <time>2021-10-18T12:55:28Z</time>
      </trkpt>
      <trkpt lat="38.9168160" lon="-6.3396060">
        <ele>244.0</ele>
        <time>2021-10-18T12:55:34Z</time>
      </trkpt>
      <trkpt lat="38.9167940" lon="-6.3395840">
        <ele>244.4</ele>
        <time>2021-10-18T12:55:36Z</time>
      </trkpt>
      <trkpt lat="38.9167570" lon="-6.3395390">
        <ele>244.4</ele>
        <time>2021-10-18T12:55:40Z</time>
      </trkpt>
      <trkpt lat="38.9167380" lon="-6.3395110">
        <ele>244.6</ele>
        <time>2021-10-18T12:55:42Z</time>
      </trkpt>
      <trkpt lat="38.9166720" lon="-6.3394490">
        <ele>244.6</ele>
        <time>2021-10-18T12:55:47Z</time>
      </trkpt>
      <trkpt lat="38.9166480" lon="-6.3394370">
        <ele>244.8</ele>
        <time>2021-10-18T12:55:49Z</time>
      </trkpt>
      <trkpt lat="38.9166360" lon="-6.3394300">
        <ele>245.0</ele>
        <time>2021-10-18T12:55:53Z</time>
      </trkpt>
      <trkpt lat="38.9166320" lon="-6.3394310">
        <ele>245.0</ele>
        <time>2021-10-18T12:55:55Z</time>
      </trkpt>
      <trkpt lat="38.9166670" lon="-6.3394590">
        <ele>245.2</ele>
        <time>2021-10-18T13:01:37Z</time>
      </trkpt>
      <trkpt lat="38.9166850" lon="-6.3394790">
        <ele>245.0</ele>
        <time>2021-10-18T13:01:38Z</time>
      </trkpt>
      <trkpt lat="38.9167290" lon="-6.3395430">
        <ele>244.8</ele>
        <time>2021-10-18T13:01:42Z</time>
      </trkpt>
      <trkpt lat="38.9167450" lon="-6.3395500">
        <ele>244.8</ele>
        <time>2021-10-18T13:01:43Z</time>
      </trkpt>
      <trkpt lat="38.9168140" lon="-6.3395920">
        <ele>244.6</ele>
        <time>2021-10-18T13:01:47Z</time>
      </trkpt>
      <trkpt lat="38.9168620" lon="-6.3396560">
        <ele>244.4</ele>
        <time>2021-10-18T13:01:50Z</time>
      </trkpt>
      <trkpt lat="38.9170060" lon="-6.3398390">
        <ele>244.0</ele>
        <time>2021-10-18T13:01:57Z</time>
      </trkpt>
      <trkpt lat="38.9170610" lon="-6.3399300">
        <ele>243.6</ele>
        <time>2021-10-18T13:02:01Z</time>
      </trkpt>
      <trkpt lat="38.9170880" lon="-6.3399920">
        <ele>243.4</ele>
        <time>2021-10-18T13:02:03Z</time>
      </trkpt>
      <trkpt lat="38.9171330" lon="-6.3401660">
        <ele>243.0</ele>
        <time>2021-10-18T13:02:08Z</time>
      </trkpt>
      <trkpt lat="38.9171410" lon="-6.3402580">
        <ele>243.0</ele>
        <time>2021-10-18T13:02:10Z</time>
      </trkpt>
      <trkpt lat="38.9172190" lon="-6.3404650">
        <ele>242.6</ele>
        <time>2021-10-18T13:02:14Z</time>
      </trkpt>
      <trkpt lat="38.9173300" lon="-6.3407030">
        <ele>242.6</ele>
        <time>2021-10-18T13:02:20Z</time>
      </trkpt>
      <trkpt lat="38.9173860" lon="-6.3408920">
        <ele>242.8</ele>
        <time>2021-10-18T13:02:26Z</time>
      </trkpt>
      <trkpt lat="38.9174620" lon="-6.3410760">
        <ele>243.4</ele>
        <time>2021-10-18T13:02:33Z</time>
      </trkpt>
      <trkpt lat="38.9175120" lon="-6.3412290">
        <ele>243.6</ele>
        <time>2021-10-18T13:02:39Z</time>
      </trkpt>
      <trkpt lat="38.9175160" lon="-6.3413680">
        <ele>244.4</ele>
        <time>2021-10-18T13:02:45Z</time>
      </trkpt>
      <trkpt lat="38.9175090" lon="-6.3413840">
        <ele>244.4</ele>
        <time>2021-10-18T13:02:46Z</time>
      </trkpt>
      <trkpt lat="38.9174650" lon="-6.3414870">
        <ele>245.2</ele>
        <time>2021-10-18T13:02:51Z</time>
      </trkpt>
      <trkpt lat="38.9174590" lon="-6.3415060">
        <ele>245.6</ele>
        <time>2021-10-18T13:02:52Z</time>
      </trkpt>
      <trkpt lat="38.9173950" lon="-6.3416450">
        <ele>246.2</ele>
        <time>2021-10-18T13:02:57Z</time>
      </trkpt>
      <trkpt lat="38.9173520" lon="-6.3417500">
        <ele>246.4</ele>
        <time>2021-10-18T13:03:00Z</time>
      </trkpt>
      <trkpt lat="38.9172900" lon="-6.3418510">
        <ele>246.4</ele>
        <time>2021-10-18T13:03:04Z</time>
      </trkpt>
      <trkpt lat="38.9172570" lon="-6.3419250">
        <ele>246.2</ele>
        <time>2021-10-18T13:03:07Z</time>
      </trkpt>
      <trkpt lat="38.9172120" lon="-6.3420050">
        <ele>246.0</ele>
        <time>2021-10-18T13:03:11Z</time>
      </trkpt>
      <trkpt lat="38.9171760" lon="-6.3420700">
        <ele>245.8</ele>
        <time>2021-10-18T13:03:13Z</time>
      </trkpt>
      <trkpt lat="38.9170960" lon="-6.3422640">
        <ele>245.4</ele>
        <time>2021-10-18T13:03:19Z</time>
      </trkpt>
      <trkpt lat="38.9170060" lon="-6.3424680">
        <ele>245.0</ele>
        <time>2021-10-18T13:03:25Z</time>
      </trkpt>
      <trkpt lat="38.9169400" lon="-6.3425950">
        <ele>244.6</ele>
        <time>2021-10-18T13:03:29Z</time>
      </trkpt>
      <trkpt lat="38.9169170" lon="-6.3426410">
        <ele>244.2</ele>
        <time>2021-10-18T13:03:31Z</time>
      </trkpt>
      <trkpt lat="38.9169140" lon="-6.3427150">
        <ele>243.4</ele>
        <time>2021-10-18T13:03:34Z</time>
      </trkpt>
      <trkpt lat="38.9169160" lon="-6.3427290">
        <ele>243.2</ele>
        <time>2021-10-18T13:03:35Z</time>
      </trkpt>
      <trkpt lat="38.9169170" lon="-6.3427370">
        <ele>243.0</ele>
        <time>2021-10-18T13:03:36Z</time>
      </trkpt>
      <trkpt lat="38.9169170" lon="-6.3427370">
        <ele>242.8</ele>
        <time>2021-10-18T13:03:37Z</time>
      </trkpt>
      <trkpt lat="38.9168970" lon="-6.3427850">
        <ele>242.4</ele>
        <time>2021-10-18T13:03:43Z</time>
      </trkpt>
      <trkpt lat="38.9168510" lon="-6.3428290">
        <ele>242.2</ele>
        <time>2021-10-18T13:03:46Z</time>
      </trkpt>
      <trkpt lat="38.9168410" lon="-6.3428350">
        <ele>242.0</ele>
        <time>2021-10-18T13:03:47Z</time>
      </trkpt>
      <trkpt lat="38.9168450" lon="-6.3428460">
        <ele>241.8</ele>
        <time>2021-10-18T13:03:50Z</time>
      </trkpt>
      <trkpt lat="38.9168490" lon="-6.3428520">
        <ele>241.6</ele>
        <time>2021-10-18T13:03:52Z</time>
      </trkpt>
      <trkpt lat="38.9168760" lon="-6.3428400">
        <ele>241.6</ele>
        <time>2021-10-18T13:04:35Z</time>
      </trkpt>
      <trkpt lat="38.9168840" lon="-6.3428170">
        <ele>241.6</ele>
        <time>2021-10-18T13:04:36Z</time>
      </trkpt>
      <trkpt lat="38.9169030" lon="-6.3427980">
        <ele>241.6</ele>
        <time>2021-10-18T13:04:37Z</time>
      </trkpt>
      <trkpt lat="38.9169480" lon="-6.3428040">
        <ele>241.6</ele>
        <time>2021-10-18T13:04:39Z</time>
      </trkpt>
      <trkpt lat="38.9170890" lon="-6.3429300">
        <ele>242.2</ele>
        <time>2021-10-18T13:04:46Z</time>
      </trkpt>
      <trkpt lat="38.9172710" lon="-6.3431410">
        <ele>242.2</ele>
        <time>2021-10-18T13:04:53Z</time>
      </trkpt>
      <trkpt lat="38.9173890" lon="-6.3433080">
        <ele>241.2</ele>
        <time>2021-10-18T13:04:58Z</time>
      </trkpt>
      <trkpt lat="38.9173940" lon="-6.3433350">
        <ele>241.2</ele>
        <time>2021-10-18T13:04:59Z</time>
      </trkpt>
      <trkpt lat="38.9173930" lon="-6.3433500">
        <ele>241.2</ele>
        <time>2021-10-18T13:05:00Z</time>
      </trkpt>
      <trkpt lat="38.9173570" lon="-6.3433820">
        <ele>241.2</ele>
        <time>2021-10-18T13:05:02Z</time>
      </trkpt>
      <trkpt lat="38.9172400" lon="-6.3434790">
        <ele>241.0</ele>
        <time>2021-10-18T13:05:07Z</time>
      </trkpt>
      <trkpt lat="38.9171560" lon="-6.3435260">
        <ele>240.6</ele>
        <time>2021-10-18T13:05:11Z</time>
      </trkpt>
      <trkpt lat="38.9171350" lon="-6.3435600">
        <ele>240.6</ele>
        <time>2021-10-18T13:05:12Z</time>
      </trkpt>
      <trkpt lat="38.9169790" lon="-6.3437210">
        <ele>240.4</ele>
        <time>2021-10-18T13:05:18Z</time>
      </trkpt>
      <trkpt lat="38.9168890" lon="-6.3437860">
        <ele>240.2</ele>
        <time>2021-10-18T13:05:20Z</time>
      </trkpt>
      <trkpt lat="38.9168520" lon="-6.3438180">
        <ele>240.0</ele>
        <time>2021-10-18T13:05:21Z</time>
      </trkpt>
      <trkpt lat="38.9167880" lon="-6.3438280">
        <ele>239.6</ele>
        <time>2021-10-18T13:05:23Z</time>
      </trkpt>
      <trkpt lat="38.9167160" lon="-6.3438290">
        <ele>239.0</ele>
        <time>2021-10-18T13:05:25Z</time>
      </trkpt>
      <trkpt lat="38.9166360" lon="-6.3438320">
        <ele>238.8</ele>
        <time>2021-10-18T13:05:28Z</time>
      </trkpt>
      <trkpt lat="38.9166070" lon="-6.3438320">
        <ele>238.6</ele>
        <time>2021-10-18T13:05:30Z</time>
      </trkpt>
      <trkpt lat="38.9165760" lon="-6.3438090">
        <ele>238.4</ele>
        <time>2021-10-18T13:05:32Z</time>
      </trkpt>
      <trkpt lat="38.9164200" lon="-6.3438060">
        <ele>238.2</ele>
        <time>2021-10-18T13:05:37Z</time>
      </trkpt>
      <trkpt lat="38.9164000" lon="-6.3438100">
        <ele>238.0</ele>
        <time>2021-10-18T13:05:38Z</time>
      </trkpt>
      <trkpt lat="38.9163810" lon="-6.3438280">
        <ele>238.0</ele>
        <time>2021-10-18T13:05:39Z</time>
      </trkpt>
      <trkpt lat="38.9163630" lon="-6.3438610">
        <ele>238.0</ele>
        <time>2021-10-18T13:05:40Z</time>
      </trkpt>
      <trkpt lat="38.9163340" lon="-6.3440680">
        <ele>237.4</ele>
        <time>2021-10-18T13:05:47Z</time>
      </trkpt>
      <trkpt lat="38.9163360" lon="-6.3440740">
        <ele>237.2</ele>
        <time>2021-10-18T13:05:50Z</time>
      </trkpt>
      <trkpt lat="38.9163260" lon="-6.3441270">
        <ele>237.6</ele>
        <time>2021-10-18T13:13:25Z</time>
      </trkpt>
      <trkpt lat="38.9163140" lon="-6.3441530">
        <ele>237.6</ele>
        <time>2021-10-18T13:13:26Z</time>
      </trkpt>
      <trkpt lat="38.9162900" lon="-6.3442040">
        <ele>237.6</ele>
        <time>2021-10-18T13:13:28Z</time>
      </trkpt>
      <trkpt lat="38.9162530" lon="-6.3443200">
        <ele>237.4</ele>
        <time>2021-10-18T13:13:32Z</time>
      </trkpt>
      <trkpt lat="38.9161750" lon="-6.3444540">
        <ele>237.0</ele>
        <time>2021-10-18T13:13:38Z</time>
      </trkpt>
      <trkpt lat="38.9161250" lon="-6.3445330">
        <ele>237.0</ele>
        <time>2021-10-18T13:13:42Z</time>
      </trkpt>
      <trkpt lat="38.9161110" lon="-6.3445560">
        <ele>236.8</ele>
        <time>2021-10-18T13:13:43Z</time>
      </trkpt>
      <trkpt lat="38.9160820" lon="-6.3446220">
        <ele>236.8</ele>
        <time>2021-10-18T13:13:46Z</time>
      </trkpt>
      <trkpt lat="38.9160590" lon="-6.3446810">
        <ele>236.6</ele>
        <time>2021-10-18T13:13:49Z</time>
      </trkpt>
      <trkpt lat="38.9160540" lon="-6.3446970">
        <ele>236.4</ele>
        <time>2021-10-18T13:13:50Z</time>
      </trkpt>
      <trkpt lat="38.9160370" lon="-6.3447140">
        <ele>236.2</ele>
        <time>2021-10-18T13:13:52Z</time>
      </trkpt>
      <trkpt lat="38.9160190" lon="-6.3446950">
        <ele>236.0</ele>
        <time>2021-10-18T13:13:54Z</time>
      </trkpt>
      <trkpt lat="38.9159150" lon="-6.3446320">
        <ele>236.0</ele>
        <time>2021-10-18T13:13:59Z</time>
      </trkpt>
      <trkpt lat="38.9158190" lon="-6.3444880">
        <ele>236.0</ele>
        <time>2021-10-18T13:14:05Z</time>
      </trkpt>
      <trkpt lat="38.9158020" lon="-6.3444680">
        <ele>236.0</ele>
        <time>2021-10-18T13:14:06Z</time>
      </trkpt>
      <trkpt lat="38.9157410" lon="-6.3444010">
        <ele>236.0</ele>
        <time>2021-10-18T13:14:09Z</time>
      </trkpt>
      <trkpt lat="38.9157180" lon="-6.3443690">
        <ele>236.0</ele>
        <time>2021-10-18T13:14:11Z</time>
      </trkpt>
      <trkpt lat="38.9157110" lon="-6.3443230">
        <ele>235.8</ele>
        <time>2021-10-18T13:14:13Z</time>
      </trkpt>
      <trkpt lat="38.9156940" lon="-6.3443010">
        <ele>235.6</ele>
        <time>2021-10-18T13:14:14Z</time>
      </trkpt>
      <trkpt lat="38.9156410" lon="-6.3442600">
        <ele>235.6</ele>
        <time>2021-10-18T13:14:16Z</time>
      </trkpt>
      <trkpt lat="38.9155370" lon="-6.3442220">
        <ele>235.4</ele>
        <time>2021-10-18T13:14:21Z</time>
      </trkpt>
      <trkpt lat="38.9154950" lon="-6.3441950">
        <ele>235.4</ele>
        <time>2021-10-18T13:14:23Z</time>
      </trkpt>
      <trkpt lat="38.9154580" lon="-6.3441580">
        <ele>235.6</ele>
        <time>2021-10-18T13:14:25Z</time>
      </trkpt>
      <trkpt lat="38.9154210" lon="-6.3441110">
        <ele>235.6</ele>
        <time>2021-10-18T13:14:27Z</time>
      </trkpt>
      <trkpt lat="38.9153990" lon="-6.3440590">
        <ele>235.8</ele>
        <time>2021-10-18T13:14:29Z</time>
      </trkpt>
      <trkpt lat="38.9153880" lon="-6.3440400">
        <ele>235.8</ele>
        <time>2021-10-18T13:14:30Z</time>
      </trkpt>
      <trkpt lat="38.9153640" lon="-6.3439900">
        <ele>235.8</ele>
        <time>2021-10-18T13:14:33Z</time>
      </trkpt>
      <trkpt lat="38.9153440" lon="-6.3439370">
        <ele>235.8</ele>
        <time>2021-10-18T13:14:35Z</time>
      </trkpt>
      <trkpt lat="38.9153260" lon="-6.3439200">
        <ele>235.8</ele>
        <time>2021-10-18T13:14:36Z</time>
      </trkpt>
      <trkpt lat="38.9152220" lon="-6.3438020">
        <ele>235.4</ele>
        <time>2021-10-18T13:14:42Z</time>
      </trkpt>
      <trkpt lat="38.9152170" lon="-6.3438010">
        <ele>235.2</ele>
        <time>2021-10-18T13:14:44Z</time>
      </trkpt>
      <trkpt lat="38.9151750" lon="-6.3437590">
        <ele>235.0</ele>
        <time>2021-10-18T13:14:49Z</time>
      </trkpt>
      <trkpt lat="38.9151540" lon="-6.3437460">
        <ele>235.0</ele>
        <time>2021-10-18T13:14:50Z</time>
      </trkpt>
      <trkpt lat="38.9151060" lon="-6.3437280">
        <ele>234.8</ele>
        <time>2021-10-18T13:14:52Z</time>
      </trkpt>
      <trkpt lat="38.9151040" lon="-6.3437280">
        <ele>234.6</ele>
        <time>2021-10-18T13:14:54Z</time>
      </trkpt>
      <trkpt lat="38.9150530" lon="-6.3436910">
        <ele>234.2</ele>
        <time>2021-10-18T13:14:58Z</time>
      </trkpt>
      <trkpt lat="38.9148980" lon="-6.3436150">
        <ele>233.8</ele>
        <time>2021-10-18T13:15:03Z</time>
      </trkpt>
      <trkpt lat="38.9147640" lon="-6.3435150">
        <ele>233.0</ele>
        <time>2021-10-18T13:15:09Z</time>
      </trkpt>
      <trkpt lat="38.9147390" lon="-6.3435000">
        <ele>232.8</ele>
        <time>2021-10-18T13:15:11Z</time>
      </trkpt>
      <trkpt lat="38.9147140" lon="-6.3434660">
        <ele>232.2</ele>
        <time>2021-10-18T13:15:14Z</time>
      </trkpt>
      <trkpt lat="38.9147000" lon="-6.3434520">
        <ele>232.0</ele>
        <time>2021-10-18T13:15:17Z</time>
      </trkpt>
      <trkpt lat="38.9146950" lon="-6.3434480">
        <ele>232.0</ele>
        <time>2021-10-18T13:15:18Z</time>
      </trkpt>
      <trkpt lat="38.9146090" lon="-6.3433700">
        <ele>231.8</ele>
        <time>2021-10-18T13:15:23Z</time>
      </trkpt>
      <trkpt lat="38.9145070" lon="-6.3432900">
        <ele>231.2</ele>
        <time>2021-10-18T13:15:28Z</time>
      </trkpt>
      <trkpt lat="38.9145020" lon="-6.3432900">
        <ele>231.0</ele>
        <time>2021-10-18T13:15:29Z</time>
      </trkpt>
      <trkpt lat="38.9145020" lon="-6.3432900">
        <ele>230.8</ele>
        <time>2021-10-18T13:15:30Z</time>
      </trkpt>
      <trkpt lat="38.9144830" lon="-6.3433060">
        <ele>230.6</ele>
        <time>2021-10-18T13:15:34Z</time>
      </trkpt>
      <trkpt lat="38.9144720" lon="-6.3433110">
        <ele>230.6</ele>
        <time>2021-10-18T13:15:35Z</time>
      </trkpt>
      <trkpt lat="38.9144460" lon="-6.3433450">
        <ele>230.4</ele>
        <time>2021-10-18T13:15:38Z</time>
      </trkpt>
      <trkpt lat="38.9144260" lon="-6.3433480">
        <ele>230.4</ele>
        <time>2021-10-18T13:15:41Z</time>
      </trkpt>
      <trkpt lat="38.9144140" lon="-6.3433550">
        <ele>230.4</ele>
        <time>2021-10-18T13:15:42Z</time>
      </trkpt>
      <trkpt lat="38.9143750" lon="-6.3433830">
        <ele>230.2</ele>
        <time>2021-10-18T13:15:45Z</time>
      </trkpt>
      <trkpt lat="38.9143320" lon="-6.3434220">
        <ele>230.2</ele>
        <time>2021-10-18T13:15:47Z</time>
      </trkpt>
      <trkpt lat="38.9143160" lon="-6.3434390">
        <ele>230.2</ele>
        <time>2021-10-18T13:15:48Z</time>
      </trkpt>
      <trkpt lat="38.9141990" lon="-6.3436170">
        <ele>230.0</ele>
        <time>2021-10-18T13:15:55Z</time>
      </trkpt>
      <trkpt lat="38.9141990" lon="-6.3436760">
        <ele>229.8</ele>
        <time>2021-10-18T13:15:57Z</time>
      </trkpt>
      <trkpt lat="38.9141750" lon="-6.3437340">
        <ele>229.8</ele>
        <time>2021-10-18T13:15:59Z</time>
      </trkpt>
      <trkpt lat="38.9140810" lon="-6.3439000">
        <ele>229.4</ele>
        <time>2021-10-18T13:16:05Z</time>
      </trkpt>
      <trkpt lat="38.9140050" lon="-6.3440870">
        <ele>229.2</ele>
        <time>2021-10-18T13:16:10Z</time>
      </trkpt>
      <trkpt lat="38.9139460" lon="-6.3442620">
        <ele>229.0</ele>
        <time>2021-10-18T13:16:15Z</time>
      </trkpt>
      <trkpt lat="38.9138840" lon="-6.3444210">
        <ele>228.8</ele>
        <time>2021-10-18T13:16:21Z</time>
      </trkpt>
      <trkpt lat="38.9138860" lon="-6.3444360">
        <ele>228.8</ele>
        <time>2021-10-18T13:16:22Z</time>
      </trkpt>
      <trkpt lat="38.9138830" lon="-6.3444570">
        <ele>228.6</ele>
        <time>2021-10-18T13:16:26Z</time>
      </trkpt>
      <trkpt lat="38.9138830" lon="-6.3444930">
        <ele>228.4</ele>
        <time>2021-10-18T13:16:32Z</time>
      </trkpt>
      <trkpt lat="38.9138200" lon="-6.3444680">
        <ele>228.4</ele>
        <time>2021-10-18T13:16:37Z</time>
      </trkpt>
      <trkpt lat="38.9138150" lon="-6.3444770">
        <ele>228.4</ele>
        <time>2021-10-18T13:16:38Z</time>
      </trkpt>
      <trkpt lat="38.9138050" lon="-6.3444890">
        <ele>228.4</ele>
        <time>2021-10-18T13:16:39Z</time>
      </trkpt>
      <trkpt lat="38.9137930" lon="-6.3444980">
        <ele>228.2</ele>
        <time>2021-10-18T13:16:40Z</time>
      </trkpt>
      <trkpt lat="38.9137720" lon="-6.3445210">
        <ele>228.2</ele>
        <time>2021-10-18T13:16:42Z</time>
      </trkpt>
      <trkpt lat="38.9137610" lon="-6.3445220">
        <ele>228.2</ele>
        <time>2021-10-18T13:16:43Z</time>
      </trkpt>
      <trkpt lat="38.9137330" lon="-6.3445120">
        <ele>228.0</ele>
        <time>2021-10-18T13:16:45Z</time>
      </trkpt>
      <trkpt lat="38.9137260" lon="-6.3445230">
        <ele>228.0</ele>
        <time>2021-10-18T13:16:48Z</time>
      </trkpt>
      <trkpt lat="38.9137710" lon="-6.3446700">
        <ele>232.4</ele>
        <time>2021-10-18T14:43:55Z</time>
      </trkpt>
      <trkpt lat="38.9137500" lon="-6.3446570">
        <ele>232.4</ele>
        <time>2021-10-18T14:43:56Z</time>
      </trkpt>
      <trkpt lat="38.9137290" lon="-6.3446390">
        <ele>232.4</ele>
        <time>2021-10-18T14:43:57Z</time>
      </trkpt>
      <trkpt lat="38.9137090" lon="-6.3446310">
        <ele>232.4</ele>
        <time>2021-10-18T14:43:58Z</time>
      </trkpt>
      <trkpt lat="38.9136210" lon="-6.3446430">
        <ele>232.2</ele>
        <time>2021-10-18T14:44:01Z</time>
      </trkpt>
      <trkpt lat="38.9135830" lon="-6.3446660">
        <ele>232.2</ele>
        <time>2021-10-18T14:44:02Z</time>
      </trkpt>
      <trkpt lat="38.9134660" lon="-6.3447480">
        <ele>232.0</ele>
        <time>2021-10-18T14:44:05Z</time>
      </trkpt>
      <trkpt lat="38.9132980" lon="-6.3449450">
        <ele>231.8</ele>
        <time>2021-10-18T14:44:11Z</time>
      </trkpt>
      <trkpt lat="38.9132430" lon="-6.3449830">
        <ele>231.6</ele>
        <time>2021-10-18T14:44:13Z</time>
      </trkpt>
      <trkpt lat="38.9131650" lon="-6.3449990">
        <ele>231.6</ele>
        <time>2021-10-18T14:44:15Z</time>
      </trkpt>
      <trkpt lat="38.9130560" lon="-6.3450600">
        <ele>231.4</ele>
        <time>2021-10-18T14:44:18Z</time>
      </trkpt>
      <trkpt lat="38.9129920" lon="-6.3451120">
        <ele>231.4</ele>
        <time>2021-10-18T14:44:20Z</time>
      </trkpt>
      <trkpt lat="38.9127590" lon="-6.3452370">
        <ele>231.2</ele>
        <time>2021-10-18T14:44:26Z</time>
      </trkpt>
      <trkpt lat="38.9124850" lon="-6.3453160">
        <ele>230.8</ele>
        <time>2021-10-18T14:44:33Z</time>
      </trkpt>
      <trkpt lat="38.9124430" lon="-6.3453270">
        <ele>230.6</ele>
        <time>2021-10-18T14:44:34Z</time>
      </trkpt>
      <trkpt lat="38.9122550" lon="-6.3453740">
        <ele>230.4</ele>
        <time>2021-10-18T14:44:39Z</time>
      </trkpt>
      <trkpt lat="38.9122000" lon="-6.3453860">
        <ele>230.0</ele>
        <time>2021-10-18T14:44:41Z</time>
      </trkpt>
      <trkpt lat="38.9120890" lon="-6.3453870">
        <ele>229.6</ele>
        <time>2021-10-18T14:44:46Z</time>
      </trkpt>
      <trkpt lat="38.9120770" lon="-6.3453900">
        <ele>229.4</ele>
        <time>2021-10-18T14:44:47Z</time>
      </trkpt>
      <trkpt lat="38.9120820" lon="-6.3454330">
        <ele>229.2</ele>
        <time>2021-10-18T14:44:50Z</time>
      </trkpt>
      <trkpt lat="38.9120890" lon="-6.3454930">
        <ele>229.2</ele>
        <time>2021-10-18T14:44:53Z</time>
      </trkpt>
      <trkpt lat="38.9120720" lon="-6.3455050">
        <ele>229.2</ele>
        <time>2021-10-18T14:44:54Z</time>
      </trkpt>
      <trkpt lat="38.9119490" lon="-6.3454570">
        <ele>229.0</ele>
        <time>2021-10-18T14:44:59Z</time>
      </trkpt>
      <trkpt lat="38.9118380" lon="-6.3454220">
        <ele>229.0</ele>
        <time>2021-10-18T14:45:02Z</time>
      </trkpt>
      <trkpt lat="38.9117810" lon="-6.3453900">
        <ele>228.8</ele>
        <time>2021-10-18T14:45:04Z</time>
      </trkpt>
      <trkpt lat="38.9117550" lon="-6.3453880">
        <ele>228.6</ele>
        <time>2021-10-18T14:45:05Z</time>
      </trkpt>
      <trkpt lat="38.9117340" lon="-6.3454200">
        <ele>228.2</ele>
        <time>2021-10-18T14:45:07Z</time>
      </trkpt>
      <trkpt lat="38.9118250" lon="-6.3454730">
        <ele>227.2</ele>
        <time>2021-10-18T14:45:11Z</time>
      </trkpt>
      <trkpt lat="38.9120010" lon="-6.3455740">
        <ele>226.2</ele>
        <time>2021-10-18T14:45:16Z</time>
      </trkpt>
      <trkpt lat="38.9120230" lon="-6.3455940">
        <ele>226.2</ele>
        <time>2021-10-18T14:45:17Z</time>
      </trkpt>
      <trkpt lat="38.9120310" lon="-6.3456170">
        <ele>225.8</ele>
        <time>2021-10-18T14:45:18Z</time>
      </trkpt>
      <trkpt lat="38.9120220" lon="-6.3456390">
        <ele>225.4</ele>
        <time>2021-10-18T14:45:19Z</time>
      </trkpt>
      <trkpt lat="38.9119780" lon="-6.3456380">
        <ele>224.8</ele>
        <time>2021-10-18T14:45:21Z</time>
      </trkpt>
      <trkpt lat="38.9119450" lon="-6.3456270">
        <ele>224.8</ele>
        <time>2021-10-18T14:45:22Z</time>
      </trkpt>
      <trkpt lat="38.9117450" lon="-6.3455390">
        <ele>224.0</ele>
        <time>2021-10-18T14:45:27Z</time>
      </trkpt>
      <trkpt lat="38.9116990" lon="-6.3455370">
        <ele>223.8</ele>
        <time>2021-10-18T14:45:28Z</time>
      </trkpt>
      <trkpt lat="38.9116530" lon="-6.3455460">
        <ele>223.4</ele>
        <time>2021-10-18T14:45:29Z</time>
      </trkpt>
      <trkpt lat="38.9115880" lon="-6.3456010">
        <ele>223.0</ele>
        <time>2021-10-18T14:45:31Z</time>
      </trkpt>
      <trkpt lat="38.9115610" lon="-6.3456560">
        <ele>222.6</ele>
        <time>2021-10-18T14:45:33Z</time>
      </trkpt>
      <trkpt lat="38.9115530" lon="-6.3456820">
        <ele>222.6</ele>
        <time>2021-10-18T14:45:34Z</time>
      </trkpt>
      <trkpt lat="38.9115110" lon="-6.3457920">
        <ele>223.0</ele>
        <time>2021-10-18T14:45:39Z</time>
      </trkpt>
      <trkpt lat="38.9115020" lon="-6.3458370">
        <ele>223.6</ele>
        <time>2021-10-18T14:45:43Z</time>
      </trkpt>
      <trkpt lat="38.9114750" lon="-6.3458880">
        <ele>223.8</ele>
        <time>2021-10-18T14:46:58Z</time>
      </trkpt>
      <trkpt lat="38.9113770" lon="-6.3460200">
        <ele>224.0</ele>
        <time>2021-10-18T14:47:02Z</time>
      </trkpt>
      <trkpt lat="38.9113400" lon="-6.3460340">
        <ele>223.6</ele>
        <time>2021-10-18T14:47:03Z</time>
      </trkpt>
      <trkpt lat="38.9112250" lon="-6.3460060">
        <ele>222.8</ele>
        <time>2021-10-18T14:47:06Z</time>
      </trkpt>
      <trkpt lat="38.9111910" lon="-6.3459820">
        <ele>222.2</ele>
        <time>2021-10-18T14:47:07Z</time>
      </trkpt>
      <trkpt lat="38.9109930" lon="-6.3458430">
        <ele>221.8</ele>
        <time>2021-10-18T14:47:13Z</time>
      </trkpt>
      <trkpt lat="38.9109260" lon="-6.3458180">
        <ele>221.8</ele>
        <time>2021-10-18T14:47:15Z</time>
      </trkpt>
      <trkpt lat="38.9107920" lon="-6.3458720">
        <ele>221.8</ele>
        <time>2021-10-18T14:47:19Z</time>
      </trkpt>
      <trkpt lat="38.9107330" lon="-6.3459790">
        <ele>221.8</ele>
        <time>2021-10-18T14:47:22Z</time>
      </trkpt>
      <trkpt lat="38.9107360" lon="-6.3460240">
        <ele>221.8</ele>
        <time>2021-10-18T14:47:23Z</time>
      </trkpt>
      <trkpt lat="38.9108430" lon="-6.3462170">
        <ele>221.8</ele>
        <time>2021-10-18T14:47:28Z</time>
      </trkpt>
      <trkpt lat="38.9109790" lon="-6.3464240">
        <ele>221.6</ele>
        <time>2021-10-18T14:47:34Z</time>
      </trkpt>
      <trkpt lat="38.9111350" lon="-6.3466430">
        <ele>221.8</ele>
        <time>2021-10-18T14:47:41Z</time>
      </trkpt>
      <trkpt lat="38.9112820" lon="-6.3468100">
        <ele>221.8</ele>
        <time>2021-10-18T14:47:47Z</time>
      </trkpt>
      <trkpt lat="38.9113560" lon="-6.3468880">
        <ele>221.8</ele>
        <time>2021-10-18T14:47:50Z</time>
      </trkpt>
      <trkpt lat="38.9115570" lon="-6.3470680">
        <ele>222.2</ele>
        <time>2021-10-18T14:47:57Z</time>
      </trkpt>
      <trkpt lat="38.9116150" lon="-6.3471230">
        <ele>222.2</ele>
        <time>2021-10-18T14:47:59Z</time>
      </trkpt>
      <trkpt lat="38.9118730" lon="-6.3473500">
        <ele>222.6</ele>
        <time>2021-10-18T14:48:08Z</time>
      </trkpt>
      <trkpt lat="38.9120970" lon="-6.3475720">
        <ele>222.6</ele>
        <time>2021-10-18T14:48:16Z</time>
      </trkpt>
      <trkpt lat="38.9122470" lon="-6.3477170">
        <ele>222.6</ele>
        <time>2021-10-18T14:48:21Z</time>
      </trkpt>
      <trkpt lat="38.9122870" lon="-6.3477300">
        <ele>222.6</ele>
        <time>2021-10-18T14:48:22Z</time>
      </trkpt>
      <trkpt lat="38.9123270" lon="-6.3477330">
        <ele>222.6</ele>
        <time>2021-10-18T14:48:23Z</time>
      </trkpt>
      <trkpt lat="38.9124420" lon="-6.3476920">
        <ele>222.2</ele>
        <time>2021-10-18T14:48:26Z</time>
      </trkpt>
      <trkpt lat="38.9125090" lon="-6.3476680">
        <ele>222.2</ele>
        <time>2021-10-18T14:48:28Z</time>
      </trkpt>
      <trkpt lat="38.9125750" lon="-6.3476850">
        <ele>222.0</ele>
        <time>2021-10-18T14:48:30Z</time>
      </trkpt>
      <trkpt lat="38.9127930" lon="-6.3478040">
        <ele>221.8</ele>
        <time>2021-10-18T14:48:37Z</time>
      </trkpt>
      <trkpt lat="38.9130440" lon="-6.3479520">
        <ele>222.0</ele>
        <time>2021-10-18T14:48:45Z</time>
      </trkpt>
      <trkpt lat="38.9132780" lon="-6.3480820">
        <ele>221.8</ele>
        <time>2021-10-18T14:48:53Z</time>
      </trkpt>
      <trkpt lat="38.9135060" lon="-6.3482000">
        <ele>221.8</ele>
        <time>2021-10-18T14:49:01Z</time>
      </trkpt>
      <trkpt lat="38.9137540" lon="-6.3483530">
        <ele>222.0</ele>
        <time>2021-10-18T14:49:10Z</time>
      </trkpt>
      <trkpt lat="38.9137880" lon="-6.3484770">
        <ele>222.0</ele>
        <time>2021-10-18T14:49:14Z</time>
      </trkpt>
      <trkpt lat="38.9137890" lon="-6.3485660">
        <ele>222.0</ele>
        <time>2021-10-18T14:49:17Z</time>
      </trkpt>
      <trkpt lat="38.9138010" lon="-6.3485900">
        <ele>222.2</ele>
        <time>2021-10-18T14:49:18Z</time>
      </trkpt>
      <trkpt lat="38.9138500" lon="-6.3486510">
        <ele>222.8</ele>
        <time>2021-10-18T14:49:21Z</time>
      </trkpt>
      <trkpt lat="38.9139530" lon="-6.3487480">
        <ele>223.0</ele>
        <time>2021-10-18T14:49:26Z</time>
      </trkpt>
      <trkpt lat="38.9140050" lon="-6.3488110">
        <ele>223.2</ele>
        <time>2021-10-18T14:49:29Z</time>
      </trkpt>
      <trkpt lat="38.9140560" lon="-6.3488530">
        <ele>223.4</ele>
        <time>2021-10-18T14:49:32Z</time>
      </trkpt>
      <trkpt lat="38.9140850" lon="-6.3488810">
        <ele>223.6</ele>
        <time>2021-10-18T14:49:34Z</time>
      </trkpt>
      <trkpt lat="38.9141450" lon="-6.3489540">
        <ele>224.6</ele>
        <time>2021-10-18T14:49:39Z</time>
      </trkpt>
      <trkpt lat="38.9141570" lon="-6.3489660">
        <ele>224.8</ele>
        <time>2021-10-18T14:49:40Z</time>
      </trkpt>
      <trkpt lat="38.9142360" lon="-6.3490290">
        <ele>225.8</ele>
        <time>2021-10-18T14:49:46Z</time>
      </trkpt>
      <trkpt lat="38.9142490" lon="-6.3490340">
        <ele>225.8</ele>
        <time>2021-10-18T14:49:47Z</time>
      </trkpt>
      <trkpt lat="38.9142770" lon="-6.3490470">
        <ele>226.2</ele>
        <time>2021-10-18T14:49:49Z</time>
      </trkpt>
      <trkpt lat="38.9142990" lon="-6.3490760">
        <ele>226.8</ele>
        <time>2021-10-18T14:49:51Z</time>
      </trkpt>
      <trkpt lat="38.9143170" lon="-6.3491180">
        <ele>227.2</ele>
        <time>2021-10-18T14:49:53Z</time>
      </trkpt>
      <trkpt lat="38.9143150" lon="-6.3491420">
        <ele>227.4</ele>
        <time>2021-10-18T14:49:54Z</time>
      </trkpt>
      <trkpt lat="38.9142780" lon="-6.3492080">
        <ele>227.8</ele>
        <time>2021-10-18T14:49:57Z</time>
      </trkpt>
      <trkpt lat="38.9142670" lon="-6.3492280">
        <ele>227.8</ele>
        <time>2021-10-18T14:49:58Z</time>
      </trkpt>
      <trkpt lat="38.9142280" lon="-6.3493170">
        <ele>228.0</ele>
        <time>2021-10-18T14:50:02Z</time>
      </trkpt>
      <trkpt lat="38.9141740" lon="-6.3494080">
        <ele>228.0</ele>
        <time>2021-10-18T14:50:06Z</time>
      </trkpt>
      <trkpt lat="38.9141190" lon="-6.3494930">
        <ele>228.0</ele>
        <time>2021-10-18T14:50:10Z</time>
      </trkpt>
      <trkpt lat="38.9141030" lon="-6.3495120">
        <ele>228.0</ele>
        <time>2021-10-18T14:50:11Z</time>
      </trkpt>
      <trkpt lat="38.9140580" lon="-6.3495740">
        <ele>228.0</ele>
        <time>2021-10-18T14:50:14Z</time>
      </trkpt>
      <trkpt lat="38.9139560" lon="-6.3497610">
        <ele>228.2</ele>
        <time>2021-10-18T14:50:21Z</time>
      </trkpt>
      <trkpt lat="38.9138960" lon="-6.3498630">
        <ele>228.0</ele>
        <time>2021-10-18T14:50:25Z</time>
      </trkpt>
      <trkpt lat="38.9138600" lon="-6.3499110">
        <ele>228.0</ele>
        <time>2021-10-18T14:50:27Z</time>
      </trkpt>
      <trkpt lat="38.9138420" lon="-6.3499330">
        <ele>228.0</ele>
        <time>2021-10-18T14:50:28Z</time>
      </trkpt>
      <trkpt lat="38.9138130" lon="-6.3499810">
        <ele>228.0</ele>
        <time>2021-10-18T14:50:30Z</time>
      </trkpt>
      <trkpt lat="38.9137320" lon="-6.3500920">
        <ele>228.0</ele>
        <time>2021-10-18T14:50:35Z</time>
      </trkpt>
      <trkpt lat="38.9136790" lon="-6.3502000">
        <ele>228.0</ele>
        <time>2021-10-18T14:50:39Z</time>
      </trkpt>
      <trkpt lat="38.9136070" lon="-6.3503370">
        <ele>228.0</ele>
        <time>2021-10-18T14:50:44Z</time>
      </trkpt>
      <trkpt lat="38.9135180" lon="-6.3504720">
        <ele>228.0</ele>
        <time>2021-10-18T14:50:49Z</time>
      </trkpt>
      <trkpt lat="38.9134620" lon="-6.3505560">
        <ele>228.0</ele>
        <time>2021-10-18T14:50:52Z</time>
      </trkpt>
      <trkpt lat="38.9133720" lon="-6.3506980">
        <ele>228.0</ele>
        <time>2021-10-18T14:50:57Z</time>
      </trkpt>
      <trkpt lat="38.9133180" lon="-6.3507820">
        <ele>228.0</ele>
        <time>2021-10-18T14:51:00Z</time>
      </trkpt>
      <trkpt lat="38.9132280" lon="-6.3509210">
        <ele>228.0</ele>
        <time>2021-10-18T14:51:05Z</time>
      </trkpt>
      <trkpt lat="38.9131740" lon="-6.3509840">
        <ele>228.0</ele>
        <time>2021-10-18T14:51:08Z</time>
      </trkpt>
      <trkpt lat="38.9130990" lon="-6.3511260">
        <ele>228.2</ele>
        <time>2021-10-18T14:51:13Z</time>
      </trkpt>
      <trkpt lat="38.9130770" lon="-6.3511590">
        <ele>228.2</ele>
        <time>2021-10-18T14:51:14Z</time>
      </trkpt>
      <trkpt lat="38.9129530" lon="-6.3513600">
        <ele>228.4</ele>
        <time>2021-10-18T14:51:21Z</time>
      </trkpt>
      <trkpt lat="38.9128690" lon="-6.3514930">
        <ele>228.2</ele>
        <time>2021-10-18T14:51:25Z</time>
      </trkpt>
      <trkpt lat="38.9127170" lon="-6.3517460">
        <ele>227.8</ele>
        <time>2021-10-18T14:51:33Z</time>
      </trkpt>
      <trkpt lat="38.9126140" lon="-6.3519160">
        <ele>227.6</ele>
        <time>2021-10-18T14:51:39Z</time>
      </trkpt>
      <trkpt lat="38.9125950" lon="-6.3519440">
        <ele>227.6</ele>
        <time>2021-10-18T14:51:40Z</time>
      </trkpt>
      <trkpt lat="38.9123960" lon="-6.3522560">
        <ele>227.4</ele>
        <time>2021-10-18T14:51:51Z</time>
      </trkpt>
      <trkpt lat="38.9122560" lon="-6.3524780">
        <ele>227.0</ele>
        <time>2021-10-18T14:51:59Z</time>
      </trkpt>
      <trkpt lat="38.9121780" lon="-6.3524350">
        <ele>226.6</ele>
        <time>2021-10-18T14:52:03Z</time>
      </trkpt>
      <trkpt lat="38.9121530" lon="-6.3524130">
        <ele>226.6</ele>
        <time>2021-10-18T14:52:04Z</time>
      </trkpt>
      <trkpt lat="38.9121290" lon="-6.3523840">
        <ele>226.4</ele>
        <time>2021-10-18T14:52:05Z</time>
      </trkpt>
      <trkpt lat="38.9120760" lon="-6.3523150">
        <ele>226.4</ele>
        <time>2021-10-18T14:52:07Z</time>
      </trkpt>
      <trkpt lat="38.9118800" lon="-6.3521430">
        <ele>225.4</ele>
        <time>2021-10-18T14:52:13Z</time>
      </trkpt>
      <trkpt lat="38.9118210" lon="-6.3520880">
        <ele>225.0</ele>
        <time>2021-10-18T14:52:15Z</time>
      </trkpt>
      <trkpt lat="38.9116680" lon="-6.3519420">
        <ele>224.6</ele>
        <time>2021-10-18T14:52:21Z</time>
      </trkpt>
      <trkpt lat="38.9115810" lon="-6.3518710">
        <ele>224.4</ele>
        <time>2021-10-18T14:52:24Z</time>
      </trkpt>
      <trkpt lat="38.9114910" lon="-6.3517960">
        <ele>224.6</ele>
        <time>2021-10-18T14:52:28Z</time>
      </trkpt>
      <trkpt lat="38.9113800" lon="-6.3516980">
        <ele>224.6</ele>
        <time>2021-10-18T14:52:33Z</time>
      </trkpt>
      <trkpt lat="38.9112000" lon="-6.3516290">
        <ele>224.4</ele>
        <time>2021-10-18T14:52:38Z</time>
      </trkpt>
      <trkpt lat="38.9110960" lon="-6.3515670">
        <ele>224.4</ele>
        <time>2021-10-18T14:52:42Z</time>
      </trkpt>
      <trkpt lat="38.9108510" lon="-6.3513380">
        <ele>224.4</ele>
        <time>2021-10-18T14:52:51Z</time>
      </trkpt>
      <trkpt lat="38.9105940" lon="-6.3510700">
        <ele>224.6</ele>
        <time>2021-10-18T14:53:00Z</time>
      </trkpt>
      <trkpt lat="38.9104350" lon="-6.3509140">
        <ele>224.6</ele>
        <time>2021-10-18T14:53:06Z</time>
      </trkpt>
      <trkpt lat="38.9102470" lon="-6.3507280">
        <ele>224.8</ele>
        <time>2021-10-18T14:53:13Z</time>
      </trkpt>
      <trkpt lat="38.9101110" lon="-6.3506540">
        <ele>224.4</ele>
        <time>2021-10-18T14:53:18Z</time>
      </trkpt>
      <trkpt lat="38.9099650" lon="-6.3505420">
        <ele>224.4</ele>
        <time>2021-10-18T14:53:23Z</time>
      </trkpt>
      <trkpt lat="38.9096970" lon="-6.3502750">
        <ele>224.4</ele>
        <time>2021-10-18T14:53:32Z</time>
      </trkpt>
      <trkpt lat="38.9096690" lon="-6.3502450">
        <ele>224.2</ele>
        <time>2021-10-18T14:53:33Z</time>
      </trkpt>
      <trkpt lat="38.9094580" lon="-6.3500150">
        <ele>224.4</ele>
        <time>2021-10-18T14:53:41Z</time>
      </trkpt>
      <trkpt lat="38.9092810" lon="-6.3498390">
        <ele>224.2</ele>
        <time>2021-10-18T14:53:47Z</time>
      </trkpt>
      <trkpt lat="38.9092220" lon="-6.3497730">
        <ele>224.2</ele>
        <time>2021-10-18T14:53:49Z</time>
      </trkpt>
      <trkpt lat="38.9090810" lon="-6.3496310">
        <ele>224.2</ele>
        <time>2021-10-18T14:53:55Z</time>
      </trkpt>
      <trkpt lat="38.9090600" lon="-6.3496210">
        <ele>224.2</ele>
        <time>2021-10-18T14:53:56Z</time>
      </trkpt>
      <trkpt lat="38.9090220" lon="-6.3496230">
        <ele>224.2</ele>
        <time>2021-10-18T14:53:58Z</time>
      </trkpt>
      <trkpt lat="38.9089780" lon="-6.3496620">
        <ele>224.2</ele>
        <time>2021-10-18T14:54:00Z</time>
      </trkpt>
      <trkpt lat="38.9088100" lon="-6.3499800">
        <ele>224.6</ele>
        <time>2021-10-18T14:54:09Z</time>
      </trkpt>
      <trkpt lat="38.9086940" lon="-6.3501530">
        <ele>224.8</ele>
        <time>2021-10-18T14:54:15Z</time>
      </trkpt>
      <trkpt lat="38.9086100" lon="-6.3502060">
        <ele>225.0</ele>
        <time>2021-10-18T14:54:19Z</time>
      </trkpt>
      <trkpt lat="38.9084930" lon="-6.3501210">
        <ele>225.2</ele>
        <time>2021-10-18T14:54:23Z</time>
      </trkpt>
      <trkpt lat="38.9083770" lon="-6.3498870">
        <ele>225.4</ele>
        <time>2021-10-18T14:54:29Z</time>
      </trkpt>
      <trkpt lat="38.9082560" lon="-6.3496450">
        <ele>225.4</ele>
        <time>2021-10-18T14:54:35Z</time>
      </trkpt>
      <trkpt lat="38.9081810" lon="-6.3494770">
        <ele>225.4</ele>
        <time>2021-10-18T14:54:39Z</time>
      </trkpt>
      <trkpt lat="38.9080890" lon="-6.3493560">
        <ele>225.2</ele>
        <time>2021-10-18T14:54:42Z</time>
      </trkpt>
      <trkpt lat="38.9080680" lon="-6.3493110">
        <ele>225.2</ele>
        <time>2021-10-18T14:54:43Z</time>
      </trkpt>
      <trkpt lat="38.9079570" lon="-6.3491000">
        <ele>225.2</ele>
        <time>2021-10-18T14:54:48Z</time>
      </trkpt>
      <trkpt lat="38.9079290" lon="-6.3490130">
        <ele>225.2</ele>
        <time>2021-10-18T14:54:50Z</time>
      </trkpt>
      <trkpt lat="38.9078150" lon="-6.3487510">
        <ele>225.0</ele>
        <time>2021-10-18T14:54:57Z</time>
      </trkpt>
      <trkpt lat="38.9077980" lon="-6.3487260">
        <ele>225.0</ele>
        <time>2021-10-18T14:54:58Z</time>
      </trkpt>
      <trkpt lat="38.9077220" lon="-6.3485640">
        <ele>224.8</ele>
        <time>2021-10-18T14:55:04Z</time>
      </trkpt>
      <trkpt lat="38.9076620" lon="-6.3483540">
        <ele>224.8</ele>
        <time>2021-10-18T14:55:11Z</time>
      </trkpt>
      <trkpt lat="38.9075240" lon="-6.3481010">
        <ele>225.0</ele>
        <time>2021-10-18T14:55:20Z</time>
      </trkpt>
      <trkpt lat="38.9074420" lon="-6.3480390">
        <ele>225.0</ele>
        <time>2021-10-18T14:55:23Z</time>
      </trkpt>
      <trkpt lat="38.9073660" lon="-6.3480150">
        <ele>225.0</ele>
        <time>2021-10-18T14:55:25Z</time>
      </trkpt>
      <trkpt lat="38.9072540" lon="-6.3480470">
        <ele>225.0</ele>
        <time>2021-10-18T14:55:28Z</time>
      </trkpt>
      <trkpt lat="38.9072170" lon="-6.3480580">
        <ele>225.0</ele>
        <time>2021-10-18T14:55:29Z</time>
      </trkpt>
      <trkpt lat="38.9070270" lon="-6.3480210">
        <ele>225.0</ele>
        <time>2021-10-18T14:55:34Z</time>
      </trkpt>
      <trkpt lat="38.9067220" lon="-6.3478600">
        <ele>225.0</ele>
        <time>2021-10-18T14:55:42Z</time>
      </trkpt>
      <trkpt lat="38.9065280" lon="-6.3477700">
        <ele>225.2</ele>
        <time>2021-10-18T14:55:47Z</time>
      </trkpt>
      <trkpt lat="38.9064430" lon="-6.3477320">
        <ele>225.2</ele>
        <time>2021-10-18T14:55:49Z</time>
      </trkpt>
      <trkpt lat="38.9061390" lon="-6.3476050">
        <ele>225.4</ele>
        <time>2021-10-18T14:55:57Z</time>
      </trkpt>
      <trkpt lat="38.9058330" lon="-6.3474970">
        <ele>225.4</ele>
        <time>2021-10-18T14:56:05Z</time>
      </trkpt>
      <trkpt lat="38.9056770" lon="-6.3474400">
        <ele>225.4</ele>
        <time>2021-10-18T14:56:09Z</time>
      </trkpt>
      <trkpt lat="38.9055240" lon="-6.3473870">
        <ele>225.6</ele>
        <time>2021-10-18T14:56:13Z</time>
      </trkpt>
      <trkpt lat="38.9054160" lon="-6.3473200">
        <ele>225.6</ele>
        <time>2021-10-18T14:56:16Z</time>
      </trkpt>
      <trkpt lat="38.9053450" lon="-6.3472720">
        <ele>225.8</ele>
        <time>2021-10-18T14:56:18Z</time>
      </trkpt>
      <trkpt lat="38.9051230" lon="-6.3471800">
        <ele>225.8</ele>
        <time>2021-10-18T14:56:24Z</time>
      </trkpt>
      <trkpt lat="38.9049260" lon="-6.3471000">
        <ele>225.8</ele>
        <time>2021-10-18T14:56:29Z</time>
      </trkpt>
      <trkpt lat="38.9047320" lon="-6.3470320">
        <ele>225.8</ele>
        <time>2021-10-18T14:56:34Z</time>
      </trkpt>
      <trkpt lat="38.9046510" lon="-6.3470120">
        <ele>225.8</ele>
        <time>2021-10-18T14:56:36Z</time>
      </trkpt>
      <trkpt lat="38.9045700" lon="-6.3470080">
        <ele>225.8</ele>
        <time>2021-10-18T14:56:38Z</time>
      </trkpt>
      <trkpt lat="38.9043270" lon="-6.3470230">
        <ele>225.8</ele>
        <time>2021-10-18T14:56:44Z</time>
      </trkpt>
      <trkpt lat="38.9041670" lon="-6.3470420">
        <ele>226.0</ele>
        <time>2021-10-18T14:56:48Z</time>
      </trkpt>
      <trkpt lat="38.9040080" lon="-6.3470640">
        <ele>226.0</ele>
        <time>2021-10-18T14:56:52Z</time>
      </trkpt>
      <trkpt lat="38.9038880" lon="-6.3470750">
        <ele>226.0</ele>
        <time>2021-10-18T14:56:55Z</time>
      </trkpt>
      <trkpt lat="38.9038070" lon="-6.3470860">
        <ele>225.8</ele>
        <time>2021-10-18T14:56:57Z</time>
      </trkpt>
      <trkpt lat="38.9036030" lon="-6.3471120">
        <ele>225.8</ele>
        <time>2021-10-18T14:57:02Z</time>
      </trkpt>
      <trkpt lat="38.9034580" lon="-6.3471280">
        <ele>225.6</ele>
        <time>2021-10-18T14:57:06Z</time>
      </trkpt>
      <trkpt lat="38.9033060" lon="-6.3471390">
        <ele>225.6</ele>
        <time>2021-10-18T14:57:10Z</time>
      </trkpt>
      <trkpt lat="38.9030470" lon="-6.3471620">
        <ele>225.8</ele>
        <time>2021-10-18T14:57:17Z</time>
      </trkpt>
      <trkpt lat="38.9028800" lon="-6.3471840">
        <ele>226.0</ele>
        <time>2021-10-18T14:57:22Z</time>
      </trkpt>
      <trkpt lat="38.9028020" lon="-6.3471870">
        <ele>226.0</ele>
        <time>2021-10-18T14:57:24Z</time>
      </trkpt>
      <trkpt lat="38.9026250" lon="-6.3471830">
        <ele>226.4</ele>
        <time>2021-10-18T14:57:29Z</time>
      </trkpt>
      <trkpt lat="38.9024790" lon="-6.3471700">
        <ele>226.4</ele>
        <time>2021-10-18T14:57:33Z</time>
      </trkpt>
      <trkpt lat="38.9023660" lon="-6.3471560">
        <ele>226.6</ele>
        <time>2021-10-18T14:57:36Z</time>
      </trkpt>
      <trkpt lat="38.9021760" lon="-6.3471110">
        <ele>226.6</ele>
        <time>2021-10-18T14:57:41Z</time>
      </trkpt>
      <trkpt lat="38.9018210" lon="-6.3469960">
        <ele>226.6</ele>
        <time>2021-10-18T14:57:51Z</time>
      </trkpt>
      <trkpt lat="38.9016230" lon="-6.3469700">
        <ele>226.6</ele>
        <time>2021-10-18T14:57:56Z</time>
      </trkpt>
      <trkpt lat="38.9015420" lon="-6.3469800">
        <ele>226.8</ele>
        <time>2021-10-18T14:57:58Z</time>
      </trkpt>
      <trkpt lat="38.9015020" lon="-6.3469920">
        <ele>226.8</ele>
        <time>2021-10-18T14:57:59Z</time>
      </trkpt>
      <trkpt lat="38.9014630" lon="-6.3470080">
        <ele>226.8</ele>
        <time>2021-10-18T14:58:00Z</time>
      </trkpt>
      <trkpt lat="38.9013920" lon="-6.3470550">
        <ele>226.8</ele>
        <time>2021-10-18T14:58:02Z</time>
      </trkpt>
      <trkpt lat="38.9013290" lon="-6.3471080">
        <ele>226.8</ele>
        <time>2021-10-18T14:58:04Z</time>
      </trkpt>
      <trkpt lat="38.9012180" lon="-6.3472050">
        <ele>226.8</ele>
        <time>2021-10-18T14:58:08Z</time>
      </trkpt>
      <trkpt lat="38.9011670" lon="-6.3472440">
        <ele>226.8</ele>
        <time>2021-10-18T14:58:10Z</time>
      </trkpt>
      <trkpt lat="38.9009640" lon="-6.3473870">
        <ele>227.0</ele>
        <time>2021-10-18T14:58:17Z</time>
      </trkpt>
      <trkpt lat="38.9007000" lon="-6.3475530">
        <ele>227.2</ele>
        <time>2021-10-18T14:58:25Z</time>
      </trkpt>
      <trkpt lat="38.9006660" lon="-6.3475740">
        <ele>227.4</ele>
        <time>2021-10-18T14:58:26Z</time>
      </trkpt>
      <trkpt lat="38.9003920" lon="-6.3476920">
        <ele>227.6</ele>
        <time>2021-10-18T14:58:34Z</time>
      </trkpt>
      <trkpt lat="38.9002510" lon="-6.3477350">
        <ele>227.8</ele>
        <time>2021-10-18T14:58:38Z</time>
      </trkpt>
      <trkpt lat="38.9000850" lon="-6.3477760">
        <ele>227.8</ele>
        <time>2021-10-18T14:58:43Z</time>
      </trkpt>
      <trkpt lat="38.8999220" lon="-6.3478000">
        <ele>227.6</ele>
        <time>2021-10-18T14:58:48Z</time>
      </trkpt>
      <trkpt lat="38.8998220" lon="-6.3478130">
        <ele>227.6</ele>
        <time>2021-10-18T14:58:51Z</time>
      </trkpt>
      <trkpt lat="38.8995330" lon="-6.3478320">
        <ele>227.8</ele>
        <time>2021-10-18T14:58:59Z</time>
      </trkpt>
      <trkpt lat="38.8994490" lon="-6.3478290">
        <ele>228.2</ele>
        <time>2021-10-18T14:59:02Z</time>
      </trkpt>
      <trkpt lat="38.8993390" lon="-6.3478290">
        <ele>228.2</ele>
        <time>2021-10-18T14:59:06Z</time>
      </trkpt>
      <trkpt lat="38.8991040" lon="-6.3478530">
        <ele>228.2</ele>
        <time>2021-10-18T14:59:13Z</time>
      </trkpt>
      <trkpt lat="38.8987040" lon="-6.3478940">
        <ele>228.0</ele>
        <time>2021-10-18T14:59:24Z</time>
      </trkpt>
      <trkpt lat="38.8983630" lon="-6.3479300">
        <ele>228.8</ele>
        <time>2021-10-18T14:59:33Z</time>
      </trkpt>
      <trkpt lat="38.8983250" lon="-6.3479330">
        <ele>229.0</ele>
        <time>2021-10-18T14:59:34Z</time>
      </trkpt>
      <trkpt lat="38.8981750" lon="-6.3479460">
        <ele>229.0</ele>
        <time>2021-10-18T14:59:38Z</time>
      </trkpt>
      <trkpt lat="38.8981010" lon="-6.3479520">
        <ele>229.2</ele>
        <time>2021-10-18T14:59:40Z</time>
      </trkpt>
      <trkpt lat="38.8979930" lon="-6.3479670">
        <ele>229.0</ele>
        <time>2021-10-18T14:59:43Z</time>
      </trkpt>
      <trkpt lat="38.8978840" lon="-6.3479820">
        <ele>229.0</ele>
        <time>2021-10-18T14:59:46Z</time>
      </trkpt>
      <trkpt lat="38.8977210" lon="-6.3480300">
        <ele>229.8</ele>
        <time>2021-10-18T14:59:51Z</time>
      </trkpt>
      <trkpt lat="38.8976230" lon="-6.3480440">
        <ele>230.0</ele>
        <time>2021-10-18T14:59:54Z</time>
      </trkpt>
      <trkpt lat="38.8974530" lon="-6.3480630">
        <ele>230.0</ele>
        <time>2021-10-18T14:59:59Z</time>
      </trkpt>
      <trkpt lat="38.8972550" lon="-6.3480830">
        <ele>230.6</ele>
        <time>2021-10-18T15:00:05Z</time>
      </trkpt>
      <trkpt lat="38.8971990" lon="-6.3480880">
        <ele>230.8</ele>
        <time>2021-10-18T15:00:07Z</time>
      </trkpt>
      <trkpt lat="38.8971710" lon="-6.3480910">
        <ele>231.0</ele>
        <time>2021-10-18T15:00:08Z</time>
      </trkpt>
      <trkpt lat="38.8970420" lon="-6.3481140">
        <ele>231.6</ele>
        <time>2021-10-18T15:00:13Z</time>
      </trkpt>
      <trkpt lat="38.8969360" lon="-6.3481270">
        <ele>232.0</ele>
        <time>2021-10-18T15:00:17Z</time>
      </trkpt>
      <trkpt lat="38.8969160" lon="-6.3481300">
        <ele>232.2</ele>
        <time>2021-10-18T15:00:18Z</time>
      </trkpt>
      <trkpt lat="38.8968370" lon="-6.3481440">
        <ele>232.4</ele>
        <time>2021-10-18T15:00:21Z</time>
      </trkpt>
      <trkpt lat="38.8967230" lon="-6.3481590">
        <ele>233.0</ele>
        <time>2021-10-18T15:00:25Z</time>
      </trkpt>
      <trkpt lat="38.8966930" lon="-6.3481640">
        <ele>233.2</ele>
        <time>2021-10-18T15:00:26Z</time>
      </trkpt>
      <trkpt lat="38.8965690" lon="-6.3481800">
        <ele>233.4</ele>
        <time>2021-10-18T15:00:30Z</time>
      </trkpt>
      <trkpt lat="38.8964760" lon="-6.3481980">
        <ele>233.6</ele>
        <time>2021-10-18T15:00:33Z</time>
      </trkpt>
      <trkpt lat="38.8963870" lon="-6.3482080">
        <ele>233.8</ele>
        <time>2021-10-18T15:00:36Z</time>
      </trkpt>
      <trkpt lat="38.8962980" lon="-6.3482130">
        <ele>234.0</ele>
        <time>2021-10-18T15:00:39Z</time>
      </trkpt>
      <trkpt lat="38.8962000" lon="-6.3482180">
        <ele>234.4</ele>
        <time>2021-10-18T15:00:42Z</time>
      </trkpt>
      <trkpt lat="38.8960220" lon="-6.3482260">
        <ele>234.2</ele>
        <time>2021-10-18T15:00:48Z</time>
      </trkpt>
      <trkpt lat="38.8959600" lon="-6.3482260">
        <ele>234.2</ele>
        <time>2021-10-18T15:00:50Z</time>
      </trkpt>
      <trkpt lat="38.8958130" lon="-6.3482210">
        <ele>234.4</ele>
        <time>2021-10-18T15:00:55Z</time>
      </trkpt>
      <trkpt lat="38.8956720" lon="-6.3482170">
        <ele>235.2</ele>
        <time>2021-10-18T15:01:00Z</time>
      </trkpt>
      <trkpt lat="38.8956140" lon="-6.3482160">
        <ele>235.6</ele>
        <time>2021-10-18T15:01:02Z</time>
      </trkpt>
      <trkpt lat="38.8954480" lon="-6.3481930">
        <ele>235.6</ele>
        <time>2021-10-18T15:01:07Z</time>
      </trkpt>
      <trkpt lat="38.8953580" lon="-6.3481800">
        <ele>235.8</ele>
        <time>2021-10-18T15:01:10Z</time>
      </trkpt>
      <trkpt lat="38.8951810" lon="-6.3481500">
        <ele>235.8</ele>
        <time>2021-10-18T15:01:16Z</time>
      </trkpt>
      <trkpt lat="38.8950550" lon="-6.3481440">
        <ele>236.4</ele>
        <time>2021-10-18T15:01:20Z</time>
      </trkpt>
      <trkpt lat="38.8948900" lon="-6.3481560">
        <ele>236.6</ele>
        <time>2021-10-18T15:01:25Z</time>
      </trkpt>
      <trkpt lat="38.8947600" lon="-6.3481720">
        <ele>236.8</ele>
        <time>2021-10-18T15:01:29Z</time>
      </trkpt>
      <trkpt lat="38.8945240" lon="-6.3482130">
        <ele>236.8</ele>
        <time>2021-10-18T15:01:36Z</time>
      </trkpt>
      <trkpt lat="38.8943790" lon="-6.3482500">
        <ele>237.0</ele>
        <time>2021-10-18T15:01:40Z</time>
      </trkpt>
      <trkpt lat="38.8941120" lon="-6.3483580">
        <ele>237.2</ele>
        <time>2021-10-18T15:01:48Z</time>
      </trkpt>
      <trkpt lat="38.8940440" lon="-6.3483890">
        <ele>237.4</ele>
        <time>2021-10-18T15:01:50Z</time>
      </trkpt>
      <trkpt lat="38.8939070" lon="-6.3484620">
        <ele>237.4</ele>
        <time>2021-10-18T15:01:54Z</time>
      </trkpt>
      <trkpt lat="38.8937280" lon="-6.3485620">
        <ele>237.6</ele>
        <time>2021-10-18T15:01:59Z</time>
      </trkpt>
      <trkpt lat="38.8936940" lon="-6.3485830">
        <ele>237.6</ele>
        <time>2021-10-18T15:02:00Z</time>
      </trkpt>
      <trkpt lat="38.8934540" lon="-6.3487430">
        <ele>237.4</ele>
        <time>2021-10-18T15:02:07Z</time>
      </trkpt>
      <trkpt lat="38.8933600" lon="-6.3488280">
        <ele>237.4</ele>
        <time>2021-10-18T15:02:10Z</time>
      </trkpt>
      <trkpt lat="38.8932380" lon="-6.3489400">
        <ele>237.4</ele>
        <time>2021-10-18T15:02:14Z</time>
      </trkpt>
      <trkpt lat="38.8931590" lon="-6.3490210">
        <ele>237.6</ele>
        <time>2021-10-18T15:02:17Z</time>
      </trkpt>
      <trkpt lat="38.8930590" lon="-6.3491310">
        <ele>237.8</ele>
        <time>2021-10-18T15:02:21Z</time>
      </trkpt>
      <trkpt lat="38.8930110" lon="-6.3491870">
        <ele>238.4</ele>
        <time>2021-10-18T15:02:23Z</time>
      </trkpt>
      <trkpt lat="38.8929430" lon="-6.3492800">
        <ele>238.6</ele>
        <time>2021-10-18T15:02:26Z</time>
      </trkpt>
      <trkpt lat="38.8928470" lon="-6.3493850">
        <ele>239.0</ele>
        <time>2021-10-18T15:02:30Z</time>
      </trkpt>
      <trkpt lat="38.8927280" lon="-6.3495170">
        <ele>239.2</ele>
        <time>2021-10-18T15:02:35Z</time>
      </trkpt>
      <trkpt lat="38.8926080" lon="-6.3496450">
        <ele>239.6</ele>
        <time>2021-10-18T15:02:40Z</time>
      </trkpt>
      <trkpt lat="38.8925610" lon="-6.3496960">
        <ele>240.0</ele>
        <time>2021-10-18T15:02:42Z</time>
      </trkpt>
      <trkpt lat="38.8924730" lon="-6.3498070">
        <ele>239.8</ele>
        <time>2021-10-18T15:02:46Z</time>
      </trkpt>
      <trkpt lat="38.8924510" lon="-6.3498310">
        <ele>239.8</ele>
        <time>2021-10-18T15:02:47Z</time>
      </trkpt>
      <trkpt lat="38.8923210" lon="-6.3499830">
        <ele>240.4</ele>
        <time>2021-10-18T15:02:53Z</time>
      </trkpt>
      <trkpt lat="38.8921490" lon="-6.3502040">
        <ele>240.8</ele>
        <time>2021-10-18T15:03:01Z</time>
      </trkpt>
      <trkpt lat="38.8921260" lon="-6.3502310">
        <ele>241.0</ele>
        <time>2021-10-18T15:03:02Z</time>
      </trkpt>
      <trkpt lat="38.8920020" lon="-6.3503940">
        <ele>241.6</ele>
        <time>2021-10-18T15:03:08Z</time>
      </trkpt>
      <trkpt lat="38.8919280" lon="-6.3505140">
        <ele>241.6</ele>
        <time>2021-10-18T15:03:12Z</time>
      </trkpt>
      <trkpt lat="38.8918750" lon="-6.3506000">
        <ele>242.0</ele>
        <time>2021-10-18T15:03:15Z</time>
      </trkpt>
      <trkpt lat="38.8918570" lon="-6.3506280">
        <ele>242.0</ele>
        <time>2021-10-18T15:03:16Z</time>
      </trkpt>
      <trkpt lat="38.8918360" lon="-6.3506540">
        <ele>242.0</ele>
        <time>2021-10-18T15:03:17Z</time>
      </trkpt>
      <trkpt lat="38.8917680" lon="-6.3507750">
        <ele>242.6</ele>
        <time>2021-10-18T15:03:21Z</time>
      </trkpt>
      <trkpt lat="38.8917200" lon="-6.3508750">
        <ele>242.6</ele>
        <time>2021-10-18T15:03:24Z</time>
      </trkpt>
      <trkpt lat="38.8916240" lon="-6.3511070">
        <ele>242.8</ele>
        <time>2021-10-18T15:03:30Z</time>
      </trkpt>
      <trkpt lat="38.8915070" lon="-6.3513100">
        <ele>243.0</ele>
        <time>2021-10-18T15:03:36Z</time>
      </trkpt>
      <trkpt lat="38.8914850" lon="-6.3513400">
        <ele>243.2</ele>
        <time>2021-10-18T15:03:37Z</time>
      </trkpt>
      <trkpt lat="38.8913920" lon="-6.3514800">
        <ele>243.2</ele>
        <time>2021-10-18T15:03:41Z</time>
      </trkpt>
      <trkpt lat="38.8913270" lon="-6.3515820">
        <ele>243.2</ele>
        <time>2021-10-18T15:03:44Z</time>
      </trkpt>
      <trkpt lat="38.8912270" lon="-6.3517530">
        <ele>243.4</ele>
        <time>2021-10-18T15:03:49Z</time>
      </trkpt>
      <trkpt lat="38.8911870" lon="-6.3518210">
        <ele>243.4</ele>
        <time>2021-10-18T15:03:51Z</time>
      </trkpt>
      <trkpt lat="38.8911160" lon="-6.3519120">
        <ele>243.6</ele>
        <time>2021-10-18T15:03:54Z</time>
      </trkpt>
      <trkpt lat="38.8909670" lon="-6.3520500">
        <ele>244.2</ele>
        <time>2021-10-18T15:04:00Z</time>
      </trkpt>
      <trkpt lat="38.8909070" lon="-6.3520790">
        <ele>244.2</ele>
        <time>2021-10-18T15:04:02Z</time>
      </trkpt>
      <trkpt lat="38.8907700" lon="-6.3520530">
        <ele>244.0</ele>
        <time>2021-10-18T15:04:06Z</time>
      </trkpt>
      <trkpt lat="38.8907360" lon="-6.3520330">
        <ele>244.0</ele>
        <time>2021-10-18T15:04:07Z</time>
      </trkpt>
      <trkpt lat="38.8906750" lon="-6.3520030">
        <ele>244.0</ele>
        <time>2021-10-18T15:04:09Z</time>
      </trkpt>
      <trkpt lat="38.8906110" lon="-6.3520120">
        <ele>243.8</ele>
        <time>2021-10-18T15:04:11Z</time>
      </trkpt>
      <trkpt lat="38.8904560" lon="-6.3520740">
        <ele>243.8</ele>
        <time>2021-10-18T15:04:16Z</time>
      </trkpt>
      <trkpt lat="38.8904260" lon="-6.3520920">
        <ele>244.0</ele>
        <time>2021-10-18T15:04:17Z</time>
      </trkpt>
      <trkpt lat="38.8902520" lon="-6.3522320">
        <ele>244.4</ele>
        <time>2021-10-18T15:04:23Z</time>
      </trkpt>
      <trkpt lat="38.8901950" lon="-6.3522760">
        <ele>244.4</ele>
        <time>2021-10-18T15:04:25Z</time>
      </trkpt>
      <trkpt lat="38.8900320" lon="-6.3524070">
        <ele>244.4</ele>
        <time>2021-10-18T15:04:31Z</time>
      </trkpt>
      <trkpt lat="38.8899500" lon="-6.3524650">
        <ele>244.6</ele>
        <time>2021-10-18T15:04:34Z</time>
      </trkpt>
      <trkpt lat="38.8897610" lon="-6.3525820">
        <ele>245.2</ele>
        <time>2021-10-18T15:04:41Z</time>
      </trkpt>
      <trkpt lat="38.8896350" lon="-6.3526740">
        <ele>246.0</ele>
        <time>2021-10-18T15:04:46Z</time>
      </trkpt>
      <trkpt lat="38.8895640" lon="-6.3527320">
        <ele>246.2</ele>
        <time>2021-10-18T15:04:49Z</time>
      </trkpt>
      <trkpt lat="38.8894090" lon="-6.3528660">
        <ele>246.8</ele>
        <time>2021-10-18T15:04:56Z</time>
      </trkpt>
      <trkpt lat="38.8891960" lon="-6.3530370">
        <ele>247.2</ele>
        <time>2021-10-18T15:05:04Z</time>
      </trkpt>
      <trkpt lat="38.8890370" lon="-6.3531520">
        <ele>247.4</ele>
        <time>2021-10-18T15:05:10Z</time>
      </trkpt>
      <trkpt lat="38.8890090" lon="-6.3531700">
        <ele>247.4</ele>
        <time>2021-10-18T15:05:11Z</time>
      </trkpt>
      <trkpt lat="38.8888400" lon="-6.3532770">
        <ele>247.6</ele>
        <time>2021-10-18T15:05:17Z</time>
      </trkpt>
      <trkpt lat="38.8887270" lon="-6.3533420">
        <ele>247.8</ele>
        <time>2021-10-18T15:05:21Z</time>
      </trkpt>
      <trkpt lat="38.8886720" lon="-6.3533680">
        <ele>247.8</ele>
        <time>2021-10-18T15:05:23Z</time>
      </trkpt>
      <trkpt lat="38.8885950" lon="-6.3534040">
        <ele>248.0</ele>
        <time>2021-10-18T15:05:26Z</time>
      </trkpt>
      <trkpt lat="38.8884920" lon="-6.3534390">
        <ele>248.4</ele>
        <time>2021-10-18T15:05:30Z</time>
      </trkpt>
      <trkpt lat="38.8883710" lon="-6.3534630">
        <ele>248.6</ele>
        <time>2021-10-18T15:05:34Z</time>
      </trkpt>
      <trkpt lat="38.8882400" lon="-6.3534750">
        <ele>248.8</ele>
        <time>2021-10-18T15:05:38Z</time>
      </trkpt>
      <trkpt lat="38.8881760" lon="-6.3535050">
        <ele>249.0</ele>
        <time>2021-10-18T15:05:40Z</time>
      </trkpt>
      <trkpt lat="38.8879310" lon="-6.3536430">
        <ele>249.2</ele>
        <time>2021-10-18T15:05:48Z</time>
      </trkpt>
      <trkpt lat="38.8877330" lon="-6.3537570">
        <ele>249.6</ele>
        <time>2021-10-18T15:05:55Z</time>
      </trkpt>
      <trkpt lat="38.8875010" lon="-6.3538650">
        <ele>249.8</ele>
        <time>2021-10-18T15:06:03Z</time>
      </trkpt>
      <trkpt lat="38.8873230" lon="-6.3539450">
        <ele>250.4</ele>
        <time>2021-10-18T15:06:09Z</time>
      </trkpt>
      <trkpt lat="38.8872610" lon="-6.3539680">
        <ele>250.6</ele>
        <time>2021-10-18T15:06:11Z</time>
      </trkpt>
      <trkpt lat="38.8872030" lon="-6.3539860">
        <ele>250.8</ele>
        <time>2021-10-18T15:06:13Z</time>
      </trkpt>
      <trkpt lat="38.8869880" lon="-6.3540220">
        <ele>251.2</ele>
        <time>2021-10-18T15:06:20Z</time>
      </trkpt>
      <trkpt lat="38.8868700" lon="-6.3540260">
        <ele>251.6</ele>
        <time>2021-10-18T15:06:24Z</time>
      </trkpt>
      <trkpt lat="38.8867560" lon="-6.3540470">
        <ele>252.0</ele>
        <time>2021-10-18T15:06:28Z</time>
      </trkpt>
      <trkpt lat="38.8865680" lon="-6.3540930">
        <ele>252.8</ele>
        <time>2021-10-18T15:06:35Z</time>
      </trkpt>
      <trkpt lat="38.8865410" lon="-6.3541060">
        <ele>252.8</ele>
        <time>2021-10-18T15:06:36Z</time>
      </trkpt>
      <trkpt lat="38.8863030" lon="-6.3542060">
        <ele>253.4</ele>
        <time>2021-10-18T15:06:44Z</time>
      </trkpt>
      <trkpt lat="38.8862690" lon="-6.3542100">
        <ele>253.4</ele>
        <time>2021-10-18T15:06:45Z</time>
      </trkpt>
      <trkpt lat="38.8861650" lon="-6.3542460">
        <ele>253.4</ele>
        <time>2021-10-18T15:06:48Z</time>
      </trkpt>
      <trkpt lat="38.8860710" lon="-6.3542730">
        <ele>253.6</ele>
        <time>2021-10-18T15:06:51Z</time>
      </trkpt>
      <trkpt lat="38.8859860" lon="-6.3543130">
        <ele>253.8</ele>
        <time>2021-10-18T15:06:54Z</time>
      </trkpt>
      <trkpt lat="38.8858990" lon="-6.3543540">
        <ele>254.0</ele>
        <time>2021-10-18T15:06:57Z</time>
      </trkpt>
      <trkpt lat="38.8858700" lon="-6.3543710">
        <ele>254.0</ele>
        <time>2021-10-18T15:06:58Z</time>
      </trkpt>
      <trkpt lat="38.8857460" lon="-6.3544090">
        <ele>254.2</ele>
        <time>2021-10-18T15:07:02Z</time>
      </trkpt>
      <trkpt lat="38.8856780" lon="-6.3544160">
        <ele>254.2</ele>
        <time>2021-10-18T15:07:04Z</time>
      </trkpt>
      <trkpt lat="38.8854430" lon="-6.3545030">
        <ele>254.2</ele>
        <time>2021-10-18T15:07:11Z</time>
      </trkpt>
      <trkpt lat="38.8853460" lon="-6.3545480">
        <ele>254.4</ele>
        <time>2021-10-18T15:07:14Z</time>
      </trkpt>
      <trkpt lat="38.8851640" lon="-6.3546410">
        <ele>254.8</ele>
        <time>2021-10-18T15:07:20Z</time>
      </trkpt>
      <trkpt lat="38.8851350" lon="-6.3546550">
        <ele>254.8</ele>
        <time>2021-10-18T15:07:21Z</time>
      </trkpt>
      <trkpt lat="38.8849070" lon="-6.3547270">
        <ele>255.6</ele>
        <time>2021-10-18T15:07:28Z</time>
      </trkpt>
      <trkpt lat="38.8848130" lon="-6.3547490">
        <ele>255.8</ele>
        <time>2021-10-18T15:07:31Z</time>
      </trkpt>
      <trkpt lat="38.8846600" lon="-6.3547570">
        <ele>256.2</ele>
        <time>2021-10-18T15:07:36Z</time>
      </trkpt>
      <trkpt lat="38.8844820" lon="-6.3547610">
        <ele>256.8</ele>
        <time>2021-10-18T15:07:42Z</time>
      </trkpt>
      <trkpt lat="38.8843360" lon="-6.3547650">
        <ele>257.2</ele>
        <time>2021-10-18T15:07:47Z</time>
      </trkpt>
      <trkpt lat="38.8842790" lon="-6.3547680">
        <ele>257.4</ele>
        <time>2021-10-18T15:07:49Z</time>
      </trkpt>
      <trkpt lat="38.8841610" lon="-6.3547490">
        <ele>257.8</ele>
        <time>2021-10-18T15:07:53Z</time>
      </trkpt>
      <trkpt lat="38.8841340" lon="-6.3547460">
        <ele>257.8</ele>
        <time>2021-10-18T15:07:54Z</time>
      </trkpt>
      <trkpt lat="38.8841070" lon="-6.3547410">
        <ele>258.0</ele>
        <time>2021-10-18T15:07:55Z</time>
      </trkpt>
      <trkpt lat="38.8839230" lon="-6.3546630">
        <ele>259.0</ele>
        <time>2021-10-18T15:08:02Z</time>
      </trkpt>
      <trkpt lat="38.8838380" lon="-6.3546270">
        <ele>259.2</ele>
        <time>2021-10-18T15:08:05Z</time>
      </trkpt>
      <trkpt lat="38.8836950" lon="-6.3545660">
        <ele>259.6</ele>
        <time>2021-10-18T15:08:10Z</time>
      </trkpt>
      <trkpt lat="38.8836650" lon="-6.3545550">
        <ele>259.6</ele>
        <time>2021-10-18T15:08:11Z</time>
      </trkpt>
      <trkpt lat="38.8835400" lon="-6.3545170">
        <ele>260.2</ele>
        <time>2021-10-18T15:08:15Z</time>
      </trkpt>
      <trkpt lat="38.8834830" lon="-6.3544920">
        <ele>260.2</ele>
        <time>2021-10-18T15:08:17Z</time>
      </trkpt>
      <trkpt lat="38.8834270" lon="-6.3544720">
        <ele>260.2</ele>
        <time>2021-10-18T15:08:19Z</time>
      </trkpt>
      <trkpt lat="38.8832490" lon="-6.3543850">
        <ele>260.4</ele>
        <time>2021-10-18T15:08:26Z</time>
      </trkpt>
      <trkpt lat="38.8831250" lon="-6.3543540">
        <ele>260.6</ele>
        <time>2021-10-18T15:08:31Z</time>
      </trkpt>
      <trkpt lat="38.8831040" lon="-6.3543480">
        <ele>260.6</ele>
        <time>2021-10-18T15:08:32Z</time>
      </trkpt>
      <trkpt lat="38.8830060" lon="-6.3543180">
        <ele>261.2</ele>
        <time>2021-10-18T15:08:37Z</time>
      </trkpt>
      <trkpt lat="38.8829860" lon="-6.3543130">
        <ele>261.2</ele>
        <time>2021-10-18T15:08:38Z</time>
      </trkpt>
      <trkpt lat="38.8828460" lon="-6.3542730">
        <ele>262.2</ele>
        <time>2021-10-18T15:08:45Z</time>
      </trkpt>
      <trkpt lat="38.8828260" lon="-6.3542690">
        <ele>262.2</ele>
        <time>2021-10-18T15:08:46Z</time>
      </trkpt>
      <trkpt lat="38.8827480" lon="-6.3542630">
        <ele>262.6</ele>
        <time>2021-10-18T15:08:50Z</time>
      </trkpt>
      <trkpt lat="38.8826480" lon="-6.3542440">
        <ele>263.2</ele>
        <time>2021-10-18T15:08:55Z</time>
      </trkpt>
      <trkpt lat="38.8825180" lon="-6.3542290">
        <ele>264.4</ele>
        <time>2021-10-18T15:09:02Z</time>
      </trkpt>
      <trkpt lat="38.8824820" lon="-6.3542240">
        <ele>264.8</ele>
        <time>2021-10-18T15:09:04Z</time>
      </trkpt>
      <trkpt lat="38.8824270" lon="-6.3542180">
        <ele>265.4</ele>
        <time>2021-10-18T15:09:07Z</time>
      </trkpt>
      <trkpt lat="38.8824070" lon="-6.3542140">
        <ele>265.4</ele>
        <time>2021-10-18T15:09:08Z</time>
      </trkpt>
      <trkpt lat="38.8822880" lon="-6.3541910">
        <ele>266.0</ele>
        <time>2021-10-18T15:09:15Z</time>
      </trkpt>
      <trkpt lat="38.8822370" lon="-6.3541830">
        <ele>266.6</ele>
        <time>2021-10-18T15:09:18Z</time>
      </trkpt>
      <trkpt lat="38.8821870" lon="-6.3541720">
        <ele>266.8</ele>
        <time>2021-10-18T15:09:21Z</time>
      </trkpt>
      <trkpt lat="38.8821380" lon="-6.3541650">
        <ele>267.0</ele>
        <time>2021-10-18T15:09:24Z</time>
      </trkpt>
      <trkpt lat="38.8820890" lon="-6.3541580">
        <ele>267.4</ele>
        <time>2021-10-18T15:09:27Z</time>
      </trkpt>
      <trkpt lat="38.8820730" lon="-6.3541580">
        <ele>267.6</ele>
        <time>2021-10-18T15:09:28Z</time>
      </trkpt>
      <trkpt lat="38.8820020" lon="-6.3541530">
        <ele>268.2</ele>
        <time>2021-10-18T15:09:32Z</time>
      </trkpt>
      <trkpt lat="38.8819290" lon="-6.3541270">
        <ele>268.4</ele>
        <time>2021-10-18T15:09:36Z</time>
      </trkpt>
      <trkpt lat="38.8818960" lon="-6.3541230">
        <ele>268.8</ele>
        <time>2021-10-18T15:09:38Z</time>
      </trkpt>
      <trkpt lat="38.8818620" lon="-6.3541210">
        <ele>268.8</ele>
        <time>2021-10-18T15:09:40Z</time>
      </trkpt>
      <trkpt lat="38.8818430" lon="-6.3541200">
        <ele>269.0</ele>
        <time>2021-10-18T15:09:41Z</time>
      </trkpt>
      <trkpt lat="38.8818080" lon="-6.3541150">
        <ele>269.2</ele>
        <time>2021-10-18T15:09:43Z</time>
      </trkpt>
      <trkpt lat="38.8817550" lon="-6.3541060">
        <ele>270.0</ele>
        <time>2021-10-18T15:09:46Z</time>
      </trkpt>
      <trkpt lat="38.8816990" lon="-6.3540960">
        <ele>270.2</ele>
        <time>2021-10-18T15:09:49Z</time>
      </trkpt>
      <trkpt lat="38.8816810" lon="-6.3540920">
        <ele>270.4</ele>
        <time>2021-10-18T15:09:50Z</time>
      </trkpt>
      <trkpt lat="38.8816320" lon="-6.3540810">
        <ele>270.6</ele>
        <time>2021-10-18T15:09:53Z</time>
      </trkpt>
      <trkpt lat="38.8815940" lon="-6.3540710">
        <ele>270.8</ele>
        <time>2021-10-18T15:09:55Z</time>
      </trkpt>
      <trkpt lat="38.8815570" lon="-6.3540630">
        <ele>271.0</ele>
        <time>2021-10-18T15:09:57Z</time>
      </trkpt>
      <trkpt lat="38.8814830" lon="-6.3540410">
        <ele>271.4</ele>
        <time>2021-10-18T15:10:01Z</time>
      </trkpt>
      <trkpt lat="38.8814440" lon="-6.3540280">
        <ele>271.6</ele>
        <time>2021-10-18T15:10:03Z</time>
      </trkpt>
      <trkpt lat="38.8814120" lon="-6.3540190">
        <ele>271.8</ele>
        <time>2021-10-18T15:10:05Z</time>
      </trkpt>
      <trkpt lat="38.8813600" lon="-6.3540060">
        <ele>272.0</ele>
        <time>2021-10-18T15:10:08Z</time>
      </trkpt>
      <trkpt lat="38.8812560" lon="-6.3539790">
        <ele>272.8</ele>
        <time>2021-10-18T15:10:14Z</time>
      </trkpt>
      <trkpt lat="38.8812410" lon="-6.3539770">
        <ele>273.2</ele>
        <time>2021-10-18T15:10:15Z</time>
      </trkpt>
      <trkpt lat="38.8811340" lon="-6.3539700">
        <ele>274.0</ele>
        <time>2021-10-18T15:10:22Z</time>
      </trkpt>
      <trkpt lat="38.8810980" lon="-6.3539620">
        <ele>274.2</ele>
        <time>2021-10-18T15:10:24Z</time>
      </trkpt>
      <trkpt lat="38.8810260" lon="-6.3539410">
        <ele>275.0</ele>
        <time>2021-10-18T15:10:28Z</time>
      </trkpt>
      <trkpt lat="38.8809740" lon="-6.3539320">
        <ele>275.4</ele>
        <time>2021-10-18T15:10:31Z</time>
      </trkpt>
      <trkpt lat="38.8809400" lon="-6.3539250">
        <ele>275.8</ele>
        <time>2021-10-18T15:10:33Z</time>
      </trkpt>
      <trkpt lat="38.8808870" lon="-6.3539200">
        <ele>276.2</ele>
        <time>2021-10-18T15:10:36Z</time>
      </trkpt>
      <trkpt lat="38.8808700" lon="-6.3539180">
        <ele>276.4</ele>
        <time>2021-10-18T15:10:37Z</time>
      </trkpt>
      <trkpt lat="38.8808350" lon="-6.3539160">
        <ele>276.6</ele>
        <time>2021-10-18T15:10:39Z</time>
      </trkpt>
      <trkpt lat="38.8807960" lon="-6.3539100">
        <ele>276.8</ele>
        <time>2021-10-18T15:10:41Z</time>
      </trkpt>
      <trkpt lat="38.8806820" lon="-6.3538940">
        <ele>277.4</ele>
        <time>2021-10-18T15:10:47Z</time>
      </trkpt>
      <trkpt lat="38.8805980" lon="-6.3538850">
        <ele>277.8</ele>
        <time>2021-10-18T15:10:51Z</time>
      </trkpt>
      <trkpt lat="38.8805320" lon="-6.3538830">
        <ele>277.8</ele>
        <time>2021-10-18T15:10:54Z</time>
      </trkpt>
      <trkpt lat="38.8803930" lon="-6.3538920">
        <ele>278.2</ele>
        <time>2021-10-18T15:11:00Z</time>
      </trkpt>
      <trkpt lat="38.8803700" lon="-6.3538950">
        <ele>278.2</ele>
        <time>2021-10-18T15:11:01Z</time>
      </trkpt>
      <trkpt lat="38.8803460" lon="-6.3538980">
        <ele>278.4</ele>
        <time>2021-10-18T15:11:02Z</time>
      </trkpt>
      <trkpt lat="38.8802200" lon="-6.3539310">
        <ele>278.6</ele>
        <time>2021-10-18T15:11:07Z</time>
      </trkpt>
      <trkpt lat="38.8801720" lon="-6.3539480">
        <ele>278.8</ele>
        <time>2021-10-18T15:11:09Z</time>
      </trkpt>
      <trkpt lat="38.8801260" lon="-6.3539620">
        <ele>278.8</ele>
        <time>2021-10-18T15:11:11Z</time>
      </trkpt>
      <trkpt lat="38.8799740" lon="-6.3540180">
        <ele>279.2</ele>
        <time>2021-10-18T15:11:18Z</time>
      </trkpt>
      <trkpt lat="38.8798040" lon="-6.3540770">
        <ele>279.8</ele>
        <time>2021-10-18T15:11:26Z</time>
      </trkpt>
      <trkpt lat="38.8797890" lon="-6.3540820">
        <ele>279.8</ele>
        <time>2021-10-18T15:11:27Z</time>
      </trkpt>
      <trkpt lat="38.8797730" lon="-6.3540830">
        <ele>279.8</ele>
        <time>2021-10-18T15:11:28Z</time>
      </trkpt>
      <trkpt lat="38.8797660" lon="-6.3540800">
        <ele>280.0</ele>
        <time>2021-10-18T15:11:31Z</time>
      </trkpt>
      <trkpt lat="38.8797350" lon="-6.3541050">
        <ele>280.0</ele>
        <time>2021-10-18T15:12:02Z</time>
      </trkpt>
      <trkpt lat="38.8797160" lon="-6.3541120">
        <ele>280.2</ele>
        <time>2021-10-18T15:12:03Z</time>
      </trkpt>
      <trkpt lat="38.8796730" lon="-6.3541310">
        <ele>280.2</ele>
        <time>2021-10-18T15:12:05Z</time>
      </trkpt>
      <trkpt lat="38.8796070" lon="-6.3541610">
        <ele>280.2</ele>
        <time>2021-10-18T15:12:08Z</time>
      </trkpt>
      <trkpt lat="38.8795430" lon="-6.3541940">
        <ele>280.4</ele>
        <time>2021-10-18T15:12:11Z</time>
      </trkpt>
      <trkpt lat="38.8793590" lon="-6.3542790">
        <ele>280.6</ele>
        <time>2021-10-18T15:12:19Z</time>
      </trkpt>
      <trkpt lat="38.8792430" lon="-6.3543290">
        <ele>280.6</ele>
        <time>2021-10-18T15:12:23Z</time>
      </trkpt>
      <trkpt lat="38.8791480" lon="-6.3543640">
        <ele>280.8</ele>
        <time>2021-10-18T15:12:26Z</time>
      </trkpt>
      <trkpt lat="38.8790830" lon="-6.3543880">
        <ele>280.8</ele>
        <time>2021-10-18T15:12:28Z</time>
      </trkpt>
      <trkpt lat="38.8788290" lon="-6.3544780">
        <ele>281.0</ele>
        <time>2021-10-18T15:12:36Z</time>
      </trkpt>
      <trkpt lat="38.8785890" lon="-6.3546090">
        <ele>280.8</ele>
        <time>2021-10-18T15:12:43Z</time>
      </trkpt>
      <trkpt lat="38.8784390" lon="-6.3546670">
        <ele>280.6</ele>
        <time>2021-10-18T15:12:47Z</time>
      </trkpt>
      <trkpt lat="38.8781950" lon="-6.3547650">
        <ele>280.4</ele>
        <time>2021-10-18T15:12:53Z</time>
      </trkpt>
      <trkpt lat="38.8781550" lon="-6.3547830">
        <ele>280.2</ele>
        <time>2021-10-18T15:12:54Z</time>
      </trkpt>
      <trkpt lat="38.8780690" lon="-6.3548190">
        <ele>280.2</ele>
        <time>2021-10-18T15:12:56Z</time>
      </trkpt>
      <trkpt lat="38.8779940" lon="-6.3548440">
        <ele>280.2</ele>
        <time>2021-10-18T15:12:58Z</time>
      </trkpt>
      <trkpt lat="38.8779440" lon="-6.3548670">
        <ele>280.2</ele>
        <time>2021-10-18T15:12:59Z</time>
      </trkpt>
      <trkpt lat="38.8776860" lon="-6.3550030">
        <ele>279.6</ele>
        <time>2021-10-18T15:13:06Z</time>
      </trkpt>
      <trkpt lat="38.8774220" lon="-6.3551450">
        <ele>280.0</ele>
        <time>2021-10-18T15:13:13Z</time>
      </trkpt>
      <trkpt lat="38.8770560" lon="-6.3553320">
        <ele>279.8</ele>
        <time>2021-10-18T15:13:22Z</time>
      </trkpt>
      <trkpt lat="38.8768530" lon="-6.3554310">
        <ele>279.2</ele>
        <time>2021-10-18T15:13:27Z</time>
      </trkpt>
      <trkpt lat="38.8767080" lon="-6.3555250">
        <ele>279.0</ele>
        <time>2021-10-18T15:13:31Z</time>
      </trkpt>
      <trkpt lat="38.8765460" lon="-6.3555850">
        <ele>278.8</ele>
        <time>2021-10-18T15:13:35Z</time>
      </trkpt>
      <trkpt lat="38.8764680" lon="-6.3555950">
        <ele>278.8</ele>
        <time>2021-10-18T15:13:37Z</time>
      </trkpt>
      <trkpt lat="38.8761540" lon="-6.3556770">
        <ele>279.8</ele>
        <time>2021-10-18T15:13:46Z</time>
      </trkpt>
      <trkpt lat="38.8759330" lon="-6.3557280">
        <ele>280.2</ele>
        <time>2021-10-18T15:13:53Z</time>
      </trkpt>
      <trkpt lat="38.8758660" lon="-6.3557500">
        <ele>280.4</ele>
        <time>2021-10-18T15:13:54Z</time>
      </trkpt>
      <trkpt lat="38.8756630" lon="-6.3558310">
        <ele>281.4</ele>
        <time>2021-10-18T15:14:00Z</time>
      </trkpt>
      <trkpt lat="38.8755210" lon="-6.3558890">
        <ele>281.6</ele>
        <time>2021-10-18T15:14:04Z</time>
      </trkpt>
      <trkpt lat="38.8754390" lon="-6.3559140">
        <ele>281.6</ele>
        <time>2021-10-18T15:14:06Z</time>
      </trkpt>
      <trkpt lat="38.8752170" lon="-6.3559820">
        <ele>282.0</ele>
        <time>2021-10-18T15:14:12Z</time>
      </trkpt>
      <trkpt lat="38.8751090" lon="-6.3560090">
        <ele>282.2</ele>
        <time>2021-10-18T15:14:15Z</time>
      </trkpt>
      <trkpt lat="38.8749780" lon="-6.3560350">
        <ele>282.4</ele>
        <time>2021-10-18T15:14:19Z</time>
      </trkpt>
      <trkpt lat="38.8749440" lon="-6.3560400">
        <ele>282.6</ele>
        <time>2021-10-18T15:14:20Z</time>
      </trkpt>
      <trkpt lat="38.8747280" lon="-6.3560670">
        <ele>282.8</ele>
        <time>2021-10-18T15:14:26Z</time>
      </trkpt>
      <trkpt lat="38.8745750" lon="-6.3560990">
        <ele>283.0</ele>
        <time>2021-10-18T15:14:30Z</time>
      </trkpt>
      <trkpt lat="38.8745400" lon="-6.3561090">
        <ele>283.2</ele>
        <time>2021-10-18T15:14:31Z</time>
      </trkpt>
      <trkpt lat="38.8743760" lon="-6.3562160">
        <ele>283.4</ele>
        <time>2021-10-18T15:14:36Z</time>
      </trkpt>
      <trkpt lat="38.8741570" lon="-6.3563120">
        <ele>283.6</ele>
        <time>2021-10-18T15:14:42Z</time>
      </trkpt>
      <trkpt lat="38.8740920" lon="-6.3563220">
        <ele>283.6</ele>
        <time>2021-10-18T15:14:44Z</time>
      </trkpt>
      <trkpt lat="38.8739330" lon="-6.3563310">
        <ele>283.8</ele>
        <time>2021-10-18T15:14:48Z</time>
      </trkpt>
      <trkpt lat="38.8738200" lon="-6.3563140">
        <ele>283.8</ele>
        <time>2021-10-18T15:14:51Z</time>
      </trkpt>
      <trkpt lat="38.8737730" lon="-6.3563080">
        <ele>283.8</ele>
        <time>2021-10-18T15:14:52Z</time>
      </trkpt>
      <trkpt lat="38.8736150" lon="-6.3562890">
        <ele>283.8</ele>
        <time>2021-10-18T15:14:56Z</time>
      </trkpt>
      <trkpt lat="38.8733950" lon="-6.3562870">
        <ele>283.6</ele>
        <time>2021-10-18T15:15:01Z</time>
      </trkpt>
      <trkpt lat="38.8732100" lon="-6.3563160">
        <ele>283.4</ele>
        <time>2021-10-18T15:15:05Z</time>
      </trkpt>
      <trkpt lat="38.8731060" lon="-6.3563230">
        <ele>283.2</ele>
        <time>2021-10-18T15:15:07Z</time>
      </trkpt>
      <trkpt lat="38.8727000" lon="-6.3562990">
        <ele>283.2</ele>
        <time>2021-10-18T15:15:16Z</time>
      </trkpt>
      <trkpt lat="38.8726550" lon="-6.3562980">
        <ele>283.2</ele>
        <time>2021-10-18T15:15:17Z</time>
      </trkpt>
      <trkpt lat="38.8722530" lon="-6.3563180">
        <ele>283.2</ele>
        <time>2021-10-18T15:15:26Z</time>
      </trkpt>
      <trkpt lat="38.8721220" lon="-6.3563250">
        <ele>283.4</ele>
        <time>2021-10-18T15:15:29Z</time>
      </trkpt>
      <trkpt lat="38.8718260" lon="-6.3563400">
        <ele>283.6</ele>
        <time>2021-10-18T15:15:36Z</time>
      </trkpt>
      <trkpt lat="38.8717820" lon="-6.3563370">
        <ele>283.8</ele>
        <time>2021-10-18T15:15:37Z</time>
      </trkpt>
      <trkpt lat="38.8716080" lon="-6.3563340">
        <ele>283.8</ele>
        <time>2021-10-18T15:15:41Z</time>
      </trkpt>
      <trkpt lat="38.8715210" lon="-6.3563360">
        <ele>283.8</ele>
        <time>2021-10-18T15:15:43Z</time>
      </trkpt>
      <trkpt lat="38.8714800" lon="-6.3563360">
        <ele>283.8</ele>
        <time>2021-10-18T15:15:44Z</time>
      </trkpt>
      <trkpt lat="38.8713420" lon="-6.3563340">
        <ele>283.8</ele>
        <time>2021-10-18T15:15:47Z</time>
      </trkpt>
      <trkpt lat="38.8712230" lon="-6.3563380">
        <ele>284.0</ele>
        <time>2021-10-18T15:15:50Z</time>
      </trkpt>
      <trkpt lat="38.8710590" lon="-6.3563410">
        <ele>284.2</ele>
        <time>2021-10-18T15:15:54Z</time>
      </trkpt>
      <trkpt lat="38.8707380" lon="-6.3563350">
        <ele>284.4</ele>
        <time>2021-10-18T15:16:02Z</time>
      </trkpt>
      <trkpt lat="38.8706610" lon="-6.3563370">
        <ele>284.6</ele>
        <time>2021-10-18T15:16:04Z</time>
      </trkpt>
      <trkpt lat="38.8704670" lon="-6.3563220">
        <ele>285.0</ele>
        <time>2021-10-18T15:16:09Z</time>
      </trkpt>
      <trkpt lat="38.8703140" lon="-6.3563190">
        <ele>285.2</ele>
        <time>2021-10-18T15:16:13Z</time>
      </trkpt>
      <trkpt lat="38.8701300" lon="-6.3563160">
        <ele>285.4</ele>
        <time>2021-10-18T15:16:18Z</time>
      </trkpt>
      <trkpt lat="38.8700600" lon="-6.3563210">
        <ele>285.6</ele>
        <time>2021-10-18T15:16:20Z</time>
      </trkpt>
      <trkpt lat="38.8699210" lon="-6.3563250">
        <ele>285.8</ele>
        <time>2021-10-18T15:16:24Z</time>
      </trkpt>
      <trkpt lat="38.8698220" lon="-6.3563180">
        <ele>285.8</ele>
        <time>2021-10-18T15:16:27Z</time>
      </trkpt>
      <trkpt lat="38.8696520" lon="-6.3563100">
        <ele>286.0</ele>
        <time>2021-10-18T15:16:32Z</time>
      </trkpt>
      <trkpt lat="38.8695440" lon="-6.3563040">
        <ele>286.2</ele>
        <time>2021-10-18T15:16:35Z</time>
      </trkpt>
      <trkpt lat="38.8694360" lon="-6.3563090">
        <ele>286.2</ele>
        <time>2021-10-18T15:16:38Z</time>
      </trkpt>
      <trkpt lat="38.8692910" lon="-6.3563200">
        <ele>286.2</ele>
        <time>2021-10-18T15:16:42Z</time>
      </trkpt>
      <trkpt lat="38.8691690" lon="-6.3563280">
        <ele>286.4</ele>
        <time>2021-10-18T15:16:45Z</time>
      </trkpt>
      <trkpt lat="38.8689580" lon="-6.3563360">
        <ele>286.4</ele>
        <time>2021-10-18T15:16:50Z</time>
      </trkpt>
      <trkpt lat="38.8688100" lon="-6.3563510">
        <ele>286.4</ele>
        <time>2021-10-18T15:16:53Z</time>
      </trkpt>
      <trkpt lat="38.8686430" lon="-6.3563630">
        <ele>285.8</ele>
        <time>2021-10-18T15:16:56Z</time>
      </trkpt>
      <trkpt lat="38.8684590" lon="-6.3563900">
        <ele>285.2</ele>
        <time>2021-10-18T15:16:59Z</time>
      </trkpt>
      <trkpt lat="38.8682630" lon="-6.3564010">
        <ele>284.6</ele>
        <time>2021-10-18T15:17:02Z</time>
      </trkpt>
      <trkpt lat="38.8680030" lon="-6.3564030">
        <ele>283.6</ele>
        <time>2021-10-18T15:17:06Z</time>
      </trkpt>
      <trkpt lat="38.8675730" lon="-6.3564390">
        <ele>282.4</ele>
        <time>2021-10-18T15:17:13Z</time>
      </trkpt>
      <trkpt lat="38.8673070" lon="-6.3565210">
        <ele>282.0</ele>
        <time>2021-10-18T15:17:18Z</time>
      </trkpt>
      <trkpt lat="38.8672620" lon="-6.3565410">
        <ele>282.0</ele>
        <time>2021-10-18T15:17:19Z</time>
      </trkpt>
      <trkpt lat="38.8670620" lon="-6.3566250">
        <ele>281.8</ele>
        <time>2021-10-18T15:17:24Z</time>
      </trkpt>
      <trkpt lat="38.8669930" lon="-6.3566550">
        <ele>281.8</ele>
        <time>2021-10-18T15:17:26Z</time>
      </trkpt>
      <trkpt lat="38.8666760" lon="-6.3568050">
        <ele>282.8</ele>
        <time>2021-10-18T15:17:35Z</time>
      </trkpt>
      <trkpt lat="38.8663910" lon="-6.3569190">
        <ele>283.4</ele>
        <time>2021-10-18T15:17:43Z</time>
      </trkpt>
      <trkpt lat="38.8660280" lon="-6.3570900">
        <ele>283.6</ele>
        <time>2021-10-18T15:17:52Z</time>
      </trkpt>
      <trkpt lat="38.8658530" lon="-6.3571890">
        <ele>283.2</ele>
        <time>2021-10-18T15:17:56Z</time>
      </trkpt>
      <trkpt lat="38.8656790" lon="-6.3572900">
        <ele>283.0</ele>
        <time>2021-10-18T15:18:00Z</time>
      </trkpt>
      <trkpt lat="38.8652780" lon="-6.3575580">
        <ele>282.0</ele>
        <time>2021-10-18T15:18:10Z</time>
      </trkpt>
      <trkpt lat="38.8652410" lon="-6.3575800">
        <ele>282.0</ele>
        <time>2021-10-18T15:18:11Z</time>
      </trkpt>
      <trkpt lat="38.8651220" lon="-6.3576530">
        <ele>282.0</ele>
        <time>2021-10-18T15:18:14Z</time>
      </trkpt>
      <trkpt lat="38.8649410" lon="-6.3577440">
        <ele>281.8</ele>
        <time>2021-10-18T15:18:19Z</time>
      </trkpt>
      <trkpt lat="38.8646650" lon="-6.3578710">
        <ele>281.6</ele>
        <time>2021-10-18T15:18:27Z</time>
      </trkpt>
      <trkpt lat="38.8646260" lon="-6.3578910">
        <ele>281.6</ele>
        <time>2021-10-18T15:18:28Z</time>
      </trkpt>
      <trkpt lat="38.8642090" lon="-6.3580830">
        <ele>281.4</ele>
        <time>2021-10-18T15:18:38Z</time>
      </trkpt>
      <trkpt lat="38.8638450" lon="-6.3582240">
        <ele>281.0</ele>
        <time>2021-10-18T15:18:47Z</time>
      </trkpt>
      <trkpt lat="38.8637620" lon="-6.3582600">
        <ele>281.0</ele>
        <time>2021-10-18T15:18:49Z</time>
      </trkpt>
      <trkpt lat="38.8633990" lon="-6.3584050">
        <ele>281.0</ele>
        <time>2021-10-18T15:18:57Z</time>
      </trkpt>
      <trkpt lat="38.8630850" lon="-6.3585200">
        <ele>280.6</ele>
        <time>2021-10-18T15:19:04Z</time>
      </trkpt>
      <trkpt lat="38.8628970" lon="-6.3585780">
        <ele>280.6</ele>
        <time>2021-10-18T15:19:08Z</time>
      </trkpt>
      <trkpt lat="38.8627590" lon="-6.3586200">
        <ele>280.2</ele>
        <time>2021-10-18T15:19:11Z</time>
      </trkpt>
      <trkpt lat="38.8624850" lon="-6.3586890">
        <ele>280.0</ele>
        <time>2021-10-18T15:19:17Z</time>
      </trkpt>
      <trkpt lat="38.8623960" lon="-6.3586750">
        <ele>280.0</ele>
        <time>2021-10-18T15:19:19Z</time>
      </trkpt>
      <trkpt lat="38.8623180" lon="-6.3586360">
        <ele>279.8</ele>
        <time>2021-10-18T15:19:21Z</time>
      </trkpt>
      <trkpt lat="38.8622840" lon="-6.3586120">
        <ele>279.8</ele>
        <time>2021-10-18T15:19:22Z</time>
      </trkpt>
      <trkpt lat="38.8621600" lon="-6.3584780">
        <ele>279.6</ele>
        <time>2021-10-18T15:19:26Z</time>
      </trkpt>
      <trkpt lat="38.8621030" lon="-6.3584010">
        <ele>279.6</ele>
        <time>2021-10-18T15:19:28Z</time>
      </trkpt>
      <trkpt lat="38.8620410" lon="-6.3583150">
        <ele>279.0</ele>
        <time>2021-10-18T15:19:32Z</time>
      </trkpt>
      <trkpt lat="38.8620410" lon="-6.3583150">
        <ele>279.0</ele>
        <time>2021-10-18T15:19:33Z</time>
      </trkpt>
      <trkpt lat="38.8620840" lon="-6.3583930">
        <ele>278.4</ele>
        <time>2021-10-18T15:19:45Z</time>
      </trkpt>
      <trkpt lat="38.8621200" lon="-6.3584500">
        <ele>278.4</ele>
        <time>2021-10-18T15:19:47Z</time>
      </trkpt>
      <trkpt lat="38.8622480" lon="-6.3586010">
        <ele>278.6</ele>
        <time>2021-10-18T15:19:52Z</time>
      </trkpt>
      <trkpt lat="38.8622750" lon="-6.3586230">
        <ele>278.8</ele>
        <time>2021-10-18T15:19:53Z</time>
      </trkpt>
      <trkpt lat="38.8623520" lon="-6.3586680">
        <ele>278.8</ele>
        <time>2021-10-18T15:19:56Z</time>
      </trkpt>
      <trkpt lat="38.8624080" lon="-6.3587040">
        <ele>279.0</ele>
        <time>2021-10-18T15:19:59Z</time>
      </trkpt>
      <trkpt lat="38.8624310" lon="-6.3587310">
        <ele>279.2</ele>
        <time>2021-10-18T15:20:04Z</time>
      </trkpt>
      <trkpt lat="38.8623830" lon="-6.3587560">
        <ele>279.2</ele>
        <time>2021-10-18T15:21:27Z</time>
      </trkpt>
      <trkpt lat="38.8623530" lon="-6.3587610">
        <ele>279.2</ele>
        <time>2021-10-18T15:21:28Z</time>
      </trkpt>
      <trkpt lat="38.8623200" lon="-6.3587660">
        <ele>279.2</ele>
        <time>2021-10-18T15:21:29Z</time>
      </trkpt>
      <trkpt lat="38.8621640" lon="-6.3587790">
        <ele>279.2</ele>
        <time>2021-10-18T15:21:33Z</time>
      </trkpt>
      <trkpt lat="38.8620760" lon="-6.3587940">
        <ele>279.2</ele>
        <time>2021-10-18T15:21:35Z</time>
      </trkpt>
      <trkpt lat="38.8619330" lon="-6.3588080">
        <ele>278.8</ele>
        <time>2021-10-18T15:21:38Z</time>
      </trkpt>
      <trkpt lat="38.8618130" lon="-6.3588340">
        <ele>278.6</ele>
        <time>2021-10-18T15:21:41Z</time>
      </trkpt>
      <trkpt lat="38.8613450" lon="-6.3589110">
        <ele>278.2</ele>
        <time>2021-10-18T15:21:51Z</time>
      </trkpt>
      <trkpt lat="38.8611450" lon="-6.3589450">
        <ele>278.2</ele>
        <time>2021-10-18T15:21:55Z</time>
      </trkpt>
      <trkpt lat="38.8609690" lon="-6.3589910">
        <ele>277.8</ele>
        <time>2021-10-18T15:21:59Z</time>
      </trkpt>
      <trkpt lat="38.8609230" lon="-6.3590060">
        <ele>277.8</ele>
        <time>2021-10-18T15:22:00Z</time>
      </trkpt>
      <trkpt lat="38.8607330" lon="-6.3590210">
        <ele>277.6</ele>
        <time>2021-10-18T15:22:04Z</time>
      </trkpt>
      <trkpt lat="38.8603470" lon="-6.3590420">
        <ele>277.8</ele>
        <time>2021-10-18T15:22:13Z</time>
      </trkpt>
      <trkpt lat="38.8599730" lon="-6.3590170">
        <ele>277.6</ele>
        <time>2021-10-18T15:22:22Z</time>
      </trkpt>
      <trkpt lat="38.8598120" lon="-6.3590190">
        <ele>277.6</ele>
        <time>2021-10-18T15:22:26Z</time>
      </trkpt>
      <trkpt lat="38.8596930" lon="-6.3590470">
        <ele>278.0</ele>
        <time>2021-10-18T15:22:29Z</time>
      </trkpt>
      <trkpt lat="38.8595080" lon="-6.3590650">
        <ele>278.2</ele>
        <time>2021-10-18T15:22:35Z</time>
      </trkpt>
      <trkpt lat="38.8593360" lon="-6.3591410">
        <ele>278.4</ele>
        <time>2021-10-18T15:22:41Z</time>
      </trkpt>
      <trkpt lat="38.8590580" lon="-6.3592410">
        <ele>278.6</ele>
        <time>2021-10-18T15:22:49Z</time>
      </trkpt>
      <trkpt lat="38.8588300" lon="-6.3592960">
        <ele>279.0</ele>
        <time>2021-10-18T15:22:56Z</time>
      </trkpt>
      <trkpt lat="38.8585970" lon="-6.3593420">
        <ele>279.6</ele>
        <time>2021-10-18T15:23:03Z</time>
      </trkpt>
      <trkpt lat="38.8584710" lon="-6.3593650">
        <ele>279.8</ele>
        <time>2021-10-18T15:23:07Z</time>
      </trkpt>
      <trkpt lat="38.8582670" lon="-6.3593970">
        <ele>280.6</ele>
        <time>2021-10-18T15:23:13Z</time>
      </trkpt>
      <trkpt lat="38.8581810" lon="-6.3594090">
        <ele>280.8</ele>
        <time>2021-10-18T15:23:16Z</time>
      </trkpt>
      <trkpt lat="38.8580600" lon="-6.3594240">
        <ele>281.0</ele>
        <time>2021-10-18T15:23:20Z</time>
      </trkpt>
      <trkpt lat="38.8579360" lon="-6.3594370">
        <ele>281.2</ele>
        <time>2021-10-18T15:23:24Z</time>
      </trkpt>
      <trkpt lat="38.8578750" lon="-6.3594500">
        <ele>281.6</ele>
        <time>2021-10-18T15:23:26Z</time>
      </trkpt>
      <trkpt lat="38.8576400" lon="-6.3594830">
        <ele>282.2</ele>
        <time>2021-10-18T15:23:34Z</time>
      </trkpt>
      <trkpt lat="38.8575820" lon="-6.3594910">
        <ele>282.6</ele>
        <time>2021-10-18T15:23:36Z</time>
      </trkpt>
      <trkpt lat="38.8575530" lon="-6.3594930">
        <ele>282.6</ele>
        <time>2021-10-18T15:23:37Z</time>
      </trkpt>
      <trkpt lat="38.8573210" lon="-6.3595180">
        <ele>283.2</ele>
        <time>2021-10-18T15:23:45Z</time>
      </trkpt>
      <trkpt lat="38.8572930" lon="-6.3595160">
        <ele>283.4</ele>
        <time>2021-10-18T15:23:46Z</time>
      </trkpt>
      <trkpt lat="38.8572090" lon="-6.3595120">
        <ele>283.6</ele>
        <time>2021-10-18T15:23:49Z</time>
      </trkpt>
      <trkpt lat="38.8571790" lon="-6.3595140">
        <ele>283.6</ele>
        <time>2021-10-18T15:23:50Z</time>
      </trkpt>
      <trkpt lat="38.8570920" lon="-6.3595260">
        <ele>283.8</ele>
        <time>2021-10-18T15:23:53Z</time>
      </trkpt>
      <trkpt lat="38.8570320" lon="-6.3595310">
        <ele>284.0</ele>
        <time>2021-10-18T15:23:55Z</time>
      </trkpt>
      <trkpt lat="38.8569710" lon="-6.3595370">
        <ele>284.2</ele>
        <time>2021-10-18T15:23:57Z</time>
      </trkpt>
      <trkpt lat="38.8569080" lon="-6.3595420">
        <ele>284.2</ele>
        <time>2021-10-18T15:23:59Z</time>
      </trkpt>
      <trkpt lat="38.8567870" lon="-6.3595480">
        <ele>284.4</ele>
        <time>2021-10-18T15:24:03Z</time>
      </trkpt>
      <trkpt lat="38.8566740" lon="-6.3595420">
        <ele>284.6</ele>
        <time>2021-10-18T15:24:07Z</time>
      </trkpt>
      <trkpt lat="38.8566440" lon="-6.3595370">
        <ele>284.8</ele>
        <time>2021-10-18T15:24:08Z</time>
      </trkpt>
      <trkpt lat="38.8565540" lon="-6.3595420">
        <ele>285.0</ele>
        <time>2021-10-18T15:24:11Z</time>
      </trkpt>
      <trkpt lat="38.8564020" lon="-6.3595890">
        <ele>285.2</ele>
        <time>2021-10-18T15:24:16Z</time>
      </trkpt>
      <trkpt lat="38.8563420" lon="-6.3595900">
        <ele>285.2</ele>
        <time>2021-10-18T15:24:18Z</time>
      </trkpt>
      <trkpt lat="38.8562810" lon="-6.3595950">
        <ele>285.2</ele>
        <time>2021-10-18T15:24:20Z</time>
      </trkpt>
      <trkpt lat="38.8562200" lon="-6.3596000">
        <ele>285.2</ele>
        <time>2021-10-18T15:24:22Z</time>
      </trkpt>
      <trkpt lat="38.8560470" lon="-6.3596090">
        <ele>285.4</ele>
        <time>2021-10-18T15:24:27Z</time>
      </trkpt>
      <trkpt lat="38.8558970" lon="-6.3596170">
        <ele>285.6</ele>
        <time>2021-10-18T15:24:31Z</time>
      </trkpt>
      <trkpt lat="38.8557530" lon="-6.3596270">
        <ele>285.6</ele>
        <time>2021-10-18T15:24:35Z</time>
      </trkpt>
      <trkpt lat="38.8557150" lon="-6.3596300">
        <ele>285.8</ele>
        <time>2021-10-18T15:24:36Z</time>
      </trkpt>
      <trkpt lat="38.8556080" lon="-6.3596500">
        <ele>285.8</ele>
        <time>2021-10-18T15:24:39Z</time>
      </trkpt>
      <trkpt lat="38.8554510" lon="-6.3596760">
        <ele>286.0</ele>
        <time>2021-10-18T15:24:44Z</time>
      </trkpt>
      <trkpt lat="38.8554190" lon="-6.3596790">
        <ele>286.0</ele>
        <time>2021-10-18T15:24:45Z</time>
      </trkpt>
      <trkpt lat="38.8553220" lon="-6.3596830">
        <ele>286.8</ele>
        <time>2021-10-18T15:24:48Z</time>
      </trkpt>
      <trkpt lat="38.8552890" lon="-6.3596850">
        <ele>287.0</ele>
        <time>2021-10-18T15:24:49Z</time>
      </trkpt>
      <trkpt lat="38.8551890" lon="-6.3596900">
        <ele>287.4</ele>
        <time>2021-10-18T15:24:52Z</time>
      </trkpt>
      <trkpt lat="38.8551560" lon="-6.3596930">
        <ele>287.4</ele>
        <time>2021-10-18T15:24:53Z</time>
      </trkpt>
      <trkpt lat="38.8550260" lon="-6.3597040">
        <ele>287.8</ele>
        <time>2021-10-18T15:24:57Z</time>
      </trkpt>
      <trkpt lat="38.8549580" lon="-6.3597110">
        <ele>287.8</ele>
        <time>2021-10-18T15:24:59Z</time>
      </trkpt>
      <trkpt lat="38.8548920" lon="-6.3597140">
        <ele>288.0</ele>
        <time>2021-10-18T15:25:01Z</time>
      </trkpt>
      <trkpt lat="38.8547700" lon="-6.3597350">
        <ele>288.4</ele>
        <time>2021-10-18T15:25:06Z</time>
      </trkpt>
      <trkpt lat="38.8547090" lon="-6.3597480">
        <ele>289.0</ele>
        <time>2021-10-18T15:25:09Z</time>
      </trkpt>
      <trkpt lat="38.8546710" lon="-6.3597720">
        <ele>289.2</ele>
        <time>2021-10-18T15:25:11Z</time>
      </trkpt>
      <trkpt lat="38.8546540" lon="-6.3597860">
        <ele>289.4</ele>
        <time>2021-10-18T15:25:12Z</time>
      </trkpt>
      <trkpt lat="38.8545430" lon="-6.3598870">
        <ele>290.2</ele>
        <time>2021-10-18T15:25:19Z</time>
      </trkpt>
      <trkpt lat="38.8544970" lon="-6.3599130">
        <ele>290.6</ele>
        <time>2021-10-18T15:25:22Z</time>
      </trkpt>
      <trkpt lat="38.8544480" lon="-6.3599260">
        <ele>291.4</ele>
        <time>2021-10-18T15:25:25Z</time>
      </trkpt>
      <trkpt lat="38.8543540" lon="-6.3599410">
        <ele>292.0</ele>
        <time>2021-10-18T15:25:30Z</time>
      </trkpt>
      <trkpt lat="38.8543360" lon="-6.3599420">
        <ele>292.0</ele>
        <time>2021-10-18T15:25:31Z</time>
      </trkpt>
      <trkpt lat="38.8543030" lon="-6.3599410">
        <ele>292.4</ele>
        <time>2021-10-18T15:25:33Z</time>
      </trkpt>
      <trkpt lat="38.8542520" lon="-6.3599410">
        <ele>292.6</ele>
        <time>2021-10-18T15:25:36Z</time>
      </trkpt>
      <trkpt lat="38.8542200" lon="-6.3599410">
        <ele>293.0</ele>
        <time>2021-10-18T15:25:38Z</time>
      </trkpt>
      <trkpt lat="38.8541720" lon="-6.3599330">
        <ele>293.6</ele>
        <time>2021-10-18T15:25:41Z</time>
      </trkpt>
      <trkpt lat="38.8541120" lon="-6.3599340">
        <ele>294.2</ele>
        <time>2021-10-18T15:25:45Z</time>
      </trkpt>
      <trkpt lat="38.8540840" lon="-6.3599360">
        <ele>294.6</ele>
        <time>2021-10-18T15:25:47Z</time>
      </trkpt>
      <trkpt lat="38.8540690" lon="-6.3599360">
        <ele>294.8</ele>
        <time>2021-10-18T15:25:48Z</time>
      </trkpt>
      <trkpt lat="38.8540130" lon="-6.3599340">
        <ele>295.4</ele>
        <time>2021-10-18T15:25:51Z</time>
      </trkpt>
      <trkpt lat="38.8539830" lon="-6.3599340">
        <ele>295.6</ele>
        <time>2021-10-18T15:25:53Z</time>
      </trkpt>
      <trkpt lat="38.8539370" lon="-6.3599380">
        <ele>296.0</ele>
        <time>2021-10-18T15:25:56Z</time>
      </trkpt>
      <trkpt lat="38.8538140" lon="-6.3599440">
        <ele>296.8</ele>
        <time>2021-10-18T15:26:04Z</time>
      </trkpt>
      <trkpt lat="38.8537820" lon="-6.3599450">
        <ele>297.0</ele>
        <time>2021-10-18T15:26:06Z</time>
      </trkpt>
      <trkpt lat="38.8537340" lon="-6.3599380">
        <ele>297.2</ele>
        <time>2021-10-18T15:26:09Z</time>
      </trkpt>
      <trkpt lat="38.8537030" lon="-6.3599310">
        <ele>297.4</ele>
        <time>2021-10-18T15:26:11Z</time>
      </trkpt>
      <trkpt lat="38.8536850" lon="-6.3599290">
        <ele>297.4</ele>
        <time>2021-10-18T15:26:12Z</time>
      </trkpt>
      <trkpt lat="38.8536240" lon="-6.3599310">
        <ele>297.8</ele>
        <time>2021-10-18T15:26:16Z</time>
      </trkpt>
      <trkpt lat="38.8535930" lon="-6.3599340">
        <ele>298.0</ele>
        <time>2021-10-18T15:26:18Z</time>
      </trkpt>
      <trkpt lat="38.8535690" lon="-6.3599330">
        <ele>298.2</ele>
        <time>2021-10-18T15:26:20Z</time>
      </trkpt>
      <trkpt lat="38.8535400" lon="-6.3599300">
        <ele>298.6</ele>
        <time>2021-10-18T15:26:22Z</time>
      </trkpt>
      <trkpt lat="38.8535110" lon="-6.3599260">
        <ele>299.2</ele>
        <time>2021-10-18T15:26:24Z</time>
      </trkpt>
      <trkpt lat="38.8534520" lon="-6.3599310">
        <ele>299.8</ele>
        <time>2021-10-18T15:26:28Z</time>
      </trkpt>
      <trkpt lat="38.8533800" lon="-6.3599300">
        <ele>300.2</ele>
        <time>2021-10-18T15:26:32Z</time>
      </trkpt>
      <trkpt lat="38.8533680" lon="-6.3599300">
        <ele>300.4</ele>
        <time>2021-10-18T15:26:33Z</time>
      </trkpt>
      <trkpt lat="38.8532810" lon="-6.3599350">
        <ele>301.2</ele>
        <time>2021-10-18T15:26:39Z</time>
      </trkpt>
      <trkpt lat="38.8532410" lon="-6.3599460">
        <ele>301.6</ele>
        <time>2021-10-18T15:26:42Z</time>
      </trkpt>
      <trkpt lat="38.8531650" lon="-6.3599640">
        <ele>302.4</ele>
        <time>2021-10-18T15:26:46Z</time>
      </trkpt>
      <trkpt lat="38.8531400" lon="-6.3599690">
        <ele>302.4</ele>
        <time>2021-10-18T15:26:47Z</time>
      </trkpt>
      <trkpt lat="38.8530810" lon="-6.3599750">
        <ele>302.4</ele>
        <time>2021-10-18T15:26:49Z</time>
      </trkpt>
      <trkpt lat="38.8530470" lon="-6.3599810">
        <ele>302.4</ele>
        <time>2021-10-18T15:26:50Z</time>
      </trkpt>
      <trkpt lat="38.8528430" lon="-6.3600120">
        <ele>302.2</ele>
        <time>2021-10-18T15:26:55Z</time>
      </trkpt>
      <trkpt lat="38.8527550" lon="-6.3600180">
        <ele>302.0</ele>
        <time>2021-10-18T15:26:57Z</time>
      </trkpt>
      <trkpt lat="38.8526250" lon="-6.3600350">
        <ele>301.8</ele>
        <time>2021-10-18T15:27:00Z</time>
      </trkpt>
      <trkpt lat="38.8525730" lon="-6.3600430">
        <ele>301.8</ele>
        <time>2021-10-18T15:27:01Z</time>
      </trkpt>
      <trkpt lat="38.8523040" lon="-6.3600640">
        <ele>301.4</ele>
        <time>2021-10-18T15:27:08Z</time>
      </trkpt>
      <trkpt lat="38.8522700" lon="-6.3600590">
        <ele>301.4</ele>
        <time>2021-10-18T15:27:09Z</time>
      </trkpt>
      <trkpt lat="38.8521410" lon="-6.3600310">
        <ele>301.6</ele>
        <time>2021-10-18T15:27:13Z</time>
      </trkpt>
      <trkpt lat="38.8520720" lon="-6.3600100">
        <ele>301.6</ele>
        <time>2021-10-18T15:27:15Z</time>
      </trkpt>
      <trkpt lat="38.8519460" lon="-6.3599830">
        <ele>302.0</ele>
        <time>2021-10-18T15:27:19Z</time>
      </trkpt>
      <trkpt lat="38.8518280" lon="-6.3599660">
        <ele>302.4</ele>
        <time>2021-10-18T15:27:23Z</time>
      </trkpt>
      <trkpt lat="38.8517740" lon="-6.3599520">
        <ele>302.4</ele>
        <time>2021-10-18T15:27:25Z</time>
      </trkpt>
      <trkpt lat="38.8516770" lon="-6.3599270">
        <ele>302.8</ele>
        <time>2021-10-18T15:27:29Z</time>
      </trkpt>
      <trkpt lat="38.8516520" lon="-6.3599180">
        <ele>303.2</ele>
        <time>2021-10-18T15:27:30Z</time>
      </trkpt>
      <trkpt lat="38.8516030" lon="-6.3599040">
        <ele>303.6</ele>
        <time>2021-10-18T15:27:32Z</time>
      </trkpt>
      <trkpt lat="38.8515000" lon="-6.3598380">
        <ele>304.2</ele>
        <time>2021-10-18T15:27:37Z</time>
      </trkpt>
      <trkpt lat="38.8514820" lon="-6.3598220">
        <ele>304.4</ele>
        <time>2021-10-18T15:27:38Z</time>
      </trkpt>
      <trkpt lat="38.8514420" lon="-6.3597970">
        <ele>304.6</ele>
        <time>2021-10-18T15:27:40Z</time>
      </trkpt>
      <trkpt lat="38.8513510" lon="-6.3597350">
        <ele>305.4</ele>
        <time>2021-10-18T15:27:45Z</time>
      </trkpt>
      <trkpt lat="38.8513150" lon="-6.3597050">
        <ele>305.6</ele>
        <time>2021-10-18T15:27:47Z</time>
      </trkpt>
      <trkpt lat="38.8512560" lon="-6.3596600">
        <ele>306.0</ele>
        <time>2021-10-18T15:27:50Z</time>
      </trkpt>
      <trkpt lat="38.8512030" lon="-6.3596140">
        <ele>306.2</ele>
        <time>2021-10-18T15:27:53Z</time>
      </trkpt>
      <trkpt lat="38.8511720" lon="-6.3595830">
        <ele>306.4</ele>
        <time>2021-10-18T15:27:55Z</time>
      </trkpt>
      <trkpt lat="38.8511480" lon="-6.3595580">
        <ele>306.4</ele>
        <time>2021-10-18T15:27:57Z</time>
      </trkpt>
      <trkpt lat="38.8511220" lon="-6.3595450">
        <ele>306.4</ele>
        <time>2021-10-18T15:27:59Z</time>
      </trkpt>
      <trkpt lat="38.8510960" lon="-6.3595710">
        <ele>306.4</ele>
        <time>2021-10-18T15:28:01Z</time>
      </trkpt>
      <trkpt lat="38.8510620" lon="-6.3596080">
        <ele>306.4</ele>
        <time>2021-10-18T15:28:03Z</time>
      </trkpt>
      <trkpt lat="38.8510000" lon="-6.3595990">
        <ele>306.2</ele>
        <time>2021-10-18T15:28:06Z</time>
      </trkpt>
      <trkpt lat="38.8508410" lon="-6.3595950">
        <ele>306.2</ele>
        <time>2021-10-18T15:28:13Z</time>
      </trkpt>
      <trkpt lat="38.8507030" lon="-6.3596630">
        <ele>306.2</ele>
        <time>2021-10-18T15:28:19Z</time>
      </trkpt>
      <trkpt lat="38.8505890" lon="-6.3597700">
        <ele>306.4</ele>
        <time>2021-10-18T15:28:25Z</time>
      </trkpt>
      <trkpt lat="38.8505120" lon="-6.3598570">
        <ele>306.4</ele>
        <time>2021-10-18T15:28:29Z</time>
      </trkpt>
      <trkpt lat="38.8504940" lon="-6.3598820">
        <ele>306.4</ele>
        <time>2021-10-18T15:28:30Z</time>
      </trkpt>
      <trkpt lat="38.8504770" lon="-6.3599090">
        <ele>306.6</ele>
        <time>2021-10-18T15:28:31Z</time>
      </trkpt>
      <trkpt lat="38.8503740" lon="-6.3600320">
        <ele>306.8</ele>
        <time>2021-10-18T15:28:36Z</time>
      </trkpt>
      <trkpt lat="38.8503300" lon="-6.3600730">
        <ele>307.2</ele>
        <time>2021-10-18T15:28:38Z</time>
      </trkpt>
      <trkpt lat="38.8502500" lon="-6.3601640">
        <ele>307.6</ele>
        <time>2021-10-18T15:28:42Z</time>
      </trkpt>
      <trkpt lat="38.8501250" lon="-6.3603220">
        <ele>308.0</ele>
        <time>2021-10-18T15:28:49Z</time>
      </trkpt>
      <trkpt lat="38.8500110" lon="-6.3604200">
        <ele>308.6</ele>
        <time>2021-10-18T15:28:55Z</time>
      </trkpt>
      <trkpt lat="38.8499110" lon="-6.3604750">
        <ele>309.4</ele>
        <time>2021-10-18T15:29:00Z</time>
      </trkpt>
      <trkpt lat="38.8498620" lon="-6.3604900">
        <ele>309.6</ele>
        <time>2021-10-18T15:29:03Z</time>
      </trkpt>
      <trkpt lat="38.8498500" lon="-6.3604960">
        <ele>309.8</ele>
        <time>2021-10-18T15:29:04Z</time>
      </trkpt>
      <trkpt lat="38.8498390" lon="-6.3605050">
        <ele>310.4</ele>
        <time>2021-10-18T15:29:08Z</time>
      </trkpt>
      <trkpt lat="38.8497870" lon="-6.3605570">
        <ele>311.0</ele>
        <time>2021-10-18T15:29:19Z</time>
      </trkpt>
      <trkpt lat="38.8497470" lon="-6.3606150">
        <ele>311.0</ele>
        <time>2021-10-18T15:29:22Z</time>
      </trkpt>
      <trkpt lat="38.8495790" lon="-6.3606660">
        <ele>311.0</ele>
        <time>2021-10-18T15:29:28Z</time>
      </trkpt>
      <trkpt lat="38.8495160" lon="-6.3606760">
        <ele>311.0</ele>
        <time>2021-10-18T15:29:30Z</time>
      </trkpt>
      <trkpt lat="38.8494110" lon="-6.3606880">
        <ele>311.0</ele>
        <time>2021-10-18T15:29:33Z</time>
      </trkpt>
      <trkpt lat="38.8493080" lon="-6.3607090">
        <ele>311.0</ele>
        <time>2021-10-18T15:29:36Z</time>
      </trkpt>
      <trkpt lat="38.8491950" lon="-6.3607270">
        <ele>311.2</ele>
        <time>2021-10-18T15:29:39Z</time>
      </trkpt>
      <trkpt lat="38.8490410" lon="-6.3607460">
        <ele>311.2</ele>
        <time>2021-10-18T15:29:43Z</time>
      </trkpt>
      <trkpt lat="38.8487960" lon="-6.3607820">
        <ele>311.2</ele>
        <time>2021-10-18T15:29:49Z</time>
      </trkpt>
      <trkpt lat="38.8486200" lon="-6.3608060">
        <ele>311.2</ele>
        <time>2021-10-18T15:29:53Z</time>
      </trkpt>
      <trkpt lat="38.8483790" lon="-6.3608340">
        <ele>311.0</ele>
        <time>2021-10-18T15:29:58Z</time>
      </trkpt>
      <trkpt lat="38.8481680" lon="-6.3608530">
        <ele>310.6</ele>
        <time>2021-10-18T15:30:02Z</time>
      </trkpt>
      <trkpt lat="38.8479360" lon="-6.3608690">
        <ele>310.2</ele>
        <time>2021-10-18T15:30:06Z</time>
      </trkpt>
      <trkpt lat="38.8477450" lon="-6.3608800">
        <ele>310.0</ele>
        <time>2021-10-18T15:30:09Z</time>
      </trkpt>
      <trkpt lat="38.8476790" lon="-6.3608860">
        <ele>309.8</ele>
        <time>2021-10-18T15:30:10Z</time>
      </trkpt>
      <trkpt lat="38.8474770" lon="-6.3609040">
        <ele>309.0</ele>
        <time>2021-10-18T15:30:13Z</time>
      </trkpt>
      <trkpt lat="38.8472660" lon="-6.3609210">
        <ele>308.6</ele>
        <time>2021-10-18T15:30:16Z</time>
      </trkpt>
      <trkpt lat="38.8471210" lon="-6.3609380">
        <ele>308.2</ele>
        <time>2021-10-18T15:30:18Z</time>
      </trkpt>
      <trkpt lat="38.8469720" lon="-6.3609620">
        <ele>307.4</ele>
        <time>2021-10-18T15:30:20Z</time>
      </trkpt>
      <trkpt lat="38.8466640" lon="-6.3610340">
        <ele>306.2</ele>
        <time>2021-10-18T15:30:24Z</time>
      </trkpt>
      <trkpt lat="38.8465050" lon="-6.3610780">
        <ele>305.6</ele>
        <time>2021-10-18T15:30:26Z</time>
      </trkpt>
      <trkpt lat="38.8462640" lon="-6.3611660">
        <ele>305.0</ele>
        <time>2021-10-18T15:30:29Z</time>
      </trkpt>
      <trkpt lat="38.8459440" lon="-6.3613050">
        <ele>304.0</ele>
        <time>2021-10-18T15:30:33Z</time>
      </trkpt>
      <trkpt lat="38.8458650" lon="-6.3613470">
        <ele>303.8</ele>
        <time>2021-10-18T15:30:34Z</time>
      </trkpt>
      <trkpt lat="38.8455560" lon="-6.3615270">
        <ele>303.0</ele>
        <time>2021-10-18T15:30:38Z</time>
      </trkpt>
      <trkpt lat="38.8453370" lon="-6.3616730">
        <ele>301.8</ele>
        <time>2021-10-18T15:30:41Z</time>
      </trkpt>
      <trkpt lat="38.8452690" lon="-6.3617240">
        <ele>301.4</ele>
        <time>2021-10-18T15:30:42Z</time>
      </trkpt>
      <trkpt lat="38.8448890" lon="-6.3620030">
        <ele>300.6</ele>
        <time>2021-10-18T15:30:48Z</time>
      </trkpt>
      <trkpt lat="38.8445650" lon="-6.3622420">
        <ele>300.4</ele>
        <time>2021-10-18T15:30:54Z</time>
      </trkpt>
      <trkpt lat="38.8442200" lon="-6.3624850">
        <ele>300.6</ele>
        <time>2021-10-18T15:31:01Z</time>
      </trkpt>
      <trkpt lat="38.8438420" lon="-6.3627490">
        <ele>300.8</ele>
        <time>2021-10-18T15:31:09Z</time>
      </trkpt>
      <trkpt lat="38.8437920" lon="-6.3627780">
        <ele>300.8</ele>
        <time>2021-10-18T15:31:10Z</time>
      </trkpt>
      <trkpt lat="38.8435400" lon="-6.3629050">
        <ele>301.0</ele>
        <time>2021-10-18T15:31:15Z</time>
      </trkpt>
      <trkpt lat="38.8432130" lon="-6.3630400">
        <ele>300.8</ele>
        <time>2021-10-18T15:31:21Z</time>
      </trkpt>
      <trkpt lat="38.8427370" lon="-6.3631800">
        <ele>299.8</ele>
        <time>2021-10-18T15:31:29Z</time>
      </trkpt>
      <trkpt lat="38.8426730" lon="-6.3631970">
        <ele>299.6</ele>
        <time>2021-10-18T15:31:30Z</time>
      </trkpt>
      <trkpt lat="38.8426080" lon="-6.3632150">
        <ele>299.4</ele>
        <time>2021-10-18T15:31:31Z</time>
      </trkpt>
      <trkpt lat="38.8422760" lon="-6.3633070">
        <ele>298.4</ele>
        <time>2021-10-18T15:31:36Z</time>
      </trkpt>
      <trkpt lat="38.8420080" lon="-6.3633680">
        <ele>297.8</ele>
        <time>2021-10-18T15:31:40Z</time>
      </trkpt>
      <trkpt lat="38.8419400" lon="-6.3633880">
        <ele>297.4</ele>
        <time>2021-10-18T15:31:41Z</time>
      </trkpt>
      <trkpt lat="38.8415970" lon="-6.3634740">
        <ele>296.2</ele>
        <time>2021-10-18T15:31:46Z</time>
      </trkpt>
      <trkpt lat="38.8413910" lon="-6.3635190">
        <ele>295.6</ele>
        <time>2021-10-18T15:31:49Z</time>
      </trkpt>
      <trkpt lat="38.8411910" lon="-6.3635660">
        <ele>295.2</ele>
        <time>2021-10-18T15:31:52Z</time>
      </trkpt>
      <trkpt lat="38.8408040" lon="-6.3636600">
        <ele>294.4</ele>
        <time>2021-10-18T15:31:58Z</time>
      </trkpt>
      <trkpt lat="38.8406770" lon="-6.3636940">
        <ele>294.0</ele>
        <time>2021-10-18T15:32:00Z</time>
      </trkpt>
      <trkpt lat="38.8406130" lon="-6.3637140">
        <ele>294.0</ele>
        <time>2021-10-18T15:32:01Z</time>
      </trkpt>
      <trkpt lat="38.8401620" lon="-6.3638310">
        <ele>293.4</ele>
        <time>2021-10-18T15:32:08Z</time>
      </trkpt>
      <trkpt lat="38.8400370" lon="-6.3638620">
        <ele>293.0</ele>
        <time>2021-10-18T15:32:10Z</time>
      </trkpt>
      <trkpt lat="38.8397930" lon="-6.3639230">
        <ele>293.0</ele>
        <time>2021-10-18T15:32:14Z</time>
      </trkpt>
      <trkpt lat="38.8394450" lon="-6.3640040">
        <ele>292.8</ele>
        <time>2021-10-18T15:32:20Z</time>
      </trkpt>
      <trkpt lat="38.8389500" lon="-6.3641260">
        <ele>293.2</ele>
        <time>2021-10-18T15:32:29Z</time>
      </trkpt>
      <trkpt lat="38.8385360" lon="-6.3642350">
        <ele>293.4</ele>
        <time>2021-10-18T15:32:37Z</time>
      </trkpt>
      <trkpt lat="38.8384380" lon="-6.3642600">
        <ele>293.6</ele>
        <time>2021-10-18T15:32:39Z</time>
      </trkpt>
      <trkpt lat="38.8380900" lon="-6.3643460">
        <ele>294.0</ele>
        <time>2021-10-18T15:32:46Z</time>
      </trkpt>
      <trkpt lat="38.8376950" lon="-6.3644310">
        <ele>294.2</ele>
        <time>2021-10-18T15:32:54Z</time>
      </trkpt>
      <trkpt lat="38.8375480" lon="-6.3644680">
        <ele>294.2</ele>
        <time>2021-10-18T15:32:57Z</time>
      </trkpt>
      <trkpt lat="38.8374470" lon="-6.3644920">
        <ele>294.4</ele>
        <time>2021-10-18T15:32:59Z</time>
      </trkpt>
      <trkpt lat="38.8368870" lon="-6.3646140">
        <ele>294.6</ele>
        <time>2021-10-18T15:33:10Z</time>
      </trkpt>
      <trkpt lat="38.8365880" lon="-6.3646840">
        <ele>294.6</ele>
        <time>2021-10-18T15:33:16Z</time>
      </trkpt>
      <trkpt lat="38.8363900" lon="-6.3647210">
        <ele>294.8</ele>
        <time>2021-10-18T15:33:20Z</time>
      </trkpt>
      <trkpt lat="38.8360510" lon="-6.3647930">
        <ele>295.0</ele>
        <time>2021-10-18T15:33:27Z</time>
      </trkpt>
      <trkpt lat="38.8358530" lon="-6.3648420">
        <ele>295.0</ele>
        <time>2021-10-18T15:33:31Z</time>
      </trkpt>
      <trkpt lat="38.8357500" lon="-6.3648650">
        <ele>295.0</ele>
        <time>2021-10-18T15:33:33Z</time>
      </trkpt>
      <trkpt lat="38.8355970" lon="-6.3648920">
        <ele>295.2</ele>
        <time>2021-10-18T15:33:36Z</time>
      </trkpt>
      <trkpt lat="38.8353900" lon="-6.3649390">
        <ele>295.2</ele>
        <time>2021-10-18T15:33:40Z</time>
      </trkpt>
      <trkpt lat="38.8351760" lon="-6.3649790">
        <ele>295.2</ele>
        <time>2021-10-18T15:33:44Z</time>
      </trkpt>
      <trkpt lat="38.8346330" lon="-6.3650980">
        <ele>295.2</ele>
        <time>2021-10-18T15:33:54Z</time>
      </trkpt>
      <trkpt lat="38.8345800" lon="-6.3651110">
        <ele>295.2</ele>
        <time>2021-10-18T15:33:55Z</time>
      </trkpt>
      <trkpt lat="38.8344130" lon="-6.3651490">
        <ele>295.2</ele>
        <time>2021-10-18T15:33:58Z</time>
      </trkpt>
      <trkpt lat="38.8342180" lon="-6.3651920">
        <ele>295.4</ele>
        <time>2021-10-18T15:34:02Z</time>
      </trkpt>
      <trkpt lat="38.8340680" lon="-6.3652220">
        <ele>295.4</ele>
        <time>2021-10-18T15:34:05Z</time>
      </trkpt>
      <trkpt lat="38.8337110" lon="-6.3653010">
        <ele>295.4</ele>
        <time>2021-10-18T15:34:12Z</time>
      </trkpt>
      <trkpt lat="38.8335210" lon="-6.3653380">
        <ele>295.6</ele>
        <time>2021-10-18T15:34:16Z</time>
      </trkpt>
      <trkpt lat="38.8331630" lon="-6.3654140">
        <ele>295.6</ele>
        <time>2021-10-18T15:34:23Z</time>
      </trkpt>
      <trkpt lat="38.8329020" lon="-6.3654740">
        <ele>295.8</ele>
        <time>2021-10-18T15:34:28Z</time>
      </trkpt>
      <trkpt lat="38.8323430" lon="-6.3655990">
        <ele>296.0</ele>
        <time>2021-10-18T15:34:39Z</time>
      </trkpt>
      <trkpt lat="38.8322920" lon="-6.3656100">
        <ele>296.0</ele>
        <time>2021-10-18T15:34:40Z</time>
      </trkpt>
      <trkpt lat="38.8321470" lon="-6.3656470">
        <ele>296.2</ele>
        <time>2021-10-18T15:34:43Z</time>
      </trkpt>
      <trkpt lat="38.8320110" lon="-6.3656830">
        <ele>296.2</ele>
        <time>2021-10-18T15:34:46Z</time>
      </trkpt>
      <trkpt lat="38.8318290" lon="-6.3657250">
        <ele>296.6</ele>
        <time>2021-10-18T15:34:50Z</time>
      </trkpt>
      <trkpt lat="38.8317960" lon="-6.3657320">
        <ele>296.6</ele>
        <time>2021-10-18T15:34:51Z</time>
      </trkpt>
      <trkpt lat="38.8315620" lon="-6.3657810">
        <ele>297.2</ele>
        <time>2021-10-18T15:34:57Z</time>
      </trkpt>
      <trkpt lat="38.8315250" lon="-6.3657910">
        <ele>297.4</ele>
        <time>2021-10-18T15:34:58Z</time>
      </trkpt>
      <trkpt lat="38.8314540" lon="-6.3658060">
        <ele>297.8</ele>
        <time>2021-10-18T15:35:00Z</time>
      </trkpt>
      <trkpt lat="38.8311940" lon="-6.3658730">
        <ele>298.4</ele>
        <time>2021-10-18T15:35:08Z</time>
      </trkpt>
      <trkpt lat="38.8311580" lon="-6.3658800">
        <ele>298.4</ele>
        <time>2021-10-18T15:35:09Z</time>
      </trkpt>
      <trkpt lat="38.8310160" lon="-6.3659180">
        <ele>299.0</ele>
        <time>2021-10-18T15:35:14Z</time>
      </trkpt>
      <trkpt lat="38.8309920" lon="-6.3659200">
        <ele>299.2</ele>
        <time>2021-10-18T15:35:15Z</time>
      </trkpt>
      <trkpt lat="38.8308550" lon="-6.3658660">
        <ele>299.6</ele>
        <time>2021-10-18T15:35:19Z</time>
      </trkpt>
      <trkpt lat="38.8306720" lon="-6.3658720">
        <ele>300.2</ele>
        <time>2021-10-18T15:35:24Z</time>
      </trkpt>
      <trkpt lat="38.8305700" lon="-6.3659000">
        <ele>300.6</ele>
        <time>2021-10-18T15:35:27Z</time>
      </trkpt>
      <trkpt lat="38.8304110" lon="-6.3659370">
        <ele>301.0</ele>
        <time>2021-10-18T15:35:32Z</time>
      </trkpt>
      <trkpt lat="38.8302910" lon="-6.3659710">
        <ele>301.6</ele>
        <time>2021-10-18T15:35:36Z</time>
      </trkpt>
      <trkpt lat="38.8301970" lon="-6.3659930">
        <ele>302.0</ele>
        <time>2021-10-18T15:35:39Z</time>
      </trkpt>
      <trkpt lat="38.8300980" lon="-6.3660220">
        <ele>302.2</ele>
        <time>2021-10-18T15:35:42Z</time>
      </trkpt>
      <trkpt lat="38.8300240" lon="-6.3660400">
        <ele>302.2</ele>
        <time>2021-10-18T15:35:44Z</time>
      </trkpt>
      <trkpt lat="38.8299540" lon="-6.3660590">
        <ele>302.4</ele>
        <time>2021-10-18T15:35:46Z</time>
      </trkpt>
      <trkpt lat="38.8298170" lon="-6.3660860">
        <ele>302.6</ele>
        <time>2021-10-18T15:35:50Z</time>
      </trkpt>
      <trkpt lat="38.8296320" lon="-6.3661140">
        <ele>302.4</ele>
        <time>2021-10-18T15:35:55Z</time>
      </trkpt>
      <trkpt lat="38.8295330" lon="-6.3661340">
        <ele>302.4</ele>
        <time>2021-10-18T15:35:58Z</time>
      </trkpt>
      <trkpt lat="38.8294000" lon="-6.3661740">
        <ele>302.4</ele>
        <time>2021-10-18T15:36:02Z</time>
      </trkpt>
      <trkpt lat="38.8292020" lon="-6.3662090">
        <ele>302.8</ele>
        <time>2021-10-18T15:36:08Z</time>
      </trkpt>
      <trkpt lat="38.8291700" lon="-6.3662180">
        <ele>302.8</ele>
        <time>2021-10-18T15:36:09Z</time>
      </trkpt>
      <trkpt lat="38.8291000" lon="-6.3662310">
        <ele>303.0</ele>
        <time>2021-10-18T15:36:11Z</time>
      </trkpt>
      <trkpt lat="38.8290110" lon="-6.3662450">
        <ele>303.4</ele>
        <time>2021-10-18T15:36:14Z</time>
      </trkpt>
      <trkpt lat="38.8288840" lon="-6.3662710">
        <ele>303.6</ele>
        <time>2021-10-18T15:36:18Z</time>
      </trkpt>
      <trkpt lat="38.8286970" lon="-6.3663140">
        <ele>304.2</ele>
        <time>2021-10-18T15:36:24Z</time>
      </trkpt>
      <trkpt lat="38.8286100" lon="-6.3663350">
        <ele>304.4</ele>
        <time>2021-10-18T15:36:27Z</time>
      </trkpt>
      <trkpt lat="38.8285190" lon="-6.3663520">
        <ele>304.8</ele>
        <time>2021-10-18T15:36:30Z</time>
      </trkpt>
      <trkpt lat="38.8283690" lon="-6.3663930">
        <ele>305.0</ele>
        <time>2021-10-18T15:36:35Z</time>
      </trkpt>
      <trkpt lat="38.8283050" lon="-6.3664040">
        <ele>305.2</ele>
        <time>2021-10-18T15:36:37Z</time>
      </trkpt>
      <trkpt lat="38.8281010" lon="-6.3664450">
        <ele>306.0</ele>
        <time>2021-10-18T15:36:44Z</time>
      </trkpt>
      <trkpt lat="38.8280490" lon="-6.3664530">
        <ele>306.2</ele>
        <time>2021-10-18T15:36:46Z</time>
      </trkpt>
      <trkpt lat="38.8279340" lon="-6.3664830">
        <ele>306.4</ele>
        <time>2021-10-18T15:36:50Z</time>
      </trkpt>
      <trkpt lat="38.8278690" lon="-6.3665070">
        <ele>306.4</ele>
        <time>2021-10-18T15:36:52Z</time>
      </trkpt>
      <trkpt lat="38.8276500" lon="-6.3665540">
        <ele>307.0</ele>
        <time>2021-10-18T15:36:59Z</time>
      </trkpt>
      <trkpt lat="38.8275230" lon="-6.3665720">
        <ele>307.0</ele>
        <time>2021-10-18T15:37:03Z</time>
      </trkpt>
      <trkpt lat="38.8273180" lon="-6.3666140">
        <ele>307.4</ele>
        <time>2021-10-18T15:37:09Z</time>
      </trkpt>
      <trkpt lat="38.8269760" lon="-6.3666890">
        <ele>308.2</ele>
        <time>2021-10-18T15:37:18Z</time>
      </trkpt>
      <trkpt lat="38.8267810" lon="-6.3667250">
        <ele>308.8</ele>
        <time>2021-10-18T15:37:23Z</time>
      </trkpt>
      <trkpt lat="38.8266640" lon="-6.3667540">
        <ele>308.8</ele>
        <time>2021-10-18T15:37:26Z</time>
      </trkpt>
      <trkpt lat="38.8265510" lon="-6.3667790">
        <ele>309.0</ele>
        <time>2021-10-18T15:37:29Z</time>
      </trkpt>
      <trkpt lat="38.8265140" lon="-6.3667860">
        <ele>309.2</ele>
        <time>2021-10-18T15:37:30Z</time>
      </trkpt>
      <trkpt lat="38.8262640" lon="-6.3668390">
        <ele>310.0</ele>
        <time>2021-10-18T15:37:37Z</time>
      </trkpt>
      <trkpt lat="38.8261930" lon="-6.3668540">
        <ele>310.2</ele>
        <time>2021-10-18T15:37:39Z</time>
      </trkpt>
      <trkpt lat="38.8260550" lon="-6.3668840">
        <ele>310.6</ele>
        <time>2021-10-18T15:37:43Z</time>
      </trkpt>
      <trkpt lat="38.8259470" lon="-6.3669090">
        <ele>311.2</ele>
        <time>2021-10-18T15:37:46Z</time>
      </trkpt>
      <trkpt lat="38.8259120" lon="-6.3669170">
        <ele>311.4</ele>
        <time>2021-10-18T15:37:47Z</time>
      </trkpt>
      <trkpt lat="38.8256480" lon="-6.3669900">
        <ele>312.2</ele>
        <time>2021-10-18T15:37:55Z</time>
      </trkpt>
      <trkpt lat="38.8255860" lon="-6.3670010">
        <ele>312.4</ele>
        <time>2021-10-18T15:37:57Z</time>
      </trkpt>
      <trkpt lat="38.8253170" lon="-6.3670620">
        <ele>313.4</ele>
        <time>2021-10-18T15:38:06Z</time>
      </trkpt>
      <trkpt lat="38.8251900" lon="-6.3670770">
        <ele>314.2</ele>
        <time>2021-10-18T15:38:11Z</time>
      </trkpt>
      <trkpt lat="38.8251670" lon="-6.3670720">
        <ele>314.2</ele>
        <time>2021-10-18T15:38:12Z</time>
      </trkpt>
      <trkpt lat="38.8251450" lon="-6.3670660">
        <ele>314.6</ele>
        <time>2021-10-18T15:38:13Z</time>
      </trkpt>
      <trkpt lat="38.8250380" lon="-6.3670760">
        <ele>315.0</ele>
        <time>2021-10-18T15:38:18Z</time>
      </trkpt>
      <trkpt lat="38.8250250" lon="-6.3670800">
        <ele>315.0</ele>
        <time>2021-10-18T15:38:19Z</time>
      </trkpt>
      <trkpt lat="38.8249950" lon="-6.3671020">
        <ele>315.2</ele>
        <time>2021-10-18T15:38:25Z</time>
      </trkpt>
      <trkpt lat="38.8249720" lon="-6.3671250">
        <ele>315.2</ele>
        <time>2021-10-18T15:38:31Z</time>
      </trkpt>
      <trkpt lat="38.8248550" lon="-6.3671420">
        <ele>315.0</ele>
        <time>2021-10-18T15:38:41Z</time>
      </trkpt>
      <trkpt lat="38.8248390" lon="-6.3671480">
        <ele>314.8</ele>
        <time>2021-10-18T15:38:42Z</time>
      </trkpt>
      <trkpt lat="38.8248080" lon="-6.3671570">
        <ele>314.8</ele>
        <time>2021-10-18T15:38:44Z</time>
      </trkpt>
      <trkpt lat="38.8247960" lon="-6.3671630">
        <ele>314.8</ele>
        <time>2021-10-18T15:38:45Z</time>
      </trkpt>
      <trkpt lat="38.8247790" lon="-6.3671660">
        <ele>314.8</ele>
        <time>2021-10-18T15:38:47Z</time>
      </trkpt>
      <trkpt lat="38.8247680" lon="-6.3671710">
        <ele>314.6</ele>
        <time>2021-10-18T15:38:50Z</time>
      </trkpt>
      <trkpt lat="38.8247670" lon="-6.3671690">
        <ele>314.6</ele>
        <time>2021-10-18T15:38:51Z</time>
      </trkpt>
      <trkpt lat="38.8247010" lon="-6.3671680">
        <ele>314.6</ele>
        <time>2021-10-18T15:38:55Z</time>
      </trkpt>
      <trkpt lat="38.8246460" lon="-6.3671790">
        <ele>314.8</ele>
        <time>2021-10-18T15:38:57Z</time>
      </trkpt>
      <trkpt lat="38.8244690" lon="-6.3672340">
        <ele>315.2</ele>
        <time>2021-10-18T15:39:03Z</time>
      </trkpt>
      <trkpt lat="38.8243840" lon="-6.3672620">
        <ele>315.6</ele>
        <time>2021-10-18T15:39:06Z</time>
      </trkpt>
      <trkpt lat="38.8242660" lon="-6.3672890">
        <ele>315.8</ele>
        <time>2021-10-18T15:39:10Z</time>
      </trkpt>
      <trkpt lat="38.8241130" lon="-6.3673230">
        <ele>316.2</ele>
        <time>2021-10-18T15:39:15Z</time>
      </trkpt>
      <trkpt lat="38.8240460" lon="-6.3673320">
        <ele>316.2</ele>
        <time>2021-10-18T15:39:17Z</time>
      </trkpt>
      <trkpt lat="38.8239520" lon="-6.3673500">
        <ele>316.6</ele>
        <time>2021-10-18T15:39:20Z</time>
      </trkpt>
      <trkpt lat="38.8239230" lon="-6.3673580">
        <ele>316.6</ele>
        <time>2021-10-18T15:39:21Z</time>
      </trkpt>
      <trkpt lat="38.8238320" lon="-6.3673760">
        <ele>316.8</ele>
        <time>2021-10-18T15:39:24Z</time>
      </trkpt>
      <trkpt lat="38.8238010" lon="-6.3673810">
        <ele>316.8</ele>
        <time>2021-10-18T15:39:25Z</time>
      </trkpt>
      <trkpt lat="38.8235580" lon="-6.3674400">
        <ele>317.8</ele>
        <time>2021-10-18T15:39:33Z</time>
      </trkpt>
      <trkpt lat="38.8234370" lon="-6.3674710">
        <ele>318.0</ele>
        <time>2021-10-18T15:39:37Z</time>
      </trkpt>
      <trkpt lat="38.8233700" lon="-6.3674870">
        <ele>318.0</ele>
        <time>2021-10-18T15:39:39Z</time>
      </trkpt>
      <trkpt lat="38.8231720" lon="-6.3675370">
        <ele>318.8</ele>
        <time>2021-10-18T15:39:46Z</time>
      </trkpt>
      <trkpt lat="38.8231410" lon="-6.3675400">
        <ele>319.0</ele>
        <time>2021-10-18T15:39:47Z</time>
      </trkpt>
      <trkpt lat="38.8228330" lon="-6.3675960">
        <ele>319.8</ele>
        <time>2021-10-18T15:39:57Z</time>
      </trkpt>
      <trkpt lat="38.8225270" lon="-6.3676580">
        <ele>320.6</ele>
        <time>2021-10-18T15:40:06Z</time>
      </trkpt>
      <trkpt lat="38.8223870" lon="-6.3676840">
        <ele>320.6</ele>
        <time>2021-10-18T15:40:10Z</time>
      </trkpt>
      <trkpt lat="38.8222810" lon="-6.3677110">
        <ele>320.8</ele>
        <time>2021-10-18T15:40:13Z</time>
      </trkpt>
      <trkpt lat="38.8221380" lon="-6.3677390">
        <ele>321.2</ele>
        <time>2021-10-18T15:40:17Z</time>
      </trkpt>
      <trkpt lat="38.8219570" lon="-6.3677840">
        <ele>321.4</ele>
        <time>2021-10-18T15:40:22Z</time>
      </trkpt>
      <trkpt lat="38.8217670" lon="-6.3678330">
        <ele>321.6</ele>
        <time>2021-10-18T15:40:27Z</time>
      </trkpt>
      <trkpt lat="38.8215910" lon="-6.3678750">
        <ele>321.8</ele>
        <time>2021-10-18T15:40:32Z</time>
      </trkpt>
      <trkpt lat="38.8215200" lon="-6.3678930">
        <ele>322.0</ele>
        <time>2021-10-18T15:40:34Z</time>
      </trkpt>
      <trkpt lat="38.8212220" lon="-6.3679660">
        <ele>322.4</ele>
        <time>2021-10-18T15:40:42Z</time>
      </trkpt>
      <trkpt lat="38.8209000" lon="-6.3680620">
        <ele>323.0</ele>
        <time>2021-10-18T15:40:50Z</time>
      </trkpt>
      <trkpt lat="38.8207100" lon="-6.3681470">
        <ele>322.8</ele>
        <time>2021-10-18T15:40:55Z</time>
      </trkpt>
      <trkpt lat="38.8205920" lon="-6.3682020">
        <ele>322.8</ele>
        <time>2021-10-18T15:40:58Z</time>
      </trkpt>
      <trkpt lat="38.8205110" lon="-6.3682390">
        <ele>322.8</ele>
        <time>2021-10-18T15:41:00Z</time>
      </trkpt>
      <trkpt lat="38.8203830" lon="-6.3683040">
        <ele>323.0</ele>
        <time>2021-10-18T15:41:03Z</time>
      </trkpt>
      <trkpt lat="38.8201540" lon="-6.3684240">
        <ele>322.8</ele>
        <time>2021-10-18T15:41:08Z</time>
      </trkpt>
      <trkpt lat="38.8198360" lon="-6.3685790">
        <ele>322.6</ele>
        <time>2021-10-18T15:41:15Z</time>
      </trkpt>
      <trkpt lat="38.8196600" lon="-6.3686680">
        <ele>322.6</ele>
        <time>2021-10-18T15:41:19Z</time>
      </trkpt>
      <trkpt lat="38.8195300" lon="-6.3687390">
        <ele>322.4</ele>
        <time>2021-10-18T15:41:22Z</time>
      </trkpt>
      <trkpt lat="38.8193120" lon="-6.3688530">
        <ele>322.0</ele>
        <time>2021-10-18T15:41:27Z</time>
      </trkpt>
      <trkpt lat="38.8190930" lon="-6.3689710">
        <ele>321.8</ele>
        <time>2021-10-18T15:41:32Z</time>
      </trkpt>
      <trkpt lat="38.8190380" lon="-6.3689990">
        <ele>321.8</ele>
        <time>2021-10-18T15:41:33Z</time>
      </trkpt>
      <trkpt lat="38.8189090" lon="-6.3690580">
        <ele>321.4</ele>
        <time>2021-10-18T15:41:36Z</time>
      </trkpt>
      <trkpt lat="38.8188160" lon="-6.3691030">
        <ele>321.2</ele>
        <time>2021-10-18T15:41:38Z</time>
      </trkpt>
      <trkpt lat="38.8183990" lon="-6.3693170">
        <ele>321.0</ele>
        <time>2021-10-18T15:41:47Z</time>
      </trkpt>
      <trkpt lat="38.8182490" lon="-6.3693960">
        <ele>320.6</ele>
        <time>2021-10-18T15:41:50Z</time>
      </trkpt>
      <trkpt lat="38.8179880" lon="-6.3695310">
        <ele>319.6</ele>
        <time>2021-10-18T15:41:55Z</time>
      </trkpt>
      <trkpt lat="38.8179350" lon="-6.3695560">
        <ele>319.6</ele>
        <time>2021-10-18T15:41:56Z</time>
      </trkpt>
      <trkpt lat="38.8174900" lon="-6.3697820">
        <ele>318.8</ele>
        <time>2021-10-18T15:42:05Z</time>
      </trkpt>
      <trkpt lat="38.8173960" lon="-6.3698350">
        <ele>318.4</ele>
        <time>2021-10-18T15:42:07Z</time>
      </trkpt>
      <trkpt lat="38.8171430" lon="-6.3699870">
        <ele>318.0</ele>
        <time>2021-10-18T15:42:13Z</time>
      </trkpt>
      <trkpt lat="38.8168630" lon="-6.3701090">
        <ele>318.0</ele>
        <time>2021-10-18T15:42:20Z</time>
      </trkpt>
      <trkpt lat="38.8168260" lon="-6.3701340">
        <ele>318.0</ele>
        <time>2021-10-18T15:42:21Z</time>
      </trkpt>
      <trkpt lat="38.8166750" lon="-6.3702380">
        <ele>318.0</ele>
        <time>2021-10-18T15:42:27Z</time>
      </trkpt>
      <trkpt lat="38.8165330" lon="-6.3703370">
        <ele>318.0</ele>
        <time>2021-10-18T15:42:33Z</time>
      </trkpt>
      <trkpt lat="38.8164610" lon="-6.3704190">
        <ele>318.0</ele>
        <time>2021-10-18T15:42:38Z</time>
      </trkpt>
      <trkpt lat="38.8163960" lon="-6.3705310">
        <ele>317.6</ele>
        <time>2021-10-18T15:42:43Z</time>
      </trkpt>
      <trkpt lat="38.8162940" lon="-6.3705830">
        <ele>317.4</ele>
        <time>2021-10-18T15:42:46Z</time>
      </trkpt>
      <trkpt lat="38.8162530" lon="-6.3705990">
        <ele>317.4</ele>
        <time>2021-10-18T15:42:47Z</time>
      </trkpt>
      <trkpt lat="38.8162140" lon="-6.3706180">
        <ele>317.4</ele>
        <time>2021-10-18T15:42:48Z</time>
      </trkpt>
      <trkpt lat="38.8160090" lon="-6.3706930">
        <ele>317.0</ele>
        <time>2021-10-18T15:42:53Z</time>
      </trkpt>
      <trkpt lat="38.8157070" lon="-6.3708070">
        <ele>316.8</ele>
        <time>2021-10-18T15:43:00Z</time>
      </trkpt>
      <trkpt lat="38.8156120" lon="-6.3708360">
        <ele>316.6</ele>
        <time>2021-10-18T15:43:02Z</time>
      </trkpt>
      <trkpt lat="38.8155180" lon="-6.3708720">
        <ele>316.4</ele>
        <time>2021-10-18T15:43:04Z</time>
      </trkpt>
      <trkpt lat="38.8152200" lon="-6.3709750">
        <ele>315.8</ele>
        <time>2021-10-18T15:43:10Z</time>
      </trkpt>
      <trkpt lat="38.8150160" lon="-6.3710430">
        <ele>315.4</ele>
        <time>2021-10-18T15:43:14Z</time>
      </trkpt>
      <trkpt lat="38.8146910" lon="-6.3711560">
        <ele>314.8</ele>
        <time>2021-10-18T15:43:20Z</time>
      </trkpt>
      <trkpt lat="38.8143950" lon="-6.3712620">
        <ele>314.4</ele>
        <time>2021-10-18T15:43:25Z</time>
      </trkpt>
      <trkpt lat="38.8143350" lon="-6.3712960">
        <ele>314.4</ele>
        <time>2021-10-18T15:43:26Z</time>
      </trkpt>
      <trkpt lat="38.8142740" lon="-6.3713350">
        <ele>314.2</ele>
        <time>2021-10-18T15:43:27Z</time>
      </trkpt>
      <trkpt lat="38.8139230" lon="-6.3714960">
        <ele>313.2</ele>
        <time>2021-10-18T15:43:32Z</time>
      </trkpt>
      <trkpt lat="38.8135340" lon="-6.3716280">
        <ele>312.0</ele>
        <time>2021-10-18T15:43:37Z</time>
      </trkpt>
      <trkpt lat="38.8133700" lon="-6.3716800">
        <ele>311.4</ele>
        <time>2021-10-18T15:43:39Z</time>
      </trkpt>
      <trkpt lat="38.8132050" lon="-6.3717200">
        <ele>311.0</ele>
        <time>2021-10-18T15:43:41Z</time>
      </trkpt>
      <trkpt lat="38.8128770" lon="-6.3717750">
        <ele>309.8</ele>
        <time>2021-10-18T15:43:45Z</time>
      </trkpt>
      <trkpt lat="38.8127970" lon="-6.3717860">
        <ele>309.6</ele>
        <time>2021-10-18T15:43:46Z</time>
      </trkpt>
      <trkpt lat="38.8124410" lon="-6.3718840">
        <ele>309.0</ele>
        <time>2021-10-18T15:43:51Z</time>
      </trkpt>
      <trkpt lat="38.8122550" lon="-6.3719530">
        <ele>309.0</ele>
        <time>2021-10-18T15:43:54Z</time>
      </trkpt>
      <trkpt lat="38.8120190" lon="-6.3720450">
        <ele>308.8</ele>
        <time>2021-10-18T15:43:58Z</time>
      </trkpt>
      <trkpt lat="38.8116440" lon="-6.3721800">
        <ele>308.6</ele>
        <time>2021-10-18T15:44:05Z</time>
      </trkpt>
      <trkpt lat="38.8115290" lon="-6.3722200">
        <ele>308.6</ele>
        <time>2021-10-18T15:44:07Z</time>
      </trkpt>
      <trkpt lat="38.8112350" lon="-6.3723290">
        <ele>308.8</ele>
        <time>2021-10-18T15:44:13Z</time>
      </trkpt>
      <trkpt lat="38.8110000" lon="-6.3724150">
        <ele>309.2</ele>
        <time>2021-10-18T15:44:18Z</time>
      </trkpt>
      <trkpt lat="38.8106310" lon="-6.3725480">
        <ele>309.8</ele>
        <time>2021-10-18T15:44:26Z</time>
      </trkpt>
      <trkpt lat="38.8105440" lon="-6.3725800">
        <ele>310.0</ele>
        <time>2021-10-18T15:44:28Z</time>
      </trkpt>
      <trkpt lat="38.8102420" lon="-6.3726810">
        <ele>310.6</ele>
        <time>2021-10-18T15:44:35Z</time>
      </trkpt>
      <trkpt lat="38.8101150" lon="-6.3727290">
        <ele>311.0</ele>
        <time>2021-10-18T15:44:38Z</time>
      </trkpt>
      <trkpt lat="38.8099420" lon="-6.3727830">
        <ele>311.2</ele>
        <time>2021-10-18T15:44:42Z</time>
      </trkpt>
      <trkpt lat="38.8098990" lon="-6.3728000">
        <ele>311.4</ele>
        <time>2021-10-18T15:44:43Z</time>
      </trkpt>
      <trkpt lat="38.8095420" lon="-6.3729180">
        <ele>311.8</ele>
        <time>2021-10-18T15:44:51Z</time>
      </trkpt>
      <trkpt lat="38.8094490" lon="-6.3729480">
        <ele>311.8</ele>
        <time>2021-10-18T15:44:53Z</time>
      </trkpt>
      <trkpt lat="38.8094040" lon="-6.3729640">
        <ele>311.8</ele>
        <time>2021-10-18T15:44:54Z</time>
      </trkpt>
      <trkpt lat="38.8089540" lon="-6.3731180">
        <ele>312.0</ele>
        <time>2021-10-18T15:45:04Z</time>
      </trkpt>
      <trkpt lat="38.8089190" lon="-6.3731290">
        <ele>312.0</ele>
        <time>2021-10-18T15:45:05Z</time>
      </trkpt>
      <trkpt lat="38.8088200" lon="-6.3731640">
        <ele>312.0</ele>
        <time>2021-10-18T15:45:07Z</time>
      </trkpt>
      <trkpt lat="38.8084640" lon="-6.3732950">
        <ele>312.4</ele>
        <time>2021-10-18T15:45:15Z</time>
      </trkpt>
      <trkpt lat="38.8080660" lon="-6.3734410">
        <ele>312.8</ele>
        <time>2021-10-18T15:45:24Z</time>
      </trkpt>
      <trkpt lat="38.8079230" lon="-6.3734880">
        <ele>313.0</ele>
        <time>2021-10-18T15:45:27Z</time>
      </trkpt>
      <trkpt lat="38.8075700" lon="-6.3736190">
        <ele>313.4</ele>
        <time>2021-10-18T15:45:35Z</time>
      </trkpt>
      <trkpt lat="38.8071360" lon="-6.3737840">
        <ele>313.8</ele>
        <time>2021-10-18T15:45:44Z</time>
      </trkpt>
      <trkpt lat="38.8070930" lon="-6.3737990">
        <ele>314.0</ele>
        <time>2021-10-18T15:45:45Z</time>
      </trkpt>
      <trkpt lat="38.8070590" lon="-6.3738100">
        <ele>314.2</ele>
        <time>2021-10-18T15:45:47Z</time>
      </trkpt>
      <trkpt lat="38.8068430" lon="-6.3738790">
        <ele>314.6</ele>
        <time>2021-10-18T15:45:52Z</time>
      </trkpt>
      <trkpt lat="38.8065860" lon="-6.3739780">
        <ele>315.2</ele>
        <time>2021-10-18T15:45:57Z</time>
      </trkpt>
      <trkpt lat="38.8063740" lon="-6.3740530">
        <ele>315.6</ele>
        <time>2021-10-18T15:46:02Z</time>
      </trkpt>
      <trkpt lat="38.8062980" lon="-6.3740820">
        <ele>315.6</ele>
        <time>2021-10-18T15:46:04Z</time>
      </trkpt>
      <trkpt lat="38.8060920" lon="-6.3741560">
        <ele>316.0</ele>
        <time>2021-10-18T15:46:10Z</time>
      </trkpt>
      <trkpt lat="38.8059310" lon="-6.3742160">
        <ele>316.2</ele>
        <time>2021-10-18T15:46:13Z</time>
      </trkpt>
      <trkpt lat="38.8057350" lon="-6.3742980">
        <ele>316.6</ele>
        <time>2021-10-18T15:46:19Z</time>
      </trkpt>
      <trkpt lat="38.8054410" lon="-6.3744050">
        <ele>317.0</ele>
        <time>2021-10-18T15:46:25Z</time>
      </trkpt>
      <trkpt lat="38.8052440" lon="-6.3745030">
        <ele>317.2</ele>
        <time>2021-10-18T15:46:30Z</time>
      </trkpt>
      <trkpt lat="38.8052040" lon="-6.3745190">
        <ele>317.4</ele>
        <time>2021-10-18T15:46:31Z</time>
      </trkpt>
      <trkpt lat="38.8050440" lon="-6.3745760">
        <ele>317.8</ele>
        <time>2021-10-18T15:46:35Z</time>
      </trkpt>
      <trkpt lat="38.8049740" lon="-6.3746000">
        <ele>317.8</ele>
        <time>2021-10-18T15:46:37Z</time>
      </trkpt>
      <trkpt lat="38.8048140" lon="-6.3746620">
        <ele>318.2</ele>
        <time>2021-10-18T15:46:41Z</time>
      </trkpt>
      <trkpt lat="38.8047760" lon="-6.3746750">
        <ele>318.2</ele>
        <time>2021-10-18T15:46:42Z</time>
      </trkpt>
      <trkpt lat="38.8046170" lon="-6.3747240">
        <ele>318.6</ele>
        <time>2021-10-18T15:46:46Z</time>
      </trkpt>
      <trkpt lat="38.8045300" lon="-6.3747600">
        <ele>318.8</ele>
        <time>2021-10-18T15:46:48Z</time>
      </trkpt>
      <trkpt lat="38.8042920" lon="-6.3748410">
        <ele>319.2</ele>
        <time>2021-10-18T15:46:55Z</time>
      </trkpt>
      <trkpt lat="38.8042220" lon="-6.3748610">
        <ele>319.2</ele>
        <time>2021-10-18T15:46:56Z</time>
      </trkpt>
      <trkpt lat="38.8040640" lon="-6.3749090">
        <ele>319.4</ele>
        <time>2021-10-18T15:47:00Z</time>
      </trkpt>
      <trkpt lat="38.8039020" lon="-6.3749570">
        <ele>319.6</ele>
        <time>2021-10-18T15:47:04Z</time>
      </trkpt>
      <trkpt lat="38.8037450" lon="-6.3750100">
        <ele>320.0</ele>
        <time>2021-10-18T15:47:08Z</time>
      </trkpt>
      <trkpt lat="38.8035950" lon="-6.3750590">
        <ele>320.4</ele>
        <time>2021-10-18T15:47:13Z</time>
      </trkpt>
      <trkpt lat="38.8033810" lon="-6.3751240">
        <ele>321.0</ele>
        <time>2021-10-18T15:47:18Z</time>
      </trkpt>
      <trkpt lat="38.8031940" lon="-6.3751830">
        <ele>321.4</ele>
        <time>2021-10-18T15:47:23Z</time>
      </trkpt>
      <trkpt lat="38.8030060" lon="-6.3752430">
        <ele>321.8</ele>
        <time>2021-10-18T15:47:28Z</time>
      </trkpt>
      <trkpt lat="38.8027180" lon="-6.3753410">
        <ele>322.6</ele>
        <time>2021-10-18T15:47:36Z</time>
      </trkpt>
      <trkpt lat="38.8026400" lon="-6.3753680">
        <ele>322.8</ele>
        <time>2021-10-18T15:47:38Z</time>
      </trkpt>
      <trkpt lat="38.8025690" lon="-6.3753920">
        <ele>323.0</ele>
        <time>2021-10-18T15:47:40Z</time>
      </trkpt>
      <trkpt lat="38.8025410" lon="-6.3754010">
        <ele>323.2</ele>
        <time>2021-10-18T15:47:42Z</time>
      </trkpt>
      <trkpt lat="38.8023920" lon="-6.3754590">
        <ele>323.8</ele>
        <time>2021-10-18T15:47:45Z</time>
      </trkpt>
      <trkpt lat="38.8023200" lon="-6.3754870">
        <ele>324.0</ele>
        <time>2021-10-18T15:47:48Z</time>
      </trkpt>
      <trkpt lat="38.8020370" lon="-6.3755820">
        <ele>324.6</ele>
        <time>2021-10-18T15:47:55Z</time>
      </trkpt>
      <trkpt lat="38.8020370" lon="-6.3755820">
        <ele>324.8</ele>
        <time>2021-10-18T15:47:56Z</time>
      </trkpt>
      <trkpt lat="38.8015840" lon="-6.3757570">
        <ele>325.6</ele>
        <time>2021-10-18T15:48:07Z</time>
      </trkpt>
      <trkpt lat="38.8015060" lon="-6.3757890">
        <ele>325.8</ele>
        <time>2021-10-18T15:48:09Z</time>
      </trkpt>
      <trkpt lat="38.8013320" lon="-6.3758700">
        <ele>326.0</ele>
        <time>2021-10-18T15:48:13Z</time>
      </trkpt>
      <trkpt lat="38.8012330" lon="-6.3759130">
        <ele>326.2</ele>
        <time>2021-10-18T15:48:15Z</time>
      </trkpt>
      <trkpt lat="38.8011880" lon="-6.3759340">
        <ele>326.2</ele>
        <time>2021-10-18T15:48:16Z</time>
      </trkpt>
      <trkpt lat="38.8010550" lon="-6.3759890">
        <ele>326.2</ele>
        <time>2021-10-18T15:48:19Z</time>
      </trkpt>
      <trkpt lat="38.8009300" lon="-6.3760350">
        <ele>326.2</ele>
        <time>2021-10-18T15:48:22Z</time>
      </trkpt>
      <trkpt lat="38.8008300" lon="-6.3760780">
        <ele>326.2</ele>
        <time>2021-10-18T15:48:25Z</time>
      </trkpt>
      <trkpt lat="38.8006940" lon="-6.3761400">
        <ele>325.8</ele>
        <time>2021-10-18T15:48:28Z</time>
      </trkpt>
      <trkpt lat="38.8003030" lon="-6.3763070">
        <ele>325.4</ele>
        <time>2021-10-18T15:48:35Z</time>
      </trkpt>
      <trkpt lat="38.8000290" lon="-6.3764200">
        <ele>325.2</ele>
        <time>2021-10-18T15:48:41Z</time>
      </trkpt>
      <trkpt lat="38.7998160" lon="-6.3765100">
        <ele>325.2</ele>
        <time>2021-10-18T15:48:45Z</time>
      </trkpt>
      <trkpt lat="38.7994030" lon="-6.3766600">
        <ele>325.0</ele>
        <time>2021-10-18T15:48:53Z</time>
      </trkpt>
      <trkpt lat="38.7992440" lon="-6.3767170">
        <ele>325.0</ele>
        <time>2021-10-18T15:48:56Z</time>
      </trkpt>
      <trkpt lat="38.7988950" lon="-6.3768280">
        <ele>325.0</ele>
        <time>2021-10-18T15:49:03Z</time>
      </trkpt>
      <trkpt lat="38.7988440" lon="-6.3768430">
        <ele>325.0</ele>
        <time>2021-10-18T15:49:04Z</time>
      </trkpt>
      <trkpt lat="38.7983000" lon="-6.3770010">
        <ele>325.4</ele>
        <time>2021-10-18T15:49:15Z</time>
      </trkpt>
      <trkpt lat="38.7980320" lon="-6.3770740">
        <ele>325.2</ele>
        <time>2021-10-18T15:49:20Z</time>
      </trkpt>
      <trkpt lat="38.7978120" lon="-6.3771280">
        <ele>325.0</ele>
        <time>2021-10-18T15:49:24Z</time>
      </trkpt>
      <trkpt lat="38.7974860" lon="-6.3771990">
        <ele>324.2</ele>
        <time>2021-10-18T15:49:30Z</time>
      </trkpt>
      <trkpt lat="38.7973260" lon="-6.3772300">
        <ele>324.0</ele>
        <time>2021-10-18T15:49:33Z</time>
      </trkpt>
      <trkpt lat="38.7972710" lon="-6.3772410">
        <ele>323.8</ele>
        <time>2021-10-18T15:49:34Z</time>
      </trkpt>
      <trkpt lat="38.7971150" lon="-6.3772680">
        <ele>323.6</ele>
        <time>2021-10-18T15:49:37Z</time>
      </trkpt>
      <trkpt lat="38.7969020" lon="-6.3773080">
        <ele>323.0</ele>
        <time>2021-10-18T15:49:41Z</time>
      </trkpt>
      <trkpt lat="38.7968350" lon="-6.3773200">
        <ele>322.8</ele>
        <time>2021-10-18T15:49:42Z</time>
      </trkpt>
      <trkpt lat="38.7966720" lon="-6.3773450">
        <ele>322.4</ele>
        <time>2021-10-18T15:49:45Z</time>
      </trkpt>
      <trkpt lat="38.7964070" lon="-6.3773830">
        <ele>321.6</ele>
        <time>2021-10-18T15:49:49Z</time>
      </trkpt>
      <trkpt lat="38.7963540" lon="-6.3773890">
        <ele>321.4</ele>
        <time>2021-10-18T15:49:50Z</time>
      </trkpt>
      <trkpt lat="38.7959170" lon="-6.3774570">
        <ele>320.4</ele>
        <time>2021-10-18T15:49:56Z</time>
      </trkpt>
      <trkpt lat="38.7958440" lon="-6.3774680">
        <ele>320.2</ele>
        <time>2021-10-18T15:49:57Z</time>
      </trkpt>
      <trkpt lat="38.7955430" lon="-6.3775090">
        <ele>319.2</ele>
        <time>2021-10-18T15:50:01Z</time>
      </trkpt>
      <trkpt lat="38.7951790" lon="-6.3775590">
        <ele>318.2</ele>
        <time>2021-10-18T15:50:06Z</time>
      </trkpt>
      <trkpt lat="38.7947930" lon="-6.3776080">
        <ele>317.6</ele>
        <time>2021-10-18T15:50:12Z</time>
      </trkpt>
      <trkpt lat="38.7944190" lon="-6.3776670">
        <ele>317.4</ele>
        <time>2021-10-18T15:50:19Z</time>
      </trkpt>
      <trkpt lat="38.7940880" lon="-6.3777040">
        <ele>317.2</ele>
        <time>2021-10-18T15:50:27Z</time>
      </trkpt>
      <trkpt lat="38.7938150" lon="-6.3777320">
        <ele>317.4</ele>
        <time>2021-10-18T15:50:34Z</time>
      </trkpt>
      <trkpt lat="38.7937810" lon="-6.3777360">
        <ele>317.4</ele>
        <time>2021-10-18T15:50:35Z</time>
      </trkpt>
      <trkpt lat="38.7935350" lon="-6.3777360">
        <ele>317.6</ele>
        <time>2021-10-18T15:50:42Z</time>
      </trkpt>
      <trkpt lat="38.7934280" lon="-6.3775950">
        <ele>317.6</ele>
        <time>2021-10-18T15:50:46Z</time>
      </trkpt>
      <trkpt lat="38.7934020" lon="-6.3773160">
        <ele>317.4</ele>
        <time>2021-10-18T15:50:52Z</time>
      </trkpt>
      <trkpt lat="38.7933940" lon="-6.3772830">
        <ele>317.2</ele>
        <time>2021-10-18T15:50:55Z</time>
      </trkpt>
      <trkpt lat="38.7933760" lon="-6.3772310">
        <ele>317.0</ele>
        <time>2021-10-18T15:50:56Z</time>
      </trkpt>
      <trkpt lat="38.7933570" lon="-6.3772170">
        <ele>316.8</ele>
        <time>2021-10-18T15:50:57Z</time>
      </trkpt>
      <trkpt lat="38.7933170" lon="-6.3772140">
        <ele>316.6</ele>
        <time>2021-10-18T15:50:59Z</time>
      </trkpt>
      <trkpt lat="38.7932940" lon="-6.3772190">
        <ele>316.2</ele>
        <time>2021-10-18T15:51:01Z</time>
      </trkpt>
      <trkpt lat="38.7932660" lon="-6.3772230">
        <ele>316.0</ele>
        <time>2021-10-18T15:51:02Z</time>
      </trkpt>
      <trkpt lat="38.7932540" lon="-6.3772190">
        <ele>316.0</ele>
        <time>2021-10-18T15:51:03Z</time>
      </trkpt>
      <trkpt lat="38.7932220" lon="-6.3772160">
        <ele>315.8</ele>
        <time>2021-10-18T15:51:05Z</time>
      </trkpt>
      <trkpt lat="38.7931810" lon="-6.3772120">
        <ele>315.8</ele>
        <time>2021-10-18T15:51:07Z</time>
      </trkpt>
      <trkpt lat="38.7929970" lon="-6.3772580">
        <ele>315.4</ele>
        <time>2021-10-18T15:51:14Z</time>
      </trkpt>
      <trkpt lat="38.7928570" lon="-6.3772930">
        <ele>315.0</ele>
        <time>2021-10-18T15:51:19Z</time>
      </trkpt>
      <trkpt lat="38.7927470" lon="-6.3773160">
        <ele>314.8</ele>
        <time>2021-10-18T15:51:23Z</time>
      </trkpt>
      <trkpt lat="38.7925960" lon="-6.3773450">
        <ele>314.6</ele>
        <time>2021-10-18T15:51:28Z</time>
      </trkpt>
      <trkpt lat="38.7924120" lon="-6.3773740">
        <ele>314.0</ele>
        <time>2021-10-18T15:51:34Z</time>
      </trkpt>
      <trkpt lat="38.7923780" lon="-6.3773760">
        <ele>314.0</ele>
        <time>2021-10-18T15:51:36Z</time>
      </trkpt>
      <trkpt lat="38.7923590" lon="-6.3773250">
        <ele>313.8</ele>
        <time>2021-10-18T15:51:38Z</time>
      </trkpt>
      <trkpt lat="38.7923450" lon="-6.3772210">
        <ele>313.8</ele>
        <time>2021-10-18T15:51:41Z</time>
      </trkpt>
      <trkpt lat="38.7923240" lon="-6.3770510">
        <ele>313.8</ele>
        <time>2021-10-18T15:51:45Z</time>
      </trkpt>
      <trkpt lat="38.7922820" lon="-6.3766970">
        <ele>313.8</ele>
        <time>2021-10-18T15:51:52Z</time>
      </trkpt>
      <trkpt lat="38.7922760" lon="-6.3766590">
        <ele>313.8</ele>
        <time>2021-10-18T15:51:53Z</time>
      </trkpt>
      <trkpt lat="38.7922570" lon="-6.3765210">
        <ele>314.0</ele>
        <time>2021-10-18T15:51:56Z</time>
      </trkpt>
      <trkpt lat="38.7922560" lon="-6.3764590">
        <ele>314.2</ele>
        <time>2021-10-18T15:51:59Z</time>
      </trkpt>
      <trkpt lat="38.7922870" lon="-6.3764060">
        <ele>314.2</ele>
        <time>2021-10-18T15:52:00Z</time>
      </trkpt>
      <trkpt lat="38.7923410" lon="-6.3763720">
        <ele>314.4</ele>
        <time>2021-10-18T15:52:02Z</time>
      </trkpt>
      <trkpt lat="38.7925950" lon="-6.3763090">
        <ele>314.6</ele>
        <time>2021-10-18T15:52:10Z</time>
      </trkpt>
      <trkpt lat="38.7926960" lon="-6.3762680">
        <ele>314.8</ele>
        <time>2021-10-18T15:52:14Z</time>
      </trkpt>
      <trkpt lat="38.7927060" lon="-6.3762480">
        <ele>314.8</ele>
        <time>2021-10-18T15:52:15Z</time>
      </trkpt>
      <trkpt lat="38.7927100" lon="-6.3762210">
        <ele>315.0</ele>
        <time>2021-10-18T15:52:16Z</time>
      </trkpt>
      <trkpt lat="38.7926630" lon="-6.3759170">
        <ele>315.6</ele>
        <time>2021-10-18T15:52:24Z</time>
      </trkpt>
      <trkpt lat="38.7926460" lon="-6.3757450">
        <ele>315.8</ele>
        <time>2021-10-18T15:52:28Z</time>
      </trkpt>
      <trkpt lat="38.7926370" lon="-6.3755790">
        <ele>315.8</ele>
        <time>2021-10-18T15:52:32Z</time>
      </trkpt>
      <trkpt lat="38.7926310" lon="-6.3755390">
        <ele>315.8</ele>
        <time>2021-10-18T15:52:33Z</time>
      </trkpt>
      <trkpt lat="38.7926220" lon="-6.3753710">
        <ele>315.8</ele>
        <time>2021-10-18T15:52:38Z</time>
      </trkpt>
      <trkpt lat="38.7926360" lon="-6.3753390">
        <ele>316.0</ele>
        <time>2021-10-18T15:52:39Z</time>
      </trkpt>
      <trkpt lat="38.7926570" lon="-6.3753200">
        <ele>316.0</ele>
        <time>2021-10-18T15:52:40Z</time>
      </trkpt>
      <trkpt lat="38.7927450" lon="-6.3752860">
        <ele>316.0</ele>
        <time>2021-10-18T15:52:43Z</time>
      </trkpt>
      <trkpt lat="38.7928310" lon="-6.3752850">
        <ele>316.2</ele>
        <time>2021-10-18T15:52:46Z</time>
      </trkpt>
      <trkpt lat="38.7929700" lon="-6.3753050">
        <ele>316.4</ele>
        <time>2021-10-18T15:52:50Z</time>
      </trkpt>
      <trkpt lat="38.7932110" lon="-6.3753490">
        <ele>316.6</ele>
        <time>2021-10-18T15:52:57Z</time>
      </trkpt>
      <trkpt lat="38.7932710" lon="-6.3753550">
        <ele>317.0</ele>
        <time>2021-10-18T15:52:59Z</time>
      </trkpt>
      <trkpt lat="38.7934870" lon="-6.3753890">
        <ele>317.6</ele>
        <time>2021-10-18T15:53:06Z</time>
      </trkpt>
      <trkpt lat="38.7935620" lon="-6.3753980">
        <ele>318.0</ele>
        <time>2021-10-18T15:53:09Z</time>
      </trkpt>
      <trkpt lat="38.7936400" lon="-6.3754070">
        <ele>318.6</ele>
        <time>2021-10-18T15:53:12Z</time>
      </trkpt>
      <trkpt lat="38.7937570" lon="-6.3754160">
        <ele>319.0</ele>
        <time>2021-10-18T15:53:16Z</time>
      </trkpt>
      <trkpt lat="38.7938430" lon="-6.3754310">
        <ele>319.2</ele>
        <time>2021-10-18T15:53:19Z</time>
      </trkpt>
      <trkpt lat="38.7940230" lon="-6.3754640">
        <ele>319.6</ele>
        <time>2021-10-18T15:53:25Z</time>
      </trkpt>
      <trkpt lat="38.7941170" lon="-6.3754830">
        <ele>319.8</ele>
        <time>2021-10-18T15:53:29Z</time>
      </trkpt>
      <trkpt lat="38.7941490" lon="-6.3754870">
        <ele>320.0</ele>
        <time>2021-10-18T15:53:30Z</time>
      </trkpt>
      <trkpt lat="38.7942170" lon="-6.3754950">
        <ele>320.0</ele>
        <time>2021-10-18T15:53:33Z</time>
      </trkpt>
      <trkpt lat="38.7942440" lon="-6.3755010">
        <ele>320.0</ele>
        <time>2021-10-18T15:53:34Z</time>
      </trkpt>
      <trkpt lat="38.7943300" lon="-6.3755320">
        <ele>320.0</ele>
        <time>2021-10-18T15:53:37Z</time>
      </trkpt>
      <trkpt lat="38.7944270" lon="-6.3755680">
        <ele>320.2</ele>
        <time>2021-10-18T15:53:43Z</time>
      </trkpt>
      <trkpt lat="38.7944270" lon="-6.3755680">
        <ele>320.2</ele>
        <time>2021-10-18T15:53:45Z</time>
      </trkpt>
      <trkpt lat="38.7942930" lon="-6.3755270">
        <ele>319.8</ele>
        <time>2021-10-18T15:55:14Z</time>
      </trkpt>
      <trkpt lat="38.7942750" lon="-6.3755250">
        <ele>319.8</ele>
        <time>2021-10-18T15:55:15Z</time>
      </trkpt>
      <trkpt lat="38.7941590" lon="-6.3755090">
        <ele>319.6</ele>
        <time>2021-10-18T15:55:22Z</time>
      </trkpt>
      <trkpt lat="38.7940030" lon="-6.3754900">
        <ele>319.6</ele>
        <time>2021-10-18T15:55:31Z</time>
      </trkpt>
      <trkpt lat="38.7939350" lon="-6.3754840">
        <ele>319.6</ele>
        <time>2021-10-18T15:55:34Z</time>
      </trkpt>
      <trkpt lat="38.7938200" lon="-6.3754620">
        <ele>319.4</ele>
        <time>2021-10-18T15:55:38Z</time>
      </trkpt>
      <trkpt lat="38.7936230" lon="-6.3754440">
        <ele>319.0</ele>
        <time>2021-10-18T15:55:44Z</time>
      </trkpt>
      <trkpt lat="38.7935920" lon="-6.3754390">
        <ele>319.0</ele>
        <time>2021-10-18T15:55:45Z</time>
      </trkpt>
      <trkpt lat="38.7933780" lon="-6.3754100">
        <ele>318.6</ele>
        <time>2021-10-18T15:55:51Z</time>
      </trkpt>
      <trkpt lat="38.7931160" lon="-6.3753830">
        <ele>318.0</ele>
        <time>2021-10-18T15:55:57Z</time>
      </trkpt>
      <trkpt lat="38.7930690" lon="-6.3753740">
        <ele>317.8</ele>
        <time>2021-10-18T15:55:58Z</time>
      </trkpt>
      <trkpt lat="38.7928460" lon="-6.3753430">
        <ele>317.4</ele>
        <time>2021-10-18T15:56:04Z</time>
      </trkpt>
      <trkpt lat="38.7927620" lon="-6.3753410">
        <ele>316.8</ele>
        <time>2021-10-18T15:56:07Z</time>
      </trkpt>
      <trkpt lat="38.7927200" lon="-6.3753460">
        <ele>316.6</ele>
        <time>2021-10-18T15:56:09Z</time>
      </trkpt>
      <trkpt lat="38.7927070" lon="-6.3753500">
        <ele>316.6</ele>
        <time>2021-10-18T15:56:11Z</time>
      </trkpt>
      <trkpt lat="38.7926940" lon="-6.3753530">
        <ele>316.4</ele>
        <time>2021-10-18T15:56:37Z</time>
      </trkpt>
      <trkpt lat="38.7926810" lon="-6.3753560">
        <ele>316.4</ele>
        <time>2021-10-18T15:56:38Z</time>
      </trkpt>
      <trkpt lat="38.7925730" lon="-6.3753580">
        <ele>316.4</ele>
        <time>2021-10-18T15:56:43Z</time>
      </trkpt>
      <trkpt lat="38.7924960" lon="-6.3753530">
        <ele>316.4</ele>
        <time>2021-10-18T15:56:46Z</time>
      </trkpt>
      <trkpt lat="38.7922890" lon="-6.3753490">
        <ele>316.0</ele>
        <time>2021-10-18T15:56:54Z</time>
      </trkpt>
      <trkpt lat="38.7922590" lon="-6.3753520">
        <ele>315.8</ele>
        <time>2021-10-18T15:56:58Z</time>
      </trkpt>
      <trkpt lat="38.7921800" lon="-6.3753360">
        <ele>315.8</ele>
        <time>2021-10-18T15:57:08Z</time>
      </trkpt>
      <trkpt lat="38.7921030" lon="-6.3753310">
        <ele>315.8</ele>
        <time>2021-10-18T15:57:10Z</time>
      </trkpt>
      <trkpt lat="38.7917880" lon="-6.3753100">
        <ele>315.8</ele>
        <time>2021-10-18T15:57:18Z</time>
      </trkpt>
      <trkpt lat="38.7916420" lon="-6.3753230">
        <ele>316.0</ele>
        <time>2021-10-18T15:57:23Z</time>
      </trkpt>
      <trkpt lat="38.7916280" lon="-6.3753260">
        <ele>316.0</ele>
        <time>2021-10-18T15:57:24Z</time>
      </trkpt>
      <trkpt lat="38.7916190" lon="-6.3753430">
        <ele>316.0</ele>
        <time>2021-10-18T15:57:25Z</time>
      </trkpt>
      <trkpt lat="38.7916140" lon="-6.3754000">
        <ele>316.2</ele>
        <time>2021-10-18T15:57:27Z</time>
      </trkpt>
      <trkpt lat="38.7916320" lon="-6.3755870">
        <ele>316.4</ele>
        <time>2021-10-18T15:57:33Z</time>
      </trkpt>
      <trkpt lat="38.7916280" lon="-6.3756350">
        <ele>316.6</ele>
        <time>2021-10-18T15:57:35Z</time>
      </trkpt>
      <trkpt lat="38.7916240" lon="-6.3756700">
        <ele>316.6</ele>
        <time>2021-10-18T15:57:39Z</time>
      </trkpt>
      <trkpt lat="38.7916240" lon="-6.3756700">
        <ele>316.4</ele>
        <time>2021-10-18T15:57:40Z</time>
      </trkpt>
      <trkpt lat="38.79159500" lon="-6.37576400">
        <ele>302.00000</ele>
      </trkpt>
      <trkpt lat="38.79147800" lon="-6.37805400">
        <ele>301.00000</ele>
      </trkpt>
      <trkpt lat="38.79147900" lon="-6.37805300">
        <ele>301.00000</ele>
      </trkpt>
      <trkpt lat="38.79150600" lon="-6.37803800">
        <ele>301.00000</ele>
      </trkpt>
      <trkpt lat="38.79147800" lon="-6.37799300">
        <ele>301.00000</ele>
      </trkpt>
      <trkpt lat="38.79140400" lon="-6.37794700">
        <ele>301.00000</ele>
      </trkpt>
      <trkpt lat="38.79138100" lon="-6.37792199">
        <ele>301.00000</ele>
      </trkpt>
      <trkpt lat="38.79136900" lon="-6.37785100">
        <ele>301.00000</ele>
      </trkpt>
      <trkpt lat="38.79141900" lon="-6.37777000">
        <ele>301.00000</ele>
      </trkpt>
      <trkpt lat="38.79142100" lon="-6.37773899">
        <ele>301.00000</ele>
      </trkpt>
      <trkpt lat="38.79142300" lon="-6.37770400">
        <ele>301.00000</ele>
      </trkpt>
      <trkpt lat="38.79140100" lon="-6.37756000">
        <ele>301.00000</ele>
      </trkpt>
      <trkpt lat="38.79138800" lon="-6.37749400">
        <ele>301.00000</ele>
      </trkpt>
      <trkpt lat="38.79137100" lon="-6.37739600">
        <ele>301.00000</ele>
      </trkpt>
      <trkpt lat="38.79135500" lon="-6.37725800">
        <ele>301.00000</ele>
      </trkpt>
      <trkpt lat="38.79135000" lon="-6.37722500">
        <ele>302.00000</ele>
      </trkpt>
      <trkpt lat="38.79133200" lon="-6.37712399">
        <ele>302.00000</ele>
      </trkpt>
      <trkpt lat="38.79130600" lon="-6.37699200">
        <ele>302.00000</ele>
      </trkpt>
      <trkpt lat="38.79129900" lon="-6.37692600">
        <ele>302.00000</ele>
      </trkpt>
      <trkpt lat="38.79127600" lon="-6.37673500">
        <ele>302.00000</ele>
      </trkpt>
      <trkpt lat="38.79127100" lon="-6.37670900">
        <ele>302.00000</ele>
      </trkpt>
      <trkpt lat="38.79125700" lon="-6.37661100">
        <ele>302.00000</ele>
      </trkpt>
      <trkpt lat="38.79124000" lon="-6.37650600">
        <ele>302.00000</ele>
      </trkpt>
      <trkpt lat="38.79123000" lon="-6.37643299">
        <ele>302.00000</ele>
      </trkpt>
      <trkpt lat="38.79122500" lon="-6.37625400">
        <ele>302.00000</ele>
      </trkpt>
      <trkpt lat="38.79122100" lon="-6.37622599">
        <ele>302.00000</ele>
      </trkpt>
      <trkpt lat="38.79118400" lon="-6.37602700">
        <ele>302.00000</ele>
      </trkpt>
      <trkpt lat="38.79117600" lon="-6.37596900">
        <ele>302.00000</ele>
      </trkpt>
      <trkpt lat="38.79116200" lon="-6.37584600">
        <ele>302.00000</ele>
      </trkpt>
      <trkpt lat="38.79114300" lon="-6.37572700">
        <ele>302.00000</ele>
      </trkpt>
      <trkpt lat="38.79113300" lon="-6.37556800">
        <ele>302.00000</ele>
      </trkpt>
      <trkpt lat="38.79112800" lon="-6.37551200">
        <ele>303.00000</ele>
      </trkpt>
      <trkpt lat="38.79111800" lon="-6.37536800">
        <ele>303.00000</ele>
      </trkpt>
      <trkpt lat="38.79111500" lon="-6.37534200">
        <ele>303.00000</ele>
      </trkpt>
      <trkpt lat="38.79111300" lon="-6.37534500">
        <ele>303.00000</ele>
      </trkpt>
      <trkpt lat="38.79109700" lon="-6.37525800">
        <ele>304.00000</ele>
      </trkpt>
      <trkpt lat="38.79109200" lon="-6.37523000">
        <ele>304.00000</ele>
      </trkpt>
      <trkpt lat="38.79107900" lon="-6.37517400">
        <ele>304.00000</ele>
      </trkpt>
      <trkpt lat="38.79104500" lon="-6.37513800">
        <ele>304.00000</ele>
      </trkpt>
      <trkpt lat="38.79100900" lon="-6.37511199">
        <ele>304.00000</ele>
      </trkpt>
      <trkpt lat="38.79091000" lon="-6.37509799">
        <ele>304.00000</ele>
      </trkpt>
      <trkpt lat="38.79082700" lon="-6.37508799">
        <ele>305.00000</ele>
      </trkpt>
      <trkpt lat="38.79073000" lon="-6.37507599">
        <ele>306.00000</ele>
      </trkpt>
      <trkpt lat="38.79068200" lon="-6.37506900">
        <ele>306.00000</ele>
      </trkpt>
      <trkpt lat="38.79060900" lon="-6.37506600">
        <ele>307.00000</ele>
      </trkpt>
      <trkpt lat="38.79047800" lon="-6.37506000">
        <ele>308.00000</ele>
      </trkpt>
      <trkpt lat="38.79045100" lon="-6.37505700">
        <ele>308.00000</ele>
      </trkpt>
      <trkpt lat="38.79037200" lon="-6.37505299">
        <ele>308.00000</ele>
      </trkpt>
      <trkpt lat="38.79029200" lon="-6.37505299">
        <ele>309.00000</ele>
      </trkpt>
      <trkpt lat="38.79018800" lon="-6.37504100">
        <ele>309.00000</ele>
      </trkpt>
      <trkpt lat="38.79000400" lon="-6.37500999">
        <ele>309.00000</ele>
      </trkpt>
      <trkpt lat="38.78998000" lon="-6.37500300">
        <ele>309.00000</ele>
      </trkpt>
      <trkpt lat="38.78985500" lon="-6.37500900">
        <ele>309.00000</ele>
      </trkpt>
      <trkpt lat="38.78975600" lon="-6.37500500">
        <ele>309.00000</ele>
      </trkpt>
      <trkpt lat="38.78965800" lon="-6.37500400">
        <ele>309.00000</ele>
      </trkpt>
      <trkpt lat="38.78958800" lon="-6.37499900">
        <ele>309.00000</ele>
      </trkpt>
      <trkpt lat="38.78956700" lon="-6.37499500">
        <ele>309.00000</ele>
      </trkpt>
      <trkpt lat="38.78954500" lon="-6.37499300">
        <ele>309.00000</ele>
      </trkpt>
      <trkpt lat="38.78948300" lon="-6.37498200">
        <ele>309.00000</ele>
      </trkpt>
      <trkpt lat="38.78942400" lon="-6.37497300">
        <ele>309.00000</ele>
      </trkpt>
      <trkpt lat="38.78940300" lon="-6.37496800">
        <ele>309.00000</ele>
      </trkpt>
      <trkpt lat="38.78938100" lon="-6.37496000">
        <ele>309.00000</ele>
      </trkpt>
      <trkpt lat="38.78933400" lon="-6.37495600">
        <ele>309.00000</ele>
      </trkpt>
      <trkpt lat="38.78928800" lon="-6.37495500">
        <ele>309.00000</ele>
      </trkpt>
      <trkpt lat="38.78920100" lon="-6.37494600">
        <ele>309.00000</ele>
      </trkpt>
      <trkpt lat="38.78910900" lon="-6.37494200">
        <ele>308.00000</ele>
      </trkpt>
      <trkpt lat="38.78894800" lon="-6.37492800">
        <ele>308.00000</ele>
      </trkpt>
      <trkpt lat="38.78885700" lon="-6.37492400">
        <ele>308.00000</ele>
      </trkpt>
      <trkpt lat="38.78870200" lon="-6.37491800">
        <ele>308.00000</ele>
      </trkpt>
      <trkpt lat="38.78861800" lon="-6.37490700">
        <ele>308.00000</ele>
      </trkpt>
      <trkpt lat="38.78855600" lon="-6.37490900">
        <ele>307.00000</ele>
      </trkpt>
      <trkpt lat="38.78848800" lon="-6.37490800">
        <ele>307.00000</ele>
      </trkpt>
      <trkpt lat="38.78838000" lon="-6.37490000">
        <ele>307.00000</ele>
      </trkpt>
      <trkpt lat="38.78834500" lon="-6.37489700">
        <ele>307.00000</ele>
      </trkpt>
      <trkpt lat="38.78824800" lon="-6.37489500">
        <ele>307.00000</ele>
      </trkpt>
      <trkpt lat="38.78818600" lon="-6.37489000">
        <ele>307.00000</ele>
      </trkpt>
      <trkpt lat="38.78809700" lon="-6.37487800">
        <ele>307.00000</ele>
      </trkpt>
      <trkpt lat="38.78800800" lon="-6.37486600">
        <ele>307.00000</ele>
      </trkpt>
      <trkpt lat="38.78790200" lon="-6.37484799">
        <ele>307.00000</ele>
      </trkpt>
      <trkpt lat="38.78784300" lon="-6.37485000">
        <ele>307.00000</ele>
      </trkpt>
      <trkpt lat="38.78770900" lon="-6.37483200">
        <ele>306.00000</ele>
      </trkpt>
      <trkpt lat="38.78764900" lon="-6.37482300">
        <ele>306.00000</ele>
      </trkpt>
      <trkpt lat="38.78762100" lon="-6.37480400">
        <ele>306.00000</ele>
      </trkpt>
      <trkpt lat="38.78760300" lon="-6.37474500">
        <ele>305.00000</ele>
      </trkpt>
      <trkpt lat="38.78758900" lon="-6.37453400">
        <ele>305.00000</ele>
      </trkpt>
      <trkpt lat="38.78757500" lon="-6.37437000">
        <ele>305.00000</ele>
      </trkpt>
      <trkpt lat="38.78756500" lon="-6.37430500">
        <ele>305.00000</ele>
      </trkpt>
      <trkpt lat="38.78752100" lon="-6.37409700">
        <ele>306.00000</ele>
      </trkpt>
      <trkpt lat="38.78750200" lon="-6.37404600">
        <ele>306.00000</ele>
      </trkpt>
      <trkpt lat="38.78745000" lon="-6.37397399">
        <ele>307.00000</ele>
      </trkpt>
      <trkpt lat="38.78741200" lon="-6.37394600">
        <ele>307.00000</ele>
      </trkpt>
      <trkpt lat="38.78717500" lon="-6.37385700">
        <ele>307.00000</ele>
      </trkpt>
      <trkpt lat="38.78700200" lon="-6.37377300">
        <ele>307.00000</ele>
      </trkpt>
      <trkpt lat="38.78686000" lon="-6.37365299">
        <ele>308.00000</ele>
      </trkpt>
      <trkpt lat="38.78681000" lon="-6.37361900">
        <ele>308.00000</ele>
      </trkpt>
      <trkpt lat="38.78663200" lon="-6.37346300">
        <ele>308.00000</ele>
      </trkpt>
      <trkpt lat="38.78645000" lon="-6.37328300">
        <ele>308.00000</ele>
      </trkpt>
      <trkpt lat="38.78642900" lon="-6.37326300">
        <ele>308.00000</ele>
      </trkpt>
      <trkpt lat="38.78631800" lon="-6.37317400">
        <ele>307.00000</ele>
      </trkpt>
      <trkpt lat="38.78626700" lon="-6.37313400">
        <ele>307.00000</ele>
      </trkpt>
      <trkpt lat="38.78617700" lon="-6.37306000">
        <ele>307.00000</ele>
      </trkpt>
      <trkpt lat="38.78609400" lon="-6.37299100">
        <ele>307.00000</ele>
      </trkpt>
      <trkpt lat="38.78607600" lon="-6.37297700">
        <ele>307.00000</ele>
      </trkpt>
      <trkpt lat="38.78592900" lon="-6.37284599">
        <ele>308.00000</ele>
      </trkpt>
      <trkpt lat="38.78580700" lon="-6.37274300">
        <ele>310.00000</ele>
      </trkpt>
      <trkpt lat="38.78572600" lon="-6.37267000">
        <ele>310.00000</ele>
      </trkpt>
      <trkpt lat="38.78556600" lon="-6.37255800">
        <ele>310.00000</ele>
      </trkpt>
      <trkpt lat="38.78546800" lon="-6.37248500">
        <ele>311.00000</ele>
      </trkpt>
      <trkpt lat="38.78534400" lon="-6.37238200">
        <ele>311.00000</ele>
      </trkpt>
      <trkpt lat="38.78524000" lon="-6.37228999">
        <ele>311.00000</ele>
      </trkpt>
      <trkpt lat="38.78506700" lon="-6.37213800">
        <ele>311.00000</ele>
      </trkpt>
      <trkpt lat="38.78500300" lon="-6.37206300">
        <ele>311.00000</ele>
      </trkpt>
      <trkpt lat="38.78490800" lon="-6.37195600">
        <ele>311.00000</ele>
      </trkpt>
      <trkpt lat="38.78487600" lon="-6.37192500">
        <ele>312.00000</ele>
      </trkpt>
      <trkpt lat="38.78481900" lon="-6.37187100">
        <ele>312.00000</ele>
      </trkpt>
      <trkpt lat="38.78473200" lon="-6.37178400">
        <ele>312.00000</ele>
      </trkpt>
      <trkpt lat="38.78462900" lon="-6.37168800">
        <ele>311.00000</ele>
      </trkpt>
      <trkpt lat="38.78456800" lon="-6.37163800">
        <ele>311.00000</ele>
      </trkpt>
      <trkpt lat="38.78453900" lon="-6.37160599">
        <ele>311.00000</ele>
      </trkpt>
      <trkpt lat="38.78453800" lon="-6.37160500">
        <ele>311.00000</ele>
      </trkpt>
      <trkpt lat="38.78453900" lon="-6.37156300">
        <ele>311.00000</ele>
      </trkpt>
      <trkpt lat="38.78453300" lon="-6.37154400">
        <ele>311.00000</ele>
      </trkpt>
      <trkpt lat="38.78452900" lon="-6.37152100">
        <ele>311.00000</ele>
      </trkpt>
      <trkpt lat="38.78447000" lon="-6.37149500">
        <ele>311.00000</ele>
      </trkpt>
      <trkpt lat="38.78445300" lon="-6.37147999">
        <ele>311.00000</ele>
      </trkpt>
      <trkpt lat="38.78433100" lon="-6.37136800">
        <ele>311.00000</ele>
      </trkpt>
      <trkpt lat="38.78419500" lon="-6.37124600">
        <ele>311.00000</ele>
      </trkpt>
      <trkpt lat="38.78402000" lon="-6.37107900">
        <ele>310.00000</ele>
      </trkpt>
      <trkpt lat="38.78397700" lon="-6.37103500">
        <ele>310.00000</ele>
      </trkpt>
      <trkpt lat="38.78394100" lon="-6.37099900">
        <ele>310.00000</ele>
      </trkpt>
      <trkpt lat="38.78377200" lon="-6.37083500">
        <ele>311.00000</ele>
      </trkpt>
      <trkpt lat="38.78374300" lon="-6.37080200">
        <ele>311.00000</ele>
      </trkpt>
      <trkpt lat="38.78359900" lon="-6.37065600">
        <ele>311.00000</ele>
      </trkpt>
      <trkpt lat="38.78355500" lon="-6.37060700">
        <ele>311.00000</ele>
      </trkpt>
      <trkpt lat="38.78351000" lon="-6.37057800">
        <ele>311.00000</ele>
      </trkpt>
      <trkpt lat="38.78348500" lon="-6.37059000">
        <ele>311.00000</ele>
      </trkpt>
      <trkpt lat="38.78346800" lon="-6.37064200">
        <ele>311.00000</ele>
      </trkpt>
      <trkpt lat="38.78347900" lon="-6.37070100">
        <ele>311.00000</ele>
      </trkpt>
      <trkpt lat="38.78354400" lon="-6.37102399">
        <ele>311.00000</ele>
      </trkpt>
      <trkpt lat="38.78361100" lon="-6.37142000">
        <ele>311.00000</ele>
      </trkpt>
      <trkpt lat="38.78361500" lon="-6.37149199">
        <ele>311.00000</ele>
      </trkpt>
      <trkpt lat="38.78358500" lon="-6.37161700">
        <ele>311.00000</ele>
      </trkpt>
      <trkpt lat="38.78352000" lon="-6.37170600">
        <ele>310.00000</ele>
      </trkpt>
      <trkpt lat="38.78346600" lon="-6.37174500">
        <ele>310.00000</ele>
      </trkpt>
      <trkpt lat="38.78333400" lon="-6.37179500">
        <ele>310.00000</ele>
      </trkpt>
      <trkpt lat="38.78315300" lon="-6.37184800">
        <ele>309.00000</ele>
      </trkpt>
      <trkpt lat="38.78284800" lon="-6.37194300">
        <ele>309.00000</ele>
      </trkpt>
      <trkpt lat="38.78268600" lon="-6.37199700">
        <ele>308.00000</ele>
      </trkpt>
      <trkpt lat="38.78247200" lon="-6.37205700">
        <ele>306.00000</ele>
      </trkpt>
      <trkpt lat="38.78227100" lon="-6.37212200">
        <ele>305.00000</ele>
      </trkpt>
      <trkpt lat="38.78206500" lon="-6.37219100">
        <ele>304.00000</ele>
      </trkpt>
      <trkpt lat="38.78194000" lon="-6.37222900">
        <ele>304.00000</ele>
      </trkpt>
      <trkpt lat="38.78165800" lon="-6.37231600">
        <ele>303.00000</ele>
      </trkpt>
      <trkpt lat="38.78154100" lon="-6.37235100">
        <ele>303.00000</ele>
      </trkpt>
      <trkpt lat="38.78129400" lon="-6.37242499">
        <ele>302.00000</ele>
      </trkpt>
      <trkpt lat="38.78101500" lon="-6.37251000">
        <ele>303.00000</ele>
      </trkpt>
      <trkpt lat="38.78087400" lon="-6.37255800">
        <ele>303.00000</ele>
      </trkpt>
      <trkpt lat="38.78072700" lon="-6.37261100">
        <ele>303.00000</ele>
      </trkpt>
      <trkpt lat="38.78065400" lon="-6.37263600">
        <ele>303.00000</ele>
      </trkpt>
      <trkpt lat="38.78044500" lon="-6.37270000">
        <ele>303.00000</ele>
      </trkpt>
      <trkpt lat="38.78022800" lon="-6.37276499">
        <ele>303.00000</ele>
      </trkpt>
      <trkpt lat="38.78013500" lon="-6.37279700">
        <ele>304.00000</ele>
      </trkpt>
      <trkpt lat="38.77993000" lon="-6.37286300">
        <ele>304.00000</ele>
      </trkpt>
      <trkpt lat="38.77979800" lon="-6.37290900">
        <ele>303.00000</ele>
      </trkpt>
      <trkpt lat="38.77976400" lon="-6.37291900">
        <ele>303.00000</ele>
      </trkpt>
      <trkpt lat="38.77957100" lon="-6.37296300">
        <ele>301.00000</ele>
      </trkpt>
      <trkpt lat="38.77948000" lon="-6.37299299">
        <ele>300.00000</ele>
      </trkpt>
      <trkpt lat="38.77936800" lon="-6.37303100">
        <ele>300.00000</ele>
      </trkpt>
      <trkpt lat="38.77909300" lon="-6.37312000">
        <ele>300.00000</ele>
      </trkpt>
      <trkpt lat="38.77904700" lon="-6.37313200">
        <ele>301.00000</ele>
      </trkpt>
      <trkpt lat="38.77894200" lon="-6.37316100">
        <ele>302.00000</ele>
      </trkpt>
      <trkpt lat="38.77880200" lon="-6.37318900">
        <ele>303.00000</ele>
      </trkpt>
      <trkpt lat="38.77873700" lon="-6.37320300">
        <ele>303.00000</ele>
      </trkpt>
      <trkpt lat="38.77854600" lon="-6.37326800">
        <ele>303.00000</ele>
      </trkpt>
      <trkpt lat="38.77848400" lon="-6.37329100">
        <ele>303.00000</ele>
      </trkpt>
      <trkpt lat="38.77836000" lon="-6.37333400">
        <ele>304.00000</ele>
      </trkpt>
      <trkpt lat="38.77824100" lon="-6.37337700">
        <ele>303.00000</ele>
      </trkpt>
      <trkpt lat="38.77811500" lon="-6.37342600">
        <ele>303.00000</ele>
      </trkpt>
      <trkpt lat="38.77780800" lon="-6.37353800">
        <ele>303.00000</ele>
      </trkpt>
      <trkpt lat="38.77778500" lon="-6.37354600">
        <ele>303.00000</ele>
      </trkpt>
      <trkpt lat="38.77772800" lon="-6.37356500">
        <ele>303.00000</ele>
      </trkpt>
      <trkpt lat="38.77748900" lon="-6.37364800">
        <ele>304.00000</ele>
      </trkpt>
      <trkpt lat="38.77736600" lon="-6.37369800">
        <ele>304.00000</ele>
      </trkpt>
      <trkpt lat="38.77723100" lon="-6.37374300">
        <ele>304.00000</ele>
      </trkpt>
      <trkpt lat="38.77714700" lon="-6.37376400">
        <ele>304.00000</ele>
      </trkpt>
      <trkpt lat="38.77703100" lon="-6.37378800">
        <ele>304.00000</ele>
      </trkpt>
      <trkpt lat="38.77697300" lon="-6.37379600">
        <ele>304.00000</ele>
      </trkpt>
      <trkpt lat="38.77664500" lon="-6.37381100">
        <ele>306.00000</ele>
      </trkpt>
      <trkpt lat="38.77655100" lon="-6.37381200">
        <ele>306.00000</ele>
      </trkpt>
      <trkpt lat="38.77627900" lon="-6.37379400">
        <ele>306.00000</ele>
      </trkpt>
      <trkpt lat="38.77596800" lon="-6.37375500">
        <ele>306.00000</ele>
      </trkpt>
      <trkpt lat="38.77567000" lon="-6.37370800">
        <ele>306.00000</ele>
      </trkpt>
      <trkpt lat="38.77555700" lon="-6.37369300">
        <ele>306.00000</ele>
      </trkpt>
      <trkpt lat="38.77549600" lon="-6.37368200">
        <ele>306.00000</ele>
      </trkpt>
      <trkpt lat="38.77538700" lon="-6.37366400">
        <ele>306.00000</ele>
      </trkpt>
      <trkpt lat="38.77530200" lon="-6.37365299">
        <ele>306.00000</ele>
      </trkpt>
      <trkpt lat="38.77515300" lon="-6.37363100">
        <ele>307.00000</ele>
      </trkpt>
      <trkpt lat="38.77506100" lon="-6.37362400">
        <ele>307.00000</ele>
      </trkpt>
      <trkpt lat="38.77491100" lon="-6.37361600">
        <ele>307.00000</ele>
      </trkpt>
      <trkpt lat="38.77482400" lon="-6.37361200">
        <ele>308.00000</ele>
      </trkpt>
      <trkpt lat="38.77457400" lon="-6.37359300">
        <ele>308.00000</ele>
      </trkpt>
      <trkpt lat="38.77442700" lon="-6.37357700">
        <ele>308.00000</ele>
      </trkpt>
      <trkpt lat="38.77420600" lon="-6.37354900">
        <ele>308.00000</ele>
      </trkpt>
      <trkpt lat="38.77399800" lon="-6.37352799">
        <ele>308.00000</ele>
      </trkpt>
      <trkpt lat="38.77384900" lon="-6.37351500">
        <ele>308.00000</ele>
      </trkpt>
      <trkpt lat="38.77378900" lon="-6.37351000">
        <ele>308.00000</ele>
      </trkpt>
      <trkpt lat="38.77370300" lon="-6.37350100">
        <ele>308.00000</ele>
      </trkpt>
      <trkpt lat="38.77359300" lon="-6.37349300">
        <ele>308.00000</ele>
      </trkpt>
      <trkpt lat="38.77333400" lon="-6.37347600">
        <ele>308.00000</ele>
      </trkpt>
      <trkpt lat="38.77327500" lon="-6.37346800">
        <ele>309.00000</ele>
      </trkpt>
      <trkpt lat="38.77300800" lon="-6.37343699">
        <ele>309.00000</ele>
      </trkpt>
      <trkpt lat="38.77282500" lon="-6.37341300">
        <ele>310.00000</ele>
      </trkpt>
      <trkpt lat="38.77270500" lon="-6.37339800">
        <ele>310.00000</ele>
      </trkpt>
      <trkpt lat="38.77260700" lon="-6.37338400">
        <ele>310.00000</ele>
      </trkpt>
      <trkpt lat="38.77254800" lon="-6.37337800">
        <ele>310.00000</ele>
      </trkpt>
      <trkpt lat="38.77245100" lon="-6.37336799">
        <ele>309.00000</ele>
      </trkpt>
      <trkpt lat="38.77232400" lon="-6.37335400">
        <ele>309.00000</ele>
      </trkpt>
      <trkpt lat="38.77216500" lon="-6.37332100">
        <ele>309.00000</ele>
      </trkpt>
      <trkpt lat="38.77209300" lon="-6.37330100">
        <ele>309.00000</ele>
      </trkpt>
      <trkpt lat="38.77184200" lon="-6.37321300">
        <ele>311.00000</ele>
      </trkpt>
      <trkpt lat="38.77181000" lon="-6.37319999">
        <ele>311.00000</ele>
      </trkpt>
      <trkpt lat="38.77158400" lon="-6.37310500">
        <ele>312.00000</ele>
      </trkpt>
      <trkpt lat="38.77142700" lon="-6.37304600">
        <ele>311.00000</ele>
      </trkpt>
      <trkpt lat="38.77113400" lon="-6.37296300">
        <ele>312.00000</ele>
      </trkpt>
      <trkpt lat="38.77101200" lon="-6.37294200">
        <ele>312.00000</ele>
      </trkpt>
      <trkpt lat="38.77089800" lon="-6.37292699">
        <ele>312.00000</ele>
      </trkpt>
      <trkpt lat="38.77084100" lon="-6.37292100">
        <ele>312.00000</ele>
      </trkpt>
      <trkpt lat="38.77061800" lon="-6.37290800">
        <ele>313.00000</ele>
      </trkpt>
      <trkpt lat="38.77058900" lon="-6.37290700">
        <ele>313.00000</ele>
      </trkpt>
      <trkpt lat="38.77056000" lon="-6.37290600">
        <ele>313.00000</ele>
      </trkpt>
      <trkpt lat="38.77047700" lon="-6.37290400">
        <ele>313.00000</ele>
      </trkpt>
      <trkpt lat="38.77026000" lon="-6.37289800">
        <ele>314.00000</ele>
      </trkpt>
      <trkpt lat="38.77005700" lon="-6.37290100">
        <ele>316.00000</ele>
      </trkpt>
      <trkpt lat="38.77003100" lon="-6.37290100">
        <ele>316.00000</ele>
      </trkpt>
      <trkpt lat="38.76999900" lon="-6.37290200">
        <ele>316.00000</ele>
      </trkpt>
      <trkpt lat="38.76982000" lon="-6.37289600">
        <ele>318.00000</ele>
      </trkpt>
      <trkpt lat="38.76979200" lon="-6.37289200">
        <ele>318.00000</ele>
      </trkpt>
      <trkpt lat="38.76957700" lon="-6.37286699">
        <ele>319.00000</ele>
      </trkpt>
      <trkpt lat="38.76950300" lon="-6.37285600">
        <ele>319.00000</ele>
      </trkpt>
      <trkpt lat="38.76945100" lon="-6.37284800">
        <ele>319.00000</ele>
      </trkpt>
      <trkpt lat="38.76935300" lon="-6.37282399">
        <ele>319.00000</ele>
      </trkpt>
      <trkpt lat="38.76932800" lon="-6.37281700">
        <ele>319.00000</ele>
      </trkpt>
      <trkpt lat="38.76922900" lon="-6.37279500">
        <ele>320.00000</ele>
      </trkpt>
      <trkpt lat="38.76915800" lon="-6.37277600">
        <ele>320.00000</ele>
      </trkpt>
      <trkpt lat="38.76911000" lon="-6.37276600">
        <ele>320.00000</ele>
      </trkpt>
      <trkpt lat="38.76903100" lon="-6.37274500">
        <ele>320.00000</ele>
      </trkpt>
      <trkpt lat="38.76900100" lon="-6.37274100">
        <ele>320.00000</ele>
      </trkpt>
      <trkpt lat="38.76899600" lon="-6.37274100">
        <ele>320.00000</ele>
      </trkpt>
      <trkpt lat="38.76894300" lon="-6.37272400">
        <ele>320.00000</ele>
      </trkpt>
      <trkpt lat="38.76892000" lon="-6.37272200">
        <ele>320.00000</ele>
      </trkpt>
      <trkpt lat="38.76875700" lon="-6.37269799">
        <ele>320.00000</ele>
      </trkpt>
      <trkpt lat="38.76863900" lon="-6.37269100">
        <ele>320.00000</ele>
      </trkpt>
      <trkpt lat="38.76854100" lon="-6.37267300">
        <ele>319.00000</ele>
      </trkpt>
      <trkpt lat="38.76836300" lon="-6.37263700">
        <ele>319.00000</ele>
      </trkpt>
      <trkpt lat="38.76825200" lon="-6.37259500">
        <ele>318.00000</ele>
      </trkpt>
      <trkpt lat="38.76809700" lon="-6.37251200">
        <ele>317.00000</ele>
      </trkpt>
      <trkpt lat="38.76805700" lon="-6.37248900">
        <ele>317.00000</ele>
      </trkpt>
      <trkpt lat="38.76793600" lon="-6.37241299">
        <ele>316.00000</ele>
      </trkpt>
      <trkpt lat="38.76789500" lon="-6.37238999">
        <ele>316.00000</ele>
      </trkpt>
      <trkpt lat="38.76764000" lon="-6.37223000">
        <ele>315.00000</ele>
      </trkpt>
      <trkpt lat="38.76751200" lon="-6.37214700">
        <ele>316.00000</ele>
      </trkpt>
      <trkpt lat="38.76730000" lon="-6.37201699">
        <ele>316.00000</ele>
      </trkpt>
      <trkpt lat="38.76713500" lon="-6.37192300">
        <ele>316.00000</ele>
      </trkpt>
      <trkpt lat="38.76681900" lon="-6.37170799">
        <ele>315.00000</ele>
      </trkpt>
      <trkpt lat="38.76678800" lon="-6.37168500">
        <ele>315.00000</ele>
      </trkpt>
      <trkpt lat="38.76661600" lon="-6.37155300">
        <ele>314.00000</ele>
      </trkpt>
      <trkpt lat="38.76635500" lon="-6.37137700">
        <ele>313.00000</ele>
      </trkpt>
      <trkpt lat="38.76630200" lon="-6.37134100">
        <ele>313.00000</ele>
      </trkpt>
      <trkpt lat="38.76602700" lon="-6.37113500">
        <ele>313.00000</ele>
      </trkpt>
      <trkpt lat="38.76598800" lon="-6.37110200">
        <ele>313.00000</ele>
      </trkpt>
      <trkpt lat="38.76577600" lon="-6.37093000">
        <ele>313.00000</ele>
      </trkpt>
      <trkpt lat="38.76562800" lon="-6.37083600">
        <ele>313.00000</ele>
      </trkpt>
      <trkpt lat="38.76550500" lon="-6.37080300">
        <ele>312.00000</ele>
      </trkpt>
      <trkpt lat="38.76546300" lon="-6.37080100">
        <ele>312.00000</ele>
      </trkpt>
      <trkpt lat="38.76541100" lon="-6.37080200">
        <ele>312.00000</ele>
      </trkpt>
      <trkpt lat="38.76525800" lon="-6.37080900">
        <ele>311.00000</ele>
      </trkpt>
      <trkpt lat="38.76511800" lon="-6.37077500">
        <ele>311.00000</ele>
      </trkpt>
      <trkpt lat="38.76490000" lon="-6.37066700">
        <ele>310.00000</ele>
      </trkpt>
      <trkpt lat="38.76485800" lon="-6.37064600">
        <ele>310.00000</ele>
      </trkpt>
      <trkpt lat="38.76474000" lon="-6.37060000">
        <ele>310.00000</ele>
      </trkpt>
      <trkpt lat="38.76458000" lon="-6.37051100">
        <ele>310.00000</ele>
      </trkpt>
      <trkpt lat="38.76437000" lon="-6.37036200">
        <ele>311.00000</ele>
      </trkpt>
      <trkpt lat="38.76433500" lon="-6.37034300">
        <ele>311.00000</ele>
      </trkpt>
      <trkpt lat="38.76412500" lon="-6.37022200">
        <ele>311.00000</ele>
      </trkpt>
      <trkpt lat="38.76405500" lon="-6.37018400">
        <ele>311.00000</ele>
      </trkpt>
      <trkpt lat="38.76391400" lon="-6.37011600">
        <ele>311.00000</ele>
      </trkpt>
      <trkpt lat="38.76377800" lon="-6.37004200">
        <ele>311.00000</ele>
      </trkpt>
      <trkpt lat="38.76368200" lon="-6.36998999">
        <ele>312.00000</ele>
      </trkpt>
      <trkpt lat="38.76348700" lon="-6.36987900">
        <ele>312.00000</ele>
      </trkpt>
      <trkpt lat="38.76339100" lon="-6.36982899">
        <ele>312.00000</ele>
      </trkpt>
      <trkpt lat="38.76326500" lon="-6.36976199">
        <ele>313.00000</ele>
      </trkpt>
      <trkpt lat="38.76305300" lon="-6.36963500">
        <ele>315.00000</ele>
      </trkpt>
      <trkpt lat="38.76292300" lon="-6.36959300">
        <ele>316.00000</ele>
      </trkpt>
      <trkpt lat="38.76286300" lon="-6.36956900">
        <ele>316.00000</ele>
      </trkpt>
      <trkpt lat="38.76271700" lon="-6.36949100">
        <ele>316.00000</ele>
      </trkpt>
      <trkpt lat="38.76259400" lon="-6.36942600">
        <ele>316.00000</ele>
      </trkpt>
      <trkpt lat="38.76239300" lon="-6.36932000">
        <ele>316.00000</ele>
      </trkpt>
      <trkpt lat="38.76227300" lon="-6.36926000">
        <ele>317.00000</ele>
      </trkpt>
      <trkpt lat="38.76201600" lon="-6.36912399">
        <ele>317.00000</ele>
      </trkpt>
      <trkpt lat="38.76195800" lon="-6.36909400">
        <ele>317.00000</ele>
      </trkpt>
      <trkpt lat="38.76185500" lon="-6.36903299">
        <ele>316.00000</ele>
      </trkpt>
      <trkpt lat="38.76156100" lon="-6.36887000">
        <ele>317.00000</ele>
      </trkpt>
      <trkpt lat="38.76143500" lon="-6.36880100">
        <ele>317.00000</ele>
      </trkpt>
      <trkpt lat="38.76129900" lon="-6.36872100">
        <ele>316.00000</ele>
      </trkpt>
      <trkpt lat="38.76103400" lon="-6.36858500">
        <ele>316.00000</ele>
      </trkpt>
      <trkpt lat="38.76076100" lon="-6.36844000">
        <ele>316.00000</ele>
      </trkpt>
      <trkpt lat="38.76073500" lon="-6.36842600">
        <ele>316.00000</ele>
      </trkpt>
      <trkpt lat="38.76056900" lon="-6.36833400">
        <ele>316.00000</ele>
      </trkpt>
      <trkpt lat="38.76033300" lon="-6.36819199">
        <ele>317.00000</ele>
      </trkpt>
      <trkpt lat="38.76005700" lon="-6.36802000">
        <ele>317.00000</ele>
      </trkpt>
      <trkpt lat="38.75970500" lon="-6.36784300">
        <ele>317.00000</ele>
      </trkpt>
      <trkpt lat="38.75926100" lon="-6.36758800">
        <ele>318.00000</ele>
      </trkpt>
      <trkpt lat="38.75906600" lon="-6.36747900">
        <ele>318.00000</ele>
      </trkpt>
      <trkpt lat="38.75896900" lon="-6.36742999">
        <ele>318.00000</ele>
      </trkpt>
      <trkpt lat="38.75890500" lon="-6.36739600">
        <ele>318.00000</ele>
      </trkpt>
      <trkpt lat="38.75886600" lon="-6.36737600">
        <ele>319.00000</ele>
      </trkpt>
      <trkpt lat="38.75863400" lon="-6.36727200">
        <ele>319.00000</ele>
      </trkpt>
      <trkpt lat="38.75851100" lon="-6.36719900">
        <ele>320.00000</ele>
      </trkpt>
      <trkpt lat="38.75841300" lon="-6.36714800">
        <ele>321.00000</ele>
      </trkpt>
      <trkpt lat="38.75834000" lon="-6.36710800">
        <ele>321.00000</ele>
      </trkpt>
      <trkpt lat="38.75824700" lon="-6.36705900">
        <ele>321.00000</ele>
      </trkpt>
      <trkpt lat="38.75795300" lon="-6.36689800">
        <ele>319.00000</ele>
      </trkpt>
      <trkpt lat="38.75788500" lon="-6.36685800">
        <ele>318.00000</ele>
      </trkpt>
      <trkpt lat="38.75767200" lon="-6.36674500">
        <ele>316.00000</ele>
      </trkpt>
      <trkpt lat="38.75761100" lon="-6.36670900">
        <ele>316.00000</ele>
      </trkpt>
      <trkpt lat="38.75737400" lon="-6.36659400">
        <ele>318.00000</ele>
      </trkpt>
      <trkpt lat="38.75734200" lon="-6.36657200">
        <ele>318.00000</ele>
      </trkpt>
      <trkpt lat="38.75724400" lon="-6.36652200">
        <ele>319.00000</ele>
      </trkpt>
      <trkpt lat="38.75716500" lon="-6.36647900">
        <ele>319.00000</ele>
      </trkpt>
      <trkpt lat="38.75709200" lon="-6.36643899">
        <ele>319.00000</ele>
      </trkpt>
      <trkpt lat="38.75698000" lon="-6.36636800">
        <ele>319.00000</ele>
      </trkpt>
      <trkpt lat="38.75689000" lon="-6.36631299">
        <ele>319.00000</ele>
      </trkpt>
      <trkpt lat="38.75674400" lon="-6.36622600">
        <ele>319.00000</ele>
      </trkpt>
      <trkpt lat="38.75672500" lon="-6.36621600">
        <ele>319.00000</ele>
      </trkpt>
      <trkpt lat="38.75664900" lon="-6.36617700">
        <ele>319.00000</ele>
      </trkpt>
      <trkpt lat="38.75660700" lon="-6.36615600">
        <ele>319.00000</ele>
      </trkpt>
      <trkpt lat="38.75650200" lon="-6.36610400">
        <ele>320.00000</ele>
      </trkpt>
      <trkpt lat="38.75647600" lon="-6.36609300">
        <ele>320.00000</ele>
      </trkpt>
      <trkpt lat="38.75645600" lon="-6.36608499">
        <ele>320.00000</ele>
      </trkpt>
      <trkpt lat="38.75637400" lon="-6.36605000">
        <ele>321.00000</ele>
      </trkpt>
      <trkpt lat="38.75613800" lon="-6.36599700">
        <ele>323.00000</ele>
      </trkpt>
      <trkpt lat="38.75606100" lon="-6.36598800">
        <ele>323.00000</ele>
      </trkpt>
      <trkpt lat="38.75603000" lon="-6.36598500">
        <ele>323.00000</ele>
      </trkpt>
      <trkpt lat="38.75594400" lon="-6.36594300">
        <ele>324.00000</ele>
      </trkpt>
      <trkpt lat="38.75584800" lon="-6.36587600">
        <ele>324.00000</ele>
      </trkpt>
      <trkpt lat="38.75582600" lon="-6.36586300">
        <ele>325.00000</ele>
      </trkpt>
      <trkpt lat="38.75577200" lon="-6.36592000">
        <ele>325.00000</ele>
      </trkpt>
      <trkpt lat="38.75575500" lon="-6.36592900">
        <ele>325.00000</ele>
      </trkpt>
      <trkpt lat="38.75564200" lon="-6.36595500">
        <ele>325.00000</ele>
      </trkpt>
      <trkpt lat="38.75560900" lon="-6.36595800">
        <ele>325.00000</ele>
      </trkpt>
      <trkpt lat="38.75546000" lon="-6.36594700">
        <ele>325.00000</ele>
      </trkpt>
      <trkpt lat="38.75526300" lon="-6.36592000">
        <ele>325.00000</ele>
      </trkpt>
      <trkpt lat="38.75508400" lon="-6.36591499">
        <ele>325.00000</ele>
      </trkpt>
      <trkpt lat="38.75498600" lon="-6.36592200">
        <ele>325.00000</ele>
      </trkpt>
      <trkpt lat="38.75495200" lon="-6.36592200">
        <ele>325.00000</ele>
      </trkpt>
      <trkpt lat="38.75484000" lon="-6.36591200">
        <ele>325.00000</ele>
      </trkpt>
      <trkpt lat="38.75471400" lon="-6.36590600">
        <ele>325.00000</ele>
      </trkpt>
      <trkpt lat="38.75465900" lon="-6.36590600">
        <ele>325.00000</ele>
      </trkpt>
      <trkpt lat="38.75451000" lon="-6.36587400">
        <ele>325.00000</ele>
      </trkpt>
      <trkpt lat="38.75450400" lon="-6.36587300">
        <ele>325.00000</ele>
      </trkpt>
      <trkpt lat="38.75445300" lon="-6.36587700">
        <ele>325.00000</ele>
      </trkpt>
      <trkpt lat="38.75443200" lon="-6.36588099">
        <ele>324.00000</ele>
      </trkpt>
      <trkpt lat="38.75428300" lon="-6.36587700">
        <ele>324.00000</ele>
      </trkpt>
      <trkpt lat="38.75409100" lon="-6.36586100">
        <ele>323.00000</ele>
      </trkpt>
      <trkpt lat="38.75381500" lon="-6.36585100">
        <ele>323.00000</ele>
      </trkpt>
      <trkpt lat="38.75378300" lon="-6.36585100">
        <ele>323.00000</ele>
      </trkpt>
      <trkpt lat="38.75357500" lon="-6.36584400">
        <ele>323.00000</ele>
      </trkpt>
      <trkpt lat="38.75347500" lon="-6.36583800">
        <ele>323.00000</ele>
      </trkpt>
      <trkpt lat="38.75336800" lon="-6.36583400">
        <ele>323.00000</ele>
      </trkpt>
      <trkpt lat="38.75318800" lon="-6.36582800">
        <ele>322.00000</ele>
      </trkpt>
      <trkpt lat="38.75312100" lon="-6.36582399">
        <ele>322.00000</ele>
      </trkpt>
      <trkpt lat="38.75291500" lon="-6.36581400">
        <ele>323.00000</ele>
      </trkpt>
      <trkpt lat="38.75273300" lon="-6.36580099">
        <ele>324.00000</ele>
      </trkpt>
      <trkpt lat="38.75234500" lon="-6.36577300">
        <ele>325.00000</ele>
      </trkpt>
      <trkpt lat="38.75204900" lon="-6.36576600">
        <ele>326.00000</ele>
      </trkpt>
      <trkpt lat="38.75189200" lon="-6.36575499">
        <ele>326.00000</ele>
      </trkpt>
      <trkpt lat="38.75154100" lon="-6.36573100">
        <ele>325.00000</ele>
      </trkpt>
      <trkpt lat="38.75115700" lon="-6.36571300">
        <ele>325.00000</ele>
      </trkpt>
      <trkpt lat="38.75071300" lon="-6.36569000">
        <ele>325.00000</ele>
      </trkpt>
      <trkpt lat="38.75057600" lon="-6.36567900">
        <ele>325.00000</ele>
      </trkpt>
      <trkpt lat="38.75033300" lon="-6.36566700">
        <ele>324.00000</ele>
      </trkpt>
      <trkpt lat="38.75000400" lon="-6.36565700">
        <ele>322.00000</ele>
      </trkpt>
      <trkpt lat="38.74995400" lon="-6.36565600">
        <ele>322.00000</ele>
      </trkpt>
      <trkpt lat="38.74988200" lon="-6.36565600">
        <ele>322.00000</ele>
      </trkpt>
      <trkpt lat="38.74980100" lon="-6.36565600">
        <ele>322.00000</ele>
      </trkpt>
      <trkpt lat="38.74971700" lon="-6.36564000">
        <ele>323.00000</ele>
      </trkpt>
      <trkpt lat="38.74963100" lon="-6.36563700">
        <ele>323.00000</ele>
      </trkpt>
      <trkpt lat="38.74942400" lon="-6.36564400">
        <ele>324.00000</ele>
      </trkpt>
      <trkpt lat="38.74937500" lon="-6.36564300">
        <ele>324.00000</ele>
      </trkpt>
      <trkpt lat="38.74922500" lon="-6.36563500">
        <ele>324.00000</ele>
      </trkpt>
      <trkpt lat="38.74917800" lon="-6.36564200">
        <ele>324.00000</ele>
      </trkpt>
      <trkpt lat="38.74891600" lon="-6.36561000">
        <ele>325.00000</ele>
      </trkpt>
      <trkpt lat="38.74859100" lon="-6.36558900">
        <ele>328.00000</ele>
      </trkpt>
      <trkpt lat="38.74829600" lon="-6.36556800">
        <ele>328.00000</ele>
      </trkpt>
      <trkpt lat="38.74796400" lon="-6.36555500">
        <ele>326.00000</ele>
      </trkpt>
      <trkpt lat="38.74758900" lon="-6.36554000">
        <ele>324.00000</ele>
      </trkpt>
      <trkpt lat="38.74743500" lon="-6.36553100">
        <ele>325.00000</ele>
      </trkpt>
      <trkpt lat="38.74727900" lon="-6.36552600">
        <ele>326.00000</ele>
      </trkpt>
      <trkpt lat="38.74724100" lon="-6.36552300">
        <ele>326.00000</ele>
      </trkpt>
      <trkpt lat="38.74684700" lon="-6.36550500">
        <ele>329.00000</ele>
      </trkpt>
      <trkpt lat="38.74656000" lon="-6.36549600">
        <ele>329.00000</ele>
      </trkpt>
      <trkpt lat="38.74651900" lon="-6.36549100">
        <ele>329.00000</ele>
      </trkpt>
      <trkpt lat="38.74647800" lon="-6.36548900">
        <ele>329.00000</ele>
      </trkpt>
      <trkpt lat="38.74639800" lon="-6.36548800">
        <ele>329.00000</ele>
      </trkpt>
      <trkpt lat="38.74631900" lon="-6.36549000">
        <ele>328.00000</ele>
      </trkpt>
      <trkpt lat="38.74627700" lon="-6.36548300">
        <ele>328.00000</ele>
      </trkpt>
      <trkpt lat="38.74619400" lon="-6.36547800">
        <ele>327.00000</ele>
      </trkpt>
      <trkpt lat="38.74594700" lon="-6.36546999">
        <ele>327.00000</ele>
      </trkpt>
      <trkpt lat="38.74582100" lon="-6.36546600">
        <ele>327.00000</ele>
      </trkpt>
      <trkpt lat="38.74557400" lon="-6.36546200">
        <ele>327.00000</ele>
      </trkpt>
      <trkpt lat="38.74541100" lon="-6.36545300">
        <ele>327.00000</ele>
      </trkpt>
      <trkpt lat="38.74505500" lon="-6.36543000">
        <ele>327.00000</ele>
      </trkpt>
      <trkpt lat="38.74455500" lon="-6.36542200">
        <ele>327.00000</ele>
      </trkpt>
      <trkpt lat="38.74400300" lon="-6.36540099">
        <ele>326.00000</ele>
      </trkpt>
      <trkpt lat="38.74396000" lon="-6.36540099">
        <ele>326.00000</ele>
      </trkpt>
      <trkpt lat="38.74370600" lon="-6.36539400">
        <ele>327.00000</ele>
      </trkpt>
      <trkpt lat="38.74333400" lon="-6.36537400">
        <ele>328.00000</ele>
      </trkpt>
      <trkpt lat="38.74295200" lon="-6.36535400">
        <ele>328.00000</ele>
      </trkpt>
      <trkpt lat="38.74254800" lon="-6.36535000">
        <ele>326.00000</ele>
      </trkpt>
      <trkpt lat="38.74206200" lon="-6.36533300">
        <ele>327.00000</ele>
      </trkpt>
      <trkpt lat="38.74185500" lon="-6.36532400">
        <ele>326.00000</ele>
      </trkpt>
      <trkpt lat="38.74168800" lon="-6.36531600">
        <ele>326.00000</ele>
      </trkpt>
      <trkpt lat="38.74164600" lon="-6.36531400">
        <ele>326.00000</ele>
      </trkpt>
      <trkpt lat="38.74116600" lon="-6.36529700">
        <ele>328.00000</ele>
      </trkpt>
      <trkpt lat="38.74076700" lon="-6.36527300">
        <ele>328.00000</ele>
      </trkpt>
      <trkpt lat="38.74060000" lon="-6.36527400">
        <ele>328.00000</ele>
      </trkpt>
      <trkpt lat="38.74035300" lon="-6.36526700">
        <ele>328.00000</ele>
      </trkpt>
      <trkpt lat="38.74023100" lon="-6.36526400">
        <ele>328.00000</ele>
      </trkpt>
      <trkpt lat="38.74006300" lon="-6.36525300">
        <ele>328.00000</ele>
      </trkpt>
      <trkpt lat="38.73984500" lon="-6.36523700">
        <ele>327.00000</ele>
      </trkpt>
      <trkpt lat="38.73971400" lon="-6.36522999">
        <ele>326.00000</ele>
      </trkpt>
      <trkpt lat="38.73967200" lon="-6.36522900">
        <ele>326.00000</ele>
      </trkpt>
      <trkpt lat="38.73937200" lon="-6.36522900">
        <ele>326.00000</ele>
      </trkpt>
      <trkpt lat="38.73915100" lon="-6.36522600">
        <ele>326.00000</ele>
      </trkpt>
      <trkpt lat="38.73879900" lon="-6.36522200">
        <ele>326.00000</ele>
      </trkpt>
      <trkpt lat="38.73857200" lon="-6.36521000">
        <ele>326.00000</ele>
      </trkpt>
      <trkpt lat="38.73814500" lon="-6.36519300">
        <ele>328.00000</ele>
      </trkpt>
      <trkpt lat="38.73800500" lon="-6.36518900">
        <ele>328.00000</ele>
      </trkpt>
      <trkpt lat="38.73791300" lon="-6.36518600">
        <ele>328.00000</ele>
      </trkpt>
      <trkpt lat="38.73777100" lon="-6.36517900">
        <ele>327.00000</ele>
      </trkpt>
      <trkpt lat="38.73759300" lon="-6.36516900">
        <ele>327.00000</ele>
      </trkpt>
      <trkpt lat="38.73742200" lon="-6.36515600">
        <ele>326.00000</ele>
      </trkpt>
      <trkpt lat="38.73715100" lon="-6.36514100">
        <ele>326.00000</ele>
      </trkpt>
      <trkpt lat="38.73701000" lon="-6.36513100">
        <ele>326.00000</ele>
      </trkpt>
      <trkpt lat="38.73655000" lon="-6.36511300">
        <ele>326.00000</ele>
      </trkpt>
      <trkpt lat="38.73622400" lon="-6.36510200">
        <ele>326.00000</ele>
      </trkpt>
      <trkpt lat="38.73608200" lon="-6.36510000">
        <ele>326.00000</ele>
      </trkpt>
      <trkpt lat="38.73583400" lon="-6.36508499">
        <ele>326.00000</ele>
      </trkpt>
      <trkpt lat="38.73571000" lon="-6.36508000">
        <ele>326.00000</ele>
      </trkpt>
      <trkpt lat="38.73533400" lon="-6.36506800">
        <ele>326.00000</ele>
      </trkpt>
      <trkpt lat="38.73520700" lon="-6.36506500">
        <ele>327.00000</ele>
      </trkpt>
      <trkpt lat="38.73483900" lon="-6.36505700">
        <ele>327.00000</ele>
      </trkpt>
      <trkpt lat="38.73440800" lon="-6.36503300">
        <ele>326.00000</ele>
      </trkpt>
      <trkpt lat="38.73428200" lon="-6.36502400">
        <ele>326.00000</ele>
      </trkpt>
      <trkpt lat="38.73387300" lon="-6.36500200">
        <ele>325.00000</ele>
      </trkpt>
      <trkpt lat="38.73371700" lon="-6.36499700">
        <ele>325.00000</ele>
      </trkpt>
      <trkpt lat="38.73359800" lon="-6.36499600">
        <ele>325.00000</ele>
      </trkpt>
      <trkpt lat="38.73351800" lon="-6.36499400">
        <ele>325.00000</ele>
      </trkpt>
      <trkpt lat="38.73336700" lon="-6.36498900">
        <ele>325.00000</ele>
      </trkpt>
      <trkpt lat="38.73318200" lon="-6.36498200">
        <ele>326.00000</ele>
      </trkpt>
      <trkpt lat="38.73296700" lon="-6.36497200">
        <ele>327.00000</ele>
      </trkpt>
      <trkpt lat="38.73289600" lon="-6.36496300">
        <ele>327.00000</ele>
      </trkpt>
      <trkpt lat="38.73262000" lon="-6.36495600">
        <ele>329.00000</ele>
      </trkpt>
      <trkpt lat="38.73247900" lon="-6.36495200">
        <ele>330.00000</ele>
      </trkpt>
      <trkpt lat="38.73226300" lon="-6.36493900">
        <ele>331.00000</ele>
      </trkpt>
      <trkpt lat="38.73208200" lon="-6.36492900">
        <ele>330.00000</ele>
      </trkpt>
      <trkpt lat="38.73204600" lon="-6.36492900">
        <ele>330.00000</ele>
      </trkpt>
      <trkpt lat="38.73176900" lon="-6.36491500">
        <ele>328.00000</ele>
      </trkpt>
      <trkpt lat="38.73174000" lon="-6.36491800">
        <ele>328.00000</ele>
      </trkpt>
      <trkpt lat="38.73171100" lon="-6.36492100">
        <ele>328.00000</ele>
      </trkpt>
      <trkpt lat="38.73168000" lon="-6.36492000">
        <ele>328.00000</ele>
      </trkpt>
      <trkpt lat="38.73157600" lon="-6.36490800">
        <ele>328.00000</ele>
      </trkpt>
      <trkpt lat="38.73146300" lon="-6.36490900">
        <ele>328.00000</ele>
      </trkpt>
      <trkpt lat="38.73132900" lon="-6.36491199">
        <ele>328.00000</ele>
      </trkpt>
      <trkpt lat="38.73122500" lon="-6.36490700">
        <ele>329.00000</ele>
      </trkpt>
      <trkpt lat="38.73098800" lon="-6.36490600">
        <ele>329.00000</ele>
      </trkpt>
      <trkpt lat="38.73091000" lon="-6.36492399">
        <ele>329.00000</ele>
      </trkpt>
      <trkpt lat="38.73068800" lon="-6.36491399">
        <ele>328.00000</ele>
      </trkpt>
      <trkpt lat="38.73058300" lon="-6.36491300">
        <ele>328.00000</ele>
      </trkpt>
      <trkpt lat="38.73043300" lon="-6.36488000">
        <ele>329.00000</ele>
      </trkpt>
      <trkpt lat="38.73022900" lon="-6.36486800">
        <ele>329.00000</ele>
      </trkpt>
      <trkpt lat="38.73006300" lon="-6.36486500">
        <ele>330.00000</ele>
      </trkpt>
      <trkpt lat="38.72994300" lon="-6.36485699">
        <ele>331.00000</ele>
      </trkpt>
      <trkpt lat="38.72982700" lon="-6.36485400">
        <ele>331.00000</ele>
      </trkpt>
      <trkpt lat="38.72971200" lon="-6.36485200">
        <ele>332.00000</ele>
      </trkpt>
      <trkpt lat="38.72967300" lon="-6.36485100">
        <ele>332.00000</ele>
      </trkpt>
      <trkpt lat="38.72941000" lon="-6.36485000">
        <ele>332.00000</ele>
      </trkpt>
      <trkpt lat="38.72933200" lon="-6.36485100">
        <ele>332.00000</ele>
      </trkpt>
      <trkpt lat="38.72929400" lon="-6.36484900">
        <ele>332.00000</ele>
      </trkpt>
      <trkpt lat="38.72903300" lon="-6.36483900">
        <ele>332.00000</ele>
      </trkpt>
      <trkpt lat="38.72888400" lon="-6.36483500">
        <ele>332.00000</ele>
      </trkpt>
      <trkpt lat="38.72877200" lon="-6.36483100">
        <ele>332.00000</ele>
      </trkpt>
      <trkpt lat="38.72851300" lon="-6.36482300">
        <ele>332.00000</ele>
      </trkpt>
      <trkpt lat="38.72817600" lon="-6.36480400">
        <ele>332.00000</ele>
      </trkpt>
      <trkpt lat="38.72809900" lon="-6.36480300">
        <ele>332.00000</ele>
      </trkpt>
      <trkpt lat="38.72790900" lon="-6.36478900">
        <ele>333.00000</ele>
      </trkpt>
      <trkpt lat="38.72787000" lon="-6.36478799">
        <ele>333.00000</ele>
      </trkpt>
      <trkpt lat="38.72771900" lon="-6.36478200">
        <ele>334.00000</ele>
      </trkpt>
      <trkpt lat="38.72760300" lon="-6.36477400">
        <ele>334.00000</ele>
      </trkpt>
      <trkpt lat="38.72744500" lon="-6.36474800">
        <ele>334.00000</ele>
      </trkpt>
      <trkpt lat="38.72732500" lon="-6.36473600">
        <ele>334.00000</ele>
      </trkpt>
      <trkpt lat="38.72696700" lon="-6.36471600">
        <ele>333.00000</ele>
      </trkpt>
      <trkpt lat="38.72684800" lon="-6.36470900">
        <ele>333.00000</ele>
      </trkpt>
      <trkpt lat="38.72665000" lon="-6.36469799">
        <ele>333.00000</ele>
      </trkpt>
      <trkpt lat="38.72649000" lon="-6.36469500">
        <ele>333.00000</ele>
      </trkpt>
      <trkpt lat="38.72645200" lon="-6.36469300">
        <ele>333.00000</ele>
      </trkpt>
      <trkpt lat="38.72637400" lon="-6.36468700">
        <ele>334.00000</ele>
      </trkpt>
      <trkpt lat="38.72621800" lon="-6.36467600">
        <ele>335.00000</ele>
      </trkpt>
      <trkpt lat="38.72610400" lon="-6.36468200">
        <ele>336.00000</ele>
      </trkpt>
      <trkpt lat="38.72572800" lon="-6.36466100">
        <ele>338.00000</ele>
      </trkpt>
      <trkpt lat="38.72565400" lon="-6.36465600">
        <ele>338.00000</ele>
      </trkpt>
      <trkpt lat="38.72554400" lon="-6.36465299">
        <ele>338.00000</ele>
      </trkpt>
      <trkpt lat="38.72544200" lon="-6.36464400">
        <ele>337.00000</ele>
      </trkpt>
      <trkpt lat="38.72531200" lon="-6.36464000">
        <ele>337.00000</ele>
      </trkpt>
      <trkpt lat="38.72522400" lon="-6.36463800">
        <ele>337.00000</ele>
      </trkpt>
      <trkpt lat="38.72519500" lon="-6.36463400">
        <ele>337.00000</ele>
      </trkpt>
      <trkpt lat="38.72502900" lon="-6.36461900">
        <ele>338.00000</ele>
      </trkpt>
      <trkpt lat="38.72497600" lon="-6.36461800">
        <ele>339.00000</ele>
      </trkpt>
      <trkpt lat="38.72489500" lon="-6.36459200">
        <ele>339.00000</ele>
      </trkpt>
      <trkpt lat="38.72475600" lon="-6.36458200">
        <ele>339.00000</ele>
      </trkpt>
      <trkpt lat="38.72470000" lon="-6.36457900">
        <ele>339.00000</ele>
      </trkpt>
      <trkpt lat="38.72461600" lon="-6.36457500">
        <ele>339.00000</ele>
      </trkpt>
      <trkpt lat="38.72453400" lon="-6.36457100">
        <ele>339.00000</ele>
      </trkpt>
      <trkpt lat="38.72442100" lon="-6.36456200">
        <ele>339.00000</ele>
      </trkpt>
      <trkpt lat="38.72427100" lon="-6.36455000">
        <ele>340.00000</ele>
      </trkpt>
      <trkpt lat="38.72412900" lon="-6.36453899">
        <ele>340.00000</ele>
      </trkpt>
      <trkpt lat="38.72407000" lon="-6.36454000">
        <ele>341.00000</ele>
      </trkpt>
      <trkpt lat="38.72404000" lon="-6.36453800">
        <ele>341.00000</ele>
      </trkpt>
      <trkpt lat="38.72401100" lon="-6.36453600">
        <ele>341.00000</ele>
      </trkpt>
      <trkpt lat="38.72392000" lon="-6.36453899">
        <ele>342.00000</ele>
      </trkpt>
      <trkpt lat="38.72369300" lon="-6.36451900">
        <ele>343.00000</ele>
      </trkpt>
      <trkpt lat="38.72334200" lon="-6.36451400">
        <ele>342.00000</ele>
      </trkpt>
      <trkpt lat="38.72308200" lon="-6.36450100">
        <ele>340.00000</ele>
      </trkpt>
      <trkpt lat="38.72290300" lon="-6.36449600">
        <ele>340.00000</ele>
      </trkpt>
      <trkpt lat="38.72271500" lon="-6.36448199">
        <ele>340.00000</ele>
      </trkpt>
      <trkpt lat="38.72266700" lon="-6.36447900">
        <ele>339.00000</ele>
      </trkpt>
      <trkpt lat="38.72238600" lon="-6.36445100">
        <ele>338.00000</ele>
      </trkpt>
      <trkpt lat="38.72199100" lon="-6.36445100">
        <ele>337.00000</ele>
      </trkpt>
      <trkpt lat="38.72173800" lon="-6.36444300">
        <ele>340.00000</ele>
      </trkpt>
      <trkpt lat="38.72165400" lon="-6.36445400">
        <ele>341.00000</ele>
      </trkpt>
      <trkpt lat="38.72131900" lon="-6.36445000">
        <ele>342.00000</ele>
      </trkpt>
      <trkpt lat="38.72125100" lon="-6.36444899">
        <ele>342.00000</ele>
      </trkpt>
      <trkpt lat="38.72114500" lon="-6.36444400">
        <ele>343.00000</ele>
      </trkpt>
      <trkpt lat="38.72100700" lon="-6.36444400">
        <ele>343.00000</ele>
      </trkpt>
      <trkpt lat="38.72078000" lon="-6.36443699">
        <ele>343.00000</ele>
      </trkpt>
      <trkpt lat="38.72071400" lon="-6.36443200">
        <ele>343.00000</ele>
      </trkpt>
      <trkpt lat="38.72058500" lon="-6.36443200">
        <ele>343.00000</ele>
      </trkpt>
      <trkpt lat="38.72045300" lon="-6.36442700">
        <ele>344.00000</ele>
      </trkpt>
      <trkpt lat="38.72035400" lon="-6.36442700">
        <ele>344.00000</ele>
      </trkpt>
      <trkpt lat="38.72025600" lon="-6.36442700">
        <ele>345.00000</ele>
      </trkpt>
      <trkpt lat="38.72022500" lon="-6.36442600">
        <ele>345.00000</ele>
      </trkpt>
      <trkpt lat="38.72006000" lon="-6.36439600">
        <ele>345.00000</ele>
      </trkpt>
      <trkpt lat="38.71985700" lon="-6.36439000">
        <ele>346.00000</ele>
      </trkpt>
      <trkpt lat="38.71969600" lon="-6.36439000">
        <ele>346.00000</ele>
      </trkpt>
      <trkpt lat="38.71966400" lon="-6.36438700">
        <ele>346.00000</ele>
      </trkpt>
      <trkpt lat="38.71923800" lon="-6.36437400">
        <ele>346.00000</ele>
      </trkpt>
      <trkpt lat="38.71903700" lon="-6.36437000">
        <ele>347.00000</ele>
      </trkpt>
      <trkpt lat="38.71890200" lon="-6.36436600">
        <ele>348.00000</ele>
      </trkpt>
      <trkpt lat="38.71879900" lon="-6.36436200">
        <ele>347.00000</ele>
      </trkpt>
      <trkpt lat="38.71855100" lon="-6.36435500">
        <ele>347.00000</ele>
      </trkpt>
      <trkpt lat="38.71851500" lon="-6.36435400">
        <ele>347.00000</ele>
      </trkpt>
      <trkpt lat="38.71844500" lon="-6.36435400">
        <ele>347.00000</ele>
      </trkpt>
      <trkpt lat="38.71837400" lon="-6.36435300">
        <ele>347.00000</ele>
      </trkpt>
      <trkpt lat="38.71827300" lon="-6.36435100">
        <ele>347.00000</ele>
      </trkpt>
      <trkpt lat="38.71817100" lon="-6.36434800">
        <ele>347.00000</ele>
      </trkpt>
      <trkpt lat="38.71810200" lon="-6.36434700">
        <ele>347.00000</ele>
      </trkpt>
      <trkpt lat="38.71796500" lon="-6.36434600">
        <ele>347.00000</ele>
      </trkpt>
      <trkpt lat="38.71776200" lon="-6.36433600">
        <ele>347.00000</ele>
      </trkpt>
      <trkpt lat="38.71766300" lon="-6.36433600">
        <ele>347.00000</ele>
      </trkpt>
      <trkpt lat="38.71756400" lon="-6.36433300">
        <ele>347.00000</ele>
      </trkpt>
      <trkpt lat="38.71749900" lon="-6.36433199">
        <ele>347.00000</ele>
      </trkpt>
      <trkpt lat="38.71723900" lon="-6.36432500">
        <ele>348.00000</ele>
      </trkpt>
      <trkpt lat="38.71720600" lon="-6.36432400">
        <ele>349.00000</ele>
      </trkpt>
      <trkpt lat="38.71710600" lon="-6.36431400">
        <ele>349.00000</ele>
      </trkpt>
      <trkpt lat="38.71698500" lon="-6.36430400">
        <ele>349.00000</ele>
      </trkpt>
      <trkpt lat="38.71672900" lon="-6.36429800">
        <ele>350.00000</ele>
      </trkpt>
      <trkpt lat="38.71666300" lon="-6.36429700">
        <ele>350.00000</ele>
      </trkpt>
      <trkpt lat="38.71663200" lon="-6.36429600">
        <ele>350.00000</ele>
      </trkpt>
      <trkpt lat="38.71650200" lon="-6.36428900">
        <ele>350.00000</ele>
      </trkpt>
      <trkpt lat="38.71623600" lon="-6.36428100">
        <ele>350.00000</ele>
      </trkpt>
      <trkpt lat="38.71613900" lon="-6.36427400">
        <ele>349.00000</ele>
      </trkpt>
      <trkpt lat="38.71603800" lon="-6.36426800">
        <ele>349.00000</ele>
      </trkpt>
      <trkpt lat="38.71590500" lon="-6.36426800">
        <ele>349.00000</ele>
      </trkpt>
      <trkpt lat="38.71580500" lon="-6.36426200">
        <ele>349.00000</ele>
      </trkpt>
      <trkpt lat="38.71554200" lon="-6.36425500">
        <ele>349.00000</ele>
      </trkpt>
      <trkpt lat="38.71551000" lon="-6.36425100">
        <ele>349.00000</ele>
      </trkpt>
      <trkpt lat="38.71547800" lon="-6.36424900">
        <ele>349.00000</ele>
      </trkpt>
      <trkpt lat="38.71534400" lon="-6.36424800">
        <ele>349.00000</ele>
      </trkpt>
      <trkpt lat="38.71524300" lon="-6.36424500">
        <ele>349.00000</ele>
      </trkpt>
      <trkpt lat="38.71510300" lon="-6.36424400">
        <ele>349.00000</ele>
      </trkpt>
      <trkpt lat="38.71492900" lon="-6.36423600">
        <ele>349.00000</ele>
      </trkpt>
      <trkpt lat="38.71482300" lon="-6.36422999">
        <ele>350.00000</ele>
      </trkpt>
      <trkpt lat="38.71471300" lon="-6.36422700">
        <ele>351.00000</ele>
      </trkpt>
      <trkpt lat="38.71460100" lon="-6.36422900">
        <ele>351.00000</ele>
      </trkpt>
      <trkpt lat="38.71452400" lon="-6.36422700">
        <ele>351.00000</ele>
      </trkpt>
      <trkpt lat="38.71437200" lon="-6.36421500">
        <ele>350.00000</ele>
      </trkpt>
      <trkpt lat="38.71421200" lon="-6.36421400">
        <ele>350.00000</ele>
      </trkpt>
      <trkpt lat="38.71417100" lon="-6.36421200">
        <ele>350.00000</ele>
      </trkpt>
      <trkpt lat="38.71405000" lon="-6.36420500">
        <ele>350.00000</ele>
      </trkpt>
      <trkpt lat="38.71388800" lon="-6.36420600">
        <ele>351.00000</ele>
      </trkpt>
      <trkpt lat="38.71371900" lon="-6.36421600">
        <ele>351.00000</ele>
      </trkpt>
      <trkpt lat="38.71354900" lon="-6.36420300">
        <ele>352.00000</ele>
      </trkpt>
      <trkpt lat="38.71350700" lon="-6.36419900">
        <ele>352.00000</ele>
      </trkpt>
      <trkpt lat="38.71333700" lon="-6.36418400">
        <ele>352.00000</ele>
      </trkpt>
      <trkpt lat="38.71325300" lon="-6.36417299">
        <ele>351.00000</ele>
      </trkpt>
      <trkpt lat="38.71289300" lon="-6.36419100">
        <ele>351.00000</ele>
      </trkpt>
      <trkpt lat="38.71257200" lon="-6.36417100">
        <ele>350.00000</ele>
      </trkpt>
      <trkpt lat="38.71248100" lon="-6.36417100">
        <ele>350.00000</ele>
      </trkpt>
      <trkpt lat="38.71229500" lon="-6.36417400">
        <ele>349.00000</ele>
      </trkpt>
      <trkpt lat="38.71206500" lon="-6.36417599">
        <ele>349.00000</ele>
      </trkpt>
      <trkpt lat="38.71193100" lon="-6.36417200">
        <ele>349.00000</ele>
      </trkpt>
      <trkpt lat="38.71188700" lon="-6.36417100">
        <ele>349.00000</ele>
      </trkpt>
      <trkpt lat="38.71166700" lon="-6.36416099">
        <ele>350.00000</ele>
      </trkpt>
      <trkpt lat="38.71154200" lon="-6.36415600">
        <ele>350.00000</ele>
      </trkpt>
      <trkpt lat="38.71142300" lon="-6.36415199">
        <ele>351.00000</ele>
      </trkpt>
      <trkpt lat="38.71130700" lon="-6.36414400">
        <ele>352.00000</ele>
      </trkpt>
      <trkpt lat="38.71112000" lon="-6.36413700">
        <ele>352.00000</ele>
      </trkpt>
      <trkpt lat="38.71097700" lon="-6.36413100">
        <ele>353.00000</ele>
      </trkpt>
      <trkpt lat="38.71086900" lon="-6.36412600">
        <ele>353.00000</ele>
      </trkpt>
      <trkpt lat="38.71076600" lon="-6.36411599">
        <ele>353.00000</ele>
      </trkpt>
      <trkpt lat="38.71066400" lon="-6.36411599">
        <ele>353.00000</ele>
      </trkpt>
      <trkpt lat="38.71052200" lon="-6.36411800">
        <ele>353.00000</ele>
      </trkpt>
      <trkpt lat="38.71044700" lon="-6.36411300">
        <ele>353.00000</ele>
      </trkpt>
      <trkpt lat="38.71033700" lon="-6.36410699">
        <ele>354.00000</ele>
      </trkpt>
      <trkpt lat="38.71026500" lon="-6.36410699">
        <ele>354.00000</ele>
      </trkpt>
      <trkpt lat="38.71015700" lon="-6.36410399">
        <ele>354.00000</ele>
      </trkpt>
      <trkpt lat="38.70998500" lon="-6.36408500">
        <ele>353.00000</ele>
      </trkpt>
      <trkpt lat="38.70991400" lon="-6.36408299">
        <ele>353.00000</ele>
      </trkpt>
      <trkpt lat="38.70984600" lon="-6.36408100">
        <ele>353.00000</ele>
      </trkpt>
      <trkpt lat="38.70970900" lon="-6.36408400">
        <ele>353.00000</ele>
      </trkpt>
      <trkpt lat="38.70967500" lon="-6.36408400">
        <ele>353.00000</ele>
      </trkpt>
      <trkpt lat="38.70938500" lon="-6.36406900">
        <ele>354.00000</ele>
      </trkpt>
      <trkpt lat="38.70929100" lon="-6.36406300">
        <ele>354.00000</ele>
      </trkpt>
      <trkpt lat="38.70896900" lon="-6.36405100">
        <ele>354.00000</ele>
      </trkpt>
      <trkpt lat="38.70883500" lon="-6.36404500">
        <ele>355.00000</ele>
      </trkpt>
      <trkpt lat="38.70876900" lon="-6.36404300">
        <ele>355.00000</ele>
      </trkpt>
      <trkpt lat="38.70870400" lon="-6.36404200">
        <ele>355.00000</ele>
      </trkpt>
      <trkpt lat="38.70863500" lon="-6.36403700">
        <ele>355.00000</ele>
      </trkpt>
      <trkpt lat="38.70834000" lon="-6.36402000">
        <ele>356.00000</ele>
      </trkpt>
      <trkpt lat="38.70827200" lon="-6.36400900">
        <ele>356.00000</ele>
      </trkpt>
      <trkpt lat="38.70820100" lon="-6.36400100">
        <ele>356.00000</ele>
      </trkpt>
      <trkpt lat="38.70812600" lon="-6.36400000">
        <ele>356.00000</ele>
      </trkpt>
      <trkpt lat="38.70798600" lon="-6.36400499">
        <ele>356.00000</ele>
      </trkpt>
      <trkpt lat="38.70775300" lon="-6.36400400">
        <ele>358.00000</ele>
      </trkpt>
      <trkpt lat="38.70768400" lon="-6.36400100">
        <ele>359.00000</ele>
      </trkpt>
      <trkpt lat="38.70765100" lon="-6.36400199">
        <ele>359.00000</ele>
      </trkpt>
      <trkpt lat="38.70758300" lon="-6.36400199">
        <ele>359.00000</ele>
      </trkpt>
      <trkpt lat="38.70751700" lon="-6.36399800">
        <ele>360.00000</ele>
      </trkpt>
      <trkpt lat="38.70741900" lon="-6.36398999">
        <ele>360.00000</ele>
      </trkpt>
      <trkpt lat="38.70735300" lon="-6.36398500">
        <ele>360.00000</ele>
      </trkpt>
      <trkpt lat="38.70721800" lon="-6.36398099">
        <ele>360.00000</ele>
      </trkpt>
      <trkpt lat="38.70718200" lon="-6.36397900">
        <ele>359.00000</ele>
      </trkpt>
      <trkpt lat="38.70700700" lon="-6.36397600">
        <ele>358.00000</ele>
      </trkpt>
      <trkpt lat="38.70690200" lon="-6.36397800">
        <ele>357.00000</ele>
      </trkpt>
      <trkpt lat="38.70673500" lon="-6.36397600">
        <ele>356.00000</ele>
      </trkpt>
      <trkpt lat="38.70638700" lon="-6.36396000">
        <ele>358.00000</ele>
      </trkpt>
      <trkpt lat="38.70634500" lon="-6.36395300">
        <ele>358.00000</ele>
      </trkpt>
      <trkpt lat="38.70620600" lon="-6.36395000">
        <ele>358.00000</ele>
      </trkpt>
      <trkpt lat="38.70606800" lon="-6.36395200">
        <ele>358.00000</ele>
      </trkpt>
      <trkpt lat="38.70599800" lon="-6.36395200">
        <ele>358.00000</ele>
      </trkpt>
      <trkpt lat="38.70589400" lon="-6.36394000">
        <ele>358.00000</ele>
      </trkpt>
      <trkpt lat="38.70567600" lon="-6.36393100">
        <ele>357.00000</ele>
      </trkpt>
      <trkpt lat="38.70549500" lon="-6.36393200">
        <ele>358.00000</ele>
      </trkpt>
      <trkpt lat="38.70534700" lon="-6.36392800">
        <ele>360.00000</ele>
      </trkpt>
      <trkpt lat="38.70513200" lon="-6.36391600">
        <ele>360.00000</ele>
      </trkpt>
      <trkpt lat="38.70494500" lon="-6.36392200">
        <ele>360.00000</ele>
      </trkpt>
      <trkpt lat="38.70478800" lon="-6.36390100">
        <ele>361.00000</ele>
      </trkpt>
      <trkpt lat="38.70467900" lon="-6.36389500">
        <ele>361.00000</ele>
      </trkpt>
      <trkpt lat="38.70456100" lon="-6.36389500">
        <ele>361.00000</ele>
      </trkpt>
      <trkpt lat="38.70428400" lon="-6.36387500">
        <ele>362.00000</ele>
      </trkpt>
      <trkpt lat="38.70424500" lon="-6.36387200">
        <ele>362.00000</ele>
      </trkpt>
      <trkpt lat="38.70421300" lon="-6.36387300">
        <ele>362.00000</ele>
      </trkpt>
      <trkpt lat="38.70402400" lon="-6.36386600">
        <ele>361.00000</ele>
      </trkpt>
      <trkpt lat="38.70383800" lon="-6.36386100">
        <ele>361.00000</ele>
      </trkpt>
      <trkpt lat="38.70369100" lon="-6.36385300">
        <ele>361.00000</ele>
      </trkpt>
      <trkpt lat="38.70354700" lon="-6.36384800">
        <ele>361.00000</ele>
      </trkpt>
      <trkpt lat="38.70342900" lon="-6.36384299">
        <ele>361.00000</ele>
      </trkpt>
      <trkpt lat="38.70328300" lon="-6.36383500">
        <ele>361.00000</ele>
      </trkpt>
      <trkpt lat="38.70316900" lon="-6.36383700">
        <ele>361.00000</ele>
      </trkpt>
      <trkpt lat="38.70304900" lon="-6.36382900">
        <ele>361.00000</ele>
      </trkpt>
      <trkpt lat="38.70285600" lon="-6.36383200">
        <ele>363.00000</ele>
      </trkpt>
      <trkpt lat="38.70254600" lon="-6.36381100">
        <ele>363.00000</ele>
      </trkpt>
      <trkpt lat="38.70230400" lon="-6.36379900">
        <ele>363.00000</ele>
      </trkpt>
      <trkpt lat="38.70219500" lon="-6.36379000">
        <ele>363.00000</ele>
      </trkpt>
      <trkpt lat="38.70210600" lon="-6.36378400">
        <ele>362.00000</ele>
      </trkpt>
      <trkpt lat="38.70169400" lon="-6.36377399">
        <ele>360.00000</ele>
      </trkpt>
      <trkpt lat="38.70144300" lon="-6.36377699">
        <ele>360.00000</ele>
      </trkpt>
      <trkpt lat="38.70135900" lon="-6.36378599">
        <ele>360.00000</ele>
      </trkpt>
      <trkpt lat="38.70131800" lon="-6.36378599">
        <ele>360.00000</ele>
      </trkpt>
      <trkpt lat="38.70124800" lon="-6.36377900">
        <ele>361.00000</ele>
      </trkpt>
      <trkpt lat="38.70105900" lon="-6.36377300">
        <ele>362.00000</ele>
      </trkpt>
      <trkpt lat="38.70089200" lon="-6.36378000">
        <ele>363.00000</ele>
      </trkpt>
      <trkpt lat="38.70073600" lon="-6.36376000">
        <ele>363.00000</ele>
      </trkpt>
      <trkpt lat="38.70064900" lon="-6.36375800">
        <ele>362.00000</ele>
      </trkpt>
      <trkpt lat="38.70039200" lon="-6.36372100">
        <ele>362.00000</ele>
      </trkpt>
      <trkpt lat="38.70010800" lon="-6.36370500">
        <ele>362.00000</ele>
      </trkpt>
      <trkpt lat="38.69975900" lon="-6.36369900">
        <ele>365.00000</ele>
      </trkpt>
      <trkpt lat="38.69942100" lon="-6.36367900">
        <ele>364.00000</ele>
      </trkpt>
      <trkpt lat="38.69938600" lon="-6.36367700">
        <ele>364.00000</ele>
      </trkpt>
      <trkpt lat="38.69897600" lon="-6.36367199">
        <ele>358.00000</ele>
      </trkpt>
      <trkpt lat="38.69877900" lon="-6.36366700">
        <ele>359.00000</ele>
      </trkpt>
      <trkpt lat="38.69863000" lon="-6.36366400">
        <ele>361.00000</ele>
      </trkpt>
      <trkpt lat="38.69851800" lon="-6.36366199">
        <ele>362.00000</ele>
      </trkpt>
      <trkpt lat="38.69841600" lon="-6.36365300">
        <ele>364.00000</ele>
      </trkpt>
      <trkpt lat="38.69827300" lon="-6.36364600">
        <ele>366.00000</ele>
      </trkpt>
      <trkpt lat="38.69798500" lon="-6.36363300">
        <ele>367.00000</ele>
      </trkpt>
      <trkpt lat="38.69775200" lon="-6.36362300">
        <ele>366.00000</ele>
      </trkpt>
      <trkpt lat="38.69756800" lon="-6.36361699">
        <ele>366.00000</ele>
      </trkpt>
      <trkpt lat="38.69743400" lon="-6.36360900">
        <ele>365.00000</ele>
      </trkpt>
      <trkpt lat="38.69715000" lon="-6.36359600">
        <ele>365.00000</ele>
      </trkpt>
      <trkpt lat="38.69700300" lon="-6.36359200">
        <ele>365.00000</ele>
      </trkpt>
      <trkpt lat="38.69686100" lon="-6.36358300">
        <ele>364.00000</ele>
      </trkpt>
      <trkpt lat="38.69656700" lon="-6.36358600">
        <ele>363.00000</ele>
      </trkpt>
      <trkpt lat="38.69643200" lon="-6.36357800">
        <ele>362.00000</ele>
      </trkpt>
      <trkpt lat="38.69627900" lon="-6.36357700">
        <ele>362.00000</ele>
      </trkpt>
      <trkpt lat="38.69601000" lon="-6.36356900">
        <ele>362.00000</ele>
      </trkpt>
      <trkpt lat="38.69584900" lon="-6.36356100">
        <ele>363.00000</ele>
      </trkpt>
      <trkpt lat="38.69578900" lon="-6.36356100">
        <ele>364.00000</ele>
      </trkpt>
      <trkpt lat="38.69572200" lon="-6.36355500">
        <ele>364.00000</ele>
      </trkpt>
      <trkpt lat="38.69559100" lon="-6.36355600">
        <ele>365.00000</ele>
      </trkpt>
      <trkpt lat="38.69551500" lon="-6.36356200">
        <ele>365.00000</ele>
      </trkpt>
      <trkpt lat="38.69545200" lon="-6.36356200">
        <ele>365.00000</ele>
      </trkpt>
      <trkpt lat="38.69517700" lon="-6.36354500">
        <ele>365.00000</ele>
      </trkpt>
      <trkpt lat="38.69513600" lon="-6.36354100">
        <ele>365.00000</ele>
      </trkpt>
      <trkpt lat="38.69482800" lon="-6.36352800">
        <ele>364.00000</ele>
      </trkpt>
      <trkpt lat="38.69453000" lon="-6.36351700">
        <ele>364.00000</ele>
      </trkpt>
      <trkpt lat="38.69438900" lon="-6.36351400">
        <ele>363.00000</ele>
      </trkpt>
      <trkpt lat="38.69429200" lon="-6.36350800">
        <ele>363.00000</ele>
      </trkpt>
      <trkpt lat="38.69407900" lon="-6.36350299">
        <ele>363.00000</ele>
      </trkpt>
      <trkpt lat="38.69398200" lon="-6.36349700">
        <ele>363.00000</ele>
      </trkpt>
      <trkpt lat="38.69390400" lon="-6.36349500">
        <ele>363.00000</ele>
      </trkpt>
      <trkpt lat="38.69358400" lon="-6.36348400">
        <ele>364.00000</ele>
      </trkpt>
      <trkpt lat="38.69345300" lon="-6.36348100">
        <ele>364.00000</ele>
      </trkpt>
      <trkpt lat="38.69341300" lon="-6.36348100">
        <ele>365.00000</ele>
      </trkpt>
      <trkpt lat="38.69334500" lon="-6.36347500">
        <ele>365.00000</ele>
      </trkpt>
      <trkpt lat="38.69301300" lon="-6.36345799">
        <ele>366.00000</ele>
      </trkpt>
      <trkpt lat="38.69290700" lon="-6.36344800">
        <ele>366.00000</ele>
      </trkpt>
      <trkpt lat="38.69268500" lon="-6.36344700">
        <ele>367.00000</ele>
      </trkpt>
      <trkpt lat="38.69264500" lon="-6.36344500">
        <ele>367.00000</ele>
      </trkpt>
      <trkpt lat="38.69244900" lon="-6.36343499">
        <ele>367.00000</ele>
      </trkpt>
      <trkpt lat="38.69238800" lon="-6.36343399">
        <ele>367.00000</ele>
      </trkpt>
      <trkpt lat="38.69228900" lon="-6.36342900">
        <ele>368.00000</ele>
      </trkpt>
      <trkpt lat="38.69213200" lon="-6.36342200">
        <ele>368.00000</ele>
      </trkpt>
      <trkpt lat="38.69203600" lon="-6.36341800">
        <ele>369.00000</ele>
      </trkpt>
      <trkpt lat="38.69191100" lon="-6.36342400">
        <ele>369.00000</ele>
      </trkpt>
      <trkpt lat="38.69187300" lon="-6.36342100">
        <ele>369.00000</ele>
      </trkpt>
      <trkpt lat="38.69171900" lon="-6.36341600">
        <ele>368.00000</ele>
      </trkpt>
      <trkpt lat="38.69166300" lon="-6.36341300">
        <ele>368.00000</ele>
      </trkpt>
      <trkpt lat="38.69150900" lon="-6.36340600">
        <ele>367.00000</ele>
      </trkpt>
      <trkpt lat="38.69144200" lon="-6.36340300">
        <ele>367.00000</ele>
      </trkpt>
      <trkpt lat="38.69138000" lon="-6.36340500">
        <ele>367.00000</ele>
      </trkpt>
      <trkpt lat="38.69135600" lon="-6.36340400">
        <ele>366.00000</ele>
      </trkpt>
      <trkpt lat="38.69114600" lon="-6.36339300">
        <ele>365.00000</ele>
      </trkpt>
      <trkpt lat="38.69109300" lon="-6.36339200">
        <ele>364.00000</ele>
      </trkpt>
      <trkpt lat="38.69080100" lon="-6.36338400">
        <ele>364.00000</ele>
      </trkpt>
      <trkpt lat="38.69077200" lon="-6.36338600">
        <ele>365.00000</ele>
      </trkpt>
      <trkpt lat="38.69056500" lon="-6.36337799">
        <ele>367.00000</ele>
      </trkpt>
      <trkpt lat="38.69048300" lon="-6.36337799">
        <ele>369.00000</ele>
      </trkpt>
      <trkpt lat="38.69033800" lon="-6.36336800">
        <ele>371.00000</ele>
      </trkpt>
      <trkpt lat="38.69020300" lon="-6.36337000">
        <ele>372.00000</ele>
      </trkpt>
      <trkpt lat="38.69009400" lon="-6.36336599">
        <ele>373.00000</ele>
      </trkpt>
      <trkpt lat="38.68988400" lon="-6.36335500">
        <ele>374.00000</ele>
      </trkpt>
      <trkpt lat="38.68962300" lon="-6.36334100">
        <ele>374.00000</ele>
      </trkpt>
      <trkpt lat="38.68956800" lon="-6.36333700">
        <ele>374.00000</ele>
      </trkpt>
      <trkpt lat="38.68950400" lon="-6.36333300">
        <ele>374.00000</ele>
      </trkpt>
      <trkpt lat="38.68944700" lon="-6.36332500">
        <ele>374.00000</ele>
      </trkpt>
      <trkpt lat="38.68936200" lon="-6.36330600">
        <ele>373.00000</ele>
      </trkpt>
      <trkpt lat="38.68921200" lon="-6.36328800">
        <ele>373.00000</ele>
      </trkpt>
      <trkpt lat="38.68915300" lon="-6.36329100">
        <ele>373.00000</ele>
      </trkpt>
      <trkpt lat="38.68904600" lon="-6.36328100">
        <ele>373.00000</ele>
      </trkpt>
      <trkpt lat="38.68888100" lon="-6.36325400">
        <ele>373.00000</ele>
      </trkpt>
      <trkpt lat="38.68885300" lon="-6.36324800">
        <ele>373.00000</ele>
      </trkpt>
      <trkpt lat="38.68877500" lon="-6.36323700">
        <ele>373.00000</ele>
      </trkpt>
      <trkpt lat="38.68870300" lon="-6.36322999">
        <ele>373.00000</ele>
      </trkpt>
      <trkpt lat="38.68851900" lon="-6.36322300">
        <ele>373.00000</ele>
      </trkpt>
      <trkpt lat="38.68833700" lon="-6.36320800">
        <ele>373.00000</ele>
      </trkpt>
      <trkpt lat="38.68824800" lon="-6.36320400">
        <ele>373.00000</ele>
      </trkpt>
      <trkpt lat="38.68809300" lon="-6.36319700">
        <ele>374.00000</ele>
      </trkpt>
      <trkpt lat="38.68788500" lon="-6.36318299">
        <ele>375.00000</ele>
      </trkpt>
      <trkpt lat="38.68766300" lon="-6.36318100">
        <ele>375.00000</ele>
      </trkpt>
      <trkpt lat="38.68738100" lon="-6.36317700">
        <ele>374.00000</ele>
      </trkpt>
      <trkpt lat="38.68733500" lon="-6.36317600">
        <ele>374.00000</ele>
      </trkpt>
      <trkpt lat="38.68725200" lon="-6.36317299">
        <ele>374.00000</ele>
      </trkpt>
      <trkpt lat="38.68691700" lon="-6.36316200">
        <ele>372.00000</ele>
      </trkpt>
      <trkpt lat="38.68644300" lon="-6.36314400">
        <ele>371.00000</ele>
      </trkpt>
      <trkpt lat="38.68640600" lon="-6.36314400">
        <ele>371.00000</ele>
      </trkpt>
      <trkpt lat="38.68630800" lon="-6.36314300">
        <ele>371.00000</ele>
      </trkpt>
      <trkpt lat="38.68608700" lon="-6.36313500">
        <ele>372.00000</ele>
      </trkpt>
      <trkpt lat="38.68604300" lon="-6.36313100">
        <ele>372.00000</ele>
      </trkpt>
      <trkpt lat="38.68582000" lon="-6.36312599">
        <ele>372.00000</ele>
      </trkpt>
      <trkpt lat="38.68574000" lon="-6.36312799">
        <ele>372.00000</ele>
      </trkpt>
      <trkpt lat="38.68542600" lon="-6.36312400">
        <ele>371.00000</ele>
      </trkpt>
      <trkpt lat="38.68530600" lon="-6.36312599">
        <ele>371.00000</ele>
      </trkpt>
      <trkpt lat="38.68510200" lon="-6.36311599">
        <ele>371.00000</ele>
      </trkpt>
      <trkpt lat="38.68498100" lon="-6.36311300">
        <ele>371.00000</ele>
      </trkpt>
      <trkpt lat="38.68481700" lon="-6.36311000">
        <ele>371.00000</ele>
      </trkpt>
      <trkpt lat="38.68470200" lon="-6.36310300">
        <ele>371.00000</ele>
      </trkpt>
      <trkpt lat="38.68459300" lon="-6.36310100">
        <ele>371.00000</ele>
      </trkpt>
      <trkpt lat="38.68455600" lon="-6.36309900">
        <ele>371.00000</ele>
      </trkpt>
      <trkpt lat="38.68437500" lon="-6.36308900">
        <ele>370.00000</ele>
      </trkpt>
      <trkpt lat="38.68425600" lon="-6.36309100">
        <ele>369.00000</ele>
      </trkpt>
      <trkpt lat="38.68400200" lon="-6.36310399">
        <ele>370.00000</ele>
      </trkpt>
      <trkpt lat="38.68382300" lon="-6.36310000">
        <ele>371.00000</ele>
      </trkpt>
      <trkpt lat="38.68364500" lon="-6.36307600">
        <ele>372.00000</ele>
      </trkpt>
      <trkpt lat="38.68358200" lon="-6.36307400">
        <ele>373.00000</ele>
      </trkpt>
      <trkpt lat="38.68347400" lon="-6.36307099">
        <ele>374.00000</ele>
      </trkpt>
      <trkpt lat="38.68341500" lon="-6.36306899">
        <ele>375.00000</ele>
      </trkpt>
      <trkpt lat="38.68334100" lon="-6.36306700">
        <ele>375.00000</ele>
      </trkpt>
      <trkpt lat="38.68324000" lon="-6.36305600">
        <ele>375.00000</ele>
      </trkpt>
      <trkpt lat="38.68313700" lon="-6.36305300">
        <ele>375.00000</ele>
      </trkpt>
      <trkpt lat="38.68303700" lon="-6.36305100">
        <ele>376.00000</ele>
      </trkpt>
      <trkpt lat="38.68297200" lon="-6.36304600">
        <ele>376.00000</ele>
      </trkpt>
      <trkpt lat="38.68280200" lon="-6.36303100">
        <ele>376.00000</ele>
      </trkpt>
      <trkpt lat="38.68278200" lon="-6.36303100">
        <ele>376.00000</ele>
      </trkpt>
      <trkpt lat="38.68273500" lon="-6.36303300">
        <ele>375.00000</ele>
      </trkpt>
      <trkpt lat="38.68267400" lon="-6.36303300">
        <ele>375.00000</ele>
      </trkpt>
      <trkpt lat="38.68249900" lon="-6.36303100">
        <ele>375.00000</ele>
      </trkpt>
      <trkpt lat="38.68242600" lon="-6.36302700">
        <ele>375.00000</ele>
      </trkpt>
      <trkpt lat="38.68222400" lon="-6.36303400">
        <ele>375.00000</ele>
      </trkpt>
      <trkpt lat="38.68205400" lon="-6.36302500">
        <ele>375.00000</ele>
      </trkpt>
      <trkpt lat="38.68197800" lon="-6.36303000">
        <ele>375.00000</ele>
      </trkpt>
      <trkpt lat="38.68176600" lon="-6.36301800">
        <ele>375.00000</ele>
      </trkpt>
      <trkpt lat="38.68173000" lon="-6.36301900">
        <ele>375.00000</ele>
      </trkpt>
      <trkpt lat="38.68158600" lon="-6.36301600">
        <ele>375.00000</ele>
      </trkpt>
      <trkpt lat="38.68148000" lon="-6.36301000">
        <ele>375.00000</ele>
      </trkpt>
      <trkpt lat="38.68133900" lon="-6.36300000">
        <ele>376.00000</ele>
      </trkpt>
      <trkpt lat="38.68119800" lon="-6.36297899">
        <ele>376.00000</ele>
      </trkpt>
      <trkpt lat="38.68094000" lon="-6.36297799">
        <ele>375.00000</ele>
      </trkpt>
      <trkpt lat="38.68087500" lon="-6.36297400">
        <ele>375.00000</ele>
      </trkpt>
      <trkpt lat="38.68063900" lon="-6.36295600">
        <ele>376.00000</ele>
      </trkpt>
      <trkpt lat="38.68052900" lon="-6.36295300">
        <ele>376.00000</ele>
      </trkpt>
      <trkpt lat="38.68036800" lon="-6.36295000">
        <ele>377.00000</ele>
      </trkpt>
      <trkpt lat="38.68021800" lon="-6.36294600">
        <ele>378.00000</ele>
      </trkpt>
      <trkpt lat="38.67988200" lon="-6.36293000">
        <ele>378.00000</ele>
      </trkpt>
      <trkpt lat="38.67984300" lon="-6.36292900">
        <ele>378.00000</ele>
      </trkpt>
      <trkpt lat="38.67969200" lon="-6.36292399">
        <ele>377.00000</ele>
      </trkpt>
      <trkpt lat="38.67943300" lon="-6.36292099">
        <ele>375.00000</ele>
      </trkpt>
      <trkpt lat="38.67938600" lon="-6.36292500">
        <ele>375.00000</ele>
      </trkpt>
      <trkpt lat="38.67922700" lon="-6.36292800">
        <ele>375.00000</ele>
      </trkpt>
      <trkpt lat="38.67918700" lon="-6.36292800">
        <ele>375.00000</ele>
      </trkpt>
      <trkpt lat="38.67914600" lon="-6.36293100">
        <ele>374.00000</ele>
      </trkpt>
      <trkpt lat="38.67894900" lon="-6.36292900">
        <ele>374.00000</ele>
      </trkpt>
      <trkpt lat="38.67888000" lon="-6.36293100">
        <ele>374.00000</ele>
      </trkpt>
      <trkpt lat="38.67865400" lon="-6.36292099">
        <ele>375.00000</ele>
      </trkpt>
      <trkpt lat="38.67828100" lon="-6.36290100">
        <ele>376.00000</ele>
      </trkpt>
      <trkpt lat="38.67786800" lon="-6.36287500">
        <ele>378.00000</ele>
      </trkpt>
      <trkpt lat="38.67769700" lon="-6.36286100">
        <ele>378.00000</ele>
      </trkpt>
      <trkpt lat="38.67767400" lon="-6.36286300">
        <ele>378.00000</ele>
      </trkpt>
      <trkpt lat="38.67752100" lon="-6.36284299">
        <ele>378.00000</ele>
      </trkpt>
      <trkpt lat="38.67731500" lon="-6.36282400">
        <ele>377.00000</ele>
      </trkpt>
      <trkpt lat="38.67702900" lon="-6.36280900">
        <ele>376.00000</ele>
      </trkpt>
      <trkpt lat="38.67686000" lon="-6.36278900">
        <ele>375.00000</ele>
      </trkpt>
      <trkpt lat="38.67667200" lon="-6.36276800">
        <ele>374.00000</ele>
      </trkpt>
      <trkpt lat="38.67657400" lon="-6.36276199">
        <ele>373.00000</ele>
      </trkpt>
      <trkpt lat="38.67626200" lon="-6.36275299">
        <ele>371.00000</ele>
      </trkpt>
      <trkpt lat="38.67598400" lon="-6.36274800">
        <ele>371.00000</ele>
      </trkpt>
      <trkpt lat="38.67575800" lon="-6.36273700">
        <ele>370.00000</ele>
      </trkpt>
      <trkpt lat="38.67558000" lon="-6.36272700">
        <ele>369.00000</ele>
      </trkpt>
      <trkpt lat="38.67530600" lon="-6.36271000">
        <ele>371.00000</ele>
      </trkpt>
      <trkpt lat="38.67519000" lon="-6.36270800">
        <ele>371.00000</ele>
      </trkpt>
      <trkpt lat="38.67507800" lon="-6.36270100">
        <ele>371.00000</ele>
      </trkpt>
      <trkpt lat="38.67480600" lon="-6.36269299">
        <ele>370.00000</ele>
      </trkpt>
      <trkpt lat="38.67469700" lon="-6.36268800">
        <ele>370.00000</ele>
      </trkpt>
      <trkpt lat="38.67446600" lon="-6.36267700">
        <ele>370.00000</ele>
      </trkpt>
      <trkpt lat="38.67425100" lon="-6.36267700">
        <ele>369.00000</ele>
      </trkpt>
      <trkpt lat="38.67413600" lon="-6.36267300">
        <ele>369.00000</ele>
      </trkpt>
      <trkpt lat="38.67385400" lon="-6.36267400">
        <ele>367.00000</ele>
      </trkpt>
      <trkpt lat="38.67362200" lon="-6.36266200">
        <ele>366.00000</ele>
      </trkpt>
      <trkpt lat="38.67356200" lon="-6.36265900">
        <ele>365.00000</ele>
      </trkpt>
      <trkpt lat="38.67350200" lon="-6.36265500">
        <ele>365.00000</ele>
      </trkpt>
      <trkpt lat="38.67336400" lon="-6.36264400">
        <ele>365.00000</ele>
      </trkpt>
      <trkpt lat="38.67331300" lon="-6.36263500">
        <ele>365.00000</ele>
      </trkpt>
      <trkpt lat="38.67317000" lon="-6.36262100">
        <ele>364.00000</ele>
      </trkpt>
      <trkpt lat="38.67311800" lon="-6.36262400">
        <ele>364.00000</ele>
      </trkpt>
      <trkpt lat="38.67299500" lon="-6.36262600">
        <ele>364.00000</ele>
      </trkpt>
      <trkpt lat="38.67275000" lon="-6.36261400">
        <ele>362.00000</ele>
      </trkpt>
      <trkpt lat="38.67268500" lon="-6.36261800">
        <ele>362.00000</ele>
      </trkpt>
      <trkpt lat="38.67243000" lon="-6.36262300">
        <ele>362.00000</ele>
      </trkpt>
      <trkpt lat="38.67217300" lon="-6.36260400">
        <ele>362.00000</ele>
      </trkpt>
      <trkpt lat="38.67212100" lon="-6.36260299">
        <ele>362.00000</ele>
      </trkpt>
      <trkpt lat="38.67205800" lon="-6.36260299">
        <ele>362.00000</ele>
      </trkpt>
      <trkpt lat="38.67180000" lon="-6.36259500">
        <ele>362.00000</ele>
      </trkpt>
      <trkpt lat="38.67166900" lon="-6.36258600">
        <ele>361.00000</ele>
      </trkpt>
      <trkpt lat="38.67153800" lon="-6.36257200">
        <ele>361.00000</ele>
      </trkpt>
      <trkpt lat="38.67126900" lon="-6.36257400">
        <ele>360.00000</ele>
      </trkpt>
      <trkpt lat="38.67116100" lon="-6.36256600">
        <ele>360.00000</ele>
      </trkpt>
      <trkpt lat="38.67104100" lon="-6.36256300">
        <ele>360.00000</ele>
      </trkpt>
      <trkpt lat="38.67080600" lon="-6.36255100">
        <ele>361.00000</ele>
      </trkpt>
      <trkpt lat="38.67058500" lon="-6.36253900">
        <ele>362.00000</ele>
      </trkpt>
      <trkpt lat="38.67047600" lon="-6.36254599">
        <ele>362.00000</ele>
      </trkpt>
      <trkpt lat="38.67019900" lon="-6.36252199">
        <ele>362.00000</ele>
      </trkpt>
      <trkpt lat="38.67015600" lon="-6.36252600">
        <ele>362.00000</ele>
      </trkpt>
      <trkpt lat="38.66984000" lon="-6.36250800">
        <ele>361.00000</ele>
      </trkpt>
      <trkpt lat="38.66957100" lon="-6.36252299">
        <ele>360.00000</ele>
      </trkpt>
      <trkpt lat="38.66951600" lon="-6.36251700">
        <ele>360.00000</ele>
      </trkpt>
      <trkpt lat="38.66940700" lon="-6.36250099">
        <ele>360.00000</ele>
      </trkpt>
      <trkpt lat="38.66924000" lon="-6.36249700">
        <ele>360.00000</ele>
      </trkpt>
      <trkpt lat="38.66917400" lon="-6.36249100">
        <ele>360.00000</ele>
      </trkpt>
      <trkpt lat="38.66902100" lon="-6.36247600">
        <ele>361.00000</ele>
      </trkpt>
      <trkpt lat="38.66880300" lon="-6.36245300">
        <ele>361.00000</ele>
      </trkpt>
      <trkpt lat="38.66857800" lon="-6.36245100">
        <ele>361.00000</ele>
      </trkpt>
      <trkpt lat="38.66830100" lon="-6.36243199">
        <ele>360.00000</ele>
      </trkpt>
      <trkpt lat="38.66809000" lon="-6.36242800">
        <ele>360.00000</ele>
      </trkpt>
      <trkpt lat="38.66798800" lon="-6.36242199">
        <ele>360.00000</ele>
      </trkpt>
      <trkpt lat="38.66792400" lon="-6.36241400">
        <ele>361.00000</ele>
      </trkpt>
      <trkpt lat="38.66771400" lon="-6.36239300">
        <ele>362.00000</ele>
      </trkpt>
      <trkpt lat="38.66765800" lon="-6.36239300">
        <ele>362.00000</ele>
      </trkpt>
      <trkpt lat="38.66732100" lon="-6.36237800">
        <ele>359.00000</ele>
      </trkpt>
      <trkpt lat="38.66722800" lon="-6.36236900">
        <ele>358.00000</ele>
      </trkpt>
      <trkpt lat="38.66717600" lon="-6.36237100">
        <ele>358.00000</ele>
      </trkpt>
      <trkpt lat="38.66681300" lon="-6.36237499">
        <ele>356.00000</ele>
      </trkpt>
      <trkpt lat="38.66665700" lon="-6.36236800">
        <ele>356.00000</ele>
      </trkpt>
      <trkpt lat="38.66630200" lon="-6.36237100">
        <ele>356.00000</ele>
      </trkpt>
      <trkpt lat="38.66625100" lon="-6.36236900">
        <ele>356.00000</ele>
      </trkpt>
      <trkpt lat="38.66590900" lon="-6.36236100">
        <ele>356.00000</ele>
      </trkpt>
      <trkpt lat="38.66571300" lon="-6.36234700">
        <ele>357.00000</ele>
      </trkpt>
      <trkpt lat="38.66556800" lon="-6.36234800">
        <ele>357.00000</ele>
      </trkpt>
      <trkpt lat="38.66515400" lon="-6.36232100">
        <ele>358.00000</ele>
      </trkpt>
      <trkpt lat="38.66505500" lon="-6.36231900">
        <ele>357.00000</ele>
      </trkpt>
      <trkpt lat="38.66478200" lon="-6.36229699">
        <ele>357.00000</ele>
      </trkpt>
      <trkpt lat="38.66472600" lon="-6.36228900">
        <ele>357.00000</ele>
      </trkpt>
      <trkpt lat="38.66440400" lon="-6.36228300">
        <ele>357.00000</ele>
      </trkpt>
      <trkpt lat="38.66435800" lon="-6.36228100">
        <ele>357.00000</ele>
      </trkpt>
      <trkpt lat="38.66415800" lon="-6.36227200">
        <ele>356.00000</ele>
      </trkpt>
      <trkpt lat="38.66401900" lon="-6.36227100">
        <ele>356.00000</ele>
      </trkpt>
      <trkpt lat="38.66386900" lon="-6.36226600">
        <ele>356.00000</ele>
      </trkpt>
      <trkpt lat="38.66371600" lon="-6.36226099">
        <ele>356.00000</ele>
      </trkpt>
      <trkpt lat="38.66355200" lon="-6.36224700">
        <ele>356.00000</ele>
      </trkpt>
      <trkpt lat="38.66325000" lon="-6.36223999">
        <ele>355.00000</ele>
      </trkpt>
      <trkpt lat="38.66309200" lon="-6.36222700">
        <ele>355.00000</ele>
      </trkpt>
      <trkpt lat="38.66288800" lon="-6.36222799">
        <ele>355.00000</ele>
      </trkpt>
      <trkpt lat="38.66274300" lon="-6.36222200">
        <ele>355.00000</ele>
      </trkpt>
      <trkpt lat="38.66268600" lon="-6.36221599">
        <ele>355.00000</ele>
      </trkpt>
      <trkpt lat="38.66250900" lon="-6.36220200">
        <ele>356.00000</ele>
      </trkpt>
      <trkpt lat="38.66246500" lon="-6.36219500">
        <ele>357.00000</ele>
      </trkpt>
      <trkpt lat="38.66229000" lon="-6.36217400">
        <ele>357.00000</ele>
      </trkpt>
      <trkpt lat="38.66217100" lon="-6.36218800">
        <ele>358.00000</ele>
      </trkpt>
      <trkpt lat="38.66201900" lon="-6.36218299">
        <ele>358.00000</ele>
      </trkpt>
      <trkpt lat="38.66198200" lon="-6.36217700">
        <ele>358.00000</ele>
      </trkpt>
      <trkpt lat="38.66189700" lon="-6.36216300">
        <ele>358.00000</ele>
      </trkpt>
      <trkpt lat="38.66164100" lon="-6.36216500">
        <ele>359.00000</ele>
      </trkpt>
      <trkpt lat="38.66154600" lon="-6.36215800">
        <ele>359.00000</ele>
      </trkpt>
      <trkpt lat="38.66144600" lon="-6.36214899">
        <ele>360.00000</ele>
      </trkpt>
      <trkpt lat="38.66131000" lon="-6.36214100">
        <ele>360.00000</ele>
      </trkpt>
      <trkpt lat="38.66107700" lon="-6.36214100">
        <ele>362.00000</ele>
      </trkpt>
      <trkpt lat="38.66080500" lon="-6.36213400">
        <ele>362.00000</ele>
      </trkpt>
      <trkpt lat="38.66063000" lon="-6.36212400">
        <ele>362.00000</ele>
      </trkpt>
      <trkpt lat="38.66052400" lon="-6.36212000">
        <ele>362.00000</ele>
      </trkpt>
      <trkpt lat="38.66037900" lon="-6.36212000">
        <ele>361.00000</ele>
      </trkpt>
      <trkpt lat="38.66026800" lon="-6.36211200">
        <ele>361.00000</ele>
      </trkpt>
      <trkpt lat="38.66000200" lon="-6.36210400">
        <ele>361.00000</ele>
      </trkpt>
      <trkpt lat="38.65995700" lon="-6.36210300">
        <ele>361.00000</ele>
      </trkpt>
      <trkpt lat="38.65985300" lon="-6.36209900">
        <ele>361.00000</ele>
      </trkpt>
      <trkpt lat="38.65977600" lon="-6.36209500">
        <ele>361.00000</ele>
      </trkpt>
      <trkpt lat="38.65954600" lon="-6.36208700">
        <ele>361.00000</ele>
      </trkpt>
      <trkpt lat="38.65941900" lon="-6.36207999">
        <ele>362.00000</ele>
      </trkpt>
      <trkpt lat="38.65930700" lon="-6.36207000">
        <ele>362.00000</ele>
      </trkpt>
      <trkpt lat="38.65920000" lon="-6.36204600">
        <ele>362.00000</ele>
      </trkpt>
      <trkpt lat="38.65913100" lon="-6.36202099">
        <ele>362.00000</ele>
      </trkpt>
      <trkpt lat="38.65908100" lon="-6.36204000">
        <ele>362.00000</ele>
      </trkpt>
      <trkpt lat="38.65886800" lon="-6.36207400">
        <ele>362.00000</ele>
      </trkpt>
      <trkpt lat="38.65851800" lon="-6.36205400">
        <ele>361.00000</ele>
      </trkpt>
      <trkpt lat="38.65829600" lon="-6.36204699">
        <ele>361.00000</ele>
      </trkpt>
      <trkpt lat="38.65812800" lon="-6.36204499">
        <ele>362.00000</ele>
      </trkpt>
      <trkpt lat="38.65799300" lon="-6.36204000">
        <ele>362.00000</ele>
      </trkpt>
      <trkpt lat="38.65777900" lon="-6.36203000">
        <ele>361.00000</ele>
      </trkpt>
      <trkpt lat="38.65759800" lon="-6.36202200">
        <ele>360.00000</ele>
      </trkpt>
      <trkpt lat="38.65722000" lon="-6.36199700">
        <ele>358.00000</ele>
      </trkpt>
      <trkpt lat="38.65684500" lon="-6.36201700">
        <ele>357.00000</ele>
      </trkpt>
      <trkpt lat="38.65669200" lon="-6.36200700">
        <ele>357.00000</ele>
      </trkpt>
      <trkpt lat="38.65650500" lon="-6.36196900">
        <ele>357.00000</ele>
      </trkpt>
      <trkpt lat="38.65640500" lon="-6.36194500">
        <ele>357.00000</ele>
      </trkpt>
      <trkpt lat="38.65622800" lon="-6.36192900">
        <ele>358.00000</ele>
      </trkpt>
      <trkpt lat="38.65602900" lon="-6.36192600">
        <ele>358.00000</ele>
      </trkpt>
      <trkpt lat="38.65593000" lon="-6.36191200">
        <ele>358.00000</ele>
      </trkpt>
      <trkpt lat="38.65572400" lon="-6.36190899">
        <ele>359.00000</ele>
      </trkpt>
      <trkpt lat="38.65553200" lon="-6.36190400">
        <ele>359.00000</ele>
      </trkpt>
      <trkpt lat="38.65547800" lon="-6.36189900">
        <ele>359.00000</ele>
      </trkpt>
      <trkpt lat="38.65526600" lon="-6.36188700">
        <ele>359.00000</ele>
      </trkpt>
      <trkpt lat="38.65523500" lon="-6.36188700">
        <ele>359.00000</ele>
      </trkpt>
      <trkpt lat="38.65507800" lon="-6.36187399">
        <ele>360.00000</ele>
      </trkpt>
      <trkpt lat="38.65501700" lon="-6.36186900">
        <ele>360.00000</ele>
      </trkpt>
      <trkpt lat="38.65494000" lon="-6.36186800">
        <ele>361.00000</ele>
      </trkpt>
      <trkpt lat="38.65487800" lon="-6.36186100">
        <ele>361.00000</ele>
      </trkpt>
      <trkpt lat="38.65479400" lon="-6.36185600">
        <ele>362.00000</ele>
      </trkpt>
      <trkpt lat="38.65471000" lon="-6.36185600">
        <ele>363.00000</ele>
      </trkpt>
      <trkpt lat="38.65467900" lon="-6.36185500">
        <ele>363.00000</ele>
      </trkpt>
      <trkpt lat="38.65452300" lon="-6.36185000">
        <ele>363.00000</ele>
      </trkpt>
      <trkpt lat="38.65447000" lon="-6.36185000">
        <ele>363.00000</ele>
      </trkpt>
      <trkpt lat="38.65440200" lon="-6.36184800">
        <ele>363.00000</ele>
      </trkpt>
      <trkpt lat="38.65423700" lon="-6.36184200">
        <ele>363.00000</ele>
      </trkpt>
      <trkpt lat="38.65409100" lon="-6.36184600">
        <ele>363.00000</ele>
      </trkpt>
      <trkpt lat="38.65387100" lon="-6.36184099">
        <ele>363.00000</ele>
      </trkpt>
      <trkpt lat="38.65383400" lon="-6.36183800">
        <ele>363.00000</ele>
      </trkpt>
      <trkpt lat="38.65361000" lon="-6.36182500">
        <ele>363.00000</ele>
      </trkpt>
      <trkpt lat="38.65353200" lon="-6.36184300">
        <ele>363.00000</ele>
      </trkpt>
      <trkpt lat="38.65324900" lon="-6.36184300">
        <ele>363.00000</ele>
      </trkpt>
      <trkpt lat="38.65292900" lon="-6.36183000">
        <ele>361.00000</ele>
      </trkpt>
      <trkpt lat="38.65279600" lon="-6.36182000">
        <ele>361.00000</ele>
      </trkpt>
      <trkpt lat="38.65231000" lon="-6.36179900">
        <ele>363.00000</ele>
      </trkpt>
      <trkpt lat="38.65191600" lon="-6.36178200">
        <ele>363.00000</ele>
      </trkpt>
      <trkpt lat="38.65169700" lon="-6.36177100">
        <ele>363.00000</ele>
      </trkpt>
      <trkpt lat="38.65144700" lon="-6.36175300">
        <ele>363.00000</ele>
      </trkpt>
      <trkpt lat="38.65140400" lon="-6.36174600">
        <ele>363.00000</ele>
      </trkpt>
      <trkpt lat="38.65121700" lon="-6.36174999">
        <ele>364.00000</ele>
      </trkpt>
      <trkpt lat="38.65117000" lon="-6.36175100">
        <ele>364.00000</ele>
      </trkpt>
      <trkpt lat="38.65075200" lon="-6.36173100">
        <ele>362.00000</ele>
      </trkpt>
      <trkpt lat="38.65029100" lon="-6.36173900">
        <ele>362.00000</ele>
      </trkpt>
      <trkpt lat="38.65006000" lon="-6.36173400">
        <ele>362.00000</ele>
      </trkpt>
      <trkpt lat="38.64984800" lon="-6.36172300">
        <ele>362.00000</ele>
      </trkpt>
      <trkpt lat="38.64968300" lon="-6.36169700">
        <ele>362.00000</ele>
      </trkpt>
      <trkpt lat="38.64957200" lon="-6.36166500">
        <ele>363.00000</ele>
      </trkpt>
      <trkpt lat="38.64938500" lon="-6.36160500">
        <ele>363.00000</ele>
      </trkpt>
      <trkpt lat="38.64924700" lon="-6.36153900">
        <ele>364.00000</ele>
      </trkpt>
      <trkpt lat="38.64921100" lon="-6.36152100">
        <ele>364.00000</ele>
      </trkpt>
      <trkpt lat="38.64887900" lon="-6.36139700">
        <ele>364.00000</ele>
      </trkpt>
      <trkpt lat="38.64873500" lon="-6.36134600">
        <ele>365.00000</ele>
      </trkpt>
      <trkpt lat="38.64865900" lon="-6.36131500">
        <ele>365.00000</ele>
      </trkpt>
      <trkpt lat="38.64854800" lon="-6.36126800">
        <ele>366.00000</ele>
      </trkpt>
      <trkpt lat="38.64844000" lon="-6.36122799">
        <ele>366.00000</ele>
      </trkpt>
      <trkpt lat="38.64819600" lon="-6.36110900">
        <ele>365.00000</ele>
      </trkpt>
      <trkpt lat="38.64808000" lon="-6.36103500">
        <ele>365.00000</ele>
      </trkpt>
      <trkpt lat="38.64789800" lon="-6.36090400">
        <ele>364.00000</ele>
      </trkpt>
      <trkpt lat="38.64786000" lon="-6.36087200">
        <ele>364.00000</ele>
      </trkpt>
      <trkpt lat="38.64774700" lon="-6.36076400">
        <ele>364.00000</ele>
      </trkpt>
      <trkpt lat="38.64755300" lon="-6.36056699">
        <ele>364.00000</ele>
      </trkpt>
      <trkpt lat="38.64731900" lon="-6.36032500">
        <ele>363.00000</ele>
      </trkpt>
      <trkpt lat="38.64720600" lon="-6.36019300">
        <ele>362.00000</ele>
      </trkpt>
      <trkpt lat="38.64687700" lon="-6.35986500">
        <ele>360.00000</ele>
      </trkpt>
      <trkpt lat="38.64666700" lon="-6.35968400">
        <ele>360.00000</ele>
      </trkpt>
      <trkpt lat="38.64658500" lon="-6.35962500">
        <ele>360.00000</ele>
      </trkpt>
      <trkpt lat="38.64654300" lon="-6.35960600">
        <ele>360.00000</ele>
      </trkpt>
      <trkpt lat="38.64636800" lon="-6.35953700">
        <ele>361.00000</ele>
      </trkpt>
      <trkpt lat="38.64635800" lon="-6.35953500">
        <ele>361.00000</ele>
      </trkpt>
      <trkpt lat="38.64631500" lon="-6.35954099">
        <ele>361.00000</ele>
      </trkpt>
      <trkpt lat="38.64625500" lon="-6.35954200">
        <ele>361.00000</ele>
      </trkpt>
      <trkpt lat="38.64607400" lon="-6.35954600">
        <ele>362.00000</ele>
      </trkpt>
      <trkpt lat="38.64603700" lon="-6.35955100">
        <ele>362.00000</ele>
      </trkpt>
      <trkpt lat="38.64573800" lon="-6.35959700">
        <ele>362.00000</ele>
      </trkpt>
      <trkpt lat="38.64554300" lon="-6.35963200">
        <ele>361.00000</ele>
      </trkpt>
      <trkpt lat="38.64534700" lon="-6.35966699">
        <ele>360.00000</ele>
      </trkpt>
      <trkpt lat="38.64520800" lon="-6.35969600">
        <ele>360.00000</ele>
      </trkpt>
      <trkpt lat="38.64486100" lon="-6.35977300">
        <ele>360.00000</ele>
      </trkpt>
      <trkpt lat="38.64440500" lon="-6.35987500">
        <ele>358.00000</ele>
      </trkpt>
      <trkpt lat="38.64426400" lon="-6.35990400">
        <ele>359.00000</ele>
      </trkpt>
      <trkpt lat="38.64407400" lon="-6.35990600">
        <ele>360.00000</ele>
      </trkpt>
      <trkpt lat="38.64393700" lon="-6.35988299">
        <ele>362.00000</ele>
      </trkpt>
      <trkpt lat="38.64380500" lon="-6.35984300">
        <ele>362.00000</ele>
      </trkpt>
      <trkpt lat="38.64345200" lon="-6.35976300">
        <ele>364.00000</ele>
      </trkpt>
      <trkpt lat="38.64321200" lon="-6.35974599">
        <ele>364.00000</ele>
      </trkpt>
      <trkpt lat="38.64297700" lon="-6.35973700">
        <ele>363.00000</ele>
      </trkpt>
      <trkpt lat="38.64288500" lon="-6.35974400">
        <ele>363.00000</ele>
      </trkpt>
      <trkpt lat="38.64279900" lon="-6.35974300">
        <ele>363.00000</ele>
      </trkpt>
      <trkpt lat="38.64271400" lon="-6.35974799">
        <ele>362.00000</ele>
      </trkpt>
      <trkpt lat="38.64260400" lon="-6.35976600">
        <ele>362.00000</ele>
      </trkpt>
      <trkpt lat="38.64247700" lon="-6.35983200">
        <ele>362.00000</ele>
      </trkpt>
      <trkpt lat="38.64245000" lon="-6.35985900">
        <ele>362.00000</ele>
      </trkpt>
      <trkpt lat="38.64228000" lon="-6.35998100">
        <ele>363.00000</ele>
      </trkpt>
      <trkpt lat="38.64214400" lon="-6.36006599">
        <ele>362.00000</ele>
      </trkpt>
      <trkpt lat="38.64204600" lon="-6.36011800">
        <ele>362.00000</ele>
      </trkpt>
      <trkpt lat="38.64185600" lon="-6.36020500">
        <ele>361.00000</ele>
      </trkpt>
      <trkpt lat="38.64175000" lon="-6.36024800">
        <ele>361.00000</ele>
      </trkpt>
      <trkpt lat="38.64141900" lon="-6.36039000">
        <ele>361.00000</ele>
      </trkpt>
      <trkpt lat="38.64131200" lon="-6.36045000">
        <ele>362.00000</ele>
      </trkpt>
      <trkpt lat="38.64107200" lon="-6.36060999">
        <ele>362.00000</ele>
      </trkpt>
      <trkpt lat="38.64098800" lon="-6.36068099">
        <ele>362.00000</ele>
      </trkpt>
      <trkpt lat="38.64098200" lon="-6.36068600">
        <ele>362.00000</ele>
      </trkpt>
      <trkpt lat="38.64103700" lon="-6.36064400">
        <ele>362.00000</ele>
      </trkpt>
      <trkpt lat="38.64105300" lon="-6.36063200">
        <ele>362.00000</ele>
      </trkpt>
      <trkpt lat="38.64116900" lon="-6.36054500">
        <ele>362.00000</ele>
      </trkpt>
      <trkpt lat="38.64138700" lon="-6.36040400">
        <ele>362.00000</ele>
      </trkpt>
      <trkpt lat="38.64169000" lon="-6.36026800">
        <ele>361.00000</ele>
      </trkpt>
      <trkpt lat="38.64198700" lon="-6.36015300">
        <ele>362.00000</ele>
      </trkpt>
      <trkpt lat="38.64203300" lon="-6.36013000">
        <ele>362.00000</ele>
      </trkpt>
      <trkpt lat="38.64233400" lon="-6.35995500">
        <ele>363.00000</ele>
      </trkpt>
      <trkpt lat="38.64237200" lon="-6.35992200">
        <ele>362.00000</ele>
      </trkpt>
      <trkpt lat="38.64244100" lon="-6.35985600">
        <ele>362.00000</ele>
      </trkpt>
      <trkpt lat="38.64248300" lon="-6.35977700">
        <ele>361.00000</ele>
      </trkpt>
      <trkpt lat="38.64248900" lon="-6.35972800">
        <ele>361.00000</ele>
      </trkpt>
      <trkpt lat="38.64248300" lon="-6.35967800">
        <ele>360.00000</ele>
      </trkpt>
      <trkpt lat="38.64243500" lon="-6.35958400">
        <ele>360.00000</ele>
      </trkpt>
      <trkpt lat="38.64232900" lon="-6.35936099">
        <ele>358.00000</ele>
      </trkpt>
      <trkpt lat="38.64230200" lon="-6.35930300">
        <ele>358.00000</ele>
      </trkpt>
      <trkpt lat="38.64215300" lon="-6.35902900">
        <ele>357.00000</ele>
      </trkpt>
      <trkpt lat="38.64203300" lon="-6.35881500">
        <ele>357.00000</ele>
      </trkpt>
      <trkpt lat="38.64184000" lon="-6.35847700">
        <ele>358.00000</ele>
      </trkpt>
      <trkpt lat="38.64179300" lon="-6.35838400">
        <ele>359.00000</ele>
      </trkpt>
      <trkpt lat="38.64170500" lon="-6.35826500">
        <ele>360.00000</ele>
      </trkpt>
      <trkpt lat="38.64158400" lon="-6.35804200">
        <ele>360.00000</ele>
      </trkpt>
      <trkpt lat="38.64149200" lon="-6.35786600">
        <ele>360.00000</ele>
      </trkpt>
      <trkpt lat="38.64129500" lon="-6.35749700">
        <ele>358.00000</ele>
      </trkpt>
      <trkpt lat="38.64113700" lon="-6.35722700">
        <ele>357.00000</ele>
      </trkpt>
      <trkpt lat="38.64098300" lon="-6.35691100">
        <ele>357.00000</ele>
      </trkpt>
      <trkpt lat="38.64096100" lon="-6.35687799">
        <ele>357.00000</ele>
      </trkpt>
      <trkpt lat="38.64080300" lon="-6.35660000">
        <ele>357.00000</ele>
      </trkpt>
      <trkpt lat="38.64070300" lon="-6.35640200">
        <ele>357.00000</ele>
      </trkpt>
      <trkpt lat="38.64066000" lon="-6.35631700">
        <ele>358.00000</ele>
      </trkpt>
      <trkpt lat="38.64060300" lon="-6.35620799">
        <ele>359.00000</ele>
      </trkpt>
      <trkpt lat="38.64058600" lon="-6.35618600">
        <ele>359.00000</ele>
      </trkpt>
      <trkpt lat="38.64050600" lon="-6.35603900">
        <ele>360.00000</ele>
      </trkpt>
      <trkpt lat="38.64047300" lon="-6.35597600">
        <ele>361.00000</ele>
      </trkpt>
      <trkpt lat="38.64038800" lon="-6.35582200">
        <ele>363.00000</ele>
      </trkpt>
      <trkpt lat="38.64037800" lon="-6.35580100">
        <ele>363.00000</ele>
      </trkpt>
      <trkpt lat="38.64034700" lon="-6.35574800">
        <ele>364.00000</ele>
      </trkpt>
      <trkpt lat="38.64031700" lon="-6.35568600">
        <ele>364.00000</ele>
      </trkpt>
      <trkpt lat="38.64029800" lon="-6.35564600">
        <ele>365.00000</ele>
      </trkpt>
      <trkpt lat="38.64026500" lon="-6.35558200">
        <ele>365.00000</ele>
      </trkpt>
      <trkpt lat="38.64024400" lon="-6.35554000">
        <ele>366.00000</ele>
      </trkpt>
      <trkpt lat="38.64022400" lon="-6.35549700">
        <ele>366.00000</ele>
      </trkpt>
      <trkpt lat="38.64020000" lon="-6.35545799">
        <ele>366.00000</ele>
      </trkpt>
      <trkpt lat="38.64018900" lon="-6.35544000">
        <ele>366.00000</ele>
      </trkpt>
      <trkpt lat="38.64016500" lon="-6.35539899">
        <ele>366.00000</ele>
      </trkpt>
      <trkpt lat="38.64012800" lon="-6.35534000">
        <ele>366.00000</ele>
      </trkpt>
      <trkpt lat="38.64008400" lon="-6.35525900">
        <ele>366.00000</ele>
      </trkpt>
      <trkpt lat="38.64005800" lon="-6.35522500">
        <ele>366.00000</ele>
      </trkpt>
      <trkpt lat="38.64002900" lon="-6.35519500">
        <ele>366.00000</ele>
      </trkpt>
      <trkpt lat="38.64001900" lon="-6.35517500">
        <ele>366.00000</ele>
      </trkpt>
      <trkpt lat="38.64001000" lon="-6.35513000">
        <ele>366.00000</ele>
      </trkpt>
      <trkpt lat="38.63997800" lon="-6.35506400">
        <ele>367.00000</ele>
      </trkpt>
      <trkpt lat="38.63992500" lon="-6.35497600">
        <ele>367.00000</ele>
      </trkpt>
      <trkpt lat="38.63986100" lon="-6.35490600">
        <ele>367.00000</ele>
      </trkpt>
      <trkpt lat="38.63983900" lon="-6.35489000">
        <ele>367.00000</ele>
      </trkpt>
      <trkpt lat="38.63978500" lon="-6.35482200">
        <ele>368.00000</ele>
      </trkpt>
      <trkpt lat="38.63968600" lon="-6.35466800">
        <ele>367.00000</ele>
      </trkpt>
      <trkpt lat="38.63963400" lon="-6.35460900">
        <ele>366.00000</ele>
      </trkpt>
      <trkpt lat="38.63948300" lon="-6.35441600">
        <ele>364.00000</ele>
      </trkpt>
      <trkpt lat="38.63945700" lon="-6.35438300">
        <ele>363.00000</ele>
      </trkpt>
      <trkpt lat="38.63921800" lon="-6.35408300">
        <ele>363.00000</ele>
      </trkpt>
      <trkpt lat="38.63898100" lon="-6.35377900">
        <ele>364.00000</ele>
      </trkpt>
      <trkpt lat="38.63892600" lon="-6.35370700">
        <ele>364.00000</ele>
      </trkpt>
      <trkpt lat="38.63880900" lon="-6.35356300">
        <ele>363.00000</ele>
      </trkpt>
      <trkpt lat="38.63863000" lon="-6.35333899">
        <ele>362.00000</ele>
      </trkpt>
      <trkpt lat="38.63854200" lon="-6.35322900">
        <ele>362.00000</ele>
      </trkpt>
      <trkpt lat="38.63833800" lon="-6.35298600">
        <ele>363.00000</ele>
      </trkpt>
      <trkpt lat="38.63817200" lon="-6.35278200">
        <ele>363.00000</ele>
      </trkpt>
      <trkpt lat="38.63811800" lon="-6.35271600">
        <ele>364.00000</ele>
      </trkpt>
      <trkpt lat="38.63803500" lon="-6.35262900">
        <ele>364.00000</ele>
      </trkpt>
      <trkpt lat="38.63796700" lon="-6.35254500">
        <ele>364.00000</ele>
      </trkpt>
      <trkpt lat="38.63795400" lon="-6.35251100">
        <ele>364.00000</ele>
      </trkpt>
      <trkpt lat="38.63783700" lon="-6.35232300">
        <ele>364.00000</ele>
      </trkpt>
      <trkpt lat="38.63766600" lon="-6.35204700">
        <ele>364.00000</ele>
      </trkpt>
      <trkpt lat="38.63764300" lon="-6.35201200">
        <ele>364.00000</ele>
      </trkpt>
      <trkpt lat="38.63755700" lon="-6.35187600">
        <ele>365.00000</ele>
      </trkpt>
      <trkpt lat="38.63750900" lon="-6.35179600">
        <ele>365.00000</ele>
      </trkpt>
      <trkpt lat="38.63744300" lon="-6.35168700">
        <ele>364.00000</ele>
      </trkpt>
      <trkpt lat="38.63733000" lon="-6.35151000">
        <ele>364.00000</ele>
      </trkpt>
      <trkpt lat="38.63726000" lon="-6.35140599">
        <ele>364.00000</ele>
      </trkpt>
      <trkpt lat="38.63721300" lon="-6.35133600">
        <ele>363.00000</ele>
      </trkpt>
      <trkpt lat="38.63714400" lon="-6.35123000">
        <ele>363.00000</ele>
      </trkpt>
      <trkpt lat="38.63707900" lon="-6.35113300">
        <ele>363.00000</ele>
      </trkpt>
      <trkpt lat="38.63701300" lon="-6.35101500">
        <ele>363.00000</ele>
      </trkpt>
      <trkpt lat="38.63690100" lon="-6.35082500">
        <ele>362.00000</ele>
      </trkpt>
      <trkpt lat="38.63688000" lon="-6.35079200">
        <ele>362.00000</ele>
      </trkpt>
      <trkpt lat="38.63668500" lon="-6.35047900">
        <ele>361.00000</ele>
      </trkpt>
      <trkpt lat="38.63654300" lon="-6.35025000">
        <ele>361.00000</ele>
      </trkpt>
      <trkpt lat="38.63640600" lon="-6.35002500">
        <ele>361.00000</ele>
      </trkpt>
      <trkpt lat="38.63631900" lon="-6.34987999">
        <ele>362.00000</ele>
      </trkpt>
      <trkpt lat="38.63625100" lon="-6.34977599">
        <ele>362.00000</ele>
      </trkpt>
      <trkpt lat="38.63618200" lon="-6.34967200">
        <ele>362.00000</ele>
      </trkpt>
      <trkpt lat="38.63615800" lon="-6.34963500">
        <ele>362.00000</ele>
      </trkpt>
      <trkpt lat="38.63609000" lon="-6.34953000">
        <ele>363.00000</ele>
      </trkpt>
      <trkpt lat="38.63593400" lon="-6.34931200">
        <ele>363.00000</ele>
      </trkpt>
      <trkpt lat="38.63580200" lon="-6.34914199">
        <ele>363.00000</ele>
      </trkpt>
      <trkpt lat="38.63562300" lon="-6.34892500">
        <ele>363.00000</ele>
      </trkpt>
      <trkpt lat="38.63554400" lon="-6.34883200">
        <ele>364.00000</ele>
      </trkpt>
      <trkpt lat="38.63541100" lon="-6.34867000">
        <ele>365.00000</ele>
      </trkpt>
      <trkpt lat="38.63522100" lon="-6.34842900">
        <ele>365.00000</ele>
      </trkpt>
      <trkpt lat="38.63494500" lon="-6.34806700">
        <ele>366.00000</ele>
      </trkpt>
      <trkpt lat="38.63472100" lon="-6.34778300">
        <ele>367.00000</ele>
      </trkpt>
      <trkpt lat="38.63461600" lon="-6.34764600">
        <ele>366.00000</ele>
      </trkpt>
      <trkpt lat="38.63450900" lon="-6.34750600">
        <ele>366.00000</ele>
      </trkpt>
      <trkpt lat="38.63445600" lon="-6.34743500">
        <ele>365.00000</ele>
      </trkpt>
      <trkpt lat="38.63434700" lon="-6.34730000">
        <ele>365.00000</ele>
      </trkpt>
      <trkpt lat="38.63416700" lon="-6.34705400">
        <ele>364.00000</ele>
      </trkpt>
      <trkpt lat="38.63392900" lon="-6.34679300">
        <ele>363.00000</ele>
      </trkpt>
      <trkpt lat="38.63386400" lon="-6.34672700">
        <ele>364.00000</ele>
      </trkpt>
      <trkpt lat="38.63348300" lon="-6.34637500">
        <ele>366.00000</ele>
      </trkpt>
      <trkpt lat="38.63321900" lon="-6.34606200">
        <ele>366.00000</ele>
      </trkpt>
      <trkpt lat="38.63310600" lon="-6.34593299">
        <ele>366.00000</ele>
      </trkpt>
      <trkpt lat="38.63297100" lon="-6.34577000">
        <ele>365.00000</ele>
      </trkpt>
      <trkpt lat="38.63281300" lon="-6.34550600">
        <ele>364.00000</ele>
      </trkpt>
      <trkpt lat="38.63260300" lon="-6.34515400">
        <ele>364.00000</ele>
      </trkpt>
      <trkpt lat="38.63253200" lon="-6.34504000">
        <ele>364.00000</ele>
      </trkpt>
      <trkpt lat="38.63247500" lon="-6.34494199">
        <ele>365.00000</ele>
      </trkpt>
      <trkpt lat="38.63244400" lon="-6.34489300">
        <ele>365.00000</ele>
      </trkpt>
      <trkpt lat="38.63241500" lon="-6.34484600">
        <ele>365.00000</ele>
      </trkpt>
      <trkpt lat="38.63234700" lon="-6.34478900">
        <ele>365.00000</ele>
      </trkpt>
      <trkpt lat="38.63226900" lon="-6.34473100">
        <ele>365.00000</ele>
      </trkpt>
      <trkpt lat="38.63214800" lon="-6.34467000">
        <ele>365.00000</ele>
      </trkpt>
      <trkpt lat="38.63194900" lon="-6.34455400">
        <ele>365.00000</ele>
      </trkpt>
      <trkpt lat="38.63189000" lon="-6.34452000">
        <ele>365.00000</ele>
      </trkpt>
      <trkpt lat="38.63166900" lon="-6.34441000">
        <ele>365.00000</ele>
      </trkpt>
      <trkpt lat="38.63159200" lon="-6.34439000">
        <ele>366.00000</ele>
      </trkpt>
      <trkpt lat="38.63126400" lon="-6.34427999">
        <ele>367.00000</ele>
      </trkpt>
      <trkpt lat="38.63097300" lon="-6.34414600">
        <ele>367.00000</ele>
      </trkpt>
      <trkpt lat="38.63091500" lon="-6.34412600">
        <ele>367.00000</ele>
      </trkpt>
      <trkpt lat="38.63082600" lon="-6.34408300">
        <ele>367.00000</ele>
      </trkpt>
      <trkpt lat="38.63073700" lon="-6.34405399">
        <ele>367.00000</ele>
      </trkpt>
      <trkpt lat="38.63036900" lon="-6.34395900">
        <ele>366.00000</ele>
      </trkpt>
      <trkpt lat="38.63018200" lon="-6.34393400">
        <ele>365.00000</ele>
      </trkpt>
      <trkpt lat="38.63007000" lon="-6.34392000">
        <ele>365.00000</ele>
      </trkpt>
      <trkpt lat="38.63003300" lon="-6.34391800">
        <ele>365.00000</ele>
      </trkpt>
      <trkpt lat="38.62983700" lon="-6.34391700">
        <ele>365.00000</ele>
      </trkpt>
      <trkpt lat="38.62964900" lon="-6.34393500">
        <ele>366.00000</ele>
      </trkpt>
      <trkpt lat="38.62954000" lon="-6.34396099">
        <ele>367.00000</ele>
      </trkpt>
      <trkpt lat="38.62934900" lon="-6.34404199">
        <ele>369.00000</ele>
      </trkpt>
      <trkpt lat="38.62920000" lon="-6.34413000">
        <ele>369.00000</ele>
      </trkpt>
      <trkpt lat="38.62913000" lon="-6.34417500">
        <ele>368.00000</ele>
      </trkpt>
      <trkpt lat="38.62902600" lon="-6.34424900">
        <ele>368.00000</ele>
      </trkpt>
      <trkpt lat="38.62892400" lon="-6.34431700">
        <ele>367.00000</ele>
      </trkpt>
      <trkpt lat="38.62865700" lon="-6.34448599">
        <ele>366.00000</ele>
      </trkpt>
      <trkpt lat="38.62858700" lon="-6.34452700">
        <ele>366.00000</ele>
      </trkpt>
      <trkpt lat="38.62846700" lon="-6.34458900">
        <ele>366.00000</ele>
      </trkpt>
      <trkpt lat="38.62840100" lon="-6.34462900">
        <ele>366.00000</ele>
      </trkpt>
      <trkpt lat="38.62822200" lon="-6.34472700">
        <ele>366.00000</ele>
      </trkpt>
      <trkpt lat="38.62790000" lon="-6.34482700">
        <ele>368.00000</ele>
      </trkpt>
      <trkpt lat="38.62786200" lon="-6.34483700">
        <ele>368.00000</ele>
      </trkpt>
      <trkpt lat="38.62759700" lon="-6.34489699">
        <ele>369.00000</ele>
      </trkpt>
      <trkpt lat="38.62729500" lon="-6.34495199">
        <ele>369.00000</ele>
      </trkpt>
      <trkpt lat="38.62703500" lon="-6.34501200">
        <ele>368.00000</ele>
      </trkpt>
      <trkpt lat="38.62695600" lon="-6.34503100">
        <ele>368.00000</ele>
      </trkpt>
      <trkpt lat="38.62680400" lon="-6.34507100">
        <ele>368.00000</ele>
      </trkpt>
      <trkpt lat="38.62669600" lon="-6.34510300">
        <ele>368.00000</ele>
      </trkpt>
      <trkpt lat="38.62658000" lon="-6.34512900">
        <ele>368.00000</ele>
      </trkpt>
      <trkpt lat="38.62638700" lon="-6.34516600">
        <ele>368.00000</ele>
      </trkpt>
      <trkpt lat="38.62622400" lon="-6.34518700">
        <ele>368.00000</ele>
      </trkpt>
      <trkpt lat="38.62611700" lon="-6.34519900">
        <ele>368.00000</ele>
      </trkpt>
      <trkpt lat="38.62608600" lon="-6.34520400">
        <ele>368.00000</ele>
      </trkpt>
      <trkpt lat="38.62584500" lon="-6.34523100">
        <ele>368.00000</ele>
      </trkpt>
      <trkpt lat="38.62580600" lon="-6.34523400">
        <ele>368.00000</ele>
      </trkpt>
      <trkpt lat="38.62574300" lon="-6.34524100">
        <ele>368.00000</ele>
      </trkpt>
      <trkpt lat="38.62550500" lon="-6.34525799">
        <ele>368.00000</ele>
      </trkpt>
      <trkpt lat="38.62530500" lon="-6.34526100">
        <ele>368.00000</ele>
      </trkpt>
      <trkpt lat="38.62517200" lon="-6.34525400">
        <ele>368.00000</ele>
      </trkpt>
      <trkpt lat="38.62501900" lon="-6.34523400">
        <ele>369.00000</ele>
      </trkpt>
      <trkpt lat="38.62491600" lon="-6.34522000">
        <ele>369.00000</ele>
      </trkpt>
      <trkpt lat="38.62478000" lon="-6.34519500">
        <ele>370.00000</ele>
      </trkpt>
      <trkpt lat="38.62461800" lon="-6.34515799">
        <ele>370.00000</ele>
      </trkpt>
      <trkpt lat="38.62432200" lon="-6.34504700">
        <ele>371.00000</ele>
      </trkpt>
      <trkpt lat="38.62425100" lon="-6.34500600">
        <ele>371.00000</ele>
      </trkpt>
      <trkpt lat="38.62413000" lon="-6.34493200">
        <ele>372.00000</ele>
      </trkpt>
      <trkpt lat="38.62397900" lon="-6.34482100">
        <ele>372.00000</ele>
      </trkpt>
      <trkpt lat="38.62370700" lon="-6.34461800">
        <ele>372.00000</ele>
      </trkpt>
      <trkpt lat="38.62352600" lon="-6.34449900">
        <ele>372.00000</ele>
      </trkpt>
      <trkpt lat="38.62344000" lon="-6.34444200">
        <ele>372.00000</ele>
      </trkpt>
      <trkpt lat="38.62334500" lon="-6.34439100">
        <ele>372.00000</ele>
      </trkpt>
      <trkpt lat="38.62321900" lon="-6.34432200">
        <ele>372.00000</ele>
      </trkpt>
      <trkpt lat="38.62297100" lon="-6.34423000">
        <ele>372.00000</ele>
      </trkpt>
      <trkpt lat="38.62286000" lon="-6.34419200">
        <ele>372.00000</ele>
      </trkpt>
      <trkpt lat="38.62267700" lon="-6.34415300">
        <ele>372.00000</ele>
      </trkpt>
      <trkpt lat="38.62260800" lon="-6.34414600">
        <ele>372.00000</ele>
      </trkpt>
      <trkpt lat="38.62248100" lon="-6.34412800">
        <ele>372.00000</ele>
      </trkpt>
      <trkpt lat="38.62238300" lon="-6.34412400">
        <ele>372.00000</ele>
      </trkpt>
      <trkpt lat="38.62232500" lon="-6.34412600">
        <ele>372.00000</ele>
      </trkpt>
      <trkpt lat="38.62219600" lon="-6.34412700">
        <ele>372.00000</ele>
      </trkpt>
      <trkpt lat="38.62209800" lon="-6.34413500">
        <ele>372.00000</ele>
      </trkpt>
      <trkpt lat="38.62190200" lon="-6.34413100">
        <ele>373.00000</ele>
      </trkpt>
      <trkpt lat="38.62171300" lon="-6.34415200">
        <ele>373.00000</ele>
      </trkpt>
      <trkpt lat="38.62163500" lon="-6.34415500">
        <ele>374.00000</ele>
      </trkpt>
      <trkpt lat="38.62131700" lon="-6.34417000">
        <ele>375.00000</ele>
      </trkpt>
      <trkpt lat="38.62115500" lon="-6.34415300">
        <ele>376.00000</ele>
      </trkpt>
      <trkpt lat="38.62108900" lon="-6.34415100">
        <ele>376.00000</ele>
      </trkpt>
      <trkpt lat="38.62090200" lon="-6.34413400">
        <ele>376.00000</ele>
      </trkpt>
      <trkpt lat="38.62087300" lon="-6.34412100">
        <ele>376.00000</ele>
      </trkpt>
      <trkpt lat="38.62074200" lon="-6.34408600">
        <ele>376.00000</ele>
      </trkpt>
      <trkpt lat="38.62063900" lon="-6.34406700">
        <ele>376.00000</ele>
      </trkpt>
      <trkpt lat="38.62047800" lon="-6.34401600">
        <ele>376.00000</ele>
      </trkpt>
      <trkpt lat="38.62029700" lon="-6.34395900">
        <ele>376.00000</ele>
      </trkpt>
      <trkpt lat="38.61997200" lon="-6.34385500">
        <ele>375.00000</ele>
      </trkpt>
      <trkpt lat="38.61985900" lon="-6.34383200">
        <ele>375.00000</ele>
      </trkpt>
      <trkpt lat="38.61962300" lon="-6.34379100">
        <ele>374.00000</ele>
      </trkpt>
      <trkpt lat="38.61947400" lon="-6.34377300">
        <ele>375.00000</ele>
      </trkpt>
      <trkpt lat="38.61921100" lon="-6.34375300">
        <ele>375.00000</ele>
      </trkpt>
      <trkpt lat="38.61904200" lon="-6.34374100">
        <ele>374.00000</ele>
      </trkpt>
      <trkpt lat="38.61882300" lon="-6.34374499">
        <ele>374.00000</ele>
      </trkpt>
      <trkpt lat="38.61878800" lon="-6.34375300">
        <ele>374.00000</ele>
      </trkpt>
      <trkpt lat="38.61868000" lon="-6.34376300">
        <ele>374.00000</ele>
      </trkpt>
      <trkpt lat="38.61857600" lon="-6.34377100">
        <ele>374.00000</ele>
      </trkpt>
      <trkpt lat="38.61854300" lon="-6.34377400">
        <ele>374.00000</ele>
      </trkpt>
      <trkpt lat="38.61840600" lon="-6.34378600">
        <ele>374.00000</ele>
      </trkpt>
      <trkpt lat="38.61828400" lon="-6.34379700">
        <ele>375.00000</ele>
      </trkpt>
      <trkpt lat="38.61820200" lon="-6.34380500">
        <ele>375.00000</ele>
      </trkpt>
      <trkpt lat="38.61817300" lon="-6.34380900">
        <ele>375.00000</ele>
      </trkpt>
      <trkpt lat="38.61806400" lon="-6.34381700">
        <ele>376.00000</ele>
      </trkpt>
      <trkpt lat="38.61797700" lon="-6.34380400">
        <ele>376.00000</ele>
      </trkpt>
      <trkpt lat="38.61795800" lon="-6.34380500">
        <ele>376.00000</ele>
      </trkpt>
      <trkpt lat="38.61789600" lon="-6.34381500">
        <ele>376.00000</ele>
      </trkpt>
      <trkpt lat="38.61789500" lon="-6.34381800">
        <ele>376.00000</ele>
      </trkpt>
      <trkpt lat="38.61773800" lon="-6.34383100">
        <ele>377.00000</ele>
      </trkpt>
      <trkpt lat="38.61771300" lon="-6.34383499">
        <ele>377.00000</ele>
      </trkpt>
      <trkpt lat="38.61755800" lon="-6.34383300">
        <ele>376.00000</ele>
      </trkpt>
      <trkpt lat="38.61752700" lon="-6.34383100">
        <ele>376.00000</ele>
      </trkpt>
      <trkpt lat="38.61737200" lon="-6.34384200">
        <ele>376.00000</ele>
      </trkpt>
      <trkpt lat="38.61728300" lon="-6.34386000">
        <ele>376.00000</ele>
      </trkpt>
      <trkpt lat="38.61716000" lon="-6.34388900">
        <ele>375.00000</ele>
      </trkpt>
      <trkpt lat="38.61691000" lon="-6.34392100">
        <ele>376.00000</ele>
      </trkpt>
      <trkpt lat="38.61674200" lon="-6.34394300">
        <ele>377.00000</ele>
      </trkpt>
      <trkpt lat="38.61667800" lon="-6.34394700">
        <ele>377.00000</ele>
      </trkpt>
      <trkpt lat="38.61653900" lon="-6.34394899">
        <ele>378.00000</ele>
      </trkpt>
      <trkpt lat="38.61638900" lon="-6.34395099">
        <ele>379.00000</ele>
      </trkpt>
      <trkpt lat="38.61632300" lon="-6.34394899">
        <ele>379.00000</ele>
      </trkpt>
      <trkpt lat="38.61612500" lon="-6.34394800">
        <ele>378.00000</ele>
      </trkpt>
      <trkpt lat="38.61602700" lon="-6.34394400">
        <ele>379.00000</ele>
      </trkpt>
      <trkpt lat="38.61573600" lon="-6.34392400">
        <ele>380.00000</ele>
      </trkpt>
      <trkpt lat="38.61570300" lon="-6.34392000">
        <ele>380.00000</ele>
      </trkpt>
      <trkpt lat="38.61556800" lon="-6.34390500">
        <ele>380.00000</ele>
      </trkpt>
      <trkpt lat="38.61550300" lon="-6.34389100">
        <ele>380.00000</ele>
      </trkpt>
      <trkpt lat="38.61537300" lon="-6.34386800">
        <ele>380.00000</ele>
      </trkpt>
      <trkpt lat="38.61512200" lon="-6.34381100">
        <ele>380.00000</ele>
      </trkpt>
      <trkpt lat="38.61499100" lon="-6.34377999">
        <ele>380.00000</ele>
      </trkpt>
      <trkpt lat="38.61486100" lon="-6.34374800">
        <ele>380.00000</ele>
      </trkpt>
      <trkpt lat="38.61482800" lon="-6.34373900">
        <ele>380.00000</ele>
      </trkpt>
      <trkpt lat="38.61473100" lon="-6.34371500">
        <ele>381.00000</ele>
      </trkpt>
      <trkpt lat="38.61459600" lon="-6.34367000">
        <ele>381.00000</ele>
      </trkpt>
      <trkpt lat="38.61452500" lon="-6.34364800">
        <ele>381.00000</ele>
      </trkpt>
      <trkpt lat="38.61437700" lon="-6.34359900">
        <ele>382.00000</ele>
      </trkpt>
      <trkpt lat="38.61424800" lon="-6.34353800">
        <ele>382.00000</ele>
      </trkpt>
      <trkpt lat="38.61414800" lon="-6.34349300">
        <ele>383.00000</ele>
      </trkpt>
      <trkpt lat="38.61407900" lon="-6.34346400">
        <ele>383.00000</ele>
      </trkpt>
      <trkpt lat="38.61393900" lon="-6.34340000">
        <ele>383.00000</ele>
      </trkpt>
      <trkpt lat="38.61367100" lon="-6.34328300">
        <ele>383.00000</ele>
      </trkpt>
      <trkpt lat="38.61353900" lon="-6.34323399">
        <ele>383.00000</ele>
      </trkpt>
      <trkpt lat="38.61343900" lon="-6.34319800">
        <ele>383.00000</ele>
      </trkpt>
      <trkpt lat="38.61330900" lon="-6.34314900">
        <ele>383.00000</ele>
      </trkpt>
      <trkpt lat="38.61321300" lon="-6.34311200">
        <ele>383.00000</ele>
      </trkpt>
      <trkpt lat="38.61300900" lon="-6.34303700">
        <ele>383.00000</ele>
      </trkpt>
      <trkpt lat="38.61285500" lon="-6.34298700">
        <ele>383.00000</ele>
      </trkpt>
      <trkpt lat="38.61266000" lon="-6.34293900">
        <ele>382.00000</ele>
      </trkpt>
      <trkpt lat="38.61253600" lon="-6.34291900">
        <ele>382.00000</ele>
      </trkpt>
      <trkpt lat="38.61240800" lon="-6.34290800">
        <ele>382.00000</ele>
      </trkpt>
      <trkpt lat="38.61232900" lon="-6.34290700">
        <ele>383.00000</ele>
      </trkpt>
      <trkpt lat="38.61198700" lon="-6.34290200">
        <ele>382.00000</ele>
      </trkpt>
      <trkpt lat="38.61172400" lon="-6.34290700">
        <ele>381.00000</ele>
      </trkpt>
      <trkpt lat="38.61151000" lon="-6.34292900">
        <ele>381.00000</ele>
      </trkpt>
      <trkpt lat="38.61144100" lon="-6.34293699">
        <ele>381.00000</ele>
      </trkpt>
      <trkpt lat="38.61120100" lon="-6.34295400">
        <ele>382.00000</ele>
      </trkpt>
      <trkpt lat="38.61096600" lon="-6.34294400">
        <ele>382.00000</ele>
      </trkpt>
      <trkpt lat="38.61084100" lon="-6.34293900">
        <ele>382.00000</ele>
      </trkpt>
      <trkpt lat="38.61070600" lon="-6.34291200">
        <ele>383.00000</ele>
      </trkpt>
      <trkpt lat="38.61060800" lon="-6.34289800">
        <ele>383.00000</ele>
      </trkpt>
      <trkpt lat="38.61041400" lon="-6.34285500">
        <ele>383.00000</ele>
      </trkpt>
      <trkpt lat="38.61031700" lon="-6.34282800">
        <ele>383.00000</ele>
      </trkpt>
      <trkpt lat="38.61028200" lon="-6.34282400">
        <ele>383.00000</ele>
      </trkpt>
      <trkpt lat="38.61002800" lon="-6.34277600">
        <ele>384.00000</ele>
      </trkpt>
      <trkpt lat="38.60983300" lon="-6.34273400">
        <ele>386.00000</ele>
      </trkpt>
      <trkpt lat="38.60976800" lon="-6.34271400">
        <ele>386.00000</ele>
      </trkpt>
      <trkpt lat="38.60967000" lon="-6.34268400">
        <ele>387.00000</ele>
      </trkpt>
      <trkpt lat="38.60947800" lon="-6.34261700">
        <ele>387.00000</ele>
      </trkpt>
      <trkpt lat="38.60931500" lon="-6.34255300">
        <ele>386.00000</ele>
      </trkpt>
      <trkpt lat="38.60917800" lon="-6.34249000">
        <ele>386.00000</ele>
      </trkpt>
      <trkpt lat="38.60907800" lon="-6.34242800">
        <ele>385.00000</ele>
      </trkpt>
      <trkpt lat="38.60893500" lon="-6.34233800">
        <ele>385.00000</ele>
      </trkpt>
      <trkpt lat="38.60882500" lon="-6.34226900">
        <ele>385.00000</ele>
      </trkpt>
      <trkpt lat="38.60875400" lon="-6.34221800">
        <ele>386.00000</ele>
      </trkpt>
      <trkpt lat="38.60845600" lon="-6.34204899">
        <ele>386.00000</ele>
      </trkpt>
      <trkpt lat="38.60817000" lon="-6.34192600">
        <ele>384.00000</ele>
      </trkpt>
      <trkpt lat="38.60792400" lon="-6.34181500">
        <ele>384.00000</ele>
      </trkpt>
      <trkpt lat="38.60781100" lon="-6.34177200">
        <ele>384.00000</ele>
      </trkpt>
      <trkpt lat="38.60747200" lon="-6.34165400">
        <ele>385.00000</ele>
      </trkpt>
      <trkpt lat="38.60729800" lon="-6.34159800">
        <ele>385.00000</ele>
      </trkpt>
      <trkpt lat="38.60704500" lon="-6.34153100">
        <ele>384.00000</ele>
      </trkpt>
      <trkpt lat="38.60701100" lon="-6.34152000">
        <ele>384.00000</ele>
      </trkpt>
      <trkpt lat="38.60679500" lon="-6.34145100">
        <ele>384.00000</ele>
      </trkpt>
      <trkpt lat="38.60665000" lon="-6.34140900">
        <ele>384.00000</ele>
      </trkpt>
      <trkpt lat="38.60646600" lon="-6.34135300">
        <ele>385.00000</ele>
      </trkpt>
      <trkpt lat="38.60632000" lon="-6.34130999">
        <ele>385.00000</ele>
      </trkpt>
      <trkpt lat="38.60610900" lon="-6.34123800">
        <ele>386.00000</ele>
      </trkpt>
      <trkpt lat="38.60596500" lon="-6.34118399">
        <ele>386.00000</ele>
      </trkpt>
      <trkpt lat="38.60574800" lon="-6.34111100">
        <ele>387.00000</ele>
      </trkpt>
      <trkpt lat="38.60548400" lon="-6.34101800">
        <ele>387.00000</ele>
      </trkpt>
      <trkpt lat="38.60531400" lon="-6.34095100">
        <ele>388.00000</ele>
      </trkpt>
      <trkpt lat="38.60511000" lon="-6.34088000">
        <ele>389.00000</ele>
      </trkpt>
      <trkpt lat="38.60488200" lon="-6.34080400">
        <ele>390.00000</ele>
      </trkpt>
      <trkpt lat="38.60481900" lon="-6.34078000">
        <ele>390.00000</ele>
      </trkpt>
      <trkpt lat="38.60453300" lon="-6.34066100">
        <ele>390.00000</ele>
      </trkpt>
      <trkpt lat="38.60424500" lon="-6.34045300">
        <ele>389.00000</ele>
      </trkpt>
      <trkpt lat="38.60416000" lon="-6.34038500">
        <ele>389.00000</ele>
      </trkpt>
      <trkpt lat="38.60398800" lon="-6.34025800">
        <ele>389.00000</ele>
      </trkpt>
      <trkpt lat="38.60389800" lon="-6.34019800">
        <ele>389.00000</ele>
      </trkpt>
      <trkpt lat="38.60359600" lon="-6.34000600">
        <ele>388.00000</ele>
      </trkpt>
      <trkpt lat="38.60338700" lon="-6.33988900">
        <ele>389.00000</ele>
      </trkpt>
      <trkpt lat="38.60328400" lon="-6.33983700">
        <ele>389.00000</ele>
      </trkpt>
      <trkpt lat="38.60325300" lon="-6.33981799">
        <ele>389.00000</ele>
      </trkpt>
      <trkpt lat="38.60316200" lon="-6.33976099">
        <ele>390.00000</ele>
      </trkpt>
      <trkpt lat="38.60306500" lon="-6.33971100">
        <ele>390.00000</ele>
      </trkpt>
      <trkpt lat="38.60290200" lon="-6.33962500">
        <ele>391.00000</ele>
      </trkpt>
      <trkpt lat="38.60280700" lon="-6.33959100">
        <ele>391.00000</ele>
      </trkpt>
      <trkpt lat="38.60255500" lon="-6.33954400">
        <ele>391.00000</ele>
      </trkpt>
      <trkpt lat="38.60222100" lon="-6.33954200">
        <ele>389.00000</ele>
      </trkpt>
      <trkpt lat="38.60188200" lon="-6.33954300">
        <ele>388.00000</ele>
      </trkpt>
      <trkpt lat="38.60168500" lon="-6.33949900">
        <ele>388.00000</ele>
      </trkpt>
      <trkpt lat="38.60157900" lon="-6.33947599">
        <ele>389.00000</ele>
      </trkpt>
      <trkpt lat="38.60120800" lon="-6.33944299">
        <ele>390.00000</ele>
      </trkpt>
      <trkpt lat="38.60092000" lon="-6.33941800">
        <ele>390.00000</ele>
      </trkpt>
      <trkpt lat="38.60080100" lon="-6.33940900">
        <ele>390.00000</ele>
      </trkpt>
      <trkpt lat="38.60060700" lon="-6.33939400">
        <ele>390.00000</ele>
      </trkpt>
      <trkpt lat="38.60049200" lon="-6.33938500">
        <ele>391.00000</ele>
      </trkpt>
      <trkpt lat="38.60016600" lon="-6.33936300">
        <ele>393.00000</ele>
      </trkpt>
      <trkpt lat="38.60002800" lon="-6.33934600">
        <ele>393.00000</ele>
      </trkpt>
      <trkpt lat="38.59988600" lon="-6.33933700">
        <ele>392.00000</ele>
      </trkpt>
      <trkpt lat="38.59985100" lon="-6.33933000">
        <ele>392.00000</ele>
      </trkpt>
      <trkpt lat="38.59965000" lon="-6.33932899">
        <ele>391.00000</ele>
      </trkpt>
      <trkpt lat="38.59950500" lon="-6.33934600">
        <ele>390.00000</ele>
      </trkpt>
      <trkpt lat="38.59940000" lon="-6.33936400">
        <ele>390.00000</ele>
      </trkpt>
      <trkpt lat="38.59936500" lon="-6.33936800">
        <ele>390.00000</ele>
      </trkpt>
      <trkpt lat="38.59911300" lon="-6.33942300">
        <ele>391.00000</ele>
      </trkpt>
      <trkpt lat="38.59901100" lon="-6.33944600">
        <ele>392.00000</ele>
      </trkpt>
      <trkpt lat="38.59884000" lon="-6.33948400">
        <ele>393.00000</ele>
      </trkpt>
      <trkpt lat="38.59856800" lon="-6.33954699">
        <ele>394.00000</ele>
      </trkpt>
      <trkpt lat="38.59849500" lon="-6.33956600">
        <ele>394.00000</ele>
      </trkpt>
      <trkpt lat="38.59832100" lon="-6.33961500">
        <ele>394.00000</ele>
      </trkpt>
      <trkpt lat="38.59808100" lon="-6.33969100">
        <ele>393.00000</ele>
      </trkpt>
      <trkpt lat="38.59794000" lon="-6.33974400">
        <ele>393.00000</ele>
      </trkpt>
      <trkpt lat="38.59763100" lon="-6.33986599">
        <ele>392.00000</ele>
      </trkpt>
      <trkpt lat="38.59752800" lon="-6.33989700">
        <ele>392.00000</ele>
      </trkpt>
      <trkpt lat="38.59738600" lon="-6.33993300">
        <ele>392.00000</ele>
      </trkpt>
      <trkpt lat="38.59735300" lon="-6.33994200">
        <ele>392.00000</ele>
      </trkpt>
      <trkpt lat="38.59721900" lon="-6.33999300">
        <ele>391.00000</ele>
      </trkpt>
      <trkpt lat="38.59703300" lon="-6.34006100">
        <ele>392.00000</ele>
      </trkpt>
      <trkpt lat="38.59689400" lon="-6.34010400">
        <ele>393.00000</ele>
      </trkpt>
      <trkpt lat="38.59673000" lon="-6.34015300">
        <ele>394.00000</ele>
      </trkpt>
      <trkpt lat="38.59643800" lon="-6.34025099">
        <ele>395.00000</ele>
      </trkpt>
      <trkpt lat="38.59619500" lon="-6.34033500">
        <ele>396.00000</ele>
      </trkpt>
      <trkpt lat="38.59615900" lon="-6.34034800">
        <ele>396.00000</ele>
      </trkpt>
      <trkpt lat="38.59612200" lon="-6.34036300">
        <ele>396.00000</ele>
      </trkpt>
      <trkpt lat="38.59586500" lon="-6.34043900">
        <ele>396.00000</ele>
      </trkpt>
      <trkpt lat="38.59582800" lon="-6.34045200">
        <ele>396.00000</ele>
      </trkpt>
      <trkpt lat="38.59565300" lon="-6.34051399">
        <ele>396.00000</ele>
      </trkpt>
      <trkpt lat="38.59554700" lon="-6.34055400">
        <ele>395.00000</ele>
      </trkpt>
      <trkpt lat="38.59544500" lon="-6.34059200">
        <ele>395.00000</ele>
      </trkpt>
      <trkpt lat="38.59523500" lon="-6.34066000">
        <ele>395.00000</ele>
      </trkpt>
      <trkpt lat="38.59509400" lon="-6.34069699">
        <ele>396.00000</ele>
      </trkpt>
      <trkpt lat="38.59477100" lon="-6.34080100">
        <ele>398.00000</ele>
      </trkpt>
      <trkpt lat="38.59473700" lon="-6.34081400">
        <ele>398.00000</ele>
      </trkpt>
      <trkpt lat="38.59463600" lon="-6.34085599">
        <ele>398.00000</ele>
      </trkpt>
      <trkpt lat="38.59453700" lon="-6.34088500">
        <ele>398.00000</ele>
      </trkpt>
      <trkpt lat="38.59450500" lon="-6.34089600">
        <ele>397.00000</ele>
      </trkpt>
      <trkpt lat="38.59440600" lon="-6.34093300">
        <ele>397.00000</ele>
      </trkpt>
      <trkpt lat="38.59424600" lon="-6.34098600">
        <ele>397.00000</ele>
      </trkpt>
      <trkpt lat="38.59408100" lon="-6.34104200">
        <ele>397.00000</ele>
      </trkpt>
      <trkpt lat="38.59381200" lon="-6.34113400">
        <ele>397.00000</ele>
      </trkpt>
      <trkpt lat="38.59361700" lon="-6.34119900">
        <ele>396.00000</ele>
      </trkpt>
      <trkpt lat="38.59358100" lon="-6.34120600">
        <ele>396.00000</ele>
      </trkpt>
      <trkpt lat="38.59334700" lon="-6.34127200">
        <ele>396.00000</ele>
      </trkpt>
      <trkpt lat="38.59308300" lon="-6.34134399">
        <ele>398.00000</ele>
      </trkpt>
      <trkpt lat="38.59301800" lon="-6.34136300">
        <ele>399.00000</ele>
      </trkpt>
      <trkpt lat="38.59295300" lon="-6.34138300">
        <ele>400.00000</ele>
      </trkpt>
      <trkpt lat="38.59278100" lon="-6.34143599">
        <ele>401.00000</ele>
      </trkpt>
      <trkpt lat="38.59257700" lon="-6.34147300">
        <ele>401.00000</ele>
      </trkpt>
      <trkpt lat="38.59227800" lon="-6.34152400">
        <ele>402.00000</ele>
      </trkpt>
      <trkpt lat="38.59214200" lon="-6.34154600">
        <ele>401.00000</ele>
      </trkpt>
      <trkpt lat="38.59189600" lon="-6.34158400">
        <ele>400.00000</ele>
      </trkpt>
      <trkpt lat="38.59178900" lon="-6.34160300">
        <ele>400.00000</ele>
      </trkpt>
      <trkpt lat="38.59171900" lon="-6.34161699">
        <ele>400.00000</ele>
      </trkpt>
      <trkpt lat="38.59165100" lon="-6.34162799">
        <ele>400.00000</ele>
      </trkpt>
      <trkpt lat="38.59158300" lon="-6.34164100">
        <ele>400.00000</ele>
      </trkpt>
      <trkpt lat="38.59130900" lon="-6.34168100">
        <ele>400.00000</ele>
      </trkpt>
      <trkpt lat="38.59106400" lon="-6.34171300">
        <ele>401.00000</ele>
      </trkpt>
      <trkpt lat="38.59099300" lon="-6.34171600">
        <ele>401.00000</ele>
      </trkpt>
      <trkpt lat="38.59089200" lon="-6.34169699">
        <ele>401.00000</ele>
      </trkpt>
      <trkpt lat="38.59075800" lon="-6.34167599">
        <ele>400.00000</ele>
      </trkpt>
      <trkpt lat="38.59059000" lon="-6.34164700">
        <ele>400.00000</ele>
      </trkpt>
      <trkpt lat="38.59041600" lon="-6.34161800">
        <ele>401.00000</ele>
      </trkpt>
      <trkpt lat="38.59024100" lon="-6.34158600">
        <ele>402.00000</ele>
      </trkpt>
      <trkpt lat="38.59003100" lon="-6.34155500">
        <ele>403.00000</ele>
      </trkpt>
      <trkpt lat="38.58992800" lon="-6.34154400">
        <ele>404.00000</ele>
      </trkpt>
      <trkpt lat="38.58985700" lon="-6.34152599">
        <ele>404.00000</ele>
      </trkpt>
      <trkpt lat="38.58975200" lon="-6.34151499">
        <ele>404.00000</ele>
      </trkpt>
      <trkpt lat="38.58968200" lon="-6.34150000">
        <ele>404.00000</ele>
      </trkpt>
      <trkpt lat="38.58961400" lon="-6.34149200">
        <ele>404.00000</ele>
      </trkpt>
      <trkpt lat="38.58954600" lon="-6.34148200">
        <ele>404.00000</ele>
      </trkpt>
      <trkpt lat="38.58947600" lon="-6.34147300">
        <ele>404.00000</ele>
      </trkpt>
      <trkpt lat="38.58926400" lon="-6.34145999">
        <ele>402.00000</ele>
      </trkpt>
      <trkpt lat="38.58921900" lon="-6.34145600">
        <ele>401.00000</ele>
      </trkpt>
      <trkpt lat="38.58900200" lon="-6.34144100">
        <ele>401.00000</ele>
      </trkpt>
      <trkpt lat="38.58892900" lon="-6.34143599">
        <ele>401.00000</ele>
      </trkpt>
      <trkpt lat="38.58874100" lon="-6.34142200">
        <ele>400.00000</ele>
      </trkpt>
      <trkpt lat="38.58862700" lon="-6.34142000">
        <ele>400.00000</ele>
      </trkpt>
      <trkpt lat="38.58851100" lon="-6.34141500">
        <ele>399.00000</ele>
      </trkpt>
      <trkpt lat="38.58843900" lon="-6.34141100">
        <ele>399.00000</ele>
      </trkpt>
      <trkpt lat="38.58840300" lon="-6.34140800">
        <ele>399.00000</ele>
      </trkpt>
      <trkpt lat="38.58829800" lon="-6.34139999">
        <ele>399.00000</ele>
      </trkpt>
      <trkpt lat="38.58799800" lon="-6.34137800">
        <ele>402.00000</ele>
      </trkpt>
      <trkpt lat="38.58788400" lon="-6.34136800">
        <ele>403.00000</ele>
      </trkpt>
      <trkpt lat="38.58773600" lon="-6.34136699">
        <ele>405.00000</ele>
      </trkpt>
      <trkpt lat="38.58762900" lon="-6.34135499">
        <ele>405.00000</ele>
      </trkpt>
      <trkpt lat="38.58748600" lon="-6.34134100">
        <ele>405.00000</ele>
      </trkpt>
      <trkpt lat="38.58720400" lon="-6.34130200">
        <ele>404.00000</ele>
      </trkpt>
      <trkpt lat="38.58698700" lon="-6.34127800">
        <ele>404.00000</ele>
      </trkpt>
      <trkpt lat="38.58676900" lon="-6.34124300">
        <ele>403.00000</ele>
      </trkpt>
      <trkpt lat="38.58669600" lon="-6.34123199">
        <ele>402.00000</ele>
      </trkpt>
      <trkpt lat="38.58658800" lon="-6.34121900">
        <ele>402.00000</ele>
      </trkpt>
      <trkpt lat="38.58648000" lon="-6.34120300">
        <ele>402.00000</ele>
      </trkpt>
      <trkpt lat="38.58637700" lon="-6.34119400">
        <ele>402.00000</ele>
      </trkpt>
      <trkpt lat="38.58627500" lon="-6.34117800">
        <ele>403.00000</ele>
      </trkpt>
      <trkpt lat="38.58617600" lon="-6.34116200">
        <ele>403.00000</ele>
      </trkpt>
      <trkpt lat="38.58600100" lon="-6.34113899">
        <ele>404.00000</ele>
      </trkpt>
      <trkpt lat="38.58569300" lon="-6.34109200">
        <ele>404.00000</ele>
      </trkpt>
      <trkpt lat="38.58548500" lon="-6.34105400">
        <ele>405.00000</ele>
      </trkpt>
      <trkpt lat="38.58537000" lon="-6.34103000">
        <ele>405.00000</ele>
      </trkpt>
      <trkpt lat="38.58522600" lon="-6.34100399">
        <ele>405.00000</ele>
      </trkpt>
      <trkpt lat="38.58515500" lon="-6.34098900">
        <ele>405.00000</ele>
      </trkpt>
      <trkpt lat="38.58504300" lon="-6.34097700">
        <ele>405.00000</ele>
      </trkpt>
      <trkpt lat="38.58494100" lon="-6.34095799">
        <ele>406.00000</ele>
      </trkpt>
      <trkpt lat="38.58473100" lon="-6.34092800">
        <ele>406.00000</ele>
      </trkpt>
      <trkpt lat="38.58458900" lon="-6.34091600">
        <ele>406.00000</ele>
      </trkpt>
      <trkpt lat="38.58455100" lon="-6.34091600">
        <ele>406.00000</ele>
      </trkpt>
      <trkpt lat="38.58451700" lon="-6.34091200">
        <ele>405.00000</ele>
      </trkpt>
      <trkpt lat="38.58430700" lon="-6.34089800">
        <ele>405.00000</ele>
      </trkpt>
      <trkpt lat="38.58423400" lon="-6.34089500">
        <ele>405.00000</ele>
      </trkpt>
      <trkpt lat="38.58416300" lon="-6.34089100">
        <ele>406.00000</ele>
      </trkpt>
      <trkpt lat="38.58395300" lon="-6.34088900">
        <ele>406.00000</ele>
      </trkpt>
      <trkpt lat="38.58388100" lon="-6.34088999">
        <ele>407.00000</ele>
      </trkpt>
      <trkpt lat="38.58366700" lon="-6.34088800">
        <ele>407.00000</ele>
      </trkpt>
      <trkpt lat="38.58363300" lon="-6.34088800">
        <ele>407.00000</ele>
      </trkpt>
      <trkpt lat="38.58345300" lon="-6.34088400">
        <ele>407.00000</ele>
      </trkpt>
      <trkpt lat="38.58310900" lon="-6.34088000">
        <ele>408.00000</ele>
      </trkpt>
      <trkpt lat="38.58290900" lon="-6.34086300">
        <ele>409.00000</ele>
      </trkpt>
      <trkpt lat="38.58280600" lon="-6.34086000">
        <ele>409.00000</ele>
      </trkpt>
      <trkpt lat="38.58269900" lon="-6.34085599">
        <ele>409.00000</ele>
      </trkpt>
      <trkpt lat="38.58249600" lon="-6.34084700">
        <ele>409.00000</ele>
      </trkpt>
      <trkpt lat="38.58242700" lon="-6.34084199">
        <ele>409.00000</ele>
      </trkpt>
      <trkpt lat="38.58228900" lon="-6.34083100">
        <ele>409.00000</ele>
      </trkpt>
      <trkpt lat="38.58203900" lon="-6.34082099">
        <ele>409.00000</ele>
      </trkpt>
      <trkpt lat="38.58196800" lon="-6.34081600">
        <ele>409.00000</ele>
      </trkpt>
      <trkpt lat="38.58185500" lon="-6.34080899">
        <ele>410.00000</ele>
      </trkpt>
      <trkpt lat="38.58166600" lon="-6.34079300">
        <ele>410.00000</ele>
      </trkpt>
      <trkpt lat="38.58142600" lon="-6.34077900">
        <ele>410.00000</ele>
      </trkpt>
      <trkpt lat="38.58127600" lon="-6.34077000">
        <ele>410.00000</ele>
      </trkpt>
      <trkpt lat="38.58089400" lon="-6.34075100">
        <ele>410.00000</ele>
      </trkpt>
      <trkpt lat="38.58073200" lon="-6.34074900">
        <ele>410.00000</ele>
      </trkpt>
      <trkpt lat="38.58054600" lon="-6.34078300">
        <ele>411.00000</ele>
      </trkpt>
      <trkpt lat="38.58046700" lon="-6.34079800">
        <ele>411.00000</ele>
      </trkpt>
      <trkpt lat="38.58029400" lon="-6.34084600">
        <ele>411.00000</ele>
      </trkpt>
      <trkpt lat="38.58016600" lon="-6.34088600">
        <ele>411.00000</ele>
      </trkpt>
      <trkpt lat="38.57991500" lon="-6.34093800">
        <ele>409.00000</ele>
      </trkpt>
      <trkpt lat="38.57982400" lon="-6.34096400">
        <ele>409.00000</ele>
      </trkpt>
      <trkpt lat="38.57973100" lon="-6.34100000">
        <ele>408.00000</ele>
      </trkpt>
      <trkpt lat="38.57960500" lon="-6.34106900">
        <ele>407.00000</ele>
      </trkpt>
      <trkpt lat="38.57937100" lon="-6.34123600">
        <ele>407.00000</ele>
      </trkpt>
      <trkpt lat="38.57933000" lon="-6.34127300">
        <ele>407.00000</ele>
      </trkpt>
      <trkpt lat="38.57929000" lon="-6.34130800">
        <ele>407.00000</ele>
      </trkpt>
      <trkpt lat="38.57895800" lon="-6.34152400">
        <ele>406.00000</ele>
      </trkpt>
      <trkpt lat="38.57866600" lon="-6.34158299">
        <ele>405.00000</ele>
      </trkpt>
      <trkpt lat="38.57839800" lon="-6.34158299">
        <ele>405.00000</ele>
      </trkpt>
      <trkpt lat="38.57834500" lon="-6.34158400">
        <ele>405.00000</ele>
      </trkpt>
      <trkpt lat="38.57807400" lon="-6.34158500">
        <ele>405.00000</ele>
      </trkpt>
      <trkpt lat="38.57802000" lon="-6.34158200">
        <ele>405.00000</ele>
      </trkpt>
      <trkpt lat="38.57785800" lon="-6.34155999">
        <ele>404.00000</ele>
      </trkpt>
      <trkpt lat="38.57774900" lon="-6.34153500">
        <ele>403.00000</ele>
      </trkpt>
      <trkpt lat="38.57749300" lon="-6.34146700">
        <ele>401.00000</ele>
      </trkpt>
      <trkpt lat="38.57744600" lon="-6.34145300">
        <ele>401.00000</ele>
      </trkpt>
      <trkpt lat="38.57735600" lon="-6.34142399">
        <ele>401.00000</ele>
      </trkpt>
      <trkpt lat="38.57717900" lon="-6.34135700">
        <ele>400.00000</ele>
      </trkpt>
      <trkpt lat="38.57699300" lon="-6.34127500">
        <ele>400.00000</ele>
      </trkpt>
      <trkpt lat="38.57674100" lon="-6.34120600">
        <ele>400.00000</ele>
      </trkpt>
      <trkpt lat="38.57659900" lon="-6.34117400">
        <ele>400.00000</ele>
      </trkpt>
      <trkpt lat="38.57632200" lon="-6.34109800">
        <ele>401.00000</ele>
      </trkpt>
      <trkpt lat="38.57582300" lon="-6.34102000">
        <ele>401.00000</ele>
      </trkpt>
      <trkpt lat="38.57560600" lon="-6.34098700">
        <ele>401.00000</ele>
      </trkpt>
      <trkpt lat="38.57547900" lon="-6.34097000">
        <ele>401.00000</ele>
      </trkpt>
      <trkpt lat="38.57512200" lon="-6.34095599">
        <ele>402.00000</ele>
      </trkpt>
      <trkpt lat="38.57487900" lon="-6.34093499">
        <ele>402.00000</ele>
      </trkpt>
      <trkpt lat="38.57484000" lon="-6.34093300">
        <ele>402.00000</ele>
      </trkpt>
      <trkpt lat="38.57458500" lon="-6.34090099">
        <ele>401.00000</ele>
      </trkpt>
      <trkpt lat="38.57455100" lon="-6.34090000">
        <ele>401.00000</ele>
      </trkpt>
      <trkpt lat="38.57448600" lon="-6.34089300">
        <ele>402.00000</ele>
      </trkpt>
      <trkpt lat="38.57440100" lon="-6.34088200">
        <ele>402.00000</ele>
      </trkpt>
      <trkpt lat="38.57437300" lon="-6.34088000">
        <ele>402.00000</ele>
      </trkpt>
      <trkpt lat="38.57430000" lon="-6.34087000">
        <ele>403.00000</ele>
      </trkpt>
      <trkpt lat="38.57423000" lon="-6.34086100">
        <ele>404.00000</ele>
      </trkpt>
      <trkpt lat="38.57416000" lon="-6.34086500">
        <ele>405.00000</ele>
      </trkpt>
      <trkpt lat="38.57402200" lon="-6.34085399">
        <ele>405.00000</ele>
      </trkpt>
      <trkpt lat="38.57399400" lon="-6.34085399">
        <ele>406.00000</ele>
      </trkpt>
      <trkpt lat="38.57392500" lon="-6.34084700">
        <ele>406.00000</ele>
      </trkpt>
      <trkpt lat="38.57379200" lon="-6.34083800">
        <ele>407.00000</ele>
      </trkpt>
      <trkpt lat="38.57372500" lon="-6.34083100">
        <ele>407.00000</ele>
      </trkpt>
      <trkpt lat="38.57370300" lon="-6.34083100">
        <ele>407.00000</ele>
      </trkpt>
      <trkpt lat="38.57354100" lon="-6.34083000">
        <ele>408.00000</ele>
      </trkpt>
      <trkpt lat="38.57351700" lon="-6.34082700">
        <ele>408.00000</ele>
      </trkpt>
      <trkpt lat="38.57344300" lon="-6.34083100">
        <ele>408.00000</ele>
      </trkpt>
      <trkpt lat="38.57339800" lon="-6.34083100">
        <ele>408.00000</ele>
      </trkpt>
      <trkpt lat="38.57335300" lon="-6.34083000">
        <ele>408.00000</ele>
      </trkpt>
      <trkpt lat="38.57330800" lon="-6.34083100">
        <ele>409.00000</ele>
      </trkpt>
      <trkpt lat="38.57316900" lon="-6.34082099">
        <ele>409.00000</ele>
      </trkpt>
      <trkpt lat="38.57312100" lon="-6.34081800">
        <ele>409.00000</ele>
      </trkpt>
      <trkpt lat="38.57293600" lon="-6.34080500">
        <ele>409.00000</ele>
      </trkpt>
      <trkpt lat="38.57291300" lon="-6.34080200">
        <ele>409.00000</ele>
      </trkpt>
      <trkpt lat="38.57281500" lon="-6.34079400">
        <ele>409.00000</ele>
      </trkpt>
      <trkpt lat="38.57272000" lon="-6.34078499">
        <ele>409.00000</ele>
      </trkpt>
      <trkpt lat="38.57267000" lon="-6.34078600">
        <ele>409.00000</ele>
      </trkpt>
      <trkpt lat="38.57262000" lon="-6.34078699">
        <ele>409.00000</ele>
      </trkpt>
      <trkpt lat="38.57256800" lon="-6.34078400">
        <ele>409.00000</ele>
      </trkpt>
      <trkpt lat="38.57251900" lon="-6.34078499">
        <ele>409.00000</ele>
      </trkpt>
      <trkpt lat="38.57244400" lon="-6.34079200">
        <ele>410.00000</ele>
      </trkpt>
      <trkpt lat="38.57234800" lon="-6.34079000">
        <ele>410.00000</ele>
      </trkpt>
      <trkpt lat="38.57229800" lon="-6.34080200">
        <ele>410.00000</ele>
      </trkpt>
      <trkpt lat="38.57227300" lon="-6.34080800">
        <ele>410.00000</ele>
      </trkpt>
      <trkpt lat="38.57224900" lon="-6.34081500">
        <ele>410.00000</ele>
      </trkpt>
      <trkpt lat="38.57219700" lon="-6.34082500">
        <ele>410.00000</ele>
      </trkpt>
      <trkpt lat="38.57212200" lon="-6.34084800">
        <ele>409.00000</ele>
      </trkpt>
      <trkpt lat="38.57209700" lon="-6.34085500">
        <ele>409.00000</ele>
      </trkpt>
      <trkpt lat="38.57193600" lon="-6.34090600">
        <ele>409.00000</ele>
      </trkpt>
      <trkpt lat="38.57187900" lon="-6.34091900">
        <ele>409.00000</ele>
      </trkpt>
      <trkpt lat="38.57177500" lon="-6.34095000">
        <ele>410.00000</ele>
      </trkpt>
      <trkpt lat="38.57171500" lon="-6.34094200">
        <ele>410.00000</ele>
      </trkpt>
      <trkpt lat="38.57165200" lon="-6.34092299">
        <ele>410.00000</ele>
      </trkpt>
      <trkpt lat="38.57159200" lon="-6.34091600">
        <ele>410.00000</ele>
      </trkpt>
      <trkpt lat="38.57150900" lon="-6.34090800">
        <ele>411.00000</ele>
      </trkpt>
      <trkpt lat="38.57134500" lon="-6.34087600">
        <ele>412.00000</ele>
      </trkpt>
      <trkpt lat="38.57130100" lon="-6.34086300">
        <ele>412.00000</ele>
      </trkpt>
      <trkpt lat="38.57114100" lon="-6.34085800">
        <ele>413.00000</ele>
      </trkpt>
      <trkpt lat="38.57104700" lon="-6.34081200">
        <ele>414.00000</ele>
      </trkpt>
      <trkpt lat="38.57102600" lon="-6.34080000">
        <ele>414.00000</ele>
      </trkpt>
      <trkpt lat="38.57090300" lon="-6.34074900">
        <ele>415.00000</ele>
      </trkpt>
      <trkpt lat="38.57085600" lon="-6.34072100">
        <ele>415.00000</ele>
      </trkpt>
      <trkpt lat="38.57069100" lon="-6.34064100">
        <ele>416.00000</ele>
      </trkpt>
      <trkpt lat="38.57062700" lon="-6.34062000">
        <ele>416.00000</ele>
      </trkpt>
      <trkpt lat="38.57058600" lon="-6.34060900">
        <ele>416.00000</ele>
      </trkpt>
      <trkpt lat="38.57048600" lon="-6.34062400">
        <ele>417.00000</ele>
      </trkpt>
      <trkpt lat="38.57041600" lon="-6.34062599">
        <ele>418.00000</ele>
      </trkpt>
      <trkpt lat="38.57034800" lon="-6.34063400">
        <ele>418.00000</ele>
      </trkpt>
      <trkpt lat="38.57024300" lon="-6.34064400">
        <ele>419.00000</ele>
      </trkpt>
      <trkpt lat="38.57016600" lon="-6.34066600">
        <ele>419.00000</ele>
      </trkpt>
      <trkpt lat="38.57004200" lon="-6.34068299">
        <ele>419.00000</ele>
      </trkpt>
      <trkpt lat="38.56993600" lon="-6.34069699">
        <ele>419.00000</ele>
      </trkpt>
      <trkpt lat="38.56983600" lon="-6.34068700">
        <ele>419.00000</ele>
      </trkpt>
      <trkpt lat="38.56981200" lon="-6.34067500">
        <ele>419.00000</ele>
      </trkpt>
      <trkpt lat="38.56965900" lon="-6.34061500">
        <ele>420.00000</ele>
      </trkpt>
      <trkpt lat="38.56960100" lon="-6.34057800">
        <ele>420.00000</ele>
      </trkpt>
      <trkpt lat="38.56938800" lon="-6.34041199">
        <ele>419.00000</ele>
      </trkpt>
      <trkpt lat="38.56924000" lon="-6.34029400">
        <ele>419.00000</ele>
      </trkpt>
      <trkpt lat="38.56918500" lon="-6.34024500">
        <ele>418.00000</ele>
      </trkpt>
      <trkpt lat="38.56904500" lon="-6.34012600">
        <ele>418.00000</ele>
      </trkpt>
      <trkpt lat="38.56888300" lon="-6.33998200">
        <ele>419.00000</ele>
      </trkpt>
      <trkpt lat="38.56868000" lon="-6.33978800">
        <ele>421.00000</ele>
      </trkpt>
      <trkpt lat="38.56863700" lon="-6.33974500">
        <ele>421.00000</ele>
      </trkpt>
      <trkpt lat="38.56844900" lon="-6.33956500">
        <ele>421.00000</ele>
      </trkpt>
      <trkpt lat="38.56840000" lon="-6.33951100">
        <ele>421.00000</ele>
      </trkpt>
      <trkpt lat="38.56835000" lon="-6.33945700">
        <ele>421.00000</ele>
      </trkpt>
      <trkpt lat="38.56821900" lon="-6.33931999">
        <ele>422.00000</ele>
      </trkpt>
      <trkpt lat="38.56814600" lon="-6.33923600">
        <ele>423.00000</ele>
      </trkpt>
      <trkpt lat="38.56812200" lon="-6.33921100">
        <ele>423.00000</ele>
      </trkpt>
      <trkpt lat="38.56793500" lon="-6.33900700">
        <ele>424.00000</ele>
      </trkpt>
      <trkpt lat="38.56791200" lon="-6.33898100">
        <ele>424.00000</ele>
      </trkpt>
      <trkpt lat="38.56771700" lon="-6.33875600">
        <ele>425.00000</ele>
      </trkpt>
      <trkpt lat="38.56769300" lon="-6.33873300">
        <ele>425.00000</ele>
      </trkpt>
      <trkpt lat="38.56760000" lon="-6.33863499">
        <ele>425.00000</ele>
      </trkpt>
      <trkpt lat="38.56750800" lon="-6.33854400">
        <ele>426.00000</ele>
      </trkpt>
      <trkpt lat="38.56734100" lon="-6.33842800">
        <ele>426.00000</ele>
      </trkpt>
      <trkpt lat="38.56720600" lon="-6.33833700">
        <ele>425.00000</ele>
      </trkpt>
      <trkpt lat="38.56712300" lon="-6.33828700">
        <ele>426.00000</ele>
      </trkpt>
      <trkpt lat="38.56704400" lon="-6.33824799">
        <ele>426.00000</ele>
      </trkpt>
      <trkpt lat="38.56694100" lon="-6.33818100">
        <ele>426.00000</ele>
      </trkpt>
      <trkpt lat="38.56685300" lon="-6.33814000">
        <ele>426.00000</ele>
      </trkpt>
      <trkpt lat="38.56679300" lon="-6.33810900">
        <ele>426.00000</ele>
      </trkpt>
      <trkpt lat="38.56649900" lon="-6.33792700">
        <ele>427.00000</ele>
      </trkpt>
      <trkpt lat="38.56632700" lon="-6.33782700">
        <ele>428.00000</ele>
      </trkpt>
      <trkpt lat="38.56624200" lon="-6.33777700">
        <ele>429.00000</ele>
      </trkpt>
      <trkpt lat="38.56601000" lon="-6.33764499">
        <ele>430.00000</ele>
      </trkpt>
      <trkpt lat="38.56597600" lon="-6.33762900">
        <ele>431.00000</ele>
      </trkpt>
      <trkpt lat="38.56583500" lon="-6.33756700">
        <ele>431.00000</ele>
      </trkpt>
      <trkpt lat="38.56576000" lon="-6.33753299">
        <ele>431.00000</ele>
      </trkpt>
      <trkpt lat="38.56559800" lon="-6.33745199">
        <ele>431.00000</ele>
      </trkpt>
      <trkpt lat="38.56552500" lon="-6.33741600">
        <ele>432.00000</ele>
      </trkpt>
      <trkpt lat="38.56542700" lon="-6.33735700">
        <ele>432.00000</ele>
      </trkpt>
      <trkpt lat="38.56540900" lon="-6.33734600">
        <ele>432.00000</ele>
      </trkpt>
      <trkpt lat="38.56525900" lon="-6.33726999">
        <ele>432.00000</ele>
      </trkpt>
      <trkpt lat="38.56504300" lon="-6.33716699">
        <ele>432.00000</ele>
      </trkpt>
      <trkpt lat="38.56494700" lon="-6.33711500">
        <ele>432.00000</ele>
      </trkpt>
      <trkpt lat="38.56488900" lon="-6.33708600">
        <ele>432.00000</ele>
      </trkpt>
      <trkpt lat="38.56479400" lon="-6.33703800">
        <ele>432.00000</ele>
      </trkpt>
      <trkpt lat="38.56469200" lon="-6.33696700">
        <ele>432.00000</ele>
      </trkpt>
      <trkpt lat="38.56465100" lon="-6.33693300">
        <ele>432.00000</ele>
      </trkpt>
      <trkpt lat="38.56460000" lon="-6.33690200">
        <ele>432.00000</ele>
      </trkpt>
      <trkpt lat="38.56456600" lon="-6.33689200">
        <ele>432.00000</ele>
      </trkpt>
      <trkpt lat="38.56455700" lon="-6.33688600">
        <ele>432.00000</ele>
      </trkpt>
      <trkpt lat="38.56454800" lon="-6.33688300">
        <ele>432.00000</ele>
      </trkpt>
      <trkpt lat="38.56453900" lon="-6.33688199">
        <ele>432.00000</ele>
      </trkpt>
      <trkpt lat="38.56449800" lon="-6.33688900">
        <ele>432.00000</ele>
      </trkpt>
      <trkpt lat="38.56446400" lon="-6.33692400">
        <ele>432.00000</ele>
      </trkpt>
      <trkpt lat="38.56441800" lon="-6.33704900">
        <ele>433.00000</ele>
      </trkpt>
      <trkpt lat="38.56440900" lon="-6.33706100">
        <ele>433.00000</ele>
      </trkpt>
      <trkpt lat="38.56438600" lon="-6.33707300">
        <ele>433.00000</ele>
      </trkpt>
      <trkpt lat="38.56438000" lon="-6.33707400">
        <ele>433.00000</ele>
      </trkpt>
      <trkpt lat="38.56435100" lon="-6.33719300">
        <ele>434.00000</ele>
      </trkpt>
      <trkpt lat="38.56435100" lon="-6.33720900">
        <ele>434.00000</ele>
      </trkpt>
      <trkpt lat="38.56434700" lon="-6.33722100">
        <ele>434.00000</ele>
      </trkpt>
      <trkpt lat="38.56426900" lon="-6.33720299">
        <ele>434.00000</ele>
      </trkpt>
      <trkpt lat="38.56422100" lon="-6.33717600">
        <ele>433.00000</ele>
      </trkpt>
      <trkpt lat="38.56418500" lon="-6.33710500">
        <ele>433.00000</ele>
      </trkpt>
      <trkpt lat="38.56418100" lon="-6.33701999">
        <ele>432.00000</ele>
      </trkpt>
      <trkpt lat="38.56418400" lon="-6.33697100">
        <ele>432.00000</ele>
      </trkpt>
      <trkpt lat="38.56416800" lon="-6.33690800">
        <ele>431.00000</ele>
      </trkpt>
      <trkpt lat="38.56414000" lon="-6.33686500">
        <ele>431.00000</ele>
      </trkpt>
      <trkpt lat="38.56400100" lon="-6.33678299">
        <ele>431.00000</ele>
      </trkpt>
      <trkpt lat="38.56395400" lon="-6.33676400">
        <ele>431.00000</ele>
      </trkpt>
      <trkpt lat="38.56387200" lon="-6.33676700">
        <ele>431.00000</ele>
      </trkpt>
      <trkpt lat="38.56383500" lon="-6.33677900">
        <ele>431.00000</ele>
      </trkpt>
      <trkpt lat="38.56379500" lon="-6.33677200">
        <ele>431.00000</ele>
      </trkpt>
      <trkpt lat="38.56379300" lon="-6.33677200">
        <ele>431.00000</ele>
      </trkpt>
      <trkpt lat="38.56374500" lon="-6.33679199">
        <ele>431.00000</ele>
      </trkpt>
      <trkpt lat="38.56372900" lon="-6.33680000">
        <ele>431.00000</ele>
      </trkpt>
      <trkpt lat="38.56368600" lon="-6.33682700">
        <ele>431.00000</ele>
      </trkpt>
      <trkpt lat="38.56359500" lon="-6.33690800">
        <ele>431.00000</ele>
      </trkpt>
      <trkpt lat="38.56345400" lon="-6.33703300">
        <ele>429.00000</ele>
      </trkpt>
      <trkpt lat="38.56342600" lon="-6.33705700">
        <ele>429.00000</ele>
      </trkpt>
      <trkpt lat="38.56322600" lon="-6.33725100">
        <ele>428.00000</ele>
      </trkpt>
      <trkpt lat="38.56310500" lon="-6.33736100">
        <ele>428.00000</ele>
      </trkpt>
      <trkpt lat="38.56296500" lon="-6.33746199">
        <ele>427.00000</ele>
      </trkpt>
      <trkpt lat="38.56286100" lon="-6.33752900">
        <ele>426.00000</ele>
      </trkpt>
      <trkpt lat="38.56265300" lon="-6.33763800">
        <ele>426.00000</ele>
      </trkpt>
      <trkpt lat="38.56256600" lon="-6.33762100">
        <ele>426.00000</ele>
      </trkpt>
      <trkpt lat="38.56251800" lon="-6.33763200">
        <ele>426.00000</ele>
      </trkpt>
      <trkpt lat="38.56247600" lon="-6.33762200">
        <ele>426.00000</ele>
      </trkpt>
      <trkpt lat="38.56236700" lon="-6.33756300">
        <ele>426.00000</ele>
      </trkpt>
      <trkpt lat="38.56234700" lon="-6.33755700">
        <ele>426.00000</ele>
      </trkpt>
      <trkpt lat="38.56222200" lon="-6.33746800">
        <ele>427.00000</ele>
      </trkpt>
      <trkpt lat="38.56210500" lon="-6.33738800">
        <ele>427.00000</ele>
      </trkpt>
      <trkpt lat="38.56197300" lon="-6.33729200">
        <ele>427.00000</ele>
      </trkpt>
      <trkpt lat="38.56193000" lon="-6.33727800">
        <ele>426.00000</ele>
      </trkpt>
      <trkpt lat="38.56188300" lon="-6.33725500">
        <ele>426.00000</ele>
      </trkpt>
      <trkpt lat="38.56183500" lon="-6.33722800">
        <ele>426.00000</ele>
      </trkpt>
      <trkpt lat="38.56179300" lon="-6.33719400">
        <ele>425.00000</ele>
      </trkpt>
      <trkpt lat="38.56175900" lon="-6.33717000">
        <ele>425.00000</ele>
      </trkpt>
      <trkpt lat="38.56164400" lon="-6.33705299">
        <ele>424.00000</ele>
      </trkpt>
      <trkpt lat="38.56162700" lon="-6.33702500">
        <ele>424.00000</ele>
      </trkpt>
      <trkpt lat="38.56160000" lon="-6.33699800">
        <ele>423.00000</ele>
      </trkpt>
      <trkpt lat="38.56155500" lon="-6.33698100">
        <ele>423.00000</ele>
      </trkpt>
      <trkpt lat="38.56148400" lon="-6.33692100">
        <ele>422.00000</ele>
      </trkpt>
      <trkpt lat="38.56140100" lon="-6.33684400">
        <ele>422.00000</ele>
      </trkpt>
      <trkpt lat="38.56136600" lon="-6.33689600">
        <ele>422.00000</ele>
      </trkpt>
      <trkpt lat="38.56132800" lon="-6.33699200">
        <ele>422.00000</ele>
      </trkpt>
      <trkpt lat="38.56128900" lon="-6.33707800">
        <ele>422.00000</ele>
      </trkpt>
      <trkpt lat="38.56115300" lon="-6.33732800">
        <ele>421.00000</ele>
      </trkpt>
      <trkpt lat="38.56100800" lon="-6.33763700">
        <ele>421.00000</ele>
      </trkpt>
      <trkpt lat="38.56098400" lon="-6.33768100">
        <ele>420.00000</ele>
      </trkpt>
      <trkpt lat="38.56096500" lon="-6.33771600">
        <ele>420.00000</ele>
      </trkpt>
      <trkpt lat="38.56091300" lon="-6.33780700">
        <ele>420.00000</ele>
      </trkpt>
      <trkpt lat="38.56083400" lon="-6.33796700">
        <ele>419.00000</ele>
      </trkpt>
      <trkpt lat="38.56079300" lon="-6.33804300">
        <ele>419.00000</ele>
      </trkpt>
      <trkpt lat="38.56074800" lon="-6.33809700">
        <ele>419.00000</ele>
      </trkpt>
      <trkpt lat="38.56071200" lon="-6.33814800">
        <ele>419.00000</ele>
      </trkpt>
      <trkpt lat="38.56069100" lon="-6.33822100">
        <ele>419.00000</ele>
      </trkpt>
      <trkpt lat="38.56063500" lon="-6.33835400">
        <ele>419.00000</ele>
      </trkpt>
      <trkpt lat="38.56061000" lon="-6.33839500">
        <ele>419.00000</ele>
      </trkpt>
      <trkpt lat="38.56048400" lon="-6.33863599">
        <ele>418.00000</ele>
      </trkpt>
      <trkpt lat="38.56047300" lon="-6.33866400">
        <ele>418.00000</ele>
      </trkpt>
      <trkpt lat="38.56035500" lon="-6.33888699">
        <ele>417.00000</ele>
      </trkpt>
      <trkpt lat="38.56033300" lon="-6.33892900">
        <ele>417.00000</ele>
      </trkpt>
      <trkpt lat="38.56022000" lon="-6.33915300">
        <ele>416.00000</ele>
      </trkpt>
      <trkpt lat="38.56011400" lon="-6.33929400">
        <ele>415.00000</ele>
      </trkpt>
      <trkpt lat="38.56007900" lon="-6.33934099">
        <ele>415.00000</ele>
      </trkpt>
      <trkpt lat="38.56005800" lon="-6.33937399">
        <ele>415.00000</ele>
      </trkpt>
      <trkpt lat="38.56005000" lon="-6.33939700">
        <ele>415.00000</ele>
      </trkpt>
      <trkpt lat="38.55996500" lon="-6.33950500">
        <ele>414.00000</ele>
      </trkpt>
      <trkpt lat="38.55992200" lon="-6.33955500">
        <ele>414.00000</ele>
      </trkpt>
      <trkpt lat="38.55984800" lon="-6.33963700">
        <ele>413.00000</ele>
      </trkpt>
      <trkpt lat="38.55972500" lon="-6.33970800">
        <ele>412.00000</ele>
      </trkpt>
      <trkpt lat="38.55962100" lon="-6.33973700">
        <ele>411.00000</ele>
      </trkpt>
      <trkpt lat="38.55951800" lon="-6.33978400">
        <ele>411.00000</ele>
      </trkpt>
      <trkpt lat="38.55948400" lon="-6.33979800">
        <ele>411.00000</ele>
      </trkpt>
      <trkpt lat="38.55932100" lon="-6.33988999">
        <ele>411.00000</ele>
      </trkpt>
      <trkpt lat="38.55927700" lon="-6.33992600">
        <ele>411.00000</ele>
      </trkpt>
      <trkpt lat="38.55911700" lon="-6.34005300">
        <ele>410.00000</ele>
      </trkpt>
      <trkpt lat="38.55906300" lon="-6.34012300">
        <ele>410.00000</ele>
      </trkpt>
      <trkpt lat="38.55896900" lon="-6.34031200">
        <ele>410.00000</ele>
      </trkpt>
      <trkpt lat="38.55884300" lon="-6.34050000">
        <ele>412.00000</ele>
      </trkpt>
      <trkpt lat="38.55881200" lon="-6.34053900">
        <ele>412.00000</ele>
      </trkpt>
      <trkpt lat="38.55873300" lon="-6.34062700">
        <ele>413.00000</ele>
      </trkpt>
      <trkpt lat="38.55866200" lon="-6.34076500">
        <ele>413.00000</ele>
      </trkpt>
      <trkpt lat="38.55862600" lon="-6.34083600">
        <ele>413.00000</ele>
      </trkpt>
      <trkpt lat="38.55856100" lon="-6.34094800">
        <ele>414.00000</ele>
      </trkpt>
      <trkpt lat="38.55854800" lon="-6.34096700">
        <ele>414.00000</ele>
      </trkpt>
      <trkpt lat="38.55853300" lon="-6.34099400">
        <ele>414.00000</ele>
      </trkpt>
      <trkpt lat="38.55852300" lon="-6.34102400">
        <ele>414.00000</ele>
      </trkpt>
      <trkpt lat="38.55844000" lon="-6.34113500">
        <ele>415.00000</ele>
      </trkpt>
      <trkpt lat="38.55842000" lon="-6.34115400">
        <ele>415.00000</ele>
      </trkpt>
      <trkpt lat="38.55825500" lon="-6.34135300">
        <ele>416.00000</ele>
      </trkpt>
      <trkpt lat="38.55824000" lon="-6.34137100">
        <ele>416.00000</ele>
      </trkpt>
      <trkpt lat="38.55815000" lon="-6.34146300">
        <ele>417.00000</ele>
      </trkpt>
      <trkpt lat="38.55808700" lon="-6.34150900">
        <ele>418.00000</ele>
      </trkpt>
      <trkpt lat="38.55795300" lon="-6.34157700">
        <ele>419.00000</ele>
      </trkpt>
      <trkpt lat="38.55791500" lon="-6.34159900">
        <ele>419.00000</ele>
      </trkpt>
      <trkpt lat="38.55784100" lon="-6.34165100">
        <ele>419.00000</ele>
      </trkpt>
      <trkpt lat="38.55780300" lon="-6.34167300">
        <ele>419.00000</ele>
      </trkpt>
      <trkpt lat="38.55774600" lon="-6.34170500">
        <ele>420.00000</ele>
      </trkpt>
      <trkpt lat="38.55771400" lon="-6.34173000">
        <ele>420.00000</ele>
      </trkpt>
      <trkpt lat="38.55767400" lon="-6.34176100">
        <ele>420.00000</ele>
      </trkpt>
      <trkpt lat="38.55752300" lon="-6.34186900">
        <ele>420.00000</ele>
      </trkpt>
      <trkpt lat="38.55750100" lon="-6.34188100">
        <ele>420.00000</ele>
      </trkpt>
      <trkpt lat="38.55739900" lon="-6.34195899">
        <ele>421.00000</ele>
      </trkpt>
      <trkpt lat="38.55732900" lon="-6.34200300">
        <ele>421.00000</ele>
      </trkpt>
      <trkpt lat="38.55728000" lon="-6.34202500">
        <ele>421.00000</ele>
      </trkpt>
      <trkpt lat="38.55726000" lon="-6.34202900">
        <ele>421.00000</ele>
      </trkpt>
      <trkpt lat="38.55719500" lon="-6.34205900">
        <ele>421.00000</ele>
      </trkpt>
      <trkpt lat="38.55713200" lon="-6.34206700">
        <ele>421.00000</ele>
      </trkpt>
      <trkpt lat="38.55707900" lon="-6.34204100">
        <ele>421.00000</ele>
      </trkpt>
      <trkpt lat="38.55695500" lon="-6.34201700">
        <ele>421.00000</ele>
      </trkpt>
      <trkpt lat="38.55687700" lon="-6.34200700">
        <ele>422.00000</ele>
      </trkpt>
      <trkpt lat="38.55683900" lon="-6.34200700">
        <ele>422.00000</ele>
      </trkpt>
      <trkpt lat="38.55673100" lon="-6.34201900">
        <ele>422.00000</ele>
      </trkpt>
      <trkpt lat="38.55662400" lon="-6.34202900">
        <ele>423.00000</ele>
      </trkpt>
      <trkpt lat="38.55649400" lon="-6.34204400">
        <ele>423.00000</ele>
      </trkpt>
      <trkpt lat="38.55647300" lon="-6.34204800">
        <ele>423.00000</ele>
      </trkpt>
      <trkpt lat="38.55641400" lon="-6.34205600">
        <ele>424.00000</ele>
      </trkpt>
      <trkpt lat="38.55631400" lon="-6.34205200">
        <ele>424.00000</ele>
      </trkpt>
      <trkpt lat="38.55626000" lon="-6.34205300">
        <ele>424.00000</ele>
      </trkpt>
      <trkpt lat="38.55616000" lon="-6.34209100">
        <ele>424.00000</ele>
      </trkpt>
      <trkpt lat="38.55601600" lon="-6.34216400">
        <ele>424.00000</ele>
      </trkpt>
      <trkpt lat="38.55590500" lon="-6.34218699">
        <ele>424.00000</ele>
      </trkpt>
      <trkpt lat="38.55586200" lon="-6.34218800">
        <ele>424.00000</ele>
      </trkpt>
      <trkpt lat="38.55584600" lon="-6.34218300">
        <ele>424.00000</ele>
      </trkpt>
      <trkpt lat="38.55574400" lon="-6.34218500">
        <ele>424.00000</ele>
      </trkpt>
      <trkpt lat="38.55570600" lon="-6.34218500">
        <ele>424.00000</ele>
      </trkpt>
      <trkpt lat="38.55557600" lon="-6.34216299">
        <ele>423.00000</ele>
      </trkpt>
      <trkpt lat="38.55539000" lon="-6.34209200">
        <ele>422.00000</ele>
      </trkpt>
      <trkpt lat="38.55533100" lon="-6.34207500">
        <ele>421.00000</ele>
      </trkpt>
      <trkpt lat="38.55525600" lon="-6.34204899">
        <ele>421.00000</ele>
      </trkpt>
      <trkpt lat="38.55515400" lon="-6.34201900">
        <ele>420.00000</ele>
      </trkpt>
      <trkpt lat="38.55500900" lon="-6.34197700">
        <ele>420.00000</ele>
      </trkpt>
      <trkpt lat="38.55493000" lon="-6.34195100">
        <ele>420.00000</ele>
      </trkpt>
      <trkpt lat="38.55484000" lon="-6.34193300">
        <ele>420.00000</ele>
      </trkpt>
      <trkpt lat="38.55467900" lon="-6.34188999">
        <ele>421.00000</ele>
      </trkpt>
      <trkpt lat="38.55462900" lon="-6.34187500">
        <ele>421.00000</ele>
      </trkpt>
      <trkpt lat="38.55452700" lon="-6.34184900">
        <ele>422.00000</ele>
      </trkpt>
      <trkpt lat="38.55448100" lon="-6.34182700">
        <ele>422.00000</ele>
      </trkpt>
      <trkpt lat="38.55443600" lon="-6.34181500">
        <ele>422.00000</ele>
      </trkpt>
      <trkpt lat="38.55441200" lon="-6.34181500">
        <ele>422.00000</ele>
      </trkpt>
      <trkpt lat="38.55437700" lon="-6.34181500">
        <ele>422.00000</ele>
      </trkpt>
      <trkpt lat="38.55428800" lon="-6.34182800">
        <ele>422.00000</ele>
      </trkpt>
      <trkpt lat="38.55426400" lon="-6.34183400">
        <ele>422.00000</ele>
      </trkpt>
      <trkpt lat="38.55409200" lon="-6.34184000">
        <ele>422.00000</ele>
      </trkpt>
      <trkpt lat="38.55396600" lon="-6.34183400">
        <ele>423.00000</ele>
      </trkpt>
      <trkpt lat="38.55372100" lon="-6.34180400">
        <ele>426.00000</ele>
      </trkpt>
      <trkpt lat="38.55336700" lon="-6.34177100">
        <ele>429.00000</ele>
      </trkpt>
      <trkpt lat="38.55303300" lon="-6.34172700">
        <ele>429.00000</ele>
      </trkpt>
      <trkpt lat="38.55272800" lon="-6.34169699">
        <ele>428.00000</ele>
      </trkpt>
      <trkpt lat="38.55257700" lon="-6.34177599">
        <ele>429.00000</ele>
      </trkpt>
      <trkpt lat="38.55242200" lon="-6.34191399">
        <ele>429.00000</ele>
      </trkpt>
      <trkpt lat="38.55225600" lon="-6.34189700">
        <ele>429.00000</ele>
      </trkpt>
      <trkpt lat="38.55211800" lon="-6.34174299">
        <ele>430.00000</ele>
      </trkpt>
      <trkpt lat="38.55202400" lon="-6.34161400">
        <ele>430.00000</ele>
      </trkpt>
      <trkpt lat="38.55200200" lon="-6.34159900">
        <ele>431.00000</ele>
      </trkpt>
      <trkpt lat="38.55191400" lon="-6.34157399">
        <ele>431.00000</ele>
      </trkpt>
      <trkpt lat="38.55180200" lon="-6.34155999">
        <ele>430.00000</ele>
      </trkpt>
      <trkpt lat="38.55174300" lon="-6.34153799">
        <ele>430.00000</ele>
      </trkpt>
      <trkpt lat="38.55169500" lon="-6.34152500">
        <ele>430.00000</ele>
      </trkpt>
      <trkpt lat="38.55169000" lon="-6.34152400">
        <ele>430.00000</ele>
      </trkpt>
      <trkpt lat="38.55162800" lon="-6.34154300">
        <ele>430.00000</ele>
      </trkpt>
      <trkpt lat="38.55160800" lon="-6.34154100">
        <ele>430.00000</ele>
      </trkpt>
      <trkpt lat="38.55147300" lon="-6.34153799">
        <ele>429.00000</ele>
      </trkpt>
      <trkpt lat="38.55136800" lon="-6.34152800">
        <ele>428.00000</ele>
      </trkpt>
      <trkpt lat="38.55134800" lon="-6.34152500">
        <ele>428.00000</ele>
      </trkpt>
      <trkpt lat="38.55128600" lon="-6.34151800">
        <ele>429.00000</ele>
      </trkpt>
      <trkpt lat="38.55115600" lon="-6.34150200">
        <ele>429.00000</ele>
      </trkpt>
      <trkpt lat="38.55113500" lon="-6.34149900">
        <ele>430.00000</ele>
      </trkpt>
      <trkpt lat="38.55099100" lon="-6.34148200">
        <ele>431.00000</ele>
      </trkpt>
      <trkpt lat="38.55088700" lon="-6.34146700">
        <ele>433.00000</ele>
      </trkpt>
      <trkpt lat="38.55081000" lon="-6.34145500">
        <ele>434.00000</ele>
      </trkpt>
      <trkpt lat="38.55066800" lon="-6.34143400">
        <ele>435.00000</ele>
      </trkpt>
      <trkpt lat="38.55048400" lon="-6.34138800">
        <ele>436.00000</ele>
      </trkpt>
      <trkpt lat="38.55043000" lon="-6.34137899">
        <ele>436.00000</ele>
      </trkpt>
      <trkpt lat="38.55040400" lon="-6.34137400">
        <ele>436.00000</ele>
      </trkpt>
      <trkpt lat="38.55021600" lon="-6.34134500">
        <ele>436.00000</ele>
      </trkpt>
      <trkpt lat="38.55008200" lon="-6.34133500">
        <ele>436.00000</ele>
      </trkpt>
      <trkpt lat="38.55002900" lon="-6.34133300">
        <ele>436.00000</ele>
      </trkpt>
      <trkpt lat="38.54995000" lon="-6.34133000">
        <ele>437.00000</ele>
      </trkpt>
      <trkpt lat="38.54974700" lon="-6.34129400">
        <ele>437.00000</ele>
      </trkpt>
      <trkpt lat="38.54966900" lon="-6.34128300">
        <ele>437.00000</ele>
      </trkpt>
      <trkpt lat="38.54941400" lon="-6.34122700">
        <ele>437.00000</ele>
      </trkpt>
      <trkpt lat="38.54915900" lon="-6.34119700">
        <ele>439.00000</ele>
      </trkpt>
      <trkpt lat="38.54898000" lon="-6.34117700">
        <ele>440.00000</ele>
      </trkpt>
      <trkpt lat="38.54895500" lon="-6.34117300">
        <ele>440.00000</ele>
      </trkpt>
      <trkpt lat="38.54881400" lon="-6.34115000">
        <ele>441.00000</ele>
      </trkpt>
      <trkpt lat="38.54865300" lon="-6.34112000">
        <ele>441.00000</ele>
      </trkpt>
      <trkpt lat="38.54857200" lon="-6.34109800">
        <ele>441.00000</ele>
      </trkpt>
      <trkpt lat="38.54854500" lon="-6.34109000">
        <ele>441.00000</ele>
      </trkpt>
      <trkpt lat="38.54844500" lon="-6.34105700">
        <ele>441.00000</ele>
      </trkpt>
      <trkpt lat="38.54837300" lon="-6.34102400">
        <ele>441.00000</ele>
      </trkpt>
      <trkpt lat="38.54816000" lon="-6.34093700">
        <ele>441.00000</ele>
      </trkpt>
      <trkpt lat="38.54813800" lon="-6.34092500">
        <ele>442.00000</ele>
      </trkpt>
      <trkpt lat="38.54796300" lon="-6.34085399">
        <ele>442.00000</ele>
      </trkpt>
      <trkpt lat="38.54791800" lon="-6.34083400">
        <ele>442.00000</ele>
      </trkpt>
      <trkpt lat="38.54784700" lon="-6.34080800">
        <ele>442.00000</ele>
      </trkpt>
      <trkpt lat="38.54780000" lon="-6.34078699">
        <ele>442.00000</ele>
      </trkpt>
      <trkpt lat="38.54767300" lon="-6.34073900">
        <ele>442.00000</ele>
      </trkpt>
      <trkpt lat="38.54762700" lon="-6.34071700">
        <ele>442.00000</ele>
      </trkpt>
      <trkpt lat="38.54756000" lon="-6.34069400">
        <ele>443.00000</ele>
      </trkpt>
      <trkpt lat="38.54741900" lon="-6.34063900">
        <ele>442.00000</ele>
      </trkpt>
      <trkpt lat="38.54734600" lon="-6.34061400">
        <ele>442.00000</ele>
      </trkpt>
      <trkpt lat="38.54727700" lon="-6.34058700">
        <ele>442.00000</ele>
      </trkpt>
      <trkpt lat="38.54720900" lon="-6.34056200">
        <ele>441.00000</ele>
      </trkpt>
      <trkpt lat="38.54713900" lon="-6.34053400">
        <ele>441.00000</ele>
      </trkpt>
      <trkpt lat="38.54711600" lon="-6.34052599">
        <ele>441.00000</ele>
      </trkpt>
      <trkpt lat="38.54700400" lon="-6.34049300">
        <ele>440.00000</ele>
      </trkpt>
      <trkpt lat="38.54688800" lon="-6.34045300">
        <ele>440.00000</ele>
      </trkpt>
      <trkpt lat="38.54684100" lon="-6.34043399">
        <ele>441.00000</ele>
      </trkpt>
      <trkpt lat="38.54677200" lon="-6.34040900">
        <ele>441.00000</ele>
      </trkpt>
      <trkpt lat="38.54663100" lon="-6.34036499">
        <ele>442.00000</ele>
      </trkpt>
      <trkpt lat="38.54647200" lon="-6.34030999">
        <ele>443.00000</ele>
      </trkpt>
      <trkpt lat="38.54637700" lon="-6.34028100">
        <ele>445.00000</ele>
      </trkpt>
      <trkpt lat="38.54622900" lon="-6.34025200">
        <ele>445.00000</ele>
      </trkpt>
      <trkpt lat="38.54614900" lon="-6.34022400">
        <ele>446.00000</ele>
      </trkpt>
      <trkpt lat="38.54604100" lon="-6.34019700">
        <ele>446.00000</ele>
      </trkpt>
      <trkpt lat="38.54600900" lon="-6.34019200">
        <ele>446.00000</ele>
      </trkpt>
      <trkpt lat="38.54581000" lon="-6.34017700">
        <ele>446.00000</ele>
      </trkpt>
      <trkpt lat="38.54567500" lon="-6.34015800">
        <ele>446.00000</ele>
      </trkpt>
      <trkpt lat="38.54553500" lon="-6.34014100">
        <ele>445.00000</ele>
      </trkpt>
      <trkpt lat="38.54549800" lon="-6.34013699">
        <ele>445.00000</ele>
      </trkpt>
      <trkpt lat="38.54535900" lon="-6.34012200">
        <ele>445.00000</ele>
      </trkpt>
      <trkpt lat="38.54515800" lon="-6.34010299">
        <ele>444.00000</ele>
      </trkpt>
      <trkpt lat="38.54485100" lon="-6.34007700">
        <ele>445.00000</ele>
      </trkpt>
      <trkpt lat="38.54471800" lon="-6.34006600">
        <ele>446.00000</ele>
      </trkpt>
      <trkpt lat="38.54461300" lon="-6.34005400">
        <ele>447.00000</ele>
      </trkpt>
      <trkpt lat="38.54451600" lon="-6.34004400">
        <ele>447.00000</ele>
      </trkpt>
      <trkpt lat="38.54434100" lon="-6.34002700">
        <ele>447.00000</ele>
      </trkpt>
      <trkpt lat="38.54422700" lon="-6.34001500">
        <ele>447.00000</ele>
      </trkpt>
      <trkpt lat="38.54386800" lon="-6.34000099">
        <ele>444.00000</ele>
      </trkpt>
      <trkpt lat="38.54354900" lon="-6.34001500">
        <ele>445.00000</ele>
      </trkpt>
      <trkpt lat="38.54318600" lon="-6.34003100">
        <ele>446.00000</ele>
      </trkpt>
      <trkpt lat="38.54294400" lon="-6.34004400">
        <ele>447.00000</ele>
      </trkpt>
      <trkpt lat="38.54277300" lon="-6.34004100">
        <ele>447.00000</ele>
      </trkpt>
      <trkpt lat="38.54269400" lon="-6.34004500">
        <ele>447.00000</ele>
      </trkpt>
      <trkpt lat="38.54243800" lon="-6.34006600">
        <ele>449.00000</ele>
      </trkpt>
      <trkpt lat="38.54241100" lon="-6.34006600">
        <ele>449.00000</ele>
      </trkpt>
      <trkpt lat="38.54221900" lon="-6.34007600">
        <ele>450.00000</ele>
      </trkpt>
      <trkpt lat="38.54214600" lon="-6.34008199">
        <ele>450.00000</ele>
      </trkpt>
      <trkpt lat="38.54209300" lon="-6.34008600">
        <ele>450.00000</ele>
      </trkpt>
      <trkpt lat="38.54201600" lon="-6.34009600">
        <ele>450.00000</ele>
      </trkpt>
      <trkpt lat="38.54193600" lon="-6.34010100">
        <ele>450.00000</ele>
      </trkpt>
      <trkpt lat="38.54188300" lon="-6.34010700">
        <ele>450.00000</ele>
      </trkpt>
      <trkpt lat="38.54178200" lon="-6.34013200">
        <ele>450.00000</ele>
      </trkpt>
      <trkpt lat="38.54170400" lon="-6.34013899">
        <ele>450.00000</ele>
      </trkpt>
      <trkpt lat="38.54162300" lon="-6.34014700">
        <ele>450.00000</ele>
      </trkpt>
      <trkpt lat="38.54154700" lon="-6.34016100">
        <ele>450.00000</ele>
      </trkpt>
      <trkpt lat="38.54134600" lon="-6.34019700">
        <ele>451.00000</ele>
      </trkpt>
      <trkpt lat="38.54117000" lon="-6.34023400">
        <ele>451.00000</ele>
      </trkpt>
      <trkpt lat="38.54114400" lon="-6.34023600">
        <ele>451.00000</ele>
      </trkpt>
      <trkpt lat="38.54104700" lon="-6.34024099">
        <ele>452.00000</ele>
      </trkpt>
      <trkpt lat="38.54087000" lon="-6.34022300">
        <ele>452.00000</ele>
      </trkpt>
      <trkpt lat="38.54084400" lon="-6.34022200">
        <ele>452.00000</ele>
      </trkpt>
      <trkpt lat="38.54068600" lon="-6.34020700">
        <ele>453.00000</ele>
      </trkpt>
      <trkpt lat="38.54065900" lon="-6.34020300">
        <ele>453.00000</ele>
      </trkpt>
      <trkpt lat="38.54045200" lon="-6.34014000">
        <ele>452.00000</ele>
      </trkpt>
      <trkpt lat="38.54042700" lon="-6.34013400">
        <ele>452.00000</ele>
      </trkpt>
      <trkpt lat="38.54035300" lon="-6.34011000">
        <ele>452.00000</ele>
      </trkpt>
      <trkpt lat="38.54016900" lon="-6.34007800">
        <ele>452.00000</ele>
      </trkpt>
      <trkpt lat="38.53983100" lon="-6.34001500">
        <ele>452.00000</ele>
      </trkpt>
      <trkpt lat="38.53959000" lon="-6.34000600">
        <ele>453.00000</ele>
      </trkpt>
      <trkpt lat="38.53936900" lon="-6.33998500">
        <ele>452.00000</ele>
      </trkpt>
      <trkpt lat="38.53921700" lon="-6.33996000">
        <ele>452.00000</ele>
      </trkpt>
      <trkpt lat="38.53912100" lon="-6.33993900">
        <ele>452.00000</ele>
      </trkpt>
      <trkpt lat="38.53902600" lon="-6.33991800">
        <ele>453.00000</ele>
      </trkpt>
      <trkpt lat="38.53896600" lon="-6.33990300">
        <ele>453.00000</ele>
      </trkpt>
      <trkpt lat="38.53878600" lon="-6.33981900">
        <ele>453.00000</ele>
      </trkpt>
      <trkpt lat="38.53849700" lon="-6.33965500">
        <ele>452.00000</ele>
      </trkpt>
      <trkpt lat="38.53838600" lon="-6.33958800">
        <ele>451.00000</ele>
      </trkpt>
      <trkpt lat="38.53830400" lon="-6.33953400">
        <ele>451.00000</ele>
      </trkpt>
      <trkpt lat="38.53824900" lon="-6.33950200">
        <ele>451.00000</ele>
      </trkpt>
      <trkpt lat="38.53801800" lon="-6.33937500">
        <ele>451.00000</ele>
      </trkpt>
      <trkpt lat="38.53797800" lon="-6.33935600">
        <ele>451.00000</ele>
      </trkpt>
      <trkpt lat="38.53786100" lon="-6.33929000">
        <ele>451.00000</ele>
      </trkpt>
      <trkpt lat="38.53777800" lon="-6.33925999">
        <ele>451.00000</ele>
      </trkpt>
      <trkpt lat="38.53739000" lon="-6.33915500">
        <ele>452.00000</ele>
      </trkpt>
      <trkpt lat="38.53719800" lon="-6.33913300">
        <ele>454.00000</ele>
      </trkpt>
      <trkpt lat="38.53717200" lon="-6.33913200">
        <ele>454.00000</ele>
      </trkpt>
      <trkpt lat="38.53703400" lon="-6.33915000">
        <ele>455.00000</ele>
      </trkpt>
      <trkpt lat="38.53697500" lon="-6.33916500">
        <ele>455.00000</ele>
      </trkpt>
      <trkpt lat="38.53683000" lon="-6.33922200">
        <ele>455.00000</ele>
      </trkpt>
      <trkpt lat="38.53666400" lon="-6.33927500">
        <ele>454.00000</ele>
      </trkpt>
      <trkpt lat="38.53665400" lon="-6.33928600">
        <ele>454.00000</ele>
      </trkpt>
      <trkpt lat="38.53663600" lon="-6.33932500">
        <ele>454.00000</ele>
      </trkpt>
      <trkpt lat="38.53658700" lon="-6.33936400">
        <ele>454.00000</ele>
      </trkpt>
      <trkpt lat="38.53656900" lon="-6.33937500">
        <ele>454.00000</ele>
      </trkpt>
      <trkpt lat="38.53653000" lon="-6.33939500">
        <ele>454.00000</ele>
      </trkpt>
      <trkpt lat="38.53640500" lon="-6.33943700">
        <ele>453.00000</ele>
      </trkpt>
      <trkpt lat="38.53631700" lon="-6.33949700">
        <ele>452.00000</ele>
      </trkpt>
      <trkpt lat="38.53626000" lon="-6.33951199">
        <ele>451.00000</ele>
      </trkpt>
      <trkpt lat="38.53612300" lon="-6.33956400">
        <ele>450.00000</ele>
      </trkpt>
      <trkpt lat="38.53608200" lon="-6.33958099">
        <ele>449.00000</ele>
      </trkpt>
      <trkpt lat="38.53589700" lon="-6.33966800">
        <ele>447.00000</ele>
      </trkpt>
      <trkpt lat="38.53579600" lon="-6.33972400">
        <ele>446.00000</ele>
      </trkpt>
      <trkpt lat="38.53556000" lon="-6.33986800">
        <ele>444.00000</ele>
      </trkpt>
      <trkpt lat="38.53549100" lon="-6.33991300">
        <ele>443.00000</ele>
      </trkpt>
      <trkpt lat="38.53519000" lon="-6.34011200">
        <ele>441.00000</ele>
      </trkpt>
      <trkpt lat="38.53502400" lon="-6.34022700">
        <ele>441.00000</ele>
      </trkpt>
      <trkpt lat="38.53485800" lon="-6.34034700">
        <ele>441.00000</ele>
      </trkpt>
      <trkpt lat="38.53468900" lon="-6.34047200">
        <ele>440.00000</ele>
      </trkpt>
      <trkpt lat="38.53452100" lon="-6.34059700">
        <ele>439.00000</ele>
      </trkpt>
      <trkpt lat="38.53428000" lon="-6.34078000">
        <ele>437.00000</ele>
      </trkpt>
      <trkpt lat="38.53412300" lon="-6.34090300">
        <ele>436.00000</ele>
      </trkpt>
      <trkpt lat="38.53381300" lon="-6.34113800">
        <ele>433.00000</ele>
      </trkpt>
      <trkpt lat="38.53365900" lon="-6.34125100">
        <ele>433.00000</ele>
      </trkpt>
      <trkpt lat="38.53358200" lon="-6.34130700">
        <ele>432.00000</ele>
      </trkpt>
      <trkpt lat="38.53326900" lon="-6.34152900">
        <ele>431.00000</ele>
      </trkpt>
      <trkpt lat="38.53296800" lon="-6.34173099">
        <ele>431.00000</ele>
      </trkpt>
      <trkpt lat="38.53289800" lon="-6.34177500">
        <ele>431.00000</ele>
      </trkpt>
      <trkpt lat="38.53276700" lon="-6.34186500">
        <ele>430.00000</ele>
      </trkpt>
      <trkpt lat="38.53253100" lon="-6.34203699">
        <ele>430.00000</ele>
      </trkpt>
      <trkpt lat="38.53247600" lon="-6.34208300">
        <ele>429.00000</ele>
      </trkpt>
      <trkpt lat="38.53227400" lon="-6.34225299">
        <ele>428.00000</ele>
      </trkpt>
      <trkpt lat="38.53218100" lon="-6.34233399">
        <ele>429.00000</ele>
      </trkpt>
      <trkpt lat="38.53208300" lon="-6.34238099">
        <ele>429.00000</ele>
      </trkpt>
      <trkpt lat="38.53203900" lon="-6.34239300">
        <ele>429.00000</ele>
      </trkpt>
      <trkpt lat="38.53189200" lon="-6.34241000">
        <ele>428.00000</ele>
      </trkpt>
      <trkpt lat="38.53178700" lon="-6.34241199">
        <ele>428.00000</ele>
      </trkpt>
      <trkpt lat="38.53178200" lon="-6.34241400">
        <ele>428.00000</ele>
      </trkpt>
      <trkpt lat="38.53169100" lon="-6.34241100">
        <ele>428.00000</ele>
      </trkpt>
      <trkpt lat="38.53166600" lon="-6.34240800">
        <ele>428.00000</ele>
      </trkpt>
      <trkpt lat="38.53152300" lon="-6.34238800">
        <ele>428.00000</ele>
      </trkpt>
      <trkpt lat="38.53132800" lon="-6.34237899">
        <ele>429.00000</ele>
      </trkpt>
      <trkpt lat="38.53127200" lon="-6.34237800">
        <ele>429.00000</ele>
      </trkpt>
      <trkpt lat="38.53110600" lon="-6.34237899">
        <ele>430.00000</ele>
      </trkpt>
      <trkpt lat="38.53106100" lon="-6.34238500">
        <ele>430.00000</ele>
      </trkpt>
      <trkpt lat="38.53092700" lon="-6.34241700">
        <ele>430.00000</ele>
      </trkpt>
      <trkpt lat="38.53090400" lon="-6.34242300">
        <ele>430.00000</ele>
      </trkpt>
      <trkpt lat="38.53083300" lon="-6.34244900">
        <ele>430.00000</ele>
      </trkpt>
      <trkpt lat="38.53073500" lon="-6.34249600">
        <ele>430.00000</ele>
      </trkpt>
      <trkpt lat="38.53068900" lon="-6.34252599">
        <ele>431.00000</ele>
      </trkpt>
      <trkpt lat="38.53064500" lon="-6.34255600">
        <ele>431.00000</ele>
      </trkpt>
      <trkpt lat="38.53062100" lon="-6.34256700">
        <ele>431.00000</ele>
      </trkpt>
      <trkpt lat="38.53055100" lon="-6.34260000">
        <ele>432.00000</ele>
      </trkpt>
      <trkpt lat="38.53035900" lon="-6.34269500">
        <ele>433.00000</ele>
      </trkpt>
      <trkpt lat="38.53025800" lon="-6.34272900">
        <ele>434.00000</ele>
      </trkpt>
      <trkpt lat="38.53018900" lon="-6.34274600">
        <ele>434.00000</ele>
      </trkpt>
      <trkpt lat="38.53008100" lon="-6.34277400">
        <ele>434.00000</ele>
      </trkpt>
      <trkpt lat="38.52993600" lon="-6.34280700">
        <ele>435.00000</ele>
      </trkpt>
      <trkpt lat="38.52986100" lon="-6.34281700">
        <ele>435.00000</ele>
      </trkpt>
      <trkpt lat="38.52978600" lon="-6.34283300">
        <ele>435.00000</ele>
      </trkpt>
      <trkpt lat="38.52963600" lon="-6.34285200">
        <ele>434.00000</ele>
      </trkpt>
      <trkpt lat="38.52956200" lon="-6.34286799">
        <ele>434.00000</ele>
      </trkpt>
      <trkpt lat="38.52948500" lon="-6.34288299">
        <ele>433.00000</ele>
      </trkpt>
      <trkpt lat="38.52940700" lon="-6.34290100">
        <ele>433.00000</ele>
      </trkpt>
      <trkpt lat="38.52922300" lon="-6.34295800">
        <ele>432.00000</ele>
      </trkpt>
      <trkpt lat="38.52913400" lon="-6.34300000">
        <ele>432.00000</ele>
      </trkpt>
      <trkpt lat="38.52906500" lon="-6.34298000">
        <ele>432.00000</ele>
      </trkpt>
      <trkpt lat="38.52905300" lon="-6.34296600">
        <ele>432.00000</ele>
      </trkpt>
      <trkpt lat="38.52901700" lon="-6.34290600">
        <ele>432.00000</ele>
      </trkpt>
      <trkpt lat="38.52900100" lon="-6.34290800">
        <ele>432.00000</ele>
      </trkpt>
      <trkpt lat="38.52896000" lon="-6.34295700">
        <ele>432.00000</ele>
      </trkpt>
      <trkpt lat="38.52899600" lon="-6.34304500">
        <ele>432.00000</ele>
      </trkpt>
      <trkpt lat="38.52900400" lon="-6.34307900">
        <ele>433.00000</ele>
      </trkpt>
      <trkpt lat="38.52901400" lon="-6.34333500">
        <ele>433.00000</ele>
      </trkpt>
      <trkpt lat="38.52901500" lon="-6.34363600">
        <ele>434.00000</ele>
      </trkpt>
      <trkpt lat="38.52903000" lon="-6.34387800">
        <ele>435.00000</ele>
      </trkpt>
      <trkpt lat="38.52906000" lon="-6.34412800">
        <ele>437.00000</ele>
      </trkpt>
      <trkpt lat="38.52906200" lon="-6.34416900">
        <ele>437.00000</ele>
      </trkpt>
      <trkpt lat="38.52906900" lon="-6.34427999">
        <ele>438.00000</ele>
      </trkpt>
      <trkpt lat="38.52907000" lon="-6.34434200">
        <ele>438.00000</ele>
      </trkpt>
      <trkpt lat="38.52909100" lon="-6.34456399">
        <ele>438.00000</ele>
      </trkpt>
      <trkpt lat="38.52912500" lon="-6.34493400">
        <ele>438.00000</ele>
      </trkpt>
      <trkpt lat="38.52915100" lon="-6.34521800">
        <ele>439.00000</ele>
      </trkpt>
      <trkpt lat="38.52917700" lon="-6.34539400">
        <ele>438.00000</ele>
      </trkpt>
      <trkpt lat="38.52920000" lon="-6.34546199">
        <ele>438.00000</ele>
      </trkpt>
      <trkpt lat="38.52929500" lon="-6.34571300">
        <ele>438.00000</ele>
      </trkpt>
      <trkpt lat="38.52930800" lon="-6.34575200">
        <ele>438.00000</ele>
      </trkpt>
      <trkpt lat="38.52932000" lon="-6.34579100">
        <ele>438.00000</ele>
      </trkpt>
      <trkpt lat="38.52939500" lon="-6.34608300">
        <ele>439.00000</ele>
      </trkpt>
      <trkpt lat="38.52944800" lon="-6.34631100">
        <ele>438.00000</ele>
      </trkpt>
      <trkpt lat="38.52948300" lon="-6.34656899">
        <ele>438.00000</ele>
      </trkpt>
      <trkpt lat="38.52947500" lon="-6.34705400">
        <ele>437.00000</ele>
      </trkpt>
      <trkpt lat="38.52945200" lon="-6.34720700">
        <ele>437.00000</ele>
      </trkpt>
      <trkpt lat="38.52942300" lon="-6.34735700">
        <ele>438.00000</ele>
      </trkpt>
      <trkpt lat="38.52940400" lon="-6.34745700">
        <ele>438.00000</ele>
      </trkpt>
      <trkpt lat="38.52936100" lon="-6.34760499">
        <ele>439.00000</ele>
      </trkpt>
      <trkpt lat="38.52930800" lon="-6.34775100">
        <ele>439.00000</ele>
      </trkpt>
      <trkpt lat="38.52926100" lon="-6.34784100">
        <ele>439.00000</ele>
      </trkpt>
      <trkpt lat="38.52919500" lon="-6.34794900">
        <ele>439.00000</ele>
      </trkpt>
      <trkpt lat="38.52911800" lon="-6.34808600">
        <ele>438.00000</ele>
      </trkpt>
      <trkpt lat="38.52895700" lon="-6.34842700">
        <ele>438.00000</ele>
      </trkpt>
      <trkpt lat="38.52880000" lon="-6.34873500">
        <ele>438.00000</ele>
      </trkpt>
      <trkpt lat="38.52878100" lon="-6.34877300">
        <ele>438.00000</ele>
      </trkpt>
      <trkpt lat="38.52865300" lon="-6.34909100">
        <ele>439.00000</ele>
      </trkpt>
      <trkpt lat="38.52853000" lon="-6.34935900">
        <ele>441.00000</ele>
      </trkpt>
      <trkpt lat="38.52834900" lon="-6.34945000">
        <ele>442.00000</ele>
      </trkpt>
      <trkpt lat="38.52822300" lon="-6.34947100">
        <ele>443.00000</ele>
      </trkpt>
      <trkpt lat="38.52805900" lon="-6.34949600">
        <ele>443.00000</ele>
      </trkpt>
      <trkpt lat="38.52799000" lon="-6.34949900">
        <ele>443.00000</ele>
      </trkpt>
      <trkpt lat="38.52781800" lon="-6.34949299">
        <ele>443.00000</ele>
      </trkpt>
      <trkpt lat="38.52775700" lon="-6.34949000">
        <ele>443.00000</ele>
      </trkpt>
      <trkpt lat="38.52772700" lon="-6.34948300">
        <ele>443.00000</ele>
      </trkpt>
      <trkpt lat="38.52746600" lon="-6.34943100">
        <ele>444.00000</ele>
      </trkpt>
      <trkpt lat="38.52741300" lon="-6.34941900">
        <ele>444.00000</ele>
      </trkpt>
      <trkpt lat="38.52728500" lon="-6.34938100">
        <ele>444.00000</ele>
      </trkpt>
      <trkpt lat="38.52708400" lon="-6.34931700">
        <ele>444.00000</ele>
      </trkpt>
      <trkpt lat="38.52705900" lon="-6.34930900">
        <ele>445.00000</ele>
      </trkpt>
      <trkpt lat="38.52698300" lon="-6.34928400">
        <ele>445.00000</ele>
      </trkpt>
      <trkpt lat="38.52683100" lon="-6.34924000">
        <ele>446.00000</ele>
      </trkpt>
      <trkpt lat="38.52680800" lon="-6.34922999">
        <ele>446.00000</ele>
      </trkpt>
      <trkpt lat="38.52659600" lon="-6.34916800">
        <ele>448.00000</ele>
      </trkpt>
      <trkpt lat="38.52657500" lon="-6.34916400">
        <ele>448.00000</ele>
      </trkpt>
      <trkpt lat="38.52640100" lon="-6.34912400">
        <ele>450.00000</ele>
      </trkpt>
      <trkpt lat="38.52631900" lon="-6.34911100">
        <ele>450.00000</ele>
      </trkpt>
      <trkpt lat="38.52624200" lon="-6.34909399">
        <ele>451.00000</ele>
      </trkpt>
      <trkpt lat="38.52622300" lon="-6.34909000">
        <ele>451.00000</ele>
      </trkpt>
      <trkpt lat="38.52608500" lon="-6.34904100">
        <ele>452.00000</ele>
      </trkpt>
      <trkpt lat="38.52604400" lon="-6.34903400">
        <ele>452.00000</ele>
      </trkpt>
      <trkpt lat="38.52598400" lon="-6.34902499">
        <ele>452.00000</ele>
      </trkpt>
      <trkpt lat="38.52594100" lon="-6.34901700">
        <ele>452.00000</ele>
      </trkpt>
      <trkpt lat="38.52589800" lon="-6.34900600">
        <ele>451.00000</ele>
      </trkpt>
      <trkpt lat="38.52587800" lon="-6.34900500">
        <ele>451.00000</ele>
      </trkpt>
      <trkpt lat="38.52585700" lon="-6.34900000">
        <ele>451.00000</ele>
      </trkpt>
      <trkpt lat="38.52570200" lon="-6.34897400">
        <ele>451.00000</ele>
      </trkpt>
      <trkpt lat="38.52568100" lon="-6.34897400">
        <ele>451.00000</ele>
      </trkpt>
      <trkpt lat="38.52566100" lon="-6.34897300">
        <ele>451.00000</ele>
      </trkpt>
      <trkpt lat="38.52555600" lon="-6.34896200">
        <ele>451.00000</ele>
      </trkpt>
      <trkpt lat="38.52549400" lon="-6.34895400">
        <ele>451.00000</ele>
      </trkpt>
      <trkpt lat="38.52540900" lon="-6.34895000">
        <ele>452.00000</ele>
      </trkpt>
      <trkpt lat="38.52532500" lon="-6.34894699">
        <ele>452.00000</ele>
      </trkpt>
      <trkpt lat="38.52530500" lon="-6.34894500">
        <ele>452.00000</ele>
      </trkpt>
      <trkpt lat="38.52528500" lon="-6.34894400">
        <ele>452.00000</ele>
      </trkpt>
      <trkpt lat="38.52515100" lon="-6.34893600">
        <ele>453.00000</ele>
      </trkpt>
      <trkpt lat="38.52509300" lon="-6.34893300">
        <ele>453.00000</ele>
      </trkpt>
      <trkpt lat="38.52497300" lon="-6.34893400">
        <ele>453.00000</ele>
      </trkpt>
      <trkpt lat="38.52493100" lon="-6.34893800">
        <ele>453.00000</ele>
      </trkpt>
      <trkpt lat="38.52488600" lon="-6.34894200">
        <ele>453.00000</ele>
      </trkpt>
      <trkpt lat="38.52482000" lon="-6.34894300">
        <ele>453.00000</ele>
      </trkpt>
      <trkpt lat="38.52475400" lon="-6.34894800">
        <ele>453.00000</ele>
      </trkpt>
      <trkpt lat="38.52468600" lon="-6.34895899">
        <ele>453.00000</ele>
      </trkpt>
      <trkpt lat="38.52466300" lon="-6.34896400">
        <ele>453.00000</ele>
      </trkpt>
      <trkpt lat="38.52449000" lon="-6.34898200">
        <ele>454.00000</ele>
      </trkpt>
      <trkpt lat="38.52443400" lon="-6.34899199">
        <ele>454.00000</ele>
      </trkpt>
      <trkpt lat="38.52426900" lon="-6.34901500">
        <ele>453.00000</ele>
      </trkpt>
      <trkpt lat="38.52419000" lon="-6.34903200">
        <ele>453.00000</ele>
      </trkpt>
      <trkpt lat="38.52402100" lon="-6.34905900">
        <ele>452.00000</ele>
      </trkpt>
      <trkpt lat="38.52381000" lon="-6.34909500">
        <ele>452.00000</ele>
      </trkpt>
      <trkpt lat="38.52352600" lon="-6.34912999">
        <ele>452.00000</ele>
      </trkpt>
      <trkpt lat="38.52325600" lon="-6.34914600">
        <ele>453.00000</ele>
      </trkpt>
      <trkpt lat="38.52320300" lon="-6.34914700">
        <ele>453.00000</ele>
      </trkpt>
      <trkpt lat="38.52301400" lon="-6.34915000">
        <ele>455.00000</ele>
      </trkpt>
      <trkpt lat="38.52290800" lon="-6.34916000">
        <ele>455.00000</ele>
      </trkpt>
      <trkpt lat="38.52274900" lon="-6.34917499">
        <ele>454.00000</ele>
      </trkpt>
      <trkpt lat="38.52274300" lon="-6.34917600">
        <ele>454.00000</ele>
      </trkpt>
      <trkpt lat="38.52268800" lon="-6.34918900">
        <ele>454.00000</ele>
      </trkpt>
      <trkpt lat="38.52266100" lon="-6.34919300">
        <ele>454.00000</ele>
      </trkpt>
      <trkpt lat="38.52255500" lon="-6.34921700">
        <ele>454.00000</ele>
      </trkpt>
      <trkpt lat="38.52246800" lon="-6.34923700">
        <ele>454.00000</ele>
      </trkpt>
      <trkpt lat="38.52226600" lon="-6.34928100">
        <ele>452.00000</ele>
      </trkpt>
      <trkpt lat="38.52215800" lon="-6.34929800">
        <ele>452.00000</ele>
      </trkpt>
      <trkpt lat="38.52210300" lon="-6.34930099">
        <ele>452.00000</ele>
      </trkpt>
      <trkpt lat="38.52194100" lon="-6.34928100">
        <ele>451.00000</ele>
      </trkpt>
      <trkpt lat="38.52188800" lon="-6.34926400">
        <ele>451.00000</ele>
      </trkpt>
      <trkpt lat="38.52173900" lon="-6.34919100">
        <ele>451.00000</ele>
      </trkpt>
      <trkpt lat="38.52156600" lon="-6.34907600">
        <ele>451.00000</ele>
      </trkpt>
      <trkpt lat="38.52152400" lon="-6.34905000">
        <ele>451.00000</ele>
      </trkpt>
      <trkpt lat="38.52148200" lon="-6.34903200">
        <ele>451.00000</ele>
      </trkpt>
      <trkpt lat="38.52140300" lon="-6.34900600">
        <ele>451.00000</ele>
      </trkpt>
      <trkpt lat="38.52132800" lon="-6.34898900">
        <ele>451.00000</ele>
      </trkpt>
      <trkpt lat="38.52117000" lon="-6.34898200">
        <ele>451.00000</ele>
      </trkpt>
      <trkpt lat="38.52102700" lon="-6.34896300">
        <ele>451.00000</ele>
      </trkpt>
      <trkpt lat="38.52082800" lon="-6.34895000">
        <ele>451.00000</ele>
      </trkpt>
      <trkpt lat="38.52077500" lon="-6.34895100">
        <ele>451.00000</ele>
      </trkpt>
      <trkpt lat="38.52062500" lon="-6.34894800">
        <ele>451.00000</ele>
      </trkpt>
      <trkpt lat="38.52053600" lon="-6.34897099">
        <ele>451.00000</ele>
      </trkpt>
      <trkpt lat="38.52045600" lon="-6.34900600">
        <ele>451.00000</ele>
      </trkpt>
      <trkpt lat="38.52041600" lon="-6.34902499">
        <ele>452.00000</ele>
      </trkpt>
      <trkpt lat="38.52035400" lon="-6.34905000">
        <ele>452.00000</ele>
      </trkpt>
      <trkpt lat="38.52024200" lon="-6.34908199">
        <ele>454.00000</ele>
      </trkpt>
      <trkpt lat="38.52022200" lon="-6.34908600">
        <ele>454.00000</ele>
      </trkpt>
      <trkpt lat="38.52015800" lon="-6.34909399">
        <ele>455.00000</ele>
      </trkpt>
      <trkpt lat="38.52013900" lon="-6.34909399">
        <ele>455.00000</ele>
      </trkpt>
      <trkpt lat="38.52006400" lon="-6.34908000">
        <ele>455.00000</ele>
      </trkpt>
      <trkpt lat="38.51990000" lon="-6.34904200">
        <ele>457.00000</ele>
      </trkpt>
      <trkpt lat="38.51980800" lon="-6.34903000">
        <ele>457.00000</ele>
      </trkpt>
      <trkpt lat="38.51974000" lon="-6.34902000">
        <ele>458.00000</ele>
      </trkpt>
      <trkpt lat="38.51969400" lon="-6.34901599">
        <ele>458.00000</ele>
      </trkpt>
      <trkpt lat="38.51963100" lon="-6.34900900">
        <ele>458.00000</ele>
      </trkpt>
      <trkpt lat="38.51959000" lon="-6.34900500">
        <ele>459.00000</ele>
      </trkpt>
      <trkpt lat="38.51957000" lon="-6.34900100">
        <ele>459.00000</ele>
      </trkpt>
      <trkpt lat="38.51950600" lon="-6.34899100">
        <ele>459.00000</ele>
      </trkpt>
      <trkpt lat="38.51948500" lon="-6.34898900">
        <ele>459.00000</ele>
      </trkpt>
      <trkpt lat="38.51940100" lon="-6.34898600">
        <ele>459.00000</ele>
      </trkpt>
      <trkpt lat="38.51935700" lon="-6.34898500">
        <ele>460.00000</ele>
      </trkpt>
      <trkpt lat="38.51925100" lon="-6.34901200">
        <ele>460.00000</ele>
      </trkpt>
      <trkpt lat="38.51919000" lon="-6.34903300">
        <ele>461.00000</ele>
      </trkpt>
      <trkpt lat="38.51914600" lon="-6.34904100">
        <ele>461.00000</ele>
      </trkpt>
      <trkpt lat="38.51908300" lon="-6.34905100">
        <ele>461.00000</ele>
      </trkpt>
      <trkpt lat="38.51891000" lon="-6.34908000">
        <ele>461.00000</ele>
      </trkpt>
      <trkpt lat="38.51886900" lon="-6.34908300">
        <ele>461.00000</ele>
      </trkpt>
      <trkpt lat="38.51864200" lon="-6.34908000">
        <ele>461.00000</ele>
      </trkpt>
      <trkpt lat="38.51845800" lon="-6.34908100">
        <ele>461.00000</ele>
      </trkpt>
      <trkpt lat="38.51837200" lon="-6.34908900">
        <ele>461.00000</ele>
      </trkpt>
      <trkpt lat="38.51825000" lon="-6.34910599">
        <ele>461.00000</ele>
      </trkpt>
      <trkpt lat="38.51819000" lon="-6.34911799">
        <ele>461.00000</ele>
      </trkpt>
      <trkpt lat="38.51792000" lon="-6.34915300">
        <ele>462.00000</ele>
      </trkpt>
      <trkpt lat="38.51783400" lon="-6.34916000">
        <ele>462.00000</ele>
      </trkpt>
      <trkpt lat="38.51769100" lon="-6.34917200">
        <ele>462.00000</ele>
      </trkpt>
      <trkpt lat="38.51752400" lon="-6.34918400">
        <ele>462.00000</ele>
      </trkpt>
      <trkpt lat="38.51744000" lon="-6.34919000">
        <ele>462.00000</ele>
      </trkpt>
      <trkpt lat="38.51718900" lon="-6.34919899">
        <ele>463.00000</ele>
      </trkpt>
      <trkpt lat="38.51713300" lon="-6.34920000">
        <ele>463.00000</ele>
      </trkpt>
      <trkpt lat="38.51699100" lon="-6.34919800">
        <ele>463.00000</ele>
      </trkpt>
      <trkpt lat="38.51696300" lon="-6.34920000">
        <ele>463.00000</ele>
      </trkpt>
      <trkpt lat="38.51675800" lon="-6.34918499">
        <ele>463.00000</ele>
      </trkpt>
      <trkpt lat="38.51672900" lon="-6.34918200">
        <ele>463.00000</ele>
      </trkpt>
      <trkpt lat="38.51643000" lon="-6.34915099">
        <ele>465.00000</ele>
      </trkpt>
      <trkpt lat="38.51619500" lon="-6.34917200">
        <ele>466.00000</ele>
      </trkpt>
      <trkpt lat="38.51614800" lon="-6.34918000">
        <ele>466.00000</ele>
      </trkpt>
      <trkpt lat="38.51610000" lon="-6.34918699">
        <ele>467.00000</ele>
      </trkpt>
      <trkpt lat="38.51602200" lon="-6.34920900">
        <ele>467.00000</ele>
      </trkpt>
      <trkpt lat="38.51591000" lon="-6.34923700">
        <ele>467.00000</ele>
      </trkpt>
      <trkpt lat="38.51574100" lon="-6.34925900">
        <ele>468.00000</ele>
      </trkpt>
      <trkpt lat="38.51569400" lon="-6.34926300">
        <ele>469.00000</ele>
      </trkpt>
      <trkpt lat="38.51562400" lon="-6.34927000">
        <ele>469.00000</ele>
      </trkpt>
      <trkpt lat="38.51553200" lon="-6.34927400">
        <ele>470.00000</ele>
      </trkpt>
      <trkpt lat="38.51541500" lon="-6.34927400">
        <ele>471.00000</ele>
      </trkpt>
      <trkpt lat="38.51532600" lon="-6.34927500">
        <ele>472.00000</ele>
      </trkpt>
      <trkpt lat="38.51530200" lon="-6.34927600">
        <ele>472.00000</ele>
      </trkpt>
      <trkpt lat="38.51518300" lon="-6.34928100">
        <ele>472.00000</ele>
      </trkpt>
      <trkpt lat="38.51511700" lon="-6.34928400">
        <ele>472.00000</ele>
      </trkpt>
      <trkpt lat="38.51497900" lon="-6.34928600">
        <ele>471.00000</ele>
      </trkpt>
      <trkpt lat="38.51487500" lon="-6.34929500">
        <ele>471.00000</ele>
      </trkpt>
      <trkpt lat="38.51482600" lon="-6.34930700">
        <ele>472.00000</ele>
      </trkpt>
      <trkpt lat="38.51477800" lon="-6.34931800">
        <ele>472.00000</ele>
      </trkpt>
      <trkpt lat="38.51470400" lon="-6.34932100">
        <ele>472.00000</ele>
      </trkpt>
      <trkpt lat="38.51460100" lon="-6.34932900">
        <ele>472.00000</ele>
      </trkpt>
      <trkpt lat="38.51452700" lon="-6.34934000">
        <ele>472.00000</ele>
      </trkpt>
      <trkpt lat="38.51436700" lon="-6.34935500">
        <ele>473.00000</ele>
      </trkpt>
      <trkpt lat="38.51428400" lon="-6.34937100">
        <ele>473.00000</ele>
      </trkpt>
      <trkpt lat="38.51408000" lon="-6.34941600">
        <ele>472.00000</ele>
      </trkpt>
      <trkpt lat="38.51385200" lon="-6.34937200">
        <ele>472.00000</ele>
      </trkpt>
      <trkpt lat="38.51364100" lon="-6.34934200">
        <ele>473.00000</ele>
      </trkpt>
      <trkpt lat="38.51352300" lon="-6.34931100">
        <ele>473.00000</ele>
      </trkpt>
      <trkpt lat="38.51343500" lon="-6.34927800">
        <ele>473.00000</ele>
      </trkpt>
      <trkpt lat="38.51340900" lon="-6.34926800">
        <ele>473.00000</ele>
      </trkpt>
      <trkpt lat="38.51332600" lon="-6.34924100">
        <ele>474.00000</ele>
      </trkpt>
      <trkpt lat="38.51322300" lon="-6.34921100">
        <ele>474.00000</ele>
      </trkpt>
      <trkpt lat="38.51317500" lon="-6.34919800">
        <ele>474.00000</ele>
      </trkpt>
      <trkpt lat="38.51312500" lon="-6.34919000">
        <ele>474.00000</ele>
      </trkpt>
      <trkpt lat="38.51294900" lon="-6.34915200">
        <ele>476.00000</ele>
      </trkpt>
      <trkpt lat="38.51292100" lon="-6.34914700">
        <ele>476.00000</ele>
      </trkpt>
      <trkpt lat="38.51272800" lon="-6.34912900">
        <ele>478.00000</ele>
      </trkpt>
      <trkpt lat="38.51262100" lon="-6.34915099">
        <ele>479.00000</ele>
      </trkpt>
      <trkpt lat="38.51252200" lon="-6.34918100">
        <ele>479.00000</ele>
      </trkpt>
      <trkpt lat="38.51244600" lon="-6.34920400">
        <ele>479.00000</ele>
      </trkpt>
      <trkpt lat="38.51236800" lon="-6.34923300">
        <ele>479.00000</ele>
      </trkpt>
      <trkpt lat="38.51234300" lon="-6.34924399">
        <ele>479.00000</ele>
      </trkpt>
      <trkpt lat="38.51227100" lon="-6.34928400">
        <ele>479.00000</ele>
      </trkpt>
      <trkpt lat="38.51224500" lon="-6.34929400">
        <ele>479.00000</ele>
      </trkpt>
      <trkpt lat="38.51216200" lon="-6.34930400">
        <ele>479.00000</ele>
      </trkpt>
      <trkpt lat="38.51200200" lon="-6.34931200">
        <ele>479.00000</ele>
      </trkpt>
      <trkpt lat="38.51192600" lon="-6.34930400">
        <ele>479.00000</ele>
      </trkpt>
      <trkpt lat="38.51185500" lon="-6.34929000">
        <ele>479.00000</ele>
      </trkpt>
      <trkpt lat="38.51172900" lon="-6.34927500">
        <ele>479.00000</ele>
      </trkpt>
      <trkpt lat="38.51167600" lon="-6.34928300">
        <ele>479.00000</ele>
      </trkpt>
      <trkpt lat="38.51162100" lon="-6.34929000">
        <ele>479.00000</ele>
      </trkpt>
      <trkpt lat="38.51147300" lon="-6.34934000">
        <ele>479.00000</ele>
      </trkpt>
      <trkpt lat="38.51138900" lon="-6.34938600">
        <ele>479.00000</ele>
      </trkpt>
      <trkpt lat="38.51131300" lon="-6.34942700">
        <ele>479.00000</ele>
      </trkpt>
      <trkpt lat="38.51114600" lon="-6.34946900">
        <ele>479.00000</ele>
      </trkpt>
      <trkpt lat="38.51111900" lon="-6.34947500">
        <ele>479.00000</ele>
      </trkpt>
      <trkpt lat="38.51090300" lon="-6.34949400">
        <ele>479.00000</ele>
      </trkpt>
      <trkpt lat="38.51085200" lon="-6.34954999">
        <ele>479.00000</ele>
      </trkpt>
      <trkpt lat="38.51082500" lon="-6.34961100">
        <ele>480.00000</ele>
      </trkpt>
      <trkpt lat="38.51081500" lon="-6.34963800">
        <ele>480.00000</ele>
      </trkpt>
      <trkpt lat="38.51080400" lon="-6.34966700">
        <ele>480.00000</ele>
      </trkpt>
      <trkpt lat="38.51077000" lon="-6.34979999">
        <ele>480.00000</ele>
      </trkpt>
      <trkpt lat="38.51077700" lon="-6.34986899">
        <ele>480.00000</ele>
      </trkpt>
      <trkpt lat="38.51086800" lon="-6.35014400">
        <ele>480.00000</ele>
      </trkpt>
      <trkpt lat="38.51096200" lon="-6.35041200">
        <ele>481.00000</ele>
      </trkpt>
      <trkpt lat="38.51100900" lon="-6.35055200">
        <ele>481.00000</ele>
      </trkpt>
      <trkpt lat="38.51105400" lon="-6.35069500">
        <ele>481.00000</ele>
      </trkpt>
      <trkpt lat="38.51114600" lon="-6.35089299">
        <ele>481.00000</ele>
      </trkpt>
      <trkpt lat="38.51121800" lon="-6.35102000">
        <ele>481.00000</ele>
      </trkpt>
      <trkpt lat="38.51129500" lon="-6.35120600">
        <ele>481.00000</ele>
      </trkpt>
      <trkpt lat="38.51136600" lon="-6.35133100">
        <ele>481.00000</ele>
      </trkpt>
      <trkpt lat="38.51147500" lon="-6.35153500">
        <ele>480.00000</ele>
      </trkpt>
      <trkpt lat="38.51162700" lon="-6.35185899">
        <ele>478.00000</ele>
      </trkpt>
      <trkpt lat="38.51164100" lon="-6.35190200">
        <ele>478.00000</ele>
      </trkpt>
      <trkpt lat="38.51170400" lon="-6.35207300">
        <ele>477.00000</ele>
      </trkpt>
      <trkpt lat="38.51174300" lon="-6.35220300">
        <ele>477.00000</ele>
      </trkpt>
      <trkpt lat="38.51184500" lon="-6.35248200">
        <ele>477.00000</ele>
      </trkpt>
      <trkpt lat="38.51186100" lon="-6.35252300">
        <ele>477.00000</ele>
      </trkpt>
      <trkpt lat="38.51197300" lon="-6.35281500">
        <ele>478.00000</ele>
      </trkpt>
      <trkpt lat="38.51211600" lon="-6.35300600">
        <ele>478.00000</ele>
      </trkpt>
      <trkpt lat="38.51228100" lon="-6.35312100">
        <ele>477.00000</ele>
      </trkpt>
      <trkpt lat="38.51236500" lon="-6.35319000">
        <ele>477.00000</ele>
      </trkpt>
      <trkpt lat="38.51244900" lon="-6.35326200">
        <ele>476.00000</ele>
      </trkpt>
      <trkpt lat="38.51249000" lon="-6.35330400">
        <ele>476.00000</ele>
      </trkpt>
      <trkpt lat="38.51256500" lon="-6.35340200">
        <ele>475.00000</ele>
      </trkpt>
      <trkpt lat="38.51263900" lon="-6.35351200">
        <ele>474.00000</ele>
      </trkpt>
      <trkpt lat="38.51271100" lon="-6.35361700">
        <ele>472.00000</ele>
      </trkpt>
      <trkpt lat="38.51280800" lon="-6.35376500">
        <ele>471.00000</ele>
      </trkpt>
      <trkpt lat="38.51286400" lon="-6.35385700">
        <ele>471.00000</ele>
      </trkpt>
      <trkpt lat="38.51288900" lon="-6.35389900">
        <ele>471.00000</ele>
      </trkpt>
      <trkpt lat="38.51295400" lon="-6.35400500">
        <ele>471.00000</ele>
      </trkpt>
      <trkpt lat="38.51299400" lon="-6.35407700">
        <ele>472.00000</ele>
      </trkpt>
      <trkpt lat="38.51300300" lon="-6.35408999">
        <ele>472.00000</ele>
      </trkpt>
      <trkpt lat="38.51302800" lon="-6.35413200">
        <ele>472.00000</ele>
      </trkpt>
      <trkpt lat="38.51302800" lon="-6.35413499">
        <ele>472.00000</ele>
      </trkpt>
      <trkpt lat="38.51304900" lon="-6.35414699">
        <ele>472.00000</ele>
      </trkpt>
      <trkpt lat="38.51307500" lon="-6.35415600">
        <ele>472.00000</ele>
      </trkpt>
      <trkpt lat="38.51316100" lon="-6.35421200">
        <ele>473.00000</ele>
      </trkpt>
      <trkpt lat="38.51318400" lon="-6.35425099">
        <ele>473.00000</ele>
      </trkpt>
      <trkpt lat="38.51321700" lon="-6.35446800">
        <ele>474.00000</ele>
      </trkpt>
      <trkpt lat="38.51314800" lon="-6.35470900">
        <ele>475.00000</ele>
      </trkpt>
      <trkpt lat="38.51299500" lon="-6.35485499">
        <ele>475.00000</ele>
      </trkpt>
      <trkpt lat="38.51283400" lon="-6.35486700">
        <ele>475.00000</ele>
      </trkpt>
      <trkpt lat="38.51280200" lon="-6.35485800">
        <ele>475.00000</ele>
      </trkpt>
      <trkpt lat="38.51263900" lon="-6.35475100">
        <ele>475.00000</ele>
      </trkpt>
      <trkpt lat="38.51261400" lon="-6.35473500">
        <ele>475.00000</ele>
      </trkpt>
      <trkpt lat="38.51247600" lon="-6.35473300">
        <ele>475.00000</ele>
      </trkpt>
      <trkpt lat="38.51245100" lon="-6.35474400">
        <ele>475.00000</ele>
      </trkpt>
      <trkpt lat="38.51234800" lon="-6.35479799">
        <ele>476.00000</ele>
      </trkpt>
      <trkpt lat="38.51229100" lon="-6.35486300">
        <ele>476.00000</ele>
      </trkpt>
      <trkpt lat="38.51227400" lon="-6.35488799">
        <ele>477.00000</ele>
      </trkpt>
      <trkpt lat="38.51223400" lon="-6.35503100">
        <ele>477.00000</ele>
      </trkpt>
      <trkpt lat="38.51224100" lon="-6.35523899">
        <ele>477.00000</ele>
      </trkpt>
      <trkpt lat="38.51224600" lon="-6.35526700">
        <ele>477.00000</ele>
      </trkpt>
      <trkpt lat="38.51228000" lon="-6.35544300">
        <ele>477.00000</ele>
      </trkpt>
      <trkpt lat="38.51229100" lon="-6.35550200">
        <ele>477.00000</ele>
      </trkpt>
      <trkpt lat="38.51229600" lon="-6.35556400">
        <ele>477.00000</ele>
      </trkpt>
      <trkpt lat="38.51230400" lon="-6.35563100">
        <ele>477.00000</ele>
      </trkpt>
      <trkpt lat="38.51231800" lon="-6.35577700">
        <ele>478.00000</ele>
      </trkpt>
      <trkpt lat="38.51233100" lon="-6.35586100">
        <ele>478.00000</ele>
      </trkpt>
      <trkpt lat="38.51234100" lon="-6.35590500">
        <ele>478.00000</ele>
      </trkpt>
      <trkpt lat="38.51236600" lon="-6.35599800">
        <ele>479.00000</ele>
      </trkpt>
      <trkpt lat="38.51238400" lon="-6.35604600">
        <ele>479.00000</ele>
      </trkpt>
      <trkpt lat="38.51243000" lon="-6.35613800">
        <ele>479.00000</ele>
      </trkpt>
      <trkpt lat="38.51246200" lon="-6.35617700">
        <ele>479.00000</ele>
      </trkpt>
      <trkpt lat="38.51250000" lon="-6.35621300">
        <ele>479.00000</ele>
      </trkpt>
      <trkpt lat="38.51259100" lon="-6.35627200">
        <ele>479.00000</ele>
      </trkpt>
      <trkpt lat="38.51264100" lon="-6.35629500">
        <ele>480.00000</ele>
      </trkpt>
      <trkpt lat="38.51275300" lon="-6.35632600">
        <ele>480.00000</ele>
      </trkpt>
      <trkpt lat="38.51281200" lon="-6.35632500">
        <ele>480.00000</ele>
      </trkpt>
      <trkpt lat="38.51287000" lon="-6.35631200">
        <ele>480.00000</ele>
      </trkpt>
      <trkpt lat="38.51298000" lon="-6.35627300">
        <ele>480.00000</ele>
      </trkpt>
      <trkpt lat="38.51303300" lon="-6.35625500">
        <ele>480.00000</ele>
      </trkpt>
      <trkpt lat="38.51308400" lon="-6.35623500">
        <ele>480.00000</ele>
      </trkpt>
      <trkpt lat="38.51318200" lon="-6.35618800">
        <ele>479.00000</ele>
      </trkpt>
      <trkpt lat="38.51323000" lon="-6.35616700">
        <ele>479.00000</ele>
      </trkpt>
      <trkpt lat="38.51332300" lon="-6.35612900">
        <ele>479.00000</ele>
      </trkpt>
      <trkpt lat="38.51345700" lon="-6.35606500">
        <ele>478.00000</ele>
      </trkpt>
      <trkpt lat="38.51354200" lon="-6.35602900">
        <ele>478.00000</ele>
      </trkpt>
      <trkpt lat="38.51366300" lon="-6.35597200">
        <ele>479.00000</ele>
      </trkpt>
      <trkpt lat="38.51370300" lon="-6.35595200">
        <ele>479.00000</ele>
      </trkpt>
      <trkpt lat="38.51378700" lon="-6.35592299">
        <ele>479.00000</ele>
      </trkpt>
      <trkpt lat="38.51387100" lon="-6.35589600">
        <ele>479.00000</ele>
      </trkpt>
      <trkpt lat="38.51395700" lon="-6.35588999">
        <ele>479.00000</ele>
      </trkpt>
      <trkpt lat="38.51400000" lon="-6.35589800">
        <ele>479.00000</ele>
      </trkpt>
      <trkpt lat="38.51404300" lon="-6.35591300">
        <ele>479.00000</ele>
      </trkpt>
      <trkpt lat="38.51412400" lon="-6.35596100">
        <ele>479.00000</ele>
      </trkpt>
      <trkpt lat="38.51419100" lon="-6.35603400">
        <ele>480.00000</ele>
      </trkpt>
      <trkpt lat="38.51442300" lon="-6.35640400">
        <ele>481.00000</ele>
      </trkpt>
      <trkpt lat="38.51455900" lon="-6.35665200">
        <ele>481.00000</ele>
      </trkpt>
      <trkpt lat="38.51464400" lon="-6.35677300">
        <ele>481.00000</ele>
      </trkpt>
      <trkpt lat="38.51466000" lon="-6.35679999">
        <ele>481.00000</ele>
      </trkpt>
      <trkpt lat="38.51468000" lon="-6.35689100">
        <ele>481.00000</ele>
      </trkpt>
      <trkpt lat="38.51468000" lon="-6.35691600">
        <ele>481.00000</ele>
      </trkpt>
      <trkpt lat="38.51465500" lon="-6.35699400">
        <ele>482.00000</ele>
      </trkpt>
      <trkpt lat="38.51462200" lon="-6.35703600">
        <ele>482.00000</ele>
      </trkpt>
      <trkpt lat="38.51457100" lon="-6.35707800">
        <ele>482.00000</ele>
      </trkpt>
      <trkpt lat="38.51452300" lon="-6.35708499">
        <ele>482.00000</ele>
      </trkpt>
      <trkpt lat="38.51452800" lon="-6.35711400">
        <ele>482.00000</ele>
      </trkpt>
      <trkpt lat="38.51452800" lon="-6.35715000">
        <ele>482.00000</ele>
      </trkpt>
      <trkpt lat="38.51448600" lon="-6.35731200">
        <ele>482.00000</ele>
      </trkpt>
      <trkpt lat="38.51431000" lon="-6.35759200">
        <ele>481.00000</ele>
      </trkpt>
      <trkpt lat="38.51411500" lon="-6.35790499">
        <ele>481.00000</ele>
      </trkpt>
      <trkpt lat="38.51393400" lon="-6.35819300">
        <ele>482.00000</ele>
      </trkpt>
      <trkpt lat="38.51382900" lon="-6.35833600">
        <ele>482.00000</ele>
      </trkpt>
      <trkpt lat="38.51372000" lon="-6.35847400">
        <ele>483.00000</ele>
      </trkpt>
      <trkpt lat="38.51348200" lon="-6.35869700">
        <ele>483.00000</ele>
      </trkpt>
      <trkpt lat="38.51329800" lon="-6.35885700">
        <ele>483.00000</ele>
      </trkpt>
      <trkpt lat="38.51321400" lon="-6.35894100">
        <ele>484.00000</ele>
      </trkpt>
      <trkpt lat="38.51300700" lon="-6.35912900">
        <ele>485.00000</ele>
      </trkpt>
      <trkpt lat="38.51294700" lon="-6.35918000">
        <ele>486.00000</ele>
      </trkpt>
      <trkpt lat="38.51286100" lon="-6.35926600">
        <ele>486.00000</ele>
      </trkpt>
      <trkpt lat="38.51272500" lon="-6.35940200">
        <ele>486.00000</ele>
      </trkpt>
      <trkpt lat="38.51250200" lon="-6.35965400">
        <ele>486.00000</ele>
      </trkpt>
      <trkpt lat="38.51232100" lon="-6.35979600">
        <ele>485.00000</ele>
      </trkpt>
      <trkpt lat="38.51225600" lon="-6.35984000">
        <ele>484.00000</ele>
      </trkpt>
      <trkpt lat="38.51198900" lon="-6.36001200">
        <ele>485.00000</ele>
      </trkpt>
      <trkpt lat="38.51187200" lon="-6.36011400">
        <ele>486.00000</ele>
      </trkpt>
      <trkpt lat="38.51173900" lon="-6.36025200">
        <ele>487.00000</ele>
      </trkpt>
      <trkpt lat="38.51158500" lon="-6.36042500">
        <ele>487.00000</ele>
      </trkpt>
      <trkpt lat="38.51156000" lon="-6.36045500">
        <ele>487.00000</ele>
      </trkpt>
      <trkpt lat="38.51147100" lon="-6.36059100">
        <ele>487.00000</ele>
      </trkpt>
      <trkpt lat="38.51137900" lon="-6.36072500">
        <ele>488.00000</ele>
      </trkpt>
      <trkpt lat="38.51132300" lon="-6.36083999">
        <ele>488.00000</ele>
      </trkpt>
      <trkpt lat="38.51122000" lon="-6.36102400">
        <ele>488.00000</ele>
      </trkpt>
      <trkpt lat="38.51112300" lon="-6.36121200">
        <ele>488.00000</ele>
      </trkpt>
      <trkpt lat="38.51096700" lon="-6.36151200">
        <ele>488.00000</ele>
      </trkpt>
      <trkpt lat="38.51089600" lon="-6.36165999">
        <ele>488.00000</ele>
      </trkpt>
      <trkpt lat="38.51079600" lon="-6.36185100">
        <ele>489.00000</ele>
      </trkpt>
      <trkpt lat="38.51067800" lon="-6.36212599">
        <ele>489.00000</ele>
      </trkpt>
      <trkpt lat="38.51062500" lon="-6.36229300">
        <ele>489.00000</ele>
      </trkpt>
      <trkpt lat="38.51060100" lon="-6.36237700">
        <ele>489.00000</ele>
      </trkpt>
      <trkpt lat="38.51058700" lon="-6.36241800">
        <ele>489.00000</ele>
      </trkpt>
      <trkpt lat="38.51054600" lon="-6.36254100">
        <ele>489.00000</ele>
      </trkpt>
      <trkpt lat="38.51049200" lon="-6.36265800">
        <ele>489.00000</ele>
      </trkpt>
      <trkpt lat="38.51045200" lon="-6.36273000">
        <ele>489.00000</ele>
      </trkpt>
      <trkpt lat="38.51043100" lon="-6.36276400">
        <ele>489.00000</ele>
      </trkpt>
      <trkpt lat="38.51029800" lon="-6.36293500">
        <ele>489.00000</ele>
      </trkpt>
      <trkpt lat="38.51027800" lon="-6.36296400">
        <ele>490.00000</ele>
      </trkpt>
      <trkpt lat="38.51009200" lon="-6.36323600">
        <ele>490.00000</ele>
      </trkpt>
      <trkpt lat="38.51005200" lon="-6.36330000">
        <ele>490.00000</ele>
      </trkpt>
      <trkpt lat="38.50991200" lon="-6.36344000">
        <ele>491.00000</ele>
      </trkpt>
      <trkpt lat="38.50975900" lon="-6.36364700">
        <ele>491.00000</ele>
      </trkpt>
      <trkpt lat="38.50974400" lon="-6.36367700">
        <ele>491.00000</ele>
      </trkpt>
      <trkpt lat="38.50965900" lon="-6.36392300">
        <ele>492.00000</ele>
      </trkpt>
      <trkpt lat="38.50960100" lon="-6.36410300">
        <ele>492.00000</ele>
      </trkpt>
      <trkpt lat="38.50958300" lon="-6.36412600">
        <ele>492.00000</ele>
      </trkpt>
      <trkpt lat="38.50949600" lon="-6.36412200">
        <ele>492.00000</ele>
      </trkpt>
      <trkpt lat="38.50939600" lon="-6.36406300">
        <ele>492.00000</ele>
      </trkpt>
      <trkpt lat="38.50937100" lon="-6.36406100">
        <ele>492.00000</ele>
      </trkpt>
      <trkpt lat="38.50923100" lon="-6.36406900">
        <ele>493.00000</ele>
      </trkpt>
      <trkpt lat="38.50908000" lon="-6.36404699">
        <ele>494.00000</ele>
      </trkpt>
      <trkpt lat="38.50896900" lon="-6.36400199">
        <ele>494.00000</ele>
      </trkpt>
      <trkpt lat="38.50888100" lon="-6.36398400">
        <ele>494.00000</ele>
      </trkpt>
      <trkpt lat="38.50875300" lon="-6.36396000">
        <ele>494.00000</ele>
      </trkpt>
      <trkpt lat="38.50865800" lon="-6.36393800">
        <ele>495.00000</ele>
      </trkpt>
      <trkpt lat="38.50849600" lon="-6.36388999">
        <ele>494.00000</ele>
      </trkpt>
      <trkpt lat="38.50837900" lon="-6.36386800">
        <ele>493.00000</ele>
      </trkpt>
      <trkpt lat="38.50813500" lon="-6.36386300">
        <ele>492.00000</ele>
      </trkpt>
      <trkpt lat="38.50795100" lon="-6.36385499">
        <ele>492.00000</ele>
      </trkpt>
      <trkpt lat="38.50777600" lon="-6.36385000">
        <ele>493.00000</ele>
      </trkpt>
      <trkpt lat="38.50767100" lon="-6.36384900">
        <ele>493.00000</ele>
      </trkpt>
      <trkpt lat="38.50757800" lon="-6.36383200">
        <ele>493.00000</ele>
      </trkpt>
      <trkpt lat="38.50746800" lon="-6.36383700">
        <ele>494.00000</ele>
      </trkpt>
      <trkpt lat="38.50742400" lon="-6.36384200">
        <ele>494.00000</ele>
      </trkpt>
      <trkpt lat="38.50733300" lon="-6.36382199">
        <ele>494.00000</ele>
      </trkpt>
      <trkpt lat="38.50723500" lon="-6.36383399">
        <ele>494.00000</ele>
      </trkpt>
      <trkpt lat="38.50712800" lon="-6.36387700">
        <ele>495.00000</ele>
      </trkpt>
      <trkpt lat="38.50698800" lon="-6.36392600">
        <ele>495.00000</ele>
      </trkpt>
      <trkpt lat="38.50696600" lon="-6.36394200">
        <ele>496.00000</ele>
      </trkpt>
      <trkpt lat="38.50684800" lon="-6.36400800">
        <ele>496.00000</ele>
      </trkpt>
      <trkpt lat="38.50677600" lon="-6.36404500">
        <ele>497.00000</ele>
      </trkpt>
      <trkpt lat="38.50663400" lon="-6.36412200">
        <ele>498.00000</ele>
      </trkpt>
      <trkpt lat="38.50641600" lon="-6.36417500">
        <ele>499.00000</ele>
      </trkpt>
      <trkpt lat="38.50620600" lon="-6.36424600">
        <ele>499.00000</ele>
      </trkpt>
      <trkpt lat="38.50613700" lon="-6.36429100">
        <ele>499.00000</ele>
      </trkpt>
      <trkpt lat="38.50600400" lon="-6.36439900">
        <ele>500.00000</ele>
      </trkpt>
      <trkpt lat="38.50598100" lon="-6.36440700">
        <ele>500.00000</ele>
      </trkpt>
      <trkpt lat="38.50588700" lon="-6.36444400">
        <ele>500.00000</ele>
      </trkpt>
      <trkpt lat="38.50578800" lon="-6.36452400">
        <ele>500.00000</ele>
      </trkpt>
      <trkpt lat="38.50574400" lon="-6.36456200">
        <ele>500.00000</ele>
      </trkpt>
      <trkpt lat="38.50570100" lon="-6.36459599">
        <ele>500.00000</ele>
      </trkpt>
      <trkpt lat="38.50558900" lon="-6.36467500">
        <ele>500.00000</ele>
      </trkpt>
      <trkpt lat="38.50550100" lon="-6.36472800">
        <ele>501.00000</ele>
      </trkpt>
      <trkpt lat="38.50548500" lon="-6.36473900">
        <ele>501.00000</ele>
      </trkpt>
      <trkpt lat="38.50541700" lon="-6.36478500">
        <ele>502.00000</ele>
      </trkpt>
      <trkpt lat="38.50533300" lon="-6.36483200">
        <ele>503.00000</ele>
      </trkpt>
      <trkpt lat="38.50520300" lon="-6.36488500">
        <ele>503.00000</ele>
      </trkpt>
      <trkpt lat="38.50507900" lon="-6.36489800">
        <ele>503.00000</ele>
      </trkpt>
      <trkpt lat="38.50504000" lon="-6.36489000">
        <ele>503.00000</ele>
      </trkpt>
      <trkpt lat="38.50490400" lon="-6.36491000">
        <ele>503.00000</ele>
      </trkpt>
      <trkpt lat="38.50488100" lon="-6.36491600">
        <ele>503.00000</ele>
      </trkpt>
      <trkpt lat="38.50475000" lon="-6.36493900">
        <ele>503.00000</ele>
      </trkpt>
      <trkpt lat="38.50464100" lon="-6.36499600">
        <ele>503.00000</ele>
      </trkpt>
      <trkpt lat="38.50452800" lon="-6.36505400">
        <ele>503.00000</ele>
      </trkpt>
      <trkpt lat="38.50443000" lon="-6.36510200">
        <ele>503.00000</ele>
      </trkpt>
      <trkpt lat="38.50430100" lon="-6.36517599">
        <ele>504.00000</ele>
      </trkpt>
      <trkpt lat="38.50425100" lon="-6.36520400">
        <ele>504.00000</ele>
      </trkpt>
      <trkpt lat="38.50420500" lon="-6.36522600">
        <ele>504.00000</ele>
      </trkpt>
      <trkpt lat="38.50404400" lon="-6.36528900">
        <ele>505.00000</ele>
      </trkpt>
      <trkpt lat="38.50400800" lon="-6.36531700">
        <ele>506.00000</ele>
      </trkpt>
      <trkpt lat="38.50392900" lon="-6.36536799">
        <ele>506.00000</ele>
      </trkpt>
      <trkpt lat="38.50388700" lon="-6.36538300">
        <ele>507.00000</ele>
      </trkpt>
      <trkpt lat="38.50376900" lon="-6.36541400">
        <ele>507.00000</ele>
      </trkpt>
      <trkpt lat="38.50372200" lon="-6.36541499">
        <ele>507.00000</ele>
      </trkpt>
      <trkpt lat="38.50364800" lon="-6.36541600">
        <ele>507.00000</ele>
      </trkpt>
      <trkpt lat="38.50360800" lon="-6.36541800">
        <ele>507.00000</ele>
      </trkpt>
      <trkpt lat="38.50347000" lon="-6.36540900">
        <ele>507.00000</ele>
      </trkpt>
      <trkpt lat="38.50340500" lon="-6.36541900">
        <ele>507.00000</ele>
      </trkpt>
      <trkpt lat="38.50335400" lon="-6.36541900">
        <ele>507.00000</ele>
      </trkpt>
      <trkpt lat="38.50314000" lon="-6.36540500">
        <ele>509.00000</ele>
      </trkpt>
      <trkpt lat="38.50310700" lon="-6.36540300">
        <ele>509.00000</ele>
      </trkpt>
      <trkpt lat="38.50305600" lon="-6.36539500">
        <ele>509.00000</ele>
      </trkpt>
      <trkpt lat="38.50303100" lon="-6.36538900">
        <ele>509.00000</ele>
      </trkpt>
      <trkpt lat="38.50293000" lon="-6.36538900">
        <ele>509.00000</ele>
      </trkpt>
      <trkpt lat="38.50273800" lon="-6.36539700">
        <ele>509.00000</ele>
      </trkpt>
      <trkpt lat="38.50254100" lon="-6.36539500">
        <ele>509.00000</ele>
      </trkpt>
      <trkpt lat="38.50225200" lon="-6.36538100">
        <ele>508.00000</ele>
      </trkpt>
      <trkpt lat="38.50196200" lon="-6.36536600">
        <ele>509.00000</ele>
      </trkpt>
      <trkpt lat="38.50168800" lon="-6.36535799">
        <ele>508.00000</ele>
      </trkpt>
      <trkpt lat="38.50148700" lon="-6.36533800">
        <ele>506.00000</ele>
      </trkpt>
      <trkpt lat="38.50121700" lon="-6.36536400">
        <ele>505.00000</ele>
      </trkpt>
      <trkpt lat="38.50094700" lon="-6.36540900">
        <ele>506.00000</ele>
      </trkpt>
      <trkpt lat="38.50063000" lon="-6.36547100">
        <ele>508.00000</ele>
      </trkpt>
      <trkpt lat="38.50023100" lon="-6.36554800">
        <ele>507.00000</ele>
      </trkpt>
      <trkpt lat="38.50008700" lon="-6.36557299">
        <ele>507.00000</ele>
      </trkpt>
      <trkpt lat="38.49994100" lon="-6.36560400">
        <ele>507.00000</ele>
      </trkpt>
      <trkpt lat="38.49984800" lon="-6.36562300">
        <ele>507.00000</ele>
      </trkpt>
      <trkpt lat="38.49970300" lon="-6.36564200">
        <ele>507.00000</ele>
      </trkpt>
      <trkpt lat="38.49956000" lon="-6.36566800">
        <ele>507.00000</ele>
      </trkpt>
      <trkpt lat="38.49951300" lon="-6.36567600">
        <ele>507.00000</ele>
      </trkpt>
      <trkpt lat="38.49923200" lon="-6.36572800">
        <ele>505.00000</ele>
      </trkpt>
      <trkpt lat="38.49914500" lon="-6.36574599">
        <ele>505.00000</ele>
      </trkpt>
      <trkpt lat="38.49888800" lon="-6.36580099">
        <ele>506.00000</ele>
      </trkpt>
      <trkpt lat="38.49872400" lon="-6.36582600">
        <ele>508.00000</ele>
      </trkpt>
      <trkpt lat="38.49864600" lon="-6.36583599">
        <ele>509.00000</ele>
      </trkpt>
      <trkpt lat="38.49852500" lon="-6.36585400">
        <ele>510.00000</ele>
      </trkpt>
      <trkpt lat="38.49840300" lon="-6.36588099">
        <ele>510.00000</ele>
      </trkpt>
      <trkpt lat="38.49833100" lon="-6.36589100">
        <ele>510.00000</ele>
      </trkpt>
      <trkpt lat="38.49815100" lon="-6.36592400">
        <ele>509.00000</ele>
      </trkpt>
      <trkpt lat="38.49809700" lon="-6.36593100">
        <ele>509.00000</ele>
      </trkpt>
      <trkpt lat="38.49786000" lon="-6.36596400">
        <ele>508.00000</ele>
      </trkpt>
      <trkpt lat="38.49760100" lon="-6.36600400">
        <ele>508.00000</ele>
      </trkpt>
      <trkpt lat="38.49745400" lon="-6.36603800">
        <ele>507.00000</ele>
      </trkpt>
      <trkpt lat="38.49735300" lon="-6.36606199">
        <ele>507.00000</ele>
      </trkpt>
      <trkpt lat="38.49730200" lon="-6.36607900">
        <ele>507.00000</ele>
      </trkpt>
      <trkpt lat="38.49709900" lon="-6.36618600">
        <ele>506.00000</ele>
      </trkpt>
      <trkpt lat="38.49699500" lon="-6.36623000">
        <ele>505.00000</ele>
      </trkpt>
      <trkpt lat="38.49674800" lon="-6.36636400">
        <ele>504.00000</ele>
      </trkpt>
      <trkpt lat="38.49665000" lon="-6.36641400">
        <ele>503.00000</ele>
      </trkpt>
      <trkpt lat="38.49651600" lon="-6.36649300">
        <ele>503.00000</ele>
      </trkpt>
      <trkpt lat="38.49642400" lon="-6.36653900">
        <ele>502.00000</ele>
      </trkpt>
      <trkpt lat="38.49633500" lon="-6.36657600">
        <ele>501.00000</ele>
      </trkpt>
      <trkpt lat="38.49625500" lon="-6.36662500">
        <ele>501.00000</ele>
      </trkpt>
      <trkpt lat="38.49621500" lon="-6.36664500">
        <ele>500.00000</ele>
      </trkpt>
      <trkpt lat="38.49607800" lon="-6.36671100">
        <ele>500.00000</ele>
      </trkpt>
      <trkpt lat="38.49604600" lon="-6.36672500">
        <ele>500.00000</ele>
      </trkpt>
      <trkpt lat="38.49592400" lon="-6.36679500">
        <ele>500.00000</ele>
      </trkpt>
      <trkpt lat="38.49582100" lon="-6.36686100">
        <ele>500.00000</ele>
      </trkpt>
      <trkpt lat="38.49570800" lon="-6.36693799">
        <ele>501.00000</ele>
      </trkpt>
      <trkpt lat="38.49562900" lon="-6.36698299">
        <ele>502.00000</ele>
      </trkpt>
      <trkpt lat="38.49554700" lon="-6.36701899">
        <ele>502.00000</ele>
      </trkpt>
      <trkpt lat="38.49537000" lon="-6.36711900">
        <ele>502.00000</ele>
      </trkpt>
      <trkpt lat="38.49530300" lon="-6.36717400">
        <ele>502.00000</ele>
      </trkpt>
      <trkpt lat="38.49520900" lon="-6.36722200">
        <ele>502.00000</ele>
      </trkpt>
      <trkpt lat="38.49509800" lon="-6.36727900">
        <ele>503.00000</ele>
      </trkpt>
      <trkpt lat="38.49500400" lon="-6.36734400">
        <ele>503.00000</ele>
      </trkpt>
      <trkpt lat="38.49497100" lon="-6.36735000">
        <ele>502.00000</ele>
      </trkpt>
      <trkpt lat="38.49480200" lon="-6.36744100">
        <ele>501.00000</ele>
      </trkpt>
      <trkpt lat="38.49457600" lon="-6.36755200">
        <ele>500.00000</ele>
      </trkpt>
      <trkpt lat="38.49437000" lon="-6.36769099">
        <ele>500.00000</ele>
      </trkpt>
      <trkpt lat="38.49420100" lon="-6.36777300">
        <ele>501.00000</ele>
      </trkpt>
      <trkpt lat="38.49414200" lon="-6.36778400">
        <ele>502.00000</ele>
      </trkpt>
      <trkpt lat="38.49413600" lon="-6.36778099">
        <ele>502.00000</ele>
      </trkpt>
      <trkpt lat="38.49408100" lon="-6.36781300">
        <ele>502.00000</ele>
      </trkpt>
      <trkpt lat="38.49403100" lon="-6.36783799">
        <ele>502.00000</ele>
      </trkpt>
      <trkpt lat="38.49390300" lon="-6.36790900">
        <ele>502.00000</ele>
      </trkpt>
      <trkpt lat="38.49371600" lon="-6.36803400">
        <ele>503.00000</ele>
      </trkpt>
      <trkpt lat="38.49356900" lon="-6.36811900">
        <ele>504.00000</ele>
      </trkpt>
      <trkpt lat="38.49354500" lon="-6.36813000">
        <ele>504.00000</ele>
      </trkpt>
      <trkpt lat="38.49344600" lon="-6.36817900">
        <ele>504.00000</ele>
      </trkpt>
      <trkpt lat="38.49337300" lon="-6.36821000">
        <ele>504.00000</ele>
      </trkpt>
      <trkpt lat="38.49331100" lon="-6.36824500">
        <ele>504.00000</ele>
      </trkpt>
      <trkpt lat="38.49318400" lon="-6.36830300">
        <ele>505.00000</ele>
      </trkpt>
      <trkpt lat="38.49316300" lon="-6.36831200">
        <ele>505.00000</ele>
      </trkpt>
      <trkpt lat="38.49309200" lon="-6.36836500">
        <ele>505.00000</ele>
      </trkpt>
      <trkpt lat="38.49307400" lon="-6.36837299">
        <ele>506.00000</ele>
      </trkpt>
      <trkpt lat="38.49297200" lon="-6.36843700">
        <ele>506.00000</ele>
      </trkpt>
      <trkpt lat="38.49281200" lon="-6.36851200">
        <ele>507.00000</ele>
      </trkpt>
      <trkpt lat="38.49273600" lon="-6.36856200">
        <ele>508.00000</ele>
      </trkpt>
      <trkpt lat="38.49268900" lon="-6.36859500">
        <ele>508.00000</ele>
      </trkpt>
      <trkpt lat="38.49256500" lon="-6.36866200">
        <ele>508.00000</ele>
      </trkpt>
      <trkpt lat="38.49254800" lon="-6.36867400">
        <ele>509.00000</ele>
      </trkpt>
      <trkpt lat="38.49242100" lon="-6.36874700">
        <ele>509.00000</ele>
      </trkpt>
      <trkpt lat="38.49238700" lon="-6.36877100">
        <ele>509.00000</ele>
      </trkpt>
      <trkpt lat="38.49228100" lon="-6.36881900">
        <ele>510.00000</ele>
      </trkpt>
      <trkpt lat="38.49223300" lon="-6.36884000">
        <ele>510.00000</ele>
      </trkpt>
      <trkpt lat="38.49219200" lon="-6.36886400">
        <ele>510.00000</ele>
      </trkpt>
      <trkpt lat="38.49213600" lon="-6.36889000">
        <ele>510.00000</ele>
      </trkpt>
      <trkpt lat="38.49211600" lon="-6.36889799">
        <ele>510.00000</ele>
      </trkpt>
      <trkpt lat="38.49204200" lon="-6.36894200">
        <ele>509.00000</ele>
      </trkpt>
      <trkpt lat="38.49197000" lon="-6.36897800">
        <ele>509.00000</ele>
      </trkpt>
      <trkpt lat="38.49186300" lon="-6.36902800">
        <ele>509.00000</ele>
      </trkpt>
      <trkpt lat="38.49184100" lon="-6.36904200">
        <ele>509.00000</ele>
      </trkpt>
      <trkpt lat="38.49175200" lon="-6.36909400">
        <ele>508.00000</ele>
      </trkpt>
      <trkpt lat="38.49166200" lon="-6.36914600">
        <ele>508.00000</ele>
      </trkpt>
      <trkpt lat="38.49151300" lon="-6.36922700">
        <ele>509.00000</ele>
      </trkpt>
      <trkpt lat="38.49146200" lon="-6.36924800">
        <ele>509.00000</ele>
      </trkpt>
      <trkpt lat="38.49137200" lon="-6.36932000">
        <ele>509.00000</ele>
      </trkpt>
      <trkpt lat="38.49126300" lon="-6.36937300">
        <ele>509.00000</ele>
      </trkpt>
      <trkpt lat="38.49121400" lon="-6.36939800">
        <ele>509.00000</ele>
      </trkpt>
      <trkpt lat="38.49109400" lon="-6.36946800">
        <ele>509.00000</ele>
      </trkpt>
      <trkpt lat="38.49097400" lon="-6.36950900">
        <ele>509.00000</ele>
      </trkpt>
      <trkpt lat="38.49085400" lon="-6.36957200">
        <ele>510.00000</ele>
      </trkpt>
      <trkpt lat="38.49077500" lon="-6.36961400">
        <ele>510.00000</ele>
      </trkpt>
      <trkpt lat="38.49069500" lon="-6.36966600">
        <ele>511.00000</ele>
      </trkpt>
      <trkpt lat="38.49066000" lon="-6.36969300">
        <ele>512.00000</ele>
      </trkpt>
      <trkpt lat="38.49054100" lon="-6.36977100">
        <ele>513.00000</ele>
      </trkpt>
      <trkpt lat="38.49052100" lon="-6.36978399">
        <ele>513.00000</ele>
      </trkpt>
      <trkpt lat="38.49040700" lon="-6.36983000">
        <ele>513.00000</ele>
      </trkpt>
      <trkpt lat="38.49036400" lon="-6.36984500">
        <ele>513.00000</ele>
      </trkpt>
      <trkpt lat="38.49028300" lon="-6.36988300">
        <ele>513.00000</ele>
      </trkpt>
      <trkpt lat="38.49022300" lon="-6.36992000">
        <ele>513.00000</ele>
      </trkpt>
      <trkpt lat="38.49017900" lon="-6.36994600">
        <ele>513.00000</ele>
      </trkpt>
      <trkpt lat="38.49013300" lon="-6.36997400">
        <ele>513.00000</ele>
      </trkpt>
      <trkpt lat="38.49007400" lon="-6.37000800">
        <ele>513.00000</ele>
      </trkpt>
      <trkpt lat="38.48991400" lon="-6.37008900">
        <ele>513.00000</ele>
      </trkpt>
      <trkpt lat="38.48987400" lon="-6.37011399">
        <ele>513.00000</ele>
      </trkpt>
      <trkpt lat="38.48966100" lon="-6.37023600">
        <ele>515.00000</ele>
      </trkpt>
      <trkpt lat="38.48942200" lon="-6.37038100">
        <ele>516.00000</ele>
      </trkpt>
      <trkpt lat="38.48939400" lon="-6.37039400">
        <ele>516.00000</ele>
      </trkpt>
      <trkpt lat="38.48913800" lon="-6.37053300">
        <ele>517.00000</ele>
      </trkpt>
      <trkpt lat="38.48904300" lon="-6.37058100">
        <ele>517.00000</ele>
      </trkpt>
      <trkpt lat="38.48895100" lon="-6.37062600">
        <ele>517.00000</ele>
      </trkpt>
      <trkpt lat="38.48889800" lon="-6.37065900">
        <ele>517.00000</ele>
      </trkpt>
      <trkpt lat="38.48882800" lon="-6.37070400">
        <ele>517.00000</ele>
      </trkpt>
      <trkpt lat="38.48882400" lon="-6.37070799">
        <ele>517.00000</ele>
      </trkpt>
      <trkpt lat="38.48875800" lon="-6.37071900">
        <ele>517.00000</ele>
      </trkpt>
      <trkpt lat="38.48873100" lon="-6.37072400">
        <ele>517.00000</ele>
      </trkpt>
      <trkpt lat="38.48857200" lon="-6.37078000">
        <ele>517.00000</ele>
      </trkpt>
      <trkpt lat="38.48840800" lon="-6.37084400">
        <ele>516.00000</ele>
      </trkpt>
      <trkpt lat="38.48830500" lon="-6.37087900">
        <ele>515.00000</ele>
      </trkpt>
      <trkpt lat="38.48805400" lon="-6.37106200">
        <ele>514.00000</ele>
      </trkpt>
      <trkpt lat="38.48780600" lon="-6.37126000">
        <ele>513.00000</ele>
      </trkpt>
      <trkpt lat="38.48775600" lon="-6.37130200">
        <ele>513.00000</ele>
      </trkpt>
      <trkpt lat="38.48766000" lon="-6.37138800">
        <ele>512.00000</ele>
      </trkpt>
      <trkpt lat="38.48761000" lon="-6.37142200">
        <ele>512.00000</ele>
      </trkpt>
      <trkpt lat="38.48756100" lon="-6.37145300">
        <ele>512.00000</ele>
      </trkpt>
      <trkpt lat="38.48750900" lon="-6.37148200">
        <ele>511.00000</ele>
      </trkpt>
      <trkpt lat="38.48734000" lon="-6.37156000">
        <ele>510.00000</ele>
      </trkpt>
      <trkpt lat="38.48721200" lon="-6.37161300">
        <ele>508.00000</ele>
      </trkpt>
      <trkpt lat="38.48700800" lon="-6.37170799">
        <ele>508.00000</ele>
      </trkpt>
      <trkpt lat="38.48678400" lon="-6.37181800">
        <ele>507.00000</ele>
      </trkpt>
      <trkpt lat="38.48654700" lon="-6.37192100">
        <ele>506.00000</ele>
      </trkpt>
      <trkpt lat="38.48623500" lon="-6.37204300">
        <ele>504.00000</ele>
      </trkpt>
      <trkpt lat="38.48602000" lon="-6.37211800">
        <ele>503.00000</ele>
      </trkpt>
      <trkpt lat="38.48595300" lon="-6.37213900">
        <ele>503.00000</ele>
      </trkpt>
      <trkpt lat="38.48564800" lon="-6.37223000">
        <ele>502.00000</ele>
      </trkpt>
      <trkpt lat="38.48554500" lon="-6.37226399">
        <ele>502.00000</ele>
      </trkpt>
      <trkpt lat="38.48535200" lon="-6.37232500">
        <ele>503.00000</ele>
      </trkpt>
      <trkpt lat="38.48510400" lon="-6.37240700">
        <ele>504.00000</ele>
      </trkpt>
      <trkpt lat="38.48491700" lon="-6.37246000">
        <ele>505.00000</ele>
      </trkpt>
      <trkpt lat="38.48482300" lon="-6.37249399">
        <ele>505.00000</ele>
      </trkpt>
      <trkpt lat="38.48471900" lon="-6.37252799">
        <ele>504.00000</ele>
      </trkpt>
      <trkpt lat="38.48443700" lon="-6.37261700">
        <ele>504.00000</ele>
      </trkpt>
      <trkpt lat="38.48435200" lon="-6.37263899">
        <ele>504.00000</ele>
      </trkpt>
      <trkpt lat="38.48426800" lon="-6.37265800">
        <ele>504.00000</ele>
      </trkpt>
      <trkpt lat="38.48409400" lon="-6.37269000">
        <ele>504.00000</ele>
      </trkpt>
      <trkpt lat="38.48404900" lon="-6.37269500">
        <ele>504.00000</ele>
      </trkpt>
      <trkpt lat="38.48390800" lon="-6.37270400">
        <ele>504.00000</ele>
      </trkpt>
      <trkpt lat="38.48375500" lon="-6.37269700">
        <ele>503.00000</ele>
      </trkpt>
      <trkpt lat="38.48370100" lon="-6.37268699">
        <ele>503.00000</ele>
      </trkpt>
      <trkpt lat="38.48346500" lon="-6.37264099">
        <ele>501.00000</ele>
      </trkpt>
      <trkpt lat="38.48328600" lon="-6.37260599">
        <ele>500.00000</ele>
      </trkpt>
      <trkpt lat="38.48317500" lon="-6.37258900">
        <ele>500.00000</ele>
      </trkpt>
      <trkpt lat="38.48293400" lon="-6.37255099">
        <ele>500.00000</ele>
      </trkpt>
      <trkpt lat="38.48268100" lon="-6.37251400">
        <ele>501.00000</ele>
      </trkpt>
      <trkpt lat="38.48254500" lon="-6.37249700">
        <ele>502.00000</ele>
      </trkpt>
      <trkpt lat="38.48240300" lon="-6.37249199">
        <ele>504.00000</ele>
      </trkpt>
      <trkpt lat="38.48238400" lon="-6.37249199">
        <ele>504.00000</ele>
      </trkpt>
      <trkpt lat="38.48225300" lon="-6.37248100">
        <ele>506.00000</ele>
      </trkpt>
      <trkpt lat="38.48223400" lon="-6.37247999">
        <ele>506.00000</ele>
      </trkpt>
      <trkpt lat="38.48217900" lon="-6.37248199">
        <ele>507.00000</ele>
      </trkpt>
      <trkpt lat="38.48211400" lon="-6.37247999">
        <ele>507.00000</ele>
      </trkpt>
      <trkpt lat="38.48206800" lon="-6.37247800">
        <ele>508.00000</ele>
      </trkpt>
      <trkpt lat="38.48196500" lon="-6.37247600">
        <ele>508.00000</ele>
      </trkpt>
      <trkpt lat="38.48191400" lon="-6.37247400">
        <ele>509.00000</ele>
      </trkpt>
      <trkpt lat="38.48187800" lon="-6.37246999">
        <ele>509.00000</ele>
      </trkpt>
      <trkpt lat="38.48182200" lon="-6.37246200">
        <ele>509.00000</ele>
      </trkpt>
      <trkpt lat="38.48176600" lon="-6.37246200">
        <ele>509.00000</ele>
      </trkpt>
      <trkpt lat="38.48173000" lon="-6.37246100">
        <ele>509.00000</ele>
      </trkpt>
      <trkpt lat="38.48171200" lon="-6.37245899">
        <ele>509.00000</ele>
      </trkpt>
      <trkpt lat="38.48163500" lon="-6.37244500">
        <ele>510.00000</ele>
      </trkpt>
      <trkpt lat="38.48157200" lon="-6.37244200">
        <ele>510.00000</ele>
      </trkpt>
      <trkpt lat="38.48155000" lon="-6.37243900">
        <ele>510.00000</ele>
      </trkpt>
      <trkpt lat="38.48150400" lon="-6.37243699">
        <ele>510.00000</ele>
      </trkpt>
      <trkpt lat="38.48147900" lon="-6.37243600">
        <ele>510.00000</ele>
      </trkpt>
      <trkpt lat="38.48143300" lon="-6.37243400">
        <ele>510.00000</ele>
      </trkpt>
      <trkpt lat="38.48136100" lon="-6.37243200">
        <ele>510.00000</ele>
      </trkpt>
      <trkpt lat="38.48125500" lon="-6.37243200">
        <ele>509.00000</ele>
      </trkpt>
      <trkpt lat="38.48107000" lon="-6.37241399">
        <ele>509.00000</ele>
      </trkpt>
      <trkpt lat="38.48095200" lon="-6.37239700">
        <ele>509.00000</ele>
      </trkpt>
      <trkpt lat="38.48079300" lon="-6.37237600">
        <ele>509.00000</ele>
      </trkpt>
      <trkpt lat="38.48033300" lon="-6.37230600">
        <ele>511.00000</ele>
      </trkpt>
      <trkpt lat="38.47995100" lon="-6.37225900">
        <ele>511.00000</ele>
      </trkpt>
      <trkpt lat="38.47984600" lon="-6.37224700">
        <ele>511.00000</ele>
      </trkpt>
      <trkpt lat="38.47973500" lon="-6.37223200">
        <ele>511.00000</ele>
      </trkpt>
      <trkpt lat="38.47960700" lon="-6.37220899">
        <ele>510.00000</ele>
      </trkpt>
      <trkpt lat="38.47951300" lon="-6.37219000">
        <ele>510.00000</ele>
      </trkpt>
      <trkpt lat="38.47925700" lon="-6.37215000">
        <ele>508.00000</ele>
      </trkpt>
      <trkpt lat="38.47920500" lon="-6.37214600">
        <ele>508.00000</ele>
      </trkpt>
      <trkpt lat="38.47910300" lon="-6.37214500">
        <ele>507.00000</ele>
      </trkpt>
      <trkpt lat="38.47905200" lon="-6.37214700">
        <ele>507.00000</ele>
      </trkpt>
      <trkpt lat="38.47890000" lon="-6.37216700">
        <ele>506.00000</ele>
      </trkpt>
      <trkpt lat="38.47875400" lon="-6.37219699">
        <ele>505.00000</ele>
      </trkpt>
      <trkpt lat="38.47852100" lon="-6.37227500">
        <ele>503.00000</ele>
      </trkpt>
      <trkpt lat="38.47838400" lon="-6.37234700">
        <ele>503.00000</ele>
      </trkpt>
      <trkpt lat="38.47829800" lon="-6.37240300">
        <ele>502.00000</ele>
      </trkpt>
      <trkpt lat="38.47817500" lon="-6.37249700">
        <ele>502.00000</ele>
      </trkpt>
      <trkpt lat="38.47810200" lon="-6.37256500">
        <ele>502.00000</ele>
      </trkpt>
      <trkpt lat="38.47791700" lon="-6.37272900">
        <ele>502.00000</ele>
      </trkpt>
      <trkpt lat="38.47787500" lon="-6.37276400">
        <ele>502.00000</ele>
      </trkpt>
      <trkpt lat="38.47769600" lon="-6.37293300">
        <ele>500.00000</ele>
      </trkpt>
      <trkpt lat="38.47764400" lon="-6.37297199">
        <ele>499.00000</ele>
      </trkpt>
      <trkpt lat="38.47758800" lon="-6.37300800">
        <ele>499.00000</ele>
      </trkpt>
      <trkpt lat="38.47746500" lon="-6.37305800">
        <ele>497.00000</ele>
      </trkpt>
      <trkpt lat="38.47739800" lon="-6.37306800">
        <ele>497.00000</ele>
      </trkpt>
      <trkpt lat="38.47732800" lon="-6.37306600">
        <ele>496.00000</ele>
      </trkpt>
      <trkpt lat="38.47711900" lon="-6.37302000">
        <ele>495.00000</ele>
      </trkpt>
      <trkpt lat="38.47699400" lon="-6.37298299">
        <ele>494.00000</ele>
      </trkpt>
      <trkpt lat="38.47693800" lon="-6.37296300">
        <ele>494.00000</ele>
      </trkpt>
      <trkpt lat="38.47684400" lon="-6.37291199">
        <ele>495.00000</ele>
      </trkpt>
      <trkpt lat="38.47680400" lon="-6.37288500">
        <ele>496.00000</ele>
      </trkpt>
      <trkpt lat="38.47674000" lon="-6.37283000">
        <ele>497.00000</ele>
      </trkpt>
      <trkpt lat="38.47668800" lon="-6.37277900">
        <ele>497.00000</ele>
      </trkpt>
      <trkpt lat="38.47655700" lon="-6.37265600">
        <ele>499.00000</ele>
      </trkpt>
      <trkpt lat="38.47645900" lon="-6.37255700">
        <ele>500.00000</ele>
      </trkpt>
      <trkpt lat="38.47637200" lon="-6.37248800">
        <ele>502.00000</ele>
      </trkpt>
      <trkpt lat="38.47628300" lon="-6.37242300">
        <ele>503.00000</ele>
      </trkpt>
      <trkpt lat="38.47625100" lon="-6.37239500">
        <ele>503.00000</ele>
      </trkpt>
      <trkpt lat="38.47618800" lon="-6.37234000">
        <ele>504.00000</ele>
      </trkpt>
      <trkpt lat="38.47613900" lon="-6.37229700">
        <ele>505.00000</ele>
      </trkpt>
      <trkpt lat="38.47610300" lon="-6.37227500">
        <ele>505.00000</ele>
      </trkpt>
      <trkpt lat="38.47608700" lon="-6.37226200">
        <ele>505.00000</ele>
      </trkpt>
      <trkpt lat="38.47602200" lon="-6.37221200">
        <ele>506.00000</ele>
      </trkpt>
      <trkpt lat="38.47600700" lon="-6.37220000">
        <ele>506.00000</ele>
      </trkpt>
      <trkpt lat="38.47596000" lon="-6.37216500">
        <ele>506.00000</ele>
      </trkpt>
      <trkpt lat="38.47592600" lon="-6.37214400">
        <ele>506.00000</ele>
      </trkpt>
      <trkpt lat="38.47585800" lon="-6.37210499">
        <ele>506.00000</ele>
      </trkpt>
      <trkpt lat="38.47576600" lon="-6.37205300">
        <ele>507.00000</ele>
      </trkpt>
      <trkpt lat="38.47571200" lon="-6.37202300">
        <ele>507.00000</ele>
      </trkpt>
      <trkpt lat="38.47563300" lon="-6.37197600">
        <ele>508.00000</ele>
      </trkpt>
      <trkpt lat="38.47557900" lon="-6.37193900">
        <ele>508.00000</ele>
      </trkpt>
      <trkpt lat="38.47548800" lon="-6.37188500">
        <ele>509.00000</ele>
      </trkpt>
      <trkpt lat="38.47545200" lon="-6.37185900">
        <ele>509.00000</ele>
      </trkpt>
      <trkpt lat="38.47534800" lon="-6.37179100">
        <ele>509.00000</ele>
      </trkpt>
      <trkpt lat="38.47531300" lon="-6.37177100">
        <ele>509.00000</ele>
      </trkpt>
      <trkpt lat="38.47527700" lon="-6.37174700">
        <ele>510.00000</ele>
      </trkpt>
      <trkpt lat="38.47521200" lon="-6.37170200">
        <ele>510.00000</ele>
      </trkpt>
      <trkpt lat="38.47517900" lon="-6.37168300">
        <ele>510.00000</ele>
      </trkpt>
      <trkpt lat="38.47516200" lon="-6.37166900">
        <ele>510.00000</ele>
      </trkpt>
      <trkpt lat="38.47507000" lon="-6.37158700">
        <ele>510.00000</ele>
      </trkpt>
      <trkpt lat="38.47505400" lon="-6.37157300">
        <ele>510.00000</ele>
      </trkpt>
      <trkpt lat="38.47496300" lon="-6.37147600">
        <ele>510.00000</ele>
      </trkpt>
      <trkpt lat="38.47484800" lon="-6.37136700">
        <ele>511.00000</ele>
      </trkpt>
      <trkpt lat="38.47480000" lon="-6.37132400">
        <ele>511.00000</ele>
      </trkpt>
      <trkpt lat="38.47457700" lon="-6.37116800">
        <ele>511.00000</ele>
      </trkpt>
      <trkpt lat="38.47436000" lon="-6.37104900">
        <ele>511.00000</ele>
      </trkpt>
      <trkpt lat="38.47432500" lon="-6.37103400">
        <ele>511.00000</ele>
      </trkpt>
      <trkpt lat="38.47418600" lon="-6.37098200">
        <ele>511.00000</ele>
      </trkpt>
      <trkpt lat="38.47408800" lon="-6.37095600">
        <ele>511.00000</ele>
      </trkpt>
      <trkpt lat="38.47388300" lon="-6.37088700">
        <ele>511.00000</ele>
      </trkpt>
      <trkpt lat="38.47370800" lon="-6.37080999">
        <ele>511.00000</ele>
      </trkpt>
      <trkpt lat="38.47365100" lon="-6.37078100">
        <ele>511.00000</ele>
      </trkpt>
      <trkpt lat="38.47358900" lon="-6.37075800">
        <ele>511.00000</ele>
      </trkpt>
      <trkpt lat="38.47350700" lon="-6.37070400">
        <ele>511.00000</ele>
      </trkpt>
      <trkpt lat="38.47342000" lon="-6.37066200">
        <ele>511.00000</ele>
      </trkpt>
      <trkpt lat="38.47323300" lon="-6.37052299">
        <ele>511.00000</ele>
      </trkpt>
      <trkpt lat="38.47318500" lon="-6.37049600">
        <ele>511.00000</ele>
      </trkpt>
      <trkpt lat="38.47308500" lon="-6.37045400">
        <ele>512.00000</ele>
      </trkpt>
      <trkpt lat="38.47293500" lon="-6.37043600">
        <ele>512.00000</ele>
      </trkpt>
      <trkpt lat="38.47276600" lon="-6.37044800">
        <ele>512.00000</ele>
      </trkpt>
      <trkpt lat="38.47268100" lon="-6.37046400">
        <ele>512.00000</ele>
      </trkpt>
      <trkpt lat="38.47252200" lon="-6.37050800">
        <ele>513.00000</ele>
      </trkpt>
      <trkpt lat="38.47249500" lon="-6.37051299">
        <ele>514.00000</ele>
      </trkpt>
      <trkpt lat="38.47233900" lon="-6.37050600">
        <ele>514.00000</ele>
      </trkpt>
      <trkpt lat="38.47228400" lon="-6.37049700">
        <ele>514.00000</ele>
      </trkpt>
      <trkpt lat="38.47222300" lon="-6.37048899">
        <ele>515.00000</ele>
      </trkpt>
      <trkpt lat="38.47217700" lon="-6.37048200">
        <ele>515.00000</ele>
      </trkpt>
      <trkpt lat="38.47211100" lon="-6.37047400">
        <ele>516.00000</ele>
      </trkpt>
      <trkpt lat="38.47209600" lon="-6.37047400">
        <ele>516.00000</ele>
      </trkpt>
      <trkpt lat="38.47204500" lon="-6.37046200">
        <ele>517.00000</ele>
      </trkpt>
      <trkpt lat="38.47199400" lon="-6.37046000">
        <ele>517.00000</ele>
      </trkpt>
      <trkpt lat="38.47197500" lon="-6.37046100">
        <ele>517.00000</ele>
      </trkpt>
      <trkpt lat="38.47193700" lon="-6.37045599">
        <ele>518.00000</ele>
      </trkpt>
      <trkpt lat="38.47183600" lon="-6.37046400">
        <ele>518.00000</ele>
      </trkpt>
      <trkpt lat="38.47181900" lon="-6.37046200">
        <ele>518.00000</ele>
      </trkpt>
      <trkpt lat="38.47168500" lon="-6.37045900">
        <ele>518.00000</ele>
      </trkpt>
      <trkpt lat="38.47166800" lon="-6.37045800">
        <ele>518.00000</ele>
      </trkpt>
      <trkpt lat="38.47165100" lon="-6.37045800">
        <ele>519.00000</ele>
      </trkpt>
      <trkpt lat="38.47152400" lon="-6.37046200">
        <ele>519.00000</ele>
      </trkpt>
      <trkpt lat="38.47149300" lon="-6.37046200">
        <ele>520.00000</ele>
      </trkpt>
      <trkpt lat="38.47142500" lon="-6.37047000">
        <ele>520.00000</ele>
      </trkpt>
      <trkpt lat="38.47138900" lon="-6.37047100">
        <ele>520.00000</ele>
      </trkpt>
      <trkpt lat="38.47135500" lon="-6.37047500">
        <ele>520.00000</ele>
      </trkpt>
      <trkpt lat="38.47132400" lon="-6.37047999">
        <ele>520.00000</ele>
      </trkpt>
      <trkpt lat="38.47125800" lon="-6.37048600">
        <ele>521.00000</ele>
      </trkpt>
      <trkpt lat="38.47117300" lon="-6.37049600">
        <ele>521.00000</ele>
      </trkpt>
      <trkpt lat="38.47112300" lon="-6.37050300">
        <ele>521.00000</ele>
      </trkpt>
      <trkpt lat="38.47101600" lon="-6.37051100">
        <ele>522.00000</ele>
      </trkpt>
      <trkpt lat="38.47093900" lon="-6.37052700">
        <ele>522.00000</ele>
      </trkpt>
      <trkpt lat="38.47091800" lon="-6.37052800">
        <ele>522.00000</ele>
      </trkpt>
      <trkpt lat="38.47089800" lon="-6.37053100">
        <ele>522.00000</ele>
      </trkpt>
      <trkpt lat="38.47083800" lon="-6.37053600">
        <ele>522.00000</ele>
      </trkpt>
      <trkpt lat="38.47068500" lon="-6.37055100">
        <ele>523.00000</ele>
      </trkpt>
      <trkpt lat="38.47064000" lon="-6.37054500">
        <ele>523.00000</ele>
      </trkpt>
      <trkpt lat="38.47055400" lon="-6.37055100">
        <ele>523.00000</ele>
      </trkpt>
      <trkpt lat="38.47046900" lon="-6.37055500">
        <ele>524.00000</ele>
      </trkpt>
      <trkpt lat="38.47042800" lon="-6.37055900">
        <ele>524.00000</ele>
      </trkpt>
      <trkpt lat="38.47030000" lon="-6.37056600">
        <ele>524.00000</ele>
      </trkpt>
      <trkpt lat="38.47021400" lon="-6.37056800">
        <ele>525.00000</ele>
      </trkpt>
      <trkpt lat="38.47019200" lon="-6.37056900">
        <ele>525.00000</ele>
      </trkpt>
      <trkpt lat="38.47015300" lon="-6.37057400">
        <ele>525.00000</ele>
      </trkpt>
      <trkpt lat="38.47000300" lon="-6.37058700">
        <ele>527.00000</ele>
      </trkpt>
      <trkpt lat="38.46998600" lon="-6.37058700">
        <ele>527.00000</ele>
      </trkpt>
      <trkpt lat="38.46988000" lon="-6.37060400">
        <ele>527.00000</ele>
      </trkpt>
      <trkpt lat="38.46986300" lon="-6.37060600">
        <ele>527.00000</ele>
      </trkpt>
      <trkpt lat="38.46979300" lon="-6.37060600">
        <ele>527.00000</ele>
      </trkpt>
      <trkpt lat="38.46975700" lon="-6.37061200">
        <ele>528.00000</ele>
      </trkpt>
      <trkpt lat="38.46964900" lon="-6.37062100">
        <ele>528.00000</ele>
      </trkpt>
      <trkpt lat="38.46959400" lon="-6.37062600">
        <ele>528.00000</ele>
      </trkpt>
      <trkpt lat="38.46957500" lon="-6.37062900">
        <ele>528.00000</ele>
      </trkpt>
      <trkpt lat="38.46955700" lon="-6.37063200">
        <ele>528.00000</ele>
      </trkpt>
      <trkpt lat="38.46950300" lon="-6.37063600">
        <ele>529.00000</ele>
      </trkpt>
      <trkpt lat="38.46943500" lon="-6.37063300">
        <ele>529.00000</ele>
      </trkpt>
      <trkpt lat="38.46935400" lon="-6.37064600">
        <ele>530.00000</ele>
      </trkpt>
      <trkpt lat="38.46928900" lon="-6.37064500">
        <ele>530.00000</ele>
      </trkpt>
      <trkpt lat="38.46915400" lon="-6.37067700">
        <ele>532.00000</ele>
      </trkpt>
      <trkpt lat="38.46912800" lon="-6.37067800">
        <ele>532.00000</ele>
      </trkpt>
      <trkpt lat="38.46907200" lon="-6.37068600">
        <ele>532.00000</ele>
      </trkpt>
      <trkpt lat="38.46896700" lon="-6.37070700">
        <ele>533.00000</ele>
      </trkpt>
      <trkpt lat="38.46891100" lon="-6.37071800">
        <ele>533.00000</ele>
      </trkpt>
      <trkpt lat="38.46885000" lon="-6.37072800">
        <ele>533.00000</ele>
      </trkpt>
      <trkpt lat="38.46879000" lon="-6.37073200">
        <ele>533.00000</ele>
      </trkpt>
      <trkpt lat="38.46861600" lon="-6.37074600">
        <ele>532.00000</ele>
      </trkpt>
      <trkpt lat="38.46843800" lon="-6.37074700">
        <ele>531.00000</ele>
      </trkpt>
      <trkpt lat="38.46825100" lon="-6.37073700">
        <ele>531.00000</ele>
      </trkpt>
      <trkpt lat="38.46821800" lon="-6.37073000">
        <ele>531.00000</ele>
      </trkpt>
      <trkpt lat="38.46808600" lon="-6.37070500">
        <ele>532.00000</ele>
      </trkpt>
      <trkpt lat="38.46798400" lon="-6.37069500">
        <ele>532.00000</ele>
      </trkpt>
      <trkpt lat="38.46788500" lon="-6.37071200">
        <ele>533.00000</ele>
      </trkpt>
      <trkpt lat="38.46775300" lon="-6.37073899">
        <ele>533.00000</ele>
      </trkpt>
      <trkpt lat="38.46751000" lon="-6.37080300">
        <ele>533.00000</ele>
      </trkpt>
      <trkpt lat="38.46725600" lon="-6.37088500">
        <ele>534.00000</ele>
      </trkpt>
      <trkpt lat="38.46722000" lon="-6.37089700">
        <ele>534.00000</ele>
      </trkpt>
      <trkpt lat="38.46711900" lon="-6.37092900">
        <ele>534.00000</ele>
      </trkpt>
      <trkpt lat="38.46697400" lon="-6.37097000">
        <ele>534.00000</ele>
      </trkpt>
      <trkpt lat="38.46693900" lon="-6.37098200">
        <ele>534.00000</ele>
      </trkpt>
      <trkpt lat="38.46683800" lon="-6.37101199">
        <ele>535.00000</ele>
      </trkpt>
      <trkpt lat="38.46665000" lon="-6.37108600">
        <ele>536.00000</ele>
      </trkpt>
      <trkpt lat="38.46643000" lon="-6.37125400">
        <ele>535.00000</ele>
      </trkpt>
      <trkpt lat="38.46622700" lon="-6.37156200">
        <ele>535.00000</ele>
      </trkpt>
      <trkpt lat="38.46604900" lon="-6.37180900">
        <ele>535.00000</ele>
      </trkpt>
      <trkpt lat="38.46591900" lon="-6.37196899">
        <ele>534.00000</ele>
      </trkpt>
      <trkpt lat="38.46587100" lon="-6.37203700">
        <ele>534.00000</ele>
      </trkpt>
      <trkpt lat="38.46574000" lon="-6.37219800">
        <ele>534.00000</ele>
      </trkpt>
      <trkpt lat="38.46561900" lon="-6.37234000">
        <ele>535.00000</ele>
      </trkpt>
      <trkpt lat="38.46549600" lon="-6.37248199">
        <ele>534.00000</ele>
      </trkpt>
      <trkpt lat="38.46542300" lon="-6.37256200">
        <ele>534.00000</ele>
      </trkpt>
      <trkpt lat="38.46532700" lon="-6.37265800">
        <ele>533.00000</ele>
      </trkpt>
      <trkpt lat="38.46529800" lon="-6.37267499">
        <ele>533.00000</ele>
      </trkpt>
      <trkpt lat="38.46518900" lon="-6.37270999">
        <ele>532.00000</ele>
      </trkpt>
      <trkpt lat="38.46516700" lon="-6.37271400">
        <ele>532.00000</ele>
      </trkpt>
      <trkpt lat="38.46515100" lon="-6.37273300">
        <ele>532.00000</ele>
      </trkpt>
      <trkpt lat="38.46511600" lon="-6.37275100">
        <ele>531.00000</ele>
      </trkpt>
      <trkpt lat="38.46507400" lon="-6.37279600">
        <ele>531.00000</ele>
      </trkpt>
      <trkpt lat="38.46494500" lon="-6.37291800">
        <ele>530.00000</ele>
      </trkpt>
      <trkpt lat="38.46491200" lon="-6.37293700">
        <ele>530.00000</ele>
      </trkpt>
      <trkpt lat="38.46465800" lon="-6.37311600">
        <ele>528.00000</ele>
      </trkpt>
      <trkpt lat="38.46460100" lon="-6.37316700">
        <ele>528.00000</ele>
      </trkpt>
      <trkpt lat="38.46450800" lon="-6.37323299">
        <ele>528.00000</ele>
      </trkpt>
      <trkpt lat="38.46440300" lon="-6.37330800">
        <ele>527.00000</ele>
      </trkpt>
      <trkpt lat="38.46436600" lon="-6.37333200">
        <ele>527.00000</ele>
      </trkpt>
      <trkpt lat="38.46418400" lon="-6.37344899">
        <ele>527.00000</ele>
      </trkpt>
      <trkpt lat="38.46414800" lon="-6.37346900">
        <ele>527.00000</ele>
      </trkpt>
      <trkpt lat="38.46403800" lon="-6.37352600">
        <ele>527.00000</ele>
      </trkpt>
      <trkpt lat="38.46396700" lon="-6.37356000">
        <ele>527.00000</ele>
      </trkpt>
      <trkpt lat="38.46386100" lon="-6.37362300">
        <ele>527.00000</ele>
      </trkpt>
      <trkpt lat="38.46354400" lon="-6.37377800">
        <ele>526.00000</ele>
      </trkpt>
      <trkpt lat="38.46350200" lon="-6.37379700">
        <ele>526.00000</ele>
      </trkpt>
      <trkpt lat="38.46305600" lon="-6.37396500">
        <ele>522.00000</ele>
      </trkpt>
      <trkpt lat="38.46272600" lon="-6.37408599">
        <ele>521.00000</ele>
      </trkpt>
      <trkpt lat="38.46263500" lon="-6.37412300">
        <ele>521.00000</ele>
      </trkpt>
      <trkpt lat="38.46238600" lon="-6.37420100">
        <ele>521.00000</ele>
      </trkpt>
      <trkpt lat="38.46224100" lon="-6.37425200">
        <ele>521.00000</ele>
      </trkpt>
      <trkpt lat="38.46198600" lon="-6.37438100">
        <ele>520.00000</ele>
      </trkpt>
      <trkpt lat="38.46183400" lon="-6.37444800">
        <ele>520.00000</ele>
      </trkpt>
      <trkpt lat="38.46178500" lon="-6.37446300">
        <ele>519.00000</ele>
      </trkpt>
      <trkpt lat="38.46175000" lon="-6.37446900">
        <ele>519.00000</ele>
      </trkpt>
      <trkpt lat="38.46171600" lon="-6.37447500">
        <ele>519.00000</ele>
      </trkpt>
      <trkpt lat="38.46157800" lon="-6.37449900">
        <ele>518.00000</ele>
      </trkpt>
      <trkpt lat="38.46153200" lon="-6.37451900">
        <ele>518.00000</ele>
      </trkpt>
      <trkpt lat="38.46148700" lon="-6.37454199">
        <ele>518.00000</ele>
      </trkpt>
      <trkpt lat="38.46135900" lon="-6.37461300">
        <ele>517.00000</ele>
      </trkpt>
      <trkpt lat="38.46127100" lon="-6.37465100">
        <ele>517.00000</ele>
      </trkpt>
      <trkpt lat="38.46113900" lon="-6.37470500">
        <ele>517.00000</ele>
      </trkpt>
      <trkpt lat="38.46109300" lon="-6.37471800">
        <ele>516.00000</ele>
      </trkpt>
      <trkpt lat="38.46099600" lon="-6.37473700">
        <ele>515.00000</ele>
      </trkpt>
      <trkpt lat="38.46094900" lon="-6.37473800">
        <ele>515.00000</ele>
      </trkpt>
      <trkpt lat="38.46090100" lon="-6.37473800">
        <ele>514.00000</ele>
      </trkpt>
      <trkpt lat="38.46076200" lon="-6.37470000">
        <ele>513.00000</ele>
      </trkpt>
      <trkpt lat="38.46072000" lon="-6.37468300">
        <ele>513.00000</ele>
      </trkpt>
      <trkpt lat="38.46063600" lon="-6.37465599">
        <ele>512.00000</ele>
      </trkpt>
      <trkpt lat="38.46054800" lon="-6.37465400">
        <ele>512.00000</ele>
      </trkpt>
      <trkpt lat="38.46050300" lon="-6.37466300">
        <ele>512.00000</ele>
      </trkpt>
      <trkpt lat="38.46032500" lon="-6.37471700">
        <ele>512.00000</ele>
      </trkpt>
      <trkpt lat="38.46028600" lon="-6.37473399">
        <ele>511.00000</ele>
      </trkpt>
      <trkpt lat="38.46024600" lon="-6.37475400">
        <ele>512.00000</ele>
      </trkpt>
      <trkpt lat="38.46020700" lon="-6.37477500">
        <ele>512.00000</ele>
      </trkpt>
      <trkpt lat="38.46016800" lon="-6.37480100">
        <ele>512.00000</ele>
      </trkpt>
      <trkpt lat="38.46013300" lon="-6.37483000">
        <ele>512.00000</ele>
      </trkpt>
      <trkpt lat="38.46006400" lon="-6.37494900">
        <ele>512.00000</ele>
      </trkpt>
      <trkpt lat="38.46000300" lon="-6.37508300">
        <ele>512.00000</ele>
      </trkpt>
      <trkpt lat="38.45993200" lon="-6.37528200">
        <ele>511.00000</ele>
      </trkpt>
      <trkpt lat="38.45984600" lon="-6.37555000">
        <ele>510.00000</ele>
      </trkpt>
      <trkpt lat="38.45975600" lon="-6.37582699">
        <ele>510.00000</ele>
      </trkpt>
      <trkpt lat="38.45972300" lon="-6.37593800">
        <ele>510.00000</ele>
      </trkpt>
      <trkpt lat="38.45965800" lon="-6.37609900">
        <ele>509.00000</ele>
      </trkpt>
      <trkpt lat="38.45963300" lon="-6.37615200">
        <ele>509.00000</ele>
      </trkpt>
      <trkpt lat="38.45941000" lon="-6.37651000">
        <ele>509.00000</ele>
      </trkpt>
      <trkpt lat="38.45933900" lon="-6.37662299">
        <ele>508.00000</ele>
      </trkpt>
      <trkpt lat="38.45930100" lon="-6.37667999">
        <ele>508.00000</ele>
      </trkpt>
      <trkpt lat="38.45918300" lon="-6.37684600">
        <ele>508.00000</ele>
      </trkpt>
      <trkpt lat="38.45906600" lon="-6.37702100">
        <ele>507.00000</ele>
      </trkpt>
      <trkpt lat="38.45889900" lon="-6.37726000">
        <ele>505.00000</ele>
      </trkpt>
      <trkpt lat="38.45886600" lon="-6.37730200">
        <ele>505.00000</ele>
      </trkpt>
      <trkpt lat="38.45883400" lon="-6.37734500">
        <ele>505.00000</ele>
      </trkpt>
      <trkpt lat="38.45880800" lon="-6.37738300">
        <ele>504.00000</ele>
      </trkpt>
      <trkpt lat="38.45876200" lon="-6.37746400">
        <ele>504.00000</ele>
      </trkpt>
      <trkpt lat="38.45873900" lon="-6.37751200">
        <ele>503.00000</ele>
      </trkpt>
      <trkpt lat="38.45868500" lon="-6.37762700">
        <ele>502.00000</ele>
      </trkpt>
      <trkpt lat="38.45865100" lon="-6.37768300">
        <ele>501.00000</ele>
      </trkpt>
      <trkpt lat="38.45854000" lon="-6.37786499">
        <ele>500.00000</ele>
      </trkpt>
      <trkpt lat="38.45842300" lon="-6.37805900">
        <ele>498.00000</ele>
      </trkpt>
      <trkpt lat="38.45829300" lon="-6.37826800">
        <ele>496.00000</ele>
      </trkpt>
      <trkpt lat="38.45814400" lon="-6.37847700">
        <ele>495.00000</ele>
      </trkpt>
      <trkpt lat="38.45809600" lon="-6.37855400">
        <ele>495.00000</ele>
      </trkpt>
      <trkpt lat="38.45793100" lon="-6.37878900">
        <ele>493.00000</ele>
      </trkpt>
      <trkpt lat="38.45786700" lon="-6.37887000">
        <ele>493.00000</ele>
      </trkpt>
      <trkpt lat="38.45781100" lon="-6.37894100">
        <ele>492.00000</ele>
      </trkpt>
      <trkpt lat="38.45777400" lon="-6.37899600">
        <ele>492.00000</ele>
      </trkpt>
      <trkpt lat="38.45768300" lon="-6.37914300">
        <ele>491.00000</ele>
      </trkpt>
      <trkpt lat="38.45752900" lon="-6.37940700">
        <ele>490.00000</ele>
      </trkpt>
      <trkpt lat="38.45749500" lon="-6.37945899">
        <ele>489.00000</ele>
      </trkpt>
      <trkpt lat="38.45739900" lon="-6.37962000">
        <ele>489.00000</ele>
      </trkpt>
      <trkpt lat="38.45731600" lon="-6.37977500">
        <ele>489.00000</ele>
      </trkpt>
      <trkpt lat="38.45725800" lon="-6.37987100">
        <ele>489.00000</ele>
      </trkpt>
      <trkpt lat="38.45713900" lon="-6.37998200">
        <ele>489.00000</ele>
      </trkpt>
      <trkpt lat="38.45710100" lon="-6.38000600">
        <ele>489.00000</ele>
      </trkpt>
      <trkpt lat="38.45702200" lon="-6.38004000">
        <ele>489.00000</ele>
      </trkpt>
      <trkpt lat="38.45694600" lon="-6.38006900">
        <ele>489.00000</ele>
      </trkpt>
      <trkpt lat="38.45673300" lon="-6.38014900">
        <ele>488.00000</ele>
      </trkpt>
      <trkpt lat="38.45663500" lon="-6.38018500">
        <ele>488.00000</ele>
      </trkpt>
      <trkpt lat="38.45646500" lon="-6.38022099">
        <ele>488.00000</ele>
      </trkpt>
      <trkpt lat="38.45642900" lon="-6.38022400">
        <ele>488.00000</ele>
      </trkpt>
      <trkpt lat="38.45616000" lon="-6.38024700">
        <ele>489.00000</ele>
      </trkpt>
      <trkpt lat="38.45585000" lon="-6.38027599">
        <ele>489.00000</ele>
      </trkpt>
      <trkpt lat="38.45569600" lon="-6.38027700">
        <ele>488.00000</ele>
      </trkpt>
      <trkpt lat="38.45556800" lon="-6.38027799">
        <ele>488.00000</ele>
      </trkpt>
      <trkpt lat="38.45554500" lon="-6.38028000">
        <ele>488.00000</ele>
      </trkpt>
      <trkpt lat="38.45538400" lon="-6.38028600">
        <ele>491.00000</ele>
      </trkpt>
      <trkpt lat="38.45537000" lon="-6.38028999">
        <ele>492.00000</ele>
      </trkpt>
      <trkpt lat="38.45532700" lon="-6.38029700">
        <ele>493.00000</ele>
      </trkpt>
      <trkpt lat="38.45523800" lon="-6.38029999">
        <ele>494.00000</ele>
      </trkpt>
      <trkpt lat="38.45511800" lon="-6.38029100">
        <ele>496.00000</ele>
      </trkpt>
      <trkpt lat="38.45506600" lon="-6.38029500">
        <ele>497.00000</ele>
      </trkpt>
      <trkpt lat="38.45503200" lon="-6.38028300">
        <ele>497.00000</ele>
      </trkpt>
      <trkpt lat="38.45496500" lon="-6.38026300">
        <ele>497.00000</ele>
      </trkpt>
      <trkpt lat="38.45492900" lon="-6.38025600">
        <ele>497.00000</ele>
      </trkpt>
      <trkpt lat="38.45484900" lon="-6.38024100">
        <ele>497.00000</ele>
      </trkpt>
      <trkpt lat="38.45480300" lon="-6.38025000">
        <ele>498.00000</ele>
      </trkpt>
      <trkpt lat="38.45475100" lon="-6.38027100">
        <ele>498.00000</ele>
      </trkpt>
      <trkpt lat="38.45468500" lon="-6.38031700">
        <ele>499.00000</ele>
      </trkpt>
      <trkpt lat="38.45466500" lon="-6.38032400">
        <ele>499.00000</ele>
      </trkpt>
      <trkpt lat="38.45463300" lon="-6.38034900">
        <ele>499.00000</ele>
      </trkpt>
      <trkpt lat="38.45458300" lon="-6.38038100">
        <ele>499.00000</ele>
      </trkpt>
      <trkpt lat="38.45455200" lon="-6.38039800">
        <ele>499.00000</ele>
      </trkpt>
      <trkpt lat="38.45450200" lon="-6.38043900">
        <ele>499.00000</ele>
      </trkpt>
      <trkpt lat="38.45445600" lon="-6.38047999">
        <ele>500.00000</ele>
      </trkpt>
      <trkpt lat="38.45444100" lon="-6.38049500">
        <ele>500.00000</ele>
      </trkpt>
      <trkpt lat="38.45442600" lon="-6.38051100">
        <ele>500.00000</ele>
      </trkpt>
      <trkpt lat="38.45434000" lon="-6.38058100">
        <ele>500.00000</ele>
      </trkpt>
      <trkpt lat="38.45427900" lon="-6.38061600">
        <ele>500.00000</ele>
      </trkpt>
      <trkpt lat="38.45418300" lon="-6.38067300">
        <ele>500.00000</ele>
      </trkpt>
      <trkpt lat="38.45412700" lon="-6.38070500">
        <ele>501.00000</ele>
      </trkpt>
      <trkpt lat="38.45408100" lon="-6.38073400">
        <ele>501.00000</ele>
      </trkpt>
      <trkpt lat="38.45401900" lon="-6.38077500">
        <ele>501.00000</ele>
      </trkpt>
      <trkpt lat="38.45396500" lon="-6.38083000">
        <ele>501.00000</ele>
      </trkpt>
      <trkpt lat="38.45387700" lon="-6.38087500">
        <ele>501.00000</ele>
      </trkpt>
      <trkpt lat="38.45381300" lon="-6.38090400">
        <ele>502.00000</ele>
      </trkpt>
      <trkpt lat="38.45379400" lon="-6.38090600">
        <ele>502.00000</ele>
      </trkpt>
      <trkpt lat="38.45375400" lon="-6.38089900">
        <ele>502.00000</ele>
      </trkpt>
      <trkpt lat="38.45371500" lon="-6.38088199">
        <ele>502.00000</ele>
      </trkpt>
      <trkpt lat="38.45369400" lon="-6.38086999">
        <ele>502.00000</ele>
      </trkpt>
      <trkpt lat="38.45361800" lon="-6.38080800">
        <ele>502.00000</ele>
      </trkpt>
      <trkpt lat="38.45354600" lon="-6.38074200">
        <ele>503.00000</ele>
      </trkpt>
      <trkpt lat="38.45352900" lon="-6.38072199">
        <ele>503.00000</ele>
      </trkpt>
      <trkpt lat="38.45344200" lon="-6.38065399">
        <ele>504.00000</ele>
      </trkpt>
      <trkpt lat="38.45341800" lon="-6.38063200">
        <ele>505.00000</ele>
      </trkpt>
      <trkpt lat="38.45340800" lon="-6.38062000">
        <ele>505.00000</ele>
      </trkpt>
      <trkpt lat="38.45334000" lon="-6.38056500">
        <ele>505.00000</ele>
      </trkpt>
      <trkpt lat="38.45330500" lon="-6.38053400">
        <ele>506.00000</ele>
      </trkpt>
      <trkpt lat="38.45328700" lon="-6.38052799">
        <ele>506.00000</ele>
      </trkpt>
      <trkpt lat="38.45325700" lon="-6.38053200">
        <ele>506.00000</ele>
      </trkpt>
      <trkpt lat="38.45317800" lon="-6.38055800">
        <ele>507.00000</ele>
      </trkpt>
      <trkpt lat="38.45314700" lon="-6.38057600">
        <ele>507.00000</ele>
      </trkpt>
      <trkpt lat="38.45310100" lon="-6.38059399">
        <ele>507.00000</ele>
      </trkpt>
      <trkpt lat="38.45294500" lon="-6.38066800">
        <ele>508.00000</ele>
      </trkpt>
      <trkpt lat="38.45285600" lon="-6.38069400">
        <ele>509.00000</ele>
      </trkpt>
      <trkpt lat="38.45281400" lon="-6.38068699">
        <ele>509.00000</ele>
      </trkpt>
      <trkpt lat="38.45279600" lon="-6.38068200">
        <ele>509.00000</ele>
      </trkpt>
      <trkpt lat="38.45274900" lon="-6.38065399">
        <ele>509.00000</ele>
      </trkpt>
      <trkpt lat="38.45273300" lon="-6.38061400">
        <ele>509.00000</ele>
      </trkpt>
      <trkpt lat="38.45272500" lon="-6.38059800">
        <ele>509.00000</ele>
      </trkpt>
      <trkpt lat="38.45269400" lon="-6.38053100">
        <ele>509.00000</ele>
      </trkpt>
      <trkpt lat="38.45266000" lon="-6.38046900">
        <ele>509.00000</ele>
      </trkpt>
      <trkpt lat="38.45264900" lon="-6.38044699">
        <ele>509.00000</ele>
      </trkpt>
      <trkpt lat="38.45260900" lon="-6.38039100">
        <ele>509.00000</ele>
      </trkpt>
      <trkpt lat="38.45257600" lon="-6.38035200">
        <ele>509.00000</ele>
      </trkpt>
      <trkpt lat="38.45252800" lon="-6.38022700">
        <ele>509.00000</ele>
      </trkpt>
      <trkpt lat="38.45250500" lon="-6.38019400">
        <ele>509.00000</ele>
      </trkpt>
      <trkpt lat="38.45249400" lon="-6.38017000">
        <ele>510.00000</ele>
      </trkpt>
      <trkpt lat="38.45247200" lon="-6.38010100">
        <ele>510.00000</ele>
      </trkpt>
      <trkpt lat="38.45245000" lon="-6.38006500">
        <ele>510.00000</ele>
      </trkpt>
      <trkpt lat="38.45243600" lon="-6.38005600">
        <ele>510.00000</ele>
      </trkpt>
      <trkpt lat="38.45240300" lon="-6.38005300">
        <ele>511.00000</ele>
      </trkpt>
      <trkpt lat="38.45232400" lon="-6.38009800">
        <ele>511.00000</ele>
      </trkpt>
      <trkpt lat="38.45227800" lon="-6.38013200">
        <ele>512.00000</ele>
      </trkpt>
      <trkpt lat="38.45226200" lon="-6.38014400">
        <ele>512.00000</ele>
      </trkpt>
      <trkpt lat="38.45224100" lon="-6.38018000">
        <ele>512.00000</ele>
      </trkpt>
      <trkpt lat="38.45215300" lon="-6.38025800">
        <ele>513.00000</ele>
      </trkpt>
      <trkpt lat="38.45213700" lon="-6.38027100">
        <ele>513.00000</ele>
      </trkpt>
      <trkpt lat="38.45206600" lon="-6.38032200">
        <ele>514.00000</ele>
      </trkpt>
      <trkpt lat="38.45201100" lon="-6.38035800">
        <ele>515.00000</ele>
      </trkpt>
      <trkpt lat="38.45198300" lon="-6.38038600">
        <ele>515.00000</ele>
      </trkpt>
      <trkpt lat="38.45191200" lon="-6.38044600">
        <ele>517.00000</ele>
      </trkpt>
      <trkpt lat="38.45188400" lon="-6.38047500">
        <ele>517.00000</ele>
      </trkpt>
      <trkpt lat="38.45184100" lon="-6.38051200">
        <ele>518.00000</ele>
      </trkpt>
      <trkpt lat="38.45181100" lon="-6.38056099">
        <ele>518.00000</ele>
      </trkpt>
      <trkpt lat="38.45180700" lon="-6.38058100">
        <ele>518.00000</ele>
      </trkpt>
      <trkpt lat="38.45180700" lon="-6.38060100">
        <ele>518.00000</ele>
      </trkpt>
      <trkpt lat="38.45182000" lon="-6.38067200">
        <ele>518.00000</ele>
      </trkpt>
      <trkpt lat="38.45177800" lon="-6.38083700">
        <ele>519.00000</ele>
      </trkpt>
      <trkpt lat="38.45168600" lon="-6.38108000">
        <ele>520.00000</ele>
      </trkpt>
      <trkpt lat="38.45163300" lon="-6.38120500">
        <ele>520.00000</ele>
      </trkpt>
      <trkpt lat="38.45162300" lon="-6.38123200">
        <ele>520.00000</ele>
      </trkpt>
      <trkpt lat="38.45161300" lon="-6.38133900">
        <ele>520.00000</ele>
      </trkpt>
      <trkpt lat="38.45161700" lon="-6.38136800">
        <ele>520.00000</ele>
      </trkpt>
      <trkpt lat="38.45161600" lon="-6.38142400">
        <ele>520.00000</ele>
      </trkpt>
      <trkpt lat="38.45161000" lon="-6.38151500">
        <ele>520.00000</ele>
      </trkpt>
      <trkpt lat="38.45160800" lon="-6.38163300">
        <ele>519.00000</ele>
      </trkpt>
      <trkpt lat="38.45159700" lon="-6.38169300">
        <ele>519.00000</ele>
      </trkpt>
      <trkpt lat="38.45159000" lon="-6.38175700">
        <ele>520.00000</ele>
      </trkpt>
      <trkpt lat="38.45156300" lon="-6.38187100">
        <ele>521.00000</ele>
      </trkpt>
      <trkpt lat="38.45153500" lon="-6.38195000">
        <ele>522.00000</ele>
      </trkpt>
      <trkpt lat="38.45148700" lon="-6.38208100">
        <ele>523.00000</ele>
      </trkpt>
      <trkpt lat="38.45145500" lon="-6.38215800">
        <ele>524.00000</ele>
      </trkpt>
      <trkpt lat="38.45140900" lon="-6.38226899">
        <ele>525.00000</ele>
      </trkpt>
      <trkpt lat="38.45138300" lon="-6.38233200">
        <ele>526.00000</ele>
      </trkpt>
      <trkpt lat="38.45134600" lon="-6.38239100">
        <ele>526.00000</ele>
      </trkpt>
      <trkpt lat="38.45131300" lon="-6.38245600">
        <ele>526.00000</ele>
      </trkpt>
      <trkpt lat="38.45129400" lon="-6.38250000">
        <ele>526.00000</ele>
      </trkpt>
      <trkpt lat="38.45128800" lon="-6.38252400">
        <ele>526.00000</ele>
      </trkpt>
      <trkpt lat="38.45123800" lon="-6.38263000">
        <ele>527.00000</ele>
      </trkpt>
      <trkpt lat="38.45122200" lon="-6.38267900">
        <ele>527.00000</ele>
      </trkpt>
      <trkpt lat="38.45118800" lon="-6.38277300">
        <ele>527.00000</ele>
      </trkpt>
      <trkpt lat="38.45115900" lon="-6.38287600">
        <ele>527.00000</ele>
      </trkpt>
      <trkpt lat="38.45114700" lon="-6.38290200">
        <ele>527.00000</ele>
      </trkpt>
      <trkpt lat="38.45112700" lon="-6.38294800">
        <ele>527.00000</ele>
      </trkpt>
      <trkpt lat="38.45110400" lon="-6.38299500">
        <ele>528.00000</ele>
      </trkpt>
      <trkpt lat="38.45107900" lon="-6.38304100">
        <ele>528.00000</ele>
      </trkpt>
      <trkpt lat="38.45106100" lon="-6.38308900">
        <ele>528.00000</ele>
      </trkpt>
      <trkpt lat="38.45104000" lon="-6.38313000">
        <ele>528.00000</ele>
      </trkpt>
      <trkpt lat="38.45102800" lon="-6.38315200">
        <ele>528.00000</ele>
      </trkpt>
      <trkpt lat="38.45100700" lon="-6.38320100">
        <ele>528.00000</ele>
      </trkpt>
      <trkpt lat="38.45099500" lon="-6.38322500">
        <ele>528.00000</ele>
      </trkpt>
      <trkpt lat="38.45095900" lon="-6.38330700">
        <ele>528.00000</ele>
      </trkpt>
      <trkpt lat="38.45089400" lon="-6.38347100">
        <ele>527.00000</ele>
      </trkpt>
      <trkpt lat="38.45076100" lon="-6.38371100">
        <ele>528.00000</ele>
      </trkpt>
      <trkpt lat="38.45070100" lon="-6.38372499">
        <ele>528.00000</ele>
      </trkpt>
      <trkpt lat="38.45058800" lon="-6.38365599">
        <ele>528.00000</ele>
      </trkpt>
      <trkpt lat="38.45053400" lon="-6.38361900">
        <ele>528.00000</ele>
      </trkpt>
      <trkpt lat="38.45037700" lon="-6.38349600">
        <ele>529.00000</ele>
      </trkpt>
      <trkpt lat="38.45025700" lon="-6.38341700">
        <ele>530.00000</ele>
      </trkpt>
      <trkpt lat="38.45019000" lon="-6.38335400">
        <ele>530.00000</ele>
      </trkpt>
      <trkpt lat="38.45010400" lon="-6.38327400">
        <ele>531.00000</ele>
      </trkpt>
      <trkpt lat="38.45003700" lon="-6.38321600">
        <ele>532.00000</ele>
      </trkpt>
      <trkpt lat="38.45001400" lon="-6.38320199">
        <ele>532.00000</ele>
      </trkpt>
      <trkpt lat="38.44993500" lon="-6.38313600">
        <ele>533.00000</ele>
      </trkpt>
      <trkpt lat="38.44983000" lon="-6.38306200">
        <ele>533.00000</ele>
      </trkpt>
      <trkpt lat="38.44979400" lon="-6.38304000">
        <ele>533.00000</ele>
      </trkpt>
      <trkpt lat="38.44976500" lon="-6.38302300">
        <ele>533.00000</ele>
      </trkpt>
      <trkpt lat="38.44975700" lon="-6.38300100">
        <ele>533.00000</ele>
      </trkpt>
      <trkpt lat="38.44972400" lon="-6.38307400">
        <ele>533.00000</ele>
      </trkpt>
      <trkpt lat="38.44970900" lon="-6.38310200">
        <ele>534.00000</ele>
      </trkpt>
      <trkpt lat="38.44964500" lon="-6.38326300">
        <ele>534.00000</ele>
      </trkpt>
      <trkpt lat="38.44953400" lon="-6.38349200">
        <ele>534.00000</ele>
      </trkpt>
      <trkpt lat="38.44951800" lon="-6.38352000">
        <ele>534.00000</ele>
      </trkpt>
      <trkpt lat="38.44943000" lon="-6.38359899">
        <ele>535.00000</ele>
      </trkpt>
      <trkpt lat="38.44934400" lon="-6.38367400">
        <ele>534.00000</ele>
      </trkpt>
      <trkpt lat="38.44930700" lon="-6.38370600">
        <ele>534.00000</ele>
      </trkpt>
      <trkpt lat="38.44928600" lon="-6.38371000">
        <ele>534.00000</ele>
      </trkpt>
      <trkpt lat="38.44924600" lon="-6.38372499">
        <ele>534.00000</ele>
      </trkpt>
      <trkpt lat="38.44921600" lon="-6.38376700">
        <ele>534.00000</ele>
      </trkpt>
      <trkpt lat="38.44917800" lon="-6.38386100">
        <ele>534.00000</ele>
      </trkpt>
      <trkpt lat="38.44918200" lon="-6.38388900">
        <ele>534.00000</ele>
      </trkpt>
      <trkpt lat="38.44915600" lon="-6.38399000">
        <ele>535.00000</ele>
      </trkpt>
      <trkpt lat="38.44909700" lon="-6.38406500">
        <ele>535.00000</ele>
      </trkpt>
      <trkpt lat="38.44908000" lon="-6.38407899">
        <ele>535.00000</ele>
      </trkpt>
      <trkpt lat="38.44906500" lon="-6.38409099">
        <ele>535.00000</ele>
      </trkpt>
      <trkpt lat="38.44904800" lon="-6.38410099">
        <ele>535.00000</ele>
      </trkpt>
      <trkpt lat="38.44902000" lon="-6.38412500">
        <ele>535.00000</ele>
      </trkpt>
      <trkpt lat="38.44892000" lon="-6.38435500">
        <ele>536.00000</ele>
      </trkpt>
      <trkpt lat="38.44891300" lon="-6.38439200">
        <ele>536.00000</ele>
      </trkpt>
      <trkpt lat="38.44890600" lon="-6.38441800">
        <ele>536.00000</ele>
      </trkpt>
      <trkpt lat="38.44889900" lon="-6.38443500">
        <ele>536.00000</ele>
      </trkpt>
      <trkpt lat="38.44886400" lon="-6.38448500">
        <ele>536.00000</ele>
      </trkpt>
      <trkpt lat="38.44883500" lon="-6.38444600">
        <ele>536.00000</ele>
      </trkpt>
      <trkpt lat="38.44881600" lon="-6.38442400">
        <ele>536.00000</ele>
      </trkpt>
      <trkpt lat="38.44878900" lon="-6.38440400">
        <ele>536.00000</ele>
      </trkpt>
      <trkpt lat="38.44871600" lon="-6.38434900">
        <ele>537.00000</ele>
      </trkpt>
      <trkpt lat="38.44857500" lon="-6.38422800">
        <ele>537.00000</ele>
      </trkpt>
      <trkpt lat="38.44846200" lon="-6.38410900">
        <ele>537.00000</ele>
      </trkpt>
      <trkpt lat="38.44846600" lon="-6.38401100">
        <ele>536.00000</ele>
      </trkpt>
      <trkpt lat="38.44847000" lon="-6.38399500">
        <ele>536.00000</ele>
      </trkpt>
      <trkpt lat="38.44846500" lon="-6.38394600">
        <ele>536.00000</ele>
      </trkpt>
      <trkpt lat="38.44866100" lon="-6.38394800">
        <ele>536.00000</ele>
      </trkpt>
      <trkpt lat="38.44864700" lon="-6.38393400">
        <ele>536.00000</ele>
      </trkpt>
      <trkpt lat="38.44861700" lon="-6.38391900">
        <ele>536.00000</ele>
      </trkpt>
      <trkpt lat="38.44853400" lon="-6.38396900">
        <ele>536.00000</ele>
      </trkpt>
      <trkpt lat="38.44851000" lon="-6.38399500">
        <ele>536.00000</ele>
      </trkpt>
      <trkpt lat="38.44848700" lon="-6.38403700">
        <ele>536.00000</ele>
      </trkpt>
      <trkpt lat="38.44845000" lon="-6.38406600">
        <ele>537.00000</ele>
      </trkpt>
      <trkpt lat="38.44844600" lon="-6.38407600">
        <ele>537.00000</ele>
      </trkpt>
      <trkpt lat="38.44844900" lon="-6.38410099">
        <ele>537.00000</ele>
      </trkpt>
      <trkpt lat="38.44847000" lon="-6.38413500">
        <ele>537.00000</ele>
      </trkpt>
      <trkpt lat="38.44848500" lon="-6.38423000">
        <ele>537.00000</ele>
      </trkpt>
      <trkpt lat="38.44848400" lon="-6.38425100">
        <ele>537.00000</ele>
      </trkpt>
      <trkpt lat="38.44847500" lon="-6.38426900">
        <ele>537.00000</ele>
      </trkpt>
      <trkpt lat="38.44845100" lon="-6.38429600">
        <ele>538.00000</ele>
      </trkpt>
      <trkpt lat="38.44844300" lon="-6.38431200">
        <ele>538.00000</ele>
      </trkpt>
      <trkpt lat="38.44842400" lon="-6.38437800">
        <ele>538.00000</ele>
      </trkpt>
      <trkpt lat="38.44841800" lon="-6.38439500">
        <ele>538.00000</ele>
      </trkpt>
      <trkpt lat="38.44841100" lon="-6.38443500">
        <ele>538.00000</ele>
      </trkpt>
      <trkpt lat="38.44837200" lon="-6.38451800">
        <ele>538.00000</ele>
      </trkpt>
      <trkpt lat="38.44835100" lon="-6.38461000">
        <ele>538.00000</ele>
      </trkpt>
      <trkpt lat="38.44832700" lon="-6.38468500">
        <ele>539.00000</ele>
      </trkpt>
      <trkpt lat="38.44831300" lon="-6.38474000">
        <ele>539.00000</ele>
      </trkpt>
      <trkpt lat="38.44831400" lon="-6.38475900">
        <ele>539.00000</ele>
      </trkpt>
      <trkpt lat="38.44831500" lon="-6.38477400">
        <ele>539.00000</ele>
      </trkpt>
      <trkpt lat="38.44831900" lon="-6.38479800">
        <ele>539.00000</ele>
      </trkpt>
      <trkpt lat="38.44832200" lon="-6.38481500">
        <ele>539.00000</ele>
      </trkpt>
      <trkpt lat="38.44834400" lon="-6.38485400">
        <ele>539.00000</ele>
      </trkpt>
      <trkpt lat="38.44834000" lon="-6.38487800">
        <ele>539.00000</ele>
      </trkpt>
      <trkpt lat="38.44833300" lon="-6.38492800">
        <ele>539.00000</ele>
      </trkpt>
      <trkpt lat="38.44831500" lon="-6.38498899">
        <ele>539.00000</ele>
      </trkpt>
      <trkpt lat="38.44829900" lon="-6.38506899">
        <ele>540.00000</ele>
      </trkpt>
      <trkpt lat="38.44829800" lon="-6.38508900">
        <ele>540.00000</ele>
      </trkpt>
      <trkpt lat="38.44827700" lon="-6.38517100">
        <ele>540.00000</ele>
      </trkpt>
      <trkpt lat="38.44826600" lon="-6.38522700">
        <ele>540.00000</ele>
      </trkpt>
      <trkpt lat="38.44825400" lon="-6.38530600">
        <ele>541.00000</ele>
      </trkpt>
      <trkpt lat="38.44825000" lon="-6.38532700">
        <ele>541.00000</ele>
      </trkpt>
      <trkpt lat="38.44823100" lon="-6.38536399">
        <ele>541.00000</ele>
      </trkpt>
      <trkpt lat="38.44817200" lon="-6.38550400">
        <ele>541.00000</ele>
      </trkpt>
      <trkpt lat="38.44814600" lon="-6.38553200">
        <ele>541.00000</ele>
      </trkpt>
      <trkpt lat="38.44812800" lon="-6.38557000">
        <ele>541.00000</ele>
      </trkpt>
      <trkpt lat="38.44808500" lon="-6.38564200">
        <ele>542.00000</ele>
      </trkpt>
      <trkpt lat="38.44798500" lon="-6.38574500">
        <ele>542.00000</ele>
      </trkpt>
      <trkpt lat="38.44796500" lon="-6.38576100">
        <ele>542.00000</ele>
      </trkpt>
      <trkpt lat="38.44788100" lon="-6.38583600">
        <ele>543.00000</ele>
      </trkpt>
      <trkpt lat="38.44783100" lon="-6.38587000">
        <ele>543.00000</ele>
      </trkpt>
      <trkpt lat="38.44770900" lon="-6.38597200">
        <ele>543.00000</ele>
      </trkpt>
      <trkpt lat="38.44767700" lon="-6.38599000">
        <ele>543.00000</ele>
      </trkpt>
      <trkpt lat="38.44755600" lon="-6.38604200">
        <ele>543.00000</ele>
      </trkpt>
      <trkpt lat="38.44752300" lon="-6.38606700">
        <ele>543.00000</ele>
      </trkpt>
      <trkpt lat="38.44744300" lon="-6.38611900">
        <ele>542.00000</ele>
      </trkpt>
      <trkpt lat="38.44732800" lon="-6.38620000">
        <ele>542.00000</ele>
      </trkpt>
      <trkpt lat="38.44725600" lon="-6.38623900">
        <ele>542.00000</ele>
      </trkpt>
      <trkpt lat="38.44720000" lon="-6.38624400">
        <ele>543.00000</ele>
      </trkpt>
      <trkpt lat="38.44718100" lon="-6.38625500">
        <ele>543.00000</ele>
      </trkpt>
      <trkpt lat="38.44708800" lon="-6.38631600">
        <ele>543.00000</ele>
      </trkpt>
      <trkpt lat="38.44703100" lon="-6.38636000">
        <ele>543.00000</ele>
      </trkpt>
      <trkpt lat="38.44698300" lon="-6.38641000">
        <ele>543.00000</ele>
      </trkpt>
      <trkpt lat="38.44696900" lon="-6.38642000">
        <ele>543.00000</ele>
      </trkpt>
      <trkpt lat="38.44689600" lon="-6.38647400">
        <ele>543.00000</ele>
      </trkpt>
      <trkpt lat="38.44687700" lon="-6.38649199">
        <ele>543.00000</ele>
      </trkpt>
      <trkpt lat="38.44672000" lon="-6.38664700">
        <ele>543.00000</ele>
      </trkpt>
      <trkpt lat="38.44661400" lon="-6.38677499">
        <ele>544.00000</ele>
      </trkpt>
      <trkpt lat="38.44646200" lon="-6.38686300">
        <ele>544.00000</ele>
      </trkpt>
      <trkpt lat="38.44628200" lon="-6.38697500">
        <ele>545.00000</ele>
      </trkpt>
      <trkpt lat="38.44614200" lon="-6.38708399">
        <ele>545.00000</ele>
      </trkpt>
      <trkpt lat="38.44598900" lon="-6.38720600">
        <ele>545.00000</ele>
      </trkpt>
      <trkpt lat="38.44597400" lon="-6.38721899">
        <ele>545.00000</ele>
      </trkpt>
      <trkpt lat="38.44583600" lon="-6.38733800">
        <ele>546.00000</ele>
      </trkpt>
      <trkpt lat="38.44579500" lon="-6.38737300">
        <ele>546.00000</ele>
      </trkpt>
      <trkpt lat="38.44573900" lon="-6.38743300">
        <ele>546.00000</ele>
      </trkpt>
      <trkpt lat="38.44568900" lon="-6.38748700">
        <ele>546.00000</ele>
      </trkpt>
      <trkpt lat="38.44565500" lon="-6.38752500">
        <ele>546.00000</ele>
      </trkpt>
      <trkpt lat="38.44563900" lon="-6.38754400">
        <ele>546.00000</ele>
      </trkpt>
      <trkpt lat="38.44557300" lon="-6.38761700">
        <ele>546.00000</ele>
      </trkpt>
      <trkpt lat="38.44554300" lon="-6.38765600">
        <ele>546.00000</ele>
      </trkpt>
      <trkpt lat="38.44549900" lon="-6.38770700">
        <ele>546.00000</ele>
      </trkpt>
      <trkpt lat="38.44544200" lon="-6.38776700">
        <ele>546.00000</ele>
      </trkpt>
      <trkpt lat="38.44535600" lon="-6.38786300">
        <ele>546.00000</ele>
      </trkpt>
      <trkpt lat="38.44534100" lon="-6.38787999">
        <ele>546.00000</ele>
      </trkpt>
      <trkpt lat="38.44521100" lon="-6.38801800">
        <ele>547.00000</ele>
      </trkpt>
      <trkpt lat="38.44514900" lon="-6.38806700">
        <ele>547.00000</ele>
      </trkpt>
      <trkpt lat="38.44511400" lon="-6.38809000">
        <ele>548.00000</ele>
      </trkpt>
      <trkpt lat="38.44509500" lon="-6.38809900">
        <ele>548.00000</ele>
      </trkpt>
      <trkpt lat="38.44506000" lon="-6.38811699">
        <ele>548.00000</ele>
      </trkpt>
      <trkpt lat="38.44502800" lon="-6.38813300">
        <ele>548.00000</ele>
      </trkpt>
      <trkpt lat="38.44501000" lon="-6.38813300">
        <ele>548.00000</ele>
      </trkpt>
      <trkpt lat="38.44497000" lon="-6.38813300">
        <ele>549.00000</ele>
      </trkpt>
      <trkpt lat="38.44491200" lon="-6.38816800">
        <ele>550.00000</ele>
      </trkpt>
      <trkpt lat="38.44489800" lon="-6.38817399">
        <ele>550.00000</ele>
      </trkpt>
      <trkpt lat="38.44487100" lon="-6.38818400">
        <ele>551.00000</ele>
      </trkpt>
      <trkpt lat="38.44480600" lon="-6.38822700">
        <ele>552.00000</ele>
      </trkpt>
      <trkpt lat="38.44477200" lon="-6.38825700">
        <ele>552.00000</ele>
      </trkpt>
      <trkpt lat="38.44471900" lon="-6.38833200">
        <ele>554.00000</ele>
      </trkpt>
      <trkpt lat="38.44467000" lon="-6.38839700">
        <ele>555.00000</ele>
      </trkpt>
      <trkpt lat="38.44464200" lon="-6.38847700">
        <ele>555.00000</ele>
      </trkpt>
      <trkpt lat="38.44462600" lon="-6.38851100">
        <ele>556.00000</ele>
      </trkpt>
      <trkpt lat="38.44461800" lon="-6.38852799">
        <ele>556.00000</ele>
      </trkpt>
      <trkpt lat="38.44459200" lon="-6.38856900">
        <ele>556.00000</ele>
      </trkpt>
      <trkpt lat="38.44458100" lon="-6.38861100">
        <ele>556.00000</ele>
      </trkpt>
      <trkpt lat="38.44457400" lon="-6.38862999">
        <ele>556.00000</ele>
      </trkpt>
      <trkpt lat="38.44453000" lon="-6.38870200">
        <ele>557.00000</ele>
      </trkpt>
      <trkpt lat="38.44449500" lon="-6.38876400">
        <ele>558.00000</ele>
      </trkpt>
      <trkpt lat="38.44448300" lon="-6.38877400">
        <ele>558.00000</ele>
      </trkpt>
      <trkpt lat="38.44446200" lon="-6.38877999">
        <ele>558.00000</ele>
      </trkpt>
      <trkpt lat="38.44442600" lon="-6.38879100">
        <ele>559.00000</ele>
      </trkpt>
      <trkpt lat="38.44441000" lon="-6.38880900">
        <ele>560.00000</ele>
      </trkpt>
      <trkpt lat="38.44440200" lon="-6.38881600">
        <ele>560.00000</ele>
      </trkpt>
      <trkpt lat="38.44439500" lon="-6.38881900">
        <ele>560.00000</ele>
      </trkpt>
      <trkpt lat="38.44437900" lon="-6.38882299">
        <ele>560.00000</ele>
      </trkpt>
      <trkpt lat="38.44435500" lon="-6.38883100">
        <ele>561.00000</ele>
      </trkpt>
      <trkpt lat="38.44432100" lon="-6.38884899">
        <ele>562.00000</ele>
      </trkpt>
      <trkpt lat="38.44431100" lon="-6.38885600">
        <ele>562.00000</ele>
      </trkpt>
      <trkpt lat="38.44428900" lon="-6.38886700">
        <ele>562.00000</ele>
      </trkpt>
      <trkpt lat="38.44427500" lon="-6.38887500">
        <ele>563.00000</ele>
      </trkpt>
      <trkpt lat="38.44423800" lon="-6.38891800">
        <ele>564.00000</ele>
      </trkpt>
      <trkpt lat="38.44423300" lon="-6.38893400">
        <ele>564.00000</ele>
      </trkpt>
      <trkpt lat="38.44422600" lon="-6.38894899">
        <ele>564.00000</ele>
      </trkpt>
      <trkpt lat="38.44417400" lon="-6.38904600">
        <ele>564.00000</ele>
      </trkpt>
      <trkpt lat="38.44416200" lon="-6.38907500">
        <ele>564.00000</ele>
      </trkpt>
      <trkpt lat="38.44415200" lon="-6.38908500">
        <ele>564.00000</ele>
      </trkpt>
      <trkpt lat="38.44413400" lon="-6.38910900">
        <ele>565.00000</ele>
      </trkpt>
      <trkpt lat="38.44412300" lon="-6.38913800">
        <ele>565.00000</ele>
      </trkpt>
      <trkpt lat="38.44406100" lon="-6.38920999">
        <ele>565.00000</ele>
      </trkpt>
      <trkpt lat="38.44404200" lon="-6.38922500">
        <ele>565.00000</ele>
      </trkpt>
      <trkpt lat="38.44401000" lon="-6.38924300">
        <ele>566.00000</ele>
      </trkpt>
      <trkpt lat="38.44397600" lon="-6.38926200">
        <ele>566.00000</ele>
      </trkpt>
      <trkpt lat="38.44395500" lon="-6.38927300">
        <ele>566.00000</ele>
      </trkpt>
      <trkpt lat="38.44391700" lon="-6.38928200">
        <ele>567.00000</ele>
      </trkpt>
      <trkpt lat="38.44390900" lon="-6.38928800">
        <ele>567.00000</ele>
      </trkpt>
      <trkpt lat="38.44388600" lon="-6.38931600">
        <ele>567.00000</ele>
      </trkpt>
      <trkpt lat="38.44386200" lon="-6.38934100">
        <ele>567.00000</ele>
      </trkpt>
      <trkpt lat="38.44384200" lon="-6.38935200">
        <ele>568.00000</ele>
      </trkpt>
      <trkpt lat="38.44376300" lon="-6.38936700">
        <ele>570.00000</ele>
      </trkpt>
      <trkpt lat="38.44374200" lon="-6.38937300">
        <ele>570.00000</ele>
      </trkpt>
      <trkpt lat="38.44372400" lon="-6.38938400">
        <ele>571.00000</ele>
      </trkpt>
      <trkpt lat="38.44371400" lon="-6.38938700">
        <ele>571.00000</ele>
      </trkpt>
      <trkpt lat="38.44369600" lon="-6.38939700">
        <ele>571.00000</ele>
      </trkpt>
      <trkpt lat="38.44367600" lon="-6.38940300">
        <ele>572.00000</ele>
      </trkpt>
      <trkpt lat="38.44366500" lon="-6.38940499">
        <ele>572.00000</ele>
      </trkpt>
      <trkpt lat="38.44364500" lon="-6.38940700">
        <ele>573.00000</ele>
      </trkpt>
      <trkpt lat="38.44363700" lon="-6.38940900">
        <ele>573.00000</ele>
      </trkpt>
      <trkpt lat="38.44358800" lon="-6.38943100">
        <ele>574.00000</ele>
      </trkpt>
      <trkpt lat="38.44358000" lon="-6.38943799">
        <ele>574.00000</ele>
      </trkpt>
      <trkpt lat="38.44355300" lon="-6.38946500">
        <ele>575.00000</ele>
      </trkpt>
      <trkpt lat="38.44353500" lon="-6.38947600">
        <ele>575.00000</ele>
      </trkpt>
      <trkpt lat="38.44352600" lon="-6.38947900">
        <ele>575.00000</ele>
      </trkpt>
      <trkpt lat="38.44351500" lon="-6.38947800">
        <ele>576.00000</ele>
      </trkpt>
      <trkpt lat="38.44350100" lon="-6.38947500">
        <ele>576.00000</ele>
      </trkpt>
      <trkpt lat="38.44348100" lon="-6.38947299">
        <ele>577.00000</ele>
      </trkpt>
      <trkpt lat="38.44346900" lon="-6.38947299">
        <ele>577.00000</ele>
      </trkpt>
      <trkpt lat="38.44345800" lon="-6.38946900">
        <ele>577.00000</ele>
      </trkpt>
      <trkpt lat="38.44343600" lon="-6.38946700">
        <ele>578.00000</ele>
      </trkpt>
      <trkpt lat="38.44342700" lon="-6.38946500">
        <ele>578.00000</ele>
      </trkpt>
      <trkpt lat="38.44341700" lon="-6.38947200">
        <ele>578.00000</ele>
      </trkpt>
      <trkpt lat="38.44339900" lon="-6.38949000">
        <ele>579.00000</ele>
      </trkpt>
      <trkpt lat="38.44338900" lon="-6.38949499">
        <ele>579.00000</ele>
      </trkpt>
      <trkpt lat="38.44336700" lon="-6.38949700">
        <ele>579.00000</ele>
      </trkpt>
      <trkpt lat="38.44335700" lon="-6.38949600">
        <ele>580.00000</ele>
      </trkpt>
      <trkpt lat="38.44332800" lon="-6.38950699">
        <ele>580.00000</ele>
      </trkpt>
      <trkpt lat="38.44332100" lon="-6.38951400">
        <ele>580.00000</ele>
      </trkpt>
      <trkpt lat="38.44328700" lon="-6.38953400">
        <ele>581.00000</ele>
      </trkpt>
      <trkpt lat="38.44326800" lon="-6.38952799">
        <ele>581.00000</ele>
      </trkpt>
      <trkpt lat="38.44323000" lon="-6.38952300">
        <ele>582.00000</ele>
      </trkpt>
      <trkpt lat="38.44320900" lon="-6.38952799">
        <ele>582.00000</ele>
      </trkpt>
      <trkpt lat="38.44319700" lon="-6.38952799">
        <ele>583.00000</ele>
      </trkpt>
      <trkpt lat="38.44316200" lon="-6.38953300">
        <ele>583.00000</ele>
      </trkpt>
      <trkpt lat="38.44313300" lon="-6.38954300">
        <ele>584.00000</ele>
      </trkpt>
      <trkpt lat="38.44310600" lon="-6.38956000">
        <ele>584.00000</ele>
      </trkpt>
      <trkpt lat="38.44309500" lon="-6.38955900">
        <ele>584.00000</ele>
      </trkpt>
      <trkpt lat="38.44304400" lon="-6.38957200">
        <ele>585.00000</ele>
      </trkpt>
      <trkpt lat="38.44303400" lon="-6.38957300">
        <ele>585.00000</ele>
      </trkpt>
      <trkpt lat="38.44302300" lon="-6.38957100">
        <ele>585.00000</ele>
      </trkpt>
      <trkpt lat="38.44301400" lon="-6.38957500">
        <ele>585.00000</ele>
      </trkpt>
      <trkpt lat="38.44295600" lon="-6.38959899">
        <ele>586.00000</ele>
      </trkpt>
      <trkpt lat="38.44292900" lon="-6.38961000">
        <ele>586.00000</ele>
      </trkpt>
      <trkpt lat="38.44287400" lon="-6.38963200">
        <ele>587.00000</ele>
      </trkpt>
      <trkpt lat="38.44284500" lon="-6.38964600">
        <ele>587.00000</ele>
      </trkpt>
      <trkpt lat="38.44282100" lon="-6.38965000">
        <ele>587.00000</ele>
      </trkpt>
      <trkpt lat="38.44281100" lon="-6.38965500">
        <ele>587.00000</ele>
      </trkpt>
      <trkpt lat="38.44279000" lon="-6.38966300">
        <ele>587.00000</ele>
      </trkpt>
      <trkpt lat="38.44276300" lon="-6.38968999">
        <ele>588.00000</ele>
      </trkpt>
      <trkpt lat="38.44273500" lon="-6.38971099">
        <ele>588.00000</ele>
      </trkpt>
      <trkpt lat="38.44268400" lon="-6.38972900">
        <ele>590.00000</ele>
      </trkpt>
      <trkpt lat="38.44264500" lon="-6.38975100">
        <ele>590.00000</ele>
      </trkpt>
      <trkpt lat="38.44263800" lon="-6.38975599">
        <ele>591.00000</ele>
      </trkpt>
      <trkpt lat="38.44262600" lon="-6.38976500">
        <ele>591.00000</ele>
      </trkpt>
      <trkpt lat="38.44260500" lon="-6.38977300">
        <ele>591.00000</ele>
      </trkpt>
      <trkpt lat="38.44258000" lon="-6.38979300">
        <ele>592.00000</ele>
      </trkpt>
      <trkpt lat="38.44253800" lon="-6.38984700">
        <ele>592.00000</ele>
      </trkpt>
      <trkpt lat="38.44253100" lon="-6.38985799">
        <ele>592.00000</ele>
      </trkpt>
      <trkpt lat="38.44251500" lon="-6.38991300">
        <ele>593.00000</ele>
      </trkpt>
      <trkpt lat="38.44249000" lon="-6.38994100">
        <ele>593.00000</ele>
      </trkpt>
      <trkpt lat="38.44248200" lon="-6.38995099">
        <ele>593.00000</ele>
      </trkpt>
      <trkpt lat="38.44247000" lon="-6.38997600">
        <ele>593.00000</ele>
      </trkpt>
      <trkpt lat="38.44246400" lon="-6.38999000">
        <ele>593.00000</ele>
      </trkpt>
      <trkpt lat="38.44246300" lon="-6.39000400">
        <ele>593.00000</ele>
      </trkpt>
      <trkpt lat="38.44246000" lon="-6.39001700">
        <ele>593.00000</ele>
      </trkpt>
      <trkpt lat="38.44244700" lon="-6.39002999">
        <ele>594.00000</ele>
      </trkpt>
      <trkpt lat="38.44243900" lon="-6.39003500">
        <ele>594.00000</ele>
      </trkpt>
      <trkpt lat="38.44242200" lon="-6.39005700">
        <ele>594.00000</ele>
      </trkpt>
      <trkpt lat="38.44241100" lon="-6.39008400">
        <ele>594.00000</ele>
      </trkpt>
      <trkpt lat="38.44240300" lon="-6.39010999">
        <ele>595.00000</ele>
      </trkpt>
      <trkpt lat="38.44239900" lon="-6.39011800">
        <ele>595.00000</ele>
      </trkpt>
      <trkpt lat="38.44239000" lon="-6.39014000">
        <ele>595.00000</ele>
      </trkpt>
      <trkpt lat="38.44237800" lon="-6.39019500">
        <ele>595.00000</ele>
      </trkpt>
      <trkpt lat="38.44237500" lon="-6.39020900">
        <ele>595.00000</ele>
      </trkpt>
      <trkpt lat="38.44237700" lon="-6.39022399">
        <ele>595.00000</ele>
      </trkpt>
      <trkpt lat="38.44238300" lon="-6.39025000">
        <ele>595.00000</ele>
      </trkpt>
      <trkpt lat="38.44238300" lon="-6.39026300">
        <ele>595.00000</ele>
      </trkpt>
      <trkpt lat="38.44238100" lon="-6.39027700">
        <ele>595.00000</ele>
      </trkpt>
      <trkpt lat="38.44237700" lon="-6.39029200">
        <ele>595.00000</ele>
      </trkpt>
      <trkpt lat="38.44237600" lon="-6.39036400">
        <ele>596.00000</ele>
      </trkpt>
      <trkpt lat="38.44238600" lon="-6.39038700">
        <ele>596.00000</ele>
      </trkpt>
      <trkpt lat="38.44239700" lon="-6.39042700">
        <ele>596.00000</ele>
      </trkpt>
      <trkpt lat="38.44240200" lon="-6.39043900">
        <ele>596.00000</ele>
      </trkpt>
      <trkpt lat="38.44240400" lon="-6.39046000">
        <ele>596.00000</ele>
      </trkpt>
      <trkpt lat="38.44240300" lon="-6.39047000">
        <ele>597.00000</ele>
      </trkpt>
      <trkpt lat="38.44239700" lon="-6.39052700">
        <ele>597.00000</ele>
      </trkpt>
      <trkpt lat="38.44239300" lon="-6.39053700">
        <ele>598.00000</ele>
      </trkpt>
      <trkpt lat="38.44239100" lon="-6.39055100">
        <ele>598.00000</ele>
      </trkpt>
      <trkpt lat="38.44238300" lon="-6.39060500">
        <ele>599.00000</ele>
      </trkpt>
      <trkpt lat="38.44237800" lon="-6.39061800">
        <ele>599.00000</ele>
      </trkpt>
      <trkpt lat="38.44237500" lon="-6.39065000">
        <ele>599.00000</ele>
      </trkpt>
      <trkpt lat="38.44238900" lon="-6.39071500">
        <ele>600.00000</ele>
      </trkpt>
      <trkpt lat="38.44239300" lon="-6.39073200">
        <ele>600.00000</ele>
      </trkpt>
      <trkpt lat="38.44239400" lon="-6.39074500">
        <ele>600.00000</ele>
      </trkpt>
      <trkpt lat="38.44239800" lon="-6.39077900">
        <ele>601.00000</ele>
      </trkpt>
      <trkpt lat="38.44239600" lon="-6.39080800">
        <ele>601.00000</ele>
      </trkpt>
      <trkpt lat="38.44239500" lon="-6.39082200">
        <ele>601.00000</ele>
      </trkpt>
      <trkpt lat="38.44239500" lon="-6.39083699">
        <ele>601.00000</ele>
      </trkpt>
      <trkpt lat="38.44239800" lon="-6.39086200">
        <ele>602.00000</ele>
      </trkpt>
      <trkpt lat="38.44240500" lon="-6.39090300">
        <ele>602.00000</ele>
      </trkpt>
      <trkpt lat="38.44240800" lon="-6.39092100">
        <ele>603.00000</ele>
      </trkpt>
      <trkpt lat="38.44240400" lon="-6.39097900">
        <ele>604.00000</ele>
      </trkpt>
      <trkpt lat="38.44239900" lon="-6.39101200">
        <ele>604.00000</ele>
      </trkpt>
      <trkpt lat="38.44239900" lon="-6.39102900">
        <ele>605.00000</ele>
      </trkpt>
      <trkpt lat="38.44240900" lon="-6.39105499">
        <ele>605.00000</ele>
      </trkpt>
      <trkpt lat="38.44242600" lon="-6.39110600">
        <ele>605.00000</ele>
      </trkpt>
      <trkpt lat="38.44243300" lon="-6.39113100">
        <ele>606.00000</ele>
      </trkpt>
      <trkpt lat="38.44242700" lon="-6.39116200">
        <ele>606.00000</ele>
      </trkpt>
      <trkpt lat="38.44242100" lon="-6.39117500">
        <ele>607.00000</ele>
      </trkpt>
      <trkpt lat="38.44241500" lon="-6.39118500">
        <ele>607.00000</ele>
      </trkpt>
      <trkpt lat="38.44240700" lon="-6.39119099">
        <ele>607.00000</ele>
      </trkpt>
      <trkpt lat="38.44238300" lon="-6.39121600">
        <ele>608.00000</ele>
      </trkpt>
      <trkpt lat="38.44238000" lon="-6.39123900">
        <ele>608.00000</ele>
      </trkpt>
      <trkpt lat="38.44237500" lon="-6.39127900">
        <ele>609.00000</ele>
      </trkpt>
      <trkpt lat="38.44236700" lon="-6.39129600">
        <ele>609.00000</ele>
      </trkpt>
      <trkpt lat="38.44234600" lon="-6.39131600">
        <ele>609.00000</ele>
      </trkpt>
      <trkpt lat="38.44233500" lon="-6.39132500">
        <ele>609.00000</ele>
      </trkpt>
      <trkpt lat="38.44232000" lon="-6.39133999">
        <ele>610.00000</ele>
      </trkpt>
      <trkpt lat="38.44230500" lon="-6.39135200">
        <ele>610.00000</ele>
      </trkpt>
      <trkpt lat="38.44228000" lon="-6.39135700">
        <ele>610.00000</ele>
      </trkpt>
      <trkpt lat="38.44225800" lon="-6.39136500">
        <ele>610.00000</ele>
      </trkpt>
      <trkpt lat="38.44223800" lon="-6.39137300">
        <ele>610.00000</ele>
      </trkpt>
      <trkpt lat="38.44222300" lon="-6.39139200">
        <ele>611.00000</ele>
      </trkpt>
      <trkpt lat="38.44220100" lon="-6.39142300">
        <ele>611.00000</ele>
      </trkpt>
      <trkpt lat="38.44216300" lon="-6.39143200">
        <ele>612.00000</ele>
      </trkpt>
      <trkpt lat="38.44214900" lon="-6.39143200">
        <ele>612.00000</ele>
      </trkpt>
      <trkpt lat="38.44211200" lon="-6.39144299">
        <ele>612.00000</ele>
      </trkpt>
      <trkpt lat="38.44210200" lon="-6.39144700">
        <ele>612.00000</ele>
      </trkpt>
      <trkpt lat="38.44208200" lon="-6.39145600">
        <ele>613.00000</ele>
      </trkpt>
      <trkpt lat="38.44207200" lon="-6.39146600">
        <ele>613.00000</ele>
      </trkpt>
      <trkpt lat="38.44205200" lon="-6.39148200">
        <ele>613.00000</ele>
      </trkpt>
      <trkpt lat="38.44204100" lon="-6.39148900">
        <ele>613.00000</ele>
      </trkpt>
      <trkpt lat="38.44200200" lon="-6.39154400">
        <ele>614.00000</ele>
      </trkpt>
      <trkpt lat="38.44198700" lon="-6.39156200">
        <ele>614.00000</ele>
      </trkpt>
      <trkpt lat="38.44196600" lon="-6.39157700">
        <ele>614.00000</ele>
      </trkpt>
      <trkpt lat="38.44193600" lon="-6.39160700">
        <ele>614.00000</ele>
      </trkpt>
      <trkpt lat="38.44192800" lon="-6.39161600">
        <ele>614.00000</ele>
      </trkpt>
      <trkpt lat="38.44190400" lon="-6.39163100">
        <ele>614.00000</ele>
      </trkpt>
      <trkpt lat="38.44188000" lon="-6.39165300">
        <ele>614.00000</ele>
      </trkpt>
      <trkpt lat="38.44178800" lon="-6.39179000">
        <ele>614.00000</ele>
      </trkpt>
      <trkpt lat="38.44177000" lon="-6.39180800">
        <ele>614.00000</ele>
      </trkpt>
      <trkpt lat="38.44172700" lon="-6.39185099">
        <ele>614.00000</ele>
      </trkpt>
      <trkpt lat="38.44167100" lon="-6.39191400">
        <ele>614.00000</ele>
      </trkpt>
      <trkpt lat="38.44154600" lon="-6.39216600">
        <ele>613.00000</ele>
      </trkpt>
      <trkpt lat="38.44147300" lon="-6.39231600">
        <ele>612.00000</ele>
      </trkpt>
      <trkpt lat="38.44141800" lon="-6.39245000">
        <ele>612.00000</ele>
      </trkpt>
      <trkpt lat="38.44133100" lon="-6.39268900">
        <ele>610.00000</ele>
      </trkpt>
      <trkpt lat="38.44130300" lon="-6.39274600">
        <ele>610.00000</ele>
      </trkpt>
      <trkpt lat="38.44126600" lon="-6.39281500">
        <ele>609.00000</ele>
      </trkpt>
      <trkpt lat="38.44113400" lon="-6.39306900">
        <ele>609.00000</ele>
      </trkpt>
      <trkpt lat="38.44108100" lon="-6.39318100">
        <ele>609.00000</ele>
      </trkpt>
      <trkpt lat="38.44104200" lon="-6.39328800">
        <ele>609.00000</ele>
      </trkpt>
      <trkpt lat="38.44100700" lon="-6.39339300">
        <ele>609.00000</ele>
      </trkpt>
      <trkpt lat="38.44100200" lon="-6.39345100">
        <ele>609.00000</ele>
      </trkpt>
      <trkpt lat="38.44101600" lon="-6.39364500">
        <ele>609.00000</ele>
      </trkpt>
      <trkpt lat="38.44099600" lon="-6.39378200">
        <ele>607.00000</ele>
      </trkpt>
      <trkpt lat="38.44094300" lon="-6.39402800">
        <ele>606.00000</ele>
      </trkpt>
      <trkpt lat="38.44090300" lon="-6.39414799">
        <ele>606.00000</ele>
      </trkpt>
      <trkpt lat="38.44082100" lon="-6.39438700">
        <ele>605.00000</ele>
      </trkpt>
      <trkpt lat="38.44073900" lon="-6.39465100">
        <ele>605.00000</ele>
      </trkpt>
      <trkpt lat="38.44071500" lon="-6.39473500">
        <ele>605.00000</ele>
      </trkpt>
      <trkpt lat="38.44066900" lon="-6.39489300">
        <ele>604.00000</ele>
      </trkpt>
      <trkpt lat="38.44061000" lon="-6.39504800">
        <ele>603.00000</ele>
      </trkpt>
      <trkpt lat="38.44058100" lon="-6.39510799">
        <ele>603.00000</ele>
      </trkpt>
      <trkpt lat="38.44056200" lon="-6.39515000">
        <ele>602.00000</ele>
      </trkpt>
      <trkpt lat="38.44049500" lon="-6.39529600">
        <ele>601.00000</ele>
      </trkpt>
      <trkpt lat="38.44048000" lon="-6.39535000">
        <ele>601.00000</ele>
      </trkpt>
      <trkpt lat="38.44042300" lon="-6.39570100">
        <ele>598.00000</ele>
      </trkpt>
      <trkpt lat="38.44037100" lon="-6.39595200">
        <ele>596.00000</ele>
      </trkpt>
      <trkpt lat="38.44033100" lon="-6.39613100">
        <ele>595.00000</ele>
      </trkpt>
      <trkpt lat="38.44031500" lon="-6.39622600">
        <ele>594.00000</ele>
      </trkpt>
      <trkpt lat="38.44026700" lon="-6.39652200">
        <ele>592.00000</ele>
      </trkpt>
      <trkpt lat="38.44024900" lon="-6.39672000">
        <ele>591.00000</ele>
      </trkpt>
      <trkpt lat="38.44023200" lon="-6.39698900">
        <ele>590.00000</ele>
      </trkpt>
      <trkpt lat="38.44022100" lon="-6.39714900">
        <ele>589.00000</ele>
      </trkpt>
      <trkpt lat="38.44021700" lon="-6.39718200">
        <ele>589.00000</ele>
      </trkpt>
      <trkpt lat="38.44021200" lon="-6.39721400">
        <ele>589.00000</ele>
      </trkpt>
      <trkpt lat="38.44020200" lon="-6.39728000">
        <ele>589.00000</ele>
      </trkpt>
      <trkpt lat="38.44015800" lon="-6.39744999">
        <ele>589.00000</ele>
      </trkpt>
      <trkpt lat="38.44009800" lon="-6.39768600">
        <ele>588.00000</ele>
      </trkpt>
      <trkpt lat="38.44006200" lon="-6.39780600">
        <ele>588.00000</ele>
      </trkpt>
      <trkpt lat="38.44002900" lon="-6.39792999">
        <ele>587.00000</ele>
      </trkpt>
      <trkpt lat="38.44000900" lon="-6.39799100">
        <ele>586.00000</ele>
      </trkpt>
      <trkpt lat="38.43991200" lon="-6.39823700">
        <ele>585.00000</ele>
      </trkpt>
      <trkpt lat="38.43985500" lon="-6.39835500">
        <ele>584.00000</ele>
      </trkpt>
      <trkpt lat="38.43982500" lon="-6.39841400">
        <ele>583.00000</ele>
      </trkpt>
      <trkpt lat="38.43969800" lon="-6.39862299">
        <ele>581.00000</ele>
      </trkpt>
      <trkpt lat="38.43962300" lon="-6.39870700">
        <ele>580.00000</ele>
      </trkpt>
      <trkpt lat="38.43946700" lon="-6.39882700">
        <ele>577.00000</ele>
      </trkpt>
      <trkpt lat="38.43940300" lon="-6.39887200">
        <ele>576.00000</ele>
      </trkpt>
      <trkpt lat="38.43919700" lon="-6.39902800">
        <ele>574.00000</ele>
      </trkpt>
      <trkpt lat="38.43912700" lon="-6.39908700">
        <ele>574.00000</ele>
      </trkpt>
      <trkpt lat="38.43905800" lon="-6.39915100">
        <ele>574.00000</ele>
      </trkpt>
      <trkpt lat="38.43899100" lon="-6.39921400">
        <ele>574.00000</ele>
      </trkpt>
      <trkpt lat="38.43886400" lon="-6.39933899">
        <ele>574.00000</ele>
      </trkpt>
      <trkpt lat="38.43870100" lon="-6.39953000">
        <ele>574.00000</ele>
      </trkpt>
      <trkpt lat="38.43865200" lon="-6.39959400">
        <ele>574.00000</ele>
      </trkpt>
      <trkpt lat="38.43849300" lon="-6.39979300">
        <ele>574.00000</ele>
      </trkpt>
      <trkpt lat="38.43835000" lon="-6.39997000">
        <ele>572.00000</ele>
      </trkpt>
      <trkpt lat="38.43825000" lon="-6.40010500">
        <ele>571.00000</ele>
      </trkpt>
      <trkpt lat="38.43811400" lon="-6.40035700">
        <ele>569.00000</ele>
      </trkpt>
      <trkpt lat="38.43797400" lon="-6.40064999">
        <ele>567.00000</ele>
      </trkpt>
      <trkpt lat="38.43790100" lon="-6.40082600">
        <ele>566.00000</ele>
      </trkpt>
      <trkpt lat="38.43786500" lon="-6.40093300">
        <ele>565.00000</ele>
      </trkpt>
      <trkpt lat="38.43783400" lon="-6.40104300">
        <ele>564.00000</ele>
      </trkpt>
      <trkpt lat="38.43776300" lon="-6.40126100">
        <ele>562.00000</ele>
      </trkpt>
      <trkpt lat="38.43762200" lon="-6.40158099">
        <ele>561.00000</ele>
      </trkpt>
      <trkpt lat="38.43746400" lon="-6.40188400">
        <ele>561.00000</ele>
      </trkpt>
      <trkpt lat="38.43742500" lon="-6.40196799">
        <ele>562.00000</ele>
      </trkpt>
      <trkpt lat="38.43732400" lon="-6.40223199">
        <ele>562.00000</ele>
      </trkpt>
      <trkpt lat="38.43716300" lon="-6.40262500">
        <ele>562.00000</ele>
      </trkpt>
      <trkpt lat="38.43713100" lon="-6.40269100">
        <ele>562.00000</ele>
      </trkpt>
      <trkpt lat="38.43690100" lon="-6.40314199">
        <ele>560.00000</ele>
      </trkpt>
      <trkpt lat="38.43686800" lon="-6.40321800">
        <ele>559.00000</ele>
      </trkpt>
      <trkpt lat="38.43672400" lon="-6.40357800">
        <ele>557.00000</ele>
      </trkpt>
      <trkpt lat="38.43668600" lon="-6.40367800">
        <ele>556.00000</ele>
      </trkpt>
      <trkpt lat="38.43661100" lon="-6.40385699">
        <ele>555.00000</ele>
      </trkpt>
      <trkpt lat="38.43651600" lon="-6.40406600">
        <ele>554.00000</ele>
      </trkpt>
      <trkpt lat="38.43648400" lon="-6.40414199">
        <ele>554.00000</ele>
      </trkpt>
      <trkpt lat="38.43637100" lon="-6.40443900">
        <ele>555.00000</ele>
      </trkpt>
      <trkpt lat="38.43623500" lon="-6.40477700">
        <ele>556.00000</ele>
      </trkpt>
      <trkpt lat="38.43606500" lon="-6.40523200">
        <ele>555.00000</ele>
      </trkpt>
      <trkpt lat="38.43599500" lon="-6.40543700">
        <ele>554.00000</ele>
      </trkpt>
      <trkpt lat="38.43586500" lon="-6.40578700">
        <ele>552.00000</ele>
      </trkpt>
      <trkpt lat="38.43566300" lon="-6.40622700">
        <ele>550.00000</ele>
      </trkpt>
      <trkpt lat="38.43560300" lon="-6.40637300">
        <ele>550.00000</ele>
      </trkpt>
      <trkpt lat="38.43555200" lon="-6.40649400">
        <ele>549.00000</ele>
      </trkpt>
      <trkpt lat="38.43536200" lon="-6.40699800">
        <ele>547.00000</ele>
      </trkpt>
      <trkpt lat="38.43530300" lon="-6.40716300">
        <ele>546.00000</ele>
      </trkpt>
      <trkpt lat="38.43519500" lon="-6.40743000">
        <ele>545.00000</ele>
      </trkpt>
      <trkpt lat="38.43515500" lon="-6.40751900">
        <ele>545.00000</ele>
      </trkpt>
      <trkpt lat="38.43499100" lon="-6.40782900">
        <ele>544.00000</ele>
      </trkpt>
      <trkpt lat="38.43494600" lon="-6.40792500">
        <ele>544.00000</ele>
      </trkpt>
      <trkpt lat="38.43481300" lon="-6.40823600">
        <ele>544.00000</ele>
      </trkpt>
      <trkpt lat="38.43475200" lon="-6.40838800">
        <ele>545.00000</ele>
      </trkpt>
      <trkpt lat="38.43470000" lon="-6.40851000">
        <ele>545.00000</ele>
      </trkpt>
      <trkpt lat="38.43461500" lon="-6.40869900">
        <ele>546.00000</ele>
      </trkpt>
      <trkpt lat="38.43451600" lon="-6.40897500">
        <ele>547.00000</ele>
      </trkpt>
      <trkpt lat="38.43445800" lon="-6.40914899">
        <ele>547.00000</ele>
      </trkpt>
      <trkpt lat="38.43440700" lon="-6.40931300">
        <ele>546.00000</ele>
      </trkpt>
      <trkpt lat="38.43439900" lon="-6.40933500">
        <ele>546.00000</ele>
      </trkpt>
      <trkpt lat="38.43438500" lon="-6.40936600">
        <ele>546.00000</ele>
      </trkpt>
      <trkpt lat="38.43436900" lon="-6.40938600">
        <ele>546.00000</ele>
      </trkpt>
      <trkpt lat="38.43434500" lon="-6.40940400">
        <ele>546.00000</ele>
      </trkpt>
      <trkpt lat="38.43434300" lon="-6.40949400">
        <ele>545.00000</ele>
      </trkpt>
      <trkpt lat="38.43432900" lon="-6.40953100">
        <ele>545.00000</ele>
      </trkpt>
      <trkpt lat="38.43427100" lon="-6.40966900">
        <ele>545.00000</ele>
      </trkpt>
      <trkpt lat="38.43413900" lon="-6.40997400">
        <ele>544.00000</ele>
      </trkpt>
      <trkpt lat="38.43403600" lon="-6.41020400">
        <ele>542.00000</ele>
      </trkpt>
      <trkpt lat="38.43396100" lon="-6.41035300">
        <ele>541.00000</ele>
      </trkpt>
      <trkpt lat="38.43386800" lon="-6.41054300">
        <ele>539.00000</ele>
      </trkpt>
      <trkpt lat="38.43382600" lon="-6.41063400">
        <ele>539.00000</ele>
      </trkpt>
      <trkpt lat="38.43373600" lon="-6.41082299">
        <ele>539.00000</ele>
      </trkpt>
      <trkpt lat="38.43364400" lon="-6.41100100">
        <ele>539.00000</ele>
      </trkpt>
      <trkpt lat="38.43351200" lon="-6.41126100">
        <ele>539.00000</ele>
      </trkpt>
      <trkpt lat="38.43340400" lon="-6.41149599">
        <ele>538.00000</ele>
      </trkpt>
      <trkpt lat="38.43336800" lon="-6.41157600">
        <ele>538.00000</ele>
      </trkpt>
      <trkpt lat="38.43317600" lon="-6.41201700">
        <ele>537.00000</ele>
      </trkpt>
      <trkpt lat="38.43311800" lon="-6.41214300">
        <ele>537.00000</ele>
      </trkpt>
      <trkpt lat="38.43310100" lon="-6.41218600">
        <ele>537.00000</ele>
      </trkpt>
      <trkpt lat="38.43296700" lon="-6.41247199">
        <ele>536.00000</ele>
      </trkpt>
      <trkpt lat="38.43286200" lon="-6.41270400">
        <ele>536.00000</ele>
      </trkpt>
      <trkpt lat="38.43276800" lon="-6.41290399">
        <ele>536.00000</ele>
      </trkpt>
      <trkpt lat="38.43274300" lon="-6.41293800">
        <ele>536.00000</ele>
      </trkpt>
      <trkpt lat="38.43267600" lon="-6.41300800">
        <ele>536.00000</ele>
      </trkpt>
      <trkpt lat="38.43261300" lon="-6.41306900">
        <ele>535.00000</ele>
      </trkpt>
      <trkpt lat="38.43258500" lon="-6.41309500">
        <ele>535.00000</ele>
      </trkpt>
      <trkpt lat="38.43258300" lon="-6.41310500">
        <ele>535.00000</ele>
      </trkpt>
      <trkpt lat="38.43252700" lon="-6.41314100">
        <ele>535.00000</ele>
      </trkpt>
      <trkpt lat="38.43251100" lon="-6.41315599">
        <ele>535.00000</ele>
      </trkpt>
      <trkpt lat="38.43248600" lon="-6.41317700">
        <ele>534.00000</ele>
      </trkpt>
      <trkpt lat="38.43234200" lon="-6.41327999">
        <ele>534.00000</ele>
      </trkpt>
      <trkpt lat="38.43229900" lon="-6.41330500">
        <ele>534.00000</ele>
      </trkpt>
      <trkpt lat="38.43213100" lon="-6.41342400">
        <ele>534.00000</ele>
      </trkpt>
      <trkpt lat="38.43201700" lon="-6.41350400">
        <ele>534.00000</ele>
      </trkpt>
      <trkpt lat="38.43189400" lon="-6.41358600">
        <ele>533.00000</ele>
      </trkpt>
      <trkpt lat="38.43163800" lon="-6.41375400">
        <ele>530.00000</ele>
      </trkpt>
      <trkpt lat="38.43145000" lon="-6.41387700">
        <ele>528.00000</ele>
      </trkpt>
      <trkpt lat="38.43123500" lon="-6.41401600">
        <ele>527.00000</ele>
      </trkpt>
      <trkpt lat="38.43118800" lon="-6.41404700">
        <ele>527.00000</ele>
      </trkpt>
      <trkpt lat="38.43088000" lon="-6.41422700">
        <ele>526.00000</ele>
      </trkpt>
      <trkpt lat="38.43080800" lon="-6.41426999">
        <ele>526.00000</ele>
      </trkpt>
      <trkpt lat="38.43077500" lon="-6.41429300">
        <ele>526.00000</ele>
      </trkpt>
      <trkpt lat="38.43071500" lon="-6.41433800">
        <ele>526.00000</ele>
      </trkpt>
      <trkpt lat="38.43061000" lon="-6.41443700">
        <ele>526.00000</ele>
      </trkpt>
      <trkpt lat="38.43056600" lon="-6.41450000">
        <ele>526.00000</ele>
      </trkpt>
      <trkpt lat="38.43052900" lon="-6.41461900">
        <ele>527.00000</ele>
      </trkpt>
      <trkpt lat="38.43052000" lon="-6.41465699">
        <ele>527.00000</ele>
      </trkpt>
      <trkpt lat="38.43040900" lon="-6.41480000">
        <ele>527.00000</ele>
      </trkpt>
      <trkpt lat="38.43026700" lon="-6.41478299">
        <ele>528.00000</ele>
      </trkpt>
      <trkpt lat="38.43017900" lon="-6.41474600">
        <ele>528.00000</ele>
      </trkpt>
      <trkpt lat="38.43014400" lon="-6.41476500">
        <ele>528.00000</ele>
      </trkpt>
      <trkpt lat="38.43005200" lon="-6.41481000">
        <ele>528.00000</ele>
      </trkpt>
      <trkpt lat="38.42994900" lon="-6.41485100">
        <ele>528.00000</ele>
      </trkpt>
      <trkpt lat="38.42970600" lon="-6.41503900">
        <ele>525.00000</ele>
      </trkpt>
      <trkpt lat="38.42965900" lon="-6.41507799">
        <ele>525.00000</ele>
      </trkpt>
      <trkpt lat="38.42928900" lon="-6.41540100">
        <ele>523.00000</ele>
      </trkpt>
      <trkpt lat="38.42920100" lon="-6.41546900">
        <ele>522.00000</ele>
      </trkpt>
      <trkpt lat="38.42898000" lon="-6.41565400">
        <ele>521.00000</ele>
      </trkpt>
      <trkpt lat="38.42893000" lon="-6.41570499">
        <ele>521.00000</ele>
      </trkpt>
      <trkpt lat="38.42875800" lon="-6.41585100">
        <ele>520.00000</ele>
      </trkpt>
      <trkpt lat="38.42859500" lon="-6.41598000">
        <ele>520.00000</ele>
      </trkpt>
      <trkpt lat="38.42854800" lon="-6.41602500">
        <ele>520.00000</ele>
      </trkpt>
      <trkpt lat="38.42838000" lon="-6.41617200">
        <ele>520.00000</ele>
      </trkpt>
      <trkpt lat="38.42834600" lon="-6.41620599">
        <ele>520.00000</ele>
      </trkpt>
      <trkpt lat="38.42831600" lon="-6.41623600">
        <ele>520.00000</ele>
      </trkpt>
      <trkpt lat="38.42823900" lon="-6.41631300">
        <ele>520.00000</ele>
      </trkpt>
      <trkpt lat="38.42818600" lon="-6.41635900">
        <ele>520.00000</ele>
      </trkpt>
      <trkpt lat="38.42797200" lon="-6.41653800">
        <ele>519.00000</ele>
      </trkpt>
      <trkpt lat="38.42790400" lon="-6.41660400">
        <ele>519.00000</ele>
      </trkpt>
      <trkpt lat="38.42779600" lon="-6.41669700">
        <ele>518.00000</ele>
      </trkpt>
      <trkpt lat="38.42773000" lon="-6.41676100">
        <ele>518.00000</ele>
      </trkpt>
      <trkpt lat="38.42756600" lon="-6.41691199">
        <ele>518.00000</ele>
      </trkpt>
      <trkpt lat="38.42753500" lon="-6.41694400">
        <ele>517.00000</ele>
      </trkpt>
      <trkpt lat="38.42742600" lon="-6.41703200">
        <ele>518.00000</ele>
      </trkpt>
      <trkpt lat="38.42732000" lon="-6.41712600">
        <ele>519.00000</ele>
      </trkpt>
      <trkpt lat="38.42729800" lon="-6.41713699">
        <ele>519.00000</ele>
      </trkpt>
      <trkpt lat="38.42720600" lon="-6.41721300">
        <ele>519.00000</ele>
      </trkpt>
      <trkpt lat="38.42715000" lon="-6.41726400">
        <ele>519.00000</ele>
      </trkpt>
      <trkpt lat="38.42711500" lon="-6.41729600">
        <ele>519.00000</ele>
      </trkpt>
      <trkpt lat="38.42704800" lon="-6.41732700">
        <ele>519.00000</ele>
      </trkpt>
      <trkpt lat="38.42701700" lon="-6.41731900">
        <ele>519.00000</ele>
      </trkpt>
      <trkpt lat="38.42698600" lon="-6.41730100">
        <ele>519.00000</ele>
      </trkpt>
      <trkpt lat="38.42685600" lon="-6.41723600">
        <ele>520.00000</ele>
      </trkpt>
      <trkpt lat="38.42670500" lon="-6.41714500">
        <ele>520.00000</ele>
      </trkpt>
      <trkpt lat="38.42667100" lon="-6.41712300">
        <ele>520.00000</ele>
      </trkpt>
      <trkpt lat="38.42646100" lon="-6.41699100">
        <ele>520.00000</ele>
      </trkpt>
      <trkpt lat="38.42623700" lon="-6.41685499">
        <ele>520.00000</ele>
      </trkpt>
      <trkpt lat="38.42595800" lon="-6.41673700">
        <ele>518.00000</ele>
      </trkpt>
      <trkpt lat="38.42589000" lon="-6.41670699">
        <ele>518.00000</ele>
      </trkpt>
      <trkpt lat="38.42553800" lon="-6.41653700">
        <ele>517.00000</ele>
      </trkpt>
      <trkpt lat="38.42549300" lon="-6.41652600">
        <ele>517.00000</ele>
      </trkpt>
      <trkpt lat="38.42530100" lon="-6.41648100">
        <ele>517.00000</ele>
      </trkpt>
      <trkpt lat="38.42508600" lon="-6.41639600">
        <ele>517.00000</ele>
      </trkpt>
      <trkpt lat="38.42499100" lon="-6.41638400">
        <ele>517.00000</ele>
      </trkpt>
      <trkpt lat="38.42468200" lon="-6.41628800">
        <ele>516.00000</ele>
      </trkpt>
      <trkpt lat="38.42441800" lon="-6.41617900">
        <ele>516.00000</ele>
      </trkpt>
      <trkpt lat="38.42439100" lon="-6.41617000">
        <ele>516.00000</ele>
      </trkpt>
      <trkpt lat="38.42421100" lon="-6.41614800">
        <ele>516.00000</ele>
      </trkpt>
      <trkpt lat="38.42406900" lon="-6.41616200">
        <ele>516.00000</ele>
      </trkpt>
      <trkpt lat="38.42396300" lon="-6.41616200">
        <ele>516.00000</ele>
      </trkpt>
      <trkpt lat="38.42381200" lon="-6.41620000">
        <ele>515.00000</ele>
      </trkpt>
      <trkpt lat="38.42362800" lon="-6.41629200">
        <ele>514.00000</ele>
      </trkpt>
      <trkpt lat="38.42356900" lon="-6.41643900">
        <ele>514.00000</ele>
      </trkpt>
      <trkpt lat="38.42353200" lon="-6.41653500">
        <ele>514.00000</ele>
      </trkpt>
      <trkpt lat="38.42351800" lon="-6.41659800">
        <ele>514.00000</ele>
      </trkpt>
      <trkpt lat="38.42351100" lon="-6.41662900">
        <ele>514.00000</ele>
      </trkpt>
      <trkpt lat="38.42348900" lon="-6.41672500">
        <ele>514.00000</ele>
      </trkpt>
      <trkpt lat="38.42348700" lon="-6.41673500">
        <ele>514.00000</ele>
      </trkpt>
      <trkpt lat="38.42348800" lon="-6.41674500">
        <ele>514.00000</ele>
      </trkpt>
      <trkpt lat="38.42346400" lon="-6.41681000">
        <ele>514.00000</ele>
      </trkpt>
      <trkpt lat="38.42345300" lon="-6.41684900">
        <ele>514.00000</ele>
      </trkpt>
      <trkpt lat="38.42339700" lon="-6.41703400">
        <ele>513.00000</ele>
      </trkpt>
      <trkpt lat="38.42335000" lon="-6.41716400">
        <ele>513.00000</ele>
      </trkpt>
      <trkpt lat="38.42334200" lon="-6.41720300">
        <ele>513.00000</ele>
      </trkpt>
      <trkpt lat="38.42325900" lon="-6.41750400">
        <ele>512.00000</ele>
      </trkpt>
      <trkpt lat="38.42318200" lon="-6.41776100">
        <ele>511.00000</ele>
      </trkpt>
      <trkpt lat="38.42316100" lon="-6.41780900">
        <ele>511.00000</ele>
      </trkpt>
      <trkpt lat="38.42313200" lon="-6.41784300">
        <ele>511.00000</ele>
      </trkpt>
      <trkpt lat="38.42311100" lon="-6.41785499">
        <ele>511.00000</ele>
      </trkpt>
      <trkpt lat="38.42301600" lon="-6.41785200">
        <ele>510.00000</ele>
      </trkpt>
      <trkpt lat="38.42294600" lon="-6.41783600">
        <ele>510.00000</ele>
      </trkpt>
      <trkpt lat="38.42277200" lon="-6.41778799">
        <ele>510.00000</ele>
      </trkpt>
      <trkpt lat="38.42270100" lon="-6.41775499">
        <ele>511.00000</ele>
      </trkpt>
      <trkpt lat="38.42253000" lon="-6.41770000">
        <ele>511.00000</ele>
      </trkpt>
      <trkpt lat="38.42239200" lon="-6.41762700">
        <ele>511.00000</ele>
      </trkpt>
      <trkpt lat="38.42237100" lon="-6.41759000">
        <ele>511.00000</ele>
      </trkpt>
      <trkpt lat="38.42238100" lon="-6.41753000">
        <ele>511.00000</ele>
      </trkpt>
      <trkpt lat="38.42242200" lon="-6.41764000">
        <ele>511.00000</ele>
      </trkpt>
      <trkpt lat="38.42244000" lon="-6.41764700">
        <ele>511.00000</ele>
      </trkpt>
      <trkpt lat="38.42252300" lon="-6.41766800">
        <ele>511.00000</ele>
      </trkpt>
      <trkpt lat="38.42256800" lon="-6.41767500">
        <ele>511.00000</ele>
      </trkpt>
      <trkpt lat="38.42273700" lon="-6.41771500">
        <ele>511.00000</ele>
      </trkpt>
      <trkpt lat="38.42286700" lon="-6.41774500">
        <ele>511.00000</ele>
      </trkpt>
      <trkpt lat="38.42294800" lon="-6.41777100">
        <ele>511.00000</ele>
      </trkpt>
      <trkpt lat="38.42305100" lon="-6.41777700">
        <ele>511.00000</ele>
      </trkpt>
      <trkpt lat="38.42312900" lon="-6.41770500">
        <ele>511.00000</ele>
      </trkpt>
      <trkpt lat="38.42314100" lon="-6.41769700">
        <ele>511.00000</ele>
      </trkpt>
      <trkpt lat="38.42316800" lon="-6.41771100">
        <ele>511.00000</ele>
      </trkpt>
      <trkpt lat="38.42318400" lon="-6.41772900">
        <ele>512.00000</ele>
      </trkpt>
      <trkpt lat="38.42321500" lon="-6.41784499">
        <ele>512.00000</ele>
      </trkpt>
      <trkpt lat="38.42322300" lon="-6.41790400">
        <ele>511.00000</ele>
      </trkpt>
      <trkpt lat="38.42324100" lon="-6.41796100">
        <ele>511.00000</ele>
      </trkpt>
      <trkpt lat="38.42327700" lon="-6.41797800">
        <ele>512.00000</ele>
      </trkpt>
      <trkpt lat="38.42332400" lon="-6.41798000">
        <ele>512.00000</ele>
      </trkpt>
      <trkpt lat="38.42333700" lon="-6.41797800">
        <ele>512.00000</ele>
      </trkpt>
      <trkpt lat="38.42337600" lon="-6.41796800">
        <ele>512.00000</ele>
      </trkpt>
      <trkpt lat="38.42344400" lon="-6.41802900">
        <ele>512.00000</ele>
      </trkpt>
      <trkpt lat="38.42352900" lon="-6.41810400">
        <ele>513.00000</ele>
      </trkpt>
      <trkpt lat="38.42357700" lon="-6.41812999">
        <ele>513.00000</ele>
      </trkpt>
      <trkpt lat="38.42359200" lon="-6.41814100">
        <ele>513.00000</ele>
      </trkpt>
      <trkpt lat="38.42371000" lon="-6.41824900">
        <ele>514.00000</ele>
      </trkpt>
      <trkpt lat="38.42376600" lon="-6.41827200">
        <ele>515.00000</ele>
      </trkpt>
      <trkpt lat="38.42385300" lon="-6.41833300">
        <ele>515.00000</ele>
      </trkpt>
      <trkpt lat="38.42389000" lon="-6.41835200">
        <ele>515.00000</ele>
      </trkpt>
      <trkpt lat="38.42405000" lon="-6.41840000">
        <ele>515.00000</ele>
      </trkpt>
      <trkpt lat="38.42407000" lon="-6.41840700">
        <ele>515.00000</ele>
      </trkpt>
      <trkpt lat="38.42409700" lon="-6.41841600">
        <ele>515.00000</ele>
      </trkpt>
      <trkpt lat="38.42425300" lon="-6.41847900">
        <ele>515.00000</ele>
      </trkpt>
      <trkpt lat="38.42427800" lon="-6.41850400">
        <ele>515.00000</ele>
      </trkpt>
      <trkpt lat="38.42440500" lon="-6.41853300">
        <ele>515.00000</ele>
      </trkpt>
      <trkpt lat="38.42457100" lon="-6.41865200">
        <ele>515.00000</ele>
      </trkpt>
      <trkpt lat="38.42462900" lon="-6.41862899">
        <ele>515.00000</ele>
      </trkpt>
      <trkpt lat="38.42468400" lon="-6.41862400">
        <ele>515.00000</ele>
      </trkpt>
      <trkpt lat="38.42474300" lon="-6.41866600">
        <ele>515.00000</ele>
      </trkpt>
      <trkpt lat="38.42484500" lon="-6.41881300">
        <ele>515.00000</ele>
      </trkpt>
      <trkpt lat="38.42487500" lon="-6.41884499">
        <ele>515.00000</ele>
      </trkpt>
      <trkpt lat="38.42490500" lon="-6.41886600">
        <ele>515.00000</ele>
      </trkpt>
      <trkpt lat="38.42502200" lon="-6.41895100">
        <ele>514.00000</ele>
      </trkpt>
      <trkpt lat="38.42506000" lon="-6.41898700">
        <ele>514.00000</ele>
      </trkpt>
      <trkpt lat="38.42511100" lon="-6.41900500">
        <ele>514.00000</ele>
      </trkpt>
      <trkpt lat="38.42513900" lon="-6.41903600">
        <ele>514.00000</ele>
      </trkpt>
      <trkpt lat="38.42519900" lon="-6.41907100">
        <ele>515.00000</ele>
      </trkpt>
      <trkpt lat="38.42520700" lon="-6.41908400">
        <ele>515.00000</ele>
      </trkpt>
      <trkpt lat="38.42521600" lon="-6.41909200">
        <ele>515.00000</ele>
      </trkpt>
      <trkpt lat="38.42523300" lon="-6.41912200">
        <ele>514.00000</ele>
      </trkpt>
      <trkpt lat="38.42527500" lon="-6.41914800">
        <ele>515.00000</ele>
      </trkpt>
      <trkpt lat="38.42528800" lon="-6.41915500">
        <ele>515.00000</ele>
      </trkpt>
      <trkpt lat="38.42536800" lon="-6.41913400">
        <ele>515.00000</ele>
      </trkpt>
      <trkpt lat="38.42535300" lon="-6.41922200">
        <ele>515.00000</ele>
      </trkpt>
      <trkpt lat="38.42534700" lon="-6.41930300">
        <ele>515.00000</ele>
      </trkpt>
      <trkpt lat="38.42534200" lon="-6.41937800">
        <ele>515.00000</ele>
      </trkpt>
      <trkpt lat="38.42532500" lon="-6.41945099">
        <ele>515.00000</ele>
      </trkpt>
      <trkpt lat="38.42531500" lon="-6.41955700">
        <ele>515.00000</ele>
      </trkpt>
      <trkpt lat="38.42531500" lon="-6.41956700">
        <ele>515.00000</ele>
      </trkpt>
      <trkpt lat="38.42532000" lon="-6.41960100">
        <ele>515.00000</ele>
      </trkpt>
      <trkpt lat="38.42531400" lon="-6.41960900">
        <ele>515.00000</ele>
      </trkpt>
      <trkpt lat="38.42556400" lon="-6.41943400">
        <ele>516.00000</ele>
      </trkpt>
      <trkpt lat="38.42562900" lon="-6.41943899">
        <ele>516.00000</ele>
      </trkpt>
      <trkpt lat="38.42569900" lon="-6.41945000">
        <ele>516.00000</ele>
      </trkpt>
      <trkpt lat="38.42572200" lon="-6.41943300">
        <ele>516.00000</ele>
      </trkpt>
      <trkpt lat="38.42572500" lon="-6.41943100">
        <ele>516.00000</ele>
      </trkpt>
      <trkpt lat="38.42565800" lon="-6.41942699">
        <ele>516.00000</ele>
      </trkpt>
      <trkpt lat="38.42564000" lon="-6.41942400">
        <ele>516.00000</ele>
      </trkpt>
      <trkpt lat="38.42561200" lon="-6.41941100">
        <ele>516.00000</ele>
      </trkpt>
      <trkpt lat="38.42544100" lon="-6.41929200">
        <ele>515.00000</ele>
      </trkpt>
      <trkpt lat="38.42541100" lon="-6.41924700">
        <ele>515.00000</ele>
      </trkpt>
      <trkpt lat="38.42540800" lon="-6.41918300">
        <ele>515.00000</ele>
      </trkpt>
      <trkpt lat="38.42544800" lon="-6.41899800">
        <ele>516.00000</ele>
      </trkpt>
      <trkpt lat="38.42544700" lon="-6.41890400">
        <ele>516.00000</ele>
      </trkpt>
      <trkpt lat="38.42544100" lon="-6.41888800">
        <ele>516.00000</ele>
      </trkpt>
      <trkpt lat="38.42543300" lon="-6.41886800">
        <ele>516.00000</ele>
      </trkpt>
      <trkpt lat="38.42542900" lon="-6.41883400">
        <ele>516.00000</ele>
      </trkpt>
      <trkpt lat="38.42542900" lon="-6.41881900">
        <ele>516.00000</ele>
      </trkpt>
      <trkpt lat="38.42542500" lon="-6.41870999">
        <ele>516.00000</ele>
      </trkpt>
      <trkpt lat="38.42542100" lon="-6.41856199">
        <ele>517.00000</ele>
      </trkpt>
      <trkpt lat="38.42540800" lon="-6.41845900">
        <ele>517.00000</ele>
      </trkpt>
      <trkpt lat="38.42539000" lon="-6.41832299">
        <ele>516.00000</ele>
      </trkpt>
      <trkpt lat="38.42539100" lon="-6.41830200">
        <ele>516.00000</ele>
      </trkpt>
      <trkpt lat="38.42539000" lon="-6.41827900">
        <ele>516.00000</ele>
      </trkpt>
      <trkpt lat="38.42539300" lon="-6.41820500">
        <ele>516.00000</ele>
      </trkpt>
      <trkpt lat="38.42538300" lon="-6.41805800">
        <ele>516.00000</ele>
      </trkpt>
      <trkpt lat="38.42537900" lon="-6.41802799">
        <ele>516.00000</ele>
      </trkpt>
      <trkpt lat="38.42534700" lon="-6.41794300">
        <ele>516.00000</ele>
      </trkpt>
      <trkpt lat="38.42533700" lon="-6.41791199">
        <ele>516.00000</ele>
      </trkpt>
      <trkpt lat="38.42533400" lon="-6.41785400">
        <ele>516.00000</ele>
      </trkpt>
      <trkpt lat="38.42533400" lon="-6.41781100">
        <ele>516.00000</ele>
      </trkpt>
      <trkpt lat="38.42530700" lon="-6.41773099">
        <ele>516.00000</ele>
      </trkpt>
      <trkpt lat="38.42524700" lon="-6.41773099">
        <ele>516.00000</ele>
      </trkpt>
      <trkpt lat="38.42521200" lon="-6.41773600">
        <ele>515.00000</ele>
      </trkpt>
      <trkpt lat="38.42509300" lon="-6.41772700">
        <ele>515.00000</ele>
      </trkpt>
      <trkpt lat="38.42506900" lon="-6.41772700">
        <ele>515.00000</ele>
      </trkpt>
      <trkpt lat="38.42492600" lon="-6.41772600">
        <ele>514.00000</ele>
      </trkpt>
      <trkpt lat="38.42480400" lon="-6.41773800">
        <ele>514.00000</ele>
      </trkpt>
      <trkpt lat="38.42472900" lon="-6.41772300">
        <ele>514.00000</ele>
      </trkpt>
      <trkpt lat="38.42457800" lon="-6.41772500">
        <ele>514.00000</ele>
      </trkpt>
      <trkpt lat="38.42445800" lon="-6.41772900">
        <ele>514.00000</ele>
      </trkpt>
      <trkpt lat="38.42443000" lon="-6.41772300">
        <ele>514.00000</ele>
      </trkpt>
      <trkpt lat="38.42442000" lon="-6.41771400">
        <ele>514.00000</ele>
      </trkpt>
      <trkpt lat="38.42436800" lon="-6.41768300">
        <ele>514.00000</ele>
      </trkpt>
      <trkpt lat="38.42431600" lon="-6.41762200">
        <ele>514.00000</ele>
      </trkpt>
      <trkpt lat="38.42426000" lon="-6.41752300">
        <ele>514.00000</ele>
      </trkpt>
      <trkpt lat="38.42422100" lon="-6.41746900">
        <ele>514.00000</ele>
      </trkpt>
      <trkpt lat="38.42417300" lon="-6.41742100">
        <ele>514.00000</ele>
      </trkpt>
      <trkpt lat="38.42416800" lon="-6.41742000">
        <ele>514.00000</ele>
      </trkpt>
      <trkpt lat="38.42415800" lon="-6.41741100">
        <ele>514.00000</ele>
      </trkpt>
      <trkpt lat="38.42414200" lon="-6.41741000">
        <ele>514.00000</ele>
      </trkpt>
      <trkpt lat="38.42412300" lon="-6.41740900">
        <ele>514.00000</ele>
      </trkpt>
      <trkpt lat="38.42404600" lon="-6.41742299">
        <ele>513.00000</ele>
      </trkpt>
      <trkpt lat="38.42401500" lon="-6.41741500">
        <ele>513.00000</ele>
      </trkpt>
      <trkpt lat="38.42398700" lon="-6.41739700">
        <ele>513.00000</ele>
      </trkpt>
      <trkpt lat="38.42395700" lon="-6.41739500">
        <ele>513.00000</ele>
      </trkpt>
      <trkpt lat="38.42394600" lon="-6.41739100">
        <ele>513.00000</ele>
      </trkpt>
      <trkpt lat="38.42391600" lon="-6.41737900">
        <ele>513.00000</ele>
      </trkpt>
      <trkpt lat="38.42387600" lon="-6.41736300">
        <ele>513.00000</ele>
      </trkpt>
      <trkpt lat="38.42383900" lon="-6.41736700">
        <ele>513.00000</ele>
      </trkpt>
      <trkpt lat="38.42383600" lon="-6.41737900">
        <ele>513.00000</ele>
      </trkpt>
      <trkpt lat="38.42377400" lon="-6.41752200">
        <ele>513.00000</ele>
      </trkpt>
      <trkpt lat="38.42369900" lon="-6.41764200">
        <ele>514.00000</ele>
      </trkpt>
      <trkpt lat="38.42364000" lon="-6.41778700">
        <ele>514.00000</ele>
      </trkpt>
      <trkpt lat="38.42362700" lon="-6.41783200">
        <ele>514.00000</ele>
      </trkpt>
      <trkpt lat="38.42355700" lon="-6.41795600">
        <ele>513.00000</ele>
      </trkpt>
      <trkpt lat="38.42325300" lon="-6.41785200">
        <ele>512.00000</ele>
      </trkpt>
      <trkpt lat="38.42323600" lon="-6.41778600">
        <ele>512.00000</ele>
      </trkpt>
      <trkpt lat="38.42323700" lon="-6.41777400">
        <ele>512.00000</ele>
      </trkpt>
      <trkpt lat="38.42320900" lon="-6.41774800">
        <ele>512.00000</ele>
      </trkpt>
      <trkpt lat="38.42319800" lon="-6.41773300">
        <ele>512.00000</ele>
      </trkpt>
      <trkpt lat="38.42320600" lon="-6.41769799">
        <ele>512.00000</ele>
      </trkpt>
      <trkpt lat="38.42321800" lon="-6.41764400">
        <ele>512.00000</ele>
      </trkpt>
      <trkpt lat="38.42321600" lon="-6.41761800">
        <ele>512.00000</ele>
      </trkpt>
      <trkpt lat="38.42321100" lon="-6.41756600">
        <ele>512.00000</ele>
      </trkpt>
      <trkpt lat="38.42324400" lon="-6.41751499">
        <ele>512.00000</ele>
      </trkpt>
      <trkpt lat="38.42328700" lon="-6.41743700">
        <ele>512.00000</ele>
      </trkpt>
      <trkpt lat="38.42328700" lon="-6.41739800">
        <ele>512.00000</ele>
      </trkpt>
      <trkpt lat="38.42328100" lon="-6.41736000">
        <ele>512.00000</ele>
      </trkpt>
      <trkpt lat="38.42326400" lon="-6.41734100">
        <ele>512.00000</ele>
      </trkpt>
      <trkpt lat="38.42323400" lon="-6.41730899">
        <ele>512.00000</ele>
      </trkpt>
      <trkpt lat="38.42320400" lon="-6.41726700">
        <ele>512.00000</ele>
      </trkpt>
      <trkpt lat="38.42317000" lon="-6.41724700">
        <ele>512.00000</ele>
      </trkpt>
      <trkpt lat="38.42315500" lon="-6.41725000">
        <ele>512.00000</ele>
      </trkpt>
      <trkpt lat="38.42312300" lon="-6.41725500">
        <ele>512.00000</ele>
      </trkpt>
      <trkpt lat="38.42306600" lon="-6.41722300">
        <ele>512.00000</ele>
      </trkpt>
      <trkpt lat="38.42296300" lon="-6.41707999">
        <ele>512.00000</ele>
      </trkpt>
      <trkpt lat="38.42295800" lon="-6.41688700">
        <ele>512.00000</ele>
      </trkpt>
      <trkpt lat="38.42293800" lon="-6.41684500">
        <ele>512.00000</ele>
      </trkpt>
      <trkpt lat="38.42290100" lon="-6.41672800">
        <ele>512.00000</ele>
      </trkpt>
      <trkpt lat="38.42286800" lon="-6.41670100">
        <ele>512.00000</ele>
      </trkpt>
      <trkpt lat="38.42276400" lon="-6.41663799">
        <ele>511.00000</ele>
      </trkpt>
      <trkpt lat="38.42275600" lon="-6.41661800">
        <ele>511.00000</ele>
      </trkpt>
      <trkpt lat="38.42272300" lon="-6.41654599">
        <ele>511.00000</ele>
      </trkpt>
      <trkpt lat="38.42271400" lon="-6.41653200">
        <ele>511.00000</ele>
      </trkpt>
      <trkpt lat="38.42262800" lon="-6.41655600">
        <ele>511.00000</ele>
      </trkpt>
      <trkpt lat="38.42261200" lon="-6.41655700">
        <ele>511.00000</ele>
      </trkpt>
      <trkpt lat="38.42259100" lon="-6.41655000">
        <ele>511.00000</ele>
      </trkpt>
      <trkpt lat="38.42252600" lon="-6.41653100">
        <ele>511.00000</ele>
      </trkpt>
      <trkpt lat="38.42252500" lon="-6.41653400">
        <ele>511.00000</ele>
      </trkpt>
      <trkpt lat="38.42248700" lon="-6.41649800">
        <ele>511.00000</ele>
      </trkpt>
      <trkpt lat="38.42244500" lon="-6.41647000">
        <ele>511.00000</ele>
      </trkpt>
      <trkpt lat="38.42242700" lon="-6.41645000">
        <ele>511.00000</ele>
      </trkpt>
      <trkpt lat="38.42236500" lon="-6.41639700">
        <ele>511.00000</ele>
      </trkpt>
      <trkpt lat="38.42230400" lon="-6.41632300">
        <ele>511.00000</ele>
      </trkpt>
      <trkpt lat="38.42228100" lon="-6.41629599">
        <ele>511.00000</ele>
      </trkpt>
      <trkpt lat="38.42225200" lon="-6.41625500">
        <ele>511.00000</ele>
      </trkpt>
      <trkpt lat="38.42220500" lon="-6.41615100">
        <ele>511.00000</ele>
      </trkpt>
      <trkpt lat="38.42215800" lon="-6.41611900">
        <ele>512.00000</ele>
      </trkpt>
      <trkpt lat="38.42210100" lon="-6.41605000">
        <ele>513.00000</ele>
      </trkpt>
      <trkpt lat="38.42207500" lon="-6.41599600">
        <ele>513.00000</ele>
      </trkpt>
      <trkpt lat="38.42205200" lon="-6.41595699">
        <ele>513.00000</ele>
      </trkpt>
      <trkpt lat="38.42203000" lon="-6.41595300">
        <ele>513.00000</ele>
      </trkpt>
      <trkpt lat="38.42200300" lon="-6.41595100">
        <ele>513.00000</ele>
      </trkpt>
      <trkpt lat="38.42199100" lon="-6.41593100">
        <ele>513.00000</ele>
      </trkpt>
      <trkpt lat="38.42194500" lon="-6.41588100">
        <ele>514.00000</ele>
      </trkpt>
      <trkpt lat="38.42192600" lon="-6.41587900">
        <ele>514.00000</ele>
      </trkpt>
      <trkpt lat="38.42190100" lon="-6.41588300">
        <ele>514.00000</ele>
      </trkpt>
      <trkpt lat="38.42185800" lon="-6.41589900">
        <ele>514.00000</ele>
      </trkpt>
      <trkpt lat="38.42184000" lon="-6.41590500">
        <ele>514.00000</ele>
      </trkpt>
      <trkpt lat="38.42175800" lon="-6.41595500">
        <ele>514.00000</ele>
      </trkpt>
      <trkpt lat="38.42174600" lon="-6.41597300">
        <ele>514.00000</ele>
      </trkpt>
      <trkpt lat="38.42174200" lon="-6.41601900">
        <ele>514.00000</ele>
      </trkpt>
      <trkpt lat="38.42170100" lon="-6.41603000">
        <ele>514.00000</ele>
      </trkpt>
      <trkpt lat="38.42168700" lon="-6.41602700">
        <ele>514.00000</ele>
      </trkpt>
      <trkpt lat="38.42168400" lon="-6.41600800">
        <ele>514.00000</ele>
      </trkpt>
      <trkpt lat="38.42168000" lon="-6.41595500">
        <ele>515.00000</ele>
      </trkpt>
      <trkpt lat="38.42167900" lon="-6.41591600">
        <ele>515.00000</ele>
      </trkpt>
      <trkpt lat="38.42168100" lon="-6.41591000">
        <ele>515.00000</ele>
      </trkpt>
      <trkpt lat="38.42169900" lon="-6.41578599">
        <ele>515.00000</ele>
      </trkpt>
      <trkpt lat="38.42171000" lon="-6.41575700">
        <ele>515.00000</ele>
      </trkpt>
      <trkpt lat="38.42172100" lon="-6.41573000">
        <ele>515.00000</ele>
      </trkpt>
      <trkpt lat="38.42180800" lon="-6.41558100">
        <ele>514.00000</ele>
      </trkpt>
      <trkpt lat="38.42186300" lon="-6.41535500">
        <ele>514.00000</ele>
      </trkpt>
      <trkpt lat="38.42183600" lon="-6.41522699">
        <ele>515.00000</ele>
      </trkpt>
      <trkpt lat="38.42178700" lon="-6.41511600">
        <ele>516.00000</ele>
      </trkpt>
      <trkpt lat="38.42177500" lon="-6.41508800">
        <ele>517.00000</ele>
      </trkpt>
      <trkpt lat="38.42176000" lon="-6.41506000">
        <ele>517.00000</ele>
      </trkpt>
      <trkpt lat="38.42169500" lon="-6.41494500">
        <ele>518.00000</ele>
      </trkpt>
      <trkpt lat="38.42154300" lon="-6.41477600">
        <ele>519.00000</ele>
      </trkpt>
      <trkpt lat="38.42152900" lon="-6.41475900">
        <ele>519.00000</ele>
      </trkpt>
      <trkpt lat="38.42147200" lon="-6.41469500">
        <ele>520.00000</ele>
      </trkpt>
      <trkpt lat="38.42145200" lon="-6.41465500">
        <ele>520.00000</ele>
      </trkpt>
      <trkpt lat="38.42144800" lon="-6.41465100">
        <ele>520.00000</ele>
      </trkpt>
      <trkpt lat="38.42139400" lon="-6.41460800">
        <ele>520.00000</ele>
      </trkpt>
      <trkpt lat="38.42137300" lon="-6.41458899">
        <ele>520.00000</ele>
      </trkpt>
      <trkpt lat="38.42118100" lon="-6.41442999">
        <ele>519.00000</ele>
      </trkpt>
      <trkpt lat="38.42105400" lon="-6.41424100">
        <ele>517.00000</ele>
      </trkpt>
      <trkpt lat="38.42103100" lon="-6.41420800">
        <ele>517.00000</ele>
      </trkpt>
      <trkpt lat="38.42090700" lon="-6.41408699">
        <ele>517.00000</ele>
      </trkpt>
      <trkpt lat="38.42086900" lon="-6.41405200">
        <ele>517.00000</ele>
      </trkpt>
      <trkpt lat="38.42068200" lon="-6.41386100">
        <ele>517.00000</ele>
      </trkpt>
      <trkpt lat="38.42046100" lon="-6.41357800">
        <ele>516.00000</ele>
      </trkpt>
      <trkpt lat="38.42038200" lon="-6.41348000">
        <ele>516.00000</ele>
      </trkpt>
      <trkpt lat="38.42027500" lon="-6.41335000">
        <ele>516.00000</ele>
      </trkpt>
      <trkpt lat="38.42019200" lon="-6.41325300">
        <ele>516.00000</ele>
      </trkpt>
      <trkpt lat="38.42008400" lon="-6.41312200">
        <ele>517.00000</ele>
      </trkpt>
      <trkpt lat="38.41986800" lon="-6.41292400">
        <ele>517.00000</ele>
      </trkpt>
      <trkpt lat="38.41971200" lon="-6.41273500">
        <ele>515.00000</ele>
      </trkpt>
      <trkpt lat="38.41959300" lon="-6.41256300">
        <ele>515.00000</ele>
      </trkpt>
      <trkpt lat="38.41947500" lon="-6.41239700">
        <ele>515.00000</ele>
      </trkpt>
      <trkpt lat="38.41928600" lon="-6.41221900">
        <ele>516.00000</ele>
      </trkpt>
      <trkpt lat="38.41924800" lon="-6.41216000">
        <ele>516.00000</ele>
      </trkpt>
      <trkpt lat="38.41919100" lon="-6.41208000">
        <ele>516.00000</ele>
      </trkpt>
      <trkpt lat="38.41918600" lon="-6.41207600">
        <ele>516.00000</ele>
      </trkpt>
      <trkpt lat="38.41915500" lon="-6.41206399">
        <ele>516.00000</ele>
      </trkpt>
      <trkpt lat="38.41913700" lon="-6.41204600">
        <ele>516.00000</ele>
      </trkpt>
      <trkpt lat="38.41903000" lon="-6.41192400">
        <ele>516.00000</ele>
      </trkpt>
      <trkpt lat="38.41888500" lon="-6.41175300">
        <ele>516.00000</ele>
      </trkpt>
      <trkpt lat="38.41872700" lon="-6.41159900">
        <ele>515.00000</ele>
      </trkpt>
      <trkpt lat="38.41870200" lon="-6.41157800">
        <ele>515.00000</ele>
      </trkpt>
      <trkpt lat="38.41853500" lon="-6.41139400">
        <ele>515.00000</ele>
      </trkpt>
      <trkpt lat="38.41833900" lon="-6.41118800">
        <ele>514.00000</ele>
      </trkpt>
      <trkpt lat="38.41831200" lon="-6.41116000">
        <ele>514.00000</ele>
      </trkpt>
      <trkpt lat="38.41818600" lon="-6.41100100">
        <ele>514.00000</ele>
      </trkpt>
      <trkpt lat="38.41802800" lon="-6.41084100">
        <ele>514.00000</ele>
      </trkpt>
      <trkpt lat="38.41783800" lon="-6.41061400">
        <ele>515.00000</ele>
      </trkpt>
      <trkpt lat="38.41765000" lon="-6.41042399">
        <ele>516.00000</ele>
      </trkpt>
      <trkpt lat="38.41748100" lon="-6.41023199">
        <ele>516.00000</ele>
      </trkpt>
      <trkpt lat="38.41739400" lon="-6.41012200">
        <ele>516.00000</ele>
      </trkpt>
      <trkpt lat="38.41735300" lon="-6.41007099">
        <ele>516.00000</ele>
      </trkpt>
      <trkpt lat="38.41722400" lon="-6.40989400">
        <ele>515.00000</ele>
      </trkpt>
      <trkpt lat="38.41704200" lon="-6.40966900">
        <ele>516.00000</ele>
      </trkpt>
      <trkpt lat="38.41689600" lon="-6.40952399">
        <ele>517.00000</ele>
      </trkpt>
      <trkpt lat="38.41683100" lon="-6.40944800">
        <ele>517.00000</ele>
      </trkpt>
      <trkpt lat="38.41674300" lon="-6.40934700">
        <ele>517.00000</ele>
      </trkpt>
      <trkpt lat="38.41668300" lon="-6.40926600">
        <ele>517.00000</ele>
      </trkpt>
      <trkpt lat="38.41661400" lon="-6.40918700">
        <ele>518.00000</ele>
      </trkpt>
      <trkpt lat="38.41659400" lon="-6.40916099">
        <ele>518.00000</ele>
      </trkpt>
      <trkpt lat="38.41644500" lon="-6.40901200">
        <ele>518.00000</ele>
      </trkpt>
      <trkpt lat="38.41636500" lon="-6.40892900">
        <ele>518.00000</ele>
      </trkpt>
      <trkpt lat="38.41626200" lon="-6.40880899">
        <ele>518.00000</ele>
      </trkpt>
      <trkpt lat="38.41621400" lon="-6.40875900">
        <ele>518.00000</ele>
      </trkpt>
      <trkpt lat="38.41609800" lon="-6.40863600">
        <ele>518.00000</ele>
      </trkpt>
      <trkpt lat="38.41607800" lon="-6.40861000">
        <ele>518.00000</ele>
      </trkpt>
      <trkpt lat="38.41585300" lon="-6.40836800">
        <ele>518.00000</ele>
      </trkpt>
      <trkpt lat="38.41582700" lon="-6.40834200">
        <ele>518.00000</ele>
      </trkpt>
      <trkpt lat="38.41572200" lon="-6.40820300">
        <ele>518.00000</ele>
      </trkpt>
      <trkpt lat="38.41554600" lon="-6.40803700">
        <ele>519.00000</ele>
      </trkpt>
      <trkpt lat="38.41544000" lon="-6.40789100">
        <ele>519.00000</ele>
      </trkpt>
      <trkpt lat="38.41541600" lon="-6.40786700">
        <ele>519.00000</ele>
      </trkpt>
      <trkpt lat="38.41534100" lon="-6.40779200">
        <ele>519.00000</ele>
      </trkpt>
      <trkpt lat="38.41525700" lon="-6.40769299">
        <ele>520.00000</ele>
      </trkpt>
      <trkpt lat="38.41513000" lon="-6.40754499">
        <ele>520.00000</ele>
      </trkpt>
      <trkpt lat="38.41505300" lon="-6.40746200">
        <ele>521.00000</ele>
      </trkpt>
      <trkpt lat="38.41489800" lon="-6.40728600">
        <ele>521.00000</ele>
      </trkpt>
      <trkpt lat="38.41487600" lon="-6.40726200">
        <ele>521.00000</ele>
      </trkpt>
      <trkpt lat="38.41481400" lon="-6.40719600">
        <ele>521.00000</ele>
      </trkpt>
      <trkpt lat="38.41467900" lon="-6.40703600">
        <ele>521.00000</ele>
      </trkpt>
      <trkpt lat="38.41462700" lon="-6.40696800">
        <ele>521.00000</ele>
      </trkpt>
      <trkpt lat="38.41448100" lon="-6.40682000">
        <ele>523.00000</ele>
      </trkpt>
      <trkpt lat="38.41446200" lon="-6.40680200">
        <ele>523.00000</ele>
      </trkpt>
      <trkpt lat="38.41444400" lon="-6.40678500">
        <ele>523.00000</ele>
      </trkpt>
      <trkpt lat="38.41440900" lon="-6.40675500">
        <ele>523.00000</ele>
      </trkpt>
      <trkpt lat="38.41436400" lon="-6.40676199">
        <ele>523.00000</ele>
      </trkpt>
      <trkpt lat="38.41425400" lon="-6.40689100">
        <ele>523.00000</ele>
      </trkpt>
      <trkpt lat="38.41423500" lon="-6.40691600">
        <ele>523.00000</ele>
      </trkpt>
      <trkpt lat="38.41413400" lon="-6.40704200">
        <ele>523.00000</ele>
      </trkpt>
      <trkpt lat="38.41411000" lon="-6.40707100">
        <ele>523.00000</ele>
      </trkpt>
      <trkpt lat="38.41402000" lon="-6.40719100">
        <ele>523.00000</ele>
      </trkpt>
      <trkpt lat="38.41386000" lon="-6.40741999">
        <ele>523.00000</ele>
      </trkpt>
      <trkpt lat="38.41368000" lon="-6.40764700">
        <ele>519.00000</ele>
      </trkpt>
      <trkpt lat="38.41355700" lon="-6.40777299">
        <ele>518.00000</ele>
      </trkpt>
      <trkpt lat="38.41342300" lon="-6.40788699">
        <ele>518.00000</ele>
      </trkpt>
      <trkpt lat="38.41320200" lon="-6.40808100">
        <ele>518.00000</ele>
      </trkpt>
      <trkpt lat="38.41287700" lon="-6.40828399">
        <ele>518.00000</ele>
      </trkpt>
      <trkpt lat="38.41253800" lon="-6.40842800">
        <ele>516.00000</ele>
      </trkpt>
      <trkpt lat="38.41243800" lon="-6.40846200">
        <ele>516.00000</ele>
      </trkpt>
      <trkpt lat="38.41222700" lon="-6.40851000">
        <ele>514.00000</ele>
      </trkpt>
      <trkpt lat="38.41200000" lon="-6.40853800">
        <ele>513.00000</ele>
      </trkpt>
      <trkpt lat="38.41181700" lon="-6.40854400">
        <ele>513.00000</ele>
      </trkpt>
      <trkpt lat="38.41149100" lon="-6.40851500">
        <ele>513.00000</ele>
      </trkpt>
      <trkpt lat="38.41117000" lon="-6.40844399">
        <ele>511.00000</ele>
      </trkpt>
      <trkpt lat="38.41104200" lon="-6.40840200">
        <ele>510.00000</ele>
      </trkpt>
      <trkpt lat="38.41091800" lon="-6.40835100">
        <ele>509.00000</ele>
      </trkpt>
      <trkpt lat="38.41075200" lon="-6.40827900">
        <ele>508.00000</ele>
      </trkpt>
      <trkpt lat="38.41045200" lon="-6.40814800">
        <ele>507.00000</ele>
      </trkpt>
      <trkpt lat="38.41039500" lon="-6.40812300">
        <ele>507.00000</ele>
      </trkpt>
      <trkpt lat="38.40991400" lon="-6.40791500">
        <ele>508.00000</ele>
      </trkpt>
      <trkpt lat="38.40956700" lon="-6.40776500">
        <ele>510.00000</ele>
      </trkpt>
      <trkpt lat="38.40947700" lon="-6.40772500">
        <ele>510.00000</ele>
      </trkpt>
      <trkpt lat="38.40916000" lon="-6.40759000">
        <ele>509.00000</ele>
      </trkpt>
      <trkpt lat="38.40894700" lon="-6.40750400">
        <ele>508.00000</ele>
      </trkpt>
      <trkpt lat="38.40864800" lon="-6.40737800">
        <ele>508.00000</ele>
      </trkpt>
      <trkpt lat="38.40857200" lon="-6.40734200">
        <ele>508.00000</ele>
      </trkpt>
      <trkpt lat="38.40833700" lon="-6.40724100">
        <ele>511.00000</ele>
      </trkpt>
      <trkpt lat="38.40825700" lon="-6.40720600">
        <ele>512.00000</ele>
      </trkpt>
      <trkpt lat="38.40818300" lon="-6.40717400">
        <ele>512.00000</ele>
      </trkpt>
      <trkpt lat="38.40810700" lon="-6.40714100">
        <ele>512.00000</ele>
      </trkpt>
      <trkpt lat="38.40803100" lon="-6.40711000">
        <ele>512.00000</ele>
      </trkpt>
      <trkpt lat="38.40791600" lon="-6.40706100">
        <ele>512.00000</ele>
      </trkpt>
      <trkpt lat="38.40784100" lon="-6.40703100">
        <ele>513.00000</ele>
      </trkpt>
      <trkpt lat="38.40761400" lon="-6.40693200">
        <ele>514.00000</ele>
      </trkpt>
      <trkpt lat="38.40749700" lon="-6.40689100">
        <ele>514.00000</ele>
      </trkpt>
      <trkpt lat="38.40734900" lon="-6.40681899">
        <ele>514.00000</ele>
      </trkpt>
      <trkpt lat="38.40723000" lon="-6.40676800">
        <ele>514.00000</ele>
      </trkpt>
      <trkpt lat="38.40706700" lon="-6.40670199">
        <ele>513.00000</ele>
      </trkpt>
      <trkpt lat="38.40698400" lon="-6.40667800">
        <ele>513.00000</ele>
      </trkpt>
      <trkpt lat="38.40685600" lon="-6.40664000">
        <ele>513.00000</ele>
      </trkpt>
      <trkpt lat="38.40667000" lon="-6.40659300">
        <ele>512.00000</ele>
      </trkpt>
      <trkpt lat="38.40657500" lon="-6.40656900">
        <ele>511.00000</ele>
      </trkpt>
      <trkpt lat="38.40644100" lon="-6.40653399">
        <ele>511.00000</ele>
      </trkpt>
      <trkpt lat="38.40611600" lon="-6.40645299">
        <ele>509.00000</ele>
      </trkpt>
      <trkpt lat="38.40606900" lon="-6.40644099">
        <ele>509.00000</ele>
      </trkpt>
      <trkpt lat="38.40587900" lon="-6.40639599">
        <ele>508.00000</ele>
      </trkpt>
      <trkpt lat="38.40554400" lon="-6.40631900">
        <ele>510.00000</ele>
      </trkpt>
      <trkpt lat="38.40531000" lon="-6.40625799">
        <ele>511.00000</ele>
      </trkpt>
      <trkpt lat="38.40503400" lon="-6.40616000">
        <ele>511.00000</ele>
      </trkpt>
      <trkpt lat="38.40460000" lon="-6.40595400">
        <ele>511.00000</ele>
      </trkpt>
      <trkpt lat="38.40456100" lon="-6.40593200">
        <ele>512.00000</ele>
      </trkpt>
      <trkpt lat="38.40427500" lon="-6.40576100">
        <ele>513.00000</ele>
      </trkpt>
      <trkpt lat="38.40410700" lon="-6.40564499">
        <ele>513.00000</ele>
      </trkpt>
      <trkpt lat="38.40404400" lon="-6.40559900">
        <ele>513.00000</ele>
      </trkpt>
      <trkpt lat="38.40379900" lon="-6.40543000">
        <ele>514.00000</ele>
      </trkpt>
      <trkpt lat="38.40377000" lon="-6.40541000">
        <ele>514.00000</ele>
      </trkpt>
      <trkpt lat="38.40357300" lon="-6.40527700">
        <ele>514.00000</ele>
      </trkpt>
      <trkpt lat="38.40354400" lon="-6.40526200">
        <ele>514.00000</ele>
      </trkpt>
      <trkpt lat="38.40328700" lon="-6.40508500">
        <ele>515.00000</ele>
      </trkpt>
      <trkpt lat="38.40321600" lon="-6.40503800">
        <ele>515.00000</ele>
      </trkpt>
      <trkpt lat="38.40298500" lon="-6.40487900">
        <ele>514.00000</ele>
      </trkpt>
      <trkpt lat="38.40290700" lon="-6.40482500">
        <ele>514.00000</ele>
      </trkpt>
      <trkpt lat="38.40285800" lon="-6.40478999">
        <ele>514.00000</ele>
      </trkpt>
      <trkpt lat="38.40275900" lon="-6.40471700">
        <ele>514.00000</ele>
      </trkpt>
      <trkpt lat="38.40270700" lon="-6.40468300">
        <ele>514.00000</ele>
      </trkpt>
      <trkpt lat="38.40252900" lon="-6.40456000">
        <ele>514.00000</ele>
      </trkpt>
      <trkpt lat="38.40245500" lon="-6.40451100">
        <ele>514.00000</ele>
      </trkpt>
      <trkpt lat="38.40227200" lon="-6.40437900">
        <ele>515.00000</ele>
      </trkpt>
      <trkpt lat="38.40211600" lon="-6.40426800">
        <ele>514.00000</ele>
      </trkpt>
      <trkpt lat="38.40209200" lon="-6.40424900">
        <ele>514.00000</ele>
      </trkpt>
      <trkpt lat="38.40203000" lon="-6.40420099">
        <ele>514.00000</ele>
      </trkpt>
      <trkpt lat="38.40194700" lon="-6.40414900">
        <ele>514.00000</ele>
      </trkpt>
      <trkpt lat="38.40186600" lon="-6.40409200">
        <ele>514.00000</ele>
      </trkpt>
      <trkpt lat="38.40178500" lon="-6.40403600">
        <ele>514.00000</ele>
      </trkpt>
      <trkpt lat="38.40160600" lon="-6.40391300">
        <ele>515.00000</ele>
      </trkpt>
      <trkpt lat="38.40157400" lon="-6.40388900">
        <ele>515.00000</ele>
      </trkpt>
      <trkpt lat="38.40151000" lon="-6.40384400">
        <ele>516.00000</ele>
      </trkpt>
      <trkpt lat="38.40138300" lon="-6.40374600">
        <ele>517.00000</ele>
      </trkpt>
      <trkpt lat="38.40131700" lon="-6.40369300">
        <ele>517.00000</ele>
      </trkpt>
      <trkpt lat="38.40113600" lon="-6.40354900">
        <ele>518.00000</ele>
      </trkpt>
      <trkpt lat="38.40098800" lon="-6.40342300">
        <ele>519.00000</ele>
      </trkpt>
      <trkpt lat="38.40083700" lon="-6.40329700">
        <ele>519.00000</ele>
      </trkpt>
      <trkpt lat="38.40075000" lon="-6.40321900">
        <ele>519.00000</ele>
      </trkpt>
      <trkpt lat="38.40062900" lon="-6.40311200">
        <ele>519.00000</ele>
      </trkpt>
      <trkpt lat="38.40048700" lon="-6.40299800">
        <ele>518.00000</ele>
      </trkpt>
      <trkpt lat="38.40041200" lon="-6.40293400">
        <ele>517.00000</ele>
      </trkpt>
      <trkpt lat="38.40014800" lon="-6.40274400">
        <ele>516.00000</ele>
      </trkpt>
      <trkpt lat="38.40001500" lon="-6.40267100">
        <ele>515.00000</ele>
      </trkpt>
      <trkpt lat="38.39980800" lon="-6.40255400">
        <ele>515.00000</ele>
      </trkpt>
      <trkpt lat="38.39968500" lon="-6.40247600">
        <ele>515.00000</ele>
      </trkpt>
      <trkpt lat="38.39960100" lon="-6.40243200">
        <ele>515.00000</ele>
      </trkpt>
      <trkpt lat="38.39955900" lon="-6.40241000">
        <ele>515.00000</ele>
      </trkpt>
      <trkpt lat="38.39937400" lon="-6.40230200">
        <ele>514.00000</ele>
      </trkpt>
      <trkpt lat="38.39921100" lon="-6.40222300">
        <ele>514.00000</ele>
      </trkpt>
      <trkpt lat="38.39888500" lon="-6.40208700">
        <ele>513.00000</ele>
      </trkpt>
      <trkpt lat="38.39873400" lon="-6.40204000">
        <ele>513.00000</ele>
      </trkpt>
      <trkpt lat="38.39852900" lon="-6.40195000">
        <ele>513.00000</ele>
      </trkpt>
      <trkpt lat="38.39834100" lon="-6.40177700">
        <ele>513.00000</ele>
      </trkpt>
      <trkpt lat="38.39829000" lon="-6.40158800">
        <ele>514.00000</ele>
      </trkpt>
      <trkpt lat="38.39829100" lon="-6.40153700">
        <ele>514.00000</ele>
      </trkpt>
      <trkpt lat="38.39836100" lon="-6.40118500">
        <ele>516.00000</ele>
      </trkpt>
      <trkpt lat="38.39847400" lon="-6.40066600">
        <ele>520.00000</ele>
      </trkpt>
      <trkpt lat="38.39850400" lon="-6.40053000">
        <ele>520.00000</ele>
      </trkpt>
      <trkpt lat="38.39854300" lon="-6.40030700">
        <ele>520.00000</ele>
      </trkpt>
      <trkpt lat="38.39854700" lon="-6.40026500">
        <ele>520.00000</ele>
      </trkpt>
      <trkpt lat="38.39854700" lon="-6.40002500">
        <ele>520.00000</ele>
      </trkpt>
      <trkpt lat="38.39854400" lon="-6.39995000">
        <ele>520.00000</ele>
      </trkpt>
      <trkpt lat="38.39852600" lon="-6.39962800">
        <ele>521.00000</ele>
      </trkpt>
      <trkpt lat="38.39852200" lon="-6.39955000">
        <ele>521.00000</ele>
      </trkpt>
      <trkpt lat="38.39851000" lon="-6.39942900">
        <ele>522.00000</ele>
      </trkpt>
      <trkpt lat="38.39849800" lon="-6.39931200">
        <ele>522.00000</ele>
      </trkpt>
      <trkpt lat="38.39847200" lon="-6.39911100">
        <ele>523.00000</ele>
      </trkpt>
      <trkpt lat="38.39842800" lon="-6.39887600">
        <ele>524.00000</ele>
      </trkpt>
      <trkpt lat="38.39841700" lon="-6.39883800">
        <ele>524.00000</ele>
      </trkpt>
      <trkpt lat="38.39836000" lon="-6.39869199">
        <ele>524.00000</ele>
      </trkpt>
      <trkpt lat="38.39831800" lon="-6.39858300">
        <ele>525.00000</ele>
      </trkpt>
      <trkpt lat="38.39830400" lon="-6.39854800">
        <ele>525.00000</ele>
      </trkpt>
      <trkpt lat="38.39821100" lon="-6.39834400">
        <ele>525.00000</ele>
      </trkpt>
      <trkpt lat="38.39813200" lon="-6.39814300">
        <ele>526.00000</ele>
      </trkpt>
      <trkpt lat="38.39809400" lon="-6.39803900">
        <ele>526.00000</ele>
      </trkpt>
      <trkpt lat="38.39794100" lon="-6.39788000">
        <ele>526.00000</ele>
      </trkpt>
      <trkpt lat="38.39785900" lon="-6.39783699">
        <ele>526.00000</ele>
      </trkpt>
      <trkpt lat="38.39771500" lon="-6.39776000">
        <ele>526.00000</ele>
      </trkpt>
      <trkpt lat="38.39761800" lon="-6.39768600">
        <ele>526.00000</ele>
      </trkpt>
      <trkpt lat="38.39756400" lon="-6.39763700">
        <ele>526.00000</ele>
      </trkpt>
      <trkpt lat="38.39753400" lon="-6.39761000">
        <ele>526.00000</ele>
      </trkpt>
      <trkpt lat="38.39733400" lon="-6.39741300">
        <ele>526.00000</ele>
      </trkpt>
      <trkpt lat="38.39713400" lon="-6.39723500">
        <ele>526.00000</ele>
      </trkpt>
      <trkpt lat="38.39681300" lon="-6.39697400">
        <ele>526.00000</ele>
      </trkpt>
      <trkpt lat="38.39676100" lon="-6.39695000">
        <ele>526.00000</ele>
      </trkpt>
      <trkpt lat="38.39664100" lon="-6.39692500">
        <ele>526.00000</ele>
      </trkpt>
      <trkpt lat="38.39661000" lon="-6.39692300">
        <ele>526.00000</ele>
      </trkpt>
      <trkpt lat="38.39653200" lon="-6.39692100">
        <ele>526.00000</ele>
      </trkpt>
      <trkpt lat="38.39643500" lon="-6.39692600">
        <ele>526.00000</ele>
      </trkpt>
      <trkpt lat="38.39629500" lon="-6.39693400">
        <ele>526.00000</ele>
      </trkpt>
      <trkpt lat="38.39604400" lon="-6.39685600">
        <ele>528.00000</ele>
      </trkpt>
      <trkpt lat="38.39582500" lon="-6.39672000">
        <ele>528.00000</ele>
      </trkpt>
      <trkpt lat="38.39573200" lon="-6.39666100">
        <ele>528.00000</ele>
      </trkpt>
      <trkpt lat="38.39564400" lon="-6.39661100">
        <ele>528.00000</ele>
      </trkpt>
      <trkpt lat="38.39552200" lon="-6.39653400">
        <ele>527.00000</ele>
      </trkpt>
      <trkpt lat="38.39537000" lon="-6.39643900">
        <ele>527.00000</ele>
      </trkpt>
      <trkpt lat="38.39521400" lon="-6.39635100">
        <ele>527.00000</ele>
      </trkpt>
      <trkpt lat="38.39518000" lon="-6.39632600">
        <ele>527.00000</ele>
      </trkpt>
      <trkpt lat="38.39500200" lon="-6.39621600">
        <ele>528.00000</ele>
      </trkpt>
      <trkpt lat="38.39497700" lon="-6.39619900">
        <ele>528.00000</ele>
      </trkpt>
      <trkpt lat="38.39484400" lon="-6.39611600">
        <ele>528.00000</ele>
      </trkpt>
      <trkpt lat="38.39478700" lon="-6.39608399">
        <ele>528.00000</ele>
      </trkpt>
      <trkpt lat="38.39468500" lon="-6.39602400">
        <ele>528.00000</ele>
      </trkpt>
      <trkpt lat="38.39461100" lon="-6.39600200">
        <ele>528.00000</ele>
      </trkpt>
      <trkpt lat="38.39456800" lon="-6.39600100">
        <ele>528.00000</ele>
      </trkpt>
      <trkpt lat="38.39446800" lon="-6.39601000">
        <ele>528.00000</ele>
      </trkpt>
      <trkpt lat="38.39440900" lon="-6.39598199">
        <ele>528.00000</ele>
      </trkpt>
      <trkpt lat="38.39435200" lon="-6.39585000">
        <ele>527.00000</ele>
      </trkpt>
      <trkpt lat="38.39438800" lon="-6.39562799">
        <ele>527.00000</ele>
      </trkpt>
      <trkpt lat="38.39440100" lon="-6.39555600">
        <ele>526.00000</ele>
      </trkpt>
      <trkpt lat="38.39442000" lon="-6.39540000">
        <ele>526.00000</ele>
      </trkpt>
      <trkpt lat="38.39439900" lon="-6.39522800">
        <ele>526.00000</ele>
      </trkpt>
      <trkpt lat="38.39440700" lon="-6.39519700">
        <ele>526.00000</ele>
      </trkpt>
      <trkpt lat="38.39448500" lon="-6.39502400">
        <ele>526.00000</ele>
      </trkpt>
      <trkpt lat="38.39450600" lon="-6.39496600">
        <ele>527.00000</ele>
      </trkpt>
      <trkpt lat="38.39448900" lon="-6.39495400">
        <ele>527.00000</ele>
      </trkpt>
      <trkpt lat="38.39447600" lon="-6.39501800">
        <ele>526.00000</ele>
      </trkpt>
      <trkpt lat="38.39446500" lon="-6.39503600">
        <ele>526.00000</ele>
      </trkpt>
      <trkpt lat="38.39444300" lon="-6.39507800">
        <ele>526.00000</ele>
      </trkpt>
      <trkpt lat="38.39435200" lon="-6.39525499">
        <ele>526.00000</ele>
      </trkpt>
      <trkpt lat="38.39424000" lon="-6.39533900">
        <ele>526.00000</ele>
      </trkpt>
      <trkpt lat="38.39422300" lon="-6.39534700">
        <ele>526.00000</ele>
      </trkpt>
      <trkpt lat="38.39411000" lon="-6.39536000">
        <ele>526.00000</ele>
      </trkpt>
      <trkpt lat="38.39398000" lon="-6.39535000">
        <ele>526.00000</ele>
      </trkpt>
      <trkpt lat="38.39381500" lon="-6.39533100">
        <ele>526.00000</ele>
      </trkpt>
      <trkpt lat="38.39367900" lon="-6.39529999">
        <ele>526.00000</ele>
      </trkpt>
      <trkpt lat="38.39365700" lon="-6.39529700">
        <ele>526.00000</ele>
      </trkpt>
      <trkpt lat="38.39346800" lon="-6.39525200">
        <ele>527.00000</ele>
      </trkpt>
      <trkpt lat="38.39339800" lon="-6.39524000">
        <ele>527.00000</ele>
      </trkpt>
      <trkpt lat="38.39332600" lon="-6.39523099">
        <ele>528.00000</ele>
      </trkpt>
      <trkpt lat="38.39330100" lon="-6.39522800">
        <ele>528.00000</ele>
      </trkpt>
      <trkpt lat="38.39323000" lon="-6.39521600">
        <ele>528.00000</ele>
      </trkpt>
      <trkpt lat="38.39315500" lon="-6.39521100">
        <ele>528.00000</ele>
      </trkpt>
      <trkpt lat="38.39307800" lon="-6.39520100">
        <ele>529.00000</ele>
      </trkpt>
      <trkpt lat="38.39299700" lon="-6.39518700">
        <ele>529.00000</ele>
      </trkpt>
      <trkpt lat="38.39291600" lon="-6.39517600">
        <ele>530.00000</ele>
      </trkpt>
      <trkpt lat="38.39284300" lon="-6.39516200">
        <ele>530.00000</ele>
      </trkpt>
      <trkpt lat="38.39269200" lon="-6.39513600">
        <ele>531.00000</ele>
      </trkpt>
      <trkpt lat="38.39245900" lon="-6.39510300">
        <ele>531.00000</ele>
      </trkpt>
      <trkpt lat="38.39243000" lon="-6.39509599">
        <ele>531.00000</ele>
      </trkpt>
      <trkpt lat="38.39240400" lon="-6.39509100">
        <ele>531.00000</ele>
      </trkpt>
      <trkpt lat="38.39228100" lon="-6.39506400">
        <ele>531.00000</ele>
      </trkpt>
      <trkpt lat="38.39217800" lon="-6.39505500">
        <ele>530.00000</ele>
      </trkpt>
      <trkpt lat="38.39189500" lon="-6.39500400">
        <ele>530.00000</ele>
      </trkpt>
      <trkpt lat="38.39170600" lon="-6.39497900">
        <ele>529.00000</ele>
      </trkpt>
      <trkpt lat="38.39168000" lon="-6.39497500">
        <ele>529.00000</ele>
      </trkpt>
      <trkpt lat="38.39165500" lon="-6.39497400">
        <ele>530.00000</ele>
      </trkpt>
      <trkpt lat="38.39146600" lon="-6.39494100">
        <ele>530.00000</ele>
      </trkpt>
      <trkpt lat="38.39144100" lon="-6.39493499">
        <ele>530.00000</ele>
      </trkpt>
      <trkpt lat="38.39122800" lon="-6.39490200">
        <ele>530.00000</ele>
      </trkpt>
      <trkpt lat="38.39117100" lon="-6.39489600">
        <ele>530.00000</ele>
      </trkpt>
      <trkpt lat="38.39090900" lon="-6.39485000">
        <ele>531.00000</ele>
      </trkpt>
      <trkpt lat="38.39084800" lon="-6.39484100">
        <ele>531.00000</ele>
      </trkpt>
      <trkpt lat="38.39068600" lon="-6.39481200">
        <ele>531.00000</ele>
      </trkpt>
      <trkpt lat="38.39049100" lon="-6.39478800">
        <ele>531.00000</ele>
      </trkpt>
      <trkpt lat="38.39023600" lon="-6.39474300">
        <ele>531.00000</ele>
      </trkpt>
      <trkpt lat="38.38994800" lon="-6.39469400">
        <ele>531.00000</ele>
      </trkpt>
      <trkpt lat="38.38961200" lon="-6.39462900">
        <ele>531.00000</ele>
      </trkpt>
      <trkpt lat="38.38951100" lon="-6.39461500">
        <ele>531.00000</ele>
      </trkpt>
      <trkpt lat="38.38940700" lon="-6.39460399">
        <ele>531.00000</ele>
      </trkpt>
      <trkpt lat="38.38933400" lon="-6.39458600">
        <ele>531.00000</ele>
      </trkpt>
      <trkpt lat="38.38907900" lon="-6.39454500">
        <ele>531.00000</ele>
      </trkpt>
      <trkpt lat="38.38881100" lon="-6.39445500">
        <ele>530.00000</ele>
      </trkpt>
      <trkpt lat="38.38858000" lon="-6.39438300">
        <ele>529.00000</ele>
      </trkpt>
      <trkpt lat="38.38854100" lon="-6.39437899">
        <ele>529.00000</ele>
      </trkpt>
      <trkpt lat="38.38841800" lon="-6.39442800">
        <ele>529.00000</ele>
      </trkpt>
      <trkpt lat="38.38837300" lon="-6.39444300">
        <ele>529.00000</ele>
      </trkpt>
      <trkpt lat="38.38816300" lon="-6.39440700">
        <ele>528.00000</ele>
      </trkpt>
      <trkpt lat="38.38801300" lon="-6.39438000">
        <ele>527.00000</ele>
      </trkpt>
      <trkpt lat="38.38791600" lon="-6.39436699">
        <ele>527.00000</ele>
      </trkpt>
      <trkpt lat="38.38766600" lon="-6.39434600">
        <ele>528.00000</ele>
      </trkpt>
      <trkpt lat="38.38741800" lon="-6.39431500">
        <ele>529.00000</ele>
      </trkpt>
      <trkpt lat="38.38715300" lon="-6.39426300">
        <ele>531.00000</ele>
      </trkpt>
      <trkpt lat="38.38704300" lon="-6.39425000">
        <ele>532.00000</ele>
      </trkpt>
      <trkpt lat="38.38698900" lon="-6.39424200">
        <ele>532.00000</ele>
      </trkpt>
      <trkpt lat="38.38690800" lon="-6.39422899">
        <ele>533.00000</ele>
      </trkpt>
      <trkpt lat="38.38673100" lon="-6.39420300">
        <ele>533.00000</ele>
      </trkpt>
      <trkpt lat="38.38662800" lon="-6.39419800">
        <ele>532.00000</ele>
      </trkpt>
      <trkpt lat="38.38657700" lon="-6.39419000">
        <ele>532.00000</ele>
      </trkpt>
      <trkpt lat="38.38645500" lon="-6.39417100">
        <ele>532.00000</ele>
      </trkpt>
      <trkpt lat="38.38638000" lon="-6.39416100">
        <ele>533.00000</ele>
      </trkpt>
      <trkpt lat="38.38633100" lon="-6.39415800">
        <ele>533.00000</ele>
      </trkpt>
      <trkpt lat="38.38630700" lon="-6.39415300">
        <ele>533.00000</ele>
      </trkpt>
      <trkpt lat="38.38625800" lon="-6.39415200">
        <ele>533.00000</ele>
      </trkpt>
      <trkpt lat="38.38618500" lon="-6.39414200">
        <ele>534.00000</ele>
      </trkpt>
      <trkpt lat="38.38613300" lon="-6.39413500">
        <ele>534.00000</ele>
      </trkpt>
      <trkpt lat="38.38595300" lon="-6.39412400">
        <ele>535.00000</ele>
      </trkpt>
      <trkpt lat="38.38590100" lon="-6.39411699">
        <ele>535.00000</ele>
      </trkpt>
      <trkpt lat="38.38587500" lon="-6.39411400">
        <ele>535.00000</ele>
      </trkpt>
      <trkpt lat="38.38580200" lon="-6.39410100">
        <ele>535.00000</ele>
      </trkpt>
      <trkpt lat="38.38570700" lon="-6.39408300">
        <ele>535.00000</ele>
      </trkpt>
      <trkpt lat="38.38566200" lon="-6.39407400">
        <ele>536.00000</ele>
      </trkpt>
      <trkpt lat="38.38558200" lon="-6.39404200">
        <ele>536.00000</ele>
      </trkpt>
      <trkpt lat="38.38555900" lon="-6.39403699">
        <ele>536.00000</ele>
      </trkpt>
      <trkpt lat="38.38553700" lon="-6.39403400">
        <ele>536.00000</ele>
      </trkpt>
      <trkpt lat="38.38541400" lon="-6.39401200">
        <ele>536.00000</ele>
      </trkpt>
      <trkpt lat="38.38531700" lon="-6.39400900">
        <ele>536.00000</ele>
      </trkpt>
      <trkpt lat="38.38529400" lon="-6.39400299">
        <ele>536.00000</ele>
      </trkpt>
      <trkpt lat="38.38524900" lon="-6.39398700">
        <ele>537.00000</ele>
      </trkpt>
      <trkpt lat="38.38520300" lon="-6.39397700">
        <ele>537.00000</ele>
      </trkpt>
      <trkpt lat="38.38517900" lon="-6.39396900">
        <ele>537.00000</ele>
      </trkpt>
      <trkpt lat="38.38511000" lon="-6.39395900">
        <ele>537.00000</ele>
      </trkpt>
      <trkpt lat="38.38506200" lon="-6.39395200">
        <ele>537.00000</ele>
      </trkpt>
      <trkpt lat="38.38487400" lon="-6.39392800">
        <ele>536.00000</ele>
      </trkpt>
      <trkpt lat="38.38482700" lon="-6.39392299">
        <ele>536.00000</ele>
      </trkpt>
      <trkpt lat="38.38478000" lon="-6.39391400">
        <ele>536.00000</ele>
      </trkpt>
      <trkpt lat="38.38469200" lon="-6.39389400">
        <ele>537.00000</ele>
      </trkpt>
      <trkpt lat="38.38461000" lon="-6.39390000">
        <ele>537.00000</ele>
      </trkpt>
      <trkpt lat="38.38455800" lon="-6.39389700">
        <ele>537.00000</ele>
      </trkpt>
      <trkpt lat="38.38445500" lon="-6.39388800">
        <ele>537.00000</ele>
      </trkpt>
      <trkpt lat="38.38443000" lon="-6.39388699">
        <ele>538.00000</ele>
      </trkpt>
      <trkpt lat="38.38423600" lon="-6.39388899">
        <ele>537.00000</ele>
      </trkpt>
      <trkpt lat="38.38416300" lon="-6.39390099">
        <ele>537.00000</ele>
      </trkpt>
      <trkpt lat="38.38399900" lon="-6.39394200">
        <ele>537.00000</ele>
      </trkpt>
      <trkpt lat="38.38386400" lon="-6.39395200">
        <ele>537.00000</ele>
      </trkpt>
      <trkpt lat="38.38372900" lon="-6.39397999">
        <ele>536.00000</ele>
      </trkpt>
      <trkpt lat="38.38354500" lon="-6.39399199">
        <ele>536.00000</ele>
      </trkpt>
      <trkpt lat="38.38351800" lon="-6.39399400">
        <ele>536.00000</ele>
      </trkpt>
      <trkpt lat="38.38347800" lon="-6.39401299">
        <ele>536.00000</ele>
      </trkpt>
      <trkpt lat="38.38346900" lon="-6.39403699">
        <ele>536.00000</ele>
      </trkpt>
      <trkpt lat="38.38351100" lon="-6.39413300">
        <ele>536.00000</ele>
      </trkpt>
      <trkpt lat="38.38362800" lon="-6.39424600">
        <ele>535.00000</ele>
      </trkpt>
      <trkpt lat="38.38357600" lon="-6.39418500">
        <ele>535.00000</ele>
      </trkpt>
      <trkpt lat="38.38356600" lon="-6.39417399">
        <ele>535.00000</ele>
      </trkpt>
      <trkpt lat="38.38354500" lon="-6.39415600">
        <ele>536.00000</ele>
      </trkpt>
      <trkpt lat="38.38352600" lon="-6.39414000">
        <ele>536.00000</ele>
      </trkpt>
      <trkpt lat="38.38348500" lon="-6.39409200">
        <ele>536.00000</ele>
      </trkpt>
      <trkpt lat="38.38337300" lon="-6.39401900">
        <ele>536.00000</ele>
      </trkpt>
      <trkpt lat="38.38314900" lon="-6.39389500">
        <ele>536.00000</ele>
      </trkpt>
      <trkpt lat="38.38299000" lon="-6.39379500">
        <ele>537.00000</ele>
      </trkpt>
      <trkpt lat="38.38289900" lon="-6.39373400">
        <ele>537.00000</ele>
      </trkpt>
      <trkpt lat="38.38270600" lon="-6.39360800">
        <ele>536.00000</ele>
      </trkpt>
      <trkpt lat="38.38267700" lon="-6.39359199">
        <ele>536.00000</ele>
      </trkpt>
      <trkpt lat="38.38259300" lon="-6.39354400">
        <ele>536.00000</ele>
      </trkpt>
      <trkpt lat="38.38253300" lon="-6.39351000">
        <ele>536.00000</ele>
      </trkpt>
      <trkpt lat="38.38244000" lon="-6.39345400">
        <ele>536.00000</ele>
      </trkpt>
      <trkpt lat="38.38227500" lon="-6.39337500">
        <ele>537.00000</ele>
      </trkpt>
      <trkpt lat="38.38217100" lon="-6.39332300">
        <ele>538.00000</ele>
      </trkpt>
      <trkpt lat="38.38210900" lon="-6.39328800">
        <ele>538.00000</ele>
      </trkpt>
      <trkpt lat="38.38200100" lon="-6.39322800">
        <ele>538.00000</ele>
      </trkpt>
      <trkpt lat="38.38194600" lon="-6.39319599">
        <ele>538.00000</ele>
      </trkpt>
      <trkpt lat="38.38185000" lon="-6.39315400">
        <ele>538.00000</ele>
      </trkpt>
      <trkpt lat="38.38176900" lon="-6.39311100">
        <ele>538.00000</ele>
      </trkpt>
      <trkpt lat="38.38173400" lon="-6.39309400">
        <ele>538.00000</ele>
      </trkpt>
      <trkpt lat="38.38151800" lon="-6.39297300">
        <ele>540.00000</ele>
      </trkpt>
      <trkpt lat="38.38146000" lon="-6.39293199">
        <ele>540.00000</ele>
      </trkpt>
      <trkpt lat="38.38125600" lon="-6.39270600">
        <ele>539.00000</ele>
      </trkpt>
      <trkpt lat="38.38117100" lon="-6.39257799">
        <ele>539.00000</ele>
      </trkpt>
      <trkpt lat="38.38109700" lon="-6.39246800">
        <ele>538.00000</ele>
      </trkpt>
      <trkpt lat="38.38085000" lon="-6.39214300">
        <ele>539.00000</ele>
      </trkpt>
      <trkpt lat="38.38052900" lon="-6.39175500">
        <ele>538.00000</ele>
      </trkpt>
      <trkpt lat="38.38027800" lon="-6.39146100">
        <ele>538.00000</ele>
      </trkpt>
      <trkpt lat="38.38024600" lon="-6.39142600">
        <ele>537.00000</ele>
      </trkpt>
      <trkpt lat="38.37990100" lon="-6.39104200">
        <ele>537.00000</ele>
      </trkpt>
      <trkpt lat="38.37977200" lon="-6.39090100">
        <ele>537.00000</ele>
      </trkpt>
      <trkpt lat="38.37957900" lon="-6.39068700">
        <ele>535.00000</ele>
      </trkpt>
      <trkpt lat="38.37954100" lon="-6.39064300">
        <ele>535.00000</ele>
      </trkpt>
      <trkpt lat="38.37942100" lon="-6.39050400">
        <ele>534.00000</ele>
      </trkpt>
      <trkpt lat="38.37926300" lon="-6.39032599">
        <ele>534.00000</ele>
      </trkpt>
      <trkpt lat="38.37916600" lon="-6.39021000">
        <ele>533.00000</ele>
      </trkpt>
      <trkpt lat="38.37895500" lon="-6.38996600">
        <ele>534.00000</ele>
      </trkpt>
      <trkpt lat="38.37869400" lon="-6.38968400">
        <ele>535.00000</ele>
      </trkpt>
      <trkpt lat="38.37865800" lon="-6.38964300">
        <ele>535.00000</ele>
      </trkpt>
      <trkpt lat="38.37854800" lon="-6.38952200">
        <ele>536.00000</ele>
      </trkpt>
      <trkpt lat="38.37832500" lon="-6.38929000">
        <ele>535.00000</ele>
      </trkpt>
      <trkpt lat="38.37816700" lon="-6.38912700">
        <ele>535.00000</ele>
      </trkpt>
      <trkpt lat="38.37796800" lon="-6.38892500">
        <ele>534.00000</ele>
      </trkpt>
      <trkpt lat="38.37792600" lon="-6.38888300">
        <ele>534.00000</ele>
      </trkpt>
      <trkpt lat="38.37780000" lon="-6.38876400">
        <ele>534.00000</ele>
      </trkpt>
      <trkpt lat="38.37776000" lon="-6.38872299">
        <ele>534.00000</ele>
      </trkpt>
      <trkpt lat="38.37767900" lon="-6.38864100">
        <ele>534.00000</ele>
      </trkpt>
      <trkpt lat="38.37764200" lon="-6.38860100">
        <ele>534.00000</ele>
      </trkpt>
      <trkpt lat="38.37760400" lon="-6.38855600">
        <ele>534.00000</ele>
      </trkpt>
      <trkpt lat="38.37744300" lon="-6.38839100">
        <ele>533.00000</ele>
      </trkpt>
      <trkpt lat="38.37706200" lon="-6.38804500">
        <ele>531.00000</ele>
      </trkpt>
      <trkpt lat="38.37682000" lon="-6.38782400">
        <ele>531.00000</ele>
      </trkpt>
      <trkpt lat="38.37670900" lon="-6.38771200">
        <ele>532.00000</ele>
      </trkpt>
      <trkpt lat="38.37659800" lon="-6.38760500">
        <ele>532.00000</ele>
      </trkpt>
      <trkpt lat="38.37649300" lon="-6.38750300">
        <ele>532.00000</ele>
      </trkpt>
      <trkpt lat="38.37638700" lon="-6.38740400">
        <ele>532.00000</ele>
      </trkpt>
      <trkpt lat="38.37616300" lon="-6.38717399">
        <ele>532.00000</ele>
      </trkpt>
      <trkpt lat="38.37594600" lon="-6.38689300">
        <ele>532.00000</ele>
      </trkpt>
      <trkpt lat="38.37569000" lon="-6.38653900">
        <ele>532.00000</ele>
      </trkpt>
      <trkpt lat="38.37563300" lon="-6.38646700">
        <ele>532.00000</ele>
      </trkpt>
      <trkpt lat="38.37547600" lon="-6.38625300">
        <ele>531.00000</ele>
      </trkpt>
      <trkpt lat="38.37526000" lon="-6.38595200">
        <ele>530.00000</ele>
      </trkpt>
      <trkpt lat="38.37512900" lon="-6.38577499">
        <ele>530.00000</ele>
      </trkpt>
      <trkpt lat="38.37505900" lon="-6.38567400">
        <ele>530.00000</ele>
      </trkpt>
      <trkpt lat="38.37496400" lon="-6.38554300">
        <ele>531.00000</ele>
      </trkpt>
      <trkpt lat="38.37484800" lon="-6.38538799">
        <ele>531.00000</ele>
      </trkpt>
      <trkpt lat="38.37482300" lon="-6.38535700">
        <ele>531.00000</ele>
      </trkpt>
      <trkpt lat="38.37469500" lon="-6.38520600">
        <ele>532.00000</ele>
      </trkpt>
      <trkpt lat="38.37459100" lon="-6.38505900">
        <ele>533.00000</ele>
      </trkpt>
      <trkpt lat="38.37457100" lon="-6.38503100">
        <ele>533.00000</ele>
      </trkpt>
      <trkpt lat="38.37445700" lon="-6.38486600">
        <ele>534.00000</ele>
      </trkpt>
      <trkpt lat="38.37437500" lon="-6.38472500">
        <ele>534.00000</ele>
      </trkpt>
      <trkpt lat="38.37435700" lon="-6.38469700">
        <ele>535.00000</ele>
      </trkpt>
      <trkpt lat="38.37430500" lon="-6.38461100">
        <ele>535.00000</ele>
      </trkpt>
      <trkpt lat="38.37427600" lon="-6.38455100">
        <ele>535.00000</ele>
      </trkpt>
      <trkpt lat="38.37424600" lon="-6.38449100">
        <ele>535.00000</ele>
      </trkpt>
      <trkpt lat="38.37422000" lon="-6.38443099">
        <ele>535.00000</ele>
      </trkpt>
      <trkpt lat="38.37420400" lon="-6.38440200">
        <ele>535.00000</ele>
      </trkpt>
      <trkpt lat="38.37415600" lon="-6.38431200">
        <ele>535.00000</ele>
      </trkpt>
      <trkpt lat="38.37412400" lon="-6.38425500">
        <ele>535.00000</ele>
      </trkpt>
      <trkpt lat="38.37411100" lon="-6.38422400">
        <ele>535.00000</ele>
      </trkpt>
      <trkpt lat="38.37407200" lon="-6.38412800">
        <ele>535.00000</ele>
      </trkpt>
      <trkpt lat="38.37402700" lon="-6.38404100">
        <ele>535.00000</ele>
      </trkpt>
      <trkpt lat="38.37399500" lon="-6.38397900">
        <ele>536.00000</ele>
      </trkpt>
      <trkpt lat="38.37396100" lon="-6.38391700">
        <ele>536.00000</ele>
      </trkpt>
      <trkpt lat="38.37389500" lon="-6.38379399">
        <ele>536.00000</ele>
      </trkpt>
      <trkpt lat="38.37382700" lon="-6.38367300">
        <ele>537.00000</ele>
      </trkpt>
      <trkpt lat="38.37374400" lon="-6.38353900">
        <ele>538.00000</ele>
      </trkpt>
      <trkpt lat="38.37369500" lon="-6.38345700">
        <ele>539.00000</ele>
      </trkpt>
      <trkpt lat="38.37355100" lon="-6.38324000">
        <ele>540.00000</ele>
      </trkpt>
      <trkpt lat="38.37349700" lon="-6.38315100">
        <ele>540.00000</ele>
      </trkpt>
      <trkpt lat="38.37339800" lon="-6.38300300">
        <ele>541.00000</ele>
      </trkpt>
      <trkpt lat="38.37336000" lon="-6.38294300">
        <ele>541.00000</ele>
      </trkpt>
      <trkpt lat="38.37334100" lon="-6.38291600">
        <ele>541.00000</ele>
      </trkpt>
      <trkpt lat="38.37329900" lon="-6.38285400">
        <ele>542.00000</ele>
      </trkpt>
      <trkpt lat="38.37320200" lon="-6.38272499">
        <ele>542.00000</ele>
      </trkpt>
      <trkpt lat="38.37314900" lon="-6.38266100">
        <ele>541.00000</ele>
      </trkpt>
      <trkpt lat="38.37312300" lon="-6.38262900">
        <ele>541.00000</ele>
      </trkpt>
      <trkpt lat="38.37306700" lon="-6.38257000">
        <ele>541.00000</ele>
      </trkpt>
      <trkpt lat="38.37300900" lon="-6.38251400">
        <ele>540.00000</ele>
      </trkpt>
      <trkpt lat="38.37288500" lon="-6.38240500">
        <ele>540.00000</ele>
      </trkpt>
      <trkpt lat="38.37285200" lon="-6.38237800">
        <ele>539.00000</ele>
      </trkpt>
      <trkpt lat="38.37282000" lon="-6.38235100">
        <ele>539.00000</ele>
      </trkpt>
      <trkpt lat="38.37278600" lon="-6.38232599">
        <ele>539.00000</ele>
      </trkpt>
      <trkpt lat="38.37260700" lon="-6.38218999">
        <ele>540.00000</ele>
      </trkpt>
      <trkpt lat="38.37245000" lon="-6.38207800">
        <ele>540.00000</ele>
      </trkpt>
      <trkpt lat="38.37226100" lon="-6.38195700">
        <ele>539.00000</ele>
      </trkpt>
      <trkpt lat="38.37214400" lon="-6.38188300">
        <ele>539.00000</ele>
      </trkpt>
      <trkpt lat="38.37185700" lon="-6.38168600">
        <ele>538.00000</ele>
      </trkpt>
      <trkpt lat="38.37151100" lon="-6.38145200">
        <ele>536.00000</ele>
      </trkpt>
      <trkpt lat="38.37127300" lon="-6.38126899">
        <ele>535.00000</ele>
      </trkpt>
      <trkpt lat="38.37118600" lon="-6.38119400">
        <ele>535.00000</ele>
      </trkpt>
      <trkpt lat="38.37110700" lon="-6.38112700">
        <ele>535.00000</ele>
      </trkpt>
      <trkpt lat="38.37091500" lon="-6.38097300">
        <ele>536.00000</ele>
      </trkpt>
      <trkpt lat="38.37080100" lon="-6.38088600">
        <ele>536.00000</ele>
      </trkpt>
      <trkpt lat="38.37047900" lon="-6.38061400">
        <ele>538.00000</ele>
      </trkpt>
      <trkpt lat="38.37030900" lon="-6.38046700">
        <ele>538.00000</ele>
      </trkpt>
      <trkpt lat="38.37006900" lon="-6.38028100">
        <ele>539.00000</ele>
      </trkpt>
      <trkpt lat="38.36988700" lon="-6.38014000">
        <ele>539.00000</ele>
      </trkpt>
      <trkpt lat="38.36983600" lon="-6.38009600">
        <ele>539.00000</ele>
      </trkpt>
      <trkpt lat="38.36974500" lon="-6.38004100">
        <ele>539.00000</ele>
      </trkpt>
      <trkpt lat="38.36960800" lon="-6.37994400">
        <ele>538.00000</ele>
      </trkpt>
      <trkpt lat="38.36957100" lon="-6.37992000">
        <ele>538.00000</ele>
      </trkpt>
      <trkpt lat="38.36945500" lon="-6.37984300">
        <ele>538.00000</ele>
      </trkpt>
      <trkpt lat="38.36937900" lon="-6.37977100">
        <ele>537.00000</ele>
      </trkpt>
      <trkpt lat="38.36933900" lon="-6.37974199">
        <ele>537.00000</ele>
      </trkpt>
      <trkpt lat="38.36906100" lon="-6.37954500">
        <ele>535.00000</ele>
      </trkpt>
      <trkpt lat="38.36902200" lon="-6.37951599">
        <ele>535.00000</ele>
      </trkpt>
      <trkpt lat="38.36877000" lon="-6.37933400">
        <ele>533.00000</ele>
      </trkpt>
      <trkpt lat="38.36872300" lon="-6.37929900">
        <ele>533.00000</ele>
      </trkpt>
      <trkpt lat="38.36848500" lon="-6.37911699">
        <ele>533.00000</ele>
      </trkpt>
      <trkpt lat="38.36839200" lon="-6.37903800">
        <ele>533.00000</ele>
      </trkpt>
      <trkpt lat="38.36813000" lon="-6.37882100">
        <ele>531.00000</ele>
      </trkpt>
      <trkpt lat="38.36804700" lon="-6.37874199">
        <ele>531.00000</ele>
      </trkpt>
      <trkpt lat="38.36800600" lon="-6.37870799">
        <ele>531.00000</ele>
      </trkpt>
      <trkpt lat="38.36785200" lon="-6.37857500">
        <ele>531.00000</ele>
      </trkpt>
      <trkpt lat="38.36781800" lon="-6.37853699">
        <ele>531.00000</ele>
      </trkpt>
      <trkpt lat="38.36767300" lon="-6.37839999">
        <ele>532.00000</ele>
      </trkpt>
      <trkpt lat="38.36755800" lon="-6.37829000">
        <ele>532.00000</ele>
      </trkpt>
      <trkpt lat="38.36719900" lon="-6.37794700">
        <ele>531.00000</ele>
      </trkpt>
      <trkpt lat="38.36707900" lon="-6.37783100">
        <ele>531.00000</ele>
      </trkpt>
      <trkpt lat="38.36704000" lon="-6.37779400">
        <ele>531.00000</ele>
      </trkpt>
      <trkpt lat="38.36668600" lon="-6.37743900">
        <ele>531.00000</ele>
      </trkpt>
      <trkpt lat="38.36657200" lon="-6.37732300">
        <ele>531.00000</ele>
      </trkpt>
      <trkpt lat="38.36643000" lon="-6.37715899">
        <ele>530.00000</ele>
      </trkpt>
      <trkpt lat="38.36639600" lon="-6.37711500">
        <ele>530.00000</ele>
      </trkpt>
      <trkpt lat="38.36624000" lon="-6.37687700">
        <ele>530.00000</ele>
      </trkpt>
      <trkpt lat="38.36618900" lon="-6.37678200">
        <ele>530.00000</ele>
      </trkpt>
      <trkpt lat="38.36612300" lon="-6.37665600">
        <ele>529.00000</ele>
      </trkpt>
      <trkpt lat="38.36599600" lon="-6.37641600">
        <ele>530.00000</ele>
      </trkpt>
      <trkpt lat="38.36592200" lon="-6.37627200">
        <ele>530.00000</ele>
      </trkpt>
      <trkpt lat="38.36586600" lon="-6.37615900">
        <ele>530.00000</ele>
      </trkpt>
      <trkpt lat="38.36572700" lon="-6.37591800">
        <ele>529.00000</ele>
      </trkpt>
      <trkpt lat="38.36566800" lon="-6.37581900">
        <ele>529.00000</ele>
      </trkpt>
      <trkpt lat="38.36546300" lon="-6.37554000">
        <ele>529.00000</ele>
      </trkpt>
      <trkpt lat="38.36539300" lon="-6.37544199">
        <ele>529.00000</ele>
      </trkpt>
      <trkpt lat="38.36526200" lon="-6.37526200">
        <ele>528.00000</ele>
      </trkpt>
      <trkpt lat="38.36516300" lon="-6.37515699">
        <ele>528.00000</ele>
      </trkpt>
      <trkpt lat="38.36510400" lon="-6.37508500">
        <ele>527.00000</ele>
      </trkpt>
      <trkpt lat="38.36497400" lon="-6.37491699">
        <ele>527.00000</ele>
      </trkpt>
      <trkpt lat="38.36476300" lon="-6.37465300">
        <ele>526.00000</ele>
      </trkpt>
      <trkpt lat="38.36473200" lon="-6.37460700">
        <ele>526.00000</ele>
      </trkpt>
      <trkpt lat="38.36459600" lon="-6.37443200">
        <ele>526.00000</ele>
      </trkpt>
      <trkpt lat="38.36443600" lon="-6.37420500">
        <ele>526.00000</ele>
      </trkpt>
      <trkpt lat="38.36427600" lon="-6.37397700">
        <ele>526.00000</ele>
      </trkpt>
      <trkpt lat="38.36415600" lon="-6.37378700">
        <ele>526.00000</ele>
      </trkpt>
      <trkpt lat="38.36412700" lon="-6.37373800">
        <ele>526.00000</ele>
      </trkpt>
      <trkpt lat="38.36395300" lon="-6.37346200">
        <ele>526.00000</ele>
      </trkpt>
      <trkpt lat="38.36383200" lon="-6.37327799">
        <ele>526.00000</ele>
      </trkpt>
      <trkpt lat="38.36352400" lon="-6.37281700">
        <ele>526.00000</ele>
      </trkpt>
      <trkpt lat="38.36343900" lon="-6.37266700">
        <ele>525.00000</ele>
      </trkpt>
      <trkpt lat="38.36334100" lon="-6.37245600">
        <ele>523.00000</ele>
      </trkpt>
      <trkpt lat="38.36323800" lon="-6.37216399">
        <ele>523.00000</ele>
      </trkpt>
      <trkpt lat="38.36320500" lon="-6.37203700">
        <ele>523.00000</ele>
      </trkpt>
      <trkpt lat="38.36319000" lon="-6.37197200">
        <ele>523.00000</ele>
      </trkpt>
      <trkpt lat="38.36314100" lon="-6.37179200">
        <ele>522.00000</ele>
      </trkpt>
      <trkpt lat="38.36306900" lon="-6.37159500">
        <ele>522.00000</ele>
      </trkpt>
      <trkpt lat="38.36304200" lon="-6.37153900">
        <ele>522.00000</ele>
      </trkpt>
      <trkpt lat="38.36294500" lon="-6.37138500">
        <ele>522.00000</ele>
      </trkpt>
      <trkpt lat="38.36283100" lon="-6.37124300">
        <ele>522.00000</ele>
      </trkpt>
      <trkpt lat="38.36263100" lon="-6.37101100">
        <ele>523.00000</ele>
      </trkpt>
      <trkpt lat="38.36259300" lon="-6.37096699">
        <ele>522.00000</ele>
      </trkpt>
      <trkpt lat="38.36240900" lon="-6.37076400">
        <ele>522.00000</ele>
      </trkpt>
      <trkpt lat="38.36211300" lon="-6.37043199">
        <ele>521.00000</ele>
      </trkpt>
      <trkpt lat="38.36207800" lon="-6.37038300">
        <ele>521.00000</ele>
      </trkpt>
      <trkpt lat="38.36192900" lon="-6.37012400">
        <ele>520.00000</ele>
      </trkpt>
      <trkpt lat="38.36190500" lon="-6.37006700">
        <ele>520.00000</ele>
      </trkpt>
      <trkpt lat="38.36185400" lon="-6.36995600">
        <ele>520.00000</ele>
      </trkpt>
      <trkpt lat="38.36180800" lon="-6.36984500">
        <ele>521.00000</ele>
      </trkpt>
      <trkpt lat="38.36174900" lon="-6.36966800">
        <ele>521.00000</ele>
      </trkpt>
      <trkpt lat="38.36172600" lon="-6.36961299">
        <ele>521.00000</ele>
      </trkpt>
      <trkpt lat="38.36161100" lon="-6.36939600">
        <ele>521.00000</ele>
      </trkpt>
      <trkpt lat="38.36147700" lon="-6.36919199">
        <ele>521.00000</ele>
      </trkpt>
      <trkpt lat="38.36144300" lon="-6.36914200">
        <ele>521.00000</ele>
      </trkpt>
      <trkpt lat="38.36137400" lon="-6.36904499">
        <ele>521.00000</ele>
      </trkpt>
      <trkpt lat="38.36133700" lon="-6.36899999">
        <ele>521.00000</ele>
      </trkpt>
      <trkpt lat="38.36123400" lon="-6.36886100">
        <ele>520.00000</ele>
      </trkpt>
      <trkpt lat="38.36113300" lon="-6.36872500">
        <ele>520.00000</ele>
      </trkpt>
      <trkpt lat="38.36093600" lon="-6.36843900">
        <ele>520.00000</ele>
      </trkpt>
      <trkpt lat="38.36077200" lon="-6.36818600">
        <ele>520.00000</ele>
      </trkpt>
      <trkpt lat="38.36045600" lon="-6.36766800">
        <ele>519.00000</ele>
      </trkpt>
      <trkpt lat="38.36036300" lon="-6.36747100">
        <ele>518.00000</ele>
      </trkpt>
      <trkpt lat="38.36034300" lon="-6.36741700">
        <ele>518.00000</ele>
      </trkpt>
      <trkpt lat="38.36032300" lon="-6.36736300">
        <ele>518.00000</ele>
      </trkpt>
      <trkpt lat="38.36024200" lon="-6.36722800">
        <ele>518.00000</ele>
      </trkpt>
      <trkpt lat="38.36021200" lon="-6.36718400">
        <ele>518.00000</ele>
      </trkpt>
      <trkpt lat="38.36007500" lon="-6.36700900">
        <ele>518.00000</ele>
      </trkpt>
      <trkpt lat="38.35993100" lon="-6.36682900">
        <ele>518.00000</ele>
      </trkpt>
      <trkpt lat="38.35986700" lon="-6.36672700">
        <ele>519.00000</ele>
      </trkpt>
      <trkpt lat="38.35984000" lon="-6.36667400">
        <ele>519.00000</ele>
      </trkpt>
      <trkpt lat="38.35972600" lon="-6.36639199">
        <ele>518.00000</ele>
      </trkpt>
      <trkpt lat="38.35957000" lon="-6.36597700">
        <ele>518.00000</ele>
      </trkpt>
      <trkpt lat="38.35950500" lon="-6.36579400">
        <ele>517.00000</ele>
      </trkpt>
      <trkpt lat="38.35943900" lon="-6.36561500">
        <ele>517.00000</ele>
      </trkpt>
      <trkpt lat="38.35926700" lon="-6.36520300">
        <ele>515.00000</ele>
      </trkpt>
      <trkpt lat="38.35901200" lon="-6.36463000">
        <ele>515.00000</ele>
      </trkpt>
      <trkpt lat="38.35898700" lon="-6.36457000">
        <ele>515.00000</ele>
      </trkpt>
      <trkpt lat="38.35879000" lon="-6.36406500">
        <ele>513.00000</ele>
      </trkpt>
      <trkpt lat="38.35877000" lon="-6.36401100">
        <ele>513.00000</ele>
      </trkpt>
      <trkpt lat="38.35865900" lon="-6.36374600">
        <ele>514.00000</ele>
      </trkpt>
      <trkpt lat="38.35858800" lon="-6.36359700">
        <ele>515.00000</ele>
      </trkpt>
      <trkpt lat="38.35848100" lon="-6.36339700">
        <ele>515.00000</ele>
      </trkpt>
      <trkpt lat="38.35837200" lon="-6.36318900">
        <ele>514.00000</ele>
      </trkpt>
      <trkpt lat="38.35834500" lon="-6.36313900">
        <ele>514.00000</ele>
      </trkpt>
      <trkpt lat="38.35814400" lon="-6.36278700">
        <ele>513.00000</ele>
      </trkpt>
      <trkpt lat="38.35799500" lon="-6.36252700">
        <ele>512.00000</ele>
      </trkpt>
      <trkpt lat="38.35785300" lon="-6.36227000">
        <ele>512.00000</ele>
      </trkpt>
      <trkpt lat="38.35765800" lon="-6.36192000">
        <ele>512.00000</ele>
      </trkpt>
      <trkpt lat="38.35758100" lon="-6.36177000">
        <ele>512.00000</ele>
      </trkpt>
      <trkpt lat="38.35739200" lon="-6.36144700">
        <ele>513.00000</ele>
      </trkpt>
      <trkpt lat="38.35733600" lon="-6.36135800">
        <ele>513.00000</ele>
      </trkpt>
      <trkpt lat="38.35730600" lon="-6.36131600">
        <ele>513.00000</ele>
      </trkpt>
      <trkpt lat="38.35724400" lon="-6.36123800">
        <ele>513.00000</ele>
      </trkpt>
      <trkpt lat="38.35718900" lon="-6.36115200">
        <ele>514.00000</ele>
      </trkpt>
      <trkpt lat="38.35713600" lon="-6.36106899">
        <ele>514.00000</ele>
      </trkpt>
      <trkpt lat="38.35697300" lon="-6.36080900">
        <ele>513.00000</ele>
      </trkpt>
      <trkpt lat="38.35689300" lon="-6.36068200">
        <ele>513.00000</ele>
      </trkpt>
      <trkpt lat="38.35678100" lon="-6.36052199">
        <ele>512.00000</ele>
      </trkpt>
      <trkpt lat="38.35675100" lon="-6.36048699">
        <ele>512.00000</ele>
      </trkpt>
      <trkpt lat="38.35668300" lon="-6.36039399">
        <ele>512.00000</ele>
      </trkpt>
      <trkpt lat="38.35665100" lon="-6.36034500">
        <ele>513.00000</ele>
      </trkpt>
      <trkpt lat="38.35662500" lon="-6.36030200">
        <ele>513.00000</ele>
      </trkpt>
      <trkpt lat="38.35661200" lon="-6.36028199">
        <ele>513.00000</ele>
      </trkpt>
      <trkpt lat="38.35655800" lon="-6.36024300">
        <ele>512.00000</ele>
      </trkpt>
      <trkpt lat="38.35652600" lon="-6.36020700">
        <ele>512.00000</ele>
      </trkpt>
      <trkpt lat="38.35641700" lon="-6.36005100">
        <ele>512.00000</ele>
      </trkpt>
      <trkpt lat="38.35632500" lon="-6.35990200">
        <ele>511.00000</ele>
      </trkpt>
      <trkpt lat="38.35629100" lon="-6.35984500">
        <ele>511.00000</ele>
      </trkpt>
      <trkpt lat="38.35617300" lon="-6.35963500">
        <ele>510.00000</ele>
      </trkpt>
      <trkpt lat="38.35603100" lon="-6.35937400">
        <ele>510.00000</ele>
      </trkpt>
      <trkpt lat="38.35581700" lon="-6.35905800">
        <ele>509.00000</ele>
      </trkpt>
      <trkpt lat="38.35563600" lon="-6.35884500">
        <ele>510.00000</ele>
      </trkpt>
      <trkpt lat="38.35554000" lon="-6.35874300">
        <ele>510.00000</ele>
      </trkpt>
      <trkpt lat="38.35540200" lon="-6.35862300">
        <ele>511.00000</ele>
      </trkpt>
      <trkpt lat="38.35529000" lon="-6.35852899">
        <ele>511.00000</ele>
      </trkpt>
      <trkpt lat="38.35516900" lon="-6.35843600">
        <ele>511.00000</ele>
      </trkpt>
      <trkpt lat="38.35479100" lon="-6.35820400">
        <ele>509.00000</ele>
      </trkpt>
      <trkpt lat="38.35439700" lon="-6.35800800">
        <ele>506.00000</ele>
      </trkpt>
      <trkpt lat="38.35417400" lon="-6.35787500">
        <ele>507.00000</ele>
      </trkpt>
      <trkpt lat="38.35400900" lon="-6.35775900">
        <ele>507.00000</ele>
      </trkpt>
      <trkpt lat="38.35397700" lon="-6.35773500">
        <ele>507.00000</ele>
      </trkpt>
      <trkpt lat="38.35392800" lon="-6.35770100">
        <ele>507.00000</ele>
      </trkpt>
      <trkpt lat="38.35357100" lon="-6.35746900">
        <ele>509.00000</ele>
      </trkpt>
      <trkpt lat="38.35346200" lon="-6.35739199">
        <ele>509.00000</ele>
      </trkpt>
      <trkpt lat="38.35337100" lon="-6.35733800">
        <ele>509.00000</ele>
      </trkpt>
      <trkpt lat="38.35335400" lon="-6.35732100">
        <ele>509.00000</ele>
      </trkpt>
      <trkpt lat="38.35318600" lon="-6.35720100">
        <ele>508.00000</ele>
      </trkpt>
      <trkpt lat="38.35295400" lon="-6.35702700">
        <ele>507.00000</ele>
      </trkpt>
      <trkpt lat="38.35273600" lon="-6.35686000">
        <ele>506.00000</ele>
      </trkpt>
      <trkpt lat="38.35258200" lon="-6.35673600">
        <ele>505.00000</ele>
      </trkpt>
      <trkpt lat="38.35243800" lon="-6.35661800">
        <ele>504.00000</ele>
      </trkpt>
      <trkpt lat="38.35239000" lon="-6.35658100">
        <ele>504.00000</ele>
      </trkpt>
      <trkpt lat="38.35219100" lon="-6.35645400">
        <ele>503.00000</ele>
      </trkpt>
      <trkpt lat="38.35199700" lon="-6.35637300">
        <ele>502.00000</ele>
      </trkpt>
      <trkpt lat="38.35187400" lon="-6.35631800">
        <ele>502.00000</ele>
      </trkpt>
      <trkpt lat="38.35157600" lon="-6.35617200">
        <ele>502.00000</ele>
      </trkpt>
      <trkpt lat="38.35127200" lon="-6.35601900">
        <ele>501.00000</ele>
      </trkpt>
      <trkpt lat="38.35122700" lon="-6.35599700">
        <ele>501.00000</ele>
      </trkpt>
      <trkpt lat="38.35114000" lon="-6.35595900">
        <ele>501.00000</ele>
      </trkpt>
      <trkpt lat="38.35068300" lon="-6.35577000">
        <ele>503.00000</ele>
      </trkpt>
      <trkpt lat="38.35049800" lon="-6.35569000">
        <ele>502.00000</ele>
      </trkpt>
      <trkpt lat="38.35027500" lon="-6.35557300">
        <ele>501.00000</ele>
      </trkpt>
      <trkpt lat="38.35014700" lon="-6.35550099">
        <ele>501.00000</ele>
      </trkpt>
      <trkpt lat="38.34996300" lon="-6.35541900">
        <ele>502.00000</ele>
      </trkpt>
      <trkpt lat="38.34992300" lon="-6.35539100">
        <ele>502.00000</ele>
      </trkpt>
      <trkpt lat="38.34970600" lon="-6.35522200">
        <ele>502.00000</ele>
      </trkpt>
      <trkpt lat="38.34967100" lon="-6.35518900">
        <ele>502.00000</ele>
      </trkpt>
      <trkpt lat="38.34953200" lon="-6.35505800">
        <ele>502.00000</ele>
      </trkpt>
      <trkpt lat="38.34926500" lon="-6.35484600">
        <ele>501.00000</ele>
      </trkpt>
      <trkpt lat="38.34919200" lon="-6.35477700">
        <ele>501.00000</ele>
      </trkpt>
      <trkpt lat="38.34899100" lon="-6.35464300">
        <ele>500.00000</ele>
      </trkpt>
      <trkpt lat="38.34895200" lon="-6.35461600">
        <ele>500.00000</ele>
      </trkpt>
      <trkpt lat="38.34864700" lon="-6.35438800">
        <ele>500.00000</ele>
      </trkpt>
      <trkpt lat="38.34853200" lon="-6.35429500">
        <ele>500.00000</ele>
      </trkpt>
      <trkpt lat="38.34831900" lon="-6.35407799">
        <ele>499.00000</ele>
      </trkpt>
      <trkpt lat="38.34822100" lon="-6.35396400">
        <ele>499.00000</ele>
      </trkpt>
      <trkpt lat="38.34803800" lon="-6.35373100">
        <ele>498.00000</ele>
      </trkpt>
      <trkpt lat="38.34792300" lon="-6.35357000">
        <ele>498.00000</ele>
      </trkpt>
      <trkpt lat="38.34775800" lon="-6.35331400">
        <ele>500.00000</ele>
      </trkpt>
      <trkpt lat="38.34767500" lon="-6.35319300">
        <ele>501.00000</ele>
      </trkpt>
      <trkpt lat="38.34762200" lon="-6.35311600">
        <ele>501.00000</ele>
      </trkpt>
      <trkpt lat="38.34759500" lon="-6.35308000">
        <ele>501.00000</ele>
      </trkpt>
      <trkpt lat="38.34750800" lon="-6.35297400">
        <ele>501.00000</ele>
      </trkpt>
      <trkpt lat="38.34731400" lon="-6.35277500">
        <ele>500.00000</ele>
      </trkpt>
      <trkpt lat="38.34690400" lon="-6.35239000">
        <ele>499.00000</ele>
      </trkpt>
      <trkpt lat="38.34664900" lon="-6.35210700">
        <ele>497.00000</ele>
      </trkpt>
      <trkpt lat="38.34639200" lon="-6.35185100">
        <ele>497.00000</ele>
      </trkpt>
      <trkpt lat="38.34632400" lon="-6.35179400">
        <ele>497.00000</ele>
      </trkpt>
      <trkpt lat="38.34609700" lon="-6.35160300">
        <ele>496.00000</ele>
      </trkpt>
      <trkpt lat="38.34599300" lon="-6.35151899">
        <ele>496.00000</ele>
      </trkpt>
      <trkpt lat="38.34573200" lon="-6.35131800">
        <ele>496.00000</ele>
      </trkpt>
      <trkpt lat="38.34549600" lon="-6.35116000">
        <ele>497.00000</ele>
      </trkpt>
      <trkpt lat="38.34531000" lon="-6.35103600">
        <ele>496.00000</ele>
      </trkpt>
      <trkpt lat="38.34516900" lon="-6.35093100">
        <ele>496.00000</ele>
      </trkpt>
      <trkpt lat="38.34507300" lon="-6.35082900">
        <ele>495.00000</ele>
      </trkpt>
      <trkpt lat="38.34503800" lon="-6.35080100">
        <ele>495.00000</ele>
      </trkpt>
      <trkpt lat="38.34476500" lon="-6.35064100">
        <ele>494.00000</ele>
      </trkpt>
      <trkpt lat="38.34444800" lon="-6.35053200">
        <ele>494.00000</ele>
      </trkpt>
      <trkpt lat="38.34436000" lon="-6.35051400">
        <ele>495.00000</ele>
      </trkpt>
      <trkpt lat="38.34427700" lon="-6.35049700">
        <ele>495.00000</ele>
      </trkpt>
      <trkpt lat="38.34420100" lon="-6.35045800">
        <ele>495.00000</ele>
      </trkpt>
      <trkpt lat="38.34416800" lon="-6.35043000">
        <ele>495.00000</ele>
      </trkpt>
      <trkpt lat="38.34410800" lon="-6.35037200">
        <ele>495.00000</ele>
      </trkpt>
      <trkpt lat="38.34400200" lon="-6.35022100">
        <ele>495.00000</ele>
      </trkpt>
      <trkpt lat="38.34393600" lon="-6.34996700">
        <ele>496.00000</ele>
      </trkpt>
      <trkpt lat="38.34383500" lon="-6.34985500">
        <ele>495.00000</ele>
      </trkpt>
      <trkpt lat="38.34366500" lon="-6.34977200">
        <ele>495.00000</ele>
      </trkpt>
      <trkpt lat="38.34339400" lon="-6.34966399">
        <ele>496.00000</ele>
      </trkpt>
      <trkpt lat="38.34306500" lon="-6.34955999">
        <ele>495.00000</ele>
      </trkpt>
      <trkpt lat="38.34280600" lon="-6.34948800">
        <ele>496.00000</ele>
      </trkpt>
      <trkpt lat="38.34274700" lon="-6.34947100">
        <ele>497.00000</ele>
      </trkpt>
      <trkpt lat="38.34259200" lon="-6.34944000">
        <ele>497.00000</ele>
      </trkpt>
      <trkpt lat="38.34256100" lon="-6.34943400">
        <ele>497.00000</ele>
      </trkpt>
      <trkpt lat="38.34235900" lon="-6.34939700">
        <ele>498.00000</ele>
      </trkpt>
      <trkpt lat="38.34230700" lon="-6.34938200">
        <ele>498.00000</ele>
      </trkpt>
      <trkpt lat="38.34213300" lon="-6.34932600">
        <ele>499.00000</ele>
      </trkpt>
      <trkpt lat="38.34207500" lon="-6.34929700">
        <ele>500.00000</ele>
      </trkpt>
      <trkpt lat="38.34204700" lon="-6.34928300">
        <ele>500.00000</ele>
      </trkpt>
      <trkpt lat="38.34202200" lon="-6.34927300">
        <ele>500.00000</ele>
      </trkpt>
      <trkpt lat="38.34192700" lon="-6.34924500">
        <ele>501.00000</ele>
      </trkpt>
      <trkpt lat="38.34191100" lon="-6.34924399">
        <ele>501.00000</ele>
      </trkpt>
      <trkpt lat="38.34188100" lon="-6.34923400">
        <ele>501.00000</ele>
      </trkpt>
      <trkpt lat="38.34180400" lon="-6.34922100">
        <ele>502.00000</ele>
      </trkpt>
      <trkpt lat="38.34178800" lon="-6.34921400">
        <ele>502.00000</ele>
      </trkpt>
      <trkpt lat="38.34174000" lon="-6.34920000">
        <ele>502.00000</ele>
      </trkpt>
      <trkpt lat="38.34171000" lon="-6.34919200">
        <ele>502.00000</ele>
      </trkpt>
      <trkpt lat="38.34167900" lon="-6.34918000">
        <ele>502.00000</ele>
      </trkpt>
      <trkpt lat="38.34164700" lon="-6.34916800">
        <ele>502.00000</ele>
      </trkpt>
      <trkpt lat="38.34163200" lon="-6.34916500">
        <ele>503.00000</ele>
      </trkpt>
      <trkpt lat="38.34158500" lon="-6.34914800">
        <ele>503.00000</ele>
      </trkpt>
      <trkpt lat="38.34154000" lon="-6.34912200">
        <ele>503.00000</ele>
      </trkpt>
      <trkpt lat="38.34150900" lon="-6.34910300">
        <ele>503.00000</ele>
      </trkpt>
      <trkpt lat="38.34147800" lon="-6.34908300">
        <ele>503.00000</ele>
      </trkpt>
      <trkpt lat="38.34143700" lon="-6.34904899">
        <ele>503.00000</ele>
      </trkpt>
      <trkpt lat="38.34141400" lon="-6.34902499">
        <ele>503.00000</ele>
      </trkpt>
      <trkpt lat="38.34138900" lon="-6.34900100">
        <ele>503.00000</ele>
      </trkpt>
      <trkpt lat="38.34134000" lon="-6.34895899">
        <ele>503.00000</ele>
      </trkpt>
      <trkpt lat="38.34128900" lon="-6.34891700">
        <ele>503.00000</ele>
      </trkpt>
      <trkpt lat="38.34127600" lon="-6.34890500">
        <ele>503.00000</ele>
      </trkpt>
      <trkpt lat="38.34126400" lon="-6.34889300">
        <ele>503.00000</ele>
      </trkpt>
      <trkpt lat="38.34124000" lon="-6.34887100">
        <ele>504.00000</ele>
      </trkpt>
      <trkpt lat="38.34120200" lon="-6.34883100">
        <ele>504.00000</ele>
      </trkpt>
      <trkpt lat="38.34117800" lon="-6.34880700">
        <ele>504.00000</ele>
      </trkpt>
      <trkpt lat="38.34114600" lon="-6.34876600">
        <ele>504.00000</ele>
      </trkpt>
      <trkpt lat="38.34113400" lon="-6.34875199">
        <ele>504.00000</ele>
      </trkpt>
      <trkpt lat="38.34107000" lon="-6.34864700">
        <ele>505.00000</ele>
      </trkpt>
      <trkpt lat="38.34105100" lon="-6.34861800">
        <ele>506.00000</ele>
      </trkpt>
      <trkpt lat="38.34100200" lon="-6.34855900">
        <ele>506.00000</ele>
      </trkpt>
      <trkpt lat="38.34099100" lon="-6.34854500">
        <ele>507.00000</ele>
      </trkpt>
      <trkpt lat="38.34096800" lon="-6.34851400">
        <ele>507.00000</ele>
      </trkpt>
      <trkpt lat="38.34095900" lon="-6.34849800">
        <ele>507.00000</ele>
      </trkpt>
      <trkpt lat="38.34089200" lon="-6.34841400">
        <ele>508.00000</ele>
      </trkpt>
      <trkpt lat="38.34084400" lon="-6.34836400">
        <ele>508.00000</ele>
      </trkpt>
      <trkpt lat="38.34082300" lon="-6.34833100">
        <ele>509.00000</ele>
      </trkpt>
      <trkpt lat="38.34073400" lon="-6.34820700">
        <ele>510.00000</ele>
      </trkpt>
      <trkpt lat="38.34072400" lon="-6.34819399">
        <ele>510.00000</ele>
      </trkpt>
      <trkpt lat="38.34064800" lon="-6.34806900">
        <ele>511.00000</ele>
      </trkpt>
      <trkpt lat="38.34061300" lon="-6.34800300">
        <ele>511.00000</ele>
      </trkpt>
      <trkpt lat="38.34058400" lon="-6.34795500">
        <ele>511.00000</ele>
      </trkpt>
      <trkpt lat="38.34056300" lon="-6.34792200">
        <ele>512.00000</ele>
      </trkpt>
      <trkpt lat="38.34054200" lon="-6.34789100">
        <ele>512.00000</ele>
      </trkpt>
      <trkpt lat="38.34051100" lon="-6.34784400">
        <ele>512.00000</ele>
      </trkpt>
      <trkpt lat="38.34048200" lon="-6.34778900">
        <ele>512.00000</ele>
      </trkpt>
      <trkpt lat="38.34045400" lon="-6.34773999">
        <ele>513.00000</ele>
      </trkpt>
      <trkpt lat="38.34042200" lon="-6.34769100">
        <ele>513.00000</ele>
      </trkpt>
      <trkpt lat="38.34037400" lon="-6.34760700">
        <ele>514.00000</ele>
      </trkpt>
      <trkpt lat="38.34035500" lon="-6.34757200">
        <ele>514.00000</ele>
      </trkpt>
      <trkpt lat="38.34034600" lon="-6.34755500">
        <ele>514.00000</ele>
      </trkpt>
      <trkpt lat="38.34032400" lon="-6.34752399">
        <ele>514.00000</ele>
      </trkpt>
      <trkpt lat="38.34024300" lon="-6.34737600">
        <ele>515.00000</ele>
      </trkpt>
      <trkpt lat="38.34019500" lon="-6.34730500">
        <ele>516.00000</ele>
      </trkpt>
      <trkpt lat="38.34013400" lon="-6.34720000">
        <ele>517.00000</ele>
      </trkpt>
      <trkpt lat="38.34012200" lon="-6.34717900">
        <ele>517.00000</ele>
      </trkpt>
      <trkpt lat="38.34010400" lon="-6.34714600">
        <ele>517.00000</ele>
      </trkpt>
      <trkpt lat="38.34005800" lon="-6.34704600">
        <ele>517.00000</ele>
      </trkpt>
      <trkpt lat="38.34003900" lon="-6.34696300">
        <ele>517.00000</ele>
      </trkpt>
      <trkpt lat="38.34004600" lon="-6.34693299">
        <ele>518.00000</ele>
      </trkpt>
      <trkpt lat="38.34000600" lon="-6.34687900">
        <ele>518.00000</ele>
      </trkpt>
      <trkpt lat="38.33999100" lon="-6.34685900">
        <ele>518.00000</ele>
      </trkpt>
      <trkpt lat="38.33997300" lon="-6.34683500">
        <ele>518.00000</ele>
      </trkpt>
      <trkpt lat="38.33993500" lon="-6.34677400">
        <ele>518.00000</ele>
      </trkpt>
      <trkpt lat="38.33988700" lon="-6.34670400">
        <ele>518.00000</ele>
      </trkpt>
      <trkpt lat="38.33983300" lon="-6.34660199">
        <ele>517.00000</ele>
      </trkpt>
      <trkpt lat="38.33978500" lon="-6.34650500">
        <ele>517.00000</ele>
      </trkpt>
      <trkpt lat="38.33973500" lon="-6.34641500">
        <ele>517.00000</ele>
      </trkpt>
      <trkpt lat="38.33965700" lon="-6.34625700">
        <ele>517.00000</ele>
      </trkpt>
      <trkpt lat="38.33945100" lon="-6.34579499">
        <ele>516.00000</ele>
      </trkpt>
      <trkpt lat="38.33942700" lon="-6.34574500">
        <ele>515.00000</ele>
      </trkpt>
      <trkpt lat="38.33925600" lon="-6.34542500">
        <ele>514.00000</ele>
      </trkpt>
      <trkpt lat="38.33921700" lon="-6.34534400">
        <ele>514.00000</ele>
      </trkpt>
      <trkpt lat="38.33914100" lon="-6.34519099">
        <ele>515.00000</ele>
      </trkpt>
      <trkpt lat="38.33905500" lon="-6.34501200">
        <ele>515.00000</ele>
      </trkpt>
      <trkpt lat="38.33898200" lon="-6.34486099">
        <ele>516.00000</ele>
      </trkpt>
      <trkpt lat="38.33893100" lon="-6.34474100">
        <ele>517.00000</ele>
      </trkpt>
      <trkpt lat="38.33891900" lon="-6.34471300">
        <ele>517.00000</ele>
      </trkpt>
      <trkpt lat="38.33889600" lon="-6.34466699">
        <ele>518.00000</ele>
      </trkpt>
      <trkpt lat="38.33886000" lon="-6.34458700">
        <ele>519.00000</ele>
      </trkpt>
      <trkpt lat="38.33884000" lon="-6.34454200">
        <ele>519.00000</ele>
      </trkpt>
      <trkpt lat="38.33877700" lon="-6.34441600">
        <ele>520.00000</ele>
      </trkpt>
      <trkpt lat="38.33873300" lon="-6.34433100">
        <ele>520.00000</ele>
      </trkpt>
      <trkpt lat="38.33868900" lon="-6.34425900">
        <ele>520.00000</ele>
      </trkpt>
      <trkpt lat="38.33862800" lon="-6.34417699">
        <ele>520.00000</ele>
      </trkpt>
      <trkpt lat="38.33857500" lon="-6.34409400">
        <ele>520.00000</ele>
      </trkpt>
      <trkpt lat="38.33854400" lon="-6.34402200">
        <ele>520.00000</ele>
      </trkpt>
      <trkpt lat="38.33853100" lon="-6.34398800">
        <ele>520.00000</ele>
      </trkpt>
      <trkpt lat="38.33850700" lon="-6.34392900">
        <ele>520.00000</ele>
      </trkpt>
      <trkpt lat="38.33845700" lon="-6.34381900">
        <ele>520.00000</ele>
      </trkpt>
      <trkpt lat="38.33842500" lon="-6.34375900">
        <ele>520.00000</ele>
      </trkpt>
      <trkpt lat="38.33838500" lon="-6.34367400">
        <ele>521.00000</ele>
      </trkpt>
      <trkpt lat="38.33832400" lon="-6.34356600">
        <ele>520.00000</ele>
      </trkpt>
      <trkpt lat="38.33824500" lon="-6.34344200">
        <ele>519.00000</ele>
      </trkpt>
      <trkpt lat="38.33809400" lon="-6.34321700">
        <ele>516.00000</ele>
      </trkpt>
      <trkpt lat="38.33806000" lon="-6.34316600">
        <ele>515.00000</ele>
      </trkpt>
      <trkpt lat="38.33791800" lon="-6.34293900">
        <ele>513.00000</ele>
      </trkpt>
      <trkpt lat="38.33782000" lon="-6.34276899">
        <ele>512.00000</ele>
      </trkpt>
      <trkpt lat="38.33778700" lon="-6.34270100">
        <ele>511.00000</ele>
      </trkpt>
      <trkpt lat="38.33774900" lon="-6.34260600">
        <ele>511.00000</ele>
      </trkpt>
      <trkpt lat="38.33772100" lon="-6.34251200">
        <ele>510.00000</ele>
      </trkpt>
      <trkpt lat="38.33765900" lon="-6.34233000">
        <ele>509.00000</ele>
      </trkpt>
      <trkpt lat="38.33762000" lon="-6.34223000">
        <ele>509.00000</ele>
      </trkpt>
      <trkpt lat="38.33749900" lon="-6.34194200">
        <ele>509.00000</ele>
      </trkpt>
      <trkpt lat="38.33748100" lon="-6.34187300">
        <ele>509.00000</ele>
      </trkpt>
      <trkpt lat="38.33746200" lon="-6.34178999">
        <ele>509.00000</ele>
      </trkpt>
      <trkpt lat="38.33740700" lon="-6.34149200">
        <ele>510.00000</ele>
      </trkpt>
      <trkpt lat="38.33733800" lon="-6.34126400">
        <ele>511.00000</ele>
      </trkpt>
      <trkpt lat="38.33721400" lon="-6.34107400">
        <ele>513.00000</ele>
      </trkpt>
      <trkpt lat="38.33719200" lon="-6.34104899">
        <ele>513.00000</ele>
      </trkpt>
      <trkpt lat="38.33708600" lon="-6.34092700">
        <ele>514.00000</ele>
      </trkpt>
      <trkpt lat="38.33699400" lon="-6.34083600">
        <ele>515.00000</ele>
      </trkpt>
      <trkpt lat="38.33695800" lon="-6.34080800">
        <ele>515.00000</ele>
      </trkpt>
      <trkpt lat="38.33690000" lon="-6.34076300">
        <ele>516.00000</ele>
      </trkpt>
      <trkpt lat="38.33682200" lon="-6.34068800">
        <ele>516.00000</ele>
      </trkpt>
      <trkpt lat="38.33677700" lon="-6.34063500">
        <ele>517.00000</ele>
      </trkpt>
      <trkpt lat="38.33671200" lon="-6.34057400">
        <ele>517.00000</ele>
      </trkpt>
      <trkpt lat="38.33663600" lon="-6.34049200">
        <ele>517.00000</ele>
      </trkpt>
      <trkpt lat="38.33657400" lon="-6.34042800">
        <ele>517.00000</ele>
      </trkpt>
      <trkpt lat="38.33655600" lon="-6.34040700">
        <ele>517.00000</ele>
      </trkpt>
      <trkpt lat="38.33651300" lon="-6.34037400">
        <ele>517.00000</ele>
      </trkpt>
      <trkpt lat="38.33644600" lon="-6.34032300">
        <ele>517.00000</ele>
      </trkpt>
      <trkpt lat="38.33634500" lon="-6.34026800">
        <ele>517.00000</ele>
      </trkpt>
      <trkpt lat="38.33630200" lon="-6.34024300">
        <ele>517.00000</ele>
      </trkpt>
      <trkpt lat="38.33626100" lon="-6.34020799">
        <ele>517.00000</ele>
      </trkpt>
      <trkpt lat="38.33621300" lon="-6.34017700">
        <ele>517.00000</ele>
      </trkpt>
      <trkpt lat="38.33618400" lon="-6.34015800">
        <ele>517.00000</ele>
      </trkpt>
      <trkpt lat="38.33606700" lon="-6.34006400">
        <ele>516.00000</ele>
      </trkpt>
      <trkpt lat="38.33600300" lon="-6.33999400">
        <ele>516.00000</ele>
      </trkpt>
      <trkpt lat="38.33593900" lon="-6.33993100">
        <ele>515.00000</ele>
      </trkpt>
      <trkpt lat="38.33584300" lon="-6.33982500">
        <ele>515.00000</ele>
      </trkpt>
      <trkpt lat="38.33574900" lon="-6.33971100">
        <ele>515.00000</ele>
      </trkpt>
      <trkpt lat="38.33571700" lon="-6.33967500">
        <ele>514.00000</ele>
      </trkpt>
      <trkpt lat="38.33568400" lon="-6.33963700">
        <ele>514.00000</ele>
      </trkpt>
      <trkpt lat="38.33562200" lon="-6.33956100">
        <ele>514.00000</ele>
      </trkpt>
      <trkpt lat="38.33549000" lon="-6.33937599">
        <ele>514.00000</ele>
      </trkpt>
      <trkpt lat="38.33545600" lon="-6.33933300">
        <ele>514.00000</ele>
      </trkpt>
      <trkpt lat="38.33528800" lon="-6.33911400">
        <ele>513.00000</ele>
      </trkpt>
      <trkpt lat="38.33518800" lon="-6.33897799">
        <ele>513.00000</ele>
      </trkpt>
      <trkpt lat="38.33510000" lon="-6.33884900">
        <ele>513.00000</ele>
      </trkpt>
      <trkpt lat="38.33506900" lon="-6.33880699">
        <ele>513.00000</ele>
      </trkpt>
      <trkpt lat="38.33496900" lon="-6.33867400">
        <ele>513.00000</ele>
      </trkpt>
      <trkpt lat="38.33481000" lon="-6.33844900">
        <ele>514.00000</ele>
      </trkpt>
      <trkpt lat="38.33468200" lon="-6.33827900">
        <ele>513.00000</ele>
      </trkpt>
      <trkpt lat="38.33465100" lon="-6.33823899">
        <ele>513.00000</ele>
      </trkpt>
      <trkpt lat="38.33457600" lon="-6.33811400">
        <ele>513.00000</ele>
      </trkpt>
      <trkpt lat="38.33453700" lon="-6.33802700">
        <ele>513.00000</ele>
      </trkpt>
      <trkpt lat="38.33449400" lon="-6.33793900">
        <ele>513.00000</ele>
      </trkpt>
      <trkpt lat="38.33441700" lon="-6.33771800">
        <ele>512.00000</ele>
      </trkpt>
      <trkpt lat="38.33434300" lon="-6.33751600">
        <ele>511.00000</ele>
      </trkpt>
      <trkpt lat="38.33431300" lon="-6.33738500">
        <ele>510.00000</ele>
      </trkpt>
      <trkpt lat="38.33427400" lon="-6.33726300">
        <ele>509.00000</ele>
      </trkpt>
      <trkpt lat="38.33419600" lon="-6.33707300">
        <ele>507.00000</ele>
      </trkpt>
      <trkpt lat="38.33414500" lon="-6.33695800">
        <ele>507.00000</ele>
      </trkpt>
      <trkpt lat="38.33404600" lon="-6.33675100">
        <ele>506.00000</ele>
      </trkpt>
      <trkpt lat="38.33401400" lon="-6.33669300">
        <ele>506.00000</ele>
      </trkpt>
      <trkpt lat="38.33397800" lon="-6.33663900">
        <ele>506.00000</ele>
      </trkpt>
      <trkpt lat="38.33390600" lon="-6.33653200">
        <ele>505.00000</ele>
      </trkpt>
      <trkpt lat="38.33379500" lon="-6.33637900">
        <ele>504.00000</ele>
      </trkpt>
      <trkpt lat="38.33367700" lon="-6.33622199">
        <ele>504.00000</ele>
      </trkpt>
      <trkpt lat="38.33354600" lon="-6.33606600">
        <ele>503.00000</ele>
      </trkpt>
      <trkpt lat="38.33349500" lon="-6.33601700">
        <ele>502.00000</ele>
      </trkpt>
      <trkpt lat="38.33327900" lon="-6.33580800">
        <ele>500.00000</ele>
      </trkpt>
      <trkpt lat="38.33311700" lon="-6.33562300">
        <ele>500.00000</ele>
      </trkpt>
      <trkpt lat="38.33296200" lon="-6.33542400">
        <ele>499.00000</ele>
      </trkpt>
      <trkpt lat="38.33288300" lon="-6.33532300">
        <ele>498.00000</ele>
      </trkpt>
      <trkpt lat="38.33273600" lon="-6.33517000">
        <ele>497.00000</ele>
      </trkpt>
      <trkpt lat="38.33268500" lon="-6.33513199">
        <ele>496.00000</ele>
      </trkpt>
      <trkpt lat="38.33254500" lon="-6.33505000">
        <ele>496.00000</ele>
      </trkpt>
      <trkpt lat="38.33249100" lon="-6.33499800">
        <ele>496.00000</ele>
      </trkpt>
      <trkpt lat="38.33247400" lon="-6.33497500">
        <ele>496.00000</ele>
      </trkpt>
      <trkpt lat="38.33245600" lon="-6.33495100">
        <ele>496.00000</ele>
      </trkpt>
      <trkpt lat="38.33242600" lon="-6.33489600">
        <ele>496.00000</ele>
      </trkpt>
      <trkpt lat="38.33242200" lon="-6.33488800">
        <ele>496.00000</ele>
      </trkpt>
      <trkpt lat="38.33240600" lon="-6.33486700">
        <ele>496.00000</ele>
      </trkpt>
      <trkpt lat="38.33237100" lon="-6.33484800">
        <ele>496.00000</ele>
      </trkpt>
      <trkpt lat="38.33235500" lon="-6.33483100">
        <ele>496.00000</ele>
      </trkpt>
      <trkpt lat="38.33232800" lon="-6.33478700">
        <ele>496.00000</ele>
      </trkpt>
      <trkpt lat="38.33231300" lon="-6.33477400">
        <ele>496.00000</ele>
      </trkpt>
      <trkpt lat="38.33225300" lon="-6.33476100">
        <ele>496.00000</ele>
      </trkpt>
      <trkpt lat="38.33212900" lon="-6.33471500">
        <ele>497.00000</ele>
      </trkpt>
      <trkpt lat="38.33199900" lon="-6.33453400">
        <ele>497.00000</ele>
      </trkpt>
      <trkpt lat="38.33191000" lon="-6.33440900">
        <ele>497.00000</ele>
      </trkpt>
      <trkpt lat="38.33188800" lon="-6.33438000">
        <ele>497.00000</ele>
      </trkpt>
      <trkpt lat="38.33183100" lon="-6.33430900">
        <ele>497.00000</ele>
      </trkpt>
      <trkpt lat="38.33176500" lon="-6.33422700">
        <ele>497.00000</ele>
      </trkpt>
      <trkpt lat="38.33172800" lon="-6.33417500">
        <ele>497.00000</ele>
      </trkpt>
      <trkpt lat="38.33170200" lon="-6.33411900">
        <ele>497.00000</ele>
      </trkpt>
      <trkpt lat="38.33166200" lon="-6.33402500">
        <ele>497.00000</ele>
      </trkpt>
      <trkpt lat="38.33161000" lon="-6.33385300">
        <ele>497.00000</ele>
      </trkpt>
      <trkpt lat="38.33157200" lon="-6.33371000">
        <ele>498.00000</ele>
      </trkpt>
      <trkpt lat="38.33153400" lon="-6.33352500">
        <ele>498.00000</ele>
      </trkpt>
      <trkpt lat="38.33146700" lon="-6.33318600">
        <ele>500.00000</ele>
      </trkpt>
      <trkpt lat="38.33143800" lon="-6.33305100">
        <ele>500.00000</ele>
      </trkpt>
      <trkpt lat="38.33140000" lon="-6.33279800">
        <ele>499.00000</ele>
      </trkpt>
      <trkpt lat="38.33138400" lon="-6.33265700">
        <ele>498.00000</ele>
      </trkpt>
      <trkpt lat="38.33137600" lon="-6.33255899">
        <ele>498.00000</ele>
      </trkpt>
      <trkpt lat="38.33136900" lon="-6.33247600">
        <ele>498.00000</ele>
      </trkpt>
      <trkpt lat="38.33134200" lon="-6.33213699">
        <ele>499.00000</ele>
      </trkpt>
      <trkpt lat="38.33127200" lon="-6.33176700">
        <ele>500.00000</ele>
      </trkpt>
      <trkpt lat="38.33121200" lon="-6.33153400">
        <ele>500.00000</ele>
      </trkpt>
      <trkpt lat="38.33118000" lon="-6.33143299">
        <ele>500.00000</ele>
      </trkpt>
      <trkpt lat="38.33114200" lon="-6.33130699">
        <ele>501.00000</ele>
      </trkpt>
      <trkpt lat="38.33110200" lon="-6.33120000">
        <ele>501.00000</ele>
      </trkpt>
      <trkpt lat="38.33100800" lon="-6.33096000">
        <ele>500.00000</ele>
      </trkpt>
      <trkpt lat="38.33099700" lon="-6.33093199">
        <ele>500.00000</ele>
      </trkpt>
      <trkpt lat="38.33097400" lon="-6.33086000">
        <ele>500.00000</ele>
      </trkpt>
      <trkpt lat="38.33086300" lon="-6.33047500">
        <ele>501.00000</ele>
      </trkpt>
      <trkpt lat="38.33083400" lon="-6.33038900">
        <ele>502.00000</ele>
      </trkpt>
      <trkpt lat="38.33080300" lon="-6.33031600">
        <ele>502.00000</ele>
      </trkpt>
      <trkpt lat="38.33077700" lon="-6.33022699">
        <ele>502.00000</ele>
      </trkpt>
      <trkpt lat="38.33072800" lon="-6.33006499">
        <ele>502.00000</ele>
      </trkpt>
      <trkpt lat="38.33071900" lon="-6.32999300">
        <ele>503.00000</ele>
      </trkpt>
      <trkpt lat="38.33066500" lon="-6.32973900">
        <ele>502.00000</ele>
      </trkpt>
      <trkpt lat="38.33059900" lon="-6.32947500">
        <ele>503.00000</ele>
      </trkpt>
      <trkpt lat="38.33057900" lon="-6.32933400">
        <ele>503.00000</ele>
      </trkpt>
      <trkpt lat="38.33055300" lon="-6.32923100">
        <ele>502.00000</ele>
      </trkpt>
      <trkpt lat="38.33043200" lon="-6.32893700">
        <ele>503.00000</ele>
      </trkpt>
      <trkpt lat="38.33036000" lon="-6.32886500">
        <ele>502.00000</ele>
      </trkpt>
      <trkpt lat="38.33032500" lon="-6.32882000">
        <ele>502.00000</ele>
      </trkpt>
      <trkpt lat="38.33027200" lon="-6.32874600">
        <ele>501.00000</ele>
      </trkpt>
      <trkpt lat="38.33023900" lon="-6.32865800">
        <ele>501.00000</ele>
      </trkpt>
      <trkpt lat="38.33022800" lon="-6.32861300">
        <ele>501.00000</ele>
      </trkpt>
      <trkpt lat="38.33019300" lon="-6.32847600">
        <ele>501.00000</ele>
      </trkpt>
      <trkpt lat="38.33014700" lon="-6.32835100">
        <ele>501.00000</ele>
      </trkpt>
      <trkpt lat="38.33013000" lon="-6.32829900">
        <ele>500.00000</ele>
      </trkpt>
      <trkpt lat="38.33008300" lon="-6.32816000">
        <ele>500.00000</ele>
      </trkpt>
      <trkpt lat="38.33006400" lon="-6.32809900">
        <ele>499.00000</ele>
      </trkpt>
      <trkpt lat="38.33001200" lon="-6.32793300">
        <ele>499.00000</ele>
      </trkpt>
      <trkpt lat="38.32998000" lon="-6.32781299">
        <ele>499.00000</ele>
      </trkpt>
      <trkpt lat="38.32995500" lon="-6.32772099">
        <ele>499.00000</ele>
      </trkpt>
      <trkpt lat="38.32994100" lon="-6.32766100">
        <ele>499.00000</ele>
      </trkpt>
      <trkpt lat="38.32989400" lon="-6.32742500">
        <ele>500.00000</ele>
      </trkpt>
      <trkpt lat="38.32980300" lon="-6.32710600">
        <ele>502.00000</ele>
      </trkpt>
      <trkpt lat="38.32974200" lon="-6.32691400">
        <ele>502.00000</ele>
      </trkpt>
      <trkpt lat="38.32969600" lon="-6.32679100">
        <ele>502.00000</ele>
      </trkpt>
      <trkpt lat="38.32965100" lon="-6.32665300">
        <ele>502.00000</ele>
      </trkpt>
      <trkpt lat="38.32955500" lon="-6.32634300">
        <ele>502.00000</ele>
      </trkpt>
      <trkpt lat="38.32953300" lon="-6.32626800">
        <ele>502.00000</ele>
      </trkpt>
      <trkpt lat="38.32946000" lon="-6.32603300">
        <ele>502.00000</ele>
      </trkpt>
      <trkpt lat="38.32942900" lon="-6.32592300">
        <ele>503.00000</ele>
      </trkpt>
      <trkpt lat="38.32935400" lon="-6.32568200">
        <ele>504.00000</ele>
      </trkpt>
      <trkpt lat="38.32933300" lon="-6.32561700">
        <ele>504.00000</ele>
      </trkpt>
      <trkpt lat="38.32925400" lon="-6.32535800">
        <ele>505.00000</ele>
      </trkpt>
      <trkpt lat="38.32924400" lon="-6.32532600">
        <ele>505.00000</ele>
      </trkpt>
      <trkpt lat="38.32916800" lon="-6.32504400">
        <ele>504.00000</ele>
      </trkpt>
      <trkpt lat="38.32911000" lon="-6.32477900">
        <ele>504.00000</ele>
      </trkpt>
      <trkpt lat="38.32910400" lon="-6.32473800">
        <ele>504.00000</ele>
      </trkpt>
      <trkpt lat="38.32910400" lon="-6.32453000">
        <ele>504.00000</ele>
      </trkpt>
      <trkpt lat="38.32910600" lon="-6.32450100">
        <ele>504.00000</ele>
      </trkpt>
      <trkpt lat="38.32910900" lon="-6.32438300">
        <ele>504.00000</ele>
      </trkpt>
      <trkpt lat="38.32910400" lon="-6.32433099">
        <ele>504.00000</ele>
      </trkpt>
      <trkpt lat="38.32910200" lon="-6.32429300">
        <ele>504.00000</ele>
      </trkpt>
      <trkpt lat="38.32910200" lon="-6.32413300">
        <ele>504.00000</ele>
      </trkpt>
      <trkpt lat="38.32910500" lon="-6.32407600">
        <ele>504.00000</ele>
      </trkpt>
      <trkpt lat="38.32911700" lon="-6.32397200">
        <ele>504.00000</ele>
      </trkpt>
      <trkpt lat="38.32913900" lon="-6.32384500">
        <ele>504.00000</ele>
      </trkpt>
      <trkpt lat="38.32915100" lon="-6.32375700">
        <ele>505.00000</ele>
      </trkpt>
      <trkpt lat="38.32917300" lon="-6.32344600">
        <ele>507.00000</ele>
      </trkpt>
      <trkpt lat="38.32917000" lon="-6.32334700">
        <ele>507.00000</ele>
      </trkpt>
      <trkpt lat="38.32916900" lon="-6.32325100">
        <ele>508.00000</ele>
      </trkpt>
      <trkpt lat="38.32917700" lon="-6.32319500">
        <ele>508.00000</ele>
      </trkpt>
      <trkpt lat="38.32921900" lon="-6.32308000">
        <ele>509.00000</ele>
      </trkpt>
      <trkpt lat="38.32925300" lon="-6.32297600">
        <ele>510.00000</ele>
      </trkpt>
      <trkpt lat="38.32925900" lon="-6.32294600">
        <ele>510.00000</ele>
      </trkpt>
      <trkpt lat="38.32926500" lon="-6.32292300">
        <ele>510.00000</ele>
      </trkpt>
      <trkpt lat="38.32930700" lon="-6.32271800">
        <ele>512.00000</ele>
      </trkpt>
      <trkpt lat="38.32931400" lon="-6.32266700">
        <ele>512.00000</ele>
      </trkpt>
      <trkpt lat="38.32933600" lon="-6.32250100">
        <ele>514.00000</ele>
      </trkpt>
      <trkpt lat="38.32934200" lon="-6.32244199">
        <ele>514.00000</ele>
      </trkpt>
      <trkpt lat="38.32934900" lon="-6.32228900">
        <ele>514.00000</ele>
      </trkpt>
      <trkpt lat="38.32934700" lon="-6.32216200">
        <ele>513.00000</ele>
      </trkpt>
      <trkpt lat="38.32934700" lon="-6.32213399">
        <ele>513.00000</ele>
      </trkpt>
      <trkpt lat="38.32935700" lon="-6.32195400">
        <ele>514.00000</ele>
      </trkpt>
      <trkpt lat="38.32935900" lon="-6.32192800">
        <ele>514.00000</ele>
      </trkpt>
      <trkpt lat="38.32936000" lon="-6.32188300">
        <ele>514.00000</ele>
      </trkpt>
      <trkpt lat="38.32936000" lon="-6.32185200">
        <ele>514.00000</ele>
      </trkpt>
      <trkpt lat="38.32936100" lon="-6.32180500">
        <ele>514.00000</ele>
      </trkpt>
      <trkpt lat="38.32936400" lon="-6.32171299">
        <ele>514.00000</ele>
      </trkpt>
      <trkpt lat="38.32937000" lon="-6.32162299">
        <ele>514.00000</ele>
      </trkpt>
      <trkpt lat="38.32937500" lon="-6.32158500">
        <ele>514.00000</ele>
      </trkpt>
      <trkpt lat="38.32937900" lon="-6.32155500">
        <ele>514.00000</ele>
      </trkpt>
      <trkpt lat="38.32942100" lon="-6.32126700">
        <ele>514.00000</ele>
      </trkpt>
      <trkpt lat="38.32943000" lon="-6.32120700">
        <ele>514.00000</ele>
      </trkpt>
      <trkpt lat="38.32944100" lon="-6.32114800">
        <ele>514.00000</ele>
      </trkpt>
      <trkpt lat="38.32945600" lon="-6.32109500">
        <ele>514.00000</ele>
      </trkpt>
      <trkpt lat="38.32948500" lon="-6.32099400">
        <ele>514.00000</ele>
      </trkpt>
      <trkpt lat="38.32953200" lon="-6.32085600">
        <ele>514.00000</ele>
      </trkpt>
      <trkpt lat="38.32953100" lon="-6.32081900">
        <ele>514.00000</ele>
      </trkpt>
      <trkpt lat="38.32950200" lon="-6.32077600">
        <ele>514.00000</ele>
      </trkpt>
      <trkpt lat="38.32944700" lon="-6.32076300">
        <ele>513.00000</ele>
      </trkpt>
      <trkpt lat="38.32922500" lon="-6.32082100">
        <ele>511.00000</ele>
      </trkpt>
      <trkpt lat="38.32907700" lon="-6.32085500">
        <ele>510.00000</ele>
      </trkpt>
      <trkpt lat="38.32896800" lon="-6.32088000">
        <ele>510.00000</ele>
      </trkpt>
      <trkpt lat="38.32881400" lon="-6.32091400">
        <ele>509.00000</ele>
      </trkpt>
      <trkpt lat="38.32868600" lon="-6.32094000">
        <ele>508.00000</ele>
      </trkpt>
      <trkpt lat="38.32856700" lon="-6.32095400">
        <ele>508.00000</ele>
      </trkpt>
      <trkpt lat="38.32834200" lon="-6.32100400">
        <ele>507.00000</ele>
      </trkpt>
      <trkpt lat="38.32807000" lon="-6.32106100">
        <ele>506.00000</ele>
      </trkpt>
      <trkpt lat="38.32784200" lon="-6.32110400">
        <ele>505.00000</ele>
      </trkpt>
      <trkpt lat="38.32778200" lon="-6.32110900">
        <ele>505.00000</ele>
      </trkpt>
      <trkpt lat="38.32747200" lon="-6.32114800">
        <ele>504.00000</ele>
      </trkpt>
      <trkpt lat="38.32725500" lon="-6.32118700">
        <ele>504.00000</ele>
      </trkpt>
      <trkpt lat="38.32692800" lon="-6.32122900">
        <ele>502.00000</ele>
      </trkpt>
      <trkpt lat="38.32671900" lon="-6.32124600">
        <ele>501.00000</ele>
      </trkpt>
      <trkpt lat="38.32666100" lon="-6.32125300">
        <ele>501.00000</ele>
      </trkpt>
      <trkpt lat="38.32661700" lon="-6.32125699">
        <ele>501.00000</ele>
      </trkpt>
      <trkpt lat="38.32658400" lon="-6.32125900">
        <ele>501.00000</ele>
      </trkpt>
      <trkpt lat="38.32643300" lon="-6.32129299">
        <ele>501.00000</ele>
      </trkpt>
      <trkpt lat="38.32623300" lon="-6.32130700">
        <ele>501.00000</ele>
      </trkpt>
      <trkpt lat="38.32583400" lon="-6.32129700">
        <ele>503.00000</ele>
      </trkpt>
      <trkpt lat="38.32566300" lon="-6.32125500">
        <ele>503.00000</ele>
      </trkpt>
      <trkpt lat="38.32563100" lon="-6.32124200">
        <ele>504.00000</ele>
      </trkpt>
      <trkpt lat="38.32540900" lon="-6.32110700">
        <ele>505.00000</ele>
      </trkpt>
      <trkpt lat="38.32531600" lon="-6.32104200">
        <ele>505.00000</ele>
      </trkpt>
      <trkpt lat="38.32522600" lon="-6.32105100">
        <ele>506.00000</ele>
      </trkpt>
      <trkpt lat="38.32514900" lon="-6.32112199">
        <ele>507.00000</ele>
      </trkpt>
      <trkpt lat="38.32510000" lon="-6.32114299">
        <ele>507.00000</ele>
      </trkpt>
      <trkpt lat="38.32499400" lon="-6.32115499">
        <ele>508.00000</ele>
      </trkpt>
      <trkpt lat="38.32497600" lon="-6.32116400">
        <ele>508.00000</ele>
      </trkpt>
      <trkpt lat="38.32490600" lon="-6.32117400">
        <ele>509.00000</ele>
      </trkpt>
      <trkpt lat="38.32482700" lon="-6.32114299">
        <ele>510.00000</ele>
      </trkpt>
      <trkpt lat="38.32474100" lon="-6.32110500">
        <ele>510.00000</ele>
      </trkpt>
      <trkpt lat="38.32468500" lon="-6.32108100">
        <ele>511.00000</ele>
      </trkpt>
      <trkpt lat="38.32464300" lon="-6.32106200">
        <ele>511.00000</ele>
      </trkpt>
      <trkpt lat="38.32456600" lon="-6.32102899">
        <ele>511.00000</ele>
      </trkpt>
      <trkpt lat="38.32451200" lon="-6.32100000">
        <ele>511.00000</ele>
      </trkpt>
      <trkpt lat="38.32449300" lon="-6.32099400">
        <ele>511.00000</ele>
      </trkpt>
      <trkpt lat="38.32434000" lon="-6.32091800">
        <ele>511.00000</ele>
      </trkpt>
      <trkpt lat="38.32429700" lon="-6.32090000">
        <ele>511.00000</ele>
      </trkpt>
      <trkpt lat="38.32422200" lon="-6.32086700">
        <ele>511.00000</ele>
      </trkpt>
      <trkpt lat="38.32409400" lon="-6.32082400">
        <ele>511.00000</ele>
      </trkpt>
      <trkpt lat="38.32406900" lon="-6.32080900">
        <ele>511.00000</ele>
      </trkpt>
      <trkpt lat="38.32403000" lon="-6.32077999">
        <ele>511.00000</ele>
      </trkpt>
      <trkpt lat="38.32395200" lon="-6.32073800">
        <ele>511.00000</ele>
      </trkpt>
      <trkpt lat="38.32393300" lon="-6.32072600">
        <ele>511.00000</ele>
      </trkpt>
      <trkpt lat="38.32389800" lon="-6.32070500">
        <ele>511.00000</ele>
      </trkpt>
      <trkpt lat="38.32381400" lon="-6.32066000">
        <ele>512.00000</ele>
      </trkpt>
      <trkpt lat="38.32375400" lon="-6.32063100">
        <ele>512.00000</ele>
      </trkpt>
      <trkpt lat="38.32365400" lon="-6.32058300">
        <ele>512.00000</ele>
      </trkpt>
      <trkpt lat="38.32361300" lon="-6.32056200">
        <ele>512.00000</ele>
      </trkpt>
      <trkpt lat="38.32352900" lon="-6.32051799">
        <ele>512.00000</ele>
      </trkpt>
      <trkpt lat="38.32341000" lon="-6.32046400">
        <ele>512.00000</ele>
      </trkpt>
      <trkpt lat="38.32335700" lon="-6.32044100">
        <ele>512.00000</ele>
      </trkpt>
      <trkpt lat="38.32329600" lon="-6.32040300">
        <ele>513.00000</ele>
      </trkpt>
      <trkpt lat="38.32327700" lon="-6.32039500">
        <ele>513.00000</ele>
      </trkpt>
      <trkpt lat="38.32319900" lon="-6.32035300">
        <ele>513.00000</ele>
      </trkpt>
      <trkpt lat="38.32311900" lon="-6.32031399">
        <ele>513.00000</ele>
      </trkpt>
      <trkpt lat="38.32305400" lon="-6.32027700">
        <ele>514.00000</ele>
      </trkpt>
      <trkpt lat="38.32299900" lon="-6.32024499">
        <ele>514.00000</ele>
      </trkpt>
      <trkpt lat="38.32287800" lon="-6.32019000">
        <ele>515.00000</ele>
      </trkpt>
      <trkpt lat="38.32285600" lon="-6.32018100">
        <ele>515.00000</ele>
      </trkpt>
      <trkpt lat="38.32268000" lon="-6.32009300">
        <ele>516.00000</ele>
      </trkpt>
      <trkpt lat="38.32265700" lon="-6.32008300">
        <ele>516.00000</ele>
      </trkpt>
      <trkpt lat="38.32254400" lon="-6.32003200">
        <ele>516.00000</ele>
      </trkpt>
      <trkpt lat="38.32246000" lon="-6.31999299">
        <ele>517.00000</ele>
      </trkpt>
      <trkpt lat="38.32240100" lon="-6.31996200">
        <ele>517.00000</ele>
      </trkpt>
      <trkpt lat="38.32233200" lon="-6.31992900">
        <ele>517.00000</ele>
      </trkpt>
      <trkpt lat="38.32231500" lon="-6.31992000">
        <ele>518.00000</ele>
      </trkpt>
      <trkpt lat="38.32229500" lon="-6.31990700">
        <ele>518.00000</ele>
      </trkpt>
      <trkpt lat="38.32223000" lon="-6.31987600">
        <ele>518.00000</ele>
      </trkpt>
      <trkpt lat="38.32214700" lon="-6.31983599">
        <ele>518.00000</ele>
      </trkpt>
      <trkpt lat="38.32204200" lon="-6.31978600">
        <ele>519.00000</ele>
      </trkpt>
      <trkpt lat="38.32200400" lon="-6.31976700">
        <ele>519.00000</ele>
      </trkpt>
      <trkpt lat="38.32189900" lon="-6.31971700">
        <ele>520.00000</ele>
      </trkpt>
      <trkpt lat="38.32183700" lon="-6.31968500">
        <ele>520.00000</ele>
      </trkpt>
      <trkpt lat="38.32160400" lon="-6.31956900">
        <ele>521.00000</ele>
      </trkpt>
      <trkpt lat="38.32158200" lon="-6.31956000">
        <ele>521.00000</ele>
      </trkpt>
      <trkpt lat="38.32150500" lon="-6.31953200">
        <ele>522.00000</ele>
      </trkpt>
      <trkpt lat="38.32139000" lon="-6.31948000">
        <ele>523.00000</ele>
      </trkpt>
      <trkpt lat="38.32131800" lon="-6.31945400">
        <ele>523.00000</ele>
      </trkpt>
      <trkpt lat="38.32117700" lon="-6.31939900">
        <ele>522.00000</ele>
      </trkpt>
      <trkpt lat="38.32099500" lon="-6.31935100">
        <ele>522.00000</ele>
      </trkpt>
      <trkpt lat="38.32078800" lon="-6.31928300">
        <ele>523.00000</ele>
      </trkpt>
      <trkpt lat="38.32068600" lon="-6.31924000">
        <ele>523.00000</ele>
      </trkpt>
      <trkpt lat="38.32056200" lon="-6.31919000">
        <ele>523.00000</ele>
      </trkpt>
      <trkpt lat="38.32053300" lon="-6.31917500">
        <ele>523.00000</ele>
      </trkpt>
      <trkpt lat="38.32039900" lon="-6.31909900">
        <ele>523.00000</ele>
      </trkpt>
      <trkpt lat="38.32035900" lon="-6.31907100">
        <ele>524.00000</ele>
      </trkpt>
      <trkpt lat="38.32017200" lon="-6.31896200">
        <ele>525.00000</ele>
      </trkpt>
      <trkpt lat="38.32015500" lon="-6.31895200">
        <ele>525.00000</ele>
      </trkpt>
      <trkpt lat="38.32008600" lon="-6.31891800">
        <ele>526.00000</ele>
      </trkpt>
      <trkpt lat="38.32005500" lon="-6.31890200">
        <ele>526.00000</ele>
      </trkpt>
      <trkpt lat="38.32000300" lon="-6.31887500">
        <ele>527.00000</ele>
      </trkpt>
      <trkpt lat="38.31991000" lon="-6.31882600">
        <ele>528.00000</ele>
      </trkpt>
      <trkpt lat="38.31986300" lon="-6.31880800">
        <ele>529.00000</ele>
      </trkpt>
      <trkpt lat="38.31983900" lon="-6.31879300">
        <ele>530.00000</ele>
      </trkpt>
      <trkpt lat="38.31978300" lon="-6.31876499">
        <ele>531.00000</ele>
      </trkpt>
      <trkpt lat="38.31977000" lon="-6.31875800">
        <ele>531.00000</ele>
      </trkpt>
      <trkpt lat="38.31969500" lon="-6.31872200">
        <ele>532.00000</ele>
      </trkpt>
      <trkpt lat="38.31968600" lon="-6.31871500">
        <ele>532.00000</ele>
      </trkpt>
      <trkpt lat="38.31963600" lon="-6.31869300">
        <ele>533.00000</ele>
      </trkpt>
      <trkpt lat="38.31961200" lon="-6.31868300">
        <ele>533.00000</ele>
      </trkpt>
      <trkpt lat="38.31952800" lon="-6.31864900">
        <ele>534.00000</ele>
      </trkpt>
      <trkpt lat="38.31951500" lon="-6.31864199">
        <ele>534.00000</ele>
      </trkpt>
      <trkpt lat="38.31941300" lon="-6.31859900">
        <ele>534.00000</ele>
      </trkpt>
      <trkpt lat="38.31940000" lon="-6.31859200">
        <ele>534.00000</ele>
      </trkpt>
      <trkpt lat="38.31936000" lon="-6.31857200">
        <ele>534.00000</ele>
      </trkpt>
      <trkpt lat="38.31932200" lon="-6.31855300">
        <ele>534.00000</ele>
      </trkpt>
      <trkpt lat="38.31931000" lon="-6.31854800">
        <ele>534.00000</ele>
      </trkpt>
      <trkpt lat="38.31925900" lon="-6.31853200">
        <ele>534.00000</ele>
      </trkpt>
      <trkpt lat="38.31921900" lon="-6.31852000">
        <ele>534.00000</ele>
      </trkpt>
      <trkpt lat="38.31920600" lon="-6.31851700">
        <ele>534.00000</ele>
      </trkpt>
      <trkpt lat="38.31919300" lon="-6.31851400">
        <ele>534.00000</ele>
      </trkpt>
      <trkpt lat="38.31916400" lon="-6.31850200">
        <ele>535.00000</ele>
      </trkpt>
      <trkpt lat="38.31915000" lon="-6.31849700">
        <ele>535.00000</ele>
      </trkpt>
      <trkpt lat="38.31905700" lon="-6.31846400">
        <ele>535.00000</ele>
      </trkpt>
      <trkpt lat="38.31892800" lon="-6.31841300">
        <ele>536.00000</ele>
      </trkpt>
      <trkpt lat="38.31890300" lon="-6.31840600">
        <ele>536.00000</ele>
      </trkpt>
      <trkpt lat="38.31882200" lon="-6.31837400">
        <ele>536.00000</ele>
      </trkpt>
      <trkpt lat="38.31880900" lon="-6.31837000">
        <ele>536.00000</ele>
      </trkpt>
      <trkpt lat="38.31877800" lon="-6.31836300">
        <ele>537.00000</ele>
      </trkpt>
      <trkpt lat="38.31868800" lon="-6.31832099">
        <ele>538.00000</ele>
      </trkpt>
      <trkpt lat="38.31865900" lon="-6.31831199">
        <ele>538.00000</ele>
      </trkpt>
      <trkpt lat="38.31860300" lon="-6.31830200">
        <ele>539.00000</ele>
      </trkpt>
      <trkpt lat="38.31857000" lon="-6.31829000">
        <ele>539.00000</ele>
      </trkpt>
      <trkpt lat="38.31854500" lon="-6.31828000">
        <ele>539.00000</ele>
      </trkpt>
      <trkpt lat="38.31851500" lon="-6.31827100">
        <ele>539.00000</ele>
      </trkpt>
      <trkpt lat="38.31845800" lon="-6.31825000">
        <ele>540.00000</ele>
      </trkpt>
      <trkpt lat="38.31841500" lon="-6.31823600">
        <ele>540.00000</ele>
      </trkpt>
      <trkpt lat="38.31832800" lon="-6.31820200">
        <ele>541.00000</ele>
      </trkpt>
      <trkpt lat="38.31825400" lon="-6.31818299">
        <ele>541.00000</ele>
      </trkpt>
      <trkpt lat="38.31822300" lon="-6.31817500">
        <ele>541.00000</ele>
      </trkpt>
      <trkpt lat="38.31817000" lon="-6.31815300">
        <ele>541.00000</ele>
      </trkpt>
      <trkpt lat="38.31815100" lon="-6.31814600">
        <ele>541.00000</ele>
      </trkpt>
      <trkpt lat="38.31801800" lon="-6.31810600">
        <ele>542.00000</ele>
      </trkpt>
      <trkpt lat="38.31799500" lon="-6.31809900">
        <ele>542.00000</ele>
      </trkpt>
      <trkpt lat="38.31792500" lon="-6.31807500">
        <ele>542.00000</ele>
      </trkpt>
      <trkpt lat="38.31786600" lon="-6.31805500">
        <ele>541.00000</ele>
      </trkpt>
      <trkpt lat="38.31779400" lon="-6.31803000">
        <ele>541.00000</ele>
      </trkpt>
      <trkpt lat="38.31773000" lon="-6.31800900">
        <ele>542.00000</ele>
      </trkpt>
      <trkpt lat="38.31770200" lon="-6.31800000">
        <ele>542.00000</ele>
      </trkpt>
      <trkpt lat="38.31763600" lon="-6.31797800">
        <ele>542.00000</ele>
      </trkpt>
      <trkpt lat="38.31761300" lon="-6.31797100">
        <ele>542.00000</ele>
      </trkpt>
      <trkpt lat="38.31742400" lon="-6.31790900">
        <ele>542.00000</ele>
      </trkpt>
      <trkpt lat="38.31724600" lon="-6.31785100">
        <ele>543.00000</ele>
      </trkpt>
      <trkpt lat="38.31718600" lon="-6.31783000">
        <ele>543.00000</ele>
      </trkpt>
      <trkpt lat="38.31699800" lon="-6.31778400">
        <ele>543.00000</ele>
      </trkpt>
      <trkpt lat="38.31675600" lon="-6.31776800">
        <ele>542.00000</ele>
      </trkpt>
      <trkpt lat="38.31644500" lon="-6.31776499">
        <ele>542.00000</ele>
      </trkpt>
      <trkpt lat="38.31624800" lon="-6.31776700">
        <ele>541.00000</ele>
      </trkpt>
      <trkpt lat="38.31610000" lon="-6.31777200">
        <ele>540.00000</ele>
      </trkpt>
      <trkpt lat="38.31601000" lon="-6.31777700">
        <ele>539.00000</ele>
      </trkpt>
      <trkpt lat="38.31593500" lon="-6.31778200">
        <ele>539.00000</ele>
      </trkpt>
      <trkpt lat="38.31571800" lon="-6.31781300">
        <ele>537.00000</ele>
      </trkpt>
      <trkpt lat="38.31562800" lon="-6.31783300">
        <ele>536.00000</ele>
      </trkpt>
      <trkpt lat="38.31555600" lon="-6.31785299">
        <ele>535.00000</ele>
      </trkpt>
      <trkpt lat="38.31531000" lon="-6.31793700">
        <ele>533.00000</ele>
      </trkpt>
      <trkpt lat="38.31515600" lon="-6.31794500">
        <ele>534.00000</ele>
      </trkpt>
      <trkpt lat="38.31506500" lon="-6.31791500">
        <ele>535.00000</ele>
      </trkpt>
      <trkpt lat="38.31482100" lon="-6.31778900">
        <ele>536.00000</ele>
      </trkpt>
      <trkpt lat="38.31477900" lon="-6.31777400">
        <ele>536.00000</ele>
      </trkpt>
      <trkpt lat="38.31462000" lon="-6.31770599">
        <ele>536.00000</ele>
      </trkpt>
      <trkpt lat="38.31443200" lon="-6.31763600">
        <ele>536.00000</ele>
      </trkpt>
      <trkpt lat="38.31439700" lon="-6.31762799">
        <ele>536.00000</ele>
      </trkpt>
      <trkpt lat="38.31420100" lon="-6.31757300">
        <ele>537.00000</ele>
      </trkpt>
      <trkpt lat="38.31391700" lon="-6.31750399">
        <ele>537.00000</ele>
      </trkpt>
      <trkpt lat="38.31385500" lon="-6.31749400">
        <ele>537.00000</ele>
      </trkpt>
      <trkpt lat="38.31365000" lon="-6.31745400">
        <ele>537.00000</ele>
      </trkpt>
      <trkpt lat="38.31353900" lon="-6.31743400">
        <ele>538.00000</ele>
      </trkpt>
      <trkpt lat="38.31340700" lon="-6.31743600">
        <ele>538.00000</ele>
      </trkpt>
      <trkpt lat="38.31330900" lon="-6.31743100">
        <ele>538.00000</ele>
      </trkpt>
      <trkpt lat="38.31296000" lon="-6.31738500">
        <ele>541.00000</ele>
      </trkpt>
      <trkpt lat="38.31285200" lon="-6.31735600">
        <ele>541.00000</ele>
      </trkpt>
      <trkpt lat="38.31268800" lon="-6.31731899">
        <ele>541.00000</ele>
      </trkpt>
      <trkpt lat="38.31257400" lon="-6.31729699">
        <ele>541.00000</ele>
      </trkpt>
      <trkpt lat="38.31252300" lon="-6.31728200">
        <ele>541.00000</ele>
      </trkpt>
      <trkpt lat="38.31241200" lon="-6.31723999">
        <ele>541.00000</ele>
      </trkpt>
      <trkpt lat="38.31236700" lon="-6.31721600">
        <ele>541.00000</ele>
      </trkpt>
      <trkpt lat="38.31232600" lon="-6.31720699">
        <ele>541.00000</ele>
      </trkpt>
      <trkpt lat="38.31223900" lon="-6.31718000">
        <ele>541.00000</ele>
      </trkpt>
      <trkpt lat="38.31216400" lon="-6.31715700">
        <ele>542.00000</ele>
      </trkpt>
      <trkpt lat="38.31210400" lon="-6.31714500">
        <ele>542.00000</ele>
      </trkpt>
      <trkpt lat="38.31208500" lon="-6.31713799">
        <ele>543.00000</ele>
      </trkpt>
      <trkpt lat="38.31200600" lon="-6.31712200">
        <ele>543.00000</ele>
      </trkpt>
      <trkpt lat="38.31196700" lon="-6.31712000">
        <ele>544.00000</ele>
      </trkpt>
      <trkpt lat="38.31191400" lon="-6.31712800">
        <ele>544.00000</ele>
      </trkpt>
      <trkpt lat="38.31184900" lon="-6.31713500">
        <ele>544.00000</ele>
      </trkpt>
      <trkpt lat="38.31179900" lon="-6.31713700">
        <ele>545.00000</ele>
      </trkpt>
      <trkpt lat="38.31178000" lon="-6.31713900">
        <ele>545.00000</ele>
      </trkpt>
      <trkpt lat="38.31171800" lon="-6.31714400">
        <ele>545.00000</ele>
      </trkpt>
      <trkpt lat="38.31168800" lon="-6.31713799">
        <ele>545.00000</ele>
      </trkpt>
      <trkpt lat="38.31161800" lon="-6.31712500">
        <ele>546.00000</ele>
      </trkpt>
      <trkpt lat="38.31158900" lon="-6.31711499">
        <ele>546.00000</ele>
      </trkpt>
      <trkpt lat="38.31156300" lon="-6.31710900">
        <ele>546.00000</ele>
      </trkpt>
      <trkpt lat="38.31153700" lon="-6.31709900">
        <ele>546.00000</ele>
      </trkpt>
      <trkpt lat="38.31152300" lon="-6.31709299">
        <ele>547.00000</ele>
      </trkpt>
      <trkpt lat="38.31147900" lon="-6.31707400">
        <ele>547.00000</ele>
      </trkpt>
      <trkpt lat="38.31142800" lon="-6.31705400">
        <ele>547.00000</ele>
      </trkpt>
      <trkpt lat="38.31137400" lon="-6.31700900">
        <ele>548.00000</ele>
      </trkpt>
      <trkpt lat="38.31135600" lon="-6.31698900">
        <ele>548.00000</ele>
      </trkpt>
      <trkpt lat="38.31131600" lon="-6.31696500">
        <ele>548.00000</ele>
      </trkpt>
      <trkpt lat="38.31125500" lon="-6.31693500">
        <ele>548.00000</ele>
      </trkpt>
      <trkpt lat="38.31118700" lon="-6.31690000">
        <ele>549.00000</ele>
      </trkpt>
      <trkpt lat="38.31114900" lon="-6.31687900">
        <ele>549.00000</ele>
      </trkpt>
      <trkpt lat="38.31111400" lon="-6.31685500">
        <ele>549.00000</ele>
      </trkpt>
      <trkpt lat="38.31107000" lon="-6.31683100">
        <ele>549.00000</ele>
      </trkpt>
      <trkpt lat="38.31102500" lon="-6.31679800">
        <ele>549.00000</ele>
      </trkpt>
      <trkpt lat="38.31099500" lon="-6.31678000">
        <ele>549.00000</ele>
      </trkpt>
      <trkpt lat="38.31096000" lon="-6.31675600">
        <ele>549.00000</ele>
      </trkpt>
      <trkpt lat="38.31092700" lon="-6.31673200">
        <ele>549.00000</ele>
      </trkpt>
      <trkpt lat="38.31087700" lon="-6.31670900">
        <ele>549.00000</ele>
      </trkpt>
      <trkpt lat="38.31082700" lon="-6.31669000">
        <ele>549.00000</ele>
      </trkpt>
      <trkpt lat="38.31078100" lon="-6.31667300">
        <ele>549.00000</ele>
      </trkpt>
      <trkpt lat="38.31073500" lon="-6.31666099">
        <ele>549.00000</ele>
      </trkpt>
      <trkpt lat="38.31063700" lon="-6.31663900">
        <ele>549.00000</ele>
      </trkpt>
      <trkpt lat="38.31049100" lon="-6.31661499">
        <ele>549.00000</ele>
      </trkpt>
      <trkpt lat="38.31035700" lon="-6.31660600">
        <ele>549.00000</ele>
      </trkpt>
      <trkpt lat="38.31026500" lon="-6.31661400">
        <ele>549.00000</ele>
      </trkpt>
      <trkpt lat="38.31023900" lon="-6.31661800">
        <ele>549.00000</ele>
      </trkpt>
      <trkpt lat="38.31001300" lon="-6.31665600">
        <ele>550.00000</ele>
      </trkpt>
      <trkpt lat="38.30983000" lon="-6.31669700">
        <ele>549.00000</ele>
      </trkpt>
      <trkpt lat="38.30973100" lon="-6.31673600">
        <ele>548.00000</ele>
      </trkpt>
      <trkpt lat="38.30964200" lon="-6.31678100">
        <ele>548.00000</ele>
      </trkpt>
      <trkpt lat="38.30953100" lon="-6.31685500">
        <ele>547.00000</ele>
      </trkpt>
      <trkpt lat="38.30943100" lon="-6.31694200">
        <ele>546.00000</ele>
      </trkpt>
      <trkpt lat="38.30938700" lon="-6.31698000">
        <ele>547.00000</ele>
      </trkpt>
      <trkpt lat="38.30914400" lon="-6.31719600">
        <ele>547.00000</ele>
      </trkpt>
      <trkpt lat="38.30909500" lon="-6.31723200">
        <ele>548.00000</ele>
      </trkpt>
      <trkpt lat="38.30896300" lon="-6.31731500">
        <ele>548.00000</ele>
      </trkpt>
      <trkpt lat="38.30879700" lon="-6.31737700">
        <ele>548.00000</ele>
      </trkpt>
      <trkpt lat="38.30853300" lon="-6.31742299">
        <ele>548.00000</ele>
      </trkpt>
      <trkpt lat="38.30848900" lon="-6.31743100">
        <ele>549.00000</ele>
      </trkpt>
      <trkpt lat="38.30843900" lon="-6.31743700">
        <ele>549.00000</ele>
      </trkpt>
      <trkpt lat="38.30828100" lon="-6.31744800">
        <ele>549.00000</ele>
      </trkpt>
      <trkpt lat="38.30795500" lon="-6.31750800">
        <ele>549.00000</ele>
      </trkpt>
      <trkpt lat="38.30775100" lon="-6.31756500">
        <ele>549.00000</ele>
      </trkpt>
      <trkpt lat="38.30766900" lon="-6.31759300">
        <ele>548.00000</ele>
      </trkpt>
      <trkpt lat="38.30741800" lon="-6.31768100">
        <ele>548.00000</ele>
      </trkpt>
      <trkpt lat="38.30729200" lon="-6.31772500">
        <ele>548.00000</ele>
      </trkpt>
      <trkpt lat="38.30711200" lon="-6.31779600">
        <ele>547.00000</ele>
      </trkpt>
      <trkpt lat="38.30703700" lon="-6.31781900">
        <ele>547.00000</ele>
      </trkpt>
      <trkpt lat="38.30694500" lon="-6.31783000">
        <ele>547.00000</ele>
      </trkpt>
      <trkpt lat="38.30679300" lon="-6.31781500">
        <ele>547.00000</ele>
      </trkpt>
      <trkpt lat="38.30668200" lon="-6.31778699">
        <ele>547.00000</ele>
      </trkpt>
      <trkpt lat="38.30651000" lon="-6.31775700">
        <ele>547.00000</ele>
      </trkpt>
      <trkpt lat="38.30643400" lon="-6.31774000">
        <ele>547.00000</ele>
      </trkpt>
      <trkpt lat="38.30618100" lon="-6.31768100">
        <ele>548.00000</ele>
      </trkpt>
      <trkpt lat="38.30608300" lon="-6.31766000">
        <ele>549.00000</ele>
      </trkpt>
      <trkpt lat="38.30589800" lon="-6.31762000">
        <ele>550.00000</ele>
      </trkpt>
      <trkpt lat="38.30587200" lon="-6.31761400">
        <ele>550.00000</ele>
      </trkpt>
      <trkpt lat="38.30572300" lon="-6.31758900">
        <ele>551.00000</ele>
      </trkpt>
      <trkpt lat="38.30567800" lon="-6.31757900">
        <ele>551.00000</ele>
      </trkpt>
      <trkpt lat="38.30560600" lon="-6.31756800">
        <ele>552.00000</ele>
      </trkpt>
      <trkpt lat="38.30553300" lon="-6.31755500">
        <ele>552.00000</ele>
      </trkpt>
      <trkpt lat="38.30551300" lon="-6.31755400">
        <ele>552.00000</ele>
      </trkpt>
      <trkpt lat="38.30546100" lon="-6.31754800">
        <ele>552.00000</ele>
      </trkpt>
      <trkpt lat="38.30534300" lon="-6.31753400">
        <ele>553.00000</ele>
      </trkpt>
      <trkpt lat="38.30532000" lon="-6.31753200">
        <ele>553.00000</ele>
      </trkpt>
      <trkpt lat="38.30527900" lon="-6.31752900">
        <ele>553.00000</ele>
      </trkpt>
      <trkpt lat="38.30510500" lon="-6.31752100">
        <ele>553.00000</ele>
      </trkpt>
      <trkpt lat="38.30508100" lon="-6.31751800">
        <ele>553.00000</ele>
      </trkpt>
      <trkpt lat="38.30498400" lon="-6.31751000">
        <ele>553.00000</ele>
      </trkpt>
      <trkpt lat="38.30494100" lon="-6.31750800">
        <ele>553.00000</ele>
      </trkpt>
      <trkpt lat="38.30483800" lon="-6.31751200">
        <ele>553.00000</ele>
      </trkpt>
      <trkpt lat="38.30469200" lon="-6.31750600">
        <ele>553.00000</ele>
      </trkpt>
      <trkpt lat="38.30463500" lon="-6.31750600">
        <ele>553.00000</ele>
      </trkpt>
      <trkpt lat="38.30453000" lon="-6.31750800">
        <ele>553.00000</ele>
      </trkpt>
      <trkpt lat="38.30439500" lon="-6.31749700">
        <ele>553.00000</ele>
      </trkpt>
      <trkpt lat="38.30422200" lon="-6.31749500">
        <ele>553.00000</ele>
      </trkpt>
      <trkpt lat="38.30417400" lon="-6.31749500">
        <ele>553.00000</ele>
      </trkpt>
      <trkpt lat="38.30409100" lon="-6.31749199">
        <ele>554.00000</ele>
      </trkpt>
      <trkpt lat="38.30393300" lon="-6.31747700">
        <ele>554.00000</ele>
      </trkpt>
      <trkpt lat="38.30379000" lon="-6.31748200">
        <ele>554.00000</ele>
      </trkpt>
      <trkpt lat="38.30372500" lon="-6.31748500">
        <ele>554.00000</ele>
      </trkpt>
      <trkpt lat="38.30366900" lon="-6.31748700">
        <ele>554.00000</ele>
      </trkpt>
      <trkpt lat="38.30351200" lon="-6.31749300">
        <ele>555.00000</ele>
      </trkpt>
      <trkpt lat="38.30340700" lon="-6.31749800">
        <ele>555.00000</ele>
      </trkpt>
      <trkpt lat="38.30324000" lon="-6.31750000">
        <ele>556.00000</ele>
      </trkpt>
      <trkpt lat="38.30307200" lon="-6.31751299">
        <ele>556.00000</ele>
      </trkpt>
      <trkpt lat="38.30296100" lon="-6.31751000">
        <ele>556.00000</ele>
      </trkpt>
      <trkpt lat="38.30285700" lon="-6.31751800">
        <ele>556.00000</ele>
      </trkpt>
      <trkpt lat="38.30274600" lon="-6.31752200">
        <ele>557.00000</ele>
      </trkpt>
      <trkpt lat="38.30267500" lon="-6.31752300">
        <ele>557.00000</ele>
      </trkpt>
      <trkpt lat="38.30258200" lon="-6.31751299">
        <ele>558.00000</ele>
      </trkpt>
      <trkpt lat="38.30253000" lon="-6.31751100">
        <ele>558.00000</ele>
      </trkpt>
      <trkpt lat="38.30241400" lon="-6.31750800">
        <ele>559.00000</ele>
      </trkpt>
      <trkpt lat="38.30236600" lon="-6.31750900">
        <ele>560.00000</ele>
      </trkpt>
      <trkpt lat="38.30232800" lon="-6.31750800">
        <ele>560.00000</ele>
      </trkpt>
      <trkpt lat="38.30219800" lon="-6.31750700">
        <ele>561.00000</ele>
      </trkpt>
      <trkpt lat="38.30209200" lon="-6.31751000">
        <ele>561.00000</ele>
      </trkpt>
      <trkpt lat="38.30200900" lon="-6.31754500">
        <ele>561.00000</ele>
      </trkpt>
      <trkpt lat="38.30190800" lon="-6.31757800">
        <ele>561.00000</ele>
      </trkpt>
      <trkpt lat="38.30161900" lon="-6.31763000">
        <ele>561.00000</ele>
      </trkpt>
      <trkpt lat="38.30144500" lon="-6.31766000">
        <ele>561.00000</ele>
      </trkpt>
      <trkpt lat="38.30131300" lon="-6.31764500">
        <ele>561.00000</ele>
      </trkpt>
      <trkpt lat="38.30123400" lon="-6.31765900">
        <ele>561.00000</ele>
      </trkpt>
      <trkpt lat="38.30122000" lon="-6.31764100">
        <ele>561.00000</ele>
      </trkpt>
      <trkpt lat="38.30118900" lon="-6.31758100">
        <ele>561.00000</ele>
      </trkpt>
      <trkpt lat="38.30113100" lon="-6.31752600">
        <ele>561.00000</ele>
      </trkpt>
      <trkpt lat="38.30098900" lon="-6.31751600">
        <ele>561.00000</ele>
      </trkpt>
      <trkpt lat="38.30078100" lon="-6.31751299">
        <ele>561.00000</ele>
      </trkpt>
      <trkpt lat="38.30070600" lon="-6.31750800">
        <ele>561.00000</ele>
      </trkpt>
      <trkpt lat="38.30055700" lon="-6.31752499">
        <ele>561.00000</ele>
      </trkpt>
      <trkpt lat="38.30046400" lon="-6.31760000">
        <ele>562.00000</ele>
      </trkpt>
      <trkpt lat="38.30045600" lon="-6.31760000">
        <ele>562.00000</ele>
      </trkpt>
      <trkpt lat="38.30050198" lon="-6.31770596">
        <ele>562.00000</ele>
      </trkpt>
      <trkpt lat="38.30042895" lon="-6.31791698">
        <ele>563.00000</ele>
      </trkpt>
      <trkpt lat="38.30032150" lon="-6.31800271">
        <ele>563.00000</ele>
      </trkpt>
      <trkpt lat="38.29984301" lon="-6.31812370">
        <ele>565.00000</ele>
      </trkpt>
      <trkpt lat="38.29935903" lon="-6.31820575">
        <ele>565.00000</ele>
      </trkpt>
      <trkpt lat="38.29862166" lon="-6.31826306">
        <ele>569.00000</ele>
      </trkpt>
      <trkpt lat="38.29599267" lon="-6.31855837">
        <ele>571.00000</ele>
      </trkpt>
      <trkpt lat="38.29511644" lon="-6.31860870">
        <ele>572.00000</ele>
      </trkpt>
      <trkpt lat="38.29267860" lon="-6.31892704">
        <ele>575.00000</ele>
      </trkpt>
      <trkpt lat="38.29102903" lon="-6.31906228">
        <ele>584.00000</ele>
      </trkpt>
      <trkpt lat="38.28846288" lon="-6.31965334">
        <ele>592.00000</ele>
      </trkpt>
      <trkpt lat="38.28794284" lon="-6.31973854">
        <ele>593.00000</ele>
      </trkpt>
      <trkpt lat="38.28702960" lon="-6.31975913">
        <ele>593.00000</ele>
      </trkpt>
      <trkpt lat="38.28628113" lon="-6.31968237">
        <ele>591.00000</ele>
      </trkpt>
      <trkpt lat="38.28583490" lon="-6.31950325">
        <ele>591.00000</ele>
      </trkpt>
      <trkpt lat="38.28524042" lon="-6.31901376">
        <ele>589.00000</ele>
      </trkpt>
      <trkpt lat="38.28524043" lon="-6.31898280">
        <ele>589.00000</ele>
      </trkpt>
      <trkpt lat="38.28455175" lon="-6.31851285">
        <ele>587.00000</ele>
      </trkpt>
      <trkpt lat="38.28423126" lon="-6.31837580">
        <ele>587.00000</ele>
      </trkpt>
      <trkpt lat="38.28213919" lon="-6.31795582">
        <ele>583.00000</ele>
      </trkpt>
      <trkpt lat="38.28160637" lon="-6.31782870">
        <ele>585.00000</ele>
      </trkpt>
      <trkpt lat="38.28115878" lon="-6.31750777">
        <ele>585.00000</ele>
      </trkpt>
      <trkpt lat="38.28114830" lon="-6.31746854">
        <ele>585.00000</ele>
      </trkpt>
      <trkpt lat="38.28046526" lon="-6.31687533">
        <ele>582.00000</ele>
      </trkpt>
      <trkpt lat="38.27959573" lon="-6.31618254">
        <ele>579.00000</ele>
      </trkpt>
      <trkpt lat="38.27811140" lon="-6.31572306">
        <ele>575.00000</ele>
      </trkpt>
      <trkpt lat="38.27694342" lon="-6.31568089">
        <ele>572.00000</ele>
      </trkpt>
      <trkpt lat="38.27618622" lon="-6.31583229">
        <ele>571.00000</ele>
      </trkpt>
      <trkpt lat="38.27511830" lon="-6.31511037">
        <ele>568.00000</ele>
      </trkpt>
      <trkpt lat="38.27386724" lon="-6.31463069">
        <ele>570.00000</ele>
      </trkpt>
      <trkpt lat="38.27173879" lon="-6.31344040">
        <ele>575.00000</ele>
      </trkpt>
      <trkpt lat="38.27149518" lon="-6.31334896">
        <ele>576.00000</ele>
      </trkpt>
      <trkpt lat="38.27050309" lon="-6.31332560">
        <ele>578.00000</ele>
      </trkpt>
      <trkpt lat="38.26919314" lon="-6.31314074">
        <ele>580.00000</ele>
      </trkpt>
      <trkpt lat="38.26475645" lon="-6.31194970">
        <ele>590.00000</ele>
      </trkpt>
      <trkpt lat="38.26261850" lon="-6.31132394">
        <ele>591.00000</ele>
      </trkpt>
      <trkpt lat="38.26156413" lon="-6.31125955">
        <ele>593.00000</ele>
      </trkpt>
      <trkpt lat="38.26008334" lon="-6.31094549">
        <ele>595.00000</ele>
      </trkpt>
      <trkpt lat="38.25844832" lon="-6.31095240">
        <ele>597.00000</ele>
      </trkpt>
      <trkpt lat="38.25697674" lon="-6.31072357">
        <ele>597.00000</ele>
      </trkpt>
      <trkpt lat="38.25519707" lon="-6.31067918">
        <ele>592.00000</ele>
      </trkpt>
      <trkpt lat="38.25365857" lon="-6.31053428">
        <ele>589.00000</ele>
      </trkpt>
      <trkpt lat="38.25287877" lon="-6.31037739">
        <ele>586.00000</ele>
      </trkpt>
      <trkpt lat="38.25178254" lon="-6.31029714">
        <ele>582.00000</ele>
      </trkpt>
      <trkpt lat="38.25082922" lon="-6.31012307">
        <ele>584.00000</ele>
      </trkpt>
      <trkpt lat="38.25058600" lon="-6.30959558">
        <ele>587.00000</ele>
      </trkpt>
      <trkpt lat="38.25047782" lon="-6.30891297">
        <ele>589.00000</ele>
      </trkpt>
      <trkpt lat="38.25060061" lon="-6.30814776">
        <ele>588.00000</ele>
      </trkpt>
      <trkpt lat="38.25076254" lon="-6.30754137">
        <ele>585.00000</ele>
      </trkpt>
      <trkpt lat="38.25109041" lon="-6.30665814">
        <ele>586.00000</ele>
      </trkpt>
      <trkpt lat="38.25135151" lon="-6.30600480">
        <ele>588.00000</ele>
      </trkpt>
      <trkpt lat="38.25154220" lon="-6.30554479">
        <ele>590.00000</ele>
      </trkpt>
      <trkpt lat="38.25119223" lon="-6.30522049">
        <ele>591.00000</ele>
      </trkpt>
      <trkpt lat="38.25126785" lon="-6.30458410">
        <ele>592.00000</ele>
      </trkpt>
      <trkpt lat="38.25126311" lon="-6.30413232">
        <ele>593.00000</ele>
      </trkpt>
      <trkpt lat="38.25124439" lon="-6.30358636">
        <ele>596.00000</ele>
      </trkpt>
      <trkpt lat="38.25130460" lon="-6.30279297">
        <ele>596.00000</ele>
      </trkpt>
      <trkpt lat="38.25129527" lon="-6.30211180">
        <ele>599.00000</ele>
      </trkpt>
      <trkpt lat="38.25117050" lon="-6.30169138">
        <ele>600.00000</ele>
      </trkpt>
      <trkpt lat="38.25064413" lon="-6.30146960">
        <ele>602.00000</ele>
      </trkpt>
      <trkpt lat="38.24985564" lon="-6.30106383">
        <ele>605.00000</ele>
      </trkpt>
      <trkpt lat="38.24894818" lon="-6.30083512">
        <ele>608.00000</ele>
      </trkpt>
      <trkpt lat="38.24825546" lon="-6.30067262">
        <ele>609.00000</ele>
      </trkpt>
      <trkpt lat="38.24768201" lon="-6.30058969">
        <ele>608.00000</ele>
      </trkpt>
      <trkpt lat="38.24738673" lon="-6.30061866">
        <ele>606.00000</ele>
      </trkpt>
      <trkpt lat="38.2474500" lon="-6.3006970">
        <ele>601.6</ele>
        <time>2021-10-20T06:30:54Z</time>
      </trkpt>
      <trkpt lat="38.2474460" lon="-6.3007100">
        <ele>605.2</ele>
        <time>2021-10-20T06:30:55Z</time>
      </trkpt>
      <trkpt lat="38.2475620" lon="-6.3006430">
        <ele>605.8</ele>
        <time>2021-10-20T06:39:08Z</time>
      </trkpt>
      <trkpt lat="38.2475480" lon="-6.3006240">
        <ele>605.8</ele>
        <time>2021-10-20T06:39:09Z</time>
      </trkpt>
      <trkpt lat="38.2475070" lon="-6.3005780">
        <ele>605.8</ele>
        <time>2021-10-20T06:39:11Z</time>
      </trkpt>
      <trkpt lat="38.2474400" lon="-6.3005330">
        <ele>605.8</ele>
        <time>2021-10-20T06:39:14Z</time>
      </trkpt>
      <trkpt lat="38.2473540" lon="-6.3004930">
        <ele>605.8</ele>
        <time>2021-10-20T06:39:17Z</time>
      </trkpt>
      <trkpt lat="38.2472520" lon="-6.3004630">
        <ele>605.6</ele>
        <time>2021-10-20T06:39:20Z</time>
      </trkpt>
      <trkpt lat="38.2471140" lon="-6.3004130">
        <ele>605.2</ele>
        <time>2021-10-20T06:39:24Z</time>
      </trkpt>
      <trkpt lat="38.2469650" lon="-6.3003840">
        <ele>604.4</ele>
        <time>2021-10-20T06:39:28Z</time>
      </trkpt>
      <trkpt lat="38.2468940" lon="-6.3003540">
        <ele>604.2</ele>
        <time>2021-10-20T06:39:30Z</time>
      </trkpt>
      <trkpt lat="38.2468600" lon="-6.3003420">
        <ele>604.2</ele>
        <time>2021-10-20T06:39:31Z</time>
      </trkpt>
      <trkpt lat="38.2466740" lon="-6.3003360">
        <ele>603.0</ele>
        <time>2021-10-20T06:39:37Z</time>
      </trkpt>
      <trkpt lat="38.2465620" lon="-6.3005140">
        <ele>601.8</ele>
        <time>2021-10-20T06:39:43Z</time>
      </trkpt>
      <trkpt lat="38.2464640" lon="-6.3006020">
        <ele>600.6</ele>
        <time>2021-10-20T06:39:48Z</time>
      </trkpt>
      <trkpt lat="38.2463490" lon="-6.3006500">
        <ele>600.0</ele>
        <time>2021-10-20T06:39:53Z</time>
      </trkpt>
      <trkpt lat="38.2462450" lon="-6.3006600">
        <ele>599.4</ele>
        <time>2021-10-20T06:39:57Z</time>
      </trkpt>
      <trkpt lat="38.2461510" lon="-6.3006780">
        <ele>598.8</ele>
        <time>2021-10-20T06:40:02Z</time>
      </trkpt>
      <trkpt lat="38.2461500" lon="-6.3006780">
        <ele>598.6</ele>
        <time>2021-10-20T06:40:04Z</time>
      </trkpt>
      <trkpt lat="38.2462310" lon="-6.3006610">
        <ele>597.6</ele>
        <time>2021-10-20T06:40:20Z</time>
      </trkpt>
      <trkpt lat="38.2462520" lon="-6.3006550">
        <ele>597.8</ele>
        <time>2021-10-20T06:40:21Z</time>
      </trkpt>
      <trkpt lat="38.2463250" lon="-6.3006420">
        <ele>598.0</ele>
        <time>2021-10-20T06:40:24Z</time>
      </trkpt>
      <trkpt lat="38.2463900" lon="-6.3006480">
        <ele>598.6</ele>
        <time>2021-10-20T06:40:27Z</time>
      </trkpt>
      <trkpt lat="38.2464220" lon="-6.3006350">
        <ele>598.8</ele>
        <time>2021-10-20T06:40:29Z</time>
      </trkpt>
      <trkpt lat="38.2464350" lon="-6.3005850">
        <ele>599.0</ele>
        <time>2021-10-20T06:40:31Z</time>
      </trkpt>
      <trkpt lat="38.2463780" lon="-6.3005500">
        <ele>599.4</ele>
        <time>2021-10-20T06:40:34Z</time>
      </trkpt>
      <trkpt lat="38.2462900" lon="-6.3005690">
        <ele>599.6</ele>
        <time>2021-10-20T06:40:37Z</time>
      </trkpt>
      <trkpt lat="38.2462210" lon="-6.3005830">
        <ele>599.6</ele>
        <time>2021-10-20T06:40:39Z</time>
      </trkpt>
      <trkpt lat="38.2460840" lon="-6.3005810">
        <ele>599.6</ele>
        <time>2021-10-20T06:40:43Z</time>
      </trkpt>
      <trkpt lat="38.2459850" lon="-6.3005820">
        <ele>599.6</ele>
        <time>2021-10-20T06:40:46Z</time>
      </trkpt>
      <trkpt lat="38.2458850" lon="-6.3005950">
        <ele>599.2</ele>
        <time>2021-10-20T06:40:49Z</time>
      </trkpt>
      <trkpt lat="38.2457800" lon="-6.3005700">
        <ele>598.8</ele>
        <time>2021-10-20T06:40:52Z</time>
      </trkpt>
      <trkpt lat="38.2456720" lon="-6.3004600">
        <ele>598.4</ele>
        <time>2021-10-20T06:40:56Z</time>
      </trkpt>
      <trkpt lat="38.2456650" lon="-6.3004140">
        <ele>598.2</ele>
        <time>2021-10-20T06:40:57Z</time>
      </trkpt>
      <trkpt lat="38.2456790" lon="-6.3002320">
        <ele>597.4</ele>
        <time>2021-10-20T06:41:01Z</time>
      </trkpt>
      <trkpt lat="38.2457010" lon="-6.3002030">
        <ele>597.4</ele>
        <time>2021-10-20T06:41:02Z</time>
      </trkpt>
      <trkpt lat="38.2458190" lon="-6.3001500">
        <ele>596.4</ele>
        <time>2021-10-20T06:41:06Z</time>
      </trkpt>
      <trkpt lat="38.2460160" lon="-6.3001490">
        <ele>596.2</ele>
        <time>2021-10-20T06:41:13Z</time>
      </trkpt>
      <trkpt lat="38.2461430" lon="-6.3001560">
        <ele>597.0</ele>
        <time>2021-10-20T06:41:18Z</time>
      </trkpt>
      <trkpt lat="38.2461820" lon="-6.3001690">
        <ele>597.4</ele>
        <time>2021-10-20T06:41:20Z</time>
      </trkpt>
      <trkpt lat="38.2462620" lon="-6.3002080">
        <ele>598.6</ele>
        <time>2021-10-20T06:41:24Z</time>
      </trkpt>
      <trkpt lat="38.2462760" lon="-6.3002180">
        <ele>598.8</ele>
        <time>2021-10-20T06:41:25Z</time>
      </trkpt>
      <trkpt lat="38.2462620" lon="-6.3002480">
        <ele>599.0</ele>
        <time>2021-10-20T06:41:28Z</time>
      </trkpt>
      <trkpt lat="38.2462050" lon="-6.3002490">
        <ele>599.4</ele>
        <time>2021-10-20T06:41:31Z</time>
      </trkpt>
      <trkpt lat="38.2461470" lon="-6.3002380">
        <ele>599.4</ele>
        <time>2021-10-20T06:41:34Z</time>
      </trkpt>
      <trkpt lat="38.2461190" lon="-6.3002500">
        <ele>599.4</ele>
        <time>2021-10-20T06:41:38Z</time>
      </trkpt>
      <trkpt lat="38.2459910" lon="-6.3001810">
        <ele>597.2</ele>
        <time>2021-10-20T07:10:01Z</time>
      </trkpt>
      <trkpt lat="38.2459650" lon="-6.3001710">
        <ele>599.0</ele>
        <time>2021-10-20T07:10:02Z</time>
      </trkpt>
      <trkpt lat="38.2458250" lon="-6.3001560">
        <ele>598.6</ele>
        <time>2021-10-20T07:10:07Z</time>
      </trkpt>
      <trkpt lat="38.2457090" lon="-6.3001650">
        <ele>598.0</ele>
        <time>2021-10-20T07:10:11Z</time>
      </trkpt>
      <trkpt lat="38.2456780" lon="-6.3001670">
        <ele>598.0</ele>
        <time>2021-10-20T07:10:12Z</time>
      </trkpt>
      <trkpt lat="38.2456210" lon="-6.3001780">
        <ele>597.6</ele>
        <time>2021-10-20T07:10:14Z</time>
      </trkpt>
      <trkpt lat="38.2454770" lon="-6.3002100">
        <ele>597.0</ele>
        <time>2021-10-20T07:10:18Z</time>
      </trkpt>
      <trkpt lat="38.2454310" lon="-6.3002270">
        <ele>596.8</ele>
        <time>2021-10-20T07:10:19Z</time>
      </trkpt>
      <trkpt lat="38.2452290" lon="-6.3002980">
        <ele>595.6</ele>
        <time>2021-10-20T07:10:24Z</time>
      </trkpt>
      <trkpt lat="38.2451310" lon="-6.3003330">
        <ele>595.0</ele>
        <time>2021-10-20T07:10:27Z</time>
      </trkpt>
      <trkpt lat="38.2449640" lon="-6.3003820">
        <ele>594.4</ele>
        <time>2021-10-20T07:10:31Z</time>
      </trkpt>
      <trkpt lat="38.2448200" lon="-6.3004370">
        <ele>593.8</ele>
        <time>2021-10-20T07:10:35Z</time>
      </trkpt>
      <trkpt lat="38.2447170" lon="-6.3004750">
        <ele>593.2</ele>
        <time>2021-10-20T07:10:38Z</time>
      </trkpt>
      <trkpt lat="38.2446570" lon="-6.3005140">
        <ele>593.0</ele>
        <time>2021-10-20T07:10:40Z</time>
      </trkpt>
      <trkpt lat="38.2444070" lon="-6.3006620">
        <ele>592.2</ele>
        <time>2021-10-20T07:10:48Z</time>
      </trkpt>
      <trkpt lat="38.2443860" lon="-6.3006780">
        <ele>592.0</ele>
        <time>2021-10-20T07:10:49Z</time>
      </trkpt>
      <trkpt lat="38.2443070" lon="-6.3007570">
        <ele>591.8</ele>
        <time>2021-10-20T07:10:54Z</time>
      </trkpt>
      <trkpt lat="38.2442980" lon="-6.3007760">
        <ele>591.6</ele>
        <time>2021-10-20T07:10:56Z</time>
      </trkpt>
      <trkpt lat="38.2442860" lon="-6.3008020">
        <ele>591.4</ele>
        <time>2021-10-20T07:10:58Z</time>
      </trkpt>
      <trkpt lat="38.2442880" lon="-6.3009160">
        <ele>591.2</ele>
        <time>2021-10-20T07:11:04Z</time>
      </trkpt>
      <trkpt lat="38.2443220" lon="-6.3009850">
        <ele>591.2</ele>
        <time>2021-10-20T07:11:07Z</time>
      </trkpt>
      <trkpt lat="38.2443570" lon="-6.3010910">
        <ele>591.2</ele>
        <time>2021-10-20T07:11:11Z</time>
      </trkpt>
      <trkpt lat="38.2444290" lon="-6.3012280">
        <ele>591.4</ele>
        <time>2021-10-20T07:11:17Z</time>
      </trkpt>
      <trkpt lat="38.2444410" lon="-6.3012480">
        <ele>591.4</ele>
        <time>2021-10-20T07:11:18Z</time>
      </trkpt>
      <trkpt lat="38.2444500" lon="-6.3013280">
        <ele>591.4</ele>
        <time>2021-10-20T07:11:21Z</time>
      </trkpt>
      <trkpt lat="38.2444290" lon="-6.3013600">
        <ele>591.6</ele>
        <time>2021-10-20T07:11:23Z</time>
      </trkpt>
      <trkpt lat="38.2442700" lon="-6.3014360">
        <ele>591.8</ele>
        <time>2021-10-20T07:11:30Z</time>
      </trkpt>
      <trkpt lat="38.2440780" lon="-6.3014870">
        <ele>591.8</ele>
        <time>2021-10-20T07:11:36Z</time>
      </trkpt>
      <trkpt lat="38.2438210" lon="-6.3015230">
        <ele>591.6</ele>
        <time>2021-10-20T07:11:44Z</time>
      </trkpt>
      <trkpt lat="38.2435990" lon="-6.3015750">
        <ele>591.2</ele>
        <time>2021-10-20T07:11:51Z</time>
      </trkpt>
      <trkpt lat="38.2434210" lon="-6.3016390">
        <ele>590.8</ele>
        <time>2021-10-20T07:11:57Z</time>
      </trkpt>
      <trkpt lat="38.2432960" lon="-6.3017090">
        <ele>590.8</ele>
        <time>2021-10-20T07:12:02Z</time>
      </trkpt>
      <trkpt lat="38.2431620" lon="-6.3017850">
        <ele>590.8</ele>
        <time>2021-10-20T07:12:07Z</time>
      </trkpt>
      <trkpt lat="38.2431270" lon="-6.3018340">
        <ele>591.0</ele>
        <time>2021-10-20T07:12:09Z</time>
      </trkpt>
      <trkpt lat="38.2430180" lon="-6.3020860">
        <ele>591.6</ele>
        <time>2021-10-20T07:12:18Z</time>
      </trkpt>
      <trkpt lat="38.2429560" lon="-6.3022310">
        <ele>592.0</ele>
        <time>2021-10-20T07:12:23Z</time>
      </trkpt>
      <trkpt lat="38.2429240" lon="-6.3023100">
        <ele>592.2</ele>
        <time>2021-10-20T07:12:26Z</time>
      </trkpt>
      <trkpt lat="38.2428780" lon="-6.3024180">
        <ele>592.4</ele>
        <time>2021-10-20T07:12:30Z</time>
      </trkpt>
      <trkpt lat="38.2428360" lon="-6.3025230">
        <ele>592.6</ele>
        <time>2021-10-20T07:12:35Z</time>
      </trkpt>
      <trkpt lat="38.2428340" lon="-6.3025370">
        <ele>592.6</ele>
        <time>2021-10-20T07:12:36Z</time>
      </trkpt>
      <trkpt lat="38.2428380" lon="-6.3025390">
        <ele>592.6</ele>
        <time>2021-10-20T07:12:38Z</time>
      </trkpt>
      <trkpt lat="38.2428380" lon="-6.3025360">
        <ele>592.8</ele>
        <time>2021-10-20T07:12:39Z</time>
      </trkpt>
      <trkpt lat="38.2428050" lon="-6.3026050">
        <ele>593.0</ele>
        <time>2021-10-20T07:12:44Z</time>
      </trkpt>
      <trkpt lat="38.2427740" lon="-6.3026680">
        <ele>593.0</ele>
        <time>2021-10-20T07:12:46Z</time>
      </trkpt>
      <trkpt lat="38.2427240" lon="-6.3027640">
        <ele>593.0</ele>
        <time>2021-10-20T07:12:49Z</time>
      </trkpt>
      <trkpt lat="38.2426720" lon="-6.3028990">
        <ele>593.0</ele>
        <time>2021-10-20T07:12:53Z</time>
      </trkpt>
      <trkpt lat="38.2425410" lon="-6.3031650">
        <ele>592.8</ele>
        <time>2021-10-20T07:13:02Z</time>
      </trkpt>
      <trkpt lat="38.2424370" lon="-6.3031300">
        <ele>592.6</ele>
        <time>2021-10-20T07:13:06Z</time>
      </trkpt>
      <trkpt lat="38.2422370" lon="-6.3029910">
        <ele>592.4</ele>
        <time>2021-10-20T07:13:13Z</time>
      </trkpt>
      <trkpt lat="38.2422120" lon="-6.3029730">
        <ele>592.4</ele>
        <time>2021-10-20T07:13:14Z</time>
      </trkpt>
      <trkpt lat="38.2420830" lon="-6.3029060">
        <ele>592.2</ele>
        <time>2021-10-20T07:13:19Z</time>
      </trkpt>
      <trkpt lat="38.2420570" lon="-6.3029110">
        <ele>592.2</ele>
        <time>2021-10-20T07:13:20Z</time>
      </trkpt>
      <trkpt lat="38.2420050" lon="-6.3030340">
        <ele>592.0</ele>
        <time>2021-10-20T07:13:24Z</time>
      </trkpt>
      <trkpt lat="38.2419830" lon="-6.3031980">
        <ele>591.8</ele>
        <time>2021-10-20T07:13:28Z</time>
      </trkpt>
      <trkpt lat="38.2419750" lon="-6.3032980">
        <ele>591.4</ele>
        <time>2021-10-20T07:13:30Z</time>
      </trkpt>
      <trkpt lat="38.2419690" lon="-6.3033540">
        <ele>591.2</ele>
        <time>2021-10-20T07:13:31Z</time>
      </trkpt>
      <trkpt lat="38.2419300" lon="-6.3036480">
        <ele>590.4</ele>
        <time>2021-10-20T07:13:36Z</time>
      </trkpt>
      <trkpt lat="38.2419210" lon="-6.3037120">
        <ele>590.0</ele>
        <time>2021-10-20T07:13:37Z</time>
      </trkpt>
      <trkpt lat="38.2419110" lon="-6.3037770">
        <ele>590.0</ele>
        <time>2021-10-20T07:13:38Z</time>
      </trkpt>
      <trkpt lat="38.2418830" lon="-6.3039800">
        <ele>589.0</ele>
        <time>2021-10-20T07:13:41Z</time>
      </trkpt>
      <trkpt lat="38.2418380" lon="-6.3042500">
        <ele>588.0</ele>
        <time>2021-10-20T07:13:45Z</time>
      </trkpt>
      <trkpt lat="38.2418300" lon="-6.3043150">
        <ele>587.8</ele>
        <time>2021-10-20T07:13:46Z</time>
      </trkpt>
      <trkpt lat="38.2417820" lon="-6.3046350">
        <ele>586.8</ele>
        <time>2021-10-20T07:13:51Z</time>
      </trkpt>
      <trkpt lat="38.2417520" lon="-6.3047580">
        <ele>585.8</ele>
        <time>2021-10-20T07:13:53Z</time>
      </trkpt>
      <trkpt lat="38.2417310" lon="-6.3048100">
        <ele>585.6</ele>
        <time>2021-10-20T07:13:54Z</time>
      </trkpt>
      <trkpt lat="38.2417000" lon="-6.3048550">
        <ele>585.2</ele>
        <time>2021-10-20T07:13:55Z</time>
      </trkpt>
      <trkpt lat="38.2416270" lon="-6.3049120">
        <ele>584.4</ele>
        <time>2021-10-20T07:13:57Z</time>
      </trkpt>
      <trkpt lat="38.2415200" lon="-6.3049670">
        <ele>583.2</ele>
        <time>2021-10-20T07:14:01Z</time>
      </trkpt>
      <trkpt lat="38.2414460" lon="-6.3049980">
        <ele>582.2</ele>
        <time>2021-10-20T07:14:05Z</time>
      </trkpt>
      <trkpt lat="38.2413990" lon="-6.3049950">
        <ele>581.8</ele>
        <time>2021-10-20T07:14:07Z</time>
      </trkpt>
      <trkpt lat="38.2413400" lon="-6.3049870">
        <ele>581.0</ele>
        <time>2021-10-20T07:14:10Z</time>
      </trkpt>
      <trkpt lat="38.2411910" lon="-6.3049490">
        <ele>580.2</ele>
        <time>2021-10-20T07:14:17Z</time>
      </trkpt>
      <trkpt lat="38.2411520" lon="-6.3049360">
        <ele>580.0</ele>
        <time>2021-10-20T07:14:19Z</time>
      </trkpt>
      <trkpt lat="38.2411440" lon="-6.3049320">
        <ele>579.6</ele>
        <time>2021-10-20T07:14:22Z</time>
      </trkpt>
      <trkpt lat="38.2411040" lon="-6.3048880">
        <ele>579.2</ele>
        <time>2021-10-20T07:14:30Z</time>
      </trkpt>
      <trkpt lat="38.2410610" lon="-6.3048580">
        <ele>579.2</ele>
        <time>2021-10-20T07:14:32Z</time>
      </trkpt>
      <trkpt lat="38.2409750" lon="-6.3047970">
        <ele>579.0</ele>
        <time>2021-10-20T07:14:35Z</time>
      </trkpt>
      <trkpt lat="38.2408870" lon="-6.3047140">
        <ele>578.8</ele>
        <time>2021-10-20T07:14:38Z</time>
      </trkpt>
      <trkpt lat="38.2407560" lon="-6.3045670">
        <ele>578.8</ele>
        <time>2021-10-20T07:14:43Z</time>
      </trkpt>
      <trkpt lat="38.2406250" lon="-6.3044200">
        <ele>579.6</ele>
        <time>2021-10-20T07:14:50Z</time>
      </trkpt>
      <trkpt lat="38.2405520" lon="-6.3043280">
        <ele>579.8</ele>
        <time>2021-10-20T07:14:55Z</time>
      </trkpt>
      <trkpt lat="38.2405390" lon="-6.3043060">
        <ele>580.0</ele>
        <time>2021-10-20T07:14:56Z</time>
      </trkpt>
      <trkpt lat="38.2404980" lon="-6.3042430">
        <ele>580.4</ele>
        <time>2021-10-20T07:14:59Z</time>
      </trkpt>
      <trkpt lat="38.2404730" lon="-6.3042080">
        <ele>581.0</ele>
        <time>2021-10-20T07:15:01Z</time>
      </trkpt>
      <trkpt lat="38.2404440" lon="-6.3041710">
        <ele>581.2</ele>
        <time>2021-10-20T07:15:03Z</time>
      </trkpt>
      <trkpt lat="38.2404110" lon="-6.3041330">
        <ele>581.4</ele>
        <time>2021-10-20T07:15:05Z</time>
      </trkpt>
      <trkpt lat="38.2403960" lon="-6.3041130">
        <ele>581.6</ele>
        <time>2021-10-20T07:15:06Z</time>
      </trkpt>
      <trkpt lat="38.2403550" lon="-6.3040520">
        <ele>581.8</ele>
        <time>2021-10-20T07:15:09Z</time>
      </trkpt>
      <trkpt lat="38.2403420" lon="-6.3040340">
        <ele>582.0</ele>
        <time>2021-10-20T07:15:10Z</time>
      </trkpt>
      <trkpt lat="38.2402910" lon="-6.3039590">
        <ele>582.4</ele>
        <time>2021-10-20T07:15:14Z</time>
      </trkpt>
      <trkpt lat="38.2402720" lon="-6.3039270">
        <ele>582.4</ele>
        <time>2021-10-20T07:15:16Z</time>
      </trkpt>
      <trkpt lat="38.2402440" lon="-6.3038840">
        <ele>582.6</ele>
        <time>2021-10-20T07:15:19Z</time>
      </trkpt>
      <trkpt lat="38.2402380" lon="-6.3038680">
        <ele>582.6</ele>
        <time>2021-10-20T07:15:20Z</time>
      </trkpt>
      <trkpt lat="38.2402280" lon="-6.3038340">
        <ele>582.6</ele>
        <time>2021-10-20T07:15:22Z</time>
      </trkpt>
      <trkpt lat="38.2401950" lon="-6.3038050">
        <ele>582.8</ele>
        <time>2021-10-20T07:15:25Z</time>
      </trkpt>
      <trkpt lat="38.2401620" lon="-6.3037620">
        <ele>582.8</ele>
        <time>2021-10-20T07:15:28Z</time>
      </trkpt>
      <trkpt lat="38.2401520" lon="-6.3037520">
        <ele>582.8</ele>
        <time>2021-10-20T07:15:29Z</time>
      </trkpt>
      <trkpt lat="38.2401360" lon="-6.3037430">
        <ele>582.8</ele>
        <time>2021-10-20T07:15:30Z</time>
      </trkpt>
      <trkpt lat="38.2399670" lon="-6.3037210">
        <ele>582.8</ele>
        <time>2021-10-20T07:15:38Z</time>
      </trkpt>
      <trkpt lat="38.2397860" lon="-6.3037820">
        <ele>582.0</ele>
        <time>2021-10-20T07:15:45Z</time>
      </trkpt>
      <trkpt lat="38.2395870" lon="-6.3038390">
        <ele>581.4</ele>
        <time>2021-10-20T07:15:50Z</time>
      </trkpt>
      <trkpt lat="38.2394890" lon="-6.3038420">
        <ele>580.8</ele>
        <time>2021-10-20T07:15:52Z</time>
      </trkpt>
      <trkpt lat="38.2393870" lon="-6.3038460">
        <ele>580.6</ele>
        <time>2021-10-20T07:15:54Z</time>
      </trkpt>
      <trkpt lat="38.2392810" lon="-6.3038510">
        <ele>580.4</ele>
        <time>2021-10-20T07:15:56Z</time>
      </trkpt>
      <trkpt lat="38.2391650" lon="-6.3038230">
        <ele>580.0</ele>
        <time>2021-10-20T07:15:58Z</time>
      </trkpt>
      <trkpt lat="38.2390940" lon="-6.3037890">
        <ele>579.2</ele>
        <time>2021-10-20T07:15:59Z</time>
      </trkpt>
      <trkpt lat="38.2390450" lon="-6.3037580">
        <ele>579.0</ele>
        <time>2021-10-20T07:16:00Z</time>
      </trkpt>
      <trkpt lat="38.2389180" lon="-6.3036730">
        <ele>578.0</ele>
        <time>2021-10-20T07:16:02Z</time>
      </trkpt>
      <trkpt lat="38.2387120" lon="-6.3035310">
        <ele>576.8</ele>
        <time>2021-10-20T07:16:05Z</time>
      </trkpt>
      <trkpt lat="38.2386450" lon="-6.3034850">
        <ele>576.6</ele>
        <time>2021-10-20T07:16:06Z</time>
      </trkpt>
      <trkpt lat="38.2384540" lon="-6.3033350">
        <ele>575.8</ele>
        <time>2021-10-20T07:16:09Z</time>
      </trkpt>
      <trkpt lat="38.2382720" lon="-6.3031890">
        <ele>574.8</ele>
        <time>2021-10-20T07:16:12Z</time>
      </trkpt>
      <trkpt lat="38.2380850" lon="-6.3030370">
        <ele>573.6</ele>
        <time>2021-10-20T07:16:15Z</time>
      </trkpt>
      <trkpt lat="38.2378880" lon="-6.3029140">
        <ele>573.0</ele>
        <time>2021-10-20T07:16:18Z</time>
      </trkpt>
      <trkpt lat="38.2378270" lon="-6.3028860">
        <ele>572.6</ele>
        <time>2021-10-20T07:16:19Z</time>
      </trkpt>
      <trkpt lat="38.2377690" lon="-6.3028640">
        <ele>572.4</ele>
        <time>2021-10-20T07:16:20Z</time>
      </trkpt>
      <trkpt lat="38.2376600" lon="-6.3028310">
        <ele>572.2</ele>
        <time>2021-10-20T07:16:22Z</time>
      </trkpt>
      <trkpt lat="38.2374330" lon="-6.3027690">
        <ele>572.0</ele>
        <time>2021-10-20T07:16:27Z</time>
      </trkpt>
      <trkpt lat="38.2373970" lon="-6.3027560">
        <ele>572.2</ele>
        <time>2021-10-20T07:16:28Z</time>
      </trkpt>
      <trkpt lat="38.2372540" lon="-6.3027050">
        <ele>572.4</ele>
        <time>2021-10-20T07:16:33Z</time>
      </trkpt>
      <trkpt lat="38.2371030" lon="-6.3026260">
        <ele>573.6</ele>
        <time>2021-10-20T07:16:39Z</time>
      </trkpt>
      <trkpt lat="38.2370760" lon="-6.3026150">
        <ele>573.8</ele>
        <time>2021-10-20T07:16:40Z</time>
      </trkpt>
      <trkpt lat="38.2369070" lon="-6.3025420">
        <ele>574.2</ele>
        <time>2021-10-20T07:16:47Z</time>
      </trkpt>
      <trkpt lat="38.2367920" lon="-6.3024960">
        <ele>574.6</ele>
        <time>2021-10-20T07:16:52Z</time>
      </trkpt>
      <trkpt lat="38.2367240" lon="-6.3024640">
        <ele>574.8</ele>
        <time>2021-10-20T07:16:55Z</time>
      </trkpt>
      <trkpt lat="38.2365840" lon="-6.3024270">
        <ele>576.0</ele>
        <time>2021-10-20T07:17:01Z</time>
      </trkpt>
      <trkpt lat="38.2365350" lon="-6.3024070">
        <ele>576.2</ele>
        <time>2021-10-20T07:17:03Z</time>
      </trkpt>
      <trkpt lat="38.2363940" lon="-6.3023540">
        <ele>576.6</ele>
        <time>2021-10-20T07:17:09Z</time>
      </trkpt>
      <trkpt lat="38.2363050" lon="-6.3023210">
        <ele>576.8</ele>
        <time>2021-10-20T07:17:13Z</time>
      </trkpt>
      <trkpt lat="38.2362600" lon="-6.3023100">
        <ele>577.0</ele>
        <time>2021-10-20T07:17:15Z</time>
      </trkpt>
      <trkpt lat="38.2362160" lon="-6.3022890">
        <ele>577.0</ele>
        <time>2021-10-20T07:17:17Z</time>
      </trkpt>
      <trkpt lat="38.2361500" lon="-6.3022710">
        <ele>577.2</ele>
        <time>2021-10-20T07:17:20Z</time>
      </trkpt>
      <trkpt lat="38.2360760" lon="-6.3022380">
        <ele>577.4</ele>
        <time>2021-10-20T07:17:23Z</time>
      </trkpt>
      <trkpt lat="38.2360110" lon="-6.3022160">
        <ele>577.6</ele>
        <time>2021-10-20T07:17:26Z</time>
      </trkpt>
      <trkpt lat="38.2359410" lon="-6.3021960">
        <ele>577.8</ele>
        <time>2021-10-20T07:17:29Z</time>
      </trkpt>
      <trkpt lat="38.2359160" lon="-6.3021870">
        <ele>578.0</ele>
        <time>2021-10-20T07:17:30Z</time>
      </trkpt>
      <trkpt lat="38.2358380" lon="-6.3021600">
        <ele>578.0</ele>
        <time>2021-10-20T07:17:33Z</time>
      </trkpt>
      <trkpt lat="38.2357270" lon="-6.3021070">
        <ele>578.2</ele>
        <time>2021-10-20T07:17:38Z</time>
      </trkpt>
      <trkpt lat="38.2355270" lon="-6.3020340">
        <ele>578.6</ele>
        <time>2021-10-20T07:17:46Z</time>
      </trkpt>
      <trkpt lat="38.2353950" lon="-6.3019840">
        <ele>578.8</ele>
        <time>2021-10-20T07:17:51Z</time>
      </trkpt>
      <trkpt lat="38.2353510" lon="-6.3019630">
        <ele>579.0</ele>
        <time>2021-10-20T07:17:53Z</time>
      </trkpt>
      <trkpt lat="38.2351540" lon="-6.3018550">
        <ele>579.6</ele>
        <time>2021-10-20T07:18:01Z</time>
      </trkpt>
      <trkpt lat="38.2350360" lon="-6.3018040">
        <ele>580.2</ele>
        <time>2021-10-20T07:18:06Z</time>
      </trkpt>
      <trkpt lat="38.2349880" lon="-6.3017900">
        <ele>580.2</ele>
        <time>2021-10-20T07:18:08Z</time>
      </trkpt>
      <trkpt lat="38.2348970" lon="-6.3017580">
        <ele>580.4</ele>
        <time>2021-10-20T07:18:12Z</time>
      </trkpt>
      <trkpt lat="38.2348220" lon="-6.3017290">
        <ele>580.6</ele>
        <time>2021-10-20T07:18:15Z</time>
      </trkpt>
      <trkpt lat="38.2346740" lon="-6.3016740">
        <ele>581.2</ele>
        <time>2021-10-20T07:18:21Z</time>
      </trkpt>
      <trkpt lat="38.2346200" lon="-6.3016630">
        <ele>581.2</ele>
        <time>2021-10-20T07:18:23Z</time>
      </trkpt>
      <trkpt lat="38.2344350" lon="-6.3015870">
        <ele>582.0</ele>
        <time>2021-10-20T07:18:31Z</time>
      </trkpt>
      <trkpt lat="38.2344050" lon="-6.3015770">
        <ele>582.2</ele>
        <time>2021-10-20T07:18:32Z</time>
      </trkpt>
      <trkpt lat="38.2342390" lon="-6.3015230">
        <ele>582.6</ele>
        <time>2021-10-20T07:18:39Z</time>
      </trkpt>
      <trkpt lat="38.2341630" lon="-6.3014970">
        <ele>583.0</ele>
        <time>2021-10-20T07:18:42Z</time>
      </trkpt>
      <trkpt lat="38.2340920" lon="-6.3014820">
        <ele>583.0</ele>
        <time>2021-10-20T07:18:45Z</time>
      </trkpt>
      <trkpt lat="38.2340320" lon="-6.3014710">
        <ele>583.4</ele>
        <time>2021-10-20T07:18:48Z</time>
      </trkpt>
      <trkpt lat="38.2339250" lon="-6.3014470">
        <ele>583.4</ele>
        <time>2021-10-20T07:18:52Z</time>
      </trkpt>
      <trkpt lat="38.2337670" lon="-6.3014140">
        <ele>583.6</ele>
        <time>2021-10-20T07:18:57Z</time>
      </trkpt>
      <trkpt lat="38.2335390" lon="-6.3013560">
        <ele>583.4</ele>
        <time>2021-10-20T07:19:03Z</time>
      </trkpt>
      <trkpt lat="38.2332340" lon="-6.3013070">
        <ele>582.6</ele>
        <time>2021-10-20T07:19:09Z</time>
      </trkpt>
      <trkpt lat="38.2331770" lon="-6.3013070">
        <ele>582.4</ele>
        <time>2021-10-20T07:19:10Z</time>
      </trkpt>
      <trkpt lat="38.2331230" lon="-6.3013210">
        <ele>582.2</ele>
        <time>2021-10-20T07:19:11Z</time>
      </trkpt>
      <trkpt lat="38.2330180" lon="-6.3013630">
        <ele>581.6</ele>
        <time>2021-10-20T07:19:13Z</time>
      </trkpt>
      <trkpt lat="38.2329640" lon="-6.3013870">
        <ele>581.0</ele>
        <time>2021-10-20T07:19:14Z</time>
      </trkpt>
      <trkpt lat="38.2327450" lon="-6.3014890">
        <ele>580.4</ele>
        <time>2021-10-20T07:19:18Z</time>
      </trkpt>
      <trkpt lat="38.2326290" lon="-6.3015250">
        <ele>580.2</ele>
        <time>2021-10-20T07:19:20Z</time>
      </trkpt>
      <trkpt lat="38.2325730" lon="-6.3015390">
        <ele>579.8</ele>
        <time>2021-10-20T07:19:21Z</time>
      </trkpt>
      <trkpt lat="38.2322870" lon="-6.3015770">
        <ele>579.0</ele>
        <time>2021-10-20T07:19:26Z</time>
      </trkpt>
      <trkpt lat="38.2322310" lon="-6.3015790">
        <ele>578.8</ele>
        <time>2021-10-20T07:19:27Z</time>
      </trkpt>
      <trkpt lat="38.2321760" lon="-6.3015780">
        <ele>578.4</ele>
        <time>2021-10-20T07:19:28Z</time>
      </trkpt>
      <trkpt lat="38.2318680" lon="-6.3015470">
        <ele>577.8</ele>
        <time>2021-10-20T07:19:34Z</time>
      </trkpt>
      <trkpt lat="38.2318210" lon="-6.3015440">
        <ele>577.6</ele>
        <time>2021-10-20T07:19:35Z</time>
      </trkpt>
      <trkpt lat="38.2317250" lon="-6.3015380">
        <ele>577.4</ele>
        <time>2021-10-20T07:19:37Z</time>
      </trkpt>
      <trkpt lat="38.2314060" lon="-6.3015520">
        <ele>576.6</ele>
        <time>2021-10-20T07:19:43Z</time>
      </trkpt>
      <trkpt lat="38.2312670" lon="-6.3015660">
        <ele>576.4</ele>
        <time>2021-10-20T07:19:46Z</time>
      </trkpt>
      <trkpt lat="38.2310420" lon="-6.3015950">
        <ele>576.0</ele>
        <time>2021-10-20T07:19:51Z</time>
      </trkpt>
      <trkpt lat="38.2308650" lon="-6.3016080">
        <ele>575.8</ele>
        <time>2021-10-20T07:19:55Z</time>
      </trkpt>
      <trkpt lat="38.2305460" lon="-6.3016430">
        <ele>575.4</ele>
        <time>2021-10-20T07:20:02Z</time>
      </trkpt>
      <trkpt lat="38.2304560" lon="-6.3016660">
        <ele>575.2</ele>
        <time>2021-10-20T07:20:04Z</time>
      </trkpt>
      <trkpt lat="38.2302430" lon="-6.3017410">
        <ele>575.2</ele>
        <time>2021-10-20T07:20:09Z</time>
      </trkpt>
      <trkpt lat="38.2301670" lon="-6.3017650">
        <ele>575.2</ele>
        <time>2021-10-20T07:20:11Z</time>
      </trkpt>
      <trkpt lat="38.2299040" lon="-6.3018440">
        <ele>575.4</ele>
        <time>2021-10-20T07:20:18Z</time>
      </trkpt>
      <trkpt lat="38.2298190" lon="-6.3018750">
        <ele>575.4</ele>
        <time>2021-10-20T07:20:20Z</time>
      </trkpt>
      <trkpt lat="38.2296190" lon="-6.3019320">
        <ele>575.2</ele>
        <time>2021-10-20T07:20:24Z</time>
      </trkpt>
      <trkpt lat="38.2292810" lon="-6.3020450">
        <ele>574.0</ele>
        <time>2021-10-20T07:20:29Z</time>
      </trkpt>
      <trkpt lat="38.2292060" lon="-6.3020710">
        <ele>573.6</ele>
        <time>2021-10-20T07:20:30Z</time>
      </trkpt>
      <trkpt lat="38.2290660" lon="-6.3021180">
        <ele>573.0</ele>
        <time>2021-10-20T07:20:32Z</time>
      </trkpt>
      <trkpt lat="38.2287210" lon="-6.3021820">
        <ele>571.6</ele>
        <time>2021-10-20T07:20:36Z</time>
      </trkpt>
      <trkpt lat="38.2284800" lon="-6.3022000">
        <ele>570.0</ele>
        <time>2021-10-20T07:20:39Z</time>
      </trkpt>
      <trkpt lat="38.2282590" lon="-6.3022130">
        <ele>568.8</ele>
        <time>2021-10-20T07:20:42Z</time>
      </trkpt>
      <trkpt lat="38.2280200" lon="-6.3022230">
        <ele>567.6</ele>
        <time>2021-10-20T07:20:45Z</time>
      </trkpt>
      <trkpt lat="38.2279630" lon="-6.3022270">
        <ele>567.4</ele>
        <time>2021-10-20T07:20:46Z</time>
      </trkpt>
      <trkpt lat="38.2276100" lon="-6.3022280">
        <ele>566.8</ele>
        <time>2021-10-20T07:20:51Z</time>
      </trkpt>
      <trkpt lat="38.2275570" lon="-6.3022190">
        <ele>566.8</ele>
        <time>2021-10-20T07:20:52Z</time>
      </trkpt>
      <trkpt lat="38.2274180" lon="-6.3021850">
        <ele>566.6</ele>
        <time>2021-10-20T07:20:54Z</time>
      </trkpt>
      <trkpt lat="38.2271850" lon="-6.3021210">
        <ele>566.0</ele>
        <time>2021-10-20T07:20:58Z</time>
      </trkpt>
      <trkpt lat="38.2270220" lon="-6.3020790">
        <ele>565.4</ele>
        <time>2021-10-20T07:21:01Z</time>
      </trkpt>
      <trkpt lat="38.2268200" lon="-6.3020150">
        <ele>565.0</ele>
        <time>2021-10-20T07:21:05Z</time>
      </trkpt>
      <trkpt lat="38.2265570" lon="-6.3019300">
        <ele>564.4</ele>
        <time>2021-10-20T07:21:10Z</time>
      </trkpt>
      <trkpt lat="38.2263620" lon="-6.3018640">
        <ele>564.2</ele>
        <time>2021-10-20T07:21:13Z</time>
      </trkpt>
      <trkpt lat="38.2260370" lon="-6.3017470">
        <ele>563.2</ele>
        <time>2021-10-20T07:21:18Z</time>
      </trkpt>
      <trkpt lat="38.2259080" lon="-6.3017040">
        <ele>562.8</ele>
        <time>2021-10-20T07:21:20Z</time>
      </trkpt>
      <trkpt lat="38.2257420" lon="-6.3016570">
        <ele>562.0</ele>
        <time>2021-10-20T07:21:22Z</time>
      </trkpt>
      <trkpt lat="38.2255310" lon="-6.3016410">
        <ele>560.6</ele>
        <time>2021-10-20T07:21:25Z</time>
      </trkpt>
      <trkpt lat="38.2253880" lon="-6.3016740">
        <ele>560.0</ele>
        <time>2021-10-20T07:21:27Z</time>
      </trkpt>
      <trkpt lat="38.2253360" lon="-6.3017040">
        <ele>560.0</ele>
        <time>2021-10-20T07:21:28Z</time>
      </trkpt>
      <trkpt lat="38.2252910" lon="-6.3017330">
        <ele>559.8</ele>
        <time>2021-10-20T07:21:29Z</time>
      </trkpt>
      <trkpt lat="38.2252340" lon="-6.3017730">
        <ele>559.6</ele>
        <time>2021-10-20T07:21:31Z</time>
      </trkpt>
      <trkpt lat="38.2252150" lon="-6.3017910">
        <ele>559.6</ele>
        <time>2021-10-20T07:21:32Z</time>
      </trkpt>
      <trkpt lat="38.2251760" lon="-6.3018510">
        <ele>559.8</ele>
        <time>2021-10-20T07:21:35Z</time>
      </trkpt>
      <trkpt lat="38.2251700" lon="-6.3018860">
        <ele>560.0</ele>
        <time>2021-10-20T07:21:37Z</time>
      </trkpt>
      <trkpt lat="38.2251500" lon="-6.3018930">
        <ele>560.4</ele>
        <time>2021-10-20T07:21:39Z</time>
      </trkpt>
      <trkpt lat="38.2251420" lon="-6.3018770">
        <ele>560.6</ele>
        <time>2021-10-20T07:21:40Z</time>
      </trkpt>
      <trkpt lat="38.2251490" lon="-6.3018580">
        <ele>560.8</ele>
        <time>2021-10-20T07:21:41Z</time>
      </trkpt>
      <trkpt lat="38.2252100" lon="-6.3018060">
        <ele>561.0</ele>
        <time>2021-10-20T07:21:44Z</time>
      </trkpt>
      <trkpt lat="38.2253470" lon="-6.3016410">
        <ele>561.0</ele>
        <time>2021-10-20T07:21:49Z</time>
      </trkpt>
      <trkpt lat="38.2253050" lon="-6.3014920">
        <ele>559.8</ele>
        <time>2021-10-20T07:21:52Z</time>
      </trkpt>
      <trkpt lat="38.2252870" lon="-6.3014640">
        <ele>559.4</ele>
        <time>2021-10-20T07:21:53Z</time>
      </trkpt>
      <trkpt lat="38.2251830" lon="-6.3013350">
        <ele>559.0</ele>
        <time>2021-10-20T07:21:58Z</time>
      </trkpt>
      <trkpt lat="38.2250350" lon="-6.3012350">
        <ele>559.2</ele>
        <time>2021-10-20T07:22:04Z</time>
      </trkpt>
      <trkpt lat="38.2249090" lon="-6.3012410">
        <ele>559.8</ele>
        <time>2021-10-20T07:22:09Z</time>
      </trkpt>
      <trkpt lat="38.2248860" lon="-6.3012500">
        <ele>559.8</ele>
        <time>2021-10-20T07:22:10Z</time>
      </trkpt>
      <trkpt lat="38.2248010" lon="-6.3013040">
        <ele>560.6</ele>
        <time>2021-10-20T07:22:14Z</time>
      </trkpt>
      <trkpt lat="38.2247180" lon="-6.3013740">
        <ele>560.8</ele>
        <time>2021-10-20T07:22:18Z</time>
      </trkpt>
      <trkpt lat="38.2246950" lon="-6.3013930">
        <ele>560.8</ele>
        <time>2021-10-20T07:22:19Z</time>
      </trkpt>
      <trkpt lat="38.2245020" lon="-6.3015430">
        <ele>560.8</ele>
        <time>2021-10-20T07:22:27Z</time>
      </trkpt>
      <trkpt lat="38.2244830" lon="-6.3015600">
        <ele>560.8</ele>
        <time>2021-10-20T07:22:28Z</time>
      </trkpt>
      <trkpt lat="38.2244080" lon="-6.3016300">
        <ele>560.6</ele>
        <time>2021-10-20T07:22:31Z</time>
      </trkpt>
      <trkpt lat="38.2243270" lon="-6.3016990">
        <ele>560.8</ele>
        <time>2021-10-20T07:22:34Z</time>
      </trkpt>
      <trkpt lat="38.2242790" lon="-6.3017450">
        <ele>560.8</ele>
        <time>2021-10-20T07:22:36Z</time>
      </trkpt>
      <trkpt lat="38.2242490" lon="-6.3017610">
        <ele>560.8</ele>
        <time>2021-10-20T07:22:37Z</time>
      </trkpt>
      <trkpt lat="38.2240860" lon="-6.3018340">
        <ele>560.8</ele>
        <time>2021-10-20T07:22:42Z</time>
      </trkpt>
      <trkpt lat="38.2239420" lon="-6.3018880">
        <ele>561.0</ele>
        <time>2021-10-20T07:22:47Z</time>
      </trkpt>
      <trkpt lat="38.2238450" lon="-6.3018990">
        <ele>561.2</ele>
        <time>2021-10-20T07:22:51Z</time>
      </trkpt>
      <trkpt lat="38.2237260" lon="-6.3018890">
        <ele>561.6</ele>
        <time>2021-10-20T07:22:56Z</time>
      </trkpt>
      <trkpt lat="38.2236750" lon="-6.3018850">
        <ele>561.8</ele>
        <time>2021-10-20T07:22:58Z</time>
      </trkpt>
      <trkpt lat="38.2235010" lon="-6.3018740">
        <ele>562.6</ele>
        <time>2021-10-20T07:23:05Z</time>
      </trkpt>
      <trkpt lat="38.2234760" lon="-6.3018760">
        <ele>562.6</ele>
        <time>2021-10-20T07:23:06Z</time>
      </trkpt>
      <trkpt lat="38.2233080" lon="-6.3018830">
        <ele>563.2</ele>
        <time>2021-10-20T07:23:13Z</time>
      </trkpt>
      <trkpt lat="38.2232330" lon="-6.3018770">
        <ele>563.4</ele>
        <time>2021-10-20T07:23:16Z</time>
      </trkpt>
      <trkpt lat="38.2231850" lon="-6.3018730">
        <ele>563.6</ele>
        <time>2021-10-20T07:23:18Z</time>
      </trkpt>
      <trkpt lat="38.2230760" lon="-6.3018690">
        <ele>564.0</ele>
        <time>2021-10-20T07:23:22Z</time>
      </trkpt>
      <trkpt lat="38.2228970" lon="-6.3018680">
        <ele>564.8</ele>
        <time>2021-10-20T07:23:29Z</time>
      </trkpt>
      <trkpt lat="38.2228340" lon="-6.3018700">
        <ele>565.0</ele>
        <time>2021-10-20T07:23:32Z</time>
      </trkpt>
      <trkpt lat="38.2227180" lon="-6.3018830">
        <ele>565.6</ele>
        <time>2021-10-20T07:23:38Z</time>
      </trkpt>
      <trkpt lat="38.2227070" lon="-6.3018700">
        <ele>565.6</ele>
        <time>2021-10-20T07:23:39Z</time>
      </trkpt>
      <trkpt lat="38.2227090" lon="-6.3018540">
        <ele>565.8</ele>
        <time>2021-10-20T07:23:40Z</time>
      </trkpt>
      <trkpt lat="38.2227160" lon="-6.3018510">
        <ele>565.8</ele>
        <time>2021-10-20T07:23:42Z</time>
      </trkpt>
      <trkpt lat="38.2227390" lon="-6.3018500">
        <ele>565.8</ele>
        <time>2021-10-20T07:23:45Z</time>
      </trkpt>
      <trkpt lat="38.2227750" lon="-6.3018400">
        <ele>565.8</ele>
        <time>2021-10-20T07:23:49Z</time>
      </trkpt>
      <trkpt lat="38.2227870" lon="-6.3018330">
        <ele>565.8</ele>
        <time>2021-10-20T07:23:52Z</time>
      </trkpt>
      <trkpt lat="38.2227550" lon="-6.3018470">
        <ele>565.8</ele>
        <time>2021-10-20T07:24:31Z</time>
      </trkpt>
      <trkpt lat="38.2227310" lon="-6.3018540">
        <ele>565.8</ele>
        <time>2021-10-20T07:24:32Z</time>
      </trkpt>
      <trkpt lat="38.2225400" lon="-6.3019030">
        <ele>565.8</ele>
        <time>2021-10-20T07:24:37Z</time>
      </trkpt>
      <trkpt lat="38.2222360" lon="-6.3019630">
        <ele>565.0</ele>
        <time>2021-10-20T07:24:45Z</time>
      </trkpt>
      <trkpt lat="38.2221570" lon="-6.3019820">
        <ele>565.0</ele>
        <time>2021-10-20T07:24:50Z</time>
      </trkpt>
      <trkpt lat="38.2221570" lon="-6.3019820">
        <ele>564.8</ele>
        <time>2021-10-20T07:24:51Z</time>
      </trkpt>
      <trkpt lat="38.2221020" lon="-6.3020020">
        <ele>565.0</ele>
        <time>2021-10-20T07:24:58Z</time>
      </trkpt>
      <trkpt lat="38.2220580" lon="-6.3020150">
        <ele>565.0</ele>
        <time>2021-10-20T07:25:00Z</time>
      </trkpt>
      <trkpt lat="38.2219710" lon="-6.3020490">
        <ele>565.0</ele>
        <time>2021-10-20T07:25:03Z</time>
      </trkpt>
      <trkpt lat="38.2218870" lon="-6.3020740">
        <ele>565.0</ele>
        <time>2021-10-20T07:25:06Z</time>
      </trkpt>
      <trkpt lat="38.2217940" lon="-6.3021250">
        <ele>565.4</ele>
        <time>2021-10-20T07:25:09Z</time>
      </trkpt>
      <trkpt lat="38.2216890" lon="-6.3021680">
        <ele>565.6</ele>
        <time>2021-10-20T07:25:12Z</time>
      </trkpt>
      <trkpt lat="38.2215310" lon="-6.3022350">
        <ele>566.0</ele>
        <time>2021-10-20T07:25:17Z</time>
      </trkpt>
      <trkpt lat="38.2213540" lon="-6.3023160">
        <ele>566.4</ele>
        <time>2021-10-20T07:25:22Z</time>
      </trkpt>
      <trkpt lat="38.2211700" lon="-6.3024110">
        <ele>567.0</ele>
        <time>2021-10-20T07:25:28Z</time>
      </trkpt>
      <trkpt lat="38.2211400" lon="-6.3024230">
        <ele>567.0</ele>
        <time>2021-10-20T07:25:29Z</time>
      </trkpt>
      <trkpt lat="38.2210750" lon="-6.3024530">
        <ele>567.2</ele>
        <time>2021-10-20T07:25:31Z</time>
      </trkpt>
      <trkpt lat="38.2208180" lon="-6.3026050">
        <ele>568.2</ele>
        <time>2021-10-20T07:25:40Z</time>
      </trkpt>
      <trkpt lat="38.2207630" lon="-6.3026240">
        <ele>568.4</ele>
        <time>2021-10-20T07:25:42Z</time>
      </trkpt>
      <trkpt lat="38.2206730" lon="-6.3026520">
        <ele>568.6</ele>
        <time>2021-10-20T07:25:45Z</time>
      </trkpt>
      <trkpt lat="38.2205740" lon="-6.3026730">
        <ele>568.8</ele>
        <time>2021-10-20T07:25:49Z</time>
      </trkpt>
      <trkpt lat="38.2205510" lon="-6.3026780">
        <ele>568.8</ele>
        <time>2021-10-20T07:25:50Z</time>
      </trkpt>
      <trkpt lat="38.2205130" lon="-6.3026860">
        <ele>568.8</ele>
        <time>2021-10-20T07:25:52Z</time>
      </trkpt>
      <trkpt lat="38.2204710" lon="-6.3026920">
        <ele>569.0</ele>
        <time>2021-10-20T07:25:54Z</time>
      </trkpt>
      <trkpt lat="38.2204330" lon="-6.3026950">
        <ele>569.0</ele>
        <time>2021-10-20T07:25:56Z</time>
      </trkpt>
      <trkpt lat="38.2203910" lon="-6.3026830">
        <ele>569.2</ele>
        <time>2021-10-20T07:25:58Z</time>
      </trkpt>
      <trkpt lat="38.2202750" lon="-6.3026770">
        <ele>569.6</ele>
        <time>2021-10-20T07:26:04Z</time>
      </trkpt>
      <trkpt lat="38.2202050" lon="-6.3026630">
        <ele>570.2</ele>
        <time>2021-10-20T07:26:09Z</time>
      </trkpt>
      <trkpt lat="38.2201920" lon="-6.3026560">
        <ele>570.4</ele>
        <time>2021-10-20T07:26:10Z</time>
      </trkpt>
      <trkpt lat="38.2201480" lon="-6.3026680">
        <ele>570.6</ele>
        <time>2021-10-20T07:26:13Z</time>
      </trkpt>
      <trkpt lat="38.2200970" lon="-6.3026860">
        <ele>570.8</ele>
        <time>2021-10-20T07:26:17Z</time>
      </trkpt>
      <trkpt lat="38.2200380" lon="-6.3026820">
        <ele>571.4</ele>
        <time>2021-10-20T07:26:21Z</time>
      </trkpt>
      <trkpt lat="38.2199880" lon="-6.3026890">
        <ele>571.4</ele>
        <time>2021-10-20T07:26:25Z</time>
      </trkpt>
      <trkpt lat="38.2198440" lon="-6.3026900">
        <ele>572.2</ele>
        <time>2021-10-20T07:26:35Z</time>
      </trkpt>
      <trkpt lat="38.2198310" lon="-6.3026930">
        <ele>572.4</ele>
        <time>2021-10-20T07:26:36Z</time>
      </trkpt>
      <trkpt lat="38.2197930" lon="-6.3027060">
        <ele>572.8</ele>
        <time>2021-10-20T07:26:39Z</time>
      </trkpt>
      <trkpt lat="38.2197480" lon="-6.3027050">
        <ele>573.0</ele>
        <time>2021-10-20T07:26:42Z</time>
      </trkpt>
      <trkpt lat="38.2197090" lon="-6.3027030">
        <ele>573.4</ele>
        <time>2021-10-20T07:26:45Z</time>
      </trkpt>
      <trkpt lat="38.2196550" lon="-6.3027220">
        <ele>573.8</ele>
        <time>2021-10-20T07:26:49Z</time>
      </trkpt>
      <trkpt lat="38.2196150" lon="-6.3027190">
        <ele>574.0</ele>
        <time>2021-10-20T07:26:52Z</time>
      </trkpt>
      <trkpt lat="38.2195720" lon="-6.3027110">
        <ele>574.2</ele>
        <time>2021-10-20T07:26:55Z</time>
      </trkpt>
      <trkpt lat="38.2195540" lon="-6.3027180">
        <ele>574.4</ele>
        <time>2021-10-20T07:26:56Z</time>
      </trkpt>
      <trkpt lat="38.2194590" lon="-6.3027440">
        <ele>575.2</ele>
        <time>2021-10-20T07:27:03Z</time>
      </trkpt>
      <trkpt lat="38.2194430" lon="-6.3027450">
        <ele>575.4</ele>
        <time>2021-10-20T07:27:04Z</time>
      </trkpt>
      <trkpt lat="38.2193550" lon="-6.3027540">
        <ele>576.0</ele>
        <time>2021-10-20T07:27:10Z</time>
      </trkpt>
      <trkpt lat="38.2192350" lon="-6.3027880">
        <ele>576.6</ele>
        <time>2021-10-20T07:27:18Z</time>
      </trkpt>
      <trkpt lat="38.2191210" lon="-6.3028250">
        <ele>576.4</ele>
        <time>2021-10-20T07:27:25Z</time>
      </trkpt>
      <trkpt lat="38.2190840" lon="-6.3028400">
        <ele>576.4</ele>
        <time>2021-10-20T07:27:27Z</time>
      </trkpt>
      <trkpt lat="38.2189830" lon="-6.3028790">
        <ele>576.2</ele>
        <time>2021-10-20T07:27:32Z</time>
      </trkpt>
      <trkpt lat="38.2189170" lon="-6.3028910">
        <ele>575.8</ele>
        <time>2021-10-20T07:27:35Z</time>
      </trkpt>
      <trkpt lat="38.2188790" lon="-6.3029050">
        <ele>575.8</ele>
        <time>2021-10-20T07:27:37Z</time>
      </trkpt>
      <trkpt lat="38.2188290" lon="-6.3028870">
        <ele>575.4</ele>
        <time>2021-10-20T07:27:40Z</time>
      </trkpt>
      <trkpt lat="38.2187940" lon="-6.3028720">
        <ele>575.4</ele>
        <time>2021-10-20T07:27:42Z</time>
      </trkpt>
      <trkpt lat="38.2186780" lon="-6.3028280">
        <ele>575.0</ele>
        <time>2021-10-20T07:27:46Z</time>
      </trkpt>
      <trkpt lat="38.2186350" lon="-6.3028090">
        <ele>575.0</ele>
        <time>2021-10-20T07:27:47Z</time>
      </trkpt>
      <trkpt lat="38.2184880" lon="-6.3027170">
        <ele>575.0</ele>
        <time>2021-10-20T07:27:50Z</time>
      </trkpt>
      <trkpt lat="38.2183060" lon="-6.3025920">
        <ele>573.8</ele>
        <time>2021-10-20T07:27:53Z</time>
      </trkpt>
      <trkpt lat="38.2181740" lon="-6.3024980">
        <ele>573.0</ele>
        <time>2021-10-20T07:27:56Z</time>
      </trkpt>
      <trkpt lat="38.2181320" lon="-6.3024650">
        <ele>572.8</ele>
        <time>2021-10-20T07:27:57Z</time>
      </trkpt>
      <trkpt lat="38.2180110" lon="-6.3023780">
        <ele>572.6</ele>
        <time>2021-10-20T07:28:00Z</time>
      </trkpt>
      <trkpt lat="38.2179540" lon="-6.3023220">
        <ele>572.6</ele>
        <time>2021-10-20T07:28:02Z</time>
      </trkpt>
      <trkpt lat="38.2178530" lon="-6.3022480">
        <ele>572.8</ele>
        <time>2021-10-20T07:28:06Z</time>
      </trkpt>
      <trkpt lat="38.2178260" lon="-6.3022360">
        <ele>573.0</ele>
        <time>2021-10-20T07:28:07Z</time>
      </trkpt>
      <trkpt lat="38.2177350" lon="-6.3021670">
        <ele>573.6</ele>
        <time>2021-10-20T07:28:10Z</time>
      </trkpt>
      <trkpt lat="38.2176780" lon="-6.3021020">
        <ele>573.6</ele>
        <time>2021-10-20T07:28:12Z</time>
      </trkpt>
      <trkpt lat="38.2175490" lon="-6.3019590">
        <ele>573.6</ele>
        <time>2021-10-20T07:28:17Z</time>
      </trkpt>
      <trkpt lat="38.2175220" lon="-6.3019380">
        <ele>573.6</ele>
        <time>2021-10-20T07:28:18Z</time>
      </trkpt>
      <trkpt lat="38.2173260" lon="-6.3018000">
        <ele>573.8</ele>
        <time>2021-10-20T07:28:25Z</time>
      </trkpt>
      <trkpt lat="38.2172820" lon="-6.3017710">
        <ele>574.0</ele>
        <time>2021-10-20T07:28:27Z</time>
      </trkpt>
      <trkpt lat="38.2171000" lon="-6.3016810">
        <ele>575.0</ele>
        <time>2021-10-20T07:28:34Z</time>
      </trkpt>
      <trkpt lat="38.2170800" lon="-6.3016710">
        <ele>575.2</ele>
        <time>2021-10-20T07:28:35Z</time>
      </trkpt>
      <trkpt lat="38.2170040" lon="-6.3016340">
        <ele>575.4</ele>
        <time>2021-10-20T07:28:38Z</time>
      </trkpt>
      <trkpt lat="38.2169580" lon="-6.3016210">
        <ele>575.4</ele>
        <time>2021-10-20T07:28:40Z</time>
      </trkpt>
      <trkpt lat="38.2168100" lon="-6.3015670">
        <ele>576.2</ele>
        <time>2021-10-20T07:28:46Z</time>
      </trkpt>
      <trkpt lat="38.2167850" lon="-6.3015550">
        <ele>576.4</ele>
        <time>2021-10-20T07:28:47Z</time>
      </trkpt>
      <trkpt lat="38.2166600" lon="-6.3015160">
        <ele>577.0</ele>
        <time>2021-10-20T07:28:52Z</time>
      </trkpt>
      <trkpt lat="38.2166290" lon="-6.3015100">
        <ele>577.2</ele>
        <time>2021-10-20T07:28:53Z</time>
      </trkpt>
      <trkpt lat="38.2165600" lon="-6.3014910">
        <ele>577.6</ele>
        <time>2021-10-20T07:28:56Z</time>
      </trkpt>
      <trkpt lat="38.2164630" lon="-6.3014620">
        <ele>577.8</ele>
        <time>2021-10-20T07:29:00Z</time>
      </trkpt>
      <trkpt lat="38.2163290" lon="-6.3014310">
        <ele>578.0</ele>
        <time>2021-10-20T07:29:05Z</time>
      </trkpt>
      <trkpt lat="38.2162690" lon="-6.3014210">
        <ele>578.2</ele>
        <time>2021-10-20T07:29:07Z</time>
      </trkpt>
      <trkpt lat="38.2162200" lon="-6.3014120">
        <ele>578.4</ele>
        <time>2021-10-20T07:29:09Z</time>
      </trkpt>
      <trkpt lat="38.2161310" lon="-6.3014030">
        <ele>578.8</ele>
        <time>2021-10-20T07:29:12Z</time>
      </trkpt>
      <trkpt lat="38.2160390" lon="-6.3013990">
        <ele>579.0</ele>
        <time>2021-10-20T07:29:15Z</time>
      </trkpt>
      <trkpt lat="38.2159730" lon="-6.3014010">
        <ele>579.0</ele>
        <time>2021-10-20T07:29:17Z</time>
      </trkpt>
      <trkpt lat="38.2157290" lon="-6.3014420">
        <ele>579.4</ele>
        <time>2021-10-20T07:29:25Z</time>
      </trkpt>
      <trkpt lat="38.2156700" lon="-6.3014560">
        <ele>579.4</ele>
        <time>2021-10-20T07:29:27Z</time>
      </trkpt>
      <trkpt lat="38.2155330" lon="-6.3014840">
        <ele>579.4</ele>
        <time>2021-10-20T07:29:31Z</time>
      </trkpt>
      <trkpt lat="38.2153420" lon="-6.3015210">
        <ele>579.4</ele>
        <time>2021-10-20T07:29:37Z</time>
      </trkpt>
      <trkpt lat="38.2150610" lon="-6.3015610">
        <ele>579.8</ele>
        <time>2021-10-20T07:29:46Z</time>
      </trkpt>
      <trkpt lat="38.2149200" lon="-6.3015680">
        <ele>580.4</ele>
        <time>2021-10-20T07:29:51Z</time>
      </trkpt>
      <trkpt lat="38.2148350" lon="-6.3015800">
        <ele>580.6</ele>
        <time>2021-10-20T07:29:54Z</time>
      </trkpt>
      <trkpt lat="38.2146890" lon="-6.3016110">
        <ele>581.4</ele>
        <time>2021-10-20T07:30:00Z</time>
      </trkpt>
      <trkpt lat="38.2146370" lon="-6.3016320">
        <ele>581.6</ele>
        <time>2021-10-20T07:30:02Z</time>
      </trkpt>
      <trkpt lat="38.2143840" lon="-6.3016820">
        <ele>582.4</ele>
        <time>2021-10-20T07:30:11Z</time>
      </trkpt>
      <trkpt lat="38.2143320" lon="-6.3016970">
        <ele>582.6</ele>
        <time>2021-10-20T07:30:13Z</time>
      </trkpt>
      <trkpt lat="38.2140600" lon="-6.3017630">
        <ele>583.2</ele>
        <time>2021-10-20T07:30:23Z</time>
      </trkpt>
      <trkpt lat="38.2140090" lon="-6.3017750">
        <ele>583.4</ele>
        <time>2021-10-20T07:30:25Z</time>
      </trkpt>
      <trkpt lat="38.2139060" lon="-6.3018030">
        <ele>583.6</ele>
        <time>2021-10-20T07:30:29Z</time>
      </trkpt>
      <trkpt lat="38.2138510" lon="-6.3018140">
        <ele>584.0</ele>
        <time>2021-10-20T07:30:31Z</time>
      </trkpt>
      <trkpt lat="38.2138190" lon="-6.3018170">
        <ele>584.0</ele>
        <time>2021-10-20T07:30:32Z</time>
      </trkpt>
      <trkpt lat="38.2136850" lon="-6.3018370">
        <ele>584.4</ele>
        <time>2021-10-20T07:30:37Z</time>
      </trkpt>
      <trkpt lat="38.2136560" lon="-6.3018380">
        <ele>584.6</ele>
        <time>2021-10-20T07:30:38Z</time>
      </trkpt>
      <trkpt lat="38.2135300" lon="-6.3018210">
        <ele>585.0</ele>
        <time>2021-10-20T07:30:43Z</time>
      </trkpt>
      <trkpt lat="38.2134540" lon="-6.3018040">
        <ele>585.2</ele>
        <time>2021-10-20T07:30:46Z</time>
      </trkpt>
      <trkpt lat="38.2133250" lon="-6.3017570">
        <ele>585.6</ele>
        <time>2021-10-20T07:30:51Z</time>
      </trkpt>
      <trkpt lat="38.2132720" lon="-6.3017330">
        <ele>585.8</ele>
        <time>2021-10-20T07:30:53Z</time>
      </trkpt>
      <trkpt lat="38.2131270" lon="-6.3016670">
        <ele>586.2</ele>
        <time>2021-10-20T07:30:58Z</time>
      </trkpt>
      <trkpt lat="38.2130410" lon="-6.3016250">
        <ele>586.4</ele>
        <time>2021-10-20T07:31:01Z</time>
      </trkpt>
      <trkpt lat="38.2129250" lon="-6.3015690">
        <ele>586.4</ele>
        <time>2021-10-20T07:31:05Z</time>
      </trkpt>
      <trkpt lat="38.2128000" lon="-6.3015180">
        <ele>586.6</ele>
        <time>2021-10-20T07:31:09Z</time>
      </trkpt>
      <trkpt lat="38.2126860" lon="-6.3014800">
        <ele>586.8</ele>
        <time>2021-10-20T07:31:13Z</time>
      </trkpt>
      <trkpt lat="38.2126340" lon="-6.3014640">
        <ele>587.0</ele>
        <time>2021-10-20T07:31:15Z</time>
      </trkpt>
      <trkpt lat="38.2125690" lon="-6.3014470">
        <ele>587.0</ele>
        <time>2021-10-20T07:31:17Z</time>
      </trkpt>
      <trkpt lat="38.2124870" lon="-6.3014280">
        <ele>587.2</ele>
        <time>2021-10-20T07:31:20Z</time>
      </trkpt>
      <trkpt lat="38.2123400" lon="-6.3013910">
        <ele>587.4</ele>
        <time>2021-10-20T07:31:25Z</time>
      </trkpt>
      <trkpt lat="38.2123080" lon="-6.3013820">
        <ele>587.6</ele>
        <time>2021-10-20T07:31:26Z</time>
      </trkpt>
      <trkpt lat="38.2120960" lon="-6.3013240">
        <ele>587.6</ele>
        <time>2021-10-20T07:31:32Z</time>
      </trkpt>
      <trkpt lat="38.2119930" lon="-6.3013000">
        <ele>587.8</ele>
        <time>2021-10-20T07:31:35Z</time>
      </trkpt>
      <trkpt lat="38.2116340" lon="-6.3012140">
        <ele>587.8</ele>
        <time>2021-10-20T07:31:46Z</time>
      </trkpt>
      <trkpt lat="38.2113830" lon="-6.3011470">
        <ele>588.4</ele>
        <time>2021-10-20T07:31:55Z</time>
      </trkpt>
      <trkpt lat="38.2113550" lon="-6.3011390">
        <ele>588.4</ele>
        <time>2021-10-20T07:31:56Z</time>
      </trkpt>
      <trkpt lat="38.2111560" lon="-6.3010750">
        <ele>589.4</ele>
        <time>2021-10-20T07:32:04Z</time>
      </trkpt>
      <trkpt lat="38.2111100" lon="-6.3010640">
        <ele>589.6</ele>
        <time>2021-10-20T07:32:06Z</time>
      </trkpt>
      <trkpt lat="38.2110190" lon="-6.3010460">
        <ele>590.0</ele>
        <time>2021-10-20T07:32:10Z</time>
      </trkpt>
      <trkpt lat="38.2109470" lon="-6.3010290">
        <ele>590.4</ele>
        <time>2021-10-20T07:32:13Z</time>
      </trkpt>
      <trkpt lat="38.2109300" lon="-6.3010250">
        <ele>590.6</ele>
        <time>2021-10-20T07:32:14Z</time>
      </trkpt>
      <trkpt lat="38.2108500" lon="-6.3010110">
        <ele>591.4</ele>
        <time>2021-10-20T07:32:18Z</time>
      </trkpt>
      <trkpt lat="38.2108080" lon="-6.3010090">
        <ele>591.8</ele>
        <time>2021-10-20T07:32:20Z</time>
      </trkpt>
      <trkpt lat="38.2107000" lon="-6.3010050">
        <ele>593.0</ele>
        <time>2021-10-20T07:32:25Z</time>
      </trkpt>
      <trkpt lat="38.2106510" lon="-6.3010050">
        <ele>593.2</ele>
        <time>2021-10-20T07:32:27Z</time>
      </trkpt>
      <trkpt lat="38.2104510" lon="-6.3009910">
        <ele>593.8</ele>
        <time>2021-10-20T07:32:36Z</time>
      </trkpt>
      <trkpt lat="38.2104060" lon="-6.3009860">
        <ele>594.0</ele>
        <time>2021-10-20T07:32:38Z</time>
      </trkpt>
      <trkpt lat="38.2103190" lon="-6.3009720">
        <ele>594.4</ele>
        <time>2021-10-20T07:32:42Z</time>
      </trkpt>
      <trkpt lat="38.2102180" lon="-6.3009640">
        <ele>594.6</ele>
        <time>2021-10-20T07:32:46Z</time>
      </trkpt>
      <trkpt lat="38.2101100" lon="-6.3009430">
        <ele>595.0</ele>
        <time>2021-10-20T07:32:51Z</time>
      </trkpt>
      <trkpt lat="38.2099710" lon="-6.3009270">
        <ele>595.6</ele>
        <time>2021-10-20T07:32:57Z</time>
      </trkpt>
      <trkpt lat="38.2098600" lon="-6.3009090">
        <ele>596.0</ele>
        <time>2021-10-20T07:33:02Z</time>
      </trkpt>
      <trkpt lat="38.2098100" lon="-6.3008980">
        <ele>596.0</ele>
        <time>2021-10-20T07:33:04Z</time>
      </trkpt>
      <trkpt lat="38.2097340" lon="-6.3008840">
        <ele>596.2</ele>
        <time>2021-10-20T07:33:07Z</time>
      </trkpt>
      <trkpt lat="38.2096620" lon="-6.3008760">
        <ele>596.4</ele>
        <time>2021-10-20T07:33:10Z</time>
      </trkpt>
      <trkpt lat="38.2095960" lon="-6.3008630">
        <ele>596.6</ele>
        <time>2021-10-20T07:33:13Z</time>
      </trkpt>
      <trkpt lat="38.2095040" lon="-6.3008480">
        <ele>596.8</ele>
        <time>2021-10-20T07:33:17Z</time>
      </trkpt>
      <trkpt lat="38.2094570" lon="-6.3008380">
        <ele>597.0</ele>
        <time>2021-10-20T07:33:19Z</time>
      </trkpt>
      <trkpt lat="38.2094100" lon="-6.3008270">
        <ele>597.2</ele>
        <time>2021-10-20T07:33:21Z</time>
      </trkpt>
      <trkpt lat="38.2093140" lon="-6.3008120">
        <ele>597.6</ele>
        <time>2021-10-20T07:33:25Z</time>
      </trkpt>
      <trkpt lat="38.2092470" lon="-6.3007980">
        <ele>597.8</ele>
        <time>2021-10-20T07:33:28Z</time>
      </trkpt>
      <trkpt lat="38.2091360" lon="-6.3007880">
        <ele>598.2</ele>
        <time>2021-10-20T07:33:33Z</time>
      </trkpt>
      <trkpt lat="38.2089920" lon="-6.3008100">
        <ele>598.6</ele>
        <time>2021-10-20T07:33:39Z</time>
      </trkpt>
      <trkpt lat="38.2089470" lon="-6.3008270">
        <ele>598.8</ele>
        <time>2021-10-20T07:33:41Z</time>
      </trkpt>
      <trkpt lat="38.2088060" lon="-6.3008930">
        <ele>599.2</ele>
        <time>2021-10-20T07:33:47Z</time>
      </trkpt>
      <trkpt lat="38.2087600" lon="-6.3009180">
        <ele>599.2</ele>
        <time>2021-10-20T07:33:49Z</time>
      </trkpt>
      <trkpt lat="38.2084990" lon="-6.3010490">
        <ele>600.2</ele>
        <time>2021-10-20T07:34:01Z</time>
      </trkpt>
      <trkpt lat="38.2084820" lon="-6.3010560">
        <ele>600.2</ele>
        <time>2021-10-20T07:34:02Z</time>
      </trkpt>
      <trkpt lat="38.2082710" lon="-6.3011610">
        <ele>600.6</ele>
        <time>2021-10-20T07:34:11Z</time>
      </trkpt>
      <trkpt lat="38.2081100" lon="-6.3012360">
        <ele>601.2</ele>
        <time>2021-10-20T07:34:18Z</time>
      </trkpt>
      <trkpt lat="38.2080640" lon="-6.3012540">
        <ele>601.4</ele>
        <time>2021-10-20T07:34:20Z</time>
      </trkpt>
      <trkpt lat="38.2079730" lon="-6.3012890">
        <ele>601.6</ele>
        <time>2021-10-20T07:34:24Z</time>
      </trkpt>
      <trkpt lat="38.2078510" lon="-6.3013240">
        <ele>602.0</ele>
        <time>2021-10-20T07:34:29Z</time>
      </trkpt>
      <trkpt lat="38.2076930" lon="-6.3013550">
        <ele>602.4</ele>
        <time>2021-10-20T07:34:36Z</time>
      </trkpt>
      <trkpt lat="38.2076480" lon="-6.3013620">
        <ele>602.6</ele>
        <time>2021-10-20T07:34:38Z</time>
      </trkpt>
      <trkpt lat="38.2075180" lon="-6.3013800">
        <ele>603.4</ele>
        <time>2021-10-20T07:34:44Z</time>
      </trkpt>
      <trkpt lat="38.2074750" lon="-6.3013830">
        <ele>603.6</ele>
        <time>2021-10-20T07:34:46Z</time>
      </trkpt>
      <trkpt lat="38.2073900" lon="-6.3013790">
        <ele>604.2</ele>
        <time>2021-10-20T07:34:50Z</time>
      </trkpt>
      <trkpt lat="38.2073250" lon="-6.3013730">
        <ele>604.6</ele>
        <time>2021-10-20T07:34:53Z</time>
      </trkpt>
      <trkpt lat="38.2071940" lon="-6.3013660">
        <ele>605.4</ele>
        <time>2021-10-20T07:34:59Z</time>
      </trkpt>
      <trkpt lat="38.2071510" lon="-6.3013640">
        <ele>605.8</ele>
        <time>2021-10-20T07:35:01Z</time>
      </trkpt>
      <trkpt lat="38.2071300" lon="-6.3013610">
        <ele>605.8</ele>
        <time>2021-10-20T07:35:02Z</time>
      </trkpt>
      <trkpt lat="38.2069550" lon="-6.3013340">
        <ele>606.6</ele>
        <time>2021-10-20T07:35:10Z</time>
      </trkpt>
      <trkpt lat="38.2069110" lon="-6.3013260">
        <ele>606.8</ele>
        <time>2021-10-20T07:35:12Z</time>
      </trkpt>
      <trkpt lat="38.2068460" lon="-6.3013150">
        <ele>607.2</ele>
        <time>2021-10-20T07:35:15Z</time>
      </trkpt>
      <trkpt lat="38.2067560" lon="-6.3012970">
        <ele>607.8</ele>
        <time>2021-10-20T07:35:19Z</time>
      </trkpt>
      <trkpt lat="38.2066920" lon="-6.3012830">
        <ele>608.0</ele>
        <time>2021-10-20T07:35:22Z</time>
      </trkpt>
      <trkpt lat="38.2065630" lon="-6.3012600">
        <ele>608.8</ele>
        <time>2021-10-20T07:35:28Z</time>
      </trkpt>
      <trkpt lat="38.2064130" lon="-6.3012650">
        <ele>609.4</ele>
        <time>2021-10-20T07:35:35Z</time>
      </trkpt>
      <trkpt lat="38.2063320" lon="-6.3012790">
        <ele>609.8</ele>
        <time>2021-10-20T07:35:39Z</time>
      </trkpt>
      <trkpt lat="38.2062480" lon="-6.3012860">
        <ele>610.4</ele>
        <time>2021-10-20T07:35:43Z</time>
      </trkpt>
      <trkpt lat="38.2062030" lon="-6.3012870">
        <ele>610.6</ele>
        <time>2021-10-20T07:35:45Z</time>
      </trkpt>
      <trkpt lat="38.2061150" lon="-6.3012760">
        <ele>611.0</ele>
        <time>2021-10-20T07:35:49Z</time>
      </trkpt>
      <trkpt lat="38.2060210" lon="-6.3012400">
        <ele>611.2</ele>
        <time>2021-10-20T07:35:53Z</time>
      </trkpt>
      <trkpt lat="38.2059340" lon="-6.3012140">
        <ele>611.6</ele>
        <time>2021-10-20T07:35:57Z</time>
      </trkpt>
      <trkpt lat="38.2058940" lon="-6.3012020">
        <ele>611.8</ele>
        <time>2021-10-20T07:35:59Z</time>
      </trkpt>
      <trkpt lat="38.2058290" lon="-6.3011820">
        <ele>612.2</ele>
        <time>2021-10-20T07:36:02Z</time>
      </trkpt>
      <trkpt lat="38.2058080" lon="-6.3011750">
        <ele>612.2</ele>
        <time>2021-10-20T07:36:03Z</time>
      </trkpt>
      <trkpt lat="38.2057130" lon="-6.3011540">
        <ele>612.6</ele>
        <time>2021-10-20T07:36:07Z</time>
      </trkpt>
      <trkpt lat="38.2056710" lon="-6.3011440">
        <ele>612.8</ele>
        <time>2021-10-20T07:36:09Z</time>
      </trkpt>
      <trkpt lat="38.2056470" lon="-6.3011400">
        <ele>612.8</ele>
        <time>2021-10-20T07:36:10Z</time>
      </trkpt>
      <trkpt lat="38.2055820" lon="-6.3011210">
        <ele>613.0</ele>
        <time>2021-10-20T07:36:13Z</time>
      </trkpt>
      <trkpt lat="38.2055370" lon="-6.3011080">
        <ele>613.2</ele>
        <time>2021-10-20T07:36:15Z</time>
      </trkpt>
      <trkpt lat="38.2054450" lon="-6.3010850">
        <ele>613.8</ele>
        <time>2021-10-20T07:36:19Z</time>
      </trkpt>
      <trkpt lat="38.2053480" lon="-6.3010590">
        <ele>613.8</ele>
        <time>2021-10-20T07:36:23Z</time>
      </trkpt>
      <trkpt lat="38.2052550" lon="-6.3010310">
        <ele>614.2</ele>
        <time>2021-10-20T07:36:27Z</time>
      </trkpt>
      <trkpt lat="38.2051860" lon="-6.3010160">
        <ele>614.4</ele>
        <time>2021-10-20T07:36:30Z</time>
      </trkpt>
      <trkpt lat="38.2051200" lon="-6.3010130">
        <ele>614.8</ele>
        <time>2021-10-20T07:36:33Z</time>
      </trkpt>
      <trkpt lat="38.2050320" lon="-6.3010200">
        <ele>615.2</ele>
        <time>2021-10-20T07:36:37Z</time>
      </trkpt>
      <trkpt lat="38.2049570" lon="-6.3010300">
        <ele>615.6</ele>
        <time>2021-10-20T07:36:40Z</time>
      </trkpt>
      <trkpt lat="38.2049390" lon="-6.3010330">
        <ele>615.6</ele>
        <time>2021-10-20T07:36:41Z</time>
      </trkpt>
      <trkpt lat="38.2048700" lon="-6.3010340">
        <ele>615.8</ele>
        <time>2021-10-20T07:36:44Z</time>
      </trkpt>
      <trkpt lat="38.2047540" lon="-6.3010300">
        <ele>616.2</ele>
        <time>2021-10-20T07:36:49Z</time>
      </trkpt>
      <trkpt lat="38.2047360" lon="-6.3010280">
        <ele>616.2</ele>
        <time>2021-10-20T07:36:50Z</time>
      </trkpt>
      <trkpt lat="38.2045070" lon="-6.3009960">
        <ele>617.2</ele>
        <time>2021-10-20T07:36:59Z</time>
      </trkpt>
      <trkpt lat="38.2044870" lon="-6.3009950">
        <ele>617.4</ele>
        <time>2021-10-20T07:37:00Z</time>
      </trkpt>
      <trkpt lat="38.2042600" lon="-6.3010420">
        <ele>617.6</ele>
        <time>2021-10-20T07:37:08Z</time>
      </trkpt>
      <trkpt lat="38.2042320" lon="-6.3010480">
        <ele>617.4</ele>
        <time>2021-10-20T07:37:09Z</time>
      </trkpt>
      <trkpt lat="38.2040310" lon="-6.3011070">
        <ele>617.2</ele>
        <time>2021-10-20T07:37:15Z</time>
      </trkpt>
      <trkpt lat="38.2038140" lon="-6.3011540">
        <ele>616.6</ele>
        <time>2021-10-20T07:37:19Z</time>
      </trkpt>
      <trkpt lat="38.2037520" lon="-6.3011620">
        <ele>616.2</ele>
        <time>2021-10-20T07:37:20Z</time>
      </trkpt>
      <trkpt lat="38.2036050" lon="-6.3011620">
        <ele>615.6</ele>
        <time>2021-10-20T07:37:22Z</time>
      </trkpt>
      <trkpt lat="38.2034830" lon="-6.3011360">
        <ele>614.6</ele>
        <time>2021-10-20T07:37:24Z</time>
      </trkpt>
      <trkpt lat="38.2032690" lon="-6.3010680">
        <ele>613.6</ele>
        <time>2021-10-20T07:37:27Z</time>
      </trkpt>
      <trkpt lat="38.2030160" lon="-6.3010170">
        <ele>612.8</ele>
        <time>2021-10-20T07:37:31Z</time>
      </trkpt>
      <trkpt lat="38.2028890" lon="-6.3010410">
        <ele>612.0</ele>
        <time>2021-10-20T07:37:33Z</time>
      </trkpt>
      <trkpt lat="38.2027690" lon="-6.3011130">
        <ele>611.4</ele>
        <time>2021-10-20T07:37:35Z</time>
      </trkpt>
      <trkpt lat="38.2026460" lon="-6.3012120">
        <ele>611.0</ele>
        <time>2021-10-20T07:37:38Z</time>
      </trkpt>
      <trkpt lat="38.2025730" lon="-6.3012680">
        <ele>611.0</ele>
        <time>2021-10-20T07:37:40Z</time>
      </trkpt>
      <trkpt lat="38.2023840" lon="-6.3013690">
        <ele>611.2</ele>
        <time>2021-10-20T07:37:46Z</time>
      </trkpt>
      <trkpt lat="38.2022360" lon="-6.3014030">
        <ele>612.0</ele>
        <time>2021-10-20T07:37:51Z</time>
      </trkpt>
      <trkpt lat="38.2021460" lon="-6.3014240">
        <ele>612.8</ele>
        <time>2021-10-20T07:37:54Z</time>
      </trkpt>
      <trkpt lat="38.2021110" lon="-6.3014310">
        <ele>613.2</ele>
        <time>2021-10-20T07:37:56Z</time>
      </trkpt>
      <trkpt lat="38.2020840" lon="-6.3014320">
        <ele>613.8</ele>
        <time>2021-10-20T07:37:59Z</time>
      </trkpt>
      <trkpt lat="38.2020840" lon="-6.3014320">
        <ele>614.2</ele>
        <time>2021-10-20T07:38:00Z</time>
      </trkpt>
      <trkpt lat="38.2020410" lon="-6.3014500">
        <ele>614.0</ele>
        <time>2021-10-20T07:38:47Z</time>
      </trkpt>
      <trkpt lat="38.2020170" lon="-6.3014580">
        <ele>614.0</ele>
        <time>2021-10-20T07:38:48Z</time>
      </trkpt>
      <trkpt lat="38.2019850" lon="-6.3014700">
        <ele>614.0</ele>
        <time>2021-10-20T07:38:49Z</time>
      </trkpt>
      <trkpt lat="38.2017380" lon="-6.3015540">
        <ele>613.8</ele>
        <time>2021-10-20T07:38:55Z</time>
      </trkpt>
      <trkpt lat="38.2013840" lon="-6.3016710">
        <ele>612.6</ele>
        <time>2021-10-20T07:39:01Z</time>
      </trkpt>
      <trkpt lat="38.2012320" lon="-6.3017220">
        <ele>612.0</ele>
        <time>2021-10-20T07:39:03Z</time>
      </trkpt>
      <trkpt lat="38.2009800" lon="-6.3018030">
        <ele>610.0</ele>
        <time>2021-10-20T07:39:06Z</time>
      </trkpt>
      <trkpt lat="38.2007960" lon="-6.3018610">
        <ele>608.8</ele>
        <time>2021-10-20T07:39:08Z</time>
      </trkpt>
      <trkpt lat="38.2006490" lon="-6.3019120">
        <ele>607.6</ele>
        <time>2021-10-20T07:39:10Z</time>
      </trkpt>
      <trkpt lat="38.2004900" lon="-6.3019680">
        <ele>606.4</ele>
        <time>2021-10-20T07:39:12Z</time>
      </trkpt>
      <trkpt lat="38.2003390" lon="-6.3020210">
        <ele>606.0</ele>
        <time>2021-10-20T07:39:14Z</time>
      </trkpt>
      <trkpt lat="38.2001910" lon="-6.3020700">
        <ele>605.0</ele>
        <time>2021-10-20T07:39:16Z</time>
      </trkpt>
      <trkpt lat="38.2000340" lon="-6.3021120">
        <ele>604.0</ele>
        <time>2021-10-20T07:39:18Z</time>
      </trkpt>
      <trkpt lat="38.1998270" lon="-6.3021580">
        <ele>603.2</ele>
        <time>2021-10-20T07:39:21Z</time>
      </trkpt>
      <trkpt lat="38.1997500" lon="-6.3021720">
        <ele>602.6</ele>
        <time>2021-10-20T07:39:22Z</time>
      </trkpt>
      <trkpt lat="38.1993290" lon="-6.3022400">
        <ele>601.4</ele>
        <time>2021-10-20T07:39:27Z</time>
      </trkpt>
      <trkpt lat="38.1991640" lon="-6.3022670">
        <ele>600.4</ele>
        <time>2021-10-20T07:39:29Z</time>
      </trkpt>
      <trkpt lat="38.1990140" lon="-6.3022910">
        <ele>599.2</ele>
        <time>2021-10-20T07:39:31Z</time>
      </trkpt>
      <trkpt lat="38.1988200" lon="-6.3023210">
        <ele>598.2</ele>
        <time>2021-10-20T07:39:33Z</time>
      </trkpt>
      <trkpt lat="38.1985640" lon="-6.3023590">
        <ele>596.8</ele>
        <time>2021-10-20T07:39:36Z</time>
      </trkpt>
      <trkpt lat="38.1983760" lon="-6.3023830">
        <ele>595.0</ele>
        <time>2021-10-20T07:39:38Z</time>
      </trkpt>
      <trkpt lat="38.1980920" lon="-6.3023830">
        <ele>593.8</ele>
        <time>2021-10-20T07:39:41Z</time>
      </trkpt>
      <trkpt lat="38.1979970" lon="-6.3023670">
        <ele>592.8</ele>
        <time>2021-10-20T07:39:42Z</time>
      </trkpt>
      <trkpt lat="38.1978850" lon="-6.3023460">
        <ele>592.4</ele>
        <time>2021-10-20T07:39:43Z</time>
      </trkpt>
      <trkpt lat="38.1977170" lon="-6.3023120">
        <ele>591.4</ele>
        <time>2021-10-20T07:39:45Z</time>
      </trkpt>
      <trkpt lat="38.1975080" lon="-6.3022740">
        <ele>590.2</ele>
        <time>2021-10-20T07:39:47Z</time>
      </trkpt>
      <trkpt lat="38.1974190" lon="-6.3022510">
        <ele>589.0</ele>
        <time>2021-10-20T07:39:48Z</time>
      </trkpt>
      <trkpt lat="38.1973500" lon="-6.3022360">
        <ele>588.2</ele>
        <time>2021-10-20T07:39:49Z</time>
      </trkpt>
      <trkpt lat="38.1972520" lon="-6.3022180">
        <ele>587.8</ele>
        <time>2021-10-20T07:39:50Z</time>
      </trkpt>
      <trkpt lat="38.1970550" lon="-6.3021900">
        <ele>586.8</ele>
        <time>2021-10-20T07:39:53Z</time>
      </trkpt>
      <trkpt lat="38.1970000" lon="-6.3021820">
        <ele>586.8</ele>
        <time>2021-10-20T07:39:54Z</time>
      </trkpt>
      <trkpt lat="38.1968140" lon="-6.3021440">
        <ele>586.6</ele>
        <time>2021-10-20T07:39:58Z</time>
      </trkpt>
      <trkpt lat="38.1965600" lon="-6.3020610">
        <ele>586.6</ele>
        <time>2021-10-20T07:40:03Z</time>
      </trkpt>
      <trkpt lat="38.1964320" lon="-6.3020150">
        <ele>586.6</ele>
        <time>2021-10-20T07:40:05Z</time>
      </trkpt>
      <trkpt lat="38.1961440" lon="-6.3018940">
        <ele>585.8</ele>
        <time>2021-10-20T07:40:09Z</time>
      </trkpt>
      <trkpt lat="38.1960870" lon="-6.3018670">
        <ele>585.4</ele>
        <time>2021-10-20T07:40:10Z</time>
      </trkpt>
      <trkpt lat="38.1959580" lon="-6.3018070">
        <ele>584.6</ele>
        <time>2021-10-20T07:40:13Z</time>
      </trkpt>
      <trkpt lat="38.1959160" lon="-6.3017890">
        <ele>584.6</ele>
        <time>2021-10-20T07:40:14Z</time>
      </trkpt>
      <trkpt lat="38.1956920" lon="-6.3017230">
        <ele>584.4</ele>
        <time>2021-10-20T07:40:20Z</time>
      </trkpt>
      <trkpt lat="38.1954570" lon="-6.3016820">
        <ele>585.2</ele>
        <time>2021-10-20T07:40:27Z</time>
      </trkpt>
      <trkpt lat="38.1953520" lon="-6.3016670">
        <ele>585.8</ele>
        <time>2021-10-20T07:40:30Z</time>
      </trkpt>
      <trkpt lat="38.1952630" lon="-6.3016790">
        <ele>587.0</ele>
        <time>2021-10-20T07:40:33Z</time>
      </trkpt>
      <trkpt lat="38.1950780" lon="-6.3017100">
        <ele>587.4</ele>
        <time>2021-10-20T07:40:40Z</time>
      </trkpt>
      <trkpt lat="38.1950180" lon="-6.3017260">
        <ele>587.2</ele>
        <time>2021-10-20T07:40:43Z</time>
      </trkpt>
      <trkpt lat="38.1949900" lon="-6.3017310">
        <ele>587.0</ele>
        <time>2021-10-20T07:40:45Z</time>
      </trkpt>
      <trkpt lat="38.1949530" lon="-6.3017320">
        <ele>586.8</ele>
        <time>2021-10-20T07:40:47Z</time>
      </trkpt>
      <trkpt lat="38.1949340" lon="-6.3017300">
        <ele>586.6</ele>
        <time>2021-10-20T07:40:48Z</time>
      </trkpt>
      <trkpt lat="38.1948960" lon="-6.3017230">
        <ele>586.4</ele>
        <time>2021-10-20T07:40:50Z</time>
      </trkpt>
      <trkpt lat="38.1948220" lon="-6.3017220">
        <ele>586.0</ele>
        <time>2021-10-20T07:40:53Z</time>
      </trkpt>
      <trkpt lat="38.1947280" lon="-6.3017210">
        <ele>585.6</ele>
        <time>2021-10-20T07:40:56Z</time>
      </trkpt>
      <trkpt lat="38.1944630" lon="-6.3016990">
        <ele>584.8</ele>
        <time>2021-10-20T07:41:02Z</time>
      </trkpt>
      <trkpt lat="38.1942200" lon="-6.3016710">
        <ele>584.2</ele>
        <time>2021-10-20T07:41:07Z</time>
      </trkpt>
      <trkpt lat="38.1941330" lon="-6.3016640">
        <ele>583.6</ele>
        <time>2021-10-20T07:41:09Z</time>
      </trkpt>
      <trkpt lat="38.1940850" lon="-6.3016590">
        <ele>583.4</ele>
        <time>2021-10-20T07:41:10Z</time>
      </trkpt>
      <trkpt lat="38.1938540" lon="-6.3016560">
        <ele>582.8</ele>
        <time>2021-10-20T07:41:15Z</time>
      </trkpt>
      <trkpt lat="38.1938010" lon="-6.3016550">
        <ele>582.6</ele>
        <time>2021-10-20T07:41:16Z</time>
      </trkpt>
      <trkpt lat="38.1937580" lon="-6.3016570">
        <ele>582.4</ele>
        <time>2021-10-20T07:41:17Z</time>
      </trkpt>
      <trkpt lat="38.1937230" lon="-6.3016580">
        <ele>582.6</ele>
        <time>2021-10-20T07:41:18Z</time>
      </trkpt>
      <trkpt lat="38.1933850" lon="-6.3016800">
        <ele>581.8</ele>
        <time>2021-10-20T07:41:24Z</time>
      </trkpt>
      <trkpt lat="38.1933110" lon="-6.3016830">
        <ele>581.6</ele>
        <time>2021-10-20T07:41:25Z</time>
      </trkpt>
      <trkpt lat="38.1931530" lon="-6.3016920">
        <ele>580.4</ele>
        <time>2021-10-20T07:41:27Z</time>
      </trkpt>
      <trkpt lat="38.1929760" lon="-6.3016980">
        <ele>579.2</ele>
        <time>2021-10-20T07:41:29Z</time>
      </trkpt>
      <trkpt lat="38.1926840" lon="-6.3017130">
        <ele>577.8</ele>
        <time>2021-10-20T07:41:32Z</time>
      </trkpt>
      <trkpt lat="38.1923580" lon="-6.3017260">
        <ele>576.0</ele>
        <time>2021-10-20T07:41:35Z</time>
      </trkpt>
      <trkpt lat="38.1922720" lon="-6.3017320">
        <ele>575.0</ele>
        <time>2021-10-20T07:41:36Z</time>
      </trkpt>
      <trkpt lat="38.1921630" lon="-6.3017420">
        <ele>573.2</ele>
        <time>2021-10-20T07:41:37Z</time>
      </trkpt>
      <trkpt lat="38.1919190" lon="-6.3017680">
        <ele>570.6</ele>
        <time>2021-10-20T07:41:39Z</time>
      </trkpt>
      <trkpt lat="38.1918330" lon="-6.3017800">
        <ele>569.0</ele>
        <time>2021-10-20T07:41:40Z</time>
      </trkpt>
      <trkpt lat="38.1917260" lon="-6.3018000">
        <ele>568.6</ele>
        <time>2021-10-20T07:41:41Z</time>
      </trkpt>
      <trkpt lat="38.1916200" lon="-6.3018200">
        <ele>567.6</ele>
        <time>2021-10-20T07:41:42Z</time>
      </trkpt>
      <trkpt lat="38.1914180" lon="-6.3018600">
        <ele>566.0</ele>
        <time>2021-10-20T07:41:44Z</time>
      </trkpt>
      <trkpt lat="38.1912230" lon="-6.3019010">
        <ele>564.6</ele>
        <time>2021-10-20T07:41:46Z</time>
      </trkpt>
      <trkpt lat="38.1909180" lon="-6.3019590">
        <ele>563.2</ele>
        <time>2021-10-20T07:41:49Z</time>
      </trkpt>
      <trkpt lat="38.1906450" lon="-6.3020140">
        <ele>562.0</ele>
        <time>2021-10-20T07:41:52Z</time>
      </trkpt>
      <trkpt lat="38.1903950" lon="-6.3020710">
        <ele>560.2</ele>
        <time>2021-10-20T07:41:55Z</time>
      </trkpt>
      <trkpt lat="38.1903070" lon="-6.3020840">
        <ele>560.0</ele>
        <time>2021-10-20T07:41:56Z</time>
      </trkpt>
      <trkpt lat="38.1902010" lon="-6.3020910">
        <ele>559.4</ele>
        <time>2021-10-20T07:41:57Z</time>
      </trkpt>
      <trkpt lat="38.1901310" lon="-6.3020880">
        <ele>559.0</ele>
        <time>2021-10-20T07:41:58Z</time>
      </trkpt>
      <trkpt lat="38.1899570" lon="-6.3020830">
        <ele>558.0</ele>
        <time>2021-10-20T07:42:00Z</time>
      </trkpt>
      <trkpt lat="38.1897930" lon="-6.3021060">
        <ele>556.8</ele>
        <time>2021-10-20T07:42:02Z</time>
      </trkpt>
      <trkpt lat="38.1895930" lon="-6.3021640">
        <ele>556.4</ele>
        <time>2021-10-20T07:42:05Z</time>
      </trkpt>
      <trkpt lat="38.1894800" lon="-6.3021770">
        <ele>556.2</ele>
        <time>2021-10-20T07:42:07Z</time>
      </trkpt>
      <trkpt lat="38.1894050" lon="-6.3021670">
        <ele>556.2</ele>
        <time>2021-10-20T07:42:09Z</time>
      </trkpt>
      <trkpt lat="38.1891530" lon="-6.3021350">
        <ele>557.8</ele>
        <time>2021-10-20T07:42:16Z</time>
      </trkpt>
      <trkpt lat="38.1891020" lon="-6.3021300">
        <ele>557.8</ele>
        <time>2021-10-20T07:42:17Z</time>
      </trkpt>
      <trkpt lat="38.1888720" lon="-6.3021040">
        <ele>557.8</ele>
        <time>2021-10-20T07:42:22Z</time>
      </trkpt>
      <trkpt lat="38.1888180" lon="-6.3020990">
        <ele>557.8</ele>
        <time>2021-10-20T07:42:23Z</time>
      </trkpt>
      <trkpt lat="38.1885880" lon="-6.3020640">
        <ele>557.4</ele>
        <time>2021-10-20T07:42:27Z</time>
      </trkpt>
      <trkpt lat="38.1884970" lon="-6.3020590">
        <ele>556.6</ele>
        <time>2021-10-20T07:42:29Z</time>
      </trkpt>
      <trkpt lat="38.1883060" lon="-6.3020390">
        <ele>556.0</ele>
        <time>2021-10-20T07:42:33Z</time>
      </trkpt>
      <trkpt lat="38.1882530" lon="-6.3020420">
        <ele>555.8</ele>
        <time>2021-10-20T07:42:34Z</time>
      </trkpt>
      <trkpt lat="38.1880250" lon="-6.3020580">
        <ele>556.0</ele>
        <time>2021-10-20T07:42:40Z</time>
      </trkpt>
      <trkpt lat="38.1879930" lon="-6.3020630">
        <ele>556.2</ele>
        <time>2021-10-20T07:42:41Z</time>
      </trkpt>
      <trkpt lat="38.1878230" lon="-6.3020860">
        <ele>557.2</ele>
        <time>2021-10-20T07:42:48Z</time>
      </trkpt>
      <trkpt lat="38.1877290" lon="-6.3020960">
        <ele>557.6</ele>
        <time>2021-10-20T07:42:52Z</time>
      </trkpt>
      <trkpt lat="38.1876840" lon="-6.3021010">
        <ele>558.0</ele>
        <time>2021-10-20T07:42:54Z</time>
      </trkpt>
      <trkpt lat="38.1876190" lon="-6.3021080">
        <ele>558.8</ele>
        <time>2021-10-20T07:42:57Z</time>
      </trkpt>
      <trkpt lat="38.1875360" lon="-6.3021170">
        <ele>559.4</ele>
        <time>2021-10-20T07:43:01Z</time>
      </trkpt>
      <trkpt lat="38.1875150" lon="-6.3021180">
        <ele>559.8</ele>
        <time>2021-10-20T07:43:02Z</time>
      </trkpt>
      <trkpt lat="38.1873520" lon="-6.3021330">
        <ele>560.8</ele>
        <time>2021-10-20T07:43:10Z</time>
      </trkpt>
      <trkpt lat="38.1873330" lon="-6.3021360">
        <ele>561.0</ele>
        <time>2021-10-20T07:43:11Z</time>
      </trkpt>
      <trkpt lat="38.1871770" lon="-6.3021510">
        <ele>562.0</ele>
        <time>2021-10-20T07:43:19Z</time>
      </trkpt>
      <trkpt lat="38.1871590" lon="-6.3021540">
        <ele>562.2</ele>
        <time>2021-10-20T07:43:20Z</time>
      </trkpt>
      <trkpt lat="38.1870040" lon="-6.3021850">
        <ele>563.0</ele>
        <time>2021-10-20T07:43:27Z</time>
      </trkpt>
      <trkpt lat="38.1869830" lon="-6.3021870">
        <ele>563.2</ele>
        <time>2021-10-20T07:43:28Z</time>
      </trkpt>
      <trkpt lat="38.1868430" lon="-6.3022140">
        <ele>563.4</ele>
        <time>2021-10-20T07:43:32Z</time>
      </trkpt>
      <trkpt lat="38.1866710" lon="-6.3022320">
        <ele>563.2</ele>
        <time>2021-10-20T07:43:36Z</time>
      </trkpt>
      <trkpt lat="38.1865690" lon="-6.3022410">
        <ele>563.0</ele>
        <time>2021-10-20T07:43:38Z</time>
      </trkpt>
      <trkpt lat="38.1864610" lon="-6.3022460">
        <ele>562.4</ele>
        <time>2021-10-20T07:43:40Z</time>
      </trkpt>
      <trkpt lat="38.1863960" lon="-6.3022480">
        <ele>562.2</ele>
        <time>2021-10-20T07:43:41Z</time>
      </trkpt>
      <trkpt lat="38.1862950" lon="-6.3022520">
        <ele>561.8</ele>
        <time>2021-10-20T07:43:43Z</time>
      </trkpt>
      <trkpt lat="38.1861740" lon="-6.3022570">
        <ele>561.4</ele>
        <time>2021-10-20T07:43:45Z</time>
      </trkpt>
      <trkpt lat="38.1861210" lon="-6.3022590">
        <ele>561.0</ele>
        <time>2021-10-20T07:43:46Z</time>
      </trkpt>
      <trkpt lat="38.1860260" lon="-6.3022620">
        <ele>560.8</ele>
        <time>2021-10-20T07:43:48Z</time>
      </trkpt>
      <trkpt lat="38.1858350" lon="-6.3022710">
        <ele>560.4</ele>
        <time>2021-10-20T07:43:52Z</time>
      </trkpt>
      <trkpt lat="38.1856280" lon="-6.3022690">
        <ele>560.2</ele>
        <time>2021-10-20T07:43:57Z</time>
      </trkpt>
      <trkpt lat="38.1855360" lon="-6.3022620">
        <ele>560.0</ele>
        <time>2021-10-20T07:43:59Z</time>
      </trkpt>
      <trkpt lat="38.1852870" lon="-6.3022090">
        <ele>560.0</ele>
        <time>2021-10-20T07:44:06Z</time>
      </trkpt>
      <trkpt lat="38.1851550" lon="-6.3021520">
        <ele>560.4</ele>
        <time>2021-10-20T07:44:10Z</time>
      </trkpt>
      <trkpt lat="38.1850620" lon="-6.3020910">
        <ele>560.8</ele>
        <time>2021-10-20T07:44:13Z</time>
      </trkpt>
      <trkpt lat="38.1849580" lon="-6.3019670">
        <ele>561.2</ele>
        <time>2021-10-20T07:44:18Z</time>
      </trkpt>
      <trkpt lat="38.1849080" lon="-6.3018950">
        <ele>562.0</ele>
        <time>2021-10-20T07:44:21Z</time>
      </trkpt>
      <trkpt lat="38.1848720" lon="-6.3018440">
        <ele>562.6</ele>
        <time>2021-10-20T07:44:23Z</time>
      </trkpt>
      <trkpt lat="38.1847650" lon="-6.3017030">
        <ele>563.2</ele>
        <time>2021-10-20T07:44:28Z</time>
      </trkpt>
      <trkpt lat="38.1847440" lon="-6.3016730">
        <ele>563.2</ele>
        <time>2021-10-20T07:44:29Z</time>
      </trkpt>
      <trkpt lat="38.1846500" lon="-6.3015530">
        <ele>563.2</ele>
        <time>2021-10-20T07:44:32Z</time>
      </trkpt>
      <trkpt lat="38.1845680" lon="-6.3014830">
        <ele>563.0</ele>
        <time>2021-10-20T07:44:34Z</time>
      </trkpt>
      <trkpt lat="38.1844710" lon="-6.3014310">
        <ele>562.8</ele>
        <time>2021-10-20T07:44:36Z</time>
      </trkpt>
      <trkpt lat="38.1843600" lon="-6.3013960">
        <ele>562.0</ele>
        <time>2021-10-20T07:44:38Z</time>
      </trkpt>
      <trkpt lat="38.1843020" lon="-6.3013820">
        <ele>561.4</ele>
        <time>2021-10-20T07:44:39Z</time>
      </trkpt>
      <trkpt lat="38.1841820" lon="-6.3013650">
        <ele>561.0</ele>
        <time>2021-10-20T07:44:41Z</time>
      </trkpt>
      <trkpt lat="38.1839930" lon="-6.3013870">
        <ele>559.6</ele>
        <time>2021-10-20T07:44:44Z</time>
      </trkpt>
      <trkpt lat="38.1837270" lon="-6.3014540">
        <ele>558.2</ele>
        <time>2021-10-20T07:44:48Z</time>
      </trkpt>
      <trkpt lat="38.1835230" lon="-6.3015100">
        <ele>557.0</ele>
        <time>2021-10-20T07:44:51Z</time>
      </trkpt>
      <trkpt lat="38.1834540" lon="-6.3015440">
        <ele>556.6</ele>
        <time>2021-10-20T07:44:52Z</time>
      </trkpt>
      <trkpt lat="38.1833920" lon="-6.3015810">
        <ele>556.2</ele>
        <time>2021-10-20T07:44:53Z</time>
      </trkpt>
      <trkpt lat="38.1832870" lon="-6.3016690">
        <ele>555.6</ele>
        <time>2021-10-20T07:44:55Z</time>
      </trkpt>
      <trkpt lat="38.1832430" lon="-6.3017160">
        <ele>555.2</ele>
        <time>2021-10-20T07:44:56Z</time>
      </trkpt>
      <trkpt lat="38.1830780" lon="-6.3018550">
        <ele>555.0</ele>
        <time>2021-10-20T07:45:00Z</time>
      </trkpt>
      <trkpt lat="38.1830420" lon="-6.3018750">
        <ele>555.0</ele>
        <time>2021-10-20T07:45:01Z</time>
      </trkpt>
      <trkpt lat="38.1828130" lon="-6.3019840">
        <ele>555.2</ele>
        <time>2021-10-20T07:45:08Z</time>
      </trkpt>
      <trkpt lat="38.1826930" lon="-6.3020330">
        <ele>555.4</ele>
        <time>2021-10-20T07:45:15Z</time>
      </trkpt>
      <trkpt lat="38.1826930" lon="-6.3020330">
        <ele>555.6</ele>
        <time>2021-10-20T07:45:16Z</time>
      </trkpt>
      <trkpt lat="38.1826430" lon="-6.3020290">
        <ele>556.0</ele>
        <time>2021-10-20T07:45:57Z</time>
      </trkpt>
      <trkpt lat="38.1826160" lon="-6.3020330">
        <ele>555.8</ele>
        <time>2021-10-20T07:45:58Z</time>
      </trkpt>
      <trkpt lat="38.1825930" lon="-6.3020370">
        <ele>555.8</ele>
        <time>2021-10-20T07:45:59Z</time>
      </trkpt>
      <trkpt lat="38.1824160" lon="-6.3020350">
        <ele>555.8</ele>
        <time>2021-10-20T07:46:04Z</time>
      </trkpt>
      <trkpt lat="38.1822270" lon="-6.3019970">
        <ele>555.4</ele>
        <time>2021-10-20T07:46:10Z</time>
      </trkpt>
      <trkpt lat="38.1821460" lon="-6.3019920">
        <ele>555.0</ele>
        <time>2021-10-20T07:46:14Z</time>
      </trkpt>
      <trkpt lat="38.1820850" lon="-6.3019680">
        <ele>554.6</ele>
        <time>2021-10-20T07:46:17Z</time>
      </trkpt>
      <trkpt lat="38.1820430" lon="-6.3019340">
        <ele>554.4</ele>
        <time>2021-10-20T07:46:20Z</time>
      </trkpt>
      <trkpt lat="38.1820390" lon="-6.3019730">
        <ele>554.0</ele>
        <time>2021-10-20T07:46:23Z</time>
      </trkpt>
      <trkpt lat="38.1821300" lon="-6.3021060">
        <ele>553.8</ele>
        <time>2021-10-20T07:46:28Z</time>
      </trkpt>
      <trkpt lat="38.1821560" lon="-6.3021680">
        <ele>553.6</ele>
        <time>2021-10-20T07:46:30Z</time>
      </trkpt>
      <trkpt lat="38.1822180" lon="-6.3023050">
        <ele>553.0</ele>
        <time>2021-10-20T07:46:34Z</time>
      </trkpt>
      <trkpt lat="38.1822430" lon="-6.3023610">
        <ele>552.6</ele>
        <time>2021-10-20T07:46:35Z</time>
      </trkpt>
      <trkpt lat="38.1823500" lon="-6.3026230">
        <ele>551.4</ele>
        <time>2021-10-20T07:46:40Z</time>
      </trkpt>
      <trkpt lat="38.1823640" lon="-6.3026600">
        <ele>551.0</ele>
        <time>2021-10-20T07:46:41Z</time>
      </trkpt>
      <trkpt lat="38.1824030" lon="-6.3027370">
        <ele>550.6</ele>
        <time>2021-10-20T07:46:43Z</time>
      </trkpt>
      <trkpt lat="38.1824230" lon="-6.3027820">
        <ele>550.2</ele>
        <time>2021-10-20T07:46:44Z</time>
      </trkpt>
      <trkpt lat="38.1824470" lon="-6.3028540">
        <ele>549.0</ele>
        <time>2021-10-20T07:46:47Z</time>
      </trkpt>
      <trkpt lat="38.1824490" lon="-6.3028630">
        <ele>548.4</ele>
        <time>2021-10-20T07:46:48Z</time>
      </trkpt>
      <trkpt lat="38.1824450" lon="-6.3028620">
        <ele>547.8</ele>
        <time>2021-10-20T07:46:50Z</time>
      </trkpt>
      <trkpt lat="38.1822270" lon="-6.3030350">
        <ele>547.6</ele>
        <time>2021-10-20T07:48:10Z</time>
      </trkpt>
      <trkpt lat="38.1822080" lon="-6.3030480">
        <ele>547.6</ele>
        <time>2021-10-20T07:48:11Z</time>
      </trkpt>
      <trkpt lat="38.1820730" lon="-6.3031510">
        <ele>547.6</ele>
        <time>2021-10-20T07:48:16Z</time>
      </trkpt>
      <trkpt lat="38.1819230" lon="-6.3032770">
        <ele>548.2</ele>
        <time>2021-10-20T07:48:23Z</time>
      </trkpt>
      <trkpt lat="38.1818760" lon="-6.3033170">
        <ele>548.8</ele>
        <time>2021-10-20T07:48:26Z</time>
      </trkpt>
      <trkpt lat="38.1817860" lon="-6.3034030">
        <ele>549.4</ele>
        <time>2021-10-20T07:48:31Z</time>
      </trkpt>
      <trkpt lat="38.1817490" lon="-6.3034330">
        <ele>549.6</ele>
        <time>2021-10-20T07:48:33Z</time>
      </trkpt>
      <trkpt lat="38.1816330" lon="-6.3035420">
        <ele>550.0</ele>
        <time>2021-10-20T07:48:39Z</time>
      </trkpt>
      <trkpt lat="38.1815620" lon="-6.3036070">
        <ele>550.6</ele>
        <time>2021-10-20T07:48:43Z</time>
      </trkpt>
      <trkpt lat="38.1815260" lon="-6.3036500">
        <ele>550.8</ele>
        <time>2021-10-20T07:48:45Z</time>
      </trkpt>
      <trkpt lat="38.1814730" lon="-6.3037140">
        <ele>551.2</ele>
        <time>2021-10-20T07:48:48Z</time>
      </trkpt>
      <trkpt lat="38.1813770" lon="-6.3038200">
        <ele>551.8</ele>
        <time>2021-10-20T07:48:53Z</time>
      </trkpt>
      <trkpt lat="38.1813350" lon="-6.3038630">
        <ele>552.0</ele>
        <time>2021-10-20T07:48:55Z</time>
      </trkpt>
      <trkpt lat="38.1812560" lon="-6.3039530">
        <ele>552.2</ele>
        <time>2021-10-20T07:48:59Z</time>
      </trkpt>
      <trkpt lat="38.1812240" lon="-6.3039980">
        <ele>552.4</ele>
        <time>2021-10-20T07:49:01Z</time>
      </trkpt>
      <trkpt lat="38.1811870" lon="-6.3040640">
        <ele>552.8</ele>
        <time>2021-10-20T07:49:04Z</time>
      </trkpt>
      <trkpt lat="38.1811450" lon="-6.3041300">
        <ele>553.0</ele>
        <time>2021-10-20T07:49:07Z</time>
      </trkpt>
      <trkpt lat="38.1811190" lon="-6.3042140">
        <ele>553.4</ele>
        <time>2021-10-20T07:49:10Z</time>
      </trkpt>
      <trkpt lat="38.1811120" lon="-6.3042370">
        <ele>553.4</ele>
        <time>2021-10-20T07:49:11Z</time>
      </trkpt>
      <trkpt lat="38.1810710" lon="-6.3043350">
        <ele>554.0</ele>
        <time>2021-10-20T07:49:15Z</time>
      </trkpt>
      <trkpt lat="38.1810320" lon="-6.3044150">
        <ele>554.0</ele>
        <time>2021-10-20T07:49:18Z</time>
      </trkpt>
      <trkpt lat="38.1810010" lon="-6.3044600">
        <ele>554.4</ele>
        <time>2021-10-20T07:49:20Z</time>
      </trkpt>
      <trkpt lat="38.1809890" lon="-6.3044780">
        <ele>554.4</ele>
        <time>2021-10-20T07:49:21Z</time>
      </trkpt>
      <trkpt lat="38.1809400" lon="-6.3045430">
        <ele>554.6</ele>
        <time>2021-10-20T07:49:24Z</time>
      </trkpt>
      <trkpt lat="38.1808380" lon="-6.3046440">
        <ele>554.8</ele>
        <time>2021-10-20T07:49:30Z</time>
      </trkpt>
      <trkpt lat="38.1807570" lon="-6.3047140">
        <ele>555.6</ele>
        <time>2021-10-20T07:49:35Z</time>
      </trkpt>
      <trkpt lat="38.1807020" lon="-6.3047530">
        <ele>555.8</ele>
        <time>2021-10-20T07:49:38Z</time>
      </trkpt>
      <trkpt lat="38.1806730" lon="-6.3047710">
        <ele>556.0</ele>
        <time>2021-10-20T07:49:40Z</time>
      </trkpt>
      <trkpt lat="38.1806060" lon="-6.3048180">
        <ele>556.6</ele>
        <time>2021-10-20T07:49:44Z</time>
      </trkpt>
      <trkpt lat="38.1805190" lon="-6.3048910">
        <ele>557.4</ele>
        <time>2021-10-20T07:49:49Z</time>
      </trkpt>
      <trkpt lat="38.1805040" lon="-6.3049020">
        <ele>557.6</ele>
        <time>2021-10-20T07:49:50Z</time>
      </trkpt>
      <trkpt lat="38.1803610" lon="-6.3050050">
        <ele>558.8</ele>
        <time>2021-10-20T07:49:59Z</time>
      </trkpt>
      <trkpt lat="38.1803290" lon="-6.3050260">
        <ele>559.2</ele>
        <time>2021-10-20T07:50:01Z</time>
      </trkpt>
      <trkpt lat="38.1803000" lon="-6.3050420">
        <ele>559.8</ele>
        <time>2021-10-20T07:50:03Z</time>
      </trkpt>
      <trkpt lat="38.1802230" lon="-6.3050850">
        <ele>560.6</ele>
        <time>2021-10-20T07:50:08Z</time>
      </trkpt>
      <trkpt lat="38.1801950" lon="-6.3051020">
        <ele>561.0</ele>
        <time>2021-10-20T07:50:10Z</time>
      </trkpt>
      <trkpt lat="38.1801080" lon="-6.3051360">
        <ele>562.2</ele>
        <time>2021-10-20T07:50:16Z</time>
      </trkpt>
      <trkpt lat="38.1800450" lon="-6.3051630">
        <ele>562.6</ele>
        <time>2021-10-20T07:50:20Z</time>
      </trkpt>
      <trkpt lat="38.1799970" lon="-6.3051850">
        <ele>563.2</ele>
        <time>2021-10-20T07:50:23Z</time>
      </trkpt>
      <trkpt lat="38.1799820" lon="-6.3051920">
        <ele>563.2</ele>
        <time>2021-10-20T07:50:24Z</time>
      </trkpt>
      <trkpt lat="38.1798950" lon="-6.3052350">
        <ele>564.2</ele>
        <time>2021-10-20T07:50:30Z</time>
      </trkpt>
      <trkpt lat="38.1798780" lon="-6.3052450">
        <ele>564.4</ele>
        <time>2021-10-20T07:50:31Z</time>
      </trkpt>
      <trkpt lat="38.1798320" lon="-6.3052690">
        <ele>564.6</ele>
        <time>2021-10-20T07:50:34Z</time>
      </trkpt>
      <trkpt lat="38.1797960" lon="-6.3052850">
        <ele>565.0</ele>
        <time>2021-10-20T07:50:36Z</time>
      </trkpt>
      <trkpt lat="38.1797660" lon="-6.3053050">
        <ele>565.2</ele>
        <time>2021-10-20T07:50:38Z</time>
      </trkpt>
      <trkpt lat="38.1797560" lon="-6.3053110">
        <ele>565.4</ele>
        <time>2021-10-20T07:50:39Z</time>
      </trkpt>
      <trkpt lat="38.1797400" lon="-6.3053190">
        <ele>565.4</ele>
        <time>2021-10-20T07:50:40Z</time>
      </trkpt>
      <trkpt lat="38.1796850" lon="-6.3053390">
        <ele>565.6</ele>
        <time>2021-10-20T07:50:43Z</time>
      </trkpt>
      <trkpt lat="38.1796290" lon="-6.3053660">
        <ele>565.8</ele>
        <time>2021-10-20T07:50:46Z</time>
      </trkpt>
      <trkpt lat="38.1795960" lon="-6.3053880">
        <ele>565.8</ele>
        <time>2021-10-20T07:50:48Z</time>
      </trkpt>
      <trkpt lat="38.1795560" lon="-6.3054130">
        <ele>566.0</ele>
        <time>2021-10-20T07:50:50Z</time>
      </trkpt>
      <trkpt lat="38.1794500" lon="-6.3054660">
        <ele>566.4</ele>
        <time>2021-10-20T07:50:56Z</time>
      </trkpt>
      <trkpt lat="38.1793740" lon="-6.3055130">
        <ele>566.8</ele>
        <time>2021-10-20T07:51:00Z</time>
      </trkpt>
      <trkpt lat="38.1793600" lon="-6.3055250">
        <ele>566.8</ele>
        <time>2021-10-20T07:51:01Z</time>
      </trkpt>
      <trkpt lat="38.1792690" lon="-6.3055900">
        <ele>567.4</ele>
        <time>2021-10-20T07:51:07Z</time>
      </trkpt>
      <trkpt lat="38.1792530" lon="-6.3056020">
        <ele>567.6</ele>
        <time>2021-10-20T07:51:08Z</time>
      </trkpt>
      <trkpt lat="38.1791240" lon="-6.3056840">
        <ele>568.2</ele>
        <time>2021-10-20T07:51:16Z</time>
      </trkpt>
      <trkpt lat="38.1790770" lon="-6.3057180">
        <ele>568.6</ele>
        <time>2021-10-20T07:51:19Z</time>
      </trkpt>
      <trkpt lat="38.1789820" lon="-6.3058030">
        <ele>569.2</ele>
        <time>2021-10-20T07:51:25Z</time>
      </trkpt>
      <trkpt lat="38.1788590" lon="-6.3059280">
        <ele>569.6</ele>
        <time>2021-10-20T07:51:33Z</time>
      </trkpt>
      <trkpt lat="38.1788430" lon="-6.3059450">
        <ele>569.6</ele>
        <time>2021-10-20T07:51:34Z</time>
      </trkpt>
      <trkpt lat="38.1788120" lon="-6.3059770">
        <ele>569.8</ele>
        <time>2021-10-20T07:51:36Z</time>
      </trkpt>
      <trkpt lat="38.1786770" lon="-6.3061150">
        <ele>570.4</ele>
        <time>2021-10-20T07:51:45Z</time>
      </trkpt>
      <trkpt lat="38.1786450" lon="-6.3061430">
        <ele>570.8</ele>
        <time>2021-10-20T07:51:47Z</time>
      </trkpt>
      <trkpt lat="38.1785540" lon="-6.3062240">
        <ele>571.4</ele>
        <time>2021-10-20T07:51:53Z</time>
      </trkpt>
      <trkpt lat="38.1785110" lon="-6.3062570">
        <ele>571.8</ele>
        <time>2021-10-20T07:51:56Z</time>
      </trkpt>
      <trkpt lat="38.1784420" lon="-6.3063190">
        <ele>572.4</ele>
        <time>2021-10-20T07:52:01Z</time>
      </trkpt>
      <trkpt lat="38.1783980" lon="-6.3063610">
        <ele>572.8</ele>
        <time>2021-10-20T07:52:04Z</time>
      </trkpt>
      <trkpt lat="38.1783840" lon="-6.3063710">
        <ele>572.8</ele>
        <time>2021-10-20T07:52:05Z</time>
      </trkpt>
      <trkpt lat="38.1782660" lon="-6.3064590">
        <ele>574.0</ele>
        <time>2021-10-20T07:52:13Z</time>
      </trkpt>
      <trkpt lat="38.1782340" lon="-6.3064870">
        <ele>574.2</ele>
        <time>2021-10-20T07:52:15Z</time>
      </trkpt>
      <trkpt lat="38.1781900" lon="-6.3065220">
        <ele>574.8</ele>
        <time>2021-10-20T07:52:18Z</time>
      </trkpt>
      <trkpt lat="38.1781600" lon="-6.3065390">
        <ele>575.0</ele>
        <time>2021-10-20T07:52:20Z</time>
      </trkpt>
      <trkpt lat="38.1781100" lon="-6.3065700">
        <ele>575.4</ele>
        <time>2021-10-20T07:52:23Z</time>
      </trkpt>
      <trkpt lat="38.1780820" lon="-6.3065890">
        <ele>575.4</ele>
        <time>2021-10-20T07:52:25Z</time>
      </trkpt>
      <trkpt lat="38.1780200" lon="-6.3066360">
        <ele>575.8</ele>
        <time>2021-10-20T07:52:29Z</time>
      </trkpt>
      <trkpt lat="38.1780080" lon="-6.3066460">
        <ele>575.8</ele>
        <time>2021-10-20T07:52:30Z</time>
      </trkpt>
      <trkpt lat="38.1779740" lon="-6.3066750">
        <ele>576.2</ele>
        <time>2021-10-20T07:52:32Z</time>
      </trkpt>
      <trkpt lat="38.1779290" lon="-6.3067090">
        <ele>576.4</ele>
        <time>2021-10-20T07:52:35Z</time>
      </trkpt>
      <trkpt lat="38.1778770" lon="-6.3067700">
        <ele>577.0</ele>
        <time>2021-10-20T07:52:39Z</time>
      </trkpt>
      <trkpt lat="38.1778110" lon="-6.3068430">
        <ele>577.0</ele>
        <time>2021-10-20T07:52:43Z</time>
      </trkpt>
      <trkpt lat="38.1777800" lon="-6.3068810">
        <ele>577.0</ele>
        <time>2021-10-20T07:52:45Z</time>
      </trkpt>
      <trkpt lat="38.1777510" lon="-6.3069100">
        <ele>577.4</ele>
        <time>2021-10-20T07:52:47Z</time>
      </trkpt>
      <trkpt lat="38.1776760" lon="-6.3070090">
        <ele>577.4</ele>
        <time>2021-10-20T07:52:52Z</time>
      </trkpt>
      <trkpt lat="38.1775920" lon="-6.3071270">
        <ele>577.4</ele>
        <time>2021-10-20T07:52:57Z</time>
      </trkpt>
      <trkpt lat="38.1774750" lon="-6.3073040">
        <ele>577.4</ele>
        <time>2021-10-20T07:53:04Z</time>
      </trkpt>
      <trkpt lat="38.1774590" lon="-6.3073250">
        <ele>577.4</ele>
        <time>2021-10-20T07:53:05Z</time>
      </trkpt>
      <trkpt lat="38.1773460" lon="-6.3074620">
        <ele>577.0</ele>
        <time>2021-10-20T07:53:12Z</time>
      </trkpt>
      <trkpt lat="38.1773260" lon="-6.3074850">
        <ele>577.0</ele>
        <time>2021-10-20T07:53:13Z</time>
      </trkpt>
      <trkpt lat="38.1772540" lon="-6.3075690">
        <ele>577.0</ele>
        <time>2021-10-20T07:53:16Z</time>
      </trkpt>
      <trkpt lat="38.1771990" lon="-6.3076330">
        <ele>577.0</ele>
        <time>2021-10-20T07:53:18Z</time>
      </trkpt>
      <trkpt lat="38.1770710" lon="-6.3077830">
        <ele>576.4</ele>
        <time>2021-10-20T07:53:22Z</time>
      </trkpt>
      <trkpt lat="38.1770030" lon="-6.3078390">
        <ele>576.4</ele>
        <time>2021-10-20T07:53:24Z</time>
      </trkpt>
      <trkpt lat="38.1769210" lon="-6.3079070">
        <ele>575.8</ele>
        <time>2021-10-20T07:53:26Z</time>
      </trkpt>
      <trkpt lat="38.1767830" lon="-6.3080420">
        <ele>575.4</ele>
        <time>2021-10-20T07:53:30Z</time>
      </trkpt>
      <trkpt lat="38.1767540" lon="-6.3080780">
        <ele>575.4</ele>
        <time>2021-10-20T07:53:31Z</time>
      </trkpt>
      <trkpt lat="38.1767280" lon="-6.3081150">
        <ele>575.2</ele>
        <time>2021-10-20T07:53:32Z</time>
      </trkpt>
      <trkpt lat="38.1766310" lon="-6.3082570">
        <ele>575.2</ele>
        <time>2021-10-20T07:53:36Z</time>
      </trkpt>
      <trkpt lat="38.1766090" lon="-6.3082910">
        <ele>575.0</ele>
        <time>2021-10-20T07:53:37Z</time>
      </trkpt>
      <trkpt lat="38.1765690" lon="-6.3083630">
        <ele>574.8</ele>
        <time>2021-10-20T07:53:39Z</time>
      </trkpt>
      <trkpt lat="38.1765080" lon="-6.3084670">
        <ele>574.8</ele>
        <time>2021-10-20T07:53:42Z</time>
      </trkpt>
      <trkpt lat="38.1764460" lon="-6.3085640">
        <ele>574.8</ele>
        <time>2021-10-20T07:53:45Z</time>
      </trkpt>
      <trkpt lat="38.1764040" lon="-6.3086250">
        <ele>574.8</ele>
        <time>2021-10-20T07:53:47Z</time>
      </trkpt>
      <trkpt lat="38.1762230" lon="-6.3088500">
        <ele>575.4</ele>
        <time>2021-10-20T07:53:55Z</time>
      </trkpt>
      <trkpt lat="38.1761130" lon="-6.3090520">
        <ele>576.2</ele>
        <time>2021-10-20T07:54:03Z</time>
      </trkpt>
      <trkpt lat="38.1760410" lon="-6.3092120">
        <ele>577.0</ele>
        <time>2021-10-20T07:54:10Z</time>
      </trkpt>
      <trkpt lat="38.1760300" lon="-6.3092330">
        <ele>577.4</ele>
        <time>2021-10-20T07:54:11Z</time>
      </trkpt>
      <trkpt lat="38.1759710" lon="-6.3093580">
        <ele>578.2</ele>
        <time>2021-10-20T07:54:17Z</time>
      </trkpt>
      <trkpt lat="38.1759610" lon="-6.3093860">
        <ele>578.4</ele>
        <time>2021-10-20T07:54:18Z</time>
      </trkpt>
      <trkpt lat="38.1759450" lon="-6.3094240">
        <ele>578.4</ele>
        <time>2021-10-20T07:54:20Z</time>
      </trkpt>
      <trkpt lat="38.1759220" lon="-6.3094730">
        <ele>578.6</ele>
        <time>2021-10-20T07:54:22Z</time>
      </trkpt>
      <trkpt lat="38.1758930" lon="-6.3095340">
        <ele>579.4</ele>
        <time>2021-10-20T07:54:25Z</time>
      </trkpt>
      <trkpt lat="38.1758820" lon="-6.3095600">
        <ele>579.4</ele>
        <time>2021-10-20T07:54:26Z</time>
      </trkpt>
      <trkpt lat="38.1758720" lon="-6.3095830">
        <ele>579.6</ele>
        <time>2021-10-20T07:54:27Z</time>
      </trkpt>
      <trkpt lat="38.1758490" lon="-6.3096550">
        <ele>579.6</ele>
        <time>2021-10-20T07:54:30Z</time>
      </trkpt>
      <trkpt lat="38.1758190" lon="-6.3097370">
        <ele>579.6</ele>
        <time>2021-10-20T07:54:34Z</time>
      </trkpt>
      <trkpt lat="38.1757920" lon="-6.3098110">
        <ele>579.8</ele>
        <time>2021-10-20T07:54:37Z</time>
      </trkpt>
      <trkpt lat="38.1757690" lon="-6.3098800">
        <ele>580.2</ele>
        <time>2021-10-20T07:54:40Z</time>
      </trkpt>
      <trkpt lat="38.1757510" lon="-6.3099250">
        <ele>580.2</ele>
        <time>2021-10-20T07:54:42Z</time>
      </trkpt>
      <trkpt lat="38.1757250" lon="-6.3099870">
        <ele>580.4</ele>
        <time>2021-10-20T07:54:45Z</time>
      </trkpt>
      <trkpt lat="38.1756980" lon="-6.3100540">
        <ele>580.8</ele>
        <time>2021-10-20T07:54:48Z</time>
      </trkpt>
      <trkpt lat="38.1756550" lon="-6.3101680">
        <ele>581.2</ele>
        <time>2021-10-20T07:54:53Z</time>
      </trkpt>
      <trkpt lat="38.1756320" lon="-6.3102310">
        <ele>581.8</ele>
        <time>2021-10-20T07:54:56Z</time>
      </trkpt>
      <trkpt lat="38.1756260" lon="-6.3102490">
        <ele>582.2</ele>
        <time>2021-10-20T07:54:57Z</time>
      </trkpt>
      <trkpt lat="38.1755480" lon="-6.3104770">
        <ele>583.2</ele>
        <time>2021-10-20T07:55:07Z</time>
      </trkpt>
      <trkpt lat="38.1755420" lon="-6.3104980">
        <ele>583.4</ele>
        <time>2021-10-20T07:55:08Z</time>
      </trkpt>
      <trkpt lat="38.1755210" lon="-6.3105510">
        <ele>584.2</ele>
        <time>2021-10-20T07:55:11Z</time>
      </trkpt>
      <trkpt lat="38.1755160" lon="-6.3105680">
        <ele>584.4</ele>
        <time>2021-10-20T07:55:12Z</time>
      </trkpt>
      <trkpt lat="38.1754930" lon="-6.3106380">
        <ele>585.0</ele>
        <time>2021-10-20T07:55:16Z</time>
      </trkpt>
      <trkpt lat="38.1754750" lon="-6.3106960">
        <ele>585.6</ele>
        <time>2021-10-20T07:55:19Z</time>
      </trkpt>
      <trkpt lat="38.1754610" lon="-6.3107320">
        <ele>586.0</ele>
        <time>2021-10-20T07:55:21Z</time>
      </trkpt>
      <trkpt lat="38.1754370" lon="-6.3107850">
        <ele>586.4</ele>
        <time>2021-10-20T07:55:24Z</time>
      </trkpt>
      <trkpt lat="38.1754290" lon="-6.3108040">
        <ele>586.6</ele>
        <time>2021-10-20T07:55:25Z</time>
      </trkpt>
      <trkpt lat="38.1754180" lon="-6.3108260">
        <ele>586.8</ele>
        <time>2021-10-20T07:55:26Z</time>
      </trkpt>
      <trkpt lat="38.1754000" lon="-6.3108600">
        <ele>587.4</ele>
        <time>2021-10-20T07:55:28Z</time>
      </trkpt>
      <trkpt lat="38.1753870" lon="-6.3108860">
        <ele>587.6</ele>
        <time>2021-10-20T07:55:30Z</time>
      </trkpt>
      <trkpt lat="38.1753770" lon="-6.3109050">
        <ele>587.8</ele>
        <time>2021-10-20T07:55:31Z</time>
      </trkpt>
      <trkpt lat="38.1753670" lon="-6.3109390">
        <ele>588.0</ele>
        <time>2021-10-20T07:55:33Z</time>
      </trkpt>
      <trkpt lat="38.1753510" lon="-6.3109780">
        <ele>588.2</ele>
        <time>2021-10-20T07:55:35Z</time>
      </trkpt>
      <trkpt lat="38.1753190" lon="-6.3110480">
        <ele>588.6</ele>
        <time>2021-10-20T07:55:39Z</time>
      </trkpt>
      <trkpt lat="38.1753110" lon="-6.3110660">
        <ele>588.8</ele>
        <time>2021-10-20T07:55:40Z</time>
      </trkpt>
      <trkpt lat="38.1752820" lon="-6.3111340">
        <ele>589.4</ele>
        <time>2021-10-20T07:55:44Z</time>
      </trkpt>
      <trkpt lat="38.1752730" lon="-6.3111490">
        <ele>589.4</ele>
        <time>2021-10-20T07:55:45Z</time>
      </trkpt>
      <trkpt lat="38.1752540" lon="-6.3111880">
        <ele>589.8</ele>
        <time>2021-10-20T07:55:47Z</time>
      </trkpt>
      <trkpt lat="38.1752330" lon="-6.3112490">
        <ele>590.0</ele>
        <time>2021-10-20T07:55:50Z</time>
      </trkpt>
      <trkpt lat="38.1752130" lon="-6.3113260">
        <ele>590.8</ele>
        <time>2021-10-20T07:55:54Z</time>
      </trkpt>
      <trkpt lat="38.1751980" lon="-6.3113810">
        <ele>591.0</ele>
        <time>2021-10-20T07:55:57Z</time>
      </trkpt>
      <trkpt lat="38.1751850" lon="-6.3114160">
        <ele>591.4</ele>
        <time>2021-10-20T07:55:59Z</time>
      </trkpt>
      <trkpt lat="38.1751790" lon="-6.3114320">
        <ele>591.6</ele>
        <time>2021-10-20T07:56:00Z</time>
      </trkpt>
      <trkpt lat="38.1751730" lon="-6.3114630">
        <ele>591.8</ele>
        <time>2021-10-20T07:56:02Z</time>
      </trkpt>
      <trkpt lat="38.1751570" lon="-6.3115390">
        <ele>592.8</ele>
        <time>2021-10-20T07:56:06Z</time>
      </trkpt>
      <trkpt lat="38.1751520" lon="-6.3115560">
        <ele>592.8</ele>
        <time>2021-10-20T07:56:07Z</time>
      </trkpt>
      <trkpt lat="38.1751450" lon="-6.3115880">
        <ele>593.2</ele>
        <time>2021-10-20T07:56:09Z</time>
      </trkpt>
      <trkpt lat="38.1751440" lon="-6.3116020">
        <ele>593.4</ele>
        <time>2021-10-20T07:56:10Z</time>
      </trkpt>
      <trkpt lat="38.1751380" lon="-6.3116390">
        <ele>593.6</ele>
        <time>2021-10-20T07:56:12Z</time>
      </trkpt>
      <trkpt lat="38.1751340" lon="-6.3116790">
        <ele>594.0</ele>
        <time>2021-10-20T07:56:14Z</time>
      </trkpt>
      <trkpt lat="38.1751300" lon="-6.3117190">
        <ele>594.2</ele>
        <time>2021-10-20T07:56:16Z</time>
      </trkpt>
      <trkpt lat="38.1751250" lon="-6.3117720">
        <ele>594.6</ele>
        <time>2021-10-20T07:56:19Z</time>
      </trkpt>
      <trkpt lat="38.1751170" lon="-6.3118090">
        <ele>594.8</ele>
        <time>2021-10-20T07:56:21Z</time>
      </trkpt>
      <trkpt lat="38.1751140" lon="-6.3118260">
        <ele>595.0</ele>
        <time>2021-10-20T07:56:22Z</time>
      </trkpt>
      <trkpt lat="38.1751080" lon="-6.3118620">
        <ele>595.2</ele>
        <time>2021-10-20T07:56:24Z</time>
      </trkpt>
      <trkpt lat="38.1751030" lon="-6.3118980">
        <ele>595.6</ele>
        <time>2021-10-20T07:56:26Z</time>
      </trkpt>
      <trkpt lat="38.1750990" lon="-6.3119710">
        <ele>595.8</ele>
        <time>2021-10-20T07:56:30Z</time>
      </trkpt>
      <trkpt lat="38.1750950" lon="-6.3119910">
        <ele>595.8</ele>
        <time>2021-10-20T07:56:31Z</time>
      </trkpt>
      <trkpt lat="38.1750900" lon="-6.3120130">
        <ele>596.0</ele>
        <time>2021-10-20T07:56:32Z</time>
      </trkpt>
      <trkpt lat="38.1750720" lon="-6.3120840">
        <ele>596.8</ele>
        <time>2021-10-20T07:56:36Z</time>
      </trkpt>
      <trkpt lat="38.1750590" lon="-6.3121390">
        <ele>597.0</ele>
        <time>2021-10-20T07:56:39Z</time>
      </trkpt>
      <trkpt lat="38.1750540" lon="-6.3121630">
        <ele>597.0</ele>
        <time>2021-10-20T07:56:40Z</time>
      </trkpt>
      <trkpt lat="38.1750230" lon="-6.3122910">
        <ele>597.8</ele>
        <time>2021-10-20T07:56:47Z</time>
      </trkpt>
      <trkpt lat="38.1750080" lon="-6.3123330">
        <ele>598.2</ele>
        <time>2021-10-20T07:56:49Z</time>
      </trkpt>
      <trkpt lat="38.1749900" lon="-6.3123820">
        <ele>598.4</ele>
        <time>2021-10-20T07:56:52Z</time>
      </trkpt>
      <trkpt lat="38.1749720" lon="-6.3124400">
        <ele>598.6</ele>
        <time>2021-10-20T07:56:55Z</time>
      </trkpt>
      <trkpt lat="38.1749340" lon="-6.3125460">
        <ele>599.2</ele>
        <time>2021-10-20T07:57:01Z</time>
      </trkpt>
      <trkpt lat="38.1749160" lon="-6.3125820">
        <ele>599.6</ele>
        <time>2021-10-20T07:57:03Z</time>
      </trkpt>
      <trkpt lat="38.1748780" lon="-6.3126800">
        <ele>600.0</ele>
        <time>2021-10-20T07:57:08Z</time>
      </trkpt>
      <trkpt lat="38.1748700" lon="-6.3127180">
        <ele>600.4</ele>
        <time>2021-10-20T07:57:10Z</time>
      </trkpt>
      <trkpt lat="38.1748610" lon="-6.3127520">
        <ele>600.8</ele>
        <time>2021-10-20T07:57:12Z</time>
      </trkpt>
      <trkpt lat="38.1748400" lon="-6.3127920">
        <ele>601.2</ele>
        <time>2021-10-20T07:57:15Z</time>
      </trkpt>
      <trkpt lat="38.1748240" lon="-6.3128270">
        <ele>601.6</ele>
        <time>2021-10-20T07:57:17Z</time>
      </trkpt>
      <trkpt lat="38.1748160" lon="-6.3128450">
        <ele>601.6</ele>
        <time>2021-10-20T07:57:18Z</time>
      </trkpt>
      <trkpt lat="38.1748020" lon="-6.3128760">
        <ele>601.8</ele>
        <time>2021-10-20T07:57:20Z</time>
      </trkpt>
      <trkpt lat="38.1747360" lon="-6.3129390">
        <ele>602.4</ele>
        <time>2021-10-20T07:57:25Z</time>
      </trkpt>
      <trkpt lat="38.1747200" lon="-6.3129450">
        <ele>602.8</ele>
        <time>2021-10-20T07:57:26Z</time>
      </trkpt>
      <trkpt lat="38.1746120" lon="-6.3129840">
        <ele>603.8</ele>
        <time>2021-10-20T07:57:32Z</time>
      </trkpt>
      <trkpt lat="38.1745800" lon="-6.3129850">
        <ele>604.0</ele>
        <time>2021-10-20T07:57:34Z</time>
      </trkpt>
      <trkpt lat="38.1744150" lon="-6.3129840">
        <ele>604.4</ele>
        <time>2021-10-20T07:57:43Z</time>
      </trkpt>
      <trkpt lat="38.1743530" lon="-6.3129690">
        <ele>604.6</ele>
        <time>2021-10-20T07:57:46Z</time>
      </trkpt>
      <trkpt lat="38.1743030" lon="-6.3129540">
        <ele>604.8</ele>
        <time>2021-10-20T07:57:49Z</time>
      </trkpt>
      <trkpt lat="38.1742440" lon="-6.3129310">
        <ele>605.0</ele>
        <time>2021-10-20T07:57:52Z</time>
      </trkpt>
      <trkpt lat="38.1742090" lon="-6.3129100">
        <ele>605.2</ele>
        <time>2021-10-20T07:57:54Z</time>
      </trkpt>
      <trkpt lat="38.1740760" lon="-6.3128660">
        <ele>605.8</ele>
        <time>2021-10-20T07:58:02Z</time>
      </trkpt>
      <trkpt lat="38.1740180" lon="-6.3128450">
        <ele>606.0</ele>
        <time>2021-10-20T07:58:05Z</time>
      </trkpt>
      <trkpt lat="38.1739060" lon="-6.3128110">
        <ele>606.6</ele>
        <time>2021-10-20T07:58:12Z</time>
      </trkpt>
      <trkpt lat="38.1738080" lon="-6.3127800">
        <ele>607.0</ele>
        <time>2021-10-20T07:58:18Z</time>
      </trkpt>
      <trkpt lat="38.1737030" lon="-6.3127630">
        <ele>607.8</ele>
        <time>2021-10-20T07:58:24Z</time>
      </trkpt>
      <trkpt lat="38.1736740" lon="-6.3127580">
        <ele>608.2</ele>
        <time>2021-10-20T07:58:26Z</time>
      </trkpt>
      <trkpt lat="38.1735490" lon="-6.3127240">
        <ele>609.0</ele>
        <time>2021-10-20T07:58:34Z</time>
      </trkpt>
      <trkpt lat="38.1734970" lon="-6.3127180">
        <ele>609.2</ele>
        <time>2021-10-20T07:58:37Z</time>
      </trkpt>
      <trkpt lat="38.1734480" lon="-6.3127100">
        <ele>609.6</ele>
        <time>2021-10-20T07:58:40Z</time>
      </trkpt>
      <trkpt lat="38.1733960" lon="-6.3127050">
        <ele>609.8</ele>
        <time>2021-10-20T07:58:43Z</time>
      </trkpt>
      <trkpt lat="38.1733300" lon="-6.3126940">
        <ele>610.4</ele>
        <time>2021-10-20T07:58:47Z</time>
      </trkpt>
      <trkpt lat="38.1732700" lon="-6.3126830">
        <ele>611.0</ele>
        <time>2021-10-20T07:58:51Z</time>
      </trkpt>
      <trkpt lat="38.1732530" lon="-6.3126820">
        <ele>611.4</ele>
        <time>2021-10-20T07:58:52Z</time>
      </trkpt>
      <trkpt lat="38.1732390" lon="-6.3126810">
        <ele>611.4</ele>
        <time>2021-10-20T07:58:53Z</time>
      </trkpt>
      <trkpt lat="38.1730810" lon="-6.3126830">
        <ele>612.4</ele>
        <time>2021-10-20T07:59:01Z</time>
      </trkpt>
      <trkpt lat="38.1730170" lon="-6.3126950">
        <ele>612.8</ele>
        <time>2021-10-20T07:59:04Z</time>
      </trkpt>
      <trkpt lat="38.1728970" lon="-6.3127520">
        <ele>612.8</ele>
        <time>2021-10-20T07:59:10Z</time>
      </trkpt>
      <trkpt lat="38.1727990" lon="-6.3128330">
        <ele>613.0</ele>
        <time>2021-10-20T07:59:16Z</time>
      </trkpt>
      <trkpt lat="38.1727650" lon="-6.3128750">
        <ele>613.2</ele>
        <time>2021-10-20T07:59:18Z</time>
      </trkpt>
      <trkpt lat="38.1727390" lon="-6.3129060">
        <ele>613.2</ele>
        <time>2021-10-20T07:59:20Z</time>
      </trkpt>
      <trkpt lat="38.1726220" lon="-6.3129830">
        <ele>613.8</ele>
        <time>2021-10-20T07:59:27Z</time>
      </trkpt>
      <trkpt lat="38.1725690" lon="-6.3130090">
        <ele>614.4</ele>
        <time>2021-10-20T07:59:30Z</time>
      </trkpt>
      <trkpt lat="38.1724620" lon="-6.3130590">
        <ele>615.2</ele>
        <time>2021-10-20T07:59:36Z</time>
      </trkpt>
      <trkpt lat="38.1724230" lon="-6.3130740">
        <ele>615.4</ele>
        <time>2021-10-20T07:59:38Z</time>
      </trkpt>
      <trkpt lat="38.1723140" lon="-6.3131020">
        <ele>616.0</ele>
        <time>2021-10-20T07:59:44Z</time>
      </trkpt>
      <trkpt lat="38.1721960" lon="-6.3131570">
        <ele>616.4</ele>
        <time>2021-10-20T07:59:51Z</time>
      </trkpt>
      <trkpt lat="38.1721410" lon="-6.3131790">
        <ele>616.8</ele>
        <time>2021-10-20T07:59:54Z</time>
      </trkpt>
      <trkpt lat="38.1719880" lon="-6.3132030">
        <ele>617.4</ele>
        <time>2021-10-20T08:00:02Z</time>
      </trkpt>
      <trkpt lat="38.1719730" lon="-6.3132010">
        <ele>617.6</ele>
        <time>2021-10-20T08:00:03Z</time>
      </trkpt>
      <trkpt lat="38.1719350" lon="-6.3131940">
        <ele>617.8</ele>
        <time>2021-10-20T08:00:05Z</time>
      </trkpt>
      <trkpt lat="38.1718400" lon="-6.3131810">
        <ele>618.2</ele>
        <time>2021-10-20T08:00:10Z</time>
      </trkpt>
      <trkpt lat="38.1718010" lon="-6.3131680">
        <ele>618.6</ele>
        <time>2021-10-20T08:00:12Z</time>
      </trkpt>
      <trkpt lat="38.1716790" lon="-6.3131080">
        <ele>619.6</ele>
        <time>2021-10-20T08:00:19Z</time>
      </trkpt>
      <trkpt lat="38.1716070" lon="-6.3130910">
        <ele>620.2</ele>
        <time>2021-10-20T08:00:23Z</time>
      </trkpt>
      <trkpt lat="38.1715590" lon="-6.3130820">
        <ele>620.6</ele>
        <time>2021-10-20T08:00:26Z</time>
      </trkpt>
      <trkpt lat="38.1715420" lon="-6.3130790">
        <ele>620.8</ele>
        <time>2021-10-20T08:00:27Z</time>
      </trkpt>
      <trkpt lat="38.1715080" lon="-6.3130750">
        <ele>621.2</ele>
        <time>2021-10-20T08:00:29Z</time>
      </trkpt>
      <trkpt lat="38.1714750" lon="-6.3130700">
        <ele>621.4</ele>
        <time>2021-10-20T08:00:31Z</time>
      </trkpt>
      <trkpt lat="38.1714220" lon="-6.3130610">
        <ele>621.8</ele>
        <time>2021-10-20T08:00:34Z</time>
      </trkpt>
      <trkpt lat="38.1713300" lon="-6.3130800">
        <ele>622.8</ele>
        <time>2021-10-20T08:00:40Z</time>
      </trkpt>
      <trkpt lat="38.1713180" lon="-6.3130840">
        <ele>623.0</ele>
        <time>2021-10-20T08:00:41Z</time>
      </trkpt>
      <trkpt lat="38.1712220" lon="-6.3131060">
        <ele>624.0</ele>
        <time>2021-10-20T08:00:47Z</time>
      </trkpt>
      <trkpt lat="38.1712070" lon="-6.3131120">
        <ele>624.4</ele>
        <time>2021-10-20T08:00:48Z</time>
      </trkpt>
      <trkpt lat="38.1711300" lon="-6.3131140">
        <ele>625.2</ele>
        <time>2021-10-20T08:00:54Z</time>
      </trkpt>
      <trkpt lat="38.1711290" lon="-6.3131120">
        <ele>625.2</ele>
        <time>2021-10-20T08:00:57Z</time>
      </trkpt>
      <trkpt lat="38.1710730" lon="-6.3131150">
        <ele>625.2</ele>
        <time>2021-10-20T08:02:57Z</time>
      </trkpt>
      <trkpt lat="38.1710370" lon="-6.3131110">
        <ele>625.2</ele>
        <time>2021-10-20T08:02:59Z</time>
      </trkpt>
      <trkpt lat="38.1709040" lon="-6.3130980">
        <ele>625.4</ele>
        <time>2021-10-20T08:03:06Z</time>
      </trkpt>
      <trkpt lat="38.1708190" lon="-6.3130780">
        <ele>625.2</ele>
        <time>2021-10-20T08:03:10Z</time>
      </trkpt>
      <trkpt lat="38.1707370" lon="-6.3130690">
        <ele>625.2</ele>
        <time>2021-10-20T08:03:13Z</time>
      </trkpt>
      <trkpt lat="38.1704920" lon="-6.3130280">
        <ele>625.4</ele>
        <time>2021-10-20T08:03:21Z</time>
      </trkpt>
      <trkpt lat="38.1702170" lon="-6.3130370">
        <ele>625.4</ele>
        <time>2021-10-20T08:03:29Z</time>
      </trkpt>
      <trkpt lat="38.1700130" lon="-6.3130590">
        <ele>625.4</ele>
        <time>2021-10-20T08:03:35Z</time>
      </trkpt>
      <trkpt lat="38.1697400" lon="-6.3130300">
        <ele>625.4</ele>
        <time>2021-10-20T08:03:43Z</time>
      </trkpt>
      <trkpt lat="38.1695830" lon="-6.3129880">
        <ele>625.4</ele>
        <time>2021-10-20T08:03:48Z</time>
      </trkpt>
      <trkpt lat="38.1695540" lon="-6.3129790">
        <ele>625.6</ele>
        <time>2021-10-20T08:03:49Z</time>
      </trkpt>
      <trkpt lat="38.1694650" lon="-6.3129560">
        <ele>625.8</ele>
        <time>2021-10-20T08:03:52Z</time>
      </trkpt>
      <trkpt lat="38.1692430" lon="-6.3129290">
        <ele>626.2</ele>
        <time>2021-10-20T08:04:00Z</time>
      </trkpt>
      <trkpt lat="38.1691050" lon="-6.3129260">
        <ele>626.6</ele>
        <time>2021-10-20T08:04:05Z</time>
      </trkpt>
      <trkpt lat="38.1690180" lon="-6.3129340">
        <ele>626.8</ele>
        <time>2021-10-20T08:04:08Z</time>
      </trkpt>
      <trkpt lat="38.1688670" lon="-6.3129470">
        <ele>627.0</ele>
        <time>2021-10-20T08:04:13Z</time>
      </trkpt>
      <trkpt lat="38.1687460" lon="-6.3129630">
        <ele>627.4</ele>
        <time>2021-10-20T08:04:17Z</time>
      </trkpt>
      <trkpt lat="38.1687110" lon="-6.3129690">
        <ele>627.4</ele>
        <time>2021-10-20T08:04:18Z</time>
      </trkpt>
      <trkpt lat="38.1685690" lon="-6.3130060">
        <ele>627.6</ele>
        <time>2021-10-20T08:04:23Z</time>
      </trkpt>
      <trkpt lat="38.1684810" lon="-6.3130380">
        <ele>627.6</ele>
        <time>2021-10-20T08:04:26Z</time>
      </trkpt>
      <trkpt lat="38.1682650" lon="-6.3130940">
        <ele>628.0</ele>
        <time>2021-10-20T08:04:34Z</time>
      </trkpt>
      <trkpt lat="38.1681680" lon="-6.3130880">
        <ele>628.4</ele>
        <time>2021-10-20T08:04:38Z</time>
      </trkpt>
      <trkpt lat="38.1681270" lon="-6.3130730">
        <ele>628.6</ele>
        <time>2021-10-20T08:04:40Z</time>
      </trkpt>
      <trkpt lat="38.1680820" lon="-6.3130570">
        <ele>628.8</ele>
        <time>2021-10-20T08:04:42Z</time>
      </trkpt>
      <trkpt lat="38.1680070" lon="-6.3130440">
        <ele>629.2</ele>
        <time>2021-10-20T08:04:45Z</time>
      </trkpt>
      <trkpt lat="38.1678450" lon="-6.3130290">
        <ele>629.4</ele>
        <time>2021-10-20T08:04:51Z</time>
      </trkpt>
      <trkpt lat="38.1676530" lon="-6.3129890">
        <ele>629.8</ele>
        <time>2021-10-20T08:04:58Z</time>
      </trkpt>
      <trkpt lat="38.1675080" lon="-6.3129520">
        <ele>630.0</ele>
        <time>2021-10-20T08:05:03Z</time>
      </trkpt>
      <trkpt lat="38.1672830" lon="-6.3129170">
        <ele>630.2</ele>
        <time>2021-10-20T08:05:11Z</time>
      </trkpt>
      <trkpt lat="38.1672540" lon="-6.3129160">
        <ele>630.2</ele>
        <time>2021-10-20T08:05:12Z</time>
      </trkpt>
      <trkpt lat="38.1671430" lon="-6.3129120">
        <ele>630.4</ele>
        <time>2021-10-20T08:05:16Z</time>
      </trkpt>
      <trkpt lat="38.1670610" lon="-6.3129110">
        <ele>630.6</ele>
        <time>2021-10-20T08:05:19Z</time>
      </trkpt>
      <trkpt lat="38.1669160" lon="-6.3129150">
        <ele>630.6</ele>
        <time>2021-10-20T08:05:24Z</time>
      </trkpt>
      <trkpt lat="38.1668610" lon="-6.3129150">
        <ele>630.8</ele>
        <time>2021-10-20T08:05:26Z</time>
      </trkpt>
      <trkpt lat="38.1667790" lon="-6.3129080">
        <ele>631.0</ele>
        <time>2021-10-20T08:05:29Z</time>
      </trkpt>
      <trkpt lat="38.1665240" lon="-6.3129730">
        <ele>631.4</ele>
        <time>2021-10-20T08:05:38Z</time>
      </trkpt>
      <trkpt lat="38.1663750" lon="-6.3130850">
        <ele>631.8</ele>
        <time>2021-10-20T08:05:44Z</time>
      </trkpt>
      <trkpt lat="38.1663140" lon="-6.3131610">
        <ele>632.0</ele>
        <time>2021-10-20T08:05:47Z</time>
      </trkpt>
      <trkpt lat="38.1662050" lon="-6.3132740">
        <ele>632.6</ele>
        <time>2021-10-20T08:05:52Z</time>
      </trkpt>
      <trkpt lat="38.1661830" lon="-6.3132970">
        <ele>632.8</ele>
        <time>2021-10-20T08:05:53Z</time>
      </trkpt>
      <trkpt lat="38.1661370" lon="-6.3133360">
        <ele>633.0</ele>
        <time>2021-10-20T08:05:55Z</time>
      </trkpt>
      <trkpt lat="38.1660420" lon="-6.3134140">
        <ele>633.2</ele>
        <time>2021-10-20T08:05:59Z</time>
      </trkpt>
      <trkpt lat="38.1659730" lon="-6.3134660">
        <ele>633.6</ele>
        <time>2021-10-20T08:06:02Z</time>
      </trkpt>
      <trkpt lat="38.1659080" lon="-6.3135220">
        <ele>634.0</ele>
        <time>2021-10-20T08:06:05Z</time>
      </trkpt>
      <trkpt lat="38.1658410" lon="-6.3135750">
        <ele>634.4</ele>
        <time>2021-10-20T08:06:08Z</time>
      </trkpt>
      <trkpt lat="38.1657780" lon="-6.3136160">
        <ele>634.4</ele>
        <time>2021-10-20T08:06:11Z</time>
      </trkpt>
      <trkpt lat="38.1657380" lon="-6.3136520">
        <ele>634.6</ele>
        <time>2021-10-20T08:06:13Z</time>
      </trkpt>
      <trkpt lat="38.1656550" lon="-6.3137060">
        <ele>635.0</ele>
        <time>2021-10-20T08:06:17Z</time>
      </trkpt>
      <trkpt lat="38.1655730" lon="-6.3137480">
        <ele>635.2</ele>
        <time>2021-10-20T08:06:21Z</time>
      </trkpt>
      <trkpt lat="38.1655520" lon="-6.3137590">
        <ele>635.2</ele>
        <time>2021-10-20T08:06:22Z</time>
      </trkpt>
      <trkpt lat="38.1654080" lon="-6.3138290">
        <ele>636.0</ele>
        <time>2021-10-20T08:06:29Z</time>
      </trkpt>
      <trkpt lat="38.1653700" lon="-6.3138500">
        <ele>636.4</ele>
        <time>2021-10-20T08:06:31Z</time>
      </trkpt>
      <trkpt lat="38.1652850" lon="-6.3138990">
        <ele>636.8</ele>
        <time>2021-10-20T08:06:36Z</time>
      </trkpt>
      <trkpt lat="38.1652480" lon="-6.3139210">
        <ele>637.0</ele>
        <time>2021-10-20T08:06:38Z</time>
      </trkpt>
      <trkpt lat="38.1652280" lon="-6.3139330">
        <ele>637.2</ele>
        <time>2021-10-20T08:06:39Z</time>
      </trkpt>
      <trkpt lat="38.1651950" lon="-6.3139540">
        <ele>637.2</ele>
        <time>2021-10-20T08:06:41Z</time>
      </trkpt>
      <trkpt lat="38.1651470" lon="-6.3139900">
        <ele>637.6</ele>
        <time>2021-10-20T08:06:44Z</time>
      </trkpt>
      <trkpt lat="38.1650920" lon="-6.3140250">
        <ele>638.0</ele>
        <time>2021-10-20T08:06:47Z</time>
      </trkpt>
      <trkpt lat="38.1650770" lon="-6.3140350">
        <ele>638.0</ele>
        <time>2021-10-20T08:06:48Z</time>
      </trkpt>
      <trkpt lat="38.1650400" lon="-6.3140550">
        <ele>638.2</ele>
        <time>2021-10-20T08:06:50Z</time>
      </trkpt>
      <trkpt lat="38.1649350" lon="-6.3140970">
        <ele>638.8</ele>
        <time>2021-10-20T08:06:56Z</time>
      </trkpt>
      <trkpt lat="38.1649130" lon="-6.3141030">
        <ele>638.8</ele>
        <time>2021-10-20T08:06:57Z</time>
      </trkpt>
      <trkpt lat="38.1648580" lon="-6.3141270">
        <ele>639.2</ele>
        <time>2021-10-20T08:07:00Z</time>
      </trkpt>
      <trkpt lat="38.1647630" lon="-6.3141420">
        <ele>639.4</ele>
        <time>2021-10-20T08:07:05Z</time>
      </trkpt>
      <trkpt lat="38.1646860" lon="-6.3141620">
        <ele>639.8</ele>
        <time>2021-10-20T08:07:09Z</time>
      </trkpt>
      <trkpt lat="38.1646300" lon="-6.3141750">
        <ele>640.2</ele>
        <time>2021-10-20T08:07:12Z</time>
      </trkpt>
      <trkpt lat="38.1645700" lon="-6.3141880">
        <ele>640.8</ele>
        <time>2021-10-20T08:07:15Z</time>
      </trkpt>
      <trkpt lat="38.1645170" lon="-6.3142000">
        <ele>641.0</ele>
        <time>2021-10-20T08:07:18Z</time>
      </trkpt>
      <trkpt lat="38.1644800" lon="-6.3142150">
        <ele>641.0</ele>
        <time>2021-10-20T08:07:20Z</time>
      </trkpt>
      <trkpt lat="38.1644240" lon="-6.3142330">
        <ele>641.2</ele>
        <time>2021-10-20T08:07:23Z</time>
      </trkpt>
      <trkpt lat="38.1642880" lon="-6.3142570">
        <ele>642.0</ele>
        <time>2021-10-20T08:07:30Z</time>
      </trkpt>
      <trkpt lat="38.1642280" lon="-6.3142650">
        <ele>642.4</ele>
        <time>2021-10-20T08:07:33Z</time>
      </trkpt>
      <trkpt lat="38.1640980" lon="-6.3142710">
        <ele>643.6</ele>
        <time>2021-10-20T08:07:39Z</time>
      </trkpt>
      <trkpt lat="38.1640540" lon="-6.3142660">
        <ele>643.8</ele>
        <time>2021-10-20T08:07:41Z</time>
      </trkpt>
      <trkpt lat="38.1639920" lon="-6.3142560">
        <ele>644.0</ele>
        <time>2021-10-20T08:07:44Z</time>
      </trkpt>
      <trkpt lat="38.1639520" lon="-6.3142460">
        <ele>644.4</ele>
        <time>2021-10-20T08:07:46Z</time>
      </trkpt>
      <trkpt lat="38.1639160" lon="-6.3142320">
        <ele>644.6</ele>
        <time>2021-10-20T08:07:48Z</time>
      </trkpt>
      <trkpt lat="38.1638810" lon="-6.3142150">
        <ele>644.8</ele>
        <time>2021-10-20T08:07:50Z</time>
      </trkpt>
      <trkpt lat="38.1638280" lon="-6.3141840">
        <ele>645.2</ele>
        <time>2021-10-20T08:07:53Z</time>
      </trkpt>
      <trkpt lat="38.1638010" lon="-6.3141600">
        <ele>645.4</ele>
        <time>2021-10-20T08:07:55Z</time>
      </trkpt>
      <trkpt lat="38.1637690" lon="-6.3141350">
        <ele>645.6</ele>
        <time>2021-10-20T08:07:57Z</time>
      </trkpt>
      <trkpt lat="38.1637440" lon="-6.3141170">
        <ele>646.0</ele>
        <time>2021-10-20T08:07:59Z</time>
      </trkpt>
      <trkpt lat="38.1637140" lon="-6.3140900">
        <ele>646.2</ele>
        <time>2021-10-20T08:08:03Z</time>
      </trkpt>
      <trkpt lat="38.1637140" lon="-6.3140900">
        <ele>646.2</ele>
        <time>2021-10-20T08:08:05Z</time>
      </trkpt>
      <trkpt lat="38.1636820" lon="-6.3140800">
        <ele>645.6</ele>
        <time>2021-10-20T08:10:57Z</time>
      </trkpt>
      <trkpt lat="38.1636630" lon="-6.3140690">
        <ele>645.6</ele>
        <time>2021-10-20T08:10:58Z</time>
      </trkpt>
      <trkpt lat="38.1635010" lon="-6.3139900">
        <ele>645.4</ele>
        <time>2021-10-20T08:11:04Z</time>
      </trkpt>
      <trkpt lat="38.1632610" lon="-6.3139020">
        <ele>644.8</ele>
        <time>2021-10-20T08:11:11Z</time>
      </trkpt>
      <trkpt lat="38.1631360" lon="-6.3138570">
        <ele>644.2</ele>
        <time>2021-10-20T08:11:14Z</time>
      </trkpt>
      <trkpt lat="38.1629630" lon="-6.3138130">
        <ele>643.6</ele>
        <time>2021-10-20T08:11:18Z</time>
      </trkpt>
      <trkpt lat="38.1627960" lon="-6.3137860">
        <ele>643.2</ele>
        <time>2021-10-20T08:11:22Z</time>
      </trkpt>
      <trkpt lat="38.1626120" lon="-6.3137460">
        <ele>642.8</ele>
        <time>2021-10-20T08:11:27Z</time>
      </trkpt>
      <trkpt lat="38.1624260" lon="-6.3137150">
        <ele>642.8</ele>
        <time>2021-10-20T08:11:33Z</time>
      </trkpt>
      <trkpt lat="38.1621960" lon="-6.3137070">
        <ele>642.8</ele>
        <time>2021-10-20T08:11:41Z</time>
      </trkpt>
      <trkpt lat="38.1621250" lon="-6.3137320">
        <ele>642.0</ele>
        <time>2021-10-20T08:11:46Z</time>
      </trkpt>
      <trkpt lat="38.1621250" lon="-6.3137320">
        <ele>641.8</ele>
        <time>2021-10-20T08:11:47Z</time>
      </trkpt>
      <trkpt lat="38.1620690" lon="-6.3137590">
        <ele>640.8</ele>
        <time>2021-10-20T08:11:56Z</time>
      </trkpt>
      <trkpt lat="38.1620330" lon="-6.3137590">
        <ele>640.8</ele>
        <time>2021-10-20T08:11:58Z</time>
      </trkpt>
      <trkpt lat="38.1619230" lon="-6.3137480">
        <ele>640.2</ele>
        <time>2021-10-20T08:12:04Z</time>
      </trkpt>
      <trkpt lat="38.1618090" lon="-6.3137510">
        <ele>639.8</ele>
        <time>2021-10-20T08:12:08Z</time>
      </trkpt>
      <trkpt lat="38.1617690" lon="-6.3137460">
        <ele>639.6</ele>
        <time>2021-10-20T08:12:09Z</time>
      </trkpt>
      <trkpt lat="38.1616170" lon="-6.3137270">
        <ele>639.0</ele>
        <time>2021-10-20T08:12:12Z</time>
      </trkpt>
      <trkpt lat="38.1615670" lon="-6.3137250">
        <ele>638.8</ele>
        <time>2021-10-20T08:12:13Z</time>
      </trkpt>
      <trkpt lat="38.1615240" lon="-6.3137280">
        <ele>638.6</ele>
        <time>2021-10-20T08:12:14Z</time>
      </trkpt>
      <trkpt lat="38.1614740" lon="-6.3137350">
        <ele>638.6</ele>
        <time>2021-10-20T08:12:15Z</time>
      </trkpt>
      <trkpt lat="38.1613390" lon="-6.3138160">
        <ele>637.8</ele>
        <time>2021-10-20T08:12:18Z</time>
      </trkpt>
      <trkpt lat="38.1612840" lon="-6.3138720">
        <ele>637.4</ele>
        <time>2021-10-20T08:12:20Z</time>
      </trkpt>
      <trkpt lat="38.1612370" lon="-6.3139300">
        <ele>637.0</ele>
        <time>2021-10-20T08:12:22Z</time>
      </trkpt>
      <trkpt lat="38.1610860" lon="-6.3140800">
        <ele>636.8</ele>
        <time>2021-10-20T08:12:27Z</time>
      </trkpt>
      <trkpt lat="38.1610420" lon="-6.3141080">
        <ele>636.8</ele>
        <time>2021-10-20T08:12:28Z</time>
      </trkpt>
      <trkpt lat="38.1608300" lon="-6.3141910">
        <ele>636.4</ele>
        <time>2021-10-20T08:12:32Z</time>
      </trkpt>
      <trkpt lat="38.1607780" lon="-6.3141960">
        <ele>636.0</ele>
        <time>2021-10-20T08:12:33Z</time>
      </trkpt>
      <trkpt lat="38.1606720" lon="-6.3141940">
        <ele>635.4</ele>
        <time>2021-10-20T08:12:35Z</time>
      </trkpt>
      <trkpt lat="38.1605730" lon="-6.3141660">
        <ele>635.2</ele>
        <time>2021-10-20T08:12:37Z</time>
      </trkpt>
      <trkpt lat="38.1604780" lon="-6.3141260">
        <ele>635.0</ele>
        <time>2021-10-20T08:12:39Z</time>
      </trkpt>
      <trkpt lat="38.1604350" lon="-6.3140980">
        <ele>635.0</ele>
        <time>2021-10-20T08:12:40Z</time>
      </trkpt>
      <trkpt lat="38.1603590" lon="-6.3140450">
        <ele>634.8</ele>
        <time>2021-10-20T08:12:42Z</time>
      </trkpt>
      <trkpt lat="38.1602690" lon="-6.3140040">
        <ele>634.4</ele>
        <time>2021-10-20T08:12:44Z</time>
      </trkpt>
      <trkpt lat="38.1601830" lon="-6.3139470">
        <ele>634.2</ele>
        <time>2021-10-20T08:12:46Z</time>
      </trkpt>
      <trkpt lat="38.1600640" lon="-6.3138350">
        <ele>633.8</ele>
        <time>2021-10-20T08:12:49Z</time>
      </trkpt>
      <trkpt lat="38.1600240" lon="-6.3138060">
        <ele>633.8</ele>
        <time>2021-10-20T08:12:50Z</time>
      </trkpt>
      <trkpt lat="38.1599470" lon="-6.3137510">
        <ele>633.6</ele>
        <time>2021-10-20T08:12:52Z</time>
      </trkpt>
      <trkpt lat="38.1598460" lon="-6.3135910">
        <ele>633.2</ele>
        <time>2021-10-20T08:12:55Z</time>
      </trkpt>
      <trkpt lat="38.1598150" lon="-6.3135480">
        <ele>633.0</ele>
        <time>2021-10-20T08:12:56Z</time>
      </trkpt>
      <trkpt lat="38.1597860" lon="-6.3135170">
        <ele>633.0</ele>
        <time>2021-10-20T08:12:57Z</time>
      </trkpt>
      <trkpt lat="38.1597480" lon="-6.3134830">
        <ele>632.8</ele>
        <time>2021-10-20T08:12:58Z</time>
      </trkpt>
      <trkpt lat="38.1597090" lon="-6.3134580">
        <ele>632.8</ele>
        <time>2021-10-20T08:12:59Z</time>
      </trkpt>
      <trkpt lat="38.1596340" lon="-6.3134160">
        <ele>632.6</ele>
        <time>2021-10-20T08:13:01Z</time>
      </trkpt>
      <trkpt lat="38.1594290" lon="-6.3133140">
        <ele>632.4</ele>
        <time>2021-10-20T08:13:07Z</time>
      </trkpt>
      <trkpt lat="38.1592180" lon="-6.3131850">
        <ele>633.0</ele>
        <time>2021-10-20T08:13:14Z</time>
      </trkpt>
      <trkpt lat="38.1590880" lon="-6.3131050">
        <ele>633.8</ele>
        <time>2021-10-20T08:13:19Z</time>
      </trkpt>
      <trkpt lat="38.1590350" lon="-6.3130650">
        <ele>634.0</ele>
        <time>2021-10-20T08:13:21Z</time>
      </trkpt>
      <trkpt lat="38.1588850" lon="-6.3128940">
        <ele>634.8</ele>
        <time>2021-10-20T08:13:28Z</time>
      </trkpt>
      <trkpt lat="38.1587660" lon="-6.3127850">
        <ele>634.8</ele>
        <time>2021-10-20T08:13:32Z</time>
      </trkpt>
      <trkpt lat="38.1587350" lon="-6.3127510">
        <ele>634.8</ele>
        <time>2021-10-20T08:13:33Z</time>
      </trkpt>
      <trkpt lat="38.1586240" lon="-6.3126340">
        <ele>634.4</ele>
        <time>2021-10-20T08:13:36Z</time>
      </trkpt>
      <trkpt lat="38.1585410" lon="-6.3125600">
        <ele>634.0</ele>
        <time>2021-10-20T08:13:38Z</time>
      </trkpt>
      <trkpt lat="38.1583950" lon="-6.3124540">
        <ele>633.8</ele>
        <time>2021-10-20T08:13:41Z</time>
      </trkpt>
      <trkpt lat="38.1582900" lon="-6.3123780">
        <ele>633.4</ele>
        <time>2021-10-20T08:13:43Z</time>
      </trkpt>
      <trkpt lat="38.1581780" lon="-6.3123070">
        <ele>632.6</ele>
        <time>2021-10-20T08:13:45Z</time>
      </trkpt>
      <trkpt lat="38.1580610" lon="-6.3122420">
        <ele>631.8</ele>
        <time>2021-10-20T08:13:47Z</time>
      </trkpt>
      <trkpt lat="38.1580040" lon="-6.3122200">
        <ele>631.4</ele>
        <time>2021-10-20T08:13:48Z</time>
      </trkpt>
      <trkpt lat="38.1579050" lon="-6.3121980">
        <ele>630.6</ele>
        <time>2021-10-20T08:13:50Z</time>
      </trkpt>
      <trkpt lat="38.1578610" lon="-6.3121990">
        <ele>630.0</ele>
        <time>2021-10-20T08:13:51Z</time>
      </trkpt>
      <trkpt lat="38.1577670" lon="-6.3122130">
        <ele>629.4</ele>
        <time>2021-10-20T08:13:53Z</time>
      </trkpt>
      <trkpt lat="38.1576640" lon="-6.3122090">
        <ele>629.0</ele>
        <time>2021-10-20T08:13:55Z</time>
      </trkpt>
      <trkpt lat="38.1576110" lon="-6.3122030">
        <ele>628.8</ele>
        <time>2021-10-20T08:13:56Z</time>
      </trkpt>
      <trkpt lat="38.1575060" lon="-6.3121950">
        <ele>627.4</ele>
        <time>2021-10-20T08:13:58Z</time>
      </trkpt>
      <trkpt lat="38.1574010" lon="-6.3121300">
        <ele>626.8</ele>
        <time>2021-10-20T08:14:00Z</time>
      </trkpt>
      <trkpt lat="38.1573110" lon="-6.3120370">
        <ele>626.2</ele>
        <time>2021-10-20T08:14:02Z</time>
      </trkpt>
      <trkpt lat="38.1572000" lon="-6.3119790">
        <ele>625.6</ele>
        <time>2021-10-20T08:14:04Z</time>
      </trkpt>
      <trkpt lat="38.1570830" lon="-6.3119290">
        <ele>624.6</ele>
        <time>2021-10-20T08:14:06Z</time>
      </trkpt>
      <trkpt lat="38.1569700" lon="-6.3118480">
        <ele>623.4</ele>
        <time>2021-10-20T08:14:08Z</time>
      </trkpt>
      <trkpt lat="38.1568900" lon="-6.3117920">
        <ele>623.2</ele>
        <time>2021-10-20T08:14:10Z</time>
      </trkpt>
      <trkpt lat="38.1568620" lon="-6.3117640">
        <ele>623.2</ele>
        <time>2021-10-20T08:14:11Z</time>
      </trkpt>
      <trkpt lat="38.1567830" lon="-6.3116750">
        <ele>623.4</ele>
        <time>2021-10-20T08:14:15Z</time>
      </trkpt>
      <trkpt lat="38.1566890" lon="-6.3116080">
        <ele>624.8</ele>
        <time>2021-10-20T08:14:19Z</time>
      </trkpt>
      <trkpt lat="38.1566370" lon="-6.3115730">
        <ele>625.2</ele>
        <time>2021-10-20T08:14:21Z</time>
      </trkpt>
      <trkpt lat="38.1566120" lon="-6.3115660">
        <ele>625.6</ele>
        <time>2021-10-20T08:14:22Z</time>
      </trkpt>
      <trkpt lat="38.1565860" lon="-6.3115580">
        <ele>625.8</ele>
        <time>2021-10-20T08:14:24Z</time>
      </trkpt>
      <trkpt lat="38.1565600" lon="-6.3115500">
        <ele>626.0</ele>
        <time>2021-10-20T08:14:25Z</time>
      </trkpt>
      <trkpt lat="38.1565350" lon="-6.3115420">
        <ele>626.0</ele>
        <time>2021-10-20T08:14:30Z</time>
      </trkpt>
      <trkpt lat="38.1565090" lon="-6.3115340">
        <ele>624.2</ele>
        <time>2021-10-20T08:15:21Z</time>
      </trkpt>
      <trkpt lat="38.1564830" lon="-6.3115260">
        <ele>624.2</ele>
        <time>2021-10-20T08:15:22Z</time>
      </trkpt>
      <trkpt lat="38.1564460" lon="-6.3115050">
        <ele>624.2</ele>
        <time>2021-10-20T08:15:23Z</time>
      </trkpt>
      <trkpt lat="38.1563160" lon="-6.3114570">
        <ele>624.0</ele>
        <time>2021-10-20T08:15:26Z</time>
      </trkpt>
      <trkpt lat="38.1561930" lon="-6.3114310">
        <ele>623.6</ele>
        <time>2021-10-20T08:15:29Z</time>
      </trkpt>
      <trkpt lat="38.1560470" lon="-6.3113790">
        <ele>623.2</ele>
        <time>2021-10-20T08:15:33Z</time>
      </trkpt>
      <trkpt lat="38.1559960" lon="-6.3113660">
        <ele>623.2</ele>
        <time>2021-10-20T08:15:34Z</time>
      </trkpt>
      <trkpt lat="38.1558810" lon="-6.3113440">
        <ele>623.0</ele>
        <time>2021-10-20T08:15:36Z</time>
      </trkpt>
      <trkpt lat="38.1557170" lon="-6.3113200">
        <ele>622.8</ele>
        <time>2021-10-20T08:15:40Z</time>
      </trkpt>
      <trkpt lat="38.1556180" lon="-6.3112900">
        <ele>623.2</ele>
        <time>2021-10-20T08:15:45Z</time>
      </trkpt>
      <trkpt lat="38.1555460" lon="-6.3112710">
        <ele>624.4</ele>
        <time>2021-10-20T08:15:49Z</time>
      </trkpt>
      <trkpt lat="38.1554900" lon="-6.3112520">
        <ele>625.6</ele>
        <time>2021-10-20T08:15:52Z</time>
      </trkpt>
      <trkpt lat="38.1554690" lon="-6.3112490">
        <ele>625.8</ele>
        <time>2021-10-20T08:15:53Z</time>
      </trkpt>
      <trkpt lat="38.1552970" lon="-6.3112310">
        <ele>626.4</ele>
        <time>2021-10-20T08:16:00Z</time>
      </trkpt>
      <trkpt lat="38.1551860" lon="-6.3112450">
        <ele>626.2</ele>
        <time>2021-10-20T08:16:03Z</time>
      </trkpt>
      <trkpt lat="38.1550820" lon="-6.3112620">
        <ele>626.2</ele>
        <time>2021-10-20T08:16:06Z</time>
      </trkpt>
      <trkpt lat="38.1550470" lon="-6.3112690">
        <ele>626.0</ele>
        <time>2021-10-20T08:16:07Z</time>
      </trkpt>
      <trkpt lat="38.1547860" lon="-6.3112460">
        <ele>626.0</ele>
        <time>2021-10-20T08:16:14Z</time>
      </trkpt>
      <trkpt lat="38.1546400" lon="-6.3112450">
        <ele>626.2</ele>
        <time>2021-10-20T08:16:18Z</time>
      </trkpt>
      <trkpt lat="38.1545030" lon="-6.3112480">
        <ele>626.2</ele>
        <time>2021-10-20T08:16:22Z</time>
      </trkpt>
      <trkpt lat="38.1543920" lon="-6.3112310">
        <ele>626.4</ele>
        <time>2021-10-20T08:16:25Z</time>
      </trkpt>
      <trkpt lat="38.1542610" lon="-6.3112110">
        <ele>626.4</ele>
        <time>2021-10-20T08:16:28Z</time>
      </trkpt>
      <trkpt lat="38.1541370" lon="-6.3111990">
        <ele>626.4</ele>
        <time>2021-10-20T08:16:31Z</time>
      </trkpt>
      <trkpt lat="38.1540160" lon="-6.3111890">
        <ele>626.6</ele>
        <time>2021-10-20T08:16:34Z</time>
      </trkpt>
      <trkpt lat="38.1538760" lon="-6.3111810">
        <ele>626.4</ele>
        <time>2021-10-20T08:16:38Z</time>
      </trkpt>
      <trkpt lat="38.1537550" lon="-6.3111790">
        <ele>626.4</ele>
        <time>2021-10-20T08:16:41Z</time>
      </trkpt>
      <trkpt lat="38.1537140" lon="-6.3111800">
        <ele>626.4</ele>
        <time>2021-10-20T08:16:42Z</time>
      </trkpt>
      <trkpt lat="38.1534300" lon="-6.3111860">
        <ele>626.8</ele>
        <time>2021-10-20T08:16:49Z</time>
      </trkpt>
      <trkpt lat="38.1533520" lon="-6.3111990">
        <ele>626.8</ele>
        <time>2021-10-20T08:16:51Z</time>
      </trkpt>
      <trkpt lat="38.1530430" lon="-6.3113340">
        <ele>627.0</ele>
        <time>2021-10-20T08:17:00Z</time>
      </trkpt>
      <trkpt lat="38.1529240" lon="-6.3113950">
        <ele>627.2</ele>
        <time>2021-10-20T08:17:05Z</time>
      </trkpt>
      <trkpt lat="38.1529030" lon="-6.3114030">
        <ele>627.6</ele>
        <time>2021-10-20T08:17:06Z</time>
      </trkpt>
      <trkpt lat="38.1528050" lon="-6.3114290">
        <ele>628.4</ele>
        <time>2021-10-20T08:17:11Z</time>
      </trkpt>
      <trkpt lat="38.1527710" lon="-6.3114360">
        <ele>628.6</ele>
        <time>2021-10-20T08:17:13Z</time>
      </trkpt>
      <trkpt lat="38.1526500" lon="-6.3114370">
        <ele>629.6</ele>
        <time>2021-10-20T08:17:19Z</time>
      </trkpt>
      <trkpt lat="38.1526080" lon="-6.3114420">
        <ele>629.6</ele>
        <time>2021-10-20T08:17:21Z</time>
      </trkpt>
      <trkpt lat="38.1525170" lon="-6.3114360">
        <ele>630.2</ele>
        <time>2021-10-20T08:17:26Z</time>
      </trkpt>
      <trkpt lat="38.1524590" lon="-6.3114180">
        <ele>630.6</ele>
        <time>2021-10-20T08:17:29Z</time>
      </trkpt>
      <trkpt lat="38.1524400" lon="-6.3114110">
        <ele>630.8</ele>
        <time>2021-10-20T08:17:30Z</time>
      </trkpt>
      <trkpt lat="38.1523790" lon="-6.3113920">
        <ele>631.0</ele>
        <time>2021-10-20T08:17:33Z</time>
      </trkpt>
      <trkpt lat="38.1523210" lon="-6.3113820">
        <ele>631.2</ele>
        <time>2021-10-20T08:17:36Z</time>
      </trkpt>
      <trkpt lat="38.1522650" lon="-6.3113690">
        <ele>631.6</ele>
        <time>2021-10-20T08:17:39Z</time>
      </trkpt>
      <trkpt lat="38.1522190" lon="-6.3113560">
        <ele>631.8</ele>
        <time>2021-10-20T08:17:41Z</time>
      </trkpt>
      <trkpt lat="38.1521800" lon="-6.3113410">
        <ele>632.0</ele>
        <time>2021-10-20T08:17:43Z</time>
      </trkpt>
      <trkpt lat="38.1521460" lon="-6.3113300">
        <ele>632.2</ele>
        <time>2021-10-20T08:17:45Z</time>
      </trkpt>
      <trkpt lat="38.1520850" lon="-6.3113030">
        <ele>632.6</ele>
        <time>2021-10-20T08:17:48Z</time>
      </trkpt>
      <trkpt lat="38.1519800" lon="-6.3112890">
        <ele>632.8</ele>
        <time>2021-10-20T08:17:53Z</time>
      </trkpt>
      <trkpt lat="38.1518770" lon="-6.3113060">
        <ele>633.2</ele>
        <time>2021-10-20T08:17:58Z</time>
      </trkpt>
      <trkpt lat="38.1518180" lon="-6.3113300">
        <ele>633.6</ele>
        <time>2021-10-20T08:18:01Z</time>
      </trkpt>
      <trkpt lat="38.1517200" lon="-6.3113690">
        <ele>633.8</ele>
        <time>2021-10-20T08:18:06Z</time>
      </trkpt>
      <trkpt lat="38.1516400" lon="-6.3113820">
        <ele>634.4</ele>
        <time>2021-10-20T08:18:10Z</time>
      </trkpt>
      <trkpt lat="38.1514590" lon="-6.3114110">
        <ele>635.2</ele>
        <time>2021-10-20T08:18:19Z</time>
      </trkpt>
      <trkpt lat="38.1514220" lon="-6.3114160">
        <ele>635.4</ele>
        <time>2021-10-20T08:18:21Z</time>
      </trkpt>
      <trkpt lat="38.1513270" lon="-6.3114350">
        <ele>635.8</ele>
        <time>2021-10-20T08:18:26Z</time>
      </trkpt>
      <trkpt lat="38.1512940" lon="-6.3114450">
        <ele>636.2</ele>
        <time>2021-10-20T08:18:28Z</time>
      </trkpt>
      <trkpt lat="38.1512580" lon="-6.3114530">
        <ele>636.6</ele>
        <time>2021-10-20T08:18:30Z</time>
      </trkpt>
      <trkpt lat="38.1512260" lon="-6.3114560">
        <ele>636.8</ele>
        <time>2021-10-20T08:18:32Z</time>
      </trkpt>
      <trkpt lat="38.1511560" lon="-6.3114600">
        <ele>637.4</ele>
        <time>2021-10-20T08:18:36Z</time>
      </trkpt>
      <trkpt lat="38.1511390" lon="-6.3114590">
        <ele>637.4</ele>
        <time>2021-10-20T08:18:37Z</time>
      </trkpt>
      <trkpt lat="38.1511220" lon="-6.3114530">
        <ele>637.6</ele>
        <time>2021-10-20T08:18:38Z</time>
      </trkpt>
      <trkpt lat="38.1510680" lon="-6.3114640">
        <ele>638.2</ele>
        <time>2021-10-20T08:18:41Z</time>
      </trkpt>
      <trkpt lat="38.1510160" lon="-6.3114580">
        <ele>638.4</ele>
        <time>2021-10-20T08:18:44Z</time>
      </trkpt>
      <trkpt lat="38.1509810" lon="-6.3114480">
        <ele>638.6</ele>
        <time>2021-10-20T08:18:46Z</time>
      </trkpt>
      <trkpt lat="38.1509580" lon="-6.3114430">
        <ele>638.8</ele>
        <time>2021-10-20T08:18:47Z</time>
      </trkpt>
      <trkpt lat="38.1508070" lon="-6.3113940">
        <ele>639.0</ele>
        <time>2021-10-20T08:18:52Z</time>
      </trkpt>
      <trkpt lat="38.1506950" lon="-6.3113300">
        <ele>639.0</ele>
        <time>2021-10-20T08:18:55Z</time>
      </trkpt>
      <trkpt lat="38.1506200" lon="-6.3112830">
        <ele>639.0</ele>
        <time>2021-10-20T08:18:57Z</time>
      </trkpt>
      <trkpt lat="38.1505520" lon="-6.3112360">
        <ele>638.8</ele>
        <time>2021-10-20T08:18:59Z</time>
      </trkpt>
      <trkpt lat="38.1503280" lon="-6.3111200">
        <ele>638.6</ele>
        <time>2021-10-20T08:19:04Z</time>
      </trkpt>
      <trkpt lat="38.1502500" lon="-6.3110840">
        <ele>638.6</ele>
        <time>2021-10-20T08:19:06Z</time>
      </trkpt>
      <trkpt lat="38.1501660" lon="-6.3110480">
        <ele>638.4</ele>
        <time>2021-10-20T08:19:08Z</time>
      </trkpt>
      <trkpt lat="38.1501270" lon="-6.3110270">
        <ele>638.4</ele>
        <time>2021-10-20T08:19:09Z</time>
      </trkpt>
      <trkpt lat="38.1499710" lon="-6.3109230">
        <ele>638.2</ele>
        <time>2021-10-20T08:19:13Z</time>
      </trkpt>
      <trkpt lat="38.1498910" lon="-6.3108630">
        <ele>638.2</ele>
        <time>2021-10-20T08:19:15Z</time>
      </trkpt>
      <trkpt lat="38.1498320" lon="-6.3108040">
        <ele>638.2</ele>
        <time>2021-10-20T08:19:17Z</time>
      </trkpt>
      <trkpt lat="38.1497750" lon="-6.3107430">
        <ele>638.4</ele>
        <time>2021-10-20T08:19:19Z</time>
      </trkpt>
      <trkpt lat="38.1496410" lon="-6.3105540">
        <ele>638.4</ele>
        <time>2021-10-20T08:19:23Z</time>
      </trkpt>
      <trkpt lat="38.1495640" lon="-6.3104760">
        <ele>638.0</ele>
        <time>2021-10-20T08:19:25Z</time>
      </trkpt>
      <trkpt lat="38.1494810" lon="-6.3103710">
        <ele>637.6</ele>
        <time>2021-10-20T08:19:27Z</time>
      </trkpt>
      <trkpt lat="38.1494430" lon="-6.3103210">
        <ele>637.2</ele>
        <time>2021-10-20T08:19:28Z</time>
      </trkpt>
      <trkpt lat="38.1493330" lon="-6.3101990">
        <ele>636.8</ele>
        <time>2021-10-20T08:19:31Z</time>
      </trkpt>
      <trkpt lat="38.1492620" lon="-6.3101480">
        <ele>636.8</ele>
        <time>2021-10-20T08:19:33Z</time>
      </trkpt>
      <trkpt lat="38.1491870" lon="-6.3101030">
        <ele>636.8</ele>
        <time>2021-10-20T08:19:36Z</time>
      </trkpt>
      <trkpt lat="38.1490680" lon="-6.3100690">
        <ele>637.6</ele>
        <time>2021-10-20T08:19:42Z</time>
      </trkpt>
      <trkpt lat="38.1490210" lon="-6.3100550">
        <ele>638.4</ele>
        <time>2021-10-20T08:19:45Z</time>
      </trkpt>
      <trkpt lat="38.1489590" lon="-6.3100380">
        <ele>639.6</ele>
        <time>2021-10-20T08:19:49Z</time>
      </trkpt>
      <trkpt lat="38.1489090" lon="-6.3100020">
        <ele>640.6</ele>
        <time>2021-10-20T08:19:53Z</time>
      </trkpt>
      <trkpt lat="38.1488780" lon="-6.3099610">
        <ele>641.4</ele>
        <time>2021-10-20T08:19:56Z</time>
      </trkpt>
      <trkpt lat="38.1488560" lon="-6.3099310">
        <ele>641.8</ele>
        <time>2021-10-20T08:19:58Z</time>
      </trkpt>
      <trkpt lat="38.1488100" lon="-6.3098720">
        <ele>642.2</ele>
        <time>2021-10-20T08:20:02Z</time>
      </trkpt>
      <trkpt lat="38.1487570" lon="-6.3098190">
        <ele>642.8</ele>
        <time>2021-10-20T08:20:06Z</time>
      </trkpt>
      <trkpt lat="38.1487400" lon="-6.3098080">
        <ele>642.8</ele>
        <time>2021-10-20T08:20:07Z</time>
      </trkpt>
      <trkpt lat="38.1486690" lon="-6.3097800">
        <ele>643.2</ele>
        <time>2021-10-20T08:20:11Z</time>
      </trkpt>
      <trkpt lat="38.1485660" lon="-6.3097480">
        <ele>643.8</ele>
        <time>2021-10-20T08:20:17Z</time>
      </trkpt>
      <trkpt lat="38.1485080" lon="-6.3097280">
        <ele>644.0</ele>
        <time>2021-10-20T08:20:20Z</time>
      </trkpt>
      <trkpt lat="38.1484590" lon="-6.3097120">
        <ele>644.2</ele>
        <time>2021-10-20T08:20:23Z</time>
      </trkpt>
      <trkpt lat="38.1484030" lon="-6.3097030">
        <ele>644.4</ele>
        <time>2021-10-20T08:20:26Z</time>
      </trkpt>
      <trkpt lat="38.1483630" lon="-6.3096970">
        <ele>644.6</ele>
        <time>2021-10-20T08:20:28Z</time>
      </trkpt>
      <trkpt lat="38.1483200" lon="-6.3096930">
        <ele>644.8</ele>
        <time>2021-10-20T08:20:30Z</time>
      </trkpt>
      <trkpt lat="38.1483030" lon="-6.3096920">
        <ele>645.0</ele>
        <time>2021-10-20T08:20:31Z</time>
      </trkpt>
      <trkpt lat="38.1482810" lon="-6.3096920">
        <ele>645.0</ele>
        <time>2021-10-20T08:20:32Z</time>
      </trkpt>
      <trkpt lat="38.1481540" lon="-6.3096980">
        <ele>645.4</ele>
        <time>2021-10-20T08:20:38Z</time>
      </trkpt>
      <trkpt lat="38.1480930" lon="-6.3097060">
        <ele>645.4</ele>
        <time>2021-10-20T08:20:41Z</time>
      </trkpt>
      <trkpt lat="38.1480500" lon="-6.3097150">
        <ele>645.6</ele>
        <time>2021-10-20T08:20:43Z</time>
      </trkpt>
      <trkpt lat="38.1480170" lon="-6.3097270">
        <ele>646.0</ele>
        <time>2021-10-20T08:20:45Z</time>
      </trkpt>
      <trkpt lat="38.1479760" lon="-6.3097460">
        <ele>646.2</ele>
        <time>2021-10-20T08:20:47Z</time>
      </trkpt>
      <trkpt lat="38.1479560" lon="-6.3097550">
        <ele>646.2</ele>
        <time>2021-10-20T08:20:48Z</time>
      </trkpt>
      <trkpt lat="38.1478930" lon="-6.3097820">
        <ele>646.6</ele>
        <time>2021-10-20T08:20:51Z</time>
      </trkpt>
      <trkpt lat="38.1478350" lon="-6.3098040">
        <ele>646.8</ele>
        <time>2021-10-20T08:20:54Z</time>
      </trkpt>
      <trkpt lat="38.1478180" lon="-6.3098110">
        <ele>647.2</ele>
        <time>2021-10-20T08:20:55Z</time>
      </trkpt>
      <trkpt lat="38.1477580" lon="-6.3098430">
        <ele>647.2</ele>
        <time>2021-10-20T08:20:58Z</time>
      </trkpt>
      <trkpt lat="38.1477430" lon="-6.3098490">
        <ele>647.4</ele>
        <time>2021-10-20T08:20:59Z</time>
      </trkpt>
      <trkpt lat="38.1476480" lon="-6.3098800">
        <ele>648.0</ele>
        <time>2021-10-20T08:21:04Z</time>
      </trkpt>
      <trkpt lat="38.1475620" lon="-6.3099150">
        <ele>648.2</ele>
        <time>2021-10-20T08:21:08Z</time>
      </trkpt>
      <trkpt lat="38.1475010" lon="-6.3099380">
        <ele>648.4</ele>
        <time>2021-10-20T08:21:11Z</time>
      </trkpt>
      <trkpt lat="38.1473810" lon="-6.3099560">
        <ele>649.0</ele>
        <time>2021-10-20T08:21:17Z</time>
      </trkpt>
      <trkpt lat="38.1473650" lon="-6.3099570">
        <ele>649.0</ele>
        <time>2021-10-20T08:21:18Z</time>
      </trkpt>
      <trkpt lat="38.1472520" lon="-6.3099480">
        <ele>649.6</ele>
        <time>2021-10-20T08:21:24Z</time>
      </trkpt>
      <trkpt lat="38.1472210" lon="-6.3099530">
        <ele>650.0</ele>
        <time>2021-10-20T08:21:26Z</time>
      </trkpt>
      <trkpt lat="38.1471570" lon="-6.3099610">
        <ele>650.6</ele>
        <time>2021-10-20T08:21:30Z</time>
      </trkpt>
      <trkpt lat="38.1471080" lon="-6.3099620">
        <ele>651.0</ele>
        <time>2021-10-20T08:21:33Z</time>
      </trkpt>
      <trkpt lat="38.1470730" lon="-6.3099700">
        <ele>651.2</ele>
        <time>2021-10-20T08:21:35Z</time>
      </trkpt>
      <trkpt lat="38.1469310" lon="-6.3100080">
        <ele>652.2</ele>
        <time>2021-10-20T08:21:43Z</time>
      </trkpt>
      <trkpt lat="38.1468300" lon="-6.3100420">
        <ele>653.0</ele>
        <time>2021-10-20T08:21:49Z</time>
      </trkpt>
      <trkpt lat="38.1468160" lon="-6.3100460">
        <ele>653.0</ele>
        <time>2021-10-20T08:21:50Z</time>
      </trkpt>
      <trkpt lat="38.1467630" lon="-6.3100590">
        <ele>653.4</ele>
        <time>2021-10-20T08:21:53Z</time>
      </trkpt>
      <trkpt lat="38.1466740" lon="-6.3100870">
        <ele>653.8</ele>
        <time>2021-10-20T08:21:58Z</time>
      </trkpt>
      <trkpt lat="38.1465200" lon="-6.3101230">
        <ele>654.2</ele>
        <time>2021-10-20T08:22:06Z</time>
      </trkpt>
      <trkpt lat="38.1464610" lon="-6.3101400">
        <ele>654.4</ele>
        <time>2021-10-20T08:22:09Z</time>
      </trkpt>
      <trkpt lat="38.1464390" lon="-6.3101490">
        <ele>654.4</ele>
        <time>2021-10-20T08:22:10Z</time>
      </trkpt>
      <trkpt lat="38.1464130" lon="-6.3101560">
        <ele>654.4</ele>
        <time>2021-10-20T08:22:11Z</time>
      </trkpt>
      <trkpt lat="38.1463560" lon="-6.3101770">
        <ele>654.6</ele>
        <time>2021-10-20T08:22:14Z</time>
      </trkpt>
      <trkpt lat="38.1462910" lon="-6.3102020">
        <ele>655.0</ele>
        <time>2021-10-20T08:22:17Z</time>
      </trkpt>
      <trkpt lat="38.1461730" lon="-6.3102520">
        <ele>655.2</ele>
        <time>2021-10-20T08:22:23Z</time>
      </trkpt>
      <trkpt lat="38.1461500" lon="-6.3102650">
        <ele>655.4</ele>
        <time>2021-10-20T08:22:24Z</time>
      </trkpt>
      <trkpt lat="38.1460450" lon="-6.3103470">
        <ele>656.4</ele>
        <time>2021-10-20T08:22:30Z</time>
      </trkpt>
      <trkpt lat="38.1460160" lon="-6.3103710">
        <ele>656.6</ele>
        <time>2021-10-20T08:22:32Z</time>
      </trkpt>
      <trkpt lat="38.1459500" lon="-6.3104120">
        <ele>657.0</ele>
        <time>2021-10-20T08:22:36Z</time>
      </trkpt>
      <trkpt lat="38.1458960" lon="-6.3104460">
        <ele>657.4</ele>
        <time>2021-10-20T08:22:40Z</time>
      </trkpt>
      <trkpt lat="38.1458370" lon="-6.3104710">
        <ele>658.0</ele>
        <time>2021-10-20T08:22:44Z</time>
      </trkpt>
      <trkpt lat="38.1457960" lon="-6.3104800">
        <ele>658.2</ele>
        <time>2021-10-20T08:22:47Z</time>
      </trkpt>
      <trkpt lat="38.1457630" lon="-6.3104870">
        <ele>658.4</ele>
        <time>2021-10-20T08:22:49Z</time>
      </trkpt>
      <trkpt lat="38.1457460" lon="-6.3104870">
        <ele>658.6</ele>
        <time>2021-10-20T08:22:50Z</time>
      </trkpt>
      <trkpt lat="38.1456980" lon="-6.3104670">
        <ele>659.0</ele>
        <time>2021-10-20T08:22:53Z</time>
      </trkpt>
      <trkpt lat="38.1456340" lon="-6.3104300">
        <ele>659.8</ele>
        <time>2021-10-20T08:22:57Z</time>
      </trkpt>
      <trkpt lat="38.1455590" lon="-6.3103720">
        <ele>660.6</ele>
        <time>2021-10-20T08:23:02Z</time>
      </trkpt>
      <trkpt lat="38.1455300" lon="-6.3103280">
        <ele>661.0</ele>
        <time>2021-10-20T08:23:05Z</time>
      </trkpt>
      <trkpt lat="38.1454790" lon="-6.3102700">
        <ele>661.6</ele>
        <time>2021-10-20T08:23:09Z</time>
      </trkpt>
      <trkpt lat="38.1454300" lon="-6.3102450">
        <ele>662.0</ele>
        <time>2021-10-20T08:23:12Z</time>
      </trkpt>
      <trkpt lat="38.1454030" lon="-6.3102330">
        <ele>662.2</ele>
        <time>2021-10-20T08:23:14Z</time>
      </trkpt>
      <trkpt lat="38.1453230" lon="-6.3101950">
        <ele>662.8</ele>
        <time>2021-10-20T08:23:19Z</time>
      </trkpt>
      <trkpt lat="38.1452610" lon="-6.3101680">
        <ele>663.2</ele>
        <time>2021-10-20T08:23:23Z</time>
      </trkpt>
      <trkpt lat="38.1451980" lon="-6.3101460">
        <ele>663.4</ele>
        <time>2021-10-20T08:23:26Z</time>
      </trkpt>
      <trkpt lat="38.1451480" lon="-6.3101280">
        <ele>663.4</ele>
        <time>2021-10-20T08:23:29Z</time>
      </trkpt>
      <trkpt lat="38.1451480" lon="-6.3101280">
        <ele>663.4</ele>
        <time>2021-10-20T08:23:31Z</time>
      </trkpt>
      <trkpt lat="38.1450780" lon="-6.3101100">
        <ele>662.6</ele>
        <time>2021-10-20T08:23:58Z</time>
      </trkpt>
      <trkpt lat="38.1450310" lon="-6.3100980">
        <ele>662.4</ele>
        <time>2021-10-20T08:24:01Z</time>
      </trkpt>
      <trkpt lat="38.1450210" lon="-6.3100920">
        <ele>662.4</ele>
        <time>2021-10-20T08:24:02Z</time>
      </trkpt>
      <trkpt lat="38.1450040" lon="-6.3100910">
        <ele>662.4</ele>
        <time>2021-10-20T08:24:05Z</time>
      </trkpt>
      <trkpt lat="38.1449980" lon="-6.3100940">
        <ele>662.4</ele>
        <time>2021-10-20T08:24:06Z</time>
      </trkpt>
      <trkpt lat="38.1449950" lon="-6.3100950">
        <ele>662.4</ele>
        <time>2021-10-20T08:24:08Z</time>
      </trkpt>
      <trkpt lat="38.1448930" lon="-6.3100860">
        <ele>662.2</ele>
        <time>2021-10-20T08:25:00Z</time>
      </trkpt>
      <trkpt lat="38.1448720" lon="-6.3100770">
        <ele>662.2</ele>
        <time>2021-10-20T08:25:01Z</time>
      </trkpt>
      <trkpt lat="38.1447080" lon="-6.3099580">
        <ele>661.8</ele>
        <time>2021-10-20T08:25:06Z</time>
      </trkpt>
      <trkpt lat="38.1446190" lon="-6.3098870">
        <ele>661.4</ele>
        <time>2021-10-20T08:25:08Z</time>
      </trkpt>
      <trkpt lat="38.1445000" lon="-6.3097810">
        <ele>661.0</ele>
        <time>2021-10-20T08:25:11Z</time>
      </trkpt>
      <trkpt lat="38.1444570" lon="-6.3097410">
        <ele>660.8</ele>
        <time>2021-10-20T08:25:12Z</time>
      </trkpt>
      <trkpt lat="38.1442700" lon="-6.3095550">
        <ele>660.4</ele>
        <time>2021-10-20T08:25:16Z</time>
      </trkpt>
      <trkpt lat="38.1441730" lon="-6.3094610">
        <ele>660.2</ele>
        <time>2021-10-20T08:25:18Z</time>
      </trkpt>
      <trkpt lat="38.1439280" lon="-6.3092190">
        <ele>659.2</ele>
        <time>2021-10-20T08:25:23Z</time>
      </trkpt>
      <trkpt lat="38.1438440" lon="-6.3091410">
        <ele>658.8</ele>
        <time>2021-10-20T08:25:25Z</time>
      </trkpt>
      <trkpt lat="38.1436590" lon="-6.3089790">
        <ele>658.6</ele>
        <time>2021-10-20T08:25:30Z</time>
      </trkpt>
      <trkpt lat="38.1434660" lon="-6.3087740">
        <ele>658.6</ele>
        <time>2021-10-20T08:25:36Z</time>
      </trkpt>
      <trkpt lat="38.1431710" lon="-6.3084760">
        <ele>658.4</ele>
        <time>2021-10-20T08:25:43Z</time>
      </trkpt>
      <trkpt lat="38.1430880" lon="-6.3083920">
        <ele>658.0</ele>
        <time>2021-10-20T08:25:45Z</time>
      </trkpt>
      <trkpt lat="38.1429310" lon="-6.3082160">
        <ele>657.4</ele>
        <time>2021-10-20T08:25:49Z</time>
      </trkpt>
      <trkpt lat="38.1427380" lon="-6.3080050">
        <ele>657.8</ele>
        <time>2021-10-20T08:25:54Z</time>
      </trkpt>
      <trkpt lat="38.1425910" lon="-6.3078430">
        <ele>657.8</ele>
        <time>2021-10-20T08:25:58Z</time>
      </trkpt>
      <trkpt lat="38.1424220" lon="-6.3076660">
        <ele>657.6</ele>
        <time>2021-10-20T08:26:02Z</time>
      </trkpt>
      <trkpt lat="38.1422580" lon="-6.3074910">
        <ele>657.6</ele>
        <time>2021-10-20T08:26:06Z</time>
      </trkpt>
      <trkpt lat="38.1421730" lon="-6.3074090">
        <ele>657.6</ele>
        <time>2021-10-20T08:26:08Z</time>
      </trkpt>
      <trkpt lat="38.1420950" lon="-6.3073400">
        <ele>657.6</ele>
        <time>2021-10-20T08:26:10Z</time>
      </trkpt>
      <trkpt lat="38.1419360" lon="-6.3071900">
        <ele>657.6</ele>
        <time>2021-10-20T08:26:14Z</time>
      </trkpt>
      <trkpt lat="38.1417780" lon="-6.3070400">
        <ele>657.6</ele>
        <time>2021-10-20T08:26:18Z</time>
      </trkpt>
      <trkpt lat="38.1417120" lon="-6.3069730">
        <ele>657.8</ele>
        <time>2021-10-20T08:26:20Z</time>
      </trkpt>
      <trkpt lat="38.1415810" lon="-6.3068230">
        <ele>658.0</ele>
        <time>2021-10-20T08:26:24Z</time>
      </trkpt>
      <trkpt lat="38.1415310" lon="-6.3067650">
        <ele>658.2</ele>
        <time>2021-10-20T08:26:26Z</time>
      </trkpt>
      <trkpt lat="38.1414530" lon="-6.3066780">
        <ele>658.6</ele>
        <time>2021-10-20T08:26:29Z</time>
      </trkpt>
      <trkpt lat="38.1413950" lon="-6.3066150">
        <ele>658.8</ele>
        <time>2021-10-20T08:26:31Z</time>
      </trkpt>
      <trkpt lat="38.1413170" lon="-6.3065510">
        <ele>659.2</ele>
        <time>2021-10-20T08:26:34Z</time>
      </trkpt>
      <trkpt lat="38.1411990" lon="-6.3064590">
        <ele>659.6</ele>
        <time>2021-10-20T08:26:38Z</time>
      </trkpt>
      <trkpt lat="38.1411390" lon="-6.3064170">
        <ele>659.8</ele>
        <time>2021-10-20T08:26:40Z</time>
      </trkpt>
      <trkpt lat="38.1410390" lon="-6.3063620">
        <ele>660.2</ele>
        <time>2021-10-20T08:26:43Z</time>
      </trkpt>
      <trkpt lat="38.1407730" lon="-6.3061950">
        <ele>660.6</ele>
        <time>2021-10-20T08:26:51Z</time>
      </trkpt>
      <trkpt lat="38.1406840" lon="-6.3061370">
        <ele>661.0</ele>
        <time>2021-10-20T08:26:54Z</time>
      </trkpt>
      <trkpt lat="38.1406300" lon="-6.3061030">
        <ele>661.0</ele>
        <time>2021-10-20T08:26:56Z</time>
      </trkpt>
      <trkpt lat="38.1405430" lon="-6.3060410">
        <ele>661.2</ele>
        <time>2021-10-20T08:26:59Z</time>
      </trkpt>
      <trkpt lat="38.1403910" lon="-6.3059310">
        <ele>661.4</ele>
        <time>2021-10-20T08:27:04Z</time>
      </trkpt>
      <trkpt lat="38.1403090" lon="-6.3058700">
        <ele>661.6</ele>
        <time>2021-10-20T08:27:07Z</time>
      </trkpt>
      <trkpt lat="38.1401330" lon="-6.3057390">
        <ele>661.8</ele>
        <time>2021-10-20T08:27:13Z</time>
      </trkpt>
      <trkpt lat="38.1400990" lon="-6.3057170">
        <ele>662.0</ele>
        <time>2021-10-20T08:27:15Z</time>
      </trkpt>
      <trkpt lat="38.1398850" lon="-6.3055590">
        <ele>662.6</ele>
        <time>2021-10-20T08:27:22Z</time>
      </trkpt>
      <trkpt lat="38.1397760" lon="-6.3054550">
        <ele>663.0</ele>
        <time>2021-10-20T08:27:27Z</time>
      </trkpt>
      <trkpt lat="38.1396960" lon="-6.3053670">
        <ele>663.6</ele>
        <time>2021-10-20T08:27:31Z</time>
      </trkpt>
      <trkpt lat="38.1396490" lon="-6.3053140">
        <ele>664.0</ele>
        <time>2021-10-20T08:27:34Z</time>
      </trkpt>
      <trkpt lat="38.1395630" lon="-6.3052300">
        <ele>664.6</ele>
        <time>2021-10-20T08:27:39Z</time>
      </trkpt>
      <trkpt lat="38.1395310" lon="-6.3051920">
        <ele>665.2</ele>
        <time>2021-10-20T08:27:41Z</time>
      </trkpt>
      <trkpt lat="38.1394100" lon="-6.3050710">
        <ele>666.0</ele>
        <time>2021-10-20T08:27:48Z</time>
      </trkpt>
      <trkpt lat="38.1393940" lon="-6.3050540">
        <ele>666.2</ele>
        <time>2021-10-20T08:27:49Z</time>
      </trkpt>
      <trkpt lat="38.1393440" lon="-6.3050010">
        <ele>666.6</ele>
        <time>2021-10-20T08:27:52Z</time>
      </trkpt>
      <trkpt lat="38.1392960" lon="-6.3049540">
        <ele>667.0</ele>
        <time>2021-10-20T08:27:55Z</time>
      </trkpt>
      <trkpt lat="38.1392800" lon="-6.3049370">
        <ele>667.2</ele>
        <time>2021-10-20T08:27:56Z</time>
      </trkpt>
      <trkpt lat="38.1392360" lon="-6.3048780">
        <ele>667.4</ele>
        <time>2021-10-20T08:27:59Z</time>
      </trkpt>
      <trkpt lat="38.1392240" lon="-6.3048650">
        <ele>667.6</ele>
        <time>2021-10-20T08:28:00Z</time>
      </trkpt>
      <trkpt lat="38.1391230" lon="-6.3047670">
        <ele>668.2</ele>
        <time>2021-10-20T08:28:06Z</time>
      </trkpt>
      <trkpt lat="38.1391090" lon="-6.3047570">
        <ele>668.4</ele>
        <time>2021-10-20T08:28:07Z</time>
      </trkpt>
      <trkpt lat="38.1390710" lon="-6.3047220">
        <ele>668.6</ele>
        <time>2021-10-20T08:28:09Z</time>
      </trkpt>
      <trkpt lat="38.1390240" lon="-6.3046770">
        <ele>669.0</ele>
        <time>2021-10-20T08:28:12Z</time>
      </trkpt>
      <trkpt lat="38.1389700" lon="-6.3046270">
        <ele>669.2</ele>
        <time>2021-10-20T08:28:15Z</time>
      </trkpt>
      <trkpt lat="38.1389550" lon="-6.3046140">
        <ele>669.4</ele>
        <time>2021-10-20T08:28:16Z</time>
      </trkpt>
      <trkpt lat="38.1389550" lon="-6.3046140">
        <ele>669.4</ele>
        <time>2021-10-20T08:28:17Z</time>
      </trkpt>
      <trkpt lat="38.1389030" lon="-6.3045560">
        <ele>669.6</ele>
        <time>2021-10-20T08:28:19Z</time>
      </trkpt>
      <trkpt lat="38.1388730" lon="-6.3045230">
        <ele>669.8</ele>
        <time>2021-10-20T08:28:21Z</time>
      </trkpt>
      <trkpt lat="38.1387530" lon="-6.3043900">
        <ele>670.4</ele>
        <time>2021-10-20T08:28:28Z</time>
      </trkpt>
      <trkpt lat="38.1387380" lon="-6.3043700">
        <ele>670.4</ele>
        <time>2021-10-20T08:28:29Z</time>
      </trkpt>
      <trkpt lat="38.1386700" lon="-6.3042980">
        <ele>671.0</ele>
        <time>2021-10-20T08:28:33Z</time>
      </trkpt>
      <trkpt lat="38.1386220" lon="-6.3042540">
        <ele>671.2</ele>
        <time>2021-10-20T08:28:36Z</time>
      </trkpt>
      <trkpt lat="38.1385680" lon="-6.3042100">
        <ele>671.4</ele>
        <time>2021-10-20T08:28:39Z</time>
      </trkpt>
      <trkpt lat="38.1384720" lon="-6.3040730">
        <ele>672.4</ele>
        <time>2021-10-20T08:28:46Z</time>
      </trkpt>
      <trkpt lat="38.1384600" lon="-6.3040520">
        <ele>672.6</ele>
        <time>2021-10-20T08:28:47Z</time>
      </trkpt>
      <trkpt lat="38.1383290" lon="-6.3039150">
        <ele>673.6</ele>
        <time>2021-10-20T08:28:55Z</time>
      </trkpt>
      <trkpt lat="38.1381710" lon="-6.3038300">
        <ele>674.8</ele>
        <time>2021-10-20T08:29:04Z</time>
      </trkpt>
      <trkpt lat="38.1381150" lon="-6.3038070">
        <ele>675.2</ele>
        <time>2021-10-20T08:29:07Z</time>
      </trkpt>
      <trkpt lat="38.1380630" lon="-6.3037780">
        <ele>676.0</ele>
        <time>2021-10-20T08:29:10Z</time>
      </trkpt>
      <trkpt lat="38.1379980" lon="-6.3037400">
        <ele>676.8</ele>
        <time>2021-10-20T08:29:14Z</time>
      </trkpt>
      <trkpt lat="38.1379760" lon="-6.3037280">
        <ele>677.0</ele>
        <time>2021-10-20T08:29:15Z</time>
      </trkpt>
      <trkpt lat="38.1379430" lon="-6.3037150">
        <ele>677.4</ele>
        <time>2021-10-20T08:29:17Z</time>
      </trkpt>
      <trkpt lat="38.1379010" lon="-6.3037020">
        <ele>677.8</ele>
        <time>2021-10-20T08:29:19Z</time>
      </trkpt>
      <trkpt lat="38.1378690" lon="-6.3036930">
        <ele>678.0</ele>
        <time>2021-10-20T08:29:21Z</time>
      </trkpt>
      <trkpt lat="38.1378520" lon="-6.3036860">
        <ele>678.2</ele>
        <time>2021-10-20T08:29:22Z</time>
      </trkpt>
      <trkpt lat="38.1377850" lon="-6.3036680">
        <ele>679.0</ele>
        <time>2021-10-20T08:29:26Z</time>
      </trkpt>
      <trkpt lat="38.1377690" lon="-6.3036600">
        <ele>679.2</ele>
        <time>2021-10-20T08:29:27Z</time>
      </trkpt>
      <trkpt lat="38.1377120" lon="-6.3036380">
        <ele>679.6</ele>
        <time>2021-10-20T08:29:30Z</time>
      </trkpt>
      <trkpt lat="38.1376780" lon="-6.3036390">
        <ele>680.2</ele>
        <time>2021-10-20T08:29:32Z</time>
      </trkpt>
      <trkpt lat="38.1376620" lon="-6.3036340">
        <ele>680.4</ele>
        <time>2021-10-20T08:29:33Z</time>
      </trkpt>
      <trkpt lat="38.1376180" lon="-6.3036010">
        <ele>680.8</ele>
        <time>2021-10-20T08:29:36Z</time>
      </trkpt>
      <trkpt lat="38.1375790" lon="-6.3035750">
        <ele>681.0</ele>
        <time>2021-10-20T08:29:38Z</time>
      </trkpt>
      <trkpt lat="38.1375380" lon="-6.3035520">
        <ele>681.0</ele>
        <time>2021-10-20T08:29:40Z</time>
      </trkpt>
      <trkpt lat="38.1374740" lon="-6.3035230">
        <ele>681.0</ele>
        <time>2021-10-20T08:29:43Z</time>
      </trkpt>
      <trkpt lat="38.1374640" lon="-6.3035220">
        <ele>681.0</ele>
        <time>2021-10-20T08:29:47Z</time>
      </trkpt>
      <trkpt lat="38.1374340" lon="-6.3034890">
        <ele>680.4</ele>
        <time>2021-10-20T08:30:21Z</time>
      </trkpt>
      <trkpt lat="38.1373870" lon="-6.3034420">
        <ele>680.4</ele>
        <time>2021-10-20T08:30:24Z</time>
      </trkpt>
      <trkpt lat="38.1373510" lon="-6.3034110">
        <ele>680.4</ele>
        <time>2021-10-20T08:30:26Z</time>
      </trkpt>
      <trkpt lat="38.1373050" lon="-6.3033680">
        <ele>680.6</ele>
        <time>2021-10-20T08:30:28Z</time>
      </trkpt>
      <trkpt lat="38.1372690" lon="-6.3033240">
        <ele>680.6</ele>
        <time>2021-10-20T08:30:30Z</time>
      </trkpt>
      <trkpt lat="38.1372070" lon="-6.3032520">
        <ele>680.4</ele>
        <time>2021-10-20T08:30:33Z</time>
      </trkpt>
      <trkpt lat="38.1371150" lon="-6.3031550">
        <ele>680.4</ele>
        <time>2021-10-20T08:30:37Z</time>
      </trkpt>
      <trkpt lat="38.1370870" lon="-6.3031260">
        <ele>680.4</ele>
        <time>2021-10-20T08:30:39Z</time>
      </trkpt>
      <trkpt lat="38.1369750" lon="-6.3029850">
        <ele>680.2</ele>
        <time>2021-10-20T08:30:44Z</time>
      </trkpt>
      <trkpt lat="38.1369620" lon="-6.3029770">
        <ele>680.2</ele>
        <time>2021-10-20T08:30:45Z</time>
      </trkpt>
      <trkpt lat="38.1369030" lon="-6.3029160">
        <ele>680.2</ele>
        <time>2021-10-20T08:30:49Z</time>
      </trkpt>
      <trkpt lat="38.1368570" lon="-6.3028610">
        <ele>680.2</ele>
        <time>2021-10-20T08:30:52Z</time>
      </trkpt>
      <trkpt lat="38.1367380" lon="-6.3027120">
        <ele>680.6</ele>
        <time>2021-10-20T08:30:58Z</time>
      </trkpt>
      <trkpt lat="38.1366000" lon="-6.3025680">
        <ele>680.6</ele>
        <time>2021-10-20T08:31:04Z</time>
      </trkpt>
      <trkpt lat="38.1363760" lon="-6.3023840">
        <ele>680.8</ele>
        <time>2021-10-20T08:31:12Z</time>
      </trkpt>
      <trkpt lat="38.1362150" lon="-6.3022840">
        <ele>680.8</ele>
        <time>2021-10-20T08:31:17Z</time>
      </trkpt>
      <trkpt lat="38.1360970" lon="-6.3022190">
        <ele>681.0</ele>
        <time>2021-10-20T08:31:21Z</time>
      </trkpt>
      <trkpt lat="38.1359390" lon="-6.3021270">
        <ele>681.2</ele>
        <time>2021-10-20T08:31:26Z</time>
      </trkpt>
      <trkpt lat="38.1356780" lon="-6.3019840">
        <ele>682.0</ele>
        <time>2021-10-20T08:31:35Z</time>
      </trkpt>
      <trkpt lat="38.1356230" lon="-6.3019520">
        <ele>682.2</ele>
        <time>2021-10-20T08:31:37Z</time>
      </trkpt>
      <trkpt lat="38.1353770" lon="-6.3018520">
        <ele>682.8</ele>
        <time>2021-10-20T08:31:45Z</time>
      </trkpt>
      <trkpt lat="38.1352320" lon="-6.3017900">
        <ele>683.0</ele>
        <time>2021-10-20T08:31:50Z</time>
      </trkpt>
      <trkpt lat="38.1351150" lon="-6.3017170">
        <ele>683.4</ele>
        <time>2021-10-20T08:31:54Z</time>
      </trkpt>
      <trkpt lat="38.1350170" lon="-6.3016520">
        <ele>683.4</ele>
        <time>2021-10-20T08:31:57Z</time>
      </trkpt>
      <trkpt lat="38.1349040" lon="-6.3015800">
        <ele>683.4</ele>
        <time>2021-10-20T08:32:00Z</time>
      </trkpt>
      <trkpt lat="38.1347760" lon="-6.3015000">
        <ele>683.2</ele>
        <time>2021-10-20T08:32:03Z</time>
      </trkpt>
      <trkpt lat="38.1346830" lon="-6.3014330">
        <ele>683.0</ele>
        <time>2021-10-20T08:32:05Z</time>
      </trkpt>
      <trkpt lat="38.1344390" lon="-6.3012370">
        <ele>682.0</ele>
        <time>2021-10-20T08:32:10Z</time>
      </trkpt>
      <trkpt lat="38.1343320" lon="-6.3011440">
        <ele>681.4</ele>
        <time>2021-10-20T08:32:12Z</time>
      </trkpt>
      <trkpt lat="38.1341950" lon="-6.3010310">
        <ele>680.8</ele>
        <time>2021-10-20T08:32:15Z</time>
      </trkpt>
      <trkpt lat="38.1340090" lon="-6.3008940">
        <ele>680.4</ele>
        <time>2021-10-20T08:32:19Z</time>
      </trkpt>
      <trkpt lat="38.1339650" lon="-6.3008630">
        <ele>680.2</ele>
        <time>2021-10-20T08:32:20Z</time>
      </trkpt>
      <trkpt lat="38.1338050" lon="-6.3007710">
        <ele>680.0</ele>
        <time>2021-10-20T08:32:24Z</time>
      </trkpt>
      <trkpt lat="38.1337260" lon="-6.3007400">
        <ele>679.8</ele>
        <time>2021-10-20T08:32:26Z</time>
      </trkpt>
      <trkpt lat="38.1334920" lon="-6.3006880">
        <ele>679.8</ele>
        <time>2021-10-20T08:32:33Z</time>
      </trkpt>
      <trkpt lat="38.1331210" lon="-6.3006500">
        <ele>680.4</ele>
        <time>2021-10-20T08:32:44Z</time>
      </trkpt>
      <trkpt lat="38.1329360" lon="-6.3007310">
        <ele>680.6</ele>
        <time>2021-10-20T08:32:49Z</time>
      </trkpt>
      <trkpt lat="38.1327790" lon="-6.3008710">
        <ele>680.6</ele>
        <time>2021-10-20T08:32:55Z</time>
      </trkpt>
      <trkpt lat="38.1327140" lon="-6.3009350">
        <ele>680.8</ele>
        <time>2021-10-20T08:32:58Z</time>
      </trkpt>
      <trkpt lat="38.1326550" lon="-6.3009930">
        <ele>681.0</ele>
        <time>2021-10-20T08:33:01Z</time>
      </trkpt>
      <trkpt lat="38.1325850" lon="-6.3010570">
        <ele>681.8</ele>
        <time>2021-10-20T08:33:05Z</time>
      </trkpt>
      <trkpt lat="38.1325240" lon="-6.3011030">
        <ele>682.4</ele>
        <time>2021-10-20T08:33:08Z</time>
      </trkpt>
      <trkpt lat="38.1324280" lon="-6.3011450">
        <ele>683.0</ele>
        <time>2021-10-20T08:33:13Z</time>
      </trkpt>
      <trkpt lat="38.1323730" lon="-6.3011670">
        <ele>683.4</ele>
        <time>2021-10-20T08:33:15Z</time>
      </trkpt>
      <trkpt lat="38.1322160" lon="-6.3012020">
        <ele>683.6</ele>
        <time>2021-10-20T08:33:20Z</time>
      </trkpt>
      <trkpt lat="38.1320830" lon="-6.3012290">
        <ele>683.6</ele>
        <time>2021-10-20T08:33:23Z</time>
      </trkpt>
      <trkpt lat="38.1319550" lon="-6.3012910">
        <ele>683.4</ele>
        <time>2021-10-20T08:33:26Z</time>
      </trkpt>
      <trkpt lat="38.1318360" lon="-6.3013630">
        <ele>683.0</ele>
        <time>2021-10-20T08:33:29Z</time>
      </trkpt>
      <trkpt lat="38.1317410" lon="-6.3014300">
        <ele>682.8</ele>
        <time>2021-10-20T08:33:32Z</time>
      </trkpt>
      <trkpt lat="38.1315680" lon="-6.3015490">
        <ele>683.0</ele>
        <time>2021-10-20T08:33:39Z</time>
      </trkpt>
      <trkpt lat="38.1314310" lon="-6.3015790">
        <ele>684.0</ele>
        <time>2021-10-20T08:33:45Z</time>
      </trkpt>
      <trkpt lat="38.1312380" lon="-6.3016030">
        <ele>684.4</ele>
        <time>2021-10-20T08:33:50Z</time>
      </trkpt>
      <trkpt lat="38.1309040" lon="-6.3017170">
        <ele>684.0</ele>
        <time>2021-10-20T08:33:56Z</time>
      </trkpt>
      <trkpt lat="38.1307790" lon="-6.3017850">
        <ele>682.6</ele>
        <time>2021-10-20T08:33:59Z</time>
      </trkpt>
      <trkpt lat="38.1307050" lon="-6.3018380">
        <ele>682.4</ele>
        <time>2021-10-20T08:34:01Z</time>
      </trkpt>
      <trkpt lat="38.1305290" lon="-6.3019640">
        <ele>682.4</ele>
        <time>2021-10-20T08:34:07Z</time>
      </trkpt>
      <trkpt lat="38.1303880" lon="-6.3020690">
        <ele>683.0</ele>
        <time>2021-10-20T08:34:13Z</time>
      </trkpt>
      <trkpt lat="38.1303180" lon="-6.3021210">
        <ele>683.8</ele>
        <time>2021-10-20T08:34:16Z</time>
      </trkpt>
      <trkpt lat="38.1302410" lon="-6.3021900">
        <ele>684.4</ele>
        <time>2021-10-20T08:34:20Z</time>
      </trkpt>
      <trkpt lat="38.1302240" lon="-6.3022010">
        <ele>684.4</ele>
        <time>2021-10-20T08:34:21Z</time>
      </trkpt>
      <trkpt lat="38.1301350" lon="-6.3022540">
        <ele>684.6</ele>
        <time>2021-10-20T08:34:25Z</time>
      </trkpt>
      <trkpt lat="38.1300290" lon="-6.3022990">
        <ele>685.2</ele>
        <time>2021-10-20T08:34:30Z</time>
      </trkpt>
      <trkpt lat="38.1299300" lon="-6.3023100">
        <ele>685.8</ele>
        <time>2021-10-20T08:34:35Z</time>
      </trkpt>
      <trkpt lat="38.1298440" lon="-6.3022990">
        <ele>686.4</ele>
        <time>2021-10-20T08:34:39Z</time>
      </trkpt>
      <trkpt lat="38.1298010" lon="-6.3022910">
        <ele>686.8</ele>
        <time>2021-10-20T08:34:41Z</time>
      </trkpt>
      <trkpt lat="38.1297220" lon="-6.3022700">
        <ele>687.2</ele>
        <time>2021-10-20T08:34:45Z</time>
      </trkpt>
      <trkpt lat="38.1296220" lon="-6.3022660">
        <ele>687.6</ele>
        <time>2021-10-20T08:34:49Z</time>
      </trkpt>
      <trkpt lat="38.1293430" lon="-6.3023500">
        <ele>687.4</ele>
        <time>2021-10-20T08:34:58Z</time>
      </trkpt>
      <trkpt lat="38.1292100" lon="-6.3023930">
        <ele>687.4</ele>
        <time>2021-10-20T08:35:02Z</time>
      </trkpt>
      <trkpt lat="38.1290900" lon="-6.3024410">
        <ele>687.6</ele>
        <time>2021-10-20T08:35:06Z</time>
      </trkpt>
      <trkpt lat="38.1290350" lon="-6.3024680">
        <ele>687.8</ele>
        <time>2021-10-20T08:35:08Z</time>
      </trkpt>
      <trkpt lat="38.1290070" lon="-6.3024850">
        <ele>687.8</ele>
        <time>2021-10-20T08:35:09Z</time>
      </trkpt>
      <trkpt lat="38.1288530" lon="-6.3025970">
        <ele>688.2</ele>
        <time>2021-10-20T08:35:15Z</time>
      </trkpt>
      <trkpt lat="38.1287550" lon="-6.3026760">
        <ele>688.6</ele>
        <time>2021-10-20T08:35:19Z</time>
      </trkpt>
      <trkpt lat="38.1286630" lon="-6.3027290">
        <ele>689.2</ele>
        <time>2021-10-20T08:35:23Z</time>
      </trkpt>
      <trkpt lat="38.1285440" lon="-6.3028020">
        <ele>689.6</ele>
        <time>2021-10-20T08:35:28Z</time>
      </trkpt>
      <trkpt lat="38.1284330" lon="-6.3028330">
        <ele>689.6</ele>
        <time>2021-10-20T08:35:32Z</time>
      </trkpt>
      <trkpt lat="38.1283320" lon="-6.3028360">
        <ele>689.8</ele>
        <time>2021-10-20T08:35:35Z</time>
      </trkpt>
      <trkpt lat="38.1283000" lon="-6.3028330">
        <ele>689.8</ele>
        <time>2021-10-20T08:35:36Z</time>
      </trkpt>
      <trkpt lat="38.1282160" lon="-6.3027910">
        <ele>689.6</ele>
        <time>2021-10-20T08:35:39Z</time>
      </trkpt>
      <trkpt lat="38.1281140" lon="-6.3027200">
        <ele>689.6</ele>
        <time>2021-10-20T08:35:43Z</time>
      </trkpt>
      <trkpt lat="38.1280380" lon="-6.3026710">
        <ele>689.4</ele>
        <time>2021-10-20T08:35:47Z</time>
      </trkpt>
      <trkpt lat="38.1280340" lon="-6.3026720">
        <ele>689.4</ele>
        <time>2021-10-20T08:35:48Z</time>
      </trkpt>
      <trkpt lat="38.1280340" lon="-6.3026720">
        <ele>689.2</ele>
        <time>2021-10-20T08:35:50Z</time>
      </trkpt>
      <trkpt lat="38.1280010" lon="-6.3026390">
        <ele>688.4</ele>
        <time>2021-10-20T08:36:54Z</time>
      </trkpt>
      <trkpt lat="38.1279790" lon="-6.3026200">
        <ele>688.4</ele>
        <time>2021-10-20T08:36:55Z</time>
      </trkpt>
      <trkpt lat="38.1278220" lon="-6.3025040">
        <ele>688.4</ele>
        <time>2021-10-20T08:37:01Z</time>
      </trkpt>
      <trkpt lat="38.1275850" lon="-6.3023170">
        <ele>688.2</ele>
        <time>2021-10-20T08:37:08Z</time>
      </trkpt>
      <trkpt lat="38.1273550" lon="-6.3020510">
        <ele>687.4</ele>
        <time>2021-10-20T08:37:13Z</time>
      </trkpt>
      <trkpt lat="38.1273130" lon="-6.3019870">
        <ele>687.2</ele>
        <time>2021-10-20T08:37:14Z</time>
      </trkpt>
      <trkpt lat="38.1272450" lon="-6.3018630">
        <ele>686.2</ele>
        <time>2021-10-20T08:37:16Z</time>
      </trkpt>
      <trkpt lat="38.1271650" lon="-6.3017210">
        <ele>685.8</ele>
        <time>2021-10-20T08:37:18Z</time>
      </trkpt>
      <trkpt lat="38.1271040" lon="-6.3016060">
        <ele>685.2</ele>
        <time>2021-10-20T08:37:20Z</time>
      </trkpt>
      <trkpt lat="38.1270430" lon="-6.3014940">
        <ele>684.8</ele>
        <time>2021-10-20T08:37:22Z</time>
      </trkpt>
      <trkpt lat="38.1270160" lon="-6.3014540">
        <ele>684.8</ele>
        <time>2021-10-20T08:37:23Z</time>
      </trkpt>
      <trkpt lat="38.1268450" lon="-6.3012600">
        <ele>684.8</ele>
        <time>2021-10-20T08:37:29Z</time>
      </trkpt>
      <trkpt lat="38.1267360" lon="-6.3011680">
        <ele>684.8</ele>
        <time>2021-10-20T08:37:32Z</time>
      </trkpt>
      <trkpt lat="38.1265560" lon="-6.3010130">
        <ele>685.0</ele>
        <time>2021-10-20T08:37:37Z</time>
      </trkpt>
      <trkpt lat="38.1264950" lon="-6.3009550">
        <ele>685.0</ele>
        <time>2021-10-20T08:37:39Z</time>
      </trkpt>
      <trkpt lat="38.1264520" lon="-6.3009180">
        <ele>685.0</ele>
        <time>2021-10-20T08:37:40Z</time>
      </trkpt>
      <trkpt lat="38.1262700" lon="-6.3008060">
        <ele>685.2</ele>
        <time>2021-10-20T08:37:45Z</time>
      </trkpt>
      <trkpt lat="38.1260360" lon="-6.3007600">
        <ele>685.8</ele>
        <time>2021-10-20T08:37:52Z</time>
      </trkpt>
      <trkpt lat="38.1258810" lon="-6.3007820">
        <ele>686.2</ele>
        <time>2021-10-20T08:37:57Z</time>
      </trkpt>
      <trkpt lat="38.1257710" lon="-6.3008110">
        <ele>686.8</ele>
        <time>2021-10-20T08:38:01Z</time>
      </trkpt>
      <trkpt lat="38.1256900" lon="-6.3008270">
        <ele>687.2</ele>
        <time>2021-10-20T08:38:04Z</time>
      </trkpt>
      <trkpt lat="38.1255930" lon="-6.3008730">
        <ele>687.6</ele>
        <time>2021-10-20T08:38:08Z</time>
      </trkpt>
      <trkpt lat="38.1255490" lon="-6.3008800">
        <ele>688.2</ele>
        <time>2021-10-20T08:38:10Z</time>
      </trkpt>
      <trkpt lat="38.1254680" lon="-6.3008790">
        <ele>688.6</ele>
        <time>2021-10-20T08:38:14Z</time>
      </trkpt>
      <trkpt lat="38.1254100" lon="-6.3008660">
        <ele>689.2</ele>
        <time>2021-10-20T08:38:17Z</time>
      </trkpt>
      <trkpt lat="38.1253360" lon="-6.3008360">
        <ele>689.8</ele>
        <time>2021-10-20T08:38:21Z</time>
      </trkpt>
      <trkpt lat="38.1252590" lon="-6.3008190">
        <ele>690.2</ele>
        <time>2021-10-20T08:38:25Z</time>
      </trkpt>
      <trkpt lat="38.1251970" lon="-6.3008170">
        <ele>690.8</ele>
        <time>2021-10-20T08:38:28Z</time>
      </trkpt>
      <trkpt lat="38.1251610" lon="-6.3008090">
        <ele>691.0</ele>
        <time>2021-10-20T08:38:30Z</time>
      </trkpt>
      <trkpt lat="38.1251070" lon="-6.3008010">
        <ele>691.4</ele>
        <time>2021-10-20T08:38:33Z</time>
      </trkpt>
      <trkpt lat="38.1250540" lon="-6.3007900">
        <ele>691.6</ele>
        <time>2021-10-20T08:38:37Z</time>
      </trkpt>
      <trkpt lat="38.1250070" lon="-6.3007760">
        <ele>691.8</ele>
        <time>2021-10-20T08:38:40Z</time>
      </trkpt>
      <trkpt lat="38.1249540" lon="-6.3007580">
        <ele>692.0</ele>
        <time>2021-10-20T08:38:43Z</time>
      </trkpt>
      <trkpt lat="38.1249170" lon="-6.3007410">
        <ele>692.0</ele>
        <time>2021-10-20T08:38:45Z</time>
      </trkpt>
      <trkpt lat="38.1248520" lon="-6.3007360">
        <ele>692.0</ele>
        <time>2021-10-20T08:38:48Z</time>
      </trkpt>
      <trkpt lat="38.1247640" lon="-6.3007080">
        <ele>691.8</ele>
        <time>2021-10-20T08:38:51Z</time>
      </trkpt>
      <trkpt lat="38.1247340" lon="-6.3006920">
        <ele>691.8</ele>
        <time>2021-10-20T08:38:52Z</time>
      </trkpt>
      <trkpt lat="38.1245960" lon="-6.3005650">
        <ele>691.2</ele>
        <time>2021-10-20T08:38:57Z</time>
      </trkpt>
      <trkpt lat="38.1244650" lon="-6.3004360">
        <ele>690.8</ele>
        <time>2021-10-20T08:39:01Z</time>
      </trkpt>
      <trkpt lat="38.1243890" lon="-6.3003770">
        <ele>690.8</ele>
        <time>2021-10-20T08:39:03Z</time>
      </trkpt>
      <trkpt lat="38.1242070" lon="-6.3002310">
        <ele>690.4</ele>
        <time>2021-10-20T08:39:08Z</time>
      </trkpt>
      <trkpt lat="38.1241720" lon="-6.3002040">
        <ele>690.2</ele>
        <time>2021-10-20T08:39:09Z</time>
      </trkpt>
      <trkpt lat="38.1240680" lon="-6.3001260">
        <ele>690.2</ele>
        <time>2021-10-20T08:39:12Z</time>
      </trkpt>
      <trkpt lat="38.1240360" lon="-6.3001000">
        <ele>690.0</ele>
        <time>2021-10-20T08:39:13Z</time>
      </trkpt>
      <trkpt lat="38.1239500" lon="-6.3000210">
        <ele>690.0</ele>
        <time>2021-10-20T08:39:16Z</time>
      </trkpt>
      <trkpt lat="38.1238290" lon="-6.2998840">
        <ele>690.0</ele>
        <time>2021-10-20T08:39:20Z</time>
      </trkpt>
      <trkpt lat="38.1236160" lon="-6.2996870">
        <ele>689.6</ele>
        <time>2021-10-20T08:39:26Z</time>
      </trkpt>
      <trkpt lat="38.1235080" lon="-6.2995650">
        <ele>689.2</ele>
        <time>2021-10-20T08:39:29Z</time>
      </trkpt>
      <trkpt lat="38.1234200" lon="-6.2995020">
        <ele>688.8</ele>
        <time>2021-10-20T08:39:31Z</time>
      </trkpt>
      <trkpt lat="38.1233620" lon="-6.2994720">
        <ele>688.8</ele>
        <time>2021-10-20T08:39:32Z</time>
      </trkpt>
      <trkpt lat="38.1232200" lon="-6.2994520">
        <ele>688.0</ele>
        <time>2021-10-20T08:39:35Z</time>
      </trkpt>
      <trkpt lat="38.1231600" lon="-6.2994360">
        <ele>687.4</ele>
        <time>2021-10-20T08:39:37Z</time>
      </trkpt>
      <trkpt lat="38.1231230" lon="-6.2994240">
        <ele>687.2</ele>
        <time>2021-10-20T08:39:39Z</time>
      </trkpt>
      <trkpt lat="38.1229760" lon="-6.2993560">
        <ele>686.4</ele>
        <time>2021-10-20T08:39:45Z</time>
      </trkpt>
      <trkpt lat="38.1227450" lon="-6.2992470">
        <ele>685.8</ele>
        <time>2021-10-20T08:39:51Z</time>
      </trkpt>
      <trkpt lat="38.1227030" lon="-6.2992350">
        <ele>685.8</ele>
        <time>2021-10-20T08:39:52Z</time>
      </trkpt>
      <trkpt lat="38.1225360" lon="-6.2991800">
        <ele>685.8</ele>
        <time>2021-10-20T08:39:56Z</time>
      </trkpt>
      <trkpt lat="38.1223030" lon="-6.2991160">
        <ele>685.6</ele>
        <time>2021-10-20T08:40:02Z</time>
      </trkpt>
      <trkpt lat="38.1220280" lon="-6.2990320">
        <ele>685.4</ele>
        <time>2021-10-20T08:40:09Z</time>
      </trkpt>
      <trkpt lat="38.1219580" lon="-6.2990040">
        <ele>685.4</ele>
        <time>2021-10-20T08:40:11Z</time>
      </trkpt>
      <trkpt lat="38.1216010" lon="-6.2989060">
        <ele>685.4</ele>
        <time>2021-10-20T08:40:20Z</time>
      </trkpt>
      <trkpt lat="38.1212810" lon="-6.2988010">
        <ele>685.6</ele>
        <time>2021-10-20T08:40:28Z</time>
      </trkpt>
      <trkpt lat="38.1209540" lon="-6.2986970">
        <ele>685.8</ele>
        <time>2021-10-20T08:40:37Z</time>
      </trkpt>
      <trkpt lat="38.1206750" lon="-6.2986050">
        <ele>686.4</ele>
        <time>2021-10-20T08:40:46Z</time>
      </trkpt>
      <trkpt lat="38.1205240" lon="-6.2985670">
        <ele>687.2</ele>
        <time>2021-10-20T08:40:52Z</time>
      </trkpt>
      <trkpt lat="38.1204990" lon="-6.2985620">
        <ele>687.4</ele>
        <time>2021-10-20T08:40:53Z</time>
      </trkpt>
      <trkpt lat="38.1203910" lon="-6.2985360">
        <ele>688.2</ele>
        <time>2021-10-20T08:40:58Z</time>
      </trkpt>
      <trkpt lat="38.1203020" lon="-6.2985180">
        <ele>689.0</ele>
        <time>2021-10-20T08:41:02Z</time>
      </trkpt>
      <trkpt lat="38.1202170" lon="-6.2985070">
        <ele>689.4</ele>
        <time>2021-10-20T08:41:06Z</time>
      </trkpt>
      <trkpt lat="38.1201090" lon="-6.2984880">
        <ele>690.0</ele>
        <time>2021-10-20T08:41:11Z</time>
      </trkpt>
      <trkpt lat="38.1200240" lon="-6.2984700">
        <ele>690.6</ele>
        <time>2021-10-20T08:41:15Z</time>
      </trkpt>
      <trkpt lat="38.1199570" lon="-6.2984660">
        <ele>690.8</ele>
        <time>2021-10-20T08:41:18Z</time>
      </trkpt>
      <trkpt lat="38.1197950" lon="-6.2984630">
        <ele>691.4</ele>
        <time>2021-10-20T08:41:25Z</time>
      </trkpt>
      <trkpt lat="38.1197750" lon="-6.2984640">
        <ele>691.6</ele>
        <time>2021-10-20T08:41:26Z</time>
      </trkpt>
      <trkpt lat="38.1197190" lon="-6.2984690">
        <ele>692.0</ele>
        <time>2021-10-20T08:41:28Z</time>
      </trkpt>
      <trkpt lat="38.1195770" lon="-6.2984890">
        <ele>692.2</ele>
        <time>2021-10-20T08:41:33Z</time>
      </trkpt>
      <trkpt lat="38.1195210" lon="-6.2984890">
        <ele>692.4</ele>
        <time>2021-10-20T08:41:35Z</time>
      </trkpt>
      <trkpt lat="38.1194520" lon="-6.2984970">
        <ele>692.4</ele>
        <time>2021-10-20T08:41:37Z</time>
      </trkpt>
      <trkpt lat="38.1193970" lon="-6.2985040">
        <ele>692.4</ele>
        <time>2021-10-20T08:41:39Z</time>
      </trkpt>
      <trkpt lat="38.1193050" lon="-6.2985050">
        <ele>692.6</ele>
        <time>2021-10-20T08:41:42Z</time>
      </trkpt>
      <trkpt lat="38.1191740" lon="-6.2984970">
        <ele>692.6</ele>
        <time>2021-10-20T08:41:46Z</time>
      </trkpt>
      <trkpt lat="38.1190810" lon="-6.2984730">
        <ele>692.6</ele>
        <time>2021-10-20T08:41:49Z</time>
      </trkpt>
      <trkpt lat="38.1189160" lon="-6.2984320">
        <ele>692.8</ele>
        <time>2021-10-20T08:41:54Z</time>
      </trkpt>
      <trkpt lat="38.1186590" lon="-6.2983410">
        <ele>693.0</ele>
        <time>2021-10-20T08:42:02Z</time>
      </trkpt>
      <trkpt lat="38.1186360" lon="-6.2983270">
        <ele>693.0</ele>
        <time>2021-10-20T08:42:03Z</time>
      </trkpt>
      <trkpt lat="38.1185250" lon="-6.2982390">
        <ele>693.4</ele>
        <time>2021-10-20T08:42:07Z</time>
      </trkpt>
      <trkpt lat="38.1184500" lon="-6.2981890">
        <ele>693.4</ele>
        <time>2021-10-20T08:42:10Z</time>
      </trkpt>
      <trkpt lat="38.1184240" lon="-6.2981760">
        <ele>693.6</ele>
        <time>2021-10-20T08:42:11Z</time>
      </trkpt>
      <trkpt lat="38.1182530" lon="-6.2981030">
        <ele>694.0</ele>
        <time>2021-10-20T08:42:18Z</time>
      </trkpt>
      <trkpt lat="38.1180840" lon="-6.2980280">
        <ele>694.6</ele>
        <time>2021-10-20T08:42:25Z</time>
      </trkpt>
      <trkpt lat="38.1180680" lon="-6.2980200">
        <ele>694.8</ele>
        <time>2021-10-20T08:42:26Z</time>
      </trkpt>
      <trkpt lat="38.1179820" lon="-6.2979820">
        <ele>695.6</ele>
        <time>2021-10-20T08:42:30Z</time>
      </trkpt>
      <trkpt lat="38.1179090" lon="-6.2979420">
        <ele>696.6</ele>
        <time>2021-10-20T08:42:34Z</time>
      </trkpt>
      <trkpt lat="38.1178780" lon="-6.2979210">
        <ele>697.0</ele>
        <time>2021-10-20T08:42:36Z</time>
      </trkpt>
      <trkpt lat="38.1177740" lon="-6.2978480">
        <ele>697.8</ele>
        <time>2021-10-20T08:42:42Z</time>
      </trkpt>
      <trkpt lat="38.1176810" lon="-6.2977730">
        <ele>698.8</ele>
        <time>2021-10-20T08:42:48Z</time>
      </trkpt>
      <trkpt lat="38.1176360" lon="-6.2977380">
        <ele>699.2</ele>
        <time>2021-10-20T08:42:51Z</time>
      </trkpt>
      <trkpt lat="38.1175790" lon="-6.2976870">
        <ele>699.8</ele>
        <time>2021-10-20T08:42:55Z</time>
      </trkpt>
      <trkpt lat="38.1175120" lon="-6.2976460">
        <ele>700.4</ele>
        <time>2021-10-20T08:42:59Z</time>
      </trkpt>
      <trkpt lat="38.1174650" lon="-6.2976140">
        <ele>700.6</ele>
        <time>2021-10-20T08:43:02Z</time>
      </trkpt>
      <trkpt lat="38.1174420" lon="-6.2975910">
        <ele>700.8</ele>
        <time>2021-10-20T08:43:04Z</time>
      </trkpt>
      <trkpt lat="38.1173990" lon="-6.2975550">
        <ele>701.0</ele>
        <time>2021-10-20T08:43:07Z</time>
      </trkpt>
      <trkpt lat="38.1173540" lon="-6.2975220">
        <ele>701.2</ele>
        <time>2021-10-20T08:43:10Z</time>
      </trkpt>
      <trkpt lat="38.1173180" lon="-6.2975020">
        <ele>701.2</ele>
        <time>2021-10-20T08:43:12Z</time>
      </trkpt>
      <trkpt lat="38.1172580" lon="-6.2974830">
        <ele>701.2</ele>
        <time>2021-10-20T08:43:14Z</time>
      </trkpt>
      <trkpt lat="38.1171320" lon="-6.2974500">
        <ele>701.2</ele>
        <time>2021-10-20T08:43:17Z</time>
      </trkpt>
      <trkpt lat="38.1170330" lon="-6.2974280">
        <ele>701.2</ele>
        <time>2021-10-20T08:43:19Z</time>
      </trkpt>
      <trkpt lat="38.1167250" lon="-6.2974020">
        <ele>700.0</ele>
        <time>2021-10-20T08:43:24Z</time>
      </trkpt>
      <trkpt lat="38.1166640" lon="-6.2974000">
        <ele>699.8</ele>
        <time>2021-10-20T08:43:25Z</time>
      </trkpt>
      <trkpt lat="38.1166040" lon="-6.2974000">
        <ele>699.4</ele>
        <time>2021-10-20T08:43:26Z</time>
      </trkpt>
      <trkpt lat="38.1163740" lon="-6.2974030">
        <ele>698.6</ele>
        <time>2021-10-20T08:43:30Z</time>
      </trkpt>
      <trkpt lat="38.1162740" lon="-6.2973990">
        <ele>698.2</ele>
        <time>2021-10-20T08:43:32Z</time>
      </trkpt>
      <trkpt lat="38.1162100" lon="-6.2974050">
        <ele>698.2</ele>
        <time>2021-10-20T08:43:33Z</time>
      </trkpt>
      <trkpt lat="38.1160680" lon="-6.2974370">
        <ele>698.0</ele>
        <time>2021-10-20T08:43:36Z</time>
      </trkpt>
      <trkpt lat="38.1159260" lon="-6.2974820">
        <ele>697.8</ele>
        <time>2021-10-20T08:43:39Z</time>
      </trkpt>
      <trkpt lat="38.1158210" lon="-6.2975140">
        <ele>697.6</ele>
        <time>2021-10-20T08:43:42Z</time>
      </trkpt>
      <trkpt lat="38.1157230" lon="-6.2975460">
        <ele>697.8</ele>
        <time>2021-10-20T08:43:45Z</time>
      </trkpt>
      <trkpt lat="38.1155060" lon="-6.2975730">
        <ele>697.6</ele>
        <time>2021-10-20T08:43:52Z</time>
      </trkpt>
      <trkpt lat="38.1154030" lon="-6.2975590">
        <ele>698.0</ele>
        <time>2021-10-20T08:43:56Z</time>
      </trkpt>
      <trkpt lat="38.1151500" lon="-6.2975130">
        <ele>699.0</ele>
        <time>2021-10-20T08:44:05Z</time>
      </trkpt>
      <trkpt lat="38.1150610" lon="-6.2974970">
        <ele>699.0</ele>
        <time>2021-10-20T08:44:08Z</time>
      </trkpt>
      <trkpt lat="38.1149990" lon="-6.2974860">
        <ele>699.2</ele>
        <time>2021-10-20T08:44:10Z</time>
      </trkpt>
      <trkpt lat="38.1148790" lon="-6.2974540">
        <ele>699.2</ele>
        <time>2021-10-20T08:44:14Z</time>
      </trkpt>
      <trkpt lat="38.1147940" lon="-6.2974420">
        <ele>699.4</ele>
        <time>2021-10-20T08:44:17Z</time>
      </trkpt>
      <trkpt lat="38.1146550" lon="-6.2974270">
        <ele>699.6</ele>
        <time>2021-10-20T08:44:22Z</time>
      </trkpt>
      <trkpt lat="38.1145680" lon="-6.2974200">
        <ele>699.8</ele>
        <time>2021-10-20T08:44:25Z</time>
      </trkpt>
      <trkpt lat="38.1144400" lon="-6.2974020">
        <ele>700.2</ele>
        <time>2021-10-20T08:44:29Z</time>
      </trkpt>
      <trkpt lat="38.1143720" lon="-6.2973930">
        <ele>700.2</ele>
        <time>2021-10-20T08:44:31Z</time>
      </trkpt>
      <trkpt lat="38.1141430" lon="-6.2973650">
        <ele>700.4</ele>
        <time>2021-10-20T08:44:38Z</time>
      </trkpt>
      <trkpt lat="38.1141130" lon="-6.2973580">
        <ele>700.6</ele>
        <time>2021-10-20T08:44:39Z</time>
      </trkpt>
      <trkpt lat="38.1139050" lon="-6.2972970">
        <ele>700.8</ele>
        <time>2021-10-20T08:44:46Z</time>
      </trkpt>
      <trkpt lat="38.1136620" lon="-6.2971550">
        <ele>701.0</ele>
        <time>2021-10-20T08:44:54Z</time>
      </trkpt>
      <trkpt lat="38.1136310" lon="-6.2971320">
        <ele>701.2</ele>
        <time>2021-10-20T08:44:55Z</time>
      </trkpt>
      <trkpt lat="38.1135060" lon="-6.2970470">
        <ele>701.0</ele>
        <time>2021-10-20T08:44:59Z</time>
      </trkpt>
      <trkpt lat="38.1132850" lon="-6.2969200">
        <ele>700.6</ele>
        <time>2021-10-20T08:45:05Z</time>
      </trkpt>
      <trkpt lat="38.1132020" lon="-6.2968770">
        <ele>700.4</ele>
        <time>2021-10-20T08:45:07Z</time>
      </trkpt>
      <trkpt lat="38.1130760" lon="-6.2968290">
        <ele>700.2</ele>
        <time>2021-10-20T08:45:10Z</time>
      </trkpt>
      <trkpt lat="38.1129610" lon="-6.2968070">
        <ele>700.2</ele>
        <time>2021-10-20T08:45:13Z</time>
      </trkpt>
      <trkpt lat="38.1129240" lon="-6.2968040">
        <ele>700.0</ele>
        <time>2021-10-20T08:45:14Z</time>
      </trkpt>
      <trkpt lat="38.1127050" lon="-6.2967690">
        <ele>700.2</ele>
        <time>2021-10-20T08:45:20Z</time>
      </trkpt>
      <trkpt lat="38.1124160" lon="-6.2966820">
        <ele>700.8</ele>
        <time>2021-10-20T08:45:29Z</time>
      </trkpt>
      <trkpt lat="38.1123300" lon="-6.2966450">
        <ele>701.0</ele>
        <time>2021-10-20T08:45:32Z</time>
      </trkpt>
      <trkpt lat="38.1122080" lon="-6.2966120">
        <ele>701.4</ele>
        <time>2021-10-20T08:45:36Z</time>
      </trkpt>
      <trkpt lat="38.1121170" lon="-6.2965800">
        <ele>701.6</ele>
        <time>2021-10-20T08:45:39Z</time>
      </trkpt>
      <trkpt lat="38.1119930" lon="-6.2965270">
        <ele>702.0</ele>
        <time>2021-10-20T08:45:43Z</time>
      </trkpt>
      <trkpt lat="38.1119340" lon="-6.2964900">
        <ele>702.0</ele>
        <time>2021-10-20T08:45:45Z</time>
      </trkpt>
      <trkpt lat="38.1118110" lon="-6.2964270">
        <ele>702.0</ele>
        <time>2021-10-20T08:45:49Z</time>
      </trkpt>
      <trkpt lat="38.1115910" lon="-6.2963290">
        <ele>701.6</ele>
        <time>2021-10-20T08:45:56Z</time>
      </trkpt>
      <trkpt lat="38.1114490" lon="-6.2962650">
        <ele>701.6</ele>
        <time>2021-10-20T08:46:00Z</time>
      </trkpt>
      <trkpt lat="38.1113100" lon="-6.2962230">
        <ele>701.4</ele>
        <time>2021-10-20T08:46:04Z</time>
      </trkpt>
      <trkpt lat="38.1110780" lon="-6.2961600">
        <ele>701.4</ele>
        <time>2021-10-20T08:46:11Z</time>
      </trkpt>
      <trkpt lat="38.1109110" lon="-6.2961520">
        <ele>701.6</ele>
        <time>2021-10-20T08:46:16Z</time>
      </trkpt>
      <trkpt lat="38.1107830" lon="-6.2961660">
        <ele>702.0</ele>
        <time>2021-10-20T08:46:20Z</time>
      </trkpt>
      <trkpt lat="38.1106360" lon="-6.2961860">
        <ele>702.8</ele>
        <time>2021-10-20T08:46:26Z</time>
      </trkpt>
      <trkpt lat="38.1104840" lon="-6.2962080">
        <ele>702.8</ele>
        <time>2021-10-20T08:46:29Z</time>
      </trkpt>
      <trkpt lat="38.1103700" lon="-6.2962270">
        <ele>702.8</ele>
        <time>2021-10-20T08:46:32Z</time>
      </trkpt>
      <trkpt lat="38.1101150" lon="-6.2962790">
        <ele>702.8</ele>
        <time>2021-10-20T08:46:39Z</time>
      </trkpt>
      <trkpt lat="38.1099370" lon="-6.2963130">
        <ele>702.8</ele>
        <time>2021-10-20T08:46:44Z</time>
      </trkpt>
      <trkpt lat="38.1099080" lon="-6.2963200">
        <ele>703.0</ele>
        <time>2021-10-20T08:46:46Z</time>
      </trkpt>
      <trkpt lat="38.1098020" lon="-6.2963490">
        <ele>703.0</ele>
        <time>2021-10-20T08:46:48Z</time>
      </trkpt>
      <trkpt lat="38.1096180" lon="-6.2963820">
        <ele>703.4</ele>
        <time>2021-10-20T08:46:54Z</time>
      </trkpt>
      <trkpt lat="38.1095320" lon="-6.2963940">
        <ele>703.4</ele>
        <time>2021-10-20T08:46:57Z</time>
      </trkpt>
      <trkpt lat="38.1092390" lon="-6.2964230">
        <ele>703.6</ele>
        <time>2021-10-20T08:47:05Z</time>
      </trkpt>
      <trkpt lat="38.1090480" lon="-6.2964360">
        <ele>703.6</ele>
        <time>2021-10-20T08:47:09Z</time>
      </trkpt>
      <trkpt lat="38.1089730" lon="-6.2964330">
        <ele>703.4</ele>
        <time>2021-10-20T08:47:11Z</time>
      </trkpt>
      <trkpt lat="38.1087120" lon="-6.2964100">
        <ele>703.2</ele>
        <time>2021-10-20T08:47:18Z</time>
      </trkpt>
      <trkpt lat="38.1084830" lon="-6.2963900">
        <ele>703.8</ele>
        <time>2021-10-20T08:47:26Z</time>
      </trkpt>
      <trkpt lat="38.1084530" lon="-6.2963850">
        <ele>704.0</ele>
        <time>2021-10-20T08:47:27Z</time>
      </trkpt>
      <trkpt lat="38.1083660" lon="-6.2963650">
        <ele>704.8</ele>
        <time>2021-10-20T08:47:31Z</time>
      </trkpt>
      <trkpt lat="38.1082920" lon="-6.2963460">
        <ele>704.8</ele>
        <time>2021-10-20T08:47:33Z</time>
      </trkpt>
      <trkpt lat="38.1082430" lon="-6.2963270">
        <ele>705.2</ele>
        <time>2021-10-20T08:47:35Z</time>
      </trkpt>
      <trkpt lat="38.1081760" lon="-6.2962950">
        <ele>706.0</ele>
        <time>2021-10-20T08:47:38Z</time>
      </trkpt>
      <trkpt lat="38.1080950" lon="-6.2962540">
        <ele>706.6</ele>
        <time>2021-10-20T08:47:42Z</time>
      </trkpt>
      <trkpt lat="38.1079980" lon="-6.2962280">
        <ele>707.0</ele>
        <time>2021-10-20T08:47:46Z</time>
      </trkpt>
      <trkpt lat="38.1078930" lon="-6.2961980">
        <ele>707.2</ele>
        <time>2021-10-20T08:47:50Z</time>
      </trkpt>
      <trkpt lat="38.1076820" lon="-6.2962110">
        <ele>707.6</ele>
        <time>2021-10-20T08:47:58Z</time>
      </trkpt>
      <trkpt lat="38.1074410" lon="-6.2962370">
        <ele>707.4</ele>
        <time>2021-10-20T08:48:05Z</time>
      </trkpt>
      <trkpt lat="38.1071890" lon="-6.2962850">
        <ele>706.4</ele>
        <time>2021-10-20T08:48:10Z</time>
      </trkpt>
      <trkpt lat="38.1069820" lon="-6.2963230">
        <ele>705.8</ele>
        <time>2021-10-20T08:48:12Z</time>
      </trkpt>
      <trkpt lat="38.1068860" lon="-6.2963330">
        <ele>705.2</ele>
        <time>2021-10-20T08:48:14Z</time>
      </trkpt>
      <trkpt lat="38.1067750" lon="-6.2963260">
        <ele>704.6</ele>
        <time>2021-10-20T08:48:15Z</time>
      </trkpt>
      <trkpt lat="38.1065550" lon="-6.2963110">
        <ele>703.4</ele>
        <time>2021-10-20T08:48:17Z</time>
      </trkpt>
      <trkpt lat="38.1064640" lon="-6.2962840">
        <ele>703.0</ele>
        <time>2021-10-20T08:48:18Z</time>
      </trkpt>
      <trkpt lat="38.1063990" lon="-6.2962520">
        <ele>702.6</ele>
        <time>2021-10-20T08:48:19Z</time>
      </trkpt>
      <trkpt lat="38.1063500" lon="-6.2962220">
        <ele>701.8</ele>
        <time>2021-10-20T08:48:20Z</time>
      </trkpt>
      <trkpt lat="38.1062450" lon="-6.2961380">
        <ele>700.2</ele>
        <time>2021-10-20T08:48:22Z</time>
      </trkpt>
      <trkpt lat="38.1061940" lon="-6.2960870">
        <ele>699.8</ele>
        <time>2021-10-20T08:48:23Z</time>
      </trkpt>
      <trkpt lat="38.1060270" lon="-6.2958900">
        <ele>699.2</ele>
        <time>2021-10-20T08:48:28Z</time>
      </trkpt>
      <trkpt lat="38.1060070" lon="-6.2958430">
        <ele>699.2</ele>
        <time>2021-10-20T08:48:29Z</time>
      </trkpt>
      <trkpt lat="38.1059960" lon="-6.2957490">
        <ele>699.0</ele>
        <time>2021-10-20T08:48:31Z</time>
      </trkpt>
      <trkpt lat="38.1060030" lon="-6.2956410">
        <ele>699.0</ele>
        <time>2021-10-20T08:48:33Z</time>
      </trkpt>
      <trkpt lat="38.1060180" lon="-6.2954980">
        <ele>699.2</ele>
        <time>2021-10-20T08:48:36Z</time>
      </trkpt>
      <trkpt lat="38.1060460" lon="-6.2952170">
        <ele>699.0</ele>
        <time>2021-10-20T08:48:42Z</time>
      </trkpt>
      <trkpt lat="38.1060980" lon="-6.2947280">
        <ele>698.2</ele>
        <time>2021-10-20T08:48:48Z</time>
      </trkpt>
      <trkpt lat="38.1061060" lon="-6.2946490">
        <ele>697.8</ele>
        <time>2021-10-20T08:48:49Z</time>
      </trkpt>
      <trkpt lat="38.1061610" lon="-6.2942210">
        <ele>696.4</ele>
        <time>2021-10-20T08:48:55Z</time>
      </trkpt>
      <trkpt lat="38.1061630" lon="-6.2941100">
        <ele>695.8</ele>
        <time>2021-10-20T08:48:57Z</time>
      </trkpt>
      <trkpt lat="38.1061500" lon="-6.2940530">
        <ele>695.4</ele>
        <time>2021-10-20T08:48:58Z</time>
      </trkpt>
      <trkpt lat="38.1061280" lon="-6.2940120">
        <ele>695.0</ele>
        <time>2021-10-20T08:48:59Z</time>
      </trkpt>
      <trkpt lat="38.1060680" lon="-6.2939580">
        <ele>694.2</ele>
        <time>2021-10-20T08:49:01Z</time>
      </trkpt>
      <trkpt lat="38.1059770" lon="-6.2938830">
        <ele>693.6</ele>
        <time>2021-10-20T08:49:03Z</time>
      </trkpt>
      <trkpt lat="38.1059360" lon="-6.2938420">
        <ele>693.2</ele>
        <time>2021-10-20T08:49:04Z</time>
      </trkpt>
      <trkpt lat="38.1057520" lon="-6.2936780">
        <ele>692.0</ele>
        <time>2021-10-20T08:49:08Z</time>
      </trkpt>
      <trkpt lat="38.1057010" lon="-6.2936300">
        <ele>691.6</ele>
        <time>2021-10-20T08:49:10Z</time>
      </trkpt>
      <trkpt lat="38.1056150" lon="-6.2935310">
        <ele>691.0</ele>
        <time>2021-10-20T08:49:11Z</time>
      </trkpt>
      <trkpt lat="38.1055690" lon="-6.2934650">
        <ele>690.8</ele>
        <time>2021-10-20T08:49:12Z</time>
      </trkpt>
      <trkpt lat="38.1054690" lon="-6.2932960">
        <ele>690.2</ele>
        <time>2021-10-20T08:49:14Z</time>
      </trkpt>
      <trkpt lat="38.1053600" lon="-6.2930460">
        <ele>689.4</ele>
        <time>2021-10-20T08:49:17Z</time>
      </trkpt>
      <trkpt lat="38.1052870" lon="-6.2928260">
        <ele>688.2</ele>
        <time>2021-10-20T08:49:19Z</time>
      </trkpt>
      <trkpt lat="38.1052620" lon="-6.2927400">
        <ele>687.2</ele>
        <time>2021-10-20T08:49:20Z</time>
      </trkpt>
      <trkpt lat="38.1051660" lon="-6.2923890">
        <ele>685.8</ele>
        <time>2021-10-20T08:49:23Z</time>
      </trkpt>
      <trkpt lat="38.1051270" lon="-6.2922850">
        <ele>685.2</ele>
        <time>2021-10-20T08:49:24Z</time>
      </trkpt>
      <trkpt lat="38.1050900" lon="-6.2922040">
        <ele>684.0</ele>
        <time>2021-10-20T08:49:25Z</time>
      </trkpt>
      <trkpt lat="38.1050380" lon="-6.2921060">
        <ele>682.4</ele>
        <time>2021-10-20T08:49:26Z</time>
      </trkpt>
      <trkpt lat="38.1049080" lon="-6.2919070">
        <ele>681.2</ele>
        <time>2021-10-20T08:49:28Z</time>
      </trkpt>
      <trkpt lat="38.1047390" lon="-6.2916660">
        <ele>679.8</ele>
        <time>2021-10-20T08:49:31Z</time>
      </trkpt>
      <trkpt lat="38.1046030" lon="-6.2914840">
        <ele>678.6</ele>
        <time>2021-10-20T08:49:34Z</time>
      </trkpt>
      <trkpt lat="38.1043970" lon="-6.2911790">
        <ele>677.4</ele>
        <time>2021-10-20T08:49:37Z</time>
      </trkpt>
      <trkpt lat="38.1043230" lon="-6.2910920">
        <ele>677.0</ele>
        <time>2021-10-20T08:49:38Z</time>
      </trkpt>
      <trkpt lat="38.1042540" lon="-6.2910250">
        <ele>676.2</ele>
        <time>2021-10-20T08:49:40Z</time>
      </trkpt>
      <trkpt lat="38.1041410" lon="-6.2909340">
        <ele>675.6</ele>
        <time>2021-10-20T08:49:41Z</time>
      </trkpt>
      <trkpt lat="38.1040280" lon="-6.2908430">
        <ele>675.0</ele>
        <time>2021-10-20T08:49:42Z</time>
      </trkpt>
      <trkpt lat="38.1038960" lon="-6.2907240">
        <ele>673.8</ele>
        <time>2021-10-20T08:49:45Z</time>
      </trkpt>
      <trkpt lat="38.1037910" lon="-6.2906410">
        <ele>673.2</ele>
        <time>2021-10-20T08:49:46Z</time>
      </trkpt>
      <trkpt lat="38.1036560" lon="-6.2906030">
        <ele>672.2</ele>
        <time>2021-10-20T08:49:48Z</time>
      </trkpt>
      <trkpt lat="38.1036000" lon="-6.2906020">
        <ele>672.0</ele>
        <time>2021-10-20T08:49:49Z</time>
      </trkpt>
      <trkpt lat="38.1035090" lon="-6.2906010">
        <ele>671.0</ele>
        <time>2021-10-20T08:49:51Z</time>
      </trkpt>
      <trkpt lat="38.1033290" lon="-6.2905990">
        <ele>670.0</ele>
        <time>2021-10-20T08:49:55Z</time>
      </trkpt>
      <trkpt lat="38.1032090" lon="-6.2905920">
        <ele>669.6</ele>
        <time>2021-10-20T08:50:00Z</time>
      </trkpt>
      <trkpt lat="38.1031730" lon="-6.2905790">
        <ele>669.6</ele>
        <time>2021-10-20T08:50:01Z</time>
      </trkpt>
      <trkpt lat="38.1031230" lon="-6.2905100">
        <ele>669.8</ele>
        <time>2021-10-20T08:50:04Z</time>
      </trkpt>
      <trkpt lat="38.1030360" lon="-6.2903800">
        <ele>670.2</ele>
        <time>2021-10-20T08:50:09Z</time>
      </trkpt>
      <trkpt lat="38.1030140" lon="-6.2903770">
        <ele>670.6</ele>
        <time>2021-10-20T08:50:10Z</time>
      </trkpt>
      <trkpt lat="38.1029430" lon="-6.2903770">
        <ele>671.0</ele>
        <time>2021-10-20T08:50:13Z</time>
      </trkpt>
      <trkpt lat="38.1028780" lon="-6.2903850">
        <ele>671.4</ele>
        <time>2021-10-20T08:50:16Z</time>
      </trkpt>
      <trkpt lat="38.1027520" lon="-6.2903690">
        <ele>671.8</ele>
        <time>2021-10-20T08:50:22Z</time>
      </trkpt>
      <trkpt lat="38.1027290" lon="-6.2903650">
        <ele>672.0</ele>
        <time>2021-10-20T08:50:24Z</time>
      </trkpt>
      <trkpt lat="38.1025470" lon="-6.2903150">
        <ele>672.4</ele>
        <time>2021-10-20T08:50:31Z</time>
      </trkpt>
      <trkpt lat="38.1024070" lon="-6.2902550">
        <ele>672.6</ele>
        <time>2021-10-20T08:50:35Z</time>
      </trkpt>
      <trkpt lat="38.1023680" lon="-6.2902360">
        <ele>672.6</ele>
        <time>2021-10-20T08:50:36Z</time>
      </trkpt>
      <trkpt lat="38.1022590" lon="-6.2901960">
        <ele>672.8</ele>
        <time>2021-10-20T08:50:39Z</time>
      </trkpt>
      <trkpt lat="38.1021830" lon="-6.2901770">
        <ele>673.0</ele>
        <time>2021-10-20T08:50:41Z</time>
      </trkpt>
      <trkpt lat="38.1021370" lon="-6.2901700">
        <ele>673.0</ele>
        <time>2021-10-20T08:50:42Z</time>
      </trkpt>
      <trkpt lat="38.1020500" lon="-6.2901730">
        <ele>673.0</ele>
        <time>2021-10-20T08:50:44Z</time>
      </trkpt>
      <trkpt lat="38.1019360" lon="-6.2902090">
        <ele>673.0</ele>
        <time>2021-10-20T08:50:47Z</time>
      </trkpt>
      <trkpt lat="38.1017380" lon="-6.2903590">
        <ele>673.0</ele>
        <time>2021-10-20T08:50:53Z</time>
      </trkpt>
      <trkpt lat="38.1016680" lon="-6.2904040">
        <ele>673.0</ele>
        <time>2021-10-20T08:50:55Z</time>
      </trkpt>
      <trkpt lat="38.1015060" lon="-6.2904720">
        <ele>673.2</ele>
        <time>2021-10-20T08:51:00Z</time>
      </trkpt>
      <trkpt lat="38.1013560" lon="-6.2904740">
        <ele>673.8</ele>
        <time>2021-10-20T08:51:05Z</time>
      </trkpt>
      <trkpt lat="38.1012950" lon="-6.2904440">
        <ele>674.0</ele>
        <time>2021-10-20T08:51:07Z</time>
      </trkpt>
      <trkpt lat="38.1011140" lon="-6.2902870">
        <ele>674.4</ele>
        <time>2021-10-20T08:51:13Z</time>
      </trkpt>
      <trkpt lat="38.1009440" lon="-6.2900610">
        <ele>674.6</ele>
        <time>2021-10-20T08:51:20Z</time>
      </trkpt>
      <trkpt lat="38.1008490" lon="-6.2899510">
        <ele>675.0</ele>
        <time>2021-10-20T08:51:24Z</time>
      </trkpt>
      <trkpt lat="38.1007430" lon="-6.2898410">
        <ele>675.0</ele>
        <time>2021-10-20T08:51:29Z</time>
      </trkpt>
      <trkpt lat="38.1006120" lon="-6.2896400">
        <ele>675.6</ele>
        <time>2021-10-20T08:51:34Z</time>
      </trkpt>
      <trkpt lat="38.1004730" lon="-6.2894470">
        <ele>676.0</ele>
        <time>2021-10-20T08:51:40Z</time>
      </trkpt>
      <trkpt lat="38.1004140" lon="-6.2893840">
        <ele>676.2</ele>
        <time>2021-10-20T08:51:42Z</time>
      </trkpt>
      <trkpt lat="38.1002940" lon="-6.2892510">
        <ele>676.6</ele>
        <time>2021-10-20T08:51:47Z</time>
      </trkpt>
      <trkpt lat="38.1002700" lon="-6.2892270">
        <ele>676.6</ele>
        <time>2021-10-20T08:51:48Z</time>
      </trkpt>
      <trkpt lat="38.1001260" lon="-6.2891270">
        <ele>676.8</ele>
        <time>2021-10-20T08:51:53Z</time>
      </trkpt>
      <trkpt lat="38.1000870" lon="-6.2891010">
        <ele>677.0</ele>
        <time>2021-10-20T08:51:54Z</time>
      </trkpt>
      <trkpt lat="38.1000490" lon="-6.2890740">
        <ele>677.0</ele>
        <time>2021-10-20T08:51:55Z</time>
      </trkpt>
      <trkpt lat="38.0998910" lon="-6.2888900">
        <ele>676.8</ele>
        <time>2021-10-20T08:52:01Z</time>
      </trkpt>
      <trkpt lat="38.0998000" lon="-6.2887180">
        <ele>677.0</ele>
        <time>2021-10-20T08:52:06Z</time>
      </trkpt>
      <trkpt lat="38.0997850" lon="-6.2886790">
        <ele>677.0</ele>
        <time>2021-10-20T08:52:07Z</time>
      </trkpt>
      <trkpt lat="38.0996810" lon="-6.2883740">
        <ele>677.4</ele>
        <time>2021-10-20T08:52:16Z</time>
      </trkpt>
      <trkpt lat="38.0996420" lon="-6.2882660">
        <ele>677.8</ele>
        <time>2021-10-20T08:52:20Z</time>
      </trkpt>
      <trkpt lat="38.0996320" lon="-6.2882450">
        <ele>678.0</ele>
        <time>2021-10-20T08:52:21Z</time>
      </trkpt>
      <trkpt lat="38.0995720" lon="-6.2881470">
        <ele>679.0</ele>
        <time>2021-10-20T08:52:26Z</time>
      </trkpt>
      <trkpt lat="38.0995440" lon="-6.2881180">
        <ele>679.2</ele>
        <time>2021-10-20T08:52:28Z</time>
      </trkpt>
      <trkpt lat="38.0995140" lon="-6.2880920">
        <ele>679.6</ele>
        <time>2021-10-20T08:52:30Z</time>
      </trkpt>
      <trkpt lat="38.0994810" lon="-6.2880780">
        <ele>680.2</ele>
        <time>2021-10-20T08:52:32Z</time>
      </trkpt>
      <trkpt lat="38.0994530" lon="-6.2880630">
        <ele>680.8</ele>
        <time>2021-10-20T08:52:34Z</time>
      </trkpt>
      <trkpt lat="38.0994050" lon="-6.2880460">
        <ele>681.2</ele>
        <time>2021-10-20T08:52:37Z</time>
      </trkpt>
      <trkpt lat="38.0993170" lon="-6.2880180">
        <ele>682.2</ele>
        <time>2021-10-20T08:52:42Z</time>
      </trkpt>
      <trkpt lat="38.0992990" lon="-6.2880120">
        <ele>682.4</ele>
        <time>2021-10-20T08:52:43Z</time>
      </trkpt>
      <trkpt lat="38.0992120" lon="-6.2879680">
        <ele>683.2</ele>
        <time>2021-10-20T08:52:48Z</time>
      </trkpt>
      <trkpt lat="38.0991770" lon="-6.2879550">
        <ele>683.4</ele>
        <time>2021-10-20T08:52:50Z</time>
      </trkpt>
      <trkpt lat="38.0990870" lon="-6.2878840">
        <ele>684.0</ele>
        <time>2021-10-20T08:52:56Z</time>
      </trkpt>
      <trkpt lat="38.0990580" lon="-6.2878610">
        <ele>684.4</ele>
        <time>2021-10-20T08:52:58Z</time>
      </trkpt>
      <trkpt lat="38.0989670" lon="-6.2878000">
        <ele>685.6</ele>
        <time>2021-10-20T08:53:04Z</time>
      </trkpt>
      <trkpt lat="38.0988700" lon="-6.2877510">
        <ele>686.6</ele>
        <time>2021-10-20T08:53:10Z</time>
      </trkpt>
      <trkpt lat="38.0988370" lon="-6.2877310">
        <ele>687.0</ele>
        <time>2021-10-20T08:53:12Z</time>
      </trkpt>
      <trkpt lat="38.0988030" lon="-6.2877150">
        <ele>687.0</ele>
        <time>2021-10-20T08:53:14Z</time>
      </trkpt>
      <trkpt lat="38.0987670" lon="-6.2876930">
        <ele>687.2</ele>
        <time>2021-10-20T08:53:16Z</time>
      </trkpt>
      <trkpt lat="38.0987490" lon="-6.2876810">
        <ele>687.4</ele>
        <time>2021-10-20T08:53:17Z</time>
      </trkpt>
      <trkpt lat="38.0987120" lon="-6.2876630">
        <ele>687.6</ele>
        <time>2021-10-20T08:53:19Z</time>
      </trkpt>
      <trkpt lat="38.0986420" lon="-6.2876190">
        <ele>687.8</ele>
        <time>2021-10-20T08:53:23Z</time>
      </trkpt>
      <trkpt lat="38.0985830" lon="-6.2875920">
        <ele>688.2</ele>
        <time>2021-10-20T08:53:27Z</time>
      </trkpt>
      <trkpt lat="38.0985490" lon="-6.2875750">
        <ele>688.4</ele>
        <time>2021-10-20T08:53:29Z</time>
      </trkpt>
      <trkpt lat="38.0985200" lon="-6.2875540">
        <ele>688.6</ele>
        <time>2021-10-20T08:53:31Z</time>
      </trkpt>
      <trkpt lat="38.0984930" lon="-6.2875290">
        <ele>688.6</ele>
        <time>2021-10-20T08:53:33Z</time>
      </trkpt>
      <trkpt lat="38.0984040" lon="-6.2874380">
        <ele>689.4</ele>
        <time>2021-10-20T08:53:40Z</time>
      </trkpt>
      <trkpt lat="38.0983750" lon="-6.2874140">
        <ele>689.4</ele>
        <time>2021-10-20T08:53:42Z</time>
      </trkpt>
      <trkpt lat="38.0983610" lon="-6.2874020">
        <ele>689.8</ele>
        <time>2021-10-20T08:53:43Z</time>
      </trkpt>
      <trkpt lat="38.0983070" lon="-6.2873290">
        <ele>690.6</ele>
        <time>2021-10-20T08:53:48Z</time>
      </trkpt>
      <trkpt lat="38.0982900" lon="-6.2872960">
        <ele>690.8</ele>
        <time>2021-10-20T08:53:50Z</time>
      </trkpt>
      <trkpt lat="38.0982430" lon="-6.2871950">
        <ele>691.8</ele>
        <time>2021-10-20T08:53:56Z</time>
      </trkpt>
      <trkpt lat="38.0982350" lon="-6.2871780">
        <ele>692.0</ele>
        <time>2021-10-20T08:53:57Z</time>
      </trkpt>
      <trkpt lat="38.0982120" lon="-6.2871280">
        <ele>692.4</ele>
        <time>2021-10-20T08:54:00Z</time>
      </trkpt>
      <trkpt lat="38.0981890" lon="-6.2870750">
        <ele>692.8</ele>
        <time>2021-10-20T08:54:03Z</time>
      </trkpt>
      <trkpt lat="38.0981740" lon="-6.2870220">
        <ele>693.2</ele>
        <time>2021-10-20T08:54:06Z</time>
      </trkpt>
      <trkpt lat="38.0981540" lon="-6.2869190">
        <ele>693.6</ele>
        <time>2021-10-20T08:54:11Z</time>
      </trkpt>
      <trkpt lat="38.0981470" lon="-6.2868580">
        <ele>693.6</ele>
        <time>2021-10-20T08:54:13Z</time>
      </trkpt>
      <trkpt lat="38.0981460" lon="-6.2868300">
        <ele>693.8</ele>
        <time>2021-10-20T08:54:14Z</time>
      </trkpt>
      <trkpt lat="38.0981490" lon="-6.2867940">
        <ele>694.0</ele>
        <time>2021-10-20T08:54:15Z</time>
      </trkpt>
      <trkpt lat="38.0981420" lon="-6.2865850">
        <ele>694.2</ele>
        <time>2021-10-20T08:54:21Z</time>
      </trkpt>
      <trkpt lat="38.0981200" lon="-6.2864300">
        <ele>694.2</ele>
        <time>2021-10-20T08:54:25Z</time>
      </trkpt>
      <trkpt lat="38.0981010" lon="-6.2862720">
        <ele>694.2</ele>
        <time>2021-10-20T08:54:29Z</time>
      </trkpt>
      <trkpt lat="38.0980650" lon="-6.2861350">
        <ele>694.2</ele>
        <time>2021-10-20T08:54:33Z</time>
      </trkpt>
      <trkpt lat="38.0980240" lon="-6.2860310">
        <ele>694.4</ele>
        <time>2021-10-20T08:54:36Z</time>
      </trkpt>
      <trkpt lat="38.0978940" lon="-6.2857160">
        <ele>694.4</ele>
        <time>2021-10-20T08:54:43Z</time>
      </trkpt>
      <trkpt lat="38.0977640" lon="-6.2852960">
        <ele>694.2</ele>
        <time>2021-10-20T08:54:52Z</time>
      </trkpt>
      <trkpt lat="38.0977550" lon="-6.2852580">
        <ele>694.2</ele>
        <time>2021-10-20T08:54:53Z</time>
      </trkpt>
      <trkpt lat="38.0977260" lon="-6.2851610">
        <ele>694.2</ele>
        <time>2021-10-20T08:54:55Z</time>
      </trkpt>
      <trkpt lat="38.0976700" lon="-6.2850190">
        <ele>694.2</ele>
        <time>2021-10-20T08:54:58Z</time>
      </trkpt>
      <trkpt lat="38.0976320" lon="-6.2849260">
        <ele>694.4</ele>
        <time>2021-10-20T08:55:00Z</time>
      </trkpt>
      <trkpt lat="38.0974990" lon="-6.2845620">
        <ele>694.4</ele>
        <time>2021-10-20T08:55:08Z</time>
      </trkpt>
      <trkpt lat="38.0974400" lon="-6.2843790">
        <ele>694.4</ele>
        <time>2021-10-20T08:55:12Z</time>
      </trkpt>
      <trkpt lat="38.0973870" lon="-6.2842410">
        <ele>694.4</ele>
        <time>2021-10-20T08:55:15Z</time>
      </trkpt>
      <trkpt lat="38.0973040" lon="-6.2840800">
        <ele>694.2</ele>
        <time>2021-10-20T08:55:19Z</time>
      </trkpt>
      <trkpt lat="38.0972040" lon="-6.2838730">
        <ele>694.2</ele>
        <time>2021-10-20T08:55:24Z</time>
      </trkpt>
      <trkpt lat="38.0970360" lon="-6.2835330">
        <ele>694.0</ele>
        <time>2021-10-20T08:55:32Z</time>
      </trkpt>
      <trkpt lat="38.0969110" lon="-6.2832400">
        <ele>694.0</ele>
        <time>2021-10-20T08:55:39Z</time>
      </trkpt>
      <trkpt lat="38.0968250" lon="-6.2831360">
        <ele>694.0</ele>
        <time>2021-10-20T08:55:42Z</time>
      </trkpt>
      <trkpt lat="38.0967420" lon="-6.2830570">
        <ele>694.4</ele>
        <time>2021-10-20T08:55:45Z</time>
      </trkpt>
      <trkpt lat="38.0967130" lon="-6.2830310">
        <ele>694.4</ele>
        <time>2021-10-20T08:55:46Z</time>
      </trkpt>
      <trkpt lat="38.0964820" lon="-6.2827570">
        <ele>694.6</ele>
        <time>2021-10-20T08:55:54Z</time>
      </trkpt>
      <trkpt lat="38.0963890" lon="-6.2826400">
        <ele>694.8</ele>
        <time>2021-10-20T08:55:58Z</time>
      </trkpt>
      <trkpt lat="38.0963090" lon="-6.2825270">
        <ele>695.0</ele>
        <time>2021-10-20T08:56:01Z</time>
      </trkpt>
      <trkpt lat="38.0961930" lon="-6.2822530">
        <ele>695.0</ele>
        <time>2021-10-20T08:56:08Z</time>
      </trkpt>
      <trkpt lat="38.0961600" lon="-6.2818840">
        <ele>695.8</ele>
        <time>2021-10-20T08:56:17Z</time>
      </trkpt>
      <trkpt lat="38.0961540" lon="-6.2818480">
        <ele>696.0</ele>
        <time>2021-10-20T08:56:18Z</time>
      </trkpt>
      <trkpt lat="38.0961210" lon="-6.2816750">
        <ele>696.8</ele>
        <time>2021-10-20T08:56:23Z</time>
      </trkpt>
      <trkpt lat="38.0961090" lon="-6.2816030">
        <ele>696.8</ele>
        <time>2021-10-20T08:56:25Z</time>
      </trkpt>
      <trkpt lat="38.0960710" lon="-6.2814060">
        <ele>697.0</ele>
        <time>2021-10-20T08:56:31Z</time>
      </trkpt>
      <trkpt lat="38.0960690" lon="-6.2813780">
        <ele>697.2</ele>
        <time>2021-10-20T08:56:32Z</time>
      </trkpt>
      <trkpt lat="38.0960620" lon="-6.2813520">
        <ele>697.2</ele>
        <time>2021-10-20T08:56:33Z</time>
      </trkpt>
      <trkpt lat="38.0960190" lon="-6.2812790">
        <ele>697.4</ele>
        <time>2021-10-20T08:56:36Z</time>
      </trkpt>
      <trkpt lat="38.0959420" lon="-6.2811530">
        <ele>697.8</ele>
        <time>2021-10-20T08:56:41Z</time>
      </trkpt>
      <trkpt lat="38.0958980" lon="-6.2810620">
        <ele>697.8</ele>
        <time>2021-10-20T08:56:44Z</time>
      </trkpt>
      <trkpt lat="38.0958910" lon="-6.2808580">
        <ele>698.2</ele>
        <time>2021-10-20T08:56:50Z</time>
      </trkpt>
      <trkpt lat="38.0959000" lon="-6.2807210">
        <ele>698.4</ele>
        <time>2021-10-20T08:56:54Z</time>
      </trkpt>
      <trkpt lat="38.0958880" lon="-6.2806250">
        <ele>698.6</ele>
        <time>2021-10-20T08:56:57Z</time>
      </trkpt>
      <trkpt lat="38.0958750" lon="-6.2805920">
        <ele>698.8</ele>
        <time>2021-10-20T08:56:58Z</time>
      </trkpt>
      <trkpt lat="38.0958120" lon="-6.2804710">
        <ele>699.2</ele>
        <time>2021-10-20T08:57:02Z</time>
      </trkpt>
      <trkpt lat="38.0957630" lon="-6.2803730">
        <ele>699.4</ele>
        <time>2021-10-20T08:57:05Z</time>
      </trkpt>
      <trkpt lat="38.0956480" lon="-6.2801410">
        <ele>699.8</ele>
        <time>2021-10-20T08:57:12Z</time>
      </trkpt>
      <trkpt lat="38.0955990" lon="-6.2800410">
        <ele>700.2</ele>
        <time>2021-10-20T08:57:15Z</time>
      </trkpt>
      <trkpt lat="38.0955510" lon="-6.2799040">
        <ele>700.4</ele>
        <time>2021-10-20T08:57:19Z</time>
      </trkpt>
      <trkpt lat="38.0955320" lon="-6.2798050">
        <ele>700.8</ele>
        <time>2021-10-20T08:57:22Z</time>
      </trkpt>
      <trkpt lat="38.0955410" lon="-6.2797380">
        <ele>701.0</ele>
        <time>2021-10-20T08:57:24Z</time>
      </trkpt>
      <trkpt lat="38.0955790" lon="-6.2796490">
        <ele>701.4</ele>
        <time>2021-10-20T08:57:27Z</time>
      </trkpt>
      <trkpt lat="38.0956420" lon="-6.2795510">
        <ele>702.0</ele>
        <time>2021-10-20T08:57:31Z</time>
      </trkpt>
      <trkpt lat="38.0956570" lon="-6.2795290">
        <ele>702.0</ele>
        <time>2021-10-20T08:57:32Z</time>
      </trkpt>
      <trkpt lat="38.0956970" lon="-6.2794580">
        <ele>702.4</ele>
        <time>2021-10-20T08:57:35Z</time>
      </trkpt>
      <trkpt lat="38.0957520" lon="-6.2793340">
        <ele>703.2</ele>
        <time>2021-10-20T08:57:40Z</time>
      </trkpt>
      <trkpt lat="38.0957880" lon="-6.2792040">
        <ele>704.0</ele>
        <time>2021-10-20T08:57:45Z</time>
      </trkpt>
      <trkpt lat="38.0958120" lon="-6.2791300">
        <ele>704.2</ele>
        <time>2021-10-20T08:57:48Z</time>
      </trkpt>
      <trkpt lat="38.0958470" lon="-6.2789970">
        <ele>704.8</ele>
        <time>2021-10-20T08:57:53Z</time>
      </trkpt>
      <trkpt lat="38.0958580" lon="-6.2789430">
        <ele>705.0</ele>
        <time>2021-10-20T08:57:55Z</time>
      </trkpt>
      <trkpt lat="38.0958740" lon="-6.2788610">
        <ele>705.2</ele>
        <time>2021-10-20T08:57:58Z</time>
      </trkpt>
      <trkpt lat="38.0958940" lon="-6.2787770">
        <ele>705.4</ele>
        <time>2021-10-20T08:58:01Z</time>
      </trkpt>
      <trkpt lat="38.0959060" lon="-6.2787290">
        <ele>705.6</ele>
        <time>2021-10-20T08:58:03Z</time>
      </trkpt>
      <trkpt lat="38.0959470" lon="-6.2785830">
        <ele>706.2</ele>
        <time>2021-10-20T08:58:09Z</time>
      </trkpt>
      <trkpt lat="38.0959740" lon="-6.2784870">
        <ele>707.2</ele>
        <time>2021-10-20T08:58:13Z</time>
      </trkpt>
      <trkpt lat="38.0959800" lon="-6.2784660">
        <ele>707.4</ele>
        <time>2021-10-20T08:58:14Z</time>
      </trkpt>
      <trkpt lat="38.0960360" lon="-6.2783050">
        <ele>708.0</ele>
        <time>2021-10-20T08:58:21Z</time>
      </trkpt>
      <trkpt lat="38.0960480" lon="-6.2782620">
        <ele>708.6</ele>
        <time>2021-10-20T08:58:23Z</time>
      </trkpt>
      <trkpt lat="38.0960860" lon="-6.2781380">
        <ele>709.0</ele>
        <time>2021-10-20T08:58:29Z</time>
      </trkpt>
      <trkpt lat="38.0961040" lon="-6.2780770">
        <ele>709.6</ele>
        <time>2021-10-20T08:58:32Z</time>
      </trkpt>
      <trkpt lat="38.0961450" lon="-6.2779570">
        <ele>710.6</ele>
        <time>2021-10-20T08:58:38Z</time>
      </trkpt>
      <trkpt lat="38.0961530" lon="-6.2779360">
        <ele>710.8</ele>
        <time>2021-10-20T08:58:39Z</time>
      </trkpt>
      <trkpt lat="38.0961750" lon="-6.2778660">
        <ele>711.8</ele>
        <time>2021-10-20T08:58:43Z</time>
      </trkpt>
      <trkpt lat="38.0961930" lon="-6.2777720">
        <ele>712.6</ele>
        <time>2021-10-20T08:58:48Z</time>
      </trkpt>
      <trkpt lat="38.0961950" lon="-6.2777540">
        <ele>712.8</ele>
        <time>2021-10-20T08:58:49Z</time>
      </trkpt>
      <trkpt lat="38.0961930" lon="-6.2777430">
        <ele>713.0</ele>
        <time>2021-10-20T08:58:50Z</time>
      </trkpt>
      <trkpt lat="38.0961760" lon="-6.2777120">
        <ele>713.2</ele>
        <time>2021-10-20T08:58:52Z</time>
      </trkpt>
      <trkpt lat="38.0961680" lon="-6.2777110">
        <ele>713.4</ele>
        <time>2021-10-20T08:58:53Z</time>
      </trkpt>
      <trkpt lat="38.0961290" lon="-6.2777140">
        <ele>713.8</ele>
        <time>2021-10-20T08:58:56Z</time>
      </trkpt>
      <trkpt lat="38.0961040" lon="-6.2777170">
        <ele>713.8</ele>
        <time>2021-10-20T08:58:58Z</time>
      </trkpt>
      <trkpt lat="38.0960910" lon="-6.2777140">
        <ele>714.0</ele>
        <time>2021-10-20T08:58:59Z</time>
      </trkpt>
      <trkpt lat="38.0960820" lon="-6.2777110">
        <ele>714.0</ele>
        <time>2021-10-20T08:59:00Z</time>
      </trkpt>
      <trkpt lat="38.0960580" lon="-6.2776950">
        <ele>713.8</ele>
        <time>2021-10-20T08:59:02Z</time>
      </trkpt>
      <trkpt lat="38.0960460" lon="-6.2776870">
        <ele>714.0</ele>
        <time>2021-10-20T08:59:03Z</time>
      </trkpt>
      <trkpt lat="38.0960120" lon="-6.2776630">
        <ele>714.0</ele>
        <time>2021-10-20T08:59:06Z</time>
      </trkpt>
      <trkpt lat="38.0959920" lon="-6.2776470">
        <ele>714.2</ele>
        <time>2021-10-20T08:59:08Z</time>
      </trkpt>
      <trkpt lat="38.0959800" lon="-6.2776350">
        <ele>714.2</ele>
        <time>2021-10-20T08:59:09Z</time>
      </trkpt>
      <trkpt lat="38.0959060" lon="-6.2775840">
        <ele>714.4</ele>
        <time>2021-10-20T08:59:14Z</time>
      </trkpt>
      <trkpt lat="38.0958910" lon="-6.2775760">
        <ele>714.6</ele>
        <time>2021-10-20T08:59:15Z</time>
      </trkpt>
      <trkpt lat="38.0958040" lon="-6.2775480">
        <ele>714.8</ele>
        <time>2021-10-20T08:59:20Z</time>
      </trkpt>
      <trkpt lat="38.0957700" lon="-6.2775280">
        <ele>714.8</ele>
        <time>2021-10-20T08:59:22Z</time>
      </trkpt>
      <trkpt lat="38.0956940" lon="-6.2774760">
        <ele>715.0</ele>
        <time>2021-10-20T08:59:29Z</time>
      </trkpt>
      <trkpt lat="38.0956940" lon="-6.2774760">
        <ele>715.0</ele>
        <time>2021-10-20T08:59:30Z</time>
      </trkpt>
      <trkpt lat="38.0956600" lon="-6.2774700">
        <ele>715.2</ele>
        <time>2021-10-20T09:00:36Z</time>
      </trkpt>
      <trkpt lat="38.0956440" lon="-6.2774650">
        <ele>715.2</ele>
        <time>2021-10-20T09:00:37Z</time>
      </trkpt>
      <trkpt lat="38.0956100" lon="-6.2774520">
        <ele>715.2</ele>
        <time>2021-10-20T09:00:39Z</time>
      </trkpt>
      <trkpt lat="38.0954720" lon="-6.2773990">
        <ele>715.2</ele>
        <time>2021-10-20T09:00:46Z</time>
      </trkpt>
      <trkpt lat="38.0953410" lon="-6.2773420">
        <ele>715.4</ele>
        <time>2021-10-20T09:00:53Z</time>
      </trkpt>
      <trkpt lat="38.0952810" lon="-6.2773030">
        <ele>715.6</ele>
        <time>2021-10-20T09:00:56Z</time>
      </trkpt>
      <trkpt lat="38.0952610" lon="-6.2772910">
        <ele>715.6</ele>
        <time>2021-10-20T09:00:57Z</time>
      </trkpt>
      <trkpt lat="38.0951630" lon="-6.2772230">
        <ele>715.8</ele>
        <time>2021-10-20T09:01:02Z</time>
      </trkpt>
      <trkpt lat="38.0950970" lon="-6.2771890">
        <ele>716.0</ele>
        <time>2021-10-20T09:01:05Z</time>
      </trkpt>
      <trkpt lat="38.0949990" lon="-6.2771400">
        <ele>716.6</ele>
        <time>2021-10-20T09:01:10Z</time>
      </trkpt>
      <trkpt lat="38.0949400" lon="-6.2770990">
        <ele>716.6</ele>
        <time>2021-10-20T09:01:13Z</time>
      </trkpt>
      <trkpt lat="38.0948220" lon="-6.2770300">
        <ele>717.0</ele>
        <time>2021-10-20T09:01:19Z</time>
      </trkpt>
      <trkpt lat="38.0947490" lon="-6.2769800">
        <ele>717.2</ele>
        <time>2021-10-20T09:01:23Z</time>
      </trkpt>
      <trkpt lat="38.0946800" lon="-6.2769280">
        <ele>717.8</ele>
        <time>2021-10-20T09:01:27Z</time>
      </trkpt>
      <trkpt lat="38.0945240" lon="-6.2768060">
        <ele>718.2</ele>
        <time>2021-10-20T09:01:35Z</time>
      </trkpt>
      <trkpt lat="38.0944670" lon="-6.2767780">
        <ele>718.8</ele>
        <time>2021-10-20T09:01:38Z</time>
      </trkpt>
      <trkpt lat="38.0943770" lon="-6.2767040">
        <ele>719.2</ele>
        <time>2021-10-20T09:01:43Z</time>
      </trkpt>
      <trkpt lat="38.0943270" lon="-6.2766500">
        <ele>719.4</ele>
        <time>2021-10-20T09:01:46Z</time>
      </trkpt>
      <trkpt lat="38.0942460" lon="-6.2765560">
        <ele>719.8</ele>
        <time>2021-10-20T09:01:51Z</time>
      </trkpt>
      <trkpt lat="38.0940780" lon="-6.2763940">
        <ele>720.0</ele>
        <time>2021-10-20T09:02:00Z</time>
      </trkpt>
      <trkpt lat="38.0938810" lon="-6.2762020">
        <ele>720.4</ele>
        <time>2021-10-20T09:02:10Z</time>
      </trkpt>
      <trkpt lat="38.0938290" lon="-6.2761390">
        <ele>720.6</ele>
        <time>2021-10-20T09:02:13Z</time>
      </trkpt>
      <trkpt lat="38.0936800" lon="-6.2759410">
        <ele>721.0</ele>
        <time>2021-10-20T09:02:21Z</time>
      </trkpt>
      <trkpt lat="38.0935280" lon="-6.2757860">
        <ele>721.2</ele>
        <time>2021-10-20T09:02:28Z</time>
      </trkpt>
      <trkpt lat="38.0934180" lon="-6.2756770">
        <ele>721.4</ele>
        <time>2021-10-20T09:02:33Z</time>
      </trkpt>
      <trkpt lat="38.0933800" lon="-6.2756410">
        <ele>721.4</ele>
        <time>2021-10-20T09:02:35Z</time>
      </trkpt>
      <trkpt lat="38.0932920" lon="-6.2755590">
        <ele>721.6</ele>
        <time>2021-10-20T09:02:39Z</time>
      </trkpt>
      <trkpt lat="38.0932690" lon="-6.2755410">
        <ele>721.6</ele>
        <time>2021-10-20T09:02:40Z</time>
      </trkpt>
      <trkpt lat="38.0932030" lon="-6.2754950">
        <ele>721.8</ele>
        <time>2021-10-20T09:02:43Z</time>
      </trkpt>
      <trkpt lat="38.0930850" lon="-6.2754180">
        <ele>722.0</ele>
        <time>2021-10-20T09:02:50Z</time>
      </trkpt>
      <trkpt lat="38.0930850" lon="-6.2754180">
        <ele>722.0</ele>
        <time>2021-10-20T09:02:52Z</time>
      </trkpt>
      <trkpt lat="38.0931510" lon="-6.2754060">
        <ele>722.0</ele>
        <time>2021-10-20T09:05:03Z</time>
      </trkpt>
      <trkpt lat="38.0931660" lon="-6.2753810">
        <ele>722.0</ele>
        <time>2021-10-20T09:05:04Z</time>
      </trkpt>
      <trkpt lat="38.0932670" lon="-6.2753180">
        <ele>722.0</ele>
        <time>2021-10-20T09:05:08Z</time>
      </trkpt>
      <trkpt lat="38.0933000" lon="-6.2752570">
        <ele>722.0</ele>
        <time>2021-10-20T09:05:10Z</time>
      </trkpt>
      <trkpt lat="38.0933240" lon="-6.2751850">
        <ele>722.0</ele>
        <time>2021-10-20T09:05:13Z</time>
      </trkpt>
      <trkpt lat="38.0933450" lon="-6.2751450">
        <ele>722.0</ele>
        <time>2021-10-20T09:05:15Z</time>
      </trkpt>
      <trkpt lat="38.0933810" lon="-6.2751500">
        <ele>722.0</ele>
        <time>2021-10-20T09:05:17Z</time>
      </trkpt>
      <trkpt lat="38.0933910" lon="-6.2751680">
        <ele>722.0</ele>
        <time>2021-10-20T09:05:18Z</time>
      </trkpt>
      <trkpt lat="38.0933850" lon="-6.2752290">
        <ele>722.0</ele>
        <time>2021-10-20T09:05:20Z</time>
      </trkpt>
      <trkpt lat="38.0933420" lon="-6.2753990">
        <ele>721.8</ele>
        <time>2021-10-20T09:05:27Z</time>
      </trkpt>
      <trkpt lat="38.0934110" lon="-6.2755210">
        <ele>721.6</ele>
        <time>2021-10-20T09:05:32Z</time>
      </trkpt>
      <trkpt lat="38.0935190" lon="-6.2756290">
        <ele>721.4</ele>
        <time>2021-10-20T09:05:38Z</time>
      </trkpt>
      <trkpt lat="38.0935630" lon="-6.2756680">
        <ele>721.4</ele>
        <time>2021-10-20T09:05:40Z</time>
      </trkpt>
      <trkpt lat="38.0936420" lon="-6.2757560">
        <ele>721.2</ele>
        <time>2021-10-20T09:05:45Z</time>
      </trkpt>
      <trkpt lat="38.0936420" lon="-6.2757580">
        <ele>721.2</ele>
        <time>2021-10-20T09:05:46Z</time>
      </trkpt>
      <trkpt lat="38.0936320" lon="-6.2757790">
        <ele>721.2</ele>
        <time>2021-10-20T09:05:48Z</time>
      </trkpt>
      <trkpt lat="38.0935890" lon="-6.2758000">
        <ele>721.2</ele>
        <time>2021-10-20T09:05:50Z</time>
      </trkpt>
      <trkpt lat="38.0935590" lon="-6.2757900">
        <ele>721.2</ele>
        <time>2021-10-20T09:05:51Z</time>
      </trkpt>
      <trkpt lat="38.0934720" lon="-6.2757220">
        <ele>721.0</ele>
        <time>2021-10-20T09:05:54Z</time>
      </trkpt>
      <trkpt lat="38.0931660" lon="-6.2754410">
        <ele>721.4</ele>
        <time>2021-10-20T09:06:05Z</time>
      </trkpt>
      <trkpt lat="38.0931310" lon="-6.2754110">
        <ele>721.6</ele>
        <time>2021-10-20T09:06:06Z</time>
      </trkpt>
      <trkpt lat="38.0929690" lon="-6.2752480">
        <ele>722.0</ele>
        <time>2021-10-20T09:06:12Z</time>
      </trkpt>
      <trkpt lat="38.0929500" lon="-6.2752240">
        <ele>722.0</ele>
        <time>2021-10-20T09:06:13Z</time>
      </trkpt>
      <trkpt lat="38.0928930" lon="-6.2751700">
        <ele>722.2</ele>
        <time>2021-10-20T09:06:15Z</time>
      </trkpt>
      <trkpt lat="38.0926850" lon="-6.2749990">
        <ele>722.6</ele>
        <time>2021-10-20T09:06:23Z</time>
      </trkpt>
      <trkpt lat="38.0926340" lon="-6.2749570">
        <ele>722.8</ele>
        <time>2021-10-20T09:06:25Z</time>
      </trkpt>
      <trkpt lat="38.0925650" lon="-6.2748880">
        <ele>723.2</ele>
        <time>2021-10-20T09:06:28Z</time>
      </trkpt>
      <trkpt lat="38.0925170" lon="-6.2748420">
        <ele>723.4</ele>
        <time>2021-10-20T09:06:30Z</time>
      </trkpt>
      <trkpt lat="38.0924460" lon="-6.2747820">
        <ele>723.4</ele>
        <time>2021-10-20T09:06:33Z</time>
      </trkpt>
      <trkpt lat="38.0923790" lon="-6.2747100">
        <ele>723.6</ele>
        <time>2021-10-20T09:06:36Z</time>
      </trkpt>
      <trkpt lat="38.0922150" lon="-6.2745510">
        <ele>724.0</ele>
        <time>2021-10-20T09:06:43Z</time>
      </trkpt>
      <trkpt lat="38.0921900" lon="-6.2745320">
        <ele>724.0</ele>
        <time>2021-10-20T09:06:44Z</time>
      </trkpt>
      <trkpt lat="38.0920900" lon="-6.2744430">
        <ele>724.2</ele>
        <time>2021-10-20T09:06:48Z</time>
      </trkpt>
      <trkpt lat="38.0920230" lon="-6.2743820">
        <ele>724.6</ele>
        <time>2021-10-20T09:06:51Z</time>
      </trkpt>
      <trkpt lat="38.0919500" lon="-6.2743110">
        <ele>724.8</ele>
        <time>2021-10-20T09:06:54Z</time>
      </trkpt>
      <trkpt lat="38.0918320" lon="-6.2742120">
        <ele>725.0</ele>
        <time>2021-10-20T09:06:59Z</time>
      </trkpt>
      <trkpt lat="38.0917590" lon="-6.2741480">
        <ele>725.2</ele>
        <time>2021-10-20T09:07:02Z</time>
      </trkpt>
      <trkpt lat="38.0914570" lon="-6.2738650">
        <ele>726.0</ele>
        <time>2021-10-20T09:07:15Z</time>
      </trkpt>
      <trkpt lat="38.0914050" lon="-6.2738170">
        <ele>726.0</ele>
        <time>2021-10-20T09:07:17Z</time>
      </trkpt>
      <trkpt lat="38.0912280" lon="-6.2736460">
        <ele>726.4</ele>
        <time>2021-10-20T09:07:25Z</time>
      </trkpt>
      <trkpt lat="38.0911290" lon="-6.2735440">
        <ele>726.6</ele>
        <time>2021-10-20T09:07:30Z</time>
      </trkpt>
      <trkpt lat="38.0910750" lon="-6.2735010">
        <ele>726.8</ele>
        <time>2021-10-20T09:07:33Z</time>
      </trkpt>
      <trkpt lat="38.0910130" lon="-6.2734740">
        <ele>727.0</ele>
        <time>2021-10-20T09:07:36Z</time>
      </trkpt>
      <trkpt lat="38.0910000" lon="-6.2734590">
        <ele>727.0</ele>
        <time>2021-10-20T09:07:37Z</time>
      </trkpt>
      <trkpt lat="38.0909820" lon="-6.2734410">
        <ele>727.2</ele>
        <time>2021-10-20T09:07:38Z</time>
      </trkpt>
      <trkpt lat="38.0908840" lon="-6.2733810">
        <ele>727.4</ele>
        <time>2021-10-20T09:07:43Z</time>
      </trkpt>
      <trkpt lat="38.0907790" lon="-6.2733590">
        <ele>727.6</ele>
        <time>2021-10-20T09:07:48Z</time>
      </trkpt>
      <trkpt lat="38.0907100" lon="-6.2733500">
        <ele>727.6</ele>
        <time>2021-10-20T09:07:51Z</time>
      </trkpt>
      <trkpt lat="38.0906250" lon="-6.2733490">
        <ele>727.8</ele>
        <time>2021-10-20T09:07:55Z</time>
      </trkpt>
      <trkpt lat="38.0905600" lon="-6.2733500">
        <ele>728.2</ele>
        <time>2021-10-20T09:07:58Z</time>
      </trkpt>
      <trkpt lat="38.0905020" lon="-6.2733510">
        <ele>728.4</ele>
        <time>2021-10-20T09:08:01Z</time>
      </trkpt>
      <trkpt lat="38.0904320" lon="-6.2733440">
        <ele>728.8</ele>
        <time>2021-10-20T09:08:04Z</time>
      </trkpt>
      <trkpt lat="38.0904150" lon="-6.2733450">
        <ele>728.8</ele>
        <time>2021-10-20T09:08:05Z</time>
      </trkpt>
      <trkpt lat="38.0903630" lon="-6.2733440">
        <ele>729.0</ele>
        <time>2021-10-20T09:08:09Z</time>
      </trkpt>
      <trkpt lat="38.0903260" lon="-6.2733410">
        <ele>729.2</ele>
        <time>2021-10-20T09:08:12Z</time>
      </trkpt>
      <trkpt lat="38.0902170" lon="-6.2733280">
        <ele>729.6</ele>
        <time>2021-10-20T09:08:19Z</time>
      </trkpt>
      <trkpt lat="38.0901620" lon="-6.2733160">
        <ele>729.8</ele>
        <time>2021-10-20T09:08:22Z</time>
      </trkpt>
      <trkpt lat="38.0900300" lon="-6.2733040">
        <ele>730.0</ele>
        <time>2021-10-20T09:08:30Z</time>
      </trkpt>
      <trkpt lat="38.0900030" lon="-6.2733010">
        <ele>730.2</ele>
        <time>2021-10-20T09:08:32Z</time>
      </trkpt>
      <trkpt lat="38.0899720" lon="-6.2733040">
        <ele>730.4</ele>
        <time>2021-10-20T09:08:35Z</time>
      </trkpt>
      <trkpt lat="38.0899660" lon="-6.2733050">
        <ele>730.4</ele>
        <time>2021-10-20T09:08:38Z</time>
      </trkpt>
      <trkpt lat="38.0898850" lon="-6.2732340">
        <ele>730.4</ele>
        <time>2021-10-20T09:08:51Z</time>
      </trkpt>
      <trkpt lat="38.0897500" lon="-6.2731900">
        <ele>730.4</ele>
        <time>2021-10-20T09:08:56Z</time>
      </trkpt>
      <trkpt lat="38.0896250" lon="-6.2731620">
        <ele>731.0</ele>
        <time>2021-10-20T09:09:01Z</time>
      </trkpt>
      <trkpt lat="38.0895660" lon="-6.2731480">
        <ele>731.2</ele>
        <time>2021-10-20T09:09:03Z</time>
      </trkpt>
      <trkpt lat="38.0892880" lon="-6.2730570">
        <ele>731.8</ele>
        <time>2021-10-20T09:09:14Z</time>
      </trkpt>
      <trkpt lat="38.0892040" lon="-6.2730220">
        <ele>732.0</ele>
        <time>2021-10-20T09:09:17Z</time>
      </trkpt>
      <trkpt lat="38.0891030" lon="-6.2729560">
        <ele>732.2</ele>
        <time>2021-10-20T09:09:21Z</time>
      </trkpt>
      <trkpt lat="38.0889490" lon="-6.2728610">
        <ele>732.6</ele>
        <time>2021-10-20T09:09:27Z</time>
      </trkpt>
      <trkpt lat="38.0888780" lon="-6.2728140">
        <ele>732.8</ele>
        <time>2021-10-20T09:09:30Z</time>
      </trkpt>
      <trkpt lat="38.0887750" lon="-6.2727630">
        <ele>733.2</ele>
        <time>2021-10-20T09:09:34Z</time>
      </trkpt>
      <trkpt lat="38.0886820" lon="-6.2727220">
        <ele>733.4</ele>
        <time>2021-10-20T09:09:38Z</time>
      </trkpt>
      <trkpt lat="38.0886260" lon="-6.2726980">
        <ele>733.6</ele>
        <time>2021-10-20T09:09:40Z</time>
      </trkpt>
      <trkpt lat="38.0885470" lon="-6.2726770">
        <ele>733.6</ele>
        <time>2021-10-20T09:09:43Z</time>
      </trkpt>
      <trkpt lat="38.0884480" lon="-6.2726540">
        <ele>734.2</ele>
        <time>2021-10-20T09:09:47Z</time>
      </trkpt>
      <trkpt lat="38.0884170" lon="-6.2726480">
        <ele>734.2</ele>
        <time>2021-10-20T09:09:48Z</time>
      </trkpt>
      <trkpt lat="38.0883700" lon="-6.2726370">
        <ele>734.2</ele>
        <time>2021-10-20T09:09:50Z</time>
      </trkpt>
      <trkpt lat="38.0881970" lon="-6.2725990">
        <ele>735.0</ele>
        <time>2021-10-20T09:09:58Z</time>
      </trkpt>
      <trkpt lat="38.0881570" lon="-6.2725980">
        <ele>735.4</ele>
        <time>2021-10-20T09:10:00Z</time>
      </trkpt>
      <trkpt lat="38.0880440" lon="-6.2725790">
        <ele>736.0</ele>
        <time>2021-10-20T09:10:06Z</time>
      </trkpt>
      <trkpt lat="38.0880250" lon="-6.2725750">
        <ele>736.2</ele>
        <time>2021-10-20T09:10:07Z</time>
      </trkpt>
      <trkpt lat="38.0878940" lon="-6.2725270">
        <ele>737.0</ele>
        <time>2021-10-20T09:10:14Z</time>
      </trkpt>
      <trkpt lat="38.0878180" lon="-6.2724930">
        <ele>737.2</ele>
        <time>2021-10-20T09:10:18Z</time>
      </trkpt>
      <trkpt lat="38.0877980" lon="-6.2724800">
        <ele>737.0</ele>
        <time>2021-10-20T09:10:19Z</time>
      </trkpt>
      <trkpt lat="38.0877420" lon="-6.2724400">
        <ele>737.4</ele>
        <time>2021-10-20T09:10:22Z</time>
      </trkpt>
      <trkpt lat="38.0876980" lon="-6.2724160">
        <ele>737.6</ele>
        <time>2021-10-20T09:10:24Z</time>
      </trkpt>
      <trkpt lat="38.0875950" lon="-6.2723380">
        <ele>738.0</ele>
        <time>2021-10-20T09:10:29Z</time>
      </trkpt>
      <trkpt lat="38.0874780" lon="-6.2722590">
        <ele>738.8</ele>
        <time>2021-10-20T09:10:35Z</time>
      </trkpt>
      <trkpt lat="38.0874170" lon="-6.2722260">
        <ele>739.0</ele>
        <time>2021-10-20T09:10:38Z</time>
      </trkpt>
      <trkpt lat="38.0873950" lon="-6.2722140">
        <ele>739.0</ele>
        <time>2021-10-20T09:10:39Z</time>
      </trkpt>
      <trkpt lat="38.0873700" lon="-6.2721970">
        <ele>739.2</ele>
        <time>2021-10-20T09:10:40Z</time>
      </trkpt>
      <trkpt lat="38.0872300" lon="-6.2721130">
        <ele>740.0</ele>
        <time>2021-10-20T09:10:47Z</time>
      </trkpt>
      <trkpt lat="38.0872100" lon="-6.2721000">
        <ele>740.2</ele>
        <time>2021-10-20T09:10:48Z</time>
      </trkpt>
      <trkpt lat="38.0871340" lon="-6.2720580">
        <ele>740.6</ele>
        <time>2021-10-20T09:10:52Z</time>
      </trkpt>
      <trkpt lat="38.0871130" lon="-6.2720470">
        <ele>740.8</ele>
        <time>2021-10-20T09:10:54Z</time>
      </trkpt>
      <trkpt lat="38.0871130" lon="-6.2720470">
        <ele>740.8</ele>
        <time>2021-10-20T09:10:55Z</time>
      </trkpt>
      <trkpt lat="38.0871130" lon="-6.2720470">
        <ele>740.8</ele>
        <time>2021-10-20T09:10:56Z</time>
      </trkpt>
      <trkpt lat="38.0871340" lon="-6.2719710">
        <ele>741.6</ele>
        <time>2021-10-20T09:14:39Z</time>
      </trkpt>
      <trkpt lat="38.0871540" lon="-6.2719850">
        <ele>741.6</ele>
        <time>2021-10-20T09:14:40Z</time>
      </trkpt>
      <trkpt lat="38.0872790" lon="-6.2720760">
        <ele>741.4</ele>
        <time>2021-10-20T09:14:45Z</time>
      </trkpt>
      <trkpt lat="38.0874110" lon="-6.2721580">
        <ele>740.8</ele>
        <time>2021-10-20T09:14:51Z</time>
      </trkpt>
      <trkpt lat="38.0874590" lon="-6.2721920">
        <ele>740.4</ele>
        <time>2021-10-20T09:14:53Z</time>
      </trkpt>
      <trkpt lat="38.0876140" lon="-6.2723050">
        <ele>739.4</ele>
        <time>2021-10-20T09:15:00Z</time>
      </trkpt>
      <trkpt lat="38.0876540" lon="-6.2723360">
        <ele>739.2</ele>
        <time>2021-10-20T09:15:02Z</time>
      </trkpt>
      <trkpt lat="38.0877510" lon="-6.2723970">
        <ele>738.8</ele>
        <time>2021-10-20T09:15:06Z</time>
      </trkpt>
      <trkpt lat="38.0878360" lon="-6.2724540">
        <ele>738.2</ele>
        <time>2021-10-20T09:15:10Z</time>
      </trkpt>
      <trkpt lat="38.0879380" lon="-6.2724830">
        <ele>737.8</ele>
        <time>2021-10-20T09:15:14Z</time>
      </trkpt>
      <trkpt lat="38.0880440" lon="-6.2725210">
        <ele>737.0</ele>
        <time>2021-10-20T09:15:19Z</time>
      </trkpt>
      <trkpt lat="38.0881340" lon="-6.2725430">
        <ele>736.8</ele>
        <time>2021-10-20T09:15:22Z</time>
      </trkpt>
      <trkpt lat="38.0883010" lon="-6.2725380">
        <ele>736.0</ele>
        <time>2021-10-20T09:15:28Z</time>
      </trkpt>
      <trkpt lat="38.0883360" lon="-6.2725410">
        <ele>735.8</ele>
        <time>2021-10-20T09:15:30Z</time>
      </trkpt>
      <trkpt lat="38.0883760" lon="-6.2725290">
        <ele>735.6</ele>
        <time>2021-10-20T09:15:32Z</time>
      </trkpt>
      <trkpt lat="38.0883990" lon="-6.2724870">
        <ele>735.4</ele>
        <time>2021-10-20T09:15:34Z</time>
      </trkpt>
      <trkpt lat="38.0883960" lon="-6.2724360">
        <ele>735.0</ele>
        <time>2021-10-20T09:15:37Z</time>
      </trkpt>
      <trkpt lat="38.0883820" lon="-6.2724270">
        <ele>735.0</ele>
        <time>2021-10-20T09:15:38Z</time>
      </trkpt>
      <trkpt lat="38.0883680" lon="-6.2724200">
        <ele>735.0</ele>
        <time>2021-10-20T09:15:39Z</time>
      </trkpt>
      <trkpt lat="38.0883310" lon="-6.2724070">
        <ele>735.0</ele>
        <time>2021-10-20T09:15:42Z</time>
      </trkpt>
      <trkpt lat="38.0883200" lon="-6.2723990">
        <ele>735.0</ele>
        <time>2021-10-20T09:15:46Z</time>
      </trkpt>
      <trkpt lat="38.0889270" lon="-6.2727850">
        <ele>733.2</ele>
        <time>2021-10-20T09:29:34Z</time>
      </trkpt>
      <trkpt lat="38.0888840" lon="-6.2727650">
        <ele>733.2</ele>
        <time>2021-10-20T09:29:37Z</time>
      </trkpt>
      <trkpt lat="38.0888530" lon="-6.2727620">
        <ele>733.2</ele>
        <time>2021-10-20T09:29:39Z</time>
      </trkpt>
      <trkpt lat="38.0888360" lon="-6.2727580">
        <ele>733.2</ele>
        <time>2021-10-20T09:29:40Z</time>
      </trkpt>
      <trkpt lat="38.0887900" lon="-6.2727370">
        <ele>733.4</ele>
        <time>2021-10-20T09:29:43Z</time>
      </trkpt>
      <trkpt lat="38.0887450" lon="-6.2726910">
        <ele>733.2</ele>
        <time>2021-10-20T09:29:47Z</time>
      </trkpt>
      <trkpt lat="38.0887130" lon="-6.2726650">
        <ele>733.6</ele>
        <time>2021-10-20T09:29:50Z</time>
      </trkpt>
      <trkpt lat="38.0886970" lon="-6.2726490">
        <ele>733.4</ele>
        <time>2021-10-20T09:29:52Z</time>
      </trkpt>
      <trkpt lat="38.0886810" lon="-6.2726410">
        <ele>733.6</ele>
        <time>2021-10-20T09:29:54Z</time>
      </trkpt>
      <trkpt lat="38.0886190" lon="-6.2726330">
        <ele>733.8</ele>
        <time>2021-10-20T09:29:58Z</time>
      </trkpt>
      <trkpt lat="38.0885900" lon="-6.2726260">
        <ele>734.0</ele>
        <time>2021-10-20T09:30:00Z</time>
      </trkpt>
      <trkpt lat="38.0885030" lon="-6.2725830">
        <ele>734.4</ele>
        <time>2021-10-20T09:30:05Z</time>
      </trkpt>
      <trkpt lat="38.0883930" lon="-6.2724850">
        <ele>734.8</ele>
        <time>2021-10-20T09:30:12Z</time>
      </trkpt>
      <trkpt lat="38.0883450" lon="-6.2724710">
        <ele>735.0</ele>
        <time>2021-10-20T09:30:15Z</time>
      </trkpt>
      <trkpt lat="38.0882980" lon="-6.2724310">
        <ele>735.4</ele>
        <time>2021-10-20T09:30:19Z</time>
      </trkpt>
      <trkpt lat="38.0882570" lon="-6.2723940">
        <ele>735.6</ele>
        <time>2021-10-20T09:30:22Z</time>
      </trkpt>
      <trkpt lat="38.0882180" lon="-6.2723630">
        <ele>736.0</ele>
        <time>2021-10-20T09:30:25Z</time>
      </trkpt>
      <trkpt lat="38.0881910" lon="-6.2723350">
        <ele>736.2</ele>
        <time>2021-10-20T09:30:27Z</time>
      </trkpt>
      <trkpt lat="38.0881420" lon="-6.2722890">
        <ele>736.4</ele>
        <time>2021-10-20T09:30:30Z</time>
      </trkpt>
      <trkpt lat="38.0880750" lon="-6.2722320">
        <ele>736.6</ele>
        <time>2021-10-20T09:30:34Z</time>
      </trkpt>
      <trkpt lat="38.0880390" lon="-6.2721940">
        <ele>736.8</ele>
        <time>2021-10-20T09:30:36Z</time>
      </trkpt>
      <trkpt lat="38.0879950" lon="-6.2721460">
        <ele>737.2</ele>
        <time>2021-10-20T09:30:39Z</time>
      </trkpt>
      <trkpt lat="38.0879540" lon="-6.2720990">
        <ele>737.4</ele>
        <time>2021-10-20T09:30:42Z</time>
      </trkpt>
      <trkpt lat="38.0878560" lon="-6.2719930">
        <ele>738.2</ele>
        <time>2021-10-20T09:30:49Z</time>
      </trkpt>
      <trkpt lat="38.0878410" lon="-6.2719730">
        <ele>738.2</ele>
        <time>2021-10-20T09:30:50Z</time>
      </trkpt>
      <trkpt lat="38.0877400" lon="-6.2718530">
        <ele>738.8</ele>
        <time>2021-10-20T09:30:58Z</time>
      </trkpt>
      <trkpt lat="38.0876460" lon="-6.2717630">
        <ele>739.2</ele>
        <time>2021-10-20T09:31:06Z</time>
      </trkpt>
      <trkpt lat="38.0876350" lon="-6.2717440">
        <ele>739.2</ele>
        <time>2021-10-20T09:31:07Z</time>
      </trkpt>
      <trkpt lat="38.0875810" lon="-6.2717080">
        <ele>739.4</ele>
        <time>2021-10-20T09:31:11Z</time>
      </trkpt>
      <trkpt lat="38.0875410" lon="-6.2716670">
        <ele>739.6</ele>
        <time>2021-10-20T09:31:14Z</time>
      </trkpt>
      <trkpt lat="38.0875200" lon="-6.2716380">
        <ele>739.8</ele>
        <time>2021-10-20T09:31:16Z</time>
      </trkpt>
      <trkpt lat="38.0875060" lon="-6.2716280">
        <ele>739.6</ele>
        <time>2021-10-20T09:31:17Z</time>
      </trkpt>
      <trkpt lat="38.0874500" lon="-6.2715790">
        <ele>739.6</ele>
        <time>2021-10-20T09:31:21Z</time>
      </trkpt>
      <trkpt lat="38.0874000" lon="-6.2715200">
        <ele>740.0</ele>
        <time>2021-10-20T09:31:25Z</time>
      </trkpt>
      <trkpt lat="38.0873850" lon="-6.2715120">
        <ele>740.0</ele>
        <time>2021-10-20T09:31:26Z</time>
      </trkpt>
      <trkpt lat="38.0873410" lon="-6.2714730">
        <ele>740.2</ele>
        <time>2021-10-20T09:31:29Z</time>
      </trkpt>
      <trkpt lat="38.0872590" lon="-6.2713740">
        <ele>740.6</ele>
        <time>2021-10-20T09:31:35Z</time>
      </trkpt>
      <trkpt lat="38.0872360" lon="-6.2713410">
        <ele>740.8</ele>
        <time>2021-10-20T09:31:37Z</time>
      </trkpt>
      <trkpt lat="38.0872120" lon="-6.2713080">
        <ele>740.8</ele>
        <time>2021-10-20T09:31:39Z</time>
      </trkpt>
      <trkpt lat="38.0871460" lon="-6.2712170">
        <ele>740.8</ele>
        <time>2021-10-20T09:31:45Z</time>
      </trkpt>
      <trkpt lat="38.0871000" lon="-6.2711500">
        <ele>740.8</ele>
        <time>2021-10-20T09:31:49Z</time>
      </trkpt>
      <trkpt lat="38.0870590" lon="-6.2710810">
        <ele>740.8</ele>
        <time>2021-10-20T09:31:53Z</time>
      </trkpt>
      <trkpt lat="38.0870260" lon="-6.2710190">
        <ele>740.8</ele>
        <time>2021-10-20T09:31:57Z</time>
      </trkpt>
      <trkpt lat="38.0870160" lon="-6.2709980">
        <ele>740.6</ele>
        <time>2021-10-20T09:31:59Z</time>
      </trkpt>
      <trkpt lat="38.0870160" lon="-6.2709980">
        <ele>740.4</ele>
        <time>2021-10-20T09:32:01Z</time>
      </trkpt>
      <trkpt lat="38.0870310" lon="-6.2709720">
        <ele>740.2</ele>
        <time>2021-10-20T09:32:17Z</time>
      </trkpt>
      <trkpt lat="38.0870430" lon="-6.2709580">
        <ele>740.2</ele>
        <time>2021-10-20T09:32:18Z</time>
      </trkpt>
      <trkpt lat="38.0871470" lon="-6.2708800">
        <ele>740.2</ele>
        <time>2021-10-20T09:32:24Z</time>
      </trkpt>
      <trkpt lat="38.0872640" lon="-6.2707940">
        <ele>739.8</ele>
        <time>2021-10-20T09:32:30Z</time>
      </trkpt>
      <trkpt lat="38.0873860" lon="-6.2706960">
        <ele>739.6</ele>
        <time>2021-10-20T09:32:36Z</time>
      </trkpt>
      <trkpt lat="38.0875010" lon="-6.2706150">
        <ele>739.4</ele>
        <time>2021-10-20T09:32:42Z</time>
      </trkpt>
      <trkpt lat="38.0876280" lon="-6.2705210">
        <ele>739.2</ele>
        <time>2021-10-20T09:32:49Z</time>
      </trkpt>
      <trkpt lat="38.0877880" lon="-6.2703770">
        <ele>739.2</ele>
        <time>2021-10-20T09:32:58Z</time>
      </trkpt>
      <trkpt lat="38.0878890" lon="-6.2702380">
        <ele>739.2</ele>
        <time>2021-10-20T09:33:06Z</time>
      </trkpt>
      <trkpt lat="38.0879070" lon="-6.2701460">
        <ele>739.0</ele>
        <time>2021-10-20T09:33:11Z</time>
      </trkpt>
      <trkpt lat="38.0880000" lon="-6.2700150">
        <ele>739.2</ele>
        <time>2021-10-20T09:33:18Z</time>
      </trkpt>
      <trkpt lat="38.0880670" lon="-6.2698990">
        <ele>739.8</ele>
        <time>2021-10-20T09:33:27Z</time>
      </trkpt>
      <trkpt lat="38.0880670" lon="-6.2698990">
        <ele>739.8</ele>
        <time>2021-10-20T09:33:28Z</time>
      </trkpt>
      <trkpt lat="38.0880670" lon="-6.2698690">
        <ele>740.0</ele>
        <time>2021-10-20T09:33:53Z</time>
      </trkpt>
      <trkpt lat="38.0880770" lon="-6.2698210">
        <ele>740.0</ele>
        <time>2021-10-20T09:33:55Z</time>
      </trkpt>
      <trkpt lat="38.0880850" lon="-6.2697930">
        <ele>740.0</ele>
        <time>2021-10-20T09:33:56Z</time>
      </trkpt>
      <trkpt lat="38.0881160" lon="-6.2697020">
        <ele>740.0</ele>
        <time>2021-10-20T09:33:59Z</time>
      </trkpt>
      <trkpt lat="38.0881550" lon="-6.2695970">
        <ele>740.4</ele>
        <time>2021-10-20T09:34:03Z</time>
      </trkpt>
      <trkpt lat="38.0881730" lon="-6.2695540">
        <ele>740.6</ele>
        <time>2021-10-20T09:34:05Z</time>
      </trkpt>
      <trkpt lat="38.0882160" lon="-6.2694750">
        <ele>741.0</ele>
        <time>2021-10-20T09:34:09Z</time>
      </trkpt>
      <trkpt lat="38.0882570" lon="-6.2694390">
        <ele>741.2</ele>
        <time>2021-10-20T09:34:12Z</time>
      </trkpt>
      <trkpt lat="38.0883180" lon="-6.2693840">
        <ele>741.2</ele>
        <time>2021-10-20T09:34:16Z</time>
      </trkpt>
      <trkpt lat="38.0883350" lon="-6.2693760">
        <ele>741.4</ele>
        <time>2021-10-20T09:34:17Z</time>
      </trkpt>
      <trkpt lat="38.0884180" lon="-6.2693700">
        <ele>741.4</ele>
        <time>2021-10-20T09:34:21Z</time>
      </trkpt>
      <trkpt lat="38.0885090" lon="-6.2694190">
        <ele>742.0</ele>
        <time>2021-10-20T09:34:27Z</time>
      </trkpt>
      <trkpt lat="38.0885150" lon="-6.2694400">
        <ele>742.0</ele>
        <time>2021-10-20T09:34:28Z</time>
      </trkpt>
      <trkpt lat="38.0885350" lon="-6.2694990">
        <ele>742.2</ele>
        <time>2021-10-20T09:34:32Z</time>
      </trkpt>
      <trkpt lat="38.0885460" lon="-6.2695240">
        <ele>742.2</ele>
        <time>2021-10-20T09:34:34Z</time>
      </trkpt>
      <trkpt lat="38.0885540" lon="-6.2695830">
        <ele>742.4</ele>
        <time>2021-10-20T09:34:37Z</time>
      </trkpt>
      <trkpt lat="38.0885430" lon="-6.2696390">
        <ele>742.2</ele>
        <time>2021-10-20T09:34:39Z</time>
      </trkpt>
      <trkpt lat="38.0884810" lon="-6.2697830">
        <ele>742.0</ele>
        <time>2021-10-20T09:34:45Z</time>
      </trkpt>
      <trkpt lat="38.0883880" lon="-6.2698350">
        <ele>742.0</ele>
        <time>2021-10-20T09:34:49Z</time>
      </trkpt>
      <trkpt lat="38.0883700" lon="-6.2698320">
        <ele>742.0</ele>
        <time>2021-10-20T09:34:50Z</time>
      </trkpt>
      <trkpt lat="38.0883560" lon="-6.2698280">
        <ele>742.0</ele>
        <time>2021-10-20T09:34:51Z</time>
      </trkpt>
      <trkpt lat="38.0883280" lon="-6.2698290">
        <ele>741.8</ele>
        <time>2021-10-20T09:34:53Z</time>
      </trkpt>
      <trkpt lat="38.0883180" lon="-6.2698270">
        <ele>741.8</ele>
        <time>2021-10-20T09:34:54Z</time>
      </trkpt>
      <trkpt lat="38.0883150" lon="-6.2698260">
        <ele>741.8</ele>
        <time>2021-10-20T09:34:56Z</time>
      </trkpt>
      <trkpt lat="38.0884270" lon="-6.2698050">
        <ele>742.0</ele>
        <time>2021-10-20T09:37:59Z</time>
      </trkpt>
      <trkpt lat="38.0884380" lon="-6.2697800">
        <ele>742.0</ele>
        <time>2021-10-20T09:38:00Z</time>
      </trkpt>
      <trkpt lat="38.0884550" lon="-6.2697300">
        <ele>742.0</ele>
        <time>2021-10-20T09:38:02Z</time>
      </trkpt>
      <trkpt lat="38.0884700" lon="-6.2696850">
        <ele>742.0</ele>
        <time>2021-10-20T09:38:04Z</time>
      </trkpt>
      <trkpt lat="38.0884840" lon="-6.2696640">
        <ele>742.0</ele>
        <time>2021-10-20T09:38:05Z</time>
      </trkpt>
      <trkpt lat="38.0885010" lon="-6.2696420">
        <ele>742.0</ele>
        <time>2021-10-20T09:38:06Z</time>
      </trkpt>
      <trkpt lat="38.0885220" lon="-6.2696050">
        <ele>742.0</ele>
        <time>2021-10-20T09:38:08Z</time>
      </trkpt>
      <trkpt lat="38.0885330" lon="-6.2695690">
        <ele>742.2</ele>
        <time>2021-10-20T09:38:10Z</time>
      </trkpt>
      <trkpt lat="38.0885390" lon="-6.2695350">
        <ele>742.2</ele>
        <time>2021-10-20T09:38:12Z</time>
      </trkpt>
      <trkpt lat="38.0885130" lon="-6.2694150">
        <ele>742.4</ele>
        <time>2021-10-20T09:38:17Z</time>
      </trkpt>
      <trkpt lat="38.0885020" lon="-6.2693960">
        <ele>742.4</ele>
        <time>2021-10-20T09:38:18Z</time>
      </trkpt>
      <trkpt lat="38.0884750" lon="-6.2693920">
        <ele>742.4</ele>
        <time>2021-10-20T09:38:21Z</time>
      </trkpt>
      <trkpt lat="38.0884750" lon="-6.2693920">
        <ele>742.4</ele>
        <time>2021-10-20T09:38:22Z</time>
      </trkpt>
      <trkpt lat="38.0884240" lon="-6.2693730">
        <ele>742.2</ele>
        <time>2021-10-20T09:38:29Z</time>
      </trkpt>
      <trkpt lat="38.0883820" lon="-6.2693730">
        <ele>742.2</ele>
        <time>2021-10-20T09:38:31Z</time>
      </trkpt>
      <trkpt lat="38.0883200" lon="-6.2693720">
        <ele>742.0</ele>
        <time>2021-10-20T09:38:35Z</time>
      </trkpt>
      <trkpt lat="38.0883360" lon="-6.2693680">
        <ele>741.8</ele>
        <time>2021-10-20T09:38:36Z</time>
      </trkpt>
      <trkpt lat="38.0883570" lon="-6.2692990">
        <ele>741.6</ele>
        <time>2021-10-20T09:38:39Z</time>
      </trkpt>
      <trkpt lat="38.0883510" lon="-6.2692690">
        <ele>741.6</ele>
        <time>2021-10-20T09:38:40Z</time>
      </trkpt>
      <trkpt lat="38.0883160" lon="-6.2691260">
        <ele>741.8</ele>
        <time>2021-10-20T09:38:46Z</time>
      </trkpt>
      <trkpt lat="38.0882770" lon="-6.2690580">
        <ele>742.0</ele>
        <time>2021-10-20T09:38:51Z</time>
      </trkpt>
      <trkpt lat="38.0882770" lon="-6.2690550">
        <ele>742.0</ele>
        <time>2021-10-20T09:38:54Z</time>
      </trkpt>
      <trkpt lat="38.0882030" lon="-6.2687530">
        <ele>740.8</ele>
        <time>2021-10-20T09:39:19Z</time>
      </trkpt>
      <trkpt lat="38.0882000" lon="-6.2687350">
        <ele>740.8</ele>
        <time>2021-10-20T09:39:20Z</time>
      </trkpt>
      <trkpt lat="38.0881890" lon="-6.2687020">
        <ele>740.4</ele>
        <time>2021-10-20T09:39:22Z</time>
      </trkpt>
      <trkpt lat="38.0881820" lon="-6.2686540">
        <ele>739.8</ele>
        <time>2021-10-20T09:39:25Z</time>
      </trkpt>
      <trkpt lat="38.0881820" lon="-6.2686540">
        <ele>739.6</ele>
        <time>2021-10-20T09:39:26Z</time>
      </trkpt>
      <trkpt lat="38.0881800" lon="-6.2686510">
        <ele>739.4</ele>
        <time>2021-10-20T09:39:27Z</time>
      </trkpt>
      <trkpt lat="38.0881660" lon="-6.2685890">
        <ele>739.0</ele>
        <time>2021-10-20T09:39:31Z</time>
      </trkpt>
      <trkpt lat="38.0881540" lon="-6.2685380">
        <ele>738.8</ele>
        <time>2021-10-20T09:39:34Z</time>
      </trkpt>
      <trkpt lat="38.0881520" lon="-6.2685190">
        <ele>738.8</ele>
        <time>2021-10-20T09:39:35Z</time>
      </trkpt>
      <trkpt lat="38.0881230" lon="-6.2683430">
        <ele>738.0</ele>
        <time>2021-10-20T09:39:43Z</time>
      </trkpt>
      <trkpt lat="38.0881000" lon="-6.2682310">
        <ele>737.0</ele>
        <time>2021-10-20T09:39:49Z</time>
      </trkpt>
      <trkpt lat="38.0880920" lon="-6.2681640">
        <ele>736.8</ele>
        <time>2021-10-20T09:39:52Z</time>
      </trkpt>
      <trkpt lat="38.0880650" lon="-6.2680550">
        <ele>735.8</ele>
        <time>2021-10-20T09:39:59Z</time>
      </trkpt>
      <trkpt lat="38.0880650" lon="-6.2680550">
        <ele>735.8</ele>
        <time>2021-10-20T09:40:00Z</time>
      </trkpt>
      <trkpt lat="38.0880590" lon="-6.2680230">
        <ele>734.8</ele>
        <time>2021-10-20T09:40:26Z</time>
      </trkpt>
      <trkpt lat="38.0880560" lon="-6.2679910">
        <ele>734.8</ele>
        <time>2021-10-20T09:40:27Z</time>
      </trkpt>
      <trkpt lat="38.0880520" lon="-6.2679610">
        <ele>734.8</ele>
        <time>2021-10-20T09:40:28Z</time>
      </trkpt>
      <trkpt lat="38.0880260" lon="-6.2678150">
        <ele>734.4</ele>
        <time>2021-10-20T09:40:33Z</time>
      </trkpt>
      <trkpt lat="38.0880230" lon="-6.2677920">
        <ele>734.4</ele>
        <time>2021-10-20T09:40:34Z</time>
      </trkpt>
      <trkpt lat="38.0879900" lon="-6.2677000">
        <ele>733.8</ele>
        <time>2021-10-20T09:40:39Z</time>
      </trkpt>
      <trkpt lat="38.0879890" lon="-6.2676750">
        <ele>733.6</ele>
        <time>2021-10-20T09:40:40Z</time>
      </trkpt>
      <trkpt lat="38.0879870" lon="-6.2676470">
        <ele>733.4</ele>
        <time>2021-10-20T09:40:42Z</time>
      </trkpt>
      <trkpt lat="38.0879840" lon="-6.2676310">
        <ele>733.0</ele>
        <time>2021-10-20T09:40:46Z</time>
      </trkpt>
      <trkpt lat="38.0880130" lon="-6.2676340">
        <ele>732.6</ele>
        <time>2021-10-20T09:41:53Z</time>
      </trkpt>
      <trkpt lat="38.0880620" lon="-6.2676160">
        <ele>732.6</ele>
        <time>2021-10-20T09:41:55Z</time>
      </trkpt>
      <trkpt lat="38.0881490" lon="-6.2675590">
        <ele>732.6</ele>
        <time>2021-10-20T09:41:59Z</time>
      </trkpt>
      <trkpt lat="38.0881670" lon="-6.2675310">
        <ele>732.6</ele>
        <time>2021-10-20T09:42:01Z</time>
      </trkpt>
      <trkpt lat="38.0881680" lon="-6.2675270">
        <ele>732.6</ele>
        <time>2021-10-20T09:42:04Z</time>
      </trkpt>
      <trkpt lat="38.0881590" lon="-6.2674600">
        <ele>732.4</ele>
        <time>2021-10-20T09:42:10Z</time>
      </trkpt>
      <trkpt lat="38.0881240" lon="-6.2672410">
        <ele>732.0</ele>
        <time>2021-10-20T09:42:15Z</time>
      </trkpt>
      <trkpt lat="38.0881050" lon="-6.2671220">
        <ele>731.6</ele>
        <time>2021-10-20T09:42:17Z</time>
      </trkpt>
      <trkpt lat="38.0880650" lon="-6.2668790">
        <ele>730.8</ele>
        <time>2021-10-20T09:42:21Z</time>
      </trkpt>
      <trkpt lat="38.0880420" lon="-6.2667520">
        <ele>730.2</ele>
        <time>2021-10-20T09:42:23Z</time>
      </trkpt>
      <trkpt lat="38.0880190" lon="-6.2666120">
        <ele>729.0</ele>
        <time>2021-10-20T09:42:26Z</time>
      </trkpt>
      <trkpt lat="38.0880070" lon="-6.2665150">
        <ele>728.6</ele>
        <time>2021-10-20T09:42:28Z</time>
      </trkpt>
      <trkpt lat="38.0879900" lon="-6.2664490">
        <ele>728.0</ele>
        <time>2021-10-20T09:42:30Z</time>
      </trkpt>
      <trkpt lat="38.0879730" lon="-6.2664180">
        <ele>727.6</ele>
        <time>2021-10-20T09:42:31Z</time>
      </trkpt>
      <trkpt lat="38.0879540" lon="-6.2664090">
        <ele>727.2</ele>
        <time>2021-10-20T09:42:32Z</time>
      </trkpt>
      <trkpt lat="38.0879340" lon="-6.2664130">
        <ele>727.0</ele>
        <time>2021-10-20T09:42:33Z</time>
      </trkpt>
      <trkpt lat="38.0878910" lon="-6.2664550">
        <ele>726.4</ele>
        <time>2021-10-20T09:42:36Z</time>
      </trkpt>
      <trkpt lat="38.0878650" lon="-6.2664950">
        <ele>726.0</ele>
        <time>2021-10-20T09:42:39Z</time>
      </trkpt>
      <trkpt lat="38.0878490" lon="-6.2665090">
        <ele>726.0</ele>
        <time>2021-10-20T09:42:41Z</time>
      </trkpt>
      <trkpt lat="38.0878100" lon="-6.2665680">
        <ele>725.8</ele>
        <time>2021-10-20T09:42:47Z</time>
      </trkpt>
      <trkpt lat="38.0877520" lon="-6.2666620">
        <ele>725.8</ele>
        <time>2021-10-20T09:42:52Z</time>
      </trkpt>
      <trkpt lat="38.0876580" lon="-6.2668180">
        <ele>726.2</ele>
        <time>2021-10-20T09:42:59Z</time>
      </trkpt>
      <trkpt lat="38.0875300" lon="-6.2669840">
        <ele>726.4</ele>
        <time>2021-10-20T09:43:06Z</time>
      </trkpt>
      <trkpt lat="38.0875190" lon="-6.2669990">
        <ele>726.4</ele>
        <time>2021-10-20T09:43:07Z</time>
      </trkpt>
      <trkpt lat="38.0874320" lon="-6.2671020">
        <ele>726.8</ele>
        <time>2021-10-20T09:43:12Z</time>
      </trkpt>
      <trkpt lat="38.0873690" lon="-6.2671960">
        <ele>727.0</ele>
        <time>2021-10-20T09:43:16Z</time>
      </trkpt>
      <trkpt lat="38.0872910" lon="-6.2673140">
        <ele>727.2</ele>
        <time>2021-10-20T09:43:21Z</time>
      </trkpt>
      <trkpt lat="38.0872420" lon="-6.2673780">
        <ele>727.4</ele>
        <time>2021-10-20T09:43:24Z</time>
      </trkpt>
      <trkpt lat="38.0871420" lon="-6.2675060">
        <ele>727.6</ele>
        <time>2021-10-20T09:43:30Z</time>
      </trkpt>
      <trkpt lat="38.0870850" lon="-6.2675800">
        <ele>727.8</ele>
        <time>2021-10-20T09:43:33Z</time>
      </trkpt>
      <trkpt lat="38.0870690" lon="-6.2676020">
        <ele>727.8</ele>
        <time>2021-10-20T09:43:34Z</time>
      </trkpt>
      <trkpt lat="38.0869150" lon="-6.2678200">
        <ele>727.6</ele>
        <time>2021-10-20T09:43:43Z</time>
      </trkpt>
      <trkpt lat="38.0867880" lon="-6.2679830">
        <ele>727.6</ele>
        <time>2021-10-20T09:43:50Z</time>
      </trkpt>
      <trkpt lat="38.0867500" lon="-6.2680090">
        <ele>727.6</ele>
        <time>2021-10-20T09:43:52Z</time>
      </trkpt>
      <trkpt lat="38.0867090" lon="-6.2680670">
        <ele>728.0</ele>
        <time>2021-10-20T09:43:55Z</time>
      </trkpt>
      <trkpt lat="38.0866670" lon="-6.2681310">
        <ele>728.8</ele>
        <time>2021-10-20T09:43:59Z</time>
      </trkpt>
      <trkpt lat="38.0866430" lon="-6.2681560">
        <ele>729.0</ele>
        <time>2021-10-20T09:44:01Z</time>
      </trkpt>
      <trkpt lat="38.0866190" lon="-6.2681780">
        <ele>729.0</ele>
        <time>2021-10-20T09:44:03Z</time>
      </trkpt>
      <trkpt lat="38.0866000" lon="-6.2681970">
        <ele>729.0</ele>
        <time>2021-10-20T09:44:05Z</time>
      </trkpt>
      <trkpt lat="38.0865920" lon="-6.2682050">
        <ele>729.0</ele>
        <time>2021-10-20T09:44:06Z</time>
      </trkpt>
      <trkpt lat="38.0865740" lon="-6.2682240">
        <ele>729.0</ele>
        <time>2021-10-20T09:44:08Z</time>
      </trkpt>
      <trkpt lat="38.0865450" lon="-6.2682410">
        <ele>729.0</ele>
        <time>2021-10-20T09:44:10Z</time>
      </trkpt>
      <trkpt lat="38.0865310" lon="-6.2682570">
        <ele>728.8</ele>
        <time>2021-10-20T09:44:11Z</time>
      </trkpt>
      <trkpt lat="38.0865130" lon="-6.2682860">
        <ele>728.8</ele>
        <time>2021-10-20T09:44:13Z</time>
      </trkpt>
      <trkpt lat="38.0864760" lon="-6.2683150">
        <ele>728.8</ele>
        <time>2021-10-20T09:44:16Z</time>
      </trkpt>
      <trkpt lat="38.0863800" lon="-6.2683870">
        <ele>729.0</ele>
        <time>2021-10-20T09:44:22Z</time>
      </trkpt>
      <trkpt lat="38.0863620" lon="-6.2683990">
        <ele>729.2</ele>
        <time>2021-10-20T09:44:23Z</time>
      </trkpt>
      <trkpt lat="38.0863290" lon="-6.2684190">
        <ele>729.2</ele>
        <time>2021-10-20T09:44:25Z</time>
      </trkpt>
      <trkpt lat="38.0862180" lon="-6.2685020">
        <ele>729.2</ele>
        <time>2021-10-20T09:44:31Z</time>
      </trkpt>
      <trkpt lat="38.0861530" lon="-6.2685510">
        <ele>729.2</ele>
        <time>2021-10-20T09:44:34Z</time>
      </trkpt>
      <trkpt lat="38.0861080" lon="-6.2686170">
        <ele>729.2</ele>
        <time>2021-10-20T09:44:37Z</time>
      </trkpt>
      <trkpt lat="38.0860940" lon="-6.2686410">
        <ele>729.0</ele>
        <time>2021-10-20T09:44:38Z</time>
      </trkpt>
      <trkpt lat="38.0860390" lon="-6.2687450">
        <ele>728.6</ele>
        <time>2021-10-20T09:44:42Z</time>
      </trkpt>
      <trkpt lat="38.0860090" lon="-6.2687450">
        <ele>728.4</ele>
        <time>2021-10-20T09:44:44Z</time>
      </trkpt>
      <trkpt lat="38.0859680" lon="-6.2687400">
        <ele>728.0</ele>
        <time>2021-10-20T09:44:47Z</time>
      </trkpt>
      <trkpt lat="38.0859650" lon="-6.2687390">
        <ele>728.0</ele>
        <time>2021-10-20T09:44:49Z</time>
      </trkpt>
      <trkpt lat="38.0859140" lon="-6.2687330">
        <ele>727.6</ele>
        <time>2021-10-20T09:45:11Z</time>
      </trkpt>
      <trkpt lat="38.0858900" lon="-6.2687210">
        <ele>727.6</ele>
        <time>2021-10-20T09:45:12Z</time>
      </trkpt>
      <trkpt lat="38.0858710" lon="-6.2687100">
        <ele>727.6</ele>
        <time>2021-10-20T09:45:13Z</time>
      </trkpt>
      <trkpt lat="38.0858150" lon="-6.2686720">
        <ele>727.4</ele>
        <time>2021-10-20T09:45:16Z</time>
      </trkpt>
      <trkpt lat="38.0857880" lon="-6.2686770">
        <ele>727.4</ele>
        <time>2021-10-20T09:45:17Z</time>
      </trkpt>
      <trkpt lat="38.0856640" lon="-6.2687170">
        <ele>727.2</ele>
        <time>2021-10-20T09:45:21Z</time>
      </trkpt>
      <trkpt lat="38.0856370" lon="-6.2687410">
        <ele>727.2</ele>
        <time>2021-10-20T09:45:22Z</time>
      </trkpt>
      <trkpt lat="38.0856120" lon="-6.2687640">
        <ele>727.0</ele>
        <time>2021-10-20T09:45:23Z</time>
      </trkpt>
      <trkpt lat="38.0855060" lon="-6.2688680">
        <ele>726.8</ele>
        <time>2021-10-20T09:45:28Z</time>
      </trkpt>
      <trkpt lat="38.0853870" lon="-6.2689700">
        <ele>726.8</ele>
        <time>2021-10-20T09:45:33Z</time>
      </trkpt>
      <trkpt lat="38.0852920" lon="-6.2690390">
        <ele>726.6</ele>
        <time>2021-10-20T09:45:38Z</time>
      </trkpt>
      <trkpt lat="38.0851640" lon="-6.2690640">
        <ele>726.6</ele>
        <time>2021-10-20T09:45:43Z</time>
      </trkpt>
      <trkpt lat="38.0849740" lon="-6.2689920">
        <ele>726.0</ele>
        <time>2021-10-20T09:45:48Z</time>
      </trkpt>
      <trkpt lat="38.0848850" lon="-6.2689650">
        <ele>725.8</ele>
        <time>2021-10-20T09:45:50Z</time>
      </trkpt>
      <trkpt lat="38.0847150" lon="-6.2689290">
        <ele>724.6</ele>
        <time>2021-10-20T09:45:54Z</time>
      </trkpt>
      <trkpt lat="38.0846100" lon="-6.2688790">
        <ele>724.0</ele>
        <time>2021-10-20T09:45:57Z</time>
      </trkpt>
      <trkpt lat="38.0845390" lon="-6.2688240">
        <ele>723.4</ele>
        <time>2021-10-20T09:45:59Z</time>
      </trkpt>
      <trkpt lat="38.0843940" lon="-6.2687100">
        <ele>722.8</ele>
        <time>2021-10-20T09:46:03Z</time>
      </trkpt>
      <trkpt lat="38.0842630" lon="-6.2686160">
        <ele>722.4</ele>
        <time>2021-10-20T09:46:07Z</time>
      </trkpt>
      <trkpt lat="38.0840760" lon="-6.2684550">
        <ele>722.0</ele>
        <time>2021-10-20T09:46:14Z</time>
      </trkpt>
      <trkpt lat="38.0838660" lon="-6.2682760">
        <ele>721.8</ele>
        <time>2021-10-20T09:46:21Z</time>
      </trkpt>
      <trkpt lat="38.0837620" lon="-6.2681990">
        <ele>721.8</ele>
        <time>2021-10-20T09:46:24Z</time>
      </trkpt>
      <trkpt lat="38.0836120" lon="-6.2680460">
        <ele>721.8</ele>
        <time>2021-10-20T09:46:29Z</time>
      </trkpt>
      <trkpt lat="38.0835610" lon="-6.2679890">
        <ele>721.6</ele>
        <time>2021-10-20T09:46:31Z</time>
      </trkpt>
      <trkpt lat="38.0834740" lon="-6.2678830">
        <ele>721.4</ele>
        <time>2021-10-20T09:46:35Z</time>
      </trkpt>
      <trkpt lat="38.0834340" lon="-6.2678250">
        <ele>721.4</ele>
        <time>2021-10-20T09:46:37Z</time>
      </trkpt>
      <trkpt lat="38.0832940" lon="-6.2675960">
        <ele>721.6</ele>
        <time>2021-10-20T09:46:45Z</time>
      </trkpt>
      <trkpt lat="38.0831440" lon="-6.2673110">
        <ele>722.0</ele>
        <time>2021-10-20T09:46:54Z</time>
      </trkpt>
      <trkpt lat="38.0830350" lon="-6.2670700">
        <ele>722.2</ele>
        <time>2021-10-20T09:47:02Z</time>
      </trkpt>
      <trkpt lat="38.0829850" lon="-6.2669540">
        <ele>722.4</ele>
        <time>2021-10-20T09:47:06Z</time>
      </trkpt>
      <trkpt lat="38.0829300" lon="-6.2668310">
        <ele>722.4</ele>
        <time>2021-10-20T09:47:11Z</time>
      </trkpt>
      <trkpt lat="38.0829210" lon="-6.2668050">
        <ele>722.4</ele>
        <time>2021-10-20T09:47:12Z</time>
      </trkpt>
      <trkpt lat="38.0829130" lon="-6.2667780">
        <ele>722.4</ele>
        <time>2021-10-20T09:47:13Z</time>
      </trkpt>
      <trkpt lat="38.0828340" lon="-6.2665770">
        <ele>722.4</ele>
        <time>2021-10-20T09:47:20Z</time>
      </trkpt>
      <trkpt lat="38.0827160" lon="-6.2662770">
        <ele>722.4</ele>
        <time>2021-10-20T09:47:30Z</time>
      </trkpt>
      <trkpt lat="38.0826020" lon="-6.2659490">
        <ele>722.6</ele>
        <time>2021-10-20T09:47:40Z</time>
      </trkpt>
      <trkpt lat="38.0825920" lon="-6.2659130">
        <ele>722.6</ele>
        <time>2021-10-20T09:47:41Z</time>
      </trkpt>
      <trkpt lat="38.0825460" lon="-6.2657800">
        <ele>722.8</ele>
        <time>2021-10-20T09:47:45Z</time>
      </trkpt>
      <trkpt lat="38.0824940" lon="-6.2656210">
        <ele>722.8</ele>
        <time>2021-10-20T09:47:50Z</time>
      </trkpt>
      <trkpt lat="38.0824390" lon="-6.2654650">
        <ele>723.0</ele>
        <time>2021-10-20T09:47:55Z</time>
      </trkpt>
      <trkpt lat="38.0824000" lon="-6.2653370">
        <ele>723.2</ele>
        <time>2021-10-20T09:47:59Z</time>
      </trkpt>
      <trkpt lat="38.0823450" lon="-6.2651890">
        <ele>723.4</ele>
        <time>2021-10-20T09:48:04Z</time>
      </trkpt>
      <trkpt lat="38.0823370" lon="-6.2651550">
        <ele>723.6</ele>
        <time>2021-10-20T09:48:05Z</time>
      </trkpt>
      <trkpt lat="38.0822920" lon="-6.2650190">
        <ele>723.8</ele>
        <time>2021-10-20T09:48:09Z</time>
      </trkpt>
      <trkpt lat="38.0822380" lon="-6.2648530">
        <ele>724.2</ele>
        <time>2021-10-20T09:48:14Z</time>
      </trkpt>
      <trkpt lat="38.0821500" lon="-6.2646220">
        <ele>724.6</ele>
        <time>2021-10-20T09:48:21Z</time>
      </trkpt>
      <trkpt lat="38.0821380" lon="-6.2645880">
        <ele>724.8</ele>
        <time>2021-10-20T09:48:22Z</time>
      </trkpt>
      <trkpt lat="38.0821260" lon="-6.2645560">
        <ele>724.8</ele>
        <time>2021-10-20T09:48:23Z</time>
      </trkpt>
      <trkpt lat="38.0819830" lon="-6.2641890">
        <ele>725.4</ele>
        <time>2021-10-20T09:48:35Z</time>
      </trkpt>
      <trkpt lat="38.0819440" lon="-6.2641110">
        <ele>725.4</ele>
        <time>2021-10-20T09:48:38Z</time>
      </trkpt>
      <trkpt lat="38.0818890" lon="-6.2639900">
        <ele>725.8</ele>
        <time>2021-10-20T09:48:42Z</time>
      </trkpt>
      <trkpt lat="38.0818330" lon="-6.2638770">
        <ele>726.2</ele>
        <time>2021-10-20T09:48:46Z</time>
      </trkpt>
      <trkpt lat="38.0817930" lon="-6.2637930">
        <ele>726.4</ele>
        <time>2021-10-20T09:48:49Z</time>
      </trkpt>
      <trkpt lat="38.0817540" lon="-6.2637120">
        <ele>726.6</ele>
        <time>2021-10-20T09:48:52Z</time>
      </trkpt>
      <trkpt lat="38.0817400" lon="-6.2636910">
        <ele>726.8</ele>
        <time>2021-10-20T09:48:53Z</time>
      </trkpt>
      <trkpt lat="38.0817230" lon="-6.2636750">
        <ele>726.8</ele>
        <time>2021-10-20T09:48:54Z</time>
      </trkpt>
      <trkpt lat="38.0817100" lon="-6.2636540">
        <ele>726.8</ele>
        <time>2021-10-20T09:48:55Z</time>
      </trkpt>
      <trkpt lat="38.0816950" lon="-6.2636300">
        <ele>726.8</ele>
        <time>2021-10-20T09:48:56Z</time>
      </trkpt>
      <trkpt lat="38.0816650" lon="-6.2635800">
        <ele>727.0</ele>
        <time>2021-10-20T09:48:58Z</time>
      </trkpt>
      <trkpt lat="38.0815640" lon="-6.2634230">
        <ele>727.4</ele>
        <time>2021-10-20T09:49:04Z</time>
      </trkpt>
      <trkpt lat="38.0814600" lon="-6.2632700">
        <ele>727.8</ele>
        <time>2021-10-20T09:49:10Z</time>
      </trkpt>
      <trkpt lat="38.0814430" lon="-6.2632510">
        <ele>727.8</ele>
        <time>2021-10-20T09:49:11Z</time>
      </trkpt>
      <trkpt lat="38.0814010" lon="-6.2632060">
        <ele>728.0</ele>
        <time>2021-10-20T09:49:13Z</time>
      </trkpt>
      <trkpt lat="38.0812380" lon="-6.2631070">
        <ele>728.6</ele>
        <time>2021-10-20T09:49:20Z</time>
      </trkpt>
      <trkpt lat="38.0811840" lon="-6.2630760">
        <ele>728.8</ele>
        <time>2021-10-20T09:49:22Z</time>
      </trkpt>
      <trkpt lat="38.0811130" lon="-6.2630150">
        <ele>729.2</ele>
        <time>2021-10-20T09:49:27Z</time>
      </trkpt>
      <trkpt lat="38.0811130" lon="-6.2630150">
        <ele>729.2</ele>
        <time>2021-10-20T09:49:29Z</time>
      </trkpt>
      <trkpt lat="38.0810960" lon="-6.2629640">
        <ele>729.2</ele>
        <time>2021-10-20T09:49:49Z</time>
      </trkpt>
      <trkpt lat="38.0810890" lon="-6.2629320">
        <ele>729.2</ele>
        <time>2021-10-20T09:49:50Z</time>
      </trkpt>
      <trkpt lat="38.0810530" lon="-6.2626880">
        <ele>729.6</ele>
        <time>2021-10-20T09:49:56Z</time>
      </trkpt>
      <trkpt lat="38.0810290" lon="-6.2625930">
        <ele>729.8</ele>
        <time>2021-10-20T09:49:59Z</time>
      </trkpt>
      <trkpt lat="38.0809940" lon="-6.2625130">
        <ele>730.4</ele>
        <time>2021-10-20T09:50:02Z</time>
      </trkpt>
      <trkpt lat="38.0809060" lon="-6.2623480">
        <ele>731.0</ele>
        <time>2021-10-20T09:50:08Z</time>
      </trkpt>
      <trkpt lat="38.0808870" lon="-6.2623200">
        <ele>731.0</ele>
        <time>2021-10-20T09:50:09Z</time>
      </trkpt>
      <trkpt lat="38.0807840" lon="-6.2621530">
        <ele>731.6</ele>
        <time>2021-10-20T09:50:15Z</time>
      </trkpt>
      <trkpt lat="38.0807030" lon="-6.2620160">
        <ele>732.4</ele>
        <time>2021-10-20T09:50:20Z</time>
      </trkpt>
      <trkpt lat="38.0806380" lon="-6.2618800">
        <ele>732.6</ele>
        <time>2021-10-20T09:50:25Z</time>
      </trkpt>
      <trkpt lat="38.0805520" lon="-6.2617210">
        <ele>733.4</ele>
        <time>2021-10-20T09:50:31Z</time>
      </trkpt>
      <trkpt lat="38.0804690" lon="-6.2615820">
        <ele>733.8</ele>
        <time>2021-10-20T09:50:36Z</time>
      </trkpt>
      <trkpt lat="38.0803350" lon="-6.2613950">
        <ele>734.4</ele>
        <time>2021-10-20T09:50:44Z</time>
      </trkpt>
      <trkpt lat="38.0802770" lon="-6.2613350">
        <ele>734.8</ele>
        <time>2021-10-20T09:50:47Z</time>
      </trkpt>
      <trkpt lat="38.0801940" lon="-6.2612640">
        <ele>735.0</ele>
        <time>2021-10-20T09:50:51Z</time>
      </trkpt>
      <trkpt lat="38.0801340" lon="-6.2612190">
        <ele>735.2</ele>
        <time>2021-10-20T09:50:54Z</time>
      </trkpt>
      <trkpt lat="38.0800920" lon="-6.2611840">
        <ele>735.4</ele>
        <time>2021-10-20T09:50:56Z</time>
      </trkpt>
      <trkpt lat="38.0800120" lon="-6.2611150">
        <ele>736.0</ele>
        <time>2021-10-20T09:51:00Z</time>
      </trkpt>
      <trkpt lat="38.0799070" lon="-6.2610140">
        <ele>736.2</ele>
        <time>2021-10-20T09:51:05Z</time>
      </trkpt>
      <trkpt lat="38.0798650" lon="-6.2609740">
        <ele>736.4</ele>
        <time>2021-10-20T09:51:07Z</time>
      </trkpt>
      <trkpt lat="38.0797960" lon="-6.2609090">
        <ele>736.4</ele>
        <time>2021-10-20T09:51:10Z</time>
      </trkpt>
      <trkpt lat="38.0797750" lon="-6.2608880">
        <ele>736.6</ele>
        <time>2021-10-20T09:51:11Z</time>
      </trkpt>
      <trkpt lat="38.0796440" lon="-6.2607670">
        <ele>736.6</ele>
        <time>2021-10-20T09:51:17Z</time>
      </trkpt>
      <trkpt lat="38.0795540" lon="-6.2607070">
        <ele>736.6</ele>
        <time>2021-10-20T09:51:21Z</time>
      </trkpt>
      <trkpt lat="38.0794730" lon="-6.2606310">
        <ele>736.8</ele>
        <time>2021-10-20T09:51:25Z</time>
      </trkpt>
      <trkpt lat="38.0792990" lon="-6.2604460">
        <ele>737.6</ele>
        <time>2021-10-20T09:51:33Z</time>
      </trkpt>
      <trkpt lat="38.0792780" lon="-6.2604210">
        <ele>737.6</ele>
        <time>2021-10-20T09:51:34Z</time>
      </trkpt>
      <trkpt lat="38.0791050" lon="-6.2602290">
        <ele>738.2</ele>
        <time>2021-10-20T09:51:43Z</time>
      </trkpt>
      <trkpt lat="38.0789750" lon="-6.2600850">
        <ele>738.4</ele>
        <time>2021-10-20T09:51:50Z</time>
      </trkpt>
      <trkpt lat="38.0789540" lon="-6.2599940">
        <ele>738.6</ele>
        <time>2021-10-20T09:51:53Z</time>
      </trkpt>
      <trkpt lat="38.0789540" lon="-6.2599450">
        <ele>739.0</ele>
        <time>2021-10-20T09:51:55Z</time>
      </trkpt>
      <trkpt lat="38.0789430" lon="-6.2598920">
        <ele>739.4</ele>
        <time>2021-10-20T09:51:58Z</time>
      </trkpt>
      <trkpt lat="38.0789150" lon="-6.2598570">
        <ele>739.4</ele>
        <time>2021-10-20T09:52:01Z</time>
      </trkpt>
      <trkpt lat="38.0788480" lon="-6.2598320">
        <ele>739.8</ele>
        <time>2021-10-20T09:52:05Z</time>
      </trkpt>
      <trkpt lat="38.0788120" lon="-6.2598190">
        <ele>739.8</ele>
        <time>2021-10-20T09:52:07Z</time>
      </trkpt>
      <trkpt lat="38.0786820" lon="-6.2597540">
        <ele>740.6</ele>
        <time>2021-10-20T09:52:14Z</time>
      </trkpt>
      <trkpt lat="38.0786670" lon="-6.2597440">
        <ele>740.8</ele>
        <time>2021-10-20T09:52:15Z</time>
      </trkpt>
      <trkpt lat="38.0785710" lon="-6.2596540">
        <ele>741.2</ele>
        <time>2021-10-20T09:52:21Z</time>
      </trkpt>
      <trkpt lat="38.0784960" lon="-6.2595620">
        <ele>741.8</ele>
        <time>2021-10-20T09:52:27Z</time>
      </trkpt>
      <trkpt lat="38.0784540" lon="-6.2595040">
        <ele>742.0</ele>
        <time>2021-10-20T09:52:30Z</time>
      </trkpt>
      <trkpt lat="38.0783920" lon="-6.2593400">
        <ele>742.2</ele>
        <time>2021-10-20T09:52:37Z</time>
      </trkpt>
      <trkpt lat="38.0783670" lon="-6.2592470">
        <ele>742.4</ele>
        <time>2021-10-20T09:52:41Z</time>
      </trkpt>
      <trkpt lat="38.0783380" lon="-6.2591600">
        <ele>742.6</ele>
        <time>2021-10-20T09:52:45Z</time>
      </trkpt>
      <trkpt lat="38.0783200" lon="-6.2591130">
        <ele>742.8</ele>
        <time>2021-10-20T09:52:47Z</time>
      </trkpt>
      <trkpt lat="38.0782370" lon="-6.2590040">
        <ele>742.8</ele>
        <time>2021-10-20T09:52:53Z</time>
      </trkpt>
      <trkpt lat="38.0781600" lon="-6.2589320">
        <ele>742.8</ele>
        <time>2021-10-20T09:52:57Z</time>
      </trkpt>
      <trkpt lat="38.0780880" lon="-6.2588820">
        <ele>742.4</ele>
        <time>2021-10-20T09:53:01Z</time>
      </trkpt>
      <trkpt lat="38.0780580" lon="-6.2588800">
        <ele>742.2</ele>
        <time>2021-10-20T09:53:05Z</time>
      </trkpt>
      <trkpt lat="38.0780290" lon="-6.2588420">
        <ele>741.2</ele>
        <time>2021-10-20T09:54:03Z</time>
      </trkpt>
      <trkpt lat="38.0780060" lon="-6.2588310">
        <ele>741.2</ele>
        <time>2021-10-20T09:54:04Z</time>
      </trkpt>
      <trkpt lat="38.0779760" lon="-6.2588270">
        <ele>741.2</ele>
        <time>2021-10-20T09:54:05Z</time>
      </trkpt>
      <trkpt lat="38.0778640" lon="-6.2587720">
        <ele>740.8</ele>
        <time>2021-10-20T09:54:09Z</time>
      </trkpt>
      <trkpt lat="38.0778050" lon="-6.2587550">
        <ele>740.2</ele>
        <time>2021-10-20T09:54:12Z</time>
      </trkpt>
      <trkpt lat="38.0777870" lon="-6.2587510">
        <ele>739.2</ele>
        <time>2021-10-20T09:54:14Z</time>
      </trkpt>
      <trkpt lat="38.0777830" lon="-6.2587490">
        <ele>738.8</ele>
        <time>2021-10-20T09:54:15Z</time>
      </trkpt>
      <trkpt lat="38.0777660" lon="-6.2587530">
        <ele>738.4</ele>
        <time>2021-10-20T09:54:17Z</time>
      </trkpt>
      <trkpt lat="38.0777070" lon="-6.2587500">
        <ele>737.8</ele>
        <time>2021-10-20T09:54:20Z</time>
      </trkpt>
      <trkpt lat="38.0776870" lon="-6.2587450">
        <ele>737.8</ele>
        <time>2021-10-20T09:54:21Z</time>
      </trkpt>
      <trkpt lat="38.0775920" lon="-6.2586750">
        <ele>737.2</ele>
        <time>2021-10-20T09:54:24Z</time>
      </trkpt>
      <trkpt lat="38.0775540" lon="-6.2586470">
        <ele>737.2</ele>
        <time>2021-10-20T09:54:25Z</time>
      </trkpt>
      <trkpt lat="38.0774520" lon="-6.2585330">
        <ele>736.8</ele>
        <time>2021-10-20T09:54:28Z</time>
      </trkpt>
      <trkpt lat="38.0774110" lon="-6.2584740">
        <ele>736.2</ele>
        <time>2021-10-20T09:54:29Z</time>
      </trkpt>
      <trkpt lat="38.0773460" lon="-6.2583930">
        <ele>735.6</ele>
        <time>2021-10-20T09:54:31Z</time>
      </trkpt>
      <trkpt lat="38.0771840" lon="-6.2582220">
        <ele>733.4</ele>
        <time>2021-10-20T09:54:35Z</time>
      </trkpt>
      <trkpt lat="38.0770870" lon="-6.2581150">
        <ele>731.0</ele>
        <time>2021-10-20T09:54:37Z</time>
      </trkpt>
      <trkpt lat="38.0769980" lon="-6.2580050">
        <ele>729.2</ele>
        <time>2021-10-20T09:54:39Z</time>
      </trkpt>
      <trkpt lat="38.0769610" lon="-6.2579600">
        <ele>728.2</ele>
        <time>2021-10-20T09:54:40Z</time>
      </trkpt>
      <trkpt lat="38.0768550" lon="-6.2578310">
        <ele>727.0</ele>
        <time>2021-10-20T09:54:42Z</time>
      </trkpt>
      <trkpt lat="38.0767670" lon="-6.2577230">
        <ele>725.8</ele>
        <time>2021-10-20T09:54:44Z</time>
      </trkpt>
      <trkpt lat="38.0766150" lon="-6.2575370">
        <ele>724.6</ele>
        <time>2021-10-20T09:54:47Z</time>
      </trkpt>
      <trkpt lat="38.0765720" lon="-6.2574830">
        <ele>723.4</ele>
        <time>2021-10-20T09:54:48Z</time>
      </trkpt>
      <trkpt lat="38.0765020" lon="-6.2573900">
        <ele>722.2</ele>
        <time>2021-10-20T09:54:50Z</time>
      </trkpt>
      <trkpt lat="38.0764220" lon="-6.2572840">
        <ele>721.0</ele>
        <time>2021-10-20T09:54:52Z</time>
      </trkpt>
      <trkpt lat="38.0763890" lon="-6.2572420">
        <ele>720.4</ele>
        <time>2021-10-20T09:54:53Z</time>
      </trkpt>
      <trkpt lat="38.0763610" lon="-6.2572100">
        <ele>719.8</ele>
        <time>2021-10-20T09:54:54Z</time>
      </trkpt>
      <trkpt lat="38.0762950" lon="-6.2571300">
        <ele>718.8</ele>
        <time>2021-10-20T09:54:56Z</time>
      </trkpt>
      <trkpt lat="38.0762250" lon="-6.2570550">
        <ele>717.4</ele>
        <time>2021-10-20T09:54:58Z</time>
      </trkpt>
      <trkpt lat="38.0761850" lon="-6.2570210">
        <ele>716.2</ele>
        <time>2021-10-20T09:54:59Z</time>
      </trkpt>
      <trkpt lat="38.0761000" lon="-6.2569500">
        <ele>715.4</ele>
        <time>2021-10-20T09:55:01Z</time>
      </trkpt>
      <trkpt lat="38.0760520" lon="-6.2569140">
        <ele>714.8</ele>
        <time>2021-10-20T09:55:02Z</time>
      </trkpt>
      <trkpt lat="38.0759320" lon="-6.2568170">
        <ele>713.8</ele>
        <time>2021-10-20T09:55:04Z</time>
      </trkpt>
      <trkpt lat="38.0758740" lon="-6.2567630">
        <ele>713.4</ele>
        <time>2021-10-20T09:55:05Z</time>
      </trkpt>
      <trkpt lat="38.0757650" lon="-6.2566500">
        <ele>712.6</ele>
        <time>2021-10-20T09:55:07Z</time>
      </trkpt>
      <trkpt lat="38.0756270" lon="-6.2564950">
        <ele>711.8</ele>
        <time>2021-10-20T09:55:09Z</time>
      </trkpt>
      <trkpt lat="38.0755680" lon="-6.2564150">
        <ele>711.6</ele>
        <time>2021-10-20T09:55:10Z</time>
      </trkpt>
      <trkpt lat="38.0754640" lon="-6.2562560">
        <ele>710.6</ele>
        <time>2021-10-20T09:55:12Z</time>
      </trkpt>
      <trkpt lat="38.0754000" lon="-6.2561680">
        <ele>709.2</ele>
        <time>2021-10-20T09:55:13Z</time>
      </trkpt>
      <trkpt lat="38.0752620" lon="-6.2559930">
        <ele>707.8</ele>
        <time>2021-10-20T09:55:15Z</time>
      </trkpt>
      <trkpt lat="38.0751710" lon="-6.2558930">
        <ele>707.2</ele>
        <time>2021-10-20T09:55:16Z</time>
      </trkpt>
      <trkpt lat="38.0751070" lon="-6.2558330">
        <ele>705.2</ele>
        <time>2021-10-20T09:55:17Z</time>
      </trkpt>
      <trkpt lat="38.0750330" lon="-6.2557610">
        <ele>704.2</ele>
        <time>2021-10-20T09:55:18Z</time>
      </trkpt>
      <trkpt lat="38.0749480" lon="-6.2556840">
        <ele>702.6</ele>
        <time>2021-10-20T09:55:19Z</time>
      </trkpt>
      <trkpt lat="38.0748790" lon="-6.2556230">
        <ele>701.6</ele>
        <time>2021-10-20T09:55:20Z</time>
      </trkpt>
      <trkpt lat="38.0748130" lon="-6.2555590">
        <ele>701.4</ele>
        <time>2021-10-20T09:55:21Z</time>
      </trkpt>
      <trkpt lat="38.0746970" lon="-6.2554480">
        <ele>700.4</ele>
        <time>2021-10-20T09:55:23Z</time>
      </trkpt>
      <trkpt lat="38.0745670" lon="-6.2553100">
        <ele>699.2</ele>
        <time>2021-10-20T09:55:25Z</time>
      </trkpt>
      <trkpt lat="38.0744660" lon="-6.2551960">
        <ele>698.2</ele>
        <time>2021-10-20T09:55:27Z</time>
      </trkpt>
      <trkpt lat="38.0744110" lon="-6.2551330">
        <ele>697.8</ele>
        <time>2021-10-20T09:55:28Z</time>
      </trkpt>
      <trkpt lat="38.0741620" lon="-6.2548360">
        <ele>697.2</ele>
        <time>2021-10-20T09:55:33Z</time>
      </trkpt>
      <trkpt lat="38.0740290" lon="-6.2546760">
        <ele>696.6</ele>
        <time>2021-10-20T09:55:36Z</time>
      </trkpt>
      <trkpt lat="38.0739930" lon="-6.2546240">
        <ele>696.4</ele>
        <time>2021-10-20T09:55:37Z</time>
      </trkpt>
      <trkpt lat="38.0738540" lon="-6.2544050">
        <ele>696.2</ele>
        <time>2021-10-20T09:55:42Z</time>
      </trkpt>
      <trkpt lat="38.0736880" lon="-6.2541710">
        <ele>696.2</ele>
        <time>2021-10-20T09:55:48Z</time>
      </trkpt>
      <trkpt lat="38.0735780" lon="-6.2540180">
        <ele>696.2</ele>
        <time>2021-10-20T09:55:53Z</time>
      </trkpt>
      <trkpt lat="38.0734710" lon="-6.2538560">
        <ele>696.2</ele>
        <time>2021-10-20T09:55:58Z</time>
      </trkpt>
      <trkpt lat="38.0733130" lon="-6.2536410">
        <ele>696.2</ele>
        <time>2021-10-20T09:56:03Z</time>
      </trkpt>
      <trkpt lat="38.0731880" lon="-6.2534740">
        <ele>695.4</ele>
        <time>2021-10-20T09:56:06Z</time>
      </trkpt>
      <trkpt lat="38.0731040" lon="-6.2533570">
        <ele>694.8</ele>
        <time>2021-10-20T09:56:08Z</time>
      </trkpt>
      <trkpt lat="38.0729960" lon="-6.2531980">
        <ele>694.0</ele>
        <time>2021-10-20T09:56:10Z</time>
      </trkpt>
      <trkpt lat="38.0728440" lon="-6.2529690">
        <ele>692.0</ele>
        <time>2021-10-20T09:56:13Z</time>
      </trkpt>
      <trkpt lat="38.0728000" lon="-6.2529100">
        <ele>691.4</ele>
        <time>2021-10-20T09:56:14Z</time>
      </trkpt>
      <trkpt lat="38.0727340" lon="-6.2528250">
        <ele>691.0</ele>
        <time>2021-10-20T09:56:15Z</time>
      </trkpt>
      <trkpt lat="38.0725860" lon="-6.2526320">
        <ele>689.8</ele>
        <time>2021-10-20T09:56:18Z</time>
      </trkpt>
      <trkpt lat="38.0724790" lon="-6.2524920">
        <ele>688.6</ele>
        <time>2021-10-20T09:56:20Z</time>
      </trkpt>
      <trkpt lat="38.0723040" lon="-6.2522810">
        <ele>687.4</ele>
        <time>2021-10-20T09:56:23Z</time>
      </trkpt>
      <trkpt lat="38.0721070" lon="-6.2520420">
        <ele>685.6</ele>
        <time>2021-10-20T09:56:26Z</time>
      </trkpt>
      <trkpt lat="38.0719290" lon="-6.2518420">
        <ele>684.2</ele>
        <time>2021-10-20T09:56:29Z</time>
      </trkpt>
      <trkpt lat="38.0718550" lon="-6.2517660">
        <ele>683.2</ele>
        <time>2021-10-20T09:56:30Z</time>
      </trkpt>
      <trkpt lat="38.0716450" lon="-6.2515290">
        <ele>682.0</ele>
        <time>2021-10-20T09:56:34Z</time>
      </trkpt>
      <trkpt lat="38.0713530" lon="-6.2511570">
        <ele>681.0</ele>
        <time>2021-10-20T09:56:41Z</time>
      </trkpt>
      <trkpt lat="38.0711070" lon="-6.2508080">
        <ele>680.2</ele>
        <time>2021-10-20T09:56:47Z</time>
      </trkpt>
      <trkpt lat="38.0710510" lon="-6.2507170">
        <ele>679.8</ele>
        <time>2021-10-20T09:56:48Z</time>
      </trkpt>
      <trkpt lat="38.0709250" lon="-6.2504800">
        <ele>678.6</ele>
        <time>2021-10-20T09:56:51Z</time>
      </trkpt>
      <trkpt lat="38.0708420" lon="-6.2503050">
        <ele>677.4</ele>
        <time>2021-10-20T09:56:53Z</time>
      </trkpt>
      <trkpt lat="38.0707920" lon="-6.2502030">
        <ele>677.0</ele>
        <time>2021-10-20T09:56:54Z</time>
      </trkpt>
      <trkpt lat="38.0707500" lon="-6.2501200">
        <ele>675.8</ele>
        <time>2021-10-20T09:56:55Z</time>
      </trkpt>
      <trkpt lat="38.0706700" lon="-6.2499500">
        <ele>674.0</ele>
        <time>2021-10-20T09:56:57Z</time>
      </trkpt>
      <trkpt lat="38.0705950" lon="-6.2497720">
        <ele>672.8</ele>
        <time>2021-10-20T09:56:59Z</time>
      </trkpt>
      <trkpt lat="38.0705150" lon="-6.2496160">
        <ele>671.4</ele>
        <time>2021-10-20T09:57:01Z</time>
      </trkpt>
      <trkpt lat="38.0704480" lon="-6.2495130">
        <ele>670.4</ele>
        <time>2021-10-20T09:57:02Z</time>
      </trkpt>
      <trkpt lat="38.0703320" lon="-6.2493660">
        <ele>668.8</ele>
        <time>2021-10-20T09:57:04Z</time>
      </trkpt>
      <trkpt lat="38.0702620" lon="-6.2492900">
        <ele>668.6</ele>
        <time>2021-10-20T09:57:05Z</time>
      </trkpt>
      <trkpt lat="38.0701880" lon="-6.2492150">
        <ele>667.8</ele>
        <time>2021-10-20T09:57:06Z</time>
      </trkpt>
      <trkpt lat="38.0700330" lon="-6.2490790">
        <ele>666.2</ele>
        <time>2021-10-20T09:57:08Z</time>
      </trkpt>
      <trkpt lat="38.0698810" lon="-6.2489510">
        <ele>664.6</ele>
        <time>2021-10-20T09:57:10Z</time>
      </trkpt>
      <trkpt lat="38.0697480" lon="-6.2487880">
        <ele>663.2</ele>
        <time>2021-10-20T09:57:12Z</time>
      </trkpt>
      <trkpt lat="38.0696160" lon="-6.2485860">
        <ele>662.0</ele>
        <time>2021-10-20T09:57:14Z</time>
      </trkpt>
      <trkpt lat="38.0695040" lon="-6.2483970">
        <ele>660.6</ele>
        <time>2021-10-20T09:57:16Z</time>
      </trkpt>
      <trkpt lat="38.0694000" lon="-6.2482410">
        <ele>659.2</ele>
        <time>2021-10-20T09:57:18Z</time>
      </trkpt>
      <trkpt lat="38.0692790" lon="-6.2480970">
        <ele>658.4</ele>
        <time>2021-10-20T09:57:20Z</time>
      </trkpt>
      <trkpt lat="38.0692060" lon="-6.2480180">
        <ele>657.8</ele>
        <time>2021-10-20T09:57:21Z</time>
      </trkpt>
      <trkpt lat="38.0690290" lon="-6.2478520">
        <ele>656.8</ele>
        <time>2021-10-20T09:57:24Z</time>
      </trkpt>
      <trkpt lat="38.0688750" lon="-6.2477360">
        <ele>655.8</ele>
        <time>2021-10-20T09:57:26Z</time>
      </trkpt>
      <trkpt lat="38.0688050" lon="-6.2476830">
        <ele>655.4</ele>
        <time>2021-10-20T09:57:27Z</time>
      </trkpt>
      <trkpt lat="38.0686020" lon="-6.2474850">
        <ele>654.0</ele>
        <time>2021-10-20T09:57:30Z</time>
      </trkpt>
      <trkpt lat="38.0685410" lon="-6.2474140">
        <ele>653.6</ele>
        <time>2021-10-20T09:57:31Z</time>
      </trkpt>
      <trkpt lat="38.0684840" lon="-6.2473440">
        <ele>652.8</ele>
        <time>2021-10-20T09:57:32Z</time>
      </trkpt>
      <trkpt lat="38.0683770" lon="-6.2472250">
        <ele>651.8</ele>
        <time>2021-10-20T09:57:34Z</time>
      </trkpt>
      <trkpt lat="38.0682980" lon="-6.2471550">
        <ele>650.6</ele>
        <time>2021-10-20T09:57:35Z</time>
      </trkpt>
      <trkpt lat="38.0681540" lon="-6.2470350">
        <ele>648.8</ele>
        <time>2021-10-20T09:57:37Z</time>
      </trkpt>
      <trkpt lat="38.0679390" lon="-6.2468400">
        <ele>647.4</ele>
        <time>2021-10-20T09:57:40Z</time>
      </trkpt>
      <trkpt lat="38.0678680" lon="-6.2467770">
        <ele>646.2</ele>
        <time>2021-10-20T09:57:41Z</time>
      </trkpt>
      <trkpt lat="38.0677990" lon="-6.2467100">
        <ele>645.0</ele>
        <time>2021-10-20T09:57:42Z</time>
      </trkpt>
      <trkpt lat="38.0676730" lon="-6.2465580">
        <ele>643.4</ele>
        <time>2021-10-20T09:57:44Z</time>
      </trkpt>
      <trkpt lat="38.0675810" lon="-6.2463720">
        <ele>641.8</ele>
        <time>2021-10-20T09:57:46Z</time>
      </trkpt>
      <trkpt lat="38.0675070" lon="-6.2461680">
        <ele>640.4</ele>
        <time>2021-10-20T09:57:48Z</time>
      </trkpt>
      <trkpt lat="38.0674440" lon="-6.2459910">
        <ele>639.0</ele>
        <time>2021-10-20T09:57:50Z</time>
      </trkpt>
      <trkpt lat="38.0674090" lon="-6.2459210">
        <ele>638.6</ele>
        <time>2021-10-20T09:57:51Z</time>
      </trkpt>
      <trkpt lat="38.0673680" lon="-6.2458740">
        <ele>637.8</ele>
        <time>2021-10-20T09:57:52Z</time>
      </trkpt>
      <trkpt lat="38.0673020" lon="-6.2458290">
        <ele>637.2</ele>
        <time>2021-10-20T09:57:53Z</time>
      </trkpt>
      <trkpt lat="38.0672200" lon="-6.2457840">
        <ele>636.8</ele>
        <time>2021-10-20T09:57:54Z</time>
      </trkpt>
      <trkpt lat="38.0670890" lon="-6.2457200">
        <ele>635.8</ele>
        <time>2021-10-20T09:57:56Z</time>
      </trkpt>
      <trkpt lat="38.0670170" lon="-6.2456890">
        <ele>634.8</ele>
        <time>2021-10-20T09:57:57Z</time>
      </trkpt>
      <trkpt lat="38.0668620" lon="-6.2456190">
        <ele>633.4</ele>
        <time>2021-10-20T09:57:59Z</time>
      </trkpt>
      <trkpt lat="38.0667140" lon="-6.2455390">
        <ele>632.2</ele>
        <time>2021-10-20T09:58:01Z</time>
      </trkpt>
      <trkpt lat="38.0666310" lon="-6.2454890">
        <ele>631.4</ele>
        <time>2021-10-20T09:58:02Z</time>
      </trkpt>
      <trkpt lat="38.0665270" lon="-6.2454310">
        <ele>630.2</ele>
        <time>2021-10-20T09:58:03Z</time>
      </trkpt>
      <trkpt lat="38.0664430" lon="-6.2453880">
        <ele>628.6</ele>
        <time>2021-10-20T09:58:04Z</time>
      </trkpt>
      <trkpt lat="38.0663010" lon="-6.2453130">
        <ele>627.2</ele>
        <time>2021-10-20T09:58:06Z</time>
      </trkpt>
      <trkpt lat="38.0661570" lon="-6.2452220">
        <ele>626.4</ele>
        <time>2021-10-20T09:58:08Z</time>
      </trkpt>
      <trkpt lat="38.0660570" lon="-6.2451480">
        <ele>626.0</ele>
        <time>2021-10-20T09:58:10Z</time>
      </trkpt>
      <trkpt lat="38.0659840" lon="-6.2450880">
        <ele>625.6</ele>
        <time>2021-10-20T09:58:12Z</time>
      </trkpt>
      <trkpt lat="38.0659450" lon="-6.2450530">
        <ele>625.4</ele>
        <time>2021-10-20T09:58:13Z</time>
      </trkpt>
      <trkpt lat="38.0658290" lon="-6.2449480">
        <ele>625.2</ele>
        <time>2021-10-20T09:58:17Z</time>
      </trkpt>
      <trkpt lat="38.0656520" lon="-6.2448190">
        <ele>625.6</ele>
        <time>2021-10-20T09:58:24Z</time>
      </trkpt>
      <trkpt lat="38.0653550" lon="-6.2446490">
        <ele>626.4</ele>
        <time>2021-10-20T09:58:34Z</time>
      </trkpt>
      <trkpt lat="38.0651230" lon="-6.2444930">
        <ele>626.8</ele>
        <time>2021-10-20T09:58:42Z</time>
      </trkpt>
      <trkpt lat="38.0650910" lon="-6.2444730">
        <ele>626.8</ele>
        <time>2021-10-20T09:58:43Z</time>
      </trkpt>
      <trkpt lat="38.0648610" lon="-6.2443080">
        <ele>626.6</ele>
        <time>2021-10-20T09:58:50Z</time>
      </trkpt>
      <trkpt lat="38.0647420" lon="-6.2442100">
        <ele>626.4</ele>
        <time>2021-10-20T09:58:53Z</time>
      </trkpt>
      <trkpt lat="38.0645540" lon="-6.2440570">
        <ele>626.0</ele>
        <time>2021-10-20T09:58:58Z</time>
      </trkpt>
      <trkpt lat="38.0644260" lon="-6.2439730">
        <ele>625.8</ele>
        <time>2021-10-20T09:59:01Z</time>
      </trkpt>
      <trkpt lat="38.0643530" lon="-6.2439320">
        <ele>625.4</ele>
        <time>2021-10-20T09:59:03Z</time>
      </trkpt>
      <trkpt lat="38.0642350" lon="-6.2438540">
        <ele>625.0</ele>
        <time>2021-10-20T09:59:06Z</time>
      </trkpt>
      <trkpt lat="38.0640540" lon="-6.2437390">
        <ele>624.8</ele>
        <time>2021-10-20T09:59:11Z</time>
      </trkpt>
      <trkpt lat="38.0638970" lon="-6.2436370">
        <ele>624.4</ele>
        <time>2021-10-20T09:59:15Z</time>
      </trkpt>
      <trkpt lat="38.0636940" lon="-6.2435060">
        <ele>624.0</ele>
        <time>2021-10-20T09:59:20Z</time>
      </trkpt>
      <trkpt lat="38.0636520" lon="-6.2434810">
        <ele>624.0</ele>
        <time>2021-10-20T09:59:21Z</time>
      </trkpt>
      <trkpt lat="38.0635200" lon="-6.2434020">
        <ele>623.4</ele>
        <time>2021-10-20T09:59:24Z</time>
      </trkpt>
      <trkpt lat="38.0634750" lon="-6.2433770">
        <ele>623.4</ele>
        <time>2021-10-20T09:59:25Z</time>
      </trkpt>
      <trkpt lat="38.0633410" lon="-6.2433020">
        <ele>623.0</ele>
        <time>2021-10-20T09:59:28Z</time>
      </trkpt>
      <trkpt lat="38.0632470" lon="-6.2432590">
        <ele>622.8</ele>
        <time>2021-10-20T09:59:30Z</time>
      </trkpt>
      <trkpt lat="38.0630470" lon="-6.2431760">
        <ele>622.4</ele>
        <time>2021-10-20T09:59:34Z</time>
      </trkpt>
      <trkpt lat="38.0629340" lon="-6.2431350">
        <ele>622.2</ele>
        <time>2021-10-20T09:59:36Z</time>
      </trkpt>
      <trkpt lat="38.0628740" lon="-6.2431160">
        <ele>621.8</ele>
        <time>2021-10-20T09:59:37Z</time>
      </trkpt>
      <trkpt lat="38.0627460" lon="-6.2430770">
        <ele>621.2</ele>
        <time>2021-10-20T09:59:39Z</time>
      </trkpt>
      <trkpt lat="38.0626300" lon="-6.2430430">
        <ele>620.6</ele>
        <time>2021-10-20T09:59:41Z</time>
      </trkpt>
      <trkpt lat="38.0624280" lon="-6.2429840">
        <ele>619.8</ele>
        <time>2021-10-20T09:59:44Z</time>
      </trkpt>
      <trkpt lat="38.0623290" lon="-6.2429230">
        <ele>619.4</ele>
        <time>2021-10-20T09:59:46Z</time>
      </trkpt>
      <trkpt lat="38.0622690" lon="-6.2428750">
        <ele>619.2</ele>
        <time>2021-10-20T09:59:47Z</time>
      </trkpt>
      <trkpt lat="38.0621060" lon="-6.2426940">
        <ele>618.6</ele>
        <time>2021-10-20T09:59:51Z</time>
      </trkpt>
      <trkpt lat="38.0619650" lon="-6.2425660">
        <ele>618.4</ele>
        <time>2021-10-20T09:59:55Z</time>
      </trkpt>
      <trkpt lat="38.0619290" lon="-6.2425460">
        <ele>618.4</ele>
        <time>2021-10-20T09:59:56Z</time>
      </trkpt>
      <trkpt lat="38.0616400" lon="-6.2424240">
        <ele>618.6</ele>
        <time>2021-10-20T10:00:04Z</time>
      </trkpt>
      <trkpt lat="38.0614680" lon="-6.2423640">
        <ele>619.0</ele>
        <time>2021-10-20T10:00:09Z</time>
      </trkpt>
      <trkpt lat="38.0614070" lon="-6.2423310">
        <ele>619.0</ele>
        <time>2021-10-20T10:00:11Z</time>
      </trkpt>
      <trkpt lat="38.0612370" lon="-6.2422560">
        <ele>619.4</ele>
        <time>2021-10-20T10:00:16Z</time>
      </trkpt>
      <trkpt lat="38.0608980" lon="-6.2421260">
        <ele>619.6</ele>
        <time>2021-10-20T10:00:25Z</time>
      </trkpt>
      <trkpt lat="38.0607220" lon="-6.2420550">
        <ele>619.6</ele>
        <time>2021-10-20T10:00:29Z</time>
      </trkpt>
      <trkpt lat="38.0605740" lon="-6.2419970">
        <ele>619.2</ele>
        <time>2021-10-20T10:00:32Z</time>
      </trkpt>
      <trkpt lat="38.0602270" lon="-6.2418510">
        <ele>618.2</ele>
        <time>2021-10-20T10:00:39Z</time>
      </trkpt>
      <trkpt lat="38.0601660" lon="-6.2418280">
        <ele>618.0</ele>
        <time>2021-10-20T10:00:40Z</time>
      </trkpt>
      <trkpt lat="38.0598090" lon="-6.2416880">
        <ele>617.0</ele>
        <time>2021-10-20T10:00:48Z</time>
      </trkpt>
      <trkpt lat="38.0597650" lon="-6.2416720">
        <ele>617.0</ele>
        <time>2021-10-20T10:00:49Z</time>
      </trkpt>
      <trkpt lat="38.0593720" lon="-6.2414960">
        <ele>616.8</ele>
        <time>2021-10-20T10:00:58Z</time>
      </trkpt>
      <trkpt lat="38.0590510" lon="-6.2413630">
        <ele>616.4</ele>
        <time>2021-10-20T10:01:05Z</time>
      </trkpt>
      <trkpt lat="38.0587940" lon="-6.2412430">
        <ele>616.2</ele>
        <time>2021-10-20T10:01:10Z</time>
      </trkpt>
      <trkpt lat="38.0587170" lon="-6.2412150">
        <ele>616.0</ele>
        <time>2021-10-20T10:01:11Z</time>
      </trkpt>
      <trkpt lat="38.0585080" lon="-6.2411320">
        <ele>615.2</ele>
        <time>2021-10-20T10:01:14Z</time>
      </trkpt>
      <trkpt lat="38.0583180" lon="-6.2410590">
        <ele>614.4</ele>
        <time>2021-10-20T10:01:16Z</time>
      </trkpt>
      <trkpt lat="38.0582430" lon="-6.2410320">
        <ele>613.6</ele>
        <time>2021-10-20T10:01:17Z</time>
      </trkpt>
      <trkpt lat="38.0580480" lon="-6.2409680">
        <ele>612.2</ele>
        <time>2021-10-20T10:01:19Z</time>
      </trkpt>
      <trkpt lat="38.0578380" lon="-6.2409190">
        <ele>610.8</ele>
        <time>2021-10-20T10:01:21Z</time>
      </trkpt>
      <trkpt lat="38.0575920" lon="-6.2408800">
        <ele>609.0</ele>
        <time>2021-10-20T10:01:23Z</time>
      </trkpt>
      <trkpt lat="38.0573830" lon="-6.2408490">
        <ele>606.8</ele>
        <time>2021-10-20T10:01:25Z</time>
      </trkpt>
      <trkpt lat="38.0572650" lon="-6.2408280">
        <ele>605.6</ele>
        <time>2021-10-20T10:01:26Z</time>
      </trkpt>
      <trkpt lat="38.0571260" lon="-6.2407960">
        <ele>604.8</ele>
        <time>2021-10-20T10:01:27Z</time>
      </trkpt>
      <trkpt lat="38.0570370" lon="-6.2407660">
        <ele>603.2</ele>
        <time>2021-10-20T10:01:28Z</time>
      </trkpt>
      <trkpt lat="38.0568290" lon="-6.2406670">
        <ele>600.8</ele>
        <time>2021-10-20T10:01:30Z</time>
      </trkpt>
      <trkpt lat="38.0567370" lon="-6.2406100">
        <ele>600.2</ele>
        <time>2021-10-20T10:01:31Z</time>
      </trkpt>
      <trkpt lat="38.0566510" lon="-6.2405530">
        <ele>599.0</ele>
        <time>2021-10-20T10:01:32Z</time>
      </trkpt>
      <trkpt lat="38.0564760" lon="-6.2404400">
        <ele>597.6</ele>
        <time>2021-10-20T10:01:34Z</time>
      </trkpt>
      <trkpt lat="38.0564200" lon="-6.2404030">
        <ele>597.2</ele>
        <time>2021-10-20T10:01:35Z</time>
      </trkpt>
      <trkpt lat="38.0561250" lon="-6.2401980">
        <ele>596.8</ele>
        <time>2021-10-20T10:01:40Z</time>
      </trkpt>
      <trkpt lat="38.0559160" lon="-6.2400610">
        <ele>597.0</ele>
        <time>2021-10-20T10:01:45Z</time>
      </trkpt>
      <trkpt lat="38.0557140" lon="-6.2399220">
        <ele>597.4</ele>
        <time>2021-10-20T10:01:51Z</time>
      </trkpt>
      <trkpt lat="38.0556290" lon="-6.2398770">
        <ele>597.2</ele>
        <time>2021-10-20T10:01:53Z</time>
      </trkpt>
      <trkpt lat="38.0554670" lon="-6.2398470">
        <ele>597.0</ele>
        <time>2021-10-20T10:01:56Z</time>
      </trkpt>
      <trkpt lat="38.0552370" lon="-6.2398240">
        <ele>596.4</ele>
        <time>2021-10-20T10:01:59Z</time>
      </trkpt>
      <trkpt lat="38.0551700" lon="-6.2398140">
        <ele>596.2</ele>
        <time>2021-10-20T10:02:00Z</time>
      </trkpt>
      <trkpt lat="38.0549010" lon="-6.2397850">
        <ele>594.8</ele>
        <time>2021-10-20T10:02:03Z</time>
      </trkpt>
      <trkpt lat="38.0547070" lon="-6.2397670">
        <ele>593.2</ele>
        <time>2021-10-20T10:02:05Z</time>
      </trkpt>
      <trkpt lat="38.0545870" lon="-6.2397510">
        <ele>592.2</ele>
        <time>2021-10-20T10:02:06Z</time>
      </trkpt>
      <trkpt lat="38.0544120" lon="-6.2397170">
        <ele>590.6</ele>
        <time>2021-10-20T10:02:08Z</time>
      </trkpt>
      <trkpt lat="38.0542440" lon="-6.2396410">
        <ele>589.0</ele>
        <time>2021-10-20T10:02:10Z</time>
      </trkpt>
      <trkpt lat="38.0541100" lon="-6.2395200">
        <ele>587.4</ele>
        <time>2021-10-20T10:02:12Z</time>
      </trkpt>
      <trkpt lat="38.0540710" lon="-6.2394790">
        <ele>586.8</ele>
        <time>2021-10-20T10:02:13Z</time>
      </trkpt>
      <trkpt lat="38.0540250" lon="-6.2394320">
        <ele>585.4</ele>
        <time>2021-10-20T10:02:14Z</time>
      </trkpt>
      <trkpt lat="38.0539410" lon="-6.2393510">
        <ele>584.2</ele>
        <time>2021-10-20T10:02:16Z</time>
      </trkpt>
      <trkpt lat="38.0538680" lon="-6.2392820">
        <ele>583.0</ele>
        <time>2021-10-20T10:02:18Z</time>
      </trkpt>
      <trkpt lat="38.0537770" lon="-6.2391970">
        <ele>581.8</ele>
        <time>2021-10-20T10:02:21Z</time>
      </trkpt>
      <trkpt lat="38.0537380" lon="-6.2391380">
        <ele>581.6</ele>
        <time>2021-10-20T10:02:23Z</time>
      </trkpt>
      <trkpt lat="38.0537450" lon="-6.2390150">
        <ele>581.0</ele>
        <time>2021-10-20T10:02:27Z</time>
      </trkpt>
      <trkpt lat="38.0537520" lon="-6.2390010">
        <ele>581.0</ele>
        <time>2021-10-20T10:02:28Z</time>
      </trkpt>
      <trkpt lat="38.0537530" lon="-6.2389970">
        <ele>581.0</ele>
        <time>2021-10-20T10:02:31Z</time>
      </trkpt>
      <trkpt lat="38.0537740" lon="-6.2386230">
        <ele>589.0</ele>
        <time>2021-10-20T10:05:16Z</time>
      </trkpt>
      <trkpt lat="38.0537450" lon="-6.2386210">
        <ele>589.0</ele>
        <time>2021-10-20T10:05:17Z</time>
      </trkpt>
      <trkpt lat="38.0537180" lon="-6.2386210">
        <ele>589.0</ele>
        <time>2021-10-20T10:05:18Z</time>
      </trkpt>
      <trkpt lat="38.0535670" lon="-6.2386330">
        <ele>588.6</ele>
        <time>2021-10-20T10:05:24Z</time>
      </trkpt>
      <trkpt lat="38.0533970" lon="-6.2386330">
        <ele>588.4</ele>
        <time>2021-10-20T10:05:29Z</time>
      </trkpt>
      <trkpt lat="38.0532630" lon="-6.2386200">
        <ele>588.2</ele>
        <time>2021-10-20T10:05:33Z</time>
      </trkpt>
      <trkpt lat="38.0532280" lon="-6.2386130">
        <ele>588.0</ele>
        <time>2021-10-20T10:05:34Z</time>
      </trkpt>
      <trkpt lat="38.0530400" lon="-6.2385740">
        <ele>587.4</ele>
        <time>2021-10-20T10:05:39Z</time>
      </trkpt>
      <trkpt lat="38.0528500" lon="-6.2385190">
        <ele>587.0</ele>
        <time>2021-10-20T10:05:44Z</time>
      </trkpt>
      <trkpt lat="38.0527360" lon="-6.2384740">
        <ele>586.6</ele>
        <time>2021-10-20T10:05:47Z</time>
      </trkpt>
      <trkpt lat="38.0526150" lon="-6.2384220">
        <ele>586.0</ele>
        <time>2021-10-20T10:05:50Z</time>
      </trkpt>
      <trkpt lat="38.0524260" lon="-6.2383310">
        <ele>584.8</ele>
        <time>2021-10-20T10:05:55Z</time>
      </trkpt>
      <trkpt lat="38.0523670" lon="-6.2383040">
        <ele>584.6</ele>
        <time>2021-10-20T10:05:57Z</time>
      </trkpt>
      <trkpt lat="38.0523090" lon="-6.2382760">
        <ele>583.8</ele>
        <time>2021-10-20T10:06:01Z</time>
      </trkpt>
      <trkpt lat="38.0523090" lon="-6.2382760">
        <ele>583.8</ele>
        <time>2021-10-20T10:06:02Z</time>
      </trkpt>
      <trkpt lat="38.0522910" lon="-6.2382550">
        <ele>583.4</ele>
        <time>2021-10-20T10:06:58Z</time>
      </trkpt>
      <trkpt lat="38.0522650" lon="-6.2382430">
        <ele>583.4</ele>
        <time>2021-10-20T10:06:59Z</time>
      </trkpt>
      <trkpt lat="38.0522350" lon="-6.2382280">
        <ele>583.4</ele>
        <time>2021-10-20T10:07:00Z</time>
      </trkpt>
      <trkpt lat="38.0520140" lon="-6.2381200">
        <ele>583.2</ele>
        <time>2021-10-20T10:07:06Z</time>
      </trkpt>
      <trkpt lat="38.0518190" lon="-6.2380230">
        <ele>583.0</ele>
        <time>2021-10-20T10:07:11Z</time>
      </trkpt>
      <trkpt lat="38.0517240" lon="-6.2379800">
        <ele>582.6</ele>
        <time>2021-10-20T10:07:13Z</time>
      </trkpt>
      <trkpt lat="38.0515970" lon="-6.2379250">
        <ele>582.4</ele>
        <time>2021-10-20T10:07:16Z</time>
      </trkpt>
      <trkpt lat="38.0513560" lon="-6.2378050">
        <ele>582.0</ele>
        <time>2021-10-20T10:07:22Z</time>
      </trkpt>
      <trkpt lat="38.0512750" lon="-6.2377610">
        <ele>582.0</ele>
        <time>2021-10-20T10:07:24Z</time>
      </trkpt>
      <trkpt lat="38.0511100" lon="-6.2376710">
        <ele>582.0</ele>
        <time>2021-10-20T10:07:28Z</time>
      </trkpt>
      <trkpt lat="38.0509400" lon="-6.2375750">
        <ele>581.2</ele>
        <time>2021-10-20T10:07:32Z</time>
      </trkpt>
      <trkpt lat="38.0508770" lon="-6.2375320">
        <ele>580.8</ele>
        <time>2021-10-20T10:07:34Z</time>
      </trkpt>
      <trkpt lat="38.0508520" lon="-6.2375090">
        <ele>580.6</ele>
        <time>2021-10-20T10:07:35Z</time>
      </trkpt>
      <trkpt lat="38.0507390" lon="-6.2373870">
        <ele>580.0</ele>
        <time>2021-10-20T10:07:40Z</time>
      </trkpt>
      <trkpt lat="38.0506700" lon="-6.2372960">
        <ele>579.6</ele>
        <time>2021-10-20T10:07:44Z</time>
      </trkpt>
      <trkpt lat="38.0504830" lon="-6.2371550">
        <ele>579.0</ele>
        <time>2021-10-20T10:07:48Z</time>
      </trkpt>
      <trkpt lat="38.0503220" lon="-6.2370400">
        <ele>578.8</ele>
        <time>2021-10-20T10:07:52Z</time>
      </trkpt>
      <trkpt lat="38.0502810" lon="-6.2370100">
        <ele>578.6</ele>
        <time>2021-10-20T10:07:53Z</time>
      </trkpt>
      <trkpt lat="38.0501960" lon="-6.2369510">
        <ele>578.4</ele>
        <time>2021-10-20T10:07:55Z</time>
      </trkpt>
      <trkpt lat="38.0499730" lon="-6.2367970">
        <ele>578.0</ele>
        <time>2021-10-20T10:08:00Z</time>
      </trkpt>
      <trkpt lat="38.0499020" lon="-6.2367280">
        <ele>577.6</ele>
        <time>2021-10-20T10:08:02Z</time>
      </trkpt>
      <trkpt lat="38.0498650" lon="-6.2366660">
        <ele>577.4</ele>
        <time>2021-10-20T10:08:03Z</time>
      </trkpt>
      <trkpt lat="38.0498200" lon="-6.2365570">
        <ele>577.2</ele>
        <time>2021-10-20T10:08:05Z</time>
      </trkpt>
      <trkpt lat="38.0497460" lon="-6.2364430">
        <ele>577.2</ele>
        <time>2021-10-20T10:08:08Z</time>
      </trkpt>
      <trkpt lat="38.0496010" lon="-6.2362890">
        <ele>577.0</ele>
        <time>2021-10-20T10:08:13Z</time>
      </trkpt>
      <trkpt lat="38.0494010" lon="-6.2361530">
        <ele>577.2</ele>
        <time>2021-10-20T10:08:19Z</time>
      </trkpt>
      <trkpt lat="38.0493700" lon="-6.2361260">
        <ele>577.2</ele>
        <time>2021-10-20T10:08:20Z</time>
      </trkpt>
      <trkpt lat="38.0491780" lon="-6.2359800">
        <ele>577.6</ele>
        <time>2021-10-20T10:08:27Z</time>
      </trkpt>
      <trkpt lat="38.0490540" lon="-6.2358950">
        <ele>577.6</ele>
        <time>2021-10-20T10:08:29Z</time>
      </trkpt>
      <trkpt lat="38.0488900" lon="-6.2357970">
        <ele>577.4</ele>
        <time>2021-10-20T10:08:32Z</time>
      </trkpt>
      <trkpt lat="38.0487760" lon="-6.2357310">
        <ele>576.6</ele>
        <time>2021-10-20T10:08:34Z</time>
      </trkpt>
      <trkpt lat="38.0487040" lon="-6.2356930">
        <ele>576.0</ele>
        <time>2021-10-20T10:08:35Z</time>
      </trkpt>
      <trkpt lat="38.0485020" lon="-6.2355620">
        <ele>575.0</ele>
        <time>2021-10-20T10:08:39Z</time>
      </trkpt>
      <trkpt lat="38.0484530" lon="-6.2355270">
        <ele>574.6</ele>
        <time>2021-10-20T10:08:40Z</time>
      </trkpt>
      <trkpt lat="38.0483390" lon="-6.2354670">
        <ele>573.8</ele>
        <time>2021-10-20T10:08:42Z</time>
      </trkpt>
      <trkpt lat="38.0482870" lon="-6.2354420">
        <ele>573.4</ele>
        <time>2021-10-20T10:08:44Z</time>
      </trkpt>
      <trkpt lat="38.0480910" lon="-6.2353110">
        <ele>572.6</ele>
        <time>2021-10-20T10:08:46Z</time>
      </trkpt>
      <trkpt lat="38.0479720" lon="-6.2352380">
        <ele>571.6</ele>
        <time>2021-10-20T10:08:49Z</time>
      </trkpt>
      <trkpt lat="38.0477180" lon="-6.2350470">
        <ele>570.4</ele>
        <time>2021-10-20T10:08:53Z</time>
      </trkpt>
      <trkpt lat="38.0476730" lon="-6.2350120">
        <ele>570.2</ele>
        <time>2021-10-20T10:08:54Z</time>
      </trkpt>
      <trkpt lat="38.0474760" lon="-6.2348810">
        <ele>569.2</ele>
        <time>2021-10-20T10:08:59Z</time>
      </trkpt>
      <trkpt lat="38.0474420" lon="-6.2348600">
        <ele>569.2</ele>
        <time>2021-10-20T10:09:00Z</time>
      </trkpt>
      <trkpt lat="38.0473710" lon="-6.2348170">
        <ele>568.2</ele>
        <time>2021-10-20T10:09:02Z</time>
      </trkpt>
      <trkpt lat="38.0472330" lon="-6.2347560">
        <ele>567.0</ele>
        <time>2021-10-20T10:09:06Z</time>
      </trkpt>
      <trkpt lat="38.0472050" lon="-6.2347460">
        <ele>566.8</ele>
        <time>2021-10-20T10:09:07Z</time>
      </trkpt>
      <trkpt lat="38.0471320" lon="-6.2347140">
        <ele>565.8</ele>
        <time>2021-10-20T10:09:10Z</time>
      </trkpt>
      <trkpt lat="38.0471010" lon="-6.2346970">
        <ele>565.0</ele>
        <time>2021-10-20T10:09:12Z</time>
      </trkpt>
      <trkpt lat="38.0471010" lon="-6.2346970">
        <ele>564.2</ele>
        <time>2021-10-20T10:09:13Z</time>
      </trkpt>
      <trkpt lat="38.0469230" lon="-6.2346180">
        <ele>564.0</ele>
        <time>2021-10-20T10:09:36Z</time>
      </trkpt>
      <trkpt lat="38.0468800" lon="-6.2345970">
        <ele>564.0</ele>
        <time>2021-10-20T10:09:38Z</time>
      </trkpt>
      <trkpt lat="38.0468100" lon="-6.2344860">
        <ele>564.2</ele>
        <time>2021-10-20T10:09:43Z</time>
      </trkpt>
      <trkpt lat="38.0468000" lon="-6.2344410">
        <ele>564.2</ele>
        <time>2021-10-20T10:09:45Z</time>
      </trkpt>
      <trkpt lat="38.0467550" lon="-6.2344000">
        <ele>564.4</ele>
        <time>2021-10-20T10:09:48Z</time>
      </trkpt>
      <trkpt lat="38.0466590" lon="-6.2343530">
        <ele>565.2</ele>
        <time>2021-10-20T10:09:53Z</time>
      </trkpt>
      <trkpt lat="38.0466340" lon="-6.2343470">
        <ele>565.2</ele>
        <time>2021-10-20T10:09:54Z</time>
      </trkpt>
      <trkpt lat="38.0466150" lon="-6.2343390">
        <ele>565.4</ele>
        <time>2021-10-20T10:09:55Z</time>
      </trkpt>
      <trkpt lat="38.0465510" lon="-6.2343170">
        <ele>565.6</ele>
        <time>2021-10-20T10:09:58Z</time>
      </trkpt>
      <trkpt lat="38.0464680" lon="-6.2342910">
        <ele>566.0</ele>
        <time>2021-10-20T10:10:02Z</time>
      </trkpt>
      <trkpt lat="38.0464360" lon="-6.2342810">
        <ele>566.2</ele>
        <time>2021-10-20T10:10:03Z</time>
      </trkpt>
      <trkpt lat="38.0463220" lon="-6.2342300">
        <ele>566.4</ele>
        <time>2021-10-20T10:10:07Z</time>
      </trkpt>
      <trkpt lat="38.0462670" lon="-6.2341980">
        <ele>566.4</ele>
        <time>2021-10-20T10:10:10Z</time>
      </trkpt>
      <trkpt lat="38.0461200" lon="-6.2340980">
        <ele>566.4</ele>
        <time>2021-10-20T10:10:14Z</time>
      </trkpt>
      <trkpt lat="38.0460300" lon="-6.2340320">
        <ele>566.4</ele>
        <time>2021-10-20T10:10:17Z</time>
      </trkpt>
      <trkpt lat="38.0459420" lon="-6.2339610">
        <ele>566.4</ele>
        <time>2021-10-20T10:10:20Z</time>
      </trkpt>
      <trkpt lat="38.0458800" lon="-6.2339030">
        <ele>566.2</ele>
        <time>2021-10-20T10:10:22Z</time>
      </trkpt>
      <trkpt lat="38.0458450" lon="-6.2338680">
        <ele>566.2</ele>
        <time>2021-10-20T10:10:23Z</time>
      </trkpt>
      <trkpt lat="38.0458050" lon="-6.2338390">
        <ele>566.0</ele>
        <time>2021-10-20T10:10:24Z</time>
      </trkpt>
      <trkpt lat="38.0456660" lon="-6.2337490">
        <ele>565.4</ele>
        <time>2021-10-20T10:10:28Z</time>
      </trkpt>
      <trkpt lat="38.0455820" lon="-6.2336990">
        <ele>565.2</ele>
        <time>2021-10-20T10:10:29Z</time>
      </trkpt>
      <trkpt lat="38.0454060" lon="-6.2335610">
        <ele>564.0</ele>
        <time>2021-10-20T10:10:33Z</time>
      </trkpt>
      <trkpt lat="38.0453680" lon="-6.2335310">
        <ele>563.8</ele>
        <time>2021-10-20T10:10:34Z</time>
      </trkpt>
      <trkpt lat="38.0453320" lon="-6.2335030">
        <ele>563.6</ele>
        <time>2021-10-20T10:10:35Z</time>
      </trkpt>
      <trkpt lat="38.0452110" lon="-6.2333680">
        <ele>563.4</ele>
        <time>2021-10-20T10:10:39Z</time>
      </trkpt>
      <trkpt lat="38.0451310" lon="-6.2332900">
        <ele>562.8</ele>
        <time>2021-10-20T10:10:41Z</time>
      </trkpt>
      <trkpt lat="38.0450470" lon="-6.2332230">
        <ele>562.4</ele>
        <time>2021-10-20T10:10:43Z</time>
      </trkpt>
      <trkpt lat="38.0449490" lon="-6.2331510">
        <ele>561.8</ele>
        <time>2021-10-20T10:10:45Z</time>
      </trkpt>
      <trkpt lat="38.0448160" lon="-6.2330280">
        <ele>561.2</ele>
        <time>2021-10-20T10:10:48Z</time>
      </trkpt>
      <trkpt lat="38.0447210" lon="-6.2329270">
        <ele>560.6</ele>
        <time>2021-10-20T10:10:50Z</time>
      </trkpt>
      <trkpt lat="38.0446750" lon="-6.2328800">
        <ele>560.0</ele>
        <time>2021-10-20T10:10:51Z</time>
      </trkpt>
      <trkpt lat="38.0446380" lon="-6.2328450">
        <ele>559.4</ele>
        <time>2021-10-20T10:10:53Z</time>
      </trkpt>
      <trkpt lat="38.0444560" lon="-6.2326850">
        <ele>558.4</ele>
        <time>2021-10-20T10:10:56Z</time>
      </trkpt>
      <trkpt lat="38.0443840" lon="-6.2326250">
        <ele>558.0</ele>
        <time>2021-10-20T10:10:58Z</time>
      </trkpt>
      <trkpt lat="38.0442500" lon="-6.2325420">
        <ele>557.2</ele>
        <time>2021-10-20T10:11:02Z</time>
      </trkpt>
      <trkpt lat="38.0442180" lon="-6.2325360">
        <ele>557.2</ele>
        <time>2021-10-20T10:11:03Z</time>
      </trkpt>
      <trkpt lat="38.0441940" lon="-6.2325280">
        <ele>557.2</ele>
        <time>2021-10-20T10:11:06Z</time>
      </trkpt>
      <trkpt lat="38.0441940" lon="-6.2325280">
        <ele>557.2</ele>
        <time>2021-10-20T10:11:08Z</time>
      </trkpt>
      <trkpt lat="38.0441710" lon="-6.2324920">
        <ele>557.0</ele>
        <time>2021-10-20T10:11:21Z</time>
      </trkpt>
      <trkpt lat="38.0441490" lon="-6.2324550">
        <ele>557.2</ele>
        <time>2021-10-20T10:11:23Z</time>
      </trkpt>
      <trkpt lat="38.0440270" lon="-6.2323510">
        <ele>557.0</ele>
        <time>2021-10-20T10:11:28Z</time>
      </trkpt>
      <trkpt lat="38.0439050" lon="-6.2322930">
        <ele>557.4</ele>
        <time>2021-10-20T10:11:32Z</time>
      </trkpt>
      <trkpt lat="38.0437450" lon="-6.2321770">
        <ele>557.8</ele>
        <time>2021-10-20T10:11:37Z</time>
      </trkpt>
      <trkpt lat="38.0435280" lon="-6.2321110">
        <ele>558.4</ele>
        <time>2021-10-20T10:11:43Z</time>
      </trkpt>
      <trkpt lat="38.0434950" lon="-6.2320980">
        <ele>558.6</ele>
        <time>2021-10-20T10:11:44Z</time>
      </trkpt>
      <trkpt lat="38.0433920" lon="-6.2320160">
        <ele>559.0</ele>
        <time>2021-10-20T10:11:48Z</time>
      </trkpt>
      <trkpt lat="38.0431870" lon="-6.2318460">
        <ele>559.4</ele>
        <time>2021-10-20T10:11:54Z</time>
      </trkpt>
      <trkpt lat="38.0431130" lon="-6.2317630">
        <ele>559.4</ele>
        <time>2021-10-20T10:11:56Z</time>
      </trkpt>
      <trkpt lat="38.0430270" lon="-6.2316770">
        <ele>559.4</ele>
        <time>2021-10-20T10:11:58Z</time>
      </trkpt>
      <trkpt lat="38.0429840" lon="-6.2316310">
        <ele>559.2</ele>
        <time>2021-10-20T10:11:59Z</time>
      </trkpt>
      <trkpt lat="38.0428510" lon="-6.2314650">
        <ele>558.0</ele>
        <time>2021-10-20T10:12:02Z</time>
      </trkpt>
      <trkpt lat="38.0427500" lon="-6.2313530">
        <ele>557.4</ele>
        <time>2021-10-20T10:12:04Z</time>
      </trkpt>
      <trkpt lat="38.0426500" lon="-6.2312530">
        <ele>556.0</ele>
        <time>2021-10-20T10:12:06Z</time>
      </trkpt>
      <trkpt lat="38.0425630" lon="-6.2311610">
        <ele>555.2</ele>
        <time>2021-10-20T10:12:08Z</time>
      </trkpt>
      <trkpt lat="38.0423650" lon="-6.2310250">
        <ele>555.0</ele>
        <time>2021-10-20T10:12:13Z</time>
      </trkpt>
      <trkpt lat="38.0421880" lon="-6.2309230">
        <ele>555.6</ele>
        <time>2021-10-20T10:12:19Z</time>
      </trkpt>
      <trkpt lat="38.0420790" lon="-6.2308560">
        <ele>556.8</ele>
        <time>2021-10-20T10:12:24Z</time>
      </trkpt>
      <trkpt lat="38.0420320" lon="-6.2308280">
        <ele>557.2</ele>
        <time>2021-10-20T10:12:26Z</time>
      </trkpt>
      <trkpt lat="38.0418760" lon="-6.2307420">
        <ele>557.8</ele>
        <time>2021-10-20T10:12:31Z</time>
      </trkpt>
      <trkpt lat="38.0417280" lon="-6.2306550">
        <ele>557.8</ele>
        <time>2021-10-20T10:12:36Z</time>
      </trkpt>
      <trkpt lat="38.0415610" lon="-6.2305190">
        <ele>557.8</ele>
        <time>2021-10-20T10:12:41Z</time>
      </trkpt>
      <trkpt lat="38.0414170" lon="-6.2303060">
        <ele>557.8</ele>
        <time>2021-10-20T10:12:48Z</time>
      </trkpt>
      <trkpt lat="38.0413740" lon="-6.2302550">
        <ele>558.2</ele>
        <time>2021-10-20T10:12:50Z</time>
      </trkpt>
      <trkpt lat="38.0412880" lon="-6.2302220">
        <ele>558.8</ele>
        <time>2021-10-20T10:12:53Z</time>
      </trkpt>
      <trkpt lat="38.0411540" lon="-6.2301130">
        <ele>559.2</ele>
        <time>2021-10-20T10:12:58Z</time>
      </trkpt>
      <trkpt lat="38.0411130" lon="-6.2300530">
        <ele>559.4</ele>
        <time>2021-10-20T10:13:00Z</time>
      </trkpt>
      <trkpt lat="38.0410080" lon="-6.2299630">
        <ele>559.6</ele>
        <time>2021-10-20T10:13:04Z</time>
      </trkpt>
      <trkpt lat="38.0409760" lon="-6.2299480">
        <ele>559.6</ele>
        <time>2021-10-20T10:13:05Z</time>
      </trkpt>
      <trkpt lat="38.0407930" lon="-6.2298250">
        <ele>559.8</ele>
        <time>2021-10-20T10:13:10Z</time>
      </trkpt>
      <trkpt lat="38.0407540" lon="-6.2297990">
        <ele>560.0</ele>
        <time>2021-10-20T10:13:11Z</time>
      </trkpt>
      <trkpt lat="38.0406510" lon="-6.2297410">
        <ele>560.0</ele>
        <time>2021-10-20T10:13:14Z</time>
      </trkpt>
      <trkpt lat="38.0406220" lon="-6.2297250">
        <ele>560.0</ele>
        <time>2021-10-20T10:13:15Z</time>
      </trkpt>
      <trkpt lat="38.0404350" lon="-6.2296480">
        <ele>560.0</ele>
        <time>2021-10-20T10:13:20Z</time>
      </trkpt>
      <trkpt lat="38.0402580" lon="-6.2295400">
        <ele>560.2</ele>
        <time>2021-10-20T10:13:25Z</time>
      </trkpt>
      <trkpt lat="38.0399980" lon="-6.2293660">
        <ele>560.0</ele>
        <time>2021-10-20T10:13:32Z</time>
      </trkpt>
      <trkpt lat="38.0397640" lon="-6.2292120">
        <ele>559.8</ele>
        <time>2021-10-20T10:13:40Z</time>
      </trkpt>
      <trkpt lat="38.0395520" lon="-6.2290480">
        <ele>559.4</ele>
        <time>2021-10-20T10:13:46Z</time>
      </trkpt>
      <trkpt lat="38.0392890" lon="-6.2288160">
        <ele>558.6</ele>
        <time>2021-10-20T10:13:52Z</time>
      </trkpt>
      <trkpt lat="38.0392600" lon="-6.2287940">
        <ele>558.0</ele>
        <time>2021-10-20T10:13:53Z</time>
      </trkpt>
      <trkpt lat="38.0391520" lon="-6.2287180">
        <ele>558.0</ele>
        <time>2021-10-20T10:13:56Z</time>
      </trkpt>
      <trkpt lat="38.0389570" lon="-6.2285490">
        <ele>557.4</ele>
        <time>2021-10-20T10:14:01Z</time>
      </trkpt>
      <trkpt lat="38.0388400" lon="-6.2284390">
        <ele>557.0</ele>
        <time>2021-10-20T10:14:04Z</time>
      </trkpt>
      <trkpt lat="38.0387870" lon="-6.2283700">
        <ele>557.0</ele>
        <time>2021-10-20T10:14:06Z</time>
      </trkpt>
      <trkpt lat="38.0387500" lon="-6.2283360">
        <ele>557.0</ele>
        <time>2021-10-20T10:14:07Z</time>
      </trkpt>
      <trkpt lat="38.0387150" lon="-6.2283220">
        <ele>557.4</ele>
        <time>2021-10-20T10:14:08Z</time>
      </trkpt>
      <trkpt lat="38.0386300" lon="-6.2283120">
        <ele>557.4</ele>
        <time>2021-10-20T10:14:10Z</time>
      </trkpt>
      <trkpt lat="38.0385840" lon="-6.2282990">
        <ele>557.6</ele>
        <time>2021-10-20T10:14:11Z</time>
      </trkpt>
      <trkpt lat="38.0385390" lon="-6.2282720">
        <ele>558.0</ele>
        <time>2021-10-20T10:14:12Z</time>
      </trkpt>
      <trkpt lat="38.0384040" lon="-6.2281520">
        <ele>558.0</ele>
        <time>2021-10-20T10:14:16Z</time>
      </trkpt>
      <trkpt lat="38.0383700" lon="-6.2281280">
        <ele>558.0</ele>
        <time>2021-10-20T10:14:17Z</time>
      </trkpt>
      <trkpt lat="38.0382550" lon="-6.2280400">
        <ele>558.2</ele>
        <time>2021-10-20T10:14:20Z</time>
      </trkpt>
      <trkpt lat="38.0381660" lon="-6.2279920">
        <ele>558.4</ele>
        <time>2021-10-20T10:14:22Z</time>
      </trkpt>
      <trkpt lat="38.0379800" lon="-6.2278110">
        <ele>558.6</ele>
        <time>2021-10-20T10:14:27Z</time>
      </trkpt>
      <trkpt lat="38.0379460" lon="-6.2277800">
        <ele>558.6</ele>
        <time>2021-10-20T10:14:28Z</time>
      </trkpt>
      <trkpt lat="38.0377640" lon="-6.2276400">
        <ele>558.0</ele>
        <time>2021-10-20T10:14:33Z</time>
      </trkpt>
      <trkpt lat="38.0375040" lon="-6.2273630">
        <ele>557.8</ele>
        <time>2021-10-20T10:14:40Z</time>
      </trkpt>
      <trkpt lat="38.0373100" lon="-6.2270890">
        <ele>557.2</ele>
        <time>2021-10-20T10:14:46Z</time>
      </trkpt>
      <trkpt lat="38.0372550" lon="-6.2270200">
        <ele>557.2</ele>
        <time>2021-10-20T10:14:48Z</time>
      </trkpt>
      <trkpt lat="38.0370500" lon="-6.2268250">
        <ele>558.0</ele>
        <time>2021-10-20T10:14:55Z</time>
      </trkpt>
      <trkpt lat="38.0369840" lon="-6.2267120">
        <ele>558.4</ele>
        <time>2021-10-20T10:14:58Z</time>
      </trkpt>
      <trkpt lat="38.0369700" lon="-6.2266420">
        <ele>558.6</ele>
        <time>2021-10-20T10:15:00Z</time>
      </trkpt>
      <trkpt lat="38.0369020" lon="-6.2264760">
        <ele>558.8</ele>
        <time>2021-10-20T10:15:05Z</time>
      </trkpt>
      <trkpt lat="38.0367450" lon="-6.2263030">
        <ele>558.8</ele>
        <time>2021-10-20T10:15:10Z</time>
      </trkpt>
      <trkpt lat="38.0367160" lon="-6.2262560">
        <ele>558.8</ele>
        <time>2021-10-20T10:15:11Z</time>
      </trkpt>
      <trkpt lat="38.0366180" lon="-6.2260640">
        <ele>558.2</ele>
        <time>2021-10-20T10:15:15Z</time>
      </trkpt>
      <trkpt lat="38.0365170" lon="-6.2258760">
        <ele>557.6</ele>
        <time>2021-10-20T10:15:19Z</time>
      </trkpt>
      <trkpt lat="38.0364560" lon="-6.2257560">
        <ele>557.6</ele>
        <time>2021-10-20T10:15:22Z</time>
      </trkpt>
      <trkpt lat="38.0363720" lon="-6.2255800">
        <ele>557.6</ele>
        <time>2021-10-20T10:15:26Z</time>
      </trkpt>
      <trkpt lat="38.0363220" lon="-6.2254760">
        <ele>557.6</ele>
        <time>2021-10-20T10:15:28Z</time>
      </trkpt>
      <trkpt lat="38.0362000" lon="-6.2252640">
        <ele>557.6</ele>
        <time>2021-10-20T10:15:33Z</time>
      </trkpt>
      <trkpt lat="38.0360900" lon="-6.2250840">
        <ele>557.6</ele>
        <time>2021-10-20T10:15:37Z</time>
      </trkpt>
      <trkpt lat="38.0360410" lon="-6.2249910">
        <ele>557.6</ele>
        <time>2021-10-20T10:15:39Z</time>
      </trkpt>
      <trkpt lat="38.0359230" lon="-6.2248040">
        <ele>557.6</ele>
        <time>2021-10-20T10:15:44Z</time>
      </trkpt>
      <trkpt lat="38.0358610" lon="-6.2247280">
        <ele>557.4</ele>
        <time>2021-10-20T10:15:46Z</time>
      </trkpt>
      <trkpt lat="38.0358150" lon="-6.2246470">
        <ele>557.2</ele>
        <time>2021-10-20T10:15:48Z</time>
      </trkpt>
      <trkpt lat="38.0357320" lon="-6.2245640">
        <ele>557.0</ele>
        <time>2021-10-20T10:15:51Z</time>
      </trkpt>
      <trkpt lat="38.0356320" lon="-6.2245270">
        <ele>556.2</ele>
        <time>2021-10-20T10:15:53Z</time>
      </trkpt>
      <trkpt lat="38.0355250" lon="-6.2244730">
        <ele>555.4</ele>
        <time>2021-10-20T10:15:55Z</time>
      </trkpt>
      <trkpt lat="38.0354660" lon="-6.2244450">
        <ele>555.2</ele>
        <time>2021-10-20T10:15:56Z</time>
      </trkpt>
      <trkpt lat="38.0352880" lon="-6.2243490">
        <ele>552.8</ele>
        <time>2021-10-20T10:15:59Z</time>
      </trkpt>
      <trkpt lat="38.0352330" lon="-6.2243070">
        <ele>551.4</ele>
        <time>2021-10-20T10:16:00Z</time>
      </trkpt>
      <trkpt lat="38.0351290" lon="-6.2242230">
        <ele>550.0</ele>
        <time>2021-10-20T10:16:02Z</time>
      </trkpt>
      <trkpt lat="38.0349200" lon="-6.2240950">
        <ele>549.0</ele>
        <time>2021-10-20T10:16:06Z</time>
      </trkpt>
      <trkpt lat="38.0348170" lon="-6.2240340">
        <ele>548.8</ele>
        <time>2021-10-20T10:16:08Z</time>
      </trkpt>
      <trkpt lat="38.0346110" lon="-6.2239270">
        <ele>548.0</ele>
        <time>2021-10-20T10:16:12Z</time>
      </trkpt>
      <trkpt lat="38.0345570" lon="-6.2239090">
        <ele>547.8</ele>
        <time>2021-10-20T10:16:13Z</time>
      </trkpt>
      <trkpt lat="38.0343000" lon="-6.2238100">
        <ele>547.2</ele>
        <time>2021-10-20T10:16:18Z</time>
      </trkpt>
      <trkpt lat="38.0342600" lon="-6.2238010">
        <ele>546.8</ele>
        <time>2021-10-20T10:16:19Z</time>
      </trkpt>
      <trkpt lat="38.0342010" lon="-6.2237940">
        <ele>546.8</ele>
        <time>2021-10-20T10:16:20Z</time>
      </trkpt>
      <trkpt lat="38.0340640" lon="-6.2237680">
        <ele>546.4</ele>
        <time>2021-10-20T10:16:23Z</time>
      </trkpt>
      <trkpt lat="38.0339310" lon="-6.2237280">
        <ele>546.0</ele>
        <time>2021-10-20T10:16:26Z</time>
      </trkpt>
      <trkpt lat="38.0338580" lon="-6.2237230">
        <ele>545.8</ele>
        <time>2021-10-20T10:16:28Z</time>
      </trkpt>
      <trkpt lat="38.0338150" lon="-6.2237280">
        <ele>545.8</ele>
        <time>2021-10-20T10:16:29Z</time>
      </trkpt>
      <trkpt lat="38.0337120" lon="-6.2237250">
        <ele>545.8</ele>
        <time>2021-10-20T10:16:31Z</time>
      </trkpt>
      <trkpt lat="38.0336730" lon="-6.2237130">
        <ele>545.8</ele>
        <time>2021-10-20T10:16:32Z</time>
      </trkpt>
      <trkpt lat="38.0336430" lon="-6.2237060">
        <ele>545.8</ele>
        <time>2021-10-20T10:16:33Z</time>
      </trkpt>
      <trkpt lat="38.0336030" lon="-6.2237040">
        <ele>545.8</ele>
        <time>2021-10-20T10:16:34Z</time>
      </trkpt>
      <trkpt lat="38.0335050" lon="-6.2236990">
        <ele>545.8</ele>
        <time>2021-10-20T10:16:36Z</time>
      </trkpt>
      <trkpt lat="38.0333920" lon="-6.2236550">
        <ele>546.0</ele>
        <time>2021-10-20T10:16:39Z</time>
      </trkpt>
      <trkpt lat="38.0333110" lon="-6.2236520">
        <ele>546.2</ele>
        <time>2021-10-20T10:16:41Z</time>
      </trkpt>
      <trkpt lat="38.0331910" lon="-6.2236720">
        <ele>546.8</ele>
        <time>2021-10-20T10:16:44Z</time>
      </trkpt>
      <trkpt lat="38.0331490" lon="-6.2236790">
        <ele>546.8</ele>
        <time>2021-10-20T10:16:45Z</time>
      </trkpt>
      <trkpt lat="38.0330410" lon="-6.2236970">
        <ele>547.0</ele>
        <time>2021-10-20T10:16:48Z</time>
      </trkpt>
      <trkpt lat="38.0330150" lon="-6.2237020">
        <ele>547.0</ele>
        <time>2021-10-20T10:16:49Z</time>
      </trkpt>
      <trkpt lat="38.0328400" lon="-6.2237300">
        <ele>546.6</ele>
        <time>2021-10-20T10:16:54Z</time>
      </trkpt>
      <trkpt lat="38.0326870" lon="-6.2236320">
        <ele>545.6</ele>
        <time>2021-10-20T10:16:58Z</time>
      </trkpt>
      <trkpt lat="38.0326140" lon="-6.2235800">
        <ele>545.2</ele>
        <time>2021-10-20T10:17:00Z</time>
      </trkpt>
      <trkpt lat="38.0325240" lon="-6.2235170">
        <ele>544.6</ele>
        <time>2021-10-20T10:17:02Z</time>
      </trkpt>
      <trkpt lat="38.0324320" lon="-6.2234880">
        <ele>544.0</ele>
        <time>2021-10-20T10:17:04Z</time>
      </trkpt>
      <trkpt lat="38.0323450" lon="-6.2234480">
        <ele>543.6</ele>
        <time>2021-10-20T10:17:06Z</time>
      </trkpt>
      <trkpt lat="38.0321870" lon="-6.2233930">
        <ele>543.2</ele>
        <time>2021-10-20T10:17:09Z</time>
      </trkpt>
      <trkpt lat="38.0321440" lon="-6.2233750">
        <ele>543.0</ele>
        <time>2021-10-20T10:17:10Z</time>
      </trkpt>
      <trkpt lat="38.0320680" lon="-6.2233450">
        <ele>542.6</ele>
        <time>2021-10-20T10:17:12Z</time>
      </trkpt>
      <trkpt lat="38.0319960" lon="-6.2233440">
        <ele>542.2</ele>
        <time>2021-10-20T10:17:14Z</time>
      </trkpt>
      <trkpt lat="38.0318300" lon="-6.2233330">
        <ele>542.2</ele>
        <time>2021-10-20T10:17:18Z</time>
      </trkpt>
      <trkpt lat="38.0317770" lon="-6.2233190">
        <ele>541.8</ele>
        <time>2021-10-20T10:17:19Z</time>
      </trkpt>
      <trkpt lat="38.0316640" lon="-6.2232890">
        <ele>541.2</ele>
        <time>2021-10-20T10:17:21Z</time>
      </trkpt>
      <trkpt lat="38.0315600" lon="-6.2232590">
        <ele>540.8</ele>
        <time>2021-10-20T10:17:23Z</time>
      </trkpt>
      <trkpt lat="38.0314590" lon="-6.2232510">
        <ele>540.2</ele>
        <time>2021-10-20T10:17:25Z</time>
      </trkpt>
      <trkpt lat="38.0313960" lon="-6.2232510">
        <ele>539.8</ele>
        <time>2021-10-20T10:17:26Z</time>
      </trkpt>
      <trkpt lat="38.0313100" lon="-6.2232880">
        <ele>538.8</ele>
        <time>2021-10-20T10:17:28Z</time>
      </trkpt>
      <trkpt lat="38.0312300" lon="-6.2234060">
        <ele>537.6</ele>
        <time>2021-10-20T10:17:31Z</time>
      </trkpt>
      <trkpt lat="38.0312150" lon="-6.2234510">
        <ele>537.2</ele>
        <time>2021-10-20T10:17:32Z</time>
      </trkpt>
      <trkpt lat="38.0312030" lon="-6.2234910">
        <ele>536.4</ele>
        <time>2021-10-20T10:17:33Z</time>
      </trkpt>
      <trkpt lat="38.0311620" lon="-6.2235740">
        <ele>535.4</ele>
        <time>2021-10-20T10:17:36Z</time>
      </trkpt>
      <trkpt lat="38.0311430" lon="-6.2235840">
        <ele>535.2</ele>
        <time>2021-10-20T10:17:37Z</time>
      </trkpt>
      <trkpt lat="38.0310270" lon="-6.2236540">
        <ele>535.2</ele>
        <time>2021-10-20T10:17:42Z</time>
      </trkpt>
      <trkpt lat="38.0309480" lon="-6.2236550">
        <ele>535.2</ele>
        <time>2021-10-20T10:17:45Z</time>
      </trkpt>
      <trkpt lat="38.0309260" lon="-6.2236510">
        <ele>535.2</ele>
        <time>2021-10-20T10:17:46Z</time>
      </trkpt>
      <trkpt lat="38.0309160" lon="-6.2236480">
        <ele>535.2</ele>
        <time>2021-10-20T10:17:48Z</time>
      </trkpt>
      <trkpt lat="38.0309160" lon="-6.2236480">
        <ele>535.2</ele>
        <time>2021-10-20T10:17:49Z</time>
      </trkpt>
      <trkpt lat="38.0308800" lon="-6.2236050">
        <ele>535.0</ele>
        <time>2021-10-20T10:18:00Z</time>
      </trkpt>
      <trkpt lat="38.0308340" lon="-6.2235460">
        <ele>535.2</ele>
        <time>2021-10-20T10:18:02Z</time>
      </trkpt>
      <trkpt lat="38.0306450" lon="-6.2233400">
        <ele>534.6</ele>
        <time>2021-10-20T10:18:07Z</time>
      </trkpt>
      <trkpt lat="38.0305980" lon="-6.2232910">
        <ele>534.4</ele>
        <time>2021-10-20T10:18:08Z</time>
      </trkpt>
      <trkpt lat="38.0304010" lon="-6.2230490">
        <ele>533.8</ele>
        <time>2021-10-20T10:18:12Z</time>
      </trkpt>
      <trkpt lat="38.0303500" lon="-6.2229770">
        <ele>533.4</ele>
        <time>2021-10-20T10:18:13Z</time>
      </trkpt>
      <trkpt lat="38.0301470" lon="-6.2226660">
        <ele>532.2</ele>
        <time>2021-10-20T10:18:17Z</time>
      </trkpt>
      <trkpt lat="38.0300960" lon="-6.2225830">
        <ele>532.0</ele>
        <time>2021-10-20T10:18:18Z</time>
      </trkpt>
      <trkpt lat="38.0299890" lon="-6.2224190">
        <ele>531.2</ele>
        <time>2021-10-20T10:18:20Z</time>
      </trkpt>
      <trkpt lat="38.0298310" lon="-6.2221920">
        <ele>529.8</ele>
        <time>2021-10-20T10:18:23Z</time>
      </trkpt>
      <trkpt lat="38.0297330" lon="-6.2220640">
        <ele>529.0</ele>
        <time>2021-10-20T10:18:25Z</time>
      </trkpt>
      <trkpt lat="38.0296630" lon="-6.2219850">
        <ele>528.6</ele>
        <time>2021-10-20T10:18:26Z</time>
      </trkpt>
      <trkpt lat="38.0294330" lon="-6.2217810">
        <ele>527.8</ele>
        <time>2021-10-20T10:18:30Z</time>
      </trkpt>
      <trkpt lat="38.0293750" lon="-6.2217460">
        <ele>527.8</ele>
        <time>2021-10-20T10:18:31Z</time>
      </trkpt>
      <trkpt lat="38.0292180" lon="-6.2217050">
        <ele>527.6</ele>
        <time>2021-10-20T10:18:34Z</time>
      </trkpt>
      <trkpt lat="38.0290520" lon="-6.2217290">
        <ele>527.6</ele>
        <time>2021-10-20T10:18:37Z</time>
      </trkpt>
      <trkpt lat="38.0290100" lon="-6.2217320">
        <ele>527.6</ele>
        <time>2021-10-20T10:18:38Z</time>
      </trkpt>
      <trkpt lat="38.0289600" lon="-6.2217290">
        <ele>527.6</ele>
        <time>2021-10-20T10:18:39Z</time>
      </trkpt>
      <trkpt lat="38.0288580" lon="-6.2216870">
        <ele>527.4</ele>
        <time>2021-10-20T10:18:41Z</time>
      </trkpt>
      <trkpt lat="38.0288160" lon="-6.2216540">
        <ele>527.4</ele>
        <time>2021-10-20T10:18:42Z</time>
      </trkpt>
      <trkpt lat="38.0287800" lon="-6.2216170">
        <ele>527.4</ele>
        <time>2021-10-20T10:18:43Z</time>
      </trkpt>
      <trkpt lat="38.0287180" lon="-6.2215340">
        <ele>527.4</ele>
        <time>2021-10-20T10:18:45Z</time>
      </trkpt>
      <trkpt lat="38.0286750" lon="-6.2214360">
        <ele>527.2</ele>
        <time>2021-10-20T10:18:47Z</time>
      </trkpt>
      <trkpt lat="38.0286560" lon="-6.2213870">
        <ele>527.0</ele>
        <time>2021-10-20T10:18:48Z</time>
      </trkpt>
      <trkpt lat="38.0285690" lon="-6.2212890">
        <ele>527.0</ele>
        <time>2021-10-20T10:18:51Z</time>
      </trkpt>
      <trkpt lat="38.0285390" lon="-6.2212810">
        <ele>526.8</ele>
        <time>2021-10-20T10:18:52Z</time>
      </trkpt>
      <trkpt lat="38.0284330" lon="-6.2212710">
        <ele>526.6</ele>
        <time>2021-10-20T10:18:55Z</time>
      </trkpt>
      <trkpt lat="38.0283970" lon="-6.2212680">
        <ele>526.4</ele>
        <time>2021-10-20T10:18:57Z</time>
      </trkpt>
      <trkpt lat="38.0283880" lon="-6.2212690">
        <ele>526.2</ele>
        <time>2021-10-20T10:18:59Z</time>
      </trkpt>
      <trkpt lat="38.0283150" lon="-6.2212360">
        <ele>525.4</ele>
        <time>2021-10-20T10:19:41Z</time>
      </trkpt>
      <trkpt lat="38.0282930" lon="-6.2212290">
        <ele>525.4</ele>
        <time>2021-10-20T10:19:42Z</time>
      </trkpt>
      <trkpt lat="38.0282710" lon="-6.2212340">
        <ele>525.2</ele>
        <time>2021-10-20T10:19:43Z</time>
      </trkpt>
      <trkpt lat="38.0282520" lon="-6.2212410">
        <ele>525.2</ele>
        <time>2021-10-20T10:19:44Z</time>
      </trkpt>
      <trkpt lat="38.0282320" lon="-6.2212410">
        <ele>525.0</ele>
        <time>2021-10-20T10:19:47Z</time>
      </trkpt>
      <trkpt lat="38.0281910" lon="-6.2212360">
        <ele>524.6</ele>
        <time>2021-10-20T10:20:04Z</time>
      </trkpt>
      <trkpt lat="38.0281220" lon="-6.2212090">
        <ele>524.6</ele>
        <time>2021-10-20T10:20:06Z</time>
      </trkpt>
      <trkpt lat="38.0279230" lon="-6.2211250">
        <ele>524.6</ele>
        <time>2021-10-20T10:20:11Z</time>
      </trkpt>
      <trkpt lat="38.0278250" lon="-6.2210790">
        <ele>524.6</ele>
        <time>2021-10-20T10:20:13Z</time>
      </trkpt>
      <trkpt lat="38.0276090" lon="-6.2209540">
        <ele>523.8</ele>
        <time>2021-10-20T10:20:17Z</time>
      </trkpt>
      <trkpt lat="38.0274860" lon="-6.2208820">
        <ele>523.0</ele>
        <time>2021-10-20T10:20:19Z</time>
      </trkpt>
      <trkpt lat="38.0272990" lon="-6.2207710">
        <ele>522.0</ele>
        <time>2021-10-20T10:20:22Z</time>
      </trkpt>
      <trkpt lat="38.0271730" lon="-6.2206980">
        <ele>521.4</ele>
        <time>2021-10-20T10:20:24Z</time>
      </trkpt>
      <trkpt lat="38.0270430" lon="-6.2206430">
        <ele>520.6</ele>
        <time>2021-10-20T10:20:26Z</time>
      </trkpt>
      <trkpt lat="38.0268590" lon="-6.2205700">
        <ele>519.6</ele>
        <time>2021-10-20T10:20:29Z</time>
      </trkpt>
      <trkpt lat="38.0267940" lon="-6.2205370">
        <ele>518.8</ele>
        <time>2021-10-20T10:20:30Z</time>
      </trkpt>
      <trkpt lat="38.0267190" lon="-6.2204760">
        <ele>518.0</ele>
        <time>2021-10-20T10:20:32Z</time>
      </trkpt>
      <trkpt lat="38.0266960" lon="-6.2204350">
        <ele>517.8</ele>
        <time>2021-10-20T10:20:33Z</time>
      </trkpt>
      <trkpt lat="38.0266840" lon="-6.2203630">
        <ele>516.6</ele>
        <time>2021-10-20T10:20:35Z</time>
      </trkpt>
      <trkpt lat="38.0266840" lon="-6.2203330">
        <ele>516.4</ele>
        <time>2021-10-20T10:20:36Z</time>
      </trkpt>
      <trkpt lat="38.0266910" lon="-6.2202660">
        <ele>515.6</ele>
        <time>2021-10-20T10:20:39Z</time>
      </trkpt>
      <trkpt lat="38.0266880" lon="-6.2202340">
        <ele>515.2</ele>
        <time>2021-10-20T10:20:42Z</time>
      </trkpt>
      <trkpt lat="38.0266990" lon="-6.2201820">
        <ele>515.0</ele>
        <time>2021-10-20T10:20:46Z</time>
      </trkpt>
      <trkpt lat="38.0267290" lon="-6.2201420">
        <ele>515.0</ele>
        <time>2021-10-20T10:20:48Z</time>
      </trkpt>
      <trkpt lat="38.0268070" lon="-6.2200100">
        <ele>515.0</ele>
        <time>2021-10-20T10:20:53Z</time>
      </trkpt>
      <trkpt lat="38.0268860" lon="-6.2198260">
        <ele>514.8</ele>
        <time>2021-10-20T10:20:58Z</time>
      </trkpt>
      <trkpt lat="38.0269230" lon="-6.2195910">
        <ele>515.2</ele>
        <time>2021-10-20T10:21:03Z</time>
      </trkpt>
      <trkpt lat="38.0269500" lon="-6.2193730">
        <ele>515.4</ele>
        <time>2021-10-20T10:21:07Z</time>
      </trkpt>
      <trkpt lat="38.0269610" lon="-6.2192820">
        <ele>515.4</ele>
        <time>2021-10-20T10:21:09Z</time>
      </trkpt>
      <trkpt lat="38.0269850" lon="-6.2191250">
        <ele>515.6</ele>
        <time>2021-10-20T10:21:12Z</time>
      </trkpt>
      <trkpt lat="38.0270110" lon="-6.2189920">
        <ele>515.8</ele>
        <time>2021-10-20T10:21:15Z</time>
      </trkpt>
      <trkpt lat="38.0270390" lon="-6.2188450">
        <ele>516.2</ele>
        <time>2021-10-20T10:21:18Z</time>
      </trkpt>
      <trkpt lat="38.0270890" lon="-6.2187070">
        <ele>516.2</ele>
        <time>2021-10-20T10:21:21Z</time>
      </trkpt>
      <trkpt lat="38.0271400" lon="-6.2185860">
        <ele>516.4</ele>
        <time>2021-10-20T10:21:24Z</time>
      </trkpt>
      <trkpt lat="38.0272180" lon="-6.2184370">
        <ele>516.6</ele>
        <time>2021-10-20T10:21:28Z</time>
      </trkpt>
      <trkpt lat="38.0272890" lon="-6.2183020">
        <ele>516.4</ele>
        <time>2021-10-20T10:21:32Z</time>
      </trkpt>
      <trkpt lat="38.0273280" lon="-6.2182210">
        <ele>516.6</ele>
        <time>2021-10-20T10:21:35Z</time>
      </trkpt>
      <trkpt lat="38.0274080" lon="-6.2180700">
        <ele>516.6</ele>
        <time>2021-10-20T10:21:41Z</time>
      </trkpt>
      <trkpt lat="38.0274610" lon="-6.2179780">
        <ele>516.8</ele>
        <time>2021-10-20T10:21:45Z</time>
      </trkpt>
      <trkpt lat="38.0274960" lon="-6.2179230">
        <ele>517.0</ele>
        <time>2021-10-20T10:21:47Z</time>
      </trkpt>
      <trkpt lat="38.0275130" lon="-6.2178940">
        <ele>517.0</ele>
        <time>2021-10-20T10:21:48Z</time>
      </trkpt>
      <trkpt lat="38.0276330" lon="-6.2175960">
        <ele>516.6</ele>
        <time>2021-10-20T10:21:56Z</time>
      </trkpt>
      <trkpt lat="38.0276480" lon="-6.2174230">
        <ele>516.2</ele>
        <time>2021-10-20T10:21:59Z</time>
      </trkpt>
      <trkpt lat="38.0276330" lon="-6.2172890">
        <ele>515.8</ele>
        <time>2021-10-20T10:22:01Z</time>
      </trkpt>
      <trkpt lat="38.0276060" lon="-6.2171410">
        <ele>515.4</ele>
        <time>2021-10-20T10:22:03Z</time>
      </trkpt>
      <trkpt lat="38.0275560" lon="-6.2170050">
        <ele>514.6</ele>
        <time>2021-10-20T10:22:05Z</time>
      </trkpt>
      <trkpt lat="38.0273760" lon="-6.2167400">
        <ele>513.6</ele>
        <time>2021-10-20T10:22:09Z</time>
      </trkpt>
      <trkpt lat="38.0273150" lon="-6.2166670">
        <ele>513.2</ele>
        <time>2021-10-20T10:22:10Z</time>
      </trkpt>
      <trkpt lat="38.0271820" lon="-6.2164940">
        <ele>512.4</ele>
        <time>2021-10-20T10:22:13Z</time>
      </trkpt>
      <trkpt lat="38.0271370" lon="-6.2164310">
        <ele>512.0</ele>
        <time>2021-10-20T10:22:14Z</time>
      </trkpt>
      <trkpt lat="38.0269880" lon="-6.2162330">
        <ele>511.0</ele>
        <time>2021-10-20T10:22:17Z</time>
      </trkpt>
      <trkpt lat="38.0269530" lon="-6.2161840">
        <ele>511.0</ele>
        <time>2021-10-20T10:22:18Z</time>
      </trkpt>
      <trkpt lat="38.0268250" lon="-6.2159710">
        <ele>510.6</ele>
        <time>2021-10-20T10:22:21Z</time>
      </trkpt>
      <trkpt lat="38.0267950" lon="-6.2158990">
        <ele>510.4</ele>
        <time>2021-10-20T10:22:22Z</time>
      </trkpt>
      <trkpt lat="38.0267740" lon="-6.2158410">
        <ele>510.4</ele>
        <time>2021-10-20T10:22:23Z</time>
      </trkpt>
      <trkpt lat="38.0266910" lon="-6.2155890">
        <ele>510.0</ele>
        <time>2021-10-20T10:22:27Z</time>
      </trkpt>
      <trkpt lat="38.0266730" lon="-6.2155310">
        <ele>509.8</ele>
        <time>2021-10-20T10:22:28Z</time>
      </trkpt>
      <trkpt lat="38.0266130" lon="-6.2153620">
        <ele>509.6</ele>
        <time>2021-10-20T10:22:31Z</time>
      </trkpt>
      <trkpt lat="38.0265720" lon="-6.2152780">
        <ele>509.4</ele>
        <time>2021-10-20T10:22:33Z</time>
      </trkpt>
      <trkpt lat="38.0264990" lon="-6.2151780">
        <ele>509.4</ele>
        <time>2021-10-20T10:22:35Z</time>
      </trkpt>
      <trkpt lat="38.0263800" lon="-6.2150560">
        <ele>509.2</ele>
        <time>2021-10-20T10:22:38Z</time>
      </trkpt>
      <trkpt lat="38.0263000" lon="-6.2149710">
        <ele>508.8</ele>
        <time>2021-10-20T10:22:40Z</time>
      </trkpt>
      <trkpt lat="38.0260300" lon="-6.2146930">
        <ele>508.0</ele>
        <time>2021-10-20T10:22:47Z</time>
      </trkpt>
      <trkpt lat="38.0259970" lon="-6.2146550">
        <ele>507.6</ele>
        <time>2021-10-20T10:22:48Z</time>
      </trkpt>
      <trkpt lat="38.0258010" lon="-6.2144340">
        <ele>507.2</ele>
        <time>2021-10-20T10:22:54Z</time>
      </trkpt>
      <trkpt lat="38.0257790" lon="-6.2143990">
        <ele>507.2</ele>
        <time>2021-10-20T10:22:55Z</time>
      </trkpt>
      <trkpt lat="38.0256870" lon="-6.2142080">
        <ele>507.0</ele>
        <time>2021-10-20T10:22:59Z</time>
      </trkpt>
      <trkpt lat="38.0256670" lon="-6.2141580">
        <ele>506.8</ele>
        <time>2021-10-20T10:23:00Z</time>
      </trkpt>
      <trkpt lat="38.0256400" lon="-6.2140990">
        <ele>506.8</ele>
        <time>2021-10-20T10:23:01Z</time>
      </trkpt>
      <trkpt lat="38.0255200" lon="-6.2138700">
        <ele>506.8</ele>
        <time>2021-10-20T10:23:06Z</time>
      </trkpt>
      <trkpt lat="38.0254170" lon="-6.2136660">
        <ele>506.8</ele>
        <time>2021-10-20T10:23:11Z</time>
      </trkpt>
      <trkpt lat="38.0253860" lon="-6.2135980">
        <ele>506.6</ele>
        <time>2021-10-20T10:23:13Z</time>
      </trkpt>
      <trkpt lat="38.0253070" lon="-6.2134030">
        <ele>506.6</ele>
        <time>2021-10-20T10:23:18Z</time>
      </trkpt>
      <trkpt lat="38.0252640" lon="-6.2133150">
        <ele>506.8</ele>
        <time>2021-10-20T10:23:20Z</time>
      </trkpt>
      <trkpt lat="38.0251100" lon="-6.2129890">
        <ele>506.8</ele>
        <time>2021-10-20T10:23:27Z</time>
      </trkpt>
      <trkpt lat="38.0250490" lon="-6.2128400">
        <ele>506.6</ele>
        <time>2021-10-20T10:23:30Z</time>
      </trkpt>
      <trkpt lat="38.0249960" lon="-6.2127120">
        <ele>506.6</ele>
        <time>2021-10-20T10:23:33Z</time>
      </trkpt>
      <trkpt lat="38.0248870" lon="-6.2124030">
        <ele>506.8</ele>
        <time>2021-10-20T10:23:40Z</time>
      </trkpt>
      <trkpt lat="38.0248160" lon="-6.2122180">
        <ele>507.2</ele>
        <time>2021-10-20T10:23:44Z</time>
      </trkpt>
      <trkpt lat="38.0247040" lon="-6.2120070">
        <ele>507.4</ele>
        <time>2021-10-20T10:23:49Z</time>
      </trkpt>
      <trkpt lat="38.0244340" lon="-6.2115330">
        <ele>507.8</ele>
        <time>2021-10-20T10:24:00Z</time>
      </trkpt>
      <trkpt lat="38.0243300" lon="-6.2113680">
        <ele>507.8</ele>
        <time>2021-10-20T10:24:04Z</time>
      </trkpt>
      <trkpt lat="38.0242470" lon="-6.2112390">
        <ele>507.6</ele>
        <time>2021-10-20T10:24:07Z</time>
      </trkpt>
      <trkpt lat="38.0241860" lon="-6.2111820">
        <ele>507.6</ele>
        <time>2021-10-20T10:24:09Z</time>
      </trkpt>
      <trkpt lat="38.0240040" lon="-6.2111750">
        <ele>507.4</ele>
        <time>2021-10-20T10:24:13Z</time>
      </trkpt>
      <trkpt lat="38.0236940" lon="-6.2111560">
        <ele>507.6</ele>
        <time>2021-10-20T10:24:21Z</time>
      </trkpt>
      <trkpt lat="38.0233900" lon="-6.2110460">
        <ele>507.8</ele>
        <time>2021-10-20T10:24:28Z</time>
      </trkpt>
      <trkpt lat="38.0233330" lon="-6.2110280">
        <ele>507.6</ele>
        <time>2021-10-20T10:24:29Z</time>
      </trkpt>
      <trkpt lat="38.0231740" lon="-6.2109690">
        <ele>507.2</ele>
        <time>2021-10-20T10:24:33Z</time>
      </trkpt>
      <trkpt lat="38.0228150" lon="-6.2107440">
        <ele>507.0</ele>
        <time>2021-10-20T10:24:42Z</time>
      </trkpt>
      <trkpt lat="38.0225130" lon="-6.2105200">
        <ele>507.0</ele>
        <time>2021-10-20T10:24:50Z</time>
      </trkpt>
      <trkpt lat="38.0224840" lon="-6.2105010">
        <ele>507.0</ele>
        <time>2021-10-20T10:24:51Z</time>
      </trkpt>
      <trkpt lat="38.0224430" lon="-6.2104690">
        <ele>507.0</ele>
        <time>2021-10-20T10:24:52Z</time>
      </trkpt>
      <trkpt lat="38.0222490" lon="-6.2103020">
        <ele>507.0</ele>
        <time>2021-10-20T10:24:58Z</time>
      </trkpt>
      <trkpt lat="38.0220390" lon="-6.2101080">
        <ele>507.2</ele>
        <time>2021-10-20T10:25:05Z</time>
      </trkpt>
      <trkpt lat="38.0218460" lon="-6.2099280">
        <ele>507.6</ele>
        <time>2021-10-20T10:25:12Z</time>
      </trkpt>
      <trkpt lat="38.0217110" lon="-6.2097830">
        <ele>508.4</ele>
        <time>2021-10-20T10:25:18Z</time>
      </trkpt>
      <trkpt lat="38.0216860" lon="-6.2097600">
        <ele>508.4</ele>
        <time>2021-10-20T10:25:19Z</time>
      </trkpt>
      <trkpt lat="38.0215420" lon="-6.2095830">
        <ele>509.4</ele>
        <time>2021-10-20T10:25:26Z</time>
      </trkpt>
      <trkpt lat="38.0213610" lon="-6.2093800">
        <ele>509.8</ele>
        <time>2021-10-20T10:25:32Z</time>
      </trkpt>
      <trkpt lat="38.0212660" lon="-6.2092780">
        <ele>509.6</ele>
        <time>2021-10-20T10:25:34Z</time>
      </trkpt>
      <trkpt lat="38.0211240" lon="-6.2091230">
        <ele>509.0</ele>
        <time>2021-10-20T10:25:37Z</time>
      </trkpt>
      <trkpt lat="38.0209240" lon="-6.2089490">
        <ele>508.2</ele>
        <time>2021-10-20T10:25:40Z</time>
      </trkpt>
      <trkpt lat="38.0208090" lon="-6.2088540">
        <ele>507.4</ele>
        <time>2021-10-20T10:25:42Z</time>
      </trkpt>
      <trkpt lat="38.0207490" lon="-6.2088000">
        <ele>506.8</ele>
        <time>2021-10-20T10:25:43Z</time>
      </trkpt>
      <trkpt lat="38.0205740" lon="-6.2086290">
        <ele>505.6</ele>
        <time>2021-10-20T10:25:46Z</time>
      </trkpt>
      <trkpt lat="38.0204770" lon="-6.2085430">
        <ele>505.2</ele>
        <time>2021-10-20T10:25:48Z</time>
      </trkpt>
      <trkpt lat="38.0202150" lon="-6.2083920">
        <ele>504.6</ele>
        <time>2021-10-20T10:25:53Z</time>
      </trkpt>
      <trkpt lat="38.0199400" lon="-6.2082580">
        <ele>504.4</ele>
        <time>2021-10-20T10:25:59Z</time>
      </trkpt>
      <trkpt lat="38.0198890" lon="-6.2082310">
        <ele>504.4</ele>
        <time>2021-10-20T10:26:00Z</time>
      </trkpt>
      <trkpt lat="38.0197050" lon="-6.2081020">
        <ele>504.8</ele>
        <time>2021-10-20T10:26:05Z</time>
      </trkpt>
      <trkpt lat="38.0194930" lon="-6.2079070">
        <ele>506.0</ele>
        <time>2021-10-20T10:26:12Z</time>
      </trkpt>
      <trkpt lat="38.0194660" lon="-6.2078790">
        <ele>506.2</ele>
        <time>2021-10-20T10:26:13Z</time>
      </trkpt>
      <trkpt lat="38.0192740" lon="-6.2076390">
        <ele>506.8</ele>
        <time>2021-10-20T10:26:21Z</time>
      </trkpt>
      <trkpt lat="38.0191350" lon="-6.2074760">
        <ele>507.0</ele>
        <time>2021-10-20T10:26:26Z</time>
      </trkpt>
      <trkpt lat="38.0190260" lon="-6.2073450">
        <ele>507.2</ele>
        <time>2021-10-20T10:26:30Z</time>
      </trkpt>
      <trkpt lat="38.0188310" lon="-6.2070780">
        <ele>507.4</ele>
        <time>2021-10-20T10:26:38Z</time>
      </trkpt>
      <trkpt lat="38.0186770" lon="-6.2068690">
        <ele>508.2</ele>
        <time>2021-10-20T10:26:45Z</time>
      </trkpt>
      <trkpt lat="38.0186370" lon="-6.2068150">
        <ele>508.4</ele>
        <time>2021-10-20T10:26:47Z</time>
      </trkpt>
      <trkpt lat="38.0185170" lon="-6.2066920">
        <ele>509.2</ele>
        <time>2021-10-20T10:26:52Z</time>
      </trkpt>
      <trkpt lat="38.0183530" lon="-6.2065100">
        <ele>509.6</ele>
        <time>2021-10-20T10:26:58Z</time>
      </trkpt>
      <trkpt lat="38.0182310" lon="-6.2063800">
        <ele>509.4</ele>
        <time>2021-10-20T10:27:02Z</time>
      </trkpt>
      <trkpt lat="38.0181970" lon="-6.2063490">
        <ele>509.2</ele>
        <time>2021-10-20T10:27:03Z</time>
      </trkpt>
      <trkpt lat="38.0180950" lon="-6.2062380">
        <ele>508.6</ele>
        <time>2021-10-20T10:27:06Z</time>
      </trkpt>
      <trkpt lat="38.0179270" lon="-6.2060410">
        <ele>508.0</ele>
        <time>2021-10-20T10:27:11Z</time>
      </trkpt>
      <trkpt lat="38.0176300" lon="-6.2057550">
        <ele>507.4</ele>
        <time>2021-10-20T10:27:18Z</time>
      </trkpt>
      <trkpt lat="38.0175210" lon="-6.2056550">
        <ele>507.0</ele>
        <time>2021-10-20T10:27:20Z</time>
      </trkpt>
      <trkpt lat="38.0172950" lon="-6.2054280">
        <ele>506.0</ele>
        <time>2021-10-20T10:27:24Z</time>
      </trkpt>
      <trkpt lat="38.0172430" lon="-6.2053740">
        <ele>505.0</ele>
        <time>2021-10-20T10:27:25Z</time>
      </trkpt>
      <trkpt lat="38.0170940" lon="-6.2052220">
        <ele>504.4</ele>
        <time>2021-10-20T10:27:28Z</time>
      </trkpt>
      <trkpt lat="38.0169870" lon="-6.2051290">
        <ele>504.0</ele>
        <time>2021-10-20T10:27:30Z</time>
      </trkpt>
      <trkpt lat="38.0169430" lon="-6.2050980">
        <ele>503.8</ele>
        <time>2021-10-20T10:27:31Z</time>
      </trkpt>
      <trkpt lat="38.0167860" lon="-6.2050070">
        <ele>503.4</ele>
        <time>2021-10-20T10:27:34Z</time>
      </trkpt>
      <trkpt lat="38.0167440" lon="-6.2049780">
        <ele>503.4</ele>
        <time>2021-10-20T10:27:35Z</time>
      </trkpt>
      <trkpt lat="38.0166790" lon="-6.2049220">
        <ele>503.4</ele>
        <time>2021-10-20T10:27:37Z</time>
      </trkpt>
      <trkpt lat="38.0165590" lon="-6.2047750">
        <ele>503.2</ele>
        <time>2021-10-20T10:27:41Z</time>
      </trkpt>
      <trkpt lat="38.0162210" lon="-6.2042000">
        <ele>503.2</ele>
        <time>2021-10-20T10:27:53Z</time>
      </trkpt>
      <trkpt lat="38.0161990" lon="-6.2041570">
        <ele>503.0</ele>
        <time>2021-10-20T10:27:54Z</time>
      </trkpt>
      <trkpt lat="38.0160910" lon="-6.2039610">
        <ele>503.0</ele>
        <time>2021-10-20T10:27:59Z</time>
      </trkpt>
      <trkpt lat="38.0159990" lon="-6.2037960">
        <ele>503.0</ele>
        <time>2021-10-20T10:28:04Z</time>
      </trkpt>
      <trkpt lat="38.0159040" lon="-6.2035650">
        <ele>503.8</ele>
        <time>2021-10-20T10:28:10Z</time>
      </trkpt>
      <trkpt lat="38.0158310" lon="-6.2033630">
        <ele>503.8</ele>
        <time>2021-10-20T10:28:14Z</time>
      </trkpt>
      <trkpt lat="38.0158190" lon="-6.2033280">
        <ele>503.8</ele>
        <time>2021-10-20T10:28:15Z</time>
      </trkpt>
      <trkpt lat="38.0157040" lon="-6.2029750">
        <ele>504.0</ele>
        <time>2021-10-20T10:28:23Z</time>
      </trkpt>
      <trkpt lat="38.0156250" lon="-6.2027490">
        <ele>504.4</ele>
        <time>2021-10-20T10:28:28Z</time>
      </trkpt>
      <trkpt lat="38.0155940" lon="-6.2026260">
        <ele>504.4</ele>
        <time>2021-10-20T10:28:30Z</time>
      </trkpt>
      <trkpt lat="38.0155300" lon="-6.2024120">
        <ele>504.4</ele>
        <time>2021-10-20T10:28:35Z</time>
      </trkpt>
      <trkpt lat="38.0153880" lon="-6.2021120">
        <ele>504.6</ele>
        <time>2021-10-20T10:28:43Z</time>
      </trkpt>
      <trkpt lat="38.0152640" lon="-6.2017380">
        <ele>505.0</ele>
        <time>2021-10-20T10:28:51Z</time>
      </trkpt>
      <trkpt lat="38.0152090" lon="-6.2014550">
        <ele>504.6</ele>
        <time>2021-10-20T10:28:56Z</time>
      </trkpt>
      <trkpt lat="38.0151820" lon="-6.2013420">
        <ele>504.4</ele>
        <time>2021-10-20T10:28:58Z</time>
      </trkpt>
      <trkpt lat="38.0151650" lon="-6.2012830">
        <ele>504.4</ele>
        <time>2021-10-20T10:28:59Z</time>
      </trkpt>
      <trkpt lat="38.0151030" lon="-6.2011930">
        <ele>504.4</ele>
        <time>2021-10-20T10:29:01Z</time>
      </trkpt>
      <trkpt lat="38.0149360" lon="-6.2010740">
        <ele>504.2</ele>
        <time>2021-10-20T10:29:06Z</time>
      </trkpt>
      <trkpt lat="38.0146460" lon="-6.2009050">
        <ele>504.4</ele>
        <time>2021-10-20T10:29:14Z</time>
      </trkpt>
      <trkpt lat="38.0144320" lon="-6.2007300">
        <ele>504.0</ele>
        <time>2021-10-20T10:29:19Z</time>
      </trkpt>
      <trkpt lat="38.0142410" lon="-6.2005610">
        <ele>503.6</ele>
        <time>2021-10-20T10:29:23Z</time>
      </trkpt>
      <trkpt lat="38.0141950" lon="-6.2005380">
        <ele>503.2</ele>
        <time>2021-10-20T10:29:24Z</time>
      </trkpt>
      <trkpt lat="38.0141420" lon="-6.2005130">
        <ele>502.8</ele>
        <time>2021-10-20T10:29:25Z</time>
      </trkpt>
      <trkpt lat="38.0140270" lon="-6.2004290">
        <ele>502.6</ele>
        <time>2021-10-20T10:29:28Z</time>
      </trkpt>
      <trkpt lat="38.0139880" lon="-6.2004000">
        <ele>502.4</ele>
        <time>2021-10-20T10:29:29Z</time>
      </trkpt>
      <trkpt lat="38.0137410" lon="-6.2002420">
        <ele>502.6</ele>
        <time>2021-10-20T10:29:35Z</time>
      </trkpt>
      <trkpt lat="38.0136330" lon="-6.2001810">
        <ele>502.8</ele>
        <time>2021-10-20T10:29:38Z</time>
      </trkpt>
      <trkpt lat="38.0133240" lon="-6.1999950">
        <ele>503.4</ele>
        <time>2021-10-20T10:29:47Z</time>
      </trkpt>
      <trkpt lat="38.0130850" lon="-6.1998550">
        <ele>504.2</ele>
        <time>2021-10-20T10:29:55Z</time>
      </trkpt>
      <trkpt lat="38.0128300" lon="-6.1996970">
        <ele>505.2</ele>
        <time>2021-10-20T10:30:04Z</time>
      </trkpt>
      <trkpt lat="38.0128040" lon="-6.1996750">
        <ele>505.2</ele>
        <time>2021-10-20T10:30:05Z</time>
      </trkpt>
      <trkpt lat="38.0126940" lon="-6.1996030">
        <ele>505.8</ele>
        <time>2021-10-20T10:30:10Z</time>
      </trkpt>
      <trkpt lat="38.0126560" lon="-6.1995800">
        <ele>506.4</ele>
        <time>2021-10-20T10:30:12Z</time>
      </trkpt>
      <trkpt lat="38.0126080" lon="-6.1995570">
        <ele>506.4</ele>
        <time>2021-10-20T10:30:15Z</time>
      </trkpt>
      <trkpt lat="38.0126030" lon="-6.1995570">
        <ele>506.4</ele>
        <time>2021-10-20T10:30:16Z</time>
      </trkpt>
      <trkpt lat="38.0126030" lon="-6.1995570">
        <ele>506.4</ele>
        <time>2021-10-20T10:30:17Z</time>
      </trkpt>
      <trkpt lat="38.0125870" lon="-6.1995640">
        <ele>507.0</ele>
        <time>2021-10-20T10:51:57Z</time>
      </trkpt>
      <trkpt lat="38.0125440" lon="-6.1995490">
        <ele>506.8</ele>
        <time>2021-10-20T10:51:59Z</time>
      </trkpt>
      <trkpt lat="38.0124300" lon="-6.1995220">
        <ele>506.8</ele>
        <time>2021-10-20T10:52:03Z</time>
      </trkpt>
      <trkpt lat="38.0123530" lon="-6.1995230">
        <ele>506.6</ele>
        <time>2021-10-20T10:52:05Z</time>
      </trkpt>
      <trkpt lat="38.0121260" lon="-6.1994500">
        <ele>506.2</ele>
        <time>2021-10-20T10:52:11Z</time>
      </trkpt>
      <trkpt lat="38.0118490" lon="-6.1992750">
        <ele>505.2</ele>
        <time>2021-10-20T10:52:18Z</time>
      </trkpt>
      <trkpt lat="38.0118130" lon="-6.1992430">
        <ele>505.2</ele>
        <time>2021-10-20T10:52:19Z</time>
      </trkpt>
      <trkpt lat="38.0116150" lon="-6.1990880">
        <ele>504.6</ele>
        <time>2021-10-20T10:52:24Z</time>
      </trkpt>
      <trkpt lat="38.0115270" lon="-6.1990180">
        <ele>504.4</ele>
        <time>2021-10-20T10:52:26Z</time>
      </trkpt>
      <trkpt lat="38.0114140" lon="-6.1989280">
        <ele>504.2</ele>
        <time>2021-10-20T10:52:28Z</time>
      </trkpt>
      <trkpt lat="38.0112140" lon="-6.1987340">
        <ele>503.6</ele>
        <time>2021-10-20T10:52:32Z</time>
      </trkpt>
      <trkpt lat="38.0111280" lon="-6.1986320">
        <ele>503.0</ele>
        <time>2021-10-20T10:52:34Z</time>
      </trkpt>
      <trkpt lat="38.0109500" lon="-6.1984350">
        <ele>502.4</ele>
        <time>2021-10-20T10:52:38Z</time>
      </trkpt>
      <trkpt lat="38.0109070" lon="-6.1983930">
        <ele>502.4</ele>
        <time>2021-10-20T10:52:39Z</time>
      </trkpt>
      <trkpt lat="38.0108700" lon="-6.1983670">
        <ele>502.4</ele>
        <time>2021-10-20T10:52:40Z</time>
      </trkpt>
      <trkpt lat="38.0106270" lon="-6.1982050">
        <ele>502.2</ele>
        <time>2021-10-20T10:52:46Z</time>
      </trkpt>
      <trkpt lat="38.0104140" lon="-6.1980250">
        <ele>502.6</ele>
        <time>2021-10-20T10:52:53Z</time>
      </trkpt>
      <trkpt lat="38.0102960" lon="-6.1979100">
        <ele>503.0</ele>
        <time>2021-10-20T10:52:58Z</time>
      </trkpt>
      <trkpt lat="38.0102300" lon="-6.1978360">
        <ele>503.6</ele>
        <time>2021-10-20T10:53:01Z</time>
      </trkpt>
      <trkpt lat="38.0101750" lon="-6.1977630">
        <ele>504.0</ele>
        <time>2021-10-20T10:53:04Z</time>
      </trkpt>
      <trkpt lat="38.0101570" lon="-6.1977400">
        <ele>504.2</ele>
        <time>2021-10-20T10:53:05Z</time>
      </trkpt>
      <trkpt lat="38.0100500" lon="-6.1975990">
        <ele>505.0</ele>
        <time>2021-10-20T10:53:11Z</time>
      </trkpt>
      <trkpt lat="38.0099610" lon="-6.1974820">
        <ele>505.8</ele>
        <time>2021-10-20T10:53:16Z</time>
      </trkpt>
      <trkpt lat="38.0099030" lon="-6.1974140">
        <ele>506.2</ele>
        <time>2021-10-20T10:53:19Z</time>
      </trkpt>
      <trkpt lat="38.0098280" lon="-6.1972990">
        <ele>506.8</ele>
        <time>2021-10-20T10:53:24Z</time>
      </trkpt>
      <trkpt lat="38.0098120" lon="-6.1972770">
        <ele>506.8</ele>
        <time>2021-10-20T10:53:25Z</time>
      </trkpt>
      <trkpt lat="38.0097450" lon="-6.1971840">
        <ele>507.2</ele>
        <time>2021-10-20T10:53:29Z</time>
      </trkpt>
      <trkpt lat="38.0097160" lon="-6.1971430">
        <ele>507.4</ele>
        <time>2021-10-20T10:53:31Z</time>
      </trkpt>
      <trkpt lat="38.0097020" lon="-6.1971180">
        <ele>507.4</ele>
        <time>2021-10-20T10:53:32Z</time>
      </trkpt>
      <trkpt lat="38.0096640" lon="-6.1970380">
        <ele>508.0</ele>
        <time>2021-10-20T10:53:35Z</time>
      </trkpt>
      <trkpt lat="38.0096170" lon="-6.1969490">
        <ele>508.0</ele>
        <time>2021-10-20T10:53:38Z</time>
      </trkpt>
      <trkpt lat="38.0095700" lon="-6.1968370">
        <ele>507.8</ele>
        <time>2021-10-20T10:53:41Z</time>
      </trkpt>
      <trkpt lat="38.0094760" lon="-6.1966210">
        <ele>507.6</ele>
        <time>2021-10-20T10:53:45Z</time>
      </trkpt>
      <trkpt lat="38.0094470" lon="-6.1965610">
        <ele>507.4</ele>
        <time>2021-10-20T10:53:46Z</time>
      </trkpt>
      <trkpt lat="38.0093360" lon="-6.1963550">
        <ele>506.8</ele>
        <time>2021-10-20T10:53:49Z</time>
      </trkpt>
      <trkpt lat="38.0092630" lon="-6.1961970">
        <ele>506.6</ele>
        <time>2021-10-20T10:53:51Z</time>
      </trkpt>
      <trkpt lat="38.0092300" lon="-6.1961080">
        <ele>506.2</ele>
        <time>2021-10-20T10:53:52Z</time>
      </trkpt>
      <trkpt lat="38.0091990" lon="-6.1959930">
        <ele>506.0</ele>
        <time>2021-10-20T10:53:53Z</time>
      </trkpt>
      <trkpt lat="38.0091760" lon="-6.1958050">
        <ele>505.4</ele>
        <time>2021-10-20T10:53:55Z</time>
      </trkpt>
      <trkpt lat="38.0091570" lon="-6.1956870">
        <ele>504.8</ele>
        <time>2021-10-20T10:53:56Z</time>
      </trkpt>
      <trkpt lat="38.0090880" lon="-6.1955200">
        <ele>503.8</ele>
        <time>2021-10-20T10:53:58Z</time>
      </trkpt>
      <trkpt lat="38.0089910" lon="-6.1954360">
        <ele>502.6</ele>
        <time>2021-10-20T10:54:00Z</time>
      </trkpt>
      <trkpt lat="38.0089270" lon="-6.1954020">
        <ele>502.0</ele>
        <time>2021-10-20T10:54:01Z</time>
      </trkpt>
      <trkpt lat="38.0086970" lon="-6.1952790">
        <ele>501.6</ele>
        <time>2021-10-20T10:54:06Z</time>
      </trkpt>
      <trkpt lat="38.0085480" lon="-6.1951450">
        <ele>502.2</ele>
        <time>2021-10-20T10:54:11Z</time>
      </trkpt>
      <trkpt lat="38.0083980" lon="-6.1950100">
        <ele>503.4</ele>
        <time>2021-10-20T10:54:17Z</time>
      </trkpt>
      <trkpt lat="38.0083510" lon="-6.1949700">
        <ele>503.4</ele>
        <time>2021-10-20T10:54:19Z</time>
      </trkpt>
      <trkpt lat="38.0082840" lon="-6.1949140">
        <ele>503.6</ele>
        <time>2021-10-20T10:54:21Z</time>
      </trkpt>
      <trkpt lat="38.0081670" lon="-6.1948090">
        <ele>503.6</ele>
        <time>2021-10-20T10:54:24Z</time>
      </trkpt>
      <trkpt lat="38.0080330" lon="-6.1946700">
        <ele>503.4</ele>
        <time>2021-10-20T10:54:27Z</time>
      </trkpt>
      <trkpt lat="38.0079210" lon="-6.1945390">
        <ele>503.2</ele>
        <time>2021-10-20T10:54:29Z</time>
      </trkpt>
      <trkpt lat="38.0077930" lon="-6.1942850">
        <ele>501.4</ele>
        <time>2021-10-20T10:54:33Z</time>
      </trkpt>
      <trkpt lat="38.0077270" lon="-6.1941210">
        <ele>500.8</ele>
        <time>2021-10-20T10:54:36Z</time>
      </trkpt>
      <trkpt lat="38.0077070" lon="-6.1940950">
        <ele>500.6</ele>
        <time>2021-10-20T10:54:37Z</time>
      </trkpt>
      <trkpt lat="38.0075390" lon="-6.1939320">
        <ele>501.4</ele>
        <time>2021-10-20T10:54:43Z</time>
      </trkpt>
      <trkpt lat="38.0073870" lon="-6.1937720">
        <ele>502.6</ele>
        <time>2021-10-20T10:54:49Z</time>
      </trkpt>
      <trkpt lat="38.0073640" lon="-6.1937480">
        <ele>502.8</ele>
        <time>2021-10-20T10:54:50Z</time>
      </trkpt>
      <trkpt lat="38.0072960" lon="-6.1936720">
        <ele>503.0</ele>
        <time>2021-10-20T10:54:53Z</time>
      </trkpt>
      <trkpt lat="38.0071930" lon="-6.1935340">
        <ele>503.6</ele>
        <time>2021-10-20T10:54:57Z</time>
      </trkpt>
      <trkpt lat="38.0069740" lon="-6.1932880">
        <ele>503.6</ele>
        <time>2021-10-20T10:55:06Z</time>
      </trkpt>
      <trkpt lat="38.0069110" lon="-6.1932120">
        <ele>503.8</ele>
        <time>2021-10-20T10:55:09Z</time>
      </trkpt>
      <trkpt lat="38.0068270" lon="-6.1930860">
        <ele>504.0</ele>
        <time>2021-10-20T10:55:13Z</time>
      </trkpt>
      <trkpt lat="38.0066660" lon="-6.1928270">
        <ele>504.0</ele>
        <time>2021-10-20T10:55:22Z</time>
      </trkpt>
      <trkpt lat="38.0066010" lon="-6.1927060">
        <ele>504.0</ele>
        <time>2021-10-20T10:55:26Z</time>
      </trkpt>
      <trkpt lat="38.0065170" lon="-6.1925460">
        <ele>504.8</ele>
        <time>2021-10-20T10:55:32Z</time>
      </trkpt>
      <trkpt lat="38.0065060" lon="-6.1925270">
        <ele>505.0</ele>
        <time>2021-10-20T10:55:33Z</time>
      </trkpt>
      <trkpt lat="38.0064670" lon="-6.1924520">
        <ele>505.6</ele>
        <time>2021-10-20T10:55:36Z</time>
      </trkpt>
      <trkpt lat="38.0064360" lon="-6.1923880">
        <ele>506.0</ele>
        <time>2021-10-20T10:55:39Z</time>
      </trkpt>
      <trkpt lat="38.0063990" lon="-6.1923220">
        <ele>506.6</ele>
        <time>2021-10-20T10:55:42Z</time>
      </trkpt>
      <trkpt lat="38.0063670" lon="-6.1922770">
        <ele>506.8</ele>
        <time>2021-10-20T10:55:44Z</time>
      </trkpt>
      <trkpt lat="38.0063410" lon="-6.1922330">
        <ele>507.0</ele>
        <time>2021-10-20T10:55:46Z</time>
      </trkpt>
      <trkpt lat="38.0062800" lon="-6.1921240">
        <ele>508.4</ele>
        <time>2021-10-20T10:55:51Z</time>
      </trkpt>
      <trkpt lat="38.0062560" lon="-6.1920830">
        <ele>508.6</ele>
        <time>2021-10-20T10:55:53Z</time>
      </trkpt>
      <trkpt lat="38.0062160" lon="-6.1920100">
        <ele>509.2</ele>
        <time>2021-10-20T10:55:57Z</time>
      </trkpt>
      <trkpt lat="38.0062040" lon="-6.1919940">
        <ele>509.6</ele>
        <time>2021-10-20T10:55:58Z</time>
      </trkpt>
      <trkpt lat="38.0061770" lon="-6.1919520">
        <ele>510.0</ele>
        <time>2021-10-20T10:56:00Z</time>
      </trkpt>
      <trkpt lat="38.0060970" lon="-6.1918180">
        <ele>510.6</ele>
        <time>2021-10-20T10:56:07Z</time>
      </trkpt>
      <trkpt lat="38.0060730" lon="-6.1917800">
        <ele>510.8</ele>
        <time>2021-10-20T10:56:09Z</time>
      </trkpt>
      <trkpt lat="38.0059820" lon="-6.1916110">
        <ele>511.6</ele>
        <time>2021-10-20T10:56:17Z</time>
      </trkpt>
      <trkpt lat="38.0059710" lon="-6.1915870">
        <ele>511.6</ele>
        <time>2021-10-20T10:56:18Z</time>
      </trkpt>
      <trkpt lat="38.0059500" lon="-6.1915420">
        <ele>511.8</ele>
        <time>2021-10-20T10:56:20Z</time>
      </trkpt>
      <trkpt lat="38.0059310" lon="-6.1914900">
        <ele>511.8</ele>
        <time>2021-10-20T10:56:22Z</time>
      </trkpt>
      <trkpt lat="38.0059010" lon="-6.1914150">
        <ele>511.8</ele>
        <time>2021-10-20T10:56:25Z</time>
      </trkpt>
      <trkpt lat="38.0058800" lon="-6.1913520">
        <ele>512.2</ele>
        <time>2021-10-20T10:56:27Z</time>
      </trkpt>
      <trkpt lat="38.0058740" lon="-6.1913260">
        <ele>512.2</ele>
        <time>2021-10-20T10:56:28Z</time>
      </trkpt>
      <trkpt lat="38.0058530" lon="-6.1912620">
        <ele>512.2</ele>
        <time>2021-10-20T10:56:30Z</time>
      </trkpt>
      <trkpt lat="38.0058090" lon="-6.1911520">
        <ele>512.2</ele>
        <time>2021-10-20T10:56:33Z</time>
      </trkpt>
      <trkpt lat="38.0057950" lon="-6.1911110">
        <ele>512.2</ele>
        <time>2021-10-20T10:56:34Z</time>
      </trkpt>
      <trkpt lat="38.0056970" lon="-6.1908220">
        <ele>512.0</ele>
        <time>2021-10-20T10:56:40Z</time>
      </trkpt>
      <trkpt lat="38.0055810" lon="-6.1906010">
        <ele>511.8</ele>
        <time>2021-10-20T10:56:46Z</time>
      </trkpt>
      <trkpt lat="38.0054780" lon="-6.1905190">
        <ele>511.8</ele>
        <time>2021-10-20T10:56:50Z</time>
      </trkpt>
      <trkpt lat="38.0054000" lon="-6.1904560">
        <ele>512.4</ele>
        <time>2021-10-20T10:56:53Z</time>
      </trkpt>
      <trkpt lat="38.0053490" lon="-6.1904220">
        <ele>512.6</ele>
        <time>2021-10-20T10:56:55Z</time>
      </trkpt>
      <trkpt lat="38.0053090" lon="-6.1903890">
        <ele>512.8</ele>
        <time>2021-10-20T10:56:57Z</time>
      </trkpt>
      <trkpt lat="38.0052840" lon="-6.1903700">
        <ele>513.0</ele>
        <time>2021-10-20T10:56:58Z</time>
      </trkpt>
      <trkpt lat="38.0051500" lon="-6.1902440">
        <ele>513.6</ele>
        <time>2021-10-20T10:57:04Z</time>
      </trkpt>
      <trkpt lat="38.0050950" lon="-6.1901790">
        <ele>514.0</ele>
        <time>2021-10-20T10:57:07Z</time>
      </trkpt>
      <trkpt lat="38.0050720" lon="-6.1901500">
        <ele>514.0</ele>
        <time>2021-10-20T10:57:08Z</time>
      </trkpt>
      <trkpt lat="38.0049630" lon="-6.1899990">
        <ele>514.2</ele>
        <time>2021-10-20T10:57:14Z</time>
      </trkpt>
      <trkpt lat="38.0048550" lon="-6.1897730">
        <ele>514.6</ele>
        <time>2021-10-20T10:57:22Z</time>
      </trkpt>
      <trkpt lat="38.0047950" lon="-6.1895320">
        <ele>514.8</ele>
        <time>2021-10-20T10:57:30Z</time>
      </trkpt>
      <trkpt lat="38.0047690" lon="-6.1893000">
        <ele>515.2</ele>
        <time>2021-10-20T10:57:36Z</time>
      </trkpt>
      <trkpt lat="38.0047490" lon="-6.1892190">
        <ele>515.2</ele>
        <time>2021-10-20T10:57:38Z</time>
      </trkpt>
      <trkpt lat="38.0046560" lon="-6.1891070">
        <ele>515.4</ele>
        <time>2021-10-20T10:57:42Z</time>
      </trkpt>
      <trkpt lat="38.0045370" lon="-6.1890370">
        <ele>515.4</ele>
        <time>2021-10-20T10:57:47Z</time>
      </trkpt>
      <trkpt lat="38.0044660" lon="-6.1889870">
        <ele>515.6</ele>
        <time>2021-10-20T10:57:50Z</time>
      </trkpt>
      <trkpt lat="38.0043980" lon="-6.1889200">
        <ele>515.8</ele>
        <time>2021-10-20T10:57:53Z</time>
      </trkpt>
      <trkpt lat="38.0042890" lon="-6.1887890">
        <ele>516.0</ele>
        <time>2021-10-20T10:57:58Z</time>
      </trkpt>
      <trkpt lat="38.0042500" lon="-6.1887320">
        <ele>516.2</ele>
        <time>2021-10-20T10:58:00Z</time>
      </trkpt>
      <trkpt lat="38.0042100" lon="-6.1886610">
        <ele>516.2</ele>
        <time>2021-10-20T10:58:02Z</time>
      </trkpt>
      <trkpt lat="38.0041190" lon="-6.1884800">
        <ele>516.2</ele>
        <time>2021-10-20T10:58:07Z</time>
      </trkpt>
      <trkpt lat="38.0040560" lon="-6.1883330">
        <ele>516.2</ele>
        <time>2021-10-20T10:58:10Z</time>
      </trkpt>
      <trkpt lat="38.0040090" lon="-6.1882320">
        <ele>516.0</ele>
        <time>2021-10-20T10:58:12Z</time>
      </trkpt>
      <trkpt lat="38.0039810" lon="-6.1881900">
        <ele>516.0</ele>
        <time>2021-10-20T10:58:13Z</time>
      </trkpt>
      <trkpt lat="38.0038920" lon="-6.1881030">
        <ele>516.0</ele>
        <time>2021-10-20T10:58:16Z</time>
      </trkpt>
      <trkpt lat="38.0038360" lon="-6.1880840">
        <ele>516.0</ele>
        <time>2021-10-20T10:58:18Z</time>
      </trkpt>
      <trkpt lat="38.0036670" lon="-6.1880800">
        <ele>516.0</ele>
        <time>2021-10-20T10:58:23Z</time>
      </trkpt>
      <trkpt lat="38.0035690" lon="-6.1880820">
        <ele>516.2</ele>
        <time>2021-10-20T10:58:26Z</time>
      </trkpt>
      <trkpt lat="38.0034720" lon="-6.1880880">
        <ele>516.6</ele>
        <time>2021-10-20T10:58:29Z</time>
      </trkpt>
      <trkpt lat="38.0033880" lon="-6.1880960">
        <ele>516.6</ele>
        <time>2021-10-20T10:58:32Z</time>
      </trkpt>
      <trkpt lat="38.0033580" lon="-6.1880940">
        <ele>516.6</ele>
        <time>2021-10-20T10:58:33Z</time>
      </trkpt>
      <trkpt lat="38.0032260" lon="-6.1880990">
        <ele>516.8</ele>
        <time>2021-10-20T10:58:38Z</time>
      </trkpt>
      <trkpt lat="38.0031790" lon="-6.1881020">
        <ele>517.2</ele>
        <time>2021-10-20T10:58:42Z</time>
      </trkpt>
      <trkpt lat="38.0031590" lon="-6.1880970">
        <ele>517.0</ele>
        <time>2021-10-20T10:59:22Z</time>
      </trkpt>
      <trkpt lat="38.0031330" lon="-6.1880900">
        <ele>517.0</ele>
        <time>2021-10-20T10:59:23Z</time>
      </trkpt>
      <trkpt lat="38.0031000" lon="-6.1880760">
        <ele>517.2</ele>
        <time>2021-10-20T10:59:24Z</time>
      </trkpt>
      <trkpt lat="38.0030430" lon="-6.1880500">
        <ele>517.2</ele>
        <time>2021-10-20T10:59:26Z</time>
      </trkpt>
      <trkpt lat="38.0029520" lon="-6.1880000">
        <ele>517.4</ele>
        <time>2021-10-20T10:59:29Z</time>
      </trkpt>
      <trkpt lat="38.0028650" lon="-6.1879350">
        <ele>517.4</ele>
        <time>2021-10-20T10:59:32Z</time>
      </trkpt>
      <trkpt lat="38.0027230" lon="-6.1878070">
        <ele>517.2</ele>
        <time>2021-10-20T10:59:36Z</time>
      </trkpt>
      <trkpt lat="38.0026220" lon="-6.1877150">
        <ele>517.2</ele>
        <time>2021-10-20T10:59:39Z</time>
      </trkpt>
      <trkpt lat="38.0023980" lon="-6.1874320">
        <ele>516.8</ele>
        <time>2021-10-20T10:59:47Z</time>
      </trkpt>
      <trkpt lat="38.0023080" lon="-6.1872770">
        <ele>516.8</ele>
        <time>2021-10-20T10:59:50Z</time>
      </trkpt>
      <trkpt lat="38.0022430" lon="-6.1872000">
        <ele>516.6</ele>
        <time>2021-10-20T10:59:52Z</time>
      </trkpt>
      <trkpt lat="38.0022020" lon="-6.1871640">
        <ele>516.6</ele>
        <time>2021-10-20T10:59:53Z</time>
      </trkpt>
      <trkpt lat="38.0021600" lon="-6.1871280">
        <ele>516.4</ele>
        <time>2021-10-20T10:59:54Z</time>
      </trkpt>
      <trkpt lat="38.0020740" lon="-6.1870530">
        <ele>516.4</ele>
        <time>2021-10-20T10:59:56Z</time>
      </trkpt>
      <trkpt lat="38.0020280" lon="-6.1870280">
        <ele>516.2</ele>
        <time>2021-10-20T10:59:57Z</time>
      </trkpt>
      <trkpt lat="38.0018100" lon="-6.1869580">
        <ele>515.4</ele>
        <time>2021-10-20T11:00:02Z</time>
      </trkpt>
      <trkpt lat="38.0017670" lon="-6.1869380">
        <ele>515.4</ele>
        <time>2021-10-20T11:00:03Z</time>
      </trkpt>
      <trkpt lat="38.0017220" lon="-6.1869170">
        <ele>515.4</ele>
        <time>2021-10-20T11:00:04Z</time>
      </trkpt>
      <trkpt lat="38.0016770" lon="-6.1869010">
        <ele>515.4</ele>
        <time>2021-10-20T11:00:05Z</time>
      </trkpt>
      <trkpt lat="38.0015410" lon="-6.1868480">
        <ele>515.2</ele>
        <time>2021-10-20T11:00:08Z</time>
      </trkpt>
      <trkpt lat="38.0014980" lon="-6.1868250">
        <ele>515.2</ele>
        <time>2021-10-20T11:00:09Z</time>
      </trkpt>
      <trkpt lat="38.0014560" lon="-6.1868020">
        <ele>515.2</ele>
        <time>2021-10-20T11:00:10Z</time>
      </trkpt>
      <trkpt lat="38.0013790" lon="-6.1867430">
        <ele>515.0</ele>
        <time>2021-10-20T11:00:12Z</time>
      </trkpt>
      <trkpt lat="38.0013150" lon="-6.1866720">
        <ele>514.8</ele>
        <time>2021-10-20T11:00:14Z</time>
      </trkpt>
      <trkpt lat="38.0012840" lon="-6.1866350">
        <ele>514.6</ele>
        <time>2021-10-20T11:00:15Z</time>
      </trkpt>
      <trkpt lat="38.0011370" lon="-6.1864410">
        <ele>514.4</ele>
        <time>2021-10-20T11:00:20Z</time>
      </trkpt>
      <trkpt lat="38.0009820" lon="-6.1862260">
        <ele>514.6</ele>
        <time>2021-10-20T11:00:27Z</time>
      </trkpt>
      <trkpt lat="38.0009220" lon="-6.1861510">
        <ele>514.6</ele>
        <time>2021-10-20T11:00:29Z</time>
      </trkpt>
      <trkpt lat="38.0008300" lon="-6.1860770">
        <ele>514.8</ele>
        <time>2021-10-20T11:00:32Z</time>
      </trkpt>
      <trkpt lat="38.0006520" lon="-6.1859960">
        <ele>516.0</ele>
        <time>2021-10-20T11:00:39Z</time>
      </trkpt>
      <trkpt lat="38.0006240" lon="-6.1859870">
        <ele>516.4</ele>
        <time>2021-10-20T11:00:40Z</time>
      </trkpt>
      <trkpt lat="38.0005270" lon="-6.1859530">
        <ele>517.6</ele>
        <time>2021-10-20T11:00:44Z</time>
      </trkpt>
      <trkpt lat="38.0004760" lon="-6.1859260">
        <ele>518.0</ele>
        <time>2021-10-20T11:00:46Z</time>
      </trkpt>
      <trkpt lat="38.0004240" lon="-6.1859060">
        <ele>518.4</ele>
        <time>2021-10-20T11:00:48Z</time>
      </trkpt>
      <trkpt lat="38.0003210" lon="-6.1858450">
        <ele>518.6</ele>
        <time>2021-10-20T11:00:51Z</time>
      </trkpt>
      <trkpt lat="38.0002810" lon="-6.1858170">
        <ele>518.6</ele>
        <time>2021-10-20T11:00:52Z</time>
      </trkpt>
      <trkpt lat="38.0002380" lon="-6.1857930">
        <ele>518.6</ele>
        <time>2021-10-20T11:00:53Z</time>
      </trkpt>
      <trkpt lat="38.0001430" lon="-6.1857560">
        <ele>518.6</ele>
        <time>2021-10-20T11:00:55Z</time>
      </trkpt>
      <trkpt lat="38.0000520" lon="-6.1857490">
        <ele>518.6</ele>
        <time>2021-10-20T11:00:57Z</time>
      </trkpt>
      <trkpt lat="37.9999430" lon="-6.1857690">
        <ele>518.6</ele>
        <time>2021-10-20T11:01:00Z</time>
      </trkpt>
      <trkpt lat="37.9998910" lon="-6.1857790">
        <ele>518.6</ele>
        <time>2021-10-20T11:01:02Z</time>
      </trkpt>
      <trkpt lat="37.9997360" lon="-6.1857950">
        <ele>518.8</ele>
        <time>2021-10-20T11:01:08Z</time>
      </trkpt>
      <trkpt lat="37.9996110" lon="-6.1857820">
        <ele>519.8</ele>
        <time>2021-10-20T11:01:13Z</time>
      </trkpt>
      <trkpt lat="37.9995430" lon="-6.1857670">
        <ele>520.2</ele>
        <time>2021-10-20T11:01:16Z</time>
      </trkpt>
      <trkpt lat="37.9995210" lon="-6.1857620">
        <ele>520.4</ele>
        <time>2021-10-20T11:01:17Z</time>
      </trkpt>
      <trkpt lat="37.9994800" lon="-6.1857440">
        <ele>520.6</ele>
        <time>2021-10-20T11:01:19Z</time>
      </trkpt>
      <trkpt lat="37.9994160" lon="-6.1857130">
        <ele>521.0</ele>
        <time>2021-10-20T11:01:22Z</time>
      </trkpt>
      <trkpt lat="37.9993660" lon="-6.1856880">
        <ele>521.2</ele>
        <time>2021-10-20T11:01:24Z</time>
      </trkpt>
      <trkpt lat="37.9993250" lon="-6.1856690">
        <ele>521.4</ele>
        <time>2021-10-20T11:01:26Z</time>
      </trkpt>
      <trkpt lat="37.9992580" lon="-6.1856210">
        <ele>521.4</ele>
        <time>2021-10-20T11:01:29Z</time>
      </trkpt>
      <trkpt lat="37.9991930" lon="-6.1855690">
        <ele>521.6</ele>
        <time>2021-10-20T11:01:32Z</time>
      </trkpt>
      <trkpt lat="37.9991680" lon="-6.1855510">
        <ele>521.8</ele>
        <time>2021-10-20T11:01:33Z</time>
      </trkpt>
      <trkpt lat="37.9991230" lon="-6.1855110">
        <ele>521.8</ele>
        <time>2021-10-20T11:01:35Z</time>
      </trkpt>
      <trkpt lat="37.9989750" lon="-6.1853880">
        <ele>521.8</ele>
        <time>2021-10-20T11:01:41Z</time>
      </trkpt>
      <trkpt lat="37.9987250" lon="-6.1852540">
        <ele>521.6</ele>
        <time>2021-10-20T11:01:49Z</time>
      </trkpt>
      <trkpt lat="37.9985720" lon="-6.1851490">
        <ele>521.6</ele>
        <time>2021-10-20T11:01:55Z</time>
      </trkpt>
      <trkpt lat="37.9985460" lon="-6.1851220">
        <ele>521.8</ele>
        <time>2021-10-20T11:01:56Z</time>
      </trkpt>
      <trkpt lat="37.9984470" lon="-6.1850120">
        <ele>521.8</ele>
        <time>2021-10-20T11:01:59Z</time>
      </trkpt>
      <trkpt lat="37.9984130" lon="-6.1849630">
        <ele>521.8</ele>
        <time>2021-10-20T11:02:00Z</time>
      </trkpt>
      <trkpt lat="37.9982440" lon="-6.1847240">
        <ele>521.0</ele>
        <time>2021-10-20T11:02:04Z</time>
      </trkpt>
      <trkpt lat="37.9981950" lon="-6.1846530">
        <ele>520.8</ele>
        <time>2021-10-20T11:02:05Z</time>
      </trkpt>
      <trkpt lat="37.9980440" lon="-6.1844260">
        <ele>519.8</ele>
        <time>2021-10-20T11:02:08Z</time>
      </trkpt>
      <trkpt lat="37.9979140" lon="-6.1842300">
        <ele>518.6</ele>
        <time>2021-10-20T11:02:11Z</time>
      </trkpt>
      <trkpt lat="37.9978620" lon="-6.1841670">
        <ele>518.2</ele>
        <time>2021-10-20T11:02:12Z</time>
      </trkpt>
      <trkpt lat="37.9977530" lon="-6.1840450">
        <ele>517.6</ele>
        <time>2021-10-20T11:02:14Z</time>
      </trkpt>
      <trkpt lat="37.9976900" lon="-6.1839980">
        <ele>517.2</ele>
        <time>2021-10-20T11:02:15Z</time>
      </trkpt>
      <trkpt lat="37.9976270" lon="-6.1839640">
        <ele>517.2</ele>
        <time>2021-10-20T11:02:16Z</time>
      </trkpt>
      <trkpt lat="37.9974680" lon="-6.1839170">
        <ele>516.4</ele>
        <time>2021-10-20T11:02:19Z</time>
      </trkpt>
      <trkpt lat="37.9973240" lon="-6.1838670">
        <ele>516.4</ele>
        <time>2021-10-20T11:02:23Z</time>
      </trkpt>
      <trkpt lat="37.9972910" lon="-6.1838540">
        <ele>516.4</ele>
        <time>2021-10-20T11:02:24Z</time>
      </trkpt>
      <trkpt lat="37.9971910" lon="-6.1838030">
        <ele>516.2</ele>
        <time>2021-10-20T11:02:27Z</time>
      </trkpt>
      <trkpt lat="37.9970810" lon="-6.1837400">
        <ele>516.2</ele>
        <time>2021-10-20T11:02:30Z</time>
      </trkpt>
      <trkpt lat="37.9970460" lon="-6.1837180">
        <ele>516.2</ele>
        <time>2021-10-20T11:02:31Z</time>
      </trkpt>
      <trkpt lat="37.9968560" lon="-6.1836360">
        <ele>516.2</ele>
        <time>2021-10-20T11:02:37Z</time>
      </trkpt>
      <trkpt lat="37.9966750" lon="-6.1835490">
        <ele>516.6</ele>
        <time>2021-10-20T11:02:44Z</time>
      </trkpt>
      <trkpt lat="37.9965660" lon="-6.1834810">
        <ele>517.2</ele>
        <time>2021-10-20T11:02:49Z</time>
      </trkpt>
      <trkpt lat="37.9965420" lon="-6.1834660">
        <ele>517.4</ele>
        <time>2021-10-20T11:02:50Z</time>
      </trkpt>
      <trkpt lat="37.9964660" lon="-6.1834280">
        <ele>518.2</ele>
        <time>2021-10-20T11:02:53Z</time>
      </trkpt>
      <trkpt lat="37.9963640" lon="-6.1833420">
        <ele>518.4</ele>
        <time>2021-10-20T11:02:57Z</time>
      </trkpt>
      <trkpt lat="37.9962770" lon="-6.1832540">
        <ele>518.4</ele>
        <time>2021-10-20T11:03:00Z</time>
      </trkpt>
      <trkpt lat="37.9961810" lon="-6.1831580">
        <ele>518.4</ele>
        <time>2021-10-20T11:03:03Z</time>
      </trkpt>
      <trkpt lat="37.9961510" lon="-6.1831270">
        <ele>518.4</ele>
        <time>2021-10-20T11:03:04Z</time>
      </trkpt>
      <trkpt lat="37.9958800" lon="-6.1828800">
        <ele>517.8</ele>
        <time>2021-10-20T11:03:12Z</time>
      </trkpt>
      <trkpt lat="37.9957380" lon="-6.1827620">
        <ele>517.6</ele>
        <time>2021-10-20T11:03:17Z</time>
      </trkpt>
      <trkpt lat="37.9956860" lon="-6.1827170">
        <ele>517.8</ele>
        <time>2021-10-20T11:03:19Z</time>
      </trkpt>
      <trkpt lat="37.9955520" lon="-6.1825910">
        <ele>518.4</ele>
        <time>2021-10-20T11:03:25Z</time>
      </trkpt>
      <trkpt lat="37.9955320" lon="-6.1825650">
        <ele>518.6</ele>
        <time>2021-10-20T11:03:26Z</time>
      </trkpt>
      <trkpt lat="37.9955110" lon="-6.1825410">
        <ele>518.6</ele>
        <time>2021-10-20T11:03:27Z</time>
      </trkpt>
      <trkpt lat="37.9953990" lon="-6.1824070">
        <ele>519.6</ele>
        <time>2021-10-20T11:03:33Z</time>
      </trkpt>
      <trkpt lat="37.9953830" lon="-6.1823820">
        <ele>519.8</ele>
        <time>2021-10-20T11:03:34Z</time>
      </trkpt>
      <trkpt lat="37.9952860" lon="-6.1821880">
        <ele>520.4</ele>
        <time>2021-10-20T11:03:41Z</time>
      </trkpt>
      <trkpt lat="37.9951720" lon="-6.1819670">
        <ele>520.4</ele>
        <time>2021-10-20T11:03:47Z</time>
      </trkpt>
      <trkpt lat="37.9950540" lon="-6.1817540">
        <ele>520.2</ele>
        <time>2021-10-20T11:03:52Z</time>
      </trkpt>
      <trkpt lat="37.9949950" lon="-6.1816830">
        <ele>520.0</ele>
        <time>2021-10-20T11:03:54Z</time>
      </trkpt>
      <trkpt lat="37.9947950" lon="-6.1815410">
        <ele>519.8</ele>
        <time>2021-10-20T11:04:00Z</time>
      </trkpt>
      <trkpt lat="37.9947070" lon="-6.1815290">
        <ele>520.0</ele>
        <time>2021-10-20T11:04:03Z</time>
      </trkpt>
      <trkpt lat="37.9946170" lon="-6.1815060">
        <ele>520.2</ele>
        <time>2021-10-20T11:04:06Z</time>
      </trkpt>
      <trkpt lat="37.9945860" lon="-6.1815010">
        <ele>520.4</ele>
        <time>2021-10-20T11:04:07Z</time>
      </trkpt>
      <trkpt lat="37.9943270" lon="-6.1814070">
        <ele>520.8</ele>
        <time>2021-10-20T11:04:15Z</time>
      </trkpt>
      <trkpt lat="37.9942020" lon="-6.1813240">
        <ele>520.6</ele>
        <time>2021-10-20T11:04:19Z</time>
      </trkpt>
      <trkpt lat="37.9940920" lon="-6.1812400">
        <ele>520.2</ele>
        <time>2021-10-20T11:04:22Z</time>
      </trkpt>
      <trkpt lat="37.9938310" lon="-6.1809990">
        <ele>519.4</ele>
        <time>2021-10-20T11:04:28Z</time>
      </trkpt>
      <trkpt lat="37.9937420" lon="-6.1809100">
        <ele>519.0</ele>
        <time>2021-10-20T11:04:30Z</time>
      </trkpt>
      <trkpt lat="37.9936990" lon="-6.1808660">
        <ele>518.8</ele>
        <time>2021-10-20T11:04:31Z</time>
      </trkpt>
      <trkpt lat="37.9935470" lon="-6.1806810">
        <ele>518.2</ele>
        <time>2021-10-20T11:04:35Z</time>
      </trkpt>
      <trkpt lat="37.9933850" lon="-6.1804560">
        <ele>518.0</ele>
        <time>2021-10-20T11:04:39Z</time>
      </trkpt>
      <trkpt lat="37.9933110" lon="-6.1803220">
        <ele>517.8</ele>
        <time>2021-10-20T11:04:41Z</time>
      </trkpt>
      <trkpt lat="37.9932750" lon="-6.1802520">
        <ele>517.6</ele>
        <time>2021-10-20T11:04:42Z</time>
      </trkpt>
      <trkpt lat="37.9931250" lon="-6.1798760">
        <ele>516.8</ele>
        <time>2021-10-20T11:04:47Z</time>
      </trkpt>
      <trkpt lat="37.9930910" lon="-6.1797940">
        <ele>516.6</ele>
        <time>2021-10-20T11:04:48Z</time>
      </trkpt>
      <trkpt lat="37.9930520" lon="-6.1797190">
        <ele>516.2</ele>
        <time>2021-10-20T11:04:49Z</time>
      </trkpt>
      <trkpt lat="37.9929690" lon="-6.1796000">
        <ele>515.6</ele>
        <time>2021-10-20T11:04:51Z</time>
      </trkpt>
      <trkpt lat="37.9929260" lon="-6.1795550">
        <ele>515.6</ele>
        <time>2021-10-20T11:04:52Z</time>
      </trkpt>
      <trkpt lat="37.9927900" lon="-6.1794680">
        <ele>515.2</ele>
        <time>2021-10-20T11:04:55Z</time>
      </trkpt>
      <trkpt lat="37.9927470" lon="-6.1794510">
        <ele>515.0</ele>
        <time>2021-10-20T11:04:56Z</time>
      </trkpt>
      <trkpt lat="37.9925880" lon="-6.1794150">
        <ele>515.0</ele>
        <time>2021-10-20T11:05:00Z</time>
      </trkpt>
      <trkpt lat="37.9924080" lon="-6.1793670">
        <ele>515.0</ele>
        <time>2021-10-20T11:05:06Z</time>
      </trkpt>
      <trkpt lat="37.9922610" lon="-6.1792580">
        <ele>515.0</ele>
        <time>2021-10-20T11:05:13Z</time>
      </trkpt>
      <trkpt lat="37.9921080" lon="-6.1790290">
        <ele>514.8</ele>
        <time>2021-10-20T11:05:19Z</time>
      </trkpt>
      <trkpt lat="37.9919850" lon="-6.1788210">
        <ele>514.4</ele>
        <time>2021-10-20T11:05:23Z</time>
      </trkpt>
      <trkpt lat="37.9919010" lon="-6.1787070">
        <ele>513.8</ele>
        <time>2021-10-20T11:05:26Z</time>
      </trkpt>
      <trkpt lat="37.9917320" lon="-6.1785320">
        <ele>514.0</ele>
        <time>2021-10-20T11:05:33Z</time>
      </trkpt>
      <trkpt lat="37.9916340" lon="-6.1784050">
        <ele>514.8</ele>
        <time>2021-10-20T11:05:38Z</time>
      </trkpt>
      <trkpt lat="37.9915780" lon="-6.1783250">
        <ele>515.0</ele>
        <time>2021-10-20T11:05:41Z</time>
      </trkpt>
      <trkpt lat="37.9914800" lon="-6.1781940">
        <ele>515.6</ele>
        <time>2021-10-20T11:05:46Z</time>
      </trkpt>
      <trkpt lat="37.9914080" lon="-6.1780960">
        <ele>515.8</ele>
        <time>2021-10-20T11:05:50Z</time>
      </trkpt>
      <trkpt lat="37.9912920" lon="-6.1779390">
        <ele>516.6</ele>
        <time>2021-10-20T11:05:57Z</time>
      </trkpt>
      <trkpt lat="37.9912460" lon="-6.1778870">
        <ele>516.8</ele>
        <time>2021-10-20T11:05:59Z</time>
      </trkpt>
      <trkpt lat="37.9912020" lon="-6.1778210">
        <ele>516.8</ele>
        <time>2021-10-20T11:06:01Z</time>
      </trkpt>
      <trkpt lat="37.9911550" lon="-6.1777500">
        <ele>516.8</ele>
        <time>2021-10-20T11:06:03Z</time>
      </trkpt>
      <trkpt lat="37.9910500" lon="-6.1776100">
        <ele>516.6</ele>
        <time>2021-10-20T11:06:07Z</time>
      </trkpt>
      <trkpt lat="37.9909440" lon="-6.1774560">
        <ele>516.4</ele>
        <time>2021-10-20T11:06:11Z</time>
      </trkpt>
      <trkpt lat="37.9908660" lon="-6.1773270">
        <ele>516.2</ele>
        <time>2021-10-20T11:06:14Z</time>
      </trkpt>
      <trkpt lat="37.9907430" lon="-6.1771010">
        <ele>515.8</ele>
        <time>2021-10-20T11:06:19Z</time>
      </trkpt>
      <trkpt lat="37.9906900" lon="-6.1770040">
        <ele>515.6</ele>
        <time>2021-10-20T11:06:21Z</time>
      </trkpt>
      <trkpt lat="37.9906620" lon="-6.1769520">
        <ele>515.4</ele>
        <time>2021-10-20T11:06:22Z</time>
      </trkpt>
      <trkpt lat="37.9906020" lon="-6.1768450">
        <ele>515.4</ele>
        <time>2021-10-20T11:06:24Z</time>
      </trkpt>
      <trkpt lat="37.9905220" lon="-6.1767500">
        <ele>514.6</ele>
        <time>2021-10-20T11:06:26Z</time>
      </trkpt>
      <trkpt lat="37.9904820" lon="-6.1767140">
        <ele>514.4</ele>
        <time>2021-10-20T11:06:27Z</time>
      </trkpt>
      <trkpt lat="37.9903540" lon="-6.1766010">
        <ele>514.0</ele>
        <time>2021-10-20T11:06:31Z</time>
      </trkpt>
      <trkpt lat="37.9903240" lon="-6.1765750">
        <ele>513.8</ele>
        <time>2021-10-20T11:06:32Z</time>
      </trkpt>
      <trkpt lat="37.9901660" lon="-6.1764290">
        <ele>513.8</ele>
        <time>2021-10-20T11:06:37Z</time>
      </trkpt>
      <trkpt lat="37.9901230" lon="-6.1764010">
        <ele>513.6</ele>
        <time>2021-10-20T11:06:38Z</time>
      </trkpt>
      <trkpt lat="37.9899150" lon="-6.1762530">
        <ele>513.6</ele>
        <time>2021-10-20T11:06:44Z</time>
      </trkpt>
      <trkpt lat="37.9898100" lon="-6.1761840">
        <ele>513.4</ele>
        <time>2021-10-20T11:06:47Z</time>
      </trkpt>
      <trkpt lat="37.9895560" lon="-6.1760290">
        <ele>513.8</ele>
        <time>2021-10-20T11:06:54Z</time>
      </trkpt>
      <trkpt lat="37.9893210" lon="-6.1758590">
        <ele>513.8</ele>
        <time>2021-10-20T11:07:01Z</time>
      </trkpt>
      <trkpt lat="37.9892440" lon="-6.1757980">
        <ele>513.8</ele>
        <time>2021-10-20T11:07:04Z</time>
      </trkpt>
      <trkpt lat="37.9890730" lon="-6.1756620">
        <ele>513.6</ele>
        <time>2021-10-20T11:07:10Z</time>
      </trkpt>
      <trkpt lat="37.9889330" lon="-6.1754990">
        <ele>513.4</ele>
        <time>2021-10-20T11:07:14Z</time>
      </trkpt>
      <trkpt lat="37.9887760" lon="-6.1752940">
        <ele>512.6</ele>
        <time>2021-10-20T11:07:18Z</time>
      </trkpt>
      <trkpt lat="37.9886580" lon="-6.1751380">
        <ele>512.0</ele>
        <time>2021-10-20T11:07:21Z</time>
      </trkpt>
      <trkpt lat="37.9885420" lon="-6.1749780">
        <ele>511.8</ele>
        <time>2021-10-20T11:07:25Z</time>
      </trkpt>
      <trkpt lat="37.9883460" lon="-6.1747240">
        <ele>512.0</ele>
        <time>2021-10-20T11:07:33Z</time>
      </trkpt>
      <trkpt lat="37.9882680" lon="-6.1746430">
        <ele>512.4</ele>
        <time>2021-10-20T11:07:36Z</time>
      </trkpt>
      <trkpt lat="37.9881870" lon="-6.1745630">
        <ele>512.8</ele>
        <time>2021-10-20T11:07:40Z</time>
      </trkpt>
      <trkpt lat="37.9880790" lon="-6.1744500">
        <ele>513.4</ele>
        <time>2021-10-20T11:07:46Z</time>
      </trkpt>
      <trkpt lat="37.9880500" lon="-6.1744100">
        <ele>513.8</ele>
        <time>2021-10-20T11:07:48Z</time>
      </trkpt>
      <trkpt lat="37.9879710" lon="-6.1742880">
        <ele>514.6</ele>
        <time>2021-10-20T11:07:55Z</time>
      </trkpt>
      <trkpt lat="37.9879470" lon="-6.1742530">
        <ele>515.0</ele>
        <time>2021-10-20T11:07:57Z</time>
      </trkpt>
      <trkpt lat="37.9878770" lon="-6.1741540">
        <ele>516.0</ele>
        <time>2021-10-20T11:08:04Z</time>
      </trkpt>
      <trkpt lat="37.9878660" lon="-6.1741420">
        <ele>516.2</ele>
        <time>2021-10-20T11:08:05Z</time>
      </trkpt>
      <trkpt lat="37.9878280" lon="-6.1740830">
        <ele>517.2</ele>
        <time>2021-10-20T11:08:09Z</time>
      </trkpt>
      <trkpt lat="37.9877830" lon="-6.1740230">
        <ele>517.8</ele>
        <time>2021-10-20T11:08:13Z</time>
      </trkpt>
      <trkpt lat="37.9877530" lon="-6.1739700">
        <ele>518.2</ele>
        <time>2021-10-20T11:08:16Z</time>
      </trkpt>
      <trkpt lat="37.9877480" lon="-6.1739540">
        <ele>518.4</ele>
        <time>2021-10-20T11:08:17Z</time>
      </trkpt>
      <trkpt lat="37.9877040" lon="-6.1738840">
        <ele>518.8</ele>
        <time>2021-10-20T11:08:21Z</time>
      </trkpt>
      <trkpt lat="37.9876390" lon="-6.1737880">
        <ele>519.4</ele>
        <time>2021-10-20T11:08:27Z</time>
      </trkpt>
      <trkpt lat="37.9876130" lon="-6.1737530">
        <ele>519.6</ele>
        <time>2021-10-20T11:08:29Z</time>
      </trkpt>
      <trkpt lat="37.9875780" lon="-6.1737020">
        <ele>520.0</ele>
        <time>2021-10-20T11:08:32Z</time>
      </trkpt>
      <trkpt lat="37.9875610" lon="-6.1736650">
        <ele>520.2</ele>
        <time>2021-10-20T11:08:34Z</time>
      </trkpt>
      <trkpt lat="37.9875420" lon="-6.1736250">
        <ele>520.2</ele>
        <time>2021-10-20T11:08:36Z</time>
      </trkpt>
      <trkpt lat="37.9875060" lon="-6.1735710">
        <ele>520.4</ele>
        <time>2021-10-20T11:08:39Z</time>
      </trkpt>
      <trkpt lat="37.9874930" lon="-6.1735530">
        <ele>520.6</ele>
        <time>2021-10-20T11:08:40Z</time>
      </trkpt>
      <trkpt lat="37.9873590" lon="-6.1733290">
        <ele>521.4</ele>
        <time>2021-10-20T11:08:51Z</time>
      </trkpt>
      <trkpt lat="37.9873340" lon="-6.1732900">
        <ele>521.6</ele>
        <time>2021-10-20T11:08:53Z</time>
      </trkpt>
      <trkpt lat="37.9873070" lon="-6.1732520">
        <ele>521.8</ele>
        <time>2021-10-20T11:08:55Z</time>
      </trkpt>
      <trkpt lat="37.9872700" lon="-6.1731940">
        <ele>522.0</ele>
        <time>2021-10-20T11:08:58Z</time>
      </trkpt>
      <trkpt lat="37.9872330" lon="-6.1731330">
        <ele>522.2</ele>
        <time>2021-10-20T11:09:01Z</time>
      </trkpt>
      <trkpt lat="37.9871960" lon="-6.1730670">
        <ele>522.4</ele>
        <time>2021-10-20T11:09:04Z</time>
      </trkpt>
      <trkpt lat="37.9871540" lon="-6.1730010">
        <ele>522.6</ele>
        <time>2021-10-20T11:09:07Z</time>
      </trkpt>
      <trkpt lat="37.9871260" lon="-6.1729540">
        <ele>522.8</ele>
        <time>2021-10-20T11:09:09Z</time>
      </trkpt>
      <trkpt lat="37.9870710" lon="-6.1728600">
        <ele>523.2</ele>
        <time>2021-10-20T11:09:13Z</time>
      </trkpt>
      <trkpt lat="37.9869710" lon="-6.1726920">
        <ele>523.6</ele>
        <time>2021-10-20T11:09:20Z</time>
      </trkpt>
      <trkpt lat="37.9869430" lon="-6.1726440">
        <ele>523.8</ele>
        <time>2021-10-20T11:09:22Z</time>
      </trkpt>
      <trkpt lat="37.9868490" lon="-6.1725070">
        <ele>524.4</ele>
        <time>2021-10-20T11:09:28Z</time>
      </trkpt>
      <trkpt lat="37.9868190" lon="-6.1724590">
        <ele>524.4</ele>
        <time>2021-10-20T11:09:30Z</time>
      </trkpt>
      <trkpt lat="37.9868040" lon="-6.1724390">
        <ele>524.4</ele>
        <time>2021-10-20T11:09:31Z</time>
      </trkpt>
      <trkpt lat="37.9867410" lon="-6.1723480">
        <ele>524.8</ele>
        <time>2021-10-20T11:09:35Z</time>
      </trkpt>
      <trkpt lat="37.9866630" lon="-6.1722550">
        <ele>525.0</ele>
        <time>2021-10-20T11:09:39Z</time>
      </trkpt>
      <trkpt lat="37.9866020" lon="-6.1721660">
        <ele>525.2</ele>
        <time>2021-10-20T11:09:42Z</time>
      </trkpt>
      <trkpt lat="37.9865440" lon="-6.1720870">
        <ele>525.0</ele>
        <time>2021-10-20T11:09:44Z</time>
      </trkpt>
      <trkpt lat="37.9863970" lon="-6.1719210">
        <ele>524.8</ele>
        <time>2021-10-20T11:09:48Z</time>
      </trkpt>
      <trkpt lat="37.9863190" lon="-6.1718170">
        <ele>524.4</ele>
        <time>2021-10-20T11:09:50Z</time>
      </trkpt>
      <trkpt lat="37.9861890" lon="-6.1716490">
        <ele>523.4</ele>
        <time>2021-10-20T11:09:53Z</time>
      </trkpt>
      <trkpt lat="37.9859970" lon="-6.1714000">
        <ele>522.2</ele>
        <time>2021-10-20T11:09:57Z</time>
      </trkpt>
      <trkpt lat="37.9858510" lon="-6.1712090">
        <ele>520.8</ele>
        <time>2021-10-20T11:10:00Z</time>
      </trkpt>
      <trkpt lat="37.9857120" lon="-6.1710180">
        <ele>520.0</ele>
        <time>2021-10-20T11:10:03Z</time>
      </trkpt>
      <trkpt lat="37.9856640" lon="-6.1709540">
        <ele>519.6</ele>
        <time>2021-10-20T11:10:04Z</time>
      </trkpt>
      <trkpt lat="37.9855200" lon="-6.1707650">
        <ele>518.4</ele>
        <time>2021-10-20T11:10:07Z</time>
      </trkpt>
      <trkpt lat="37.9852790" lon="-6.1704580">
        <ele>517.2</ele>
        <time>2021-10-20T11:10:12Z</time>
      </trkpt>
      <trkpt lat="37.9851280" lon="-6.1702810">
        <ele>516.4</ele>
        <time>2021-10-20T11:10:15Z</time>
      </trkpt>
      <trkpt lat="37.9850780" lon="-6.1702230">
        <ele>516.2</ele>
        <time>2021-10-20T11:10:16Z</time>
      </trkpt>
      <trkpt lat="37.9847980" lon="-6.1698840">
        <ele>515.4</ele>
        <time>2021-10-20T11:10:22Z</time>
      </trkpt>
      <trkpt lat="37.9847090" lon="-6.1697750">
        <ele>515.2</ele>
        <time>2021-10-20T11:10:24Z</time>
      </trkpt>
      <trkpt lat="37.9845470" lon="-6.1695330">
        <ele>514.6</ele>
        <time>2021-10-20T11:10:28Z</time>
      </trkpt>
      <trkpt lat="37.9844980" lon="-6.1694840">
        <ele>514.4</ele>
        <time>2021-10-20T11:10:29Z</time>
      </trkpt>
      <trkpt lat="37.9844000" lon="-6.1694130">
        <ele>514.0</ele>
        <time>2021-10-20T11:10:31Z</time>
      </trkpt>
      <trkpt lat="37.9842500" lon="-6.1693290">
        <ele>513.4</ele>
        <time>2021-10-20T11:10:34Z</time>
      </trkpt>
      <trkpt lat="37.9841030" lon="-6.1692460">
        <ele>513.0</ele>
        <time>2021-10-20T11:10:37Z</time>
      </trkpt>
      <trkpt lat="37.9838680" lon="-6.1690950">
        <ele>512.8</ele>
        <time>2021-10-20T11:10:42Z</time>
      </trkpt>
      <trkpt lat="37.9835670" lon="-6.1688560">
        <ele>512.0</ele>
        <time>2021-10-20T11:10:49Z</time>
      </trkpt>
      <trkpt lat="37.9834740" lon="-6.1687880">
        <ele>511.8</ele>
        <time>2021-10-20T11:10:51Z</time>
      </trkpt>
      <trkpt lat="37.9831360" lon="-6.1685380">
        <ele>510.8</ele>
        <time>2021-10-20T11:10:58Z</time>
      </trkpt>
      <trkpt lat="37.9830890" lon="-6.1685020">
        <ele>510.6</ele>
        <time>2021-10-20T11:10:59Z</time>
      </trkpt>
      <trkpt lat="37.9829470" lon="-6.1683890">
        <ele>509.8</ele>
        <time>2021-10-20T11:11:02Z</time>
      </trkpt>
      <trkpt lat="37.9828520" lon="-6.1683140">
        <ele>509.6</ele>
        <time>2021-10-20T11:11:04Z</time>
      </trkpt>
      <trkpt lat="37.9826000" lon="-6.1681480">
        <ele>509.2</ele>
        <time>2021-10-20T11:11:09Z</time>
      </trkpt>
      <trkpt lat="37.9823670" lon="-6.1679730">
        <ele>508.6</ele>
        <time>2021-10-20T11:11:14Z</time>
      </trkpt>
      <trkpt lat="37.9822760" lon="-6.1678950">
        <ele>508.0</ele>
        <time>2021-10-20T11:11:16Z</time>
      </trkpt>
      <trkpt lat="37.9820930" lon="-6.1677240">
        <ele>507.6</ele>
        <time>2021-10-20T11:11:20Z</time>
      </trkpt>
      <trkpt lat="37.9819980" lon="-6.1676520">
        <ele>507.2</ele>
        <time>2021-10-20T11:11:22Z</time>
      </trkpt>
      <trkpt lat="37.9818940" lon="-6.1675960">
        <ele>506.8</ele>
        <time>2021-10-20T11:11:24Z</time>
      </trkpt>
      <trkpt lat="37.9817890" lon="-6.1675510">
        <ele>506.6</ele>
        <time>2021-10-20T11:11:26Z</time>
      </trkpt>
      <trkpt lat="37.9815240" lon="-6.1674550">
        <ele>505.6</ele>
        <time>2021-10-20T11:11:31Z</time>
      </trkpt>
      <trkpt lat="37.9814680" lon="-6.1674450">
        <ele>505.4</ele>
        <time>2021-10-20T11:11:32Z</time>
      </trkpt>
      <trkpt lat="37.9813640" lon="-6.1674240">
        <ele>505.0</ele>
        <time>2021-10-20T11:11:34Z</time>
      </trkpt>
      <trkpt lat="37.9811180" lon="-6.1673380">
        <ele>504.8</ele>
        <time>2021-10-20T11:11:39Z</time>
      </trkpt>
      <trkpt lat="37.9808730" lon="-6.1672460">
        <ele>504.6</ele>
        <time>2021-10-20T11:11:44Z</time>
      </trkpt>
      <trkpt lat="37.9808230" lon="-6.1672430">
        <ele>504.6</ele>
        <time>2021-10-20T11:11:45Z</time>
      </trkpt>
      <trkpt lat="37.9807740" lon="-6.1672420">
        <ele>504.4</ele>
        <time>2021-10-20T11:11:46Z</time>
      </trkpt>
      <trkpt lat="37.9805240" lon="-6.1672090">
        <ele>503.4</ele>
        <time>2021-10-20T11:11:52Z</time>
      </trkpt>
      <trkpt lat="37.9803050" lon="-6.1671570">
        <ele>503.2</ele>
        <time>2021-10-20T11:11:55Z</time>
      </trkpt>
      <trkpt lat="37.9802520" lon="-6.1671400">
        <ele>503.0</ele>
        <time>2021-10-20T11:11:56Z</time>
      </trkpt>
      <trkpt lat="37.9800960" lon="-6.1670820">
        <ele>502.4</ele>
        <time>2021-10-20T11:11:59Z</time>
      </trkpt>
      <trkpt lat="37.9799920" lon="-6.1670400">
        <ele>502.2</ele>
        <time>2021-10-20T11:12:01Z</time>
      </trkpt>
      <trkpt lat="37.9795900" lon="-6.1668890">
        <ele>501.2</ele>
        <time>2021-10-20T11:12:09Z</time>
      </trkpt>
      <trkpt lat="37.9793410" lon="-6.1668160">
        <ele>500.8</ele>
        <time>2021-10-20T11:12:15Z</time>
      </trkpt>
      <trkpt lat="37.9790470" lon="-6.1667430">
        <ele>500.4</ele>
        <time>2021-10-20T11:12:22Z</time>
      </trkpt>
      <trkpt lat="37.9789670" lon="-6.1667230">
        <ele>500.0</ele>
        <time>2021-10-20T11:12:24Z</time>
      </trkpt>
      <trkpt lat="37.9788900" lon="-6.1667010">
        <ele>499.8</ele>
        <time>2021-10-20T11:12:26Z</time>
      </trkpt>
      <trkpt lat="37.9787300" lon="-6.1666970">
        <ele>499.4</ele>
        <time>2021-10-20T11:12:30Z</time>
      </trkpt>
      <trkpt lat="37.9784760" lon="-6.1667250">
        <ele>499.2</ele>
        <time>2021-10-20T11:12:36Z</time>
      </trkpt>
      <trkpt lat="37.9784370" lon="-6.1667360">
        <ele>499.2</ele>
        <time>2021-10-20T11:12:37Z</time>
      </trkpt>
      <trkpt lat="37.9783950" lon="-6.1667450">
        <ele>499.0</ele>
        <time>2021-10-20T11:12:38Z</time>
      </trkpt>
      <trkpt lat="37.9781620" lon="-6.1667980">
        <ele>498.6</ele>
        <time>2021-10-20T11:12:44Z</time>
      </trkpt>
      <trkpt lat="37.9779560" lon="-6.1668350">
        <ele>497.8</ele>
        <time>2021-10-20T11:12:49Z</time>
      </trkpt>
      <trkpt lat="37.9777380" lon="-6.1668720">
        <ele>497.4</ele>
        <time>2021-10-20T11:12:54Z</time>
      </trkpt>
      <trkpt lat="37.9774650" lon="-6.1669210">
        <ele>496.6</ele>
        <time>2021-10-20T11:13:00Z</time>
      </trkpt>
      <trkpt lat="37.9772490" lon="-6.1669460">
        <ele>496.0</ele>
        <time>2021-10-20T11:13:05Z</time>
      </trkpt>
      <trkpt lat="37.9769740" lon="-6.1669250">
        <ele>495.4</ele>
        <time>2021-10-20T11:13:11Z</time>
      </trkpt>
      <trkpt lat="37.9768800" lon="-6.1669140">
        <ele>495.2</ele>
        <time>2021-10-20T11:13:13Z</time>
      </trkpt>
      <trkpt lat="37.9768350" lon="-6.1669120">
        <ele>495.2</ele>
        <time>2021-10-20T11:13:14Z</time>
      </trkpt>
      <trkpt lat="37.9765240" lon="-6.1668930">
        <ele>494.6</ele>
        <time>2021-10-20T11:13:21Z</time>
      </trkpt>
      <trkpt lat="37.9764390" lon="-6.1668800">
        <ele>494.4</ele>
        <time>2021-10-20T11:13:23Z</time>
      </trkpt>
      <trkpt lat="37.9761940" lon="-6.1668240">
        <ele>494.0</ele>
        <time>2021-10-20T11:13:29Z</time>
      </trkpt>
      <trkpt lat="37.9758850" lon="-6.1667150">
        <ele>493.4</ele>
        <time>2021-10-20T11:13:36Z</time>
      </trkpt>
      <trkpt lat="37.9758390" lon="-6.1666990">
        <ele>493.4</ele>
        <time>2021-10-20T11:13:37Z</time>
      </trkpt>
      <trkpt lat="37.9756080" lon="-6.1666200">
        <ele>493.0</ele>
        <time>2021-10-20T11:13:42Z</time>
      </trkpt>
      <trkpt lat="37.9755590" lon="-6.1666050">
        <ele>492.8</ele>
        <time>2021-10-20T11:13:43Z</time>
      </trkpt>
      <trkpt lat="37.9754550" lon="-6.1665760">
        <ele>492.8</ele>
        <time>2021-10-20T11:13:45Z</time>
      </trkpt>
      <trkpt lat="37.9754020" lon="-6.1665610">
        <ele>492.8</ele>
        <time>2021-10-20T11:13:46Z</time>
      </trkpt>
      <trkpt lat="37.9752530" lon="-6.1665430">
        <ele>492.6</ele>
        <time>2021-10-20T11:13:49Z</time>
      </trkpt>
      <trkpt lat="37.9751650" lon="-6.1665380">
        <ele>492.4</ele>
        <time>2021-10-20T11:13:51Z</time>
      </trkpt>
      <trkpt lat="37.9750000" lon="-6.1665340">
        <ele>492.2</ele>
        <time>2021-10-20T11:13:55Z</time>
      </trkpt>
      <trkpt lat="37.9748460" lon="-6.1665190">
        <ele>492.2</ele>
        <time>2021-10-20T11:13:59Z</time>
      </trkpt>
      <trkpt lat="37.9745300" lon="-6.1663990">
        <ele>492.2</ele>
        <time>2021-10-20T11:14:07Z</time>
      </trkpt>
      <trkpt lat="37.9742590" lon="-6.1661680">
        <ele>491.6</ele>
        <time>2021-10-20T11:14:13Z</time>
      </trkpt>
      <trkpt lat="37.9742080" lon="-6.1661310">
        <ele>491.4</ele>
        <time>2021-10-20T11:14:14Z</time>
      </trkpt>
      <trkpt lat="37.9740330" lon="-6.1660220">
        <ele>490.4</ele>
        <time>2021-10-20T11:14:18Z</time>
      </trkpt>
      <trkpt lat="37.9739590" lon="-6.1659800">
        <ele>490.2</ele>
        <time>2021-10-20T11:14:20Z</time>
      </trkpt>
      <trkpt lat="37.9738000" lon="-6.1658820">
        <ele>490.6</ele>
        <time>2021-10-20T11:14:26Z</time>
      </trkpt>
      <trkpt lat="37.9736690" lon="-6.1658110">
        <ele>491.4</ele>
        <time>2021-10-20T11:14:32Z</time>
      </trkpt>
      <trkpt lat="37.9736490" lon="-6.1658010">
        <ele>491.6</ele>
        <time>2021-10-20T11:14:33Z</time>
      </trkpt>
      <trkpt lat="37.9735620" lon="-6.1657590">
        <ele>492.4</ele>
        <time>2021-10-20T11:14:38Z</time>
      </trkpt>
      <trkpt lat="37.9735220" lon="-6.1657470">
        <ele>492.8</ele>
        <time>2021-10-20T11:14:40Z</time>
      </trkpt>
      <trkpt lat="37.9734520" lon="-6.1657090">
        <ele>493.6</ele>
        <time>2021-10-20T11:14:44Z</time>
      </trkpt>
      <trkpt lat="37.9733780" lon="-6.1656860">
        <ele>494.4</ele>
        <time>2021-10-20T11:14:49Z</time>
      </trkpt>
      <trkpt lat="37.9733460" lon="-6.1656750">
        <ele>494.6</ele>
        <time>2021-10-20T11:14:51Z</time>
      </trkpt>
      <trkpt lat="37.9732360" lon="-6.1656420">
        <ele>495.6</ele>
        <time>2021-10-20T11:14:58Z</time>
      </trkpt>
      <trkpt lat="37.9732200" lon="-6.1656430">
        <ele>495.6</ele>
        <time>2021-10-20T11:14:59Z</time>
      </trkpt>
      <trkpt lat="37.9731560" lon="-6.1656440">
        <ele>496.2</ele>
        <time>2021-10-20T11:15:03Z</time>
      </trkpt>
      <trkpt lat="37.9731230" lon="-6.1656400">
        <ele>496.8</ele>
        <time>2021-10-20T11:15:05Z</time>
      </trkpt>
      <trkpt lat="37.9731070" lon="-6.1656410">
        <ele>497.0</ele>
        <time>2021-10-20T11:15:06Z</time>
      </trkpt>
      <trkpt lat="37.9729960" lon="-6.1656290">
        <ele>497.6</ele>
        <time>2021-10-20T11:15:13Z</time>
      </trkpt>
      <trkpt lat="37.9728780" lon="-6.1656270">
        <ele>497.8</ele>
        <time>2021-10-20T11:15:18Z</time>
      </trkpt>
      <trkpt lat="37.9727620" lon="-6.1656060">
        <ele>497.8</ele>
        <time>2021-10-20T11:15:22Z</time>
      </trkpt>
      <trkpt lat="37.9725390" lon="-6.1655760">
        <ele>497.8</ele>
        <time>2021-10-20T11:15:28Z</time>
      </trkpt>
      <trkpt lat="37.9723030" lon="-6.1654890">
        <ele>497.0</ele>
        <time>2021-10-20T11:15:34Z</time>
      </trkpt>
      <trkpt lat="37.9722180" lon="-6.1654540">
        <ele>496.6</ele>
        <time>2021-10-20T11:15:36Z</time>
      </trkpt>
      <trkpt lat="37.9720390" lon="-6.1653620">
        <ele>496.2</ele>
        <time>2021-10-20T11:15:40Z</time>
      </trkpt>
      <trkpt lat="37.9719480" lon="-6.1653030">
        <ele>496.0</ele>
        <time>2021-10-20T11:15:42Z</time>
      </trkpt>
      <trkpt lat="37.9717890" lon="-6.1652130">
        <ele>495.6</ele>
        <time>2021-10-20T11:15:45Z</time>
      </trkpt>
      <trkpt lat="37.9715910" lon="-6.1651610">
        <ele>495.2</ele>
        <time>2021-10-20T11:15:48Z</time>
      </trkpt>
      <trkpt lat="37.9713580" lon="-6.1651350">
        <ele>494.2</ele>
        <time>2021-10-20T11:15:51Z</time>
      </trkpt>
      <trkpt lat="37.9711030" lon="-6.1651180">
        <ele>493.0</ele>
        <time>2021-10-20T11:15:54Z</time>
      </trkpt>
      <trkpt lat="37.9709220" lon="-6.1651080">
        <ele>491.2</ele>
        <time>2021-10-20T11:15:56Z</time>
      </trkpt>
      <trkpt lat="37.9706470" lon="-6.1650890">
        <ele>490.2</ele>
        <time>2021-10-20T11:15:59Z</time>
      </trkpt>
      <trkpt lat="37.9703780" lon="-6.1650690">
        <ele>489.2</ele>
        <time>2021-10-20T11:16:02Z</time>
      </trkpt>
      <trkpt lat="37.9702080" lon="-6.1650600">
        <ele>488.0</ele>
        <time>2021-10-20T11:16:04Z</time>
      </trkpt>
      <trkpt lat="37.9699690" lon="-6.1650410">
        <ele>486.8</ele>
        <time>2021-10-20T11:16:07Z</time>
      </trkpt>
      <trkpt lat="37.9698970" lon="-6.1650320">
        <ele>486.6</ele>
        <time>2021-10-20T11:16:08Z</time>
      </trkpt>
      <trkpt lat="37.9698290" lon="-6.1650180">
        <ele>486.4</ele>
        <time>2021-10-20T11:16:09Z</time>
      </trkpt>
      <trkpt lat="37.9696500" lon="-6.1649430">
        <ele>486.2</ele>
        <time>2021-10-20T11:16:12Z</time>
      </trkpt>
      <trkpt lat="37.9694300" lon="-6.1648010">
        <ele>485.6</ele>
        <time>2021-10-20T11:16:16Z</time>
      </trkpt>
      <trkpt lat="37.9692250" lon="-6.1646900">
        <ele>485.4</ele>
        <time>2021-10-20T11:16:19Z</time>
      </trkpt>
      <trkpt lat="37.9690380" lon="-6.1645580">
        <ele>484.2</ele>
        <time>2021-10-20T11:16:22Z</time>
      </trkpt>
      <trkpt lat="37.9689060" lon="-6.1644310">
        <ele>483.4</ele>
        <time>2021-10-20T11:16:24Z</time>
      </trkpt>
      <trkpt lat="37.9688470" lon="-6.1643770">
        <ele>483.0</ele>
        <time>2021-10-20T11:16:25Z</time>
      </trkpt>
      <trkpt lat="37.9686220" lon="-6.1641650">
        <ele>481.8</ele>
        <time>2021-10-20T11:16:29Z</time>
      </trkpt>
      <trkpt lat="37.9684820" lon="-6.1640150">
        <ele>481.2</ele>
        <time>2021-10-20T11:16:32Z</time>
      </trkpt>
      <trkpt lat="37.9683370" lon="-6.1638580">
        <ele>480.6</ele>
        <time>2021-10-20T11:16:35Z</time>
      </trkpt>
      <trkpt lat="37.9681830" lon="-6.1636770">
        <ele>480.4</ele>
        <time>2021-10-20T11:16:39Z</time>
      </trkpt>
      <trkpt lat="37.9679740" lon="-6.1634770">
        <ele>480.2</ele>
        <time>2021-10-20T11:16:45Z</time>
      </trkpt>
      <trkpt lat="37.9678090" lon="-6.1633460">
        <ele>480.0</ele>
        <time>2021-10-20T11:16:49Z</time>
      </trkpt>
      <trkpt lat="37.9677070" lon="-6.1632860">
        <ele>479.6</ele>
        <time>2021-10-20T11:16:51Z</time>
      </trkpt>
      <trkpt lat="37.9676630" lon="-6.1632630">
        <ele>479.6</ele>
        <time>2021-10-20T11:16:52Z</time>
      </trkpt>
      <trkpt lat="37.9675430" lon="-6.1632110">
        <ele>478.8</ele>
        <time>2021-10-20T11:16:54Z</time>
      </trkpt>
      <trkpt lat="37.9674020" lon="-6.1631870">
        <ele>478.6</ele>
        <time>2021-10-20T11:16:56Z</time>
      </trkpt>
      <trkpt lat="37.9673490" lon="-6.1631800">
        <ele>478.2</ele>
        <time>2021-10-20T11:16:57Z</time>
      </trkpt>
      <trkpt lat="37.9671370" lon="-6.1631320">
        <ele>477.2</ele>
        <time>2021-10-20T11:17:00Z</time>
      </trkpt>
      <trkpt lat="37.9670010" lon="-6.1631070">
        <ele>476.4</ele>
        <time>2021-10-20T11:17:02Z</time>
      </trkpt>
      <trkpt lat="37.9669450" lon="-6.1630960">
        <ele>475.8</ele>
        <time>2021-10-20T11:17:03Z</time>
      </trkpt>
      <trkpt lat="37.9665820" lon="-6.1630240">
        <ele>474.6</ele>
        <time>2021-10-20T11:17:08Z</time>
      </trkpt>
      <trkpt lat="37.9663200" lon="-6.1629910">
        <ele>473.8</ele>
        <time>2021-10-20T11:17:12Z</time>
      </trkpt>
      <trkpt lat="37.9659730" lon="-6.1629700">
        <ele>472.8</ele>
        <time>2021-10-20T11:17:17Z</time>
      </trkpt>
      <trkpt lat="37.9657240" lon="-6.1629510">
        <ele>471.6</ele>
        <time>2021-10-20T11:17:21Z</time>
      </trkpt>
      <trkpt lat="37.9653500" lon="-6.1628550">
        <ele>470.6</ele>
        <time>2021-10-20T11:17:28Z</time>
      </trkpt>
      <trkpt lat="37.9650840" lon="-6.1627970">
        <ele>469.6</ele>
        <time>2021-10-20T11:17:34Z</time>
      </trkpt>
      <trkpt lat="37.9650300" lon="-6.1627890">
        <ele>469.6</ele>
        <time>2021-10-20T11:17:35Z</time>
      </trkpt>
      <trkpt lat="37.9648530" lon="-6.1627770">
        <ele>469.4</ele>
        <time>2021-10-20T11:17:39Z</time>
      </trkpt>
      <trkpt lat="37.9646710" lon="-6.1627800">
        <ele>469.0</ele>
        <time>2021-10-20T11:17:43Z</time>
      </trkpt>
      <trkpt lat="37.9643940" lon="-6.1628030">
        <ele>468.4</ele>
        <time>2021-10-20T11:17:49Z</time>
      </trkpt>
      <trkpt lat="37.9642260" lon="-6.1628060">
        <ele>468.2</ele>
        <time>2021-10-20T11:17:52Z</time>
      </trkpt>
      <trkpt lat="37.9641810" lon="-6.1628060">
        <ele>468.0</ele>
        <time>2021-10-20T11:17:53Z</time>
      </trkpt>
      <trkpt lat="37.9639880" lon="-6.1627870">
        <ele>467.2</ele>
        <time>2021-10-20T11:17:56Z</time>
      </trkpt>
      <trkpt lat="37.9639260" lon="-6.1627750">
        <ele>467.2</ele>
        <time>2021-10-20T11:17:57Z</time>
      </trkpt>
      <trkpt lat="37.9635910" lon="-6.1626900">
        <ele>466.2</ele>
        <time>2021-10-20T11:18:02Z</time>
      </trkpt>
      <trkpt lat="37.9634660" lon="-6.1626500">
        <ele>465.8</ele>
        <time>2021-10-20T11:18:04Z</time>
      </trkpt>
      <trkpt lat="37.9632500" lon="-6.1625770">
        <ele>465.0</ele>
        <time>2021-10-20T11:18:07Z</time>
      </trkpt>
      <trkpt lat="37.9629750" lon="-6.1624980">
        <ele>463.6</ele>
        <time>2021-10-20T11:18:11Z</time>
      </trkpt>
      <trkpt lat="37.9628400" lon="-6.1624650">
        <ele>462.8</ele>
        <time>2021-10-20T11:18:13Z</time>
      </trkpt>
      <trkpt lat="37.9627760" lon="-6.1624500">
        <ele>462.4</ele>
        <time>2021-10-20T11:18:14Z</time>
      </trkpt>
      <trkpt lat="37.9624810" lon="-6.1623640">
        <ele>461.6</ele>
        <time>2021-10-20T11:18:19Z</time>
      </trkpt>
      <trkpt lat="37.9622760" lon="-6.1623060">
        <ele>461.4</ele>
        <time>2021-10-20T11:18:24Z</time>
      </trkpt>
      <trkpt lat="37.9620300" lon="-6.1622390">
        <ele>461.8</ele>
        <time>2021-10-20T11:18:31Z</time>
      </trkpt>
      <trkpt lat="37.9618010" lon="-6.1622300">
        <ele>462.8</ele>
        <time>2021-10-20T11:18:38Z</time>
      </trkpt>
      <trkpt lat="37.9618010" lon="-6.1622300">
        <ele>463.0</ele>
        <time>2021-10-20T11:18:39Z</time>
      </trkpt>
      <trkpt lat="37.9615540" lon="-6.1622790">
        <ele>463.4</ele>
        <time>2021-10-20T11:18:45Z</time>
      </trkpt>
      <trkpt lat="37.9615070" lon="-6.1622940">
        <ele>463.4</ele>
        <time>2021-10-20T11:18:46Z</time>
      </trkpt>
      <trkpt lat="37.9612120" lon="-6.1623760">
        <ele>463.0</ele>
        <time>2021-10-20T11:18:51Z</time>
      </trkpt>
      <trkpt lat="37.9609170" lon="-6.1623780">
        <ele>461.4</ele>
        <time>2021-10-20T11:18:55Z</time>
      </trkpt>
      <trkpt lat="37.9608390" lon="-6.1623740">
        <ele>461.0</ele>
        <time>2021-10-20T11:18:56Z</time>
      </trkpt>
      <trkpt lat="37.9605980" lon="-6.1623460">
        <ele>460.2</ele>
        <time>2021-10-20T11:18:59Z</time>
      </trkpt>
      <trkpt lat="37.9603630" lon="-6.1623120">
        <ele>459.0</ele>
        <time>2021-10-20T11:19:02Z</time>
      </trkpt>
      <trkpt lat="37.9602880" lon="-6.1623000">
        <ele>458.6</ele>
        <time>2021-10-20T11:19:03Z</time>
      </trkpt>
      <trkpt lat="37.9601430" lon="-6.1622760">
        <ele>457.8</ele>
        <time>2021-10-20T11:19:05Z</time>
      </trkpt>
      <trkpt lat="37.9599420" lon="-6.1622210">
        <ele>457.4</ele>
        <time>2021-10-20T11:19:08Z</time>
      </trkpt>
      <trkpt lat="37.9596540" lon="-6.1621470">
        <ele>457.0</ele>
        <time>2021-10-20T11:19:13Z</time>
      </trkpt>
      <trkpt lat="37.9596040" lon="-6.1621320">
        <ele>457.0</ele>
        <time>2021-10-20T11:19:14Z</time>
      </trkpt>
      <trkpt lat="37.9595200" lon="-6.1620990">
        <ele>456.8</ele>
        <time>2021-10-20T11:19:16Z</time>
      </trkpt>
      <trkpt lat="37.9594870" lon="-6.1620780">
        <ele>456.8</ele>
        <time>2021-10-20T11:19:17Z</time>
      </trkpt>
      <trkpt lat="37.9594230" lon="-6.1620370">
        <ele>456.6</ele>
        <time>2021-10-20T11:19:19Z</time>
      </trkpt>
      <trkpt lat="37.9593390" lon="-6.1619840">
        <ele>456.6</ele>
        <time>2021-10-20T11:19:22Z</time>
      </trkpt>
      <trkpt lat="37.9592370" lon="-6.1619130">
        <ele>456.4</ele>
        <time>2021-10-20T11:19:26Z</time>
      </trkpt>
      <trkpt lat="37.9592040" lon="-6.1618900">
        <ele>456.0</ele>
        <time>2021-10-20T11:19:31Z</time>
      </trkpt>
      <trkpt lat="37.9591710" lon="-6.1618580">
        <ele>455.0</ele>
        <time>2021-10-20T11:22:02Z</time>
      </trkpt>
      <trkpt lat="37.9591120" lon="-6.1617980">
        <ele>455.0</ele>
        <time>2021-10-20T11:22:04Z</time>
      </trkpt>
      <trkpt lat="37.9589400" lon="-6.1616540">
        <ele>454.6</ele>
        <time>2021-10-20T11:22:08Z</time>
      </trkpt>
      <trkpt lat="37.9588340" lon="-6.1615600">
        <ele>454.0</ele>
        <time>2021-10-20T11:22:10Z</time>
      </trkpt>
      <trkpt lat="37.9587210" lon="-6.1614470">
        <ele>453.4</ele>
        <time>2021-10-20T11:22:12Z</time>
      </trkpt>
      <trkpt lat="37.9586080" lon="-6.1613100">
        <ele>452.8</ele>
        <time>2021-10-20T11:22:14Z</time>
      </trkpt>
      <trkpt lat="37.9584980" lon="-6.1611560">
        <ele>451.6</ele>
        <time>2021-10-20T11:22:16Z</time>
      </trkpt>
      <trkpt lat="37.9584430" lon="-6.1610750">
        <ele>451.4</ele>
        <time>2021-10-20T11:22:17Z</time>
      </trkpt>
      <trkpt lat="37.9583300" lon="-6.1609100">
        <ele>450.6</ele>
        <time>2021-10-20T11:22:19Z</time>
      </trkpt>
      <trkpt lat="37.9581470" lon="-6.1606730">
        <ele>449.4</ele>
        <time>2021-10-20T11:22:22Z</time>
      </trkpt>
      <trkpt lat="37.9580830" lon="-6.1606000">
        <ele>449.0</ele>
        <time>2021-10-20T11:22:23Z</time>
      </trkpt>
      <trkpt lat="37.9579490" lon="-6.1604650">
        <ele>448.0</ele>
        <time>2021-10-20T11:22:25Z</time>
      </trkpt>
      <trkpt lat="37.9576710" lon="-6.1602450">
        <ele>446.8</ele>
        <time>2021-10-20T11:22:29Z</time>
      </trkpt>
      <trkpt lat="37.9574480" lon="-6.1600880">
        <ele>445.8</ele>
        <time>2021-10-20T11:22:33Z</time>
      </trkpt>
      <trkpt lat="37.9574060" lon="-6.1600580">
        <ele>445.6</ele>
        <time>2021-10-20T11:22:34Z</time>
      </trkpt>
      <trkpt lat="37.9572820" lon="-6.1599790">
        <ele>444.4</ele>
        <time>2021-10-20T11:22:38Z</time>
      </trkpt>
      <trkpt lat="37.9572150" lon="-6.1599410">
        <ele>443.4</ele>
        <time>2021-10-20T11:22:43Z</time>
      </trkpt>
      <trkpt lat="37.9572130" lon="-6.1599380">
        <ele>443.0</ele>
        <time>2021-10-20T11:22:46Z</time>
      </trkpt>
      <trkpt lat="37.9571680" lon="-6.1599420">
        <ele>442.6</ele>
        <time>2021-10-20T11:23:11Z</time>
      </trkpt>
      <trkpt lat="37.9571530" lon="-6.1599400">
        <ele>442.6</ele>
        <time>2021-10-20T11:23:12Z</time>
      </trkpt>
      <trkpt lat="37.9571230" lon="-6.1599290">
        <ele>442.6</ele>
        <time>2021-10-20T11:23:14Z</time>
      </trkpt>
      <trkpt lat="37.9571000" lon="-6.1599250">
        <ele>442.0</ele>
        <time>2021-10-20T11:23:18Z</time>
      </trkpt>
      <trkpt lat="37.9570620" lon="-6.1598860">
        <ele>441.6</ele>
        <time>2021-10-20T11:23:24Z</time>
      </trkpt>
      <trkpt lat="37.9570210" lon="-6.1598530">
        <ele>441.6</ele>
        <time>2021-10-20T11:23:26Z</time>
      </trkpt>
      <trkpt lat="37.9569680" lon="-6.1598050">
        <ele>441.4</ele>
        <time>2021-10-20T11:23:29Z</time>
      </trkpt>
      <trkpt lat="37.9569390" lon="-6.1597680">
        <ele>441.2</ele>
        <time>2021-10-20T11:23:32Z</time>
      </trkpt>
      <trkpt lat="37.9569360" lon="-6.1597670">
        <ele>441.2</ele>
        <time>2021-10-20T11:23:34Z</time>
      </trkpt>
      <trkpt lat="37.9568740" lon="-6.1597260">
        <ele>441.2</ele>
        <time>2021-10-20T11:23:43Z</time>
      </trkpt>
      <trkpt lat="37.9568540" lon="-6.1597120">
        <ele>441.2</ele>
        <time>2021-10-20T11:23:44Z</time>
      </trkpt>
      <trkpt lat="37.9567780" lon="-6.1596690">
        <ele>441.4</ele>
        <time>2021-10-20T11:23:49Z</time>
      </trkpt>
      <trkpt lat="37.9567650" lon="-6.1596630">
        <ele>441.8</ele>
        <time>2021-10-20T11:23:53Z</time>
      </trkpt>
      <trkpt lat="37.9567420" lon="-6.1596020">
        <ele>443.0</ele>
        <time>2021-10-20T11:27:37Z</time>
      </trkpt>
      <trkpt lat="37.9567300" lon="-6.1595830">
        <ele>443.0</ele>
        <time>2021-10-20T11:27:38Z</time>
      </trkpt>
      <trkpt lat="37.9566590" lon="-6.1594570">
        <ele>443.6</ele>
        <time>2021-10-20T11:27:45Z</time>
      </trkpt>
      <trkpt lat="37.9566410" lon="-6.1594230">
        <ele>444.2</ele>
        <time>2021-10-20T11:27:47Z</time>
      </trkpt>
      <trkpt lat="37.9566060" lon="-6.1593480">
        <ele>445.2</ele>
        <time>2021-10-20T11:27:52Z</time>
      </trkpt>
      <trkpt lat="37.9566020" lon="-6.1593210">
        <ele>445.6</ele>
        <time>2021-10-20T11:27:54Z</time>
      </trkpt>
      <trkpt lat="37.9565820" lon="-6.1592600">
        <ele>446.0</ele>
        <time>2021-10-20T11:27:58Z</time>
      </trkpt>
      <trkpt lat="37.9565750" lon="-6.1592450">
        <ele>446.4</ele>
        <time>2021-10-20T11:27:59Z</time>
      </trkpt>
      <trkpt lat="37.9565660" lon="-6.1591870">
        <ele>447.2</ele>
        <time>2021-10-20T11:28:03Z</time>
      </trkpt>
      <trkpt lat="37.9565600" lon="-6.1591540">
        <ele>447.4</ele>
        <time>2021-10-20T11:28:05Z</time>
      </trkpt>
      <trkpt lat="37.9565510" lon="-6.1591240">
        <ele>447.6</ele>
        <time>2021-10-20T11:28:07Z</time>
      </trkpt>
      <trkpt lat="37.9565340" lon="-6.1590690">
        <ele>448.2</ele>
        <time>2021-10-20T11:28:11Z</time>
      </trkpt>
      <trkpt lat="37.9565290" lon="-6.1590570">
        <ele>448.6</ele>
        <time>2021-10-20T11:28:12Z</time>
      </trkpt>
      <trkpt lat="37.9565110" lon="-6.1589950">
        <ele>449.4</ele>
        <time>2021-10-20T11:28:17Z</time>
      </trkpt>
      <trkpt lat="37.9565030" lon="-6.1589840">
        <ele>449.4</ele>
        <time>2021-10-20T11:28:18Z</time>
      </trkpt>
      <trkpt lat="37.9564980" lon="-6.1589750">
        <ele>449.6</ele>
        <time>2021-10-20T11:28:19Z</time>
      </trkpt>
      <trkpt lat="37.9564940" lon="-6.1589640">
        <ele>449.6</ele>
        <time>2021-10-20T11:28:20Z</time>
      </trkpt>
      <trkpt lat="37.9564750" lon="-6.1589180">
        <ele>450.4</ele>
        <time>2021-10-20T11:28:24Z</time>
      </trkpt>
      <trkpt lat="37.9564630" lon="-6.1588900">
        <ele>450.6</ele>
        <time>2021-10-20T11:28:26Z</time>
      </trkpt>
      <trkpt lat="37.9564340" lon="-6.1588240">
        <ele>451.2</ele>
        <time>2021-10-20T11:28:31Z</time>
      </trkpt>
      <trkpt lat="37.9564070" lon="-6.1587450">
        <ele>451.8</ele>
        <time>2021-10-20T11:28:37Z</time>
      </trkpt>
      <trkpt lat="37.9564000" lon="-6.1587210">
        <ele>452.2</ele>
        <time>2021-10-20T11:28:39Z</time>
      </trkpt>
      <trkpt lat="37.9563920" lon="-6.1586930">
        <ele>452.4</ele>
        <time>2021-10-20T11:28:41Z</time>
      </trkpt>
      <trkpt lat="37.9563760" lon="-6.1586460">
        <ele>452.8</ele>
        <time>2021-10-20T11:28:44Z</time>
      </trkpt>
      <trkpt lat="37.9563730" lon="-6.1586330">
        <ele>453.0</ele>
        <time>2021-10-20T11:28:45Z</time>
      </trkpt>
      <trkpt lat="37.9563640" lon="-6.1586110">
        <ele>453.2</ele>
        <time>2021-10-20T11:28:47Z</time>
      </trkpt>
      <trkpt lat="37.9563420" lon="-6.1585660">
        <ele>453.8</ele>
        <time>2021-10-20T11:28:51Z</time>
      </trkpt>
      <trkpt lat="37.9563320" lon="-6.1585560">
        <ele>454.0</ele>
        <time>2021-10-20T11:28:52Z</time>
      </trkpt>
      <trkpt lat="37.9563230" lon="-6.1585470">
        <ele>454.2</ele>
        <time>2021-10-20T11:28:53Z</time>
      </trkpt>
      <trkpt lat="37.9563110" lon="-6.1585260">
        <ele>454.2</ele>
        <time>2021-10-20T11:28:55Z</time>
      </trkpt>
      <trkpt lat="37.9563010" lon="-6.1584960">
        <ele>454.6</ele>
        <time>2021-10-20T11:28:57Z</time>
      </trkpt>
      <trkpt lat="37.9562840" lon="-6.1584660">
        <ele>454.8</ele>
        <time>2021-10-20T11:29:00Z</time>
      </trkpt>
      <trkpt lat="37.9562770" lon="-6.1584560">
        <ele>455.0</ele>
        <time>2021-10-20T11:29:01Z</time>
      </trkpt>
      <trkpt lat="37.9562450" lon="-6.1584250">
        <ele>455.2</ele>
        <time>2021-10-20T11:29:04Z</time>
      </trkpt>
      <trkpt lat="37.9562190" lon="-6.1583930">
        <ele>455.4</ele>
        <time>2021-10-20T11:29:07Z</time>
      </trkpt>
      <trkpt lat="37.9562120" lon="-6.1583820">
        <ele>455.6</ele>
        <time>2021-10-20T11:29:08Z</time>
      </trkpt>
      <trkpt lat="37.9561980" lon="-6.1583590">
        <ele>456.0</ele>
        <time>2021-10-20T11:29:10Z</time>
      </trkpt>
      <trkpt lat="37.9561820" lon="-6.1583340">
        <ele>456.2</ele>
        <time>2021-10-20T11:29:12Z</time>
      </trkpt>
      <trkpt lat="37.9561640" lon="-6.1583180">
        <ele>456.6</ele>
        <time>2021-10-20T11:29:14Z</time>
      </trkpt>
      <trkpt lat="37.9561410" lon="-6.1582790">
        <ele>457.0</ele>
        <time>2021-10-20T11:29:17Z</time>
      </trkpt>
      <trkpt lat="37.9561350" lon="-6.1582660">
        <ele>457.2</ele>
        <time>2021-10-20T11:29:18Z</time>
      </trkpt>
      <trkpt lat="37.9561130" lon="-6.1582320">
        <ele>457.6</ele>
        <time>2021-10-20T11:29:21Z</time>
      </trkpt>
      <trkpt lat="37.9560690" lon="-6.1581860">
        <ele>458.2</ele>
        <time>2021-10-20T11:29:26Z</time>
      </trkpt>
      <trkpt lat="37.9560580" lon="-6.1581790">
        <ele>458.2</ele>
        <time>2021-10-20T11:29:27Z</time>
      </trkpt>
      <trkpt lat="37.9559590" lon="-6.1581110">
        <ele>459.0</ele>
        <time>2021-10-20T11:29:36Z</time>
      </trkpt>
      <trkpt lat="37.9559320" lon="-6.1580990">
        <ele>459.2</ele>
        <time>2021-10-20T11:29:38Z</time>
      </trkpt>
      <trkpt lat="37.9558650" lon="-6.1580820">
        <ele>460.0</ele>
        <time>2021-10-20T11:29:43Z</time>
      </trkpt>
      <trkpt lat="37.9558370" lon="-6.1580810">
        <ele>460.0</ele>
        <time>2021-10-20T11:29:45Z</time>
      </trkpt>
      <trkpt lat="37.9558000" lon="-6.1580780">
        <ele>460.2</ele>
        <time>2021-10-20T11:29:48Z</time>
      </trkpt>
      <trkpt lat="37.9557780" lon="-6.1580770">
        <ele>460.4</ele>
        <time>2021-10-20T11:29:50Z</time>
      </trkpt>
      <trkpt lat="37.9557030" lon="-6.1580890">
        <ele>461.0</ele>
        <time>2021-10-20T11:29:55Z</time>
      </trkpt>
      <trkpt lat="37.9556750" lon="-6.1580890">
        <ele>461.0</ele>
        <time>2021-10-20T11:29:57Z</time>
      </trkpt>
      <trkpt lat="37.9556450" lon="-6.1580880">
        <ele>461.2</ele>
        <time>2021-10-20T11:29:59Z</time>
      </trkpt>
      <trkpt lat="37.9555910" lon="-6.1580960">
        <ele>461.4</ele>
        <time>2021-10-20T11:30:03Z</time>
      </trkpt>
      <trkpt lat="37.9555750" lon="-6.1580960">
        <ele>461.6</ele>
        <time>2021-10-20T11:30:04Z</time>
      </trkpt>
      <trkpt lat="37.9555110" lon="-6.1581120">
        <ele>461.8</ele>
        <time>2021-10-20T11:30:08Z</time>
      </trkpt>
      <trkpt lat="37.9554280" lon="-6.1581300">
        <ele>462.4</ele>
        <time>2021-10-20T11:30:14Z</time>
      </trkpt>
      <trkpt lat="37.9553960" lon="-6.1581310">
        <ele>462.6</ele>
        <time>2021-10-20T11:30:16Z</time>
      </trkpt>
      <trkpt lat="37.9553150" lon="-6.1581470">
        <ele>463.4</ele>
        <time>2021-10-20T11:30:22Z</time>
      </trkpt>
      <trkpt lat="37.9552910" lon="-6.1581530">
        <ele>463.8</ele>
        <time>2021-10-20T11:30:24Z</time>
      </trkpt>
      <trkpt lat="37.9552630" lon="-6.1581520">
        <ele>464.0</ele>
        <time>2021-10-20T11:30:26Z</time>
      </trkpt>
      <trkpt lat="37.9552400" lon="-6.1581610">
        <ele>464.2</ele>
        <time>2021-10-20T11:30:28Z</time>
      </trkpt>
      <trkpt lat="37.9552130" lon="-6.1581690">
        <ele>464.4</ele>
        <time>2021-10-20T11:30:30Z</time>
      </trkpt>
      <trkpt lat="37.9552030" lon="-6.1581750">
        <ele>464.6</ele>
        <time>2021-10-20T11:30:31Z</time>
      </trkpt>
      <trkpt lat="37.9551910" lon="-6.1581810">
        <ele>464.6</ele>
        <time>2021-10-20T11:30:32Z</time>
      </trkpt>
      <trkpt lat="37.9551410" lon="-6.1582020">
        <ele>465.0</ele>
        <time>2021-10-20T11:30:36Z</time>
      </trkpt>
      <trkpt lat="37.9550940" lon="-6.1582180">
        <ele>465.6</ele>
        <time>2021-10-20T11:30:40Z</time>
      </trkpt>
      <trkpt lat="37.9550110" lon="-6.1582810">
        <ele>466.8</ele>
        <time>2021-10-20T11:30:48Z</time>
      </trkpt>
      <trkpt lat="37.9549490" lon="-6.1583410">
        <ele>468.0</ele>
        <time>2021-10-20T11:30:55Z</time>
      </trkpt>
      <trkpt lat="37.9549410" lon="-6.1583520">
        <ele>468.0</ele>
        <time>2021-10-20T11:30:56Z</time>
      </trkpt>
      <trkpt lat="37.9549250" lon="-6.1583740">
        <ele>468.4</ele>
        <time>2021-10-20T11:30:58Z</time>
      </trkpt>
      <trkpt lat="37.9549010" lon="-6.1584110">
        <ele>468.6</ele>
        <time>2021-10-20T11:31:01Z</time>
      </trkpt>
      <trkpt lat="37.9548910" lon="-6.1584390">
        <ele>469.0</ele>
        <time>2021-10-20T11:31:03Z</time>
      </trkpt>
      <trkpt lat="37.9548730" lon="-6.1584820">
        <ele>469.2</ele>
        <time>2021-10-20T11:31:06Z</time>
      </trkpt>
      <trkpt lat="37.9548350" lon="-6.1585340">
        <ele>470.0</ele>
        <time>2021-10-20T11:31:10Z</time>
      </trkpt>
      <trkpt lat="37.9547960" lon="-6.1585810">
        <ele>470.6</ele>
        <time>2021-10-20T11:31:14Z</time>
      </trkpt>
      <trkpt lat="37.9547670" lon="-6.1586170">
        <ele>471.0</ele>
        <time>2021-10-20T11:31:17Z</time>
      </trkpt>
      <trkpt lat="37.9547230" lon="-6.1586770">
        <ele>471.6</ele>
        <time>2021-10-20T11:31:22Z</time>
      </trkpt>
      <trkpt lat="37.9546810" lon="-6.1587160">
        <ele>472.2</ele>
        <time>2021-10-20T11:31:26Z</time>
      </trkpt>
      <trkpt lat="37.9546380" lon="-6.1587490">
        <ele>472.8</ele>
        <time>2021-10-20T11:31:30Z</time>
      </trkpt>
      <trkpt lat="37.9545760" lon="-6.1587870">
        <ele>473.2</ele>
        <time>2021-10-20T11:31:35Z</time>
      </trkpt>
      <trkpt lat="37.9545450" lon="-6.1588190">
        <ele>473.6</ele>
        <time>2021-10-20T11:31:38Z</time>
      </trkpt>
      <trkpt lat="37.9544900" lon="-6.1588680">
        <ele>474.2</ele>
        <time>2021-10-20T11:31:43Z</time>
      </trkpt>
      <trkpt lat="37.9544490" lon="-6.1588770">
        <ele>474.4</ele>
        <time>2021-10-20T11:31:46Z</time>
      </trkpt>
      <trkpt lat="37.9544240" lon="-6.1588810">
        <ele>474.8</ele>
        <time>2021-10-20T11:31:48Z</time>
      </trkpt>
      <trkpt lat="37.9543710" lon="-6.1589130">
        <ele>475.2</ele>
        <time>2021-10-20T11:31:53Z</time>
      </trkpt>
      <trkpt lat="37.9543230" lon="-6.1589310">
        <ele>475.4</ele>
        <time>2021-10-20T11:31:56Z</time>
      </trkpt>
      <trkpt lat="37.9542890" lon="-6.1589340">
        <ele>475.8</ele>
        <time>2021-10-20T11:34:29Z</time>
      </trkpt>
      <trkpt lat="37.9542550" lon="-6.1589370">
        <ele>475.8</ele>
        <time>2021-10-20T11:34:30Z</time>
      </trkpt>
      <trkpt lat="37.9541080" lon="-6.1589580">
        <ele>475.6</ele>
        <time>2021-10-20T11:34:33Z</time>
      </trkpt>
      <trkpt lat="37.9539960" lon="-6.1589180">
        <ele>475.2</ele>
        <time>2021-10-20T11:34:35Z</time>
      </trkpt>
      <trkpt lat="37.9539380" lon="-6.1588810">
        <ele>474.6</ele>
        <time>2021-10-20T11:34:36Z</time>
      </trkpt>
      <trkpt lat="37.9538780" lon="-6.1588400">
        <ele>474.2</ele>
        <time>2021-10-20T11:34:37Z</time>
      </trkpt>
      <trkpt lat="37.9537460" lon="-6.1587420">
        <ele>472.8</ele>
        <time>2021-10-20T11:34:39Z</time>
      </trkpt>
      <trkpt lat="37.9536750" lon="-6.1586900">
        <ele>471.6</ele>
        <time>2021-10-20T11:34:40Z</time>
      </trkpt>
      <trkpt lat="37.9536050" lon="-6.1586290">
        <ele>471.4</ele>
        <time>2021-10-20T11:34:41Z</time>
      </trkpt>
      <trkpt lat="37.9535350" lon="-6.1585610">
        <ele>470.6</ele>
        <time>2021-10-20T11:34:42Z</time>
      </trkpt>
      <trkpt lat="37.9533930" lon="-6.1584190">
        <ele>469.8</ele>
        <time>2021-10-20T11:34:44Z</time>
      </trkpt>
      <trkpt lat="37.9533240" lon="-6.1583500">
        <ele>468.8</ele>
        <time>2021-10-20T11:34:45Z</time>
      </trkpt>
      <trkpt lat="37.9532740" lon="-6.1582930">
        <ele>468.4</ele>
        <time>2021-10-20T11:34:46Z</time>
      </trkpt>
      <trkpt lat="37.9532070" lon="-6.1582020">
        <ele>467.4</ele>
        <time>2021-10-20T11:34:47Z</time>
      </trkpt>
      <trkpt lat="37.9531550" lon="-6.1581220">
        <ele>466.8</ele>
        <time>2021-10-20T11:34:48Z</time>
      </trkpt>
      <trkpt lat="37.9531020" lon="-6.1580400">
        <ele>466.0</ele>
        <time>2021-10-20T11:34:49Z</time>
      </trkpt>
      <trkpt lat="37.9530440" lon="-6.1579670">
        <ele>465.6</ele>
        <time>2021-10-20T11:34:50Z</time>
      </trkpt>
      <trkpt lat="37.9529190" lon="-6.1578390">
        <ele>464.8</ele>
        <time>2021-10-20T11:34:52Z</time>
      </trkpt>
      <trkpt lat="37.9528560" lon="-6.1577760">
        <ele>464.6</ele>
        <time>2021-10-20T11:34:53Z</time>
      </trkpt>
      <trkpt lat="37.9526670" lon="-6.1576070">
        <ele>463.8</ele>
        <time>2021-10-20T11:34:56Z</time>
      </trkpt>
      <trkpt lat="37.9524850" lon="-6.1574470">
        <ele>463.4</ele>
        <time>2021-10-20T11:34:59Z</time>
      </trkpt>
      <trkpt lat="37.9522260" lon="-6.1572240">
        <ele>462.8</ele>
        <time>2021-10-20T11:35:04Z</time>
      </trkpt>
      <trkpt lat="37.9521880" lon="-6.1571880">
        <ele>462.4</ele>
        <time>2021-10-20T11:35:05Z</time>
      </trkpt>
      <trkpt lat="37.9521170" lon="-6.1571190">
        <ele>462.0</ele>
        <time>2021-10-20T11:35:08Z</time>
      </trkpt>
      <trkpt lat="37.9520890" lon="-6.1570940">
        <ele>461.8</ele>
        <time>2021-10-20T11:35:12Z</time>
      </trkpt>
      <trkpt lat="37.9520890" lon="-6.1570940">
        <ele>461.8</ele>
        <time>2021-10-20T11:35:13Z</time>
      </trkpt>
      <trkpt lat="37.9520540" lon="-6.1570510">
        <ele>461.4</ele>
        <time>2021-10-20T11:35:38Z</time>
      </trkpt>
      <trkpt lat="37.9520390" lon="-6.1570390">
        <ele>461.4</ele>
        <time>2021-10-20T11:35:39Z</time>
      </trkpt>
      <trkpt lat="37.9520070" lon="-6.1570120">
        <ele>461.4</ele>
        <time>2021-10-20T11:35:41Z</time>
      </trkpt>
      <trkpt lat="37.9518880" lon="-6.1568660">
        <ele>461.2</ele>
        <time>2021-10-20T11:35:48Z</time>
      </trkpt>
      <trkpt lat="37.9518080" lon="-6.1567440">
        <ele>461.0</ele>
        <time>2021-10-20T11:35:54Z</time>
      </trkpt>
      <trkpt lat="37.9516740" lon="-6.1565440">
        <ele>461.6</ele>
        <time>2021-10-20T11:36:02Z</time>
      </trkpt>
      <trkpt lat="37.9515730" lon="-6.1563750">
        <ele>461.8</ele>
        <time>2021-10-20T11:36:08Z</time>
      </trkpt>
      <trkpt lat="37.9514740" lon="-6.1562000">
        <ele>462.0</ele>
        <time>2021-10-20T11:36:14Z</time>
      </trkpt>
      <trkpt lat="37.9514180" lon="-6.1560820">
        <ele>462.2</ele>
        <time>2021-10-20T11:36:18Z</time>
      </trkpt>
      <trkpt lat="37.9513340" lon="-6.1558390">
        <ele>462.4</ele>
        <time>2021-10-20T11:36:25Z</time>
      </trkpt>
      <trkpt lat="37.9512940" lon="-6.1557030">
        <ele>462.4</ele>
        <time>2021-10-20T11:36:29Z</time>
      </trkpt>
      <trkpt lat="37.9512580" lon="-6.1556190">
        <ele>462.4</ele>
        <time>2021-10-20T11:36:32Z</time>
      </trkpt>
      <trkpt lat="37.9512380" lon="-6.1555760">
        <ele>462.4</ele>
        <time>2021-10-20T11:36:34Z</time>
      </trkpt>
      <trkpt lat="37.9512050" lon="-6.1555430">
        <ele>462.2</ele>
        <time>2021-10-20T11:36:37Z</time>
      </trkpt>
      <trkpt lat="37.9511920" lon="-6.1555480">
        <ele>462.2</ele>
        <time>2021-10-20T11:36:38Z</time>
      </trkpt>
      <trkpt lat="37.9510480" lon="-6.1557000">
        <ele>462.0</ele>
        <time>2021-10-20T11:36:46Z</time>
      </trkpt>
      <trkpt lat="37.9509110" lon="-6.1558070">
        <ele>461.8</ele>
        <time>2021-10-20T11:36:51Z</time>
      </trkpt>
      <trkpt lat="37.9508810" lon="-6.1558260">
        <ele>461.6</ele>
        <time>2021-10-20T11:36:52Z</time>
      </trkpt>
      <trkpt lat="37.9507980" lon="-6.1559010">
        <ele>461.0</ele>
        <time>2021-10-20T11:36:56Z</time>
      </trkpt>
      <trkpt lat="37.9507830" lon="-6.1559280">
        <ele>461.0</ele>
        <time>2021-10-20T11:36:57Z</time>
      </trkpt>
      <trkpt lat="37.9507430" lon="-6.1559700">
        <ele>460.8</ele>
        <time>2021-10-20T11:36:59Z</time>
      </trkpt>
      <trkpt lat="37.9507150" lon="-6.1559770">
        <ele>460.6</ele>
        <time>2021-10-20T11:37:00Z</time>
      </trkpt>
      <trkpt lat="37.9506890" lon="-6.1559770">
        <ele>460.6</ele>
        <time>2021-10-20T11:37:01Z</time>
      </trkpt>
      <trkpt lat="37.9505910" lon="-6.1559690">
        <ele>460.2</ele>
        <time>2021-10-20T11:37:06Z</time>
      </trkpt>
      <trkpt lat="37.9505240" lon="-6.1560510">
        <ele>460.0</ele>
        <time>2021-10-20T11:37:12Z</time>
      </trkpt>
      <trkpt lat="37.9504150" lon="-6.1561460">
        <ele>460.0</ele>
        <time>2021-10-20T11:37:17Z</time>
      </trkpt>
      <trkpt lat="37.9502140" lon="-6.1562460">
        <ele>460.0</ele>
        <time>2021-10-20T11:37:25Z</time>
      </trkpt>
      <trkpt lat="37.9500540" lon="-6.1563240">
        <ele>460.4</ele>
        <time>2021-10-20T11:37:33Z</time>
      </trkpt>
      <trkpt lat="37.9500330" lon="-6.1563560">
        <ele>460.6</ele>
        <time>2021-10-20T11:37:36Z</time>
      </trkpt>
      <trkpt lat="37.9500170" lon="-6.1564080">
        <ele>460.8</ele>
        <time>2021-10-20T11:37:40Z</time>
      </trkpt>
      <trkpt lat="37.9500050" lon="-6.1565730">
        <ele>460.8</ele>
        <time>2021-10-20T11:37:48Z</time>
      </trkpt>
      <trkpt lat="37.9499990" lon="-6.1566180">
        <ele>460.8</ele>
        <time>2021-10-20T11:37:50Z</time>
      </trkpt>
      <trkpt lat="37.9499810" lon="-6.1566640">
        <ele>460.6</ele>
        <time>2021-10-20T11:37:52Z</time>
      </trkpt>
      <trkpt lat="37.9499680" lon="-6.1566880">
        <ele>460.6</ele>
        <time>2021-10-20T11:37:53Z</time>
      </trkpt>
      <trkpt lat="37.9499230" lon="-6.1568120">
        <ele>460.6</ele>
        <time>2021-10-20T11:37:58Z</time>
      </trkpt>
      <trkpt lat="37.9499180" lon="-6.1568100">
        <ele>460.4</ele>
        <time>2021-10-20T11:38:01Z</time>
      </trkpt>
      <trkpt lat="37.9499200" lon="-6.1567850">
        <ele>460.4</ele>
        <time>2021-10-20T11:38:03Z</time>
      </trkpt>
      <trkpt lat="37.9499340" lon="-6.1566980">
        <ele>460.4</ele>
        <time>2021-10-20T11:38:07Z</time>
      </trkpt>
      <trkpt lat="37.9499580" lon="-6.1565380">
        <ele>460.6</ele>
        <time>2021-10-20T11:38:15Z</time>
      </trkpt>
      <trkpt lat="37.9499610" lon="-6.1564780">
        <ele>460.8</ele>
        <time>2021-10-20T11:38:19Z</time>
      </trkpt>
      <trkpt lat="37.9499610" lon="-6.1564780">
        <ele>460.8</ele>
        <time>2021-10-20T11:38:20Z</time>
      </trkpt>
      <trkpt lat="37.9499610" lon="-6.1564780">
        <ele>460.8</ele>
        <time>2021-10-20T11:38:21Z</time>
      </trkpt>
      <trkpt lat="37.9499670" lon="-6.1563690">
        <ele>464.4</ele>
        <time>2021-10-20T12:01:07Z</time>
      </trkpt>
      <trkpt lat="37.9499610" lon="-6.1563390">
        <ele>464.4</ele>
        <time>2021-10-20T12:01:08Z</time>
      </trkpt>
      <trkpt lat="37.9499540" lon="-6.1563070">
        <ele>464.4</ele>
        <time>2021-10-20T12:01:09Z</time>
      </trkpt>
      <trkpt lat="37.9499510" lon="-6.1562270">
        <ele>464.4</ele>
        <time>2021-10-20T12:01:12Z</time>
      </trkpt>
      <trkpt lat="37.9499360" lon="-6.1561160">
        <ele>464.4</ele>
        <time>2021-10-20T12:01:16Z</time>
      </trkpt>
      <trkpt lat="37.9499030" lon="-6.1559240">
        <ele>465.0</ele>
        <time>2021-10-20T12:01:23Z</time>
      </trkpt>
      <trkpt lat="37.9498980" lon="-6.1558710">
        <ele>465.2</ele>
        <time>2021-10-20T12:01:25Z</time>
      </trkpt>
      <trkpt lat="37.9498900" lon="-6.1558160">
        <ele>465.2</ele>
        <time>2021-10-20T12:01:27Z</time>
      </trkpt>
      <trkpt lat="37.9498740" lon="-6.1557430">
        <ele>465.4</ele>
        <time>2021-10-20T12:01:30Z</time>
      </trkpt>
      <trkpt lat="37.9498680" lon="-6.1556430">
        <ele>465.6</ele>
        <time>2021-10-20T12:01:34Z</time>
      </trkpt>
      <trkpt lat="37.9498610" lon="-6.1555930">
        <ele>465.8</ele>
        <time>2021-10-20T12:01:36Z</time>
      </trkpt>
      <trkpt lat="37.9498490" lon="-6.1555090">
        <ele>466.2</ele>
        <time>2021-10-20T12:01:39Z</time>
      </trkpt>
      <trkpt lat="37.9498430" lon="-6.1554300">
        <ele>466.4</ele>
        <time>2021-10-20T12:01:42Z</time>
      </trkpt>
      <trkpt lat="37.9497890" lon="-6.1552560">
        <ele>467.2</ele>
        <time>2021-10-20T12:01:49Z</time>
      </trkpt>
      <trkpt lat="37.9497860" lon="-6.1552320">
        <ele>467.2</ele>
        <time>2021-10-20T12:01:50Z</time>
      </trkpt>
      <trkpt lat="37.9497670" lon="-6.1550870">
        <ele>467.8</ele>
        <time>2021-10-20T12:01:56Z</time>
      </trkpt>
      <trkpt lat="37.9497640" lon="-6.1550640">
        <ele>467.8</ele>
        <time>2021-10-20T12:01:57Z</time>
      </trkpt>
      <trkpt lat="37.9497530" lon="-6.1550110">
        <ele>468.2</ele>
        <time>2021-10-20T12:01:59Z</time>
      </trkpt>
      <trkpt lat="37.9497430" lon="-6.1549590">
        <ele>468.4</ele>
        <time>2021-10-20T12:02:01Z</time>
      </trkpt>
      <trkpt lat="37.9497030" lon="-6.1547850">
        <ele>469.2</ele>
        <time>2021-10-20T12:02:08Z</time>
      </trkpt>
      <trkpt lat="37.9497020" lon="-6.1547600">
        <ele>469.4</ele>
        <time>2021-10-20T12:02:09Z</time>
      </trkpt>
      <trkpt lat="37.9496820" lon="-6.1545820">
        <ele>469.8</ele>
        <time>2021-10-20T12:02:16Z</time>
      </trkpt>
      <trkpt lat="37.9496720" lon="-6.1545070">
        <ele>470.4</ele>
        <time>2021-10-20T12:02:19Z</time>
      </trkpt>
      <trkpt lat="37.9496390" lon="-6.1543370">
        <ele>470.8</ele>
        <time>2021-10-20T12:02:26Z</time>
      </trkpt>
      <trkpt lat="37.9496220" lon="-6.1542100">
        <ele>471.2</ele>
        <time>2021-10-20T12:02:31Z</time>
      </trkpt>
      <trkpt lat="37.9496150" lon="-6.1541840">
        <ele>471.4</ele>
        <time>2021-10-20T12:02:32Z</time>
      </trkpt>
      <trkpt lat="37.9495860" lon="-6.1540520">
        <ele>471.8</ele>
        <time>2021-10-20T12:02:37Z</time>
      </trkpt>
      <trkpt lat="37.9495380" lon="-6.1538540">
        <ele>472.2</ele>
        <time>2021-10-20T12:02:45Z</time>
      </trkpt>
      <trkpt lat="37.9495060" lon="-6.1537170">
        <ele>472.4</ele>
        <time>2021-10-20T12:02:51Z</time>
      </trkpt>
      <trkpt lat="37.9494910" lon="-6.1536050">
        <ele>472.4</ele>
        <time>2021-10-20T12:02:55Z</time>
      </trkpt>
      <trkpt lat="37.9494810" lon="-6.1535510">
        <ele>472.6</ele>
        <time>2021-10-20T12:02:57Z</time>
      </trkpt>
      <trkpt lat="37.9494620" lon="-6.1534260">
        <ele>472.8</ele>
        <time>2021-10-20T12:03:02Z</time>
      </trkpt>
      <trkpt lat="37.9494400" lon="-6.1532930">
        <ele>473.0</ele>
        <time>2021-10-20T12:03:07Z</time>
      </trkpt>
      <trkpt lat="37.9494140" lon="-6.1531230">
        <ele>473.2</ele>
        <time>2021-10-20T12:03:13Z</time>
      </trkpt>
      <trkpt lat="37.9493820" lon="-6.1529270">
        <ele>473.6</ele>
        <time>2021-10-20T12:03:20Z</time>
      </trkpt>
      <trkpt lat="37.9493530" lon="-6.1528230">
        <ele>473.8</ele>
        <time>2021-10-20T12:03:24Z</time>
      </trkpt>
      <trkpt lat="37.9493280" lon="-6.1526570">
        <ele>474.2</ele>
        <time>2021-10-20T12:03:30Z</time>
      </trkpt>
      <trkpt lat="37.9492780" lon="-6.1524360">
        <ele>474.6</ele>
        <time>2021-10-20T12:03:38Z</time>
      </trkpt>
      <trkpt lat="37.9492280" lon="-6.1522560">
        <ele>474.8</ele>
        <time>2021-10-20T12:03:45Z</time>
      </trkpt>
      <trkpt lat="37.9492090" lon="-6.1520670">
        <ele>475.2</ele>
        <time>2021-10-20T12:03:53Z</time>
      </trkpt>
      <trkpt lat="37.9492350" lon="-6.1519640">
        <ele>475.4</ele>
        <time>2021-10-20T12:03:58Z</time>
      </trkpt>
      <trkpt lat="37.9492290" lon="-6.1519380">
        <ele>475.4</ele>
        <time>2021-10-20T12:03:59Z</time>
      </trkpt>
      <trkpt lat="37.9492160" lon="-6.1518420">
        <ele>475.6</ele>
        <time>2021-10-20T12:04:04Z</time>
      </trkpt>
      <trkpt lat="37.9492180" lon="-6.1518380">
        <ele>475.6</ele>
        <time>2021-10-20T12:04:06Z</time>
      </trkpt>
      <trkpt lat="37.9492180" lon="-6.1518380">
        <ele>475.6</ele>
        <time>2021-10-20T12:04:07Z</time>
      </trkpt>
      <trkpt lat="37.9492730" lon="-6.1517920">
        <ele>475.6</ele>
        <time>2021-10-20T12:06:41Z</time>
      </trkpt>
      <trkpt lat="37.9492840" lon="-6.1517760">
        <ele>475.6</ele>
        <time>2021-10-20T12:06:42Z</time>
      </trkpt>
      <trkpt lat="37.9493110" lon="-6.1517480">
        <ele>475.6</ele>
        <time>2021-10-20T12:06:44Z</time>
      </trkpt>
      <trkpt lat="37.9493750" lon="-6.1516700">
        <ele>475.6</ele>
        <time>2021-10-20T12:06:50Z</time>
      </trkpt>
      <trkpt lat="37.9493770" lon="-6.1516570">
        <ele>475.6</ele>
        <time>2021-10-20T12:06:51Z</time>
      </trkpt>
      <trkpt lat="37.9493660" lon="-6.1515480">
        <ele>475.6</ele>
        <time>2021-10-20T12:06:56Z</time>
      </trkpt>
      <trkpt lat="37.9493520" lon="-6.1514940">
        <ele>475.8</ele>
        <time>2021-10-20T12:06:58Z</time>
      </trkpt>
      <trkpt lat="37.9493130" lon="-6.1513380">
        <ele>476.6</ele>
        <time>2021-10-20T12:07:04Z</time>
      </trkpt>
      <trkpt lat="37.9493040" lon="-6.1513220">
        <ele>476.8</ele>
        <time>2021-10-20T12:07:05Z</time>
      </trkpt>
      <trkpt lat="37.9492970" lon="-6.1513020">
        <ele>477.0</ele>
        <time>2021-10-20T12:07:06Z</time>
      </trkpt>
      <trkpt lat="37.9492780" lon="-6.1512420">
        <ele>477.2</ele>
        <time>2021-10-20T12:07:09Z</time>
      </trkpt>
      <trkpt lat="37.9492610" lon="-6.1511220">
        <ele>477.6</ele>
        <time>2021-10-20T12:07:14Z</time>
      </trkpt>
      <trkpt lat="37.9492490" lon="-6.1510780">
        <ele>477.8</ele>
        <time>2021-10-20T12:07:16Z</time>
      </trkpt>
      <trkpt lat="37.9492220" lon="-6.1509580">
        <ele>478.2</ele>
        <time>2021-10-20T12:07:21Z</time>
      </trkpt>
      <trkpt lat="37.9492130" lon="-6.1508860">
        <ele>478.4</ele>
        <time>2021-10-20T12:07:24Z</time>
      </trkpt>
      <trkpt lat="37.9492040" lon="-6.1508650">
        <ele>478.4</ele>
        <time>2021-10-20T12:07:25Z</time>
      </trkpt>
      <trkpt lat="37.9491710" lon="-6.1508370">
        <ele>478.6</ele>
        <time>2021-10-20T12:07:27Z</time>
      </trkpt>
      <trkpt lat="37.9491130" lon="-6.1508490">
        <ele>478.8</ele>
        <time>2021-10-20T12:07:30Z</time>
      </trkpt>
      <trkpt lat="37.9490940" lon="-6.1508580">
        <ele>478.8</ele>
        <time>2021-10-20T12:07:31Z</time>
      </trkpt>
      <trkpt lat="37.9490320" lon="-6.1508680">
        <ele>479.0</ele>
        <time>2021-10-20T12:07:34Z</time>
      </trkpt>
      <trkpt lat="37.9488890" lon="-6.1508880">
        <ele>479.8</ele>
        <time>2021-10-20T12:07:41Z</time>
      </trkpt>
      <trkpt lat="37.9488730" lon="-6.1508940">
        <ele>479.8</ele>
        <time>2021-10-20T12:07:42Z</time>
      </trkpt>
      <trkpt lat="37.9488560" lon="-6.1508980">
        <ele>479.8</ele>
        <time>2021-10-20T12:07:43Z</time>
      </trkpt>
      <trkpt lat="37.9488150" lon="-6.1509070">
        <ele>480.4</ele>
        <time>2021-10-20T12:07:46Z</time>
      </trkpt>
      <trkpt lat="37.9488070" lon="-6.1509170">
        <ele>480.4</ele>
        <time>2021-10-20T12:07:47Z</time>
      </trkpt>
      <trkpt lat="37.9487310" lon="-6.1509520">
        <ele>481.0</ele>
        <time>2021-10-20T12:07:52Z</time>
      </trkpt>
      <trkpt lat="37.9487150" lon="-6.1509540">
        <ele>481.0</ele>
        <time>2021-10-20T12:07:53Z</time>
      </trkpt>
      <trkpt lat="37.9486080" lon="-6.1509840">
        <ele>481.8</ele>
        <time>2021-10-20T12:08:01Z</time>
      </trkpt>
      <trkpt lat="37.9485880" lon="-6.1509870">
        <ele>482.0</ele>
        <time>2021-10-20T12:08:03Z</time>
      </trkpt>
      <trkpt lat="37.9485390" lon="-6.1509870">
        <ele>482.4</ele>
        <time>2021-10-20T12:08:07Z</time>
      </trkpt>
      <trkpt lat="37.9485280" lon="-6.1509780">
        <ele>482.4</ele>
        <time>2021-10-20T12:08:08Z</time>
      </trkpt>
      <trkpt lat="37.9485100" lon="-6.1509610">
        <ele>482.6</ele>
        <time>2021-10-20T12:08:10Z</time>
      </trkpt>
      <trkpt lat="37.9484670" lon="-6.1508750">
        <ele>483.0</ele>
        <time>2021-10-20T12:08:15Z</time>
      </trkpt>
      <trkpt lat="37.9484250" lon="-6.1507800">
        <ele>483.4</ele>
        <time>2021-10-20T12:08:20Z</time>
      </trkpt>
      <trkpt lat="37.9483450" lon="-6.1506040">
        <ele>484.2</ele>
        <time>2021-10-20T12:08:28Z</time>
      </trkpt>
      <trkpt lat="37.9483290" lon="-6.1505740">
        <ele>484.2</ele>
        <time>2021-10-20T12:08:30Z</time>
      </trkpt>
      <trkpt lat="37.9482990" lon="-6.1505150">
        <ele>484.4</ele>
        <time>2021-10-20T12:08:33Z</time>
      </trkpt>
      <trkpt lat="37.9482850" lon="-6.1504690">
        <ele>484.6</ele>
        <time>2021-10-20T12:08:35Z</time>
      </trkpt>
      <trkpt lat="37.9482180" lon="-6.1503120">
        <ele>485.2</ele>
        <time>2021-10-20T12:08:43Z</time>
      </trkpt>
      <trkpt lat="37.9482100" lon="-6.1502910">
        <ele>485.4</ele>
        <time>2021-10-20T12:08:44Z</time>
      </trkpt>
      <trkpt lat="37.9481650" lon="-6.1501520">
        <ele>486.2</ele>
        <time>2021-10-20T12:08:51Z</time>
      </trkpt>
      <trkpt lat="37.9481450" lon="-6.1501160">
        <ele>486.4</ele>
        <time>2021-10-20T12:08:53Z</time>
      </trkpt>
      <trkpt lat="37.9480930" lon="-6.1500310">
        <ele>487.2</ele>
        <time>2021-10-20T12:08:58Z</time>
      </trkpt>
      <trkpt lat="37.9480760" lon="-6.1499930">
        <ele>487.4</ele>
        <time>2021-10-20T12:09:00Z</time>
      </trkpt>
      <trkpt lat="37.9480490" lon="-6.1499160">
        <ele>488.0</ele>
        <time>2021-10-20T12:09:04Z</time>
      </trkpt>
      <trkpt lat="37.9480420" lon="-6.1499000">
        <ele>488.0</ele>
        <time>2021-10-20T12:09:05Z</time>
      </trkpt>
      <trkpt lat="37.9480290" lon="-6.1498680">
        <ele>488.6</ele>
        <time>2021-10-20T12:09:07Z</time>
      </trkpt>
      <trkpt lat="37.9479980" lon="-6.1498120">
        <ele>489.0</ele>
        <time>2021-10-20T12:09:11Z</time>
      </trkpt>
      <trkpt lat="37.9479690" lon="-6.1497710">
        <ele>489.4</ele>
        <time>2021-10-20T12:09:14Z</time>
      </trkpt>
      <trkpt lat="37.9479460" lon="-6.1497530">
        <ele>489.6</ele>
        <time>2021-10-20T12:09:16Z</time>
      </trkpt>
      <trkpt lat="37.9479250" lon="-6.1497290">
        <ele>490.0</ele>
        <time>2021-10-20T12:09:18Z</time>
      </trkpt>
      <trkpt lat="37.9478960" lon="-6.1496610">
        <ele>490.6</ele>
        <time>2021-10-20T12:09:22Z</time>
      </trkpt>
      <trkpt lat="37.9478920" lon="-6.1496400">
        <ele>490.8</ele>
        <time>2021-10-20T12:09:23Z</time>
      </trkpt>
      <trkpt lat="37.9478670" lon="-6.1495560">
        <ele>491.4</ele>
        <time>2021-10-20T12:09:27Z</time>
      </trkpt>
      <trkpt lat="37.9478560" lon="-6.1495190">
        <ele>491.8</ele>
        <time>2021-10-20T12:09:29Z</time>
      </trkpt>
      <trkpt lat="37.9478210" lon="-6.1494100">
        <ele>492.6</ele>
        <time>2021-10-20T12:09:35Z</time>
      </trkpt>
      <trkpt lat="37.9478110" lon="-6.1493690">
        <ele>492.8</ele>
        <time>2021-10-20T12:09:37Z</time>
      </trkpt>
      <trkpt lat="37.9477960" lon="-6.1493350">
        <ele>493.0</ele>
        <time>2021-10-20T12:09:39Z</time>
      </trkpt>
      <trkpt lat="37.9477740" lon="-6.1493130">
        <ele>493.2</ele>
        <time>2021-10-20T12:09:41Z</time>
      </trkpt>
      <trkpt lat="37.9477540" lon="-6.1492700">
        <ele>493.8</ele>
        <time>2021-10-20T12:09:44Z</time>
      </trkpt>
      <trkpt lat="37.9477440" lon="-6.1492360">
        <ele>494.0</ele>
        <time>2021-10-20T12:09:46Z</time>
      </trkpt>
      <trkpt lat="37.9477330" lon="-6.1492020">
        <ele>494.2</ele>
        <time>2021-10-20T12:09:48Z</time>
      </trkpt>
      <trkpt lat="37.9477340" lon="-6.1491650">
        <ele>494.6</ele>
        <time>2021-10-20T12:09:50Z</time>
      </trkpt>
      <trkpt lat="37.9477270" lon="-6.1490900">
        <ele>494.8</ele>
        <time>2021-10-20T12:09:54Z</time>
      </trkpt>
      <trkpt lat="37.9477210" lon="-6.1490760">
        <ele>495.0</ele>
        <time>2021-10-20T12:09:55Z</time>
      </trkpt>
      <trkpt lat="37.9477010" lon="-6.1490370">
        <ele>495.2</ele>
        <time>2021-10-20T12:09:58Z</time>
      </trkpt>
      <trkpt lat="37.9476770" lon="-6.1489970">
        <ele>495.4</ele>
        <time>2021-10-20T12:10:01Z</time>
      </trkpt>
      <trkpt lat="37.9476540" lon="-6.1489530">
        <ele>495.4</ele>
        <time>2021-10-20T12:10:04Z</time>
      </trkpt>
      <trkpt lat="37.9476480" lon="-6.1489300">
        <ele>495.8</ele>
        <time>2021-10-20T12:10:06Z</time>
      </trkpt>
      <trkpt lat="37.9476480" lon="-6.1489240">
        <ele>496.2</ele>
        <time>2021-10-20T12:10:09Z</time>
      </trkpt>
      <trkpt lat="37.9476880" lon="-6.1489730">
        <ele>496.6</ele>
        <time>2021-10-20T12:11:24Z</time>
      </trkpt>
      <trkpt lat="37.9476930" lon="-6.1489860">
        <ele>496.6</ele>
        <time>2021-10-20T12:11:25Z</time>
      </trkpt>
      <trkpt lat="37.9476850" lon="-6.1489810">
        <ele>496.4</ele>
        <time>2021-10-20T12:11:29Z</time>
      </trkpt>
      <trkpt lat="37.9476770" lon="-6.1489620">
        <ele>496.4</ele>
        <time>2021-10-20T12:11:30Z</time>
      </trkpt>
      <trkpt lat="37.9476660" lon="-6.1489410">
        <ele>496.4</ele>
        <time>2021-10-20T12:11:31Z</time>
      </trkpt>
      <trkpt lat="37.9476430" lon="-6.1489090">
        <ele>496.4</ele>
        <time>2021-10-20T12:11:36Z</time>
      </trkpt>
      <trkpt lat="37.9476200" lon="-6.1488320">
        <ele>502.8</ele>
        <time>2021-10-20T12:50:01Z</time>
      </trkpt>
      <trkpt lat="37.9475950" lon="-6.1487710">
        <ele>502.8</ele>
        <time>2021-10-20T12:50:04Z</time>
      </trkpt>
      <trkpt lat="37.9475790" lon="-6.1487200">
        <ele>503.0</ele>
        <time>2021-10-20T12:50:07Z</time>
      </trkpt>
      <trkpt lat="37.9475380" lon="-6.1486370">
        <ele>503.2</ele>
        <time>2021-10-20T12:50:12Z</time>
      </trkpt>
      <trkpt lat="37.9475310" lon="-6.1486170">
        <ele>503.2</ele>
        <time>2021-10-20T12:50:13Z</time>
      </trkpt>
      <trkpt lat="37.9474790" lon="-6.1484910">
        <ele>503.6</ele>
        <time>2021-10-20T12:50:20Z</time>
      </trkpt>
      <trkpt lat="37.9474630" lon="-6.1484530">
        <ele>503.6</ele>
        <time>2021-10-20T12:50:22Z</time>
      </trkpt>
      <trkpt lat="37.9474430" lon="-6.1483990">
        <ele>503.6</ele>
        <time>2021-10-20T12:50:25Z</time>
      </trkpt>
      <trkpt lat="37.9474250" lon="-6.1483440">
        <ele>503.8</ele>
        <time>2021-10-20T12:50:28Z</time>
      </trkpt>
      <trkpt lat="37.9474060" lon="-6.1482910">
        <ele>504.0</ele>
        <time>2021-10-20T12:50:31Z</time>
      </trkpt>
      <trkpt lat="37.9473670" lon="-6.1481740">
        <ele>504.6</ele>
        <time>2021-10-20T12:50:37Z</time>
      </trkpt>
      <trkpt lat="37.9473400" lon="-6.1481180">
        <ele>504.8</ele>
        <time>2021-10-20T12:50:40Z</time>
      </trkpt>
      <trkpt lat="37.9473300" lon="-6.1480970">
        <ele>504.8</ele>
        <time>2021-10-20T12:50:41Z</time>
      </trkpt>
      <trkpt lat="37.9472600" lon="-6.1479830">
        <ele>505.0</ele>
        <time>2021-10-20T12:50:47Z</time>
      </trkpt>
      <trkpt lat="37.9471720" lon="-6.1478660">
        <ele>505.2</ele>
        <time>2021-10-20T12:50:54Z</time>
      </trkpt>
      <trkpt lat="37.9470470" lon="-6.1477400">
        <ele>505.6</ele>
        <time>2021-10-20T12:51:02Z</time>
      </trkpt>
      <trkpt lat="37.9469460" lon="-6.1476580">
        <ele>505.8</ele>
        <time>2021-10-20T12:51:07Z</time>
      </trkpt>
      <trkpt lat="37.9468640" lon="-6.1475980">
        <ele>506.0</ele>
        <time>2021-10-20T12:51:11Z</time>
      </trkpt>
      <trkpt lat="37.9468430" lon="-6.1475780">
        <ele>506.0</ele>
        <time>2021-10-20T12:51:12Z</time>
      </trkpt>
      <trkpt lat="37.9467340" lon="-6.1474840">
        <ele>505.8</ele>
        <time>2021-10-20T12:51:17Z</time>
      </trkpt>
      <trkpt lat="37.9466490" lon="-6.1474240">
        <ele>505.6</ele>
        <time>2021-10-20T12:51:21Z</time>
      </trkpt>
      <trkpt lat="37.9465960" lon="-6.1473770">
        <ele>505.8</ele>
        <time>2021-10-20T12:51:24Z</time>
      </trkpt>
      <trkpt lat="37.9465510" lon="-6.1473240">
        <ele>505.8</ele>
        <time>2021-10-20T12:51:28Z</time>
      </trkpt>
      <trkpt lat="37.9465420" lon="-6.1473170">
        <ele>505.8</ele>
        <time>2021-10-20T12:51:29Z</time>
      </trkpt>
      <trkpt lat="37.9465370" lon="-6.1473140">
        <ele>506.0</ele>
        <time>2021-10-20T12:51:32Z</time>
      </trkpt>
      <trkpt lat="37.9464360" lon="-6.1472650">
        <ele>506.0</ele>
        <time>2021-10-20T12:51:58Z</time>
      </trkpt>
      <trkpt lat="37.9464160" lon="-6.1472550">
        <ele>506.0</ele>
        <time>2021-10-20T12:51:59Z</time>
      </trkpt>
      <trkpt lat="37.9463380" lon="-6.1472140">
        <ele>506.2</ele>
        <time>2021-10-20T12:52:03Z</time>
      </trkpt>
      <trkpt lat="37.9462660" lon="-6.1471900">
        <ele>506.2</ele>
        <time>2021-10-20T12:52:06Z</time>
      </trkpt>
      <trkpt lat="37.9461820" lon="-6.1471570">
        <ele>506.2</ele>
        <time>2021-10-20T12:52:10Z</time>
      </trkpt>
      <trkpt lat="37.9461080" lon="-6.1471240">
        <ele>506.0</ele>
        <time>2021-10-20T12:52:13Z</time>
      </trkpt>
      <trkpt lat="37.9459360" lon="-6.1470440">
        <ele>506.0</ele>
        <time>2021-10-20T12:52:21Z</time>
      </trkpt>
      <trkpt lat="37.9457740" lon="-6.1469690">
        <ele>506.2</ele>
        <time>2021-10-20T12:52:28Z</time>
      </trkpt>
      <trkpt lat="37.9457320" lon="-6.1469500">
        <ele>506.4</ele>
        <time>2021-10-20T12:52:30Z</time>
      </trkpt>
      <trkpt lat="37.9454950" lon="-6.1468850">
        <ele>506.2</ele>
        <time>2021-10-20T12:52:39Z</time>
      </trkpt>
      <trkpt lat="37.9454010" lon="-6.1468760">
        <ele>506.0</ele>
        <time>2021-10-20T12:52:42Z</time>
      </trkpt>
      <trkpt lat="37.9452670" lon="-6.1468570">
        <ele>505.8</ele>
        <time>2021-10-20T12:52:46Z</time>
      </trkpt>
      <trkpt lat="37.9452330" lon="-6.1468540">
        <ele>505.8</ele>
        <time>2021-10-20T12:52:47Z</time>
      </trkpt>
      <trkpt lat="37.9448570" lon="-6.1468420">
        <ele>505.2</ele>
        <time>2021-10-20T12:52:58Z</time>
      </trkpt>
      <trkpt lat="37.9447800" lon="-6.1468530">
        <ele>505.0</ele>
        <time>2021-10-20T12:53:00Z</time>
      </trkpt>
      <trkpt lat="37.9445980" lon="-6.1468690">
        <ele>504.2</ele>
        <time>2021-10-20T12:53:05Z</time>
      </trkpt>
      <trkpt lat="37.9445620" lon="-6.1468660">
        <ele>504.0</ele>
        <time>2021-10-20T12:53:06Z</time>
      </trkpt>
      <trkpt lat="37.9445280" lon="-6.1468610">
        <ele>503.8</ele>
        <time>2021-10-20T12:53:07Z</time>
      </trkpt>
      <trkpt lat="37.9443840" lon="-6.1468360">
        <ele>502.8</ele>
        <time>2021-10-20T12:53:11Z</time>
      </trkpt>
      <trkpt lat="37.9443400" lon="-6.1468230">
        <ele>502.6</ele>
        <time>2021-10-20T12:53:12Z</time>
      </trkpt>
      <trkpt lat="37.9441810" lon="-6.1467480">
        <ele>501.8</ele>
        <time>2021-10-20T12:53:15Z</time>
      </trkpt>
      <trkpt lat="37.9439720" lon="-6.1466210">
        <ele>500.6</ele>
        <time>2021-10-20T12:53:19Z</time>
      </trkpt>
      <trkpt lat="37.9438590" lon="-6.1465390">
        <ele>500.0</ele>
        <time>2021-10-20T12:53:21Z</time>
      </trkpt>
      <trkpt lat="37.9437560" lon="-6.1464460">
        <ele>499.0</ele>
        <time>2021-10-20T12:53:23Z</time>
      </trkpt>
      <trkpt lat="37.9436070" lon="-6.1463140">
        <ele>498.2</ele>
        <time>2021-10-20T12:53:26Z</time>
      </trkpt>
      <trkpt lat="37.9435000" lon="-6.1462370">
        <ele>498.0</ele>
        <time>2021-10-20T12:53:28Z</time>
      </trkpt>
      <trkpt lat="37.9431570" lon="-6.1460470">
        <ele>496.8</ele>
        <time>2021-10-20T12:53:34Z</time>
      </trkpt>
      <trkpt lat="37.9429450" lon="-6.1459870">
        <ele>495.8</ele>
        <time>2021-10-20T12:53:37Z</time>
      </trkpt>
      <trkpt lat="37.9426730" lon="-6.1459180">
        <ele>494.4</ele>
        <time>2021-10-20T12:53:41Z</time>
      </trkpt>
      <trkpt lat="37.9426020" lon="-6.1458980">
        <ele>494.4</ele>
        <time>2021-10-20T12:53:42Z</time>
      </trkpt>
      <trkpt lat="37.9423870" lon="-6.1458350">
        <ele>492.8</ele>
        <time>2021-10-20T12:53:45Z</time>
      </trkpt>
      <trkpt lat="37.9420460" lon="-6.1457250">
        <ele>491.8</ele>
        <time>2021-10-20T12:53:50Z</time>
      </trkpt>
      <trkpt lat="37.9417690" lon="-6.1456500">
        <ele>490.4</ele>
        <time>2021-10-20T12:53:54Z</time>
      </trkpt>
      <trkpt lat="37.9415130" lon="-6.1455700">
        <ele>489.0</ele>
        <time>2021-10-20T12:53:58Z</time>
      </trkpt>
      <trkpt lat="37.9414490" lon="-6.1455490">
        <ele>488.8</ele>
        <time>2021-10-20T12:53:59Z</time>
      </trkpt>
      <trkpt lat="37.9410580" lon="-6.1454080">
        <ele>488.0</ele>
        <time>2021-10-20T12:54:05Z</time>
      </trkpt>
      <trkpt lat="37.9409390" lon="-6.1453560">
        <ele>487.6</ele>
        <time>2021-10-20T12:54:07Z</time>
      </trkpt>
      <trkpt lat="37.9407310" lon="-6.1452460">
        <ele>486.8</ele>
        <time>2021-10-20T12:54:10Z</time>
      </trkpt>
      <trkpt lat="37.9404090" lon="-6.1450550">
        <ele>485.8</ele>
        <time>2021-10-20T12:54:15Z</time>
      </trkpt>
      <trkpt lat="37.9402330" lon="-6.1449320">
        <ele>484.4</ele>
        <time>2021-10-20T12:54:18Z</time>
      </trkpt>
      <trkpt lat="37.9400800" lon="-6.1448110">
        <ele>483.4</ele>
        <time>2021-10-20T12:54:21Z</time>
      </trkpt>
      <trkpt lat="37.9399650" lon="-6.1447230">
        <ele>482.8</ele>
        <time>2021-10-20T12:54:23Z</time>
      </trkpt>
      <trkpt lat="37.9396490" lon="-6.1445080">
        <ele>482.4</ele>
        <time>2021-10-20T12:54:29Z</time>
      </trkpt>
      <trkpt lat="37.9395650" lon="-6.1444430">
        <ele>482.0</ele>
        <time>2021-10-20T12:54:31Z</time>
      </trkpt>
      <trkpt lat="37.9394320" lon="-6.1443460">
        <ele>481.4</ele>
        <time>2021-10-20T12:54:35Z</time>
      </trkpt>
      <trkpt lat="37.9394010" lon="-6.1443270">
        <ele>481.2</ele>
        <time>2021-10-20T12:54:36Z</time>
      </trkpt>
      <trkpt lat="37.9392020" lon="-6.1441800">
        <ele>480.8</ele>
        <time>2021-10-20T12:54:43Z</time>
      </trkpt>
      <trkpt lat="37.9390420" lon="-6.1440320">
        <ele>480.6</ele>
        <time>2021-10-20T12:54:48Z</time>
      </trkpt>
      <trkpt lat="37.9389580" lon="-6.1439580">
        <ele>480.4</ele>
        <time>2021-10-20T12:54:50Z</time>
      </trkpt>
      <trkpt lat="37.9389170" lon="-6.1439240">
        <ele>480.0</ele>
        <time>2021-10-20T12:54:51Z</time>
      </trkpt>
      <trkpt lat="37.9388390" lon="-6.1438520">
        <ele>479.6</ele>
        <time>2021-10-20T12:54:53Z</time>
      </trkpt>
      <trkpt lat="37.9387170" lon="-6.1437340">
        <ele>479.2</ele>
        <time>2021-10-20T12:54:56Z</time>
      </trkpt>
      <trkpt lat="37.9386420" lon="-6.1436600">
        <ele>479.0</ele>
        <time>2021-10-20T12:54:58Z</time>
      </trkpt>
      <trkpt lat="37.9385110" lon="-6.1435380">
        <ele>478.6</ele>
        <time>2021-10-20T12:55:01Z</time>
      </trkpt>
      <trkpt lat="37.9384200" lon="-6.1434490">
        <ele>478.0</ele>
        <time>2021-10-20T12:55:03Z</time>
      </trkpt>
      <trkpt lat="37.9383140" lon="-6.1433470">
        <ele>477.6</ele>
        <time>2021-10-20T12:55:05Z</time>
      </trkpt>
      <trkpt lat="37.9381160" lon="-6.1431580">
        <ele>477.0</ele>
        <time>2021-10-20T12:55:09Z</time>
      </trkpt>
      <trkpt lat="37.9380250" lon="-6.1430730">
        <ele>476.6</ele>
        <time>2021-10-20T12:55:11Z</time>
      </trkpt>
      <trkpt lat="37.9377990" lon="-6.1428750">
        <ele>475.6</ele>
        <time>2021-10-20T12:55:15Z</time>
      </trkpt>
      <trkpt lat="37.9376250" lon="-6.1427120">
        <ele>474.8</ele>
        <time>2021-10-20T12:55:18Z</time>
      </trkpt>
      <trkpt lat="37.9375210" lon="-6.1426060">
        <ele>474.2</ele>
        <time>2021-10-20T12:55:20Z</time>
      </trkpt>
      <trkpt lat="37.9373390" lon="-6.1424250">
        <ele>473.2</ele>
        <time>2021-10-20T12:55:23Z</time>
      </trkpt>
      <trkpt lat="37.9372460" lon="-6.1423220">
        <ele>472.8</ele>
        <time>2021-10-20T12:55:25Z</time>
      </trkpt>
      <trkpt lat="37.9371310" lon="-6.1421970">
        <ele>471.8</ele>
        <time>2021-10-20T12:55:27Z</time>
      </trkpt>
      <trkpt lat="37.9369260" lon="-6.1420030">
        <ele>470.8</ele>
        <time>2021-10-20T12:55:31Z</time>
      </trkpt>
      <trkpt lat="37.9368780" lon="-6.1419560">
        <ele>470.2</ele>
        <time>2021-10-20T12:55:32Z</time>
      </trkpt>
      <trkpt lat="37.9367950" lon="-6.1418770">
        <ele>469.6</ele>
        <time>2021-10-20T12:55:34Z</time>
      </trkpt>
      <trkpt lat="37.9366680" lon="-6.1416940">
        <ele>469.0</ele>
        <time>2021-10-20T12:55:37Z</time>
      </trkpt>
      <trkpt lat="37.9366270" lon="-6.1416380">
        <ele>468.4</ele>
        <time>2021-10-20T12:55:38Z</time>
      </trkpt>
      <trkpt lat="37.9365420" lon="-6.1415310">
        <ele>467.4</ele>
        <time>2021-10-20T12:55:40Z</time>
      </trkpt>
      <trkpt lat="37.9365010" lon="-6.1414760">
        <ele>467.0</ele>
        <time>2021-10-20T12:55:41Z</time>
      </trkpt>
      <trkpt lat="37.9364090" lon="-6.1413930">
        <ele>465.8</ele>
        <time>2021-10-20T12:55:43Z</time>
      </trkpt>
      <trkpt lat="37.9362090" lon="-6.1412690">
        <ele>464.8</ele>
        <time>2021-10-20T12:55:46Z</time>
      </trkpt>
      <trkpt lat="37.9361390" lon="-6.1412370">
        <ele>463.8</ele>
        <time>2021-10-20T12:55:47Z</time>
      </trkpt>
      <trkpt lat="37.9360780" lon="-6.1412140">
        <ele>463.2</ele>
        <time>2021-10-20T12:55:48Z</time>
      </trkpt>
      <trkpt lat="37.9359950" lon="-6.1411910">
        <ele>462.4</ele>
        <time>2021-10-20T12:55:49Z</time>
      </trkpt>
      <trkpt lat="37.9358030" lon="-6.1411560">
        <ele>460.2</ele>
        <time>2021-10-20T12:55:51Z</time>
      </trkpt>
      <trkpt lat="37.9357340" lon="-6.1411460">
        <ele>458.4</ele>
        <time>2021-10-20T12:55:52Z</time>
      </trkpt>
      <trkpt lat="37.9356480" lon="-6.1411360">
        <ele>457.8</ele>
        <time>2021-10-20T12:55:53Z</time>
      </trkpt>
      <trkpt lat="37.9355490" lon="-6.1411270">
        <ele>456.8</ele>
        <time>2021-10-20T12:55:54Z</time>
      </trkpt>
      <trkpt lat="37.9353350" lon="-6.1411070">
        <ele>455.6</ele>
        <time>2021-10-20T12:55:57Z</time>
      </trkpt>
      <trkpt lat="37.9351800" lon="-6.1410910">
        <ele>454.8</ele>
        <time>2021-10-20T12:55:59Z</time>
      </trkpt>
      <trkpt lat="37.9351140" lon="-6.1410810">
        <ele>454.4</ele>
        <time>2021-10-20T12:56:00Z</time>
      </trkpt>
      <trkpt lat="37.9348770" lon="-6.1410240">
        <ele>453.6</ele>
        <time>2021-10-20T12:56:04Z</time>
      </trkpt>
      <trkpt lat="37.9348190" lon="-6.1410090">
        <ele>453.4</ele>
        <time>2021-10-20T12:56:05Z</time>
      </trkpt>
      <trkpt lat="37.9344770" lon="-6.1408940">
        <ele>452.8</ele>
        <time>2021-10-20T12:56:11Z</time>
      </trkpt>
      <trkpt lat="37.9342750" lon="-6.1408320">
        <ele>452.2</ele>
        <time>2021-10-20T12:56:14Z</time>
      </trkpt>
      <trkpt lat="37.9339790" lon="-6.1407450">
        <ele>451.6</ele>
        <time>2021-10-20T12:56:19Z</time>
      </trkpt>
      <trkpt lat="37.9339400" lon="-6.1407350">
        <ele>451.4</ele>
        <time>2021-10-20T12:56:20Z</time>
      </trkpt>
      <trkpt lat="37.9337230" lon="-6.1406740">
        <ele>451.4</ele>
        <time>2021-10-20T12:56:25Z</time>
      </trkpt>
      <trkpt lat="37.9335050" lon="-6.1406150">
        <ele>452.2</ele>
        <time>2021-10-20T12:56:31Z</time>
      </trkpt>
      <trkpt lat="37.9333110" lon="-6.1405440">
        <ele>452.4</ele>
        <time>2021-10-20T12:56:38Z</time>
      </trkpt>
      <trkpt lat="37.9331560" lon="-6.1404970">
        <ele>453.6</ele>
        <time>2021-10-20T12:56:44Z</time>
      </trkpt>
      <trkpt lat="37.9330800" lon="-6.1404750">
        <ele>453.8</ele>
        <time>2021-10-20T12:56:47Z</time>
      </trkpt>
      <trkpt lat="37.9329890" lon="-6.1404470">
        <ele>454.6</ele>
        <time>2021-10-20T12:56:51Z</time>
      </trkpt>
      <trkpt lat="37.9329240" lon="-6.1404260">
        <ele>454.8</ele>
        <time>2021-10-20T12:56:54Z</time>
      </trkpt>
      <trkpt lat="37.9328090" lon="-6.1403870">
        <ele>455.6</ele>
        <time>2021-10-20T12:57:00Z</time>
      </trkpt>
      <trkpt lat="37.9327780" lon="-6.1403750">
        <ele>455.8</ele>
        <time>2021-10-20T12:57:02Z</time>
      </trkpt>
      <trkpt lat="37.9326590" lon="-6.1403450">
        <ele>456.2</ele>
        <time>2021-10-20T12:57:08Z</time>
      </trkpt>
      <trkpt lat="37.9326200" lon="-6.1403310">
        <ele>456.6</ele>
        <time>2021-10-20T12:57:10Z</time>
      </trkpt>
      <trkpt lat="37.9326050" lon="-6.1403240">
        <ele>456.6</ele>
        <time>2021-10-20T12:57:11Z</time>
      </trkpt>
      <trkpt lat="37.9325130" lon="-6.1402850">
        <ele>457.2</ele>
        <time>2021-10-20T12:57:16Z</time>
      </trkpt>
      <trkpt lat="37.9324720" lon="-6.1402680">
        <ele>457.6</ele>
        <time>2021-10-20T12:57:18Z</time>
      </trkpt>
      <trkpt lat="37.9324510" lon="-6.1402620">
        <ele>457.8</ele>
        <time>2021-10-20T12:57:19Z</time>
      </trkpt>
      <trkpt lat="37.9322990" lon="-6.1402010">
        <ele>458.6</ele>
        <time>2021-10-20T12:57:27Z</time>
      </trkpt>
      <trkpt lat="37.9322340" lon="-6.1401700">
        <ele>459.0</ele>
        <time>2021-10-20T12:57:31Z</time>
      </trkpt>
      <trkpt lat="37.9321600" lon="-6.1401320">
        <ele>459.6</ele>
        <time>2021-10-20T12:57:35Z</time>
      </trkpt>
      <trkpt lat="37.9320670" lon="-6.1400770">
        <ele>460.0</ele>
        <time>2021-10-20T12:57:40Z</time>
      </trkpt>
      <trkpt lat="37.9320270" lon="-6.1400530">
        <ele>460.2</ele>
        <time>2021-10-20T12:57:42Z</time>
      </trkpt>
      <trkpt lat="37.9320060" lon="-6.1400400">
        <ele>460.2</ele>
        <time>2021-10-20T12:57:43Z</time>
      </trkpt>
      <trkpt lat="37.9319100" lon="-6.1399800">
        <ele>460.4</ele>
        <time>2021-10-20T12:57:48Z</time>
      </trkpt>
      <trkpt lat="37.9318750" lon="-6.1399630">
        <ele>460.4</ele>
        <time>2021-10-20T12:57:50Z</time>
      </trkpt>
      <trkpt lat="37.9318550" lon="-6.1399470">
        <ele>460.6</ele>
        <time>2021-10-20T12:57:51Z</time>
      </trkpt>
      <trkpt lat="37.9317220" lon="-6.1398520">
        <ele>461.0</ele>
        <time>2021-10-20T12:57:59Z</time>
      </trkpt>
      <trkpt lat="37.9316200" lon="-6.1397780">
        <ele>461.6</ele>
        <time>2021-10-20T12:58:05Z</time>
      </trkpt>
      <trkpt lat="37.9315660" lon="-6.1397420">
        <ele>461.6</ele>
        <time>2021-10-20T12:58:08Z</time>
      </trkpt>
      <trkpt lat="37.9314780" lon="-6.1396860">
        <ele>462.2</ele>
        <time>2021-10-20T12:58:13Z</time>
      </trkpt>
      <trkpt lat="37.9313730" lon="-6.1396100">
        <ele>462.6</ele>
        <time>2021-10-20T12:58:19Z</time>
      </trkpt>
      <trkpt lat="37.9312120" lon="-6.1395050">
        <ele>463.0</ele>
        <time>2021-10-20T12:58:28Z</time>
      </trkpt>
      <trkpt lat="37.9311540" lon="-6.1394700">
        <ele>463.4</ele>
        <time>2021-10-20T12:58:31Z</time>
      </trkpt>
      <trkpt lat="37.9310160" lon="-6.1393750">
        <ele>463.8</ele>
        <time>2021-10-20T12:58:39Z</time>
      </trkpt>
      <trkpt lat="37.9309980" lon="-6.1393610">
        <ele>463.8</ele>
        <time>2021-10-20T12:58:40Z</time>
      </trkpt>
      <trkpt lat="37.9308500" lon="-6.1392580">
        <ele>464.4</ele>
        <time>2021-10-20T12:58:48Z</time>
      </trkpt>
      <trkpt lat="37.9307550" lon="-6.1391920">
        <ele>465.0</ele>
        <time>2021-10-20T12:58:53Z</time>
      </trkpt>
      <trkpt lat="37.9306320" lon="-6.1391180">
        <ele>465.2</ele>
        <time>2021-10-20T12:58:59Z</time>
      </trkpt>
      <trkpt lat="37.9306090" lon="-6.1391070">
        <ele>465.4</ele>
        <time>2021-10-20T12:59:00Z</time>
      </trkpt>
      <trkpt lat="37.9305870" lon="-6.1390960">
        <ele>465.4</ele>
        <time>2021-10-20T12:59:01Z</time>
      </trkpt>
      <trkpt lat="37.9304290" lon="-6.1390020">
        <ele>465.8</ele>
        <time>2021-10-20T12:59:08Z</time>
      </trkpt>
      <trkpt lat="37.9302560" lon="-6.1389010">
        <ele>466.0</ele>
        <time>2021-10-20T12:59:15Z</time>
      </trkpt>
      <trkpt lat="37.9300400" lon="-6.1387880">
        <ele>465.8</ele>
        <time>2021-10-20T12:59:23Z</time>
      </trkpt>
      <trkpt lat="37.9298070" lon="-6.1386740">
        <ele>465.6</ele>
        <time>2021-10-20T12:59:31Z</time>
      </trkpt>
      <trkpt lat="37.9297450" lon="-6.1386400">
        <ele>465.6</ele>
        <time>2021-10-20T12:59:33Z</time>
      </trkpt>
      <trkpt lat="37.9295600" lon="-6.1385360">
        <ele>465.4</ele>
        <time>2021-10-20T12:59:39Z</time>
      </trkpt>
      <trkpt lat="37.9294630" lon="-6.1384810">
        <ele>465.4</ele>
        <time>2021-10-20T12:59:42Z</time>
      </trkpt>
      <trkpt lat="37.9292560" lon="-6.1383750">
        <ele>465.2</ele>
        <time>2021-10-20T12:59:48Z</time>
      </trkpt>
      <trkpt lat="37.9291340" lon="-6.1383110">
        <ele>465.2</ele>
        <time>2021-10-20T12:59:52Z</time>
      </trkpt>
      <trkpt lat="37.9288330" lon="-6.1381600">
        <ele>465.0</ele>
        <time>2021-10-20T13:00:01Z</time>
      </trkpt>
      <trkpt lat="37.9286430" lon="-6.1380660">
        <ele>465.0</ele>
        <time>2021-10-20T13:00:07Z</time>
      </trkpt>
      <trkpt lat="37.9284250" lon="-6.1379450">
        <ele>465.0</ele>
        <time>2021-10-20T13:00:14Z</time>
      </trkpt>
      <trkpt lat="37.9283290" lon="-6.1378880">
        <ele>465.2</ele>
        <time>2021-10-20T13:00:17Z</time>
      </trkpt>
      <trkpt lat="37.9280510" lon="-6.1376770">
        <ele>465.6</ele>
        <time>2021-10-20T13:00:26Z</time>
      </trkpt>
      <trkpt lat="37.9278880" lon="-6.1375220">
        <ele>465.6</ele>
        <time>2021-10-20T13:00:31Z</time>
      </trkpt>
      <trkpt lat="37.9277680" lon="-6.1373980">
        <ele>465.2</ele>
        <time>2021-10-20T13:00:35Z</time>
      </trkpt>
      <trkpt lat="37.9275040" lon="-6.1371630">
        <ele>465.0</ele>
        <time>2021-10-20T13:00:43Z</time>
      </trkpt>
      <trkpt lat="37.9272990" lon="-6.1370370">
        <ele>464.6</ele>
        <time>2021-10-20T13:00:48Z</time>
      </trkpt>
      <trkpt lat="37.9272640" lon="-6.1370210">
        <ele>464.4</ele>
        <time>2021-10-20T13:00:49Z</time>
      </trkpt>
      <trkpt lat="37.9270420" lon="-6.1369240">
        <ele>463.8</ele>
        <time>2021-10-20T13:00:54Z</time>
      </trkpt>
      <trkpt lat="37.9269500" lon="-6.1368920">
        <ele>463.8</ele>
        <time>2021-10-20T13:00:56Z</time>
      </trkpt>
      <trkpt lat="37.9268060" lon="-6.1368290">
        <ele>463.4</ele>
        <time>2021-10-20T13:00:59Z</time>
      </trkpt>
      <trkpt lat="37.9266160" lon="-6.1367660">
        <ele>463.0</ele>
        <time>2021-10-20T13:01:03Z</time>
      </trkpt>
      <trkpt lat="37.9265700" lon="-6.1367570">
        <ele>463.0</ele>
        <time>2021-10-20T13:01:04Z</time>
      </trkpt>
      <trkpt lat="37.9262810" lon="-6.1367420">
        <ele>463.2</ele>
        <time>2021-10-20T13:01:11Z</time>
      </trkpt>
      <trkpt lat="37.9262040" lon="-6.1367350">
        <ele>463.2</ele>
        <time>2021-10-20T13:01:13Z</time>
      </trkpt>
      <trkpt lat="37.9260340" lon="-6.1367410">
        <ele>463.0</ele>
        <time>2021-10-20T13:01:17Z</time>
      </trkpt>
      <trkpt lat="37.9258220" lon="-6.1367250">
        <ele>462.8</ele>
        <time>2021-10-20T13:01:23Z</time>
      </trkpt>
      <trkpt lat="37.9254520" lon="-6.1366000">
        <ele>463.0</ele>
        <time>2021-10-20T13:01:33Z</time>
      </trkpt>
      <trkpt lat="37.9254190" lon="-6.1365780">
        <ele>463.0</ele>
        <time>2021-10-20T13:01:34Z</time>
      </trkpt>
      <trkpt lat="37.9251230" lon="-6.1363220">
        <ele>462.8</ele>
        <time>2021-10-20T13:01:43Z</time>
      </trkpt>
      <trkpt lat="37.9248880" lon="-6.1360840">
        <ele>462.6</ele>
        <time>2021-10-20T13:01:51Z</time>
      </trkpt>
      <trkpt lat="37.9248320" lon="-6.1360240">
        <ele>462.6</ele>
        <time>2021-10-20T13:01:53Z</time>
      </trkpt>
      <trkpt lat="37.9247070" lon="-6.1358950">
        <ele>462.6</ele>
        <time>2021-10-20T13:01:57Z</time>
      </trkpt>
      <trkpt lat="37.9245500" lon="-6.1357350">
        <ele>462.6</ele>
        <time>2021-10-20T13:02:02Z</time>
      </trkpt>
      <trkpt lat="37.9244320" lon="-6.1356080">
        <ele>462.6</ele>
        <time>2021-10-20T13:02:06Z</time>
      </trkpt>
      <trkpt lat="37.9243090" lon="-6.1354860">
        <ele>462.4</ele>
        <time>2021-10-20T13:02:10Z</time>
      </trkpt>
      <trkpt lat="37.9240890" lon="-6.1352690">
        <ele>462.6</ele>
        <time>2021-10-20T13:02:17Z</time>
      </trkpt>
      <trkpt lat="37.9240650" lon="-6.1352450">
        <ele>462.8</ele>
        <time>2021-10-20T13:02:18Z</time>
      </trkpt>
      <trkpt lat="37.9237880" lon="-6.1349640">
        <ele>462.8</ele>
        <time>2021-10-20T13:02:27Z</time>
      </trkpt>
      <trkpt lat="37.9236300" lon="-6.1348000">
        <ele>462.6</ele>
        <time>2021-10-20T13:02:32Z</time>
      </trkpt>
      <trkpt lat="37.9235290" lon="-6.1347050">
        <ele>462.6</ele>
        <time>2021-10-20T13:02:35Z</time>
      </trkpt>
      <trkpt lat="37.9234070" lon="-6.1345820">
        <ele>462.6</ele>
        <time>2021-10-20T13:02:39Z</time>
      </trkpt>
      <trkpt lat="37.9232600" lon="-6.1344330">
        <ele>462.4</ele>
        <time>2021-10-20T13:02:44Z</time>
      </trkpt>
      <trkpt lat="37.9231330" lon="-6.1343060">
        <ele>462.2</ele>
        <time>2021-10-20T13:02:48Z</time>
      </trkpt>
      <trkpt lat="37.9229390" lon="-6.1341250">
        <ele>462.0</ele>
        <time>2021-10-20T13:02:54Z</time>
      </trkpt>
      <trkpt lat="37.9227770" lon="-6.1339670">
        <ele>461.8</ele>
        <time>2021-10-20T13:02:59Z</time>
      </trkpt>
      <trkpt lat="37.9226810" lon="-6.1338660">
        <ele>461.6</ele>
        <time>2021-10-20T13:03:02Z</time>
      </trkpt>
      <trkpt lat="37.9226220" lon="-6.1337830">
        <ele>461.6</ele>
        <time>2021-10-20T13:03:04Z</time>
      </trkpt>
      <trkpt lat="37.9225250" lon="-6.1336040">
        <ele>461.4</ele>
        <time>2021-10-20T13:03:08Z</time>
      </trkpt>
      <trkpt lat="37.9224370" lon="-6.1334350">
        <ele>461.0</ele>
        <time>2021-10-20T13:03:12Z</time>
      </trkpt>
      <trkpt lat="37.9223750" lon="-6.1333040">
        <ele>461.0</ele>
        <time>2021-10-20T13:03:15Z</time>
      </trkpt>
      <trkpt lat="37.9221680" lon="-6.1327960">
        <ele>460.8</ele>
        <time>2021-10-20T13:03:26Z</time>
      </trkpt>
      <trkpt lat="37.9221490" lon="-6.1327480">
        <ele>460.6</ele>
        <time>2021-10-20T13:03:27Z</time>
      </trkpt>
      <trkpt lat="37.9219970" lon="-6.1323400">
        <ele>460.4</ele>
        <time>2021-10-20T13:03:36Z</time>
      </trkpt>
      <trkpt lat="37.9218850" lon="-6.1320660">
        <ele>460.2</ele>
        <time>2021-10-20T13:03:43Z</time>
      </trkpt>
      <trkpt lat="37.9217560" lon="-6.1317590">
        <ele>460.2</ele>
        <time>2021-10-20T13:03:50Z</time>
      </trkpt>
      <trkpt lat="37.9217390" lon="-6.1317120">
        <ele>460.2</ele>
        <time>2021-10-20T13:03:51Z</time>
      </trkpt>
      <trkpt lat="37.9216030" lon="-6.1313580">
        <ele>460.0</ele>
        <time>2021-10-20T13:03:59Z</time>
      </trkpt>
      <trkpt lat="37.9215350" lon="-6.1311860">
        <ele>460.2</ele>
        <time>2021-10-20T13:04:03Z</time>
      </trkpt>
      <trkpt lat="37.9214050" lon="-6.1308580">
        <ele>460.4</ele>
        <time>2021-10-20T13:04:11Z</time>
      </trkpt>
      <trkpt lat="37.9213490" lon="-6.1307150">
        <ele>460.2</ele>
        <time>2021-10-20T13:04:15Z</time>
      </trkpt>
      <trkpt lat="37.9213250" lon="-6.1306510">
        <ele>460.4</ele>
        <time>2021-10-20T13:04:17Z</time>
      </trkpt>
      <trkpt lat="37.9212900" lon="-6.1305440">
        <ele>460.2</ele>
        <time>2021-10-20T13:04:21Z</time>
      </trkpt>
      <trkpt lat="37.9212670" lon="-6.1304830">
        <ele>460.6</ele>
        <time>2021-10-20T13:04:27Z</time>
      </trkpt>
      <trkpt lat="37.9212480" lon="-6.1304270">
        <ele>460.0</ele>
        <time>2021-10-20T13:05:03Z</time>
      </trkpt>
      <trkpt lat="37.9212370" lon="-6.1304000">
        <ele>460.0</ele>
        <time>2021-10-20T13:05:04Z</time>
      </trkpt>
      <trkpt lat="37.9212250" lon="-6.1303690">
        <ele>460.0</ele>
        <time>2021-10-20T13:05:05Z</time>
      </trkpt>
      <trkpt lat="37.9211190" lon="-6.1301140">
        <ele>460.0</ele>
        <time>2021-10-20T13:05:12Z</time>
      </trkpt>
      <trkpt lat="37.9210340" lon="-6.1298480">
        <ele>460.0</ele>
        <time>2021-10-20T13:05:18Z</time>
      </trkpt>
      <trkpt lat="37.9210160" lon="-6.1298040">
        <ele>460.0</ele>
        <time>2021-10-20T13:05:19Z</time>
      </trkpt>
      <trkpt lat="37.9209560" lon="-6.1295170">
        <ele>459.8</ele>
        <time>2021-10-20T13:05:25Z</time>
      </trkpt>
      <trkpt lat="37.9209230" lon="-6.1291400">
        <ele>460.0</ele>
        <time>2021-10-20T13:05:33Z</time>
      </trkpt>
      <trkpt lat="37.9209180" lon="-6.1288520">
        <ele>460.6</ele>
        <time>2021-10-20T13:05:41Z</time>
      </trkpt>
      <trkpt lat="37.9209200" lon="-6.1287490">
        <ele>461.0</ele>
        <time>2021-10-20T13:05:44Z</time>
      </trkpt>
      <trkpt lat="37.9209290" lon="-6.1286180">
        <ele>461.8</ele>
        <time>2021-10-20T13:05:48Z</time>
      </trkpt>
      <trkpt lat="37.9209480" lon="-6.1285150">
        <ele>462.4</ele>
        <time>2021-10-20T13:05:51Z</time>
      </trkpt>
      <trkpt lat="37.9210080" lon="-6.1283290">
        <ele>462.6</ele>
        <time>2021-10-20T13:05:56Z</time>
      </trkpt>
      <trkpt lat="37.9210240" lon="-6.1282900">
        <ele>462.8</ele>
        <time>2021-10-20T13:05:57Z</time>
      </trkpt>
      <trkpt lat="37.9210940" lon="-6.1281400">
        <ele>462.8</ele>
        <time>2021-10-20T13:06:01Z</time>
      </trkpt>
      <trkpt lat="37.9211400" lon="-6.1280090">
        <ele>462.8</ele>
        <time>2021-10-20T13:06:04Z</time>
      </trkpt>
      <trkpt lat="37.9210980" lon="-6.1278300">
        <ele>462.8</ele>
        <time>2021-10-20T13:06:08Z</time>
      </trkpt>
      <trkpt lat="37.9209870" lon="-6.1276990">
        <ele>462.8</ele>
        <time>2021-10-20T13:06:13Z</time>
      </trkpt>
      <trkpt lat="37.9209450" lon="-6.1276310">
        <ele>462.8</ele>
        <time>2021-10-20T13:06:15Z</time>
      </trkpt>
      <trkpt lat="37.9208430" lon="-6.1274520">
        <ele>463.2</ele>
        <time>2021-10-20T13:06:20Z</time>
      </trkpt>
      <trkpt lat="37.9207520" lon="-6.1272410">
        <ele>463.4</ele>
        <time>2021-10-20T13:06:26Z</time>
      </trkpt>
      <trkpt lat="37.9207130" lon="-6.1271550">
        <ele>463.6</ele>
        <time>2021-10-20T13:06:29Z</time>
      </trkpt>
      <trkpt lat="37.9206990" lon="-6.1271190">
        <ele>463.6</ele>
        <time>2021-10-20T13:06:30Z</time>
      </trkpt>
      <trkpt lat="37.9206460" lon="-6.1269700">
        <ele>464.4</ele>
        <time>2021-10-20T13:06:36Z</time>
      </trkpt>
      <trkpt lat="37.9206400" lon="-6.1269420">
        <ele>464.4</ele>
        <time>2021-10-20T13:06:37Z</time>
      </trkpt>
      <trkpt lat="37.9206220" lon="-6.1268510">
        <ele>464.6</ele>
        <time>2021-10-20T13:06:40Z</time>
      </trkpt>
      <trkpt lat="37.9206020" lon="-6.1267360">
        <ele>465.2</ele>
        <time>2021-10-20T13:06:44Z</time>
      </trkpt>
      <trkpt lat="37.9205840" lon="-6.1266580">
        <ele>465.4</ele>
        <time>2021-10-20T13:06:47Z</time>
      </trkpt>
      <trkpt lat="37.9205840" lon="-6.1266040">
        <ele>465.8</ele>
        <time>2021-10-20T13:06:49Z</time>
      </trkpt>
      <trkpt lat="37.9205850" lon="-6.1265270">
        <ele>466.2</ele>
        <time>2021-10-20T13:06:52Z</time>
      </trkpt>
      <trkpt lat="37.9205940" lon="-6.1264470">
        <ele>466.6</ele>
        <time>2021-10-20T13:06:55Z</time>
      </trkpt>
      <trkpt lat="37.9205980" lon="-6.1264260">
        <ele>467.0</ele>
        <time>2021-10-20T13:06:56Z</time>
      </trkpt>
      <trkpt lat="37.9206010" lon="-6.1264020">
        <ele>467.0</ele>
        <time>2021-10-20T13:06:57Z</time>
      </trkpt>
      <trkpt lat="37.9206120" lon="-6.1263160">
        <ele>467.6</ele>
        <time>2021-10-20T13:07:00Z</time>
      </trkpt>
      <trkpt lat="37.9206360" lon="-6.1261890">
        <ele>468.0</ele>
        <time>2021-10-20T13:07:05Z</time>
      </trkpt>
      <trkpt lat="37.9206770" lon="-6.1260470">
        <ele>468.6</ele>
        <time>2021-10-20T13:07:10Z</time>
      </trkpt>
      <trkpt lat="37.9206870" lon="-6.1259640">
        <ele>469.0</ele>
        <time>2021-10-20T13:07:13Z</time>
      </trkpt>
      <trkpt lat="37.9206850" lon="-6.1259430">
        <ele>469.0</ele>
        <time>2021-10-20T13:07:14Z</time>
      </trkpt>
      <trkpt lat="37.9206730" lon="-6.1258830">
        <ele>469.2</ele>
        <time>2021-10-20T13:07:16Z</time>
      </trkpt>
      <trkpt lat="37.9206400" lon="-6.1258200">
        <ele>469.4</ele>
        <time>2021-10-20T13:07:18Z</time>
      </trkpt>
      <trkpt lat="37.9205980" lon="-6.1257760">
        <ele>469.6</ele>
        <time>2021-10-20T13:07:20Z</time>
      </trkpt>
      <trkpt lat="37.9205790" lon="-6.1257630">
        <ele>469.6</ele>
        <time>2021-10-20T13:07:21Z</time>
      </trkpt>
      <trkpt lat="37.9204370" lon="-6.1257260">
        <ele>469.8</ele>
        <time>2021-10-20T13:07:28Z</time>
      </trkpt>
      <trkpt lat="37.9203700" lon="-6.1257280">
        <ele>470.0</ele>
        <time>2021-10-20T13:07:32Z</time>
      </trkpt>
      <trkpt lat="37.9203170" lon="-6.1257430">
        <ele>470.6</ele>
        <time>2021-10-20T13:07:35Z</time>
      </trkpt>
      <trkpt lat="37.9202750" lon="-6.1257730">
        <ele>471.4</ele>
        <time>2021-10-20T13:07:38Z</time>
      </trkpt>
      <trkpt lat="37.9202350" lon="-6.1257930">
        <ele>472.0</ele>
        <time>2021-10-20T13:07:41Z</time>
      </trkpt>
      <trkpt lat="37.9202050" lon="-6.1258100">
        <ele>472.2</ele>
        <time>2021-10-20T13:07:43Z</time>
      </trkpt>
      <trkpt lat="37.9201920" lon="-6.1258170">
        <ele>472.4</ele>
        <time>2021-10-20T13:07:44Z</time>
      </trkpt>
      <trkpt lat="37.9201080" lon="-6.1258400">
        <ele>473.2</ele>
        <time>2021-10-20T13:07:50Z</time>
      </trkpt>
      <trkpt lat="37.9200700" lon="-6.1258680">
        <ele>473.6</ele>
        <time>2021-10-20T13:07:53Z</time>
      </trkpt>
      <trkpt lat="37.9200240" lon="-6.1259180">
        <ele>474.0</ele>
        <time>2021-10-20T13:07:57Z</time>
      </trkpt>
      <trkpt lat="37.9200140" lon="-6.1259320">
        <ele>474.2</ele>
        <time>2021-10-20T13:07:58Z</time>
      </trkpt>
      <trkpt lat="37.9199700" lon="-6.1259940">
        <ele>474.6</ele>
        <time>2021-10-20T13:08:02Z</time>
      </trkpt>
      <trkpt lat="37.9199560" lon="-6.1260580">
        <ele>475.0</ele>
        <time>2021-10-20T13:08:05Z</time>
      </trkpt>
      <trkpt lat="37.9199470" lon="-6.1260700">
        <ele>475.2</ele>
        <time>2021-10-20T13:08:10Z</time>
      </trkpt>
      <trkpt lat="37.9199660" lon="-6.1260030">
        <ele>475.2</ele>
        <time>2021-10-20T13:08:15Z</time>
      </trkpt>
      <trkpt lat="37.9199990" lon="-6.1259560">
        <ele>475.2</ele>
        <time>2021-10-20T13:08:17Z</time>
      </trkpt>
      <trkpt lat="37.9200520" lon="-6.1258800">
        <ele>474.6</ele>
        <time>2021-10-20T13:08:21Z</time>
      </trkpt>
      <trkpt lat="37.9200520" lon="-6.1258760">
        <ele>474.6</ele>
        <time>2021-10-20T13:08:22Z</time>
      </trkpt>
      <trkpt lat="37.9200520" lon="-6.1258760">
        <ele>474.4</ele>
        <time>2021-10-20T13:08:24Z</time>
      </trkpt>
      <trkpt lat="37.9200410" lon="-6.1259010">
        <ele>474.8</ele>
        <time>2021-10-20T13:12:14Z</time>
      </trkpt>
      <trkpt lat="37.9200300" lon="-6.1259180">
        <ele>474.8</ele>
        <time>2021-10-20T13:12:15Z</time>
      </trkpt>
      <trkpt lat="37.9200130" lon="-6.1259400">
        <ele>475.2</ele>
        <time>2021-10-20T13:12:16Z</time>
      </trkpt>
      <trkpt lat="37.9199630" lon="-6.1260320">
        <ele>475.4</ele>
        <time>2021-10-20T13:12:21Z</time>
      </trkpt>
      <trkpt lat="37.9199610" lon="-6.1260540">
        <ele>475.4</ele>
        <time>2021-10-20T13:12:22Z</time>
      </trkpt>
      <trkpt lat="37.9199670" lon="-6.1261470">
        <ele>475.8</ele>
        <time>2021-10-20T13:12:26Z</time>
      </trkpt>
      <trkpt lat="37.9199730" lon="-6.1262290">
        <ele>476.0</ele>
        <time>2021-10-20T13:12:30Z</time>
      </trkpt>
      <trkpt lat="37.9199730" lon="-6.1262490">
        <ele>476.0</ele>
        <time>2021-10-20T13:12:31Z</time>
      </trkpt>
      <trkpt lat="37.9199740" lon="-6.1263120">
        <ele>476.6</ele>
        <time>2021-10-20T13:12:34Z</time>
      </trkpt>
      <trkpt lat="37.9199750" lon="-6.1264450">
        <ele>478.0</ele>
        <time>2021-10-20T13:12:40Z</time>
      </trkpt>
      <trkpt lat="37.9199720" lon="-6.1264660">
        <ele>478.0</ele>
        <time>2021-10-20T13:12:41Z</time>
      </trkpt>
      <trkpt lat="37.9199470" lon="-6.1266240">
        <ele>478.6</ele>
        <time>2021-10-20T13:12:48Z</time>
      </trkpt>
      <trkpt lat="37.9199370" lon="-6.1266650">
        <ele>479.0</ele>
        <time>2021-10-20T13:12:50Z</time>
      </trkpt>
      <trkpt lat="37.9199190" lon="-6.1267000">
        <ele>479.2</ele>
        <time>2021-10-20T13:12:52Z</time>
      </trkpt>
      <trkpt lat="37.9199020" lon="-6.1267360">
        <ele>479.6</ele>
        <time>2021-10-20T13:12:54Z</time>
      </trkpt>
      <trkpt lat="37.9198950" lon="-6.1267550">
        <ele>479.6</ele>
        <time>2021-10-20T13:12:55Z</time>
      </trkpt>
      <trkpt lat="37.9198630" lon="-6.1268040">
        <ele>479.8</ele>
        <time>2021-10-20T13:12:58Z</time>
      </trkpt>
      <trkpt lat="37.9198350" lon="-6.1268320">
        <ele>480.2</ele>
        <time>2021-10-20T13:13:00Z</time>
      </trkpt>
      <trkpt lat="37.9197860" lon="-6.1268900">
        <ele>480.6</ele>
        <time>2021-10-20T13:13:04Z</time>
      </trkpt>
      <trkpt lat="37.9197570" lon="-6.1269530">
        <ele>481.0</ele>
        <time>2021-10-20T13:13:07Z</time>
      </trkpt>
      <trkpt lat="37.9197530" lon="-6.1269720">
        <ele>481.0</ele>
        <time>2021-10-20T13:13:08Z</time>
      </trkpt>
      <trkpt lat="37.9197510" lon="-6.1270090">
        <ele>481.2</ele>
        <time>2021-10-20T13:13:10Z</time>
      </trkpt>
      <trkpt lat="37.9197540" lon="-6.1270300">
        <ele>481.2</ele>
        <time>2021-10-20T13:13:11Z</time>
      </trkpt>
      <trkpt lat="37.9197590" lon="-6.1271140">
        <ele>481.6</ele>
        <time>2021-10-20T13:13:15Z</time>
      </trkpt>
      <trkpt lat="37.9197410" lon="-6.1271980">
        <ele>482.4</ele>
        <time>2021-10-20T13:13:19Z</time>
      </trkpt>
      <trkpt lat="37.9197090" lon="-6.1272690">
        <ele>483.2</ele>
        <time>2021-10-20T13:13:23Z</time>
      </trkpt>
      <trkpt lat="37.9196880" lon="-6.1273010">
        <ele>483.6</ele>
        <time>2021-10-20T13:13:25Z</time>
      </trkpt>
      <trkpt lat="37.9196540" lon="-6.1273670">
        <ele>484.0</ele>
        <time>2021-10-20T13:13:29Z</time>
      </trkpt>
      <trkpt lat="37.9196200" lon="-6.1274050">
        <ele>484.6</ele>
        <time>2021-10-20T13:13:32Z</time>
      </trkpt>
      <trkpt lat="37.9196020" lon="-6.1274440">
        <ele>485.0</ele>
        <time>2021-10-20T13:13:34Z</time>
      </trkpt>
      <trkpt lat="37.9195950" lon="-6.1274620">
        <ele>485.0</ele>
        <time>2021-10-20T13:13:35Z</time>
      </trkpt>
      <trkpt lat="37.9195890" lon="-6.1274770">
        <ele>485.2</ele>
        <time>2021-10-20T13:13:36Z</time>
      </trkpt>
      <trkpt lat="37.9195860" lon="-6.1274910">
        <ele>485.2</ele>
        <time>2021-10-20T13:13:37Z</time>
      </trkpt>
      <trkpt lat="37.9195810" lon="-6.1275400">
        <ele>485.6</ele>
        <time>2021-10-20T13:13:40Z</time>
      </trkpt>
      <trkpt lat="37.9195920" lon="-6.1275980">
        <ele>486.0</ele>
        <time>2021-10-20T13:13:43Z</time>
      </trkpt>
      <trkpt lat="37.9195950" lon="-6.1276120">
        <ele>486.2</ele>
        <time>2021-10-20T13:13:44Z</time>
      </trkpt>
      <trkpt lat="37.9196050" lon="-6.1276270">
        <ele>486.4</ele>
        <time>2021-10-20T13:13:45Z</time>
      </trkpt>
      <trkpt lat="37.9196260" lon="-6.1276540">
        <ele>486.8</ele>
        <time>2021-10-20T13:13:47Z</time>
      </trkpt>
      <trkpt lat="37.9196850" lon="-6.1277550">
        <ele>487.8</ele>
        <time>2021-10-20T13:13:54Z</time>
      </trkpt>
      <trkpt lat="37.9196980" lon="-6.1278030">
        <ele>488.2</ele>
        <time>2021-10-20T13:13:57Z</time>
      </trkpt>
      <trkpt lat="37.9197090" lon="-6.1278870">
        <ele>489.0</ele>
        <time>2021-10-20T13:14:02Z</time>
      </trkpt>
      <trkpt lat="37.9197090" lon="-6.1279000">
        <ele>489.0</ele>
        <time>2021-10-20T13:14:03Z</time>
      </trkpt>
      <trkpt lat="37.9197110" lon="-6.1279200">
        <ele>489.2</ele>
        <time>2021-10-20T13:14:04Z</time>
      </trkpt>
      <trkpt lat="37.9197070" lon="-6.1279500">
        <ele>489.4</ele>
        <time>2021-10-20T13:14:06Z</time>
      </trkpt>
      <trkpt lat="37.9196910" lon="-6.1280050">
        <ele>489.6</ele>
        <time>2021-10-20T13:14:09Z</time>
      </trkpt>
      <trkpt lat="37.9196830" lon="-6.1280870">
        <ele>490.0</ele>
        <time>2021-10-20T13:14:13Z</time>
      </trkpt>
      <trkpt lat="37.9196660" lon="-6.1281580">
        <ele>490.2</ele>
        <time>2021-10-20T13:14:16Z</time>
      </trkpt>
      <trkpt lat="37.9196620" lon="-6.1281810">
        <ele>490.2</ele>
        <time>2021-10-20T13:14:17Z</time>
      </trkpt>
      <trkpt lat="37.9196560" lon="-6.1282330">
        <ele>490.2</ele>
        <time>2021-10-20T13:14:19Z</time>
      </trkpt>
      <trkpt lat="37.9196490" lon="-6.1282620">
        <ele>490.4</ele>
        <time>2021-10-20T13:14:20Z</time>
      </trkpt>
      <trkpt lat="37.9196320" lon="-6.1283190">
        <ele>490.4</ele>
        <time>2021-10-20T13:14:22Z</time>
      </trkpt>
      <trkpt lat="37.9196220" lon="-6.1283770">
        <ele>490.4</ele>
        <time>2021-10-20T13:14:24Z</time>
      </trkpt>
      <trkpt lat="37.9195860" lon="-6.1285250">
        <ele>490.6</ele>
        <time>2021-10-20T13:14:29Z</time>
      </trkpt>
      <trkpt lat="37.9195690" lon="-6.1285740">
        <ele>490.8</ele>
        <time>2021-10-20T13:14:31Z</time>
      </trkpt>
      <trkpt lat="37.9195410" lon="-6.1286440">
        <ele>490.8</ele>
        <time>2021-10-20T13:14:34Z</time>
      </trkpt>
      <trkpt lat="37.9195240" lon="-6.1286650">
        <ele>491.0</ele>
        <time>2021-10-20T13:14:35Z</time>
      </trkpt>
      <trkpt lat="37.9194850" lon="-6.1287130">
        <ele>491.2</ele>
        <time>2021-10-20T13:14:38Z</time>
      </trkpt>
      <trkpt lat="37.9194330" lon="-6.1287710">
        <ele>491.6</ele>
        <time>2021-10-20T13:14:41Z</time>
      </trkpt>
      <trkpt lat="37.9193670" lon="-6.1288540">
        <ele>492.2</ele>
        <time>2021-10-20T13:14:45Z</time>
      </trkpt>
      <trkpt lat="37.9193520" lon="-6.1288720">
        <ele>492.4</ele>
        <time>2021-10-20T13:14:46Z</time>
      </trkpt>
      <trkpt lat="37.9192980" lon="-6.1289660">
        <ele>492.8</ele>
        <time>2021-10-20T13:14:50Z</time>
      </trkpt>
      <trkpt lat="37.9192930" lon="-6.1289910">
        <ele>492.8</ele>
        <time>2021-10-20T13:14:51Z</time>
      </trkpt>
      <trkpt lat="37.9192900" lon="-6.1290170">
        <ele>492.8</ele>
        <time>2021-10-20T13:14:52Z</time>
      </trkpt>
      <trkpt lat="37.9192880" lon="-6.1291390">
        <ele>493.2</ele>
        <time>2021-10-20T13:14:57Z</time>
      </trkpt>
      <trkpt lat="37.9192920" lon="-6.1291600">
        <ele>493.6</ele>
        <time>2021-10-20T13:14:58Z</time>
      </trkpt>
      <trkpt lat="37.9192940" lon="-6.1291850">
        <ele>493.6</ele>
        <time>2021-10-20T13:14:59Z</time>
      </trkpt>
      <trkpt lat="37.9193010" lon="-6.1292270">
        <ele>494.2</ele>
        <time>2021-10-20T13:15:01Z</time>
      </trkpt>
      <trkpt lat="37.9192970" lon="-6.1292960">
        <ele>494.8</ele>
        <time>2021-10-20T13:15:04Z</time>
      </trkpt>
      <trkpt lat="37.9192870" lon="-6.1293620">
        <ele>495.2</ele>
        <time>2021-10-20T13:15:07Z</time>
      </trkpt>
      <trkpt lat="37.9192790" lon="-6.1294030">
        <ele>495.6</ele>
        <time>2021-10-20T13:15:09Z</time>
      </trkpt>
      <trkpt lat="37.9192460" lon="-6.1294820">
        <ele>496.0</ele>
        <time>2021-10-20T13:15:13Z</time>
      </trkpt>
      <trkpt lat="37.9192140" lon="-6.1295400">
        <ele>496.4</ele>
        <time>2021-10-20T13:15:16Z</time>
      </trkpt>
      <trkpt lat="37.9191510" lon="-6.1296240">
        <ele>497.2</ele>
        <time>2021-10-20T13:15:21Z</time>
      </trkpt>
      <trkpt lat="37.9191050" lon="-6.1296440">
        <ele>497.4</ele>
        <time>2021-10-20T13:15:24Z</time>
      </trkpt>
      <trkpt lat="37.9190730" lon="-6.1296560">
        <ele>498.2</ele>
        <time>2021-10-20T13:15:30Z</time>
      </trkpt>
      <trkpt lat="37.9190490" lon="-6.1296870">
        <ele>498.8</ele>
        <time>2021-10-20T13:16:56Z</time>
      </trkpt>
      <trkpt lat="37.9190170" lon="-6.1297310">
        <ele>499.0</ele>
        <time>2021-10-20T13:16:58Z</time>
      </trkpt>
      <trkpt lat="37.9189540" lon="-6.1298610">
        <ele>499.2</ele>
        <time>2021-10-20T13:17:04Z</time>
      </trkpt>
      <trkpt lat="37.9189390" lon="-6.1299010">
        <ele>499.6</ele>
        <time>2021-10-20T13:17:06Z</time>
      </trkpt>
      <trkpt lat="37.9188710" lon="-6.1299790">
        <ele>500.6</ele>
        <time>2021-10-20T13:17:11Z</time>
      </trkpt>
      <trkpt lat="37.9188550" lon="-6.1299980">
        <ele>500.8</ele>
        <time>2021-10-20T13:17:12Z</time>
      </trkpt>
      <trkpt lat="37.9187810" lon="-6.1300490">
        <ele>502.0</ele>
        <time>2021-10-20T13:17:17Z</time>
      </trkpt>
      <trkpt lat="37.9187510" lon="-6.1300710">
        <ele>502.2</ele>
        <time>2021-10-20T13:17:19Z</time>
      </trkpt>
      <trkpt lat="37.9187150" lon="-6.1300910">
        <ele>503.0</ele>
        <time>2021-10-20T13:17:22Z</time>
      </trkpt>
      <trkpt lat="37.9186460" lon="-6.1301310">
        <ele>503.6</ele>
        <time>2021-10-20T13:17:27Z</time>
      </trkpt>
      <trkpt lat="37.9186190" lon="-6.1301390">
        <ele>504.2</ele>
        <time>2021-10-20T13:17:29Z</time>
      </trkpt>
      <trkpt lat="37.9185920" lon="-6.1301380">
        <ele>504.4</ele>
        <time>2021-10-20T13:17:31Z</time>
      </trkpt>
      <trkpt lat="37.9185490" lon="-6.1301370">
        <ele>504.8</ele>
        <time>2021-10-20T13:17:34Z</time>
      </trkpt>
      <trkpt lat="37.9185350" lon="-6.1301380">
        <ele>505.2</ele>
        <time>2021-10-20T13:17:35Z</time>
      </trkpt>
      <trkpt lat="37.9185180" lon="-6.1301380">
        <ele>505.4</ele>
        <time>2021-10-20T13:17:36Z</time>
      </trkpt>
      <trkpt lat="37.9184330" lon="-6.1301380">
        <ele>506.6</ele>
        <time>2021-10-20T13:17:42Z</time>
      </trkpt>
      <trkpt lat="37.9184060" lon="-6.1301400">
        <ele>506.8</ele>
        <time>2021-10-20T13:17:44Z</time>
      </trkpt>
      <trkpt lat="37.9183460" lon="-6.1301630">
        <ele>507.6</ele>
        <time>2021-10-20T13:17:48Z</time>
      </trkpt>
      <trkpt lat="37.9183290" lon="-6.1301730">
        <ele>508.0</ele>
        <time>2021-10-20T13:17:49Z</time>
      </trkpt>
      <trkpt lat="37.9183140" lon="-6.1301780">
        <ele>508.2</ele>
        <time>2021-10-20T13:17:50Z</time>
      </trkpt>
      <trkpt lat="37.9183000" lon="-6.1301810">
        <ele>508.4</ele>
        <time>2021-10-20T13:17:51Z</time>
      </trkpt>
      <trkpt lat="37.9182610" lon="-6.1301870">
        <ele>508.4</ele>
        <time>2021-10-20T13:17:53Z</time>
      </trkpt>
      <trkpt lat="37.9182220" lon="-6.1301890">
        <ele>508.6</ele>
        <time>2021-10-20T13:17:55Z</time>
      </trkpt>
      <trkpt lat="37.9181850" lon="-6.1301870">
        <ele>508.8</ele>
        <time>2021-10-20T13:17:57Z</time>
      </trkpt>
      <trkpt lat="37.9181440" lon="-6.1301750">
        <ele>509.0</ele>
        <time>2021-10-20T13:17:59Z</time>
      </trkpt>
      <trkpt lat="37.9181040" lon="-6.1301510">
        <ele>509.0</ele>
        <time>2021-10-20T13:18:01Z</time>
      </trkpt>
      <trkpt lat="37.9180470" lon="-6.1300870">
        <ele>509.2</ele>
        <time>2021-10-20T13:18:04Z</time>
      </trkpt>
      <trkpt lat="37.9180090" lon="-6.1300060">
        <ele>509.0</ele>
        <time>2021-10-20T13:18:07Z</time>
      </trkpt>
      <trkpt lat="37.9179770" lon="-6.1299310">
        <ele>508.8</ele>
        <time>2021-10-20T13:18:09Z</time>
      </trkpt>
      <trkpt lat="37.9178980" lon="-6.1298000">
        <ele>508.0</ele>
        <time>2021-10-20T13:18:13Z</time>
      </trkpt>
      <trkpt lat="37.9178770" lon="-6.1297710">
        <ele>508.0</ele>
        <time>2021-10-20T13:18:14Z</time>
      </trkpt>
      <trkpt lat="37.9178350" lon="-6.1297290">
        <ele>507.6</ele>
        <time>2021-10-20T13:18:16Z</time>
      </trkpt>
      <trkpt lat="37.9177460" lon="-6.1296670">
        <ele>506.6</ele>
        <time>2021-10-20T13:18:20Z</time>
      </trkpt>
      <trkpt lat="37.9176650" lon="-6.1296400">
        <ele>505.8</ele>
        <time>2021-10-20T13:18:25Z</time>
      </trkpt>
      <trkpt lat="37.9176650" lon="-6.1296400">
        <ele>505.6</ele>
        <time>2021-10-20T13:18:26Z</time>
      </trkpt>
      <trkpt lat="37.9176650" lon="-6.1296400">
        <ele>505.4</ele>
        <time>2021-10-20T13:18:27Z</time>
      </trkpt>
      <trkpt lat="37.9177090" lon="-6.1296650">
        <ele>504.4</ele>
        <time>2021-10-20T13:19:46Z</time>
      </trkpt>
      <trkpt lat="37.9177630" lon="-6.1296950">
        <ele>504.8</ele>
        <time>2021-10-20T13:19:48Z</time>
      </trkpt>
      <trkpt lat="37.9178990" lon="-6.1298030">
        <ele>505.6</ele>
        <time>2021-10-20T13:19:54Z</time>
      </trkpt>
      <trkpt lat="37.9179130" lon="-6.1298270">
        <ele>505.8</ele>
        <time>2021-10-20T13:19:55Z</time>
      </trkpt>
      <trkpt lat="37.9179590" lon="-6.1298880">
        <ele>506.0</ele>
        <time>2021-10-20T13:19:58Z</time>
      </trkpt>
      <trkpt lat="37.9179920" lon="-6.1299510">
        <ele>506.4</ele>
        <time>2021-10-20T13:20:01Z</time>
      </trkpt>
      <trkpt lat="37.9180230" lon="-6.1300150">
        <ele>507.0</ele>
        <time>2021-10-20T13:20:04Z</time>
      </trkpt>
      <trkpt lat="37.9180770" lon="-6.1301110">
        <ele>507.8</ele>
        <time>2021-10-20T13:20:09Z</time>
      </trkpt>
      <trkpt lat="37.9180880" lon="-6.1301250">
        <ele>508.2</ele>
        <time>2021-10-20T13:20:10Z</time>
      </trkpt>
      <trkpt lat="37.9181830" lon="-6.1301730">
        <ele>508.8</ele>
        <time>2021-10-20T13:20:15Z</time>
      </trkpt>
      <trkpt lat="37.9183010" lon="-6.1301710">
        <ele>508.8</ele>
        <time>2021-10-20T13:20:20Z</time>
      </trkpt>
      <trkpt lat="37.9183660" lon="-6.1301520">
        <ele>508.8</ele>
        <time>2021-10-20T13:20:22Z</time>
      </trkpt>
      <trkpt lat="37.9184060" lon="-6.1301420">
        <ele>508.8</ele>
        <time>2021-10-20T13:20:23Z</time>
      </trkpt>
      <trkpt lat="37.9184980" lon="-6.1301320">
        <ele>508.6</ele>
        <time>2021-10-20T13:20:25Z</time>
      </trkpt>
      <trkpt lat="37.9186060" lon="-6.1301240">
        <ele>508.4</ele>
        <time>2021-10-20T13:20:27Z</time>
      </trkpt>
      <trkpt lat="37.9186530" lon="-6.1301090">
        <ele>508.2</ele>
        <time>2021-10-20T13:20:28Z</time>
      </trkpt>
      <trkpt lat="37.9187210" lon="-6.1300730">
        <ele>508.0</ele>
        <time>2021-10-20T13:20:29Z</time>
      </trkpt>
      <trkpt lat="37.9188810" lon="-6.1299440">
        <ele>506.6</ele>
        <time>2021-10-20T13:20:32Z</time>
      </trkpt>
      <trkpt lat="37.9189780" lon="-6.1298010">
        <ele>505.6</ele>
        <time>2021-10-20T13:20:34Z</time>
      </trkpt>
      <trkpt lat="37.9190260" lon="-6.1297260">
        <ele>504.8</ele>
        <time>2021-10-20T13:20:35Z</time>
      </trkpt>
      <trkpt lat="37.9191350" lon="-6.1296000">
        <ele>503.4</ele>
        <time>2021-10-20T13:20:37Z</time>
      </trkpt>
      <trkpt lat="37.9192240" lon="-6.1294800">
        <ele>502.2</ele>
        <time>2021-10-20T13:20:39Z</time>
      </trkpt>
      <trkpt lat="37.9192530" lon="-6.1294240">
        <ele>501.4</ele>
        <time>2021-10-20T13:20:40Z</time>
      </trkpt>
      <trkpt lat="37.9192750" lon="-6.1293660">
        <ele>500.8</ele>
        <time>2021-10-20T13:20:41Z</time>
      </trkpt>
      <trkpt lat="37.9192900" lon="-6.1293030">
        <ele>499.2</ele>
        <time>2021-10-20T13:20:42Z</time>
      </trkpt>
      <trkpt lat="37.9192970" lon="-6.1292420">
        <ele>498.8</ele>
        <time>2021-10-20T13:20:43Z</time>
      </trkpt>
      <trkpt lat="37.9192980" lon="-6.1291800">
        <ele>498.2</ele>
        <time>2021-10-20T13:20:44Z</time>
      </trkpt>
      <trkpt lat="37.9192940" lon="-6.1290540">
        <ele>497.0</ele>
        <time>2021-10-20T13:20:46Z</time>
      </trkpt>
      <trkpt lat="37.9193060" lon="-6.1289150">
        <ele>496.4</ele>
        <time>2021-10-20T13:20:48Z</time>
      </trkpt>
      <trkpt lat="37.9193450" lon="-6.1288530">
        <ele>496.2</ele>
        <time>2021-10-20T13:20:49Z</time>
      </trkpt>
      <trkpt lat="37.9193920" lon="-6.1288040">
        <ele>495.8</ele>
        <time>2021-10-20T13:20:50Z</time>
      </trkpt>
      <trkpt lat="37.9194820" lon="-6.1287160">
        <ele>495.4</ele>
        <time>2021-10-20T13:20:52Z</time>
      </trkpt>
      <trkpt lat="37.9195190" lon="-6.1286640">
        <ele>495.0</ele>
        <time>2021-10-20T13:20:53Z</time>
      </trkpt>
      <trkpt lat="37.9195490" lon="-6.1286100">
        <ele>494.6</ele>
        <time>2021-10-20T13:20:54Z</time>
      </trkpt>
      <trkpt lat="37.9196040" lon="-6.1284220">
        <ele>493.6</ele>
        <time>2021-10-20T13:20:57Z</time>
      </trkpt>
      <trkpt lat="37.9196170" lon="-6.1283550">
        <ele>493.4</ele>
        <time>2021-10-20T13:20:58Z</time>
      </trkpt>
      <trkpt lat="37.9196620" lon="-6.1281530">
        <ele>492.4</ele>
        <time>2021-10-20T13:21:01Z</time>
      </trkpt>
      <trkpt lat="37.9196750" lon="-6.1280870">
        <ele>492.2</ele>
        <time>2021-10-20T13:21:02Z</time>
      </trkpt>
      <trkpt lat="37.9197030" lon="-6.1279290">
        <ele>491.8</ele>
        <time>2021-10-20T13:21:05Z</time>
      </trkpt>
      <trkpt lat="37.9197090" lon="-6.1278680">
        <ele>491.6</ele>
        <time>2021-10-20T13:21:06Z</time>
      </trkpt>
      <trkpt lat="37.9196920" lon="-6.1277380">
        <ele>491.4</ele>
        <time>2021-10-20T13:21:09Z</time>
      </trkpt>
      <trkpt lat="37.9196730" lon="-6.1276910">
        <ele>491.0</ele>
        <time>2021-10-20T13:21:10Z</time>
      </trkpt>
      <trkpt lat="37.9195970" lon="-6.1275800">
        <ele>490.0</ele>
        <time>2021-10-20T13:21:13Z</time>
      </trkpt>
      <trkpt lat="37.9195670" lon="-6.1274830">
        <ele>489.6</ele>
        <time>2021-10-20T13:21:15Z</time>
      </trkpt>
      <trkpt lat="37.9195780" lon="-6.1274240">
        <ele>489.4</ele>
        <time>2021-10-20T13:21:16Z</time>
      </trkpt>
      <trkpt lat="37.9196060" lon="-6.1273680">
        <ele>489.0</ele>
        <time>2021-10-20T13:21:17Z</time>
      </trkpt>
      <trkpt lat="37.9196950" lon="-6.1272340">
        <ele>487.6</ele>
        <time>2021-10-20T13:21:20Z</time>
      </trkpt>
      <trkpt lat="37.9197260" lon="-6.1271390">
        <ele>486.8</ele>
        <time>2021-10-20T13:21:22Z</time>
      </trkpt>
      <trkpt lat="37.9197300" lon="-6.1270920">
        <ele>486.6</ele>
        <time>2021-10-20T13:21:23Z</time>
      </trkpt>
      <trkpt lat="37.9197280" lon="-6.1270420">
        <ele>486.2</ele>
        <time>2021-10-20T13:21:24Z</time>
      </trkpt>
      <trkpt lat="37.9197280" lon="-6.1269830">
        <ele>486.2</ele>
        <time>2021-10-20T13:21:25Z</time>
      </trkpt>
      <trkpt lat="37.9197550" lon="-6.1268600">
        <ele>485.2</ele>
        <time>2021-10-20T13:21:27Z</time>
      </trkpt>
      <trkpt lat="37.9197920" lon="-6.1268020">
        <ele>484.8</ele>
        <time>2021-10-20T13:21:28Z</time>
      </trkpt>
      <trkpt lat="37.9198960" lon="-6.1266450">
        <ele>483.4</ele>
        <time>2021-10-20T13:21:31Z</time>
      </trkpt>
      <trkpt lat="37.9199430" lon="-6.1264840">
        <ele>482.4</ele>
        <time>2021-10-20T13:21:34Z</time>
      </trkpt>
      <trkpt lat="37.9199500" lon="-6.1264070">
        <ele>482.0</ele>
        <time>2021-10-20T13:21:35Z</time>
      </trkpt>
      <trkpt lat="37.9199490" lon="-6.1263430">
        <ele>481.8</ele>
        <time>2021-10-20T13:21:36Z</time>
      </trkpt>
      <trkpt lat="37.9199460" lon="-6.1262780">
        <ele>481.4</ele>
        <time>2021-10-20T13:21:37Z</time>
      </trkpt>
      <trkpt lat="37.9199290" lon="-6.1261530">
        <ele>480.6</ele>
        <time>2021-10-20T13:21:39Z</time>
      </trkpt>
      <trkpt lat="37.9199260" lon="-6.1260960">
        <ele>480.0</ele>
        <time>2021-10-20T13:21:40Z</time>
      </trkpt>
      <trkpt lat="37.9199320" lon="-6.1260410">
        <ele>479.8</ele>
        <time>2021-10-20T13:21:41Z</time>
      </trkpt>
      <trkpt lat="37.9200110" lon="-6.1258760">
        <ele>479.0</ele>
        <time>2021-10-20T13:21:45Z</time>
      </trkpt>
      <trkpt lat="37.9200300" lon="-6.1258470">
        <ele>477.8</ele>
        <time>2021-10-20T13:21:48Z</time>
      </trkpt>
      <trkpt lat="37.9200310" lon="-6.1258440">
        <ele>477.6</ele>
        <time>2021-10-20T13:21:49Z</time>
      </trkpt>
      <trkpt lat="37.9200280" lon="-6.1258330">
        <ele>476.8</ele>
        <time>2021-10-20T13:21:55Z</time>
      </trkpt>
      <trkpt lat="37.9200170" lon="-6.1257970">
        <ele>476.6</ele>
        <time>2021-10-20T13:22:42Z</time>
      </trkpt>
      <trkpt lat="37.9199930" lon="-6.1257550">
        <ele>476.8</ele>
        <time>2021-10-20T13:22:45Z</time>
      </trkpt>
      <trkpt lat="37.9199720" lon="-6.1257300">
        <ele>477.4</ele>
        <time>2021-10-20T13:22:47Z</time>
      </trkpt>
      <trkpt lat="37.9199630" lon="-6.1257160">
        <ele>477.8</ele>
        <time>2021-10-20T13:22:48Z</time>
      </trkpt>
      <trkpt lat="37.9199390" lon="-6.1256790">
        <ele>478.2</ele>
        <time>2021-10-20T13:22:52Z</time>
      </trkpt>
      <trkpt lat="37.9199330" lon="-6.1256700">
        <ele>478.2</ele>
        <time>2021-10-20T13:22:53Z</time>
      </trkpt>
      <trkpt lat="37.9199260" lon="-6.1256490">
        <ele>478.8</ele>
        <time>2021-10-20T13:22:55Z</time>
      </trkpt>
      <trkpt lat="37.9199210" lon="-6.1256400">
        <ele>479.0</ele>
        <time>2021-10-20T13:22:56Z</time>
      </trkpt>
      <trkpt lat="37.9198900" lon="-6.1256140">
        <ele>480.0</ele>
        <time>2021-10-20T13:23:00Z</time>
      </trkpt>
      <trkpt lat="37.9198760" lon="-6.1256110">
        <ele>480.4</ele>
        <time>2021-10-20T13:23:02Z</time>
      </trkpt>
      <trkpt lat="37.9198530" lon="-6.1256010">
        <ele>481.0</ele>
        <time>2021-10-20T13:23:05Z</time>
      </trkpt>
      <trkpt lat="37.9198480" lon="-6.1256000">
        <ele>481.4</ele>
        <time>2021-10-20T13:23:06Z</time>
      </trkpt>
      <trkpt lat="37.9198270" lon="-6.1255850">
        <ele>482.0</ele>
        <time>2021-10-20T13:23:09Z</time>
      </trkpt>
      <trkpt lat="37.9198200" lon="-6.1255780">
        <ele>482.4</ele>
        <time>2021-10-20T13:23:10Z</time>
      </trkpt>
      <trkpt lat="37.9198130" lon="-6.1255710">
        <ele>482.6</ele>
        <time>2021-10-20T13:23:11Z</time>
      </trkpt>
      <trkpt lat="37.9197840" lon="-6.1255480">
        <ele>483.4</ele>
        <time>2021-10-20T13:23:16Z</time>
      </trkpt>
      <trkpt lat="37.9197780" lon="-6.1255410">
        <ele>483.4</ele>
        <time>2021-10-20T13:23:17Z</time>
      </trkpt>
      <trkpt lat="37.9197750" lon="-6.1255340">
        <ele>483.8</ele>
        <time>2021-10-20T13:23:19Z</time>
      </trkpt>
      <trkpt lat="37.9197700" lon="-6.1255270">
        <ele>484.0</ele>
        <time>2021-10-20T13:23:20Z</time>
      </trkpt>
      <trkpt lat="37.9197580" lon="-6.1255180">
        <ele>484.6</ele>
        <time>2021-10-20T13:23:22Z</time>
      </trkpt>
      <trkpt lat="37.9197530" lon="-6.1255160">
        <ele>485.0</ele>
        <time>2021-10-20T13:23:24Z</time>
      </trkpt>
      <trkpt lat="37.9197530" lon="-6.1255160">
        <ele>485.0</ele>
        <time>2021-10-20T13:23:25Z</time>
      </trkpt>
      <trkpt lat="37.9187710" lon="-6.1238350">
        <ele>519.6</ele>
        <time>2021-10-20T13:28:51Z</time>
      </trkpt>
      <trkpt lat="37.9187230" lon="-6.1237900">
        <ele>519.6</ele>
        <time>2021-10-20T13:28:52Z</time>
      </trkpt>
      <trkpt lat="37.9186310" lon="-6.1237380">
        <ele>519.0</ele>
        <time>2021-10-20T13:28:57Z</time>
      </trkpt>
      <trkpt lat="37.9185800" lon="-6.1237430">
        <ele>518.4</ele>
        <time>2021-10-20T13:28:59Z</time>
      </trkpt>
      <trkpt lat="37.9185490" lon="-6.1237540">
        <ele>518.0</ele>
        <time>2021-10-20T13:29:00Z</time>
      </trkpt>
      <trkpt lat="37.9184140" lon="-6.1237840">
        <ele>517.2</ele>
        <time>2021-10-20T13:29:03Z</time>
      </trkpt>
      <trkpt lat="37.9183790" lon="-6.1237910">
        <ele>516.8</ele>
        <time>2021-10-20T13:29:04Z</time>
      </trkpt>
      <trkpt lat="37.9182350" lon="-6.1238220">
        <ele>516.2</ele>
        <time>2021-10-20T13:29:08Z</time>
      </trkpt>
      <trkpt lat="37.9182200" lon="-6.1238250">
        <ele>516.0</ele>
        <time>2021-10-20T13:29:09Z</time>
      </trkpt>
      <trkpt lat="37.9181160" lon="-6.1238430">
        <ele>517.0</ele>
        <time>2021-10-20T13:29:16Z</time>
      </trkpt>
      <trkpt lat="37.9181100" lon="-6.1238430">
        <ele>517.4</ele>
        <time>2021-10-20T13:29:17Z</time>
      </trkpt>
      <trkpt lat="37.9181050" lon="-6.1238470">
        <ele>517.8</ele>
        <time>2021-10-20T13:29:19Z</time>
      </trkpt>
      <trkpt lat="37.9178620" lon="-6.1237370">
        <ele>520.6</ele>
        <time>2021-10-20T13:30:06Z</time>
      </trkpt>
      <trkpt lat="37.9177990" lon="-6.1237120">
        <ele>521.2</ele>
        <time>2021-10-20T13:30:11Z</time>
      </trkpt>
      <trkpt lat="37.9177860" lon="-6.1237090">
        <ele>521.2</ele>
        <time>2021-10-20T13:30:12Z</time>
      </trkpt>
      <trkpt lat="37.9177750" lon="-6.1237070">
        <ele>521.6</ele>
        <time>2021-10-20T13:30:14Z</time>
      </trkpt>
      <trkpt lat="37.9177420" lon="-6.1237020">
        <ele>521.8</ele>
        <time>2021-10-20T13:30:15Z</time>
      </trkpt>
      <trkpt lat="37.9176690" lon="-6.1236830">
        <ele>522.8</ele>
        <time>2021-10-20T13:30:20Z</time>
      </trkpt>
      <trkpt lat="37.9176540" lon="-6.1236780">
        <ele>522.8</ele>
        <time>2021-10-20T13:30:21Z</time>
      </trkpt>
      <trkpt lat="37.9175470" lon="-6.1236490">
        <ele>523.2</ele>
        <time>2021-10-20T13:30:27Z</time>
      </trkpt>
      <trkpt lat="37.9175100" lon="-6.1236320">
        <ele>523.4</ele>
        <time>2021-10-20T13:30:29Z</time>
      </trkpt>
      <trkpt lat="37.9174710" lon="-6.1236170">
        <ele>523.6</ele>
        <time>2021-10-20T13:30:31Z</time>
      </trkpt>
      <trkpt lat="37.9174190" lon="-6.1235840">
        <ele>523.6</ele>
        <time>2021-10-20T13:30:34Z</time>
      </trkpt>
      <trkpt lat="37.9173640" lon="-6.1235660">
        <ele>524.2</ele>
        <time>2021-10-20T13:30:37Z</time>
      </trkpt>
      <trkpt lat="37.9172520" lon="-6.1235640">
        <ele>524.6</ele>
        <time>2021-10-20T13:30:43Z</time>
      </trkpt>
      <trkpt lat="37.9172340" lon="-6.1235750">
        <ele>524.6</ele>
        <time>2021-10-20T13:30:44Z</time>
      </trkpt>
      <trkpt lat="37.9170750" lon="-6.1236590">
        <ele>525.0</ele>
        <time>2021-10-20T13:30:53Z</time>
      </trkpt>
      <trkpt lat="37.9170470" lon="-6.1236710">
        <ele>525.2</ele>
        <time>2021-10-20T13:30:55Z</time>
      </trkpt>
      <trkpt lat="37.9169610" lon="-6.1237170">
        <ele>525.4</ele>
        <time>2021-10-20T13:31:01Z</time>
      </trkpt>
      <trkpt lat="37.9168470" lon="-6.1237980">
        <ele>526.2</ele>
        <time>2021-10-20T13:31:07Z</time>
      </trkpt>
      <trkpt lat="37.9168150" lon="-6.1238210">
        <ele>526.4</ele>
        <time>2021-10-20T13:31:09Z</time>
      </trkpt>
      <trkpt lat="37.9167990" lon="-6.1238320">
        <ele>526.6</ele>
        <time>2021-10-20T13:31:10Z</time>
      </trkpt>
      <trkpt lat="37.9167300" lon="-6.1238790">
        <ele>526.8</ele>
        <time>2021-10-20T13:31:14Z</time>
      </trkpt>
      <trkpt lat="37.9167300" lon="-6.1238790">
        <ele>526.8</ele>
        <time>2021-10-20T13:31:15Z</time>
      </trkpt>
      <trkpt lat="37.9166820" lon="-6.1239080">
        <ele>527.0</ele>
        <time>2021-10-20T13:31:17Z</time>
      </trkpt>
      <trkpt lat="37.9166550" lon="-6.1239210">
        <ele>527.2</ele>
        <time>2021-10-20T13:31:19Z</time>
      </trkpt>
      <trkpt lat="37.9166130" lon="-6.1239480">
        <ele>527.8</ele>
        <time>2021-10-20T13:31:22Z</time>
      </trkpt>
      <trkpt lat="37.9165530" lon="-6.1239640">
        <ele>528.4</ele>
        <time>2021-10-20T13:31:26Z</time>
      </trkpt>
      <trkpt lat="37.9165280" lon="-6.1239680">
        <ele>528.8</ele>
        <time>2021-10-20T13:31:29Z</time>
      </trkpt>
      <trkpt lat="37.9164690" lon="-6.1239840">
        <ele>529.4</ele>
        <time>2021-10-20T13:31:32Z</time>
      </trkpt>
      <trkpt lat="37.9164410" lon="-6.1239850">
        <ele>529.6</ele>
        <time>2021-10-20T13:31:34Z</time>
      </trkpt>
      <trkpt lat="37.9164270" lon="-6.1239830">
        <ele>529.8</ele>
        <time>2021-10-20T13:31:35Z</time>
      </trkpt>
      <trkpt lat="37.9163970" lon="-6.1239870">
        <ele>530.2</ele>
        <time>2021-10-20T13:31:37Z</time>
      </trkpt>
      <trkpt lat="37.9163680" lon="-6.1239980">
        <ele>530.6</ele>
        <time>2021-10-20T13:31:39Z</time>
      </trkpt>
      <trkpt lat="37.9163300" lon="-6.1240110">
        <ele>531.2</ele>
        <time>2021-10-20T13:31:42Z</time>
      </trkpt>
      <trkpt lat="37.9163010" lon="-6.1240160">
        <ele>532.0</ele>
        <time>2021-10-20T13:31:44Z</time>
      </trkpt>
      <trkpt lat="37.9162650" lon="-6.1240360">
        <ele>532.4</ele>
        <time>2021-10-20T13:31:47Z</time>
      </trkpt>
      <trkpt lat="37.9162040" lon="-6.1240510">
        <ele>533.0</ele>
        <time>2021-10-20T13:31:52Z</time>
      </trkpt>
      <trkpt lat="37.9161920" lon="-6.1240530">
        <ele>533.4</ele>
        <time>2021-10-20T13:31:54Z</time>
      </trkpt>
      <trkpt lat="37.9161540" lon="-6.1240570">
        <ele>533.8</ele>
        <time>2021-10-20T13:31:56Z</time>
      </trkpt>
      <trkpt lat="37.9161370" lon="-6.1240600">
        <ele>534.2</ele>
        <time>2021-10-20T13:31:57Z</time>
      </trkpt>
      <trkpt lat="37.9160980" lon="-6.1240650">
        <ele>534.2</ele>
        <time>2021-10-20T13:31:59Z</time>
      </trkpt>
      <trkpt lat="37.9160610" lon="-6.1240760">
        <ele>534.4</ele>
        <time>2021-10-20T13:32:01Z</time>
      </trkpt>
      <trkpt lat="37.9159820" lon="-6.1241060">
        <ele>534.4</ele>
        <time>2021-10-20T13:32:05Z</time>
      </trkpt>
      <trkpt lat="37.9159620" lon="-6.1241130">
        <ele>534.4</ele>
        <time>2021-10-20T13:32:06Z</time>
      </trkpt>
      <trkpt lat="37.9158110" lon="-6.1242130">
        <ele>535.2</ele>
        <time>2021-10-20T13:32:15Z</time>
      </trkpt>
      <trkpt lat="37.9157870" lon="-6.1242330">
        <ele>535.6</ele>
        <time>2021-10-20T13:32:17Z</time>
      </trkpt>
      <trkpt lat="37.9157200" lon="-6.1242750">
        <ele>536.2</ele>
        <time>2021-10-20T13:32:22Z</time>
      </trkpt>
      <trkpt lat="37.9156680" lon="-6.1242970">
        <ele>536.8</ele>
        <time>2021-10-20T13:32:25Z</time>
      </trkpt>
      <trkpt lat="37.9155670" lon="-6.1243600">
        <ele>537.2</ele>
        <time>2021-10-20T13:32:31Z</time>
      </trkpt>
      <trkpt lat="37.9155200" lon="-6.1244070">
        <ele>537.4</ele>
        <time>2021-10-20T13:32:34Z</time>
      </trkpt>
      <trkpt lat="37.9154000" lon="-6.1245150">
        <ele>538.0</ele>
        <time>2021-10-20T13:32:42Z</time>
      </trkpt>
      <trkpt lat="37.9153750" lon="-6.1245110">
        <ele>538.2</ele>
        <time>2021-10-20T13:32:43Z</time>
      </trkpt>
      <trkpt lat="37.9153490" lon="-6.1245080">
        <ele>538.8</ele>
        <time>2021-10-20T13:32:44Z</time>
      </trkpt>
      <trkpt lat="37.9153240" lon="-6.1245040">
        <ele>539.0</ele>
        <time>2021-10-20T13:32:45Z</time>
      </trkpt>
      <trkpt lat="37.9152990" lon="-6.1245010">
        <ele>539.2</ele>
        <time>2021-10-20T13:32:46Z</time>
      </trkpt>
      <trkpt lat="37.9152730" lon="-6.1244970">
        <ele>540.0</ele>
        <time>2021-10-20T13:32:49Z</time>
      </trkpt>
      <trkpt lat="37.9152480" lon="-6.1244940">
        <ele>541.0</ele>
        <time>2021-10-20T13:32:56Z</time>
      </trkpt>
      <trkpt lat="37.9152230" lon="-6.1244900">
        <ele>541.4</ele>
        <time>2021-10-20T13:32:59Z</time>
      </trkpt>
      <trkpt lat="37.9151980" lon="-6.1244870">
        <ele>541.6</ele>
        <time>2021-10-20T13:33:01Z</time>
      </trkpt>
      <trkpt lat="37.9151720" lon="-6.1244830">
        <ele>541.8</ele>
        <time>2021-10-20T13:33:02Z</time>
      </trkpt>
      <trkpt lat="37.9151470" lon="-6.1244800">
        <ele>541.8</ele>
        <time>2021-10-20T13:33:04Z</time>
      </trkpt>
      <trkpt lat="37.9151220" lon="-6.1244760">
        <ele>541.8</ele>
        <time>2021-10-20T13:33:06Z</time>
      </trkpt>
      <trkpt lat="37.9150960" lon="-6.1244730">
        <ele>541.6</ele>
        <time>2021-10-20T13:33:32Z</time>
      </trkpt>
      <trkpt lat="37.9150710" lon="-6.1244690">
        <ele>541.6</ele>
        <time>2021-10-20T13:33:33Z</time>
      </trkpt>
      <trkpt lat="37.9149800" lon="-6.1243550">
        <ele>541.6</ele>
        <time>2021-10-20T13:33:36Z</time>
      </trkpt>
      <trkpt lat="37.9149430" lon="-6.1243220">
        <ele>541.4</ele>
        <time>2021-10-20T13:33:37Z</time>
      </trkpt>
      <trkpt lat="37.9148500" lon="-6.1242660">
        <ele>541.0</ele>
        <time>2021-10-20T13:33:40Z</time>
      </trkpt>
      <trkpt lat="37.9148060" lon="-6.1242470">
        <ele>540.8</ele>
        <time>2021-10-20T13:33:43Z</time>
      </trkpt>
      <trkpt lat="37.9147530" lon="-6.1242200">
        <ele>540.8</ele>
        <time>2021-10-20T13:33:45Z</time>
      </trkpt>
      <trkpt lat="37.9146380" lon="-6.1242040">
        <ele>541.2</ele>
        <time>2021-10-20T13:33:52Z</time>
      </trkpt>
      <trkpt lat="37.9145850" lon="-6.1242160">
        <ele>541.8</ele>
        <time>2021-10-20T13:33:55Z</time>
      </trkpt>
      <trkpt lat="37.9145690" lon="-6.1242170">
        <ele>541.8</ele>
        <time>2021-10-20T13:33:56Z</time>
      </trkpt>
      <trkpt lat="37.9145560" lon="-6.1242170">
        <ele>542.0</ele>
        <time>2021-10-20T13:33:57Z</time>
      </trkpt>
      <trkpt lat="37.9145290" lon="-6.1242230">
        <ele>542.4</ele>
        <time>2021-10-20T13:33:59Z</time>
      </trkpt>
      <trkpt lat="37.9144880" lon="-6.1242300">
        <ele>543.0</ele>
        <time>2021-10-20T13:34:02Z</time>
      </trkpt>
      <trkpt lat="37.9143300" lon="-6.1242560">
        <ele>543.2</ele>
        <time>2021-10-20T13:34:09Z</time>
      </trkpt>
      <trkpt lat="37.9141920" lon="-6.1241770">
        <ele>542.0</ele>
        <time>2021-10-20T13:34:13Z</time>
      </trkpt>
      <trkpt lat="37.9141370" lon="-6.1241440">
        <ele>541.6</ele>
        <time>2021-10-20T13:34:14Z</time>
      </trkpt>
      <trkpt lat="37.9140870" lon="-6.1241230">
        <ele>541.0</ele>
        <time>2021-10-20T13:34:15Z</time>
      </trkpt>
      <trkpt lat="37.9139930" lon="-6.1240980">
        <ele>540.4</ele>
        <time>2021-10-20T13:34:17Z</time>
      </trkpt>
      <trkpt lat="37.9139340" lon="-6.1240880">
        <ele>540.2</ele>
        <time>2021-10-20T13:34:18Z</time>
      </trkpt>
      <trkpt lat="37.9139000" lon="-6.1240900">
        <ele>539.6</ele>
        <time>2021-10-20T13:34:19Z</time>
      </trkpt>
      <trkpt lat="37.9138480" lon="-6.1240930">
        <ele>538.6</ele>
        <time>2021-10-20T13:34:20Z</time>
      </trkpt>
      <trkpt lat="37.9137690" lon="-6.1240970">
        <ele>537.8</ele>
        <time>2021-10-20T13:34:22Z</time>
      </trkpt>
      <trkpt lat="37.9137110" lon="-6.1240950">
        <ele>537.6</ele>
        <time>2021-10-20T13:34:23Z</time>
      </trkpt>
      <trkpt lat="37.9136600" lon="-6.1240870">
        <ele>537.4</ele>
        <time>2021-10-20T13:34:24Z</time>
      </trkpt>
      <trkpt lat="37.9135570" lon="-6.1240610">
        <ele>537.2</ele>
        <time>2021-10-20T13:34:26Z</time>
      </trkpt>
      <trkpt lat="37.9134210" lon="-6.1240430">
        <ele>536.4</ele>
        <time>2021-10-20T13:34:28Z</time>
      </trkpt>
      <trkpt lat="37.9133600" lon="-6.1240330">
        <ele>536.0</ele>
        <time>2021-10-20T13:34:29Z</time>
      </trkpt>
      <trkpt lat="37.9132620" lon="-6.1239810">
        <ele>534.8</ele>
        <time>2021-10-20T13:34:31Z</time>
      </trkpt>
      <trkpt lat="37.9131690" lon="-6.1238800">
        <ele>533.6</ele>
        <time>2021-10-20T13:34:33Z</time>
      </trkpt>
      <trkpt lat="37.9131110" lon="-6.1238100">
        <ele>531.8</ele>
        <time>2021-10-20T13:34:35Z</time>
      </trkpt>
      <trkpt lat="37.9130380" lon="-6.1237360">
        <ele>530.8</ele>
        <time>2021-10-20T13:34:38Z</time>
      </trkpt>
      <trkpt lat="37.9130240" lon="-6.1237250">
        <ele>530.6</ele>
        <time>2021-10-20T13:34:39Z</time>
      </trkpt>
      <trkpt lat="37.9129160" lon="-6.1236490">
        <ele>530.6</ele>
        <time>2021-10-20T13:34:45Z</time>
      </trkpt>
      <trkpt lat="37.9128800" lon="-6.1236170">
        <ele>530.4</ele>
        <time>2021-10-20T13:34:50Z</time>
      </trkpt>
      <trkpt lat="37.9128730" lon="-6.1236100">
        <ele>529.4</ele>
        <time>2021-10-20T13:35:25Z</time>
      </trkpt>
      <trkpt lat="37.9128730" lon="-6.1236100">
        <ele>529.4</ele>
        <time>2021-10-20T13:35:26Z</time>
      </trkpt>
      <trkpt lat="37.9128240" lon="-6.1235920">
        <ele>529.6</ele>
        <time>2021-10-20T13:35:30Z</time>
      </trkpt>
      <trkpt lat="37.9127730" lon="-6.1235670">
        <ele>529.6</ele>
        <time>2021-10-20T13:35:32Z</time>
      </trkpt>
      <trkpt lat="37.9125660" lon="-6.1234510">
        <ele>529.8</ele>
        <time>2021-10-20T13:35:40Z</time>
      </trkpt>
      <trkpt lat="37.9123730" lon="-6.1234010">
        <ele>530.6</ele>
        <time>2021-10-20T13:35:48Z</time>
      </trkpt>
      <trkpt lat="37.9123000" lon="-6.1234210">
        <ele>530.8</ele>
        <time>2021-10-20T13:35:51Z</time>
      </trkpt>
      <trkpt lat="37.9122510" lon="-6.1234370">
        <ele>530.8</ele>
        <time>2021-10-20T13:35:53Z</time>
      </trkpt>
      <trkpt lat="37.9122040" lon="-6.1234580">
        <ele>531.0</ele>
        <time>2021-10-20T13:35:55Z</time>
      </trkpt>
      <trkpt lat="37.9120810" lon="-6.1235460">
        <ele>531.4</ele>
        <time>2021-10-20T13:36:00Z</time>
      </trkpt>
      <trkpt lat="37.9120230" lon="-6.1236180">
        <ele>531.4</ele>
        <time>2021-10-20T13:36:02Z</time>
      </trkpt>
      <trkpt lat="37.9119740" lon="-6.1236840">
        <ele>531.2</ele>
        <time>2021-10-20T13:36:04Z</time>
      </trkpt>
      <trkpt lat="37.9119410" lon="-6.1237180">
        <ele>531.2</ele>
        <time>2021-10-20T13:36:05Z</time>
      </trkpt>
      <trkpt lat="37.9118620" lon="-6.1237780">
        <ele>530.6</ele>
        <time>2021-10-20T13:36:07Z</time>
      </trkpt>
      <trkpt lat="37.9118320" lon="-6.1237960">
        <ele>530.4</ele>
        <time>2021-10-20T13:36:08Z</time>
      </trkpt>
      <trkpt lat="37.9117510" lon="-6.1238330">
        <ele>529.6</ele>
        <time>2021-10-20T13:36:10Z</time>
      </trkpt>
      <trkpt lat="37.9116590" lon="-6.1238590">
        <ele>529.0</ele>
        <time>2021-10-20T13:36:12Z</time>
      </trkpt>
      <trkpt lat="37.9115630" lon="-6.1238700">
        <ele>528.4</ele>
        <time>2021-10-20T13:36:14Z</time>
      </trkpt>
      <trkpt lat="37.9114970" lon="-6.1238990">
        <ele>527.4</ele>
        <time>2021-10-20T13:36:16Z</time>
      </trkpt>
      <trkpt lat="37.9114730" lon="-6.1239120">
        <ele>526.0</ele>
        <time>2021-10-20T13:36:17Z</time>
      </trkpt>
      <trkpt lat="37.9114450" lon="-6.1239250">
        <ele>525.8</ele>
        <time>2021-10-20T13:36:18Z</time>
      </trkpt>
      <trkpt lat="37.9114190" lon="-6.1239370">
        <ele>525.0</ele>
        <time>2021-10-20T13:36:19Z</time>
      </trkpt>
      <trkpt lat="37.9113080" lon="-6.1239920">
        <ele>523.4</ele>
        <time>2021-10-20T13:36:22Z</time>
      </trkpt>
      <trkpt lat="37.9112760" lon="-6.1240270">
        <ele>523.2</ele>
        <time>2021-10-20T13:36:23Z</time>
      </trkpt>
      <trkpt lat="37.9112540" lon="-6.1240640">
        <ele>522.2</ele>
        <time>2021-10-20T13:36:24Z</time>
      </trkpt>
      <trkpt lat="37.9111390" lon="-6.1242320">
        <ele>520.8</ele>
        <time>2021-10-20T13:36:27Z</time>
      </trkpt>
      <trkpt lat="37.9110580" lon="-6.1243160">
        <ele>519.4</ele>
        <time>2021-10-20T13:36:29Z</time>
      </trkpt>
      <trkpt lat="37.9110110" lon="-6.1243450">
        <ele>518.4</ele>
        <time>2021-10-20T13:36:30Z</time>
      </trkpt>
      <trkpt lat="37.9109650" lon="-6.1243590">
        <ele>516.8</ele>
        <time>2021-10-20T13:36:31Z</time>
      </trkpt>
      <trkpt lat="37.9108650" lon="-6.1243910">
        <ele>515.2</ele>
        <time>2021-10-20T13:36:33Z</time>
      </trkpt>
      <trkpt lat="37.9108290" lon="-6.1244090">
        <ele>514.6</ele>
        <time>2021-10-20T13:36:34Z</time>
      </trkpt>
      <trkpt lat="37.9107820" lon="-6.1244420">
        <ele>513.8</ele>
        <time>2021-10-20T13:36:35Z</time>
      </trkpt>
      <trkpt lat="37.9107280" lon="-6.1244810">
        <ele>513.6</ele>
        <time>2021-10-20T13:36:36Z</time>
      </trkpt>
      <trkpt lat="37.9106720" lon="-6.1245140">
        <ele>512.6</ele>
        <time>2021-10-20T13:36:37Z</time>
      </trkpt>
      <trkpt lat="37.9105470" lon="-6.1245340">
        <ele>511.2</ele>
        <time>2021-10-20T13:36:39Z</time>
      </trkpt>
      <trkpt lat="37.9104090" lon="-6.1245380">
        <ele>509.4</ele>
        <time>2021-10-20T13:36:41Z</time>
      </trkpt>
      <trkpt lat="37.9103700" lon="-6.1245420">
        <ele>507.4</ele>
        <time>2021-10-20T13:36:42Z</time>
      </trkpt>
      <trkpt lat="37.9103110" lon="-6.1245520">
        <ele>505.0</ele>
        <time>2021-10-20T13:36:44Z</time>
      </trkpt>
      <trkpt lat="37.9101920" lon="-6.1245780">
        <ele>504.0</ele>
        <time>2021-10-20T13:36:48Z</time>
      </trkpt>
      <trkpt lat="37.9101020" lon="-6.1245940">
        <ele>503.6</ele>
        <time>2021-10-20T13:36:50Z</time>
      </trkpt>
      <trkpt lat="37.9099910" lon="-6.1246030">
        <ele>502.0</ele>
        <time>2021-10-20T13:36:53Z</time>
      </trkpt>
      <trkpt lat="37.9098340" lon="-6.1246010">
        <ele>500.6</ele>
        <time>2021-10-20T13:36:55Z</time>
      </trkpt>
      <trkpt lat="37.9097900" lon="-6.1245960">
        <ele>500.0</ele>
        <time>2021-10-20T13:36:56Z</time>
      </trkpt>
      <trkpt lat="37.9097680" lon="-6.1245840">
        <ele>499.0</ele>
        <time>2021-10-20T13:36:57Z</time>
      </trkpt>
      <trkpt lat="37.9097380" lon="-6.1245340">
        <ele>497.8</ele>
        <time>2021-10-20T13:36:59Z</time>
      </trkpt>
      <trkpt lat="37.9097340" lon="-6.1245010">
        <ele>497.2</ele>
        <time>2021-10-20T13:37:00Z</time>
      </trkpt>
      <trkpt lat="37.9097380" lon="-6.1244620">
        <ele>496.2</ele>
        <time>2021-10-20T13:37:01Z</time>
      </trkpt>
      <trkpt lat="37.9097480" lon="-6.1244120">
        <ele>495.0</ele>
        <time>2021-10-20T13:37:02Z</time>
      </trkpt>
      <trkpt lat="37.9098000" lon="-6.1242840">
        <ele>494.0</ele>
        <time>2021-10-20T13:37:05Z</time>
      </trkpt>
      <trkpt lat="37.9098360" lon="-6.1242110">
        <ele>492.8</ele>
        <time>2021-10-20T13:37:07Z</time>
      </trkpt>
      <trkpt lat="37.9098670" lon="-6.1240830">
        <ele>490.6</ele>
        <time>2021-10-20T13:37:10Z</time>
      </trkpt>
      <trkpt lat="37.9098690" lon="-6.1240260">
        <ele>489.0</ele>
        <time>2021-10-20T13:37:11Z</time>
      </trkpt>
      <trkpt lat="37.9098730" lon="-6.1239360">
        <ele>487.4</ele>
        <time>2021-10-20T13:37:13Z</time>
      </trkpt>
      <trkpt lat="37.9098780" lon="-6.1238320">
        <ele>486.0</ele>
        <time>2021-10-20T13:37:15Z</time>
      </trkpt>
      <trkpt lat="37.9098880" lon="-6.1237420">
        <ele>484.6</ele>
        <time>2021-10-20T13:37:17Z</time>
      </trkpt>
      <trkpt lat="37.9099110" lon="-6.1236310">
        <ele>483.2</ele>
        <time>2021-10-20T13:37:19Z</time>
      </trkpt>
      <trkpt lat="37.9099290" lon="-6.1235850">
        <ele>482.8</ele>
        <time>2021-10-20T13:37:20Z</time>
      </trkpt>
      <trkpt lat="37.9099520" lon="-6.1235430">
        <ele>481.8</ele>
        <time>2021-10-20T13:37:21Z</time>
      </trkpt>
      <trkpt lat="37.9099730" lon="-6.1235120">
        <ele>480.4</ele>
        <time>2021-10-20T13:37:22Z</time>
      </trkpt>
      <trkpt lat="37.9100440" lon="-6.1234420">
        <ele>478.4</ele>
        <time>2021-10-20T13:37:24Z</time>
      </trkpt>
      <trkpt lat="37.9100740" lon="-6.1234160">
        <ele>477.8</ele>
        <time>2021-10-20T13:37:25Z</time>
      </trkpt>
      <trkpt lat="37.9100920" lon="-6.1233890">
        <ele>476.4</ele>
        <time>2021-10-20T13:37:26Z</time>
      </trkpt>
      <trkpt lat="37.9101010" lon="-6.1233570">
        <ele>475.8</ele>
        <time>2021-10-20T13:37:27Z</time>
      </trkpt>
      <trkpt lat="37.9100890" lon="-6.1233270">
        <ele>475.0</ele>
        <time>2021-10-20T13:37:28Z</time>
      </trkpt>
      <trkpt lat="37.9100320" lon="-6.1233000">
        <ele>473.6</ele>
        <time>2021-10-20T13:37:30Z</time>
      </trkpt>
      <trkpt lat="37.9100070" lon="-6.1232940">
        <ele>472.4</ele>
        <time>2021-10-20T13:37:31Z</time>
      </trkpt>
      <trkpt lat="37.9099750" lon="-6.1232840">
        <ele>472.0</ele>
        <time>2021-10-20T13:37:32Z</time>
      </trkpt>
      <trkpt lat="37.9099330" lon="-6.1232710">
        <ele>471.4</ele>
        <time>2021-10-20T13:37:33Z</time>
      </trkpt>
      <trkpt lat="37.9098580" lon="-6.1232420">
        <ele>470.0</ele>
        <time>2021-10-20T13:37:35Z</time>
      </trkpt>
      <trkpt lat="37.9097870" lon="-6.1232320">
        <ele>468.2</ele>
        <time>2021-10-20T13:37:37Z</time>
      </trkpt>
      <trkpt lat="37.9096970" lon="-6.1232500">
        <ele>467.0</ele>
        <time>2021-10-20T13:37:39Z</time>
      </trkpt>
      <trkpt lat="37.9096180" lon="-6.1232810">
        <ele>465.2</ele>
        <time>2021-10-20T13:37:41Z</time>
      </trkpt>
      <trkpt lat="37.9095300" lon="-6.1233110">
        <ele>464.0</ele>
        <time>2021-10-20T13:37:43Z</time>
      </trkpt>
      <trkpt lat="37.9094880" lon="-6.1233040">
        <ele>463.2</ele>
        <time>2021-10-20T13:37:44Z</time>
      </trkpt>
      <trkpt lat="37.9094560" lon="-6.1232820">
        <ele>463.0</ele>
        <time>2021-10-20T13:37:45Z</time>
      </trkpt>
      <trkpt lat="37.9094290" lon="-6.1232530">
        <ele>461.8</ele>
        <time>2021-10-20T13:37:46Z</time>
      </trkpt>
      <trkpt lat="37.9093870" lon="-6.1232030">
        <ele>461.0</ele>
        <time>2021-10-20T13:37:47Z</time>
      </trkpt>
      <trkpt lat="37.9093520" lon="-6.1231610">
        <ele>460.0</ele>
        <time>2021-10-20T13:37:48Z</time>
      </trkpt>
      <trkpt lat="37.9092760" lon="-6.1231080">
        <ele>458.6</ele>
        <time>2021-10-20T13:37:50Z</time>
      </trkpt>
      <trkpt lat="37.9091760" lon="-6.1230970">
        <ele>457.4</ele>
        <time>2021-10-20T13:37:52Z</time>
      </trkpt>
      <trkpt lat="37.9090740" lon="-6.1231380">
        <ele>455.8</ele>
        <time>2021-10-20T13:37:55Z</time>
      </trkpt>
      <trkpt lat="37.9090180" lon="-6.1231750">
        <ele>454.8</ele>
        <time>2021-10-20T13:37:57Z</time>
      </trkpt>
      <trkpt lat="37.9089680" lon="-6.1231940">
        <ele>454.6</ele>
        <time>2021-10-20T13:37:59Z</time>
      </trkpt>
      <trkpt lat="37.9088370" lon="-6.1232440">
        <ele>454.4</ele>
        <time>2021-10-20T13:38:03Z</time>
      </trkpt>
      <trkpt lat="37.9086290" lon="-6.1232650">
        <ele>454.2</ele>
        <time>2021-10-20T13:38:10Z</time>
      </trkpt>
      <trkpt lat="37.9085430" lon="-6.1232890">
        <ele>453.6</ele>
        <time>2021-10-20T13:38:14Z</time>
      </trkpt>
      <trkpt lat="37.9085140" lon="-6.1232960">
        <ele>453.4</ele>
        <time>2021-10-20T13:38:15Z</time>
      </trkpt>
      <trkpt lat="37.9084190" lon="-6.1233070">
        <ele>452.4</ele>
        <time>2021-10-20T13:38:19Z</time>
      </trkpt>
      <trkpt lat="37.9084190" lon="-6.1233070">
        <ele>452.0</ele>
        <time>2021-10-20T13:38:21Z</time>
      </trkpt>
      <trkpt lat="37.9083570" lon="-6.1233140">
        <ele>451.4</ele>
        <time>2021-10-20T13:38:41Z</time>
      </trkpt>
      <trkpt lat="37.9082830" lon="-6.1233250">
        <ele>451.4</ele>
        <time>2021-10-20T13:38:43Z</time>
      </trkpt>
      <trkpt lat="37.9080420" lon="-6.1233330">
        <ele>451.0</ele>
        <time>2021-10-20T13:38:47Z</time>
      </trkpt>
      <trkpt lat="37.9079140" lon="-6.1233410">
        <ele>450.6</ele>
        <time>2021-10-20T13:38:49Z</time>
      </trkpt>
      <trkpt lat="37.9078700" lon="-6.1233620">
        <ele>449.8</ele>
        <time>2021-10-20T13:38:50Z</time>
      </trkpt>
      <trkpt lat="37.9078250" lon="-6.1233950">
        <ele>449.4</ele>
        <time>2021-10-20T13:38:51Z</time>
      </trkpt>
      <trkpt lat="37.9077490" lon="-6.1234780">
        <ele>448.0</ele>
        <time>2021-10-20T13:38:53Z</time>
      </trkpt>
      <trkpt lat="37.9076870" lon="-6.1235660">
        <ele>447.4</ele>
        <time>2021-10-20T13:38:55Z</time>
      </trkpt>
      <trkpt lat="37.9076450" lon="-6.1236250">
        <ele>446.6</ele>
        <time>2021-10-20T13:38:57Z</time>
      </trkpt>
      <trkpt lat="37.9075340" lon="-6.1237580">
        <ele>445.6</ele>
        <time>2021-10-20T13:39:00Z</time>
      </trkpt>
      <trkpt lat="37.9074150" lon="-6.1238800">
        <ele>443.8</ele>
        <time>2021-10-20T13:39:03Z</time>
      </trkpt>
      <trkpt lat="37.9073620" lon="-6.1239330">
        <ele>442.8</ele>
        <time>2021-10-20T13:39:04Z</time>
      </trkpt>
      <trkpt lat="37.9073120" lon="-6.1239640">
        <ele>442.6</ele>
        <time>2021-10-20T13:39:05Z</time>
      </trkpt>
      <trkpt lat="37.9072710" lon="-6.1239790">
        <ele>441.0</ele>
        <time>2021-10-20T13:39:06Z</time>
      </trkpt>
      <trkpt lat="37.9071700" lon="-6.1239730">
        <ele>439.2</ele>
        <time>2021-10-20T13:39:08Z</time>
      </trkpt>
      <trkpt lat="37.9070800" lon="-6.1239520">
        <ele>437.4</ele>
        <time>2021-10-20T13:39:10Z</time>
      </trkpt>
      <trkpt lat="37.9069870" lon="-6.1239440">
        <ele>436.2</ele>
        <time>2021-10-20T13:39:12Z</time>
      </trkpt>
      <trkpt lat="37.9068690" lon="-6.1239370">
        <ele>435.4</ele>
        <time>2021-10-20T13:39:14Z</time>
      </trkpt>
      <trkpt lat="37.9068120" lon="-6.1239400">
        <ele>434.8</ele>
        <time>2021-10-20T13:39:15Z</time>
      </trkpt>
      <trkpt lat="37.9065930" lon="-6.1240000">
        <ele>433.6</ele>
        <time>2021-10-20T13:39:19Z</time>
      </trkpt>
      <trkpt lat="37.9065530" lon="-6.1240090">
        <ele>433.0</ele>
        <time>2021-10-20T13:39:20Z</time>
      </trkpt>
      <trkpt lat="37.9065240" lon="-6.1240060">
        <ele>432.2</ele>
        <time>2021-10-20T13:39:21Z</time>
      </trkpt>
      <trkpt lat="37.9064960" lon="-6.1239910">
        <ele>431.6</ele>
        <time>2021-10-20T13:39:22Z</time>
      </trkpt>
      <trkpt lat="37.9064720" lon="-6.1239520">
        <ele>430.6</ele>
        <time>2021-10-20T13:39:23Z</time>
      </trkpt>
      <trkpt lat="37.9064610" lon="-6.1238490">
        <ele>429.2</ele>
        <time>2021-10-20T13:39:25Z</time>
      </trkpt>
      <trkpt lat="37.9064660" lon="-6.1236990">
        <ele>428.4</ele>
        <time>2021-10-20T13:39:27Z</time>
      </trkpt>
      <trkpt lat="37.9064740" lon="-6.1236470">
        <ele>427.8</ele>
        <time>2021-10-20T13:39:28Z</time>
      </trkpt>
      <trkpt lat="37.9064870" lon="-6.1235790">
        <ele>426.8</ele>
        <time>2021-10-20T13:39:30Z</time>
      </trkpt>
      <trkpt lat="37.9064910" lon="-6.1235480">
        <ele>426.6</ele>
        <time>2021-10-20T13:39:31Z</time>
      </trkpt>
      <trkpt lat="37.9064900" lon="-6.1235150">
        <ele>426.4</ele>
        <time>2021-10-20T13:39:32Z</time>
      </trkpt>
      <trkpt lat="37.9064490" lon="-6.1234650">
        <ele>426.2</ele>
        <time>2021-10-20T13:39:34Z</time>
      </trkpt>
      <trkpt lat="37.9063380" lon="-6.1234320">
        <ele>426.2</ele>
        <time>2021-10-20T13:39:38Z</time>
      </trkpt>
      <trkpt lat="37.9062210" lon="-6.1234000">
        <ele>427.2</ele>
        <time>2021-10-20T13:39:44Z</time>
      </trkpt>
      <trkpt lat="37.9061460" lon="-6.1234050">
        <ele>427.2</ele>
        <time>2021-10-20T13:39:45Z</time>
      </trkpt>
      <trkpt lat="37.9060860" lon="-6.1234470">
        <ele>427.4</ele>
        <time>2021-10-20T13:39:47Z</time>
      </trkpt>
      <trkpt lat="37.9060610" lon="-6.1234560">
        <ele>427.4</ele>
        <time>2021-10-20T13:39:49Z</time>
      </trkpt>
      <trkpt lat="37.9060430" lon="-6.1234510">
        <ele>427.4</ele>
        <time>2021-10-20T13:39:51Z</time>
      </trkpt>
      <trkpt lat="37.9060430" lon="-6.1234510">
        <ele>427.2</ele>
        <time>2021-10-20T13:39:53Z</time>
      </trkpt>
      <trkpt lat="37.9058330" lon="-6.1234700">
        <ele>428.0</ele>
        <time>2021-10-20T13:40:18Z</time>
      </trkpt>
      <trkpt lat="37.9058060" lon="-6.1234810">
        <ele>428.0</ele>
        <time>2021-10-20T13:40:19Z</time>
      </trkpt>
      <trkpt lat="37.9057220" lon="-6.1235060">
        <ele>427.8</ele>
        <time>2021-10-20T13:40:24Z</time>
      </trkpt>
      <trkpt lat="37.9057220" lon="-6.1235060">
        <ele>427.8</ele>
        <time>2021-10-20T13:40:25Z</time>
      </trkpt>
      <trkpt lat="37.9056920" lon="-6.1235800">
        <ele>428.4</ele>
        <time>2021-10-20T13:40:41Z</time>
      </trkpt>
      <trkpt lat="37.9056920" lon="-6.1235960">
        <ele>428.4</ele>
        <time>2021-10-20T13:40:42Z</time>
      </trkpt>
      <trkpt lat="37.9056920" lon="-6.1236110">
        <ele>428.4</ele>
        <time>2021-10-20T13:40:43Z</time>
      </trkpt>
      <trkpt lat="37.9056860" lon="-6.1236570">
        <ele>428.2</ele>
        <time>2021-10-20T13:40:46Z</time>
      </trkpt>
      <trkpt lat="37.9056900" lon="-6.1236910">
        <ele>427.8</ele>
        <time>2021-10-20T13:40:48Z</time>
      </trkpt>
      <trkpt lat="37.9056920" lon="-6.1237030">
        <ele>427.8</ele>
        <time>2021-10-20T13:40:49Z</time>
      </trkpt>
      <trkpt lat="37.9057000" lon="-6.1237120">
        <ele>427.4</ele>
        <time>2021-10-20T13:40:50Z</time>
      </trkpt>
      <trkpt lat="37.9057130" lon="-6.1237220">
        <ele>426.8</ele>
        <time>2021-10-20T13:40:52Z</time>
      </trkpt>
      <trkpt lat="37.9057340" lon="-6.1237190">
        <ele>426.6</ele>
        <time>2021-10-20T13:40:54Z</time>
      </trkpt>
      <trkpt lat="37.9057480" lon="-6.1237280">
        <ele>426.4</ele>
        <time>2021-10-20T13:40:55Z</time>
      </trkpt>
      <trkpt lat="37.9057520" lon="-6.1237380">
        <ele>426.4</ele>
        <time>2021-10-20T13:40:56Z</time>
      </trkpt>
      <trkpt lat="37.9057650" lon="-6.1237820">
        <ele>425.8</ele>
        <time>2021-10-20T13:40:59Z</time>
      </trkpt>
      <trkpt lat="37.9057680" lon="-6.1238200">
        <ele>425.4</ele>
        <time>2021-10-20T13:41:01Z</time>
      </trkpt>
      <trkpt lat="37.9057650" lon="-6.1238290">
        <ele>425.2</ele>
        <time>2021-10-20T13:41:02Z</time>
      </trkpt>
      <trkpt lat="37.9057650" lon="-6.1238290">
        <ele>424.8</ele>
        <time>2021-10-20T13:41:03Z</time>
      </trkpt>
      <trkpt lat="37.9057650" lon="-6.1238290">
        <ele>424.6</ele>
        <time>2021-10-20T13:41:04Z</time>
      </trkpt>
      <trkpt lat="37.9057160" lon="-6.1238830">
        <ele>423.6</ele>
        <time>2021-10-20T13:41:11Z</time>
      </trkpt>
      <trkpt lat="37.9057030" lon="-6.1239000">
        <ele>423.6</ele>
        <time>2021-10-20T13:41:12Z</time>
      </trkpt>
      <trkpt lat="37.9055830" lon="-6.1240030">
        <ele>423.4</ele>
        <time>2021-10-20T13:41:17Z</time>
      </trkpt>
      <trkpt lat="37.9054850" lon="-6.1240630">
        <ele>423.4</ele>
        <time>2021-10-20T13:41:20Z</time>
      </trkpt>
      <trkpt lat="37.9053630" lon="-6.1241140">
        <ele>423.2</ele>
        <time>2021-10-20T13:41:24Z</time>
      </trkpt>
      <trkpt lat="37.9052370" lon="-6.1241770">
        <ele>423.0</ele>
        <time>2021-10-20T13:41:28Z</time>
      </trkpt>
      <trkpt lat="37.9051650" lon="-6.1241880">
        <ele>423.0</ele>
        <time>2021-10-20T13:41:30Z</time>
      </trkpt>
      <trkpt lat="37.9050680" lon="-6.1241740">
        <ele>423.0</ele>
        <time>2021-10-20T13:41:32Z</time>
      </trkpt>
      <trkpt lat="37.9050170" lon="-6.1241820">
        <ele>422.8</ele>
        <time>2021-10-20T13:41:33Z</time>
      </trkpt>
      <trkpt lat="37.9049840" lon="-6.1242020">
        <ele>423.0</ele>
        <time>2021-10-20T13:41:34Z</time>
      </trkpt>
      <trkpt lat="37.9049490" lon="-6.1242320">
        <ele>422.6</ele>
        <time>2021-10-20T13:41:35Z</time>
      </trkpt>
      <trkpt lat="37.9048900" lon="-6.1242810">
        <ele>422.4</ele>
        <time>2021-10-20T13:41:37Z</time>
      </trkpt>
      <trkpt lat="37.9048610" lon="-6.1243030">
        <ele>422.2</ele>
        <time>2021-10-20T13:41:38Z</time>
      </trkpt>
      <trkpt lat="37.9047200" lon="-6.1243740">
        <ele>421.8</ele>
        <time>2021-10-20T13:41:43Z</time>
      </trkpt>
      <trkpt lat="37.9046200" lon="-6.1244160">
        <ele>421.8</ele>
        <time>2021-10-20T13:41:46Z</time>
      </trkpt>
      <trkpt lat="37.9045620" lon="-6.1244140">
        <ele>421.8</ele>
        <time>2021-10-20T13:41:48Z</time>
      </trkpt>
      <trkpt lat="37.9044310" lon="-6.1243030">
        <ele>421.4</ele>
        <time>2021-10-20T13:41:52Z</time>
      </trkpt>
      <trkpt lat="37.9043570" lon="-6.1242320">
        <ele>421.4</ele>
        <time>2021-10-20T13:41:54Z</time>
      </trkpt>
      <trkpt lat="37.9042690" lon="-6.1241870">
        <ele>421.2</ele>
        <time>2021-10-20T13:41:56Z</time>
      </trkpt>
      <trkpt lat="37.9042190" lon="-6.1241800">
        <ele>421.0</ele>
        <time>2021-10-20T13:41:57Z</time>
      </trkpt>
      <trkpt lat="37.9041750" lon="-6.1241820">
        <ele>421.0</ele>
        <time>2021-10-20T13:41:58Z</time>
      </trkpt>
      <trkpt lat="37.9040840" lon="-6.1242090">
        <ele>421.0</ele>
        <time>2021-10-20T13:42:01Z</time>
      </trkpt>
      <trkpt lat="37.9040010" lon="-6.1242360">
        <ele>421.4</ele>
        <time>2021-10-20T13:42:06Z</time>
      </trkpt>
      <trkpt lat="37.9038850" lon="-6.1242070">
        <ele>422.8</ele>
        <time>2021-10-20T13:42:11Z</time>
      </trkpt>
      <trkpt lat="37.9038470" lon="-6.1241920">
        <ele>423.0</ele>
        <time>2021-10-20T13:42:12Z</time>
      </trkpt>
      <trkpt lat="37.9037660" lon="-6.1241510">
        <ele>423.2</ele>
        <time>2021-10-20T13:42:14Z</time>
      </trkpt>
      <trkpt lat="37.9036320" lon="-6.1241050">
        <ele>423.0</ele>
        <time>2021-10-20T13:42:18Z</time>
      </trkpt>
      <trkpt lat="37.9035720" lon="-6.1241200">
        <ele>422.2</ele>
        <time>2021-10-20T13:42:22Z</time>
      </trkpt>
      <trkpt lat="37.9035720" lon="-6.1241200">
        <ele>422.0</ele>
        <time>2021-10-20T13:42:24Z</time>
      </trkpt>
      <trkpt lat="37.9025770" lon="-6.1227710">
        <ele>403.4</ele>
        <time>2021-10-20T13:43:50Z</time>
      </trkpt>
      <trkpt lat="37.9025770" lon="-6.1227710">
        <ele>403.4</ele>
        <time>2021-10-20T13:43:51Z</time>
      </trkpt>
      <trkpt lat="37.9024120" lon="-6.1224050">
        <ele>408.4</ele>
        <time>2021-10-20T13:44:27Z</time>
      </trkpt>
      <trkpt lat="37.9023430" lon="-6.1222280">
        <ele>408.4</ele>
        <time>2021-10-20T13:44:32Z</time>
      </trkpt>
      <trkpt lat="37.9023290" lon="-6.1220840">
        <ele>408.2</ele>
        <time>2021-10-20T13:44:35Z</time>
      </trkpt>
      <trkpt lat="37.9023140" lon="-6.1220010">
        <ele>408.0</ele>
        <time>2021-10-20T13:44:37Z</time>
      </trkpt>
      <trkpt lat="37.9022840" lon="-6.1218780">
        <ele>407.8</ele>
        <time>2021-10-20T13:44:40Z</time>
      </trkpt>
      <trkpt lat="37.9022680" lon="-6.1218250">
        <ele>407.8</ele>
        <time>2021-10-20T13:44:42Z</time>
      </trkpt>
      <trkpt lat="37.9022600" lon="-6.1218050">
        <ele>407.8</ele>
        <time>2021-10-20T13:44:43Z</time>
      </trkpt>
      <trkpt lat="37.9022490" lon="-6.1217840">
        <ele>407.8</ele>
        <time>2021-10-20T13:44:47Z</time>
      </trkpt>
      <trkpt lat="37.9022360" lon="-6.1217040">
        <ele>409.4</ele>
        <time>2021-10-20T13:45:29Z</time>
      </trkpt>
      <trkpt lat="37.9022260" lon="-6.1216820">
        <ele>409.4</ele>
        <time>2021-10-20T13:45:30Z</time>
      </trkpt>
      <trkpt lat="37.9021720" lon="-6.1215770">
        <ele>409.4</ele>
        <time>2021-10-20T13:45:35Z</time>
      </trkpt>
      <trkpt lat="37.9021580" lon="-6.1215610">
        <ele>409.4</ele>
        <time>2021-10-20T13:45:36Z</time>
      </trkpt>
      <trkpt lat="37.9021330" lon="-6.1215350">
        <ele>410.2</ele>
        <time>2021-10-20T13:45:39Z</time>
      </trkpt>
      <trkpt lat="37.9021220" lon="-6.1215280">
        <ele>410.2</ele>
        <time>2021-10-20T13:45:40Z</time>
      </trkpt>
      <trkpt lat="37.9021090" lon="-6.1215240">
        <ele>410.2</ele>
        <time>2021-10-20T13:45:41Z</time>
      </trkpt>
      <trkpt lat="37.9020930" lon="-6.1215160">
        <ele>410.6</ele>
        <time>2021-10-20T13:45:42Z</time>
      </trkpt>
      <trkpt lat="37.9020850" lon="-6.1215030">
        <ele>410.6</ele>
        <time>2021-10-20T13:45:43Z</time>
      </trkpt>
      <trkpt lat="37.9020350" lon="-6.1214480">
        <ele>411.2</ele>
        <time>2021-10-20T13:45:47Z</time>
      </trkpt>
      <trkpt lat="37.9020220" lon="-6.1214370">
        <ele>411.6</ele>
        <time>2021-10-20T13:45:48Z</time>
      </trkpt>
      <trkpt lat="37.9020120" lon="-6.1214240">
        <ele>411.6</ele>
        <time>2021-10-20T13:45:49Z</time>
      </trkpt>
      <trkpt lat="37.9019420" lon="-6.1212940">
        <ele>412.4</ele>
        <time>2021-10-20T13:45:56Z</time>
      </trkpt>
      <trkpt lat="37.9019350" lon="-6.1212820">
        <ele>412.6</ele>
        <time>2021-10-20T13:45:57Z</time>
      </trkpt>
      <trkpt lat="37.9019140" lon="-6.1212460">
        <ele>412.6</ele>
        <time>2021-10-20T13:45:59Z</time>
      </trkpt>
      <trkpt lat="37.9018400" lon="-6.1211270">
        <ele>413.2</ele>
        <time>2021-10-20T13:46:06Z</time>
      </trkpt>
      <trkpt lat="37.9017930" lon="-6.1210830">
        <ele>413.6</ele>
        <time>2021-10-20T13:46:10Z</time>
      </trkpt>
      <trkpt lat="37.9017810" lon="-6.1210740">
        <ele>413.8</ele>
        <time>2021-10-20T13:46:11Z</time>
      </trkpt>
      <trkpt lat="37.9017600" lon="-6.1210540">
        <ele>414.4</ele>
        <time>2021-10-20T13:46:13Z</time>
      </trkpt>
      <trkpt lat="37.9017320" lon="-6.1210100">
        <ele>415.0</ele>
        <time>2021-10-20T13:46:16Z</time>
      </trkpt>
      <trkpt lat="37.9016900" lon="-6.1209660">
        <ele>416.4</ele>
        <time>2021-10-20T13:46:21Z</time>
      </trkpt>
      <trkpt lat="37.9016690" lon="-6.1209460">
        <ele>416.8</ele>
        <time>2021-10-20T13:46:23Z</time>
      </trkpt>
      <trkpt lat="37.9016520" lon="-6.1209230">
        <ele>417.2</ele>
        <time>2021-10-20T13:46:25Z</time>
      </trkpt>
      <trkpt lat="37.9016450" lon="-6.1209040">
        <ele>417.4</ele>
        <time>2021-10-20T13:46:27Z</time>
      </trkpt>
      <trkpt lat="37.9016380" lon="-6.1208890">
        <ele>417.6</ele>
        <time>2021-10-20T13:46:28Z</time>
      </trkpt>
      <trkpt lat="37.9016270" lon="-6.1208690">
        <ele>417.8</ele>
        <time>2021-10-20T13:46:30Z</time>
      </trkpt>
      <trkpt lat="37.9016150" lon="-6.1208440">
        <ele>418.0</ele>
        <time>2021-10-20T13:46:32Z</time>
      </trkpt>
      <trkpt lat="37.9016000" lon="-6.1208040">
        <ele>418.4</ele>
        <time>2021-10-20T13:46:35Z</time>
      </trkpt>
      <trkpt lat="37.9015980" lon="-6.1207900">
        <ele>418.6</ele>
        <time>2021-10-20T13:46:36Z</time>
      </trkpt>
      <trkpt lat="37.9015950" lon="-6.1207740">
        <ele>418.8</ele>
        <time>2021-10-20T13:46:37Z</time>
      </trkpt>
      <trkpt lat="37.9015720" lon="-6.1207110">
        <ele>419.6</ele>
        <time>2021-10-20T13:46:41Z</time>
      </trkpt>
      <trkpt lat="37.9015590" lon="-6.1206660">
        <ele>420.0</ele>
        <time>2021-10-20T13:46:44Z</time>
      </trkpt>
      <trkpt lat="37.9015450" lon="-6.1206290">
        <ele>420.4</ele>
        <time>2021-10-20T13:46:46Z</time>
      </trkpt>
      <trkpt lat="37.9015340" lon="-6.1205970">
        <ele>420.8</ele>
        <time>2021-10-20T13:46:48Z</time>
      </trkpt>
      <trkpt lat="37.9015320" lon="-6.1205790">
        <ele>420.8</ele>
        <time>2021-10-20T13:46:49Z</time>
      </trkpt>
      <trkpt lat="37.9015180" lon="-6.1205010">
        <ele>421.0</ele>
        <time>2021-10-20T13:46:53Z</time>
      </trkpt>
      <trkpt lat="37.9015290" lon="-6.1203290">
        <ele>421.6</ele>
        <time>2021-10-20T13:47:00Z</time>
      </trkpt>
      <trkpt lat="37.9015550" lon="-6.1201750">
        <ele>421.8</ele>
        <time>2021-10-20T13:47:06Z</time>
      </trkpt>
      <trkpt lat="37.9015530" lon="-6.1201240">
        <ele>422.0</ele>
        <time>2021-10-20T13:47:08Z</time>
      </trkpt>
      <trkpt lat="37.9015170" lon="-6.1200320">
        <ele>422.4</ele>
        <time>2021-10-20T13:47:12Z</time>
      </trkpt>
      <trkpt lat="37.9014890" lon="-6.1200030">
        <ele>422.4</ele>
        <time>2021-10-20T13:47:14Z</time>
      </trkpt>
      <trkpt lat="37.9014740" lon="-6.1199890">
        <ele>422.6</ele>
        <time>2021-10-20T13:47:15Z</time>
      </trkpt>
      <trkpt lat="37.9014450" lon="-6.1199560">
        <ele>422.8</ele>
        <time>2021-10-20T13:47:17Z</time>
      </trkpt>
      <trkpt lat="37.9014110" lon="-6.1199160">
        <ele>423.0</ele>
        <time>2021-10-20T13:47:19Z</time>
      </trkpt>
      <trkpt lat="37.9013870" lon="-6.1198740">
        <ele>423.2</ele>
        <time>2021-10-20T13:47:21Z</time>
      </trkpt>
      <trkpt lat="37.9013630" lon="-6.1198360">
        <ele>423.6</ele>
        <time>2021-10-20T13:47:23Z</time>
      </trkpt>
      <trkpt lat="37.9013500" lon="-6.1198130">
        <ele>423.6</ele>
        <time>2021-10-20T13:47:24Z</time>
      </trkpt>
      <trkpt lat="37.9013390" lon="-6.1197950">
        <ele>423.8</ele>
        <time>2021-10-20T13:47:25Z</time>
      </trkpt>
      <trkpt lat="37.9013200" lon="-6.1197460">
        <ele>423.8</ele>
        <time>2021-10-20T13:47:27Z</time>
      </trkpt>
      <trkpt lat="37.9013080" lon="-6.1197160">
        <ele>424.0</ele>
        <time>2021-10-20T13:47:28Z</time>
      </trkpt>
      <trkpt lat="37.9012940" lon="-6.1196710">
        <ele>424.2</ele>
        <time>2021-10-20T13:47:30Z</time>
      </trkpt>
      <trkpt lat="37.9012710" lon="-6.1194750">
        <ele>425.0</ele>
        <time>2021-10-20T13:47:37Z</time>
      </trkpt>
      <trkpt lat="37.9012590" lon="-6.1194320">
        <ele>425.2</ele>
        <time>2021-10-20T13:47:39Z</time>
      </trkpt>
      <trkpt lat="37.9012310" lon="-6.1192900">
        <ele>425.8</ele>
        <time>2021-10-20T13:47:45Z</time>
      </trkpt>
      <trkpt lat="37.9012170" lon="-6.1192460">
        <ele>426.0</ele>
        <time>2021-10-20T13:47:47Z</time>
      </trkpt>
      <trkpt lat="37.9012120" lon="-6.1192310">
        <ele>426.0</ele>
        <time>2021-10-20T13:47:48Z</time>
      </trkpt>
      <trkpt lat="37.9011960" lon="-6.1191680">
        <ele>426.2</ele>
        <time>2021-10-20T13:47:51Z</time>
      </trkpt>
      <trkpt lat="37.9011930" lon="-6.1191230">
        <ele>426.6</ele>
        <time>2021-10-20T13:47:53Z</time>
      </trkpt>
      <trkpt lat="37.9011880" lon="-6.1191010">
        <ele>426.8</ele>
        <time>2021-10-20T13:47:54Z</time>
      </trkpt>
      <trkpt lat="37.9011730" lon="-6.1190580">
        <ele>427.0</ele>
        <time>2021-10-20T13:47:56Z</time>
      </trkpt>
      <trkpt lat="37.9011560" lon="-6.1190130">
        <ele>427.0</ele>
        <time>2021-10-20T13:47:58Z</time>
      </trkpt>
      <trkpt lat="37.9011480" lon="-6.1189900">
        <ele>427.2</ele>
        <time>2021-10-20T13:47:59Z</time>
      </trkpt>
      <trkpt lat="37.9011340" lon="-6.1189490">
        <ele>427.2</ele>
        <time>2021-10-20T13:48:01Z</time>
      </trkpt>
      <trkpt lat="37.9010620" lon="-6.1188190">
        <ele>428.0</ele>
        <time>2021-10-20T13:48:08Z</time>
      </trkpt>
      <trkpt lat="37.9010430" lon="-6.1187870">
        <ele>428.2</ele>
        <time>2021-10-20T13:48:10Z</time>
      </trkpt>
      <trkpt lat="37.9010270" lon="-6.1187420">
        <ele>428.6</ele>
        <time>2021-10-20T13:48:13Z</time>
      </trkpt>
      <trkpt lat="37.9010240" lon="-6.1187280">
        <ele>428.8</ele>
        <time>2021-10-20T13:48:14Z</time>
      </trkpt>
      <trkpt lat="37.9010210" lon="-6.1187120">
        <ele>428.8</ele>
        <time>2021-10-20T13:48:15Z</time>
      </trkpt>
      <trkpt lat="37.9010100" lon="-6.1186620">
        <ele>429.2</ele>
        <time>2021-10-20T13:48:19Z</time>
      </trkpt>
      <trkpt lat="37.9010050" lon="-6.1186200">
        <ele>430.0</ele>
        <time>2021-10-20T13:48:22Z</time>
      </trkpt>
      <trkpt lat="37.9010020" lon="-6.1186070">
        <ele>430.2</ele>
        <time>2021-10-20T13:48:23Z</time>
      </trkpt>
      <trkpt lat="37.9009990" lon="-6.1185930">
        <ele>430.2</ele>
        <time>2021-10-20T13:48:24Z</time>
      </trkpt>
      <trkpt lat="37.9009970" lon="-6.1185810">
        <ele>430.4</ele>
        <time>2021-10-20T13:48:25Z</time>
      </trkpt>
      <trkpt lat="37.9009920" lon="-6.1185140">
        <ele>431.4</ele>
        <time>2021-10-20T13:48:30Z</time>
      </trkpt>
      <trkpt lat="37.9009930" lon="-6.1185000">
        <ele>431.6</ele>
        <time>2021-10-20T13:48:31Z</time>
      </trkpt>
      <trkpt lat="37.9009950" lon="-6.1184720">
        <ele>431.8</ele>
        <time>2021-10-20T13:48:33Z</time>
      </trkpt>
      <trkpt lat="37.9009820" lon="-6.1184460">
        <ele>432.2</ele>
        <time>2021-10-20T13:48:35Z</time>
      </trkpt>
      <trkpt lat="37.9009720" lon="-6.1184350">
        <ele>432.4</ele>
        <time>2021-10-20T13:48:36Z</time>
      </trkpt>
      <trkpt lat="37.9009640" lon="-6.1184220">
        <ele>432.6</ele>
        <time>2021-10-20T13:48:37Z</time>
      </trkpt>
      <trkpt lat="37.9009420" lon="-6.1183860">
        <ele>432.8</ele>
        <time>2021-10-20T13:48:39Z</time>
      </trkpt>
      <trkpt lat="37.9009110" lon="-6.1183430">
        <ele>432.8</ele>
        <time>2021-10-20T13:48:41Z</time>
      </trkpt>
      <trkpt lat="37.9008710" lon="-6.1183030">
        <ele>433.0</ele>
        <time>2021-10-20T13:48:43Z</time>
      </trkpt>
      <trkpt lat="37.9008450" lon="-6.1182840">
        <ele>433.0</ele>
        <time>2021-10-20T13:48:44Z</time>
      </trkpt>
      <trkpt lat="37.9007090" lon="-6.1181920">
        <ele>432.8</ele>
        <time>2021-10-20T13:48:48Z</time>
      </trkpt>
      <trkpt lat="37.9006330" lon="-6.1181480">
        <ele>432.8</ele>
        <time>2021-10-20T13:48:50Z</time>
      </trkpt>
      <trkpt lat="37.9005280" lon="-6.1180890">
        <ele>432.4</ele>
        <time>2021-10-20T13:48:54Z</time>
      </trkpt>
      <trkpt lat="37.9003970" lon="-6.1180200">
        <ele>432.2</ele>
        <time>2021-10-20T13:48:59Z</time>
      </trkpt>
      <trkpt lat="37.9003800" lon="-6.1180280">
        <ele>432.2</ele>
        <time>2021-10-20T13:49:00Z</time>
      </trkpt>
      <trkpt lat="37.9003440" lon="-6.1181170">
        <ele>432.4</ele>
        <time>2021-10-20T13:49:04Z</time>
      </trkpt>
      <trkpt lat="37.9003380" lon="-6.1181600">
        <ele>432.4</ele>
        <time>2021-10-20T13:49:06Z</time>
      </trkpt>
      <trkpt lat="37.9003190" lon="-6.1182010">
        <ele>432.6</ele>
        <time>2021-10-20T13:49:08Z</time>
      </trkpt>
      <trkpt lat="37.9002950" lon="-6.1182230">
        <ele>433.0</ele>
        <time>2021-10-20T13:49:10Z</time>
      </trkpt>
      <trkpt lat="37.9002810" lon="-6.1182310">
        <ele>433.2</ele>
        <time>2021-10-20T13:49:11Z</time>
      </trkpt>
      <trkpt lat="37.9002670" lon="-6.1182330">
        <ele>433.6</ele>
        <time>2021-10-20T13:49:12Z</time>
      </trkpt>
      <trkpt lat="37.9002500" lon="-6.1182310">
        <ele>433.8</ele>
        <time>2021-10-20T13:49:13Z</time>
      </trkpt>
      <trkpt lat="37.9002220" lon="-6.1182310">
        <ele>434.4</ele>
        <time>2021-10-20T13:49:15Z</time>
      </trkpt>
      <trkpt lat="37.9002060" lon="-6.1182330">
        <ele>434.8</ele>
        <time>2021-10-20T13:49:16Z</time>
      </trkpt>
      <trkpt lat="37.9001230" lon="-6.1182410">
        <ele>436.0</ele>
        <time>2021-10-20T13:49:22Z</time>
      </trkpt>
      <trkpt lat="37.9000940" lon="-6.1182530">
        <ele>436.8</ele>
        <time>2021-10-20T13:49:25Z</time>
      </trkpt>
      <trkpt lat="37.9000810" lon="-6.1182550">
        <ele>437.0</ele>
        <time>2021-10-20T13:49:26Z</time>
      </trkpt>
      <trkpt lat="37.9000040" lon="-6.1182470">
        <ele>438.2</ele>
        <time>2021-10-20T13:49:32Z</time>
      </trkpt>
      <trkpt lat="37.8999820" lon="-6.1182370">
        <ele>438.4</ele>
        <time>2021-10-20T13:49:34Z</time>
      </trkpt>
      <trkpt lat="37.8999600" lon="-6.1182270">
        <ele>438.8</ele>
        <time>2021-10-20T13:49:36Z</time>
      </trkpt>
      <trkpt lat="37.8999320" lon="-6.1181940">
        <ele>439.2</ele>
        <time>2021-10-20T13:49:39Z</time>
      </trkpt>
      <trkpt lat="37.8999300" lon="-6.1181600">
        <ele>439.6</ele>
        <time>2021-10-20T13:49:41Z</time>
      </trkpt>
      <trkpt lat="37.8999400" lon="-6.1181050">
        <ele>440.4</ele>
        <time>2021-10-20T13:49:45Z</time>
      </trkpt>
      <trkpt lat="37.8999450" lon="-6.1180940">
        <ele>440.8</ele>
        <time>2021-10-20T13:49:46Z</time>
      </trkpt>
      <trkpt lat="37.8999770" lon="-6.1180610">
        <ele>441.4</ele>
        <time>2021-10-20T13:49:50Z</time>
      </trkpt>
      <trkpt lat="37.9000080" lon="-6.1180390">
        <ele>441.6</ele>
        <time>2021-10-20T13:49:53Z</time>
      </trkpt>
      <trkpt lat="37.9000360" lon="-6.1180200">
        <ele>442.6</ele>
        <time>2021-10-20T13:49:59Z</time>
      </trkpt>
      <trkpt lat="37.9000290" lon="-6.1179430">
        <ele>443.6</ele>
        <time>2021-10-20T13:50:11Z</time>
      </trkpt>
      <trkpt lat="37.9000230" lon="-6.1179230">
        <ele>443.6</ele>
        <time>2021-10-20T13:50:12Z</time>
      </trkpt>
      <trkpt lat="37.9000120" lon="-6.1178890">
        <ele>443.6</ele>
        <time>2021-10-20T13:50:16Z</time>
      </trkpt>
      <trkpt lat="37.9000120" lon="-6.1178890">
        <ele>443.6</ele>
        <time>2021-10-20T13:50:17Z</time>
      </trkpt>
      <trkpt lat="37.8999160" lon="-6.1177750">
        <ele>444.4</ele>
        <time>2021-10-20T13:51:15Z</time>
      </trkpt>
      <trkpt lat="37.8998800" lon="-6.1177470">
        <ele>444.6</ele>
        <time>2021-10-20T13:51:18Z</time>
      </trkpt>
      <trkpt lat="37.8998670" lon="-6.1177380">
        <ele>444.6</ele>
        <time>2021-10-20T13:51:19Z</time>
      </trkpt>
      <trkpt lat="37.8998430" lon="-6.1177190">
        <ele>444.8</ele>
        <time>2021-10-20T13:51:21Z</time>
      </trkpt>
      <trkpt lat="37.8997870" lon="-6.1176670">
        <ele>445.4</ele>
        <time>2021-10-20T13:51:26Z</time>
      </trkpt>
      <trkpt lat="37.8997220" lon="-6.1176000">
        <ele>446.0</ele>
        <time>2021-10-20T13:51:32Z</time>
      </trkpt>
      <trkpt lat="37.8996690" lon="-6.1175370">
        <ele>446.8</ele>
        <time>2021-10-20T13:51:37Z</time>
      </trkpt>
      <trkpt lat="37.8996380" lon="-6.1174790">
        <ele>447.2</ele>
        <time>2021-10-20T13:51:41Z</time>
      </trkpt>
      <trkpt lat="37.8996260" lon="-6.1174440">
        <ele>447.4</ele>
        <time>2021-10-20T13:51:43Z</time>
      </trkpt>
      <trkpt lat="37.8996190" lon="-6.1174100">
        <ele>447.6</ele>
        <time>2021-10-20T13:51:45Z</time>
      </trkpt>
      <trkpt lat="37.8996160" lon="-6.1173960">
        <ele>447.8</ele>
        <time>2021-10-20T13:51:46Z</time>
      </trkpt>
      <trkpt lat="37.8996090" lon="-6.1173480">
        <ele>448.2</ele>
        <time>2021-10-20T13:51:49Z</time>
      </trkpt>
      <trkpt lat="37.8996030" lon="-6.1173360">
        <ele>448.4</ele>
        <time>2021-10-20T13:51:50Z</time>
      </trkpt>
      <trkpt lat="37.8995930" lon="-6.1173080">
        <ele>449.0</ele>
        <time>2021-10-20T13:51:52Z</time>
      </trkpt>
      <trkpt lat="37.8995780" lon="-6.1172810">
        <ele>449.2</ele>
        <time>2021-10-20T13:51:54Z</time>
      </trkpt>
      <trkpt lat="37.8995560" lon="-6.1172550">
        <ele>449.4</ele>
        <time>2021-10-20T13:51:56Z</time>
      </trkpt>
      <trkpt lat="37.8995430" lon="-6.1172420">
        <ele>449.4</ele>
        <time>2021-10-20T13:51:57Z</time>
      </trkpt>
      <trkpt lat="37.8994670" lon="-6.1171730">
        <ele>449.6</ele>
        <time>2021-10-20T13:52:02Z</time>
      </trkpt>
      <trkpt lat="37.8993670" lon="-6.1170570">
        <ele>450.2</ele>
        <time>2021-10-20T13:52:10Z</time>
      </trkpt>
      <trkpt lat="37.8993560" lon="-6.1170410">
        <ele>450.4</ele>
        <time>2021-10-20T13:52:11Z</time>
      </trkpt>
      <trkpt lat="37.8993310" lon="-6.1170180">
        <ele>450.4</ele>
        <time>2021-10-20T13:52:13Z</time>
      </trkpt>
      <trkpt lat="37.8993220" lon="-6.1170030">
        <ele>450.4</ele>
        <time>2021-10-20T13:52:14Z</time>
      </trkpt>
      <trkpt lat="37.8993140" lon="-6.1169840">
        <ele>450.6</ele>
        <time>2021-10-20T13:52:15Z</time>
      </trkpt>
      <trkpt lat="37.8993020" lon="-6.1169190">
        <ele>450.6</ele>
        <time>2021-10-20T13:52:18Z</time>
      </trkpt>
      <trkpt lat="37.8993020" lon="-6.1168950">
        <ele>450.8</ele>
        <time>2021-10-20T13:52:19Z</time>
      </trkpt>
      <trkpt lat="37.8993010" lon="-6.1168290">
        <ele>451.2</ele>
        <time>2021-10-20T13:52:22Z</time>
      </trkpt>
      <trkpt lat="37.8992990" lon="-6.1168100">
        <ele>451.2</ele>
        <time>2021-10-20T13:52:23Z</time>
      </trkpt>
      <trkpt lat="37.8992900" lon="-6.1167320">
        <ele>451.8</ele>
        <time>2021-10-20T13:52:27Z</time>
      </trkpt>
      <trkpt lat="37.8992880" lon="-6.1167130">
        <ele>452.0</ele>
        <time>2021-10-20T13:52:28Z</time>
      </trkpt>
      <trkpt lat="37.8992900" lon="-6.1166980">
        <ele>452.0</ele>
        <time>2021-10-20T13:52:29Z</time>
      </trkpt>
      <trkpt lat="37.8992940" lon="-6.1166620">
        <ele>452.2</ele>
        <time>2021-10-20T13:52:31Z</time>
      </trkpt>
      <trkpt lat="37.8993080" lon="-6.1165740">
        <ele>452.8</ele>
        <time>2021-10-20T13:52:36Z</time>
      </trkpt>
      <trkpt lat="37.8993110" lon="-6.1165600">
        <ele>453.2</ele>
        <time>2021-10-20T13:52:37Z</time>
      </trkpt>
      <trkpt lat="37.8993300" lon="-6.1164840">
        <ele>454.2</ele>
        <time>2021-10-20T13:52:42Z</time>
      </trkpt>
      <trkpt lat="37.8993350" lon="-6.1164730">
        <ele>454.6</ele>
        <time>2021-10-20T13:52:43Z</time>
      </trkpt>
      <trkpt lat="37.8993470" lon="-6.1164440">
        <ele>455.2</ele>
        <time>2021-10-20T13:52:46Z</time>
      </trkpt>
      <trkpt lat="37.8993670" lon="-6.1163940">
        <ele>456.4</ele>
        <time>2021-10-20T13:52:50Z</time>
      </trkpt>
      <trkpt lat="37.8993710" lon="-6.1163840">
        <ele>456.4</ele>
        <time>2021-10-20T13:52:51Z</time>
      </trkpt>
      <trkpt lat="37.8993780" lon="-6.1163550">
        <ele>456.6</ele>
        <time>2021-10-20T13:52:53Z</time>
      </trkpt>
      <trkpt lat="37.8993790" lon="-6.1163230">
        <ele>456.8</ele>
        <time>2021-10-20T13:52:55Z</time>
      </trkpt>
      <trkpt lat="37.8993820" lon="-6.1162970">
        <ele>457.6</ele>
        <time>2021-10-20T13:52:57Z</time>
      </trkpt>
      <trkpt lat="37.8993860" lon="-6.1162620">
        <ele>458.0</ele>
        <time>2021-10-20T13:53:00Z</time>
      </trkpt>
      <trkpt lat="37.8993870" lon="-6.1162510">
        <ele>458.2</ele>
        <time>2021-10-20T13:53:01Z</time>
      </trkpt>
      <trkpt lat="37.8993870" lon="-6.1162400">
        <ele>458.4</ele>
        <time>2021-10-20T13:53:02Z</time>
      </trkpt>
      <trkpt lat="37.8993890" lon="-6.1162260">
        <ele>458.6</ele>
        <time>2021-10-20T13:53:03Z</time>
      </trkpt>
      <trkpt lat="37.8993870" lon="-6.1161860">
        <ele>459.2</ele>
        <time>2021-10-20T13:53:06Z</time>
      </trkpt>
      <trkpt lat="37.8993830" lon="-6.1161290">
        <ele>459.8</ele>
        <time>2021-10-20T13:53:10Z</time>
      </trkpt>
      <trkpt lat="37.8993800" lon="-6.1161150">
        <ele>460.0</ele>
        <time>2021-10-20T13:53:11Z</time>
      </trkpt>
      <trkpt lat="37.8993710" lon="-6.1160340">
        <ele>460.4</ele>
        <time>2021-10-20T13:53:17Z</time>
      </trkpt>
      <trkpt lat="37.8993650" lon="-6.1160000">
        <ele>460.6</ele>
        <time>2021-10-20T13:53:19Z</time>
      </trkpt>
      <trkpt lat="37.8993610" lon="-6.1159640">
        <ele>460.8</ele>
        <time>2021-10-20T13:53:21Z</time>
      </trkpt>
      <trkpt lat="37.8993560" lon="-6.1159230">
        <ele>461.0</ele>
        <time>2021-10-20T13:53:23Z</time>
      </trkpt>
      <trkpt lat="37.8993380" lon="-6.1158120">
        <ele>461.2</ele>
        <time>2021-10-20T13:53:29Z</time>
      </trkpt>
      <trkpt lat="37.8993350" lon="-6.1157660">
        <ele>461.4</ele>
        <time>2021-10-20T13:53:31Z</time>
      </trkpt>
      <trkpt lat="37.8993260" lon="-6.1156830">
        <ele>461.8</ele>
        <time>2021-10-20T13:53:36Z</time>
      </trkpt>
      <trkpt lat="37.8993300" lon="-6.1156490">
        <ele>461.8</ele>
        <time>2021-10-20T13:53:38Z</time>
      </trkpt>
      <trkpt lat="37.8993300" lon="-6.1156310">
        <ele>462.0</ele>
        <time>2021-10-20T13:53:39Z</time>
      </trkpt>
      <trkpt lat="37.8993210" lon="-6.1154760">
        <ele>462.8</ele>
        <time>2021-10-20T13:53:48Z</time>
      </trkpt>
      <trkpt lat="37.8993170" lon="-6.1154710">
        <ele>463.0</ele>
        <time>2021-10-20T13:53:51Z</time>
      </trkpt>
      <trkpt lat="37.8992740" lon="-6.1152850">
        <ele>464.8</ele>
        <time>2021-10-20T13:55:10Z</time>
      </trkpt>
      <trkpt lat="37.8993220" lon="-6.1151740">
        <ele>465.0</ele>
        <time>2021-10-20T13:55:16Z</time>
      </trkpt>
      <trkpt lat="37.8993660" lon="-6.1150440">
        <ele>465.2</ele>
        <time>2021-10-20T13:55:21Z</time>
      </trkpt>
      <trkpt lat="37.8993690" lon="-6.1150110">
        <ele>465.2</ele>
        <time>2021-10-20T13:55:22Z</time>
      </trkpt>
      <trkpt lat="37.8993680" lon="-6.1148230">
        <ele>465.2</ele>
        <time>2021-10-20T13:55:27Z</time>
      </trkpt>
      <trkpt lat="37.8993640" lon="-6.1146440">
        <ele>465.4</ele>
        <time>2021-10-20T13:55:32Z</time>
      </trkpt>
      <trkpt lat="37.8993720" lon="-6.1145180">
        <ele>465.6</ele>
        <time>2021-10-20T13:55:36Z</time>
      </trkpt>
      <trkpt lat="37.8993820" lon="-6.1144040">
        <ele>466.0</ele>
        <time>2021-10-20T13:55:40Z</time>
      </trkpt>
      <trkpt lat="37.8993920" lon="-6.1143200">
        <ele>466.4</ele>
        <time>2021-10-20T13:55:43Z</time>
      </trkpt>
      <trkpt lat="37.8993970" lon="-6.1142940">
        <ele>466.4</ele>
        <time>2021-10-20T13:55:44Z</time>
      </trkpt>
      <trkpt lat="37.8994090" lon="-6.1142120">
        <ele>466.8</ele>
        <time>2021-10-20T13:55:47Z</time>
      </trkpt>
      <trkpt lat="37.8994130" lon="-6.1141850">
        <ele>467.2</ele>
        <time>2021-10-20T13:55:48Z</time>
      </trkpt>
      <trkpt lat="37.8994270" lon="-6.1141000">
        <ele>467.4</ele>
        <time>2021-10-20T13:55:51Z</time>
      </trkpt>
      <trkpt lat="37.8994330" lon="-6.1140430">
        <ele>467.8</ele>
        <time>2021-10-20T13:55:53Z</time>
      </trkpt>
      <trkpt lat="37.8994520" lon="-6.1139460">
        <ele>468.2</ele>
        <time>2021-10-20T13:55:56Z</time>
      </trkpt>
      <trkpt lat="37.8994640" lon="-6.1138760">
        <ele>468.4</ele>
        <time>2021-10-20T13:55:58Z</time>
      </trkpt>
      <trkpt lat="37.8994640" lon="-6.1138380">
        <ele>468.6</ele>
        <time>2021-10-20T13:55:59Z</time>
      </trkpt>
      <trkpt lat="37.8994630" lon="-6.1137620">
        <ele>468.6</ele>
        <time>2021-10-20T13:56:01Z</time>
      </trkpt>
      <trkpt lat="37.8994580" lon="-6.1136850">
        <ele>468.6</ele>
        <time>2021-10-20T13:56:03Z</time>
      </trkpt>
      <trkpt lat="37.8994530" lon="-6.1136050">
        <ele>468.6</ele>
        <time>2021-10-20T13:56:05Z</time>
      </trkpt>
      <trkpt lat="37.8994520" lon="-6.1135660">
        <ele>468.6</ele>
        <time>2021-10-20T13:56:06Z</time>
      </trkpt>
      <trkpt lat="37.8994480" lon="-6.1135270">
        <ele>468.6</ele>
        <time>2021-10-20T13:56:07Z</time>
      </trkpt>
      <trkpt lat="37.8994340" lon="-6.1132920">
        <ele>469.0</ele>
        <time>2021-10-20T13:56:13Z</time>
      </trkpt>
      <trkpt lat="37.8994250" lon="-6.1132170">
        <ele>469.2</ele>
        <time>2021-10-20T13:56:15Z</time>
      </trkpt>
      <trkpt lat="37.8994210" lon="-6.1131830">
        <ele>469.2</ele>
        <time>2021-10-20T13:56:16Z</time>
      </trkpt>
      <trkpt lat="37.8994100" lon="-6.1130880">
        <ele>469.6</ele>
        <time>2021-10-20T13:56:19Z</time>
      </trkpt>
      <trkpt lat="37.8994050" lon="-6.1130570">
        <ele>469.6</ele>
        <time>2021-10-20T13:56:20Z</time>
      </trkpt>
      <trkpt lat="37.8993960" lon="-6.1129670">
        <ele>470.2</ele>
        <time>2021-10-20T13:56:23Z</time>
      </trkpt>
      <trkpt lat="37.8993960" lon="-6.1129410">
        <ele>470.2</ele>
        <time>2021-10-20T13:56:24Z</time>
      </trkpt>
      <trkpt lat="37.8994080" lon="-6.1128010">
        <ele>471.4</ele>
        <time>2021-10-20T13:56:30Z</time>
      </trkpt>
      <trkpt lat="37.8994100" lon="-6.1127590">
        <ele>471.8</ele>
        <time>2021-10-20T13:56:32Z</time>
      </trkpt>
      <trkpt lat="37.8994120" lon="-6.1126970">
        <ele>472.2</ele>
        <time>2021-10-20T13:56:35Z</time>
      </trkpt>
      <trkpt lat="37.8994050" lon="-6.1126600">
        <ele>472.6</ele>
        <time>2021-10-20T13:56:37Z</time>
      </trkpt>
      <trkpt lat="37.8994050" lon="-6.1125980">
        <ele>473.4</ele>
        <time>2021-10-20T13:56:40Z</time>
      </trkpt>
      <trkpt lat="37.8994030" lon="-6.1125760">
        <ele>473.8</ele>
        <time>2021-10-20T13:56:41Z</time>
      </trkpt>
      <trkpt lat="37.8993980" lon="-6.1124920">
        <ele>474.4</ele>
        <time>2021-10-20T13:56:45Z</time>
      </trkpt>
      <trkpt lat="37.8993940" lon="-6.1124260">
        <ele>474.8</ele>
        <time>2021-10-20T13:56:48Z</time>
      </trkpt>
      <trkpt lat="37.8993940" lon="-6.1124000">
        <ele>475.0</ele>
        <time>2021-10-20T13:56:49Z</time>
      </trkpt>
      <trkpt lat="37.8994150" lon="-6.1122360">
        <ele>475.8</ele>
        <time>2021-10-20T13:56:56Z</time>
      </trkpt>
      <trkpt lat="37.8994210" lon="-6.1122120">
        <ele>475.8</ele>
        <time>2021-10-20T13:56:57Z</time>
      </trkpt>
      <trkpt lat="37.8994260" lon="-6.1121870">
        <ele>476.0</ele>
        <time>2021-10-20T13:56:58Z</time>
      </trkpt>
      <trkpt lat="37.8994440" lon="-6.1120450">
        <ele>476.4</ele>
        <time>2021-10-20T13:57:04Z</time>
      </trkpt>
      <trkpt lat="37.8994480" lon="-6.1120050">
        <ele>476.6</ele>
        <time>2021-10-20T13:57:06Z</time>
      </trkpt>
      <trkpt lat="37.8994450" lon="-6.1119850">
        <ele>477.0</ele>
        <time>2021-10-20T13:57:07Z</time>
      </trkpt>
      <trkpt lat="37.8994330" lon="-6.1118340">
        <ele>477.8</ele>
        <time>2021-10-20T13:57:14Z</time>
      </trkpt>
      <trkpt lat="37.8994310" lon="-6.1118130">
        <ele>478.0</ele>
        <time>2021-10-20T13:57:15Z</time>
      </trkpt>
      <trkpt lat="37.8994300" lon="-6.1117690">
        <ele>478.2</ele>
        <time>2021-10-20T13:57:17Z</time>
      </trkpt>
      <trkpt lat="37.8994300" lon="-6.1116890">
        <ele>478.4</ele>
        <time>2021-10-20T13:57:21Z</time>
      </trkpt>
      <trkpt lat="37.8994350" lon="-6.1116530">
        <ele>478.6</ele>
        <time>2021-10-20T13:57:24Z</time>
      </trkpt>
      <trkpt lat="37.8994360" lon="-6.1116490">
        <ele>478.8</ele>
        <time>2021-10-20T13:57:26Z</time>
      </trkpt>
      <trkpt lat="37.8994540" lon="-6.1115820">
        <ele>478.2</ele>
        <time>2021-10-20T13:58:06Z</time>
      </trkpt>
      <trkpt lat="37.8994610" lon="-6.1115540">
        <ele>478.2</ele>
        <time>2021-10-20T13:58:07Z</time>
      </trkpt>
      <trkpt lat="37.8995010" lon="-6.1114090">
        <ele>478.2</ele>
        <time>2021-10-20T13:58:12Z</time>
      </trkpt>
      <trkpt lat="37.8995150" lon="-6.1113610">
        <ele>478.4</ele>
        <time>2021-10-20T13:58:14Z</time>
      </trkpt>
      <trkpt lat="37.8995310" lon="-6.1113010">
        <ele>478.8</ele>
        <time>2021-10-20T13:58:17Z</time>
      </trkpt>
      <trkpt lat="37.8995460" lon="-6.1112470">
        <ele>479.0</ele>
        <time>2021-10-20T13:58:20Z</time>
      </trkpt>
      <trkpt lat="37.8995620" lon="-6.1112010">
        <ele>479.0</ele>
        <time>2021-10-20T13:58:22Z</time>
      </trkpt>
      <trkpt lat="37.8996170" lon="-6.1110760">
        <ele>479.4</ele>
        <time>2021-10-20T13:58:27Z</time>
      </trkpt>
      <trkpt lat="37.8996270" lon="-6.1110570">
        <ele>479.4</ele>
        <time>2021-10-20T13:58:28Z</time>
      </trkpt>
      <trkpt lat="37.8996380" lon="-6.1110360">
        <ele>479.6</ele>
        <time>2021-10-20T13:58:29Z</time>
      </trkpt>
      <trkpt lat="37.8996580" lon="-6.1109550">
        <ele>480.0</ele>
        <time>2021-10-20T13:58:33Z</time>
      </trkpt>
      <trkpt lat="37.8996630" lon="-6.1109340">
        <ele>480.2</ele>
        <time>2021-10-20T13:58:34Z</time>
      </trkpt>
      <trkpt lat="37.8996700" lon="-6.1109170">
        <ele>480.2</ele>
        <time>2021-10-20T13:58:35Z</time>
      </trkpt>
      <trkpt lat="37.8996920" lon="-6.1108570">
        <ele>480.6</ele>
        <time>2021-10-20T13:58:38Z</time>
      </trkpt>
      <trkpt lat="37.8997030" lon="-6.1107920">
        <ele>481.2</ele>
        <time>2021-10-20T13:58:41Z</time>
      </trkpt>
      <trkpt lat="37.8996930" lon="-6.1107210">
        <ele>481.4</ele>
        <time>2021-10-20T13:58:44Z</time>
      </trkpt>
      <trkpt lat="37.8996760" lon="-6.1106240">
        <ele>482.2</ele>
        <time>2021-10-20T13:58:48Z</time>
      </trkpt>
      <trkpt lat="37.8996560" lon="-6.1105450">
        <ele>482.6</ele>
        <time>2021-10-20T13:58:51Z</time>
      </trkpt>
      <trkpt lat="37.8996240" lon="-6.1103970">
        <ele>483.2</ele>
        <time>2021-10-20T13:58:56Z</time>
      </trkpt>
      <trkpt lat="37.8996220" lon="-6.1103040">
        <ele>483.2</ele>
        <time>2021-10-20T13:58:59Z</time>
      </trkpt>
      <trkpt lat="37.8996220" lon="-6.1102810">
        <ele>483.4</ele>
        <time>2021-10-20T13:59:00Z</time>
      </trkpt>
      <trkpt lat="37.8996410" lon="-6.1101130">
        <ele>483.8</ele>
        <time>2021-10-20T13:59:05Z</time>
      </trkpt>
      <trkpt lat="37.8996480" lon="-6.1100810">
        <ele>484.0</ele>
        <time>2021-10-20T13:59:06Z</time>
      </trkpt>
      <trkpt lat="37.8996840" lon="-6.1099350">
        <ele>484.4</ele>
        <time>2021-10-20T13:59:10Z</time>
      </trkpt>
      <trkpt lat="37.8996900" lon="-6.1098990">
        <ele>484.4</ele>
        <time>2021-10-20T13:59:11Z</time>
      </trkpt>
      <trkpt lat="37.8996950" lon="-6.1098130">
        <ele>484.4</ele>
        <time>2021-10-20T13:59:13Z</time>
      </trkpt>
      <trkpt lat="37.8996900" lon="-6.1096510">
        <ele>484.8</ele>
        <time>2021-10-20T13:59:16Z</time>
      </trkpt>
      <trkpt lat="37.8996930" lon="-6.1096030">
        <ele>484.8</ele>
        <time>2021-10-20T13:59:17Z</time>
      </trkpt>
      <trkpt lat="37.8997160" lon="-6.1094180">
        <ele>485.0</ele>
        <time>2021-10-20T13:59:22Z</time>
      </trkpt>
      <trkpt lat="37.8997170" lon="-6.1093270">
        <ele>485.2</ele>
        <time>2021-10-20T13:59:25Z</time>
      </trkpt>
      <trkpt lat="37.8997160" lon="-6.1093030">
        <ele>485.4</ele>
        <time>2021-10-20T13:59:26Z</time>
      </trkpt>
      <trkpt lat="37.8997130" lon="-6.1092730">
        <ele>485.6</ele>
        <time>2021-10-20T13:59:27Z</time>
      </trkpt>
      <trkpt lat="37.8997120" lon="-6.1092440">
        <ele>485.6</ele>
        <time>2021-10-20T13:59:28Z</time>
      </trkpt>
      <trkpt lat="37.8997260" lon="-6.1091840">
        <ele>485.8</ele>
        <time>2021-10-20T13:59:30Z</time>
      </trkpt>
      <trkpt lat="37.8997460" lon="-6.1090800">
        <ele>486.2</ele>
        <time>2021-10-20T13:59:33Z</time>
      </trkpt>
      <trkpt lat="37.8997590" lon="-6.1090040">
        <ele>486.4</ele>
        <time>2021-10-20T13:59:35Z</time>
      </trkpt>
      <trkpt lat="37.8997780" lon="-6.1087770">
        <ele>486.6</ele>
        <time>2021-10-20T13:59:40Z</time>
      </trkpt>
      <trkpt lat="37.8997670" lon="-6.1086580">
        <ele>486.6</ele>
        <time>2021-10-20T13:59:43Z</time>
      </trkpt>
      <trkpt lat="37.8997640" lon="-6.1085930">
        <ele>486.8</ele>
        <time>2021-10-20T13:59:45Z</time>
      </trkpt>
      <trkpt lat="37.8997730" lon="-6.1083780">
        <ele>487.8</ele>
        <time>2021-10-20T13:59:51Z</time>
      </trkpt>
      <trkpt lat="37.8997750" lon="-6.1083500">
        <ele>487.8</ele>
        <time>2021-10-20T13:59:52Z</time>
      </trkpt>
      <trkpt lat="37.8997950" lon="-6.1082060">
        <ele>488.2</ele>
        <time>2021-10-20T13:59:56Z</time>
      </trkpt>
      <trkpt lat="37.8998130" lon="-6.1080860">
        <ele>488.4</ele>
        <time>2021-10-20T14:00:00Z</time>
      </trkpt>
      <trkpt lat="37.8998360" lon="-6.1079040">
        <ele>488.8</ele>
        <time>2021-10-20T14:00:05Z</time>
      </trkpt>
      <trkpt lat="37.8998470" lon="-6.1078250">
        <ele>488.8</ele>
        <time>2021-10-20T14:00:07Z</time>
      </trkpt>
      <trkpt lat="37.8998810" lon="-6.1075920">
        <ele>489.4</ele>
        <time>2021-10-20T14:00:14Z</time>
      </trkpt>
      <trkpt lat="37.8998990" lon="-6.1074000">
        <ele>489.6</ele>
        <time>2021-10-20T14:00:19Z</time>
      </trkpt>
      <trkpt lat="37.8998950" lon="-6.1072720">
        <ele>490.0</ele>
        <time>2021-10-20T14:00:23Z</time>
      </trkpt>
      <trkpt lat="37.8998690" lon="-6.1072090">
        <ele>490.0</ele>
        <time>2021-10-20T14:00:25Z</time>
      </trkpt>
      <trkpt lat="37.8997720" lon="-6.1069510">
        <ele>491.0</ele>
        <time>2021-10-20T14:00:34Z</time>
      </trkpt>
      <trkpt lat="37.8998000" lon="-6.1067450">
        <ele>492.2</ele>
        <time>2021-10-20T14:00:41Z</time>
      </trkpt>
      <trkpt lat="37.8998210" lon="-6.1066050">
        <ele>492.6</ele>
        <time>2021-10-20T14:00:45Z</time>
      </trkpt>
      <trkpt lat="37.8998320" lon="-6.1065340">
        <ele>492.6</ele>
        <time>2021-10-20T14:00:47Z</time>
      </trkpt>
      <trkpt lat="37.8998430" lon="-6.1064640">
        <ele>492.6</ele>
        <time>2021-10-20T14:00:49Z</time>
      </trkpt>
      <trkpt lat="37.8998440" lon="-6.1063580">
        <ele>492.8</ele>
        <time>2021-10-20T14:00:52Z</time>
      </trkpt>
      <trkpt lat="37.8998280" lon="-6.1062540">
        <ele>493.0</ele>
        <time>2021-10-20T14:00:55Z</time>
      </trkpt>
      <trkpt lat="37.8998180" lon="-6.1061460">
        <ele>493.2</ele>
        <time>2021-10-20T14:00:58Z</time>
      </trkpt>
      <trkpt lat="37.8998140" lon="-6.1061010">
        <ele>493.2</ele>
        <time>2021-10-20T14:00:59Z</time>
      </trkpt>
      <trkpt lat="37.8998010" lon="-6.1059360">
        <ele>493.2</ele>
        <time>2021-10-20T14:01:02Z</time>
      </trkpt>
      <trkpt lat="37.8997940" lon="-6.1058630">
        <ele>493.2</ele>
        <time>2021-10-20T14:01:03Z</time>
      </trkpt>
      <trkpt lat="37.8997560" lon="-6.1056910">
        <ele>493.0</ele>
        <time>2021-10-20T14:01:06Z</time>
      </trkpt>
      <trkpt lat="37.8997380" lon="-6.1056110">
        <ele>492.8</ele>
        <time>2021-10-20T14:01:08Z</time>
      </trkpt>
      <trkpt lat="37.8997190" lon="-6.1054480">
        <ele>492.8</ele>
        <time>2021-10-20T14:01:13Z</time>
      </trkpt>
      <trkpt lat="37.8996990" lon="-6.1052810">
        <ele>494.2</ele>
        <time>2021-10-20T14:01:18Z</time>
      </trkpt>
      <trkpt lat="37.8996940" lon="-6.1052060">
        <ele>494.8</ele>
        <time>2021-10-20T14:01:20Z</time>
      </trkpt>
      <trkpt lat="37.8996940" lon="-6.1051420">
        <ele>495.2</ele>
        <time>2021-10-20T14:01:22Z</time>
      </trkpt>
      <trkpt lat="37.8996970" lon="-6.1051050">
        <ele>495.4</ele>
        <time>2021-10-20T14:01:23Z</time>
      </trkpt>
      <trkpt lat="37.8996920" lon="-6.1049630">
        <ele>495.4</ele>
        <time>2021-10-20T14:01:26Z</time>
      </trkpt>
      <trkpt lat="37.8996940" lon="-6.1048210">
        <ele>495.4</ele>
        <time>2021-10-20T14:01:29Z</time>
      </trkpt>
      <trkpt lat="37.8997160" lon="-6.1046780">
        <ele>495.4</ele>
        <time>2021-10-20T14:01:32Z</time>
      </trkpt>
      <trkpt lat="37.8997600" lon="-6.1044980">
        <ele>495.2</ele>
        <time>2021-10-20T14:01:37Z</time>
      </trkpt>
      <trkpt lat="37.8997340" lon="-6.1043940">
        <ele>495.2</ele>
        <time>2021-10-20T14:01:40Z</time>
      </trkpt>
      <trkpt lat="37.8997110" lon="-6.1043270">
        <ele>495.6</ele>
        <time>2021-10-20T14:01:42Z</time>
      </trkpt>
      <trkpt lat="37.8996850" lon="-6.1042510">
        <ele>495.8</ele>
        <time>2021-10-20T14:01:44Z</time>
      </trkpt>
      <trkpt lat="37.8996780" lon="-6.1042200">
        <ele>496.0</ele>
        <time>2021-10-20T14:01:45Z</time>
      </trkpt>
      <trkpt lat="37.8996630" lon="-6.1041300">
        <ele>496.0</ele>
        <time>2021-10-20T14:01:47Z</time>
      </trkpt>
      <trkpt lat="37.8996570" lon="-6.1040800">
        <ele>496.0</ele>
        <time>2021-10-20T14:01:48Z</time>
      </trkpt>
      <trkpt lat="37.8996550" lon="-6.1040270">
        <ele>496.0</ele>
        <time>2021-10-20T14:01:49Z</time>
      </trkpt>
      <trkpt lat="37.8996520" lon="-6.1039250">
        <ele>496.2</ele>
        <time>2021-10-20T14:01:51Z</time>
      </trkpt>
      <trkpt lat="37.8996430" lon="-6.1038260">
        <ele>496.2</ele>
        <time>2021-10-20T14:01:53Z</time>
      </trkpt>
      <trkpt lat="37.8995740" lon="-6.1035820">
        <ele>496.2</ele>
        <time>2021-10-20T14:01:59Z</time>
      </trkpt>
      <trkpt lat="37.8995550" lon="-6.1035390">
        <ele>496.2</ele>
        <time>2021-10-20T14:02:00Z</time>
      </trkpt>
      <trkpt lat="37.8995320" lon="-6.1034930">
        <ele>496.2</ele>
        <time>2021-10-20T14:02:01Z</time>
      </trkpt>
      <trkpt lat="37.8994820" lon="-6.1033670">
        <ele>496.4</ele>
        <time>2021-10-20T14:02:03Z</time>
      </trkpt>
      <trkpt lat="37.8994410" lon="-6.1032550">
        <ele>496.2</ele>
        <time>2021-10-20T14:02:05Z</time>
      </trkpt>
      <trkpt lat="37.8994080" lon="-6.1031440">
        <ele>496.2</ele>
        <time>2021-10-20T14:02:07Z</time>
      </trkpt>
      <trkpt lat="37.8994000" lon="-6.1030550">
        <ele>496.2</ele>
        <time>2021-10-20T14:02:09Z</time>
      </trkpt>
      <trkpt lat="37.8994010" lon="-6.1028530">
        <ele>496.2</ele>
        <time>2021-10-20T14:02:15Z</time>
      </trkpt>
      <trkpt lat="37.8994050" lon="-6.1026850">
        <ele>496.8</ele>
        <time>2021-10-20T14:02:19Z</time>
      </trkpt>
      <trkpt lat="37.8994090" lon="-6.1026400">
        <ele>496.8</ele>
        <time>2021-10-20T14:02:20Z</time>
      </trkpt>
      <trkpt lat="37.8993860" lon="-6.1025110">
        <ele>497.2</ele>
        <time>2021-10-20T14:02:23Z</time>
      </trkpt>
      <trkpt lat="37.8993640" lon="-6.1024230">
        <ele>497.2</ele>
        <time>2021-10-20T14:02:25Z</time>
      </trkpt>
      <trkpt lat="37.8993330" lon="-6.1022100">
        <ele>497.2</ele>
        <time>2021-10-20T14:02:30Z</time>
      </trkpt>
      <trkpt lat="37.8993280" lon="-6.1021710">
        <ele>497.4</ele>
        <time>2021-10-20T14:02:31Z</time>
      </trkpt>
      <trkpt lat="37.8993240" lon="-6.1021310">
        <ele>497.4</ele>
        <time>2021-10-20T14:02:32Z</time>
      </trkpt>
      <trkpt lat="37.8993170" lon="-6.1018970">
        <ele>497.8</ele>
        <time>2021-10-20T14:02:37Z</time>
      </trkpt>
      <trkpt lat="37.8993330" lon="-6.1018070">
        <ele>497.8</ele>
        <time>2021-10-20T14:02:39Z</time>
      </trkpt>
      <trkpt lat="37.8993370" lon="-6.1017640">
        <ele>497.8</ele>
        <time>2021-10-20T14:02:40Z</time>
      </trkpt>
      <trkpt lat="37.8993100" lon="-6.1016290">
        <ele>497.8</ele>
        <time>2021-10-20T14:02:43Z</time>
      </trkpt>
      <trkpt lat="37.8992380" lon="-6.1014730">
        <ele>497.8</ele>
        <time>2021-10-20T14:02:47Z</time>
      </trkpt>
      <trkpt lat="37.8991790" lon="-6.1013610">
        <ele>498.0</ele>
        <time>2021-10-20T14:02:51Z</time>
      </trkpt>
      <trkpt lat="37.8991490" lon="-6.1012170">
        <ele>498.6</ele>
        <time>2021-10-20T14:02:56Z</time>
      </trkpt>
      <trkpt lat="37.8991430" lon="-6.1010080">
        <ele>499.6</ele>
        <time>2021-10-20T14:03:04Z</time>
      </trkpt>
      <trkpt lat="37.8991370" lon="-6.1009570">
        <ele>500.4</ele>
        <time>2021-10-20T14:03:06Z</time>
      </trkpt>
      <trkpt lat="37.8991150" lon="-6.1009140">
        <ele>500.8</ele>
        <time>2021-10-20T14:03:08Z</time>
      </trkpt>
      <trkpt lat="37.8990890" lon="-6.1008690">
        <ele>501.2</ele>
        <time>2021-10-20T14:03:10Z</time>
      </trkpt>
      <trkpt lat="37.8990250" lon="-6.1007470">
        <ele>501.8</ele>
        <time>2021-10-20T14:03:16Z</time>
      </trkpt>
      <trkpt lat="37.8990140" lon="-6.1006980">
        <ele>501.8</ele>
        <time>2021-10-20T14:03:18Z</time>
      </trkpt>
      <trkpt lat="37.8989990" lon="-6.1005830">
        <ele>502.2</ele>
        <time>2021-10-20T14:03:21Z</time>
      </trkpt>
      <trkpt lat="37.8990040" lon="-6.1005010">
        <ele>501.8</ele>
        <time>2021-10-20T14:03:23Z</time>
      </trkpt>
      <trkpt lat="37.8990030" lon="-6.1004280">
        <ele>501.8</ele>
        <time>2021-10-20T14:03:25Z</time>
      </trkpt>
      <trkpt lat="37.8989910" lon="-6.1003500">
        <ele>501.8</ele>
        <time>2021-10-20T14:03:27Z</time>
      </trkpt>
      <trkpt lat="37.8989710" lon="-6.1002780">
        <ele>501.8</ele>
        <time>2021-10-20T14:03:29Z</time>
      </trkpt>
      <trkpt lat="37.8989470" lon="-6.1001160">
        <ele>502.0</ele>
        <time>2021-10-20T14:03:34Z</time>
      </trkpt>
      <trkpt lat="37.8989500" lon="-6.1000610">
        <ele>502.0</ele>
        <time>2021-10-20T14:03:36Z</time>
      </trkpt>
      <trkpt lat="37.8989470" lon="-6.0999100">
        <ele>502.8</ele>
        <time>2021-10-20T14:03:41Z</time>
      </trkpt>
      <trkpt lat="37.8989500" lon="-6.0998350">
        <ele>503.2</ele>
        <time>2021-10-20T14:03:44Z</time>
      </trkpt>
      <trkpt lat="37.8989410" lon="-6.0997060">
        <ele>503.8</ele>
        <time>2021-10-20T14:03:49Z</time>
      </trkpt>
      <trkpt lat="37.8989320" lon="-6.0996410">
        <ele>504.2</ele>
        <time>2021-10-20T14:03:53Z</time>
      </trkpt>
      <trkpt lat="37.8989320" lon="-6.0996410">
        <ele>504.4</ele>
        <time>2021-10-20T14:03:55Z</time>
      </trkpt>
      <trkpt lat="37.8989140" lon="-6.0995220">
        <ele>506.4</ele>
        <time>2021-10-20T14:05:15Z</time>
      </trkpt>
      <trkpt lat="37.8989060" lon="-6.0994980">
        <ele>506.4</ele>
        <time>2021-10-20T14:05:16Z</time>
      </trkpt>
      <trkpt lat="37.8988860" lon="-6.0994500">
        <ele>506.6</ele>
        <time>2021-10-20T14:05:18Z</time>
      </trkpt>
      <trkpt lat="37.8988810" lon="-6.0994030">
        <ele>506.6</ele>
        <time>2021-10-20T14:05:20Z</time>
      </trkpt>
      <trkpt lat="37.8988710" lon="-6.0993050">
        <ele>506.8</ele>
        <time>2021-10-20T14:05:24Z</time>
      </trkpt>
      <trkpt lat="37.8987940" lon="-6.0990550">
        <ele>507.2</ele>
        <time>2021-10-20T14:05:32Z</time>
      </trkpt>
      <trkpt lat="37.8987350" lon="-6.0988190">
        <ele>507.4</ele>
        <time>2021-10-20T14:05:39Z</time>
      </trkpt>
      <trkpt lat="37.8987260" lon="-6.0987480">
        <ele>507.4</ele>
        <time>2021-10-20T14:05:41Z</time>
      </trkpt>
      <trkpt lat="37.8987210" lon="-6.0986780">
        <ele>507.2</ele>
        <time>2021-10-20T14:05:43Z</time>
      </trkpt>
      <trkpt lat="37.8987230" lon="-6.0984940">
        <ele>507.2</ele>
        <time>2021-10-20T14:05:49Z</time>
      </trkpt>
      <trkpt lat="37.8987280" lon="-6.0984350">
        <ele>507.4</ele>
        <time>2021-10-20T14:05:51Z</time>
      </trkpt>
      <trkpt lat="37.8987470" lon="-6.0983180">
        <ele>508.2</ele>
        <time>2021-10-20T14:05:55Z</time>
      </trkpt>
      <trkpt lat="37.8987530" lon="-6.0982860">
        <ele>508.4</ele>
        <time>2021-10-20T14:05:56Z</time>
      </trkpt>
      <trkpt lat="37.8987600" lon="-6.0982520">
        <ele>508.4</ele>
        <time>2021-10-20T14:05:57Z</time>
      </trkpt>
      <trkpt lat="37.8988000" lon="-6.0980290">
        <ele>508.8</ele>
        <time>2021-10-20T14:06:05Z</time>
      </trkpt>
      <trkpt lat="37.8988050" lon="-6.0979380">
        <ele>509.6</ele>
        <time>2021-10-20T14:06:09Z</time>
      </trkpt>
      <trkpt lat="37.8987990" lon="-6.0978610">
        <ele>510.0</ele>
        <time>2021-10-20T14:06:12Z</time>
      </trkpt>
      <trkpt lat="37.8987880" lon="-6.0978320">
        <ele>510.2</ele>
        <time>2021-10-20T14:06:13Z</time>
      </trkpt>
      <trkpt lat="37.8987390" lon="-6.0977390">
        <ele>510.8</ele>
        <time>2021-10-20T14:06:17Z</time>
      </trkpt>
      <trkpt lat="37.8986830" lon="-6.0976510">
        <ele>511.4</ele>
        <time>2021-10-20T14:06:21Z</time>
      </trkpt>
      <trkpt lat="37.8986480" lon="-6.0975830">
        <ele>511.6</ele>
        <time>2021-10-20T14:06:24Z</time>
      </trkpt>
      <trkpt lat="37.8985900" lon="-6.0974590">
        <ele>511.8</ele>
        <time>2021-10-20T14:06:28Z</time>
      </trkpt>
      <trkpt lat="37.8985560" lon="-6.0973810">
        <ele>511.8</ele>
        <time>2021-10-20T14:06:30Z</time>
      </trkpt>
      <trkpt lat="37.8985160" lon="-6.0972990">
        <ele>511.8</ele>
        <time>2021-10-20T14:06:32Z</time>
      </trkpt>
      <trkpt lat="37.8984680" lon="-6.0972140">
        <ele>511.6</ele>
        <time>2021-10-20T14:06:34Z</time>
      </trkpt>
      <trkpt lat="37.8984110" lon="-6.0971180">
        <ele>511.6</ele>
        <time>2021-10-20T14:06:37Z</time>
      </trkpt>
      <trkpt lat="37.8982870" lon="-6.0968820">
        <ele>511.2</ele>
        <time>2021-10-20T14:06:44Z</time>
      </trkpt>
      <trkpt lat="37.8982360" lon="-6.0967280">
        <ele>511.0</ele>
        <time>2021-10-20T14:06:48Z</time>
      </trkpt>
      <trkpt lat="37.8982210" lon="-6.0966790">
        <ele>511.0</ele>
        <time>2021-10-20T14:06:49Z</time>
      </trkpt>
      <trkpt lat="37.8981740" lon="-6.0964670">
        <ele>511.2</ele>
        <time>2021-10-20T14:06:54Z</time>
      </trkpt>
      <trkpt lat="37.8981530" lon="-6.0963410">
        <ele>511.4</ele>
        <time>2021-10-20T14:06:57Z</time>
      </trkpt>
      <trkpt lat="37.8981390" lon="-6.0961460">
        <ele>512.0</ele>
        <time>2021-10-20T14:07:02Z</time>
      </trkpt>
      <trkpt lat="37.8981330" lon="-6.0960720">
        <ele>512.0</ele>
        <time>2021-10-20T14:07:04Z</time>
      </trkpt>
      <trkpt lat="37.8981260" lon="-6.0959380">
        <ele>512.6</ele>
        <time>2021-10-20T14:07:08Z</time>
      </trkpt>
      <trkpt lat="37.8981220" lon="-6.0959050">
        <ele>512.8</ele>
        <time>2021-10-20T14:07:09Z</time>
      </trkpt>
      <trkpt lat="37.8981210" lon="-6.0958060">
        <ele>513.2</ele>
        <time>2021-10-20T14:07:12Z</time>
      </trkpt>
      <trkpt lat="37.8981180" lon="-6.0957770">
        <ele>513.4</ele>
        <time>2021-10-20T14:07:13Z</time>
      </trkpt>
      <trkpt lat="37.8981070" lon="-6.0956300">
        <ele>514.2</ele>
        <time>2021-10-20T14:07:18Z</time>
      </trkpt>
      <trkpt lat="37.8981010" lon="-6.0955130">
        <ele>515.0</ele>
        <time>2021-10-20T14:07:22Z</time>
      </trkpt>
      <trkpt lat="37.8981000" lon="-6.0954910">
        <ele>515.2</ele>
        <time>2021-10-20T14:07:23Z</time>
      </trkpt>
      <trkpt lat="37.8980890" lon="-6.0953340">
        <ele>516.0</ele>
        <time>2021-10-20T14:07:29Z</time>
      </trkpt>
      <trkpt lat="37.8980840" lon="-6.0953110">
        <ele>516.2</ele>
        <time>2021-10-20T14:07:30Z</time>
      </trkpt>
      <trkpt lat="37.8980820" lon="-6.0952060">
        <ele>517.0</ele>
        <time>2021-10-20T14:07:34Z</time>
      </trkpt>
      <trkpt lat="37.8980780" lon="-6.0951640">
        <ele>517.4</ele>
        <time>2021-10-20T14:07:36Z</time>
      </trkpt>
      <trkpt lat="37.8980620" lon="-6.0949650">
        <ele>518.6</ele>
        <time>2021-10-20T14:07:44Z</time>
      </trkpt>
      <trkpt lat="37.8980510" lon="-6.0949010">
        <ele>519.2</ele>
        <time>2021-10-20T14:07:47Z</time>
      </trkpt>
      <trkpt lat="37.8980400" lon="-6.0948400">
        <ele>519.6</ele>
        <time>2021-10-20T14:07:50Z</time>
      </trkpt>
      <trkpt lat="37.8980310" lon="-6.0947630">
        <ele>520.0</ele>
        <time>2021-10-20T14:07:54Z</time>
      </trkpt>
      <trkpt lat="37.8980120" lon="-6.0946810">
        <ele>520.6</ele>
        <time>2021-10-20T14:07:58Z</time>
      </trkpt>
      <trkpt lat="37.8980030" lon="-6.0946630">
        <ele>521.2</ele>
        <time>2021-10-20T14:08:01Z</time>
      </trkpt>
      <trkpt lat="37.8979970" lon="-6.0944550">
        <ele>521.4</ele>
        <time>2021-10-20T14:09:58Z</time>
      </trkpt>
      <trkpt lat="37.8979860" lon="-6.0944200">
        <ele>521.4</ele>
        <time>2021-10-20T14:09:59Z</time>
      </trkpt>
      <trkpt lat="37.8979720" lon="-6.0943790">
        <ele>521.4</ele>
        <time>2021-10-20T14:10:00Z</time>
      </trkpt>
      <trkpt lat="37.8979570" lon="-6.0940880">
        <ele>521.0</ele>
        <time>2021-10-20T14:10:05Z</time>
      </trkpt>
      <trkpt lat="37.8979490" lon="-6.0937820">
        <ele>519.8</ele>
        <time>2021-10-20T14:10:09Z</time>
      </trkpt>
      <trkpt lat="37.8979480" lon="-6.0936940">
        <ele>519.2</ele>
        <time>2021-10-20T14:10:10Z</time>
      </trkpt>
      <trkpt lat="37.8979460" lon="-6.0936000">
        <ele>519.2</ele>
        <time>2021-10-20T14:10:11Z</time>
      </trkpt>
      <trkpt lat="37.8979420" lon="-6.0935020">
        <ele>518.0</ele>
        <time>2021-10-20T14:10:12Z</time>
      </trkpt>
      <trkpt lat="37.8979320" lon="-6.0933000">
        <ele>516.8</ele>
        <time>2021-10-20T14:10:14Z</time>
      </trkpt>
      <trkpt lat="37.8979110" lon="-6.0930920">
        <ele>516.0</ele>
        <time>2021-10-20T14:10:16Z</time>
      </trkpt>
      <trkpt lat="37.8978920" lon="-6.0929890">
        <ele>515.6</ele>
        <time>2021-10-20T14:10:17Z</time>
      </trkpt>
      <trkpt lat="37.8978510" lon="-6.0927900">
        <ele>515.0</ele>
        <time>2021-10-20T14:10:19Z</time>
      </trkpt>
      <trkpt lat="37.8978370" lon="-6.0926880">
        <ele>514.6</ele>
        <time>2021-10-20T14:10:20Z</time>
      </trkpt>
      <trkpt lat="37.8978180" lon="-6.0925870">
        <ele>514.0</ele>
        <time>2021-10-20T14:10:21Z</time>
      </trkpt>
      <trkpt lat="37.8977420" lon="-6.0922960">
        <ele>512.6</ele>
        <time>2021-10-20T14:10:24Z</time>
      </trkpt>
      <trkpt lat="37.8977170" lon="-6.0922050">
        <ele>512.2</ele>
        <time>2021-10-20T14:10:25Z</time>
      </trkpt>
      <trkpt lat="37.8976590" lon="-6.0920330">
        <ele>511.6</ele>
        <time>2021-10-20T14:10:27Z</time>
      </trkpt>
      <trkpt lat="37.8976100" lon="-6.0918580">
        <ele>510.4</ele>
        <time>2021-10-20T14:10:29Z</time>
      </trkpt>
      <trkpt lat="37.8975500" lon="-6.0915830">
        <ele>509.8</ele>
        <time>2021-10-20T14:10:32Z</time>
      </trkpt>
      <trkpt lat="37.8975250" lon="-6.0914130">
        <ele>509.0</ele>
        <time>2021-10-20T14:10:34Z</time>
      </trkpt>
      <trkpt lat="37.8975020" lon="-6.0911080">
        <ele>507.8</ele>
        <time>2021-10-20T14:10:38Z</time>
      </trkpt>
      <trkpt lat="37.8974930" lon="-6.0909630">
        <ele>507.4</ele>
        <time>2021-10-20T14:10:40Z</time>
      </trkpt>
      <trkpt lat="37.8974900" lon="-6.0908920">
        <ele>506.8</ele>
        <time>2021-10-20T14:10:41Z</time>
      </trkpt>
      <trkpt lat="37.8974900" lon="-6.0908270">
        <ele>506.6</ele>
        <time>2021-10-20T14:10:42Z</time>
      </trkpt>
      <trkpt lat="37.8974910" lon="-6.0907010">
        <ele>506.0</ele>
        <time>2021-10-20T14:10:44Z</time>
      </trkpt>
      <trkpt lat="37.8974930" lon="-6.0906440">
        <ele>505.6</ele>
        <time>2021-10-20T14:10:45Z</time>
      </trkpt>
      <trkpt lat="37.8974890" lon="-6.0905950">
        <ele>505.4</ele>
        <time>2021-10-20T14:10:46Z</time>
      </trkpt>
      <trkpt lat="37.8974620" lon="-6.0905190">
        <ele>504.6</ele>
        <time>2021-10-20T14:10:48Z</time>
      </trkpt>
      <trkpt lat="37.8974400" lon="-6.0904810">
        <ele>504.6</ele>
        <time>2021-10-20T14:10:49Z</time>
      </trkpt>
      <trkpt lat="37.8973090" lon="-6.0902460">
        <ele>503.8</ele>
        <time>2021-10-20T14:10:55Z</time>
      </trkpt>
      <trkpt lat="37.8972920" lon="-6.0901940">
        <ele>503.8</ele>
        <time>2021-10-20T14:10:56Z</time>
      </trkpt>
      <trkpt lat="37.8972780" lon="-6.0901390">
        <ele>503.6</ele>
        <time>2021-10-20T14:10:57Z</time>
      </trkpt>
      <trkpt lat="37.8972600" lon="-6.0900210">
        <ele>503.4</ele>
        <time>2021-10-20T14:10:59Z</time>
      </trkpt>
      <trkpt lat="37.8972570" lon="-6.0896240">
        <ele>502.8</ele>
        <time>2021-10-20T14:11:05Z</time>
      </trkpt>
      <trkpt lat="37.8972570" lon="-6.0895560">
        <ele>502.8</ele>
        <time>2021-10-20T14:11:06Z</time>
      </trkpt>
      <trkpt lat="37.8972540" lon="-6.0894880">
        <ele>502.6</ele>
        <time>2021-10-20T14:11:07Z</time>
      </trkpt>
      <trkpt lat="37.8972330" lon="-6.0893490">
        <ele>502.6</ele>
        <time>2021-10-20T14:11:09Z</time>
      </trkpt>
      <trkpt lat="37.8971930" lon="-6.0892130">
        <ele>502.2</ele>
        <time>2021-10-20T14:11:11Z</time>
      </trkpt>
      <trkpt lat="37.8970680" lon="-6.0887980">
        <ele>501.4</ele>
        <time>2021-10-20T14:11:17Z</time>
      </trkpt>
      <trkpt lat="37.8970620" lon="-6.0887250">
        <ele>501.4</ele>
        <time>2021-10-20T14:11:18Z</time>
      </trkpt>
      <trkpt lat="37.8970560" lon="-6.0884230">
        <ele>500.4</ele>
        <time>2021-10-20T14:11:22Z</time>
      </trkpt>
      <trkpt lat="37.8970530" lon="-6.0882900">
        <ele>499.8</ele>
        <time>2021-10-20T14:11:24Z</time>
      </trkpt>
      <trkpt lat="37.8970470" lon="-6.0881700">
        <ele>499.6</ele>
        <time>2021-10-20T14:11:26Z</time>
      </trkpt>
      <trkpt lat="37.8970510" lon="-6.0881130">
        <ele>499.4</ele>
        <time>2021-10-20T14:11:27Z</time>
      </trkpt>
      <trkpt lat="37.8970550" lon="-6.0880540">
        <ele>499.2</ele>
        <time>2021-10-20T14:11:28Z</time>
      </trkpt>
      <trkpt lat="37.8970360" lon="-6.0876640">
        <ele>498.8</ele>
        <time>2021-10-20T14:11:34Z</time>
      </trkpt>
      <trkpt lat="37.8969640" lon="-6.0873590">
        <ele>498.4</ele>
        <time>2021-10-20T14:11:38Z</time>
      </trkpt>
      <trkpt lat="37.8969370" lon="-6.0872830">
        <ele>498.0</ele>
        <time>2021-10-20T14:11:39Z</time>
      </trkpt>
      <trkpt lat="37.8968810" lon="-6.0871250">
        <ele>497.0</ele>
        <time>2021-10-20T14:11:41Z</time>
      </trkpt>
      <trkpt lat="37.8968370" lon="-6.0869640">
        <ele>496.0</ele>
        <time>2021-10-20T14:11:43Z</time>
      </trkpt>
      <trkpt lat="37.8968100" lon="-6.0868940">
        <ele>495.4</ele>
        <time>2021-10-20T14:11:44Z</time>
      </trkpt>
      <trkpt lat="37.8967820" lon="-6.0868260">
        <ele>494.6</ele>
        <time>2021-10-20T14:11:45Z</time>
      </trkpt>
      <trkpt lat="37.8967610" lon="-6.0867550">
        <ele>494.2</ele>
        <time>2021-10-20T14:11:46Z</time>
      </trkpt>
      <trkpt lat="37.8967360" lon="-6.0866290">
        <ele>493.6</ele>
        <time>2021-10-20T14:11:48Z</time>
      </trkpt>
      <trkpt lat="37.8967110" lon="-6.0865470">
        <ele>493.6</ele>
        <time>2021-10-20T14:11:49Z</time>
      </trkpt>
      <trkpt lat="37.8966540" lon="-6.0864220">
        <ele>493.2</ele>
        <time>2021-10-20T14:11:51Z</time>
      </trkpt>
      <trkpt lat="37.8965130" lon="-6.0860370">
        <ele>492.2</ele>
        <time>2021-10-20T14:11:57Z</time>
      </trkpt>
      <trkpt lat="37.8964920" lon="-6.0859680">
        <ele>492.0</ele>
        <time>2021-10-20T14:11:58Z</time>
      </trkpt>
      <trkpt lat="37.8964230" lon="-6.0856920">
        <ele>491.6</ele>
        <time>2021-10-20T14:12:02Z</time>
      </trkpt>
      <trkpt lat="37.8964140" lon="-6.0856200">
        <ele>491.4</ele>
        <time>2021-10-20T14:12:03Z</time>
      </trkpt>
      <trkpt lat="37.8963670" lon="-6.0854240">
        <ele>491.0</ele>
        <time>2021-10-20T14:12:06Z</time>
      </trkpt>
      <trkpt lat="37.8963270" lon="-6.0852640">
        <ele>490.8</ele>
        <time>2021-10-20T14:12:09Z</time>
      </trkpt>
      <trkpt lat="37.8962720" lon="-6.0850050">
        <ele>491.0</ele>
        <time>2021-10-20T14:12:15Z</time>
      </trkpt>
      <trkpt lat="37.8962180" lon="-6.0847000">
        <ele>490.8</ele>
        <time>2021-10-20T14:12:20Z</time>
      </trkpt>
      <trkpt lat="37.8962080" lon="-6.0846300">
        <ele>490.8</ele>
        <time>2021-10-20T14:12:21Z</time>
      </trkpt>
      <trkpt lat="37.8961540" lon="-6.0845130">
        <ele>490.6</ele>
        <time>2021-10-20T14:12:23Z</time>
      </trkpt>
      <trkpt lat="37.8960770" lon="-6.0844330">
        <ele>490.2</ele>
        <time>2021-10-20T14:12:25Z</time>
      </trkpt>
      <trkpt lat="37.8960210" lon="-6.0843480">
        <ele>490.0</ele>
        <time>2021-10-20T14:12:27Z</time>
      </trkpt>
      <trkpt lat="37.8959980" lon="-6.0843070">
        <ele>490.0</ele>
        <time>2021-10-20T14:12:28Z</time>
      </trkpt>
      <trkpt lat="37.8958820" lon="-6.0840500">
        <ele>489.8</ele>
        <time>2021-10-20T14:12:34Z</time>
      </trkpt>
      <trkpt lat="37.8958590" lon="-6.0840110">
        <ele>489.8</ele>
        <time>2021-10-20T14:12:35Z</time>
      </trkpt>
      <trkpt lat="37.8957090" lon="-6.0836740">
        <ele>489.8</ele>
        <time>2021-10-20T14:12:43Z</time>
      </trkpt>
      <trkpt lat="37.8955830" lon="-6.0834130">
        <ele>489.8</ele>
        <time>2021-10-20T14:12:49Z</time>
      </trkpt>
      <trkpt lat="37.8955600" lon="-6.0833490">
        <ele>489.8</ele>
        <time>2021-10-20T14:12:50Z</time>
      </trkpt>
      <trkpt lat="37.8954910" lon="-6.0831580">
        <ele>489.6</ele>
        <time>2021-10-20T14:12:53Z</time>
      </trkpt>
      <trkpt lat="37.8954230" lon="-6.0830840">
        <ele>489.4</ele>
        <time>2021-10-20T14:12:55Z</time>
      </trkpt>
      <trkpt lat="37.8953900" lon="-6.0830720">
        <ele>489.2</ele>
        <time>2021-10-20T14:12:56Z</time>
      </trkpt>
      <trkpt lat="37.8953380" lon="-6.0830580">
        <ele>489.0</ele>
        <time>2021-10-20T14:12:57Z</time>
      </trkpt>
      <trkpt lat="37.8952970" lon="-6.0830400">
        <ele>488.6</ele>
        <time>2021-10-20T14:12:58Z</time>
      </trkpt>
      <trkpt lat="37.8951760" lon="-6.0829810">
        <ele>487.4</ele>
        <time>2021-10-20T14:13:01Z</time>
      </trkpt>
      <trkpt lat="37.8951380" lon="-6.0829550">
        <ele>487.2</ele>
        <time>2021-10-20T14:13:02Z</time>
      </trkpt>
      <trkpt lat="37.8949860" lon="-6.0828370">
        <ele>486.8</ele>
        <time>2021-10-20T14:13:06Z</time>
      </trkpt>
      <trkpt lat="37.8948920" lon="-6.0827430">
        <ele>486.6</ele>
        <time>2021-10-20T14:13:08Z</time>
      </trkpt>
      <trkpt lat="37.8948000" lon="-6.0826520">
        <ele>486.4</ele>
        <time>2021-10-20T14:13:10Z</time>
      </trkpt>
      <trkpt lat="37.8946840" lon="-6.0824820">
        <ele>486.0</ele>
        <time>2021-10-20T14:13:13Z</time>
      </trkpt>
      <trkpt lat="37.8946080" lon="-6.0822760">
        <ele>485.2</ele>
        <time>2021-10-20T14:13:16Z</time>
      </trkpt>
      <trkpt lat="37.8945760" lon="-6.0821610">
        <ele>484.8</ele>
        <time>2021-10-20T14:13:18Z</time>
      </trkpt>
      <trkpt lat="37.8945330" lon="-6.0819940">
        <ele>484.0</ele>
        <time>2021-10-20T14:13:21Z</time>
      </trkpt>
      <trkpt lat="37.8944700" lon="-6.0817110">
        <ele>483.6</ele>
        <time>2021-10-20T14:13:25Z</time>
      </trkpt>
      <trkpt lat="37.8944300" lon="-6.0815570">
        <ele>483.4</ele>
        <time>2021-10-20T14:13:27Z</time>
      </trkpt>
      <trkpt lat="37.8943990" lon="-6.0814860">
        <ele>482.8</ele>
        <time>2021-10-20T14:13:28Z</time>
      </trkpt>
      <trkpt lat="37.8943690" lon="-6.0814220">
        <ele>482.6</ele>
        <time>2021-10-20T14:13:29Z</time>
      </trkpt>
      <trkpt lat="37.8943390" lon="-6.0813610">
        <ele>481.8</ele>
        <time>2021-10-20T14:13:30Z</time>
      </trkpt>
      <trkpt lat="37.8943040" lon="-6.0813070">
        <ele>481.6</ele>
        <time>2021-10-20T14:13:31Z</time>
      </trkpt>
      <trkpt lat="37.8941840" lon="-6.0811550">
        <ele>481.0</ele>
        <time>2021-10-20T14:13:34Z</time>
      </trkpt>
      <trkpt lat="37.8940850" lon="-6.0810400">
        <ele>480.6</ele>
        <time>2021-10-20T14:13:36Z</time>
      </trkpt>
      <trkpt lat="37.8940360" lon="-6.0809810">
        <ele>480.4</ele>
        <time>2021-10-20T14:13:37Z</time>
      </trkpt>
      <trkpt lat="37.8939100" lon="-6.0807840">
        <ele>480.0</ele>
        <time>2021-10-20T14:13:40Z</time>
      </trkpt>
      <trkpt lat="37.8938240" lon="-6.0805950">
        <ele>479.4</ele>
        <time>2021-10-20T14:13:43Z</time>
      </trkpt>
      <trkpt lat="37.8937830" lon="-6.0804840">
        <ele>478.8</ele>
        <time>2021-10-20T14:13:45Z</time>
      </trkpt>
      <trkpt lat="37.8937060" lon="-6.0803490">
        <ele>478.4</ele>
        <time>2021-10-20T14:13:49Z</time>
      </trkpt>
      <trkpt lat="37.8935920" lon="-6.0802630">
        <ele>478.8</ele>
        <time>2021-10-20T14:13:55Z</time>
      </trkpt>
      <trkpt lat="37.8935520" lon="-6.0802110">
        <ele>480.0</ele>
        <time>2021-10-20T14:14:00Z</time>
      </trkpt>
      <trkpt lat="37.8936150" lon="-6.0802770">
        <ele>480.4</ele>
        <time>2021-10-20T14:14:12Z</time>
      </trkpt>
      <trkpt lat="37.8936690" lon="-6.0803330">
        <ele>480.4</ele>
        <time>2021-10-20T14:14:14Z</time>
      </trkpt>
      <trkpt lat="37.8937410" lon="-6.0804070">
        <ele>480.2</ele>
        <time>2021-10-20T14:14:16Z</time>
      </trkpt>
      <trkpt lat="37.8937980" lon="-6.0805100">
        <ele>479.8</ele>
        <time>2021-10-20T14:14:18Z</time>
      </trkpt>
      <trkpt lat="37.8938400" lon="-6.0806270">
        <ele>479.4</ele>
        <time>2021-10-20T14:14:20Z</time>
      </trkpt>
      <trkpt lat="37.8938650" lon="-6.0806830">
        <ele>479.0</ele>
        <time>2021-10-20T14:14:21Z</time>
      </trkpt>
      <trkpt lat="37.8939150" lon="-6.0807900">
        <ele>478.0</ele>
        <time>2021-10-20T14:14:23Z</time>
      </trkpt>
      <trkpt lat="37.8939380" lon="-6.0808400">
        <ele>477.8</ele>
        <time>2021-10-20T14:14:24Z</time>
      </trkpt>
      <trkpt lat="37.8939700" lon="-6.0808890">
        <ele>477.6</ele>
        <time>2021-10-20T14:14:25Z</time>
      </trkpt>
      <trkpt lat="37.8940410" lon="-6.0809830">
        <ele>477.6</ele>
        <time>2021-10-20T14:14:28Z</time>
      </trkpt>
      <trkpt lat="37.8941970" lon="-6.0811710">
        <ele>478.0</ele>
        <time>2021-10-20T14:14:35Z</time>
      </trkpt>
      <trkpt lat="37.8943190" lon="-6.0813280">
        <ele>479.0</ele>
        <time>2021-10-20T14:14:41Z</time>
      </trkpt>
      <trkpt lat="37.8943520" lon="-6.0813820">
        <ele>479.6</ele>
        <time>2021-10-20T14:14:43Z</time>
      </trkpt>
      <trkpt lat="37.8943920" lon="-6.0814910">
        <ele>480.0</ele>
        <time>2021-10-20T14:14:46Z</time>
      </trkpt>
      <trkpt lat="37.8944320" lon="-6.0815980">
        <ele>480.2</ele>
        <time>2021-10-20T14:14:49Z</time>
      </trkpt>
      <trkpt lat="37.8944510" lon="-6.0817140">
        <ele>480.6</ele>
        <time>2021-10-20T14:14:53Z</time>
      </trkpt>
      <trkpt lat="37.8944380" lon="-6.0817290">
        <ele>480.6</ele>
        <time>2021-10-20T14:14:54Z</time>
      </trkpt>
      <trkpt lat="37.8944200" lon="-6.0817390">
        <ele>480.6</ele>
        <time>2021-10-20T14:14:55Z</time>
      </trkpt>
      <trkpt lat="37.8943800" lon="-6.0817170">
        <ele>480.6</ele>
        <time>2021-10-20T14:14:57Z</time>
      </trkpt>
      <trkpt lat="37.8943630" lon="-6.0816890">
        <ele>480.6</ele>
        <time>2021-10-20T14:14:58Z</time>
      </trkpt>
      <trkpt lat="37.8943120" lon="-6.0815520">
        <ele>480.0</ele>
        <time>2021-10-20T14:15:03Z</time>
      </trkpt>
      <trkpt lat="37.8942170" lon="-6.0815050">
        <ele>479.2</ele>
        <time>2021-10-20T14:15:08Z</time>
      </trkpt>
      <trkpt lat="37.8941670" lon="-6.0815060">
        <ele>479.2</ele>
        <time>2021-10-20T14:15:12Z</time>
      </trkpt>
      <trkpt lat="37.8941670" lon="-6.0815060">
        <ele>479.2</ele>
        <time>2021-10-20T14:15:13Z</time>
      </trkpt>
      <trkpt lat="37.8941670" lon="-6.0815060">
        <ele>479.2</ele>
        <time>2021-10-20T14:15:14Z</time>
      </trkpt>
      <trkpt lat="37.8941020" lon="-6.0814930">
        <ele>479.4</ele>
        <time>2021-10-20T14:15:49Z</time>
      </trkpt>
      <trkpt lat="37.8940860" lon="-6.0814690">
        <ele>479.4</ele>
        <time>2021-10-20T14:15:50Z</time>
      </trkpt>
      <trkpt lat="37.8940690" lon="-6.0814390">
        <ele>479.4</ele>
        <time>2021-10-20T14:15:51Z</time>
      </trkpt>
      <trkpt lat="37.8940100" lon="-6.0813610">
        <ele>479.6</ele>
        <time>2021-10-20T14:15:54Z</time>
      </trkpt>
      <trkpt lat="37.8939540" lon="-6.0812650">
        <ele>479.6</ele>
        <time>2021-10-20T14:15:57Z</time>
      </trkpt>
      <trkpt lat="37.8939410" lon="-6.0812400">
        <ele>479.6</ele>
        <time>2021-10-20T14:15:58Z</time>
      </trkpt>
      <trkpt lat="37.8938930" lon="-6.0811400">
        <ele>479.8</ele>
        <time>2021-10-20T14:16:01Z</time>
      </trkpt>
      <trkpt lat="37.8938630" lon="-6.0810860">
        <ele>479.8</ele>
        <time>2021-10-20T14:16:03Z</time>
      </trkpt>
      <trkpt lat="37.8937890" lon="-6.0809640">
        <ele>479.8</ele>
        <time>2021-10-20T14:16:06Z</time>
      </trkpt>
      <trkpt lat="37.8937210" lon="-6.0809030">
        <ele>479.8</ele>
        <time>2021-10-20T14:16:08Z</time>
      </trkpt>
      <trkpt lat="37.8936400" lon="-6.0808490">
        <ele>479.4</ele>
        <time>2021-10-20T14:16:10Z</time>
      </trkpt>
      <trkpt lat="37.8935430" lon="-6.0807910">
        <ele>479.0</ele>
        <time>2021-10-20T14:16:14Z</time>
      </trkpt>
      <trkpt lat="37.8935200" lon="-6.0807800">
        <ele>478.8</ele>
        <time>2021-10-20T14:16:15Z</time>
      </trkpt>
      <trkpt lat="37.8933250" lon="-6.0806940">
        <ele>479.4</ele>
        <time>2021-10-20T14:16:22Z</time>
      </trkpt>
      <trkpt lat="37.8931420" lon="-6.0805980">
        <ele>479.0</ele>
        <time>2021-10-20T14:16:28Z</time>
      </trkpt>
      <trkpt lat="37.8929800" lon="-6.0804500">
        <ele>478.4</ele>
        <time>2021-10-20T14:16:32Z</time>
      </trkpt>
      <trkpt lat="37.8928360" lon="-6.0803430">
        <ele>477.8</ele>
        <time>2021-10-20T14:16:36Z</time>
      </trkpt>
      <trkpt lat="37.8928070" lon="-6.0803170">
        <ele>477.8</ele>
        <time>2021-10-20T14:16:37Z</time>
      </trkpt>
      <trkpt lat="37.8926490" lon="-6.0801990">
        <ele>477.2</ele>
        <time>2021-10-20T14:16:44Z</time>
      </trkpt>
      <trkpt lat="37.8925900" lon="-6.0801660">
        <ele>477.2</ele>
        <time>2021-10-20T14:16:47Z</time>
      </trkpt>
      <trkpt lat="37.8925630" lon="-6.0801530">
        <ele>477.2</ele>
        <time>2021-10-20T14:16:48Z</time>
      </trkpt>
      <trkpt lat="37.8925150" lon="-6.0801270">
        <ele>477.2</ele>
        <time>2021-10-20T14:16:50Z</time>
      </trkpt>
      <trkpt lat="37.8924070" lon="-6.0800850">
        <ele>477.4</ele>
        <time>2021-10-20T14:16:55Z</time>
      </trkpt>
      <trkpt lat="37.8924010" lon="-6.0800850">
        <ele>477.8</ele>
        <time>2021-10-20T14:16:57Z</time>
      </trkpt>
      <trkpt lat="37.8924010" lon="-6.0800850">
        <ele>477.8</ele>
        <time>2021-10-20T14:16:58Z</time>
      </trkpt>
      <trkpt lat="37.8922390" lon="-6.0801480">
        <ele>480.4</ele>
        <time>2021-10-20T14:17:51Z</time>
      </trkpt>
      <trkpt lat="37.8922220" lon="-6.0801620">
        <ele>480.4</ele>
        <time>2021-10-20T14:17:52Z</time>
      </trkpt>
      <trkpt lat="37.8922000" lon="-6.0801970">
        <ele>480.6</ele>
        <time>2021-10-20T14:17:54Z</time>
      </trkpt>
      <trkpt lat="37.8921360" lon="-6.0803050">
        <ele>481.2</ele>
        <time>2021-10-20T14:18:00Z</time>
      </trkpt>
      <trkpt lat="37.8921010" lon="-6.0803590">
        <ele>481.4</ele>
        <time>2021-10-20T14:18:03Z</time>
      </trkpt>
      <trkpt lat="37.8920540" lon="-6.0804080">
        <ele>481.8</ele>
        <time>2021-10-20T14:18:06Z</time>
      </trkpt>
      <trkpt lat="37.8920260" lon="-6.0804210">
        <ele>482.2</ele>
        <time>2021-10-20T14:18:08Z</time>
      </trkpt>
      <trkpt lat="37.8919960" lon="-6.0804070">
        <ele>482.4</ele>
        <time>2021-10-20T14:18:12Z</time>
      </trkpt>
      <trkpt lat="37.8919780" lon="-6.0804030">
        <ele>482.6</ele>
        <time>2021-10-20T14:18:14Z</time>
      </trkpt>
      <trkpt lat="37.8919440" lon="-6.0803760">
        <ele>483.6</ele>
        <time>2021-10-20T14:18:19Z</time>
      </trkpt>
      <trkpt lat="37.8919330" lon="-6.0803560">
        <ele>483.8</ele>
        <time>2021-10-20T14:18:21Z</time>
      </trkpt>
      <trkpt lat="37.8919140" lon="-6.0803190">
        <ele>484.6</ele>
        <time>2021-10-20T14:18:25Z</time>
      </trkpt>
      <trkpt lat="37.8919060" lon="-6.0803100">
        <ele>484.8</ele>
        <time>2021-10-20T14:18:26Z</time>
      </trkpt>
      <trkpt lat="37.8918870" lon="-6.0803000">
        <ele>485.2</ele>
        <time>2021-10-20T14:18:28Z</time>
      </trkpt>
      <trkpt lat="37.8918670" lon="-6.0802900">
        <ele>485.6</ele>
        <time>2021-10-20T14:18:30Z</time>
      </trkpt>
      <trkpt lat="37.8918580" lon="-6.0802850">
        <ele>485.8</ele>
        <time>2021-10-20T14:18:31Z</time>
      </trkpt>
      <trkpt lat="37.8918480" lon="-6.0802830">
        <ele>486.0</ele>
        <time>2021-10-20T14:18:32Z</time>
      </trkpt>
      <trkpt lat="37.8918310" lon="-6.0802840">
        <ele>486.2</ele>
        <time>2021-10-20T14:18:34Z</time>
      </trkpt>
      <trkpt lat="37.8918050" lon="-6.0803000">
        <ele>486.6</ele>
        <time>2021-10-20T14:18:37Z</time>
      </trkpt>
      <trkpt lat="37.8917970" lon="-6.0803060">
        <ele>486.8</ele>
        <time>2021-10-20T14:18:38Z</time>
      </trkpt>
      <trkpt lat="37.8917930" lon="-6.0803100">
        <ele>486.8</ele>
        <time>2021-10-20T14:18:39Z</time>
      </trkpt>
      <trkpt lat="37.8917840" lon="-6.0803120">
        <ele>487.0</ele>
        <time>2021-10-20T14:18:40Z</time>
      </trkpt>
      <trkpt lat="37.8917580" lon="-6.0803220">
        <ele>487.0</ele>
        <time>2021-10-20T14:18:42Z</time>
      </trkpt>
      <trkpt lat="37.8916300" lon="-6.0804230">
        <ele>487.0</ele>
        <time>2021-10-20T14:18:48Z</time>
      </trkpt>
      <trkpt lat="37.8915030" lon="-6.0805190">
        <ele>487.0</ele>
        <time>2021-10-20T14:18:51Z</time>
      </trkpt>
      <trkpt lat="37.8914500" lon="-6.0805470">
        <ele>487.0</ele>
        <time>2021-10-20T14:18:52Z</time>
      </trkpt>
      <trkpt lat="37.8912990" lon="-6.0805850">
        <ele>486.2</ele>
        <time>2021-10-20T14:18:56Z</time>
      </trkpt>
      <trkpt lat="37.8912530" lon="-6.0805840">
        <ele>486.2</ele>
        <time>2021-10-20T14:19:00Z</time>
      </trkpt>
      <trkpt lat="37.8912280" lon="-6.0805780">
        <ele>486.4</ele>
        <time>2021-10-20T14:19:02Z</time>
      </trkpt>
      <trkpt lat="37.8912020" lon="-6.0805730">
        <ele>486.8</ele>
        <time>2021-10-20T14:19:05Z</time>
      </trkpt>
      <trkpt lat="37.8911620" lon="-6.0805640">
        <ele>487.2</ele>
        <time>2021-10-20T14:19:09Z</time>
      </trkpt>
      <trkpt lat="37.8911310" lon="-6.0805550">
        <ele>487.8</ele>
        <time>2021-10-20T14:19:12Z</time>
      </trkpt>
      <trkpt lat="37.8910720" lon="-6.0805300">
        <ele>489.0</ele>
        <time>2021-10-20T14:19:19Z</time>
      </trkpt>
      <trkpt lat="37.8910710" lon="-6.0805300">
        <ele>489.0</ele>
        <time>2021-10-20T14:19:20Z</time>
      </trkpt>
      <trkpt lat="37.8910360" lon="-6.0805100">
        <ele>490.2</ele>
        <time>2021-10-20T14:19:25Z</time>
      </trkpt>
      <trkpt lat="37.8909960" lon="-6.0804950">
        <ele>491.2</ele>
        <time>2021-10-20T14:19:31Z</time>
      </trkpt>
      <trkpt lat="37.8909900" lon="-6.0804920">
        <ele>491.4</ele>
        <time>2021-10-20T14:19:32Z</time>
      </trkpt>
      <trkpt lat="37.8909800" lon="-6.0804890">
        <ele>491.6</ele>
        <time>2021-10-20T14:19:34Z</time>
      </trkpt>
      <trkpt lat="37.8909580" lon="-6.0804820">
        <ele>492.4</ele>
        <time>2021-10-20T14:19:37Z</time>
      </trkpt>
      <trkpt lat="37.8909440" lon="-6.0804750">
        <ele>492.6</ele>
        <time>2021-10-20T14:19:39Z</time>
      </trkpt>
      <trkpt lat="37.8909270" lon="-6.0804650">
        <ele>493.0</ele>
        <time>2021-10-20T14:19:42Z</time>
      </trkpt>
      <trkpt lat="37.8909120" lon="-6.0804580">
        <ele>493.4</ele>
        <time>2021-10-20T14:19:45Z</time>
      </trkpt>
      <trkpt lat="37.8909000" lon="-6.0804480">
        <ele>493.6</ele>
        <time>2021-10-20T14:19:47Z</time>
      </trkpt>
      <trkpt lat="37.8908810" lon="-6.0804250">
        <ele>494.0</ele>
        <time>2021-10-20T14:19:50Z</time>
      </trkpt>
      <trkpt lat="37.8908720" lon="-6.0804180">
        <ele>494.4</ele>
        <time>2021-10-20T14:19:52Z</time>
      </trkpt>
      <trkpt lat="37.8908550" lon="-6.0803780">
        <ele>495.2</ele>
        <time>2021-10-20T14:19:57Z</time>
      </trkpt>
      <trkpt lat="37.8908500" lon="-6.0803750">
        <ele>495.4</ele>
        <time>2021-10-20T14:19:58Z</time>
      </trkpt>
      <trkpt lat="37.8908440" lon="-6.0803690">
        <ele>495.6</ele>
        <time>2021-10-20T14:19:59Z</time>
      </trkpt>
      <trkpt lat="37.8908410" lon="-6.0803620">
        <ele>495.6</ele>
        <time>2021-10-20T14:20:00Z</time>
      </trkpt>
      <trkpt lat="37.8908280" lon="-6.0803440">
        <ele>496.2</ele>
        <time>2021-10-20T14:20:04Z</time>
      </trkpt>
      <trkpt lat="37.8908190" lon="-6.0803340">
        <ele>496.6</ele>
        <time>2021-10-20T14:20:06Z</time>
      </trkpt>
      <trkpt lat="37.8908040" lon="-6.0803120">
        <ele>497.2</ele>
        <time>2021-10-20T14:20:09Z</time>
      </trkpt>
      <trkpt lat="37.8907990" lon="-6.0803040">
        <ele>497.4</ele>
        <time>2021-10-20T14:20:10Z</time>
      </trkpt>
      <trkpt lat="37.8907900" lon="-6.0802900">
        <ele>497.8</ele>
        <time>2021-10-20T14:20:12Z</time>
      </trkpt>
      <trkpt lat="37.8907600" lon="-6.0802730">
        <ele>498.6</ele>
        <time>2021-10-20T14:20:17Z</time>
      </trkpt>
      <trkpt lat="37.8907500" lon="-6.0802700">
        <ele>498.8</ele>
        <time>2021-10-20T14:20:19Z</time>
      </trkpt>
      <trkpt lat="37.8907500" lon="-6.0802700">
        <ele>499.0</ele>
        <time>2021-10-20T14:20:20Z</time>
      </trkpt>
      <trkpt lat="37.8907500" lon="-6.0802700">
        <ele>499.0</ele>
        <time>2021-10-20T14:20:21Z</time>
      </trkpt>
      <trkpt lat="37.8907210" lon="-6.0802500">
        <ele>499.0</ele>
        <time>2021-10-20T14:20:44Z</time>
      </trkpt>
      <trkpt lat="37.8906870" lon="-6.0802380">
        <ele>499.0</ele>
        <time>2021-10-20T14:20:45Z</time>
      </trkpt>
      <trkpt lat="37.8905890" lon="-6.0801820">
        <ele>498.8</ele>
        <time>2021-10-20T14:20:47Z</time>
      </trkpt>
      <trkpt lat="37.8905430" lon="-6.0801470">
        <ele>498.8</ele>
        <time>2021-10-20T14:20:48Z</time>
      </trkpt>
      <trkpt lat="37.8904960" lon="-6.0801160">
        <ele>498.6</ele>
        <time>2021-10-20T14:20:49Z</time>
      </trkpt>
      <trkpt lat="37.8904490" lon="-6.0800950">
        <ele>498.0</ele>
        <time>2021-10-20T14:20:50Z</time>
      </trkpt>
      <trkpt lat="37.8903660" lon="-6.0800650">
        <ele>497.0</ele>
        <time>2021-10-20T14:20:52Z</time>
      </trkpt>
      <trkpt lat="37.8903000" lon="-6.0800730">
        <ele>496.2</ele>
        <time>2021-10-20T14:20:54Z</time>
      </trkpt>
      <trkpt lat="37.8902300" lon="-6.0801110">
        <ele>496.0</ele>
        <time>2021-10-20T14:20:56Z</time>
      </trkpt>
      <trkpt lat="37.8901900" lon="-6.0801320">
        <ele>495.6</ele>
        <time>2021-10-20T14:20:57Z</time>
      </trkpt>
      <trkpt lat="37.8901460" lon="-6.0801480">
        <ele>495.6</ele>
        <time>2021-10-20T14:20:58Z</time>
      </trkpt>
      <trkpt lat="37.8900010" lon="-6.0802080">
        <ele>494.8</ele>
        <time>2021-10-20T14:21:01Z</time>
      </trkpt>
      <trkpt lat="37.8899410" lon="-6.0802300">
        <ele>494.4</ele>
        <time>2021-10-20T14:21:02Z</time>
      </trkpt>
      <trkpt lat="37.8898610" lon="-6.0802740">
        <ele>493.2</ele>
        <time>2021-10-20T14:21:04Z</time>
      </trkpt>
      <trkpt lat="37.8897730" lon="-6.0803170">
        <ele>491.6</ele>
        <time>2021-10-20T14:21:06Z</time>
      </trkpt>
      <trkpt lat="37.8897310" lon="-6.0803430">
        <ele>491.2</ele>
        <time>2021-10-20T14:21:07Z</time>
      </trkpt>
      <trkpt lat="37.8896950" lon="-6.0803800">
        <ele>490.4</ele>
        <time>2021-10-20T14:21:08Z</time>
      </trkpt>
      <trkpt lat="37.8896650" lon="-6.0804160">
        <ele>489.8</ele>
        <time>2021-10-20T14:21:09Z</time>
      </trkpt>
      <trkpt lat="37.8896320" lon="-6.0804350">
        <ele>489.2</ele>
        <time>2021-10-20T14:21:10Z</time>
      </trkpt>
      <trkpt lat="37.8895910" lon="-6.0804370">
        <ele>488.6</ele>
        <time>2021-10-20T14:21:11Z</time>
      </trkpt>
      <trkpt lat="37.8895550" lon="-6.0804310">
        <ele>487.2</ele>
        <time>2021-10-20T14:21:12Z</time>
      </trkpt>
      <trkpt lat="37.8894860" lon="-6.0804240">
        <ele>485.8</ele>
        <time>2021-10-20T14:21:14Z</time>
      </trkpt>
      <trkpt lat="37.8894000" lon="-6.0804450">
        <ele>484.4</ele>
        <time>2021-10-20T14:21:16Z</time>
      </trkpt>
      <trkpt lat="37.8893640" lon="-6.0804570">
        <ele>483.8</ele>
        <time>2021-10-20T14:21:17Z</time>
      </trkpt>
      <trkpt lat="37.8893050" lon="-6.0804820">
        <ele>483.0</ele>
        <time>2021-10-20T14:21:19Z</time>
      </trkpt>
      <trkpt lat="37.8892710" lon="-6.0805270">
        <ele>481.8</ele>
        <time>2021-10-20T14:21:21Z</time>
      </trkpt>
      <trkpt lat="37.8892270" lon="-6.0805870">
        <ele>481.0</ele>
        <time>2021-10-20T14:21:24Z</time>
      </trkpt>
      <trkpt lat="37.8891860" lon="-6.0806400">
        <ele>480.8</ele>
        <time>2021-10-20T14:21:26Z</time>
      </trkpt>
      <trkpt lat="37.8891490" lon="-6.0806850">
        <ele>480.6</ele>
        <time>2021-10-20T14:21:28Z</time>
      </trkpt>
      <trkpt lat="37.8890830" lon="-6.0807810">
        <ele>480.8</ele>
        <time>2021-10-20T14:21:32Z</time>
      </trkpt>
      <trkpt lat="37.8890690" lon="-6.0808090">
        <ele>480.8</ele>
        <time>2021-10-20T14:21:33Z</time>
      </trkpt>
      <trkpt lat="37.8889980" lon="-6.0809090">
        <ele>480.6</ele>
        <time>2021-10-20T14:21:39Z</time>
      </trkpt>
      <trkpt lat="37.8889980" lon="-6.0809090">
        <ele>480.6</ele>
        <time>2021-10-20T14:21:41Z</time>
      </trkpt>
      <trkpt lat="37.8889660" lon="-6.0809620">
        <ele>480.4</ele>
        <time>2021-10-20T14:22:59Z</time>
      </trkpt>
      <trkpt lat="37.8889460" lon="-6.0809900">
        <ele>480.4</ele>
        <time>2021-10-20T14:23:00Z</time>
      </trkpt>
      <trkpt lat="37.8888560" lon="-6.0811070">
        <ele>480.4</ele>
        <time>2021-10-20T14:23:04Z</time>
      </trkpt>
      <trkpt lat="37.8887130" lon="-6.0813390">
        <ele>480.2</ele>
        <time>2021-10-20T14:23:11Z</time>
      </trkpt>
      <trkpt lat="37.8886500" lon="-6.0814640">
        <ele>480.0</ele>
        <time>2021-10-20T14:23:14Z</time>
      </trkpt>
      <trkpt lat="37.8886250" lon="-6.0815120">
        <ele>479.8</ele>
        <time>2021-10-20T14:23:15Z</time>
      </trkpt>
      <trkpt lat="37.8885960" lon="-6.0815650">
        <ele>479.6</ele>
        <time>2021-10-20T14:23:16Z</time>
      </trkpt>
      <trkpt lat="37.8885580" lon="-6.0816180">
        <ele>479.6</ele>
        <time>2021-10-20T14:23:17Z</time>
      </trkpt>
      <trkpt lat="37.8884200" lon="-6.0818000">
        <ele>478.6</ele>
        <time>2021-10-20T14:23:21Z</time>
      </trkpt>
      <trkpt lat="37.8883810" lon="-6.0818600">
        <ele>477.6</ele>
        <time>2021-10-20T14:23:23Z</time>
      </trkpt>
      <trkpt lat="37.8883640" lon="-6.0818800">
        <ele>477.4</ele>
        <time>2021-10-20T14:23:24Z</time>
      </trkpt>
      <trkpt lat="37.8882770" lon="-6.0819260">
        <ele>477.0</ele>
        <time>2021-10-20T14:23:28Z</time>
      </trkpt>
      <trkpt lat="37.8882610" lon="-6.0819210">
        <ele>477.2</ele>
        <time>2021-10-20T14:23:31Z</time>
      </trkpt>
      <trkpt lat="37.8882230" lon="-6.0818810">
        <ele>477.0</ele>
        <time>2021-10-20T14:24:13Z</time>
      </trkpt>
      <trkpt lat="37.8881930" lon="-6.0818730">
        <ele>477.0</ele>
        <time>2021-10-20T14:24:14Z</time>
      </trkpt>
      <trkpt lat="37.8880990" lon="-6.0818830">
        <ele>477.0</ele>
        <time>2021-10-20T14:24:17Z</time>
      </trkpt>
      <trkpt lat="37.8878730" lon="-6.0819450">
        <ele>477.8</ele>
        <time>2021-10-20T14:24:25Z</time>
      </trkpt>
      <trkpt lat="37.8878440" lon="-6.0819480">
        <ele>478.0</ele>
        <time>2021-10-20T14:24:26Z</time>
      </trkpt>
      <trkpt lat="37.8876750" lon="-6.0819450">
        <ele>478.8</ele>
        <time>2021-10-20T14:24:31Z</time>
      </trkpt>
      <trkpt lat="37.8876380" lon="-6.0819420">
        <ele>479.0</ele>
        <time>2021-10-20T14:24:32Z</time>
      </trkpt>
      <trkpt lat="37.8875330" lon="-6.0819350">
        <ele>479.8</ele>
        <time>2021-10-20T14:24:35Z</time>
      </trkpt>
      <trkpt lat="37.8873910" lon="-6.0818890">
        <ele>480.2</ele>
        <time>2021-10-20T14:24:39Z</time>
      </trkpt>
      <trkpt lat="37.8872090" lon="-6.0818360">
        <ele>479.8</ele>
        <time>2021-10-20T14:24:44Z</time>
      </trkpt>
      <trkpt lat="37.8871470" lon="-6.0818560">
        <ele>479.8</ele>
        <time>2021-10-20T14:24:46Z</time>
      </trkpt>
      <trkpt lat="37.8868490" lon="-6.0819850">
        <ele>479.2</ele>
        <time>2021-10-20T14:24:53Z</time>
      </trkpt>
      <trkpt lat="37.8868020" lon="-6.0820030">
        <ele>479.2</ele>
        <time>2021-10-20T14:24:54Z</time>
      </trkpt>
      <trkpt lat="37.8866720" lon="-6.0820900">
        <ele>479.0</ele>
        <time>2021-10-20T14:24:57Z</time>
      </trkpt>
      <trkpt lat="37.8865870" lon="-6.0821320">
        <ele>478.8</ele>
        <time>2021-10-20T14:24:59Z</time>
      </trkpt>
      <trkpt lat="37.8865170" lon="-6.0821540">
        <ele>478.8</ele>
        <time>2021-10-20T14:25:01Z</time>
      </trkpt>
      <trkpt lat="37.8864460" lon="-6.0821800">
        <ele>478.4</ele>
        <time>2021-10-20T14:25:04Z</time>
      </trkpt>
      <trkpt lat="37.8864320" lon="-6.0821860">
        <ele>478.4</ele>
        <time>2021-10-20T14:25:08Z</time>
      </trkpt>
      <trkpt lat="37.8863690" lon="-6.0822370">
        <ele>478.0</ele>
        <time>2021-10-20T14:25:51Z</time>
      </trkpt>
      <trkpt lat="37.8863240" lon="-6.0822800">
        <ele>478.0</ele>
        <time>2021-10-20T14:25:53Z</time>
      </trkpt>
      <trkpt lat="37.8861780" lon="-6.0824410">
        <ele>477.6</ele>
        <time>2021-10-20T14:25:58Z</time>
      </trkpt>
      <trkpt lat="37.8861480" lon="-6.0824800">
        <ele>477.6</ele>
        <time>2021-10-20T14:25:59Z</time>
      </trkpt>
      <trkpt lat="37.8859650" lon="-6.0827880">
        <ele>476.6</ele>
        <time>2021-10-20T14:26:06Z</time>
      </trkpt>
      <trkpt lat="37.8858030" lon="-6.0830300">
        <ele>475.8</ele>
        <time>2021-10-20T14:26:11Z</time>
      </trkpt>
      <trkpt lat="37.8857680" lon="-6.0830780">
        <ele>475.6</ele>
        <time>2021-10-20T14:26:12Z</time>
      </trkpt>
      <trkpt lat="37.8856190" lon="-6.0832690">
        <ele>475.2</ele>
        <time>2021-10-20T14:26:16Z</time>
      </trkpt>
      <trkpt lat="37.8855790" lon="-6.0833150">
        <ele>475.0</ele>
        <time>2021-10-20T14:26:17Z</time>
      </trkpt>
      <trkpt lat="37.8854370" lon="-6.0834280">
        <ele>474.6</ele>
        <time>2021-10-20T14:26:20Z</time>
      </trkpt>
      <trkpt lat="37.8853810" lon="-6.0834510">
        <ele>474.4</ele>
        <time>2021-10-20T14:26:21Z</time>
      </trkpt>
      <trkpt lat="37.8852180" lon="-6.0835060">
        <ele>473.8</ele>
        <time>2021-10-20T14:26:24Z</time>
      </trkpt>
      <trkpt lat="37.8850900" lon="-6.0835890">
        <ele>473.4</ele>
        <time>2021-10-20T14:26:26Z</time>
      </trkpt>
      <trkpt lat="37.8849840" lon="-6.0836780">
        <ele>472.6</ele>
        <time>2021-10-20T14:26:28Z</time>
      </trkpt>
      <trkpt lat="37.8849340" lon="-6.0837120">
        <ele>472.4</ele>
        <time>2021-10-20T14:26:29Z</time>
      </trkpt>
      <trkpt lat="37.8848390" lon="-6.0837770">
        <ele>472.0</ele>
        <time>2021-10-20T14:26:31Z</time>
      </trkpt>
      <trkpt lat="37.8847630" lon="-6.0838410">
        <ele>471.8</ele>
        <time>2021-10-20T14:26:33Z</time>
      </trkpt>
      <trkpt lat="37.8846740" lon="-6.0839290">
        <ele>471.8</ele>
        <time>2021-10-20T14:26:36Z</time>
      </trkpt>
      <trkpt lat="37.8845290" lon="-6.0840980">
        <ele>472.2</ele>
        <time>2021-10-20T14:26:42Z</time>
      </trkpt>
      <trkpt lat="37.8843780" lon="-6.0842230">
        <ele>473.2</ele>
        <time>2021-10-20T14:26:48Z</time>
      </trkpt>
      <trkpt lat="37.8843500" lon="-6.0842520">
        <ele>473.4</ele>
        <time>2021-10-20T14:26:49Z</time>
      </trkpt>
      <trkpt lat="37.8842710" lon="-6.0843460">
        <ele>473.8</ele>
        <time>2021-10-20T14:26:52Z</time>
      </trkpt>
      <trkpt lat="37.8842450" lon="-6.0843790">
        <ele>474.0</ele>
        <time>2021-10-20T14:26:53Z</time>
      </trkpt>
      <trkpt lat="37.8842030" lon="-6.0844530">
        <ele>474.0</ele>
        <time>2021-10-20T14:26:55Z</time>
      </trkpt>
      <trkpt lat="37.8841580" lon="-6.0845230">
        <ele>474.0</ele>
        <time>2021-10-20T14:26:57Z</time>
      </trkpt>
      <trkpt lat="37.8840570" lon="-6.0846950">
        <ele>474.2</ele>
        <time>2021-10-20T14:27:02Z</time>
      </trkpt>
      <trkpt lat="37.8840060" lon="-6.0847870">
        <ele>474.4</ele>
        <time>2021-10-20T14:27:05Z</time>
      </trkpt>
      <trkpt lat="37.8839900" lon="-6.0848160">
        <ele>474.6</ele>
        <time>2021-10-20T14:27:06Z</time>
      </trkpt>
      <trkpt lat="37.8839410" lon="-6.0849000">
        <ele>474.8</ele>
        <time>2021-10-20T14:27:09Z</time>
      </trkpt>
      <trkpt lat="37.8838660" lon="-6.0849710">
        <ele>475.4</ele>
        <time>2021-10-20T14:27:14Z</time>
      </trkpt>
      <trkpt lat="37.8838080" lon="-6.0850120">
        <ele>475.8</ele>
        <time>2021-10-20T14:27:17Z</time>
      </trkpt>
      <trkpt lat="37.8837560" lon="-6.0850450">
        <ele>476.2</ele>
        <time>2021-10-20T14:27:20Z</time>
      </trkpt>
      <trkpt lat="37.8836610" lon="-6.0851370">
        <ele>476.8</ele>
        <time>2021-10-20T14:27:26Z</time>
      </trkpt>
      <trkpt lat="37.8836450" lon="-6.0851540">
        <ele>477.0</ele>
        <time>2021-10-20T14:27:27Z</time>
      </trkpt>
      <trkpt lat="37.8835300" lon="-6.0852630">
        <ele>478.0</ele>
        <time>2021-10-20T14:27:34Z</time>
      </trkpt>
      <trkpt lat="37.8834830" lon="-6.0853080">
        <ele>478.4</ele>
        <time>2021-10-20T14:27:37Z</time>
      </trkpt>
      <trkpt lat="37.8834370" lon="-6.0853470">
        <ele>478.6</ele>
        <time>2021-10-20T14:27:40Z</time>
      </trkpt>
      <trkpt lat="37.8833880" lon="-6.0853850">
        <ele>479.0</ele>
        <time>2021-10-20T14:27:43Z</time>
      </trkpt>
      <trkpt lat="37.8833520" lon="-6.0854010">
        <ele>479.2</ele>
        <time>2021-10-20T14:27:45Z</time>
      </trkpt>
      <trkpt lat="37.8832970" lon="-6.0854140">
        <ele>480.0</ele>
        <time>2021-10-20T14:27:48Z</time>
      </trkpt>
      <trkpt lat="37.8832630" lon="-6.0854200">
        <ele>480.4</ele>
        <time>2021-10-20T14:27:50Z</time>
      </trkpt>
      <trkpt lat="37.8832040" lon="-6.0854240">
        <ele>480.6</ele>
        <time>2021-10-20T14:27:53Z</time>
      </trkpt>
      <trkpt lat="37.8831120" lon="-6.0854340">
        <ele>481.4</ele>
        <time>2021-10-20T14:27:58Z</time>
      </trkpt>
      <trkpt lat="37.8830610" lon="-6.0854430">
        <ele>481.8</ele>
        <time>2021-10-20T14:28:01Z</time>
      </trkpt>
      <trkpt lat="37.8830190" lon="-6.0854560">
        <ele>482.2</ele>
        <time>2021-10-20T14:28:07Z</time>
      </trkpt>
      <trkpt lat="37.8829240" lon="-6.0854750">
        <ele>483.0</ele>
        <time>2021-10-20T14:29:27Z</time>
      </trkpt>
      <trkpt lat="37.8829020" lon="-6.0854850">
        <ele>483.0</ele>
        <time>2021-10-20T14:29:28Z</time>
      </trkpt>
      <trkpt lat="37.8828810" lon="-6.0854990">
        <ele>483.0</ele>
        <time>2021-10-20T14:29:29Z</time>
      </trkpt>
      <trkpt lat="37.8828290" lon="-6.0855620">
        <ele>483.0</ele>
        <time>2021-10-20T14:29:32Z</time>
      </trkpt>
      <trkpt lat="37.8827840" lon="-6.0856390">
        <ele>483.0</ele>
        <time>2021-10-20T14:29:35Z</time>
      </trkpt>
      <trkpt lat="37.8827380" lon="-6.0857070">
        <ele>483.0</ele>
        <time>2021-10-20T14:29:38Z</time>
      </trkpt>
      <trkpt lat="37.8826870" lon="-6.0857720">
        <ele>483.2</ele>
        <time>2021-10-20T14:29:41Z</time>
      </trkpt>
      <trkpt lat="37.8826460" lon="-6.0858220">
        <ele>483.4</ele>
        <time>2021-10-20T14:29:43Z</time>
      </trkpt>
      <trkpt lat="37.8825770" lon="-6.0858910">
        <ele>483.6</ele>
        <time>2021-10-20T14:29:46Z</time>
      </trkpt>
      <trkpt lat="37.8824810" lon="-6.0859580">
        <ele>484.2</ele>
        <time>2021-10-20T14:29:50Z</time>
      </trkpt>
      <trkpt lat="37.8824350" lon="-6.0859760">
        <ele>484.2</ele>
        <time>2021-10-20T14:29:52Z</time>
      </trkpt>
      <trkpt lat="37.8823430" lon="-6.0859960">
        <ele>484.4</ele>
        <time>2021-10-20T14:29:56Z</time>
      </trkpt>
      <trkpt lat="37.8822370" lon="-6.0860110">
        <ele>484.4</ele>
        <time>2021-10-20T14:30:00Z</time>
      </trkpt>
      <trkpt lat="37.8821790" lon="-6.0859940">
        <ele>484.2</ele>
        <time>2021-10-20T14:30:02Z</time>
      </trkpt>
      <trkpt lat="37.8821190" lon="-6.0859600">
        <ele>484.0</ele>
        <time>2021-10-20T14:30:04Z</time>
      </trkpt>
      <trkpt lat="37.8820010" lon="-6.0859000">
        <ele>484.0</ele>
        <time>2021-10-20T14:30:07Z</time>
      </trkpt>
      <trkpt lat="37.8819080" lon="-6.0858590">
        <ele>483.8</ele>
        <time>2021-10-20T14:30:09Z</time>
      </trkpt>
      <trkpt lat="37.8817770" lon="-6.0858100">
        <ele>483.2</ele>
        <time>2021-10-20T14:30:12Z</time>
      </trkpt>
      <trkpt lat="37.8817270" lon="-6.0857820">
        <ele>483.0</ele>
        <time>2021-10-20T14:30:13Z</time>
      </trkpt>
      <trkpt lat="37.8816620" lon="-6.0857220">
        <ele>482.8</ele>
        <time>2021-10-20T14:30:15Z</time>
      </trkpt>
      <trkpt lat="37.8816360" lon="-6.0856890">
        <ele>482.8</ele>
        <time>2021-10-20T14:30:16Z</time>
      </trkpt>
      <trkpt lat="37.8815200" lon="-6.0854860">
        <ele>482.8</ele>
        <time>2021-10-20T14:30:22Z</time>
      </trkpt>
      <trkpt lat="37.8813960" lon="-6.0852330">
        <ele>483.6</ele>
        <time>2021-10-20T14:30:30Z</time>
      </trkpt>
      <trkpt lat="37.8813450" lon="-6.0851400">
        <ele>484.0</ele>
        <time>2021-10-20T14:30:33Z</time>
      </trkpt>
      <trkpt lat="37.8813180" lon="-6.0850810">
        <ele>484.4</ele>
        <time>2021-10-20T14:30:35Z</time>
      </trkpt>
      <trkpt lat="37.8812710" lon="-6.0849890">
        <ele>485.0</ele>
        <time>2021-10-20T14:30:38Z</time>
      </trkpt>
      <trkpt lat="37.8812060" lon="-6.0848690">
        <ele>485.4</ele>
        <time>2021-10-20T14:30:42Z</time>
      </trkpt>
      <trkpt lat="37.8811510" lon="-6.0847740">
        <ele>485.8</ele>
        <time>2021-10-20T14:30:46Z</time>
      </trkpt>
      <trkpt lat="37.8811470" lon="-6.0847650">
        <ele>486.0</ele>
        <time>2021-10-20T14:30:49Z</time>
      </trkpt>
      <trkpt lat="37.8811130" lon="-6.0847260">
        <ele>486.2</ele>
        <time>2021-10-20T14:31:06Z</time>
      </trkpt>
      <trkpt lat="37.8810290" lon="-6.0846080">
        <ele>486.2</ele>
        <time>2021-10-20T14:31:10Z</time>
      </trkpt>
      <trkpt lat="37.8809490" lon="-6.0845290">
        <ele>486.2</ele>
        <time>2021-10-20T14:31:13Z</time>
      </trkpt>
      <trkpt lat="37.8808660" lon="-6.0844560">
        <ele>486.2</ele>
        <time>2021-10-20T14:31:16Z</time>
      </trkpt>
      <trkpt lat="37.8807390" lon="-6.0842870">
        <ele>486.0</ele>
        <time>2021-10-20T14:31:21Z</time>
      </trkpt>
      <trkpt lat="37.8806120" lon="-6.0840580">
        <ele>486.6</ele>
        <time>2021-10-20T14:31:28Z</time>
      </trkpt>
      <trkpt lat="37.8805550" lon="-6.0840060">
        <ele>486.8</ele>
        <time>2021-10-20T14:31:30Z</time>
      </trkpt>
      <trkpt lat="37.8804690" lon="-6.0839520">
        <ele>487.2</ele>
        <time>2021-10-20T14:31:33Z</time>
      </trkpt>
      <trkpt lat="37.8803880" lon="-6.0839240">
        <ele>487.6</ele>
        <time>2021-10-20T14:31:35Z</time>
      </trkpt>
      <trkpt lat="37.8802610" lon="-6.0838720">
        <ele>487.6</ele>
        <time>2021-10-20T14:31:38Z</time>
      </trkpt>
      <trkpt lat="37.8802050" lon="-6.0838420">
        <ele>487.4</ele>
        <time>2021-10-20T14:31:39Z</time>
      </trkpt>
      <trkpt lat="37.8801540" lon="-6.0838030">
        <ele>487.4</ele>
        <time>2021-10-20T14:31:40Z</time>
      </trkpt>
      <trkpt lat="37.8801110" lon="-6.0837660">
        <ele>487.0</ele>
        <time>2021-10-20T14:31:41Z</time>
      </trkpt>
      <trkpt lat="37.8799530" lon="-6.0835950">
        <ele>486.6</ele>
        <time>2021-10-20T14:31:44Z</time>
      </trkpt>
      <trkpt lat="37.8799060" lon="-6.0835470">
        <ele>486.6</ele>
        <time>2021-10-20T14:31:45Z</time>
      </trkpt>
      <trkpt lat="37.8797650" lon="-6.0834410">
        <ele>486.2</ele>
        <time>2021-10-20T14:31:48Z</time>
      </trkpt>
      <trkpt lat="37.8796410" lon="-6.0833290">
        <ele>486.0</ele>
        <time>2021-10-20T14:31:52Z</time>
      </trkpt>
      <trkpt lat="37.8794490" lon="-6.0831010">
        <ele>486.4</ele>
        <time>2021-10-20T14:32:00Z</time>
      </trkpt>
      <trkpt lat="37.8793740" lon="-6.0829920">
        <ele>486.8</ele>
        <time>2021-10-20T14:32:04Z</time>
      </trkpt>
      <trkpt lat="37.8792160" lon="-6.0828450">
        <ele>487.6</ele>
        <time>2021-10-20T14:32:12Z</time>
      </trkpt>
      <trkpt lat="37.8791690" lon="-6.0828140">
        <ele>487.8</ele>
        <time>2021-10-20T14:32:14Z</time>
      </trkpt>
      <trkpt lat="37.8790480" lon="-6.0827350">
        <ele>488.4</ele>
        <time>2021-10-20T14:32:20Z</time>
      </trkpt>
      <trkpt lat="37.8789820" lon="-6.0826900">
        <ele>488.8</ele>
        <time>2021-10-20T14:32:23Z</time>
      </trkpt>
      <trkpt lat="37.8789570" lon="-6.0826800">
        <ele>489.0</ele>
        <time>2021-10-20T14:32:24Z</time>
      </trkpt>
      <trkpt lat="37.8788920" lon="-6.0826480">
        <ele>489.4</ele>
        <time>2021-10-20T14:32:27Z</time>
      </trkpt>
      <trkpt lat="37.8787330" lon="-6.0825680">
        <ele>490.2</ele>
        <time>2021-10-20T14:32:34Z</time>
      </trkpt>
      <trkpt lat="37.8787120" lon="-6.0825560">
        <ele>490.2</ele>
        <time>2021-10-20T14:32:35Z</time>
      </trkpt>
      <trkpt lat="37.8785970" lon="-6.0824580">
        <ele>490.8</ele>
        <time>2021-10-20T14:32:41Z</time>
      </trkpt>
      <trkpt lat="37.8785490" lon="-6.0824000">
        <ele>491.0</ele>
        <time>2021-10-20T14:32:44Z</time>
      </trkpt>
      <trkpt lat="37.8785170" lon="-6.0823300">
        <ele>491.2</ele>
        <time>2021-10-20T14:32:47Z</time>
      </trkpt>
      <trkpt lat="37.8784360" lon="-6.0822450">
        <ele>492.0</ele>
        <time>2021-10-20T14:32:53Z</time>
      </trkpt>
      <trkpt lat="37.8784220" lon="-6.0822310">
        <ele>492.0</ele>
        <time>2021-10-20T14:32:54Z</time>
      </trkpt>
      <trkpt lat="37.8783620" lon="-6.0821640">
        <ele>492.4</ele>
        <time>2021-10-20T14:32:58Z</time>
      </trkpt>
      <trkpt lat="37.8783280" lon="-6.0821440">
        <ele>492.6</ele>
        <time>2021-10-20T14:33:00Z</time>
      </trkpt>
      <trkpt lat="37.8782770" lon="-6.0821230">
        <ele>493.0</ele>
        <time>2021-10-20T14:33:03Z</time>
      </trkpt>
      <trkpt lat="37.8782340" lon="-6.0820970">
        <ele>493.4</ele>
        <time>2021-10-20T14:33:06Z</time>
      </trkpt>
      <trkpt lat="37.8781780" lon="-6.0820670">
        <ele>494.0</ele>
        <time>2021-10-20T14:33:10Z</time>
      </trkpt>
      <trkpt lat="37.8781620" lon="-6.0820590">
        <ele>494.2</ele>
        <time>2021-10-20T14:33:11Z</time>
      </trkpt>
      <trkpt lat="37.8781070" lon="-6.0820070">
        <ele>495.2</ele>
        <time>2021-10-20T14:33:16Z</time>
      </trkpt>
      <trkpt lat="37.8780910" lon="-6.0819990">
        <ele>495.4</ele>
        <time>2021-10-20T14:33:17Z</time>
      </trkpt>
      <trkpt lat="37.8780110" lon="-6.0819540">
        <ele>496.0</ele>
        <time>2021-10-20T14:33:24Z</time>
      </trkpt>
      <trkpt lat="37.8779850" lon="-6.0819380">
        <ele>496.4</ele>
        <time>2021-10-20T14:33:26Z</time>
      </trkpt>
      <trkpt lat="37.8779720" lon="-6.0819310">
        <ele>496.4</ele>
        <time>2021-10-20T14:33:27Z</time>
      </trkpt>
      <trkpt lat="37.8779500" lon="-6.0819150">
        <ele>496.8</ele>
        <time>2021-10-20T14:33:29Z</time>
      </trkpt>
      <trkpt lat="37.8779270" lon="-6.0818990">
        <ele>497.0</ele>
        <time>2021-10-20T14:33:31Z</time>
      </trkpt>
      <trkpt lat="37.8779050" lon="-6.0818870">
        <ele>497.4</ele>
        <time>2021-10-20T14:33:33Z</time>
      </trkpt>
      <trkpt lat="37.8778930" lon="-6.0818780">
        <ele>497.6</ele>
        <time>2021-10-20T14:33:34Z</time>
      </trkpt>
      <trkpt lat="37.8778070" lon="-6.0818140">
        <ele>498.6</ele>
        <time>2021-10-20T14:33:41Z</time>
      </trkpt>
      <trkpt lat="37.8777650" lon="-6.0817850">
        <ele>499.2</ele>
        <time>2021-10-20T14:33:45Z</time>
      </trkpt>
      <trkpt lat="37.8777380" lon="-6.0817600">
        <ele>499.8</ele>
        <time>2021-10-20T14:33:48Z</time>
      </trkpt>
      <trkpt lat="37.8777290" lon="-6.0817500">
        <ele>499.8</ele>
        <time>2021-10-20T14:33:49Z</time>
      </trkpt>
      <trkpt lat="37.8776740" lon="-6.0817170">
        <ele>501.0</ele>
        <time>2021-10-20T14:33:54Z</time>
      </trkpt>
      <trkpt lat="37.8776410" lon="-6.0816970">
        <ele>501.6</ele>
        <time>2021-10-20T14:33:57Z</time>
      </trkpt>
      <trkpt lat="37.8776200" lon="-6.0816830">
        <ele>502.0</ele>
        <time>2021-10-20T14:33:59Z</time>
      </trkpt>
      <trkpt lat="37.8775870" lon="-6.0816700">
        <ele>502.6</ele>
        <time>2021-10-20T14:34:02Z</time>
      </trkpt>
      <trkpt lat="37.8775740" lon="-6.0816740">
        <ele>502.8</ele>
        <time>2021-10-20T14:34:03Z</time>
      </trkpt>
      <trkpt lat="37.8775590" lon="-6.0816750">
        <ele>503.0</ele>
        <time>2021-10-20T14:34:04Z</time>
      </trkpt>
      <trkpt lat="37.8775270" lon="-6.0816830">
        <ele>503.2</ele>
        <time>2021-10-20T14:34:06Z</time>
      </trkpt>
      <trkpt lat="37.8774860" lon="-6.0816950">
        <ele>503.2</ele>
        <time>2021-10-20T14:34:08Z</time>
      </trkpt>
      <trkpt lat="37.8774090" lon="-6.0817320">
        <ele>503.4</ele>
        <time>2021-10-20T14:34:13Z</time>
      </trkpt>
      <trkpt lat="37.8773970" lon="-6.0817360">
        <ele>503.4</ele>
        <time>2021-10-20T14:34:14Z</time>
      </trkpt>
      <trkpt lat="37.8773800" lon="-6.0817430">
        <ele>503.6</ele>
        <time>2021-10-20T14:34:15Z</time>
      </trkpt>
      <trkpt lat="37.8773600" lon="-6.0817510">
        <ele>503.6</ele>
        <time>2021-10-20T14:34:16Z</time>
      </trkpt>
      <trkpt lat="37.8773140" lon="-6.0817730">
        <ele>503.4</ele>
        <time>2021-10-20T14:34:18Z</time>
      </trkpt>
      <trkpt lat="37.8772690" lon="-6.0818040">
        <ele>503.4</ele>
        <time>2021-10-20T14:34:20Z</time>
      </trkpt>
      <trkpt lat="37.8772470" lon="-6.0818220">
        <ele>503.4</ele>
        <time>2021-10-20T14:34:21Z</time>
      </trkpt>
      <trkpt lat="37.8771920" lon="-6.0818480">
        <ele>503.4</ele>
        <time>2021-10-20T14:34:23Z</time>
      </trkpt>
      <trkpt lat="37.8770460" lon="-6.0819080">
        <ele>503.4</ele>
        <time>2021-10-20T14:34:29Z</time>
      </trkpt>
      <trkpt lat="37.8769230" lon="-6.0819100">
        <ele>503.0</ele>
        <time>2021-10-20T14:34:32Z</time>
      </trkpt>
      <trkpt lat="37.8768830" lon="-6.0819030">
        <ele>502.8</ele>
        <time>2021-10-20T14:34:33Z</time>
      </trkpt>
      <trkpt lat="37.8766870" lon="-6.0818660">
        <ele>502.2</ele>
        <time>2021-10-20T14:34:36Z</time>
      </trkpt>
      <trkpt lat="37.8766330" lon="-6.0818480">
        <ele>501.6</ele>
        <time>2021-10-20T14:34:37Z</time>
      </trkpt>
      <trkpt lat="37.8765640" lon="-6.0818260">
        <ele>501.4</ele>
        <time>2021-10-20T14:34:38Z</time>
      </trkpt>
      <trkpt lat="37.8764290" lon="-6.0817900">
        <ele>500.4</ele>
        <time>2021-10-20T14:34:40Z</time>
      </trkpt>
      <trkpt lat="37.8762440" lon="-6.0817530">
        <ele>499.2</ele>
        <time>2021-10-20T14:34:43Z</time>
      </trkpt>
      <trkpt lat="37.8761910" lon="-6.0817430">
        <ele>498.6</ele>
        <time>2021-10-20T14:34:44Z</time>
      </trkpt>
      <trkpt lat="37.8761440" lon="-6.0817400">
        <ele>498.4</ele>
        <time>2021-10-20T14:34:45Z</time>
      </trkpt>
      <trkpt lat="37.8760620" lon="-6.0817710">
        <ele>498.0</ele>
        <time>2021-10-20T14:34:47Z</time>
      </trkpt>
      <trkpt lat="37.8759820" lon="-6.0818140">
        <ele>497.8</ele>
        <time>2021-10-20T14:34:51Z</time>
      </trkpt>
      <trkpt lat="37.8758290" lon="-6.0817870">
        <ele>497.6</ele>
        <time>2021-10-20T14:34:57Z</time>
      </trkpt>
      <trkpt lat="37.8757270" lon="-6.0817130">
        <ele>497.0</ele>
        <time>2021-10-20T14:35:00Z</time>
      </trkpt>
      <trkpt lat="37.8757040" lon="-6.0816850">
        <ele>496.4</ele>
        <time>2021-10-20T14:35:01Z</time>
      </trkpt>
      <trkpt lat="37.8756790" lon="-6.0816550">
        <ele>495.2</ele>
        <time>2021-10-20T14:35:03Z</time>
      </trkpt>
      <trkpt lat="37.8756700" lon="-6.0816550">
        <ele>494.4</ele>
        <time>2021-10-20T14:35:04Z</time>
      </trkpt>
      <trkpt lat="37.8756670" lon="-6.0816570">
        <ele>494.0</ele>
        <time>2021-10-20T14:35:05Z</time>
      </trkpt>
      <trkpt lat="37.8756670" lon="-6.0816570">
        <ele>493.6</ele>
        <time>2021-10-20T14:35:06Z</time>
      </trkpt>
      <trkpt lat="37.8756640" lon="-6.0817100">
        <ele>493.2</ele>
        <time>2021-10-20T14:37:06Z</time>
      </trkpt>
      <trkpt lat="37.8756620" lon="-6.0817340">
        <ele>493.2</ele>
        <time>2021-10-20T14:37:07Z</time>
      </trkpt>
      <trkpt lat="37.8756130" lon="-6.0818810">
        <ele>493.0</ele>
        <time>2021-10-20T14:37:11Z</time>
      </trkpt>
      <trkpt lat="37.8755930" lon="-6.0819110">
        <ele>493.0</ele>
        <time>2021-10-20T14:37:12Z</time>
      </trkpt>
      <trkpt lat="37.8754170" lon="-6.0820900">
        <ele>491.4</ele>
        <time>2021-10-20T14:37:17Z</time>
      </trkpt>
      <trkpt lat="37.8752980" lon="-6.0821830">
        <ele>490.4</ele>
        <time>2021-10-20T14:37:20Z</time>
      </trkpt>
      <trkpt lat="37.8751860" lon="-6.0822720">
        <ele>489.2</ele>
        <time>2021-10-20T14:37:23Z</time>
      </trkpt>
      <trkpt lat="37.8751310" lon="-6.0823220">
        <ele>488.8</ele>
        <time>2021-10-20T14:37:25Z</time>
      </trkpt>
      <trkpt lat="37.8750550" lon="-6.0824050">
        <ele>488.2</ele>
        <time>2021-10-20T14:37:28Z</time>
      </trkpt>
      <trkpt lat="37.8749770" lon="-6.0824700">
        <ele>487.8</ele>
        <time>2021-10-20T14:37:31Z</time>
      </trkpt>
      <trkpt lat="37.8749060" lon="-6.0825220">
        <ele>487.2</ele>
        <time>2021-10-20T14:37:33Z</time>
      </trkpt>
      <trkpt lat="37.8748210" lon="-6.0826010">
        <ele>486.2</ele>
        <time>2021-10-20T14:37:36Z</time>
      </trkpt>
      <trkpt lat="37.8747840" lon="-6.0826310">
        <ele>485.6</ele>
        <time>2021-10-20T14:37:37Z</time>
      </trkpt>
      <trkpt lat="37.8747450" lon="-6.0826590">
        <ele>485.2</ele>
        <time>2021-10-20T14:37:38Z</time>
      </trkpt>
      <trkpt lat="37.8746610" lon="-6.0827060">
        <ele>484.4</ele>
        <time>2021-10-20T14:37:40Z</time>
      </trkpt>
      <trkpt lat="37.8746120" lon="-6.0827360">
        <ele>484.2</ele>
        <time>2021-10-20T14:37:41Z</time>
      </trkpt>
      <trkpt lat="37.8745150" lon="-6.0828050">
        <ele>483.0</ele>
        <time>2021-10-20T14:37:44Z</time>
      </trkpt>
      <trkpt lat="37.8744480" lon="-6.0828280">
        <ele>482.6</ele>
        <time>2021-10-20T14:37:46Z</time>
      </trkpt>
      <trkpt lat="37.8743890" lon="-6.0828080">
        <ele>482.2</ele>
        <time>2021-10-20T14:37:48Z</time>
      </trkpt>
      <trkpt lat="37.8743580" lon="-6.0827490">
        <ele>481.8</ele>
        <time>2021-10-20T14:37:50Z</time>
      </trkpt>
      <trkpt lat="37.8743170" lon="-6.0825590">
        <ele>480.6</ele>
        <time>2021-10-20T14:37:54Z</time>
      </trkpt>
      <trkpt lat="37.8743060" lon="-6.0824540">
        <ele>480.4</ele>
        <time>2021-10-20T14:37:56Z</time>
      </trkpt>
      <trkpt lat="37.8742870" lon="-6.0822880">
        <ele>479.4</ele>
        <time>2021-10-20T14:37:59Z</time>
      </trkpt>
      <trkpt lat="37.8742540" lon="-6.0820330">
        <ele>478.2</ele>
        <time>2021-10-20T14:38:03Z</time>
      </trkpt>
      <trkpt lat="37.8742400" lon="-6.0819890">
        <ele>478.0</ele>
        <time>2021-10-20T14:38:04Z</time>
      </trkpt>
      <trkpt lat="37.8742070" lon="-6.0818090">
        <ele>477.2</ele>
        <time>2021-10-20T14:38:08Z</time>
      </trkpt>
      <trkpt lat="37.8742030" lon="-6.0817700">
        <ele>477.2</ele>
        <time>2021-10-20T14:38:09Z</time>
      </trkpt>
      <trkpt lat="37.8741840" lon="-6.0816490">
        <ele>476.6</ele>
        <time>2021-10-20T14:38:14Z</time>
      </trkpt>
      <trkpt lat="37.8741880" lon="-6.0816290">
        <ele>476.6</ele>
        <time>2021-10-20T14:38:15Z</time>
      </trkpt>
      <trkpt lat="37.8742370" lon="-6.0815190">
        <ele>476.4</ele>
        <time>2021-10-20T14:38:19Z</time>
      </trkpt>
      <trkpt lat="37.8742950" lon="-6.0813780">
        <ele>476.2</ele>
        <time>2021-10-20T14:38:23Z</time>
      </trkpt>
      <trkpt lat="37.8743230" lon="-6.0813020">
        <ele>475.8</ele>
        <time>2021-10-20T14:38:25Z</time>
      </trkpt>
      <trkpt lat="37.8743760" lon="-6.0810680">
        <ele>475.2</ele>
        <time>2021-10-20T14:38:31Z</time>
      </trkpt>
      <trkpt lat="37.8743920" lon="-6.0809500">
        <ele>475.2</ele>
        <time>2021-10-20T14:38:35Z</time>
      </trkpt>
      <trkpt lat="37.8743960" lon="-6.0809170">
        <ele>475.2</ele>
        <time>2021-10-20T14:38:36Z</time>
      </trkpt>
      <trkpt lat="37.8743930" lon="-6.0808810">
        <ele>475.2</ele>
        <time>2021-10-20T14:38:37Z</time>
      </trkpt>
      <trkpt lat="37.8743340" lon="-6.0804740">
        <ele>474.8</ele>
        <time>2021-10-20T14:38:48Z</time>
      </trkpt>
      <trkpt lat="37.8742720" lon="-6.0801020">
        <ele>474.8</ele>
        <time>2021-10-20T14:38:56Z</time>
      </trkpt>
      <trkpt lat="37.8742570" lon="-6.0800470">
        <ele>474.8</ele>
        <time>2021-10-20T14:38:57Z</time>
      </trkpt>
      <trkpt lat="37.8742060" lon="-6.0798540">
        <ele>474.2</ele>
        <time>2021-10-20T14:39:00Z</time>
      </trkpt>
      <trkpt lat="37.8741900" lon="-6.0797910">
        <ele>474.2</ele>
        <time>2021-10-20T14:39:01Z</time>
      </trkpt>
      <trkpt lat="37.8741770" lon="-6.0797310">
        <ele>474.0</ele>
        <time>2021-10-20T14:39:02Z</time>
      </trkpt>
      <trkpt lat="37.8741640" lon="-6.0796800">
        <ele>473.8</ele>
        <time>2021-10-20T14:39:03Z</time>
      </trkpt>
      <trkpt lat="37.8741290" lon="-6.0795450">
        <ele>473.4</ele>
        <time>2021-10-20T14:39:06Z</time>
      </trkpt>
      <trkpt lat="37.8741130" lon="-6.0795010">
        <ele>473.4</ele>
        <time>2021-10-20T14:39:07Z</time>
      </trkpt>
      <trkpt lat="37.8740610" lon="-6.0792150">
        <ele>473.0</ele>
        <time>2021-10-20T14:39:12Z</time>
      </trkpt>
      <trkpt lat="37.8740540" lon="-6.0791550">
        <ele>472.8</ele>
        <time>2021-10-20T14:39:13Z</time>
      </trkpt>
      <trkpt lat="37.8740230" lon="-6.0789390">
        <ele>472.0</ele>
        <time>2021-10-20T14:39:17Z</time>
      </trkpt>
      <trkpt lat="37.8740000" lon="-6.0788650">
        <ele>471.6</ele>
        <time>2021-10-20T14:39:19Z</time>
      </trkpt>
      <trkpt lat="37.8739410" lon="-6.0788100">
        <ele>471.0</ele>
        <time>2021-10-20T14:39:22Z</time>
      </trkpt>
      <trkpt lat="37.8739230" lon="-6.0788130">
        <ele>470.6</ele>
        <time>2021-10-20T14:39:23Z</time>
      </trkpt>
      <trkpt lat="37.8739090" lon="-6.0788280">
        <ele>470.4</ele>
        <time>2021-10-20T14:39:24Z</time>
      </trkpt>
      <trkpt lat="37.8738780" lon="-6.0789270">
        <ele>470.2</ele>
        <time>2021-10-20T14:39:27Z</time>
      </trkpt>
      <trkpt lat="37.8737680" lon="-6.0790650">
        <ele>470.0</ele>
        <time>2021-10-20T14:39:32Z</time>
      </trkpt>
      <trkpt lat="37.8737080" lon="-6.0791340">
        <ele>470.0</ele>
        <time>2021-10-20T14:39:36Z</time>
      </trkpt>
      <trkpt lat="37.8737050" lon="-6.0791560">
        <ele>470.0</ele>
        <time>2021-10-20T14:39:37Z</time>
      </trkpt>
      <trkpt lat="37.8737220" lon="-6.0792400">
        <ele>470.2</ele>
        <time>2021-10-20T14:39:40Z</time>
      </trkpt>
      <trkpt lat="37.8737630" lon="-6.0794460">
        <ele>471.0</ele>
        <time>2021-10-20T14:39:47Z</time>
      </trkpt>
      <trkpt lat="37.8737970" lon="-6.0795730">
        <ele>471.8</ele>
        <time>2021-10-20T14:39:52Z</time>
      </trkpt>
      <trkpt lat="37.8738140" lon="-6.0796280">
        <ele>472.0</ele>
        <time>2021-10-20T14:39:54Z</time>
      </trkpt>
      <trkpt lat="37.8738300" lon="-6.0797170">
        <ele>472.4</ele>
        <time>2021-10-20T14:39:58Z</time>
      </trkpt>
      <trkpt lat="37.8738300" lon="-6.0797410">
        <ele>472.4</ele>
        <time>2021-10-20T14:39:59Z</time>
      </trkpt>
      <trkpt lat="37.8738180" lon="-6.0797730">
        <ele>472.8</ele>
        <time>2021-10-20T14:40:01Z</time>
      </trkpt>
      <trkpt lat="37.8737710" lon="-6.0797950">
        <ele>473.0</ele>
        <time>2021-10-20T14:40:04Z</time>
      </trkpt>
      <trkpt lat="37.8737340" lon="-6.0798120">
        <ele>473.0</ele>
        <time>2021-10-20T14:40:06Z</time>
      </trkpt>
      <trkpt lat="37.8736680" lon="-6.0798680">
        <ele>473.4</ele>
        <time>2021-10-20T14:40:11Z</time>
      </trkpt>
      <trkpt lat="37.8736740" lon="-6.0798980">
        <ele>473.6</ele>
        <time>2021-10-20T14:40:13Z</time>
      </trkpt>
      <trkpt lat="37.8737070" lon="-6.0799580">
        <ele>473.6</ele>
        <time>2021-10-20T14:40:16Z</time>
      </trkpt>
      <trkpt lat="37.8737300" lon="-6.0800300">
        <ele>473.8</ele>
        <time>2021-10-20T14:40:19Z</time>
      </trkpt>
      <trkpt lat="37.8737760" lon="-6.0801370">
        <ele>474.2</ele>
        <time>2021-10-20T14:40:23Z</time>
      </trkpt>
      <trkpt lat="37.8738280" lon="-6.0803320">
        <ele>474.4</ele>
        <time>2021-10-20T14:40:31Z</time>
      </trkpt>
      <trkpt lat="37.8738560" lon="-6.0804360">
        <ele>474.6</ele>
        <time>2021-10-20T14:40:35Z</time>
      </trkpt>
      <trkpt lat="37.8738630" lon="-6.0804620">
        <ele>474.6</ele>
        <time>2021-10-20T14:40:36Z</time>
      </trkpt>
      <trkpt lat="37.8738870" lon="-6.0805510">
        <ele>475.0</ele>
        <time>2021-10-20T14:40:40Z</time>
      </trkpt>
      <trkpt lat="37.8738940" lon="-6.0805670">
        <ele>475.0</ele>
        <time>2021-10-20T14:40:41Z</time>
      </trkpt>
      <trkpt lat="37.8739080" lon="-6.0805760">
        <ele>475.0</ele>
        <time>2021-10-20T14:40:43Z</time>
      </trkpt>
      <trkpt lat="37.8739160" lon="-6.0805760">
        <ele>475.0</ele>
        <time>2021-10-20T14:40:47Z</time>
      </trkpt>
      <trkpt lat="37.8739190" lon="-6.0806020">
        <ele>475.0</ele>
        <time>2021-10-20T14:41:47Z</time>
      </trkpt>
      <trkpt lat="37.8739290" lon="-6.0806330">
        <ele>475.0</ele>
        <time>2021-10-20T14:41:48Z</time>
      </trkpt>
      <trkpt lat="37.8739480" lon="-6.0808160">
        <ele>475.0</ele>
        <time>2021-10-20T14:41:54Z</time>
      </trkpt>
      <trkpt lat="37.8739620" lon="-6.0809320">
        <ele>475.2</ele>
        <time>2021-10-20T14:41:59Z</time>
      </trkpt>
      <trkpt lat="37.8739710" lon="-6.0809570">
        <ele>475.2</ele>
        <time>2021-10-20T14:42:00Z</time>
      </trkpt>
      <trkpt lat="37.8739810" lon="-6.0810430">
        <ele>475.4</ele>
        <time>2021-10-20T14:42:03Z</time>
      </trkpt>
      <trkpt lat="37.8739710" lon="-6.0811050">
        <ele>475.6</ele>
        <time>2021-10-20T14:42:06Z</time>
      </trkpt>
      <trkpt lat="37.8739420" lon="-6.0811850">
        <ele>476.0</ele>
        <time>2021-10-20T14:42:09Z</time>
      </trkpt>
      <trkpt lat="37.8739520" lon="-6.0812350">
        <ele>476.2</ele>
        <time>2021-10-20T14:42:11Z</time>
      </trkpt>
      <trkpt lat="37.8739550" lon="-6.0812610">
        <ele>476.2</ele>
        <time>2021-10-20T14:42:12Z</time>
      </trkpt>
      <trkpt lat="37.8739340" lon="-6.0815250">
        <ele>476.6</ele>
        <time>2021-10-20T14:42:21Z</time>
      </trkpt>
      <trkpt lat="37.8739280" lon="-6.0816170">
        <ele>476.6</ele>
        <time>2021-10-20T14:42:24Z</time>
      </trkpt>
      <trkpt lat="37.8739260" lon="-6.0817120">
        <ele>476.6</ele>
        <time>2021-10-20T14:42:27Z</time>
      </trkpt>
      <trkpt lat="37.8739260" lon="-6.0817770">
        <ele>476.6</ele>
        <time>2021-10-20T14:42:29Z</time>
      </trkpt>
      <trkpt lat="37.8739340" lon="-6.0818820">
        <ele>476.4</ele>
        <time>2021-10-20T14:42:33Z</time>
      </trkpt>
      <trkpt lat="37.8739240" lon="-6.0819030">
        <ele>476.4</ele>
        <time>2021-10-20T14:42:34Z</time>
      </trkpt>
      <trkpt lat="37.8738530" lon="-6.0820920">
        <ele>476.4</ele>
        <time>2021-10-20T14:42:42Z</time>
      </trkpt>
      <trkpt lat="37.8737620" lon="-6.0822440">
        <ele>476.8</ele>
        <time>2021-10-20T14:42:49Z</time>
      </trkpt>
      <trkpt lat="37.8737590" lon="-6.0822590">
        <ele>476.8</ele>
        <time>2021-10-20T14:42:50Z</time>
      </trkpt>
      <trkpt lat="37.8738020" lon="-6.0822720">
        <ele>477.0</ele>
        <time>2021-10-20T14:42:53Z</time>
      </trkpt>
      <trkpt lat="37.8738590" lon="-6.0821930">
        <ele>477.2</ele>
        <time>2021-10-20T14:42:59Z</time>
      </trkpt>
      <trkpt lat="37.8738590" lon="-6.0821930">
        <ele>477.2</ele>
        <time>2021-10-20T14:43:01Z</time>
      </trkpt>
      <trkpt lat="37.8738230" lon="-6.0822380">
        <ele>476.8</ele>
        <time>2021-10-20T14:43:48Z</time>
      </trkpt>
      <trkpt lat="37.8738190" lon="-6.0822590">
        <ele>477.0</ele>
        <time>2021-10-20T14:43:49Z</time>
      </trkpt>
      <trkpt lat="37.8738200" lon="-6.0822800">
        <ele>477.0</ele>
        <time>2021-10-20T14:43:50Z</time>
      </trkpt>
      <trkpt lat="37.8738300" lon="-6.0823090">
        <ele>477.0</ele>
        <time>2021-10-20T14:43:52Z</time>
      </trkpt>
      <trkpt lat="37.8738470" lon="-6.0823210">
        <ele>477.0</ele>
        <time>2021-10-20T14:43:54Z</time>
      </trkpt>
      <trkpt lat="37.8738580" lon="-6.0822720">
        <ele>477.0</ele>
        <time>2021-10-20T14:43:58Z</time>
      </trkpt>
      <trkpt lat="37.8738800" lon="-6.0821970">
        <ele>477.0</ele>
        <time>2021-10-20T14:44:02Z</time>
      </trkpt>
      <trkpt lat="37.8738950" lon="-6.0821540">
        <ele>476.8</ele>
        <time>2021-10-20T14:44:04Z</time>
      </trkpt>
      <trkpt lat="37.8739060" lon="-6.0821350">
        <ele>476.8</ele>
        <time>2021-10-20T14:44:08Z</time>
      </trkpt>
      <trkpt lat="37.8739370" lon="-6.0820700">
        <ele>476.4</ele>
        <time>2021-10-20T14:44:37Z</time>
      </trkpt>
      <trkpt lat="37.8739710" lon="-6.0820100">
        <ele>476.4</ele>
        <time>2021-10-20T14:44:39Z</time>
      </trkpt>
      <trkpt lat="37.8740590" lon="-6.0818210">
        <ele>476.2</ele>
        <time>2021-10-20T14:44:45Z</time>
      </trkpt>
      <trkpt lat="37.8741610" lon="-6.0816490">
        <ele>476.0</ele>
        <time>2021-10-20T14:44:51Z</time>
      </trkpt>
      <trkpt lat="37.8741710" lon="-6.0816290">
        <ele>475.8</ele>
        <time>2021-10-20T14:44:52Z</time>
      </trkpt>
      <trkpt lat="37.8741680" lon="-6.0816060">
        <ele>475.8</ele>
        <time>2021-10-20T14:44:53Z</time>
      </trkpt>
      <trkpt lat="37.8741490" lon="-6.0815470">
        <ele>475.8</ele>
        <time>2021-10-20T14:44:56Z</time>
      </trkpt>
      <trkpt lat="37.8741280" lon="-6.0814710">
        <ele>475.8</ele>
        <time>2021-10-20T14:44:59Z</time>
      </trkpt>
      <trkpt lat="37.8741040" lon="-6.0813690">
        <ele>475.6</ele>
        <time>2021-10-20T14:45:03Z</time>
      </trkpt>
      <trkpt lat="37.8740570" lon="-6.0811460">
        <ele>475.2</ele>
        <time>2021-10-20T14:45:11Z</time>
      </trkpt>
      <trkpt lat="37.8740320" lon="-6.0810630">
        <ele>475.2</ele>
        <time>2021-10-20T14:45:14Z</time>
      </trkpt>
      <trkpt lat="37.8740250" lon="-6.0810420">
        <ele>475.2</ele>
        <time>2021-10-20T14:45:15Z</time>
      </trkpt>
      <trkpt lat="37.8740160" lon="-6.0810160">
        <ele>475.2</ele>
        <time>2021-10-20T14:45:16Z</time>
      </trkpt>
      <trkpt lat="37.8739790" lon="-6.0808960">
        <ele>474.8</ele>
        <time>2021-10-20T14:45:20Z</time>
      </trkpt>
      <trkpt lat="37.8739520" lon="-6.0807520">
        <ele>474.4</ele>
        <time>2021-10-20T14:45:24Z</time>
      </trkpt>
      <trkpt lat="37.8739360" lon="-6.0806660">
        <ele>474.2</ele>
        <time>2021-10-20T14:45:28Z</time>
      </trkpt>
      <trkpt lat="37.8739340" lon="-6.0806620">
        <ele>474.0</ele>
        <time>2021-10-20T14:45:30Z</time>
      </trkpt>
      <trkpt lat="37.8739340" lon="-6.0806620">
        <ele>474.0</ele>
        <time>2021-10-20T14:45:31Z</time>
      </trkpt>
      <trkpt lat="37.8739710" lon="-6.0805990">
        <ele>454.7</ele>
        <time>2021-10-21T15:16:11Z</time>
      </trkpt>
      <trkpt lat="37.8739080" lon="-6.0800150">
        <ele>454.4</ele>
        <time>2021-10-21T15:16:11Z</time>
      </trkpt>
      <trkpt lat="37.8736050" lon="-6.0797520">
        <ele>454.8</ele>
        <time>2021-10-21T15:16:11Z</time>
      </trkpt>
      <trkpt lat="37.8734880" lon="-6.0793470">
        <ele>453.7</ele>
        <time>2021-10-21T15:16:11Z</time>
      </trkpt>
      <trkpt lat="37.8732470" lon="-6.0792560">
        <ele>452.0</ele>
        <time>2021-10-21T15:16:11Z</time>
      </trkpt>
      <trkpt lat="37.8728700" lon="-6.0799720">
        <ele>451.7</ele>
        <time>2021-10-21T15:16:11Z</time>
      </trkpt>
      <trkpt lat="37.8719240" lon="-6.0800960">
        <ele>450.0</ele>
        <time>2021-10-21T15:16:11Z</time>
      </trkpt>
      <trkpt lat="37.8718800" lon="-6.0802620">
        <ele>450.0</ele>
        <time>2021-10-21T15:16:11Z</time>
      </trkpt>
      <trkpt lat="37.8712670" lon="-6.0802990">
        <ele>454.4</ele>
        <time>2021-10-21T15:16:11Z</time>
      </trkpt>
      <trkpt lat="37.8708040" lon="-6.0802000">
        <ele>460.6</ele>
        <time>2021-10-21T15:16:11Z</time>
      </trkpt>
      <trkpt lat="37.8699930" lon="-6.0803610">
        <ele>469.1</ele>
        <time>2021-10-21T15:16:11Z</time>
      </trkpt>
      <trkpt lat="37.8697610" lon="-6.0805510">
        <ele>473.6</ele>
        <time>2021-10-21T15:16:11Z</time>
      </trkpt>
      <trkpt lat="37.8686290" lon="-6.0798810">
        <ele>493.5</ele>
        <time>2021-10-21T15:16:11Z</time>
      </trkpt>
      <trkpt lat="37.8678010" lon="-6.0797120">
        <ele>510.5</ele>
        <time>2021-10-21T15:16:11Z</time>
      </trkpt>
      <trkpt lat="37.8673440" lon="-6.0796000">
        <ele>520.7</ele>
        <time>2021-10-21T15:16:11Z</time>
      </trkpt>
      <trkpt lat="37.8672250" lon="-6.0795810">
        <ele>522.6</ele>
        <time>2021-10-21T15:16:11Z</time>
      </trkpt>
      <trkpt lat="37.8667260" lon="-6.0799990">
        <ele>522.2</ele>
        <time>2021-10-21T15:16:11Z</time>
      </trkpt>
      <trkpt lat="37.8661650" lon="-6.0792310">
        <ele>531.6</ele>
        <time>2021-10-21T15:16:11Z</time>
      </trkpt>
      <trkpt lat="37.8659430" lon="-6.0790360">
        <ele>535.0</ele>
        <time>2021-10-21T15:16:11Z</time>
      </trkpt>
      <trkpt lat="37.8656560" lon="-6.0789090">
        <ele>539.1</ele>
        <time>2021-10-21T15:16:11Z</time>
      </trkpt>
      <trkpt lat="37.8653340" lon="-6.0787550">
        <ele>543.6</ele>
        <time>2021-10-21T15:16:11Z</time>
      </trkpt>
      <trkpt lat="37.8650320" lon="-6.0787080">
        <ele>548.3</ele>
        <time>2021-10-21T15:16:11Z</time>
      </trkpt>
      <trkpt lat="37.8646660" lon="-6.0788950">
        <ele>555.2</ele>
        <time>2021-10-21T15:16:11Z</time>
      </trkpt>
      <trkpt lat="37.8642200" lon="-6.0795360">
        <ele>543.7</ele>
        <time>2021-10-21T15:16:11Z</time>
      </trkpt>
      <trkpt lat="37.8638730" lon="-6.0785890">
        <ele>529.6</ele>
        <time>2021-10-21T15:16:11Z</time>
      </trkpt>
      <trkpt lat="37.8633900" lon="-6.0778690">
        <ele>514.7</ele>
        <time>2021-10-21T15:16:11Z</time>
      </trkpt>
      <trkpt lat="37.8598760" lon="-6.0775860">
        <ele>462.9</ele>
        <time>2021-10-21T15:16:11Z</time>
      </trkpt>
      <trkpt lat="37.8594830" lon="-6.0776370">
        <ele>458.7</ele>
        <time>2021-10-21T15:16:11Z</time>
      </trkpt>
      <trkpt lat="37.8588280" lon="-6.0772710">
        <ele>454.2</ele>
        <time>2021-10-21T15:16:11Z</time>
      </trkpt>
      <trkpt lat="37.8581080" lon="-6.0775210">
        <ele>451.0</ele>
        <time>2021-10-21T15:16:11Z</time>
      </trkpt>
      <trkpt lat="37.8576870" lon="-6.0776320">
        <ele>448.8</ele>
        <time>2021-10-21T15:16:11Z</time>
      </trkpt>
      <trkpt lat="37.8563440" lon="-6.0772660">
        <ele>443.8</ele>
        <time>2021-10-21T15:16:11Z</time>
      </trkpt>
      <trkpt lat="37.8553640" lon="-6.0769340">
        <ele>441.0</ele>
        <time>2021-10-21T15:16:11Z</time>
      </trkpt>
      <trkpt lat="37.8547500" lon="-6.0768710">
        <ele>438.8</ele>
        <time>2021-10-21T15:16:11Z</time>
      </trkpt>
      <trkpt lat="37.8536900" lon="-6.0764750">
        <ele>436.6</ele>
        <time>2021-10-21T15:16:11Z</time>
      </trkpt>
      <trkpt lat="37.8530460" lon="-6.0761340">
        <ele>434.5</ele>
        <time>2021-10-21T15:16:11Z</time>
      </trkpt>
      <trkpt lat="37.8524170" lon="-6.0754030">
        <ele>431.4</ele>
        <time>2021-10-21T15:16:11Z</time>
      </trkpt>
      <trkpt lat="37.8515360" lon="-6.0749950">
        <ele>428.9</ele>
        <time>2021-10-21T15:16:11Z</time>
      </trkpt>
      <trkpt lat="37.8504430" lon="-6.0747810">
        <ele>426.8</ele>
        <time>2021-10-21T15:16:11Z</time>
      </trkpt>
      <trkpt lat="37.8492320" lon="-6.0744610">
        <ele>422.8</ele>
        <time>2021-10-21T15:16:11Z</time>
      </trkpt>
      <trkpt lat="37.8479330" lon="-6.0744180">
        <ele>418.5</ele>
        <time>2021-10-21T15:16:11Z</time>
      </trkpt>
      <trkpt lat="37.8474920" lon="-6.0741170">
        <ele>417.7</ele>
        <time>2021-10-21T15:16:11Z</time>
      </trkpt>
      <trkpt lat="37.8473490" lon="-6.0737650">
        <ele>416.9</ele>
        <time>2021-10-21T15:16:11Z</time>
      </trkpt>
      <trkpt lat="37.8470730" lon="-6.0734030">
        <ele>415.4</ele>
        <time>2021-10-21T15:16:11Z</time>
      </trkpt>
      <trkpt lat="37.8464550" lon="-6.0732900">
        <ele>414.0</ele>
        <time>2021-10-21T15:16:11Z</time>
      </trkpt>
      <trkpt lat="37.8459840" lon="-6.0733000">
        <ele>413.2</ele>
        <time>2021-10-21T15:16:11Z</time>
      </trkpt>
      <trkpt lat="37.8457530" lon="-6.0739200">
        <ele>412.6</ele>
        <time>2021-10-21T15:16:11Z</time>
      </trkpt>
      <trkpt lat="37.8452450" lon="-6.0745170">
        <ele>417.6</ele>
        <time>2021-10-21T15:16:11Z</time>
      </trkpt>
      <trkpt lat="37.8451230" lon="-6.0748320">
        <ele>420.2</ele>
        <time>2021-10-21T15:16:11Z</time>
      </trkpt>
      <trkpt lat="37.8448820" lon="-6.0748480">
        <ele>421.6</ele>
        <time>2021-10-21T15:16:11Z</time>
      </trkpt>
      <trkpt lat="37.8447360" lon="-6.0750750">
        <ele>421.7</ele>
        <time>2021-10-21T15:16:11Z</time>
      </trkpt>
      <trkpt lat="37.8444580" lon="-6.0760100">
        <ele>422.2</ele>
        <time>2021-10-21T15:16:11Z</time>
      </trkpt>
      <trkpt lat="37.8440670" lon="-6.0761760">
        <ele>420.3</ele>
        <time>2021-10-21T15:16:11Z</time>
      </trkpt>
      <trkpt lat="37.8433760" lon="-6.0764730">
        <ele>417.1</ele>
        <time>2021-10-21T15:16:11Z</time>
      </trkpt>
      <trkpt lat="37.8426570" lon="-6.0761190">
        <ele>415.3</ele>
        <time>2021-10-21T15:16:11Z</time>
      </trkpt>
      <trkpt lat="37.8419350" lon="-6.0763280">
        <ele>411.7</ele>
        <time>2021-10-21T15:16:11Z</time>
      </trkpt>
      <trkpt lat="37.8415860" lon="-6.0764160">
        <ele>410.4</ele>
        <time>2021-10-21T15:16:11Z</time>
      </trkpt>
      <trkpt lat="37.8403470" lon="-6.0756080">
        <ele>410.5</ele>
        <time>2021-10-21T15:16:11Z</time>
      </trkpt>
      <trkpt lat="37.8401080" lon="-6.0757660">
        <ele>409.7</ele>
        <time>2021-10-21T15:16:11Z</time>
      </trkpt>
      <trkpt lat="37.8399120" lon="-6.0757100">
        <ele>409.1</ele>
        <time>2021-10-21T15:16:11Z</time>
      </trkpt>
      <trkpt lat="37.8382350" lon="-6.0749050">
        <ele>396.6</ele>
        <time>2021-10-21T15:16:11Z</time>
      </trkpt>
      <trkpt lat="37.8379180" lon="-6.0748740">
        <ele>393.9</ele>
        <time>2021-10-21T15:16:11Z</time>
      </trkpt>
      <trkpt lat="37.8376560" lon="-6.0749830">
        <ele>391.7</ele>
        <time>2021-10-21T15:16:11Z</time>
      </trkpt>
      <trkpt lat="37.8374530" lon="-6.0751850">
        <ele>391.0</ele>
        <time>2021-10-21T15:16:11Z</time>
      </trkpt>
      <trkpt lat="37.8371390" lon="-6.0756680">
        <ele>390.6</ele>
        <time>2021-10-21T15:16:11Z</time>
      </trkpt>
      <trkpt lat="37.8367210" lon="-6.0756470">
        <ele>390.9</ele>
        <time>2021-10-21T15:16:11Z</time>
      </trkpt>
      <trkpt lat="37.8362410" lon="-6.0753100">
        <ele>392.9</ele>
        <time>2021-10-21T15:16:11Z</time>
      </trkpt>
      <trkpt lat="37.8357610" lon="-6.0745680">
        <ele>395.4</ele>
        <time>2021-10-21T15:16:11Z</time>
      </trkpt>
      <trkpt lat="37.8351510" lon="-6.0738980">
        <ele>402.4</ele>
        <time>2021-10-21T15:16:11Z</time>
      </trkpt>
      <trkpt lat="37.8344600" lon="-6.0738270">
        <ele>406.4</ele>
        <time>2021-10-21T15:16:11Z</time>
      </trkpt>
      <trkpt lat="37.8339900" lon="-6.0738920">
        <ele>404.1</ele>
        <time>2021-10-21T15:16:11Z</time>
      </trkpt>
      <trkpt lat="37.8337250" lon="-6.0738840">
        <ele>402.4</ele>
        <time>2021-10-21T15:16:11Z</time>
      </trkpt>
      <trkpt lat="37.8335200" lon="-6.0740720">
        <ele>399.8</ele>
        <time>2021-10-21T15:16:11Z</time>
      </trkpt>
      <trkpt lat="37.8331330" lon="-6.0741510">
        <ele>395.8</ele>
        <time>2021-10-21T15:16:11Z</time>
      </trkpt>
      <trkpt lat="37.8326900" lon="-6.0740790">
        <ele>393.3</ele>
        <time>2021-10-21T15:16:11Z</time>
      </trkpt>
      <trkpt lat="37.8310840" lon="-6.0739330">
        <ele>390.3</ele>
        <time>2021-10-21T15:16:11Z</time>
      </trkpt>
      <trkpt lat="37.8293220" lon="-6.0739400">
        <ele>388.0</ele>
        <time>2021-10-21T15:16:11Z</time>
      </trkpt>
      <trkpt lat="37.8282270" lon="-6.0733160">
        <ele>383.6</ele>
        <time>2021-10-21T15:16:11Z</time>
      </trkpt>
      <trkpt lat="37.8277350" lon="-6.0732120">
        <ele>382.0</ele>
        <time>2021-10-21T15:16:11Z</time>
      </trkpt>
      <trkpt lat="37.8273280" lon="-6.0729450">
        <ele>382.5</ele>
        <time>2021-10-21T15:16:11Z</time>
      </trkpt>
      <trkpt lat="37.8260320" lon="-6.0724260">
        <ele>382.3</ele>
        <time>2021-10-21T15:16:11Z</time>
      </trkpt>
      <trkpt lat="37.8256820" lon="-6.0723520">
        <ele>382.1</ele>
        <time>2021-10-21T15:16:11Z</time>
      </trkpt>
      <trkpt lat="37.8251440" lon="-6.0721040">
        <ele>382.3</ele>
        <time>2021-10-21T15:16:11Z</time>
      </trkpt>
      <trkpt lat="37.8249450" lon="-6.0721030">
        <ele>382.5</ele>
        <time>2021-10-21T15:16:11Z</time>
      </trkpt>
      <trkpt lat="37.8245860" lon="-6.0722750">
        <ele>382.5</ele>
        <time>2021-10-21T15:16:11Z</time>
      </trkpt>
      <trkpt lat="37.8239710" lon="-6.0724460">
        <ele>377.6</ele>
        <time>2021-10-21T15:16:11Z</time>
      </trkpt>
      <trkpt lat="37.8235570" lon="-6.0723530">
        <ele>376.1</ele>
        <time>2021-10-21T15:16:11Z</time>
      </trkpt>
      <trkpt lat="37.8231000" lon="-6.0715850">
        <ele>371.3</ele>
        <time>2021-10-21T15:16:11Z</time>
      </trkpt>
      <trkpt lat="37.8226370" lon="-6.0712350">
        <ele>367.3</ele>
        <time>2021-10-21T15:16:11Z</time>
      </trkpt>
      <trkpt lat="37.8219970" lon="-6.0710680">
        <ele>364.4</ele>
        <time>2021-10-21T15:16:11Z</time>
      </trkpt>
      <trkpt lat="37.8216060" lon="-6.0706590">
        <ele>364.9</ele>
        <time>2021-10-21T15:16:11Z</time>
      </trkpt>
      <trkpt lat="37.8197670" lon="-6.0717570">
        <ele>363.3</ele>
        <time>2021-10-21T15:16:11Z</time>
      </trkpt>
      <trkpt lat="37.8188540" lon="-6.0713290">
        <ele>363.3</ele>
        <time>2021-10-21T15:16:11Z</time>
      </trkpt>
      <trkpt lat="37.8183020" lon="-6.0713860">
        <ele>362.7</ele>
        <time>2021-10-21T15:16:11Z</time>
      </trkpt>
      <trkpt lat="37.8176350" lon="-6.0712940">
        <ele>361.5</ele>
        <time>2021-10-21T15:16:11Z</time>
      </trkpt>
      <trkpt lat="37.8165770" lon="-6.0718490">
        <ele>362.2</ele>
        <time>2021-10-21T15:16:11Z</time>
      </trkpt>
      <trkpt lat="37.8152410" lon="-6.0724250">
        <ele>361.3</ele>
        <time>2021-10-21T15:16:11Z</time>
      </trkpt>
      <trkpt lat="37.8145650" lon="-6.0723420">
        <ele>358.8</ele>
        <time>2021-10-21T15:16:11Z</time>
      </trkpt>
      <trkpt lat="37.8141090" lon="-6.0722500">
        <ele>356.4</ele>
        <time>2021-10-21T15:16:11Z</time>
      </trkpt>
      <trkpt lat="37.8138110" lon="-6.0723670">
        <ele>355.6</ele>
        <time>2021-10-21T15:16:11Z</time>
      </trkpt>
      <trkpt lat="37.8136460" lon="-6.0726040">
        <ele>355.5</ele>
        <time>2021-10-21T15:16:11Z</time>
      </trkpt>
      <trkpt lat="37.8125630" lon="-6.0732830">
        <ele>357.4</ele>
        <time>2021-10-21T15:16:11Z</time>
      </trkpt>
      <trkpt lat="37.8121670" lon="-6.0733840">
        <ele>357.3</ele>
        <time>2021-10-21T15:16:11Z</time>
      </trkpt>
      <trkpt lat="37.8114170" lon="-6.0735530">
        <ele>355.4</ele>
        <time>2021-10-21T15:16:11Z</time>
      </trkpt>
      <trkpt lat="37.8109090" lon="-6.0739460">
        <ele>354.4</ele>
        <time>2021-10-21T15:16:11Z</time>
      </trkpt>
      <trkpt lat="37.8097980" lon="-6.0757280">
        <ele>355.8</ele>
        <time>2021-10-21T15:16:11Z</time>
      </trkpt>
      <trkpt lat="37.8092490" lon="-6.0767260">
        <ele>361.4</ele>
        <time>2021-10-21T15:16:11Z</time>
      </trkpt>
      <trkpt lat="37.8085750" lon="-6.0773430">
        <ele>366.9</ele>
        <time>2021-10-21T15:16:11Z</time>
      </trkpt>
      <trkpt lat="37.8080430" lon="-6.0777180">
        <ele>370.4</ele>
        <time>2021-10-21T15:16:11Z</time>
      </trkpt>
      <trkpt lat="37.8075830" lon="-6.0781620">
        <ele>375.2</ele>
        <time>2021-10-21T15:16:11Z</time>
      </trkpt>
      <trkpt lat="37.8073710" lon="-6.0780470">
        <ele>377.1</ele>
        <time>2021-10-21T15:16:11Z</time>
      </trkpt>
      <trkpt lat="37.8072440" lon="-6.0777600">
        <ele>378.6</ele>
        <time>2021-10-21T15:16:11Z</time>
      </trkpt>
      <trkpt lat="37.8069840" lon="-6.0774080">
        <ele>380.3</ele>
        <time>2021-10-21T15:16:11Z</time>
      </trkpt>
      <trkpt lat="37.8067250" lon="-6.0771490">
        <ele>381.9</ele>
        <time>2021-10-21T15:16:11Z</time>
      </trkpt>
      <trkpt lat="37.8064160" lon="-6.0768610">
        <ele>383.5</ele>
        <time>2021-10-21T15:16:11Z</time>
      </trkpt>
      <trkpt lat="37.8061350" lon="-6.0766370">
        <ele>385.3</ele>
        <time>2021-10-21T15:16:11Z</time>
      </trkpt>
      <trkpt lat="37.8058100" lon="-6.0767180">
        <ele>387.0</ele>
        <time>2021-10-21T15:16:11Z</time>
      </trkpt>
      <trkpt lat="37.8053770" lon="-6.0766700">
        <ele>388.4</ele>
        <time>2021-10-21T15:16:11Z</time>
      </trkpt>
      <trkpt lat="37.8049710" lon="-6.0765270">
        <ele>389.5</ele>
        <time>2021-10-21T15:16:11Z</time>
      </trkpt>
      <trkpt lat="37.8044020" lon="-6.0763120">
        <ele>392.3</ele>
        <time>2021-10-21T15:16:11Z</time>
      </trkpt>
      <trkpt lat="37.8038860" lon="-6.0760340">
        <ele>393.6</ele>
        <time>2021-10-21T15:16:11Z</time>
      </trkpt>
      <trkpt lat="37.8035810" lon="-6.0756420">
        <ele>395.2</ele>
        <time>2021-10-21T15:16:11Z</time>
      </trkpt>
      <trkpt lat="37.8033030" lon="-6.0753490">
        <ele>395.9</ele>
        <time>2021-10-21T15:16:11Z</time>
      </trkpt>
      <trkpt lat="37.8029900" lon="-6.0748460">
        <ele>397.4</ele>
        <time>2021-10-21T15:16:11Z</time>
      </trkpt>
      <trkpt lat="37.8029820" lon="-6.0748370">
        <ele>397.5</ele>
        <time>2021-10-21T15:16:11Z</time>
      </trkpt>
      <trkpt lat="37.8026790" lon="-6.0743880">
        <ele>399.4</ele>
        <time>2021-10-21T15:16:11Z</time>
      </trkpt>
      <trkpt lat="37.8024350" lon="-6.0739260">
        <ele>402.0</ele>
        <time>2021-10-21T15:16:11Z</time>
      </trkpt>
      <trkpt lat="37.8022330" lon="-6.0734710">
        <ele>404.3</ele>
        <time>2021-10-21T15:16:11Z</time>
      </trkpt>
      <trkpt lat="37.8020490" lon="-6.0730800">
        <ele>403.4</ele>
        <time>2021-10-21T15:16:11Z</time>
      </trkpt>
      <trkpt lat="37.8018600" lon="-6.0726300">
        <ele>401.2</ele>
        <time>2021-10-21T15:16:11Z</time>
      </trkpt>
      <trkpt lat="37.8016460" lon="-6.0724550">
        <ele>399.8</ele>
        <time>2021-10-21T15:16:11Z</time>
      </trkpt>
      <trkpt lat="37.8013890" lon="-6.0724260">
        <ele>398.2</ele>
        <time>2021-10-21T15:16:11Z</time>
      </trkpt>
      <trkpt lat="37.8011690" lon="-6.0725240">
        <ele>396.7</ele>
        <time>2021-10-21T15:16:11Z</time>
      </trkpt>
      <trkpt lat="37.8011650" lon="-6.0725350">
        <ele>396.6</ele>
        <time>2021-10-21T15:16:11Z</time>
      </trkpt>
      <trkpt lat="37.8009520" lon="-6.0727850">
        <ele>395.0</ele>
        <time>2021-10-21T15:16:11Z</time>
      </trkpt>
      <trkpt lat="37.8007340" lon="-6.0731370">
        <ele>393.5</ele>
        <time>2021-10-21T15:16:11Z</time>
      </trkpt>
      <trkpt lat="37.8003280" lon="-6.0736680">
        <ele>393.1</ele>
        <time>2021-10-21T15:16:11Z</time>
      </trkpt>
      <trkpt lat="37.8001020" lon="-6.0741280">
        <ele>392.8</ele>
        <time>2021-10-21T15:16:11Z</time>
      </trkpt>
      <trkpt lat="37.7998980" lon="-6.0746260">
        <ele>390.9</ele>
        <time>2021-10-21T15:16:11Z</time>
      </trkpt>
      <trkpt lat="37.7997650" lon="-6.0749960">
        <ele>389.7</ele>
        <time>2021-10-21T15:16:11Z</time>
      </trkpt>
      <trkpt lat="37.7994110" lon="-6.0751900">
        <ele>390.0</ele>
        <time>2021-10-21T15:16:11Z</time>
      </trkpt>
      <trkpt lat="37.7992170" lon="-6.0753930">
        <ele>392.1</ele>
        <time>2021-10-21T15:16:11Z</time>
      </trkpt>
      <trkpt lat="37.7984550" lon="-6.0760190">
        <ele>398.9</ele>
        <time>2021-10-21T15:16:11Z</time>
      </trkpt>
      <trkpt lat="37.7981630" lon="-6.0764820">
        <ele>401.6</ele>
        <time>2021-10-21T15:16:11Z</time>
      </trkpt>
      <trkpt lat="37.7979510" lon="-6.0770630">
        <ele>402.5</ele>
        <time>2021-10-21T15:16:11Z</time>
      </trkpt>
      <trkpt lat="37.7978620" lon="-6.0772020">
        <ele>402.4</ele>
        <time>2021-10-21T15:16:11Z</time>
      </trkpt>
      <trkpt lat="37.7974950" lon="-6.0774930">
        <ele>403.5</ele>
        <time>2021-10-21T15:16:11Z</time>
      </trkpt>
      <trkpt lat="37.7969210" lon="-6.0776700">
        <ele>406.1</ele>
        <time>2021-10-21T15:16:11Z</time>
      </trkpt>
      <trkpt lat="37.7965870" lon="-6.0778960">
        <ele>406.1</ele>
        <time>2021-10-21T15:16:11Z</time>
      </trkpt>
      <trkpt lat="37.7963030" lon="-6.0781100">
        <ele>404.7</ele>
        <time>2021-10-21T15:16:11Z</time>
      </trkpt>
      <trkpt lat="37.7958000" lon="-6.0781910">
        <ele>405.0</ele>
        <time>2021-10-21T15:16:11Z</time>
      </trkpt>
      <trkpt lat="37.7953540" lon="-6.0782640">
        <ele>408.3</ele>
        <time>2021-10-21T15:16:11Z</time>
      </trkpt>
      <trkpt lat="37.7949590" lon="-6.0783340">
        <ele>411.8</ele>
        <time>2021-10-21T15:16:11Z</time>
      </trkpt>
      <trkpt lat="37.7947490" lon="-6.0781600">
        <ele>413.4</ele>
        <time>2021-10-21T15:16:11Z</time>
      </trkpt>
      <trkpt lat="37.7944400" lon="-6.0777660">
        <ele>417.0</ele>
        <time>2021-10-21T15:16:11Z</time>
      </trkpt>
      <trkpt lat="37.7940330" lon="-6.0771960">
        <ele>423.9</ele>
        <time>2021-10-21T15:16:11Z</time>
      </trkpt>
      <trkpt lat="37.7937560" lon="-6.0768910">
        <ele>427.8</ele>
        <time>2021-10-21T15:16:11Z</time>
      </trkpt>
      <trkpt lat="37.7934450" lon="-6.0766030">
        <ele>431.6</ele>
        <time>2021-10-21T15:16:11Z</time>
      </trkpt>
      <trkpt lat="37.7932090" lon="-6.0764400">
        <ele>434.3</ele>
        <time>2021-10-21T15:16:11Z</time>
      </trkpt>
      <trkpt lat="37.7928040" lon="-6.0764190">
        <ele>438.4</ele>
        <time>2021-10-21T15:16:11Z</time>
      </trkpt>
      <trkpt lat="37.7922640" lon="-6.0763480">
        <ele>443.4</ele>
        <time>2021-10-21T15:16:11Z</time>
      </trkpt>
      <trkpt lat="37.7918930" lon="-6.0763690">
        <ele>446.8</ele>
        <time>2021-10-21T15:16:11Z</time>
      </trkpt>
      <trkpt lat="37.7916410" lon="-6.0762580">
        <ele>448.6</ele>
        <time>2021-10-21T15:16:11Z</time>
      </trkpt>
      <trkpt lat="37.7914690" lon="-6.0760040">
        <ele>450.0</ele>
        <time>2021-10-21T15:16:11Z</time>
      </trkpt>
      <trkpt lat="37.7912870" lon="-6.0756730">
        <ele>451.1</ele>
        <time>2021-10-21T15:16:11Z</time>
      </trkpt>
      <trkpt lat="37.7911110" lon="-6.0753310">
        <ele>451.7</ele>
        <time>2021-10-21T15:16:11Z</time>
      </trkpt>
      <trkpt lat="37.7909320" lon="-6.0751000">
        <ele>452.6</ele>
        <time>2021-10-21T15:16:11Z</time>
      </trkpt>
      <trkpt lat="37.7906800" lon="-6.0750450">
        <ele>454.2</ele>
        <time>2021-10-21T15:16:11Z</time>
      </trkpt>
      <trkpt lat="37.7904460" lon="-6.0751200">
        <ele>456.6</ele>
        <time>2021-10-21T15:16:11Z</time>
      </trkpt>
      <trkpt lat="37.7904460" lon="-6.0751340">
        <ele>456.7</ele>
        <time>2021-10-21T15:16:11Z</time>
      </trkpt>
      <trkpt lat="37.7903240" lon="-6.0753300">
        <ele>458.8</ele>
        <time>2021-10-21T15:16:11Z</time>
      </trkpt>
      <trkpt lat="37.7903150" lon="-6.0753710">
        <ele>459.1</ele>
        <time>2021-10-21T15:16:11Z</time>
      </trkpt>
      <trkpt lat="37.7899890" lon="-6.0764660">
        <ele>465.1</ele>
        <time>2021-10-21T15:16:11Z</time>
      </trkpt>
      <trkpt lat="37.7898950" lon="-6.0765920">
        <ele>466.0</ele>
        <time>2021-10-21T15:16:11Z</time>
      </trkpt>
      <trkpt lat="37.7893400" lon="-6.0771670">
        <ele>469.0</ele>
        <time>2021-10-21T15:16:11Z</time>
      </trkpt>
      <trkpt lat="37.7873540" lon="-6.0789900">
        <ele>484.0</ele>
        <time>2021-10-21T15:16:11Z</time>
      </trkpt>
      <trkpt lat="37.7872350" lon="-6.0792350">
        <ele>485.3</ele>
        <time>2021-10-21T15:16:11Z</time>
      </trkpt>
      <trkpt lat="37.7870760" lon="-6.0796020">
        <ele>486.8</ele>
        <time>2021-10-21T15:16:11Z</time>
      </trkpt>
      <trkpt lat="37.7860160" lon="-6.0825390">
        <ele>499.6</ele>
        <time>2021-10-21T15:16:11Z</time>
      </trkpt>
      <trkpt lat="37.7858720" lon="-6.0828120">
        <ele>501.1</ele>
        <time>2021-10-21T15:16:11Z</time>
      </trkpt>
      <trkpt lat="37.7855370" lon="-6.0833070">
        <ele>502.3</ele>
        <time>2021-10-21T15:16:11Z</time>
      </trkpt>
      <trkpt lat="37.7848150" lon="-6.0841670">
        <ele>502.8</ele>
        <time>2021-10-21T15:16:11Z</time>
      </trkpt>
      <trkpt lat="37.7837770" lon="-6.0853630">
        <ele>503.7</ele>
        <time>2021-10-21T15:16:11Z</time>
      </trkpt>
      <trkpt lat="37.7833400" lon="-6.0858070">
        <ele>504.0</ele>
        <time>2021-10-21T15:16:11Z</time>
      </trkpt>
      <trkpt lat="37.7829680" lon="-6.0860800">
        <ele>503.7</ele>
        <time>2021-10-21T15:16:11Z</time>
      </trkpt>
      <trkpt lat="37.7826980" lon="-6.0861930">
        <ele>503.4</ele>
        <time>2021-10-21T15:16:11Z</time>
      </trkpt>
      <trkpt lat="37.7823210" lon="-6.0863610">
        <ele>502.6</ele>
        <time>2021-10-21T15:16:11Z</time>
      </trkpt>
      <trkpt lat="37.7818150" lon="-6.0859620">
        <ele>500.8</ele>
        <time>2021-10-21T15:16:11Z</time>
      </trkpt>
      <trkpt lat="37.7809780" lon="-6.0852950">
        <ele>498.5</ele>
        <time>2021-10-21T15:16:11Z</time>
      </trkpt>
      <trkpt lat="37.7801750" lon="-6.0847240">
        <ele>497.6</ele>
        <time>2021-10-21T15:16:11Z</time>
      </trkpt>
      <trkpt lat="37.7795380" lon="-6.0843080">
        <ele>495.4</ele>
        <time>2021-10-21T15:16:11Z</time>
      </trkpt>
      <trkpt lat="37.7788770" lon="-6.0835610">
        <ele>492.3</ele>
        <time>2021-10-21T15:16:11Z</time>
      </trkpt>
      <trkpt lat="37.7781290" lon="-6.0827620">
        <ele>491.6</ele>
        <time>2021-10-21T15:16:11Z</time>
      </trkpt>
      <trkpt lat="37.7778050" lon="-6.0820880">
        <ele>491.7</ele>
        <time>2021-10-21T15:16:11Z</time>
      </trkpt>
      <trkpt lat="37.7775510" lon="-6.0813880">
        <ele>493.2</ele>
        <time>2021-10-21T15:16:11Z</time>
      </trkpt>
      <trkpt lat="37.7771500" lon="-6.0806960">
        <ele>496.9</ele>
        <time>2021-10-21T15:16:11Z</time>
      </trkpt>
      <trkpt lat="37.7760950" lon="-6.0796270">
        <ele>503.1</ele>
        <time>2021-10-21T15:16:11Z</time>
      </trkpt>
      <trkpt lat="37.7750660" lon="-6.0786530">
        <ele>506.4</ele>
        <time>2021-10-21T15:16:11Z</time>
      </trkpt>
      <trkpt lat="37.7740620" lon="-6.0777560">
        <ele>509.1</ele>
        <time>2021-10-21T15:16:11Z</time>
      </trkpt>
      <trkpt lat="37.7730960" lon="-6.0764350">
        <ele>508.7</ele>
        <time>2021-10-21T15:16:11Z</time>
      </trkpt>
      <trkpt lat="37.7724370" lon="-6.0757240">
        <ele>504.1</ele>
        <time>2021-10-21T15:16:11Z</time>
      </trkpt>
      <trkpt lat="37.7708450" lon="-6.0739720">
        <ele>498.5</ele>
        <time>2021-10-21T15:16:11Z</time>
      </trkpt>
      <trkpt lat="37.7700280" lon="-6.0698000">
        <ele>497.2</ele>
        <time>2021-10-21T15:16:11Z</time>
      </trkpt>
      <trkpt lat="37.7700130" lon="-6.0695630">
        <ele>496.9</ele>
        <time>2021-10-21T15:16:11Z</time>
      </trkpt>
      <trkpt lat="37.7699800" lon="-6.0691560">
        <ele>496.6</ele>
        <time>2021-10-21T15:16:11Z</time>
      </trkpt>
      <trkpt lat="37.7699600" lon="-6.0690460">
        <ele>496.5</ele>
        <time>2021-10-21T15:16:11Z</time>
      </trkpt>
      <trkpt lat="37.7698630" lon="-6.0686550">
        <ele>495.8</ele>
        <time>2021-10-21T15:16:11Z</time>
      </trkpt>
      <trkpt lat="37.7698480" lon="-6.0685980">
        <ele>495.7</ele>
        <time>2021-10-21T15:16:11Z</time>
      </trkpt>
      <trkpt lat="37.7697940" lon="-6.0683580">
        <ele>495.3</ele>
        <time>2021-10-21T15:16:11Z</time>
      </trkpt>
      <trkpt lat="37.7696960" lon="-6.0680500">
        <ele>494.7</ele>
        <time>2021-10-21T15:16:11Z</time>
      </trkpt>
      <trkpt lat="37.7695540" lon="-6.0678040">
        <ele>494.2</ele>
        <time>2021-10-21T15:16:11Z</time>
      </trkpt>
      <trkpt lat="37.7694650" lon="-6.0676550">
        <ele>493.9</ele>
        <time>2021-10-21T15:16:11Z</time>
      </trkpt>
      <trkpt lat="37.7692750" lon="-6.0673410">
        <ele>493.3</ele>
        <time>2021-10-21T15:16:11Z</time>
      </trkpt>
      <trkpt lat="37.7690550" lon="-6.0669860">
        <ele>492.7</ele>
        <time>2021-10-21T15:16:11Z</time>
      </trkpt>
      <trkpt lat="37.7688500" lon="-6.0666580">
        <ele>492.1</ele>
        <time>2021-10-21T15:16:11Z</time>
      </trkpt>
      <trkpt lat="37.7686860" lon="-6.0663940">
        <ele>491.5</ele>
        <time>2021-10-21T15:16:11Z</time>
      </trkpt>
      <trkpt lat="37.7684060" lon="-6.0659640">
        <ele>490.6</ele>
        <time>2021-10-21T15:16:11Z</time>
      </trkpt>
      <trkpt lat="37.7682970" lon="-6.0658230">
        <ele>490.3</ele>
        <time>2021-10-21T15:16:11Z</time>
      </trkpt>
      <trkpt lat="37.7680080" lon="-6.0654530">
        <ele>489.4</ele>
        <time>2021-10-21T15:16:11Z</time>
      </trkpt>
      <trkpt lat="37.7678870" lon="-6.0653070">
        <ele>488.9</ele>
        <time>2021-10-21T15:16:11Z</time>
      </trkpt>
      <trkpt lat="37.7675810" lon="-6.0649090">
        <ele>487.7</ele>
        <time>2021-10-21T15:16:11Z</time>
      </trkpt>
      <trkpt lat="37.7674730" lon="-6.0647290">
        <ele>487.2</ele>
        <time>2021-10-21T15:16:11Z</time>
      </trkpt>
      <trkpt lat="37.7672210" lon="-6.0643260">
        <ele>485.7</ele>
        <time>2021-10-21T15:16:11Z</time>
      </trkpt>
      <trkpt lat="37.7670820" lon="-6.0641470">
        <ele>484.6</ele>
        <time>2021-10-21T15:16:11Z</time>
      </trkpt>
      <trkpt lat="37.7669640" lon="-6.0640050">
        <ele>483.6</ele>
        <time>2021-10-21T15:16:11Z</time>
      </trkpt>
      <trkpt lat="37.7667080" lon="-6.0637620">
        <ele>481.5</ele>
        <time>2021-10-21T15:16:11Z</time>
      </trkpt>
      <trkpt lat="37.7666410" lon="-6.0637000">
        <ele>481.0</ele>
        <time>2021-10-21T15:16:11Z</time>
      </trkpt>
      <trkpt lat="37.7663670" lon="-6.0634340">
        <ele>479.0</ele>
        <time>2021-10-21T15:16:11Z</time>
      </trkpt>
      <trkpt lat="37.7662490" lon="-6.0633080">
        <ele>478.5</ele>
        <time>2021-10-21T15:16:11Z</time>
      </trkpt>
      <trkpt lat="37.7661840" lon="-6.0632360">
        <ele>478.2</ele>
        <time>2021-10-21T15:16:11Z</time>
      </trkpt>
      <trkpt lat="37.7660030" lon="-6.0630130">
        <ele>477.4</ele>
        <time>2021-10-21T15:16:11Z</time>
      </trkpt>
      <trkpt lat="37.7658280" lon="-6.0627530">
        <ele>477.2</ele>
        <time>2021-10-21T15:16:11Z</time>
      </trkpt>
      <trkpt lat="37.7657330" lon="-6.0626130">
        <ele>477.5</ele>
        <time>2021-10-21T15:16:11Z</time>
      </trkpt>
      <trkpt lat="37.7655510" lon="-6.0623250">
        <ele>479.0</ele>
        <time>2021-10-21T15:16:11Z</time>
      </trkpt>
      <trkpt lat="37.7655240" lon="-6.0622820">
        <ele>479.3</ele>
        <time>2021-10-21T15:16:11Z</time>
      </trkpt>
      <trkpt lat="37.7654020" lon="-6.0620750">
        <ele>480.5</ele>
        <time>2021-10-21T15:16:11Z</time>
      </trkpt>
      <trkpt lat="37.7652100" lon="-6.0617660">
        <ele>482.2</ele>
        <time>2021-10-21T15:16:11Z</time>
      </trkpt>
      <trkpt lat="37.7651180" lon="-6.0616140">
        <ele>483.0</ele>
        <time>2021-10-21T15:16:11Z</time>
      </trkpt>
      <trkpt lat="37.7650390" lon="-6.0614890">
        <ele>483.4</ele>
        <time>2021-10-21T15:16:11Z</time>
      </trkpt>
      <trkpt lat="37.7650030" lon="-6.0614180">
        <ele>483.5</ele>
        <time>2021-10-21T15:16:11Z</time>
      </trkpt>
      <trkpt lat="37.7649500" lon="-6.0613390">
        <ele>483.5</ele>
        <time>2021-10-21T15:16:11Z</time>
      </trkpt>
      <trkpt lat="37.7648000" lon="-6.0611190">
        <ele>482.7</ele>
        <time>2021-10-21T15:16:11Z</time>
      </trkpt>
      <trkpt lat="37.7645880" lon="-6.0608160">
        <ele>481.3</ele>
        <time>2021-10-21T15:16:11Z</time>
      </trkpt>
      <trkpt lat="37.7645140" lon="-6.0607130">
        <ele>480.9</ele>
        <time>2021-10-21T15:16:11Z</time>
      </trkpt>
      <trkpt lat="37.7643720" lon="-6.0605200">
        <ele>480.0</ele>
        <time>2021-10-21T15:16:11Z</time>
      </trkpt>
      <trkpt lat="37.7642810" lon="-6.0603880">
        <ele>479.5</ele>
        <time>2021-10-21T15:16:11Z</time>
      </trkpt>
      <trkpt lat="37.7641430" lon="-6.0602000">
        <ele>478.6</ele>
        <time>2021-10-21T15:16:11Z</time>
      </trkpt>
      <trkpt lat="37.7640310" lon="-6.0600420">
        <ele>477.9</ele>
        <time>2021-10-21T15:16:11Z</time>
      </trkpt>
      <trkpt lat="37.7639360" lon="-6.0599060">
        <ele>477.3</ele>
        <time>2021-10-21T15:16:11Z</time>
      </trkpt>
      <trkpt lat="37.7637710" lon="-6.0596800">
        <ele>476.4</ele>
        <time>2021-10-21T15:16:11Z</time>
      </trkpt>
      <trkpt lat="37.7636060" lon="-6.0594490">
        <ele>475.6</ele>
        <time>2021-10-21T15:16:11Z</time>
      </trkpt>
      <trkpt lat="37.7634370" lon="-6.0592110">
        <ele>475.1</ele>
        <time>2021-10-21T15:16:11Z</time>
      </trkpt>
      <trkpt lat="37.7631160" lon="-6.0587600">
        <ele>474.0</ele>
        <time>2021-10-21T15:16:11Z</time>
      </trkpt>
      <trkpt lat="37.7629200" lon="-6.0584780">
        <ele>473.0</ele>
        <time>2021-10-21T15:16:11Z</time>
      </trkpt>
      <trkpt lat="37.7628260" lon="-6.0583340">
        <ele>472.3</ele>
        <time>2021-10-21T15:16:11Z</time>
      </trkpt>
      <trkpt lat="37.7626300" lon="-6.0580290">
        <ele>470.5</ele>
        <time>2021-10-21T15:16:11Z</time>
      </trkpt>
      <trkpt lat="37.7624690" lon="-6.0577490">
        <ele>468.3</ele>
        <time>2021-10-21T15:16:11Z</time>
      </trkpt>
      <trkpt lat="37.7624280" lon="-6.0576730">
        <ele>467.7</ele>
        <time>2021-10-21T15:16:11Z</time>
      </trkpt>
      <trkpt lat="37.7622160" lon="-6.0572540">
        <ele>464.3</ele>
        <time>2021-10-21T15:16:11Z</time>
      </trkpt>
      <trkpt lat="37.7621620" lon="-6.0571390">
        <ele>463.5</ele>
        <time>2021-10-21T15:16:11Z</time>
      </trkpt>
      <trkpt lat="37.7621070" lon="-6.0570210">
        <ele>462.6</ele>
        <time>2021-10-21T15:16:11Z</time>
      </trkpt>
      <trkpt lat="37.7620520" lon="-6.0569000">
        <ele>461.7</ele>
        <time>2021-10-21T15:16:11Z</time>
      </trkpt>
      <trkpt lat="37.7619360" lon="-6.0566550">
        <ele>460.1</ele>
        <time>2021-10-21T15:16:11Z</time>
      </trkpt>
      <trkpt lat="37.7618210" lon="-6.0564070">
        <ele>458.5</ele>
        <time>2021-10-21T15:16:11Z</time>
      </trkpt>
      <trkpt lat="37.7617670" lon="-6.0562810">
        <ele>457.7</ele>
        <time>2021-10-21T15:16:11Z</time>
      </trkpt>
      <trkpt lat="37.7617110" lon="-6.0561520">
        <ele>456.9</ele>
        <time>2021-10-21T15:16:11Z</time>
      </trkpt>
      <trkpt lat="37.7615960" lon="-6.0558940">
        <ele>455.3</ele>
        <time>2021-10-21T15:16:11Z</time>
      </trkpt>
      <trkpt lat="37.7614770" lon="-6.0556340">
        <ele>453.5</ele>
        <time>2021-10-21T15:16:11Z</time>
      </trkpt>
      <trkpt lat="37.7614060" lon="-6.0554740">
        <ele>452.3</ele>
        <time>2021-10-21T15:16:11Z</time>
      </trkpt>
      <trkpt lat="37.7612970" lon="-6.0552310">
        <ele>450.6</ele>
        <time>2021-10-21T15:16:11Z</time>
      </trkpt>
      <trkpt lat="37.7612340" lon="-6.0550980">
        <ele>449.8</ele>
        <time>2021-10-21T15:16:11Z</time>
      </trkpt>
      <trkpt lat="37.7611730" lon="-6.0549630">
        <ele>448.9</ele>
        <time>2021-10-21T15:16:11Z</time>
      </trkpt>
      <trkpt lat="37.7610420" lon="-6.0546940">
        <ele>447.1</ele>
        <time>2021-10-21T15:16:11Z</time>
      </trkpt>
      <trkpt lat="37.7609010" lon="-6.0544300">
        <ele>444.8</ele>
        <time>2021-10-21T15:16:11Z</time>
      </trkpt>
      <trkpt lat="37.7608190" lon="-6.0543050">
        <ele>443.5</ele>
        <time>2021-10-21T15:16:11Z</time>
      </trkpt>
      <trkpt lat="37.7606420" lon="-6.0540660">
        <ele>441.0</ele>
        <time>2021-10-21T15:16:11Z</time>
      </trkpt>
      <trkpt lat="37.7604620" lon="-6.0538200">
        <ele>438.4</ele>
        <time>2021-10-21T15:16:11Z</time>
      </trkpt>
      <trkpt lat="37.7602940" lon="-6.0535560">
        <ele>435.7</ele>
        <time>2021-10-21T15:16:11Z</time>
      </trkpt>
      <trkpt lat="37.7601440" lon="-6.0532690">
        <ele>432.8</ele>
        <time>2021-10-21T15:16:11Z</time>
      </trkpt>
      <trkpt lat="37.7599760" lon="-6.0529470">
        <ele>429.5</ele>
        <time>2021-10-21T15:16:11Z</time>
      </trkpt>
      <trkpt lat="37.7599080" lon="-6.0528310">
        <ele>428.2</ele>
        <time>2021-10-21T15:16:11Z</time>
      </trkpt>
      <trkpt lat="37.7597280" lon="-6.0525440">
        <ele>425.1</ele>
        <time>2021-10-21T15:16:11Z</time>
      </trkpt>
      <trkpt lat="37.7595490" lon="-6.0522530">
        <ele>422.1</ele>
        <time>2021-10-21T15:16:11Z</time>
      </trkpt>
      <trkpt lat="37.7594590" lon="-6.0521060">
        <ele>420.7</ele>
        <time>2021-10-21T15:16:11Z</time>
      </trkpt>
      <trkpt lat="37.7593660" lon="-6.0519620">
        <ele>419.3</ele>
        <time>2021-10-21T15:16:11Z</time>
      </trkpt>
      <trkpt lat="37.7591780" lon="-6.0516860">
        <ele>416.7</ele>
        <time>2021-10-21T15:16:11Z</time>
      </trkpt>
      <trkpt lat="37.7590770" lon="-6.0515610">
        <ele>415.4</ele>
        <time>2021-10-21T15:16:11Z</time>
      </trkpt>
      <trkpt lat="37.7589650" lon="-6.0514490">
        <ele>414.2</ele>
        <time>2021-10-21T15:16:11Z</time>
      </trkpt>
      <trkpt lat="37.7588480" lon="-6.0513460">
        <ele>412.8</ele>
        <time>2021-10-21T15:16:11Z</time>
      </trkpt>
      <trkpt lat="37.7586040" lon="-6.0511510">
        <ele>409.5</ele>
        <time>2021-10-21T15:16:11Z</time>
      </trkpt>
      <trkpt lat="37.7584820" lon="-6.0510530">
        <ele>407.9</ele>
        <time>2021-10-21T15:16:11Z</time>
      </trkpt>
      <trkpt lat="37.7583640" lon="-6.0509490">
        <ele>406.8</ele>
        <time>2021-10-21T15:16:11Z</time>
      </trkpt>
      <trkpt lat="37.7581420" lon="-6.0507130">
        <ele>405.5</ele>
        <time>2021-10-21T15:16:11Z</time>
      </trkpt>
      <trkpt lat="37.7580230" lon="-6.0505560">
        <ele>405.5</ele>
        <time>2021-10-21T15:16:11Z</time>
      </trkpt>
      <trkpt lat="37.7579520" lon="-6.0504500">
        <ele>405.8</ele>
        <time>2021-10-21T15:16:11Z</time>
      </trkpt>
      <trkpt lat="37.7578680" lon="-6.0503260">
        <ele>406.4</ele>
        <time>2021-10-21T15:16:11Z</time>
      </trkpt>
      <trkpt lat="37.7577930" lon="-6.0502090">
        <ele>407.2</ele>
        <time>2021-10-21T15:16:11Z</time>
      </trkpt>
      <trkpt lat="37.7577260" lon="-6.0501050">
        <ele>407.9</ele>
        <time>2021-10-21T15:16:11Z</time>
      </trkpt>
      <trkpt lat="37.7575110" lon="-6.0497690">
        <ele>408.3</ele>
        <time>2021-10-21T15:16:11Z</time>
      </trkpt>
      <trkpt lat="37.7571560" lon="-6.0492200">
        <ele>405.0</ele>
        <time>2021-10-21T15:16:11Z</time>
      </trkpt>
      <trkpt lat="37.7570320" lon="-6.0490470">
        <ele>404.2</ele>
        <time>2021-10-21T15:16:11Z</time>
      </trkpt>
      <trkpt lat="37.7567690" lon="-6.0486950">
        <ele>403.6</ele>
        <time>2021-10-21T15:16:11Z</time>
      </trkpt>
      <trkpt lat="37.7566450" lon="-6.0485350">
        <ele>403.9</ele>
        <time>2021-10-21T15:16:11Z</time>
      </trkpt>
      <trkpt lat="37.7565300" lon="-6.0483940">
        <ele>404.2</ele>
        <time>2021-10-21T15:16:11Z</time>
      </trkpt>
      <trkpt lat="37.7564250" lon="-6.0482720">
        <ele>404.2</ele>
        <time>2021-10-21T15:16:11Z</time>
      </trkpt>
      <trkpt lat="37.7562680" lon="-6.0480980">
        <ele>403.6</ele>
        <time>2021-10-21T15:16:11Z</time>
      </trkpt>
      <trkpt lat="37.7562160" lon="-6.0480380">
        <ele>403.4</ele>
        <time>2021-10-21T15:16:11Z</time>
      </trkpt>
      <trkpt lat="37.7561730" lon="-6.0479880">
        <ele>403.1</ele>
        <time>2021-10-21T15:16:11Z</time>
      </trkpt>
      <trkpt lat="37.7561170" lon="-6.0479310">
        <ele>402.8</ele>
        <time>2021-10-21T15:16:11Z</time>
      </trkpt>
      <trkpt lat="37.7559010" lon="-6.0476950">
        <ele>401.7</ele>
        <time>2021-10-21T15:16:11Z</time>
      </trkpt>
      <trkpt lat="37.7558100" lon="-6.0476080">
        <ele>401.3</ele>
        <time>2021-10-21T15:16:11Z</time>
      </trkpt>
      <trkpt lat="37.7556160" lon="-6.0474280">
        <ele>400.3</ele>
        <time>2021-10-21T15:16:11Z</time>
      </trkpt>
      <trkpt lat="37.7555210" lon="-6.0473260">
        <ele>399.8</ele>
        <time>2021-10-21T15:16:11Z</time>
      </trkpt>
      <trkpt lat="37.7553200" lon="-6.0471140">
        <ele>398.5</ele>
        <time>2021-10-21T15:16:11Z</time>
      </trkpt>
      <trkpt lat="37.7552120" lon="-6.0470020">
        <ele>397.4</ele>
        <time>2021-10-21T15:16:11Z</time>
      </trkpt>
      <trkpt lat="37.7550330" lon="-6.0468110">
        <ele>395.2</ele>
        <time>2021-10-21T15:16:11Z</time>
      </trkpt>
      <trkpt lat="37.7548970" lon="-6.0466670">
        <ele>393.5</ele>
        <time>2021-10-21T15:16:11Z</time>
      </trkpt>
      <trkpt lat="37.7548210" lon="-6.0465920">
        <ele>392.6</ele>
        <time>2021-10-21T15:16:11Z</time>
      </trkpt>
      <trkpt lat="37.7546560" lon="-6.0464390">
        <ele>390.7</ele>
        <time>2021-10-21T15:16:11Z</time>
      </trkpt>
      <trkpt lat="37.7544780" lon="-6.0462740">
        <ele>388.9</ele>
        <time>2021-10-21T15:16:11Z</time>
      </trkpt>
      <trkpt lat="37.7543840" lon="-6.0461940">
        <ele>387.9</ele>
        <time>2021-10-21T15:16:11Z</time>
      </trkpt>
      <trkpt lat="37.7541820" lon="-6.0460470">
        <ele>385.4</ele>
        <time>2021-10-21T15:16:11Z</time>
      </trkpt>
      <trkpt lat="37.7539670" lon="-6.0459020">
        <ele>382.8</ele>
        <time>2021-10-21T15:16:11Z</time>
      </trkpt>
      <trkpt lat="37.7537280" lon="-6.0457400">
        <ele>381.1</ele>
        <time>2021-10-21T15:16:11Z</time>
      </trkpt>
      <trkpt lat="37.7536430" lon="-6.0456790">
        <ele>380.9</ele>
        <time>2021-10-21T15:16:11Z</time>
      </trkpt>
      <trkpt lat="37.7534420" lon="-6.0455220">
        <ele>380.9</ele>
        <time>2021-10-21T15:16:11Z</time>
      </trkpt>
      <trkpt lat="37.7533520" lon="-6.0454400">
        <ele>381.1</ele>
        <time>2021-10-21T15:16:11Z</time>
      </trkpt>
      <trkpt lat="37.7532700" lon="-6.0453580">
        <ele>381.2</ele>
        <time>2021-10-21T15:16:11Z</time>
      </trkpt>
      <trkpt lat="37.7531250" lon="-6.0451920">
        <ele>381.4</ele>
        <time>2021-10-21T15:16:11Z</time>
      </trkpt>
      <trkpt lat="37.7530590" lon="-6.0451120">
        <ele>381.4</ele>
        <time>2021-10-21T15:16:11Z</time>
      </trkpt>
      <trkpt lat="37.7528430" lon="-6.0447950">
        <ele>381.6</ele>
        <time>2021-10-21T15:16:11Z</time>
      </trkpt>
      <trkpt lat="37.7527520" lon="-6.0446580">
        <ele>381.8</ele>
        <time>2021-10-21T15:16:11Z</time>
      </trkpt>
      <trkpt lat="37.7526080" lon="-6.0444250">
        <ele>382.2</ele>
        <time>2021-10-21T15:16:11Z</time>
      </trkpt>
      <trkpt lat="37.7525770" lon="-6.0443750">
        <ele>382.3</ele>
        <time>2021-10-21T15:16:11Z</time>
      </trkpt>
      <trkpt lat="37.7524550" lon="-6.0441830">
        <ele>382.9</ele>
        <time>2021-10-21T15:16:11Z</time>
      </trkpt>
      <trkpt lat="37.7523510" lon="-6.0440170">
        <ele>382.7</ele>
        <time>2021-10-21T15:16:11Z</time>
      </trkpt>
      <trkpt lat="37.7522690" lon="-6.0438780">
        <ele>382.2</ele>
        <time>2021-10-21T15:16:11Z</time>
      </trkpt>
      <trkpt lat="37.7520760" lon="-6.0435600">
        <ele>380.3</ele>
        <time>2021-10-21T15:16:11Z</time>
      </trkpt>
      <trkpt lat="37.7519200" lon="-6.0433110">
        <ele>378.4</ele>
        <time>2021-10-21T15:16:11Z</time>
      </trkpt>
      <trkpt lat="37.7518120" lon="-6.0431180">
        <ele>377.1</ele>
        <time>2021-10-21T15:16:11Z</time>
      </trkpt>
      <trkpt lat="37.7517020" lon="-6.0429090">
        <ele>375.7</ele>
        <time>2021-10-21T15:16:11Z</time>
      </trkpt>
      <trkpt lat="37.7515780" lon="-6.0426600">
        <ele>373.7</ele>
        <time>2021-10-21T15:16:11Z</time>
      </trkpt>
      <trkpt lat="37.7515220" lon="-6.0425350">
        <ele>372.6</ele>
        <time>2021-10-21T15:16:11Z</time>
      </trkpt>
      <trkpt lat="37.7514820" lon="-6.0424310">
        <ele>371.7</ele>
        <time>2021-10-21T15:16:11Z</time>
      </trkpt>
      <trkpt lat="37.7513820" lon="-6.0421550">
        <ele>369.4</ele>
        <time>2021-10-21T15:16:11Z</time>
      </trkpt>
      <trkpt lat="37.7512870" lon="-6.0418710">
        <ele>367.2</ele>
        <time>2021-10-21T15:16:11Z</time>
      </trkpt>
      <trkpt lat="37.7511950" lon="-6.0415900">
        <ele>365.2</ele>
        <time>2021-10-21T15:16:11Z</time>
      </trkpt>
      <trkpt lat="37.7511060" lon="-6.0413140">
        <ele>363.5</ele>
        <time>2021-10-21T15:16:11Z</time>
      </trkpt>
      <trkpt lat="37.7510140" lon="-6.0410490">
        <ele>362.1</ele>
        <time>2021-10-21T15:16:11Z</time>
      </trkpt>
      <trkpt lat="37.7509130" lon="-6.0408070">
        <ele>361.0</ele>
        <time>2021-10-21T15:16:11Z</time>
      </trkpt>
      <trkpt lat="37.7508000" lon="-6.0405920">
        <ele>359.9</ele>
        <time>2021-10-21T15:16:11Z</time>
      </trkpt>
      <trkpt lat="37.7506730" lon="-6.0404030">
        <ele>359.0</ele>
        <time>2021-10-21T15:16:11Z</time>
      </trkpt>
      <trkpt lat="37.7506070" lon="-6.0403190">
        <ele>358.6</ele>
        <time>2021-10-21T15:16:11Z</time>
      </trkpt>
      <trkpt lat="37.7503290" lon="-6.0400140">
        <ele>357.5</ele>
        <time>2021-10-21T15:16:11Z</time>
      </trkpt>
      <trkpt lat="37.7502610" lon="-6.0399400">
        <ele>357.4</ele>
        <time>2021-10-21T15:16:11Z</time>
      </trkpt>
      <trkpt lat="37.7500650" lon="-6.0397340">
        <ele>357.5</ele>
        <time>2021-10-21T15:16:11Z</time>
      </trkpt>
      <trkpt lat="37.7499520" lon="-6.0396070">
        <ele>357.8</ele>
        <time>2021-10-21T15:16:11Z</time>
      </trkpt>
      <trkpt lat="37.7498030" lon="-6.0394370">
        <ele>358.1</ele>
        <time>2021-10-21T15:16:11Z</time>
      </trkpt>
      <trkpt lat="37.7496700" lon="-6.0392910">
        <ele>358.4</ele>
        <time>2021-10-21T15:16:11Z</time>
      </trkpt>
      <trkpt lat="37.7494120" lon="-6.0390120">
        <ele>358.8</ele>
        <time>2021-10-21T15:16:11Z</time>
      </trkpt>
      <trkpt lat="37.7492090" lon="-6.0387780">
        <ele>358.7</ele>
        <time>2021-10-21T15:16:11Z</time>
      </trkpt>
      <trkpt lat="37.7489550" lon="-6.0384840">
        <ele>358.3</ele>
        <time>2021-10-21T15:16:11Z</time>
      </trkpt>
      <trkpt lat="37.7488970" lon="-6.0384110">
        <ele>358.2</ele>
        <time>2021-10-21T15:16:11Z</time>
      </trkpt>
      <trkpt lat="37.7488260" lon="-6.0383270">
        <ele>358.0</ele>
        <time>2021-10-21T15:16:11Z</time>
      </trkpt>
      <trkpt lat="37.7486290" lon="-6.0380910">
        <ele>357.2</ele>
        <time>2021-10-21T15:16:11Z</time>
      </trkpt>
      <trkpt lat="37.7483570" lon="-6.0377810">
        <ele>356.8</ele>
        <time>2021-10-21T15:16:11Z</time>
      </trkpt>
      <trkpt lat="37.7483100" lon="-6.0377400">
        <ele>356.8</ele>
        <time>2021-10-21T15:16:11Z</time>
      </trkpt>
      <trkpt lat="37.7480960" lon="-6.0375650">
        <ele>357.3</ele>
        <time>2021-10-21T15:16:11Z</time>
      </trkpt>
      <trkpt lat="37.7480550" lon="-6.0375380">
        <ele>357.5</ele>
        <time>2021-10-21T15:16:11Z</time>
      </trkpt>
      <trkpt lat="37.7477660" lon="-6.0373450">
        <ele>358.6</ele>
        <time>2021-10-21T15:16:11Z</time>
      </trkpt>
      <trkpt lat="37.7475410" lon="-6.0371990">
        <ele>359.5</ele>
        <time>2021-10-21T15:16:11Z</time>
      </trkpt>
      <trkpt lat="37.7474810" lon="-6.0371620">
        <ele>359.8</ele>
        <time>2021-10-21T15:16:11Z</time>
      </trkpt>
      <trkpt lat="37.7474510" lon="-6.0371440">
        <ele>359.9</ele>
        <time>2021-10-21T15:16:11Z</time>
      </trkpt>
      <trkpt lat="37.7473170" lon="-6.0370500">
        <ele>360.5</ele>
        <time>2021-10-21T15:16:11Z</time>
      </trkpt>
      <trkpt lat="37.7472900" lon="-6.0370300">
        <ele>360.6</ele>
        <time>2021-10-21T15:16:11Z</time>
      </trkpt>
      <trkpt lat="37.7472370" lon="-6.0369850">
        <ele>360.8</ele>
        <time>2021-10-21T15:16:11Z</time>
      </trkpt>
      <trkpt lat="37.7470450" lon="-6.0368320">
        <ele>361.3</ele>
        <time>2021-10-21T15:16:11Z</time>
      </trkpt>
      <trkpt lat="37.7469290" lon="-6.0367000">
        <ele>361.2</ele>
        <time>2021-10-21T15:16:11Z</time>
      </trkpt>
      <trkpt lat="37.7468570" lon="-6.0366010">
        <ele>361.1</ele>
        <time>2021-10-21T15:16:11Z</time>
      </trkpt>
      <trkpt lat="37.7467060" lon="-6.0363890">
        <ele>360.9</ele>
        <time>2021-10-21T15:16:11Z</time>
      </trkpt>
      <trkpt lat="37.7465110" lon="-6.0361130">
        <ele>360.6</ele>
        <time>2021-10-21T15:16:11Z</time>
      </trkpt>
      <trkpt lat="37.7464410" lon="-6.0360110">
        <ele>360.5</ele>
        <time>2021-10-21T15:16:11Z</time>
      </trkpt>
      <trkpt lat="37.7464060" lon="-6.0359590">
        <ele>360.5</ele>
        <time>2021-10-21T15:16:11Z</time>
      </trkpt>
      <trkpt lat="37.7462030" lon="-6.0356590">
        <ele>360.4</ele>
        <time>2021-10-21T15:16:11Z</time>
      </trkpt>
      <trkpt lat="37.7461100" lon="-6.0355190">
        <ele>360.5</ele>
        <time>2021-10-21T15:16:11Z</time>
      </trkpt>
      <trkpt lat="37.7460480" lon="-6.0354320">
        <ele>360.5</ele>
        <time>2021-10-21T15:16:11Z</time>
      </trkpt>
      <trkpt lat="37.7459160" lon="-6.0352450">
        <ele>360.6</ele>
        <time>2021-10-21T15:16:11Z</time>
      </trkpt>
      <trkpt lat="37.7457380" lon="-6.0350460">
        <ele>360.6</ele>
        <time>2021-10-21T15:16:11Z</time>
      </trkpt>
      <trkpt lat="37.7455360" lon="-6.0348540">
        <ele>360.7</ele>
        <time>2021-10-21T15:16:11Z</time>
      </trkpt>
      <trkpt lat="37.7454140" lon="-6.0347470">
        <ele>360.7</ele>
        <time>2021-10-21T15:16:11Z</time>
      </trkpt>
      <trkpt lat="37.7450400" lon="-6.0344160">
        <ele>360.7</ele>
        <time>2021-10-21T15:16:11Z</time>
      </trkpt>
      <trkpt lat="37.7448720" lon="-6.0342410">
        <ele>360.3</ele>
        <time>2021-10-21T15:16:11Z</time>
      </trkpt>
      <trkpt lat="37.7447530" lon="-6.0341090">
        <ele>359.8</ele>
        <time>2021-10-21T15:16:11Z</time>
      </trkpt>
      <trkpt lat="37.7445340" lon="-6.0338130">
        <ele>358.4</ele>
        <time>2021-10-21T15:16:11Z</time>
      </trkpt>
      <trkpt lat="37.7443930" lon="-6.0335920">
        <ele>357.1</ele>
        <time>2021-10-21T15:16:11Z</time>
      </trkpt>
      <trkpt lat="37.7442640" lon="-6.0333940">
        <ele>355.9</ele>
        <time>2021-10-21T15:16:11Z</time>
      </trkpt>
      <trkpt lat="37.7441250" lon="-6.0331690">
        <ele>354.6</ele>
        <time>2021-10-21T15:16:11Z</time>
      </trkpt>
      <trkpt lat="37.7439090" lon="-6.0328570">
        <ele>352.7</ele>
        <time>2021-10-21T15:16:11Z</time>
      </trkpt>
      <trkpt lat="37.7437630" lon="-6.0326970">
        <ele>351.5</ele>
        <time>2021-10-21T15:16:11Z</time>
      </trkpt>
      <trkpt lat="37.7437020" lon="-6.0326450">
        <ele>351.1</ele>
        <time>2021-10-21T15:16:11Z</time>
      </trkpt>
      <trkpt lat="37.7435500" lon="-6.0325250">
        <ele>350.1</ele>
        <time>2021-10-21T15:16:11Z</time>
      </trkpt>
      <trkpt lat="37.7433260" lon="-6.0323540">
        <ele>348.1</ele>
        <time>2021-10-21T15:16:11Z</time>
      </trkpt>
      <trkpt lat="37.7430980" lon="-6.0321840">
        <ele>346.2</ele>
        <time>2021-10-21T15:16:11Z</time>
      </trkpt>
      <trkpt lat="37.7428720" lon="-6.0320160">
        <ele>345.2</ele>
        <time>2021-10-21T15:16:11Z</time>
      </trkpt>
      <trkpt lat="37.7426490" lon="-6.0318410">
        <ele>344.1</ele>
        <time>2021-10-21T15:16:11Z</time>
      </trkpt>
      <trkpt lat="37.7424050" lon="-6.0316560">
        <ele>343.7</ele>
        <time>2021-10-21T15:16:11Z</time>
      </trkpt>
      <trkpt lat="37.7423140" lon="-6.0315930">
        <ele>343.7</ele>
        <time>2021-10-21T15:16:11Z</time>
      </trkpt>
      <trkpt lat="37.7421350" lon="-6.0314610">
        <ele>344.0</ele>
        <time>2021-10-21T15:16:11Z</time>
      </trkpt>
      <trkpt lat="37.7419700" lon="-6.0313250">
        <ele>344.6</ele>
        <time>2021-10-21T15:16:11Z</time>
      </trkpt>
      <trkpt lat="37.7418970" lon="-6.0312540">
        <ele>344.9</ele>
        <time>2021-10-21T15:16:11Z</time>
      </trkpt>
      <trkpt lat="37.7418320" lon="-6.0311840">
        <ele>345.2</ele>
        <time>2021-10-21T15:16:11Z</time>
      </trkpt>
      <trkpt lat="37.7416720" lon="-6.0310100">
        <ele>346.0</ele>
        <time>2021-10-21T15:16:11Z</time>
      </trkpt>
      <trkpt lat="37.7415300" lon="-6.0308500">
        <ele>347.1</ele>
        <time>2021-10-21T15:16:11Z</time>
      </trkpt>
      <trkpt lat="37.7414500" lon="-6.0307590">
        <ele>347.7</ele>
        <time>2021-10-21T15:16:11Z</time>
      </trkpt>
      <trkpt lat="37.7413810" lon="-6.0306850">
        <ele>348.2</ele>
        <time>2021-10-21T15:16:11Z</time>
      </trkpt>
      <trkpt lat="37.7413180" lon="-6.0306120">
        <ele>348.8</ele>
        <time>2021-10-21T15:16:11Z</time>
      </trkpt>
      <trkpt lat="37.7412400" lon="-6.0305280">
        <ele>349.7</ele>
        <time>2021-10-21T15:16:11Z</time>
      </trkpt>
      <trkpt lat="37.7411510" lon="-6.0304390">
        <ele>350.7</ele>
        <time>2021-10-21T15:16:11Z</time>
      </trkpt>
      <trkpt lat="37.7411040" lon="-6.0303820">
        <ele>351.3</ele>
        <time>2021-10-21T15:16:11Z</time>
      </trkpt>
      <trkpt lat="37.7410620" lon="-6.0303380">
        <ele>351.9</ele>
        <time>2021-10-21T15:16:11Z</time>
      </trkpt>
      <trkpt lat="37.7409880" lon="-6.0302580">
        <ele>352.8</ele>
        <time>2021-10-21T15:16:11Z</time>
      </trkpt>
      <trkpt lat="37.7409720" lon="-6.0302440">
        <ele>352.9</ele>
        <time>2021-10-21T15:16:11Z</time>
      </trkpt>
      <trkpt lat="37.7409550" lon="-6.0302290">
        <ele>353.1</ele>
        <time>2021-10-21T15:16:11Z</time>
      </trkpt>
      <trkpt lat="37.7408560" lon="-6.0301160">
        <ele>354.0</ele>
        <time>2021-10-21T15:16:11Z</time>
      </trkpt>
      <trkpt lat="37.7408140" lon="-6.0300740">
        <ele>354.3</ele>
        <time>2021-10-21T15:16:11Z</time>
      </trkpt>
      <trkpt lat="37.7407360" lon="-6.0299750">
        <ele>354.7</ele>
        <time>2021-10-21T15:16:11Z</time>
      </trkpt>
      <trkpt lat="37.7406770" lon="-6.0299090">
        <ele>354.9</ele>
        <time>2021-10-21T15:16:11Z</time>
      </trkpt>
      <trkpt lat="37.7406290" lon="-6.0298610">
        <ele>355.0</ele>
        <time>2021-10-21T15:16:11Z</time>
      </trkpt>
      <trkpt lat="37.7405090" lon="-6.0297220">
        <ele>355.2</ele>
        <time>2021-10-21T15:16:11Z</time>
      </trkpt>
      <trkpt lat="37.7404200" lon="-6.0296230">
        <ele>355.4</ele>
        <time>2021-10-21T15:16:11Z</time>
      </trkpt>
      <trkpt lat="37.7402550" lon="-6.0294370">
        <ele>356.0</ele>
        <time>2021-10-21T15:16:11Z</time>
      </trkpt>
      <trkpt lat="37.7402160" lon="-6.0293910">
        <ele>356.2</ele>
        <time>2021-10-21T15:16:11Z</time>
      </trkpt>
      <trkpt lat="37.7401210" lon="-6.0292730">
        <ele>356.6</ele>
        <time>2021-10-21T15:16:11Z</time>
      </trkpt>
      <trkpt lat="37.7400490" lon="-6.0291840">
        <ele>357.0</ele>
        <time>2021-10-21T15:16:11Z</time>
      </trkpt>
      <trkpt lat="37.7399150" lon="-6.0290340">
        <ele>357.9</ele>
        <time>2021-10-21T15:16:11Z</time>
      </trkpt>
      <trkpt lat="37.7398800" lon="-6.0289970">
        <ele>358.1</ele>
        <time>2021-10-21T15:16:11Z</time>
      </trkpt>
      <trkpt lat="37.7397460" lon="-6.0288450">
        <ele>359.0</ele>
        <time>2021-10-21T15:16:11Z</time>
      </trkpt>
      <trkpt lat="37.7396960" lon="-6.0287900">
        <ele>359.3</ele>
        <time>2021-10-21T15:16:11Z</time>
      </trkpt>
      <trkpt lat="37.7395760" lon="-6.0286610">
        <ele>360.2</ele>
        <time>2021-10-21T15:16:11Z</time>
      </trkpt>
      <trkpt lat="37.7395220" lon="-6.0286040">
        <ele>360.6</ele>
        <time>2021-10-21T15:16:11Z</time>
      </trkpt>
      <trkpt lat="37.7393880" lon="-6.0284520">
        <ele>361.4</ele>
        <time>2021-10-21T15:16:11Z</time>
      </trkpt>
      <trkpt lat="37.7393710" lon="-6.0284320">
        <ele>361.5</ele>
        <time>2021-10-21T15:16:11Z</time>
      </trkpt>
      <trkpt lat="37.7393170" lon="-6.0283790">
        <ele>361.7</ele>
        <time>2021-10-21T15:16:11Z</time>
      </trkpt>
      <trkpt lat="37.7392460" lon="-6.0283360">
        <ele>361.8</ele>
        <time>2021-10-21T15:16:11Z</time>
      </trkpt>
      <trkpt lat="37.7391990" lon="-6.0282500">
        <ele>361.7</ele>
        <time>2021-10-21T15:16:11Z</time>
      </trkpt>
      <trkpt lat="37.7391530" lon="-6.0282010">
        <ele>361.5</ele>
        <time>2021-10-21T15:16:11Z</time>
      </trkpt>
      <trkpt lat="37.7390130" lon="-6.0280430">
        <ele>360.4</ele>
        <time>2021-10-21T15:16:11Z</time>
      </trkpt>
      <trkpt lat="37.7388510" lon="-6.0278940">
        <ele>358.8</ele>
        <time>2021-10-21T15:16:11Z</time>
      </trkpt>
      <trkpt lat="37.7387900" lon="-6.0278410">
        <ele>358.1</ele>
        <time>2021-10-21T15:16:11Z</time>
      </trkpt>
      <trkpt lat="37.7385560" lon="-6.0276240">
        <ele>355.5</ele>
        <time>2021-10-21T15:16:11Z</time>
      </trkpt>
      <trkpt lat="37.7385030" lon="-6.0275740">
        <ele>355.0</ele>
        <time>2021-10-21T15:16:11Z</time>
      </trkpt>
      <trkpt lat="37.7383570" lon="-6.0274490">
        <ele>353.8</ele>
        <time>2021-10-21T15:16:11Z</time>
      </trkpt>
      <trkpt lat="37.7381270" lon="-6.0272500">
        <ele>352.9</ele>
        <time>2021-10-21T15:16:11Z</time>
      </trkpt>
      <trkpt lat="37.7380740" lon="-6.0272060">
        <ele>352.9</ele>
        <time>2021-10-21T15:16:11Z</time>
      </trkpt>
      <trkpt lat="37.7379430" lon="-6.0270900">
        <ele>353.3</ele>
        <time>2021-10-21T15:16:11Z</time>
      </trkpt>
      <trkpt lat="37.7378610" lon="-6.0270130">
        <ele>353.7</ele>
        <time>2021-10-21T15:16:11Z</time>
      </trkpt>
      <trkpt lat="37.7377390" lon="-6.0268930">
        <ele>354.6</ele>
        <time>2021-10-21T15:16:11Z</time>
      </trkpt>
      <trkpt lat="37.7376190" lon="-6.0267640">
        <ele>355.7</ele>
        <time>2021-10-21T15:16:11Z</time>
      </trkpt>
      <trkpt lat="37.7376020" lon="-6.0267430">
        <ele>355.9</ele>
        <time>2021-10-21T15:16:11Z</time>
      </trkpt>
      <trkpt lat="37.7375370" lon="-6.0266610">
        <ele>356.5</ele>
        <time>2021-10-21T15:16:11Z</time>
      </trkpt>
      <trkpt lat="37.7374450" lon="-6.0265470">
        <ele>357.5</ele>
        <time>2021-10-21T15:16:11Z</time>
      </trkpt>
      <trkpt lat="37.7373620" lon="-6.0264370">
        <ele>358.6</ele>
        <time>2021-10-21T15:16:11Z</time>
      </trkpt>
      <trkpt lat="37.7373500" lon="-6.0264220">
        <ele>358.8</ele>
        <time>2021-10-21T15:16:11Z</time>
      </trkpt>
      <trkpt lat="37.7372510" lon="-6.0262770">
        <ele>360.3</ele>
        <time>2021-10-21T15:16:11Z</time>
      </trkpt>
      <trkpt lat="37.7372170" lon="-6.0262250">
        <ele>360.9</ele>
        <time>2021-10-21T15:16:11Z</time>
      </trkpt>
      <trkpt lat="37.7371820" lon="-6.0261620">
        <ele>361.5</ele>
        <time>2021-10-21T15:16:11Z</time>
      </trkpt>
      <trkpt lat="37.7371310" lon="-6.0260660">
        <ele>362.4</ele>
        <time>2021-10-21T15:16:11Z</time>
      </trkpt>
      <trkpt lat="37.7370880" lon="-6.0259800">
        <ele>363.2</ele>
        <time>2021-10-21T15:16:11Z</time>
      </trkpt>
      <trkpt lat="37.7370780" lon="-6.0259580">
        <ele>363.4</ele>
        <time>2021-10-21T15:16:11Z</time>
      </trkpt>
      <trkpt lat="37.7370670" lon="-6.0259340">
        <ele>363.6</ele>
        <time>2021-10-21T15:16:11Z</time>
      </trkpt>
      <trkpt lat="37.7370490" lon="-6.0258850">
        <ele>364.1</ele>
        <time>2021-10-21T15:16:11Z</time>
      </trkpt>
      <trkpt lat="37.7370400" lon="-6.0258690">
        <ele>364.2</ele>
        <time>2021-10-21T15:16:11Z</time>
      </trkpt>
      <trkpt lat="37.7370300" lon="-6.0258490">
        <ele>364.4</ele>
        <time>2021-10-21T15:16:11Z</time>
      </trkpt>
      <trkpt lat="37.7370220" lon="-6.0258290">
        <ele>364.5</ele>
        <time>2021-10-21T15:16:11Z</time>
      </trkpt>
      <trkpt lat="37.7370060" lon="-6.0257830">
        <ele>364.9</ele>
        <time>2021-10-21T15:16:11Z</time>
      </trkpt>
      <trkpt lat="37.7369880" lon="-6.0257450">
        <ele>365.2</ele>
        <time>2021-10-21T15:16:11Z</time>
      </trkpt>
      <trkpt lat="37.7369700" lon="-6.0256960">
        <ele>365.6</ele>
        <time>2021-10-21T15:16:11Z</time>
      </trkpt>
      <trkpt lat="37.7369520" lon="-6.0256340">
        <ele>366.1</ele>
        <time>2021-10-21T15:16:11Z</time>
      </trkpt>
      <trkpt lat="37.7369280" lon="-6.0255450">
        <ele>366.8</ele>
        <time>2021-10-21T15:16:11Z</time>
      </trkpt>
      <trkpt lat="37.7369190" lon="-6.0255210">
        <ele>367.0</ele>
        <time>2021-10-21T15:16:11Z</time>
      </trkpt>
      <trkpt lat="37.7368960" lon="-6.0254380">
        <ele>367.6</ele>
        <time>2021-10-21T15:16:11Z</time>
      </trkpt>
      <trkpt lat="37.7368820" lon="-6.0253750">
        <ele>368.0</ele>
        <time>2021-10-21T15:16:11Z</time>
      </trkpt>
      <trkpt lat="37.7368740" lon="-6.0253400">
        <ele>368.2</ele>
        <time>2021-10-21T15:16:11Z</time>
      </trkpt>
      <trkpt lat="37.7368590" lon="-6.0251950">
        <ele>369.1</ele>
        <time>2021-10-21T15:16:11Z</time>
      </trkpt>
      <trkpt lat="37.7368560" lon="-6.0251460">
        <ele>369.3</ele>
        <time>2021-10-21T15:16:11Z</time>
      </trkpt>
      <trkpt lat="37.7368420" lon="-6.0250750">
        <ele>369.7</ele>
        <time>2021-10-21T15:16:11Z</time>
      </trkpt>
      <trkpt lat="37.7368270" lon="-6.0249600">
        <ele>370.1</ele>
        <time>2021-10-21T15:16:11Z</time>
      </trkpt>
      <trkpt lat="37.7368240" lon="-6.0249390">
        <ele>370.2</ele>
        <time>2021-10-21T15:16:11Z</time>
      </trkpt>
      <trkpt lat="37.7368140" lon="-6.0248500">
        <ele>370.4</ele>
        <time>2021-10-21T15:16:11Z</time>
      </trkpt>
      <trkpt lat="37.7368090" lon="-6.0247960">
        <ele>370.6</ele>
        <time>2021-10-21T15:16:11Z</time>
      </trkpt>
      <trkpt lat="37.7368060" lon="-6.0247340">
        <ele>370.7</ele>
        <time>2021-10-21T15:16:11Z</time>
      </trkpt>
      <trkpt lat="37.7367990" lon="-6.0246710">
        <ele>370.8</ele>
        <time>2021-10-21T15:16:11Z</time>
      </trkpt>
      <trkpt lat="37.7367850" lon="-6.0245180">
        <ele>371.0</ele>
        <time>2021-10-21T15:16:11Z</time>
      </trkpt>
      <trkpt lat="37.7367610" lon="-6.0243560">
        <ele>371.2</ele>
        <time>2021-10-21T15:16:11Z</time>
      </trkpt>
      <trkpt lat="37.7367580" lon="-6.0243240">
        <ele>371.2</ele>
        <time>2021-10-21T15:16:11Z</time>
      </trkpt>
      <trkpt lat="37.7367470" lon="-6.0242180">
        <ele>371.3</ele>
        <time>2021-10-21T15:16:11Z</time>
      </trkpt>
      <trkpt lat="37.7367380" lon="-6.0241650">
        <ele>371.4</ele>
        <time>2021-10-21T15:16:11Z</time>
      </trkpt>
      <trkpt lat="37.7367140" lon="-6.0240450">
        <ele>371.5</ele>
        <time>2021-10-21T15:16:11Z</time>
      </trkpt>
      <trkpt lat="37.7367010" lon="-6.0239830">
        <ele>371.5</ele>
        <time>2021-10-21T15:16:11Z</time>
      </trkpt>
      <trkpt lat="37.7366450" lon="-6.0237760">
        <ele>371.8</ele>
        <time>2021-10-21T15:16:11Z</time>
      </trkpt>
      <trkpt lat="37.7366240" lon="-6.0237140">
        <ele>371.9</ele>
        <time>2021-10-21T15:16:11Z</time>
      </trkpt>
      <trkpt lat="37.7365600" lon="-6.0235130">
        <ele>372.4</ele>
        <time>2021-10-21T15:16:11Z</time>
      </trkpt>
      <trkpt lat="37.7365240" lon="-6.0234260">
        <ele>372.7</ele>
        <time>2021-10-21T15:16:11Z</time>
      </trkpt>
      <trkpt lat="37.7365060" lon="-6.0233770">
        <ele>372.9</ele>
        <time>2021-10-21T15:16:11Z</time>
      </trkpt>
      <trkpt lat="37.7364940" lon="-6.0233460">
        <ele>373.0</ele>
        <time>2021-10-21T15:16:11Z</time>
      </trkpt>
      <trkpt lat="37.7364430" lon="-6.0232210">
        <ele>373.4</ele>
        <time>2021-10-21T15:16:11Z</time>
      </trkpt>
      <trkpt lat="37.7364080" lon="-6.0231450">
        <ele>373.7</ele>
        <time>2021-10-21T15:16:11Z</time>
      </trkpt>
      <trkpt lat="37.7363820" lon="-6.0230890">
        <ele>373.9</ele>
        <time>2021-10-21T15:16:11Z</time>
      </trkpt>
      <trkpt lat="37.7363330" lon="-6.0229820">
        <ele>374.3</ele>
        <time>2021-10-21T15:16:11Z</time>
      </trkpt>
      <trkpt lat="37.7362850" lon="-6.0228810">
        <ele>374.7</ele>
        <time>2021-10-21T15:16:11Z</time>
      </trkpt>
      <trkpt lat="37.7362270" lon="-6.0227790">
        <ele>375.0</ele>
        <time>2021-10-21T15:16:11Z</time>
      </trkpt>
      <trkpt lat="37.7361200" lon="-6.0226060">
        <ele>375.6</ele>
        <time>2021-10-21T15:16:11Z</time>
      </trkpt>
      <trkpt lat="37.7359950" lon="-6.0224440">
        <ele>376.0</ele>
        <time>2021-10-21T15:16:11Z</time>
      </trkpt>
      <trkpt lat="37.7359520" lon="-6.0223920">
        <ele>375.7</ele>
        <time>2021-10-21T15:16:11Z</time>
      </trkpt>
      <trkpt lat="37.7357770" lon="-6.0222140">
        <ele>374.7</ele>
        <time>2021-10-21T15:16:11Z</time>
      </trkpt>
      <trkpt lat="37.7356150" lon="-6.0220540">
        <ele>373.9</ele>
        <time>2021-10-21T15:16:11Z</time>
      </trkpt>
      <trkpt lat="37.7355320" lon="-6.0219730">
        <ele>373.5</ele>
        <time>2021-10-21T15:16:11Z</time>
      </trkpt>
      <trkpt lat="37.7354220" lon="-6.0218720">
        <ele>373.1</ele>
        <time>2021-10-21T15:16:11Z</time>
      </trkpt>
      <trkpt lat="37.7353280" lon="-6.0217810">
        <ele>372.9</ele>
        <time>2021-10-21T15:16:11Z</time>
      </trkpt>
      <trkpt lat="37.7351560" lon="-6.0216260">
        <ele>372.8</ele>
        <time>2021-10-21T15:16:11Z</time>
      </trkpt>
      <trkpt lat="37.7351020" lon="-6.0215840">
        <ele>372.8</ele>
        <time>2021-10-21T15:16:11Z</time>
      </trkpt>
      <trkpt lat="37.7348430" lon="-6.0214130">
        <ele>372.8</ele>
        <time>2021-10-21T15:16:11Z</time>
      </trkpt>
      <trkpt lat="37.7347310" lon="-6.0213490">
        <ele>372.9</ele>
        <time>2021-10-21T15:16:11Z</time>
      </trkpt>
      <trkpt lat="37.7345540" lon="-6.0212650">
        <ele>373.1</ele>
        <time>2021-10-21T15:16:11Z</time>
      </trkpt>
      <trkpt lat="37.7344330" lon="-6.0212060">
        <ele>373.1</ele>
        <time>2021-10-21T15:16:11Z</time>
      </trkpt>
      <trkpt lat="37.7341350" lon="-6.0210610">
        <ele>372.9</ele>
        <time>2021-10-21T15:16:11Z</time>
      </trkpt>
      <trkpt lat="37.7341090" lon="-6.0210450">
        <ele>372.8</ele>
        <time>2021-10-21T15:16:11Z</time>
      </trkpt>
      <trkpt lat="37.7337970" lon="-6.0208900">
        <ele>371.4</ele>
        <time>2021-10-21T15:16:11Z</time>
      </trkpt>
      <trkpt lat="37.7335980" lon="-6.0207740">
        <ele>370.3</ele>
        <time>2021-10-21T15:16:11Z</time>
      </trkpt>
      <trkpt lat="37.7334170" lon="-6.0206440">
        <ele>368.9</ele>
        <time>2021-10-21T15:16:11Z</time>
      </trkpt>
      <trkpt lat="37.7332200" lon="-6.0205020">
        <ele>367.2</ele>
        <time>2021-10-21T15:16:11Z</time>
      </trkpt>
      <trkpt lat="37.7330730" lon="-6.0203950">
        <ele>365.9</ele>
        <time>2021-10-21T15:16:11Z</time>
      </trkpt>
      <trkpt lat="37.7330090" lon="-6.0203480">
        <ele>365.4</ele>
        <time>2021-10-21T15:16:11Z</time>
      </trkpt>
      <trkpt lat="37.7327580" lon="-6.0201620">
        <ele>363.8</ele>
        <time>2021-10-21T15:16:11Z</time>
      </trkpt>
      <trkpt lat="37.7326700" lon="-6.0201000">
        <ele>363.3</ele>
        <time>2021-10-21T15:16:11Z</time>
      </trkpt>
      <trkpt lat="37.7325830" lon="-6.0200360">
        <ele>362.9</ele>
        <time>2021-10-21T15:16:11Z</time>
      </trkpt>
      <trkpt lat="37.7323930" lon="-6.0198950">
        <ele>362.2</ele>
        <time>2021-10-21T15:16:11Z</time>
      </trkpt>
      <trkpt lat="37.7321630" lon="-6.0197110">
        <ele>361.9</ele>
        <time>2021-10-21T15:16:11Z</time>
      </trkpt>
      <trkpt lat="37.7320770" lon="-6.0196220">
        <ele>361.9</ele>
        <time>2021-10-21T15:16:11Z</time>
      </trkpt>
      <trkpt lat="37.7319620" lon="-6.0194870">
        <ele>362.1</ele>
        <time>2021-10-21T15:16:11Z</time>
      </trkpt>
      <trkpt lat="37.7317990" lon="-6.0192730">
        <ele>362.7</ele>
        <time>2021-10-21T15:16:11Z</time>
      </trkpt>
      <trkpt lat="37.7315990" lon="-6.0189870">
        <ele>364.0</ele>
        <time>2021-10-21T15:16:11Z</time>
      </trkpt>
      <trkpt lat="37.7314530" lon="-6.0187360">
        <ele>365.0</ele>
        <time>2021-10-21T15:16:11Z</time>
      </trkpt>
      <trkpt lat="37.7314120" lon="-6.0186560">
        <ele>365.2</ele>
        <time>2021-10-21T15:16:11Z</time>
      </trkpt>
      <trkpt lat="37.7313470" lon="-6.0185040">
        <ele>365.5</ele>
        <time>2021-10-21T15:16:11Z</time>
      </trkpt>
      <trkpt lat="37.7313110" lon="-6.0184120">
        <ele>365.6</ele>
        <time>2021-10-21T15:16:11Z</time>
      </trkpt>
      <trkpt lat="37.7311830" lon="-6.0179950">
        <ele>365.1</ele>
        <time>2021-10-21T15:16:11Z</time>
      </trkpt>
      <trkpt lat="37.7310900" lon="-6.0176340">
        <ele>363.9</ele>
        <time>2021-10-21T15:16:11Z</time>
      </trkpt>
      <trkpt lat="37.7310740" lon="-6.0175650">
        <ele>363.7</ele>
        <time>2021-10-21T15:16:11Z</time>
      </trkpt>
      <trkpt lat="37.7309650" lon="-6.0170760">
        <ele>362.1</ele>
        <time>2021-10-21T15:16:11Z</time>
      </trkpt>
      <trkpt lat="37.7309470" lon="-6.0169850">
        <ele>362.0</ele>
        <time>2021-10-21T15:16:11Z</time>
      </trkpt>
      <trkpt lat="37.7308640" lon="-6.0166400">
        <ele>361.7</ele>
        <time>2021-10-21T15:16:11Z</time>
      </trkpt>
      <trkpt lat="37.7308030" lon="-6.0164080">
        <ele>361.7</ele>
        <time>2021-10-21T15:16:11Z</time>
      </trkpt>
      <trkpt lat="37.7307440" lon="-6.0162070">
        <ele>361.8</ele>
        <time>2021-10-21T15:16:11Z</time>
      </trkpt>
      <trkpt lat="37.7306940" lon="-6.0160940">
        <ele>361.8</ele>
        <time>2021-10-21T15:16:11Z</time>
      </trkpt>
      <trkpt lat="37.7305050" lon="-6.0158070">
        <ele>361.5</ele>
        <time>2021-10-21T15:16:11Z</time>
      </trkpt>
      <trkpt lat="37.7302150" lon="-6.0155110">
        <ele>360.8</ele>
        <time>2021-10-21T15:16:11Z</time>
      </trkpt>
      <trkpt lat="37.7301180" lon="-6.0154270">
        <ele>360.6</ele>
        <time>2021-10-21T15:16:11Z</time>
      </trkpt>
      <trkpt lat="37.7298040" lon="-6.0151590">
        <ele>359.7</ele>
        <time>2021-10-21T15:16:11Z</time>
      </trkpt>
      <trkpt lat="37.7295350" lon="-6.0149110">
        <ele>359.2</ele>
        <time>2021-10-21T15:16:11Z</time>
      </trkpt>
      <trkpt lat="37.7293380" lon="-6.0146950">
        <ele>359.3</ele>
        <time>2021-10-21T15:16:11Z</time>
      </trkpt>
      <trkpt lat="37.7292490" lon="-6.0145870">
        <ele>359.5</ele>
        <time>2021-10-21T15:16:11Z</time>
      </trkpt>
      <trkpt lat="37.7289220" lon="-6.0142060">
        <ele>360.5</ele>
        <time>2021-10-21T15:16:11Z</time>
      </trkpt>
      <trkpt lat="37.7286730" lon="-6.0139540">
        <ele>360.1</ele>
        <time>2021-10-21T15:16:11Z</time>
      </trkpt>
      <trkpt lat="37.7283950" lon="-6.0137050">
        <ele>358.6</ele>
        <time>2021-10-21T15:16:11Z</time>
      </trkpt>
      <trkpt lat="37.7280520" lon="-6.0133950">
        <ele>356.9</ele>
        <time>2021-10-21T15:16:11Z</time>
      </trkpt>
      <trkpt lat="37.7279250" lon="-6.0132840">
        <ele>356.3</ele>
        <time>2021-10-21T15:16:11Z</time>
      </trkpt>
      <trkpt lat="37.7277320" lon="-6.0131120">
        <ele>355.5</ele>
        <time>2021-10-21T15:16:11Z</time>
      </trkpt>
      <trkpt lat="37.7275490" lon="-6.0129360">
        <ele>354.5</ele>
        <time>2021-10-21T15:16:11Z</time>
      </trkpt>
      <trkpt lat="37.7274880" lon="-6.0128730">
        <ele>354.0</ele>
        <time>2021-10-21T15:16:11Z</time>
      </trkpt>
      <trkpt lat="37.7271830" lon="-6.0125220">
        <ele>350.8</ele>
        <time>2021-10-21T15:16:11Z</time>
      </trkpt>
      <trkpt lat="37.7271180" lon="-6.0124420">
        <ele>350.1</ele>
        <time>2021-10-21T15:16:11Z</time>
      </trkpt>
      <trkpt lat="37.7269800" lon="-6.0122760">
        <ele>348.5</ele>
        <time>2021-10-21T15:16:11Z</time>
      </trkpt>
      <trkpt lat="37.7268370" lon="-6.0120960">
        <ele>346.8</ele>
        <time>2021-10-21T15:16:11Z</time>
      </trkpt>
      <trkpt lat="37.7266860" lon="-6.0119060">
        <ele>345.2</ele>
        <time>2021-10-21T15:16:11Z</time>
      </trkpt>
      <trkpt lat="37.7266080" lon="-6.0118090">
        <ele>344.6</ele>
        <time>2021-10-21T15:16:11Z</time>
      </trkpt>
      <trkpt lat="37.7264670" lon="-6.0116320">
        <ele>343.5</ele>
        <time>2021-10-21T15:16:11Z</time>
      </trkpt>
      <trkpt lat="37.7263710" lon="-6.0115170">
        <ele>343.0</ele>
        <time>2021-10-21T15:16:11Z</time>
      </trkpt>
      <trkpt lat="37.7262190" lon="-6.0113290">
        <ele>342.2</ele>
        <time>2021-10-21T15:16:11Z</time>
      </trkpt>
      <trkpt lat="37.7260710" lon="-6.0111470">
        <ele>341.5</ele>
        <time>2021-10-21T15:16:11Z</time>
      </trkpt>
      <trkpt lat="37.7259260" lon="-6.0109680">
        <ele>341.0</ele>
        <time>2021-10-21T15:16:11Z</time>
      </trkpt>
      <trkpt lat="37.7256610" lon="-6.0106430">
        <ele>340.6</ele>
        <time>2021-10-21T15:16:11Z</time>
      </trkpt>
      <trkpt lat="37.7253770" lon="-6.0103090">
        <ele>339.2</ele>
        <time>2021-10-21T15:16:11Z</time>
      </trkpt>
      <trkpt lat="37.7253210" lon="-6.0102470">
        <ele>338.8</ele>
        <time>2021-10-21T15:16:11Z</time>
      </trkpt>
      <trkpt lat="37.7249480" lon="-6.0098720">
        <ele>334.6</ele>
        <time>2021-10-21T15:16:11Z</time>
      </trkpt>
      <trkpt lat="37.7246260" lon="-6.0095580">
        <ele>331.5</ele>
        <time>2021-10-21T15:16:11Z</time>
      </trkpt>
      <trkpt lat="37.7244640" lon="-6.0093980">
        <ele>330.5</ele>
        <time>2021-10-21T15:16:11Z</time>
      </trkpt>
      <trkpt lat="37.7242980" lon="-6.0092320">
        <ele>330.2</ele>
        <time>2021-10-21T15:16:11Z</time>
      </trkpt>
      <trkpt lat="37.7241350" lon="-6.0090730">
        <ele>330.5</ele>
        <time>2021-10-21T15:16:11Z</time>
      </trkpt>
      <trkpt lat="37.7239800" lon="-6.0089300">
        <ele>330.9</ele>
        <time>2021-10-21T15:16:11Z</time>
      </trkpt>
      <trkpt lat="37.7239190" lon="-6.0088770">
        <ele>331.1</ele>
        <time>2021-10-21T15:16:11Z</time>
      </trkpt>
      <trkpt lat="37.7237640" lon="-6.0087480">
        <ele>331.8</ele>
        <time>2021-10-21T15:16:11Z</time>
      </trkpt>
      <trkpt lat="37.7235850" lon="-6.0086200">
        <ele>333.1</ele>
        <time>2021-10-21T15:16:11Z</time>
      </trkpt>
      <trkpt lat="37.7233470" lon="-6.0084560">
        <ele>335.6</ele>
        <time>2021-10-21T15:16:11Z</time>
      </trkpt>
      <trkpt lat="37.7232240" lon="-6.0083700">
        <ele>336.9</ele>
        <time>2021-10-21T15:16:11Z</time>
      </trkpt>
      <trkpt lat="37.7231210" lon="-6.0083030">
        <ele>337.9</ele>
        <time>2021-10-21T15:16:11Z</time>
      </trkpt>
      <trkpt lat="37.7230560" lon="-6.0082580">
        <ele>338.5</ele>
        <time>2021-10-21T15:16:11Z</time>
      </trkpt>
      <trkpt lat="37.7230300" lon="-6.0082390">
        <ele>338.7</ele>
        <time>2021-10-21T15:16:11Z</time>
      </trkpt>
      <trkpt lat="37.7229590" lon="-6.0081880">
        <ele>339.3</ele>
        <time>2021-10-21T15:16:11Z</time>
      </trkpt>
      <trkpt lat="37.7229310" lon="-6.0081680">
        <ele>339.5</ele>
        <time>2021-10-21T15:16:11Z</time>
      </trkpt>
      <trkpt lat="37.7228830" lon="-6.0081370">
        <ele>339.9</ele>
        <time>2021-10-21T15:16:11Z</time>
      </trkpt>
      <trkpt lat="37.7228530" lon="-6.0081140">
        <ele>340.1</ele>
        <time>2021-10-21T15:16:11Z</time>
      </trkpt>
      <trkpt lat="37.7228000" lon="-6.0080730">
        <ele>340.4</ele>
        <time>2021-10-21T15:16:11Z</time>
      </trkpt>
      <trkpt lat="37.7227780" lon="-6.0080580">
        <ele>340.5</ele>
        <time>2021-10-21T15:16:11Z</time>
      </trkpt>
      <trkpt lat="37.7225640" lon="-6.0079090">
        <ele>340.6</ele>
        <time>2021-10-21T15:16:11Z</time>
      </trkpt>
      <trkpt lat="37.7223980" lon="-6.0078060">
        <ele>340.0</ele>
        <time>2021-10-21T15:16:11Z</time>
      </trkpt>
      <trkpt lat="37.7223630" lon="-6.0077760">
        <ele>339.8</ele>
        <time>2021-10-21T15:16:11Z</time>
      </trkpt>
      <trkpt lat="37.7222590" lon="-6.0076750">
        <ele>339.0</ele>
        <time>2021-10-21T15:16:11Z</time>
      </trkpt>
      <trkpt lat="37.7222100" lon="-6.0076530">
        <ele>338.7</ele>
        <time>2021-10-21T15:16:11Z</time>
      </trkpt>
      <trkpt lat="37.7221580" lon="-6.0076090">
        <ele>338.3</ele>
        <time>2021-10-21T15:16:11Z</time>
      </trkpt>
      <trkpt lat="37.7221420" lon="-6.0075880">
        <ele>338.1</ele>
        <time>2021-10-21T15:16:11Z</time>
      </trkpt>
      <trkpt lat="37.7221280" lon="-6.0075740">
        <ele>338.0</ele>
        <time>2021-10-21T15:16:11Z</time>
      </trkpt>
      <trkpt lat="37.7220680" lon="-6.0075270">
        <ele>337.6</ele>
        <time>2021-10-21T15:16:11Z</time>
      </trkpt>
      <trkpt lat="37.7220170" lon="-6.0074920">
        <ele>337.2</ele>
        <time>2021-10-21T15:16:11Z</time>
      </trkpt>
      <trkpt lat="37.7219900" lon="-6.0074720">
        <ele>337.0</ele>
        <time>2021-10-21T15:16:11Z</time>
      </trkpt>
      <trkpt lat="37.7219880" lon="-6.0074690">
        <ele>337.0</ele>
        <time>2021-10-21T15:16:11Z</time>
      </trkpt>
      <trkpt lat="37.7219470" lon="-6.0074250">
        <ele>336.6</ele>
        <time>2021-10-21T15:16:11Z</time>
      </trkpt>
      <trkpt lat="37.7219190" lon="-6.0073980">
        <ele>336.4</ele>
        <time>2021-10-21T15:16:11Z</time>
      </trkpt>
      <trkpt lat="37.7218940" lon="-6.0073730">
        <ele>336.2</ele>
        <time>2021-10-21T15:16:11Z</time>
      </trkpt>
      <trkpt lat="37.7216640" lon="-6.0071750">
        <ele>334.8</ele>
        <time>2021-10-21T15:16:11Z</time>
      </trkpt>
      <trkpt lat="37.7215120" lon="-6.0070500">
        <ele>334.0</ele>
        <time>2021-10-21T15:16:11Z</time>
      </trkpt>
      <trkpt lat="37.7213350" lon="-6.0068940">
        <ele>332.9</ele>
        <time>2021-10-21T15:16:11Z</time>
      </trkpt>
      <trkpt lat="37.7212770" lon="-6.0068460">
        <ele>332.5</ele>
        <time>2021-10-21T15:16:11Z</time>
      </trkpt>
      <trkpt lat="37.7209280" lon="-6.0065270">
        <ele>328.7</ele>
        <time>2021-10-21T15:16:11Z</time>
      </trkpt>
      <trkpt lat="37.7208590" lon="-6.0064560">
        <ele>327.8</ele>
        <time>2021-10-21T15:16:11Z</time>
      </trkpt>
      <trkpt lat="37.7207190" lon="-6.0062870">
        <ele>326.0</ele>
        <time>2021-10-21T15:16:11Z</time>
      </trkpt>
      <trkpt lat="37.7205040" lon="-6.0059990">
        <ele>323.4</ele>
        <time>2021-10-21T15:16:11Z</time>
      </trkpt>
      <trkpt lat="37.7203530" lon="-6.0057920">
        <ele>321.4</ele>
        <time>2021-10-21T15:16:11Z</time>
      </trkpt>
      <trkpt lat="37.7201970" lon="-6.0055770">
        <ele>319.0</ele>
        <time>2021-10-21T15:16:11Z</time>
      </trkpt>
      <trkpt lat="37.7200290" lon="-6.0053590">
        <ele>316.8</ele>
        <time>2021-10-21T15:16:11Z</time>
      </trkpt>
      <trkpt lat="37.7199380" lon="-6.0052520">
        <ele>315.9</ele>
        <time>2021-10-21T15:16:11Z</time>
      </trkpt>
      <trkpt lat="37.7197400" lon="-6.0050530">
        <ele>314.4</ele>
        <time>2021-10-21T15:16:11Z</time>
      </trkpt>
      <trkpt lat="37.7196360" lon="-6.0049650">
        <ele>314.0</ele>
        <time>2021-10-21T15:16:11Z</time>
      </trkpt>
      <trkpt lat="37.7195310" lon="-6.0048840">
        <ele>313.9</ele>
        <time>2021-10-21T15:16:11Z</time>
      </trkpt>
      <trkpt lat="37.7193270" lon="-6.0047410">
        <ele>314.0</ele>
        <time>2021-10-21T15:16:11Z</time>
      </trkpt>
      <trkpt lat="37.7191340" lon="-6.0046110">
        <ele>314.2</ele>
        <time>2021-10-21T15:16:11Z</time>
      </trkpt>
      <trkpt lat="37.7188240" lon="-6.0044020">
        <ele>315.7</ele>
        <time>2021-10-21T15:16:11Z</time>
      </trkpt>
      <trkpt lat="37.7186020" lon="-6.0042270">
        <ele>317.4</ele>
        <time>2021-10-21T15:16:11Z</time>
      </trkpt>
      <trkpt lat="37.7184630" lon="-6.0040960">
        <ele>318.5</ele>
        <time>2021-10-21T15:16:11Z</time>
      </trkpt>
      <trkpt lat="37.7183800" lon="-6.0040130">
        <ele>319.1</ele>
        <time>2021-10-21T15:16:11Z</time>
      </trkpt>
      <trkpt lat="37.7183440" lon="-6.0039710">
        <ele>319.3</ele>
        <time>2021-10-21T15:16:11Z</time>
      </trkpt>
      <trkpt lat="37.7182810" lon="-6.0038910">
        <ele>319.6</ele>
        <time>2021-10-21T15:16:11Z</time>
      </trkpt>
      <trkpt lat="37.7181740" lon="-6.0037390">
        <ele>320.2</ele>
        <time>2021-10-21T15:16:11Z</time>
      </trkpt>
      <trkpt lat="37.7180240" lon="-6.0035050">
        <ele>320.4</ele>
        <time>2021-10-21T15:16:11Z</time>
      </trkpt>
      <trkpt lat="37.7179890" lon="-6.0034480">
        <ele>320.4</ele>
        <time>2021-10-21T15:16:11Z</time>
      </trkpt>
      <trkpt lat="37.7177900" lon="-6.0030270">
        <ele>319.9</ele>
        <time>2021-10-21T15:16:11Z</time>
      </trkpt>
      <trkpt lat="37.7177260" lon="-6.0028640">
        <ele>319.8</ele>
        <time>2021-10-21T15:16:11Z</time>
      </trkpt>
      <trkpt lat="37.7176110" lon="-6.0025870">
        <ele>319.8</ele>
        <time>2021-10-21T15:16:11Z</time>
      </trkpt>
      <trkpt lat="37.7175560" lon="-6.0024580">
        <ele>319.8</ele>
        <time>2021-10-21T15:16:11Z</time>
      </trkpt>
      <trkpt lat="37.7175020" lon="-6.0023290">
        <ele>319.9</ele>
        <time>2021-10-21T15:16:11Z</time>
      </trkpt>
      <trkpt lat="37.7173110" lon="-6.0019090">
        <ele>320.3</ele>
        <time>2021-10-21T15:16:11Z</time>
      </trkpt>
      <trkpt lat="37.7171840" lon="-6.0016630">
        <ele>319.8</ele>
        <time>2021-10-21T15:16:11Z</time>
      </trkpt>
      <trkpt lat="37.7171520" lon="-6.0016060">
        <ele>319.6</ele>
        <time>2021-10-21T15:16:11Z</time>
      </trkpt>
      <trkpt lat="37.7170190" lon="-6.0013860">
        <ele>318.6</ele>
        <time>2021-10-21T15:16:11Z</time>
      </trkpt>
      <trkpt lat="37.7167080" lon="-6.0009670">
        <ele>317.1</ele>
        <time>2021-10-21T15:16:11Z</time>
      </trkpt>
      <trkpt lat="37.7165450" lon="-6.0007740">
        <ele>317.0</ele>
        <time>2021-10-21T15:16:11Z</time>
      </trkpt>
      <trkpt lat="37.7163900" lon="-6.0005850">
        <ele>317.2</ele>
        <time>2021-10-21T15:16:11Z</time>
      </trkpt>
      <trkpt lat="37.7162970" lon="-6.0004690">
        <ele>317.2</ele>
        <time>2021-10-21T15:16:11Z</time>
      </trkpt>
      <trkpt lat="37.7161260" lon="-6.0002540">
        <ele>317.2</ele>
        <time>2021-10-21T15:16:11Z</time>
      </trkpt>
      <trkpt lat="37.7160010" lon="-6.0000880">
        <ele>317.5</ele>
        <time>2021-10-21T15:16:11Z</time>
      </trkpt>
      <trkpt lat="37.7157810" lon="-5.9997110">
        <ele>318.1</ele>
        <time>2021-10-21T15:16:11Z</time>
      </trkpt>
      <trkpt lat="37.7156670" lon="-5.9994680">
        <ele>318.5</ele>
        <time>2021-10-21T15:16:11Z</time>
      </trkpt>
      <trkpt lat="37.7155750" lon="-5.9992750">
        <ele>318.9</ele>
        <time>2021-10-21T15:16:11Z</time>
      </trkpt>
      <trkpt lat="37.7155190" lon="-5.9991610">
        <ele>319.1</ele>
        <time>2021-10-21T15:16:11Z</time>
      </trkpt>
      <trkpt lat="37.7152910" lon="-5.9988100">
        <ele>319.8</ele>
        <time>2021-10-21T15:16:11Z</time>
      </trkpt>
      <trkpt lat="37.7150620" lon="-5.9985560">
        <ele>320.4</ele>
        <time>2021-10-21T15:16:11Z</time>
      </trkpt>
      <trkpt lat="37.7149890" lon="-5.9984890">
        <ele>320.6</ele>
        <time>2021-10-21T15:16:11Z</time>
      </trkpt>
      <trkpt lat="37.7147910" lon="-5.9983160">
        <ele>321.0</ele>
        <time>2021-10-21T15:16:11Z</time>
      </trkpt>
      <trkpt lat="37.7145170" lon="-5.9981240">
        <ele>320.8</ele>
        <time>2021-10-21T15:16:11Z</time>
      </trkpt>
      <trkpt lat="37.7143230" lon="-5.9980180">
        <ele>320.4</ele>
        <time>2021-10-21T15:16:11Z</time>
      </trkpt>
      <trkpt lat="37.7142680" lon="-5.9979920">
        <ele>320.3</ele>
        <time>2021-10-21T15:16:11Z</time>
      </trkpt>
      <trkpt lat="37.7139830" lon="-5.9978930">
        <ele>320.1</ele>
        <time>2021-10-21T15:16:11Z</time>
      </trkpt>
      <trkpt lat="37.7138090" lon="-5.9978470">
        <ele>320.1</ele>
        <time>2021-10-21T15:16:11Z</time>
      </trkpt>
      <trkpt lat="37.7134870" lon="-5.9977940">
        <ele>320.4</ele>
        <time>2021-10-21T15:16:11Z</time>
      </trkpt>
      <trkpt lat="37.7134350" lon="-5.9977860">
        <ele>320.5</ele>
        <time>2021-10-21T15:16:11Z</time>
      </trkpt>
      <trkpt lat="37.7131940" lon="-5.9977530">
        <ele>320.6</ele>
        <time>2021-10-21T15:16:11Z</time>
      </trkpt>
      <trkpt lat="37.7128790" lon="-5.9977160">
        <ele>319.3</ele>
        <time>2021-10-21T15:16:11Z</time>
      </trkpt>
      <trkpt lat="37.7125740" lon="-5.9976710">
        <ele>317.8</ele>
        <time>2021-10-21T15:16:11Z</time>
      </trkpt>
      <trkpt lat="37.7125070" lon="-5.9976600">
        <ele>317.5</ele>
        <time>2021-10-21T15:16:11Z</time>
      </trkpt>
      <trkpt lat="37.7120810" lon="-5.9976060">
        <ele>316.1</ele>
        <time>2021-10-21T15:16:11Z</time>
      </trkpt>
      <trkpt lat="37.7119400" lon="-5.9975880">
        <ele>315.6</ele>
        <time>2021-10-21T15:16:11Z</time>
      </trkpt>
      <trkpt lat="37.7117270" lon="-5.9975590">
        <ele>314.9</ele>
        <time>2021-10-21T15:16:11Z</time>
      </trkpt>
      <trkpt lat="37.7114460" lon="-5.9975250">
        <ele>314.0</ele>
        <time>2021-10-21T15:16:11Z</time>
      </trkpt>
      <trkpt lat="37.7111830" lon="-5.9974740">
        <ele>313.4</ele>
        <time>2021-10-21T15:16:11Z</time>
      </trkpt>
      <trkpt lat="37.7109460" lon="-5.9974150">
        <ele>312.9</ele>
        <time>2021-10-21T15:16:11Z</time>
      </trkpt>
      <trkpt lat="37.7107570" lon="-5.9973570">
        <ele>312.6</ele>
        <time>2021-10-21T15:16:11Z</time>
      </trkpt>
      <trkpt lat="37.7107010" lon="-5.9973390">
        <ele>312.5</ele>
        <time>2021-10-21T15:16:11Z</time>
      </trkpt>
      <trkpt lat="37.7105340" lon="-5.9972810">
        <ele>312.3</ele>
        <time>2021-10-21T15:16:11Z</time>
      </trkpt>
      <trkpt lat="37.7102760" lon="-5.9971760">
        <ele>312.0</ele>
        <time>2021-10-21T15:16:11Z</time>
      </trkpt>
      <trkpt lat="37.7099690" lon="-5.9970170">
        <ele>312.0</ele>
        <time>2021-10-21T15:16:11Z</time>
      </trkpt>
      <trkpt lat="37.7097900" lon="-5.9969090">
        <ele>312.1</ele>
        <time>2021-10-21T15:16:11Z</time>
      </trkpt>
      <trkpt lat="37.7096650" lon="-5.9968330">
        <ele>312.2</ele>
        <time>2021-10-21T15:16:11Z</time>
      </trkpt>
      <trkpt lat="37.7092820" lon="-5.9966050">
        <ele>312.4</ele>
        <time>2021-10-21T15:16:11Z</time>
      </trkpt>
      <trkpt lat="37.7089090" lon="-5.9964290">
        <ele>313.0</ele>
        <time>2021-10-21T15:16:11Z</time>
      </trkpt>
      <trkpt lat="37.7085190" lon="-5.9963300">
        <ele>313.5</ele>
        <time>2021-10-21T15:16:11Z</time>
      </trkpt>
      <trkpt lat="37.7083980" lon="-5.9963060">
        <ele>313.6</ele>
        <time>2021-10-21T15:16:11Z</time>
      </trkpt>
      <trkpt lat="37.7081720" lon="-5.9962710">
        <ele>313.9</ele>
        <time>2021-10-21T15:16:11Z</time>
      </trkpt>
      <trkpt lat="37.7077370" lon="-5.9961970">
        <ele>315.2</ele>
        <time>2021-10-21T15:16:11Z</time>
      </trkpt>
      <trkpt lat="37.7077040" lon="-5.9961890">
        <ele>315.3</ele>
        <time>2021-10-21T15:16:11Z</time>
      </trkpt>
      <trkpt lat="37.7074440" lon="-5.9961410">
        <ele>316.3</ele>
        <time>2021-10-21T15:16:11Z</time>
      </trkpt>
      <trkpt lat="37.7072520" lon="-5.9960950">
        <ele>316.9</ele>
        <time>2021-10-21T15:16:11Z</time>
      </trkpt>
      <trkpt lat="37.7071510" lon="-5.9960650">
        <ele>317.2</ele>
        <time>2021-10-21T15:16:11Z</time>
      </trkpt>
      <trkpt lat="37.7070560" lon="-5.9960320">
        <ele>317.5</ele>
        <time>2021-10-21T15:16:11Z</time>
      </trkpt>
      <trkpt lat="37.7068330" lon="-5.9959390">
        <ele>318.1</ele>
        <time>2021-10-21T15:16:11Z</time>
      </trkpt>
      <trkpt lat="37.7067650" lon="-5.9959040">
        <ele>318.3</ele>
        <time>2021-10-21T15:16:11Z</time>
      </trkpt>
      <trkpt lat="37.7065190" lon="-5.9957620">
        <ele>319.3</ele>
        <time>2021-10-21T15:16:11Z</time>
      </trkpt>
      <trkpt lat="37.7064630" lon="-5.9957250">
        <ele>319.6</ele>
        <time>2021-10-21T15:16:11Z</time>
      </trkpt>
      <trkpt lat="37.7062800" lon="-5.9956120">
        <ele>320.8</ele>
        <time>2021-10-21T15:16:11Z</time>
      </trkpt>
      <trkpt lat="37.7062640" lon="-5.9956010">
        <ele>320.9</ele>
        <time>2021-10-21T15:16:11Z</time>
      </trkpt>
      <trkpt lat="37.7061360" lon="-5.9955110">
        <ele>321.9</ele>
        <time>2021-10-21T15:16:11Z</time>
      </trkpt>
      <trkpt lat="37.7060800" lon="-5.9954740">
        <ele>322.3</ele>
        <time>2021-10-21T15:16:11Z</time>
      </trkpt>
      <trkpt lat="37.7059870" lon="-5.9954130">
        <ele>323.1</ele>
        <time>2021-10-21T15:16:11Z</time>
      </trkpt>
      <trkpt lat="37.7059130" lon="-5.9953570">
        <ele>323.8</ele>
        <time>2021-10-21T15:16:11Z</time>
      </trkpt>
      <trkpt lat="37.7058750" lon="-5.9953320">
        <ele>324.1</ele>
        <time>2021-10-21T15:16:11Z</time>
      </trkpt>
      <trkpt lat="37.7057720" lon="-5.9952530">
        <ele>325.0</ele>
        <time>2021-10-21T15:16:11Z</time>
      </trkpt>
      <trkpt lat="37.7057400" lon="-5.9952280">
        <ele>325.4</ele>
        <time>2021-10-21T15:16:11Z</time>
      </trkpt>
      <trkpt lat="37.7056550" lon="-5.9951580">
        <ele>326.2</ele>
        <time>2021-10-21T15:16:11Z</time>
      </trkpt>
      <trkpt lat="37.7056430" lon="-5.9951460">
        <ele>326.4</ele>
        <time>2021-10-21T15:16:11Z</time>
      </trkpt>
      <trkpt lat="37.7056260" lon="-5.9951280">
        <ele>326.6</ele>
        <time>2021-10-21T15:16:11Z</time>
      </trkpt>
      <trkpt lat="37.7055280" lon="-5.9950300">
        <ele>327.6</ele>
        <time>2021-10-21T15:16:11Z</time>
      </trkpt>
      <trkpt lat="37.7054710" lon="-5.9949690">
        <ele>328.3</ele>
        <time>2021-10-21T15:16:11Z</time>
      </trkpt>
      <trkpt lat="37.7054460" lon="-5.9949370">
        <ele>328.6</ele>
        <time>2021-10-21T15:16:11Z</time>
      </trkpt>
      <trkpt lat="37.7053930" lon="-5.9948760">
        <ele>329.1</ele>
        <time>2021-10-21T15:16:11Z</time>
      </trkpt>
      <trkpt lat="37.7053530" lon="-5.9948250">
        <ele>329.5</ele>
        <time>2021-10-21T15:16:11Z</time>
      </trkpt>
      <trkpt lat="37.7052310" lon="-5.9946960">
        <ele>330.5</ele>
        <time>2021-10-21T15:16:11Z</time>
      </trkpt>
      <trkpt lat="37.7052180" lon="-5.9946820">
        <ele>330.5</ele>
        <time>2021-10-21T15:16:11Z</time>
      </trkpt>
      <trkpt lat="37.7051860" lon="-5.9946500">
        <ele>330.7</ele>
        <time>2021-10-21T15:16:11Z</time>
      </trkpt>
      <trkpt lat="37.7051300" lon="-5.9946040">
        <ele>330.9</ele>
        <time>2021-10-21T15:16:11Z</time>
      </trkpt>
      <trkpt lat="37.7050750" lon="-5.9945510">
        <ele>331.1</ele>
        <time>2021-10-21T15:16:11Z</time>
      </trkpt>
      <trkpt lat="37.7050110" lon="-5.9945000">
        <ele>331.3</ele>
        <time>2021-10-21T15:16:11Z</time>
      </trkpt>
      <trkpt lat="37.7049120" lon="-5.9944280">
        <ele>331.5</ele>
        <time>2021-10-21T15:16:11Z</time>
      </trkpt>
      <trkpt lat="37.7047410" lon="-5.9943150">
        <ele>331.6</ele>
        <time>2021-10-21T15:16:11Z</time>
      </trkpt>
      <trkpt lat="37.7046410" lon="-5.9942580">
        <ele>331.6</ele>
        <time>2021-10-21T15:16:11Z</time>
      </trkpt>
      <trkpt lat="37.7045830" lon="-5.9942190">
        <ele>331.6</ele>
        <time>2021-10-21T15:16:11Z</time>
      </trkpt>
      <trkpt lat="37.7044260" lon="-5.9941110">
        <ele>331.5</ele>
        <time>2021-10-21T15:16:11Z</time>
      </trkpt>
      <trkpt lat="37.7043920" lon="-5.9940880">
        <ele>331.5</ele>
        <time>2021-10-21T15:16:11Z</time>
      </trkpt>
      <trkpt lat="37.7040690" lon="-5.9938410">
        <ele>331.5</ele>
        <time>2021-10-21T15:16:11Z</time>
      </trkpt>
      <trkpt lat="37.7038230" lon="-5.9935890">
        <ele>331.5</ele>
        <time>2021-10-21T15:16:11Z</time>
      </trkpt>
      <trkpt lat="37.7037320" lon="-5.9934810">
        <ele>331.6</ele>
        <time>2021-10-21T15:16:11Z</time>
      </trkpt>
      <trkpt lat="37.7035440" lon="-5.9932570">
        <ele>332.0</ele>
        <time>2021-10-21T15:16:11Z</time>
      </trkpt>
      <trkpt lat="37.7034030" lon="-5.9930770">
        <ele>332.6</ele>
        <time>2021-10-21T15:16:11Z</time>
      </trkpt>
      <trkpt lat="37.7033350" lon="-5.9929930">
        <ele>332.8</ele>
        <time>2021-10-21T15:16:11Z</time>
      </trkpt>
      <trkpt lat="37.7032080" lon="-5.9928320">
        <ele>333.3</ele>
        <time>2021-10-21T15:16:11Z</time>
      </trkpt>
      <trkpt lat="37.7031690" lon="-5.9927820">
        <ele>333.5</ele>
        <time>2021-10-21T15:16:11Z</time>
      </trkpt>
      <trkpt lat="37.7029870" lon="-5.9925460">
        <ele>334.2</ele>
        <time>2021-10-21T15:16:11Z</time>
      </trkpt>
      <trkpt lat="37.7028720" lon="-5.9923930">
        <ele>334.7</ele>
        <time>2021-10-21T15:16:11Z</time>
      </trkpt>
      <trkpt lat="37.7027990" lon="-5.9923000">
        <ele>335.0</ele>
        <time>2021-10-21T15:16:11Z</time>
      </trkpt>
      <trkpt lat="37.7027210" lon="-5.9922030">
        <ele>335.3</ele>
        <time>2021-10-21T15:16:11Z</time>
      </trkpt>
      <trkpt lat="37.7026390" lon="-5.9921010">
        <ele>335.5</ele>
        <time>2021-10-21T15:16:11Z</time>
      </trkpt>
      <trkpt lat="37.7025960" lon="-5.9920480">
        <ele>335.7</ele>
        <time>2021-10-21T15:16:11Z</time>
      </trkpt>
      <trkpt lat="37.7025070" lon="-5.9919510">
        <ele>335.9</ele>
        <time>2021-10-21T15:16:11Z</time>
      </trkpt>
      <trkpt lat="37.7023980" lon="-5.9918300">
        <ele>336.3</ele>
        <time>2021-10-21T15:16:11Z</time>
      </trkpt>
      <trkpt lat="37.7023550" lon="-5.9917830">
        <ele>336.4</ele>
        <time>2021-10-21T15:16:11Z</time>
      </trkpt>
      <trkpt lat="37.7021740" lon="-5.9916220">
        <ele>336.9</ele>
        <time>2021-10-21T15:16:11Z</time>
      </trkpt>
      <trkpt lat="37.7020350" lon="-5.9915090">
        <ele>337.3</ele>
        <time>2021-10-21T15:16:11Z</time>
      </trkpt>
      <trkpt lat="37.7019370" lon="-5.9914370">
        <ele>337.4</ele>
        <time>2021-10-21T15:16:11Z</time>
      </trkpt>
      <trkpt lat="37.7016860" lon="-5.9912710">
        <ele>338.1</ele>
        <time>2021-10-21T15:16:11Z</time>
      </trkpt>
      <trkpt lat="37.7016600" lon="-5.9912550">
        <ele>338.2</ele>
        <time>2021-10-21T15:16:11Z</time>
      </trkpt>
      <trkpt lat="37.7014220" lon="-5.9910630">
        <ele>338.9</ele>
        <time>2021-10-21T15:16:11Z</time>
      </trkpt>
      <trkpt lat="37.7013320" lon="-5.9909880">
        <ele>339.0</ele>
        <time>2021-10-21T15:16:11Z</time>
      </trkpt>
      <trkpt lat="37.7011560" lon="-5.9908060">
        <ele>338.9</ele>
        <time>2021-10-21T15:16:11Z</time>
      </trkpt>
      <trkpt lat="37.7011290" lon="-5.9907680">
        <ele>338.7</ele>
        <time>2021-10-21T15:16:11Z</time>
      </trkpt>
      <trkpt lat="37.7010730" lon="-5.9906870">
        <ele>338.5</ele>
        <time>2021-10-21T15:16:11Z</time>
      </trkpt>
      <trkpt lat="37.7009950" lon="-5.9906040">
        <ele>338.0</ele>
        <time>2021-10-21T15:16:11Z</time>
      </trkpt>
      <trkpt lat="37.7007080" lon="-5.9903030">
        <ele>336.5</ele>
        <time>2021-10-21T15:16:11Z</time>
      </trkpt>
      <trkpt lat="37.7006570" lon="-5.9902430">
        <ele>336.3</ele>
        <time>2021-10-21T15:16:11Z</time>
      </trkpt>
      <trkpt lat="37.7004960" lon="-5.9900640">
        <ele>335.6</ele>
        <time>2021-10-21T15:16:11Z</time>
      </trkpt>
      <trkpt lat="37.7004420" lon="-5.9900060">
        <ele>335.3</ele>
        <time>2021-10-21T15:16:11Z</time>
      </trkpt>
      <trkpt lat="37.7002800" lon="-5.9898350">
        <ele>334.5</ele>
        <time>2021-10-21T15:16:11Z</time>
      </trkpt>
      <trkpt lat="37.7001650" lon="-5.9897200">
        <ele>333.8</ele>
        <time>2021-10-21T15:16:11Z</time>
      </trkpt>
      <trkpt lat="37.6999290" lon="-5.9895290">
        <ele>332.9</ele>
        <time>2021-10-21T15:16:11Z</time>
      </trkpt>
      <trkpt lat="37.6997950" lon="-5.9894250">
        <ele>332.6</ele>
        <time>2021-10-21T15:16:11Z</time>
      </trkpt>
      <trkpt lat="37.6996230" lon="-5.9892810">
        <ele>332.1</ele>
        <time>2021-10-21T15:16:11Z</time>
      </trkpt>
      <trkpt lat="37.6992670" lon="-5.9889520">
        <ele>331.6</ele>
        <time>2021-10-21T15:16:11Z</time>
      </trkpt>
      <trkpt lat="37.6991000" lon="-5.9887480">
        <ele>331.5</ele>
        <time>2021-10-21T15:16:11Z</time>
      </trkpt>
      <trkpt lat="37.6990010" lon="-5.9885990">
        <ele>331.5</ele>
        <time>2021-10-21T15:16:11Z</time>
      </trkpt>
      <trkpt lat="37.6988690" lon="-5.9883940">
        <ele>331.3</ele>
        <time>2021-10-21T15:16:11Z</time>
      </trkpt>
      <trkpt lat="37.6986880" lon="-5.9881470">
        <ele>330.7</ele>
        <time>2021-10-21T15:16:11Z</time>
      </trkpt>
      <trkpt lat="37.6983660" lon="-5.9877970">
        <ele>327.9</ele>
        <time>2021-10-21T15:16:11Z</time>
      </trkpt>
      <trkpt lat="37.6983080" lon="-5.9877400">
        <ele>327.3</ele>
        <time>2021-10-21T15:16:11Z</time>
      </trkpt>
      <trkpt lat="37.6980460" lon="-5.9874860">
        <ele>325.0</ele>
        <time>2021-10-21T15:16:11Z</time>
      </trkpt>
      <trkpt lat="37.6979020" lon="-5.9873510">
        <ele>324.1</ele>
        <time>2021-10-21T15:16:11Z</time>
      </trkpt>
      <trkpt lat="37.6976770" lon="-5.9871390">
        <ele>323.1</ele>
        <time>2021-10-21T15:16:11Z</time>
      </trkpt>
      <trkpt lat="37.6975210" lon="-5.9870050">
        <ele>322.7</ele>
        <time>2021-10-21T15:16:11Z</time>
      </trkpt>
      <trkpt lat="37.6974600" lon="-5.9869560">
        <ele>322.6</ele>
        <time>2021-10-21T15:16:11Z</time>
      </trkpt>
      <trkpt lat="37.6972120" lon="-5.9867720">
        <ele>322.5</ele>
        <time>2021-10-21T15:16:11Z</time>
      </trkpt>
      <trkpt lat="37.6969910" lon="-5.9866320">
        <ele>322.5</ele>
        <time>2021-10-21T15:16:11Z</time>
      </trkpt>
      <trkpt lat="37.6969190" lon="-5.9865950">
        <ele>322.6</ele>
        <time>2021-10-21T15:16:11Z</time>
      </trkpt>
      <trkpt lat="37.6966400" lon="-5.9864850">
        <ele>322.8</ele>
        <time>2021-10-21T15:16:11Z</time>
      </trkpt>
      <trkpt lat="37.6962740" lon="-5.9864250">
        <ele>323.0</ele>
        <time>2021-10-21T15:16:11Z</time>
      </trkpt>
      <trkpt lat="37.6959980" lon="-5.9863940">
        <ele>322.8</ele>
        <time>2021-10-21T15:16:11Z</time>
      </trkpt>
      <trkpt lat="37.6955530" lon="-5.9863560">
        <ele>321.5</ele>
        <time>2021-10-21T15:16:11Z</time>
      </trkpt>
      <trkpt lat="37.6952570" lon="-5.9863280">
        <ele>320.9</ele>
        <time>2021-10-21T15:16:11Z</time>
      </trkpt>
      <trkpt lat="37.6951330" lon="-5.9863140">
        <ele>320.7</ele>
        <time>2021-10-21T15:16:11Z</time>
      </trkpt>
      <trkpt lat="37.6948860" lon="-5.9862920">
        <ele>320.3</ele>
        <time>2021-10-21T15:16:11Z</time>
      </trkpt>
      <trkpt lat="37.6945500" lon="-5.9862610">
        <ele>320.1</ele>
        <time>2021-10-21T15:16:11Z</time>
      </trkpt>
      <trkpt lat="37.6943740" lon="-5.9862410">
        <ele>320.2</ele>
        <time>2021-10-21T15:16:11Z</time>
      </trkpt>
      <trkpt lat="37.6940020" lon="-5.9861980">
        <ele>320.2</ele>
        <time>2021-10-21T15:16:11Z</time>
      </trkpt>
      <trkpt lat="37.6937110" lon="-5.9861700">
        <ele>320.5</ele>
        <time>2021-10-21T15:16:11Z</time>
      </trkpt>
      <trkpt lat="37.6936660" lon="-5.9861660">
        <ele>320.6</ele>
        <time>2021-10-21T15:16:11Z</time>
      </trkpt>
      <trkpt lat="37.6932440" lon="-5.9861090">
        <ele>321.4</ele>
        <time>2021-10-21T15:16:11Z</time>
      </trkpt>
      <trkpt lat="37.6928610" lon="-5.9860660">
        <ele>322.2</ele>
        <time>2021-10-21T15:16:11Z</time>
      </trkpt>
      <trkpt lat="37.6927890" lon="-5.9860550">
        <ele>322.4</ele>
        <time>2021-10-21T15:16:11Z</time>
      </trkpt>
      <trkpt lat="37.6924290" lon="-5.9860130">
        <ele>323.2</ele>
        <time>2021-10-21T15:16:11Z</time>
      </trkpt>
      <trkpt lat="37.6923860" lon="-5.9860090">
        <ele>323.3</ele>
        <time>2021-10-21T15:16:11Z</time>
      </trkpt>
      <trkpt lat="37.6919770" lon="-5.9860110">
        <ele>324.5</ele>
        <time>2021-10-21T15:16:11Z</time>
      </trkpt>
      <trkpt lat="37.6916280" lon="-5.9861100">
        <ele>325.4</ele>
        <time>2021-10-21T15:16:11Z</time>
      </trkpt>
      <trkpt lat="37.6915640" lon="-5.9861350">
        <ele>325.6</ele>
        <time>2021-10-21T15:16:11Z</time>
      </trkpt>
      <trkpt lat="37.6911590" lon="-5.9862950">
        <ele>326.6</ele>
        <time>2021-10-21T15:16:11Z</time>
      </trkpt>
      <trkpt lat="37.6911240" lon="-5.9863070">
        <ele>326.7</ele>
        <time>2021-10-21T15:16:11Z</time>
      </trkpt>
      <trkpt lat="37.6909180" lon="-5.9863890">
        <ele>327.0</ele>
        <time>2021-10-21T15:16:11Z</time>
      </trkpt>
      <trkpt lat="37.6908490" lon="-5.9864190">
        <ele>327.0</ele>
        <time>2021-10-21T15:16:11Z</time>
      </trkpt>
      <trkpt lat="37.6905270" lon="-5.9865390">
        <ele>327.4</ele>
        <time>2021-10-21T15:16:11Z</time>
      </trkpt>
      <trkpt lat="37.6903680" lon="-5.9865980">
        <ele>327.5</ele>
        <time>2021-10-21T15:16:11Z</time>
      </trkpt>
      <trkpt lat="37.6901600" lon="-5.9866790">
        <ele>327.5</ele>
        <time>2021-10-21T15:16:11Z</time>
      </trkpt>
      <trkpt lat="37.6900360" lon="-5.9867400">
        <ele>327.6</ele>
        <time>2021-10-21T15:16:11Z</time>
      </trkpt>
      <trkpt lat="37.6899590" lon="-5.9867910">
        <ele>327.7</ele>
        <time>2021-10-21T15:16:11Z</time>
      </trkpt>
      <trkpt lat="37.6896860" lon="-5.9870420">
        <ele>327.9</ele>
        <time>2021-10-21T15:16:11Z</time>
      </trkpt>
      <trkpt lat="37.6896270" lon="-5.9870950">
        <ele>327.9</ele>
        <time>2021-10-21T15:16:11Z</time>
      </trkpt>
      <trkpt lat="37.6894990" lon="-5.9872280">
        <ele>327.8</ele>
        <time>2021-10-21T15:16:11Z</time>
      </trkpt>
      <trkpt lat="37.6894650" lon="-5.9872590">
        <ele>327.8</ele>
        <time>2021-10-21T15:16:11Z</time>
      </trkpt>
      <trkpt lat="37.6894590" lon="-5.9872660">
        <ele>327.8</ele>
        <time>2021-10-21T15:16:11Z</time>
      </trkpt>
      <trkpt lat="37.6894600" lon="-5.9872690">
        <ele>327.8</ele>
        <time>2021-10-21T15:16:11Z</time>
      </trkpt>
      <trkpt lat="37.6894130" lon="-5.9873010">
        <ele>327.7</ele>
        <time>2021-10-21T15:16:11Z</time>
      </trkpt>
      <trkpt lat="37.6893860" lon="-5.9873170">
        <ele>327.6</ele>
        <time>2021-10-21T15:16:11Z</time>
      </trkpt>
      <trkpt lat="37.6891520" lon="-5.9874930">
        <ele>327.1</ele>
        <time>2021-10-21T15:16:11Z</time>
      </trkpt>
      <trkpt lat="37.6889330" lon="-5.9876240">
        <ele>326.3</ele>
        <time>2021-10-21T15:16:11Z</time>
      </trkpt>
      <trkpt lat="37.6887540" lon="-5.9877200">
        <ele>325.6</ele>
        <time>2021-10-21T15:16:11Z</time>
      </trkpt>
      <trkpt lat="37.6886540" lon="-5.9877720">
        <ele>325.2</ele>
        <time>2021-10-21T15:16:11Z</time>
      </trkpt>
      <trkpt lat="37.6883680" lon="-5.9878960">
        <ele>323.8</ele>
        <time>2021-10-21T15:16:11Z</time>
      </trkpt>
      <trkpt lat="37.6881670" lon="-5.9879790">
        <ele>322.6</ele>
        <time>2021-10-21T15:16:11Z</time>
      </trkpt>
      <trkpt lat="37.6880230" lon="-5.9880300">
        <ele>321.7</ele>
        <time>2021-10-21T15:16:11Z</time>
      </trkpt>
      <trkpt lat="37.6877760" lon="-5.9881040">
        <ele>320.3</ele>
        <time>2021-10-21T15:16:11Z</time>
      </trkpt>
      <trkpt lat="37.6877090" lon="-5.9881190">
        <ele>319.9</ele>
        <time>2021-10-21T15:16:11Z</time>
      </trkpt>
      <trkpt lat="37.6874430" lon="-5.9881500">
        <ele>318.2</ele>
        <time>2021-10-21T15:16:11Z</time>
      </trkpt>
      <trkpt lat="37.6871560" lon="-5.9881540">
        <ele>316.1</ele>
        <time>2021-10-21T15:16:11Z</time>
      </trkpt>
      <trkpt lat="37.6868470" lon="-5.9881440">
        <ele>313.9</ele>
        <time>2021-10-21T15:16:11Z</time>
      </trkpt>
      <trkpt lat="37.6866100" lon="-5.9881320">
        <ele>312.4</ele>
        <time>2021-10-21T15:16:11Z</time>
      </trkpt>
      <trkpt lat="37.6865200" lon="-5.9881280">
        <ele>311.8</ele>
        <time>2021-10-21T15:16:11Z</time>
      </trkpt>
      <trkpt lat="37.6864080" lon="-5.9881240">
        <ele>311.2</ele>
        <time>2021-10-21T15:16:11Z</time>
      </trkpt>
      <trkpt lat="37.6861840" lon="-5.9881140">
        <ele>310.0</ele>
        <time>2021-10-21T15:16:11Z</time>
      </trkpt>
      <trkpt lat="37.6859610" lon="-5.9881050">
        <ele>308.8</ele>
        <time>2021-10-21T15:16:11Z</time>
      </trkpt>
      <trkpt lat="37.6857410" lon="-5.9880970">
        <ele>307.4</ele>
        <time>2021-10-21T15:16:11Z</time>
      </trkpt>
      <trkpt lat="37.6856090" lon="-5.9880920">
        <ele>306.5</ele>
        <time>2021-10-21T15:16:11Z</time>
      </trkpt>
      <trkpt lat="37.6855200" lon="-5.9880890">
        <ele>305.9</ele>
        <time>2021-10-21T15:16:11Z</time>
      </trkpt>
      <trkpt lat="37.6852990" lon="-5.9880770">
        <ele>304.5</ele>
        <time>2021-10-21T15:16:11Z</time>
      </trkpt>
      <trkpt lat="37.6850770" lon="-5.9880680">
        <ele>303.3</ele>
        <time>2021-10-21T15:16:11Z</time>
      </trkpt>
      <trkpt lat="37.6847470" lon="-5.9880550">
        <ele>301.9</ele>
        <time>2021-10-21T15:16:11Z</time>
      </trkpt>
      <trkpt lat="37.6845320" lon="-5.9880480">
        <ele>301.3</ele>
        <time>2021-10-21T15:16:11Z</time>
      </trkpt>
      <trkpt lat="37.6843020" lon="-5.9880460">
        <ele>300.6</ele>
        <time>2021-10-21T15:16:11Z</time>
      </trkpt>
      <trkpt lat="37.6841190" lon="-5.9880590">
        <ele>299.9</ele>
        <time>2021-10-21T15:16:11Z</time>
      </trkpt>
      <trkpt lat="37.6839970" lon="-5.9880740">
        <ele>299.4</ele>
        <time>2021-10-21T15:16:11Z</time>
      </trkpt>
      <trkpt lat="37.6836300" lon="-5.9881190">
        <ele>297.8</ele>
        <time>2021-10-21T15:16:11Z</time>
      </trkpt>
      <trkpt lat="37.6834190" lon="-5.9881180">
        <ele>297.1</ele>
        <time>2021-10-21T15:16:11Z</time>
      </trkpt>
      <trkpt lat="37.6833440" lon="-5.9881020">
        <ele>296.8</ele>
        <time>2021-10-21T15:16:11Z</time>
      </trkpt>
      <trkpt lat="37.6829910" lon="-5.9879370">
        <ele>296.0</ele>
        <time>2021-10-21T15:16:11Z</time>
      </trkpt>
      <trkpt lat="37.6826830" lon="-5.9877230">
        <ele>295.8</ele>
        <time>2021-10-21T15:16:11Z</time>
      </trkpt>
      <trkpt lat="37.6825370" lon="-5.9876300">
        <ele>295.8</ele>
        <time>2021-10-21T15:16:11Z</time>
      </trkpt>
      <trkpt lat="37.6823480" lon="-5.9875030">
        <ele>296.1</ele>
        <time>2021-10-21T15:16:11Z</time>
      </trkpt>
      <trkpt lat="37.6822280" lon="-5.9874210">
        <ele>296.2</ele>
        <time>2021-10-21T15:16:11Z</time>
      </trkpt>
      <trkpt lat="37.6819570" lon="-5.9872390">
        <ele>296.4</ele>
        <time>2021-10-21T15:16:11Z</time>
      </trkpt>
      <trkpt lat="37.6817790" lon="-5.9871110">
        <ele>296.6</ele>
        <time>2021-10-21T15:16:11Z</time>
      </trkpt>
      <trkpt lat="37.6817120" lon="-5.9870790">
        <ele>296.6</ele>
        <time>2021-10-21T15:16:11Z</time>
      </trkpt>
      <trkpt lat="37.6815360" lon="-5.9869940">
        <ele>296.6</ele>
        <time>2021-10-21T15:16:11Z</time>
      </trkpt>
      <trkpt lat="37.6812630" lon="-5.9868700">
        <ele>296.3</ele>
        <time>2021-10-21T15:16:11Z</time>
      </trkpt>
      <trkpt lat="37.6810230" lon="-5.9867470">
        <ele>296.2</ele>
        <time>2021-10-21T15:16:11Z</time>
      </trkpt>
      <trkpt lat="37.6807340" lon="-5.9866290">
        <ele>296.6</ele>
        <time>2021-10-21T15:16:11Z</time>
      </trkpt>
      <trkpt lat="37.6804900" lon="-5.9865240">
        <ele>297.5</ele>
        <time>2021-10-21T15:16:11Z</time>
      </trkpt>
      <trkpt lat="37.6802720" lon="-5.9864310">
        <ele>298.4</ele>
        <time>2021-10-21T15:16:11Z</time>
      </trkpt>
      <trkpt lat="37.6800770" lon="-5.9863160">
        <ele>299.3</ele>
        <time>2021-10-21T15:16:11Z</time>
      </trkpt>
      <trkpt lat="37.6800520" lon="-5.9862990">
        <ele>299.5</ele>
        <time>2021-10-21T15:16:11Z</time>
      </trkpt>
      <trkpt lat="37.6799150" lon="-5.9861780">
        <ele>300.5</ele>
        <time>2021-10-21T15:16:11Z</time>
      </trkpt>
      <trkpt lat="37.6798960" lon="-5.9861580">
        <ele>300.6</ele>
        <time>2021-10-21T15:16:11Z</time>
      </trkpt>
      <trkpt lat="37.6797570" lon="-5.9860330">
        <ele>301.7</ele>
        <time>2021-10-21T15:16:11Z</time>
      </trkpt>
      <trkpt lat="37.6797220" lon="-5.9860030">
        <ele>302.0</ele>
        <time>2021-10-21T15:16:11Z</time>
      </trkpt>
      <trkpt lat="37.6797040" lon="-5.9859870">
        <ele>302.1</ele>
        <time>2021-10-21T15:16:11Z</time>
      </trkpt>
      <trkpt lat="37.6796350" lon="-5.9859240">
        <ele>302.7</ele>
        <time>2021-10-21T15:16:11Z</time>
      </trkpt>
      <trkpt lat="37.6795800" lon="-5.9858890">
        <ele>303.0</ele>
        <time>2021-10-21T15:16:11Z</time>
      </trkpt>
      <trkpt lat="37.6794960" lon="-5.9858140">
        <ele>303.7</ele>
        <time>2021-10-21T15:16:11Z</time>
      </trkpt>
      <trkpt lat="37.6794810" lon="-5.9858020">
        <ele>303.8</ele>
        <time>2021-10-21T15:16:11Z</time>
      </trkpt>
      <trkpt lat="37.6794620" lon="-5.9857880">
        <ele>303.9</ele>
        <time>2021-10-21T15:16:11Z</time>
      </trkpt>
      <trkpt lat="37.6793800" lon="-5.9857220">
        <ele>304.5</ele>
        <time>2021-10-21T15:16:11Z</time>
      </trkpt>
      <trkpt lat="37.6793470" lon="-5.9856910">
        <ele>304.7</ele>
        <time>2021-10-21T15:16:11Z</time>
      </trkpt>
      <trkpt lat="37.6792370" lon="-5.9855980">
        <ele>304.9</ele>
        <time>2021-10-21T15:16:11Z</time>
      </trkpt>
      <trkpt lat="37.6792020" lon="-5.9855700">
        <ele>304.9</ele>
        <time>2021-10-21T15:16:11Z</time>
      </trkpt>
      <trkpt lat="37.6791090" lon="-5.9855610">
        <ele>305.0</ele>
        <time>2021-10-21T15:16:11Z</time>
      </trkpt>
      <trkpt lat="37.6790730" lon="-5.9855660">
        <ele>305.0</ele>
        <time>2021-10-21T15:16:11Z</time>
      </trkpt>
      <trkpt lat="37.6790280" lon="-5.9855730">
        <ele>304.9</ele>
        <time>2021-10-21T15:16:11Z</time>
      </trkpt>
      <trkpt lat="37.6789720" lon="-5.9855590">
        <ele>304.9</ele>
        <time>2021-10-21T15:16:11Z</time>
      </trkpt>
      <trkpt lat="37.6789460" lon="-5.9855460">
        <ele>304.9</ele>
        <time>2021-10-21T15:16:11Z</time>
      </trkpt>
      <trkpt lat="37.6789030" lon="-5.9855320">
        <ele>304.9</ele>
        <time>2021-10-21T15:16:11Z</time>
      </trkpt>
      <trkpt lat="37.6786990" lon="-5.9855070">
        <ele>304.7</ele>
        <time>2021-10-21T15:16:11Z</time>
      </trkpt>
      <trkpt lat="37.6784320" lon="-5.9855520">
        <ele>304.4</ele>
        <time>2021-10-21T15:16:11Z</time>
      </trkpt>
      <trkpt lat="37.6781390" lon="-5.9856020">
        <ele>304.4</ele>
        <time>2021-10-21T15:16:11Z</time>
      </trkpt>
      <trkpt lat="37.6781150" lon="-5.9856070">
        <ele>304.4</ele>
        <time>2021-10-21T15:16:11Z</time>
      </trkpt>
      <trkpt lat="37.6780150" lon="-5.9856250">
        <ele>304.5</ele>
        <time>2021-10-21T15:16:11Z</time>
      </trkpt>
      <trkpt lat="37.6779610" lon="-5.9856440">
        <ele>304.5</ele>
        <time>2021-10-21T15:16:11Z</time>
      </trkpt>
      <trkpt lat="37.6779010" lon="-5.9856600">
        <ele>304.6</ele>
        <time>2021-10-21T15:16:11Z</time>
      </trkpt>
      <trkpt lat="37.6777920" lon="-5.9856720">
        <ele>304.8</ele>
        <time>2021-10-21T15:16:11Z</time>
      </trkpt>
      <trkpt lat="37.6777880" lon="-5.9856710">
        <ele>304.8</ele>
        <time>2021-10-21T15:16:11Z</time>
      </trkpt>
      <trkpt lat="37.6777190" lon="-5.9856690">
        <ele>304.9</ele>
        <time>2021-10-21T15:16:11Z</time>
      </trkpt>
      <trkpt lat="37.6777010" lon="-5.9856710">
        <ele>305.0</ele>
        <time>2021-10-21T15:16:11Z</time>
      </trkpt>
      <trkpt lat="37.6775630" lon="-5.9856860">
        <ele>305.3</ele>
        <time>2021-10-21T15:16:11Z</time>
      </trkpt>
      <trkpt lat="37.6773590" lon="-5.9857240">
        <ele>306.0</ele>
        <time>2021-10-21T15:16:11Z</time>
      </trkpt>
      <trkpt lat="37.6772020" lon="-5.9857520">
        <ele>306.7</ele>
        <time>2021-10-21T15:16:11Z</time>
      </trkpt>
      <trkpt lat="37.6771570" lon="-5.9857570">
        <ele>306.9</ele>
        <time>2021-10-21T15:16:11Z</time>
      </trkpt>
      <trkpt lat="37.6770510" lon="-5.9857790">
        <ele>307.4</ele>
        <time>2021-10-21T15:16:11Z</time>
      </trkpt>
      <trkpt lat="37.6769490" lon="-5.9857980">
        <ele>307.9</ele>
        <time>2021-10-21T15:16:11Z</time>
      </trkpt>
      <trkpt lat="37.6768690" lon="-5.9858110">
        <ele>308.3</ele>
        <time>2021-10-21T15:16:11Z</time>
      </trkpt>
      <trkpt lat="37.6768050" lon="-5.9858240">
        <ele>308.5</ele>
        <time>2021-10-21T15:16:11Z</time>
      </trkpt>
      <trkpt lat="37.6767810" lon="-5.9858300">
        <ele>308.6</ele>
        <time>2021-10-21T15:16:11Z</time>
      </trkpt>
      <trkpt lat="37.6766340" lon="-5.9858590">
        <ele>309.1</ele>
        <time>2021-10-21T15:16:11Z</time>
      </trkpt>
      <trkpt lat="37.6765650" lon="-5.9858720">
        <ele>309.3</ele>
        <time>2021-10-21T15:16:11Z</time>
      </trkpt>
      <trkpt lat="37.6764680" lon="-5.9858980">
        <ele>309.7</ele>
        <time>2021-10-21T15:16:11Z</time>
      </trkpt>
      <trkpt lat="37.6763420" lon="-5.9859190">
        <ele>310.0</ele>
        <time>2021-10-21T15:16:11Z</time>
      </trkpt>
      <trkpt lat="37.6761180" lon="-5.9859630">
        <ele>310.2</ele>
        <time>2021-10-21T15:16:11Z</time>
      </trkpt>
      <trkpt lat="37.6760610" lon="-5.9859730">
        <ele>310.4</ele>
        <time>2021-10-21T15:16:11Z</time>
      </trkpt>
      <trkpt lat="37.6759750" lon="-5.9859900">
        <ele>310.5</ele>
        <time>2021-10-21T15:16:11Z</time>
      </trkpt>
      <trkpt lat="37.6759250" lon="-5.9860010">
        <ele>310.6</ele>
        <time>2021-10-21T15:16:11Z</time>
      </trkpt>
      <trkpt lat="37.6757680" lon="-5.9860390">
        <ele>310.9</ele>
        <time>2021-10-21T15:16:11Z</time>
      </trkpt>
      <trkpt lat="37.6755820" lon="-5.9860780">
        <ele>311.1</ele>
        <time>2021-10-21T15:16:11Z</time>
      </trkpt>
      <trkpt lat="37.6754490" lon="-5.9861210">
        <ele>311.3</ele>
        <time>2021-10-21T15:16:11Z</time>
      </trkpt>
      <trkpt lat="37.6753980" lon="-5.9861340">
        <ele>311.4</ele>
        <time>2021-10-21T15:16:11Z</time>
      </trkpt>
      <trkpt lat="37.6753210" lon="-5.9861420">
        <ele>311.5</ele>
        <time>2021-10-21T15:16:11Z</time>
      </trkpt>
      <trkpt lat="37.6752670" lon="-5.9861580">
        <ele>311.5</ele>
        <time>2021-10-21T15:16:11Z</time>
      </trkpt>
      <trkpt lat="37.6752060" lon="-5.9861690">
        <ele>311.6</ele>
        <time>2021-10-21T15:16:11Z</time>
      </trkpt>
      <trkpt lat="37.6751620" lon="-5.9861850">
        <ele>311.6</ele>
        <time>2021-10-21T15:16:11Z</time>
      </trkpt>
      <trkpt lat="37.6751490" lon="-5.9861910">
        <ele>311.6</ele>
        <time>2021-10-21T15:16:11Z</time>
      </trkpt>
      <trkpt lat="37.6750850" lon="-5.9861980">
        <ele>311.6</ele>
        <time>2021-10-21T15:16:11Z</time>
      </trkpt>
      <trkpt lat="37.6750640" lon="-5.9862030">
        <ele>311.6</ele>
        <time>2021-10-21T15:16:11Z</time>
      </trkpt>
      <trkpt lat="37.6749180" lon="-5.9862280">
        <ele>311.7</ele>
        <time>2021-10-21T15:16:11Z</time>
      </trkpt>
      <trkpt lat="37.6747230" lon="-5.9862840">
        <ele>311.8</ele>
        <time>2021-10-21T15:16:11Z</time>
      </trkpt>
      <trkpt lat="37.6746950" lon="-5.9862900">
        <ele>311.8</ele>
        <time>2021-10-21T15:16:11Z</time>
      </trkpt>
      <trkpt lat="37.6744930" lon="-5.9863300">
        <ele>312.4</ele>
        <time>2021-10-21T15:16:11Z</time>
      </trkpt>
      <trkpt lat="37.6742190" lon="-5.9863800">
        <ele>313.3</ele>
        <time>2021-10-21T15:16:11Z</time>
      </trkpt>
      <trkpt lat="37.6741130" lon="-5.9864030">
        <ele>313.7</ele>
        <time>2021-10-21T15:16:11Z</time>
      </trkpt>
      <trkpt lat="37.6739840" lon="-5.9864260">
        <ele>313.9</ele>
        <time>2021-10-21T15:16:11Z</time>
      </trkpt>
      <trkpt lat="37.6738420" lon="-5.9864620">
        <ele>314.2</ele>
        <time>2021-10-21T15:16:11Z</time>
      </trkpt>
      <trkpt lat="37.6737500" lon="-5.9864740">
        <ele>314.4</ele>
        <time>2021-10-21T15:16:11Z</time>
      </trkpt>
      <trkpt lat="37.6736810" lon="-5.9864960">
        <ele>314.6</ele>
        <time>2021-10-21T15:16:11Z</time>
      </trkpt>
      <trkpt lat="37.6735360" lon="-5.9865400">
        <ele>315.0</ele>
        <time>2021-10-21T15:16:11Z</time>
      </trkpt>
      <trkpt lat="37.6734780" lon="-5.9865690">
        <ele>315.2</ele>
        <time>2021-10-21T15:16:11Z</time>
      </trkpt>
      <trkpt lat="37.6733720" lon="-5.9866250">
        <ele>315.7</ele>
        <time>2021-10-21T15:16:11Z</time>
      </trkpt>
      <trkpt lat="37.6733290" lon="-5.9866460">
        <ele>315.9</ele>
        <time>2021-10-21T15:16:11Z</time>
      </trkpt>
      <trkpt lat="37.6731680" lon="-5.9867460">
        <ele>316.6</ele>
        <time>2021-10-21T15:16:11Z</time>
      </trkpt>
      <trkpt lat="37.6730860" lon="-5.9867940">
        <ele>317.0</ele>
        <time>2021-10-21T15:16:11Z</time>
      </trkpt>
      <trkpt lat="37.6730260" lon="-5.9868220">
        <ele>317.3</ele>
        <time>2021-10-21T15:16:11Z</time>
      </trkpt>
      <trkpt lat="37.6729030" lon="-5.9868800">
        <ele>317.8</ele>
        <time>2021-10-21T15:16:11Z</time>
      </trkpt>
      <trkpt lat="37.6728670" lon="-5.9869070">
        <ele>317.9</ele>
        <time>2021-10-21T15:16:11Z</time>
      </trkpt>
      <trkpt lat="37.6726360" lon="-5.9870260">
        <ele>318.9</ele>
        <time>2021-10-21T15:16:11Z</time>
      </trkpt>
      <trkpt lat="37.6725850" lon="-5.9870450">
        <ele>319.1</ele>
        <time>2021-10-21T15:16:11Z</time>
      </trkpt>
      <trkpt lat="37.6724060" lon="-5.9871050">
        <ele>319.9</ele>
        <time>2021-10-21T15:16:11Z</time>
      </trkpt>
      <trkpt lat="37.6722700" lon="-5.9871360">
        <ele>320.5</ele>
        <time>2021-10-21T15:16:11Z</time>
      </trkpt>
      <trkpt lat="37.6722030" lon="-5.9871490">
        <ele>320.7</ele>
        <time>2021-10-21T15:16:11Z</time>
      </trkpt>
      <trkpt lat="37.6720250" lon="-5.9871890">
        <ele>321.4</ele>
        <time>2021-10-21T15:16:11Z</time>
      </trkpt>
      <trkpt lat="37.6719140" lon="-5.9872160">
        <ele>321.8</ele>
        <time>2021-10-21T15:16:11Z</time>
      </trkpt>
      <trkpt lat="37.6718480" lon="-5.9872340">
        <ele>322.1</ele>
        <time>2021-10-21T15:16:11Z</time>
      </trkpt>
      <trkpt lat="37.6717840" lon="-5.9872560">
        <ele>322.3</ele>
        <time>2021-10-21T15:16:11Z</time>
      </trkpt>
      <trkpt lat="37.6717590" lon="-5.9872620">
        <ele>322.4</ele>
        <time>2021-10-21T15:16:11Z</time>
      </trkpt>
      <trkpt lat="37.6715220" lon="-5.9873190">
        <ele>323.3</ele>
        <time>2021-10-21T15:16:11Z</time>
      </trkpt>
      <trkpt lat="37.6715000" lon="-5.9873240">
        <ele>323.3</ele>
        <time>2021-10-21T15:16:11Z</time>
      </trkpt>
      <trkpt lat="37.6714790" lon="-5.9873290">
        <ele>323.4</ele>
        <time>2021-10-21T15:16:11Z</time>
      </trkpt>
      <trkpt lat="37.6714020" lon="-5.9873440">
        <ele>323.6</ele>
        <time>2021-10-21T15:16:11Z</time>
      </trkpt>
      <trkpt lat="37.6713270" lon="-5.9873590">
        <ele>323.9</ele>
        <time>2021-10-21T15:16:11Z</time>
      </trkpt>
      <trkpt lat="37.6712390" lon="-5.9873770">
        <ele>324.1</ele>
        <time>2021-10-21T15:16:11Z</time>
      </trkpt>
      <trkpt lat="37.6711430" lon="-5.9873960">
        <ele>324.4</ele>
        <time>2021-10-21T15:16:11Z</time>
      </trkpt>
      <trkpt lat="37.6709960" lon="-5.9874470">
        <ele>324.7</ele>
        <time>2021-10-21T15:16:11Z</time>
      </trkpt>
      <trkpt lat="37.6708360" lon="-5.9875310">
        <ele>325.1</ele>
        <time>2021-10-21T15:16:11Z</time>
      </trkpt>
      <trkpt lat="37.6707890" lon="-5.9875620">
        <ele>325.2</ele>
        <time>2021-10-21T15:16:11Z</time>
      </trkpt>
      <trkpt lat="37.6707170" lon="-5.9876360">
        <ele>325.5</ele>
        <time>2021-10-21T15:16:11Z</time>
      </trkpt>
      <trkpt lat="37.6706410" lon="-5.9877180">
        <ele>325.8</ele>
        <time>2021-10-21T15:16:11Z</time>
      </trkpt>
      <trkpt lat="37.6704760" lon="-5.9879150">
        <ele>326.5</ele>
        <time>2021-10-21T15:16:11Z</time>
      </trkpt>
      <trkpt lat="37.6704180" lon="-5.9879820">
        <ele>326.8</ele>
        <time>2021-10-21T15:16:11Z</time>
      </trkpt>
      <trkpt lat="37.6702710" lon="-5.9881520">
        <ele>327.5</ele>
        <time>2021-10-21T15:16:11Z</time>
      </trkpt>
      <trkpt lat="37.6701860" lon="-5.9882430">
        <ele>327.9</ele>
        <time>2021-10-21T15:16:11Z</time>
      </trkpt>
      <trkpt lat="37.6701540" lon="-5.9882890">
        <ele>328.1</ele>
        <time>2021-10-21T15:16:11Z</time>
      </trkpt>
      <trkpt lat="37.6701420" lon="-5.9883040">
        <ele>328.1</ele>
        <time>2021-10-21T15:16:11Z</time>
      </trkpt>
      <trkpt lat="37.6700610" lon="-5.9884010">
        <ele>328.5</ele>
        <time>2021-10-21T15:16:11Z</time>
      </trkpt>
      <trkpt lat="37.6700450" lon="-5.9884180">
        <ele>328.6</ele>
        <time>2021-10-21T15:16:11Z</time>
      </trkpt>
      <trkpt lat="37.6698920" lon="-5.9885770">
        <ele>329.2</ele>
        <time>2021-10-21T15:16:11Z</time>
      </trkpt>
      <trkpt lat="37.6698750" lon="-5.9885960">
        <ele>329.2</ele>
        <time>2021-10-21T15:16:11Z</time>
      </trkpt>
      <trkpt lat="37.6697500" lon="-5.9887410">
        <ele>330.1</ele>
        <time>2021-10-21T15:16:11Z</time>
      </trkpt>
      <trkpt lat="37.6697180" lon="-5.9887840">
        <ele>330.4</ele>
        <time>2021-10-21T15:16:11Z</time>
      </trkpt>
      <trkpt lat="37.6696030" lon="-5.9889320">
        <ele>331.1</ele>
        <time>2021-10-21T15:16:11Z</time>
      </trkpt>
      <trkpt lat="37.6695730" lon="-5.9889690">
        <ele>331.3</ele>
        <time>2021-10-21T15:16:11Z</time>
      </trkpt>
      <trkpt lat="37.6694700" lon="-5.9890970">
        <ele>331.8</ele>
        <time>2021-10-21T15:16:11Z</time>
      </trkpt>
      <trkpt lat="37.6694350" lon="-5.9891430">
        <ele>332.0</ele>
        <time>2021-10-21T15:16:11Z</time>
      </trkpt>
      <trkpt lat="37.6693290" lon="-5.9892810">
        <ele>332.6</ele>
        <time>2021-10-21T15:16:11Z</time>
      </trkpt>
      <trkpt lat="37.6693080" lon="-5.9893030">
        <ele>332.7</ele>
        <time>2021-10-21T15:16:11Z</time>
      </trkpt>
      <trkpt lat="37.6692490" lon="-5.9893850">
        <ele>333.1</ele>
        <time>2021-10-21T15:16:11Z</time>
      </trkpt>
      <trkpt lat="37.6692180" lon="-5.9894340">
        <ele>333.3</ele>
        <time>2021-10-21T15:16:11Z</time>
      </trkpt>
      <trkpt lat="37.6692080" lon="-5.9894530">
        <ele>333.4</ele>
        <time>2021-10-21T15:16:11Z</time>
      </trkpt>
      <trkpt lat="37.6691770" lon="-5.9895040">
        <ele>333.6</ele>
        <time>2021-10-21T15:16:11Z</time>
      </trkpt>
      <trkpt lat="37.6690760" lon="-5.9896530">
        <ele>334.5</ele>
        <time>2021-10-21T15:16:11Z</time>
      </trkpt>
      <trkpt lat="37.6690640" lon="-5.9896720">
        <ele>334.6</ele>
        <time>2021-10-21T15:16:11Z</time>
      </trkpt>
      <trkpt lat="37.6689870" lon="-5.9897890">
        <ele>335.4</ele>
        <time>2021-10-21T15:16:11Z</time>
      </trkpt>
      <trkpt lat="37.6689720" lon="-5.9898100">
        <ele>335.6</ele>
        <time>2021-10-21T15:16:11Z</time>
      </trkpt>
      <trkpt lat="37.6689460" lon="-5.9898600">
        <ele>335.9</ele>
        <time>2021-10-21T15:16:11Z</time>
      </trkpt>
      <trkpt lat="37.6688840" lon="-5.9899550">
        <ele>336.7</ele>
        <time>2021-10-21T15:16:11Z</time>
      </trkpt>
      <trkpt lat="37.6688590" lon="-5.9899970">
        <ele>337.1</ele>
        <time>2021-10-21T15:16:11Z</time>
      </trkpt>
      <trkpt lat="37.6688490" lon="-5.9900160">
        <ele>337.2</ele>
        <time>2021-10-21T15:16:11Z</time>
      </trkpt>
      <trkpt lat="37.6687990" lon="-5.9901020">
        <ele>337.9</ele>
        <time>2021-10-21T15:16:11Z</time>
      </trkpt>
      <trkpt lat="37.6687670" lon="-5.9901570">
        <ele>338.4</ele>
        <time>2021-10-21T15:16:11Z</time>
      </trkpt>
      <trkpt lat="37.6687100" lon="-5.9902610">
        <ele>339.2</ele>
        <time>2021-10-21T15:16:11Z</time>
      </trkpt>
      <trkpt lat="37.6686900" lon="-5.9902930">
        <ele>339.4</ele>
        <time>2021-10-21T15:16:11Z</time>
      </trkpt>
      <trkpt lat="37.6686310" lon="-5.9903840">
        <ele>340.2</ele>
        <time>2021-10-21T15:16:11Z</time>
      </trkpt>
      <trkpt lat="37.6686190" lon="-5.9904070">
        <ele>340.3</ele>
        <time>2021-10-21T15:16:11Z</time>
      </trkpt>
      <trkpt lat="37.6685800" lon="-5.9904770">
        <ele>340.8</ele>
        <time>2021-10-21T15:16:11Z</time>
      </trkpt>
      <trkpt lat="37.6685580" lon="-5.9905220">
        <ele>341.0</ele>
        <time>2021-10-21T15:16:11Z</time>
      </trkpt>
      <trkpt lat="37.6684990" lon="-5.9906480">
        <ele>341.7</ele>
        <time>2021-10-21T15:16:11Z</time>
      </trkpt>
      <trkpt lat="37.6684800" lon="-5.9906840">
        <ele>341.8</ele>
        <time>2021-10-21T15:16:11Z</time>
      </trkpt>
      <trkpt lat="37.6684720" lon="-5.9907050">
        <ele>341.9</ele>
        <time>2021-10-21T15:16:11Z</time>
      </trkpt>
      <trkpt lat="37.6683860" lon="-5.9909040">
        <ele>342.4</ele>
        <time>2021-10-21T15:16:11Z</time>
      </trkpt>
      <trkpt lat="37.6683710" lon="-5.9909340">
        <ele>342.5</ele>
        <time>2021-10-21T15:16:11Z</time>
      </trkpt>
      <trkpt lat="37.6683400" lon="-5.9910060">
        <ele>342.6</ele>
        <time>2021-10-21T15:16:11Z</time>
      </trkpt>
      <trkpt lat="37.6683030" lon="-5.9911450">
        <ele>342.8</ele>
        <time>2021-10-21T15:16:11Z</time>
      </trkpt>
      <trkpt lat="37.6682470" lon="-5.9913330">
        <ele>343.3</ele>
        <time>2021-10-21T15:16:11Z</time>
      </trkpt>
      <trkpt lat="37.6680760" lon="-5.9914860">
        <ele>343.4</ele>
        <time>2021-10-21T15:16:11Z</time>
      </trkpt>
      <trkpt lat="37.6680550" lon="-5.9915080">
        <ele>343.4</ele>
        <time>2021-10-21T15:16:11Z</time>
      </trkpt>
      <trkpt lat="37.6680400" lon="-5.9915240">
        <ele>343.4</ele>
        <time>2021-10-21T15:16:11Z</time>
      </trkpt>
      <trkpt lat="37.6678950" lon="-5.9916860">
        <ele>343.5</ele>
        <time>2021-10-21T15:16:11Z</time>
      </trkpt>
      <trkpt lat="37.6677630" lon="-5.9918330">
        <ele>343.4</ele>
        <time>2021-10-21T15:16:11Z</time>
      </trkpt>
      <trkpt lat="37.6676800" lon="-5.9919420">
        <ele>343.2</ele>
        <time>2021-10-21T15:16:11Z</time>
      </trkpt>
      <trkpt lat="37.6675510" lon="-5.9921600">
        <ele>343.1</ele>
        <time>2021-10-21T15:16:11Z</time>
      </trkpt>
      <trkpt lat="37.6673480" lon="-5.9925220">
        <ele>342.9</ele>
        <time>2021-10-21T15:16:11Z</time>
      </trkpt>
      <trkpt lat="37.6671900" lon="-5.9928970">
        <ele>342.7</ele>
        <time>2021-10-21T15:16:11Z</time>
      </trkpt>
      <trkpt lat="37.6671140" lon="-5.9931760">
        <ele>342.3</ele>
        <time>2021-10-21T15:16:11Z</time>
      </trkpt>
      <trkpt lat="37.6670070" lon="-5.9932270">
        <ele>342.2</ele>
        <time>2021-10-21T15:16:11Z</time>
      </trkpt>
      <trkpt lat="37.6669490" lon="-5.9931910">
        <ele>342.1</ele>
        <time>2021-10-21T15:16:11Z</time>
      </trkpt>
      <trkpt lat="37.6669190" lon="-5.9931370">
        <ele>342.1</ele>
        <time>2021-10-21T15:16:11Z</time>
      </trkpt>
      <trkpt lat="37.6668610" lon="-5.9930100">
        <ele>342.1</ele>
        <time>2021-10-21T15:16:11Z</time>
      </trkpt>
      <trkpt lat="37.6668340" lon="-5.9929990">
        <ele>342.0</ele>
        <time>2021-10-21T15:16:11Z</time>
      </trkpt>
      <trkpt lat="37.6667900" lon="-5.9930200">
        <ele>342.0</ele>
        <time>2021-10-21T15:16:11Z</time>
      </trkpt>
      <trkpt lat="37.6667770" lon="-5.9930470">
        <ele>342.0</ele>
        <time>2021-10-21T15:16:11Z</time>
      </trkpt>
      <trkpt lat="37.6666710" lon="-5.9932650">
        <ele>341.8</ele>
        <time>2021-10-21T15:16:11Z</time>
      </trkpt>
      <trkpt lat="37.6665550" lon="-5.9934600">
        <ele>341.3</ele>
        <time>2021-10-21T15:16:11Z</time>
      </trkpt>
      <trkpt lat="37.6664570" lon="-5.9936270">
        <ele>341.0</ele>
        <time>2021-10-21T15:16:11Z</time>
      </trkpt>
      <trkpt lat="37.6664210" lon="-5.9937250">
        <ele>340.8</ele>
        <time>2021-10-21T15:16:11Z</time>
      </trkpt>
      <trkpt lat="37.6662960" lon="-5.9939540">
        <ele>340.1</ele>
        <time>2021-10-21T15:16:11Z</time>
      </trkpt>
      <trkpt lat="37.6662640" lon="-5.9939930">
        <ele>339.9</ele>
        <time>2021-10-21T15:16:11Z</time>
      </trkpt>
      <trkpt lat="37.6661560" lon="-5.9940960">
        <ele>339.4</ele>
        <time>2021-10-21T15:16:11Z</time>
      </trkpt>
      <trkpt lat="37.6660310" lon="-5.9942080">
        <ele>338.7</ele>
        <time>2021-10-21T15:16:11Z</time>
      </trkpt>
      <trkpt lat="37.6659640" lon="-5.9943180">
        <ele>338.1</ele>
        <time>2021-10-21T15:16:11Z</time>
      </trkpt>
      <trkpt lat="37.6659130" lon="-5.9943700">
        <ele>337.7</ele>
        <time>2021-10-21T15:16:11Z</time>
      </trkpt>
      <trkpt lat="37.6657670" lon="-5.9945390">
        <ele>336.4</ele>
        <time>2021-10-21T15:16:11Z</time>
      </trkpt>
      <trkpt lat="37.6657410" lon="-5.9945720">
        <ele>336.2</ele>
        <time>2021-10-21T15:16:11Z</time>
      </trkpt>
      <trkpt lat="37.6655710" lon="-5.9947270">
        <ele>334.7</ele>
        <time>2021-10-21T15:16:11Z</time>
      </trkpt>
      <trkpt lat="37.6655220" lon="-5.9947770">
        <ele>334.3</ele>
        <time>2021-10-21T15:16:11Z</time>
      </trkpt>
      <trkpt lat="37.6653750" lon="-5.9949590">
        <ele>333.0</ele>
        <time>2021-10-21T15:16:11Z</time>
      </trkpt>
      <trkpt lat="37.6653300" lon="-5.9950220">
        <ele>332.6</ele>
        <time>2021-10-21T15:16:11Z</time>
      </trkpt>
      <trkpt lat="37.6652530" lon="-5.9951400">
        <ele>331.9</ele>
        <time>2021-10-21T15:16:11Z</time>
      </trkpt>
      <trkpt lat="37.6651970" lon="-5.9952140">
        <ele>331.4</ele>
        <time>2021-10-21T15:16:11Z</time>
      </trkpt>
      <trkpt lat="37.6651540" lon="-5.9952530">
        <ele>331.1</ele>
        <time>2021-10-21T15:16:11Z</time>
      </trkpt>
      <trkpt lat="37.6650870" lon="-5.9953090">
        <ele>330.7</ele>
        <time>2021-10-21T15:16:11Z</time>
      </trkpt>
      <trkpt lat="37.6649940" lon="-5.9953990">
        <ele>330.1</ele>
        <time>2021-10-21T15:16:11Z</time>
      </trkpt>
      <trkpt lat="37.6648910" lon="-5.9955370">
        <ele>329.4</ele>
        <time>2021-10-21T15:16:11Z</time>
      </trkpt>
      <trkpt lat="37.6648410" lon="-5.9956010">
        <ele>329.1</ele>
        <time>2021-10-21T15:16:11Z</time>
      </trkpt>
      <trkpt lat="37.6647370" lon="-5.9957340">
        <ele>328.5</ele>
        <time>2021-10-21T15:16:11Z</time>
      </trkpt>
      <trkpt lat="37.6645750" lon="-5.9959180">
        <ele>327.7</ele>
        <time>2021-10-21T15:16:11Z</time>
      </trkpt>
      <trkpt lat="37.6644080" lon="-5.9960860">
        <ele>327.3</ele>
        <time>2021-10-21T15:16:11Z</time>
      </trkpt>
      <trkpt lat="37.6643590" lon="-5.9961410">
        <ele>327.1</ele>
        <time>2021-10-21T15:16:11Z</time>
      </trkpt>
      <trkpt lat="37.6643250" lon="-5.9961780">
        <ele>327.1</ele>
        <time>2021-10-21T15:16:11Z</time>
      </trkpt>
      <trkpt lat="37.6642300" lon="-5.9962340">
        <ele>326.8</ele>
        <time>2021-10-21T15:16:11Z</time>
      </trkpt>
      <trkpt lat="37.6641370" lon="-5.9962980">
        <ele>326.6</ele>
        <time>2021-10-21T15:16:11Z</time>
      </trkpt>
      <trkpt lat="37.6640390" lon="-5.9964240">
        <ele>326.3</ele>
        <time>2021-10-21T15:16:11Z</time>
      </trkpt>
      <trkpt lat="37.6639830" lon="-5.9965100">
        <ele>326.1</ele>
        <time>2021-10-21T15:16:11Z</time>
      </trkpt>
      <trkpt lat="37.6639400" lon="-5.9965670">
        <ele>326.0</ele>
        <time>2021-10-21T15:16:11Z</time>
      </trkpt>
      <trkpt lat="37.6638430" lon="-5.9967130">
        <ele>325.6</ele>
        <time>2021-10-21T15:16:11Z</time>
      </trkpt>
      <trkpt lat="37.6637730" lon="-5.9968310">
        <ele>325.4</ele>
        <time>2021-10-21T15:16:11Z</time>
      </trkpt>
      <trkpt lat="37.6637350" lon="-5.9968780">
        <ele>325.4</ele>
        <time>2021-10-21T15:16:11Z</time>
      </trkpt>
      <trkpt lat="37.6634560" lon="-5.9971470">
        <ele>325.2</ele>
        <time>2021-10-21T15:16:11Z</time>
      </trkpt>
      <trkpt lat="37.6633760" lon="-5.9972370">
        <ele>325.1</ele>
        <time>2021-10-21T15:16:11Z</time>
      </trkpt>
      <trkpt lat="37.6633190" lon="-5.9973180">
        <ele>325.1</ele>
        <time>2021-10-21T15:16:11Z</time>
      </trkpt>
      <trkpt lat="37.6632390" lon="-5.9974010">
        <ele>325.0</ele>
        <time>2021-10-21T15:16:11Z</time>
      </trkpt>
      <trkpt lat="37.6631980" lon="-5.9974350">
        <ele>325.0</ele>
        <time>2021-10-21T15:16:11Z</time>
      </trkpt>
      <trkpt lat="37.6630600" lon="-5.9975090">
        <ele>324.9</ele>
        <time>2021-10-21T15:16:11Z</time>
      </trkpt>
      <trkpt lat="37.6630190" lon="-5.9975380">
        <ele>324.8</ele>
        <time>2021-10-21T15:16:11Z</time>
      </trkpt>
      <trkpt lat="37.6629870" lon="-5.9975790">
        <ele>324.8</ele>
        <time>2021-10-21T15:16:11Z</time>
      </trkpt>
      <trkpt lat="37.6629330" lon="-5.9976640">
        <ele>324.7</ele>
        <time>2021-10-21T15:16:11Z</time>
      </trkpt>
      <trkpt lat="37.6626450" lon="-5.9979390">
        <ele>323.9</ele>
        <time>2021-10-21T15:16:11Z</time>
      </trkpt>
      <trkpt lat="37.6625790" lon="-5.9980190">
        <ele>323.6</ele>
        <time>2021-10-21T15:16:11Z</time>
      </trkpt>
      <trkpt lat="37.6625280" lon="-5.9980850">
        <ele>323.3</ele>
        <time>2021-10-21T15:16:11Z</time>
      </trkpt>
      <trkpt lat="37.6625180" lon="-5.9981000">
        <ele>323.2</ele>
        <time>2021-10-21T15:16:11Z</time>
      </trkpt>
      <trkpt lat="37.6624700" lon="-5.9981280">
        <ele>323.0</ele>
        <time>2021-10-21T15:16:11Z</time>
      </trkpt>
      <trkpt lat="37.6624450" lon="-5.9981410">
        <ele>322.9</ele>
        <time>2021-10-21T15:16:11Z</time>
      </trkpt>
      <trkpt lat="37.6622570" lon="-5.9982730">
        <ele>321.9</ele>
        <time>2021-10-21T15:16:11Z</time>
      </trkpt>
      <trkpt lat="37.6622110" lon="-5.9983020">
        <ele>321.6</ele>
        <time>2021-10-21T15:16:11Z</time>
      </trkpt>
      <trkpt lat="37.6621170" lon="-5.9983490">
        <ele>321.1</ele>
        <time>2021-10-21T15:16:11Z</time>
      </trkpt>
      <trkpt lat="37.6620290" lon="-5.9984120">
        <ele>320.6</ele>
        <time>2021-10-21T15:16:11Z</time>
      </trkpt>
      <trkpt lat="37.6617910" lon="-5.9985970">
        <ele>319.2</ele>
        <time>2021-10-21T15:16:11Z</time>
      </trkpt>
      <trkpt lat="37.6617400" lon="-5.9986430">
        <ele>318.8</ele>
        <time>2021-10-21T15:16:11Z</time>
      </trkpt>
      <trkpt lat="37.6615820" lon="-5.9987760">
        <ele>317.8</ele>
        <time>2021-10-21T15:16:11Z</time>
      </trkpt>
      <trkpt lat="37.6615300" lon="-5.9988040">
        <ele>317.6</ele>
        <time>2021-10-21T15:16:11Z</time>
      </trkpt>
      <trkpt lat="37.6614870" lon="-5.9988340">
        <ele>317.3</ele>
        <time>2021-10-21T15:16:11Z</time>
      </trkpt>
      <trkpt lat="37.6614230" lon="-5.9989220">
        <ele>316.7</ele>
        <time>2021-10-21T15:16:11Z</time>
      </trkpt>
      <trkpt lat="37.6613150" lon="-5.9990160">
        <ele>315.9</ele>
        <time>2021-10-21T15:16:11Z</time>
      </trkpt>
      <trkpt lat="37.6611980" lon="-5.9990930">
        <ele>315.1</ele>
        <time>2021-10-21T15:16:11Z</time>
      </trkpt>
      <trkpt lat="37.6611380" lon="-5.9991260">
        <ele>314.7</ele>
        <time>2021-10-21T15:16:11Z</time>
      </trkpt>
      <trkpt lat="37.6610090" lon="-5.9991870">
        <ele>313.8</ele>
        <time>2021-10-21T15:16:11Z</time>
      </trkpt>
      <trkpt lat="37.6609560" lon="-5.9992150">
        <ele>313.4</ele>
        <time>2021-10-21T15:16:11Z</time>
      </trkpt>
      <trkpt lat="37.6608050" lon="-5.9992850">
        <ele>312.4</ele>
        <time>2021-10-21T15:16:11Z</time>
      </trkpt>
      <trkpt lat="37.6607430" lon="-5.9993360">
        <ele>312.0</ele>
        <time>2021-10-21T15:16:11Z</time>
      </trkpt>
      <trkpt lat="37.6606880" lon="-5.9993930">
        <ele>311.5</ele>
        <time>2021-10-21T15:16:11Z</time>
      </trkpt>
      <trkpt lat="37.6605970" lon="-5.9995120">
        <ele>310.9</ele>
        <time>2021-10-21T15:16:11Z</time>
      </trkpt>
      <trkpt lat="37.6605100" lon="-5.9996320">
        <ele>310.4</ele>
        <time>2021-10-21T15:16:11Z</time>
      </trkpt>
      <trkpt lat="37.6603450" lon="-5.9997670">
        <ele>309.6</ele>
        <time>2021-10-21T15:16:11Z</time>
      </trkpt>
      <trkpt lat="37.6602420" lon="-5.9998620">
        <ele>309.1</ele>
        <time>2021-10-21T15:16:11Z</time>
      </trkpt>
      <trkpt lat="37.6600940" lon="-6.0000100">
        <ele>308.5</ele>
        <time>2021-10-21T15:16:11Z</time>
      </trkpt>
      <trkpt lat="37.6599420" lon="-6.0001400">
        <ele>307.9</ele>
        <time>2021-10-21T15:16:11Z</time>
      </trkpt>
      <trkpt lat="37.6598880" lon="-6.0001740">
        <ele>307.7</ele>
        <time>2021-10-21T15:16:11Z</time>
      </trkpt>
      <trkpt lat="37.6598310" lon="-6.0002050">
        <ele>307.5</ele>
        <time>2021-10-21T15:16:11Z</time>
      </trkpt>
      <trkpt lat="37.6597750" lon="-6.0002370">
        <ele>307.4</ele>
        <time>2021-10-21T15:16:11Z</time>
      </trkpt>
      <trkpt lat="37.6596390" lon="-6.0003630">
        <ele>306.9</ele>
        <time>2021-10-21T15:16:11Z</time>
      </trkpt>
      <trkpt lat="37.6595610" lon="-6.0004510">
        <ele>306.6</ele>
        <time>2021-10-21T15:16:11Z</time>
      </trkpt>
      <trkpt lat="37.6594190" lon="-6.0005660">
        <ele>306.0</ele>
        <time>2021-10-21T15:16:11Z</time>
      </trkpt>
      <trkpt lat="37.6593490" lon="-6.0006430">
        <ele>305.7</ele>
        <time>2021-10-21T15:16:11Z</time>
      </trkpt>
      <trkpt lat="37.6592510" lon="-6.0007270">
        <ele>305.3</ele>
        <time>2021-10-21T15:16:11Z</time>
      </trkpt>
      <trkpt lat="37.6592070" lon="-6.0007670">
        <ele>305.1</ele>
        <time>2021-10-21T15:16:11Z</time>
      </trkpt>
      <trkpt lat="37.6591650" lon="-6.0008050">
        <ele>304.9</ele>
        <time>2021-10-21T15:16:11Z</time>
      </trkpt>
      <trkpt lat="37.6591320" lon="-6.0008370">
        <ele>304.8</ele>
        <time>2021-10-21T15:16:11Z</time>
      </trkpt>
      <trkpt lat="37.6590800" lon="-6.0008830">
        <ele>304.5</ele>
        <time>2021-10-21T15:16:11Z</time>
      </trkpt>
      <trkpt lat="37.6589880" lon="-6.0009640">
        <ele>304.1</ele>
        <time>2021-10-21T15:16:11Z</time>
      </trkpt>
      <trkpt lat="37.6589530" lon="-6.0010050">
        <ele>303.9</ele>
        <time>2021-10-21T15:16:11Z</time>
      </trkpt>
      <trkpt lat="37.6588960" lon="-6.0010620">
        <ele>303.7</ele>
        <time>2021-10-21T15:16:11Z</time>
      </trkpt>
      <trkpt lat="37.6587900" lon="-6.0011410">
        <ele>303.3</ele>
        <time>2021-10-21T15:16:11Z</time>
      </trkpt>
      <trkpt lat="37.6587400" lon="-6.0011830">
        <ele>303.1</ele>
        <time>2021-10-21T15:16:11Z</time>
      </trkpt>
      <trkpt lat="37.6587000" lon="-6.0012150">
        <ele>303.0</ele>
        <time>2021-10-21T15:16:11Z</time>
      </trkpt>
      <trkpt lat="37.6586520" lon="-6.0012630">
        <ele>302.8</ele>
        <time>2021-10-21T15:16:11Z</time>
      </trkpt>
      <trkpt lat="37.6585630" lon="-6.0013980">
        <ele>302.4</ele>
        <time>2021-10-21T15:16:11Z</time>
      </trkpt>
      <trkpt lat="37.6585180" lon="-6.0014570">
        <ele>302.2</ele>
        <time>2021-10-21T15:16:11Z</time>
      </trkpt>
      <trkpt lat="37.6584110" lon="-6.0015940">
        <ele>301.8</ele>
        <time>2021-10-21T15:16:11Z</time>
      </trkpt>
      <trkpt lat="37.6583900" lon="-6.0016140">
        <ele>301.7</ele>
        <time>2021-10-21T15:16:11Z</time>
      </trkpt>
      <trkpt lat="37.6583790" lon="-6.0016210">
        <ele>301.7</ele>
        <time>2021-10-21T15:16:11Z</time>
      </trkpt>
      <trkpt lat="37.6583760" lon="-6.0016240">
        <ele>301.7</ele>
        <time>2021-10-21T15:16:11Z</time>
      </trkpt>
      <trkpt lat="37.6583420" lon="-6.0017000">
        <ele>301.5</ele>
        <time>2021-10-21T15:16:11Z</time>
      </trkpt>
      <trkpt lat="37.6583230" lon="-6.0017580">
        <ele>301.3</ele>
        <time>2021-10-21T15:16:11Z</time>
      </trkpt>
      <trkpt lat="37.6581780" lon="-6.0019120">
        <ele>300.7</ele>
        <time>2021-10-21T15:16:11Z</time>
      </trkpt>
      <trkpt lat="37.6579690" lon="-6.0021330">
        <ele>299.9</ele>
        <time>2021-10-21T15:16:11Z</time>
      </trkpt>
      <trkpt lat="37.6578220" lon="-6.0022840">
        <ele>299.3</ele>
        <time>2021-10-21T15:16:11Z</time>
      </trkpt>
      <trkpt lat="37.6576960" lon="-6.0024230">
        <ele>298.7</ele>
        <time>2021-10-21T15:16:11Z</time>
      </trkpt>
      <trkpt lat="37.6574780" lon="-6.0026450">
        <ele>297.6</ele>
        <time>2021-10-21T15:16:11Z</time>
      </trkpt>
      <trkpt lat="37.6573720" lon="-6.0027560">
        <ele>297.2</ele>
        <time>2021-10-21T15:16:11Z</time>
      </trkpt>
      <trkpt lat="37.6572300" lon="-6.0029070">
        <ele>296.6</ele>
        <time>2021-10-21T15:16:11Z</time>
      </trkpt>
      <trkpt lat="37.6570130" lon="-6.0031310">
        <ele>295.8</ele>
        <time>2021-10-21T15:16:11Z</time>
      </trkpt>
      <trkpt lat="37.6569600" lon="-6.0031880">
        <ele>295.5</ele>
        <time>2021-10-21T15:16:11Z</time>
      </trkpt>
      <trkpt lat="37.6565920" lon="-6.0035810">
        <ele>294.2</ele>
        <time>2021-10-21T15:16:11Z</time>
      </trkpt>
      <trkpt lat="37.6565400" lon="-6.0036330">
        <ele>294.0</ele>
        <time>2021-10-21T15:16:11Z</time>
      </trkpt>
      <trkpt lat="37.6562900" lon="-6.0038870">
        <ele>293.3</ele>
        <time>2021-10-21T15:16:11Z</time>
      </trkpt>
      <trkpt lat="37.6562310" lon="-6.0039530">
        <ele>293.2</ele>
        <time>2021-10-21T15:16:11Z</time>
      </trkpt>
      <trkpt lat="37.6560950" lon="-6.0041000">
        <ele>292.8</ele>
        <time>2021-10-21T15:16:11Z</time>
      </trkpt>
      <trkpt lat="37.6560040" lon="-6.0041830">
        <ele>292.6</ele>
        <time>2021-10-21T15:16:11Z</time>
      </trkpt>
      <trkpt lat="37.6559220" lon="-6.0042770">
        <ele>292.4</ele>
        <time>2021-10-21T15:16:11Z</time>
      </trkpt>
      <trkpt lat="37.6558510" lon="-6.0043580">
        <ele>292.3</ele>
        <time>2021-10-21T15:16:11Z</time>
      </trkpt>
      <trkpt lat="37.6557560" lon="-6.0044460">
        <ele>292.2</ele>
        <time>2021-10-21T15:16:11Z</time>
      </trkpt>
      <trkpt lat="37.6555920" lon="-6.0046110">
        <ele>291.8</ele>
        <time>2021-10-21T15:16:11Z</time>
      </trkpt>
      <trkpt lat="37.6553510" lon="-6.0048570">
        <ele>291.4</ele>
        <time>2021-10-21T15:16:11Z</time>
      </trkpt>
      <trkpt lat="37.6550780" lon="-6.0051370">
        <ele>291.0</ele>
        <time>2021-10-21T15:16:11Z</time>
      </trkpt>
      <trkpt lat="37.6549310" lon="-6.0052940">
        <ele>290.7</ele>
        <time>2021-10-21T15:16:11Z</time>
      </trkpt>
      <trkpt lat="37.6546360" lon="-6.0055920">
        <ele>290.4</ele>
        <time>2021-10-21T15:16:11Z</time>
      </trkpt>
      <trkpt lat="37.6545470" lon="-6.0056940">
        <ele>290.3</ele>
        <time>2021-10-21T15:16:11Z</time>
      </trkpt>
      <trkpt lat="37.6545290" lon="-6.0057130">
        <ele>290.2</ele>
        <time>2021-10-21T15:16:11Z</time>
      </trkpt>
      <trkpt lat="37.6545070" lon="-6.0057290">
        <ele>290.2</ele>
        <time>2021-10-21T15:16:11Z</time>
      </trkpt>
      <trkpt lat="37.6544230" lon="-6.0057860">
        <ele>290.1</ele>
        <time>2021-10-21T15:16:11Z</time>
      </trkpt>
      <trkpt lat="37.6543060" lon="-6.0059270">
        <ele>289.9</ele>
        <time>2021-10-21T15:16:11Z</time>
      </trkpt>
      <trkpt lat="37.6542850" lon="-6.0059510">
        <ele>289.8</ele>
        <time>2021-10-21T15:16:11Z</time>
      </trkpt>
      <trkpt lat="37.6540650" lon="-6.0062340">
        <ele>289.3</ele>
        <time>2021-10-21T15:16:11Z</time>
      </trkpt>
      <trkpt lat="37.6539650" lon="-6.0063880">
        <ele>289.0</ele>
        <time>2021-10-21T15:16:11Z</time>
      </trkpt>
      <trkpt lat="37.6539000" lon="-6.0064290">
        <ele>288.9</ele>
        <time>2021-10-21T15:16:11Z</time>
      </trkpt>
      <trkpt lat="37.6538390" lon="-6.0065130">
        <ele>288.8</ele>
        <time>2021-10-21T15:16:11Z</time>
      </trkpt>
      <trkpt lat="37.6538130" lon="-6.0065550">
        <ele>288.7</ele>
        <time>2021-10-21T15:16:11Z</time>
      </trkpt>
      <trkpt lat="37.6537240" lon="-6.0066460">
        <ele>288.5</ele>
        <time>2021-10-21T15:16:11Z</time>
      </trkpt>
      <trkpt lat="37.6536920" lon="-6.0066680">
        <ele>288.5</ele>
        <time>2021-10-21T15:16:11Z</time>
      </trkpt>
      <trkpt lat="37.6535680" lon="-6.0067960">
        <ele>288.2</ele>
        <time>2021-10-21T15:16:11Z</time>
      </trkpt>
      <trkpt lat="37.6534330" lon="-6.0069280">
        <ele>287.9</ele>
        <time>2021-10-21T15:16:11Z</time>
      </trkpt>
      <trkpt lat="37.6533400" lon="-6.0070410">
        <ele>287.6</ele>
        <time>2021-10-21T15:16:11Z</time>
      </trkpt>
      <trkpt lat="37.6531770" lon="-6.0073430">
        <ele>287.0</ele>
        <time>2021-10-21T15:16:11Z</time>
      </trkpt>
      <trkpt lat="37.6531450" lon="-6.0074490">
        <ele>286.8</ele>
        <time>2021-10-21T15:16:11Z</time>
      </trkpt>
      <trkpt lat="37.6531000" lon="-6.0076160">
        <ele>286.3</ele>
        <time>2021-10-21T15:16:11Z</time>
      </trkpt>
      <trkpt lat="37.6530740" lon="-6.0078370">
        <ele>285.8</ele>
        <time>2021-10-21T15:16:11Z</time>
      </trkpt>
      <trkpt lat="37.6530370" lon="-6.0082320">
        <ele>284.7</ele>
        <time>2021-10-21T15:16:11Z</time>
      </trkpt>
      <trkpt lat="37.6530100" lon="-6.0083400">
        <ele>284.4</ele>
        <time>2021-10-21T15:16:11Z</time>
      </trkpt>
      <trkpt lat="37.6529960" lon="-6.0083890">
        <ele>284.3</ele>
        <time>2021-10-21T15:16:11Z</time>
      </trkpt>
      <trkpt lat="37.6529660" lon="-6.0084660">
        <ele>284.1</ele>
        <time>2021-10-21T15:16:11Z</time>
      </trkpt>
      <trkpt lat="37.6529220" lon="-6.0085340">
        <ele>283.8</ele>
        <time>2021-10-21T15:16:11Z</time>
      </trkpt>
      <trkpt lat="37.6529050" lon="-6.0085680">
        <ele>283.7</ele>
        <time>2021-10-21T15:16:11Z</time>
      </trkpt>
      <trkpt lat="37.6528500" lon="-6.0087160">
        <ele>283.2</ele>
        <time>2021-10-21T15:16:11Z</time>
      </trkpt>
      <trkpt lat="37.6528260" lon="-6.0087630">
        <ele>283.1</ele>
        <time>2021-10-21T15:16:11Z</time>
      </trkpt>
      <trkpt lat="37.6527770" lon="-6.0088600">
        <ele>282.7</ele>
        <time>2021-10-21T15:16:11Z</time>
      </trkpt>
      <trkpt lat="37.6527290" lon="-6.0089530">
        <ele>282.4</ele>
        <time>2021-10-21T15:16:11Z</time>
      </trkpt>
      <trkpt lat="37.6526990" lon="-6.0089930">
        <ele>282.2</ele>
        <time>2021-10-21T15:16:11Z</time>
      </trkpt>
      <trkpt lat="37.6526690" lon="-6.0090350">
        <ele>282.1</ele>
        <time>2021-10-21T15:16:11Z</time>
      </trkpt>
      <trkpt lat="37.6525390" lon="-6.0091990">
        <ele>281.4</ele>
        <time>2021-10-21T15:16:11Z</time>
      </trkpt>
      <trkpt lat="37.6525080" lon="-6.0092320">
        <ele>281.3</ele>
        <time>2021-10-21T15:16:11Z</time>
      </trkpt>
      <trkpt lat="37.6524460" lon="-6.0092970">
        <ele>281.0</ele>
        <time>2021-10-21T15:16:11Z</time>
      </trkpt>
      <trkpt lat="37.6522980" lon="-6.0094370">
        <ele>280.3</ele>
        <time>2021-10-21T15:16:11Z</time>
      </trkpt>
      <trkpt lat="37.6522350" lon="-6.0095000">
        <ele>280.0</ele>
        <time>2021-10-21T15:16:11Z</time>
      </trkpt>
      <trkpt lat="37.6520680" lon="-6.0096090">
        <ele>279.3</ele>
        <time>2021-10-21T15:16:11Z</time>
      </trkpt>
      <trkpt lat="37.6520350" lon="-6.0096260">
        <ele>279.2</ele>
        <time>2021-10-21T15:16:11Z</time>
      </trkpt>
      <trkpt lat="37.6519480" lon="-6.0096730">
        <ele>278.9</ele>
        <time>2021-10-21T15:16:11Z</time>
      </trkpt>
      <trkpt lat="37.6518590" lon="-6.0097200">
        <ele>278.5</ele>
        <time>2021-10-21T15:16:11Z</time>
      </trkpt>
      <trkpt lat="37.6518370" lon="-6.0097530">
        <ele>278.4</ele>
        <time>2021-10-21T15:16:11Z</time>
      </trkpt>
      <trkpt lat="37.6518120" lon="-6.0098340">
        <ele>278.2</ele>
        <time>2021-10-21T15:16:11Z</time>
      </trkpt>
      <trkpt lat="37.6517910" lon="-6.0098590">
        <ele>278.1</ele>
        <time>2021-10-21T15:16:11Z</time>
      </trkpt>
      <trkpt lat="37.6517080" lon="-6.0099080">
        <ele>277.8</ele>
        <time>2021-10-21T15:16:11Z</time>
      </trkpt>
      <trkpt lat="37.6516430" lon="-6.0099560">
        <ele>277.6</ele>
        <time>2021-10-21T15:16:11Z</time>
      </trkpt>
      <trkpt lat="37.6514990" lon="-6.0100760">
        <ele>277.1</ele>
        <time>2021-10-21T15:16:11Z</time>
      </trkpt>
      <trkpt lat="37.6513060" lon="-6.0102100">
        <ele>276.4</ele>
        <time>2021-10-21T15:16:11Z</time>
      </trkpt>
      <trkpt lat="37.6512730" lon="-6.0102290">
        <ele>276.3</ele>
        <time>2021-10-21T15:16:11Z</time>
      </trkpt>
      <trkpt lat="37.6512390" lon="-6.0102470">
        <ele>276.1</ele>
        <time>2021-10-21T15:16:11Z</time>
      </trkpt>
      <trkpt lat="37.6512050" lon="-6.0102690">
        <ele>276.0</ele>
        <time>2021-10-21T15:16:11Z</time>
      </trkpt>
      <trkpt lat="37.6510870" lon="-6.0103130">
        <ele>275.7</ele>
        <time>2021-10-21T15:16:11Z</time>
      </trkpt>
      <trkpt lat="37.6510390" lon="-6.0103220">
        <ele>275.6</ele>
        <time>2021-10-21T15:16:11Z</time>
      </trkpt>
      <trkpt lat="37.6509060" lon="-6.0103780">
        <ele>275.2</ele>
        <time>2021-10-21T15:16:11Z</time>
      </trkpt>
      <trkpt lat="37.6508220" lon="-6.0104310">
        <ele>274.9</ele>
        <time>2021-10-21T15:16:11Z</time>
      </trkpt>
      <trkpt lat="37.6507450" lon="-6.0104980">
        <ele>274.7</ele>
        <time>2021-10-21T15:16:11Z</time>
      </trkpt>
      <trkpt lat="37.6507020" lon="-6.0105280">
        <ele>274.5</ele>
        <time>2021-10-21T15:16:11Z</time>
      </trkpt>
      <trkpt lat="37.6504230" lon="-6.0107510">
        <ele>273.5</ele>
        <time>2021-10-21T15:16:11Z</time>
      </trkpt>
      <trkpt lat="37.6500560" lon="-6.0110190">
        <ele>272.2</ele>
        <time>2021-10-21T15:16:11Z</time>
      </trkpt>
      <trkpt lat="37.6499320" lon="-6.0111080">
        <ele>271.7</ele>
        <time>2021-10-21T15:16:11Z</time>
      </trkpt>
      <trkpt lat="37.6497970" lon="-6.0112170">
        <ele>271.1</ele>
        <time>2021-10-21T15:16:11Z</time>
      </trkpt>
      <trkpt lat="37.6496530" lon="-6.0113190">
        <ele>270.5</ele>
        <time>2021-10-21T15:16:11Z</time>
      </trkpt>
      <trkpt lat="37.6496030" lon="-6.0113440">
        <ele>270.3</ele>
        <time>2021-10-21T15:16:11Z</time>
      </trkpt>
      <trkpt lat="37.6495040" lon="-6.0113930">
        <ele>269.9</ele>
        <time>2021-10-21T15:16:11Z</time>
      </trkpt>
      <trkpt lat="37.6494540" lon="-6.0114250">
        <ele>269.7</ele>
        <time>2021-10-21T15:16:11Z</time>
      </trkpt>
      <trkpt lat="37.6494050" lon="-6.0114620">
        <ele>269.4</ele>
        <time>2021-10-21T15:16:11Z</time>
      </trkpt>
      <trkpt lat="37.6492200" lon="-6.0116080">
        <ele>268.6</ele>
        <time>2021-10-21T15:16:11Z</time>
      </trkpt>
      <trkpt lat="37.6491330" lon="-6.0116780">
        <ele>268.2</ele>
        <time>2021-10-21T15:16:11Z</time>
      </trkpt>
      <trkpt lat="37.6490350" lon="-6.0117300">
        <ele>267.8</ele>
        <time>2021-10-21T15:16:11Z</time>
      </trkpt>
      <trkpt lat="37.6489950" lon="-6.0117600">
        <ele>267.6</ele>
        <time>2021-10-21T15:16:11Z</time>
      </trkpt>
      <trkpt lat="37.6489750" lon="-6.0117870">
        <ele>267.6</ele>
        <time>2021-10-21T15:16:11Z</time>
      </trkpt>
      <trkpt lat="37.6489520" lon="-6.0118310">
        <ele>267.4</ele>
        <time>2021-10-21T15:16:11Z</time>
      </trkpt>
      <trkpt lat="37.6489270" lon="-6.0118620">
        <ele>267.3</ele>
        <time>2021-10-21T15:16:11Z</time>
      </trkpt>
      <trkpt lat="37.6488150" lon="-6.0119010">
        <ele>266.9</ele>
        <time>2021-10-21T15:16:11Z</time>
      </trkpt>
      <trkpt lat="37.6487750" lon="-6.0119240">
        <ele>266.8</ele>
        <time>2021-10-21T15:16:11Z</time>
      </trkpt>
      <trkpt lat="37.6486350" lon="-6.0120590">
        <ele>266.2</ele>
        <time>2021-10-21T15:16:11Z</time>
      </trkpt>
      <trkpt lat="37.6485910" lon="-6.0120880">
        <ele>266.1</ele>
        <time>2021-10-21T15:16:11Z</time>
      </trkpt>
      <trkpt lat="37.6484810" lon="-6.0121650">
        <ele>265.7</ele>
        <time>2021-10-21T15:16:11Z</time>
      </trkpt>
      <trkpt lat="37.6484450" lon="-6.0121890">
        <ele>265.6</ele>
        <time>2021-10-21T15:16:11Z</time>
      </trkpt>
      <trkpt lat="37.6484070" lon="-6.0122140">
        <ele>265.5</ele>
        <time>2021-10-21T15:16:11Z</time>
      </trkpt>
      <trkpt lat="37.6481770" lon="-6.0123620">
        <ele>265.1</ele>
        <time>2021-10-21T15:16:11Z</time>
      </trkpt>
      <trkpt lat="37.6481390" lon="-6.0123850">
        <ele>265.0</ele>
        <time>2021-10-21T15:16:11Z</time>
      </trkpt>
      <trkpt lat="37.6480200" lon="-6.0124560">
        <ele>264.8</ele>
        <time>2021-10-21T15:16:11Z</time>
      </trkpt>
      <trkpt lat="37.6479460" lon="-6.0125060">
        <ele>264.7</ele>
        <time>2021-10-21T15:16:11Z</time>
      </trkpt>
      <trkpt lat="37.6478070" lon="-6.0125730">
        <ele>264.5</ele>
        <time>2021-10-21T15:16:11Z</time>
      </trkpt>
      <trkpt lat="37.6477770" lon="-6.0125870">
        <ele>264.5</ele>
        <time>2021-10-21T15:16:11Z</time>
      </trkpt>
      <trkpt lat="37.6475960" lon="-6.0127210">
        <ele>264.2</ele>
        <time>2021-10-21T15:16:11Z</time>
      </trkpt>
      <trkpt lat="37.6473230" lon="-6.0128840">
        <ele>263.8</ele>
        <time>2021-10-21T15:16:11Z</time>
      </trkpt>
      <trkpt lat="37.6472520" lon="-6.0129260">
        <ele>263.7</ele>
        <time>2021-10-21T15:16:11Z</time>
      </trkpt>
      <trkpt lat="37.6470700" lon="-6.0130340">
        <ele>263.5</ele>
        <time>2021-10-21T15:16:11Z</time>
      </trkpt>
      <trkpt lat="37.6470360" lon="-6.0130580">
        <ele>263.4</ele>
        <time>2021-10-21T15:16:11Z</time>
      </trkpt>
      <trkpt lat="37.6467970" lon="-6.0131820">
        <ele>263.2</ele>
        <time>2021-10-21T15:16:11Z</time>
      </trkpt>
      <trkpt lat="37.6467630" lon="-6.0132020">
        <ele>263.1</ele>
        <time>2021-10-21T15:16:11Z</time>
      </trkpt>
      <trkpt lat="37.6465490" lon="-6.0133230">
        <ele>262.7</ele>
        <time>2021-10-21T15:16:11Z</time>
      </trkpt>
      <trkpt lat="37.6464080" lon="-6.0133520">
        <ele>262.4</ele>
        <time>2021-10-21T15:16:11Z</time>
      </trkpt>
      <trkpt lat="37.6463330" lon="-6.0133900">
        <ele>262.1</ele>
        <time>2021-10-21T15:16:11Z</time>
      </trkpt>
      <trkpt lat="37.6462410" lon="-6.0134410">
        <ele>261.7</ele>
        <time>2021-10-21T15:16:11Z</time>
      </trkpt>
      <trkpt lat="37.6461090" lon="-6.0135350">
        <ele>261.2</ele>
        <time>2021-10-21T15:16:11Z</time>
      </trkpt>
      <trkpt lat="37.6459920" lon="-6.0135830">
        <ele>260.7</ele>
        <time>2021-10-21T15:16:11Z</time>
      </trkpt>
      <trkpt lat="37.6459520" lon="-6.0135960">
        <ele>260.6</ele>
        <time>2021-10-21T15:16:11Z</time>
      </trkpt>
      <trkpt lat="37.6458690" lon="-6.0136170">
        <ele>260.3</ele>
        <time>2021-10-21T15:16:11Z</time>
      </trkpt>
      <trkpt lat="37.6457460" lon="-6.0136530">
        <ele>259.9</ele>
        <time>2021-10-21T15:16:11Z</time>
      </trkpt>
      <trkpt lat="37.6455010" lon="-6.0137140">
        <ele>259.1</ele>
        <time>2021-10-21T15:16:11Z</time>
      </trkpt>
      <trkpt lat="37.6454230" lon="-6.0137320">
        <ele>258.9</ele>
        <time>2021-10-21T15:16:11Z</time>
      </trkpt>
      <trkpt lat="37.6453500" lon="-6.0137540">
        <ele>258.7</ele>
        <time>2021-10-21T15:16:11Z</time>
      </trkpt>
      <trkpt lat="37.6452740" lon="-6.0137600">
        <ele>258.4</ele>
        <time>2021-10-21T15:16:11Z</time>
      </trkpt>
      <trkpt lat="37.6451260" lon="-6.0138300">
        <ele>258.0</ele>
        <time>2021-10-21T15:16:11Z</time>
      </trkpt>
      <trkpt lat="37.6450410" lon="-6.0138550">
        <ele>257.8</ele>
        <time>2021-10-21T15:16:11Z</time>
      </trkpt>
      <trkpt lat="37.6449980" lon="-6.0138650">
        <ele>257.6</ele>
        <time>2021-10-21T15:16:11Z</time>
      </trkpt>
      <trkpt lat="37.6448710" lon="-6.0139000">
        <ele>257.3</ele>
        <time>2021-10-21T15:16:11Z</time>
      </trkpt>
      <trkpt lat="37.6447380" lon="-6.0139250">
        <ele>257.0</ele>
        <time>2021-10-21T15:16:11Z</time>
      </trkpt>
      <trkpt lat="37.6444160" lon="-6.0139900">
        <ele>256.5</ele>
        <time>2021-10-21T15:16:11Z</time>
      </trkpt>
      <trkpt lat="37.6443490" lon="-6.0140170">
        <ele>256.4</ele>
        <time>2021-10-21T15:16:11Z</time>
      </trkpt>
      <trkpt lat="37.6443100" lon="-6.0140360">
        <ele>256.3</ele>
        <time>2021-10-21T15:16:11Z</time>
      </trkpt>
      <trkpt lat="37.6442930" lon="-6.0140800">
        <ele>256.3</ele>
        <time>2021-10-21T15:16:11Z</time>
      </trkpt>
      <trkpt lat="37.6441910" lon="-6.0142470">
        <ele>255.8</ele>
        <time>2021-10-21T15:16:11Z</time>
      </trkpt>
      <trkpt lat="37.6440000" lon="-6.0145380">
        <ele>254.8</ele>
        <time>2021-10-21T15:16:11Z</time>
      </trkpt>
      <trkpt lat="37.6439480" lon="-6.0146320">
        <ele>254.4</ele>
        <time>2021-10-21T15:16:11Z</time>
      </trkpt>
      <trkpt lat="37.6439190" lon="-6.0146810">
        <ele>254.1</ele>
        <time>2021-10-21T15:16:11Z</time>
      </trkpt>
      <trkpt lat="37.6438370" lon="-6.0148610">
        <ele>253.3</ele>
        <time>2021-10-21T15:16:11Z</time>
      </trkpt>
      <trkpt lat="37.6437750" lon="-6.0149900">
        <ele>252.7</ele>
        <time>2021-10-21T15:16:11Z</time>
      </trkpt>
      <trkpt lat="37.6437140" lon="-6.0151340">
        <ele>252.0</ele>
        <time>2021-10-21T15:16:11Z</time>
      </trkpt>
      <trkpt lat="37.6436480" lon="-6.0152850">
        <ele>251.4</ele>
        <time>2021-10-21T15:16:11Z</time>
      </trkpt>
      <trkpt lat="37.6436120" lon="-6.0153580">
        <ele>251.2</ele>
        <time>2021-10-21T15:16:11Z</time>
      </trkpt>
      <trkpt lat="37.6435340" lon="-6.0155030">
        <ele>250.6</ele>
        <time>2021-10-21T15:16:11Z</time>
      </trkpt>
      <trkpt lat="37.6433910" lon="-6.0157030">
        <ele>249.7</ele>
        <time>2021-10-21T15:16:11Z</time>
      </trkpt>
      <trkpt lat="37.6433360" lon="-6.0157610">
        <ele>249.4</ele>
        <time>2021-10-21T15:16:11Z</time>
      </trkpt>
      <trkpt lat="37.6432750" lon="-6.0158130">
        <ele>249.2</ele>
        <time>2021-10-21T15:16:11Z</time>
      </trkpt>
      <trkpt lat="37.6431420" lon="-6.0158870">
        <ele>248.8</ele>
        <time>2021-10-21T15:16:11Z</time>
      </trkpt>
      <trkpt lat="37.6426060" lon="-6.0160770">
        <ele>247.6</ele>
        <time>2021-10-21T15:16:11Z</time>
      </trkpt>
      <trkpt lat="37.6422880" lon="-6.0162080">
        <ele>247.0</ele>
        <time>2021-10-21T15:16:11Z</time>
      </trkpt>
      <trkpt lat="37.6420360" lon="-6.0162880">
        <ele>246.7</ele>
        <time>2021-10-21T15:16:11Z</time>
      </trkpt>
      <trkpt lat="37.6417460" lon="-6.0163830">
        <ele>246.3</ele>
        <time>2021-10-21T15:16:11Z</time>
      </trkpt>
      <trkpt lat="37.6415830" lon="-6.0164640">
        <ele>246.0</ele>
        <time>2021-10-21T15:16:11Z</time>
      </trkpt>
      <trkpt lat="37.6413850" lon="-6.0166160">
        <ele>245.3</ele>
        <time>2021-10-21T15:16:11Z</time>
      </trkpt>
      <trkpt lat="37.6412950" lon="-6.0167160">
        <ele>244.9</ele>
        <time>2021-10-21T15:16:11Z</time>
      </trkpt>
      <trkpt lat="37.6412060" lon="-6.0168190">
        <ele>244.5</ele>
        <time>2021-10-21T15:16:11Z</time>
      </trkpt>
      <trkpt lat="37.6408570" lon="-6.0171700">
        <ele>242.8</ele>
        <time>2021-10-21T15:16:11Z</time>
      </trkpt>
      <trkpt lat="37.6408170" lon="-6.0172110">
        <ele>242.6</ele>
        <time>2021-10-21T15:16:11Z</time>
      </trkpt>
      <trkpt lat="37.6406560" lon="-6.0173840">
        <ele>242.0</ele>
        <time>2021-10-21T15:16:11Z</time>
      </trkpt>
      <trkpt lat="37.6404000" lon="-6.0176410">
        <ele>241.4</ele>
        <time>2021-10-21T15:16:11Z</time>
      </trkpt>
      <trkpt lat="37.6402980" lon="-6.0177260">
        <ele>241.3</ele>
        <time>2021-10-21T15:16:11Z</time>
      </trkpt>
      <trkpt lat="37.6401450" lon="-6.0178260">
        <ele>241.0</ele>
        <time>2021-10-21T15:16:11Z</time>
      </trkpt>
      <trkpt lat="37.6399940" lon="-6.0179040">
        <ele>240.8</ele>
        <time>2021-10-21T15:16:11Z</time>
      </trkpt>
      <trkpt lat="37.6396200" lon="-6.0181120">
        <ele>240.1</ele>
        <time>2021-10-21T15:16:11Z</time>
      </trkpt>
      <trkpt lat="37.6395230" lon="-6.0181650">
        <ele>239.9</ele>
        <time>2021-10-21T15:16:11Z</time>
      </trkpt>
      <trkpt lat="37.6392890" lon="-6.0182970">
        <ele>239.5</ele>
        <time>2021-10-21T15:16:11Z</time>
      </trkpt>
      <trkpt lat="37.6391990" lon="-6.0183500">
        <ele>239.4</ele>
        <time>2021-10-21T15:16:11Z</time>
      </trkpt>
      <trkpt lat="37.6389390" lon="-6.0184860">
        <ele>239.0</ele>
        <time>2021-10-21T15:16:11Z</time>
      </trkpt>
      <trkpt lat="37.6388960" lon="-6.0185080">
        <ele>239.0</ele>
        <time>2021-10-21T15:16:11Z</time>
      </trkpt>
      <trkpt lat="37.6388550" lon="-6.0185330">
        <ele>238.9</ele>
        <time>2021-10-21T15:16:11Z</time>
      </trkpt>
      <trkpt lat="37.6386500" lon="-6.0186650">
        <ele>238.6</ele>
        <time>2021-10-21T15:16:11Z</time>
      </trkpt>
      <trkpt lat="37.6384580" lon="-6.0188030">
        <ele>238.0</ele>
        <time>2021-10-21T15:16:11Z</time>
      </trkpt>
      <trkpt lat="37.6381950" lon="-6.0190480">
        <ele>237.4</ele>
        <time>2021-10-21T15:16:11Z</time>
      </trkpt>
      <trkpt lat="37.6381090" lon="-6.0191230">
        <ele>237.3</ele>
        <time>2021-10-21T15:16:11Z</time>
      </trkpt>
      <trkpt lat="37.6380240" lon="-6.0191940">
        <ele>237.3</ele>
        <time>2021-10-21T15:16:11Z</time>
      </trkpt>
      <trkpt lat="37.6378660" lon="-6.0193270">
        <ele>237.4</ele>
        <time>2021-10-21T15:16:11Z</time>
      </trkpt>
      <trkpt lat="37.6377890" lon="-6.0193930">
        <ele>237.6</ele>
        <time>2021-10-21T15:16:11Z</time>
      </trkpt>
      <trkpt lat="37.6376100" lon="-6.0195340">
        <ele>238.4</ele>
        <time>2021-10-21T15:16:11Z</time>
      </trkpt>
      <trkpt lat="37.6374470" lon="-6.0196010">
        <ele>239.1</ele>
        <time>2021-10-21T15:16:11Z</time>
      </trkpt>
      <trkpt lat="37.6372310" lon="-6.0195840">
        <ele>239.9</ele>
        <time>2021-10-21T15:16:11Z</time>
      </trkpt>
      <trkpt lat="37.6371530" lon="-6.0195430">
        <ele>240.2</ele>
        <time>2021-10-21T15:16:11Z</time>
      </trkpt>
      <trkpt lat="37.6370720" lon="-6.0195330">
        <ele>240.5</ele>
        <time>2021-10-21T15:16:11Z</time>
      </trkpt>
      <trkpt lat="37.6369420" lon="-6.0195390">
        <ele>240.6</ele>
        <time>2021-10-21T15:16:11Z</time>
      </trkpt>
      <trkpt lat="37.6369040" lon="-6.0195450">
        <ele>240.6</ele>
        <time>2021-10-21T15:16:11Z</time>
      </trkpt>
      <trkpt lat="37.6368460" lon="-6.0195480">
        <ele>240.5</ele>
        <time>2021-10-21T15:16:11Z</time>
      </trkpt>
      <trkpt lat="37.6368440" lon="-6.0195510">
        <ele>240.5</ele>
        <time>2021-10-21T15:16:11Z</time>
      </trkpt>
      <trkpt lat="37.6368210" lon="-6.0195770">
        <ele>240.5</ele>
        <time>2021-10-21T15:16:11Z</time>
      </trkpt>
      <trkpt lat="37.6367970" lon="-6.0195920">
        <ele>240.4</ele>
        <time>2021-10-21T15:16:11Z</time>
      </trkpt>
      <trkpt lat="37.6366720" lon="-6.0197310">
        <ele>240.0</ele>
        <time>2021-10-21T15:16:11Z</time>
      </trkpt>
      <trkpt lat="37.6365630" lon="-6.0198260">
        <ele>239.8</ele>
        <time>2021-10-21T15:16:11Z</time>
      </trkpt>
      <trkpt lat="37.6364930" lon="-6.0198590">
        <ele>239.7</ele>
        <time>2021-10-21T15:16:11Z</time>
      </trkpt>
      <trkpt lat="37.6364110" lon="-6.0198960">
        <ele>239.6</ele>
        <time>2021-10-21T15:16:11Z</time>
      </trkpt>
      <trkpt lat="37.6363320" lon="-6.0199400">
        <ele>239.6</ele>
        <time>2021-10-21T15:16:11Z</time>
      </trkpt>
      <trkpt lat="37.6362570" lon="-6.0199890">
        <ele>239.5</ele>
        <time>2021-10-21T15:16:11Z</time>
      </trkpt>
      <trkpt lat="37.6361730" lon="-6.0200110">
        <ele>239.4</ele>
        <time>2021-10-21T15:16:11Z</time>
      </trkpt>
      <trkpt lat="37.6360860" lon="-6.0199990">
        <ele>239.3</ele>
        <time>2021-10-21T15:16:11Z</time>
      </trkpt>
      <trkpt lat="37.6359990" lon="-6.0199740">
        <ele>239.1</ele>
        <time>2021-10-21T15:16:11Z</time>
      </trkpt>
      <trkpt lat="37.6359000" lon="-6.0199660">
        <ele>238.7</ele>
        <time>2021-10-21T15:16:11Z</time>
      </trkpt>
      <trkpt lat="37.6358020" lon="-6.0199750">
        <ele>238.3</ele>
        <time>2021-10-21T15:16:11Z</time>
      </trkpt>
      <trkpt lat="37.6354060" lon="-6.0200270">
        <ele>236.6</ele>
        <time>2021-10-21T15:16:11Z</time>
      </trkpt>
      <trkpt lat="37.6352290" lon="-6.0200000">
        <ele>235.7</ele>
        <time>2021-10-21T15:16:11Z</time>
      </trkpt>
      <trkpt lat="37.6350940" lon="-6.0199930">
        <ele>235.3</ele>
        <time>2021-10-21T15:16:11Z</time>
      </trkpt>
      <trkpt lat="37.6348120" lon="-6.0199180">
        <ele>235.2</ele>
        <time>2021-10-21T15:16:11Z</time>
      </trkpt>
      <trkpt lat="37.6347620" lon="-6.0198920">
        <ele>235.3</ele>
        <time>2021-10-21T15:16:11Z</time>
      </trkpt>
      <trkpt lat="37.6345870" lon="-6.0197700">
        <ele>235.7</ele>
        <time>2021-10-21T15:16:11Z</time>
      </trkpt>
      <trkpt lat="37.6342720" lon="-6.0195720">
        <ele>236.9</ele>
        <time>2021-10-21T15:16:11Z</time>
      </trkpt>
      <trkpt lat="37.6340580" lon="-6.0194580">
        <ele>238.0</ele>
        <time>2021-10-21T15:16:11Z</time>
      </trkpt>
      <trkpt lat="37.6339530" lon="-6.0194080">
        <ele>238.3</ele>
        <time>2021-10-21T15:16:11Z</time>
      </trkpt>
      <trkpt lat="37.6338520" lon="-6.0193460">
        <ele>238.4</ele>
        <time>2021-10-21T15:16:11Z</time>
      </trkpt>
      <trkpt lat="37.6336190" lon="-6.0192030">
        <ele>237.9</ele>
        <time>2021-10-21T15:16:11Z</time>
      </trkpt>
      <trkpt lat="37.6335750" lon="-6.0191790">
        <ele>237.8</ele>
        <time>2021-10-21T15:16:11Z</time>
      </trkpt>
      <trkpt lat="37.6335300" lon="-6.0191560">
        <ele>237.7</ele>
        <time>2021-10-21T15:16:11Z</time>
      </trkpt>
      <trkpt lat="37.6334300" lon="-6.0191030">
        <ele>237.6</ele>
        <time>2021-10-21T15:16:11Z</time>
      </trkpt>
      <trkpt lat="37.6332590" lon="-6.0190150">
        <ele>237.3</ele>
        <time>2021-10-21T15:16:11Z</time>
      </trkpt>
      <trkpt lat="37.6331820" lon="-6.0189520">
        <ele>237.0</ele>
        <time>2021-10-21T15:16:11Z</time>
      </trkpt>
      <trkpt lat="37.6331460" lon="-6.0189300">
        <ele>236.9</ele>
        <time>2021-10-21T15:16:11Z</time>
      </trkpt>
      <trkpt lat="37.6330890" lon="-6.0188990">
        <ele>236.6</ele>
        <time>2021-10-21T15:16:11Z</time>
      </trkpt>
      <trkpt lat="37.6329840" lon="-6.0188410">
        <ele>236.1</ele>
        <time>2021-10-21T15:16:11Z</time>
      </trkpt>
      <trkpt lat="37.6329290" lon="-6.0188120">
        <ele>235.8</ele>
        <time>2021-10-21T15:16:11Z</time>
      </trkpt>
      <trkpt lat="37.6328130" lon="-6.0187650">
        <ele>235.1</ele>
        <time>2021-10-21T15:16:11Z</time>
      </trkpt>
      <trkpt lat="37.6326890" lon="-6.0187450">
        <ele>234.4</ele>
        <time>2021-10-21T15:16:11Z</time>
      </trkpt>
      <trkpt lat="37.6326360" lon="-6.0187380">
        <ele>234.1</ele>
        <time>2021-10-21T15:16:11Z</time>
      </trkpt>
      <trkpt lat="37.6325550" lon="-6.0187310">
        <ele>233.7</ele>
        <time>2021-10-21T15:16:11Z</time>
      </trkpt>
      <trkpt lat="37.6324870" lon="-6.0187320">
        <ele>233.3</ele>
        <time>2021-10-21T15:16:11Z</time>
      </trkpt>
      <trkpt lat="37.6324190" lon="-6.0187350">
        <ele>233.0</ele>
        <time>2021-10-21T15:16:11Z</time>
      </trkpt>
      <trkpt lat="37.6323520" lon="-6.0187320">
        <ele>232.7</ele>
        <time>2021-10-21T15:16:11Z</time>
      </trkpt>
      <trkpt lat="37.6322230" lon="-6.0187030">
        <ele>232.1</ele>
        <time>2021-10-21T15:16:11Z</time>
      </trkpt>
      <trkpt lat="37.6321640" lon="-6.0186950">
        <ele>231.9</ele>
        <time>2021-10-21T15:16:11Z</time>
      </trkpt>
      <trkpt lat="37.6321030" lon="-6.0186960">
        <ele>231.6</ele>
        <time>2021-10-21T15:16:11Z</time>
      </trkpt>
      <trkpt lat="37.6319770" lon="-6.0186860">
        <ele>231.0</ele>
        <time>2021-10-21T15:16:11Z</time>
      </trkpt>
      <trkpt lat="37.6319160" lon="-6.0186630">
        <ele>230.7</ele>
        <time>2021-10-21T15:16:11Z</time>
      </trkpt>
      <trkpt lat="37.6318580" lon="-6.0186370">
        <ele>230.4</ele>
        <time>2021-10-21T15:16:11Z</time>
      </trkpt>
      <trkpt lat="37.6317370" lon="-6.0186170">
        <ele>229.9</ele>
        <time>2021-10-21T15:16:11Z</time>
      </trkpt>
      <trkpt lat="37.6316770" lon="-6.0186190">
        <ele>229.7</ele>
        <time>2021-10-21T15:16:11Z</time>
      </trkpt>
      <trkpt lat="37.6316190" lon="-6.0186190">
        <ele>229.4</ele>
        <time>2021-10-21T15:16:11Z</time>
      </trkpt>
      <trkpt lat="37.6315160" lon="-6.0185750">
        <ele>229.0</ele>
        <time>2021-10-21T15:16:11Z</time>
      </trkpt>
      <trkpt lat="37.6314820" lon="-6.0185460">
        <ele>228.8</ele>
        <time>2021-10-21T15:16:11Z</time>
      </trkpt>
      <trkpt lat="37.6313970" lon="-6.0184580">
        <ele>228.5</ele>
        <time>2021-10-21T15:16:11Z</time>
      </trkpt>
      <trkpt lat="37.6313110" lon="-6.0183890">
        <ele>228.2</ele>
        <time>2021-10-21T15:16:11Z</time>
      </trkpt>
      <trkpt lat="37.6312670" lon="-6.0183590">
        <ele>228.0</ele>
        <time>2021-10-21T15:16:11Z</time>
      </trkpt>
      <trkpt lat="37.6311790" lon="-6.0183100">
        <ele>227.8</ele>
        <time>2021-10-21T15:16:11Z</time>
      </trkpt>
      <trkpt lat="37.6310290" lon="-6.0182690">
        <ele>227.4</ele>
        <time>2021-10-21T15:16:11Z</time>
      </trkpt>
      <trkpt lat="37.6309770" lon="-6.0182500">
        <ele>227.3</ele>
        <time>2021-10-21T15:16:11Z</time>
      </trkpt>
      <trkpt lat="37.6308180" lon="-6.0181660">
        <ele>226.9</ele>
        <time>2021-10-21T15:16:11Z</time>
      </trkpt>
      <trkpt lat="37.6307610" lon="-6.0181590">
        <ele>226.7</ele>
        <time>2021-10-21T15:16:11Z</time>
      </trkpt>
      <trkpt lat="37.6307060" lon="-6.0181720">
        <ele>226.5</ele>
        <time>2021-10-21T15:16:11Z</time>
      </trkpt>
      <trkpt lat="37.6306480" lon="-6.0181920">
        <ele>226.3</ele>
        <time>2021-10-21T15:16:11Z</time>
      </trkpt>
      <trkpt lat="37.6305250" lon="-6.0182090">
        <ele>225.8</ele>
        <time>2021-10-21T15:16:11Z</time>
      </trkpt>
      <trkpt lat="37.6304670" lon="-6.0182050">
        <ele>225.6</ele>
        <time>2021-10-21T15:16:11Z</time>
      </trkpt>
      <trkpt lat="37.6303510" lon="-6.0181780">
        <ele>225.3</ele>
        <time>2021-10-21T15:16:11Z</time>
      </trkpt>
      <trkpt lat="37.6302960" lon="-6.0181560">
        <ele>225.1</ele>
        <time>2021-10-21T15:16:11Z</time>
      </trkpt>
      <trkpt lat="37.6301920" lon="-6.0181080">
        <ele>224.8</ele>
        <time>2021-10-21T15:16:11Z</time>
      </trkpt>
      <trkpt lat="37.6301380" lon="-6.0180880">
        <ele>224.6</ele>
        <time>2021-10-21T15:16:11Z</time>
      </trkpt>
      <trkpt lat="37.6300320" lon="-6.0180670">
        <ele>224.3</ele>
        <time>2021-10-21T15:16:11Z</time>
      </trkpt>
      <trkpt lat="37.6299800" lon="-6.0180670">
        <ele>224.2</ele>
        <time>2021-10-21T15:16:11Z</time>
      </trkpt>
      <trkpt lat="37.6298390" lon="-6.0180750">
        <ele>223.9</ele>
        <time>2021-10-21T15:16:11Z</time>
      </trkpt>
      <trkpt lat="37.6297770" lon="-6.0180660">
        <ele>223.7</ele>
        <time>2021-10-21T15:16:11Z</time>
      </trkpt>
      <trkpt lat="37.6297260" lon="-6.0180470">
        <ele>223.6</ele>
        <time>2021-10-21T15:16:11Z</time>
      </trkpt>
      <trkpt lat="37.6296790" lon="-6.0180180">
        <ele>223.5</ele>
        <time>2021-10-21T15:16:11Z</time>
      </trkpt>
      <trkpt lat="37.6296320" lon="-6.0179890">
        <ele>223.4</ele>
        <time>2021-10-21T15:16:11Z</time>
      </trkpt>
      <trkpt lat="37.6295280" lon="-6.0179630">
        <ele>223.1</ele>
        <time>2021-10-21T15:16:11Z</time>
      </trkpt>
      <trkpt lat="37.6294740" lon="-6.0179690">
        <ele>222.9</ele>
        <time>2021-10-21T15:16:11Z</time>
      </trkpt>
      <trkpt lat="37.6294180" lon="-6.0179880">
        <ele>222.7</ele>
        <time>2021-10-21T15:16:11Z</time>
      </trkpt>
      <trkpt lat="37.6293050" lon="-6.0180350">
        <ele>222.1</ele>
        <time>2021-10-21T15:16:11Z</time>
      </trkpt>
      <trkpt lat="37.6291830" lon="-6.0180460">
        <ele>221.4</ele>
        <time>2021-10-21T15:16:11Z</time>
      </trkpt>
      <trkpt lat="37.6289980" lon="-6.0180540">
        <ele>220.5</ele>
        <time>2021-10-21T15:16:11Z</time>
      </trkpt>
      <trkpt lat="37.6288120" lon="-6.0180870">
        <ele>219.7</ele>
        <time>2021-10-21T15:16:11Z</time>
      </trkpt>
      <trkpt lat="37.6287500" lon="-6.0180910">
        <ele>219.5</ele>
        <time>2021-10-21T15:16:11Z</time>
      </trkpt>
      <trkpt lat="37.6285760" lon="-6.0181030">
        <ele>219.1</ele>
        <time>2021-10-21T15:16:11Z</time>
      </trkpt>
      <trkpt lat="37.6285260" lon="-6.0181230">
        <ele>219.0</ele>
        <time>2021-10-21T15:16:11Z</time>
      </trkpt>
      <trkpt lat="37.6284260" lon="-6.0181760">
        <ele>218.7</ele>
        <time>2021-10-21T15:16:11Z</time>
      </trkpt>
      <trkpt lat="37.6283160" lon="-6.0181960">
        <ele>218.3</ele>
        <time>2021-10-21T15:16:11Z</time>
      </trkpt>
      <trkpt lat="37.6281630" lon="-6.0181640">
        <ele>217.8</ele>
        <time>2021-10-21T15:16:11Z</time>
      </trkpt>
      <trkpt lat="37.6281210" lon="-6.0181620">
        <ele>217.7</ele>
        <time>2021-10-21T15:16:11Z</time>
      </trkpt>
      <trkpt lat="37.6280840" lon="-6.0181630">
        <ele>217.6</ele>
        <time>2021-10-21T15:16:11Z</time>
      </trkpt>
      <trkpt lat="37.6279690" lon="-6.0181980">
        <ele>217.1</ele>
        <time>2021-10-21T15:16:11Z</time>
      </trkpt>
      <trkpt lat="37.6278830" lon="-6.0182360">
        <ele>216.8</ele>
        <time>2021-10-21T15:16:11Z</time>
      </trkpt>
      <trkpt lat="37.6277480" lon="-6.0183100">
        <ele>216.1</ele>
        <time>2021-10-21T15:16:11Z</time>
      </trkpt>
      <trkpt lat="37.6276010" lon="-6.0183370">
        <ele>215.4</ele>
        <time>2021-10-21T15:16:11Z</time>
      </trkpt>
      <trkpt lat="37.6275530" lon="-6.0183370">
        <ele>215.2</ele>
        <time>2021-10-21T15:16:11Z</time>
      </trkpt>
      <trkpt lat="37.6275060" lon="-6.0183320">
        <ele>214.9</ele>
        <time>2021-10-21T15:16:11Z</time>
      </trkpt>
      <trkpt lat="37.6274620" lon="-6.0183280">
        <ele>214.6</ele>
        <time>2021-10-21T15:16:11Z</time>
      </trkpt>
      <trkpt lat="37.6274190" lon="-6.0183290">
        <ele>214.3</ele>
        <time>2021-10-21T15:16:11Z</time>
      </trkpt>
      <trkpt lat="37.6273420" lon="-6.0183390">
        <ele>213.6</ele>
        <time>2021-10-21T15:16:11Z</time>
      </trkpt>
      <trkpt lat="37.6273040" lon="-6.0183440">
        <ele>213.2</ele>
        <time>2021-10-21T15:16:11Z</time>
      </trkpt>
      <trkpt lat="37.6272410" lon="-6.0183360">
        <ele>212.5</ele>
        <time>2021-10-21T15:16:11Z</time>
      </trkpt>
      <trkpt lat="37.6271900" lon="-6.0183110">
        <ele>211.9</ele>
        <time>2021-10-21T15:16:11Z</time>
      </trkpt>
      <trkpt lat="37.6271410" lon="-6.0182740">
        <ele>211.2</ele>
        <time>2021-10-21T15:16:11Z</time>
      </trkpt>
      <trkpt lat="37.6270990" lon="-6.0182270">
        <ele>210.6</ele>
        <time>2021-10-21T15:16:11Z</time>
      </trkpt>
      <trkpt lat="37.6270190" lon="-6.0181340">
        <ele>209.3</ele>
        <time>2021-10-21T15:16:11Z</time>
      </trkpt>
      <trkpt lat="37.6269720" lon="-6.0181000">
        <ele>208.8</ele>
        <time>2021-10-21T15:16:11Z</time>
      </trkpt>
      <trkpt lat="37.6268710" lon="-6.0180480">
        <ele>207.6</ele>
        <time>2021-10-21T15:16:11Z</time>
      </trkpt>
      <trkpt lat="37.6267350" lon="-6.0179820">
        <ele>206.3</ele>
        <time>2021-10-21T15:16:11Z</time>
      </trkpt>
      <trkpt lat="37.6266710" lon="-6.0179630">
        <ele>205.7</ele>
        <time>2021-10-21T15:16:11Z</time>
      </trkpt>
      <trkpt lat="37.6266200" lon="-6.0179500">
        <ele>205.3</ele>
        <time>2021-10-21T15:16:11Z</time>
      </trkpt>
      <trkpt lat="37.6264880" lon="-6.0179170">
        <ele>204.3</ele>
        <time>2021-10-21T15:16:11Z</time>
      </trkpt>
      <trkpt lat="37.6264320" lon="-6.0179130">
        <ele>203.9</ele>
        <time>2021-10-21T15:16:11Z</time>
      </trkpt>
      <trkpt lat="37.6263760" lon="-6.0179070">
        <ele>203.5</ele>
        <time>2021-10-21T15:16:11Z</time>
      </trkpt>
      <trkpt lat="37.6263260" lon="-6.0178980">
        <ele>203.1</ele>
        <time>2021-10-21T15:16:11Z</time>
      </trkpt>
      <trkpt lat="37.6262770" lon="-6.0178900">
        <ele>202.8</ele>
        <time>2021-10-21T15:16:11Z</time>
      </trkpt>
      <trkpt lat="37.6261760" lon="-6.0179190">
        <ele>202.0</ele>
        <time>2021-10-21T15:16:11Z</time>
      </trkpt>
      <trkpt lat="37.6260810" lon="-6.0179640">
        <ele>201.3</ele>
        <time>2021-10-21T15:16:11Z</time>
      </trkpt>
      <trkpt lat="37.6260140" lon="-6.0179790">
        <ele>200.9</ele>
        <time>2021-10-21T15:16:11Z</time>
      </trkpt>
      <trkpt lat="37.6258970" lon="-6.0179780">
        <ele>200.2</ele>
        <time>2021-10-21T15:16:11Z</time>
      </trkpt>
      <trkpt lat="37.6257960" lon="-6.0179270">
        <ele>199.7</ele>
        <time>2021-10-21T15:16:11Z</time>
      </trkpt>
      <trkpt lat="37.6257500" lon="-6.0178970">
        <ele>199.5</ele>
        <time>2021-10-21T15:16:11Z</time>
      </trkpt>
      <trkpt lat="37.6256570" lon="-6.0178730">
        <ele>199.0</ele>
        <time>2021-10-21T15:16:11Z</time>
      </trkpt>
      <trkpt lat="37.6256200" lon="-6.0178880">
        <ele>198.8</ele>
        <time>2021-10-21T15:16:11Z</time>
      </trkpt>
      <trkpt lat="37.6255660" lon="-6.0179170">
        <ele>198.5</ele>
        <time>2021-10-21T15:16:11Z</time>
      </trkpt>
      <trkpt lat="37.6255200" lon="-6.0179400">
        <ele>198.3</ele>
        <time>2021-10-21T15:16:11Z</time>
      </trkpt>
      <trkpt lat="37.6253800" lon="-6.0179870">
        <ele>197.5</ele>
        <time>2021-10-21T15:16:11Z</time>
      </trkpt>
      <trkpt lat="37.6250830" lon="-6.0180800">
        <ele>196.4</ele>
        <time>2021-10-21T15:16:11Z</time>
      </trkpt>
      <trkpt lat="37.6250340" lon="-6.0180940">
        <ele>196.3</ele>
        <time>2021-10-21T15:16:11Z</time>
      </trkpt>
      <trkpt lat="37.6248790" lon="-6.0181200">
        <ele>196.0</ele>
        <time>2021-10-21T15:16:11Z</time>
      </trkpt>
      <trkpt lat="37.6248260" lon="-6.0181060">
        <ele>195.8</ele>
        <time>2021-10-21T15:16:11Z</time>
      </trkpt>
      <trkpt lat="37.6247760" lon="-6.0180800">
        <ele>195.7</ele>
        <time>2021-10-21T15:16:11Z</time>
      </trkpt>
      <trkpt lat="37.6246330" lon="-6.0180340">
        <ele>195.3</ele>
        <time>2021-10-21T15:16:11Z</time>
      </trkpt>
      <trkpt lat="37.6245990" lon="-6.0180270">
        <ele>195.2</ele>
        <time>2021-10-21T15:16:11Z</time>
      </trkpt>
      <trkpt lat="37.6244680" lon="-6.0179300">
        <ele>193.7</ele>
        <time>2021-10-21T15:16:11Z</time>
      </trkpt>
      <trkpt lat="37.6244420" lon="-6.0178990">
        <ele>193.4</ele>
        <time>2021-10-21T15:16:11Z</time>
      </trkpt>
      <trkpt lat="37.6244050" lon="-6.0178700">
        <ele>193.0</ele>
        <time>2021-10-21T15:16:11Z</time>
      </trkpt>
      <trkpt lat="37.6243170" lon="-6.0178110">
        <ele>192.1</ele>
        <time>2021-10-21T15:16:11Z</time>
      </trkpt>
      <trkpt lat="37.6241970" lon="-6.0177020">
        <ele>190.8</ele>
        <time>2021-10-21T15:16:11Z</time>
      </trkpt>
      <trkpt lat="37.6240930" lon="-6.0176330">
        <ele>190.0</ele>
        <time>2021-10-21T15:16:11Z</time>
      </trkpt>
      <trkpt lat="37.6240390" lon="-6.0176050">
        <ele>189.7</ele>
        <time>2021-10-21T15:16:11Z</time>
      </trkpt>
      <trkpt lat="37.6239860" lon="-6.0175860">
        <ele>189.4</ele>
        <time>2021-10-21T15:16:11Z</time>
      </trkpt>
      <trkpt lat="37.6238930" lon="-6.0175620">
        <ele>188.9</ele>
        <time>2021-10-21T15:16:11Z</time>
      </trkpt>
      <trkpt lat="37.6238100" lon="-6.0175260">
        <ele>188.6</ele>
        <time>2021-10-21T15:16:11Z</time>
      </trkpt>
      <trkpt lat="37.6237210" lon="-6.0174960">
        <ele>188.3</ele>
        <time>2021-10-21T15:16:11Z</time>
      </trkpt>
      <trkpt lat="37.6236270" lon="-6.0174950">
        <ele>188.0</ele>
        <time>2021-10-21T15:16:11Z</time>
      </trkpt>
      <trkpt lat="37.6232160" lon="-6.0175650">
        <ele>187.3</ele>
        <time>2021-10-21T15:16:11Z</time>
      </trkpt>
      <trkpt lat="37.6229730" lon="-6.0175710">
        <ele>186.8</ele>
        <time>2021-10-21T15:16:11Z</time>
      </trkpt>
      <trkpt lat="37.6228170" lon="-6.0175240">
        <ele>186.4</ele>
        <time>2021-10-21T15:16:11Z</time>
      </trkpt>
      <trkpt lat="37.6226510" lon="-6.0175040">
        <ele>186.0</ele>
        <time>2021-10-21T15:16:11Z</time>
      </trkpt>
      <trkpt lat="37.6225400" lon="-6.0175180">
        <ele>185.7</ele>
        <time>2021-10-21T15:16:11Z</time>
      </trkpt>
      <trkpt lat="37.6223680" lon="-6.0175680">
        <ele>185.3</ele>
        <time>2021-10-21T15:16:11Z</time>
      </trkpt>
      <trkpt lat="37.6222550" lon="-6.0176070">
        <ele>185.0</ele>
        <time>2021-10-21T15:16:11Z</time>
      </trkpt>
      <trkpt lat="37.6221510" lon="-6.0176280">
        <ele>184.8</ele>
        <time>2021-10-21T15:16:11Z</time>
      </trkpt>
      <trkpt lat="37.6218120" lon="-6.0176710">
        <ele>184.1</ele>
        <time>2021-10-21T15:16:11Z</time>
      </trkpt>
      <trkpt lat="37.6217180" lon="-6.0176670">
        <ele>183.8</ele>
        <time>2021-10-21T15:16:11Z</time>
      </trkpt>
      <trkpt lat="37.6215790" lon="-6.0176050">
        <ele>183.3</ele>
        <time>2021-10-21T15:16:11Z</time>
      </trkpt>
      <trkpt lat="37.6215270" lon="-6.0175870">
        <ele>183.0</ele>
        <time>2021-10-21T15:16:11Z</time>
      </trkpt>
      <trkpt lat="37.6213110" lon="-6.0175010">
        <ele>182.3</ele>
        <time>2021-10-21T15:16:11Z</time>
      </trkpt>
      <trkpt lat="37.6212620" lon="-6.0174650">
        <ele>182.1</ele>
        <time>2021-10-21T15:16:11Z</time>
      </trkpt>
      <trkpt lat="37.6210140" lon="-6.0173090">
        <ele>181.5</ele>
        <time>2021-10-21T15:16:11Z</time>
      </trkpt>
      <trkpt lat="37.6209640" lon="-6.0172910">
        <ele>181.5</ele>
        <time>2021-10-21T15:16:11Z</time>
      </trkpt>
      <trkpt lat="37.6209150" lon="-6.0172700">
        <ele>181.4</ele>
        <time>2021-10-21T15:16:11Z</time>
      </trkpt>
      <trkpt lat="37.6207780" lon="-6.0171790">
        <ele>181.3</ele>
        <time>2021-10-21T15:16:11Z</time>
      </trkpt>
      <trkpt lat="37.6205910" lon="-6.0170610">
        <ele>181.4</ele>
        <time>2021-10-21T15:16:11Z</time>
      </trkpt>
      <trkpt lat="37.6204540" lon="-6.0169960">
        <ele>181.3</ele>
        <time>2021-10-21T15:16:11Z</time>
      </trkpt>
      <trkpt lat="37.6200010" lon="-6.0167440">
        <ele>181.3</ele>
        <time>2021-10-21T15:16:11Z</time>
      </trkpt>
      <trkpt lat="37.6196080" lon="-6.0164470">
        <ele>181.8</ele>
        <time>2021-10-21T15:16:11Z</time>
      </trkpt>
      <trkpt lat="37.6194410" lon="-6.0163350">
        <ele>181.1</ele>
        <time>2021-10-21T15:16:11Z</time>
      </trkpt>
      <trkpt lat="37.6193370" lon="-6.0162840">
        <ele>180.5</ele>
        <time>2021-10-21T15:16:11Z</time>
      </trkpt>
      <trkpt lat="37.6191570" lon="-6.0161970">
        <ele>179.2</ele>
        <time>2021-10-21T15:16:11Z</time>
      </trkpt>
      <trkpt lat="37.6190230" lon="-6.0161770">
        <ele>178.2</ele>
        <time>2021-10-21T15:16:11Z</time>
      </trkpt>
      <trkpt lat="37.6189540" lon="-6.0161720">
        <ele>177.7</ele>
        <time>2021-10-21T15:16:11Z</time>
      </trkpt>
      <trkpt lat="37.6187560" lon="-6.0161330">
        <ele>176.2</ele>
        <time>2021-10-21T15:16:11Z</time>
      </trkpt>
      <trkpt lat="37.6186320" lon="-6.0160900">
        <ele>175.3</ele>
        <time>2021-10-21T15:16:11Z</time>
      </trkpt>
      <trkpt lat="37.6185700" lon="-6.0160660">
        <ele>174.8</ele>
        <time>2021-10-21T15:16:11Z</time>
      </trkpt>
      <trkpt lat="37.6184460" lon="-6.0160180">
        <ele>173.7</ele>
        <time>2021-10-21T15:16:11Z</time>
      </trkpt>
      <trkpt lat="37.6183130" lon="-6.0160080">
        <ele>172.7</ele>
        <time>2021-10-21T15:16:11Z</time>
      </trkpt>
      <trkpt lat="37.6182460" lon="-6.0160150">
        <ele>172.3</ele>
        <time>2021-10-21T15:16:11Z</time>
      </trkpt>
      <trkpt lat="37.6181090" lon="-6.0160260">
        <ele>171.5</ele>
        <time>2021-10-21T15:16:11Z</time>
      </trkpt>
      <trkpt lat="37.6179700" lon="-6.0160120">
        <ele>170.7</ele>
        <time>2021-10-21T15:16:11Z</time>
      </trkpt>
      <trkpt lat="37.6178170" lon="-6.0159880">
        <ele>170.1</ele>
        <time>2021-10-21T15:16:11Z</time>
      </trkpt>
      <trkpt lat="37.6176200" lon="-6.0159160">
        <ele>169.6</ele>
        <time>2021-10-21T15:16:11Z</time>
      </trkpt>
      <trkpt lat="37.6174390" lon="-6.0158430">
        <ele>169.2</ele>
        <time>2021-10-21T15:16:11Z</time>
      </trkpt>
      <trkpt lat="37.6173810" lon="-6.0158310">
        <ele>169.1</ele>
        <time>2021-10-21T15:16:11Z</time>
      </trkpt>
      <trkpt lat="37.6173340" lon="-6.0158270">
        <ele>169.0</ele>
        <time>2021-10-21T15:16:11Z</time>
      </trkpt>
      <trkpt lat="37.6172610" lon="-6.0158290">
        <ele>168.9</ele>
        <time>2021-10-21T15:16:11Z</time>
      </trkpt>
      <trkpt lat="37.6170960" lon="-6.0158190">
        <ele>168.3</ele>
        <time>2021-10-21T15:16:11Z</time>
      </trkpt>
      <trkpt lat="37.6169350" lon="-6.0158040">
        <ele>167.6</ele>
        <time>2021-10-21T15:16:11Z</time>
      </trkpt>
      <trkpt lat="37.6168780" lon="-6.0157810">
        <ele>167.4</ele>
        <time>2021-10-21T15:16:11Z</time>
      </trkpt>
      <trkpt lat="37.6168200" lon="-6.0157590">
        <ele>167.1</ele>
        <time>2021-10-21T15:16:11Z</time>
      </trkpt>
      <trkpt lat="37.6167110" lon="-6.0157440">
        <ele>166.6</ele>
        <time>2021-10-21T15:16:11Z</time>
      </trkpt>
      <trkpt lat="37.6165970" lon="-6.0157570">
        <ele>166.1</ele>
        <time>2021-10-21T15:16:11Z</time>
      </trkpt>
      <trkpt lat="37.6164930" lon="-6.0157410">
        <ele>165.6</ele>
        <time>2021-10-21T15:16:11Z</time>
      </trkpt>
      <trkpt lat="37.6163810" lon="-6.0157540">
        <ele>165.2</ele>
        <time>2021-10-21T15:16:11Z</time>
      </trkpt>
      <trkpt lat="37.6163370" lon="-6.0157660">
        <ele>165.1</ele>
        <time>2021-10-21T15:16:11Z</time>
      </trkpt>
      <trkpt lat="37.6162320" lon="-6.0157970">
        <ele>164.8</ele>
        <time>2021-10-21T15:16:11Z</time>
      </trkpt>
      <trkpt lat="37.6161800" lon="-6.0158030">
        <ele>164.6</ele>
        <time>2021-10-21T15:16:11Z</time>
      </trkpt>
      <trkpt lat="37.6160700" lon="-6.0157970">
        <ele>164.3</ele>
        <time>2021-10-21T15:16:11Z</time>
      </trkpt>
      <trkpt lat="37.6157430" lon="-6.0157450">
        <ele>163.9</ele>
        <time>2021-10-21T15:16:11Z</time>
      </trkpt>
      <trkpt lat="37.6155820" lon="-6.0158030">
        <ele>163.8</ele>
        <time>2021-10-21T15:16:11Z</time>
      </trkpt>
      <trkpt lat="37.6155280" lon="-6.0158190">
        <ele>163.8</ele>
        <time>2021-10-21T15:16:11Z</time>
      </trkpt>
      <trkpt lat="37.6151620" lon="-6.0159360">
        <ele>164.1</ele>
        <time>2021-10-21T15:16:11Z</time>
      </trkpt>
      <trkpt lat="37.6150730" lon="-6.0159730">
        <ele>164.3</ele>
        <time>2021-10-21T15:16:11Z</time>
      </trkpt>
      <trkpt lat="37.6150310" lon="-6.0160050">
        <ele>164.4</ele>
        <time>2021-10-21T15:16:11Z</time>
      </trkpt>
      <trkpt lat="37.6149840" lon="-6.0160260">
        <ele>164.6</ele>
        <time>2021-10-21T15:16:11Z</time>
      </trkpt>
      <trkpt lat="37.6148490" lon="-6.0160550">
        <ele>165.0</ele>
        <time>2021-10-21T15:16:11Z</time>
      </trkpt>
      <trkpt lat="37.6148020" lon="-6.0160720">
        <ele>165.2</ele>
        <time>2021-10-21T15:16:11Z</time>
      </trkpt>
      <trkpt lat="37.6147150" lon="-6.0161100">
        <ele>165.5</ele>
        <time>2021-10-21T15:16:11Z</time>
      </trkpt>
      <trkpt lat="37.6146720" lon="-6.0161240">
        <ele>165.7</ele>
        <time>2021-10-21T15:16:11Z</time>
      </trkpt>
      <trkpt lat="37.6146360" lon="-6.0161470">
        <ele>165.9</ele>
        <time>2021-10-21T15:16:11Z</time>
      </trkpt>
      <trkpt lat="37.6145850" lon="-6.0162280">
        <ele>166.3</ele>
        <time>2021-10-21T15:16:11Z</time>
      </trkpt>
      <trkpt lat="37.6144920" lon="-6.0163680">
        <ele>166.7</ele>
        <time>2021-10-21T15:16:11Z</time>
      </trkpt>
      <trkpt lat="37.6144360" lon="-6.0163870">
        <ele>166.8</ele>
        <time>2021-10-21T15:16:11Z</time>
      </trkpt>
      <trkpt lat="37.6144090" lon="-6.0163890">
        <ele>166.8</ele>
        <time>2021-10-21T15:16:11Z</time>
      </trkpt>
      <trkpt lat="37.6143860" lon="-6.0163920">
        <ele>166.8</ele>
        <time>2021-10-21T15:16:11Z</time>
      </trkpt>
      <trkpt lat="37.6143670" lon="-6.0163950">
        <ele>166.8</ele>
        <time>2021-10-21T15:16:11Z</time>
      </trkpt>
      <trkpt lat="37.6141820" lon="-6.0164080">
        <ele>166.7</ele>
        <time>2021-10-21T15:16:11Z</time>
      </trkpt>
      <trkpt lat="37.6140730" lon="-6.0164110">
        <ele>166.6</ele>
        <time>2021-10-21T15:16:11Z</time>
      </trkpt>
      <trkpt lat="37.6139850" lon="-6.0163770">
        <ele>166.5</ele>
        <time>2021-10-21T15:16:11Z</time>
      </trkpt>
      <trkpt lat="37.6138490" lon="-6.0163090">
        <ele>166.0</ele>
        <time>2021-10-21T15:16:11Z</time>
      </trkpt>
      <trkpt lat="37.6137810" lon="-6.0162820">
        <ele>165.7</ele>
        <time>2021-10-21T15:16:11Z</time>
      </trkpt>
      <trkpt lat="37.6136640" lon="-6.0162400">
        <ele>165.1</ele>
        <time>2021-10-21T15:16:11Z</time>
      </trkpt>
      <trkpt lat="37.6135570" lon="-6.0162230">
        <ele>164.7</ele>
        <time>2021-10-21T15:16:11Z</time>
      </trkpt>
      <trkpt lat="37.6134130" lon="-6.0161990">
        <ele>164.1</ele>
        <time>2021-10-21T15:16:11Z</time>
      </trkpt>
      <trkpt lat="37.6133000" lon="-6.0161850">
        <ele>163.6</ele>
        <time>2021-10-21T15:16:11Z</time>
      </trkpt>
      <trkpt lat="37.6131080" lon="-6.0161470">
        <ele>162.7</ele>
        <time>2021-10-21T15:16:11Z</time>
      </trkpt>
      <trkpt lat="37.6129670" lon="-6.0160960">
        <ele>161.8</ele>
        <time>2021-10-21T15:16:11Z</time>
      </trkpt>
      <trkpt lat="37.6129160" lon="-6.0160670">
        <ele>161.5</ele>
        <time>2021-10-21T15:16:11Z</time>
      </trkpt>
      <trkpt lat="37.6127550" lon="-6.0159790">
        <ele>160.4</ele>
        <time>2021-10-21T15:16:11Z</time>
      </trkpt>
      <trkpt lat="37.6127200" lon="-6.0159590">
        <ele>160.1</ele>
        <time>2021-10-21T15:16:11Z</time>
      </trkpt>
      <trkpt lat="37.6126250" lon="-6.0159030">
        <ele>159.3</ele>
        <time>2021-10-21T15:16:11Z</time>
      </trkpt>
      <trkpt lat="37.6124190" lon="-6.0158140">
        <ele>157.5</ele>
        <time>2021-10-21T15:16:11Z</time>
      </trkpt>
      <trkpt lat="37.6123650" lon="-6.0157890">
        <ele>157.0</ele>
        <time>2021-10-21T15:16:11Z</time>
      </trkpt>
      <trkpt lat="37.6122210" lon="-6.0156970">
        <ele>155.8</ele>
        <time>2021-10-21T15:16:11Z</time>
      </trkpt>
      <trkpt lat="37.6121800" lon="-6.0156690">
        <ele>155.5</ele>
        <time>2021-10-21T15:16:11Z</time>
      </trkpt>
      <trkpt lat="37.6121400" lon="-6.0156470">
        <ele>155.1</ele>
        <time>2021-10-21T15:16:11Z</time>
      </trkpt>
      <trkpt lat="37.6120630" lon="-6.0156220">
        <ele>154.5</ele>
        <time>2021-10-21T15:16:11Z</time>
      </trkpt>
      <trkpt lat="37.6120200" lon="-6.0156170">
        <ele>154.2</ele>
        <time>2021-10-21T15:16:11Z</time>
      </trkpt>
      <trkpt lat="37.6118720" lon="-6.0156080">
        <ele>153.2</ele>
        <time>2021-10-21T15:16:11Z</time>
      </trkpt>
      <trkpt lat="37.6118310" lon="-6.0156020">
        <ele>152.9</ele>
        <time>2021-10-21T15:16:11Z</time>
      </trkpt>
      <trkpt lat="37.6117680" lon="-6.0155900">
        <ele>152.6</ele>
        <time>2021-10-21T15:16:11Z</time>
      </trkpt>
      <trkpt lat="37.6117130" lon="-6.0155790">
        <ele>152.4</ele>
        <time>2021-10-21T15:16:11Z</time>
      </trkpt>
      <trkpt lat="37.6115390" lon="-6.0155510">
        <ele>151.7</ele>
        <time>2021-10-21T15:16:11Z</time>
      </trkpt>
      <trkpt lat="37.6113740" lon="-6.0155050">
        <ele>151.2</ele>
        <time>2021-10-21T15:16:11Z</time>
      </trkpt>
      <trkpt lat="37.6113330" lon="-6.0154910">
        <ele>151.1</ele>
        <time>2021-10-21T15:16:11Z</time>
      </trkpt>
      <trkpt lat="37.6110280" lon="-6.0154090">
        <ele>150.6</ele>
        <time>2021-10-21T15:16:11Z</time>
      </trkpt>
      <trkpt lat="37.6108410" lon="-6.0153580">
        <ele>150.2</ele>
        <time>2021-10-21T15:16:11Z</time>
      </trkpt>
      <trkpt lat="37.6107450" lon="-6.0153780">
        <ele>150.0</ele>
        <time>2021-10-21T15:16:11Z</time>
      </trkpt>
      <trkpt lat="37.6106620" lon="-6.0154190">
        <ele>149.8</ele>
        <time>2021-10-21T15:16:11Z</time>
      </trkpt>
      <trkpt lat="37.6105680" lon="-6.0154640">
        <ele>149.7</ele>
        <time>2021-10-21T15:16:11Z</time>
      </trkpt>
      <trkpt lat="37.6104970" lon="-6.0154680">
        <ele>149.6</ele>
        <time>2021-10-21T15:16:11Z</time>
      </trkpt>
      <trkpt lat="37.6102860" lon="-6.0154040">
        <ele>149.1</ele>
        <time>2021-10-21T15:16:11Z</time>
      </trkpt>
      <trkpt lat="37.6102330" lon="-6.0153850">
        <ele>149.0</ele>
        <time>2021-10-21T15:16:11Z</time>
      </trkpt>
      <trkpt lat="37.6101910" lon="-6.0153780">
        <ele>148.9</ele>
        <time>2021-10-21T15:16:11Z</time>
      </trkpt>
      <trkpt lat="37.6101020" lon="-6.0153710">
        <ele>148.6</ele>
        <time>2021-10-21T15:16:11Z</time>
      </trkpt>
      <trkpt lat="37.6100110" lon="-6.0153700">
        <ele>148.4</ele>
        <time>2021-10-21T15:16:11Z</time>
      </trkpt>
      <trkpt lat="37.6098240" lon="-6.0153860">
        <ele>147.9</ele>
        <time>2021-10-21T15:16:11Z</time>
      </trkpt>
      <trkpt lat="37.6097350" lon="-6.0153640">
        <ele>147.7</ele>
        <time>2021-10-21T15:16:11Z</time>
      </trkpt>
      <trkpt lat="37.6096530" lon="-6.0153190">
        <ele>147.4</ele>
        <time>2021-10-21T15:16:11Z</time>
      </trkpt>
      <trkpt lat="37.6096130" lon="-6.0153050">
        <ele>147.3</ele>
        <time>2021-10-21T15:16:11Z</time>
      </trkpt>
      <trkpt lat="37.6095420" lon="-6.0152870">
        <ele>146.9</ele>
        <time>2021-10-21T15:16:11Z</time>
      </trkpt>
      <trkpt lat="37.6093450" lon="-6.0153130">
        <ele>145.7</ele>
        <time>2021-10-21T15:16:11Z</time>
      </trkpt>
      <trkpt lat="37.6092940" lon="-6.0153110">
        <ele>145.4</ele>
        <time>2021-10-21T15:16:11Z</time>
      </trkpt>
      <trkpt lat="37.6092300" lon="-6.0153170">
        <ele>145.1</ele>
        <time>2021-10-21T15:16:11Z</time>
      </trkpt>
      <trkpt lat="37.6091210" lon="-6.0153570">
        <ele>144.7</ele>
        <time>2021-10-21T15:16:11Z</time>
      </trkpt>
      <trkpt lat="37.6090770" lon="-6.0153740">
        <ele>144.5</ele>
        <time>2021-10-21T15:16:11Z</time>
      </trkpt>
      <trkpt lat="37.6090230" lon="-6.0153990">
        <ele>144.4</ele>
        <time>2021-10-21T15:16:11Z</time>
      </trkpt>
      <trkpt lat="37.6089290" lon="-6.0154330">
        <ele>144.2</ele>
        <time>2021-10-21T15:16:11Z</time>
      </trkpt>
      <trkpt lat="37.6088880" lon="-6.0154290">
        <ele>144.1</ele>
        <time>2021-10-21T15:16:11Z</time>
      </trkpt>
      <trkpt lat="37.6088460" lon="-6.0154180">
        <ele>144.0</ele>
        <time>2021-10-21T15:16:11Z</time>
      </trkpt>
      <trkpt lat="37.6087540" lon="-6.0154300">
        <ele>143.8</ele>
        <time>2021-10-21T15:16:11Z</time>
      </trkpt>
      <trkpt lat="37.6087160" lon="-6.0154600">
        <ele>143.6</ele>
        <time>2021-10-21T15:16:11Z</time>
      </trkpt>
      <trkpt lat="37.6086510" lon="-6.0155350">
        <ele>143.2</ele>
        <time>2021-10-21T15:16:11Z</time>
      </trkpt>
      <trkpt lat="37.6085690" lon="-6.0155900">
        <ele>142.8</ele>
        <time>2021-10-21T15:16:11Z</time>
      </trkpt>
      <trkpt lat="37.6085280" lon="-6.0156100">
        <ele>142.6</ele>
        <time>2021-10-21T15:16:11Z</time>
      </trkpt>
      <trkpt lat="37.6084960" lon="-6.0156340">
        <ele>142.4</ele>
        <time>2021-10-21T15:16:11Z</time>
      </trkpt>
      <trkpt lat="37.6084140" lon="-6.0157190">
        <ele>141.9</ele>
        <time>2021-10-21T15:16:11Z</time>
      </trkpt>
      <trkpt lat="37.6083720" lon="-6.0157420">
        <ele>141.7</ele>
        <time>2021-10-21T15:16:11Z</time>
      </trkpt>
      <trkpt lat="37.6083260" lon="-6.0157530">
        <ele>141.5</ele>
        <time>2021-10-21T15:16:11Z</time>
      </trkpt>
      <trkpt lat="37.6081830" lon="-6.0157540">
        <ele>141.0</ele>
        <time>2021-10-21T15:16:11Z</time>
      </trkpt>
      <trkpt lat="37.6079820" lon="-6.0158020">
        <ele>140.7</ele>
        <time>2021-10-21T15:16:11Z</time>
      </trkpt>
      <trkpt lat="37.6079210" lon="-6.0158450">
        <ele>140.7</ele>
        <time>2021-10-21T15:16:11Z</time>
      </trkpt>
      <trkpt lat="37.6078770" lon="-6.0159040">
        <ele>140.7</ele>
        <time>2021-10-21T15:16:11Z</time>
      </trkpt>
      <trkpt lat="37.6078400" lon="-6.0159730">
        <ele>140.6</ele>
        <time>2021-10-21T15:16:11Z</time>
      </trkpt>
      <trkpt lat="37.6077590" lon="-6.0160560">
        <ele>140.2</ele>
        <time>2021-10-21T15:16:11Z</time>
      </trkpt>
      <trkpt lat="37.6075820" lon="-6.0162040">
        <ele>139.1</ele>
        <time>2021-10-21T15:16:11Z</time>
      </trkpt>
      <trkpt lat="37.6073960" lon="-6.0163110">
        <ele>137.9</ele>
        <time>2021-10-21T15:16:11Z</time>
      </trkpt>
      <trkpt lat="37.6073470" lon="-6.0163420">
        <ele>137.6</ele>
        <time>2021-10-21T15:16:11Z</time>
      </trkpt>
      <trkpt lat="37.6072500" lon="-6.0163930">
        <ele>137.2</ele>
        <time>2021-10-21T15:16:11Z</time>
      </trkpt>
      <trkpt lat="37.6071950" lon="-6.0164140">
        <ele>137.0</ele>
        <time>2021-10-21T15:16:11Z</time>
      </trkpt>
      <trkpt lat="37.6071060" lon="-6.0164250">
        <ele>136.6</ele>
        <time>2021-10-21T15:16:11Z</time>
      </trkpt>
      <trkpt lat="37.6070710" lon="-6.0164350">
        <ele>136.4</ele>
        <time>2021-10-21T15:16:11Z</time>
      </trkpt>
      <trkpt lat="37.6069720" lon="-6.0164740">
        <ele>136.0</ele>
        <time>2021-10-21T15:16:11Z</time>
      </trkpt>
      <trkpt lat="37.6069250" lon="-6.0164840">
        <ele>135.9</ele>
        <time>2021-10-21T15:16:11Z</time>
      </trkpt>
      <trkpt lat="37.6068860" lon="-6.0164860">
        <ele>135.8</ele>
        <time>2021-10-21T15:16:11Z</time>
      </trkpt>
      <trkpt lat="37.6067970" lon="-6.0164660">
        <ele>135.6</ele>
        <time>2021-10-21T15:16:11Z</time>
      </trkpt>
      <trkpt lat="37.6067540" lon="-6.0164470">
        <ele>135.6</ele>
        <time>2021-10-21T15:16:11Z</time>
      </trkpt>
      <trkpt lat="37.6067170" lon="-6.0164240">
        <ele>135.6</ele>
        <time>2021-10-21T15:16:11Z</time>
      </trkpt>
      <trkpt lat="37.6065210" lon="-6.0163300">
        <ele>135.6</ele>
        <time>2021-10-21T15:16:11Z</time>
      </trkpt>
      <trkpt lat="37.6064840" lon="-6.0163250">
        <ele>135.6</ele>
        <time>2021-10-21T15:16:11Z</time>
      </trkpt>
      <trkpt lat="37.6064540" lon="-6.0163240">
        <ele>135.7</ele>
        <time>2021-10-21T15:16:11Z</time>
      </trkpt>
      <trkpt lat="37.6062610" lon="-6.0163380">
        <ele>136.0</ele>
        <time>2021-10-21T15:16:11Z</time>
      </trkpt>
      <trkpt lat="37.6060010" lon="-6.0163340">
        <ele>136.8</ele>
        <time>2021-10-21T15:16:11Z</time>
      </trkpt>
      <trkpt lat="37.6059030" lon="-6.0163300">
        <ele>137.3</ele>
        <time>2021-10-21T15:16:11Z</time>
      </trkpt>
      <trkpt lat="37.6057950" lon="-6.0163190">
        <ele>137.8</ele>
        <time>2021-10-21T15:16:11Z</time>
      </trkpt>
      <trkpt lat="37.6057540" lon="-6.0163100">
        <ele>137.9</ele>
        <time>2021-10-21T15:16:11Z</time>
      </trkpt>
      <trkpt lat="37.6056760" lon="-6.0162660">
        <ele>137.9</ele>
        <time>2021-10-21T15:16:11Z</time>
      </trkpt>
      <trkpt lat="37.6055840" lon="-6.0161910">
        <ele>137.4</ele>
        <time>2021-10-21T15:16:11Z</time>
      </trkpt>
      <trkpt lat="37.6055530" lon="-6.0161720">
        <ele>137.2</ele>
        <time>2021-10-21T15:16:11Z</time>
      </trkpt>
      <trkpt lat="37.6054450" lon="-6.0161560">
        <ele>136.4</ele>
        <time>2021-10-21T15:16:11Z</time>
      </trkpt>
      <trkpt lat="37.6053890" lon="-6.0161660">
        <ele>135.9</ele>
        <time>2021-10-21T15:16:11Z</time>
      </trkpt>
      <trkpt lat="37.6052800" lon="-6.0161720">
        <ele>135.2</ele>
        <time>2021-10-21T15:16:11Z</time>
      </trkpt>
      <trkpt lat="37.6051540" lon="-6.0161490">
        <ele>134.5</ele>
        <time>2021-10-21T15:16:11Z</time>
      </trkpt>
      <trkpt lat="37.6050930" lon="-6.0161250">
        <ele>134.2</ele>
        <time>2021-10-21T15:16:11Z</time>
      </trkpt>
      <trkpt lat="37.6049700" lon="-6.0160770">
        <ele>133.6</ele>
        <time>2021-10-21T15:16:11Z</time>
      </trkpt>
      <trkpt lat="37.6048410" lon="-6.0160520">
        <ele>133.2</ele>
        <time>2021-10-21T15:16:11Z</time>
      </trkpt>
      <trkpt lat="37.6047790" lon="-6.0160420">
        <ele>133.0</ele>
        <time>2021-10-21T15:16:11Z</time>
      </trkpt>
      <trkpt lat="37.6046170" lon="-6.0160380">
        <ele>132.7</ele>
        <time>2021-10-21T15:16:11Z</time>
      </trkpt>
      <trkpt lat="37.6045930" lon="-6.0160540">
        <ele>132.7</ele>
        <time>2021-10-21T15:16:11Z</time>
      </trkpt>
      <trkpt lat="37.6045930" lon="-6.0160020">
        <ele>132.7</ele>
        <time>2021-10-21T15:16:11Z</time>
      </trkpt>
      <trkpt lat="37.6045840" lon="-6.0159860">
        <ele>132.7</ele>
        <time>2021-10-21T15:16:11Z</time>
      </trkpt>
      <trkpt lat="37.6045670" lon="-6.0159770">
        <ele>132.6</ele>
        <time>2021-10-21T15:16:11Z</time>
      </trkpt>
      <trkpt lat="37.6044360" lon="-6.0159400">
        <ele>132.6</ele>
        <time>2021-10-21T15:16:11Z</time>
      </trkpt>
      <trkpt lat="37.6043800" lon="-6.0159230">
        <ele>132.6</ele>
        <time>2021-10-21T15:16:11Z</time>
      </trkpt>
      <trkpt lat="37.6043600" lon="-6.0159000">
        <ele>132.5</ele>
        <time>2021-10-21T15:16:11Z</time>
      </trkpt>
      <trkpt lat="37.6043420" lon="-6.0158830">
        <ele>132.5</ele>
        <time>2021-10-21T15:16:11Z</time>
      </trkpt>
      <trkpt lat="37.6043260" lon="-6.0158640">
        <ele>132.5</ele>
        <time>2021-10-21T15:16:11Z</time>
      </trkpt>
      <trkpt lat="37.6042280" lon="-6.0156860">
        <ele>131.9</ele>
        <time>2021-10-21T15:16:11Z</time>
      </trkpt>
      <trkpt lat="37.6041470" lon="-6.0155090">
        <ele>131.1</ele>
        <time>2021-10-21T15:16:11Z</time>
      </trkpt>
      <trkpt lat="37.6040180" lon="-6.0154610">
        <ele>130.5</ele>
        <time>2021-10-21T15:16:11Z</time>
      </trkpt>
      <trkpt lat="37.6039760" lon="-6.0154740">
        <ele>130.4</ele>
        <time>2021-10-21T15:16:11Z</time>
      </trkpt>
      <trkpt lat="37.6039010" lon="-6.0155380">
        <ele>130.0</ele>
        <time>2021-10-21T15:16:11Z</time>
      </trkpt>
      <trkpt lat="37.6038700" lon="-6.0155720">
        <ele>129.9</ele>
        <time>2021-10-21T15:16:11Z</time>
      </trkpt>
      <trkpt lat="37.6037690" lon="-6.0157700">
        <ele>129.2</ele>
        <time>2021-10-21T15:16:11Z</time>
      </trkpt>
      <trkpt lat="37.6037230" lon="-6.0158470">
        <ele>128.9</ele>
        <time>2021-10-21T15:16:11Z</time>
      </trkpt>
      <trkpt lat="37.6035930" lon="-6.0159560">
        <ele>128.5</ele>
        <time>2021-10-21T15:16:11Z</time>
      </trkpt>
      <trkpt lat="37.6034740" lon="-6.0160630">
        <ele>128.2</ele>
        <time>2021-10-21T15:16:11Z</time>
      </trkpt>
      <trkpt lat="37.6033660" lon="-6.0161060">
        <ele>128.1</ele>
        <time>2021-10-21T15:16:11Z</time>
      </trkpt>
      <trkpt lat="37.6031670" lon="-6.0162510">
        <ele>127.9</ele>
        <time>2021-10-21T15:16:11Z</time>
      </trkpt>
      <trkpt lat="37.6029350" lon="-6.0164280">
        <ele>127.9</ele>
        <time>2021-10-21T15:16:11Z</time>
      </trkpt>
      <trkpt lat="37.6027680" lon="-6.0165110">
        <ele>128.1</ele>
        <time>2021-10-21T15:16:11Z</time>
      </trkpt>
      <trkpt lat="37.6025550" lon="-6.0165840">
        <ele>128.3</ele>
        <time>2021-10-21T15:16:11Z</time>
      </trkpt>
      <trkpt lat="37.6022700" lon="-6.0166380">
        <ele>128.7</ele>
        <time>2021-10-21T15:16:11Z</time>
      </trkpt>
      <trkpt lat="37.6020530" lon="-6.0166870">
        <ele>129.1</ele>
        <time>2021-10-21T15:16:11Z</time>
      </trkpt>
      <trkpt lat="37.6017520" lon="-6.0166750">
        <ele>129.8</ele>
        <time>2021-10-21T15:16:11Z</time>
      </trkpt>
      <trkpt lat="37.6017180" lon="-6.0166720">
        <ele>129.9</ele>
        <time>2021-10-21T15:16:11Z</time>
      </trkpt>
      <trkpt lat="37.6014830" lon="-6.0166320">
        <ele>130.8</ele>
        <time>2021-10-21T15:16:11Z</time>
      </trkpt>
      <trkpt lat="37.6013740" lon="-6.0166080">
        <ele>131.4</ele>
        <time>2021-10-21T15:16:11Z</time>
      </trkpt>
      <trkpt lat="37.6013180" lon="-6.0165860">
        <ele>131.7</ele>
        <time>2021-10-21T15:16:11Z</time>
      </trkpt>
      <trkpt lat="37.6012460" lon="-6.0165480">
        <ele>132.2</ele>
        <time>2021-10-21T15:16:11Z</time>
      </trkpt>
      <trkpt lat="37.6011520" lon="-6.0165050">
        <ele>133.0</ele>
        <time>2021-10-21T15:16:11Z</time>
      </trkpt>
      <trkpt lat="37.6010790" lon="-6.0164700">
        <ele>133.7</ele>
        <time>2021-10-21T15:16:11Z</time>
      </trkpt>
      <trkpt lat="37.6010360" lon="-6.0164540">
        <ele>134.1</ele>
        <time>2021-10-21T15:16:11Z</time>
      </trkpt>
      <trkpt lat="37.6009600" lon="-6.0164090">
        <ele>135.0</ele>
        <time>2021-10-21T15:16:11Z</time>
      </trkpt>
      <trkpt lat="37.6009440" lon="-6.0163990">
        <ele>135.2</ele>
        <time>2021-10-21T15:16:11Z</time>
      </trkpt>
      <trkpt lat="37.6008880" lon="-6.0163620">
        <ele>135.7</ele>
        <time>2021-10-21T15:16:11Z</time>
      </trkpt>
      <trkpt lat="37.6008460" lon="-6.0163320">
        <ele>136.0</ele>
        <time>2021-10-21T15:16:11Z</time>
      </trkpt>
      <trkpt lat="37.6008350" lon="-6.0163270">
        <ele>136.0</ele>
        <time>2021-10-21T15:16:11Z</time>
      </trkpt>
      <trkpt lat="37.6007930" lon="-6.0163050">
        <ele>136.2</ele>
        <time>2021-10-21T15:16:11Z</time>
      </trkpt>
      <trkpt lat="37.6007690" lon="-6.0162920">
        <ele>136.2</ele>
        <time>2021-10-21T15:16:11Z</time>
      </trkpt>
      <trkpt lat="37.6006200" lon="-6.0161860">
        <ele>136.0</ele>
        <time>2021-10-21T15:16:11Z</time>
      </trkpt>
      <trkpt lat="37.6005620" lon="-6.0161360">
        <ele>135.8</ele>
        <time>2021-10-21T15:16:11Z</time>
      </trkpt>
      <trkpt lat="37.6005000" lon="-6.0160770">
        <ele>135.7</ele>
        <time>2021-10-21T15:16:11Z</time>
      </trkpt>
      <trkpt lat="37.6004390" lon="-6.0160180">
        <ele>135.5</ele>
        <time>2021-10-21T15:16:11Z</time>
      </trkpt>
      <trkpt lat="37.6004080" lon="-6.0159890">
        <ele>135.5</ele>
        <time>2021-10-21T15:16:11Z</time>
      </trkpt>
      <trkpt lat="37.6003470" lon="-6.0159310">
        <ele>135.3</ele>
        <time>2021-10-21T15:16:11Z</time>
      </trkpt>
      <trkpt lat="37.6002780" lon="-6.0158680">
        <ele>135.2</ele>
        <time>2021-10-21T15:16:11Z</time>
      </trkpt>
      <trkpt lat="37.6002200" lon="-6.0158240">
        <ele>135.1</ele>
        <time>2021-10-21T15:16:11Z</time>
      </trkpt>
      <trkpt lat="37.6001240" lon="-6.0157610">
        <ele>134.9</ele>
        <time>2021-10-21T15:16:11Z</time>
      </trkpt>
      <trkpt lat="37.5999930" lon="-6.0156850">
        <ele>134.7</ele>
        <time>2021-10-21T15:16:11Z</time>
      </trkpt>
      <trkpt lat="37.5998650" lon="-6.0156220">
        <ele>134.6</ele>
        <time>2021-10-21T15:16:11Z</time>
      </trkpt>
      <trkpt lat="37.5997510" lon="-6.0155610">
        <ele>134.6</ele>
        <time>2021-10-21T15:16:11Z</time>
      </trkpt>
      <trkpt lat="37.5997240" lon="-6.0155610">
        <ele>134.5</ele>
        <time>2021-10-21T15:16:11Z</time>
      </trkpt>
      <trkpt lat="37.5995920" lon="-6.0155580">
        <ele>134.3</ele>
        <time>2021-10-21T15:16:11Z</time>
      </trkpt>
      <trkpt lat="37.5994320" lon="-6.0154960">
        <ele>133.9</ele>
        <time>2021-10-21T15:16:11Z</time>
      </trkpt>
      <trkpt lat="37.5993820" lon="-6.0154270">
        <ele>133.7</ele>
        <time>2021-10-21T15:16:11Z</time>
      </trkpt>
      <trkpt lat="37.5993480" lon="-6.0153950">
        <ele>133.6</ele>
        <time>2021-10-21T15:16:11Z</time>
      </trkpt>
      <trkpt lat="37.5993070" lon="-6.0153710">
        <ele>133.5</ele>
        <time>2021-10-21T15:16:11Z</time>
      </trkpt>
      <trkpt lat="37.5992640" lon="-6.0153560">
        <ele>133.3</ele>
        <time>2021-10-21T15:16:11Z</time>
      </trkpt>
      <trkpt lat="37.5990970" lon="-6.0153150">
        <ele>133.0</ele>
        <time>2021-10-21T15:16:11Z</time>
      </trkpt>
      <trkpt lat="37.5990610" lon="-6.0153010">
        <ele>133.0</ele>
        <time>2021-10-21T15:16:11Z</time>
      </trkpt>
      <trkpt lat="37.5989750" lon="-6.0152280">
        <ele>132.7</ele>
        <time>2021-10-21T15:16:11Z</time>
      </trkpt>
      <trkpt lat="37.5988380" lon="-6.0151860">
        <ele>132.3</ele>
        <time>2021-10-21T15:16:11Z</time>
      </trkpt>
      <trkpt lat="37.5988160" lon="-6.0151750">
        <ele>132.2</ele>
        <time>2021-10-21T15:16:11Z</time>
      </trkpt>
      <trkpt lat="37.5987740" lon="-6.0151460">
        <ele>132.0</ele>
        <time>2021-10-21T15:16:11Z</time>
      </trkpt>
      <trkpt lat="37.5987470" lon="-6.0151260">
        <ele>132.0</ele>
        <time>2021-10-21T15:16:11Z</time>
      </trkpt>
      <trkpt lat="37.5987440" lon="-6.0151210">
        <ele>132.0</ele>
        <time>2021-10-21T15:16:11Z</time>
      </trkpt>
      <trkpt lat="37.5987400" lon="-6.0151200">
        <ele>131.9</ele>
        <time>2021-10-21T15:16:11Z</time>
      </trkpt>
      <trkpt lat="37.5986920" lon="-6.0150990">
        <ele>131.8</ele>
        <time>2021-10-21T15:16:11Z</time>
      </trkpt>
      <trkpt lat="37.5986660" lon="-6.0150850">
        <ele>131.7</ele>
        <time>2021-10-21T15:16:11Z</time>
      </trkpt>
      <trkpt lat="37.5984790" lon="-6.0149590">
        <ele>131.1</ele>
        <time>2021-10-21T15:16:11Z</time>
      </trkpt>
      <trkpt lat="37.5984430" lon="-6.0149330">
        <ele>131.0</ele>
        <time>2021-10-21T15:16:11Z</time>
      </trkpt>
      <trkpt lat="37.5982920" lon="-6.0148260">
        <ele>130.6</ele>
        <time>2021-10-21T15:16:11Z</time>
      </trkpt>
      <trkpt lat="37.5982480" lon="-6.0147950">
        <ele>130.5</ele>
        <time>2021-10-21T15:16:11Z</time>
      </trkpt>
      <trkpt lat="37.5982030" lon="-6.0147690">
        <ele>130.4</ele>
        <time>2021-10-21T15:16:11Z</time>
      </trkpt>
      <trkpt lat="37.5979490" lon="-6.0146580">
        <ele>129.9</ele>
        <time>2021-10-21T15:16:11Z</time>
      </trkpt>
      <trkpt lat="37.5977940" lon="-6.0146090">
        <ele>129.7</ele>
        <time>2021-10-21T15:16:11Z</time>
      </trkpt>
      <trkpt lat="37.5975840" lon="-6.0145430">
        <ele>129.4</ele>
        <time>2021-10-21T15:16:11Z</time>
      </trkpt>
      <trkpt lat="37.5974400" lon="-6.0144980">
        <ele>129.2</ele>
        <time>2021-10-21T15:16:11Z</time>
      </trkpt>
      <trkpt lat="37.5972580" lon="-6.0144350">
        <ele>129.0</ele>
        <time>2021-10-21T15:16:11Z</time>
      </trkpt>
      <trkpt lat="37.5971700" lon="-6.0143950">
        <ele>128.8</ele>
        <time>2021-10-21T15:16:11Z</time>
      </trkpt>
      <trkpt lat="37.5969320" lon="-6.0143280">
        <ele>128.7</ele>
        <time>2021-10-21T15:16:11Z</time>
      </trkpt>
      <trkpt lat="37.5968840" lon="-6.0143240">
        <ele>128.6</ele>
        <time>2021-10-21T15:16:11Z</time>
      </trkpt>
      <trkpt lat="37.5966930" lon="-6.0143400">
        <ele>128.5</ele>
        <time>2021-10-21T15:16:11Z</time>
      </trkpt>
      <trkpt lat="37.5966010" lon="-6.0143830">
        <ele>128.5</ele>
        <time>2021-10-21T15:16:11Z</time>
      </trkpt>
      <trkpt lat="37.5965230" lon="-6.0144390">
        <ele>128.5</ele>
        <time>2021-10-21T15:16:11Z</time>
      </trkpt>
      <trkpt lat="37.5964330" lon="-6.0145330">
        <ele>128.4</ele>
        <time>2021-10-21T15:16:11Z</time>
      </trkpt>
      <trkpt lat="37.5962810" lon="-6.0147080">
        <ele>128.1</ele>
        <time>2021-10-21T15:16:11Z</time>
      </trkpt>
      <trkpt lat="37.5962470" lon="-6.0147500">
        <ele>128.1</ele>
        <time>2021-10-21T15:16:11Z</time>
      </trkpt>
      <trkpt lat="37.5962120" lon="-6.0147890">
        <ele>128.1</ele>
        <time>2021-10-21T15:16:11Z</time>
      </trkpt>
      <trkpt lat="37.5961400" lon="-6.0148390">
        <ele>128.1</ele>
        <time>2021-10-21T15:16:11Z</time>
      </trkpt>
      <trkpt lat="37.5961060" lon="-6.0148650">
        <ele>128.2</ele>
        <time>2021-10-21T15:16:11Z</time>
      </trkpt>
      <trkpt lat="37.5960430" lon="-6.0149290">
        <ele>128.3</ele>
        <time>2021-10-21T15:16:11Z</time>
      </trkpt>
      <trkpt lat="37.5959610" lon="-6.0150460">
        <ele>128.7</ele>
        <time>2021-10-21T15:16:11Z</time>
      </trkpt>
      <trkpt lat="37.5958400" lon="-6.0152790">
        <ele>129.4</ele>
        <time>2021-10-21T15:16:11Z</time>
      </trkpt>
      <trkpt lat="37.5958020" lon="-6.0154460">
        <ele>129.8</ele>
        <time>2021-10-21T15:16:11Z</time>
      </trkpt>
      <trkpt lat="37.5957490" lon="-6.0156630">
        <ele>130.2</ele>
        <time>2021-10-21T15:16:11Z</time>
      </trkpt>
      <trkpt lat="37.5956730" lon="-6.0158650">
        <ele>130.9</ele>
        <time>2021-10-21T15:16:11Z</time>
      </trkpt>
      <trkpt lat="37.5956580" lon="-6.0158950">
        <ele>131.1</ele>
        <time>2021-10-21T15:16:11Z</time>
      </trkpt>
      <trkpt lat="37.5955780" lon="-6.0161050">
        <ele>131.9</ele>
        <time>2021-10-21T15:16:11Z</time>
      </trkpt>
      <trkpt lat="37.5955520" lon="-6.0161630">
        <ele>132.2</ele>
        <time>2021-10-21T15:16:11Z</time>
      </trkpt>
      <trkpt lat="37.5954810" lon="-6.0163250">
        <ele>133.1</ele>
        <time>2021-10-21T15:16:11Z</time>
      </trkpt>
      <trkpt lat="37.5954690" lon="-6.0163460">
        <ele>133.2</ele>
        <time>2021-10-21T15:16:11Z</time>
      </trkpt>
      <trkpt lat="37.5953800" lon="-6.0164880">
        <ele>134.0</ele>
        <time>2021-10-21T15:16:11Z</time>
      </trkpt>
      <trkpt lat="37.5953600" lon="-6.0165040">
        <ele>134.1</ele>
        <time>2021-10-21T15:16:11Z</time>
      </trkpt>
      <trkpt lat="37.5952480" lon="-6.0166580">
        <ele>134.9</ele>
        <time>2021-10-21T15:16:11Z</time>
      </trkpt>
      <trkpt lat="37.5952060" lon="-6.0167260">
        <ele>135.2</ele>
        <time>2021-10-21T15:16:11Z</time>
      </trkpt>
      <trkpt lat="37.5951510" lon="-6.0168620">
        <ele>135.9</ele>
        <time>2021-10-21T15:16:11Z</time>
      </trkpt>
      <trkpt lat="37.5951380" lon="-6.0169210">
        <ele>136.2</ele>
        <time>2021-10-21T15:16:11Z</time>
      </trkpt>
      <trkpt lat="37.5950940" lon="-6.0170910">
        <ele>137.3</ele>
        <time>2021-10-21T15:16:11Z</time>
      </trkpt>
      <trkpt lat="37.5950780" lon="-6.0171320">
        <ele>137.7</ele>
        <time>2021-10-21T15:16:11Z</time>
      </trkpt>
      <trkpt lat="37.5950670" lon="-6.0171510">
        <ele>137.8</ele>
        <time>2021-10-21T15:16:11Z</time>
      </trkpt>
      <trkpt lat="37.5949980" lon="-6.0172160">
        <ele>138.7</ele>
        <time>2021-10-21T15:16:11Z</time>
      </trkpt>
      <trkpt lat="37.5949850" lon="-6.0172320">
        <ele>138.9</ele>
        <time>2021-10-21T15:16:11Z</time>
      </trkpt>
      <trkpt lat="37.5949370" lon="-6.0173070">
        <ele>139.6</ele>
        <time>2021-10-21T15:16:11Z</time>
      </trkpt>
      <trkpt lat="37.5949240" lon="-6.0173230">
        <ele>139.7</ele>
        <time>2021-10-21T15:16:11Z</time>
      </trkpt>
      <trkpt lat="37.5949040" lon="-6.0173550">
        <ele>140.0</ele>
        <time>2021-10-21T15:16:11Z</time>
      </trkpt>
      <trkpt lat="37.5947830" lon="-6.0174770">
        <ele>141.3</ele>
        <time>2021-10-21T15:16:11Z</time>
      </trkpt>
      <trkpt lat="37.5946500" lon="-6.0175430">
        <ele>142.3</ele>
        <time>2021-10-21T15:16:11Z</time>
      </trkpt>
      <trkpt lat="37.5945970" lon="-6.0175790">
        <ele>142.8</ele>
        <time>2021-10-21T15:16:11Z</time>
      </trkpt>
      <trkpt lat="37.5945450" lon="-6.0176400">
        <ele>143.3</ele>
        <time>2021-10-21T15:16:11Z</time>
      </trkpt>
      <trkpt lat="37.5944120" lon="-6.0177060">
        <ele>144.1</ele>
        <time>2021-10-21T15:16:11Z</time>
      </trkpt>
      <trkpt lat="37.5943390" lon="-6.0177230">
        <ele>144.2</ele>
        <time>2021-10-21T15:16:11Z</time>
      </trkpt>
      <trkpt lat="37.5942550" lon="-6.0177710">
        <ele>144.0</ele>
        <time>2021-10-21T15:16:11Z</time>
      </trkpt>
      <trkpt lat="37.5941090" lon="-6.0178310">
        <ele>143.2</ele>
        <time>2021-10-21T15:16:11Z</time>
      </trkpt>
      <trkpt lat="37.5939250" lon="-6.0179550">
        <ele>142.0</ele>
        <time>2021-10-21T15:16:11Z</time>
      </trkpt>
      <trkpt lat="37.5937340" lon="-6.0180490">
        <ele>140.9</ele>
        <time>2021-10-21T15:16:11Z</time>
      </trkpt>
      <trkpt lat="37.5936430" lon="-6.0180880">
        <ele>140.4</ele>
        <time>2021-10-21T15:16:11Z</time>
      </trkpt>
      <trkpt lat="37.5935230" lon="-6.0181830">
        <ele>139.5</ele>
        <time>2021-10-21T15:16:11Z</time>
      </trkpt>
      <trkpt lat="37.5934810" lon="-6.0182170">
        <ele>139.3</ele>
        <time>2021-10-21T15:16:11Z</time>
      </trkpt>
      <trkpt lat="37.5934380" lon="-6.0182480">
        <ele>139.1</ele>
        <time>2021-10-21T15:16:11Z</time>
      </trkpt>
      <trkpt lat="37.5933540" lon="-6.0182930">
        <ele>138.6</ele>
        <time>2021-10-21T15:16:11Z</time>
      </trkpt>
      <trkpt lat="37.5932470" lon="-6.0183390">
        <ele>138.2</ele>
        <time>2021-10-21T15:16:11Z</time>
      </trkpt>
      <trkpt lat="37.5931820" lon="-6.0184140">
        <ele>137.8</ele>
        <time>2021-10-21T15:16:11Z</time>
      </trkpt>
      <trkpt lat="37.5930880" lon="-6.0185420">
        <ele>137.4</ele>
        <time>2021-10-21T15:16:11Z</time>
      </trkpt>
      <trkpt lat="37.5929570" lon="-6.0186800">
        <ele>137.0</ele>
        <time>2021-10-21T15:16:11Z</time>
      </trkpt>
      <trkpt lat="37.5929180" lon="-6.0187050">
        <ele>136.9</ele>
        <time>2021-10-21T15:16:11Z</time>
      </trkpt>
      <trkpt lat="37.5928820" lon="-6.0187170">
        <ele>136.8</ele>
        <time>2021-10-21T15:16:11Z</time>
      </trkpt>
      <trkpt lat="37.5927910" lon="-6.0187470">
        <ele>136.6</ele>
        <time>2021-10-21T15:16:11Z</time>
      </trkpt>
      <trkpt lat="37.5927240" lon="-6.0187910">
        <ele>136.5</ele>
        <time>2021-10-21T15:16:11Z</time>
      </trkpt>
      <trkpt lat="37.5926880" lon="-6.0188130">
        <ele>136.4</ele>
        <time>2021-10-21T15:16:11Z</time>
      </trkpt>
      <trkpt lat="37.5926100" lon="-6.0188550">
        <ele>136.3</ele>
        <time>2021-10-21T15:16:11Z</time>
      </trkpt>
      <trkpt lat="37.5925520" lon="-6.0188950">
        <ele>136.2</ele>
        <time>2021-10-21T15:16:11Z</time>
      </trkpt>
      <trkpt lat="37.5925220" lon="-6.0189200">
        <ele>136.2</ele>
        <time>2021-10-21T15:16:11Z</time>
      </trkpt>
      <trkpt lat="37.5923590" lon="-6.0190450">
        <ele>136.0</ele>
        <time>2021-10-21T15:16:11Z</time>
      </trkpt>
      <trkpt lat="37.5922890" lon="-6.0190900">
        <ele>136.0</ele>
        <time>2021-10-21T15:16:11Z</time>
      </trkpt>
      <trkpt lat="37.5920940" lon="-6.0191910">
        <ele>136.0</ele>
        <time>2021-10-21T15:16:11Z</time>
      </trkpt>
      <trkpt lat="37.5920640" lon="-6.0192140">
        <ele>136.0</ele>
        <time>2021-10-21T15:16:11Z</time>
      </trkpt>
      <trkpt lat="37.5919310" lon="-6.0193870">
        <ele>135.9</ele>
        <time>2021-10-21T15:16:11Z</time>
      </trkpt>
      <trkpt lat="37.5918480" lon="-6.0196330">
        <ele>135.7</ele>
        <time>2021-10-21T15:16:11Z</time>
      </trkpt>
      <trkpt lat="37.5918300" lon="-6.0196900">
        <ele>135.6</ele>
        <time>2021-10-21T15:16:11Z</time>
      </trkpt>
      <trkpt lat="37.5917320" lon="-6.0199880">
        <ele>135.4</ele>
        <time>2021-10-21T15:16:11Z</time>
      </trkpt>
      <trkpt lat="37.5915820" lon="-6.0204150">
        <ele>135.5</ele>
        <time>2021-10-21T15:16:11Z</time>
      </trkpt>
      <trkpt lat="37.5915340" lon="-6.0204900">
        <ele>135.5</ele>
        <time>2021-10-21T15:16:11Z</time>
      </trkpt>
      <trkpt lat="37.5914180" lon="-6.0206900">
        <ele>135.6</ele>
        <time>2021-10-21T15:16:11Z</time>
      </trkpt>
      <trkpt lat="37.5912490" lon="-6.0209460">
        <ele>136.2</ele>
        <time>2021-10-21T15:16:11Z</time>
      </trkpt>
      <trkpt lat="37.5912120" lon="-6.0210020">
        <ele>136.3</ele>
        <time>2021-10-21T15:16:11Z</time>
      </trkpt>
      <trkpt lat="37.5911930" lon="-6.0210340">
        <ele>136.4</ele>
        <time>2021-10-21T15:16:11Z</time>
      </trkpt>
      <trkpt lat="37.5910690" lon="-6.0212270">
        <ele>136.8</ele>
        <time>2021-10-21T15:16:11Z</time>
      </trkpt>
      <trkpt lat="37.5909030" lon="-6.0213940">
        <ele>137.0</ele>
        <time>2021-10-21T15:16:11Z</time>
      </trkpt>
      <trkpt lat="37.5908770" lon="-6.0214160">
        <ele>137.0</ele>
        <time>2021-10-21T15:16:11Z</time>
      </trkpt>
      <trkpt lat="37.5907100" lon="-6.0215950">
        <ele>137.3</ele>
        <time>2021-10-21T15:16:11Z</time>
      </trkpt>
      <trkpt lat="37.5906830" lon="-6.0216240">
        <ele>137.4</ele>
        <time>2021-10-21T15:16:11Z</time>
      </trkpt>
      <trkpt lat="37.5906570" lon="-6.0216530">
        <ele>137.4</ele>
        <time>2021-10-21T15:16:11Z</time>
      </trkpt>
      <trkpt lat="37.5904610" lon="-6.0218520">
        <ele>137.8</ele>
        <time>2021-10-21T15:16:11Z</time>
      </trkpt>
      <trkpt lat="37.5902340" lon="-6.0220990">
        <ele>138.6</ele>
        <time>2021-10-21T15:16:11Z</time>
      </trkpt>
      <trkpt lat="37.5901000" lon="-6.0222410">
        <ele>139.1</ele>
        <time>2021-10-21T15:16:11Z</time>
      </trkpt>
      <trkpt lat="37.5900750" lon="-6.0222690">
        <ele>139.1</ele>
        <time>2021-10-21T15:16:11Z</time>
      </trkpt>
      <trkpt lat="37.5899040" lon="-6.0224540">
        <ele>139.0</ele>
        <time>2021-10-21T15:16:11Z</time>
      </trkpt>
      <trkpt lat="37.5898260" lon="-6.0225210">
        <ele>138.9</ele>
        <time>2021-10-21T15:16:11Z</time>
      </trkpt>
      <trkpt lat="37.5896990" lon="-6.0226270">
        <ele>138.9</ele>
        <time>2021-10-21T15:16:11Z</time>
      </trkpt>
      <trkpt lat="37.5895180" lon="-6.0228090">
        <ele>139.8</ele>
        <time>2021-10-21T15:16:11Z</time>
      </trkpt>
      <trkpt lat="37.5894380" lon="-6.0229050">
        <ele>140.4</ele>
        <time>2021-10-21T15:16:11Z</time>
      </trkpt>
      <trkpt lat="37.5894250" lon="-6.0229170">
        <ele>140.5</ele>
        <time>2021-10-21T15:16:11Z</time>
      </trkpt>
      <trkpt lat="37.5893590" lon="-6.0229740">
        <ele>140.7</ele>
        <time>2021-10-21T15:16:11Z</time>
      </trkpt>
      <trkpt lat="37.5892470" lon="-6.0230920">
        <ele>141.0</ele>
        <time>2021-10-21T15:16:11Z</time>
      </trkpt>
      <trkpt lat="37.5890520" lon="-6.0233120">
        <ele>141.9</ele>
        <time>2021-10-21T15:16:11Z</time>
      </trkpt>
      <trkpt lat="37.5890370" lon="-6.0233330">
        <ele>142.0</ele>
        <time>2021-10-21T15:16:11Z</time>
      </trkpt>
      <trkpt lat="37.5889240" lon="-6.0234640">
        <ele>143.1</ele>
        <time>2021-10-21T15:16:11Z</time>
      </trkpt>
      <trkpt lat="37.5888890" lon="-6.0234990">
        <ele>143.4</ele>
        <time>2021-10-21T15:16:11Z</time>
      </trkpt>
      <trkpt lat="37.5888750" lon="-6.0235140">
        <ele>143.6</ele>
        <time>2021-10-21T15:16:11Z</time>
      </trkpt>
      <trkpt lat="37.5888080" lon="-6.0235850">
        <ele>144.2</ele>
        <time>2021-10-21T15:16:11Z</time>
      </trkpt>
      <trkpt lat="37.5887940" lon="-6.0235980">
        <ele>144.3</ele>
        <time>2021-10-21T15:16:11Z</time>
      </trkpt>
      <trkpt lat="37.5887220" lon="-6.0236660">
        <ele>144.8</ele>
        <time>2021-10-21T15:16:11Z</time>
      </trkpt>
      <trkpt lat="37.5886830" lon="-6.0236990">
        <ele>145.0</ele>
        <time>2021-10-21T15:16:11Z</time>
      </trkpt>
      <trkpt lat="37.5886650" lon="-6.0237150">
        <ele>145.1</ele>
        <time>2021-10-21T15:16:11Z</time>
      </trkpt>
      <trkpt lat="37.5886500" lon="-6.0237250">
        <ele>145.2</ele>
        <time>2021-10-21T15:16:11Z</time>
      </trkpt>
      <trkpt lat="37.5886140" lon="-6.0237470">
        <ele>145.3</ele>
        <time>2021-10-21T15:16:11Z</time>
      </trkpt>
      <trkpt lat="37.5885700" lon="-6.0237840">
        <ele>145.4</ele>
        <time>2021-10-21T15:16:11Z</time>
      </trkpt>
      <trkpt lat="37.5885420" lon="-6.0237990">
        <ele>145.5</ele>
        <time>2021-10-21T15:16:11Z</time>
      </trkpt>
      <trkpt lat="37.5885100" lon="-6.0238650">
        <ele>145.4</ele>
        <time>2021-10-21T15:16:11Z</time>
      </trkpt>
      <trkpt lat="37.5884930" lon="-6.0238900">
        <ele>145.4</ele>
        <time>2021-10-21T15:16:11Z</time>
      </trkpt>
      <trkpt lat="37.5884270" lon="-6.0239730">
        <ele>145.2</ele>
        <time>2021-10-21T15:16:11Z</time>
      </trkpt>
      <trkpt lat="37.5883720" lon="-6.0240360">
        <ele>145.1</ele>
        <time>2021-10-21T15:16:11Z</time>
      </trkpt>
      <trkpt lat="37.5882770" lon="-6.0241280">
        <ele>145.0</ele>
        <time>2021-10-21T15:16:11Z</time>
      </trkpt>
      <trkpt lat="37.5882000" lon="-6.0242000">
        <ele>145.1</ele>
        <time>2021-10-21T15:16:11Z</time>
      </trkpt>
      <trkpt lat="37.5880820" lon="-6.0243200">
        <ele>145.1</ele>
        <time>2021-10-21T15:16:11Z</time>
      </trkpt>
      <trkpt lat="37.5879530" lon="-6.0244640">
        <ele>144.2</ele>
        <time>2021-10-21T15:16:11Z</time>
      </trkpt>
      <trkpt lat="37.5877990" lon="-6.0246310">
        <ele>142.4</ele>
        <time>2021-10-21T15:16:11Z</time>
      </trkpt>
      <trkpt lat="37.5875280" lon="-6.0249160">
        <ele>139.7</ele>
        <time>2021-10-21T15:16:11Z</time>
      </trkpt>
      <trkpt lat="37.5873880" lon="-6.0250460">
        <ele>138.5</ele>
        <time>2021-10-21T15:16:11Z</time>
      </trkpt>
      <trkpt lat="37.5872580" lon="-6.0251740">
        <ele>137.5</ele>
        <time>2021-10-21T15:16:11Z</time>
      </trkpt>
      <trkpt lat="37.5871450" lon="-6.0252960">
        <ele>136.8</ele>
        <time>2021-10-21T15:16:11Z</time>
      </trkpt>
      <trkpt lat="37.5869010" lon="-6.0255620">
        <ele>135.9</ele>
        <time>2021-10-21T15:16:11Z</time>
      </trkpt>
      <trkpt lat="37.5867140" lon="-6.0257330">
        <ele>136.0</ele>
        <time>2021-10-21T15:16:11Z</time>
      </trkpt>
      <trkpt lat="37.5866710" lon="-6.0257700">
        <ele>136.1</ele>
        <time>2021-10-21T15:16:11Z</time>
      </trkpt>
      <trkpt lat="37.5864910" lon="-6.0259110">
        <ele>136.9</ele>
        <time>2021-10-21T15:16:11Z</time>
      </trkpt>
      <trkpt lat="37.5862990" lon="-6.0260740">
        <ele>137.8</ele>
        <time>2021-10-21T15:16:11Z</time>
      </trkpt>
      <trkpt lat="37.5860480" lon="-6.0262840">
        <ele>139.3</ele>
        <time>2021-10-21T15:16:11Z</time>
      </trkpt>
      <trkpt lat="37.5859890" lon="-6.0263150">
        <ele>139.6</ele>
        <time>2021-10-21T15:16:11Z</time>
      </trkpt>
      <trkpt lat="37.5859640" lon="-6.0263360">
        <ele>139.7</ele>
        <time>2021-10-21T15:16:11Z</time>
      </trkpt>
      <trkpt lat="37.5858720" lon="-6.0264110">
        <ele>140.0</ele>
        <time>2021-10-21T15:16:11Z</time>
      </trkpt>
      <trkpt lat="37.5858480" lon="-6.0264350">
        <ele>140.0</ele>
        <time>2021-10-21T15:16:11Z</time>
      </trkpt>
      <trkpt lat="37.5858040" lon="-6.0264690">
        <ele>139.9</ele>
        <time>2021-10-21T15:16:11Z</time>
      </trkpt>
      <trkpt lat="37.5857280" lon="-6.0265320">
        <ele>139.7</ele>
        <time>2021-10-21T15:16:11Z</time>
      </trkpt>
      <trkpt lat="37.5856660" lon="-6.0265750">
        <ele>139.6</ele>
        <time>2021-10-21T15:16:11Z</time>
      </trkpt>
      <trkpt lat="37.5855680" lon="-6.0266470">
        <ele>139.3</ele>
        <time>2021-10-21T15:16:11Z</time>
      </trkpt>
      <trkpt lat="37.5853980" lon="-6.0267880">
        <ele>138.7</ele>
        <time>2021-10-21T15:16:11Z</time>
      </trkpt>
      <trkpt lat="37.5853020" lon="-6.0268850">
        <ele>138.5</ele>
        <time>2021-10-21T15:16:11Z</time>
      </trkpt>
      <trkpt lat="37.5852360" lon="-6.0269610">
        <ele>138.2</ele>
        <time>2021-10-21T15:16:11Z</time>
      </trkpt>
      <trkpt lat="37.5851990" lon="-6.0270090">
        <ele>138.1</ele>
        <time>2021-10-21T15:16:11Z</time>
      </trkpt>
      <trkpt lat="37.5851730" lon="-6.0270400">
        <ele>138.0</ele>
        <time>2021-10-21T15:16:11Z</time>
      </trkpt>
      <trkpt lat="37.5850680" lon="-6.0271580">
        <ele>137.5</ele>
        <time>2021-10-21T15:16:11Z</time>
      </trkpt>
      <trkpt lat="37.5849970" lon="-6.0272200">
        <ele>137.1</ele>
        <time>2021-10-21T15:16:11Z</time>
      </trkpt>
      <trkpt lat="37.5849510" lon="-6.0272470">
        <ele>136.9</ele>
        <time>2021-10-21T15:16:11Z</time>
      </trkpt>
      <trkpt lat="37.5847790" lon="-6.0273210">
        <ele>136.2</ele>
        <time>2021-10-21T15:16:11Z</time>
      </trkpt>
      <trkpt lat="37.5846190" lon="-6.0273960">
        <ele>135.7</ele>
        <time>2021-10-21T15:16:11Z</time>
      </trkpt>
      <trkpt lat="37.5845660" lon="-6.0274180">
        <ele>135.5</ele>
        <time>2021-10-21T15:16:11Z</time>
      </trkpt>
      <trkpt lat="37.5844710" lon="-6.0274590">
        <ele>135.2</ele>
        <time>2021-10-21T15:16:11Z</time>
      </trkpt>
      <trkpt lat="37.5844120" lon="-6.0274970">
        <ele>135.0</ele>
        <time>2021-10-21T15:16:11Z</time>
      </trkpt>
      <trkpt lat="37.5843120" lon="-6.0275600">
        <ele>134.6</ele>
        <time>2021-10-21T15:16:11Z</time>
      </trkpt>
      <trkpt lat="37.5841510" lon="-6.0276320">
        <ele>133.6</ele>
        <time>2021-10-21T15:16:11Z</time>
      </trkpt>
      <trkpt lat="37.5840920" lon="-6.0276360">
        <ele>133.2</ele>
        <time>2021-10-21T15:16:11Z</time>
      </trkpt>
      <trkpt lat="37.5840410" lon="-6.0276250">
        <ele>132.8</ele>
        <time>2021-10-21T15:16:11Z</time>
      </trkpt>
      <trkpt lat="37.5838920" lon="-6.0275580">
        <ele>132.0</ele>
        <time>2021-10-21T15:16:11Z</time>
      </trkpt>
      <trkpt lat="37.5837590" lon="-6.0274840">
        <ele>131.7</ele>
        <time>2021-10-21T15:16:11Z</time>
      </trkpt>
      <trkpt lat="37.5835240" lon="-6.0273280">
        <ele>131.7</ele>
        <time>2021-10-21T15:16:11Z</time>
      </trkpt>
      <trkpt lat="37.5833040" lon="-6.0271960">
        <ele>131.6</ele>
        <time>2021-10-21T15:16:11Z</time>
      </trkpt>
      <trkpt lat="37.5831610" lon="-6.0271710">
        <ele>131.3</ele>
        <time>2021-10-21T15:16:11Z</time>
      </trkpt>
      <trkpt lat="37.5830770" lon="-6.0271720">
        <ele>131.1</ele>
        <time>2021-10-21T15:16:11Z</time>
      </trkpt>
      <trkpt lat="37.5830280" lon="-6.0271700">
        <ele>131.0</ele>
        <time>2021-10-21T15:16:11Z</time>
      </trkpt>
      <trkpt lat="37.5829870" lon="-6.0271820">
        <ele>130.8</ele>
        <time>2021-10-21T15:16:11Z</time>
      </trkpt>
      <trkpt lat="37.5829240" lon="-6.0272060">
        <ele>130.6</ele>
        <time>2021-10-21T15:16:11Z</time>
      </trkpt>
      <trkpt lat="37.5827840" lon="-6.0272650">
        <ele>129.9</ele>
        <time>2021-10-21T15:16:11Z</time>
      </trkpt>
      <trkpt lat="37.5827150" lon="-6.0273040">
        <ele>129.6</ele>
        <time>2021-10-21T15:16:11Z</time>
      </trkpt>
      <trkpt lat="37.5824300" lon="-6.0274760">
        <ele>128.1</ele>
        <time>2021-10-21T15:16:11Z</time>
      </trkpt>
      <trkpt lat="37.5820860" lon="-6.0276850">
        <ele>126.2</ele>
        <time>2021-10-21T15:16:11Z</time>
      </trkpt>
      <trkpt lat="37.5820230" lon="-6.0277240">
        <ele>125.9</ele>
        <time>2021-10-21T15:16:11Z</time>
      </trkpt>
      <trkpt lat="37.5818420" lon="-6.0278360">
        <ele>125.1</ele>
        <time>2021-10-21T15:16:11Z</time>
      </trkpt>
      <trkpt lat="37.5816490" lon="-6.0279560">
        <ele>124.4</ele>
        <time>2021-10-21T15:16:11Z</time>
      </trkpt>
      <trkpt lat="37.5815740" lon="-6.0280040">
        <ele>124.2</ele>
        <time>2021-10-21T15:16:11Z</time>
      </trkpt>
      <trkpt lat="37.5813420" lon="-6.0281290">
        <ele>123.3</ele>
        <time>2021-10-21T15:16:11Z</time>
      </trkpt>
      <trkpt lat="37.5812700" lon="-6.0281680">
        <ele>123.0</ele>
        <time>2021-10-21T15:16:11Z</time>
      </trkpt>
      <trkpt lat="37.5811520" lon="-6.0282370">
        <ele>122.3</ele>
        <time>2021-10-21T15:16:11Z</time>
      </trkpt>
      <trkpt lat="37.5810370" lon="-6.0283060">
        <ele>121.6</ele>
        <time>2021-10-21T15:16:11Z</time>
      </trkpt>
      <trkpt lat="37.5809370" lon="-6.0283690">
        <ele>120.9</ele>
        <time>2021-10-21T15:16:11Z</time>
      </trkpt>
      <trkpt lat="37.5807530" lon="-6.0284730">
        <ele>119.4</ele>
        <time>2021-10-21T15:16:11Z</time>
      </trkpt>
      <trkpt lat="37.5806280" lon="-6.0285290">
        <ele>118.4</ele>
        <time>2021-10-21T15:16:11Z</time>
      </trkpt>
      <trkpt lat="37.5805730" lon="-6.0285550">
        <ele>118.1</ele>
        <time>2021-10-21T15:16:11Z</time>
      </trkpt>
      <trkpt lat="37.5805060" lon="-6.0285950">
        <ele>117.6</ele>
        <time>2021-10-21T15:16:11Z</time>
      </trkpt>
      <trkpt lat="37.5803580" lon="-6.0286910">
        <ele>116.7</ele>
        <time>2021-10-21T15:16:11Z</time>
      </trkpt>
      <trkpt lat="37.5803050" lon="-6.0287260">
        <ele>116.4</ele>
        <time>2021-10-21T15:16:11Z</time>
      </trkpt>
      <trkpt lat="37.5801590" lon="-6.0288190">
        <ele>115.8</ele>
        <time>2021-10-21T15:16:11Z</time>
      </trkpt>
      <trkpt lat="37.5799910" lon="-6.0289570">
        <ele>115.2</ele>
        <time>2021-10-21T15:16:11Z</time>
      </trkpt>
      <trkpt lat="37.5799320" lon="-6.0290040">
        <ele>115.0</ele>
        <time>2021-10-21T15:16:11Z</time>
      </trkpt>
      <trkpt lat="37.5797130" lon="-6.0291790">
        <ele>114.6</ele>
        <time>2021-10-21T15:16:11Z</time>
      </trkpt>
      <trkpt lat="37.5795520" lon="-6.0292920">
        <ele>114.4</ele>
        <time>2021-10-21T15:16:11Z</time>
      </trkpt>
      <trkpt lat="37.5794650" lon="-6.0293530">
        <ele>114.3</ele>
        <time>2021-10-21T15:16:11Z</time>
      </trkpt>
      <trkpt lat="37.5794100" lon="-6.0293910">
        <ele>114.3</ele>
        <time>2021-10-21T15:16:11Z</time>
      </trkpt>
      <trkpt lat="37.5793280" lon="-6.0294590">
        <ele>114.3</ele>
        <time>2021-10-21T15:16:11Z</time>
      </trkpt>
      <trkpt lat="37.5792670" lon="-6.0295250">
        <ele>114.3</ele>
        <time>2021-10-21T15:16:11Z</time>
      </trkpt>
      <trkpt lat="37.5792220" lon="-6.0295580">
        <ele>114.3</ele>
        <time>2021-10-21T15:16:11Z</time>
      </trkpt>
      <trkpt lat="37.5788640" lon="-6.0297770">
        <ele>114.6</ele>
        <time>2021-10-21T15:16:11Z</time>
      </trkpt>
      <trkpt lat="37.5786240" lon="-6.0299380">
        <ele>114.7</ele>
        <time>2021-10-21T15:16:11Z</time>
      </trkpt>
      <trkpt lat="37.5785950" lon="-6.0299500">
        <ele>114.7</ele>
        <time>2021-10-21T15:16:11Z</time>
      </trkpt>
      <trkpt lat="37.5783780" lon="-6.0299700">
        <ele>114.4</ele>
        <time>2021-10-21T15:16:11Z</time>
      </trkpt>
      <trkpt lat="37.5783170" lon="-6.0299710">
        <ele>114.3</ele>
        <time>2021-10-21T15:16:11Z</time>
      </trkpt>
      <trkpt lat="37.5782250" lon="-6.0299970">
        <ele>114.1</ele>
        <time>2021-10-21T15:16:11Z</time>
      </trkpt>
      <trkpt lat="37.5781890" lon="-6.0300140">
        <ele>114.0</ele>
        <time>2021-10-21T15:16:11Z</time>
      </trkpt>
      <trkpt lat="37.5780480" lon="-6.0300940">
        <ele>113.6</ele>
        <time>2021-10-21T15:16:11Z</time>
      </trkpt>
      <trkpt lat="37.5779660" lon="-6.0301280">
        <ele>113.3</ele>
        <time>2021-10-21T15:16:11Z</time>
      </trkpt>
      <trkpt lat="37.5778610" lon="-6.0301670">
        <ele>113.0</ele>
        <time>2021-10-21T15:16:11Z</time>
      </trkpt>
      <trkpt lat="37.5776690" lon="-6.0302520">
        <ele>112.5</ele>
        <time>2021-10-21T15:16:11Z</time>
      </trkpt>
      <trkpt lat="37.5775670" lon="-6.0302770">
        <ele>112.1</ele>
        <time>2021-10-21T15:16:11Z</time>
      </trkpt>
      <trkpt lat="37.5773560" lon="-6.0303680">
        <ele>111.2</ele>
        <time>2021-10-21T15:16:11Z</time>
      </trkpt>
      <trkpt lat="37.5772590" lon="-6.0304220">
        <ele>110.7</ele>
        <time>2021-10-21T15:16:11Z</time>
      </trkpt>
      <trkpt lat="37.5771960" lon="-6.0304640">
        <ele>110.3</ele>
        <time>2021-10-21T15:16:11Z</time>
      </trkpt>
      <trkpt lat="37.5771500" lon="-6.0304890">
        <ele>110.1</ele>
        <time>2021-10-21T15:16:11Z</time>
      </trkpt>
      <trkpt lat="37.5770790" lon="-6.0305210">
        <ele>109.7</ele>
        <time>2021-10-21T15:16:11Z</time>
      </trkpt>
      <trkpt lat="37.5768270" lon="-6.0306190">
        <ele>108.4</ele>
        <time>2021-10-21T15:16:11Z</time>
      </trkpt>
      <trkpt lat="37.5766450" lon="-6.0306840">
        <ele>107.5</ele>
        <time>2021-10-21T15:16:11Z</time>
      </trkpt>
      <trkpt lat="37.5765670" lon="-6.0307120">
        <ele>107.1</ele>
        <time>2021-10-21T15:16:11Z</time>
      </trkpt>
      <trkpt lat="37.5763770" lon="-6.0307740">
        <ele>106.2</ele>
        <time>2021-10-21T15:16:11Z</time>
      </trkpt>
      <trkpt lat="37.5760930" lon="-6.0308610">
        <ele>105.0</ele>
        <time>2021-10-21T15:16:11Z</time>
      </trkpt>
      <trkpt lat="37.5757410" lon="-6.0309920">
        <ele>103.4</ele>
        <time>2021-10-21T15:16:11Z</time>
      </trkpt>
      <trkpt lat="37.5755240" lon="-6.0310720">
        <ele>102.6</ele>
        <time>2021-10-21T15:16:11Z</time>
      </trkpt>
      <trkpt lat="37.5753650" lon="-6.0311250">
        <ele>102.1</ele>
        <time>2021-10-21T15:16:11Z</time>
      </trkpt>
      <trkpt lat="37.5753200" lon="-6.0311380">
        <ele>102.0</ele>
        <time>2021-10-21T15:16:11Z</time>
      </trkpt>
      <trkpt lat="37.5751220" lon="-6.0312060">
        <ele>101.4</ele>
        <time>2021-10-21T15:16:11Z</time>
      </trkpt>
      <trkpt lat="37.5751010" lon="-6.0312100">
        <ele>101.3</ele>
        <time>2021-10-21T15:16:11Z</time>
      </trkpt>
      <trkpt lat="37.5750500" lon="-6.0312190">
        <ele>101.2</ele>
        <time>2021-10-21T15:16:11Z</time>
      </trkpt>
      <trkpt lat="37.5750030" lon="-6.0312420">
        <ele>101.0</ele>
        <time>2021-10-21T15:16:11Z</time>
      </trkpt>
      <trkpt lat="37.5747950" lon="-6.0313070">
        <ele>100.3</ele>
        <time>2021-10-21T15:16:11Z</time>
      </trkpt>
      <trkpt lat="37.5746150" lon="-6.0313150">
        <ele>99.7</ele>
        <time>2021-10-21T15:16:11Z</time>
      </trkpt>
      <trkpt lat="37.5745540" lon="-6.0312860">
        <ele>99.5</ele>
        <time>2021-10-21T15:16:11Z</time>
      </trkpt>
      <trkpt lat="37.5745450" lon="-6.0312860">
        <ele>99.5</ele>
        <time>2021-10-21T15:16:11Z</time>
      </trkpt>
      <trkpt lat="37.5745550" lon="-6.0312900">
        <ele>99.5</ele>
        <time>2021-10-21T15:16:11Z</time>
      </trkpt>
      <trkpt lat="37.5746310" lon="-6.0313290">
        <ele>99.1</ele>
        <time>2021-10-21T15:16:11Z</time>
      </trkpt>
      <trkpt lat="37.5747270" lon="-6.0313380">
        <ele>98.8</ele>
        <time>2021-10-21T15:16:11Z</time>
      </trkpt>
      <trkpt lat="37.5747290" lon="-6.0313360">
        <ele>98.8</ele>
        <time>2021-10-21T15:16:11Z</time>
      </trkpt>
      <trkpt lat="37.5746570" lon="-6.0313220">
        <ele>98.5</ele>
        <time>2021-10-21T15:16:11Z</time>
      </trkpt>
      <trkpt lat="37.5746410" lon="-6.0313150">
        <ele>98.4</ele>
        <time>2021-10-21T15:16:11Z</time>
      </trkpt>
      <trkpt lat="37.5745750" lon="-6.0312470">
        <ele>98.2</ele>
        <time>2021-10-21T15:16:11Z</time>
      </trkpt>
      <trkpt lat="37.5745630" lon="-6.0312260">
        <ele>98.3</ele>
        <time>2021-10-21T15:16:11Z</time>
      </trkpt>
      <trkpt lat="37.5745470" lon="-6.0312000">
        <ele>98.3</ele>
        <time>2021-10-21T15:16:11Z</time>
      </trkpt>
      <trkpt lat="37.5745450" lon="-6.0311990">
        <ele>98.4</ele>
        <time>2021-10-21T15:16:11Z</time>
      </trkpt>
      <trkpt lat="37.5745550" lon="-6.0312630">
        <ele>98.5</ele>
        <time>2021-10-21T15:16:11Z</time>
      </trkpt>
      <trkpt lat="37.5745560" lon="-6.0312700">
        <ele>98.5</ele>
        <time>2021-10-21T15:16:11Z</time>
      </trkpt>
      <trkpt lat="37.5746350" lon="-6.0313110">
        <ele>98.8</ele>
        <time>2021-10-21T15:16:11Z</time>
      </trkpt>
      <trkpt lat="37.5747790" lon="-6.0313050">
        <ele>99.3</ele>
        <time>2021-10-21T15:16:11Z</time>
      </trkpt>
      <trkpt lat="37.5749700" lon="-6.0312510">
        <ele>99.9</ele>
        <time>2021-10-21T15:16:11Z</time>
      </trkpt>
      <trkpt lat="37.5751740" lon="-6.0311820">
        <ele>100.5</ele>
        <time>2021-10-21T15:16:11Z</time>
      </trkpt>
      <trkpt lat="37.5751870" lon="-6.0311940">
        <ele>100.5</ele>
        <time>2021-10-21T15:16:11Z</time>
      </trkpt>
      <trkpt lat="37.5751370" lon="-6.0312730">
        <ele>100.2</ele>
        <time>2021-10-21T15:16:11Z</time>
      </trkpt>
      <trkpt lat="37.5749480" lon="-6.0313830">
        <ele>99.5</ele>
        <time>2021-10-21T15:16:11Z</time>
      </trkpt>
      <trkpt lat="37.5746970" lon="-6.0314910">
        <ele>98.4</ele>
        <time>2021-10-21T15:16:11Z</time>
      </trkpt>
      <trkpt lat="37.5746550" lon="-6.0315100">
        <ele>98.3</ele>
        <time>2021-10-21T15:16:11Z</time>
      </trkpt>
      <trkpt lat="37.5746120" lon="-6.0315290">
        <ele>98.1</ele>
        <time>2021-10-21T15:16:11Z</time>
      </trkpt>
      <trkpt lat="37.5744750" lon="-6.0315990">
        <ele>97.5</ele>
        <time>2021-10-21T15:16:11Z</time>
      </trkpt>
      <trkpt lat="37.5744260" lon="-6.0316190">
        <ele>97.3</ele>
        <time>2021-10-21T15:16:11Z</time>
      </trkpt>
      <trkpt lat="37.5742940" lon="-6.0316700">
        <ele>96.8</ele>
        <time>2021-10-21T15:16:11Z</time>
      </trkpt>
      <trkpt lat="37.5740990" lon="-6.0317440">
        <ele>96.0</ele>
        <time>2021-10-21T15:16:11Z</time>
      </trkpt>
      <trkpt lat="37.5739850" lon="-6.0317810">
        <ele>95.5</ele>
        <time>2021-10-21T15:16:11Z</time>
      </trkpt>
      <trkpt lat="37.5738470" lon="-6.0317890">
        <ele>95.0</ele>
        <time>2021-10-21T15:16:11Z</time>
      </trkpt>
      <trkpt lat="37.5737430" lon="-6.0318130">
        <ele>94.6</ele>
        <time>2021-10-21T15:16:11Z</time>
      </trkpt>
      <trkpt lat="37.5736550" lon="-6.0318350">
        <ele>94.2</ele>
        <time>2021-10-21T15:16:11Z</time>
      </trkpt>
      <trkpt lat="37.5736210" lon="-6.0318290">
        <ele>94.1</ele>
        <time>2021-10-21T15:16:11Z</time>
      </trkpt>
      <trkpt lat="37.5735730" lon="-6.0318180">
        <ele>93.9</ele>
        <time>2021-10-21T15:16:11Z</time>
      </trkpt>
      <trkpt lat="37.5734520" lon="-6.0318380">
        <ele>93.4</ele>
        <time>2021-10-21T15:16:11Z</time>
      </trkpt>
      <trkpt lat="37.5733250" lon="-6.0318650">
        <ele>92.9</ele>
        <time>2021-10-21T15:16:11Z</time>
      </trkpt>
      <trkpt lat="37.5732820" lon="-6.0318780">
        <ele>92.8</ele>
        <time>2021-10-21T15:16:11Z</time>
      </trkpt>
      <trkpt lat="37.5732140" lon="-6.0319200">
        <ele>92.6</ele>
        <time>2021-10-21T15:16:11Z</time>
      </trkpt>
      <trkpt lat="37.5731850" lon="-6.0319450">
        <ele>92.6</ele>
        <time>2021-10-21T15:16:11Z</time>
      </trkpt>
      <trkpt lat="37.5731250" lon="-6.0319960">
        <ele>92.4</ele>
        <time>2021-10-21T15:16:11Z</time>
      </trkpt>
      <trkpt lat="37.5730360" lon="-6.0320550">
        <ele>92.2</ele>
        <time>2021-10-21T15:16:11Z</time>
      </trkpt>
      <trkpt lat="37.5729770" lon="-6.0320160">
        <ele>92.0</ele>
        <time>2021-10-21T15:16:11Z</time>
      </trkpt>
      <trkpt lat="37.5728530" lon="-6.0319990">
        <ele>91.4</ele>
        <time>2021-10-21T15:16:11Z</time>
      </trkpt>
      <trkpt lat="37.5726980" lon="-6.0320260">
        <ele>90.5</ele>
        <time>2021-10-21T15:16:11Z</time>
      </trkpt>
      <trkpt lat="37.5726510" lon="-6.0320240">
        <ele>90.2</ele>
        <time>2021-10-21T15:16:11Z</time>
      </trkpt>
      <trkpt lat="37.5725590" lon="-6.0320290">
        <ele>89.8</ele>
        <time>2021-10-21T15:16:11Z</time>
      </trkpt>
      <trkpt lat="37.5724180" lon="-6.0320730">
        <ele>89.2</ele>
        <time>2021-10-21T15:16:11Z</time>
      </trkpt>
      <trkpt lat="37.5721710" lon="-6.0321700">
        <ele>88.0</ele>
        <time>2021-10-21T15:16:11Z</time>
      </trkpt>
      <trkpt lat="37.5720820" lon="-6.0322070">
        <ele>87.6</ele>
        <time>2021-10-21T15:16:11Z</time>
      </trkpt>
      <trkpt lat="37.5720330" lon="-6.0322060">
        <ele>87.4</ele>
        <time>2021-10-21T15:16:11Z</time>
      </trkpt>
      <trkpt lat="37.5719850" lon="-6.0321990">
        <ele>87.1</ele>
        <time>2021-10-21T15:16:11Z</time>
      </trkpt>
      <trkpt lat="37.5719360" lon="-6.0321970">
        <ele>86.9</ele>
        <time>2021-10-21T15:16:11Z</time>
      </trkpt>
      <trkpt lat="37.5718380" lon="-6.0322190">
        <ele>86.5</ele>
        <time>2021-10-21T15:16:11Z</time>
      </trkpt>
      <trkpt lat="37.5717920" lon="-6.0322360">
        <ele>86.3</ele>
        <time>2021-10-21T15:16:11Z</time>
      </trkpt>
      <trkpt lat="37.5717440" lon="-6.0322490">
        <ele>86.1</ele>
        <time>2021-10-21T15:16:11Z</time>
      </trkpt>
      <trkpt lat="37.5716990" lon="-6.0322480">
        <ele>85.8</ele>
        <time>2021-10-21T15:16:11Z</time>
      </trkpt>
      <trkpt lat="37.5716180" lon="-6.0322320">
        <ele>85.3</ele>
        <time>2021-10-21T15:16:11Z</time>
      </trkpt>
      <trkpt lat="37.5715130" lon="-6.0322670">
        <ele>84.7</ele>
        <time>2021-10-21T15:16:11Z</time>
      </trkpt>
      <trkpt lat="37.5714750" lon="-6.0322700">
        <ele>84.4</ele>
        <time>2021-10-21T15:16:11Z</time>
      </trkpt>
      <trkpt lat="37.5714330" lon="-6.0322730">
        <ele>84.1</ele>
        <time>2021-10-21T15:16:11Z</time>
      </trkpt>
      <trkpt lat="37.5713490" lon="-6.0323000">
        <ele>83.5</ele>
        <time>2021-10-21T15:16:11Z</time>
      </trkpt>
      <trkpt lat="37.5713130" lon="-6.0323210">
        <ele>83.3</ele>
        <time>2021-10-21T15:16:11Z</time>
      </trkpt>
      <trkpt lat="37.5711060" lon="-6.0323790">
        <ele>81.6</ele>
        <time>2021-10-21T15:16:11Z</time>
      </trkpt>
      <trkpt lat="37.5710630" lon="-6.0323860">
        <ele>81.3</ele>
        <time>2021-10-21T15:16:11Z</time>
      </trkpt>
      <trkpt lat="37.5710160" lon="-6.0323960">
        <ele>81.0</ele>
        <time>2021-10-21T15:16:11Z</time>
      </trkpt>
      <trkpt lat="37.5708050" lon="-6.0324440">
        <ele>79.6</ele>
        <time>2021-10-21T15:16:11Z</time>
      </trkpt>
      <trkpt lat="37.5706930" lon="-6.0324650">
        <ele>78.8</ele>
        <time>2021-10-21T15:16:11Z</time>
      </trkpt>
      <trkpt lat="37.5706410" lon="-6.0324760">
        <ele>78.5</ele>
        <time>2021-10-21T15:16:11Z</time>
      </trkpt>
      <trkpt lat="37.5704760" lon="-6.0325100">
        <ele>77.4</ele>
        <time>2021-10-21T15:16:11Z</time>
      </trkpt>
      <trkpt lat="37.5703690" lon="-6.0325310">
        <ele>76.7</ele>
        <time>2021-10-21T15:16:11Z</time>
      </trkpt>
      <trkpt lat="37.5702960" lon="-6.0325480">
        <ele>76.2</ele>
        <time>2021-10-21T15:16:11Z</time>
      </trkpt>
      <trkpt lat="37.5701170" lon="-6.0325910">
        <ele>75.1</ele>
        <time>2021-10-21T15:16:11Z</time>
      </trkpt>
      <trkpt lat="37.5700130" lon="-6.0326170">
        <ele>74.4</ele>
        <time>2021-10-21T15:16:11Z</time>
      </trkpt>
      <trkpt lat="37.5698980" lon="-6.0326510">
        <ele>73.8</ele>
        <time>2021-10-21T15:16:11Z</time>
      </trkpt>
      <trkpt lat="37.5698020" lon="-6.0326630">
        <ele>73.1</ele>
        <time>2021-10-21T15:16:11Z</time>
      </trkpt>
      <trkpt lat="37.5696530" lon="-6.0327110">
        <ele>71.9</ele>
        <time>2021-10-21T15:16:11Z</time>
      </trkpt>
      <trkpt lat="37.5695970" lon="-6.0327260">
        <ele>71.4</ele>
        <time>2021-10-21T15:16:11Z</time>
      </trkpt>
      <trkpt lat="37.5693650" lon="-6.0327910">
        <ele>69.4</ele>
        <time>2021-10-21T15:16:11Z</time>
      </trkpt>
      <trkpt lat="37.5692850" lon="-6.0328090">
        <ele>68.9</ele>
        <time>2021-10-21T15:16:11Z</time>
      </trkpt>
      <trkpt lat="37.5691480" lon="-6.0328350">
        <ele>68.2</ele>
        <time>2021-10-21T15:16:11Z</time>
      </trkpt>
      <trkpt lat="37.5688860" lon="-6.0328800">
        <ele>67.3</ele>
        <time>2021-10-21T15:16:11Z</time>
      </trkpt>
      <trkpt lat="37.5685370" lon="-6.0329310">
        <ele>66.8</ele>
        <time>2021-10-21T15:16:11Z</time>
      </trkpt>
      <trkpt lat="37.5684350" lon="-6.0329530">
        <ele>66.8</ele>
        <time>2021-10-21T15:16:11Z</time>
      </trkpt>
      <trkpt lat="37.5682120" lon="-6.0329790">
        <ele>66.9</ele>
        <time>2021-10-21T15:16:11Z</time>
      </trkpt>
      <trkpt lat="37.5681260" lon="-6.0329830">
        <ele>66.9</ele>
        <time>2021-10-21T15:16:11Z</time>
      </trkpt>
      <trkpt lat="37.5680870" lon="-6.0329870">
        <ele>66.9</ele>
        <time>2021-10-21T15:16:11Z</time>
      </trkpt>
      <trkpt lat="37.5680100" lon="-6.0330100">
        <ele>67.0</ele>
        <time>2021-10-21T15:16:11Z</time>
      </trkpt>
      <trkpt lat="37.5676710" lon="-6.0330780">
        <ele>66.5</ele>
        <time>2021-10-21T15:16:11Z</time>
      </trkpt>
      <trkpt lat="37.5676270" lon="-6.0330860">
        <ele>66.4</ele>
        <time>2021-10-21T15:16:11Z</time>
      </trkpt>
      <trkpt lat="37.5674440" lon="-6.0331210">
        <ele>65.9</ele>
        <time>2021-10-21T15:16:11Z</time>
      </trkpt>
      <trkpt lat="37.5672490" lon="-6.0331530">
        <ele>65.3</ele>
        <time>2021-10-21T15:16:11Z</time>
      </trkpt>
      <trkpt lat="37.5671440" lon="-6.0331680">
        <ele>64.9</ele>
        <time>2021-10-21T15:16:11Z</time>
      </trkpt>
      <trkpt lat="37.5669780" lon="-6.0331990">
        <ele>64.2</ele>
        <time>2021-10-21T15:16:11Z</time>
      </trkpt>
      <trkpt lat="37.5667930" lon="-6.0332290">
        <ele>63.4</ele>
        <time>2021-10-21T15:16:11Z</time>
      </trkpt>
      <trkpt lat="37.5667310" lon="-6.0332420">
        <ele>63.1</ele>
        <time>2021-10-21T15:16:11Z</time>
      </trkpt>
      <trkpt lat="37.5666050" lon="-6.0332730">
        <ele>62.7</ele>
        <time>2021-10-21T15:16:11Z</time>
      </trkpt>
      <trkpt lat="37.5664140" lon="-6.0333280">
        <ele>61.8</ele>
        <time>2021-10-21T15:16:11Z</time>
      </trkpt>
      <trkpt lat="37.5663490" lon="-6.0333430">
        <ele>61.5</ele>
        <time>2021-10-21T15:16:11Z</time>
      </trkpt>
      <trkpt lat="37.5662310" lon="-6.0333760">
        <ele>60.8</ele>
        <time>2021-10-21T15:16:11Z</time>
      </trkpt>
      <trkpt lat="37.5660780" lon="-6.0334080">
        <ele>60.0</ele>
        <time>2021-10-21T15:16:11Z</time>
      </trkpt>
      <trkpt lat="37.5657710" lon="-6.0334710">
        <ele>58.2</ele>
        <time>2021-10-21T15:16:11Z</time>
      </trkpt>
      <trkpt lat="37.5655260" lon="-6.0335220">
        <ele>56.9</ele>
        <time>2021-10-21T15:16:11Z</time>
      </trkpt>
      <trkpt lat="37.5652790" lon="-6.0335760">
        <ele>55.8</ele>
        <time>2021-10-21T15:16:11Z</time>
      </trkpt>
      <trkpt lat="37.5649590" lon="-6.0336590">
        <ele>54.7</ele>
        <time>2021-10-21T15:16:11Z</time>
      </trkpt>
      <trkpt lat="37.5645810" lon="-6.0337450">
        <ele>53.9</ele>
        <time>2021-10-21T15:16:11Z</time>
      </trkpt>
      <trkpt lat="37.5644390" lon="-6.0337800">
        <ele>53.7</ele>
        <time>2021-10-21T15:16:11Z</time>
      </trkpt>
      <trkpt lat="37.5641790" lon="-6.0338490">
        <ele>53.4</ele>
        <time>2021-10-21T15:16:11Z</time>
      </trkpt>
      <trkpt lat="37.5641300" lon="-6.0338600">
        <ele>53.3</ele>
        <time>2021-10-21T15:16:11Z</time>
      </trkpt>
      <trkpt lat="37.5637050" lon="-6.0339630">
        <ele>52.5</ele>
        <time>2021-10-21T15:16:11Z</time>
      </trkpt>
      <trkpt lat="37.5633440" lon="-6.0340570">
        <ele>51.9</ele>
        <time>2021-10-21T15:16:11Z</time>
      </trkpt>
      <trkpt lat="37.5630120" lon="-6.0341170">
        <ele>51.1</ele>
        <time>2021-10-21T15:16:11Z</time>
      </trkpt>
      <trkpt lat="37.5629050" lon="-6.0341390">
        <ele>50.8</ele>
        <time>2021-10-21T15:16:11Z</time>
      </trkpt>
      <trkpt lat="37.5625900" lon="-6.0342110">
        <ele>50.1</ele>
        <time>2021-10-21T15:16:11Z</time>
      </trkpt>
      <trkpt lat="37.5622560" lon="-6.0342860">
        <ele>49.4</ele>
        <time>2021-10-21T15:16:11Z</time>
      </trkpt>
      <trkpt lat="37.5619810" lon="-6.0343560">
        <ele>48.9</ele>
        <time>2021-10-21T15:16:11Z</time>
      </trkpt>
      <trkpt lat="37.5618920" lon="-6.0343820">
        <ele>48.8</ele>
        <time>2021-10-21T15:16:11Z</time>
      </trkpt>
      <trkpt lat="37.5618020" lon="-6.0344070">
        <ele>48.6</ele>
        <time>2021-10-21T15:16:11Z</time>
      </trkpt>
      <trkpt lat="37.5616180" lon="-6.0344420">
        <ele>48.1</ele>
        <time>2021-10-21T15:16:11Z</time>
      </trkpt>
      <trkpt lat="37.5615720" lon="-6.0344490">
        <ele>48.0</ele>
        <time>2021-10-21T15:16:11Z</time>
      </trkpt>
      <trkpt lat="37.5614300" lon="-6.0344730">
        <ele>47.6</ele>
        <time>2021-10-21T15:16:11Z</time>
      </trkpt>
      <trkpt lat="37.5612700" lon="-6.0344670">
        <ele>46.9</ele>
        <time>2021-10-21T15:16:11Z</time>
      </trkpt>
      <trkpt lat="37.5610980" lon="-6.0344470">
        <ele>46.2</ele>
        <time>2021-10-21T15:16:11Z</time>
      </trkpt>
      <trkpt lat="37.5609150" lon="-6.0344620">
        <ele>45.6</ele>
        <time>2021-10-21T15:16:11Z</time>
      </trkpt>
      <trkpt lat="37.5607460" lon="-6.0344780">
        <ele>45.1</ele>
        <time>2021-10-21T15:16:11Z</time>
      </trkpt>
      <trkpt lat="37.5604940" lon="-6.0345020">
        <ele>44.5</ele>
        <time>2021-10-21T15:16:11Z</time>
      </trkpt>
      <trkpt lat="37.5601510" lon="-6.0345370">
        <ele>43.8</ele>
        <time>2021-10-21T15:16:11Z</time>
      </trkpt>
      <trkpt lat="37.5599750" lon="-6.0345630">
        <ele>43.4</ele>
        <time>2021-10-21T15:16:11Z</time>
      </trkpt>
      <trkpt lat="37.5597150" lon="-6.0346320">
        <ele>43.0</ele>
        <time>2021-10-21T15:16:11Z</time>
      </trkpt>
      <trkpt lat="37.5595770" lon="-6.0346740">
        <ele>42.7</ele>
        <time>2021-10-21T15:16:11Z</time>
      </trkpt>
      <trkpt lat="37.5591780" lon="-6.0347980">
        <ele>42.1</ele>
        <time>2021-10-21T15:16:11Z</time>
      </trkpt>
      <trkpt lat="37.5589240" lon="-6.0348430">
        <ele>41.7</ele>
        <time>2021-10-21T15:16:11Z</time>
      </trkpt>
      <trkpt lat="37.5586130" lon="-6.0349000">
        <ele>41.4</ele>
        <time>2021-10-21T15:16:11Z</time>
      </trkpt>
      <trkpt lat="37.5583050" lon="-6.0349760">
        <ele>41.1</ele>
        <time>2021-10-21T15:16:11Z</time>
      </trkpt>
      <trkpt lat="37.5581610" lon="-6.0350170">
        <ele>40.9</ele>
        <time>2021-10-21T15:16:11Z</time>
      </trkpt>
      <trkpt lat="37.5581000" lon="-6.0350290">
        <ele>40.8</ele>
        <time>2021-10-21T15:16:11Z</time>
      </trkpt>
      <trkpt lat="37.5577020" lon="-6.0351160">
        <ele>40.1</ele>
        <time>2021-10-21T15:16:11Z</time>
      </trkpt>
      <trkpt lat="37.5575510" lon="-6.0351560">
        <ele>40.0</ele>
        <time>2021-10-21T15:16:11Z</time>
      </trkpt>
      <trkpt lat="37.5573710" lon="-6.0352120">
        <ele>39.9</ele>
        <time>2021-10-21T15:16:11Z</time>
      </trkpt>
      <trkpt lat="37.5571260" lon="-6.0352920">
        <ele>40.0</ele>
        <time>2021-10-21T15:16:11Z</time>
      </trkpt>
      <trkpt lat="37.5569350" lon="-6.0353540">
        <ele>40.2</ele>
        <time>2021-10-21T15:16:11Z</time>
      </trkpt>
      <trkpt lat="37.5567960" lon="-6.0353800">
        <ele>40.4</ele>
        <time>2021-10-21T15:16:11Z</time>
      </trkpt>
      <trkpt lat="37.5566590" lon="-6.0353270">
        <ele>40.5</ele>
        <time>2021-10-21T15:16:11Z</time>
      </trkpt>
      <trkpt lat="37.5565330" lon="-6.0353420">
        <ele>40.3</ele>
        <time>2021-10-21T15:16:11Z</time>
      </trkpt>
      <trkpt lat="37.5564910" lon="-6.0353800">
        <ele>40.2</ele>
        <time>2021-10-21T15:16:11Z</time>
      </trkpt>
      <trkpt lat="37.5564820" lon="-6.0354310">
        <ele>40.1</ele>
        <time>2021-10-21T15:16:11Z</time>
      </trkpt>
      <trkpt lat="37.5564640" lon="-6.0355040">
        <ele>40.0</ele>
        <time>2021-10-21T15:16:11Z</time>
      </trkpt>
      <trkpt lat="37.5563510" lon="-6.0357930">
        <ele>39.4</ele>
        <time>2021-10-21T15:16:11Z</time>
      </trkpt>
      <trkpt lat="37.5563110" lon="-6.0358850">
        <ele>39.3</ele>
        <time>2021-10-21T15:16:11Z</time>
      </trkpt>
      <trkpt lat="37.5562330" lon="-6.0360360">
        <ele>39.0</ele>
        <time>2021-10-21T15:16:11Z</time>
      </trkpt>
      <trkpt lat="37.5561120" lon="-6.0362250">
        <ele>38.5</ele>
        <time>2021-10-21T15:16:11Z</time>
      </trkpt>
      <trkpt lat="37.5560820" lon="-6.0362630">
        <ele>38.4</ele>
        <time>2021-10-21T15:16:11Z</time>
      </trkpt>
      <trkpt lat="37.5559690" lon="-6.0364600">
        <ele>38.0</ele>
        <time>2021-10-21T15:16:11Z</time>
      </trkpt>
      <trkpt lat="37.5558580" lon="-6.0366800">
        <ele>37.6</ele>
        <time>2021-10-21T15:16:11Z</time>
      </trkpt>
      <trkpt lat="37.5558380" lon="-6.0367070">
        <ele>37.5</ele>
        <time>2021-10-21T15:16:11Z</time>
      </trkpt>
      <trkpt lat="37.5557310" lon="-6.0367210">
        <ele>37.3</ele>
        <time>2021-10-21T15:16:11Z</time>
      </trkpt>
      <trkpt lat="37.5554780" lon="-6.0366380">
        <ele>36.9</ele>
        <time>2021-10-21T15:16:11Z</time>
      </trkpt>
      <trkpt lat="37.5554380" lon="-6.0366240">
        <ele>36.8</ele>
        <time>2021-10-21T15:16:11Z</time>
      </trkpt>
      <trkpt lat="37.5551640" lon="-6.0365350">
        <ele>36.4</ele>
        <time>2021-10-21T15:16:11Z</time>
      </trkpt>
      <trkpt lat="37.5548310" lon="-6.0364090">
        <ele>35.8</ele>
        <time>2021-10-21T15:16:11Z</time>
      </trkpt>
      <trkpt lat="37.5545800" lon="-6.0363230">
        <ele>35.4</ele>
        <time>2021-10-21T15:16:11Z</time>
      </trkpt>
      <trkpt lat="37.5545470" lon="-6.0363150">
        <ele>35.4</ele>
        <time>2021-10-21T15:16:11Z</time>
      </trkpt>
      <trkpt lat="37.5543490" lon="-6.0362900">
        <ele>34.3</ele>
        <time>2021-10-21T15:16:11Z</time>
      </trkpt>
      <trkpt lat="37.5542500" lon="-6.0364250">
        <ele>33.9</ele>
        <time>2021-10-21T15:16:11Z</time>
      </trkpt>
      <trkpt lat="37.5542080" lon="-6.0365480">
        <ele>33.7</ele>
        <time>2021-10-21T15:16:11Z</time>
      </trkpt>
      <trkpt lat="37.5541500" lon="-6.0367110">
        <ele>33.5</ele>
        <time>2021-10-21T15:16:11Z</time>
      </trkpt>
      <trkpt lat="37.5541140" lon="-6.0368860">
        <ele>33.3</ele>
        <time>2021-10-21T15:16:11Z</time>
      </trkpt>
      <trkpt lat="37.5540880" lon="-6.0370300">
        <ele>33.2</ele>
        <time>2021-10-21T15:16:11Z</time>
      </trkpt>
      <trkpt lat="37.5540860" lon="-6.0370480">
        <ele>33.2</ele>
        <time>2021-10-21T15:16:11Z</time>
      </trkpt>
      <trkpt lat="37.5540670" lon="-6.0370290">
        <ele>33.2</ele>
        <time>2021-10-21T15:16:11Z</time>
      </trkpt>
      <trkpt lat="37.5540640" lon="-6.0369630">
        <ele>33.2</ele>
        <time>2021-10-21T15:16:11Z</time>
      </trkpt>
      <trkpt lat="37.5541090" lon="-6.0366740">
        <ele>33.4</ele>
        <time>2021-10-21T15:16:11Z</time>
      </trkpt>
      <trkpt lat="37.5541350" lon="-6.0364620">
        <ele>33.6</ele>
        <time>2021-10-21T15:16:11Z</time>
      </trkpt>
      <trkpt lat="37.5541170" lon="-6.0364290">
        <ele>33.6</ele>
        <time>2021-10-21T15:16:11Z</time>
      </trkpt>
      <trkpt lat="37.5540870" lon="-6.0364100">
        <ele>32.7</ele>
        <time>2021-10-21T15:16:11Z</time>
      </trkpt>
      <trkpt lat="37.5540170" lon="-6.0364380">
        <ele>32.6</ele>
        <time>2021-10-21T15:16:11Z</time>
      </trkpt>
      <trkpt lat="37.5539970" lon="-6.0364770">
        <ele>32.3</ele>
        <time>2021-10-21T15:16:11Z</time>
      </trkpt>
      <trkpt lat="37.5539640" lon="-6.0365630">
        <ele>32.2</ele>
        <time>2021-10-21T15:16:11Z</time>
      </trkpt>
      <trkpt lat="37.5538600" lon="-6.0368500">
        <ele>31.7</ele>
        <time>2021-10-21T15:16:11Z</time>
      </trkpt>
      <trkpt lat="37.5538440" lon="-6.0368980">
        <ele>31.6</ele>
        <time>2021-10-21T15:16:11Z</time>
      </trkpt>
      <trkpt lat="37.5537550" lon="-6.0371180">
        <ele>31.4</ele>
        <time>2021-10-21T15:16:11Z</time>
      </trkpt>
      <trkpt lat="37.5537300" lon="-6.0372090">
        <ele>31.4</ele>
        <time>2021-10-21T15:16:11Z</time>
      </trkpt>
      <trkpt lat="37.5537140" lon="-6.0372690">
        <ele>31.3</ele>
        <time>2021-10-21T15:16:11Z</time>
      </trkpt>
      <trkpt lat="37.5536270" lon="-6.0375550">
        <ele>31.3</ele>
        <time>2021-10-21T15:16:11Z</time>
      </trkpt>
      <trkpt lat="37.5535680" lon="-6.0377590">
        <ele>31.2</ele>
        <time>2021-10-21T15:16:11Z</time>
      </trkpt>
      <trkpt lat="37.5535550" lon="-6.0378090">
        <ele>31.2</ele>
        <time>2021-10-21T15:16:11Z</time>
      </trkpt>
      <trkpt lat="37.5535110" lon="-6.0379540">
        <ele>31.1</ele>
        <time>2021-10-21T15:16:11Z</time>
      </trkpt>
      <trkpt lat="37.5533700" lon="-6.0384400">
        <ele>30.9</ele>
        <time>2021-10-21T15:16:11Z</time>
      </trkpt>
      <trkpt lat="37.5532560" lon="-6.0388190">
        <ele>30.8</ele>
        <time>2021-10-21T15:16:11Z</time>
      </trkpt>
      <trkpt lat="37.5532240" lon="-6.0389280">
        <ele>30.8</ele>
        <time>2021-10-21T15:16:11Z</time>
      </trkpt>
      <trkpt lat="37.5532000" lon="-6.0390160">
        <ele>30.8</ele>
        <time>2021-10-21T15:16:11Z</time>
      </trkpt>
      <trkpt lat="37.5531100" lon="-6.0393200">
        <ele>30.8</ele>
        <time>2021-10-21T15:16:11Z</time>
      </trkpt>
      <trkpt lat="37.5530790" lon="-6.0394170">
        <ele>30.7</ele>
        <time>2021-10-21T15:16:11Z</time>
      </trkpt>
      <trkpt lat="37.5529400" lon="-6.0397900">
        <ele>30.8</ele>
        <time>2021-10-21T15:16:11Z</time>
      </trkpt>
      <trkpt lat="37.5528270" lon="-6.0400340">
        <ele>30.9</ele>
        <time>2021-10-21T15:16:11Z</time>
      </trkpt>
      <trkpt lat="37.5526500" lon="-6.0402890">
        <ele>30.9</ele>
        <time>2021-10-21T15:16:11Z</time>
      </trkpt>
      <trkpt lat="37.5524910" lon="-6.0404480">
        <ele>30.8</ele>
        <time>2021-10-21T15:16:11Z</time>
      </trkpt>
      <trkpt lat="37.5524500" lon="-6.0404950">
        <ele>30.8</ele>
        <time>2021-10-21T15:16:11Z</time>
      </trkpt>
      <trkpt lat="37.5524150" lon="-6.0405320">
        <ele>30.8</ele>
        <time>2021-10-21T15:16:11Z</time>
      </trkpt>
      <trkpt lat="37.5522840" lon="-6.0406870">
        <ele>30.7</ele>
        <time>2021-10-21T15:16:11Z</time>
      </trkpt>
      <trkpt lat="37.5521990" lon="-6.0407990">
        <ele>30.7</ele>
        <time>2021-10-21T15:16:11Z</time>
      </trkpt>
      <trkpt lat="37.5521150" lon="-6.0409240">
        <ele>30.7</ele>
        <time>2021-10-21T15:16:11Z</time>
      </trkpt>
      <trkpt lat="37.5519570" lon="-6.0411160">
        <ele>30.6</ele>
        <time>2021-10-21T15:16:11Z</time>
      </trkpt>
      <trkpt lat="37.5519250" lon="-6.0411520">
        <ele>30.6</ele>
        <time>2021-10-21T15:16:11Z</time>
      </trkpt>
      <trkpt lat="37.5517800" lon="-6.0412900">
        <ele>30.5</ele>
        <time>2021-10-21T15:16:11Z</time>
      </trkpt>
      <trkpt lat="37.5517530" lon="-6.0413300">
        <ele>30.5</ele>
        <time>2021-10-21T15:16:11Z</time>
      </trkpt>
      <trkpt lat="37.5517300" lon="-6.0413750">
        <ele>30.4</ele>
        <time>2021-10-21T15:16:11Z</time>
      </trkpt>
      <trkpt lat="37.5516850" lon="-6.0414660">
        <ele>30.2</ele>
        <time>2021-10-21T15:16:11Z</time>
      </trkpt>
      <trkpt lat="37.5516230" lon="-6.0415500">
        <ele>29.9</ele>
        <time>2021-10-21T15:16:11Z</time>
      </trkpt>
      <trkpt lat="37.5513930" lon="-6.0418660">
        <ele>29.3</ele>
        <time>2021-10-21T15:16:11Z</time>
      </trkpt>
      <trkpt lat="37.5513550" lon="-6.0419200">
        <ele>29.2</ele>
        <time>2021-10-21T15:16:11Z</time>
      </trkpt>
      <trkpt lat="37.5512570" lon="-6.0420490">
        <ele>28.9</ele>
        <time>2021-10-21T15:16:11Z</time>
      </trkpt>
      <trkpt lat="37.5510330" lon="-6.0423410">
        <ele>28.4</ele>
        <time>2021-10-21T15:16:11Z</time>
      </trkpt>
      <trkpt lat="37.5506790" lon="-6.0428020">
        <ele>27.5</ele>
        <time>2021-10-21T15:16:11Z</time>
      </trkpt>
      <trkpt lat="37.5504360" lon="-6.0431700">
        <ele>26.5</ele>
        <time>2021-10-21T15:16:11Z</time>
      </trkpt>
      <trkpt lat="37.5504060" lon="-6.0432190">
        <ele>26.4</ele>
        <time>2021-10-21T15:16:11Z</time>
      </trkpt>
      <trkpt lat="37.5503780" lon="-6.0432680">
        <ele>26.3</ele>
        <time>2021-10-21T15:16:11Z</time>
      </trkpt>
      <trkpt lat="37.5501980" lon="-6.0436420">
        <ele>25.3</ele>
        <time>2021-10-21T15:16:11Z</time>
      </trkpt>
      <trkpt lat="37.5501710" lon="-6.0437000">
        <ele>25.1</ele>
        <time>2021-10-21T15:16:11Z</time>
      </trkpt>
      <trkpt lat="37.5500960" lon="-6.0438730">
        <ele>24.7</ele>
        <time>2021-10-21T15:16:11Z</time>
      </trkpt>
      <trkpt lat="37.5500340" lon="-6.0440570">
        <ele>24.4</ele>
        <time>2021-10-21T15:16:11Z</time>
      </trkpt>
      <trkpt lat="37.5500080" lon="-6.0441140">
        <ele>24.2</ele>
        <time>2021-10-21T15:16:11Z</time>
      </trkpt>
      <trkpt lat="37.5499530" lon="-6.0442290">
        <ele>24.0</ele>
        <time>2021-10-21T15:16:11Z</time>
      </trkpt>
      <trkpt lat="37.5499130" lon="-6.0443510">
        <ele>23.8</ele>
        <time>2021-10-21T15:16:11Z</time>
      </trkpt>
      <trkpt lat="37.5498880" lon="-6.0444080">
        <ele>23.7</ele>
        <time>2021-10-21T15:16:11Z</time>
      </trkpt>
      <trkpt lat="37.5498100" lon="-6.0445760">
        <ele>23.5</ele>
        <time>2021-10-21T15:16:11Z</time>
      </trkpt>
      <trkpt lat="37.5497870" lon="-6.0446350">
        <ele>23.4</ele>
        <time>2021-10-21T15:16:11Z</time>
      </trkpt>
      <trkpt lat="37.5497400" lon="-6.0447500">
        <ele>23.3</ele>
        <time>2021-10-21T15:16:11Z</time>
      </trkpt>
      <trkpt lat="37.5495800" lon="-6.0451280">
        <ele>22.9</ele>
        <time>2021-10-21T15:16:11Z</time>
      </trkpt>
      <trkpt lat="37.5495450" lon="-6.0452340">
        <ele>22.9</ele>
        <time>2021-10-21T15:16:11Z</time>
      </trkpt>
      <trkpt lat="37.5495240" lon="-6.0453060">
        <ele>22.9</ele>
        <time>2021-10-21T15:16:11Z</time>
      </trkpt>
      <trkpt lat="37.5494880" lon="-6.0455320">
        <ele>22.8</ele>
        <time>2021-10-21T15:16:11Z</time>
      </trkpt>
      <trkpt lat="37.5494420" lon="-6.0458740">
        <ele>22.7</ele>
        <time>2021-10-21T15:16:11Z</time>
      </trkpt>
      <trkpt lat="37.5493820" lon="-6.0462180">
        <ele>22.5</ele>
        <time>2021-10-21T15:16:11Z</time>
      </trkpt>
      <trkpt lat="37.5493730" lon="-6.0462740">
        <ele>22.5</ele>
        <time>2021-10-21T15:16:11Z</time>
      </trkpt>
      <trkpt lat="37.5493560" lon="-6.0463880">
        <ele>22.3</ele>
        <time>2021-10-21T15:16:11Z</time>
      </trkpt>
      <trkpt lat="37.5493260" lon="-6.0465450">
        <ele>22.1</ele>
        <time>2021-10-21T15:16:11Z</time>
      </trkpt>
      <trkpt lat="37.5492710" lon="-6.0468920">
        <ele>21.2</ele>
        <time>2021-10-21T15:16:11Z</time>
      </trkpt>
      <trkpt lat="37.5492470" lon="-6.0470440">
        <ele>20.6</ele>
        <time>2021-10-21T15:16:11Z</time>
      </trkpt>
      <trkpt lat="37.5492340" lon="-6.0470990">
        <ele>20.3</ele>
        <time>2021-10-21T15:16:11Z</time>
      </trkpt>
      <trkpt lat="37.5492030" lon="-6.0472980">
        <ele>19.2</ele>
        <time>2021-10-21T15:16:11Z</time>
      </trkpt>
      <trkpt lat="37.5491630" lon="-6.0475200">
        <ele>18.0</ele>
        <time>2021-10-21T15:16:11Z</time>
      </trkpt>
      <trkpt lat="37.5491470" lon="-6.0476060">
        <ele>17.6</ele>
        <time>2021-10-21T15:16:11Z</time>
      </trkpt>
      <trkpt lat="37.5491370" lon="-6.0476970">
        <ele>17.3</ele>
        <time>2021-10-21T15:16:11Z</time>
      </trkpt>
      <trkpt lat="37.5491300" lon="-6.0477900">
        <ele>17.1</ele>
        <time>2021-10-21T15:16:11Z</time>
      </trkpt>
      <trkpt lat="37.5490950" lon="-6.0482290">
        <ele>16.1</ele>
        <time>2021-10-21T15:16:11Z</time>
      </trkpt>
      <trkpt lat="37.5490820" lon="-6.0483110">
        <ele>15.9</ele>
        <time>2021-10-21T15:16:11Z</time>
      </trkpt>
      <trkpt lat="37.5490570" lon="-6.0484690">
        <ele>15.7</ele>
        <time>2021-10-21T15:16:11Z</time>
      </trkpt>
      <trkpt lat="37.5490400" lon="-6.0485440">
        <ele>15.6</ele>
        <time>2021-10-21T15:16:11Z</time>
      </trkpt>
      <trkpt lat="37.5489890" lon="-6.0486800">
        <ele>15.5</ele>
        <time>2021-10-21T15:16:11Z</time>
      </trkpt>
      <trkpt lat="37.5489660" lon="-6.0487440">
        <ele>15.5</ele>
        <time>2021-10-21T15:16:11Z</time>
      </trkpt>
      <trkpt lat="37.5489310" lon="-6.0488880">
        <ele>15.3</ele>
        <time>2021-10-21T15:16:11Z</time>
      </trkpt>
      <trkpt lat="37.5489070" lon="-6.0489580">
        <ele>15.2</ele>
        <time>2021-10-21T15:16:11Z</time>
      </trkpt>
      <trkpt lat="37.5488700" lon="-6.0490180">
        <ele>15.1</ele>
        <time>2021-10-21T15:16:11Z</time>
      </trkpt>
      <trkpt lat="37.5488360" lon="-6.0490830">
        <ele>15.0</ele>
        <time>2021-10-21T15:16:11Z</time>
      </trkpt>
      <trkpt lat="37.5487480" lon="-6.0492390">
        <ele>14.7</ele>
        <time>2021-10-21T15:16:11Z</time>
      </trkpt>
      <trkpt lat="37.5486880" lon="-6.0493010">
        <ele>14.6</ele>
        <time>2021-10-21T15:16:11Z</time>
      </trkpt>
      <trkpt lat="37.5486100" lon="-6.0493530">
        <ele>14.5</ele>
        <time>2021-10-21T15:16:11Z</time>
      </trkpt>
      <trkpt lat="37.5484290" lon="-6.0494320">
        <ele>14.2</ele>
        <time>2021-10-21T15:16:11Z</time>
      </trkpt>
      <trkpt lat="37.5482590" lon="-6.0495160">
        <ele>14.1</ele>
        <time>2021-10-21T15:16:11Z</time>
      </trkpt>
      <trkpt lat="37.5481330" lon="-6.0495670">
        <ele>14.0</ele>
        <time>2021-10-21T15:16:11Z</time>
      </trkpt>
      <trkpt lat="37.5480900" lon="-6.0495690">
        <ele>14.0</ele>
        <time>2021-10-21T15:16:11Z</time>
      </trkpt>
      <trkpt lat="37.5480460" lon="-6.0495640">
        <ele>13.9</ele>
        <time>2021-10-21T15:16:11Z</time>
      </trkpt>
      <trkpt lat="37.5479620" lon="-6.0495330">
        <ele>13.9</ele>
        <time>2021-10-21T15:16:11Z</time>
      </trkpt>
      <trkpt lat="37.5478870" lon="-6.0494830">
        <ele>13.8</ele>
        <time>2021-10-21T15:16:11Z</time>
      </trkpt>
      <trkpt lat="37.5478520" lon="-6.0494520">
        <ele>13.8</ele>
        <time>2021-10-21T15:16:11Z</time>
      </trkpt>
      <trkpt lat="37.5477250" lon="-6.0493500">
        <ele>13.8</ele>
        <time>2021-10-21T15:16:11Z</time>
      </trkpt>
      <trkpt lat="37.5475680" lon="-6.0492080">
        <ele>13.8</ele>
        <time>2021-10-21T15:16:11Z</time>
      </trkpt>
      <trkpt lat="37.5475100" lon="-6.0491490">
        <ele>13.8</ele>
        <time>2021-10-21T15:16:11Z</time>
      </trkpt>
      <trkpt lat="37.5472860" lon="-6.0489390">
        <ele>13.7</ele>
        <time>2021-10-21T15:16:11Z</time>
      </trkpt>
      <trkpt lat="37.5471780" lon="-6.0488650">
        <ele>13.6</ele>
        <time>2021-10-21T15:16:11Z</time>
      </trkpt>
      <trkpt lat="37.5471130" lon="-6.0487980">
        <ele>13.5</ele>
        <time>2021-10-21T15:16:11Z</time>
      </trkpt>
      <trkpt lat="37.5470480" lon="-6.0487310">
        <ele>13.4</ele>
        <time>2021-10-21T15:16:11Z</time>
      </trkpt>
      <trkpt lat="37.5469400" lon="-6.0486370">
        <ele>13.3</ele>
        <time>2021-10-21T15:16:11Z</time>
      </trkpt>
      <trkpt lat="37.5467860" lon="-6.0485470">
        <ele>13.0</ele>
        <time>2021-10-21T15:16:11Z</time>
      </trkpt>
      <trkpt lat="37.5466540" lon="-6.0484970">
        <ele>12.7</ele>
        <time>2021-10-21T15:16:11Z</time>
      </trkpt>
      <trkpt lat="37.5464490" lon="-6.0484060">
        <ele>12.2</ele>
        <time>2021-10-21T15:16:11Z</time>
      </trkpt>
      <trkpt lat="37.5463000" lon="-6.0483500">
        <ele>11.9</ele>
        <time>2021-10-21T15:16:11Z</time>
      </trkpt>
      <trkpt lat="37.5460710" lon="-6.0482400">
        <ele>11.6</ele>
        <time>2021-10-21T15:16:11Z</time>
      </trkpt>
      <trkpt lat="37.5460010" lon="-6.0482120">
        <ele>11.4</ele>
        <time>2021-10-21T15:16:11Z</time>
      </trkpt>
      <trkpt lat="37.5457640" lon="-6.0480970">
        <ele>10.8</ele>
        <time>2021-10-21T15:16:11Z</time>
      </trkpt>
      <trkpt lat="37.5455720" lon="-6.0480080">
        <ele>10.5</ele>
        <time>2021-10-21T15:16:11Z</time>
      </trkpt>
      <trkpt lat="37.5455370" lon="-6.0479860">
        <ele>10.5</ele>
        <time>2021-10-21T15:16:11Z</time>
      </trkpt>
      <trkpt lat="37.5455070" lon="-6.0479600">
        <ele>10.4</ele>
        <time>2021-10-21T15:16:11Z</time>
      </trkpt>
      <trkpt lat="37.5453720" lon="-6.0478900">
        <ele>10.3</ele>
        <time>2021-10-21T15:16:11Z</time>
      </trkpt>
      <trkpt lat="37.5451450" lon="-6.0477320">
        <ele>10.0</ele>
        <time>2021-10-21T15:16:11Z</time>
      </trkpt>
      <trkpt lat="37.5448790" lon="-6.0475700">
        <ele>9.8</ele>
        <time>2021-10-21T15:16:11Z</time>
      </trkpt>
      <trkpt lat="37.5446520" lon="-6.0474210">
        <ele>9.6</ele>
        <time>2021-10-21T15:16:11Z</time>
      </trkpt>
      <trkpt lat="37.5444490" lon="-6.0472710">
        <ele>9.5</ele>
        <time>2021-10-21T15:16:11Z</time>
      </trkpt>
      <trkpt lat="37.5444200" lon="-6.0472480">
        <ele>9.5</ele>
        <time>2021-10-21T15:16:11Z</time>
      </trkpt>
      <trkpt lat="37.5442360" lon="-6.0470340">
        <ele>9.4</ele>
        <time>2021-10-21T15:16:11Z</time>
      </trkpt>
      <trkpt lat="37.5440390" lon="-6.0468820">
        <ele>9.4</ele>
        <time>2021-10-21T15:16:11Z</time>
      </trkpt>
      <trkpt lat="37.5437270" lon="-6.0467090">
        <ele>9.2</ele>
        <time>2021-10-21T15:16:11Z</time>
      </trkpt>
      <trkpt lat="37.5434410" lon="-6.0465940">
        <ele>8.8</ele>
        <time>2021-10-21T15:16:11Z</time>
      </trkpt>
      <trkpt lat="37.5431960" lon="-6.0464650">
        <ele>8.6</ele>
        <time>2021-10-21T15:16:11Z</time>
      </trkpt>
      <trkpt lat="37.5429060" lon="-6.0462250">
        <ele>8.4</ele>
        <time>2021-10-21T15:16:11Z</time>
      </trkpt>
      <trkpt lat="37.5427850" lon="-6.0461300">
        <ele>8.4</ele>
        <time>2021-10-21T15:16:11Z</time>
      </trkpt>
      <trkpt lat="37.5426680" lon="-6.0460420">
        <ele>8.4</ele>
        <time>2021-10-21T15:16:11Z</time>
      </trkpt>
      <trkpt lat="37.5424610" lon="-6.0458980">
        <ele>8.3</ele>
        <time>2021-10-21T15:16:11Z</time>
      </trkpt>
      <trkpt lat="37.5422790" lon="-6.0457520">
        <ele>8.3</ele>
        <time>2021-10-21T15:16:11Z</time>
      </trkpt>
      <trkpt lat="37.5422100" lon="-6.0457180">
        <ele>8.3</ele>
        <time>2021-10-21T15:16:11Z</time>
      </trkpt>
      <trkpt lat="37.5419860" lon="-6.0455780">
        <ele>8.2</ele>
        <time>2021-10-21T15:16:11Z</time>
      </trkpt>
      <trkpt lat="37.5417350" lon="-6.0454100">
        <ele>8.1</ele>
        <time>2021-10-21T15:16:11Z</time>
      </trkpt>
      <trkpt lat="37.5414940" lon="-6.0452200">
        <ele>8.1</ele>
        <time>2021-10-21T15:16:11Z</time>
      </trkpt>
      <trkpt lat="37.5413650" lon="-6.0451850">
        <ele>8.0</ele>
        <time>2021-10-21T15:16:11Z</time>
      </trkpt>
      <trkpt lat="37.5413490" lon="-6.0451760">
        <ele>8.0</ele>
        <time>2021-10-21T15:16:11Z</time>
      </trkpt>
      <trkpt lat="37.5412960" lon="-6.0451370">
        <ele>8.0</ele>
        <time>2021-10-21T15:16:11Z</time>
      </trkpt>
      <trkpt lat="37.5412450" lon="-6.0450950">
        <ele>7.9</ele>
        <time>2021-10-21T15:16:11Z</time>
      </trkpt>
      <trkpt lat="37.5410860" lon="-6.0449670">
        <ele>7.9</ele>
        <time>2021-10-21T15:16:11Z</time>
      </trkpt>
      <trkpt lat="37.5409820" lon="-6.0449030">
        <ele>7.9</ele>
        <time>2021-10-21T15:16:11Z</time>
      </trkpt>
      <trkpt lat="37.5409120" lon="-6.0448640">
        <ele>7.9</ele>
        <time>2021-10-21T15:16:11Z</time>
      </trkpt>
      <trkpt lat="37.5406830" lon="-6.0447460">
        <ele>7.9</ele>
        <time>2021-10-21T15:16:11Z</time>
      </trkpt>
      <trkpt lat="37.5405840" lon="-6.0446940">
        <ele>7.8</ele>
        <time>2021-10-21T15:16:11Z</time>
      </trkpt>
      <trkpt lat="37.5405380" lon="-6.0446590">
        <ele>7.8</ele>
        <time>2021-10-21T15:16:11Z</time>
      </trkpt>
      <trkpt lat="37.5404880" lon="-6.0446400">
        <ele>7.8</ele>
        <time>2021-10-21T15:16:11Z</time>
      </trkpt>
      <trkpt lat="37.5404660" lon="-6.0446310">
        <ele>7.8</ele>
        <time>2021-10-21T15:16:11Z</time>
      </trkpt>
      <trkpt lat="37.5403250" lon="-6.0445700">
        <ele>7.7</ele>
        <time>2021-10-21T15:16:11Z</time>
      </trkpt>
      <trkpt lat="37.5402000" lon="-6.0445030">
        <ele>7.6</ele>
        <time>2021-10-21T15:16:11Z</time>
      </trkpt>
      <trkpt lat="37.5401890" lon="-6.0444920">
        <ele>7.6</ele>
        <time>2021-10-21T15:16:11Z</time>
      </trkpt>
      <trkpt lat="37.5401690" lon="-6.0444550">
        <ele>7.6</ele>
        <time>2021-10-21T15:16:11Z</time>
      </trkpt>
      <trkpt lat="37.5401220" lon="-6.0443970">
        <ele>7.6</ele>
        <time>2021-10-21T15:16:11Z</time>
      </trkpt>
      <trkpt lat="37.5400950" lon="-6.0443380">
        <ele>7.6</ele>
        <time>2021-10-21T15:16:11Z</time>
      </trkpt>
      <trkpt lat="37.5399990" lon="-6.0442190">
        <ele>7.6</ele>
        <time>2021-10-21T15:16:11Z</time>
      </trkpt>
      <trkpt lat="37.5398630" lon="-6.0440620">
        <ele>7.6</ele>
        <time>2021-10-21T15:16:11Z</time>
      </trkpt>
      <trkpt lat="37.5397340" lon="-6.0439570">
        <ele>7.6</ele>
        <time>2021-10-21T15:16:11Z</time>
      </trkpt>
      <trkpt lat="37.5395840" lon="-6.0438590">
        <ele>7.4</ele>
        <time>2021-10-21T15:16:11Z</time>
      </trkpt>
      <trkpt lat="37.5395430" lon="-6.0438280">
        <ele>7.4</ele>
        <time>2021-10-21T15:16:11Z</time>
      </trkpt>
      <trkpt lat="37.5393970" lon="-6.0437070">
        <ele>7.5</ele>
        <time>2021-10-21T15:16:11Z</time>
      </trkpt>
      <trkpt lat="37.5393860" lon="-6.0436800">
        <ele>7.5</ele>
        <time>2021-10-21T15:16:11Z</time>
      </trkpt>
      <trkpt lat="37.5393850" lon="-6.0436730">
        <ele>7.5</ele>
        <time>2021-10-21T15:16:11Z</time>
      </trkpt>
      <trkpt lat="37.5393430" lon="-6.0436550">
        <ele>7.6</ele>
        <time>2021-10-21T15:16:11Z</time>
      </trkpt>
      <trkpt lat="37.5392930" lon="-6.0436220">
        <ele>7.8</ele>
        <time>2021-10-21T15:16:11Z</time>
      </trkpt>
      <trkpt lat="37.5391170" lon="-6.0435200">
        <ele>8.3</ele>
        <time>2021-10-21T15:16:11Z</time>
      </trkpt>
      <trkpt lat="37.5389940" lon="-6.0434440">
        <ele>8.7</ele>
        <time>2021-10-21T15:16:11Z</time>
      </trkpt>
      <trkpt lat="37.5389620" lon="-6.0434070">
        <ele>8.8</ele>
        <time>2021-10-21T15:16:11Z</time>
      </trkpt>
      <trkpt lat="37.5388260" lon="-6.0432800">
        <ele>8.9</ele>
        <time>2021-10-21T15:16:11Z</time>
      </trkpt>
      <trkpt lat="37.5386580" lon="-6.0431170">
        <ele>8.9</ele>
        <time>2021-10-21T15:16:11Z</time>
      </trkpt>
      <trkpt lat="37.5386420" lon="-6.0431130">
        <ele>8.9</ele>
        <time>2021-10-21T15:16:11Z</time>
      </trkpt>
      <trkpt lat="37.5386200" lon="-6.0431220">
        <ele>8.9</ele>
        <time>2021-10-21T15:16:11Z</time>
      </trkpt>
      <trkpt lat="37.5386170" lon="-6.0431270">
        <ele>8.8</ele>
        <time>2021-10-21T15:16:11Z</time>
      </trkpt>
      <trkpt lat="37.5385500" lon="-6.0431640">
        <ele>8.8</ele>
        <time>2021-10-21T15:16:11Z</time>
      </trkpt>
      <trkpt lat="37.5385390" lon="-6.0431530">
        <ele>8.9</ele>
        <time>2021-10-21T15:16:11Z</time>
      </trkpt>
      <trkpt lat="37.5384980" lon="-6.0432400">
        <ele>8.4</ele>
        <time>2021-10-21T15:16:11Z</time>
      </trkpt>
      <trkpt lat="37.5384520" lon="-6.0432960">
        <ele>7.5</ele>
        <time>2021-10-21T15:16:11Z</time>
      </trkpt>
      <trkpt lat="37.5383150" lon="-6.0434660">
        <ele>6.3</ele>
        <time>2021-10-21T15:16:11Z</time>
      </trkpt>
      <trkpt lat="37.5382340" lon="-6.0435450">
        <ele>6.0</ele>
        <time>2021-10-21T15:16:11Z</time>
      </trkpt>
      <trkpt lat="37.5382140" lon="-6.0435590">
        <ele>6.1</ele>
        <time>2021-10-21T15:16:11Z</time>
      </trkpt>
      <trkpt lat="37.5382110" lon="-6.0435590">
        <ele>6.2</ele>
        <time>2021-10-21T15:16:11Z</time>
      </trkpt>
      <trkpt lat="37.5381680" lon="-6.0439360">
        <ele>7.5</ele>
        <time>2021-10-21T15:16:11Z</time>
      </trkpt>
      <trkpt lat="37.5381800" lon="-6.0439840">
        <ele>7.9</ele>
        <time>2021-10-21T15:16:11Z</time>
      </trkpt>
      <trkpt lat="37.5382020" lon="-6.0440580">
        <ele>8.1</ele>
        <time>2021-10-21T15:16:11Z</time>
      </trkpt>
      <trkpt lat="37.5382330" lon="-6.0441710">
        <ele>8.1</ele>
        <time>2021-10-21T15:16:11Z</time>
      </trkpt>
      <trkpt lat="37.5382930" lon="-6.0443190">
        <ele>7.8</ele>
        <time>2021-10-21T15:16:11Z</time>
      </trkpt>
      <trkpt lat="37.5383040" lon="-6.0443590">
        <ele>7.8</ele>
        <time>2021-10-21T15:16:11Z</time>
      </trkpt>
      <trkpt lat="37.5383320" lon="-6.0444220">
        <ele>7.7</ele>
        <time>2021-10-21T15:16:11Z</time>
      </trkpt>
      <trkpt lat="37.5383440" lon="-6.0444950">
        <ele>7.7</ele>
        <time>2021-10-21T15:16:11Z</time>
      </trkpt>
      <trkpt lat="37.5383600" lon="-6.0445380">
        <ele>7.7</ele>
        <time>2021-10-21T15:16:11Z</time>
      </trkpt>
      <trkpt lat="37.5383720" lon="-6.0446860">
        <ele>7.6</ele>
        <time>2021-10-21T15:16:11Z</time>
      </trkpt>
      <trkpt lat="37.5383650" lon="-6.0447630">
        <ele>7.7</ele>
        <time>2021-10-21T15:16:11Z</time>
      </trkpt>
      <trkpt lat="37.5383640" lon="-6.0448460">
        <ele>7.7</ele>
        <time>2021-10-21T15:16:11Z</time>
      </trkpt>
      <trkpt lat="37.5383460" lon="-6.0450300">
        <ele>7.9</ele>
        <time>2021-10-21T15:16:11Z</time>
      </trkpt>
      <trkpt lat="37.5383190" lon="-6.0451280">
        <ele>8.2</ele>
        <time>2021-10-21T15:16:11Z</time>
      </trkpt>
      <trkpt lat="37.5383090" lon="-6.0451690">
        <ele>8.3</ele>
        <time>2021-10-21T15:16:11Z</time>
      </trkpt>
      <trkpt lat="37.5382870" lon="-6.0452410">
        <ele>8.6</ele>
        <time>2021-10-21T15:16:11Z</time>
      </trkpt>
      <trkpt lat="37.5382790" lon="-6.0452970">
        <ele>8.9</ele>
        <time>2021-10-21T15:16:11Z</time>
      </trkpt>
      <trkpt lat="37.5382060" lon="-6.0454950">
        <ele>9.7</ele>
        <time>2021-10-21T15:16:11Z</time>
      </trkpt>
      <trkpt lat="37.5381390" lon="-6.0456500">
        <ele>10.2</ele>
        <time>2021-10-21T15:16:11Z</time>
      </trkpt>
      <trkpt lat="37.5381140" lon="-6.0456980">
        <ele>10.4</ele>
        <time>2021-10-21T15:16:11Z</time>
      </trkpt>
      <trkpt lat="37.5380160" lon="-6.0458430">
        <ele>11.1</ele>
        <time>2021-10-21T15:16:11Z</time>
      </trkpt>
      <trkpt lat="37.5380010" lon="-6.0458630">
        <ele>11.3</ele>
        <time>2021-10-21T15:16:11Z</time>
      </trkpt>
      <trkpt lat="37.5378630" lon="-6.0460880">
        <ele>12.1</ele>
        <time>2021-10-21T15:16:11Z</time>
      </trkpt>
      <trkpt lat="37.5377550" lon="-6.0462310">
        <ele>12.7</ele>
        <time>2021-10-21T15:16:11Z</time>
      </trkpt>
      <trkpt lat="37.5377340" lon="-6.0462590">
        <ele>12.9</ele>
        <time>2021-10-21T15:16:11Z</time>
      </trkpt>
      <trkpt lat="37.5377130" lon="-6.0462890">
        <ele>13.0</ele>
        <time>2021-10-21T15:16:11Z</time>
      </trkpt>
      <trkpt lat="37.5376260" lon="-6.0464130">
        <ele>13.6</ele>
        <time>2021-10-21T15:16:11Z</time>
      </trkpt>
      <trkpt lat="37.5375780" lon="-6.0465230">
        <ele>14.0</ele>
        <time>2021-10-21T15:16:11Z</time>
      </trkpt>
      <trkpt lat="37.5375290" lon="-6.0467240">
        <ele>13.9</ele>
        <time>2021-10-21T15:16:11Z</time>
      </trkpt>
      <trkpt lat="37.5375120" lon="-6.0467630">
        <ele>13.9</ele>
        <time>2021-10-21T15:16:11Z</time>
      </trkpt>
      <trkpt lat="37.5373910" lon="-6.0471220">
        <ele>13.8</ele>
        <time>2021-10-21T15:16:11Z</time>
      </trkpt>
      <trkpt lat="37.5373520" lon="-6.0472210">
        <ele>13.8</ele>
        <time>2021-10-21T15:16:11Z</time>
      </trkpt>
      <trkpt lat="37.5373000" lon="-6.0473710">
        <ele>13.8</ele>
        <time>2021-10-21T15:16:11Z</time>
      </trkpt>
      <trkpt lat="37.5372020" lon="-6.0476530">
        <ele>13.8</ele>
        <time>2021-10-21T15:16:11Z</time>
      </trkpt>
      <trkpt lat="37.5371570" lon="-6.0477740">
        <ele>13.8</ele>
        <time>2021-10-21T15:16:11Z</time>
      </trkpt>
      <trkpt lat="37.5370990" lon="-6.0479420">
        <ele>13.8</ele>
        <time>2021-10-21T15:16:11Z</time>
      </trkpt>
      <trkpt lat="37.5369880" lon="-6.0482290">
        <ele>13.8</ele>
        <time>2021-10-21T15:16:11Z</time>
      </trkpt>
      <trkpt lat="37.5368540" lon="-6.0486850">
        <ele>14.0</ele>
        <time>2021-10-21T15:16:11Z</time>
      </trkpt>
      <trkpt lat="37.5367340" lon="-6.0490310">
        <ele>14.1</ele>
        <time>2021-10-21T15:16:11Z</time>
      </trkpt>
      <trkpt lat="37.5367200" lon="-6.0490730">
        <ele>14.1</ele>
        <time>2021-10-21T15:16:11Z</time>
      </trkpt>
      <trkpt lat="37.5367070" lon="-6.0491110">
        <ele>14.2</ele>
        <time>2021-10-21T15:16:11Z</time>
      </trkpt>
      <trkpt lat="37.5366420" lon="-6.0493190">
        <ele>14.3</ele>
        <time>2021-10-21T15:16:11Z</time>
      </trkpt>
      <trkpt lat="37.5366230" lon="-6.0493890">
        <ele>14.4</ele>
        <time>2021-10-21T15:16:11Z</time>
      </trkpt>
      <trkpt lat="37.5366120" lon="-6.0494670">
        <ele>14.4</ele>
        <time>2021-10-21T15:16:11Z</time>
      </trkpt>
      <trkpt lat="37.5365930" lon="-6.0495860">
        <ele>14.5</ele>
        <time>2021-10-21T15:16:11Z</time>
      </trkpt>
      <trkpt lat="37.5366000" lon="-6.0498770">
        <ele>14.7</ele>
        <time>2021-10-21T15:16:11Z</time>
      </trkpt>
      <trkpt lat="37.5366200" lon="-6.0500000">
        <ele>14.9</ele>
        <time>2021-10-21T15:16:11Z</time>
      </trkpt>
      <trkpt lat="37.5366570" lon="-6.0501520">
        <ele>15.1</ele>
        <time>2021-10-21T15:16:11Z</time>
      </trkpt>
      <trkpt lat="37.5366790" lon="-6.0502910">
        <ele>15.2</ele>
        <time>2021-10-21T15:16:11Z</time>
      </trkpt>
      <trkpt lat="37.5366850" lon="-6.0504140">
        <ele>15.4</ele>
        <time>2021-10-21T15:16:11Z</time>
      </trkpt>
      <trkpt lat="37.5367040" lon="-6.0505370">
        <ele>15.5</ele>
        <time>2021-10-21T15:16:11Z</time>
      </trkpt>
      <trkpt lat="37.5367000" lon="-6.0505970">
        <ele>15.5</ele>
        <time>2021-10-21T15:16:11Z</time>
      </trkpt>
      <trkpt lat="37.5366290" lon="-6.0507630">
        <ele>15.7</ele>
        <time>2021-10-21T15:16:11Z</time>
      </trkpt>
      <trkpt lat="37.5365520" lon="-6.0509050">
        <ele>15.7</ele>
        <time>2021-10-21T15:16:11Z</time>
      </trkpt>
      <trkpt lat="37.5365240" lon="-6.0509410">
        <ele>15.7</ele>
        <time>2021-10-21T15:16:11Z</time>
      </trkpt>
      <trkpt lat="37.5364610" lon="-6.0510760">
        <ele>15.7</ele>
        <time>2021-10-21T15:16:11Z</time>
      </trkpt>
      <trkpt lat="37.5364150" lon="-6.0511750">
        <ele>15.7</ele>
        <time>2021-10-21T15:16:11Z</time>
      </trkpt>
      <trkpt lat="37.5363750" lon="-6.0512740">
        <ele>15.8</ele>
        <time>2021-10-21T15:16:11Z</time>
      </trkpt>
      <trkpt lat="37.5363280" lon="-6.0513850">
        <ele>15.9</ele>
        <time>2021-10-21T15:16:11Z</time>
      </trkpt>
      <trkpt lat="37.5362860" lon="-6.0515240">
        <ele>15.9</ele>
        <time>2021-10-21T15:16:11Z</time>
      </trkpt>
      <trkpt lat="37.5362920" lon="-6.0516090">
        <ele>15.9</ele>
        <time>2021-10-21T15:16:11Z</time>
      </trkpt>
      <trkpt lat="37.5363030" lon="-6.0516280">
        <ele>15.9</ele>
        <time>2021-10-21T15:16:11Z</time>
      </trkpt>
      <trkpt lat="37.5363490" lon="-6.0516930">
        <ele>16.0</ele>
        <time>2021-10-21T15:16:11Z</time>
      </trkpt>
      <trkpt lat="37.5364400" lon="-6.0518200">
        <ele>16.0</ele>
        <time>2021-10-21T15:16:11Z</time>
      </trkpt>
      <trkpt lat="37.5364900" lon="-6.0519080">
        <ele>16.1</ele>
        <time>2021-10-21T15:16:11Z</time>
      </trkpt>
      <trkpt lat="37.5365000" lon="-6.0519220">
        <ele>16.1</ele>
        <time>2021-10-21T15:16:11Z</time>
      </trkpt>
      <trkpt lat="37.5365260" lon="-6.0519520">
        <ele>16.1</ele>
        <time>2021-10-21T15:16:11Z</time>
      </trkpt>
      <trkpt lat="37.5365330" lon="-6.0519510">
        <ele>16.1</ele>
        <time>2021-10-21T15:16:11Z</time>
      </trkpt>
      <trkpt lat="37.5365590" lon="-6.0519730">
        <ele>16.1</ele>
        <time>2021-10-21T15:16:11Z</time>
      </trkpt>
      <trkpt lat="37.5366140" lon="-6.0520220">
        <ele>16.2</ele>
        <time>2021-10-21T15:16:11Z</time>
      </trkpt>
      <trkpt lat="37.5367450" lon="-6.0521980">
        <ele>16.4</ele>
        <time>2021-10-21T15:16:11Z</time>
      </trkpt>
      <trkpt lat="37.5369270" lon="-6.0525110">
        <ele>16.5</ele>
        <time>2021-10-21T15:16:11Z</time>
      </trkpt>
      <trkpt lat="37.5369910" lon="-6.0526680">
        <ele>16.4</ele>
        <time>2021-10-21T15:16:11Z</time>
      </trkpt>
      <trkpt lat="37.5370400" lon="-6.0528340">
        <ele>16.4</ele>
        <time>2021-10-21T15:16:11Z</time>
      </trkpt>
      <trkpt lat="37.5371390" lon="-6.0532230">
        <ele>16.5</ele>
        <time>2021-10-21T15:16:11Z</time>
      </trkpt>
      <trkpt lat="37.5371690" lon="-6.0533910">
        <ele>16.6</ele>
        <time>2021-10-21T15:16:11Z</time>
      </trkpt>
      <trkpt lat="37.5371730" lon="-6.0534040">
        <ele>16.6</ele>
        <time>2021-10-21T15:16:11Z</time>
      </trkpt>
      <trkpt lat="37.5371750" lon="-6.0534100">
        <ele>16.6</ele>
        <time>2021-10-21T15:16:11Z</time>
      </trkpt>
      <trkpt lat="37.5371690" lon="-6.0534650">
        <ele>16.7</ele>
        <time>2021-10-21T15:16:11Z</time>
      </trkpt>
      <trkpt lat="37.5371620" lon="-6.0534840">
        <ele>16.7</ele>
        <time>2021-10-21T15:16:11Z</time>
      </trkpt>
      <trkpt lat="37.5371520" lon="-6.0534960">
        <ele>16.7</ele>
        <time>2021-10-21T15:16:11Z</time>
      </trkpt>
      <trkpt lat="37.5371020" lon="-6.0535230">
        <ele>16.6</ele>
        <time>2021-10-21T15:16:11Z</time>
      </trkpt>
      <trkpt lat="37.5370530" lon="-6.0535300">
        <ele>16.6</ele>
        <time>2021-10-21T15:16:11Z</time>
      </trkpt>
      <trkpt lat="37.5369730" lon="-6.0535620">
        <ele>16.6</ele>
        <time>2021-10-21T15:16:11Z</time>
      </trkpt>
      <trkpt lat="37.5368330" lon="-6.0536770">
        <ele>16.6</ele>
        <time>2021-10-21T15:16:11Z</time>
      </trkpt>
      <trkpt lat="37.5366580" lon="-6.0537880">
        <ele>16.8</ele>
        <time>2021-10-21T15:16:11Z</time>
      </trkpt>
      <trkpt lat="37.5364960" lon="-6.0539020">
        <ele>16.9</ele>
        <time>2021-10-21T15:16:11Z</time>
      </trkpt>
      <trkpt lat="37.5364650" lon="-6.0539170">
        <ele>16.9</ele>
        <time>2021-10-21T15:16:11Z</time>
      </trkpt>
      <trkpt lat="37.5361830" lon="-6.0541120">
        <ele>17.0</ele>
        <time>2021-10-21T15:16:11Z</time>
      </trkpt>
      <trkpt lat="37.5360150" lon="-6.0542120">
        <ele>17.0</ele>
        <time>2021-10-21T15:16:11Z</time>
      </trkpt>
      <trkpt lat="37.5357040" lon="-6.0544050">
        <ele>16.9</ele>
        <time>2021-10-21T15:16:11Z</time>
      </trkpt>
      <trkpt lat="37.5356010" lon="-6.0544660">
        <ele>16.8</ele>
        <time>2021-10-21T15:16:11Z</time>
      </trkpt>
      <trkpt lat="37.5355000" lon="-6.0545280">
        <ele>16.7</ele>
        <time>2021-10-21T15:16:11Z</time>
      </trkpt>
      <trkpt lat="37.5354310" lon="-6.0545740">
        <ele>16.6</ele>
        <time>2021-10-21T15:16:11Z</time>
      </trkpt>
      <trkpt lat="37.5351960" lon="-6.0547190">
        <ele>16.5</ele>
        <time>2021-10-21T15:16:11Z</time>
      </trkpt>
      <trkpt lat="37.5350360" lon="-6.0548140">
        <ele>16.5</ele>
        <time>2021-10-21T15:16:11Z</time>
      </trkpt>
      <trkpt lat="37.5348610" lon="-6.0549390">
        <ele>16.5</ele>
        <time>2021-10-21T15:16:11Z</time>
      </trkpt>
      <trkpt lat="37.5347910" lon="-6.0549930">
        <ele>16.5</ele>
        <time>2021-10-21T15:16:11Z</time>
      </trkpt>
      <trkpt lat="37.5347560" lon="-6.0550130">
        <ele>16.5</ele>
        <time>2021-10-21T15:16:11Z</time>
      </trkpt>
      <trkpt lat="37.5347370" lon="-6.0550230">
        <ele>16.5</ele>
        <time>2021-10-21T15:16:11Z</time>
      </trkpt>
      <trkpt lat="37.5347170" lon="-6.0550400">
        <ele>16.5</ele>
        <time>2021-10-21T15:16:11Z</time>
      </trkpt>
      <trkpt lat="37.5347060" lon="-6.0550170">
        <ele>16.5</ele>
        <time>2021-10-21T15:16:11Z</time>
      </trkpt>
      <trkpt lat="37.5347080" lon="-6.0549540">
        <ele>16.5</ele>
        <time>2021-10-21T15:16:11Z</time>
      </trkpt>
      <trkpt lat="37.5347990" lon="-6.0548490">
        <ele>16.5</ele>
        <time>2021-10-21T15:16:11Z</time>
      </trkpt>
      <trkpt lat="37.5349650" lon="-6.0547480">
        <ele>16.5</ele>
        <time>2021-10-21T15:16:11Z</time>
      </trkpt>
      <trkpt lat="37.5351770" lon="-6.0546080">
        <ele>16.5</ele>
        <time>2021-10-21T15:16:11Z</time>
      </trkpt>
      <trkpt lat="37.5352460" lon="-6.0545700">
        <ele>16.6</ele>
        <time>2021-10-21T15:16:11Z</time>
      </trkpt>
      <trkpt lat="37.5352630" lon="-6.0545690">
        <ele>16.5</ele>
        <time>2021-10-21T15:16:11Z</time>
      </trkpt>
      <trkpt lat="37.5352720" lon="-6.0545220">
        <ele>16.5</ele>
        <time>2021-10-21T15:16:11Z</time>
      </trkpt>
      <trkpt lat="37.5352510" lon="-6.0545220">
        <ele>16.5</ele>
        <time>2021-10-21T15:16:11Z</time>
      </trkpt>
      <trkpt lat="37.5351410" lon="-6.0545110">
        <ele>16.5</ele>
        <time>2021-10-21T15:16:11Z</time>
      </trkpt>
      <trkpt lat="37.5349890" lon="-6.0545900">
        <ele>16.5</ele>
        <time>2021-10-21T15:16:11Z</time>
      </trkpt>
      <trkpt lat="37.5348970" lon="-6.0546850">
        <ele>16.5</ele>
        <time>2021-10-21T15:16:11Z</time>
      </trkpt>
      <trkpt lat="37.5348750" lon="-6.0547080">
        <ele>16.5</ele>
        <time>2021-10-21T15:16:11Z</time>
      </trkpt>
      <trkpt lat="37.5348430" lon="-6.0547460">
        <ele>16.5</ele>
        <time>2021-10-21T15:16:11Z</time>
      </trkpt>
      <trkpt lat="37.5347980" lon="-6.0547760">
        <ele>16.5</ele>
        <time>2021-10-21T15:16:11Z</time>
      </trkpt>
      <trkpt lat="37.5347840" lon="-6.0547730">
        <ele>16.5</ele>
        <time>2021-10-21T15:16:11Z</time>
      </trkpt>
      <trkpt lat="37.5347730" lon="-6.0547650">
        <ele>16.5</ele>
        <time>2021-10-21T15:16:11Z</time>
      </trkpt>
      <trkpt lat="37.5347680" lon="-6.0547410">
        <ele>16.5</ele>
        <time>2021-10-21T15:16:11Z</time>
      </trkpt>
      <trkpt lat="37.5347680" lon="-6.0547130">
        <ele>16.5</ele>
        <time>2021-10-21T15:16:11Z</time>
      </trkpt>
      <trkpt lat="37.5347740" lon="-6.0546770">
        <ele>16.5</ele>
        <time>2021-10-21T15:16:11Z</time>
      </trkpt>
      <trkpt lat="37.5348140" lon="-6.0546220">
        <ele>16.5</ele>
        <time>2021-10-21T15:16:11Z</time>
      </trkpt>
      <trkpt lat="37.5349770" lon="-6.0545010">
        <ele>16.5</ele>
        <time>2021-10-21T15:16:11Z</time>
      </trkpt>
      <trkpt lat="37.5351540" lon="-6.0544000">
        <ele>16.5</ele>
        <time>2021-10-21T15:16:11Z</time>
      </trkpt>
      <trkpt lat="37.5353420" lon="-6.0543140">
        <ele>16.6</ele>
        <time>2021-10-21T15:16:11Z</time>
      </trkpt>
      <trkpt lat="37.5353670" lon="-6.0542930">
        <ele>16.6</ele>
        <time>2021-10-21T15:16:11Z</time>
      </trkpt>
      <trkpt lat="37.5354230" lon="-6.0542350">
        <ele>16.7</ele>
        <time>2021-10-21T15:16:11Z</time>
      </trkpt>
      <trkpt lat="37.5354810" lon="-6.0541900">
        <ele>16.7</ele>
        <time>2021-10-21T15:16:11Z</time>
      </trkpt>
      <trkpt lat="37.5355270" lon="-6.0541480">
        <ele>16.8</ele>
        <time>2021-10-21T15:16:11Z</time>
      </trkpt>
      <trkpt lat="37.5355980" lon="-6.0539860">
        <ele>16.9</ele>
        <time>2021-10-21T15:16:11Z</time>
      </trkpt>
      <trkpt lat="37.5355740" lon="-6.0537960">
        <ele>17.2</ele>
        <time>2021-10-21T15:16:11Z</time>
      </trkpt>
      <trkpt lat="37.5355200" lon="-6.0535470">
        <ele>17.1</ele>
        <time>2021-10-21T15:16:11Z</time>
      </trkpt>
      <trkpt lat="37.5354730" lon="-6.0534490">
        <ele>17.0</ele>
        <time>2021-10-21T15:16:11Z</time>
      </trkpt>
      <trkpt lat="37.5353700" lon="-6.0532890">
        <ele>16.9</ele>
        <time>2021-10-21T15:16:11Z</time>
      </trkpt>
      <trkpt lat="37.5351760" lon="-6.0530310">
        <ele>16.5</ele>
        <time>2021-10-21T15:16:11Z</time>
      </trkpt>
      <trkpt lat="37.5350770" lon="-6.0529290">
        <ele>16.4</ele>
        <time>2021-10-21T15:16:11Z</time>
      </trkpt>
      <trkpt lat="37.5350110" lon="-6.0528670">
        <ele>16.3</ele>
        <time>2021-10-21T15:16:11Z</time>
      </trkpt>
      <trkpt lat="37.5349770" lon="-6.0528320">
        <ele>16.2</ele>
        <time>2021-10-21T15:16:11Z</time>
      </trkpt>
      <trkpt lat="37.5346860" lon="-6.0525480">
        <ele>15.8</ele>
        <time>2021-10-21T15:16:11Z</time>
      </trkpt>
      <trkpt lat="37.5345340" lon="-6.0524290">
        <ele>15.7</ele>
        <time>2021-10-21T15:16:11Z</time>
      </trkpt>
      <trkpt lat="37.5342520" lon="-6.0522450">
        <ele>15.5</ele>
        <time>2021-10-21T15:16:11Z</time>
      </trkpt>
      <trkpt lat="37.5338330" lon="-6.0520240">
        <ele>15.1</ele>
        <time>2021-10-21T15:16:11Z</time>
      </trkpt>
      <trkpt lat="37.5335710" lon="-6.0518900">
        <ele>15.0</ele>
        <time>2021-10-21T15:16:11Z</time>
      </trkpt>
      <trkpt lat="37.5334980" lon="-6.0518250">
        <ele>15.0</ele>
        <time>2021-10-21T15:16:11Z</time>
      </trkpt>
      <trkpt lat="37.5334180" lon="-6.0517470">
        <ele>14.9</ele>
        <time>2021-10-21T15:16:11Z</time>
      </trkpt>
      <trkpt lat="37.5332140" lon="-6.0516150">
        <ele>14.8</ele>
        <time>2021-10-21T15:16:11Z</time>
      </trkpt>
      <trkpt lat="37.5329170" lon="-6.0514440">
        <ele>14.5</ele>
        <time>2021-10-21T15:16:11Z</time>
      </trkpt>
      <trkpt lat="37.5327740" lon="-6.0513160">
        <ele>14.3</ele>
        <time>2021-10-21T15:16:11Z</time>
      </trkpt>
      <trkpt lat="37.5325400" lon="-6.0511710">
        <ele>14.1</ele>
        <time>2021-10-21T15:16:11Z</time>
      </trkpt>
      <trkpt lat="37.5324970" lon="-6.0511510">
        <ele>14.0</ele>
        <time>2021-10-21T15:16:11Z</time>
      </trkpt>
      <trkpt lat="37.5322340" lon="-6.0509540">
        <ele>13.9</ele>
        <time>2021-10-21T15:16:11Z</time>
      </trkpt>
      <trkpt lat="37.5319650" lon="-6.0506870">
        <ele>13.8</ele>
        <time>2021-10-21T15:16:11Z</time>
      </trkpt>
      <trkpt lat="37.5318990" lon="-6.0506180">
        <ele>13.8</ele>
        <time>2021-10-21T15:16:11Z</time>
      </trkpt>
      <trkpt lat="37.5318450" lon="-6.0505370">
        <ele>13.7</ele>
        <time>2021-10-21T15:16:11Z</time>
      </trkpt>
      <trkpt lat="37.5318200" lon="-6.0504400">
        <ele>13.7</ele>
        <time>2021-10-21T15:16:11Z</time>
      </trkpt>
      <trkpt lat="37.5318150" lon="-6.0503280">
        <ele>13.6</ele>
        <time>2021-10-21T15:16:11Z</time>
      </trkpt>
      <trkpt lat="37.5318290" lon="-6.0500970">
        <ele>13.5</ele>
        <time>2021-10-21T15:16:11Z</time>
      </trkpt>
      <trkpt lat="37.5317730" lon="-6.0498100">
        <ele>13.4</ele>
        <time>2021-10-21T15:16:11Z</time>
      </trkpt>
      <trkpt lat="37.5317520" lon="-6.0497560">
        <ele>13.4</ele>
        <time>2021-10-21T15:16:11Z</time>
      </trkpt>
      <trkpt lat="37.5316430" lon="-6.0495100">
        <ele>13.3</ele>
        <time>2021-10-21T15:16:11Z</time>
      </trkpt>
      <trkpt lat="37.5315540" lon="-6.0493800">
        <ele>13.2</ele>
        <time>2021-10-21T15:16:11Z</time>
      </trkpt>
      <trkpt lat="37.5315170" lon="-6.0493400">
        <ele>13.2</ele>
        <time>2021-10-21T15:16:11Z</time>
      </trkpt>
      <trkpt lat="37.5314330" lon="-6.0492830">
        <ele>13.2</ele>
        <time>2021-10-21T15:16:11Z</time>
      </trkpt>
      <trkpt lat="37.5313880" lon="-6.0492710">
        <ele>13.2</ele>
        <time>2021-10-21T15:16:11Z</time>
      </trkpt>
      <trkpt lat="37.5312400" lon="-6.0492210">
        <ele>13.2</ele>
        <time>2021-10-21T15:16:11Z</time>
      </trkpt>
      <trkpt lat="37.5311750" lon="-6.0491670">
        <ele>13.1</ele>
        <time>2021-10-21T15:16:11Z</time>
      </trkpt>
      <trkpt lat="37.5311140" lon="-6.0490990">
        <ele>13.1</ele>
        <time>2021-10-21T15:16:11Z</time>
      </trkpt>
      <trkpt lat="37.5310750" lon="-6.0490620">
        <ele>13.0</ele>
        <time>2021-10-21T15:16:11Z</time>
      </trkpt>
      <trkpt lat="37.5308100" lon="-6.0488100">
        <ele>12.8</ele>
        <time>2021-10-21T15:16:11Z</time>
      </trkpt>
      <trkpt lat="37.5307780" lon="-6.0487630">
        <ele>12.7</ele>
        <time>2021-10-21T15:16:11Z</time>
      </trkpt>
      <trkpt lat="37.5307330" lon="-6.0485890">
        <ele>12.6</ele>
        <time>2021-10-21T15:16:11Z</time>
      </trkpt>
      <trkpt lat="37.5307150" lon="-6.0484670">
        <ele>12.5</ele>
        <time>2021-10-21T15:16:11Z</time>
      </trkpt>
      <trkpt lat="37.5307020" lon="-6.0484060">
        <ele>12.5</ele>
        <time>2021-10-21T15:16:11Z</time>
      </trkpt>
      <trkpt lat="37.5306410" lon="-6.0482290">
        <ele>12.4</ele>
        <time>2021-10-21T15:16:11Z</time>
      </trkpt>
      <trkpt lat="37.5304650" lon="-6.0478720">
        <ele>12.2</ele>
        <time>2021-10-21T15:16:11Z</time>
      </trkpt>
      <trkpt lat="37.5304200" lon="-6.0477210">
        <ele>12.2</ele>
        <time>2021-10-21T15:16:11Z</time>
      </trkpt>
      <trkpt lat="37.5303810" lon="-6.0476260">
        <ele>12.2</ele>
        <time>2021-10-21T15:16:11Z</time>
      </trkpt>
      <trkpt lat="37.5303180" lon="-6.0475600">
        <ele>12.2</ele>
        <time>2021-10-21T15:16:11Z</time>
      </trkpt>
      <trkpt lat="37.5302770" lon="-6.0475390">
        <ele>12.2</ele>
        <time>2021-10-21T15:16:11Z</time>
      </trkpt>
      <trkpt lat="37.5301530" lon="-6.0474690">
        <ele>12.2</ele>
        <time>2021-10-21T15:16:11Z</time>
      </trkpt>
      <trkpt lat="37.5299830" lon="-6.0474160">
        <ele>12.2</ele>
        <time>2021-10-21T15:16:11Z</time>
      </trkpt>
      <trkpt lat="37.5299000" lon="-6.0474030">
        <ele>12.2</ele>
        <time>2021-10-21T15:16:11Z</time>
      </trkpt>
      <trkpt lat="37.5297280" lon="-6.0473560">
        <ele>12.2</ele>
        <time>2021-10-21T15:16:11Z</time>
      </trkpt>
      <trkpt lat="37.5296330" lon="-6.0473360">
        <ele>12.2</ele>
        <time>2021-10-21T15:16:11Z</time>
      </trkpt>
      <trkpt lat="37.5293560" lon="-6.0473130">
        <ele>12.2</ele>
        <time>2021-10-21T15:16:11Z</time>
      </trkpt>
      <trkpt lat="37.5289580" lon="-6.0473530">
        <ele>12.2</ele>
        <time>2021-10-21T15:16:11Z</time>
      </trkpt>
      <trkpt lat="37.5285080" lon="-6.0474460">
        <ele>12.2</ele>
        <time>2021-10-21T15:16:11Z</time>
      </trkpt>
      <trkpt lat="37.5282960" lon="-6.0474870">
        <ele>12.1</ele>
        <time>2021-10-21T15:16:11Z</time>
      </trkpt>
      <trkpt lat="37.5281220" lon="-6.0475160">
        <ele>12.1</ele>
        <time>2021-10-21T15:16:11Z</time>
      </trkpt>
      <trkpt lat="37.5279040" lon="-6.0475700">
        <ele>12.1</ele>
        <time>2021-10-21T15:16:11Z</time>
      </trkpt>
      <trkpt lat="37.5278210" lon="-6.0475830">
        <ele>12.0</ele>
        <time>2021-10-21T15:16:11Z</time>
      </trkpt>
      <trkpt lat="37.5274980" lon="-6.0476500">
        <ele>11.9</ele>
        <time>2021-10-21T15:16:11Z</time>
      </trkpt>
      <trkpt lat="37.5274560" lon="-6.0476630">
        <ele>11.9</ele>
        <time>2021-10-21T15:16:11Z</time>
      </trkpt>
      <trkpt lat="37.5273370" lon="-6.0477050">
        <ele>11.8</ele>
        <time>2021-10-21T15:16:11Z</time>
      </trkpt>
      <trkpt lat="37.5271760" lon="-6.0477200">
        <ele>11.8</ele>
        <time>2021-10-21T15:16:11Z</time>
      </trkpt>
      <trkpt lat="37.5270820" lon="-6.0477350">
        <ele>11.7</ele>
        <time>2021-10-21T15:16:11Z</time>
      </trkpt>
      <trkpt lat="37.5268200" lon="-6.0477960">
        <ele>11.7</ele>
        <time>2021-10-21T15:16:11Z</time>
      </trkpt>
      <trkpt lat="37.5263610" lon="-6.0479150">
        <ele>11.5</ele>
        <time>2021-10-21T15:16:11Z</time>
      </trkpt>
      <trkpt lat="37.5257890" lon="-6.0480490">
        <ele>11.5</ele>
        <time>2021-10-21T15:16:11Z</time>
      </trkpt>
      <trkpt lat="37.5252990" lon="-6.0481340">
        <ele>11.4</ele>
        <time>2021-10-21T15:16:11Z</time>
      </trkpt>
      <trkpt lat="37.5248730" lon="-6.0481990">
        <ele>11.3</ele>
        <time>2021-10-21T15:16:11Z</time>
      </trkpt>
      <trkpt lat="37.5248380" lon="-6.0482120">
        <ele>11.3</ele>
        <time>2021-10-21T15:16:11Z</time>
      </trkpt>
      <trkpt lat="37.5244470" lon="-6.0482770">
        <ele>11.2</ele>
        <time>2021-10-21T15:16:11Z</time>
      </trkpt>
      <trkpt lat="37.5240210" lon="-6.0483610">
        <ele>11.1</ele>
        <time>2021-10-21T15:16:11Z</time>
      </trkpt>
      <trkpt lat="37.5235180" lon="-6.0484300">
        <ele>11.2</ele>
        <time>2021-10-21T15:16:11Z</time>
      </trkpt>
      <trkpt lat="37.5233910" lon="-6.0484510">
        <ele>11.3</ele>
        <time>2021-10-21T15:16:11Z</time>
      </trkpt>
      <trkpt lat="37.5233200" lon="-6.0484940">
        <ele>11.4</ele>
        <time>2021-10-21T15:16:11Z</time>
      </trkpt>
      <trkpt lat="37.5232220" lon="-6.0485330">
        <ele>11.5</ele>
        <time>2021-10-21T15:16:11Z</time>
      </trkpt>
      <trkpt lat="37.5230740" lon="-6.0485140">
        <ele>11.8</ele>
        <time>2021-10-21T15:16:11Z</time>
      </trkpt>
      <trkpt lat="37.5230600" lon="-6.0485080">
        <ele>11.8</ele>
        <time>2021-10-21T15:16:11Z</time>
      </trkpt>
      <trkpt lat="37.5230220" lon="-6.0484760">
        <ele>11.9</ele>
        <time>2021-10-21T15:16:11Z</time>
      </trkpt>
      <trkpt lat="37.5230050" lon="-6.0484970">
        <ele>11.9</ele>
        <time>2021-10-21T15:16:11Z</time>
      </trkpt>
      <trkpt lat="37.5230130" lon="-6.0485080">
        <ele>11.9</ele>
        <time>2021-10-21T15:16:11Z</time>
      </trkpt>
      <trkpt lat="37.5231280" lon="-6.0485060">
        <ele>11.9</ele>
        <time>2021-10-21T15:16:11Z</time>
      </trkpt>
      <trkpt lat="37.5232330" lon="-6.0486050">
        <ele>11.7</ele>
        <time>2021-10-21T15:16:11Z</time>
      </trkpt>
      <trkpt lat="37.5232990" lon="-6.0488120">
        <ele>11.5</ele>
        <time>2021-10-21T15:16:11Z</time>
      </trkpt>
      <trkpt lat="37.5233130" lon="-6.0490740">
        <ele>11.5</ele>
        <time>2021-10-21T15:16:11Z</time>
      </trkpt>
      <trkpt lat="37.5233160" lon="-6.0493860">
        <ele>11.6</ele>
        <time>2021-10-21T15:16:11Z</time>
      </trkpt>
      <trkpt lat="37.5233160" lon="-6.0499440">
        <ele>11.8</ele>
        <time>2021-10-21T15:16:11Z</time>
      </trkpt>
      <trkpt lat="37.5233000" lon="-6.0503060">
        <ele>11.9</ele>
        <time>2021-10-21T15:16:11Z</time>
      </trkpt>
      <trkpt lat="37.5232980" lon="-6.0503520">
        <ele>11.9</ele>
        <time>2021-10-21T15:16:11Z</time>
      </trkpt>
      <trkpt lat="37.5232790" lon="-6.0507710">
        <ele>12.0</ele>
        <time>2021-10-21T15:16:11Z</time>
      </trkpt>
      <trkpt lat="37.5232670" lon="-6.0512120">
        <ele>12.2</ele>
        <time>2021-10-21T15:16:11Z</time>
      </trkpt>
      <trkpt lat="37.5232600" lon="-6.0515980">
        <ele>12.2</ele>
        <time>2021-10-21T15:16:11Z</time>
      </trkpt>
      <trkpt lat="37.5232590" lon="-6.0520560">
        <ele>12.3</ele>
        <time>2021-10-21T15:16:11Z</time>
      </trkpt>
      <trkpt lat="37.5232460" lon="-6.0525840">
        <ele>12.5</ele>
        <time>2021-10-21T15:16:11Z</time>
      </trkpt>
      <trkpt lat="37.5232410" lon="-6.0527680">
        <ele>12.5</ele>
        <time>2021-10-21T15:16:11Z</time>
      </trkpt>
      <trkpt lat="37.5232390" lon="-6.0529070">
        <ele>12.6</ele>
        <time>2021-10-21T15:16:11Z</time>
      </trkpt>
      <trkpt lat="37.5232360" lon="-6.0531010">
        <ele>12.6</ele>
        <time>2021-10-21T15:16:11Z</time>
      </trkpt>
      <trkpt lat="37.5232290" lon="-6.0535440">
        <ele>12.7</ele>
        <time>2021-10-21T15:16:11Z</time>
      </trkpt>
      <trkpt lat="37.5232340" lon="-6.0539750">
        <ele>12.9</ele>
        <time>2021-10-21T15:16:11Z</time>
      </trkpt>
      <trkpt lat="37.5232310" lon="-6.0543340">
        <ele>13.2</ele>
        <time>2021-10-21T15:16:11Z</time>
      </trkpt>
      <trkpt lat="37.5232050" lon="-6.0543980">
        <ele>13.3</ele>
        <time>2021-10-21T15:16:11Z</time>
      </trkpt>
      <trkpt lat="37.5231810" lon="-6.0544150">
        <ele>13.3</ele>
        <time>2021-10-21T15:16:11Z</time>
      </trkpt>
      <trkpt lat="37.5230040" lon="-6.0543960">
        <ele>13.2</ele>
        <time>2021-10-21T15:16:11Z</time>
      </trkpt>
      <trkpt lat="37.5227080" lon="-6.0543420">
        <ele>12.9</ele>
        <time>2021-10-21T15:16:11Z</time>
      </trkpt>
      <trkpt lat="37.5223460" lon="-6.0542700">
        <ele>13.1</ele>
        <time>2021-10-21T15:16:11Z</time>
      </trkpt>
      <trkpt lat="37.5222170" lon="-6.0542450">
        <ele>13.1</ele>
        <time>2021-10-21T15:16:11Z</time>
      </trkpt>
      <trkpt lat="37.5220910" lon="-6.0542150">
        <ele>13.1</ele>
        <time>2021-10-21T15:16:11Z</time>
      </trkpt>
      <trkpt lat="37.5219660" lon="-6.0541990">
        <ele>13.1</ele>
        <time>2021-10-21T15:16:11Z</time>
      </trkpt>
      <trkpt lat="37.5218020" lon="-6.0541500">
        <ele>13.2</ele>
        <time>2021-10-21T15:16:11Z</time>
      </trkpt>
      <trkpt lat="37.5217190" lon="-6.0541160">
        <ele>13.3</ele>
        <time>2021-10-21T15:16:11Z</time>
      </trkpt>
      <trkpt lat="37.5216350" lon="-6.0540980">
        <ele>13.3</ele>
        <time>2021-10-21T15:16:11Z</time>
      </trkpt>
      <trkpt lat="37.5215520" lon="-6.0540910">
        <ele>13.4</ele>
        <time>2021-10-21T15:16:11Z</time>
      </trkpt>
      <trkpt lat="37.5214630" lon="-6.0540830">
        <ele>13.4</ele>
        <time>2021-10-21T15:16:11Z</time>
      </trkpt>
      <trkpt lat="37.5211820" lon="-6.0540390">
        <ele>13.5</ele>
        <time>2021-10-21T15:16:11Z</time>
      </trkpt>
      <trkpt lat="37.5207330" lon="-6.0539550">
        <ele>13.7</ele>
        <time>2021-10-21T15:16:11Z</time>
      </trkpt>
      <trkpt lat="37.5203570" lon="-6.0538740">
        <ele>13.7</ele>
        <time>2021-10-21T15:16:11Z</time>
      </trkpt>
      <trkpt lat="37.5199240" lon="-6.0538040">
        <ele>13.9</ele>
        <time>2021-10-21T15:16:11Z</time>
      </trkpt>
      <trkpt lat="37.5195720" lon="-6.0537330">
        <ele>13.9</ele>
        <time>2021-10-21T15:16:11Z</time>
      </trkpt>
      <trkpt lat="37.5191880" lon="-6.0536650">
        <ele>13.9</ele>
        <time>2021-10-21T15:16:11Z</time>
      </trkpt>
      <trkpt lat="37.5187130" lon="-6.0535700">
        <ele>14.0</ele>
        <time>2021-10-21T15:16:11Z</time>
      </trkpt>
      <trkpt lat="37.5186250" lon="-6.0535520">
        <ele>14.0</ele>
        <time>2021-10-21T15:16:11Z</time>
      </trkpt>
      <trkpt lat="37.5182510" lon="-6.0534830">
        <ele>14.2</ele>
        <time>2021-10-21T15:16:11Z</time>
      </trkpt>
      <trkpt lat="37.5178420" lon="-6.0534120">
        <ele>14.3</ele>
        <time>2021-10-21T15:16:11Z</time>
      </trkpt>
      <trkpt lat="37.5175010" lon="-6.0533490">
        <ele>14.5</ele>
        <time>2021-10-21T15:16:11Z</time>
      </trkpt>
      <trkpt lat="37.5174380" lon="-6.0533350">
        <ele>14.6</ele>
        <time>2021-10-21T15:16:11Z</time>
      </trkpt>
      <trkpt lat="37.5170850" lon="-6.0532580">
        <ele>14.8</ele>
        <time>2021-10-21T15:16:11Z</time>
      </trkpt>
      <trkpt lat="37.5167820" lon="-6.0532040">
        <ele>14.9</ele>
        <time>2021-10-21T15:16:11Z</time>
      </trkpt>
      <trkpt lat="37.5166660" lon="-6.0531840">
        <ele>15.0</ele>
        <time>2021-10-21T15:16:11Z</time>
      </trkpt>
      <trkpt lat="37.5162720" lon="-6.0531030">
        <ele>14.9</ele>
        <time>2021-10-21T15:16:11Z</time>
      </trkpt>
      <trkpt lat="37.5160790" lon="-6.0530210">
        <ele>14.9</ele>
        <time>2021-10-21T15:16:11Z</time>
      </trkpt>
      <trkpt lat="37.5158300" lon="-6.0529680">
        <ele>14.8</ele>
        <time>2021-10-21T15:16:11Z</time>
      </trkpt>
      <trkpt lat="37.5154750" lon="-6.0529080">
        <ele>14.6</ele>
        <time>2021-10-21T15:16:11Z</time>
      </trkpt>
      <trkpt lat="37.5150660" lon="-6.0528390">
        <ele>14.5</ele>
        <time>2021-10-21T15:16:11Z</time>
      </trkpt>
      <trkpt lat="37.5149320" lon="-6.0528180">
        <ele>14.4</ele>
        <time>2021-10-21T15:16:11Z</time>
      </trkpt>
      <trkpt lat="37.5147060" lon="-6.0527760">
        <ele>14.3</ele>
        <time>2021-10-21T15:16:11Z</time>
      </trkpt>
      <trkpt lat="37.5142910" lon="-6.0526940">
        <ele>14.1</ele>
        <time>2021-10-21T15:16:11Z</time>
      </trkpt>
      <trkpt lat="37.5141950" lon="-6.0526850">
        <ele>14.1</ele>
        <time>2021-10-21T15:16:11Z</time>
      </trkpt>
      <trkpt lat="37.5140500" lon="-6.0526600">
        <ele>14.0</ele>
        <time>2021-10-21T15:16:11Z</time>
      </trkpt>
      <trkpt lat="37.5139540" lon="-6.0526400">
        <ele>14.0</ele>
        <time>2021-10-21T15:16:11Z</time>
      </trkpt>
      <trkpt lat="37.5137630" lon="-6.0525850">
        <ele>13.9</ele>
        <time>2021-10-21T15:16:11Z</time>
      </trkpt>
      <trkpt lat="37.5137160" lon="-6.0525770">
        <ele>13.9</ele>
        <time>2021-10-21T15:16:11Z</time>
      </trkpt>
      <trkpt lat="37.5133850" lon="-6.0525150">
        <ele>13.8</ele>
        <time>2021-10-21T15:16:11Z</time>
      </trkpt>
      <trkpt lat="37.5129070" lon="-6.0524270">
        <ele>13.7</ele>
        <time>2021-10-21T15:16:11Z</time>
      </trkpt>
      <trkpt lat="37.5125770" lon="-6.0523820">
        <ele>13.8</ele>
        <time>2021-10-21T15:16:11Z</time>
      </trkpt>
      <trkpt lat="37.5122010" lon="-6.0523030">
        <ele>13.7</ele>
        <time>2021-10-21T15:16:11Z</time>
      </trkpt>
      <trkpt lat="37.5117250" lon="-6.0522230">
        <ele>13.9</ele>
        <time>2021-10-21T15:16:11Z</time>
      </trkpt>
      <trkpt lat="37.5112470" lon="-6.0521300">
        <ele>14.3</ele>
        <time>2021-10-21T15:16:11Z</time>
      </trkpt>
      <trkpt lat="37.5107170" lon="-6.0520240">
        <ele>14.6</ele>
        <time>2021-10-21T15:16:11Z</time>
      </trkpt>
      <trkpt lat="37.5103740" lon="-6.0519610">
        <ele>14.8</ele>
        <time>2021-10-21T15:16:11Z</time>
      </trkpt>
      <trkpt lat="37.5101250" lon="-6.0519160">
        <ele>14.9</ele>
        <time>2021-10-21T15:16:11Z</time>
      </trkpt>
      <trkpt lat="37.5100760" lon="-6.0519070">
        <ele>14.9</ele>
        <time>2021-10-21T15:16:11Z</time>
      </trkpt>
      <trkpt lat="37.5099250" lon="-6.0518800">
        <ele>15.1</ele>
        <time>2021-10-21T15:16:11Z</time>
      </trkpt>
      <trkpt lat="37.5095830" lon="-6.0518110">
        <ele>15.3</ele>
        <time>2021-10-21T15:16:11Z</time>
      </trkpt>
      <trkpt lat="37.5094810" lon="-6.0517960">
        <ele>15.4</ele>
        <time>2021-10-21T15:16:11Z</time>
      </trkpt>
      <trkpt lat="37.5094290" lon="-6.0517880">
        <ele>15.4</ele>
        <time>2021-10-21T15:16:11Z</time>
      </trkpt>
      <trkpt lat="37.5093310" lon="-6.0517760">
        <ele>15.5</ele>
        <time>2021-10-21T15:16:11Z</time>
      </trkpt>
      <trkpt lat="37.5092270" lon="-6.0517650">
        <ele>15.5</ele>
        <time>2021-10-21T15:16:11Z</time>
      </trkpt>
      <trkpt lat="37.5090830" lon="-6.0517270">
        <ele>15.6</ele>
        <time>2021-10-21T15:16:11Z</time>
      </trkpt>
      <trkpt lat="37.5089420" lon="-6.0517120">
        <ele>15.7</ele>
        <time>2021-10-21T15:16:11Z</time>
      </trkpt>
      <trkpt lat="37.5086800" lon="-6.0516580">
        <ele>16.2</ele>
        <time>2021-10-21T15:16:11Z</time>
      </trkpt>
      <trkpt lat="37.5084830" lon="-6.0516260">
        <ele>16.8</ele>
        <time>2021-10-21T15:16:11Z</time>
      </trkpt>
      <trkpt lat="37.5084090" lon="-6.0516120">
        <ele>17.0</ele>
        <time>2021-10-21T15:16:11Z</time>
      </trkpt>
      <trkpt lat="37.5082050" lon="-6.0515720">
        <ele>17.9</ele>
        <time>2021-10-21T15:16:11Z</time>
      </trkpt>
      <trkpt lat="37.5081460" lon="-6.0515560">
        <ele>18.2</ele>
        <time>2021-10-21T15:16:11Z</time>
      </trkpt>
      <trkpt lat="37.5079910" lon="-6.0515320">
        <ele>19.0</ele>
        <time>2021-10-21T15:16:11Z</time>
      </trkpt>
      <trkpt lat="37.5079110" lon="-6.0515190">
        <ele>19.5</ele>
        <time>2021-10-21T15:16:11Z</time>
      </trkpt>
      <trkpt lat="37.5077460" lon="-6.0514820">
        <ele>20.6</ele>
        <time>2021-10-21T15:16:11Z</time>
      </trkpt>
      <trkpt lat="37.5077250" lon="-6.0514750">
        <ele>20.8</ele>
        <time>2021-10-21T15:16:11Z</time>
      </trkpt>
      <trkpt lat="37.5076160" lon="-6.0514490">
        <ele>21.7</ele>
        <time>2021-10-21T15:16:11Z</time>
      </trkpt>
      <trkpt lat="37.5075580" lon="-6.0514420">
        <ele>22.1</ele>
        <time>2021-10-21T15:16:11Z</time>
      </trkpt>
      <trkpt lat="37.5074630" lon="-6.0514090">
        <ele>22.9</ele>
        <time>2021-10-21T15:16:11Z</time>
      </trkpt>
      <trkpt lat="37.5074080" lon="-6.0513980">
        <ele>23.4</ele>
        <time>2021-10-21T15:16:11Z</time>
      </trkpt>
      <trkpt lat="37.5072930" lon="-6.0513840">
        <ele>24.3</ele>
        <time>2021-10-21T15:16:11Z</time>
      </trkpt>
      <trkpt lat="37.5072610" lon="-6.0513910">
        <ele>24.5</ele>
        <time>2021-10-21T15:16:11Z</time>
      </trkpt>
      <trkpt lat="37.5071740" lon="-6.0513750">
        <ele>25.2</ele>
        <time>2021-10-21T15:16:11Z</time>
      </trkpt>
      <trkpt lat="37.5071560" lon="-6.0513720">
        <ele>25.4</ele>
        <time>2021-10-21T15:16:11Z</time>
      </trkpt>
      <trkpt lat="37.5070350" lon="-6.0513480">
        <ele>26.3</ele>
        <time>2021-10-21T15:16:11Z</time>
      </trkpt>
      <trkpt lat="37.5069830" lon="-6.0513360">
        <ele>26.7</ele>
        <time>2021-10-21T15:16:11Z</time>
      </trkpt>
      <trkpt lat="37.5069520" lon="-6.0513310">
        <ele>27.0</ele>
        <time>2021-10-21T15:16:11Z</time>
      </trkpt>
      <trkpt lat="37.5069190" lon="-6.0513250">
        <ele>27.2</ele>
        <time>2021-10-21T15:16:11Z</time>
      </trkpt>
      <trkpt lat="37.5068350" lon="-6.0513100">
        <ele>27.8</ele>
        <time>2021-10-21T15:16:11Z</time>
      </trkpt>
      <trkpt lat="37.5067310" lon="-6.0512920">
        <ele>28.5</ele>
        <time>2021-10-21T15:16:11Z</time>
      </trkpt>
      <trkpt lat="37.5066600" lon="-6.0512780">
        <ele>29.0</ele>
        <time>2021-10-21T15:16:11Z</time>
      </trkpt>
      <trkpt lat="37.5065670" lon="-6.0512500">
        <ele>29.5</ele>
        <time>2021-10-21T15:16:11Z</time>
      </trkpt>
      <trkpt lat="37.5065140" lon="-6.0512430">
        <ele>29.7</ele>
        <time>2021-10-21T15:16:11Z</time>
      </trkpt>
      <trkpt lat="37.5064960" lon="-6.0512380">
        <ele>29.8</ele>
        <time>2021-10-21T15:16:11Z</time>
      </trkpt>
      <trkpt lat="37.5063530" lon="-6.0512120">
        <ele>30.4</ele>
        <time>2021-10-21T15:16:11Z</time>
      </trkpt>
      <trkpt lat="37.5063390" lon="-6.0512180">
        <ele>30.4</ele>
        <time>2021-10-21T15:16:11Z</time>
      </trkpt>
      <trkpt lat="37.5063250" lon="-6.0512280">
        <ele>30.4</ele>
        <time>2021-10-21T15:16:11Z</time>
      </trkpt>
      <trkpt lat="37.5062480" lon="-6.0512390">
        <ele>30.6</ele>
        <time>2021-10-21T15:16:11Z</time>
      </trkpt>
      <trkpt lat="37.5062400" lon="-6.0512330">
        <ele>30.6</ele>
        <time>2021-10-21T15:16:11Z</time>
      </trkpt>
      <trkpt lat="37.5062100" lon="-6.0512170">
        <ele>30.6</ele>
        <time>2021-10-21T15:16:11Z</time>
      </trkpt>
      <trkpt lat="37.5062090" lon="-6.0512150">
        <ele>30.6</ele>
        <time>2021-10-21T15:16:11Z</time>
      </trkpt>
      <trkpt lat="37.5061640" lon="-6.0512110">
        <ele>30.6</ele>
        <time>2021-10-21T15:16:11Z</time>
      </trkpt>
      <trkpt lat="37.5061110" lon="-6.0512010">
        <ele>30.6</ele>
        <time>2021-10-21T15:16:11Z</time>
      </trkpt>
      <trkpt lat="37.5059160" lon="-6.0511660">
        <ele>30.3</ele>
        <time>2021-10-21T15:16:11Z</time>
      </trkpt>
      <trkpt lat="37.5057780" lon="-6.0511350">
        <ele>30.1</ele>
        <time>2021-10-21T15:16:11Z</time>
      </trkpt>
      <trkpt lat="37.5056300" lon="-6.0510920">
        <ele>29.8</ele>
        <time>2021-10-21T15:16:11Z</time>
      </trkpt>
      <trkpt lat="37.5055110" lon="-6.0510680">
        <ele>29.6</ele>
        <time>2021-10-21T15:16:11Z</time>
      </trkpt>
      <trkpt lat="37.5053590" lon="-6.0510340">
        <ele>29.3</ele>
        <time>2021-10-21T15:16:11Z</time>
      </trkpt>
      <trkpt lat="37.5050700" lon="-6.0509760">
        <ele>28.1</ele>
        <time>2021-10-21T15:16:11Z</time>
      </trkpt>
      <trkpt lat="37.5047330" lon="-6.0509130">
        <ele>25.7</ele>
        <time>2021-10-21T15:16:11Z</time>
      </trkpt>
      <trkpt lat="37.5044410" lon="-6.0508560">
        <ele>22.9</ele>
        <time>2021-10-21T15:16:11Z</time>
      </trkpt>
      <trkpt lat="37.5043580" lon="-6.0508400">
        <ele>22.1</ele>
        <time>2021-10-21T15:16:11Z</time>
      </trkpt>
      <trkpt lat="37.5041890" lon="-6.0508050">
        <ele>20.8</ele>
        <time>2021-10-21T15:16:11Z</time>
      </trkpt>
      <trkpt lat="37.5040190" lon="-6.0507650">
        <ele>19.9</ele>
        <time>2021-10-21T15:16:11Z</time>
      </trkpt>
      <trkpt lat="37.5038550" lon="-6.0507310">
        <ele>19.4</ele>
        <time>2021-10-21T15:16:11Z</time>
      </trkpt>
      <trkpt lat="37.5037750" lon="-6.0507130">
        <ele>19.4</ele>
        <time>2021-10-21T15:16:11Z</time>
      </trkpt>
      <trkpt lat="37.5036980" lon="-6.0506930">
        <ele>19.4</ele>
        <time>2021-10-21T15:16:11Z</time>
      </trkpt>
      <trkpt lat="37.5035530" lon="-6.0506570">
        <ele>19.6</ele>
        <time>2021-10-21T15:16:11Z</time>
      </trkpt>
      <trkpt lat="37.5033680" lon="-6.0506260">
        <ele>20.3</ele>
        <time>2021-10-21T15:16:11Z</time>
      </trkpt>
      <trkpt lat="37.5031310" lon="-6.0505710">
        <ele>21.4</ele>
        <time>2021-10-21T15:16:11Z</time>
      </trkpt>
      <trkpt lat="37.5029510" lon="-6.0505160">
        <ele>23.0</ele>
        <time>2021-10-21T15:16:11Z</time>
      </trkpt>
      <trkpt lat="37.5028060" lon="-6.0504760">
        <ele>24.4</ele>
        <time>2021-10-21T15:16:11Z</time>
      </trkpt>
      <trkpt lat="37.5027870" lon="-6.0504760">
        <ele>24.6</ele>
        <time>2021-10-21T15:16:11Z</time>
      </trkpt>
      <trkpt lat="37.5027070" lon="-6.0504650">
        <ele>25.5</ele>
        <time>2021-10-21T15:16:11Z</time>
      </trkpt>
      <trkpt lat="37.5026890" lon="-6.0504620">
        <ele>25.7</ele>
        <time>2021-10-21T15:16:11Z</time>
      </trkpt>
      <trkpt lat="37.5026720" lon="-6.0504600">
        <ele>25.8</ele>
        <time>2021-10-21T15:16:11Z</time>
      </trkpt>
      <trkpt lat="37.5026090" lon="-6.0504580">
        <ele>26.5</ele>
        <time>2021-10-21T15:16:11Z</time>
      </trkpt>
      <trkpt lat="37.5025440" lon="-6.0504530">
        <ele>27.1</ele>
        <time>2021-10-21T15:16:11Z</time>
      </trkpt>
      <trkpt lat="37.5025270" lon="-6.0504550">
        <ele>27.2</ele>
        <time>2021-10-21T15:16:11Z</time>
      </trkpt>
      <trkpt lat="37.5024550" lon="-6.0504500">
        <ele>27.8</ele>
        <time>2021-10-21T15:16:11Z</time>
      </trkpt>
      <trkpt lat="37.5024120" lon="-6.0504490">
        <ele>28.0</ele>
        <time>2021-10-21T15:16:11Z</time>
      </trkpt>
      <trkpt lat="37.5023240" lon="-6.0504520">
        <ele>28.5</ele>
        <time>2021-10-21T15:16:11Z</time>
      </trkpt>
      <trkpt lat="37.5022360" lon="-6.0504320">
        <ele>28.9</ele>
        <time>2021-10-21T15:16:11Z</time>
      </trkpt>
      <trkpt lat="37.5021670" lon="-6.0504190">
        <ele>29.1</ele>
        <time>2021-10-21T15:16:11Z</time>
      </trkpt>
      <trkpt lat="37.5021080" lon="-6.0504060">
        <ele>29.3</ele>
        <time>2021-10-21T15:16:11Z</time>
      </trkpt>
      <trkpt lat="37.5019920" lon="-6.0503870">
        <ele>29.5</ele>
        <time>2021-10-21T15:16:11Z</time>
      </trkpt>
      <trkpt lat="37.5019240" lon="-6.0503800">
        <ele>29.6</ele>
        <time>2021-10-21T15:16:11Z</time>
      </trkpt>
      <trkpt lat="37.5017110" lon="-6.0503390">
        <ele>29.5</ele>
        <time>2021-10-21T15:16:11Z</time>
      </trkpt>
      <trkpt lat="37.5016310" lon="-6.0503240">
        <ele>29.4</ele>
        <time>2021-10-21T15:16:11Z</time>
      </trkpt>
      <trkpt lat="37.5015700" lon="-6.0503110">
        <ele>29.4</ele>
        <time>2021-10-21T15:16:11Z</time>
      </trkpt>
      <trkpt lat="37.5015120" lon="-6.0502970">
        <ele>29.3</ele>
        <time>2021-10-21T15:16:11Z</time>
      </trkpt>
      <trkpt lat="37.5014040" lon="-6.0502760">
        <ele>29.1</ele>
        <time>2021-10-21T15:16:11Z</time>
      </trkpt>
      <trkpt lat="37.5013250" lon="-6.0502690">
        <ele>28.9</ele>
        <time>2021-10-21T15:16:11Z</time>
      </trkpt>
      <trkpt lat="37.5011880" lon="-6.0502550">
        <ele>28.7</ele>
        <time>2021-10-21T15:16:11Z</time>
      </trkpt>
      <trkpt lat="37.5010680" lon="-6.0502580">
        <ele>28.6</ele>
        <time>2021-10-21T15:16:11Z</time>
      </trkpt>
      <trkpt lat="37.5007610" lon="-6.0502080">
        <ele>28.2</ele>
        <time>2021-10-21T15:16:11Z</time>
      </trkpt>
      <trkpt lat="37.5004710" lon="-6.0501360">
        <ele>27.9</ele>
        <time>2021-10-21T15:16:11Z</time>
      </trkpt>
      <trkpt lat="37.5001430" lon="-6.0500610">
        <ele>27.1</ele>
        <time>2021-10-21T15:16:11Z</time>
      </trkpt>
      <trkpt lat="37.4999200" lon="-6.0500190">
        <ele>26.3</ele>
        <time>2021-10-21T15:16:11Z</time>
      </trkpt>
      <trkpt lat="37.4998090" lon="-6.0499960">
        <ele>25.8</ele>
        <time>2021-10-21T15:16:11Z</time>
      </trkpt>
      <trkpt lat="37.4997660" lon="-6.0499840">
        <ele>25.6</ele>
        <time>2021-10-21T15:16:11Z</time>
      </trkpt>
      <trkpt lat="37.4996030" lon="-6.0499530">
        <ele>24.9</ele>
        <time>2021-10-21T15:16:11Z</time>
      </trkpt>
      <trkpt lat="37.4994770" lon="-6.0499340">
        <ele>24.4</ele>
        <time>2021-10-21T15:16:11Z</time>
      </trkpt>
      <trkpt lat="37.4993120" lon="-6.0499020">
        <ele>23.7</ele>
        <time>2021-10-21T15:16:11Z</time>
      </trkpt>
      <trkpt lat="37.4990050" lon="-6.0498480">
        <ele>22.6</ele>
        <time>2021-10-21T15:16:11Z</time>
      </trkpt>
      <trkpt lat="37.4989570" lon="-6.0498390">
        <ele>22.4</ele>
        <time>2021-10-21T15:16:11Z</time>
      </trkpt>
      <trkpt lat="37.4986520" lon="-6.0497770">
        <ele>21.0</ele>
        <time>2021-10-21T15:16:11Z</time>
      </trkpt>
      <trkpt lat="37.4983990" lon="-6.0497240">
        <ele>19.8</ele>
        <time>2021-10-21T15:16:11Z</time>
      </trkpt>
      <trkpt lat="37.4981320" lon="-6.0496720">
        <ele>18.8</ele>
        <time>2021-10-21T15:16:11Z</time>
      </trkpt>
      <trkpt lat="37.4977310" lon="-6.0495920">
        <ele>17.7</ele>
        <time>2021-10-21T15:16:11Z</time>
      </trkpt>
      <trkpt lat="37.4975910" lon="-6.0495620">
        <ele>17.4</ele>
        <time>2021-10-21T15:16:11Z</time>
      </trkpt>
      <trkpt lat="37.4974900" lon="-6.0495380">
        <ele>17.2</ele>
        <time>2021-10-21T15:16:11Z</time>
      </trkpt>
      <trkpt lat="37.4974040" lon="-6.0495230">
        <ele>17.1</ele>
        <time>2021-10-21T15:16:11Z</time>
      </trkpt>
      <trkpt lat="37.4973240" lon="-6.0495130">
        <ele>17.1</ele>
        <time>2021-10-21T15:16:11Z</time>
      </trkpt>
      <trkpt lat="37.4972870" lon="-6.0494910">
        <ele>17.1</ele>
        <time>2021-10-21T15:16:11Z</time>
      </trkpt>
      <trkpt lat="37.4972560" lon="-6.0494800">
        <ele>17.1</ele>
        <time>2021-10-21T15:16:11Z</time>
      </trkpt>
      <trkpt lat="37.4970850" lon="-6.0494480">
        <ele>17.2</ele>
        <time>2021-10-21T15:16:11Z</time>
      </trkpt>
      <trkpt lat="37.4968540" lon="-6.0494200">
        <ele>17.2</ele>
        <time>2021-10-21T15:16:11Z</time>
      </trkpt>
      <trkpt lat="37.4965050" lon="-6.0493660">
        <ele>16.6</ele>
        <time>2021-10-21T15:16:11Z</time>
      </trkpt>
      <trkpt lat="37.4962250" lon="-6.0493040">
        <ele>15.3</ele>
        <time>2021-10-21T15:16:11Z</time>
      </trkpt>
      <trkpt lat="37.4959860" lon="-6.0492670">
        <ele>14.3</ele>
        <time>2021-10-21T15:16:11Z</time>
      </trkpt>
      <trkpt lat="37.4958820" lon="-6.0492450">
        <ele>13.8</ele>
        <time>2021-10-21T15:16:11Z</time>
      </trkpt>
      <trkpt lat="37.4956800" lon="-6.0492050">
        <ele>12.6</ele>
        <time>2021-10-21T15:16:11Z</time>
      </trkpt>
      <trkpt lat="37.4955520" lon="-6.0491770">
        <ele>11.8</ele>
        <time>2021-10-21T15:16:11Z</time>
      </trkpt>
      <trkpt lat="37.4954780" lon="-6.0491580">
        <ele>11.4</ele>
        <time>2021-10-21T15:16:11Z</time>
      </trkpt>
      <trkpt lat="37.4952510" lon="-6.0491020">
        <ele>10.9</ele>
        <time>2021-10-21T15:16:11Z</time>
      </trkpt>
      <trkpt lat="37.4951040" lon="-6.0490610">
        <ele>10.9</ele>
        <time>2021-10-21T15:16:11Z</time>
      </trkpt>
      <trkpt lat="37.4949680" lon="-6.0490310">
        <ele>11.0</ele>
        <time>2021-10-21T15:16:11Z</time>
      </trkpt>
      <trkpt lat="37.4949040" lon="-6.0490190">
        <ele>11.0</ele>
        <time>2021-10-21T15:16:11Z</time>
      </trkpt>
      <trkpt lat="37.4944930" lon="-6.0489560">
        <ele>10.6</ele>
        <time>2021-10-21T15:16:11Z</time>
      </trkpt>
      <trkpt lat="37.4943370" lon="-6.0489390">
        <ele>10.7</ele>
        <time>2021-10-21T15:16:11Z</time>
      </trkpt>
      <trkpt lat="37.4942450" lon="-6.0489220">
        <ele>10.9</ele>
        <time>2021-10-21T15:16:11Z</time>
      </trkpt>
      <trkpt lat="37.4940170" lon="-6.0488550">
        <ele>10.8</ele>
        <time>2021-10-21T15:16:11Z</time>
      </trkpt>
      <trkpt lat="37.4938240" lon="-6.0488390">
        <ele>10.6</ele>
        <time>2021-10-21T15:16:11Z</time>
      </trkpt>
      <trkpt lat="37.4936180" lon="-6.0488010">
        <ele>10.5</ele>
        <time>2021-10-21T15:16:11Z</time>
      </trkpt>
      <trkpt lat="37.4933770" lon="-6.0487520">
        <ele>10.4</ele>
        <time>2021-10-21T15:16:11Z</time>
      </trkpt>
      <trkpt lat="37.4932340" lon="-6.0487290">
        <ele>10.3</ele>
        <time>2021-10-21T15:16:11Z</time>
      </trkpt>
      <trkpt lat="37.4930990" lon="-6.0487020">
        <ele>10.3</ele>
        <time>2021-10-21T15:16:11Z</time>
      </trkpt>
      <trkpt lat="37.4927570" lon="-6.0486370">
        <ele>10.2</ele>
        <time>2021-10-21T15:16:11Z</time>
      </trkpt>
      <trkpt lat="37.4924310" lon="-6.0485780">
        <ele>10.3</ele>
        <time>2021-10-21T15:16:11Z</time>
      </trkpt>
      <trkpt lat="37.4923260" lon="-6.0485550">
        <ele>10.4</ele>
        <time>2021-10-21T15:16:11Z</time>
      </trkpt>
      <trkpt lat="37.4922860" lon="-6.0485440">
        <ele>10.4</ele>
        <time>2021-10-21T15:16:11Z</time>
      </trkpt>
      <trkpt lat="37.4921920" lon="-6.0485340">
        <ele>10.4</ele>
        <time>2021-10-21T15:16:11Z</time>
      </trkpt>
      <trkpt lat="37.4921040" lon="-6.0485180">
        <ele>10.4</ele>
        <time>2021-10-21T15:16:11Z</time>
      </trkpt>
      <trkpt lat="37.4917460" lon="-6.0484410">
        <ele>10.4</ele>
        <time>2021-10-21T15:16:11Z</time>
      </trkpt>
      <trkpt lat="37.4912260" lon="-6.0483410">
        <ele>10.5</ele>
        <time>2021-10-21T15:16:11Z</time>
      </trkpt>
      <trkpt lat="37.4911790" lon="-6.0483350">
        <ele>10.5</ele>
        <time>2021-10-21T15:16:11Z</time>
      </trkpt>
      <trkpt lat="37.4910530" lon="-6.0483100">
        <ele>10.6</ele>
        <time>2021-10-21T15:16:11Z</time>
      </trkpt>
      <trkpt lat="37.4908770" lon="-6.0482820">
        <ele>10.7</ele>
        <time>2021-10-21T15:16:11Z</time>
      </trkpt>
      <trkpt lat="37.4905750" lon="-6.0482410">
        <ele>11.0</ele>
        <time>2021-10-21T15:16:11Z</time>
      </trkpt>
      <trkpt lat="37.4905340" lon="-6.0482330">
        <ele>11.0</ele>
        <time>2021-10-21T15:16:11Z</time>
      </trkpt>
      <trkpt lat="37.4902060" lon="-6.0481710">
        <ele>11.5</ele>
        <time>2021-10-21T15:16:11Z</time>
      </trkpt>
      <trkpt lat="37.4901290" lon="-6.0481570">
        <ele>11.6</ele>
        <time>2021-10-21T15:16:11Z</time>
      </trkpt>
      <trkpt lat="37.4900850" lon="-6.0481470">
        <ele>11.7</ele>
        <time>2021-10-21T15:16:11Z</time>
      </trkpt>
      <trkpt lat="37.4898640" lon="-6.0481100">
        <ele>11.8</ele>
        <time>2021-10-21T15:16:11Z</time>
      </trkpt>
      <trkpt lat="37.4893820" lon="-6.0480310">
        <ele>12.2</ele>
        <time>2021-10-21T15:16:11Z</time>
      </trkpt>
      <trkpt lat="37.4890550" lon="-6.0479610">
        <ele>12.5</ele>
        <time>2021-10-21T15:16:11Z</time>
      </trkpt>
      <trkpt lat="37.4890140" lon="-6.0479550">
        <ele>12.5</ele>
        <time>2021-10-21T15:16:11Z</time>
      </trkpt>
      <trkpt lat="37.4887710" lon="-6.0479140">
        <ele>13.0</ele>
        <time>2021-10-21T15:16:11Z</time>
      </trkpt>
      <trkpt lat="37.4887420" lon="-6.0479150">
        <ele>13.1</ele>
        <time>2021-10-21T15:16:11Z</time>
      </trkpt>
      <trkpt lat="37.4884940" lon="-6.0478650">
        <ele>13.9</ele>
        <time>2021-10-21T15:16:11Z</time>
      </trkpt>
      <trkpt lat="37.4883990" lon="-6.0478520">
        <ele>14.4</ele>
        <time>2021-10-21T15:16:11Z</time>
      </trkpt>
      <trkpt lat="37.4882070" lon="-6.0478170">
        <ele>15.3</ele>
        <time>2021-10-21T15:16:11Z</time>
      </trkpt>
      <trkpt lat="37.4881700" lon="-6.0478060">
        <ele>15.6</ele>
        <time>2021-10-21T15:16:11Z</time>
      </trkpt>
      <trkpt lat="37.4879800" lon="-6.0477760">
        <ele>16.9</ele>
        <time>2021-10-21T15:16:11Z</time>
      </trkpt>
      <trkpt lat="37.4877830" lon="-6.0477310">
        <ele>18.3</ele>
        <time>2021-10-21T15:16:11Z</time>
      </trkpt>
      <trkpt lat="37.4876770" lon="-6.0477100">
        <ele>19.0</ele>
        <time>2021-10-21T15:16:11Z</time>
      </trkpt>
      <trkpt lat="37.4875470" lon="-6.0476880">
        <ele>19.7</ele>
        <time>2021-10-21T15:16:11Z</time>
      </trkpt>
      <trkpt lat="37.4875170" lon="-6.0476860">
        <ele>19.9</ele>
        <time>2021-10-21T15:16:11Z</time>
      </trkpt>
      <trkpt lat="37.4873170" lon="-6.0476480">
        <ele>20.9</ele>
        <time>2021-10-21T15:16:11Z</time>
      </trkpt>
      <trkpt lat="37.4872670" lon="-6.0476390">
        <ele>21.2</ele>
        <time>2021-10-21T15:16:11Z</time>
      </trkpt>
      <trkpt lat="37.4870760" lon="-6.0475990">
        <ele>22.0</ele>
        <time>2021-10-21T15:16:11Z</time>
      </trkpt>
      <trkpt lat="37.4870510" lon="-6.0475950">
        <ele>22.1</ele>
        <time>2021-10-21T15:16:11Z</time>
      </trkpt>
      <trkpt lat="37.4868330" lon="-6.0475570">
        <ele>22.5</ele>
        <time>2021-10-21T15:16:11Z</time>
      </trkpt>
      <trkpt lat="37.4868010" lon="-6.0475510">
        <ele>22.6</ele>
        <time>2021-10-21T15:16:11Z</time>
      </trkpt>
      <trkpt lat="37.4866580" lon="-6.0475270">
        <ele>22.6</ele>
        <time>2021-10-21T15:16:11Z</time>
      </trkpt>
      <trkpt lat="37.4865940" lon="-6.0474980">
        <ele>22.5</ele>
        <time>2021-10-21T15:16:11Z</time>
      </trkpt>
      <trkpt lat="37.4863980" lon="-6.0474440">
        <ele>22.5</ele>
        <time>2021-10-21T15:16:11Z</time>
      </trkpt>
      <trkpt lat="37.4863150" lon="-6.0474320">
        <ele>22.4</ele>
        <time>2021-10-21T15:16:11Z</time>
      </trkpt>
      <trkpt lat="37.4861450" lon="-6.0473990">
        <ele>22.4</ele>
        <time>2021-10-21T15:16:11Z</time>
      </trkpt>
      <trkpt lat="37.4860550" lon="-6.0473870">
        <ele>22.4</ele>
        <time>2021-10-21T15:16:11Z</time>
      </trkpt>
      <trkpt lat="37.4856180" lon="-6.0472900">
        <ele>22.5</ele>
        <time>2021-10-21T15:16:11Z</time>
      </trkpt>
      <trkpt lat="37.4854860" lon="-6.0472590">
        <ele>22.5</ele>
        <time>2021-10-21T15:16:11Z</time>
      </trkpt>
      <trkpt lat="37.4853420" lon="-6.0472340">
        <ele>22.5</ele>
        <time>2021-10-21T15:16:11Z</time>
      </trkpt>
      <trkpt lat="37.4852110" lon="-6.0472110">
        <ele>22.4</ele>
        <time>2021-10-21T15:16:11Z</time>
      </trkpt>
      <trkpt lat="37.4847780" lon="-6.0471440">
        <ele>21.7</ele>
        <time>2021-10-21T15:16:11Z</time>
      </trkpt>
      <trkpt lat="37.4846500" lon="-6.0471060">
        <ele>21.5</ele>
        <time>2021-10-21T15:16:11Z</time>
      </trkpt>
      <trkpt lat="37.4846220" lon="-6.0470980">
        <ele>21.5</ele>
        <time>2021-10-21T15:16:11Z</time>
      </trkpt>
      <trkpt lat="37.4845550" lon="-6.0471010">
        <ele>21.5</ele>
        <time>2021-10-21T15:16:11Z</time>
      </trkpt>
      <trkpt lat="37.4845350" lon="-6.0470980">
        <ele>21.5</ele>
        <time>2021-10-21T15:16:11Z</time>
      </trkpt>
      <trkpt lat="37.4844920" lon="-6.0470930">
        <ele>21.5</ele>
        <time>2021-10-21T15:16:11Z</time>
      </trkpt>
      <trkpt lat="37.4843450" lon="-6.0470670">
        <ele>21.7</ele>
        <time>2021-10-21T15:16:11Z</time>
      </trkpt>
      <trkpt lat="37.4841510" lon="-6.0470330">
        <ele>22.0</ele>
        <time>2021-10-21T15:16:11Z</time>
      </trkpt>
      <trkpt lat="37.4839860" lon="-6.0470080">
        <ele>22.2</ele>
        <time>2021-10-21T15:16:11Z</time>
      </trkpt>
      <trkpt lat="37.4839550" lon="-6.0469990">
        <ele>22.3</ele>
        <time>2021-10-21T15:16:11Z</time>
      </trkpt>
      <trkpt lat="37.4838950" lon="-6.0469920">
        <ele>22.4</ele>
        <time>2021-10-21T15:16:11Z</time>
      </trkpt>
      <trkpt lat="37.4837170" lon="-6.0469570">
        <ele>22.7</ele>
        <time>2021-10-21T15:16:11Z</time>
      </trkpt>
      <trkpt lat="37.4836550" lon="-6.0469470">
        <ele>22.8</ele>
        <time>2021-10-21T15:16:11Z</time>
      </trkpt>
      <trkpt lat="37.4834400" lon="-6.0469040">
        <ele>23.3</ele>
        <time>2021-10-21T15:16:11Z</time>
      </trkpt>
      <trkpt lat="37.4831410" lon="-6.0468440">
        <ele>24.1</ele>
        <time>2021-10-21T15:16:11Z</time>
      </trkpt>
      <trkpt lat="37.4830540" lon="-6.0468280">
        <ele>24.4</ele>
        <time>2021-10-21T15:16:11Z</time>
      </trkpt>
      <trkpt lat="37.4828850" lon="-6.0467900">
        <ele>25.0</ele>
        <time>2021-10-21T15:16:11Z</time>
      </trkpt>
      <trkpt lat="37.4828260" lon="-6.0467770">
        <ele>25.2</ele>
        <time>2021-10-21T15:16:11Z</time>
      </trkpt>
      <trkpt lat="37.4827440" lon="-6.0467670">
        <ele>25.4</ele>
        <time>2021-10-21T15:16:11Z</time>
      </trkpt>
      <trkpt lat="37.4826890" lon="-6.0467550">
        <ele>25.6</ele>
        <time>2021-10-21T15:16:11Z</time>
      </trkpt>
      <trkpt lat="37.4825580" lon="-6.0467250">
        <ele>26.0</ele>
        <time>2021-10-21T15:16:11Z</time>
      </trkpt>
      <trkpt lat="37.4825060" lon="-6.0467220">
        <ele>26.2</ele>
        <time>2021-10-21T15:16:11Z</time>
      </trkpt>
      <trkpt lat="37.4823460" lon="-6.0467000">
        <ele>26.5</ele>
        <time>2021-10-21T15:16:11Z</time>
      </trkpt>
      <trkpt lat="37.4821270" lon="-6.0466540">
        <ele>26.6</ele>
        <time>2021-10-21T15:16:11Z</time>
      </trkpt>
      <trkpt lat="37.4820910" lon="-6.0466410">
        <ele>26.6</ele>
        <time>2021-10-21T15:16:11Z</time>
      </trkpt>
      <trkpt lat="37.4820550" lon="-6.0466310">
        <ele>26.5</ele>
        <time>2021-10-21T15:16:11Z</time>
      </trkpt>
      <trkpt lat="37.4819760" lon="-6.0466200">
        <ele>26.4</ele>
        <time>2021-10-21T15:16:11Z</time>
      </trkpt>
      <trkpt lat="37.4818920" lon="-6.0466080">
        <ele>26.2</ele>
        <time>2021-10-21T15:16:11Z</time>
      </trkpt>
      <trkpt lat="37.4817600" lon="-6.0465790">
        <ele>25.9</ele>
        <time>2021-10-21T15:16:11Z</time>
      </trkpt>
      <trkpt lat="37.4813620" lon="-6.0465070">
        <ele>24.8</ele>
        <time>2021-10-21T15:16:11Z</time>
      </trkpt>
      <trkpt lat="37.4812060" lon="-6.0464760">
        <ele>24.5</ele>
        <time>2021-10-21T15:16:11Z</time>
      </trkpt>
      <trkpt lat="37.4810060" lon="-6.0464360">
        <ele>24.3</ele>
        <time>2021-10-21T15:16:11Z</time>
      </trkpt>
      <trkpt lat="37.4808640" lon="-6.0464080">
        <ele>24.2</ele>
        <time>2021-10-21T15:16:11Z</time>
      </trkpt>
      <trkpt lat="37.4805900" lon="-6.0463630">
        <ele>24.2</ele>
        <time>2021-10-21T15:16:11Z</time>
      </trkpt>
      <trkpt lat="37.4805450" lon="-6.0463510">
        <ele>24.2</ele>
        <time>2021-10-21T15:16:11Z</time>
      </trkpt>
      <trkpt lat="37.4802490" lon="-6.0462920">
        <ele>24.6</ele>
        <time>2021-10-21T15:16:11Z</time>
      </trkpt>
      <trkpt lat="37.4801280" lon="-6.0462720">
        <ele>24.8</ele>
        <time>2021-10-21T15:16:11Z</time>
      </trkpt>
      <trkpt lat="37.4797930" lon="-6.0462130">
        <ele>25.3</ele>
        <time>2021-10-21T15:16:11Z</time>
      </trkpt>
      <trkpt lat="37.4797540" lon="-6.0462060">
        <ele>25.3</ele>
        <time>2021-10-21T15:16:11Z</time>
      </trkpt>
      <trkpt lat="37.4795980" lon="-6.0461780">
        <ele>25.4</ele>
        <time>2021-10-21T15:16:11Z</time>
      </trkpt>
      <trkpt lat="37.4793560" lon="-6.0461320">
        <ele>25.0</ele>
        <time>2021-10-21T15:16:11Z</time>
      </trkpt>
      <trkpt lat="37.4790670" lon="-6.0460870">
        <ele>23.4</ele>
        <time>2021-10-21T15:16:11Z</time>
      </trkpt>
      <trkpt lat="37.4786770" lon="-6.0460080">
        <ele>21.1</ele>
        <time>2021-10-21T15:16:11Z</time>
      </trkpt>
      <trkpt lat="37.4785380" lon="-6.0459850">
        <ele>20.5</ele>
        <time>2021-10-21T15:16:11Z</time>
      </trkpt>
      <trkpt lat="37.4783410" lon="-6.0459480">
        <ele>20.1</ele>
        <time>2021-10-21T15:16:11Z</time>
      </trkpt>
      <trkpt lat="37.4781630" lon="-6.0459150">
        <ele>19.8</ele>
        <time>2021-10-21T15:16:11Z</time>
      </trkpt>
      <trkpt lat="37.4781080" lon="-6.0459040">
        <ele>19.7</ele>
        <time>2021-10-21T15:16:11Z</time>
      </trkpt>
      <trkpt lat="37.4778470" lon="-6.0458480">
        <ele>19.3</ele>
        <time>2021-10-21T15:16:11Z</time>
      </trkpt>
      <trkpt lat="37.4776870" lon="-6.0458230">
        <ele>19.1</ele>
        <time>2021-10-21T15:16:11Z</time>
      </trkpt>
      <trkpt lat="37.4773660" lon="-6.0457570">
        <ele>19.4</ele>
        <time>2021-10-21T15:16:11Z</time>
      </trkpt>
      <trkpt lat="37.4770970" lon="-6.0457050">
        <ele>20.0</ele>
        <time>2021-10-21T15:16:11Z</time>
      </trkpt>
      <trkpt lat="37.4770160" lon="-6.0456910">
        <ele>20.1</ele>
        <time>2021-10-21T15:16:11Z</time>
      </trkpt>
      <trkpt lat="37.4768990" lon="-6.0456660">
        <ele>20.2</ele>
        <time>2021-10-21T15:16:11Z</time>
      </trkpt>
      <trkpt lat="37.4768210" lon="-6.0456480">
        <ele>20.3</ele>
        <time>2021-10-21T15:16:11Z</time>
      </trkpt>
      <trkpt lat="37.4765040" lon="-6.0455890">
        <ele>20.7</ele>
        <time>2021-10-21T15:16:11Z</time>
      </trkpt>
      <trkpt lat="37.4764280" lon="-6.0455780">
        <ele>20.9</ele>
        <time>2021-10-21T15:16:11Z</time>
      </trkpt>
      <trkpt lat="37.4763220" lon="-6.0455600">
        <ele>21.2</ele>
        <time>2021-10-21T15:16:11Z</time>
      </trkpt>
      <trkpt lat="37.4762860" lon="-6.0455550">
        <ele>21.2</ele>
        <time>2021-10-21T15:16:11Z</time>
      </trkpt>
      <trkpt lat="37.4760550" lon="-6.0455040">
        <ele>21.7</ele>
        <time>2021-10-21T15:16:11Z</time>
      </trkpt>
      <trkpt lat="37.4756950" lon="-6.0454440">
        <ele>20.7</ele>
        <time>2021-10-21T15:16:11Z</time>
      </trkpt>
      <trkpt lat="37.4755540" lon="-6.0454200">
        <ele>19.8</ele>
        <time>2021-10-21T15:16:11Z</time>
      </trkpt>
      <trkpt lat="37.4754400" lon="-6.0453980">
        <ele>19.0</ele>
        <time>2021-10-21T15:16:11Z</time>
      </trkpt>
      <trkpt lat="37.4753790" lon="-6.0453870">
        <ele>18.6</ele>
        <time>2021-10-21T15:16:11Z</time>
      </trkpt>
      <trkpt lat="37.4752480" lon="-6.0453570">
        <ele>18.0</ele>
        <time>2021-10-21T15:16:11Z</time>
      </trkpt>
      <trkpt lat="37.4750460" lon="-6.0453130">
        <ele>18.1</ele>
        <time>2021-10-21T15:16:11Z</time>
      </trkpt>
      <trkpt lat="37.4749370" lon="-6.0452970">
        <ele>18.6</ele>
        <time>2021-10-21T15:16:11Z</time>
      </trkpt>
      <trkpt lat="37.4748500" lon="-6.0452730">
        <ele>19.2</ele>
        <time>2021-10-21T15:16:11Z</time>
      </trkpt>
      <trkpt lat="37.4746940" lon="-6.0452360">
        <ele>20.5</ele>
        <time>2021-10-21T15:16:11Z</time>
      </trkpt>
      <trkpt lat="37.4745170" lon="-6.0452140">
        <ele>21.9</ele>
        <time>2021-10-21T15:16:11Z</time>
      </trkpt>
      <trkpt lat="37.4744930" lon="-6.0452080">
        <ele>22.1</ele>
        <time>2021-10-21T15:16:11Z</time>
      </trkpt>
      <trkpt lat="37.4744470" lon="-6.0451960">
        <ele>22.5</ele>
        <time>2021-10-21T15:16:11Z</time>
      </trkpt>
      <trkpt lat="37.4743290" lon="-6.0451750">
        <ele>23.2</ele>
        <time>2021-10-21T15:16:11Z</time>
      </trkpt>
      <trkpt lat="37.4743060" lon="-6.0451710">
        <ele>23.4</ele>
        <time>2021-10-21T15:16:11Z</time>
      </trkpt>
      <trkpt lat="37.4740960" lon="-6.0451320">
        <ele>24.1</ele>
        <time>2021-10-21T15:16:11Z</time>
      </trkpt>
      <trkpt lat="37.4740660" lon="-6.0451260">
        <ele>24.1</ele>
        <time>2021-10-21T15:16:11Z</time>
      </trkpt>
      <trkpt lat="37.4738580" lon="-6.0450920">
        <ele>24.1</ele>
        <time>2021-10-21T15:16:11Z</time>
      </trkpt>
      <trkpt lat="37.4737670" lon="-6.0450820">
        <ele>23.9</ele>
        <time>2021-10-21T15:16:11Z</time>
      </trkpt>
      <trkpt lat="37.4735510" lon="-6.0450490">
        <ele>23.3</ele>
        <time>2021-10-21T15:16:11Z</time>
      </trkpt>
      <trkpt lat="37.4734300" lon="-6.0450340">
        <ele>22.8</ele>
        <time>2021-10-21T15:16:11Z</time>
      </trkpt>
      <trkpt lat="37.4731170" lon="-6.0449800">
        <ele>21.3</ele>
        <time>2021-10-21T15:16:11Z</time>
      </trkpt>
      <trkpt lat="37.4730660" lon="-6.0449690">
        <ele>20.9</ele>
        <time>2021-10-21T15:16:11Z</time>
      </trkpt>
      <trkpt lat="37.4728280" lon="-6.0449260">
        <ele>19.3</ele>
        <time>2021-10-21T15:16:11Z</time>
      </trkpt>
      <trkpt lat="37.4726920" lon="-6.0449030">
        <ele>18.3</ele>
        <time>2021-10-21T15:16:11Z</time>
      </trkpt>
      <trkpt lat="37.4726190" lon="-6.0448890">
        <ele>17.8</ele>
        <time>2021-10-21T15:16:11Z</time>
      </trkpt>
      <trkpt lat="37.4724640" lon="-6.0448540">
        <ele>16.8</ele>
        <time>2021-10-21T15:16:11Z</time>
      </trkpt>
      <trkpt lat="37.4723100" lon="-6.0448200">
        <ele>16.0</ele>
        <time>2021-10-21T15:16:11Z</time>
      </trkpt>
      <trkpt lat="37.4721530" lon="-6.0447840">
        <ele>15.3</ele>
        <time>2021-10-21T15:16:11Z</time>
      </trkpt>
      <trkpt lat="37.4720740" lon="-6.0447700">
        <ele>14.9</ele>
        <time>2021-10-21T15:16:11Z</time>
      </trkpt>
      <trkpt lat="37.4718360" lon="-6.0447240">
        <ele>14.0</ele>
        <time>2021-10-21T15:16:11Z</time>
      </trkpt>
      <trkpt lat="37.4715400" lon="-6.0446650">
        <ele>13.3</ele>
        <time>2021-10-21T15:16:11Z</time>
      </trkpt>
      <trkpt lat="37.4711900" lon="-6.0446020">
        <ele>12.7</ele>
        <time>2021-10-21T15:16:11Z</time>
      </trkpt>
      <trkpt lat="37.4710580" lon="-6.0445800">
        <ele>12.6</ele>
        <time>2021-10-21T15:16:11Z</time>
      </trkpt>
      <trkpt lat="37.4709950" lon="-6.0445660">
        <ele>12.6</ele>
        <time>2021-10-21T15:16:11Z</time>
      </trkpt>
      <trkpt lat="37.4709330" lon="-6.0445530">
        <ele>12.5</ele>
        <time>2021-10-21T15:16:11Z</time>
      </trkpt>
      <trkpt lat="37.4707510" lon="-6.0445260">
        <ele>12.3</ele>
        <time>2021-10-21T15:16:11Z</time>
      </trkpt>
      <trkpt lat="37.4706920" lon="-6.0445130">
        <ele>12.3</ele>
        <time>2021-10-21T15:16:11Z</time>
      </trkpt>
      <trkpt lat="37.4704190" lon="-6.0444670">
        <ele>12.2</ele>
        <time>2021-10-21T15:16:11Z</time>
      </trkpt>
      <trkpt lat="37.4701620" lon="-6.0444020">
        <ele>12.5</ele>
        <time>2021-10-21T15:16:11Z</time>
      </trkpt>
      <trkpt lat="37.4699510" lon="-6.0443580">
        <ele>12.7</ele>
        <time>2021-10-21T15:16:11Z</time>
      </trkpt>
      <trkpt lat="37.4697030" lon="-6.0443140">
        <ele>12.3</ele>
        <time>2021-10-21T15:16:11Z</time>
      </trkpt>
      <trkpt lat="37.4696630" lon="-6.0443050">
        <ele>12.2</ele>
        <time>2021-10-21T15:16:11Z</time>
      </trkpt>
      <trkpt lat="37.4694470" lon="-6.0442670">
        <ele>11.4</ele>
        <time>2021-10-21T15:16:11Z</time>
      </trkpt>
      <trkpt lat="37.4692940" lon="-6.0442400">
        <ele>10.7</ele>
        <time>2021-10-21T15:16:11Z</time>
      </trkpt>
      <trkpt lat="37.4692410" lon="-6.0442310">
        <ele>10.5</ele>
        <time>2021-10-21T15:16:11Z</time>
      </trkpt>
      <trkpt lat="37.4691320" lon="-6.0442090">
        <ele>10.1</ele>
        <time>2021-10-21T15:16:11Z</time>
      </trkpt>
      <trkpt lat="37.4688980" lon="-6.0441650">
        <ele>9.4</ele>
        <time>2021-10-21T15:16:11Z</time>
      </trkpt>
      <trkpt lat="37.4688390" lon="-6.0441520">
        <ele>9.3</ele>
        <time>2021-10-21T15:16:11Z</time>
      </trkpt>
      <trkpt lat="37.4686630" lon="-6.0441200">
        <ele>9.1</ele>
        <time>2021-10-21T15:16:11Z</time>
      </trkpt>
      <trkpt lat="37.4683970" lon="-6.0440750">
        <ele>9.0</ele>
        <time>2021-10-21T15:16:11Z</time>
      </trkpt>
      <trkpt lat="37.4681890" lon="-6.0440310">
        <ele>8.9</ele>
        <time>2021-10-21T15:16:11Z</time>
      </trkpt>
      <trkpt lat="37.4680160" lon="-6.0439930">
        <ele>8.7</ele>
        <time>2021-10-21T15:16:11Z</time>
      </trkpt>
      <trkpt lat="37.4678860" lon="-6.0439680">
        <ele>8.7</ele>
        <time>2021-10-21T15:16:11Z</time>
      </trkpt>
      <trkpt lat="37.4677990" lon="-6.0439500">
        <ele>8.6</ele>
        <time>2021-10-21T15:16:11Z</time>
      </trkpt>
      <trkpt lat="37.4673290" lon="-6.0438620">
        <ele>8.7</ele>
        <time>2021-10-21T15:16:11Z</time>
      </trkpt>
      <trkpt lat="37.4668540" lon="-6.0437770">
        <ele>9.3</ele>
        <time>2021-10-21T15:16:11Z</time>
      </trkpt>
      <trkpt lat="37.4665110" lon="-6.0437150">
        <ele>10.8</ele>
        <time>2021-10-21T15:16:11Z</time>
      </trkpt>
      <trkpt lat="37.4663310" lon="-6.0436790">
        <ele>12.1</ele>
        <time>2021-10-21T15:16:11Z</time>
      </trkpt>
      <trkpt lat="37.4662460" lon="-6.0436640">
        <ele>12.7</ele>
        <time>2021-10-21T15:16:11Z</time>
      </trkpt>
      <trkpt lat="37.4661860" lon="-6.0436530">
        <ele>13.1</ele>
        <time>2021-10-21T15:16:11Z</time>
      </trkpt>
      <trkpt lat="37.4661440" lon="-6.0436450">
        <ele>13.3</ele>
        <time>2021-10-21T15:16:11Z</time>
      </trkpt>
      <trkpt lat="37.4660430" lon="-6.0436280">
        <ele>13.6</ele>
        <time>2021-10-21T15:16:11Z</time>
      </trkpt>
      <trkpt lat="37.4660240" lon="-6.0436270">
        <ele>13.6</ele>
        <time>2021-10-21T15:16:11Z</time>
      </trkpt>
      <trkpt lat="37.4659390" lon="-6.0436220">
        <ele>13.7</ele>
        <time>2021-10-21T15:16:11Z</time>
      </trkpt>
      <trkpt lat="37.4658680" lon="-6.0436050">
        <ele>13.5</ele>
        <time>2021-10-21T15:16:11Z</time>
      </trkpt>
      <trkpt lat="37.4657780" lon="-6.0435880">
        <ele>13.3</ele>
        <time>2021-10-21T15:16:11Z</time>
      </trkpt>
      <trkpt lat="37.4655230" lon="-6.0435380">
        <ele>12.0</ele>
        <time>2021-10-21T15:16:11Z</time>
      </trkpt>
      <trkpt lat="37.4652350" lon="-6.0434950">
        <ele>10.5</ele>
        <time>2021-10-21T15:16:11Z</time>
      </trkpt>
      <trkpt lat="37.4651720" lon="-6.0434840">
        <ele>10.2</ele>
        <time>2021-10-21T15:16:11Z</time>
      </trkpt>
      <trkpt lat="37.4649760" lon="-6.0434460">
        <ele>9.5</ele>
        <time>2021-10-21T15:16:11Z</time>
      </trkpt>
      <trkpt lat="37.4648440" lon="-6.0434210">
        <ele>9.2</ele>
        <time>2021-10-21T15:16:11Z</time>
      </trkpt>
      <trkpt lat="37.4647130" lon="-6.0433940">
        <ele>8.9</ele>
        <time>2021-10-21T15:16:11Z</time>
      </trkpt>
      <trkpt lat="37.4646520" lon="-6.0433760">
        <ele>8.7</ele>
        <time>2021-10-21T15:16:11Z</time>
      </trkpt>
      <trkpt lat="37.4644710" lon="-6.0433370">
        <ele>8.4</ele>
        <time>2021-10-21T15:16:11Z</time>
      </trkpt>
      <trkpt lat="37.4644110" lon="-6.0433250">
        <ele>8.3</ele>
        <time>2021-10-21T15:16:11Z</time>
      </trkpt>
      <trkpt lat="37.4641860" lon="-6.0432810">
        <ele>8.1</ele>
        <time>2021-10-21T15:16:11Z</time>
      </trkpt>
      <trkpt lat="37.4638270" lon="-6.0432130">
        <ele>8.0</ele>
        <time>2021-10-21T15:16:11Z</time>
      </trkpt>
      <trkpt lat="37.4635230" lon="-6.0431530">
        <ele>8.0</ele>
        <time>2021-10-21T15:16:11Z</time>
      </trkpt>
      <trkpt lat="37.4634840" lon="-6.0431450">
        <ele>8.0</ele>
        <time>2021-10-21T15:16:11Z</time>
      </trkpt>
      <trkpt lat="37.4632040" lon="-6.0430870">
        <ele>8.0</ele>
        <time>2021-10-21T15:16:11Z</time>
      </trkpt>
      <trkpt lat="37.4627870" lon="-6.0430210">
        <ele>8.1</ele>
        <time>2021-10-21T15:16:11Z</time>
      </trkpt>
      <trkpt lat="37.4625040" lon="-6.0429700">
        <ele>8.2</ele>
        <time>2021-10-21T15:16:11Z</time>
      </trkpt>
      <trkpt lat="37.4623670" lon="-6.0429410">
        <ele>8.2</ele>
        <time>2021-10-21T15:16:11Z</time>
      </trkpt>
      <trkpt lat="37.4622330" lon="-6.0429150">
        <ele>8.2</ele>
        <time>2021-10-21T15:16:11Z</time>
      </trkpt>
      <trkpt lat="37.4621000" lon="-6.0428870">
        <ele>8.2</ele>
        <time>2021-10-21T15:16:11Z</time>
      </trkpt>
      <trkpt lat="37.4619230" lon="-6.0428560">
        <ele>8.3</ele>
        <time>2021-10-21T15:16:11Z</time>
      </trkpt>
      <trkpt lat="37.4615070" lon="-6.0427840">
        <ele>8.4</ele>
        <time>2021-10-21T15:16:11Z</time>
      </trkpt>
      <trkpt lat="37.4613710" lon="-6.0427590">
        <ele>8.4</ele>
        <time>2021-10-21T15:16:11Z</time>
      </trkpt>
      <trkpt lat="37.4611450" lon="-6.0427090">
        <ele>8.4</ele>
        <time>2021-10-21T15:16:11Z</time>
      </trkpt>
      <trkpt lat="37.4610070" lon="-6.0426800">
        <ele>8.3</ele>
        <time>2021-10-21T15:16:11Z</time>
      </trkpt>
      <trkpt lat="37.4606290" lon="-6.0425980">
        <ele>8.1</ele>
        <time>2021-10-21T15:16:11Z</time>
      </trkpt>
      <trkpt lat="37.4604460" lon="-6.0425640">
        <ele>8.1</ele>
        <time>2021-10-21T15:16:11Z</time>
      </trkpt>
      <trkpt lat="37.4602580" lon="-6.0425330">
        <ele>8.1</ele>
        <time>2021-10-21T15:16:11Z</time>
      </trkpt>
      <trkpt lat="37.4600710" lon="-6.0425050">
        <ele>8.3</ele>
        <time>2021-10-21T15:16:11Z</time>
      </trkpt>
      <trkpt lat="37.4598850" lon="-6.0424690">
        <ele>8.5</ele>
        <time>2021-10-21T15:16:11Z</time>
      </trkpt>
      <trkpt lat="37.4597540" lon="-6.0424470">
        <ele>8.7</ele>
        <time>2021-10-21T15:16:11Z</time>
      </trkpt>
      <trkpt lat="37.4597140" lon="-6.0424390">
        <ele>8.7</ele>
        <time>2021-10-21T15:16:11Z</time>
      </trkpt>
      <trkpt lat="37.4596290" lon="-6.0424210">
        <ele>8.8</ele>
        <time>2021-10-21T15:16:11Z</time>
      </trkpt>
      <trkpt lat="37.4595880" lon="-6.0424210">
        <ele>8.9</ele>
        <time>2021-10-21T15:16:11Z</time>
      </trkpt>
      <trkpt lat="37.4595070" lon="-6.0424170">
        <ele>9.0</ele>
        <time>2021-10-21T15:16:11Z</time>
      </trkpt>
      <trkpt lat="37.4593700" lon="-6.0423830">
        <ele>9.5</ele>
        <time>2021-10-21T15:16:11Z</time>
      </trkpt>
      <trkpt lat="37.4591960" lon="-6.0423380">
        <ele>10.3</ele>
        <time>2021-10-21T15:16:11Z</time>
      </trkpt>
      <trkpt lat="37.4591470" lon="-6.0423300">
        <ele>10.6</ele>
        <time>2021-10-21T15:16:11Z</time>
      </trkpt>
      <trkpt lat="37.4590640" lon="-6.0423430">
        <ele>10.9</ele>
        <time>2021-10-21T15:16:11Z</time>
      </trkpt>
      <trkpt lat="37.4590460" lon="-6.0423550">
        <ele>10.9</ele>
        <time>2021-10-21T15:16:11Z</time>
      </trkpt>
      <trkpt lat="37.4590140" lon="-6.0424310">
        <ele>11.1</ele>
        <time>2021-10-21T15:16:11Z</time>
      </trkpt>
      <trkpt lat="37.4589900" lon="-6.0425320">
        <ele>11.1</ele>
        <time>2021-10-21T15:16:11Z</time>
      </trkpt>
      <trkpt lat="37.4589810" lon="-6.0425680">
        <ele>11.2</ele>
        <time>2021-10-21T15:16:11Z</time>
      </trkpt>
      <trkpt lat="37.4589500" lon="-6.0427100">
        <ele>11.2</ele>
        <time>2021-10-21T15:16:11Z</time>
      </trkpt>
      <trkpt lat="37.4587910" lon="-6.0429550">
        <ele>10.9</ele>
        <time>2021-10-21T15:16:11Z</time>
      </trkpt>
      <trkpt lat="37.4587240" lon="-6.0430080">
        <ele>10.8</ele>
        <time>2021-10-21T15:16:11Z</time>
      </trkpt>
      <trkpt lat="37.4585540" lon="-6.0431050">
        <ele>10.6</ele>
        <time>2021-10-21T15:16:11Z</time>
      </trkpt>
      <trkpt lat="37.4585100" lon="-6.0431260">
        <ele>10.6</ele>
        <time>2021-10-21T15:16:11Z</time>
      </trkpt>
      <trkpt lat="37.4584420" lon="-6.0431680">
        <ele>10.5</ele>
        <time>2021-10-21T15:16:11Z</time>
      </trkpt>
      <trkpt lat="37.4582930" lon="-6.0432590">
        <ele>10.7</ele>
        <time>2021-10-21T15:16:11Z</time>
      </trkpt>
      <trkpt lat="37.4581200" lon="-6.0433520">
        <ele>10.9</ele>
        <time>2021-10-21T15:16:11Z</time>
      </trkpt>
      <trkpt lat="37.4579850" lon="-6.0434640">
        <ele>11.0</ele>
        <time>2021-10-21T15:16:11Z</time>
      </trkpt>
      <trkpt lat="37.4579260" lon="-6.0435230">
        <ele>11.0</ele>
        <time>2021-10-21T15:16:11Z</time>
      </trkpt>
      <trkpt lat="37.4576880" lon="-6.0437670">
        <ele>11.0</ele>
        <time>2021-10-21T15:16:11Z</time>
      </trkpt>
      <trkpt lat="37.4575950" lon="-6.0438560">
        <ele>11.0</ele>
        <time>2021-10-21T15:16:11Z</time>
      </trkpt>
      <trkpt lat="37.4573850" lon="-6.0440390">
        <ele>10.9</ele>
        <time>2021-10-21T15:16:11Z</time>
      </trkpt>
      <trkpt lat="37.4573180" lon="-6.0441080">
        <ele>10.9</ele>
        <time>2021-10-21T15:16:11Z</time>
      </trkpt>
      <trkpt lat="37.4571470" lon="-6.0442740">
        <ele>10.9</ele>
        <time>2021-10-21T15:16:11Z</time>
      </trkpt>
      <trkpt lat="37.4570770" lon="-6.0443360">
        <ele>10.9</ele>
        <time>2021-10-21T15:16:11Z</time>
      </trkpt>
      <trkpt lat="37.4569750" lon="-6.0444250">
        <ele>10.9</ele>
        <time>2021-10-21T15:16:11Z</time>
      </trkpt>
      <trkpt lat="37.4569130" lon="-6.0444690">
        <ele>11.0</ele>
        <time>2021-10-21T15:16:11Z</time>
      </trkpt>
      <trkpt lat="37.4567190" lon="-6.0445530">
        <ele>11.0</ele>
        <time>2021-10-21T15:16:11Z</time>
      </trkpt>
      <trkpt lat="37.4565400" lon="-6.0447200">
        <ele>11.0</ele>
        <time>2021-10-21T15:16:11Z</time>
      </trkpt>
      <trkpt lat="37.4563050" lon="-6.0449710">
        <ele>11.1</ele>
        <time>2021-10-21T15:16:11Z</time>
      </trkpt>
      <trkpt lat="37.4562420" lon="-6.0450400">
        <ele>11.1</ele>
        <time>2021-10-21T15:16:11Z</time>
      </trkpt>
      <trkpt lat="37.4560690" lon="-6.0452170">
        <ele>11.3</ele>
        <time>2021-10-21T15:16:11Z</time>
      </trkpt>
      <trkpt lat="37.4559870" lon="-6.0452850">
        <ele>11.3</ele>
        <time>2021-10-21T15:16:11Z</time>
      </trkpt>
      <trkpt lat="37.4557790" lon="-6.0454810">
        <ele>11.5</ele>
        <time>2021-10-21T15:16:11Z</time>
      </trkpt>
      <trkpt lat="37.4556430" lon="-6.0456100">
        <ele>11.7</ele>
        <time>2021-10-21T15:16:11Z</time>
      </trkpt>
      <trkpt lat="37.4555930" lon="-6.0456900">
        <ele>11.8</ele>
        <time>2021-10-21T15:16:11Z</time>
      </trkpt>
      <trkpt lat="37.4555670" lon="-6.0457790">
        <ele>12.0</ele>
        <time>2021-10-21T15:16:11Z</time>
      </trkpt>
      <trkpt lat="37.4555670" lon="-6.0458230">
        <ele>12.0</ele>
        <time>2021-10-21T15:16:11Z</time>
      </trkpt>
      <trkpt lat="37.4556130" lon="-6.0459870">
        <ele>12.2</ele>
        <time>2021-10-21T15:16:11Z</time>
      </trkpt>
      <trkpt lat="37.4556380" lon="-6.0460710">
        <ele>12.4</ele>
        <time>2021-10-21T15:16:11Z</time>
      </trkpt>
      <trkpt lat="37.4556330" lon="-6.0462500">
        <ele>12.7</ele>
        <time>2021-10-21T15:16:11Z</time>
      </trkpt>
      <trkpt lat="37.4555570" lon="-6.0463960">
        <ele>12.9</ele>
        <time>2021-10-21T15:16:11Z</time>
      </trkpt>
      <trkpt lat="37.4555280" lon="-6.0464230">
        <ele>13.0</ele>
        <time>2021-10-21T15:16:11Z</time>
      </trkpt>
      <trkpt lat="37.4553970" lon="-6.0464930">
        <ele>13.2</ele>
        <time>2021-10-21T15:16:11Z</time>
      </trkpt>
      <trkpt lat="37.4552480" lon="-6.0465210">
        <ele>13.3</ele>
        <time>2021-10-21T15:16:11Z</time>
      </trkpt>
      <trkpt lat="37.4551220" lon="-6.0465010">
        <ele>13.1</ele>
        <time>2021-10-21T15:16:11Z</time>
      </trkpt>
      <trkpt lat="37.4550390" lon="-6.0464720">
        <ele>13.0</ele>
        <time>2021-10-21T15:16:11Z</time>
      </trkpt>
      <trkpt lat="37.4549130" lon="-6.0464110">
        <ele>12.7</ele>
        <time>2021-10-21T15:16:11Z</time>
      </trkpt>
      <trkpt lat="37.4548340" lon="-6.0463760">
        <ele>12.5</ele>
        <time>2021-10-21T15:16:11Z</time>
      </trkpt>
      <trkpt lat="37.4547770" lon="-6.0463530">
        <ele>12.3</ele>
        <time>2021-10-21T15:16:11Z</time>
      </trkpt>
      <trkpt lat="37.4545760" lon="-6.0462980">
        <ele>11.6</ele>
        <time>2021-10-21T15:16:11Z</time>
      </trkpt>
      <trkpt lat="37.4545350" lon="-6.0462900">
        <ele>11.5</ele>
        <time>2021-10-21T15:16:11Z</time>
      </trkpt>
      <trkpt lat="37.4544710" lon="-6.0462760">
        <ele>11.4</ele>
        <time>2021-10-21T15:16:11Z</time>
      </trkpt>
      <trkpt lat="37.4542150" lon="-6.0462370">
        <ele>11.0</ele>
        <time>2021-10-21T15:16:11Z</time>
      </trkpt>
      <trkpt lat="37.4540100" lon="-6.0462160">
        <ele>10.9</ele>
        <time>2021-10-21T15:16:11Z</time>
      </trkpt>
      <trkpt lat="37.4539720" lon="-6.0462140">
        <ele>10.8</ele>
        <time>2021-10-21T15:16:11Z</time>
      </trkpt>
      <trkpt lat="37.4539180" lon="-6.0462120">
        <ele>10.8</ele>
        <time>2021-10-21T15:16:11Z</time>
      </trkpt>
      <trkpt lat="37.4536420" lon="-6.0462180">
        <ele>10.9</ele>
        <time>2021-10-21T15:16:11Z</time>
      </trkpt>
      <trkpt lat="37.4533300" lon="-6.0462420">
        <ele>11.0</ele>
        <time>2021-10-21T15:16:11Z</time>
      </trkpt>
      <trkpt lat="37.4529190" lon="-6.0463100">
        <ele>11.0</ele>
        <time>2021-10-21T15:16:11Z</time>
      </trkpt>
      <trkpt lat="37.4526690" lon="-6.0463570">
        <ele>10.8</ele>
        <time>2021-10-21T15:16:11Z</time>
      </trkpt>
      <trkpt lat="37.4525670" lon="-6.0463750">
        <ele>10.8</ele>
        <time>2021-10-21T15:16:11Z</time>
      </trkpt>
      <trkpt lat="37.4524250" lon="-6.0463990">
        <ele>10.8</ele>
        <time>2021-10-21T15:16:11Z</time>
      </trkpt>
      <trkpt lat="37.4522320" lon="-6.0464240">
        <ele>10.8</ele>
        <time>2021-10-21T15:16:11Z</time>
      </trkpt>
      <trkpt lat="37.4520820" lon="-6.0464590">
        <ele>10.9</ele>
        <time>2021-10-21T15:16:11Z</time>
      </trkpt>
      <trkpt lat="37.4515860" lon="-6.0465390">
        <ele>11.0</ele>
        <time>2021-10-21T15:16:11Z</time>
      </trkpt>
      <trkpt lat="37.4512020" lon="-6.0466180">
        <ele>11.1</ele>
        <time>2021-10-21T15:16:11Z</time>
      </trkpt>
      <trkpt lat="37.4506590" lon="-6.0467190">
        <ele>11.3</ele>
        <time>2021-10-21T15:16:11Z</time>
      </trkpt>
      <trkpt lat="37.4505080" lon="-6.0467520">
        <ele>11.3</ele>
        <time>2021-10-21T15:16:11Z</time>
      </trkpt>
      <trkpt lat="37.4504070" lon="-6.0467720">
        <ele>11.4</ele>
        <time>2021-10-21T15:16:11Z</time>
      </trkpt>
      <trkpt lat="37.4500140" lon="-6.0468490">
        <ele>11.5</ele>
        <time>2021-10-21T15:16:11Z</time>
      </trkpt>
      <trkpt lat="37.4499200" lon="-6.0468700">
        <ele>11.5</ele>
        <time>2021-10-21T15:16:11Z</time>
      </trkpt>
      <trkpt lat="37.4493950" lon="-6.0469640">
        <ele>11.7</ele>
        <time>2021-10-21T15:16:11Z</time>
      </trkpt>
      <trkpt lat="37.4488680" lon="-6.0470590">
        <ele>11.9</ele>
        <time>2021-10-21T15:16:11Z</time>
      </trkpt>
      <trkpt lat="37.4484490" lon="-6.0471310">
        <ele>12.1</ele>
        <time>2021-10-21T15:16:11Z</time>
      </trkpt>
      <trkpt lat="37.4482990" lon="-6.0471380">
        <ele>12.1</ele>
        <time>2021-10-21T15:16:11Z</time>
      </trkpt>
      <trkpt lat="37.4481030" lon="-6.0471180">
        <ele>12.1</ele>
        <time>2021-10-21T15:16:11Z</time>
      </trkpt>
      <trkpt lat="37.4479510" lon="-6.0470760">
        <ele>12.1</ele>
        <time>2021-10-21T15:16:11Z</time>
      </trkpt>
      <trkpt lat="37.4477090" lon="-6.0469720">
        <ele>12.2</ele>
        <time>2021-10-21T15:16:11Z</time>
      </trkpt>
      <trkpt lat="37.4473810" lon="-6.0467960">
        <ele>12.1</ele>
        <time>2021-10-21T15:16:11Z</time>
      </trkpt>
      <trkpt lat="37.4468520" lon="-6.0464690">
        <ele>12.0</ele>
        <time>2021-10-21T15:16:11Z</time>
      </trkpt>
      <trkpt lat="37.4468030" lon="-6.0464360">
        <ele>12.0</ele>
        <time>2021-10-21T15:16:11Z</time>
      </trkpt>
      <trkpt lat="37.4462950" lon="-6.0460740">
        <ele>11.8</ele>
        <time>2021-10-21T15:16:11Z</time>
      </trkpt>
      <trkpt lat="37.4462560" lon="-6.0460480">
        <ele>11.8</ele>
        <time>2021-10-21T15:16:11Z</time>
      </trkpt>
      <trkpt lat="37.4460610" lon="-6.0458990">
        <ele>11.7</ele>
        <time>2021-10-21T15:16:11Z</time>
      </trkpt>
      <trkpt lat="37.4459230" lon="-6.0457900">
        <ele>11.7</ele>
        <time>2021-10-21T15:16:11Z</time>
      </trkpt>
      <trkpt lat="37.4458790" lon="-6.0457560">
        <ele>11.6</ele>
        <time>2021-10-21T15:16:11Z</time>
      </trkpt>
      <trkpt lat="37.4455820" lon="-6.0455240">
        <ele>11.5</ele>
        <time>2021-10-21T15:16:11Z</time>
      </trkpt>
      <trkpt lat="37.4452010" lon="-6.0452250">
        <ele>11.4</ele>
        <time>2021-10-21T15:16:11Z</time>
      </trkpt>
      <trkpt lat="37.4449150" lon="-6.0450130">
        <ele>11.3</ele>
        <time>2021-10-21T15:16:11Z</time>
      </trkpt>
      <trkpt lat="37.4448830" lon="-6.0449890">
        <ele>11.3</ele>
        <time>2021-10-21T15:16:11Z</time>
      </trkpt>
      <trkpt lat="37.4447010" lon="-6.0448580">
        <ele>11.2</ele>
        <time>2021-10-21T15:16:11Z</time>
      </trkpt>
      <trkpt lat="37.4446140" lon="-6.0447780">
        <ele>11.1</ele>
        <time>2021-10-21T15:16:11Z</time>
      </trkpt>
      <trkpt lat="37.4444620" lon="-6.0446400">
        <ele>11.0</ele>
        <time>2021-10-21T15:16:11Z</time>
      </trkpt>
      <trkpt lat="37.4442730" lon="-6.0444610">
        <ele>11.0</ele>
        <time>2021-10-21T15:16:11Z</time>
      </trkpt>
      <trkpt lat="37.4442160" lon="-6.0444110">
        <ele>10.9</ele>
        <time>2021-10-21T15:16:11Z</time>
      </trkpt>
      <trkpt lat="37.4441060" lon="-6.0442890">
        <ele>10.9</ele>
        <time>2021-10-21T15:16:11Z</time>
      </trkpt>
      <trkpt lat="37.4439710" lon="-6.0441180">
        <ele>10.8</ele>
        <time>2021-10-21T15:16:11Z</time>
      </trkpt>
      <trkpt lat="37.4437670" lon="-6.0438300">
        <ele>10.7</ele>
        <time>2021-10-21T15:16:11Z</time>
      </trkpt>
      <trkpt lat="37.4435260" lon="-6.0434870">
        <ele>10.6</ele>
        <time>2021-10-21T15:16:11Z</time>
      </trkpt>
      <trkpt lat="37.4433540" lon="-6.0432300">
        <ele>10.6</ele>
        <time>2021-10-21T15:16:11Z</time>
      </trkpt>
      <trkpt lat="37.4433030" lon="-6.0431510">
        <ele>10.5</ele>
        <time>2021-10-21T15:16:11Z</time>
      </trkpt>
      <trkpt lat="37.4431800" lon="-6.0429650">
        <ele>10.5</ele>
        <time>2021-10-21T15:16:11Z</time>
      </trkpt>
      <trkpt lat="37.4430330" lon="-6.0427630">
        <ele>10.5</ele>
        <time>2021-10-21T15:16:11Z</time>
      </trkpt>
      <trkpt lat="37.4427210" lon="-6.0423730">
        <ele>10.4</ele>
        <time>2021-10-21T15:16:11Z</time>
      </trkpt>
      <trkpt lat="37.4424520" lon="-6.0420420">
        <ele>10.5</ele>
        <time>2021-10-21T15:16:11Z</time>
      </trkpt>
      <trkpt lat="37.4421570" lon="-6.0417500">
        <ele>10.7</ele>
        <time>2021-10-21T15:16:11Z</time>
      </trkpt>
      <trkpt lat="37.4419120" lon="-6.0415420">
        <ele>10.7</ele>
        <time>2021-10-21T15:16:11Z</time>
      </trkpt>
      <trkpt lat="37.4417800" lon="-6.0414240">
        <ele>10.8</ele>
        <time>2021-10-21T15:16:11Z</time>
      </trkpt>
      <trkpt lat="37.4415030" lon="-6.0411920">
        <ele>11.0</ele>
        <time>2021-10-21T15:16:11Z</time>
      </trkpt>
      <trkpt lat="37.4413180" lon="-6.0410680">
        <ele>11.1</ele>
        <time>2021-10-21T15:16:11Z</time>
      </trkpt>
      <trkpt lat="37.4412250" lon="-6.0410070">
        <ele>11.2</ele>
        <time>2021-10-21T15:16:11Z</time>
      </trkpt>
      <trkpt lat="37.4408260" lon="-6.0407840">
        <ele>12.2</ele>
        <time>2021-10-21T15:16:11Z</time>
      </trkpt>
      <trkpt lat="37.4407180" lon="-6.0407410">
        <ele>12.6</ele>
        <time>2021-10-21T15:16:11Z</time>
      </trkpt>
      <trkpt lat="37.4405180" lon="-6.0406580">
        <ele>13.5</ele>
        <time>2021-10-21T15:16:11Z</time>
      </trkpt>
      <trkpt lat="37.4403680" lon="-6.0406170">
        <ele>14.4</ele>
        <time>2021-10-21T15:16:11Z</time>
      </trkpt>
      <trkpt lat="37.4402800" lon="-6.0406070">
        <ele>14.9</ele>
        <time>2021-10-21T15:16:11Z</time>
      </trkpt>
      <trkpt lat="37.4401590" lon="-6.0406100">
        <ele>15.6</ele>
        <time>2021-10-21T15:16:11Z</time>
      </trkpt>
      <trkpt lat="37.4401370" lon="-6.0406210">
        <ele>15.8</ele>
        <time>2021-10-21T15:16:11Z</time>
      </trkpt>
      <trkpt lat="37.4400150" lon="-6.0406680">
        <ele>16.6</ele>
        <time>2021-10-21T15:16:11Z</time>
      </trkpt>
      <trkpt lat="37.4399420" lon="-6.0407070">
        <ele>17.1</ele>
        <time>2021-10-21T15:16:11Z</time>
      </trkpt>
      <trkpt lat="37.4398980" lon="-6.0407400">
        <ele>17.5</ele>
        <time>2021-10-21T15:16:11Z</time>
      </trkpt>
      <trkpt lat="37.4397520" lon="-6.0408370">
        <ele>18.4</ele>
        <time>2021-10-21T15:16:11Z</time>
      </trkpt>
      <trkpt lat="37.4397370" lon="-6.0408460">
        <ele>18.5</ele>
        <time>2021-10-21T15:16:11Z</time>
      </trkpt>
      <trkpt lat="37.4395820" lon="-6.0408970">
        <ele>19.3</ele>
        <time>2021-10-21T15:16:11Z</time>
      </trkpt>
      <trkpt lat="37.4394630" lon="-6.0409040">
        <ele>19.8</ele>
        <time>2021-10-21T15:16:11Z</time>
      </trkpt>
      <trkpt lat="37.4393560" lon="-6.0408910">
        <ele>20.1</ele>
        <time>2021-10-21T15:16:11Z</time>
      </trkpt>
      <trkpt lat="37.4393270" lon="-6.0408840">
        <ele>20.1</ele>
        <time>2021-10-21T15:16:11Z</time>
      </trkpt>
      <trkpt lat="37.4391340" lon="-6.0408320">
        <ele>20.6</ele>
        <time>2021-10-21T15:16:11Z</time>
      </trkpt>
      <trkpt lat="37.4390210" lon="-6.0407880">
        <ele>20.7</ele>
        <time>2021-10-21T15:16:11Z</time>
      </trkpt>
      <trkpt lat="37.4388640" lon="-6.0407280">
        <ele>20.9</ele>
        <time>2021-10-21T15:16:11Z</time>
      </trkpt>
      <trkpt lat="37.4388050" lon="-6.0407050">
        <ele>20.9</ele>
        <time>2021-10-21T15:16:11Z</time>
      </trkpt>
      <trkpt lat="37.4387440" lon="-6.0406830">
        <ele>21.0</ele>
        <time>2021-10-21T15:16:11Z</time>
      </trkpt>
      <trkpt lat="37.4386700" lon="-6.0406580">
        <ele>21.0</ele>
        <time>2021-10-21T15:16:11Z</time>
      </trkpt>
      <trkpt lat="37.4386090" lon="-6.0406300">
        <ele>21.0</ele>
        <time>2021-10-21T15:16:11Z</time>
      </trkpt>
      <trkpt lat="37.4385690" lon="-6.0406070">
        <ele>21.0</ele>
        <time>2021-10-21T15:16:11Z</time>
      </trkpt>
      <trkpt lat="37.4384450" lon="-6.0405470">
        <ele>21.1</ele>
        <time>2021-10-21T15:16:11Z</time>
      </trkpt>
      <trkpt lat="37.4383170" lon="-6.0404810">
        <ele>21.1</ele>
        <time>2021-10-21T15:16:11Z</time>
      </trkpt>
      <trkpt lat="37.4381230" lon="-6.0403720">
        <ele>21.1</ele>
        <time>2021-10-21T15:16:11Z</time>
      </trkpt>
      <trkpt lat="37.4380040" lon="-6.0402930">
        <ele>21.0</ele>
        <time>2021-10-21T15:16:11Z</time>
      </trkpt>
      <trkpt lat="37.4378750" lon="-6.0401700">
        <ele>20.8</ele>
        <time>2021-10-21T15:16:11Z</time>
      </trkpt>
      <trkpt lat="37.4376400" lon="-6.0398930">
        <ele>20.2</ele>
        <time>2021-10-21T15:16:11Z</time>
      </trkpt>
      <trkpt lat="37.4375200" lon="-6.0397420">
        <ele>19.7</ele>
        <time>2021-10-21T15:16:11Z</time>
      </trkpt>
      <trkpt lat="37.4374680" lon="-6.0396720">
        <ele>19.4</ele>
        <time>2021-10-21T15:16:11Z</time>
      </trkpt>
      <trkpt lat="37.4373690" lon="-6.0395370">
        <ele>18.9</ele>
        <time>2021-10-21T15:16:11Z</time>
      </trkpt>
      <trkpt lat="37.4373000" lon="-6.0394160">
        <ele>18.3</ele>
        <time>2021-10-21T15:16:11Z</time>
      </trkpt>
      <trkpt lat="37.4372800" lon="-6.0393710">
        <ele>18.1</ele>
        <time>2021-10-21T15:16:11Z</time>
      </trkpt>
      <trkpt lat="37.4372290" lon="-6.0391560">
        <ele>17.1</ele>
        <time>2021-10-21T15:16:11Z</time>
      </trkpt>
      <trkpt lat="37.4372240" lon="-6.0390820">
        <ele>16.7</ele>
        <time>2021-10-21T15:16:11Z</time>
      </trkpt>
      <trkpt lat="37.4372240" lon="-6.0390160">
        <ele>16.4</ele>
        <time>2021-10-21T15:16:11Z</time>
      </trkpt>
      <trkpt lat="37.4372170" lon="-6.0388140">
        <ele>15.5</ele>
        <time>2021-10-21T15:16:11Z</time>
      </trkpt>
      <trkpt lat="37.4372100" lon="-6.0387510">
        <ele>15.2</ele>
        <time>2021-10-21T15:16:11Z</time>
      </trkpt>
      <trkpt lat="37.4372010" lon="-6.0387000">
        <ele>15.0</ele>
        <time>2021-10-21T15:16:11Z</time>
      </trkpt>
      <trkpt lat="37.4371850" lon="-6.0386370">
        <ele>14.7</ele>
        <time>2021-10-21T15:16:11Z</time>
      </trkpt>
      <trkpt lat="37.4371650" lon="-6.0385750">
        <ele>14.4</ele>
        <time>2021-10-21T15:16:11Z</time>
      </trkpt>
      <trkpt lat="37.4371110" lon="-6.0384530">
        <ele>13.9</ele>
        <time>2021-10-21T15:16:11Z</time>
      </trkpt>
      <trkpt lat="37.4370230" lon="-6.0383420">
        <ele>13.6</ele>
        <time>2021-10-21T15:16:11Z</time>
      </trkpt>
      <trkpt lat="37.4369840" lon="-6.0383100">
        <ele>13.7</ele>
        <time>2021-10-21T15:16:11Z</time>
      </trkpt>
      <trkpt lat="37.4368730" lon="-6.0382240">
        <ele>13.8</ele>
        <time>2021-10-21T15:16:11Z</time>
      </trkpt>
      <trkpt lat="37.4368320" lon="-6.0381710">
        <ele>13.3</ele>
        <time>2021-10-21T15:16:11Z</time>
      </trkpt>
      <trkpt lat="37.4367950" lon="-6.0381150">
        <ele>13.0</ele>
        <time>2021-10-21T15:16:11Z</time>
      </trkpt>
      <trkpt lat="37.4366220" lon="-6.0379230">
        <ele>12.7</ele>
        <time>2021-10-21T15:16:11Z</time>
      </trkpt>
      <trkpt lat="37.4365440" lon="-6.0378440">
        <ele>12.7</ele>
        <time>2021-10-21T15:16:11Z</time>
      </trkpt>
      <trkpt lat="37.4363230" lon="-6.0376440">
        <ele>12.9</ele>
        <time>2021-10-21T15:16:11Z</time>
      </trkpt>
      <trkpt lat="37.4360800" lon="-6.0374510">
        <ele>13.4</ele>
        <time>2021-10-21T15:16:11Z</time>
      </trkpt>
      <trkpt lat="37.4358080" lon="-6.0372880">
        <ele>14.3</ele>
        <time>2021-10-21T15:16:11Z</time>
      </trkpt>
      <trkpt lat="37.4355810" lon="-6.0372390">
        <ele>15.2</ele>
        <time>2021-10-21T15:16:11Z</time>
      </trkpt>
      <trkpt lat="37.4353980" lon="-6.0373230">
        <ele>16.1</ele>
        <time>2021-10-21T15:16:11Z</time>
      </trkpt>
      <trkpt lat="37.4353310" lon="-6.0373720">
        <ele>16.4</ele>
        <time>2021-10-21T15:16:11Z</time>
      </trkpt>
      <trkpt lat="37.4352820" lon="-6.0374400">
        <ele>16.8</ele>
        <time>2021-10-21T15:16:11Z</time>
      </trkpt>
      <trkpt lat="37.4352000" lon="-6.0376340">
        <ele>17.5</ele>
        <time>2021-10-21T15:16:11Z</time>
      </trkpt>
      <trkpt lat="37.4351890" lon="-6.0376910">
        <ele>17.7</ele>
        <time>2021-10-21T15:16:11Z</time>
      </trkpt>
      <trkpt lat="37.4351280" lon="-6.0379290">
        <ele>18.2</ele>
        <time>2021-10-21T15:16:11Z</time>
      </trkpt>
      <trkpt lat="37.4350700" lon="-6.0381260">
        <ele>18.7</ele>
        <time>2021-10-21T15:16:11Z</time>
      </trkpt>
      <trkpt lat="37.4350510" lon="-6.0381970">
        <ele>18.8</ele>
        <time>2021-10-21T15:16:11Z</time>
      </trkpt>
      <trkpt lat="37.4349540" lon="-6.0385260">
        <ele>19.5</ele>
        <time>2021-10-21T15:16:11Z</time>
      </trkpt>
      <trkpt lat="37.4349020" lon="-6.0386820">
        <ele>19.7</ele>
        <time>2021-10-21T15:16:11Z</time>
      </trkpt>
      <trkpt lat="37.4348550" lon="-6.0388220">
        <ele>19.8</ele>
        <time>2021-10-21T15:16:11Z</time>
      </trkpt>
      <trkpt lat="37.4348270" lon="-6.0389410">
        <ele>19.9</ele>
        <time>2021-10-21T15:16:11Z</time>
      </trkpt>
      <trkpt lat="37.4347950" lon="-6.0389670">
        <ele>20.0</ele>
        <time>2021-10-21T15:16:11Z</time>
      </trkpt>
      <trkpt lat="37.4347470" lon="-6.0389860">
        <ele>20.0</ele>
        <time>2021-10-21T15:16:11Z</time>
      </trkpt>
      <trkpt lat="37.4346620" lon="-6.0389660">
        <ele>20.3</ele>
        <time>2021-10-21T15:16:11Z</time>
      </trkpt>
      <trkpt lat="37.4344810" lon="-6.0389440">
        <ele>20.3</ele>
        <time>2021-10-21T15:16:11Z</time>
      </trkpt>
      <trkpt lat="37.4341430" lon="-6.0389640">
        <ele>20.3</ele>
        <time>2021-10-21T15:16:11Z</time>
      </trkpt>
      <trkpt lat="37.4340900" lon="-6.0389730">
        <ele>20.3</ele>
        <time>2021-10-21T15:16:11Z</time>
      </trkpt>
      <trkpt lat="37.4339410" lon="-6.0389990">
        <ele>20.2</ele>
        <time>2021-10-21T15:16:11Z</time>
      </trkpt>
      <trkpt lat="37.4338010" lon="-6.0389870">
        <ele>20.1</ele>
        <time>2021-10-21T15:16:11Z</time>
      </trkpt>
      <trkpt lat="37.4336640" lon="-6.0389980">
        <ele>19.9</ele>
        <time>2021-10-21T15:16:11Z</time>
      </trkpt>
      <trkpt lat="37.4335900" lon="-6.0389990">
        <ele>19.8</ele>
        <time>2021-10-21T15:16:11Z</time>
      </trkpt>
      <trkpt lat="37.4335610" lon="-6.0389990">
        <ele>19.8</ele>
        <time>2021-10-21T15:16:11Z</time>
      </trkpt>
      <trkpt lat="37.4334550" lon="-6.0390020">
        <ele>19.7</ele>
        <time>2021-10-21T15:16:11Z</time>
      </trkpt>
      <trkpt lat="37.4333790" lon="-6.0390010">
        <ele>19.7</ele>
        <time>2021-10-21T15:16:11Z</time>
      </trkpt>
      <trkpt lat="37.4332910" lon="-6.0389920">
        <ele>19.6</ele>
        <time>2021-10-21T15:16:11Z</time>
      </trkpt>
      <trkpt lat="37.4330490" lon="-6.0389810">
        <ele>19.5</ele>
        <time>2021-10-21T15:16:11Z</time>
      </trkpt>
      <trkpt lat="37.4327510" lon="-6.0389330">
        <ele>19.2</ele>
        <time>2021-10-21T15:16:11Z</time>
      </trkpt>
      <trkpt lat="37.4324050" lon="-6.0388790">
        <ele>19.3</ele>
        <time>2021-10-21T15:16:11Z</time>
      </trkpt>
      <trkpt lat="37.4323360" lon="-6.0388680">
        <ele>19.4</ele>
        <time>2021-10-21T15:16:11Z</time>
      </trkpt>
      <trkpt lat="37.4322400" lon="-6.0388500">
        <ele>19.5</ele>
        <time>2021-10-21T15:16:11Z</time>
      </trkpt>
      <trkpt lat="37.4320970" lon="-6.0388220">
        <ele>19.5</ele>
        <time>2021-10-21T15:16:11Z</time>
      </trkpt>
      <trkpt lat="37.4319280" lon="-6.0388420">
        <ele>19.5</ele>
        <time>2021-10-21T15:16:11Z</time>
      </trkpt>
      <trkpt lat="37.4317820" lon="-6.0388220">
        <ele>19.4</ele>
        <time>2021-10-21T15:16:11Z</time>
      </trkpt>
      <trkpt lat="37.4315670" lon="-6.0387430">
        <ele>18.8</ele>
        <time>2021-10-21T15:16:11Z</time>
      </trkpt>
      <trkpt lat="37.4315370" lon="-6.0387520">
        <ele>18.8</ele>
        <time>2021-10-21T15:16:11Z</time>
      </trkpt>
      <trkpt lat="37.4314950" lon="-6.0387920">
        <ele>18.7</ele>
        <time>2021-10-21T15:16:11Z</time>
      </trkpt>
      <trkpt lat="37.4314310" lon="-6.0388150">
        <ele>18.6</ele>
        <time>2021-10-21T15:16:11Z</time>
      </trkpt>
      <trkpt lat="37.4313150" lon="-6.0388080">
        <ele>18.3</ele>
        <time>2021-10-21T15:16:11Z</time>
      </trkpt>
      <trkpt lat="37.4312860" lon="-6.0387960">
        <ele>18.2</ele>
        <time>2021-10-21T15:16:11Z</time>
      </trkpt>
      <trkpt lat="37.4311640" lon="-6.0387330">
        <ele>17.8</ele>
        <time>2021-10-21T15:16:11Z</time>
      </trkpt>
      <trkpt lat="37.4310510" lon="-6.0387160">
        <ele>17.4</ele>
        <time>2021-10-21T15:16:11Z</time>
      </trkpt>
      <trkpt lat="37.4308380" lon="-6.0386950">
        <ele>16.7</ele>
        <time>2021-10-21T15:16:11Z</time>
      </trkpt>
      <trkpt lat="37.4306560" lon="-6.0386780">
        <ele>16.2</ele>
        <time>2021-10-21T15:16:11Z</time>
      </trkpt>
      <trkpt lat="37.4305950" lon="-6.0386760">
        <ele>16.3</ele>
        <time>2021-10-21T15:16:11Z</time>
      </trkpt>
      <trkpt lat="37.4305730" lon="-6.0386860">
        <ele>16.3</ele>
        <time>2021-10-21T15:16:11Z</time>
      </trkpt>
      <trkpt lat="37.4304500" lon="-6.0386990">
        <ele>16.2</ele>
        <time>2021-10-21T15:16:11Z</time>
      </trkpt>
      <trkpt lat="37.4304170" lon="-6.0386950">
        <ele>16.1</ele>
        <time>2021-10-21T15:16:11Z</time>
      </trkpt>
      <trkpt lat="37.4302780" lon="-6.0387440">
        <ele>15.8</ele>
        <time>2021-10-21T15:16:11Z</time>
      </trkpt>
      <trkpt lat="37.4301060" lon="-6.0388010">
        <ele>15.5</ele>
        <time>2021-10-21T15:16:11Z</time>
      </trkpt>
      <trkpt lat="37.4299510" lon="-6.0387270">
        <ele>15.2</ele>
        <time>2021-10-21T15:16:11Z</time>
      </trkpt>
      <trkpt lat="37.4297960" lon="-6.0385900">
        <ele>14.9</ele>
        <time>2021-10-21T15:16:11Z</time>
      </trkpt>
      <trkpt lat="37.4297530" lon="-6.0385710">
        <ele>14.9</ele>
        <time>2021-10-21T15:16:11Z</time>
      </trkpt>
      <trkpt lat="37.4295410" lon="-6.0384900">
        <ele>14.8</ele>
        <time>2021-10-21T15:16:11Z</time>
      </trkpt>
      <trkpt lat="37.4295010" lon="-6.0384810">
        <ele>14.8</ele>
        <time>2021-10-21T15:16:11Z</time>
      </trkpt>
      <trkpt lat="37.4294270" lon="-6.0384740">
        <ele>14.8</ele>
        <time>2021-10-21T15:16:11Z</time>
      </trkpt>
      <trkpt lat="37.4293510" lon="-6.0384200">
        <ele>14.8</ele>
        <time>2021-10-21T15:16:11Z</time>
      </trkpt>
      <trkpt lat="37.4293490" lon="-6.0383210">
        <ele>14.8</ele>
        <time>2021-10-21T15:16:11Z</time>
      </trkpt>
      <trkpt lat="37.4293340" lon="-6.0382910">
        <ele>14.8</ele>
        <time>2021-10-21T15:16:11Z</time>
      </trkpt>
      <trkpt lat="37.4293040" lon="-6.0382780">
        <ele>14.8</ele>
        <time>2021-10-21T15:16:11Z</time>
      </trkpt>
      <trkpt lat="37.4291980" lon="-6.0382680">
        <ele>14.9</ele>
        <time>2021-10-21T15:16:11Z</time>
      </trkpt>
      <trkpt lat="37.4289220" lon="-6.0382390">
        <ele>15.0</ele>
        <time>2021-10-21T15:16:11Z</time>
      </trkpt>
      <trkpt lat="37.4286140" lon="-6.0381740">
        <ele>15.1</ele>
        <time>2021-10-21T15:16:11Z</time>
      </trkpt>
      <trkpt lat="37.4283300" lon="-6.0381250">
        <ele>15.2</ele>
        <time>2021-10-21T15:16:11Z</time>
      </trkpt>
      <trkpt lat="37.4281600" lon="-6.0380610">
        <ele>15.4</ele>
        <time>2021-10-21T15:16:11Z</time>
      </trkpt>
      <trkpt lat="37.4281270" lon="-6.0380440">
        <ele>15.4</ele>
        <time>2021-10-21T15:16:11Z</time>
      </trkpt>
      <trkpt lat="37.4280230" lon="-6.0379980">
        <ele>15.4</ele>
        <time>2021-10-21T15:16:11Z</time>
      </trkpt>
      <trkpt lat="37.4279040" lon="-6.0379850">
        <ele>15.4</ele>
        <time>2021-10-21T15:16:11Z</time>
      </trkpt>
      <trkpt lat="37.4275690" lon="-6.0380060">
        <ele>15.6</ele>
        <time>2021-10-21T15:16:11Z</time>
      </trkpt>
      <trkpt lat="37.4272100" lon="-6.0379840">
        <ele>15.7</ele>
        <time>2021-10-21T15:16:11Z</time>
      </trkpt>
      <trkpt lat="37.4268350" lon="-6.0379290">
        <ele>15.8</ele>
        <time>2021-10-21T15:16:11Z</time>
      </trkpt>
      <trkpt lat="37.4267590" lon="-6.0379110">
        <ele>15.8</ele>
        <time>2021-10-21T15:16:11Z</time>
      </trkpt>
      <trkpt lat="37.4265670" lon="-6.0378840">
        <ele>15.8</ele>
        <time>2021-10-21T15:16:11Z</time>
      </trkpt>
      <trkpt lat="37.4263830" lon="-6.0378580">
        <ele>15.8</ele>
        <time>2021-10-21T15:16:11Z</time>
      </trkpt>
      <trkpt lat="37.4263350" lon="-6.0378510">
        <ele>15.8</ele>
        <time>2021-10-21T15:16:11Z</time>
      </trkpt>
      <trkpt lat="37.4259140" lon="-6.0377910">
        <ele>15.9</ele>
        <time>2021-10-21T15:16:11Z</time>
      </trkpt>
      <trkpt lat="37.4253680" lon="-6.0377190">
        <ele>16.0</ele>
        <time>2021-10-21T15:16:11Z</time>
      </trkpt>
      <trkpt lat="37.4248250" lon="-6.0376460">
        <ele>16.3</ele>
        <time>2021-10-21T15:16:11Z</time>
      </trkpt>
      <trkpt lat="37.4247840" lon="-6.0376400">
        <ele>16.3</ele>
        <time>2021-10-21T15:16:11Z</time>
      </trkpt>
      <trkpt lat="37.4247430" lon="-6.0376330">
        <ele>16.3</ele>
        <time>2021-10-21T15:16:11Z</time>
      </trkpt>
      <trkpt lat="37.4245270" lon="-6.0376020">
        <ele>16.3</ele>
        <time>2021-10-21T15:16:11Z</time>
      </trkpt>
      <trkpt lat="37.4240880" lon="-6.0375310">
        <ele>16.4</ele>
        <time>2021-10-21T15:16:11Z</time>
      </trkpt>
      <trkpt lat="37.4239230" lon="-6.0375060">
        <ele>16.4</ele>
        <time>2021-10-21T15:16:11Z</time>
      </trkpt>
      <trkpt lat="37.4237560" lon="-6.0374740">
        <ele>16.4</ele>
        <time>2021-10-21T15:16:11Z</time>
      </trkpt>
      <trkpt lat="37.4234450" lon="-6.0374320">
        <ele>16.5</ele>
        <time>2021-10-21T15:16:11Z</time>
      </trkpt>
      <trkpt lat="37.4233120" lon="-6.0374100">
        <ele>16.6</ele>
        <time>2021-10-21T15:16:11Z</time>
      </trkpt>
      <trkpt lat="37.4232680" lon="-6.0374030">
        <ele>16.6</ele>
        <time>2021-10-21T15:16:11Z</time>
      </trkpt>
      <trkpt lat="37.4228610" lon="-6.0373280">
        <ele>16.6</ele>
        <time>2021-10-21T15:16:11Z</time>
      </trkpt>
      <trkpt lat="37.4227680" lon="-6.0373080">
        <ele>16.6</ele>
        <time>2021-10-21T15:16:11Z</time>
      </trkpt>
      <trkpt lat="37.4227230" lon="-6.0373020">
        <ele>16.6</ele>
        <time>2021-10-21T15:16:11Z</time>
      </trkpt>
      <trkpt lat="37.4226320" lon="-6.0373000">
        <ele>16.6</ele>
        <time>2021-10-21T15:16:11Z</time>
      </trkpt>
      <trkpt lat="37.4225460" lon="-6.0372770">
        <ele>16.6</ele>
        <time>2021-10-21T15:16:11Z</time>
      </trkpt>
      <trkpt lat="37.4222830" lon="-6.0372360">
        <ele>16.6</ele>
        <time>2021-10-21T15:16:11Z</time>
      </trkpt>
      <trkpt lat="37.4221660" lon="-6.0372190">
        <ele>16.6</ele>
        <time>2021-10-21T15:16:11Z</time>
      </trkpt>
      <trkpt lat="37.4218420" lon="-6.0371660">
        <ele>16.5</ele>
        <time>2021-10-21T15:16:11Z</time>
      </trkpt>
      <trkpt lat="37.4217780" lon="-6.0371570">
        <ele>16.5</ele>
        <time>2021-10-21T15:16:11Z</time>
      </trkpt>
      <trkpt lat="37.4216700" lon="-6.0371340">
        <ele>16.5</ele>
        <time>2021-10-21T15:16:11Z</time>
      </trkpt>
      <trkpt lat="37.4216550" lon="-6.0371280">
        <ele>16.5</ele>
        <time>2021-10-21T15:16:11Z</time>
      </trkpt>
      <trkpt lat="37.4216300" lon="-6.0371160">
        <ele>16.5</ele>
        <time>2021-10-21T15:16:11Z</time>
      </trkpt>
      <trkpt lat="37.4216440" lon="-6.0370270">
        <ele>16.5</ele>
        <time>2021-10-21T15:16:11Z</time>
      </trkpt>
      <trkpt lat="37.4216560" lon="-6.0369860">
        <ele>16.5</ele>
        <time>2021-10-21T15:16:11Z</time>
      </trkpt>
      <trkpt lat="37.4216790" lon="-6.0369350">
        <ele>16.5</ele>
        <time>2021-10-21T15:16:11Z</time>
      </trkpt>
      <trkpt lat="37.4216860" lon="-6.0369230">
        <ele>16.5</ele>
        <time>2021-10-21T15:16:11Z</time>
      </trkpt>
      <trkpt lat="37.4217080" lon="-6.0368890">
        <ele>16.5</ele>
        <time>2021-10-21T15:16:11Z</time>
      </trkpt>
      <trkpt lat="37.4216990" lon="-6.0369340">
        <ele>16.5</ele>
        <time>2021-10-21T15:16:11Z</time>
      </trkpt>
      <trkpt lat="37.4216610" lon="-6.0369700">
        <ele>16.5</ele>
        <time>2021-10-21T15:16:11Z</time>
      </trkpt>
      <trkpt lat="37.4214270" lon="-6.0370360">
        <ele>16.4</ele>
        <time>2021-10-21T15:16:11Z</time>
      </trkpt>
      <trkpt lat="37.4211210" lon="-6.0370420">
        <ele>16.4</ele>
        <time>2021-10-21T15:16:11Z</time>
      </trkpt>
      <trkpt lat="37.4208720" lon="-6.0370270">
        <ele>16.4</ele>
        <time>2021-10-21T15:16:11Z</time>
      </trkpt>
      <trkpt lat="37.4205600" lon="-6.0369750">
        <ele>16.3</ele>
        <time>2021-10-21T15:16:11Z</time>
      </trkpt>
      <trkpt lat="37.4201770" lon="-6.0369310">
        <ele>16.4</ele>
        <time>2021-10-21T15:16:11Z</time>
      </trkpt>
      <trkpt lat="37.4198160" lon="-6.0368740">
        <ele>16.5</ele>
        <time>2021-10-21T15:16:11Z</time>
      </trkpt>
      <trkpt lat="37.4194920" lon="-6.0368290">
        <ele>16.6</ele>
        <time>2021-10-21T15:16:11Z</time>
      </trkpt>
      <trkpt lat="37.4194570" lon="-6.0368250">
        <ele>16.6</ele>
        <time>2021-10-21T15:16:11Z</time>
      </trkpt>
      <trkpt lat="37.4191680" lon="-6.0367850">
        <ele>16.6</ele>
        <time>2021-10-21T15:16:11Z</time>
      </trkpt>
      <trkpt lat="37.4189250" lon="-6.0367370">
        <ele>16.7</ele>
        <time>2021-10-21T15:16:11Z</time>
      </trkpt>
      <trkpt lat="37.4186010" lon="-6.0366750">
        <ele>17.0</ele>
        <time>2021-10-21T15:16:11Z</time>
      </trkpt>
      <trkpt lat="37.4183780" lon="-6.0366390">
        <ele>17.3</ele>
        <time>2021-10-21T15:16:11Z</time>
      </trkpt>
      <trkpt lat="37.4183030" lon="-6.0366290">
        <ele>17.4</ele>
        <time>2021-10-21T15:16:11Z</time>
      </trkpt>
      <trkpt lat="37.4181180" lon="-6.0365990">
        <ele>17.5</ele>
        <time>2021-10-21T15:16:11Z</time>
      </trkpt>
      <trkpt lat="37.4178530" lon="-6.0365380">
        <ele>17.5</ele>
        <time>2021-10-21T15:16:11Z</time>
      </trkpt>
      <trkpt lat="37.4175800" lon="-6.0365100">
        <ele>17.5</ele>
        <time>2021-10-21T15:16:11Z</time>
      </trkpt>
      <trkpt lat="37.4173440" lon="-6.0364900">
        <ele>17.5</ele>
        <time>2021-10-21T15:16:11Z</time>
      </trkpt>
      <trkpt lat="37.4171890" lon="-6.0364700">
        <ele>17.5</ele>
        <time>2021-10-21T15:16:11Z</time>
      </trkpt>
      <trkpt lat="37.4171130" lon="-6.0364540">
        <ele>17.6</ele>
        <time>2021-10-21T15:16:11Z</time>
      </trkpt>
      <trkpt lat="37.4169710" lon="-6.0364340">
        <ele>17.7</ele>
        <time>2021-10-21T15:16:11Z</time>
      </trkpt>
      <trkpt lat="37.4168640" lon="-6.0364230">
        <ele>18.2</ele>
        <time>2021-10-21T15:16:11Z</time>
      </trkpt>
      <trkpt lat="37.4167800" lon="-6.0364190">
        <ele>18.5</ele>
        <time>2021-10-21T15:16:11Z</time>
      </trkpt>
      <trkpt lat="37.4167790" lon="-6.0364470">
        <ele>18.5</ele>
        <time>2021-10-21T15:16:11Z</time>
      </trkpt>
      <trkpt lat="37.4167840" lon="-6.0364650">
        <ele>18.5</ele>
        <time>2021-10-21T15:16:11Z</time>
      </trkpt>
      <trkpt lat="37.4167920" lon="-6.0365100">
        <ele>18.5</ele>
        <time>2021-10-21T15:16:11Z</time>
      </trkpt>
      <trkpt lat="37.4167670" lon="-6.0365430">
        <ele>18.6</ele>
        <time>2021-10-21T15:16:11Z</time>
      </trkpt>
      <trkpt lat="37.4166460" lon="-6.0365830">
        <ele>18.6</ele>
        <time>2021-10-21T15:16:11Z</time>
      </trkpt>
      <trkpt lat="37.4166300" lon="-6.0366110">
        <ele>18.7</ele>
        <time>2021-10-21T15:16:11Z</time>
      </trkpt>
      <trkpt lat="37.4166160" lon="-6.0367010">
        <ele>18.7</ele>
        <time>2021-10-21T15:16:11Z</time>
      </trkpt>
      <trkpt lat="37.4166120" lon="-6.0367970">
        <ele>18.7</ele>
        <time>2021-10-21T15:16:11Z</time>
      </trkpt>
      <trkpt lat="37.4165940" lon="-6.0368050">
        <ele>18.8</ele>
        <time>2021-10-21T15:16:11Z</time>
      </trkpt>
      <trkpt lat="37.4165390" lon="-6.0367120">
        <ele>18.8</ele>
        <time>2021-10-21T15:16:11Z</time>
      </trkpt>
      <trkpt lat="37.4164010" lon="-6.0365520">
        <ele>19.0</ele>
        <time>2021-10-21T15:16:11Z</time>
      </trkpt>
      <trkpt lat="37.4162910" lon="-6.0364550">
        <ele>19.0</ele>
        <time>2021-10-21T15:16:11Z</time>
      </trkpt>
      <trkpt lat="37.4162550" lon="-6.0364380">
        <ele>19.1</ele>
        <time>2021-10-21T15:16:11Z</time>
      </trkpt>
      <trkpt lat="37.4159380" lon="-6.0363740">
        <ele>19.1</ele>
        <time>2021-10-21T15:16:11Z</time>
      </trkpt>
      <trkpt lat="37.4157710" lon="-6.0363510">
        <ele>19.1</ele>
        <time>2021-10-21T15:16:11Z</time>
      </trkpt>
      <trkpt lat="37.4155630" lon="-6.0363250">
        <ele>19.1</ele>
        <time>2021-10-21T15:16:11Z</time>
      </trkpt>
      <trkpt lat="37.4154320" lon="-6.0363060">
        <ele>19.1</ele>
        <time>2021-10-21T15:16:11Z</time>
      </trkpt>
      <trkpt lat="37.4151230" lon="-6.0362720">
        <ele>19.2</ele>
        <time>2021-10-21T15:16:11Z</time>
      </trkpt>
      <trkpt lat="37.4149460" lon="-6.0362450">
        <ele>19.2</ele>
        <time>2021-10-21T15:16:11Z</time>
      </trkpt>
      <trkpt lat="37.4147280" lon="-6.0362200">
        <ele>19.2</ele>
        <time>2021-10-21T15:16:11Z</time>
      </trkpt>
      <trkpt lat="37.4143270" lon="-6.0361580">
        <ele>19.1</ele>
        <time>2021-10-21T15:16:11Z</time>
      </trkpt>
      <trkpt lat="37.4142810" lon="-6.0361510">
        <ele>19.1</ele>
        <time>2021-10-21T15:16:11Z</time>
      </trkpt>
      <trkpt lat="37.4138470" lon="-6.0360920">
        <ele>19.2</ele>
        <time>2021-10-21T15:16:11Z</time>
      </trkpt>
      <trkpt lat="37.4133940" lon="-6.0360220">
        <ele>19.2</ele>
        <time>2021-10-21T15:16:11Z</time>
      </trkpt>
      <trkpt lat="37.4128850" lon="-6.0359420">
        <ele>19.4</ele>
        <time>2021-10-21T15:16:11Z</time>
      </trkpt>
      <trkpt lat="37.4128390" lon="-6.0359350">
        <ele>19.5</ele>
        <time>2021-10-21T15:16:11Z</time>
      </trkpt>
      <trkpt lat="37.4124770" lon="-6.0358740">
        <ele>19.5</ele>
        <time>2021-10-21T15:16:11Z</time>
      </trkpt>
      <trkpt lat="37.4123890" lon="-6.0358560">
        <ele>19.5</ele>
        <time>2021-10-21T15:16:11Z</time>
      </trkpt>
      <trkpt lat="37.4122570" lon="-6.0358280">
        <ele>19.4</ele>
        <time>2021-10-21T15:16:11Z</time>
      </trkpt>
      <trkpt lat="37.4119910" lon="-6.0357930">
        <ele>19.1</ele>
        <time>2021-10-21T15:16:11Z</time>
      </trkpt>
      <trkpt lat="37.4119040" lon="-6.0357740">
        <ele>18.9</ele>
        <time>2021-10-21T15:16:11Z</time>
      </trkpt>
      <trkpt lat="37.4117720" lon="-6.0357520">
        <ele>18.5</ele>
        <time>2021-10-21T15:16:11Z</time>
      </trkpt>
      <trkpt lat="37.4114790" lon="-6.0357090">
        <ele>17.6</ele>
        <time>2021-10-21T15:16:11Z</time>
      </trkpt>
      <trkpt lat="37.4114290" lon="-6.0357040">
        <ele>17.4</ele>
        <time>2021-10-21T15:16:11Z</time>
      </trkpt>
      <trkpt lat="37.4111610" lon="-6.0356790">
        <ele>16.5</ele>
        <time>2021-10-21T15:16:11Z</time>
      </trkpt>
      <trkpt lat="37.4110170" lon="-6.0356730">
        <ele>16.0</ele>
        <time>2021-10-21T15:16:11Z</time>
      </trkpt>
      <trkpt lat="37.4109340" lon="-6.0356740">
        <ele>15.8</ele>
        <time>2021-10-21T15:16:11Z</time>
      </trkpt>
      <trkpt lat="37.4107310" lon="-6.0356790">
        <ele>15.4</ele>
        <time>2021-10-21T15:16:11Z</time>
      </trkpt>
      <trkpt lat="37.4106970" lon="-6.0356790">
        <ele>15.3</ele>
        <time>2021-10-21T15:16:11Z</time>
      </trkpt>
      <trkpt lat="37.4105710" lon="-6.0356870">
        <ele>15.2</ele>
        <time>2021-10-21T15:16:11Z</time>
      </trkpt>
      <trkpt lat="37.4105460" lon="-6.0356900">
        <ele>15.2</ele>
        <time>2021-10-21T15:16:11Z</time>
      </trkpt>
      <trkpt lat="37.4104640" lon="-6.0357060">
        <ele>15.1</ele>
        <time>2021-10-21T15:16:11Z</time>
      </trkpt>
      <trkpt lat="37.4104000" lon="-6.0357280">
        <ele>15.1</ele>
        <time>2021-10-21T15:16:11Z</time>
      </trkpt>
      <trkpt lat="37.4102890" lon="-6.0357820">
        <ele>15.1</ele>
        <time>2021-10-21T15:16:11Z</time>
      </trkpt>
      <trkpt lat="37.4102120" lon="-6.0358360">
        <ele>15.2</ele>
        <time>2021-10-21T15:16:11Z</time>
      </trkpt>
      <trkpt lat="37.4101640" lon="-6.0358880">
        <ele>15.2</ele>
        <time>2021-10-21T15:16:11Z</time>
      </trkpt>
      <trkpt lat="37.4100040" lon="-6.0360300">
        <ele>15.2</ele>
        <time>2021-10-21T15:16:11Z</time>
      </trkpt>
      <trkpt lat="37.4099490" lon="-6.0360830">
        <ele>15.2</ele>
        <time>2021-10-21T15:16:11Z</time>
      </trkpt>
      <trkpt lat="37.4098060" lon="-6.0362650">
        <ele>15.2</ele>
        <time>2021-10-21T15:16:11Z</time>
      </trkpt>
      <trkpt lat="37.4094820" lon="-6.0367540">
        <ele>15.8</ele>
        <time>2021-10-21T15:16:11Z</time>
      </trkpt>
      <trkpt lat="37.4094530" lon="-6.0367890">
        <ele>15.8</ele>
        <time>2021-10-21T15:16:11Z</time>
      </trkpt>
      <trkpt lat="37.4092730" lon="-6.0369820">
        <ele>16.5</ele>
        <time>2021-10-21T15:16:11Z</time>
      </trkpt>
      <trkpt lat="37.4091740" lon="-6.0370710">
        <ele>17.0</ele>
        <time>2021-10-21T15:16:11Z</time>
      </trkpt>
      <trkpt lat="37.4089500" lon="-6.0372420">
        <ele>18.3</ele>
        <time>2021-10-21T15:16:11Z</time>
      </trkpt>
      <trkpt lat="37.4089120" lon="-6.0372680">
        <ele>18.5</ele>
        <time>2021-10-21T15:16:11Z</time>
      </trkpt>
      <trkpt lat="37.4087570" lon="-6.0373590">
        <ele>19.2</ele>
        <time>2021-10-21T15:16:11Z</time>
      </trkpt>
      <trkpt lat="37.4086240" lon="-6.0374140">
        <ele>19.8</ele>
        <time>2021-10-21T15:16:11Z</time>
      </trkpt>
      <trkpt lat="37.4085210" lon="-6.0374570">
        <ele>20.2</ele>
        <time>2021-10-21T15:16:11Z</time>
      </trkpt>
      <trkpt lat="37.4083450" lon="-6.0375100">
        <ele>20.9</ele>
        <time>2021-10-21T15:16:11Z</time>
      </trkpt>
      <trkpt lat="37.4083100" lon="-6.0375190">
        <ele>21.0</ele>
        <time>2021-10-21T15:16:11Z</time>
      </trkpt>
      <trkpt lat="37.4081120" lon="-6.0375530">
        <ele>21.6</ele>
        <time>2021-10-21T15:16:11Z</time>
      </trkpt>
      <trkpt lat="37.4079350" lon="-6.0375670">
        <ele>21.9</ele>
        <time>2021-10-21T15:16:11Z</time>
      </trkpt>
      <trkpt lat="37.4078310" lon="-6.0375730">
        <ele>22.0</ele>
        <time>2021-10-21T15:16:11Z</time>
      </trkpt>
      <trkpt lat="37.4075940" lon="-6.0375750">
        <ele>21.9</ele>
        <time>2021-10-21T15:16:11Z</time>
      </trkpt>
      <trkpt lat="37.4073430" lon="-6.0375770">
        <ele>21.7</ele>
        <time>2021-10-21T15:16:11Z</time>
      </trkpt>
      <trkpt lat="37.4072550" lon="-6.0375760">
        <ele>21.5</ele>
        <time>2021-10-21T15:16:11Z</time>
      </trkpt>
      <trkpt lat="37.4070200" lon="-6.0375810">
        <ele>21.1</ele>
        <time>2021-10-21T15:16:11Z</time>
      </trkpt>
      <trkpt lat="37.4069210" lon="-6.0375790">
        <ele>20.8</ele>
        <time>2021-10-21T15:16:11Z</time>
      </trkpt>
      <trkpt lat="37.4068330" lon="-6.0375820">
        <ele>20.5</ele>
        <time>2021-10-21T15:16:11Z</time>
      </trkpt>
      <trkpt lat="37.4066800" lon="-6.0375840">
        <ele>20.0</ele>
        <time>2021-10-21T15:16:11Z</time>
      </trkpt>
      <trkpt lat="37.4064230" lon="-6.0375870">
        <ele>19.0</ele>
        <time>2021-10-21T15:16:11Z</time>
      </trkpt>
      <trkpt lat="37.4062570" lon="-6.0375850">
        <ele>18.4</ele>
        <time>2021-10-21T15:16:11Z</time>
      </trkpt>
      <trkpt lat="37.4060530" lon="-6.0375940">
        <ele>17.6</ele>
        <time>2021-10-21T15:16:11Z</time>
      </trkpt>
      <trkpt lat="37.4059480" lon="-6.0375940">
        <ele>17.4</ele>
        <time>2021-10-21T15:16:11Z</time>
      </trkpt>
      <trkpt lat="37.4056980" lon="-6.0375950">
        <ele>17.2</ele>
        <time>2021-10-21T15:16:11Z</time>
      </trkpt>
      <trkpt lat="37.4055920" lon="-6.0376150">
        <ele>17.1</ele>
        <time>2021-10-21T15:16:11Z</time>
      </trkpt>
      <trkpt lat="37.4054980" lon="-6.0376530">
        <ele>17.0</ele>
        <time>2021-10-21T15:16:11Z</time>
      </trkpt>
      <trkpt lat="37.4054180" lon="-6.0376820">
        <ele>16.9</ele>
        <time>2021-10-21T15:16:11Z</time>
      </trkpt>
      <trkpt lat="37.4053730" lon="-6.0376820">
        <ele>16.8</ele>
        <time>2021-10-21T15:16:11Z</time>
      </trkpt>
      <trkpt lat="37.4053210" lon="-6.0376700">
        <ele>16.7</ele>
        <time>2021-10-21T15:16:11Z</time>
      </trkpt>
      <trkpt lat="37.4052500" lon="-6.0376350">
        <ele>16.6</ele>
        <time>2021-10-21T15:16:11Z</time>
      </trkpt>
      <trkpt lat="37.4051990" lon="-6.0376200">
        <ele>16.6</ele>
        <time>2021-10-21T15:16:11Z</time>
      </trkpt>
      <trkpt lat="37.4051180" lon="-6.0376060">
        <ele>16.5</ele>
        <time>2021-10-21T15:16:11Z</time>
      </trkpt>
      <trkpt lat="37.4049130" lon="-6.0376080">
        <ele>16.5</ele>
        <time>2021-10-21T15:16:11Z</time>
      </trkpt>
      <trkpt lat="37.4046140" lon="-6.0376280">
        <ele>16.4</ele>
        <time>2021-10-21T15:16:11Z</time>
      </trkpt>
      <trkpt lat="37.4044980" lon="-6.0376390">
        <ele>16.4</ele>
        <time>2021-10-21T15:16:11Z</time>
      </trkpt>
      <trkpt lat="37.4041960" lon="-6.0376650">
        <ele>16.5</ele>
        <time>2021-10-21T15:16:11Z</time>
      </trkpt>
      <trkpt lat="37.4040710" lon="-6.0376810">
        <ele>16.6</ele>
        <time>2021-10-21T15:16:11Z</time>
      </trkpt>
      <trkpt lat="37.4037380" lon="-6.0377230">
        <ele>16.7</ele>
        <time>2021-10-21T15:16:11Z</time>
      </trkpt>
      <trkpt lat="37.4037020" lon="-6.0377310">
        <ele>16.7</ele>
        <time>2021-10-21T15:16:11Z</time>
      </trkpt>
      <trkpt lat="37.4034350" lon="-6.0377830">
        <ele>16.8</ele>
        <time>2021-10-21T15:16:11Z</time>
      </trkpt>
      <trkpt lat="37.4033860" lon="-6.0377920">
        <ele>16.8</ele>
        <time>2021-10-21T15:16:11Z</time>
      </trkpt>
      <trkpt lat="37.4033080" lon="-6.0378150">
        <ele>16.8</ele>
        <time>2021-10-21T15:16:11Z</time>
      </trkpt>
      <trkpt lat="37.4031750" lon="-6.0378640">
        <ele>17.0</ele>
        <time>2021-10-21T15:16:11Z</time>
      </trkpt>
      <trkpt lat="37.4030880" lon="-6.0378640">
        <ele>17.1</ele>
        <time>2021-10-21T15:16:11Z</time>
      </trkpt>
      <trkpt lat="37.4030500" lon="-6.0378580">
        <ele>17.1</ele>
        <time>2021-10-21T15:16:11Z</time>
      </trkpt>
      <trkpt lat="37.4028630" lon="-6.0378720">
        <ele>17.1</ele>
        <time>2021-10-21T15:16:11Z</time>
      </trkpt>
      <trkpt lat="37.4025420" lon="-6.0379160">
        <ele>17.1</ele>
        <time>2021-10-21T15:16:11Z</time>
      </trkpt>
      <trkpt lat="37.4024560" lon="-6.0379210">
        <ele>17.0</ele>
        <time>2021-10-21T15:16:11Z</time>
      </trkpt>
      <trkpt lat="37.4023000" lon="-6.0379260">
        <ele>17.0</ele>
        <time>2021-10-21T15:16:11Z</time>
      </trkpt>
      <trkpt lat="37.4022210" lon="-6.0379250">
        <ele>17.1</ele>
        <time>2021-10-21T15:16:11Z</time>
      </trkpt>
      <trkpt lat="37.4020760" lon="-6.0379160">
        <ele>17.1</ele>
        <time>2021-10-21T15:16:11Z</time>
      </trkpt>
      <trkpt lat="37.4020390" lon="-6.0379150">
        <ele>17.1</ele>
        <time>2021-10-21T15:16:11Z</time>
      </trkpt>
      <trkpt lat="37.4019590" lon="-6.0379310">
        <ele>17.1</ele>
        <time>2021-10-21T15:16:11Z</time>
      </trkpt>
      <trkpt lat="37.4018570" lon="-6.0379630">
        <ele>17.1</ele>
        <time>2021-10-21T15:16:11Z</time>
      </trkpt>
      <trkpt lat="37.4016210" lon="-6.0379430">
        <ele>16.9</ele>
        <time>2021-10-21T15:16:11Z</time>
      </trkpt>
      <trkpt lat="37.4014450" lon="-6.0379120">
        <ele>16.8</ele>
        <time>2021-10-21T15:16:11Z</time>
      </trkpt>
      <trkpt lat="37.4013730" lon="-6.0378920">
        <ele>16.8</ele>
        <time>2021-10-21T15:16:11Z</time>
      </trkpt>
      <trkpt lat="37.4013280" lon="-6.0378810">
        <ele>16.8</ele>
        <time>2021-10-21T15:16:11Z</time>
      </trkpt>
      <trkpt lat="37.4010490" lon="-6.0378010">
        <ele>16.8</ele>
        <time>2021-10-21T15:16:11Z</time>
      </trkpt>
      <trkpt lat="37.4009380" lon="-6.0377650">
        <ele>16.8</ele>
        <time>2021-10-21T15:16:11Z</time>
      </trkpt>
      <trkpt lat="37.4007180" lon="-6.0376810">
        <ele>16.9</ele>
        <time>2021-10-21T15:16:11Z</time>
      </trkpt>
      <trkpt lat="37.4006890" lon="-6.0376710">
        <ele>17.0</ele>
        <time>2021-10-21T15:16:11Z</time>
      </trkpt>
      <trkpt lat="37.4006730" lon="-6.0376560">
        <ele>17.0</ele>
        <time>2021-10-21T15:16:11Z</time>
      </trkpt>
      <trkpt lat="37.4006740" lon="-6.0376190">
        <ele>17.0</ele>
        <time>2021-10-21T15:16:11Z</time>
      </trkpt>
      <trkpt lat="37.4007280" lon="-6.0374520">
        <ele>17.1</ele>
        <time>2021-10-21T15:16:11Z</time>
      </trkpt>
      <trkpt lat="37.4007550" lon="-6.0373530">
        <ele>17.1</ele>
        <time>2021-10-21T15:16:11Z</time>
      </trkpt>
      <trkpt lat="37.4007480" lon="-6.0373320">
        <ele>17.1</ele>
        <time>2021-10-21T15:16:11Z</time>
      </trkpt>
      <trkpt lat="37.4007350" lon="-6.0373150">
        <ele>17.1</ele>
        <time>2021-10-21T15:16:11Z</time>
      </trkpt>
      <trkpt lat="37.4006980" lon="-6.0373090">
        <ele>16.5</ele>
        <time>2021-10-21T15:16:11Z</time>
      </trkpt>
      <trkpt lat="37.4006310" lon="-6.0371970">
        <ele>16.4</ele>
        <time>2021-10-21T15:16:11Z</time>
      </trkpt>
      <trkpt lat="37.4006610" lon="-6.0370190">
        <ele>16.1</ele>
        <time>2021-10-21T15:16:11Z</time>
      </trkpt>
      <trkpt lat="37.4006660" lon="-6.0369820">
        <ele>16.1</ele>
        <time>2021-10-21T15:16:11Z</time>
      </trkpt>
      <trkpt lat="37.4006420" lon="-6.0369220">
        <ele>16.1</ele>
        <time>2021-10-21T15:16:11Z</time>
      </trkpt>
      <trkpt lat="37.4005610" lon="-6.0369180">
        <ele>16.1</ele>
        <time>2021-10-21T15:16:11Z</time>
      </trkpt>
      <trkpt lat="37.4005350" lon="-6.0369270">
        <ele>16.1</ele>
        <time>2021-10-21T15:16:11Z</time>
      </trkpt>
      <trkpt lat="37.4004360" lon="-6.0369240">
        <ele>16.1</ele>
        <time>2021-10-21T15:16:11Z</time>
      </trkpt>
      <trkpt lat="37.4003890" lon="-6.0369000">
        <ele>16.1</ele>
        <time>2021-10-21T15:16:11Z</time>
      </trkpt>
      <trkpt lat="37.4003450" lon="-6.0368620">
        <ele>16.1</ele>
        <time>2021-10-21T15:16:11Z</time>
      </trkpt>
      <trkpt lat="37.4002810" lon="-6.0368100">
        <ele>16.0</ele>
        <time>2021-10-21T15:16:11Z</time>
      </trkpt>
      <trkpt lat="37.4002130" lon="-6.0366800">
        <ele>15.7</ele>
        <time>2021-10-21T15:16:11Z</time>
      </trkpt>
      <trkpt lat="37.3999920" lon="-6.0365720">
        <ele>15.4</ele>
        <time>2021-10-21T15:16:11Z</time>
      </trkpt>
      <trkpt lat="37.3997840" lon="-6.0364750">
        <ele>15.1</ele>
        <time>2021-10-21T15:16:11Z</time>
      </trkpt>
      <trkpt lat="37.3995580" lon="-6.0362810">
        <ele>14.6</ele>
        <time>2021-10-21T15:16:11Z</time>
      </trkpt>
      <trkpt lat="37.3993650" lon="-6.0361330">
        <ele>14.3</ele>
        <time>2021-10-21T15:16:11Z</time>
      </trkpt>
      <trkpt lat="37.3993280" lon="-6.0361020">
        <ele>14.2</ele>
        <time>2021-10-21T15:16:11Z</time>
      </trkpt>
      <trkpt lat="37.3991410" lon="-6.0359440">
        <ele>14.0</ele>
        <time>2021-10-21T15:16:11Z</time>
      </trkpt>
      <trkpt lat="37.3990800" lon="-6.0358670">
        <ele>13.9</ele>
        <time>2021-10-21T15:16:11Z</time>
      </trkpt>
      <trkpt lat="37.3990270" lon="-6.0358010">
        <ele>13.9</ele>
        <time>2021-10-21T15:16:11Z</time>
      </trkpt>
      <trkpt lat="37.3989300" lon="-6.0356890">
        <ele>13.7</ele>
        <time>2021-10-21T15:16:11Z</time>
      </trkpt>
      <trkpt lat="37.3988620" lon="-6.0356250">
        <ele>13.7</ele>
        <time>2021-10-21T15:16:11Z</time>
      </trkpt>
      <trkpt lat="37.3988080" lon="-6.0355520">
        <ele>13.6</ele>
        <time>2021-10-21T15:16:11Z</time>
      </trkpt>
      <trkpt lat="37.3987140" lon="-6.0354380">
        <ele>13.6</ele>
        <time>2021-10-21T15:16:11Z</time>
      </trkpt>
      <trkpt lat="37.3986440" lon="-6.0353520">
        <ele>13.5</ele>
        <time>2021-10-21T15:16:11Z</time>
      </trkpt>
      <trkpt lat="37.3985850" lon="-6.0352940">
        <ele>13.5</ele>
        <time>2021-10-21T15:16:11Z</time>
      </trkpt>
      <trkpt lat="37.3985460" lon="-6.0352750">
        <ele>13.5</ele>
        <time>2021-10-21T15:16:11Z</time>
      </trkpt>
      <trkpt lat="37.3984760" lon="-6.0352320">
        <ele>13.5</ele>
        <time>2021-10-21T15:16:11Z</time>
      </trkpt>
      <trkpt lat="37.3983920" lon="-6.0351280">
        <ele>13.4</ele>
        <time>2021-10-21T15:16:11Z</time>
      </trkpt>
      <trkpt lat="37.3983000" lon="-6.0350140">
        <ele>13.4</ele>
        <time>2021-10-21T15:16:11Z</time>
      </trkpt>
      <trkpt lat="37.3981860" lon="-6.0348180">
        <ele>13.4</ele>
        <time>2021-10-21T15:16:11Z</time>
      </trkpt>
      <trkpt lat="37.3981190" lon="-6.0346460">
        <ele>13.3</ele>
        <time>2021-10-21T15:16:11Z</time>
      </trkpt>
      <trkpt lat="37.3981140" lon="-6.0346380">
        <ele>13.4</ele>
        <time>2021-10-21T15:16:11Z</time>
      </trkpt>
      <trkpt lat="37.3981120" lon="-6.0346350">
        <ele>13.4</ele>
        <time>2021-10-21T15:16:11Z</time>
      </trkpt>
      <trkpt lat="37.3981040" lon="-6.0345820">
        <ele>13.4</ele>
        <time>2021-10-21T15:16:11Z</time>
      </trkpt>
      <trkpt lat="37.3980940" lon="-6.0345470">
        <ele>13.4</ele>
        <time>2021-10-21T15:16:11Z</time>
      </trkpt>
      <trkpt lat="37.3980420" lon="-6.0344950">
        <ele>13.4</ele>
        <time>2021-10-21T15:16:11Z</time>
      </trkpt>
      <trkpt lat="37.3979060" lon="-6.0344270">
        <ele>13.6</ele>
        <time>2021-10-21T15:16:11Z</time>
      </trkpt>
      <trkpt lat="37.3978450" lon="-6.0343950">
        <ele>13.4</ele>
        <time>2021-10-21T15:16:11Z</time>
      </trkpt>
      <trkpt lat="37.3977690" lon="-6.0343520">
        <ele>13.2</ele>
        <time>2021-10-21T15:16:11Z</time>
      </trkpt>
      <trkpt lat="37.3977460" lon="-6.0343160">
        <ele>13.1</ele>
        <time>2021-10-21T15:16:11Z</time>
      </trkpt>
      <trkpt lat="37.3976940" lon="-6.0342160">
        <ele>12.8</ele>
        <time>2021-10-21T15:16:11Z</time>
      </trkpt>
      <trkpt lat="37.3976750" lon="-6.0341750">
        <ele>12.7</ele>
        <time>2021-10-21T15:16:11Z</time>
      </trkpt>
      <trkpt lat="37.3976160" lon="-6.0340400">
        <ele>12.4</ele>
        <time>2021-10-21T15:16:11Z</time>
      </trkpt>
      <trkpt lat="37.3975120" lon="-6.0337820">
        <ele>11.8</ele>
        <time>2021-10-21T15:16:11Z</time>
      </trkpt>
      <trkpt lat="37.3974890" lon="-6.0337240">
        <ele>11.7</ele>
        <time>2021-10-21T15:16:11Z</time>
      </trkpt>
      <trkpt lat="37.3973700" lon="-6.0334350">
        <ele>11.3</ele>
        <time>2021-10-21T15:16:11Z</time>
      </trkpt>
      <trkpt lat="37.3972360" lon="-6.0330590">
        <ele>11.0</ele>
        <time>2021-10-21T15:16:11Z</time>
      </trkpt>
      <trkpt lat="37.3970990" lon="-6.0326910">
        <ele>10.7</ele>
        <time>2021-10-21T15:16:11Z</time>
      </trkpt>
      <trkpt lat="37.3970590" lon="-6.0325870">
        <ele>10.7</ele>
        <time>2021-10-21T15:16:11Z</time>
      </trkpt>
      <trkpt lat="37.3970090" lon="-6.0324300">
        <ele>10.6</ele>
        <time>2021-10-21T15:16:11Z</time>
      </trkpt>
      <trkpt lat="37.3969450" lon="-6.0322650">
        <ele>10.5</ele>
        <time>2021-10-21T15:16:11Z</time>
      </trkpt>
      <trkpt lat="37.3968340" lon="-6.0319700">
        <ele>10.4</ele>
        <time>2021-10-21T15:16:11Z</time>
      </trkpt>
      <trkpt lat="37.3968200" lon="-6.0319310">
        <ele>10.4</ele>
        <time>2021-10-21T15:16:11Z</time>
      </trkpt>
      <trkpt lat="37.3966570" lon="-6.0314940">
        <ele>10.3</ele>
        <time>2021-10-21T15:16:11Z</time>
      </trkpt>
      <trkpt lat="37.3965220" lon="-6.0311220">
        <ele>10.2</ele>
        <time>2021-10-21T15:16:11Z</time>
      </trkpt>
      <trkpt lat="37.3963650" lon="-6.0307240">
        <ele>10.0</ele>
        <time>2021-10-21T15:16:11Z</time>
      </trkpt>
      <trkpt lat="37.3962700" lon="-6.0304480">
        <ele>9.9</ele>
        <time>2021-10-21T15:16:11Z</time>
      </trkpt>
      <trkpt lat="37.3961560" lon="-6.0301280">
        <ele>9.9</ele>
        <time>2021-10-21T15:16:11Z</time>
      </trkpt>
      <trkpt lat="37.3960360" lon="-6.0298260">
        <ele>9.8</ele>
        <time>2021-10-21T15:16:11Z</time>
      </trkpt>
      <trkpt lat="37.3960280" lon="-6.0297430">
        <ele>9.8</ele>
        <time>2021-10-21T15:16:11Z</time>
      </trkpt>
      <trkpt lat="37.3960440" lon="-6.0297070">
        <ele>9.8</ele>
        <time>2021-10-21T15:16:11Z</time>
      </trkpt>
      <trkpt lat="37.3960820" lon="-6.0295950">
        <ele>9.7</ele>
        <time>2021-10-21T15:16:11Z</time>
      </trkpt>
      <trkpt lat="37.3960590" lon="-6.0294620">
        <ele>9.7</ele>
        <time>2021-10-21T15:16:11Z</time>
      </trkpt>
      <trkpt lat="37.3960280" lon="-6.0293820">
        <ele>9.6</ele>
        <time>2021-10-21T15:16:11Z</time>
      </trkpt>
      <trkpt lat="37.3959990" lon="-6.0292990">
        <ele>9.6</ele>
        <time>2021-10-21T15:16:11Z</time>
      </trkpt>
      <trkpt lat="37.3958690" lon="-6.0289640">
        <ele>9.6</ele>
        <time>2021-10-21T15:16:11Z</time>
      </trkpt>
      <trkpt lat="37.3956920" lon="-6.0284870">
        <ele>9.6</ele>
        <time>2021-10-21T15:16:11Z</time>
      </trkpt>
      <trkpt lat="37.3955630" lon="-6.0281860">
        <ele>9.6</ele>
        <time>2021-10-21T15:16:11Z</time>
      </trkpt>
      <trkpt lat="37.3954960" lon="-6.0279620">
        <ele>9.7</ele>
        <time>2021-10-21T15:16:11Z</time>
      </trkpt>
      <trkpt lat="37.3954960" lon="-6.0279300">
        <ele>9.7</ele>
        <time>2021-10-21T15:16:11Z</time>
      </trkpt>
      <trkpt lat="37.3955040" lon="-6.0279100">
        <ele>9.7</ele>
        <time>2021-10-21T15:16:11Z</time>
      </trkpt>
      <trkpt lat="37.3955220" lon="-6.0278690">
        <ele>9.7</ele>
        <time>2021-10-21T15:16:11Z</time>
      </trkpt>
      <trkpt lat="37.3955170" lon="-6.0278050">
        <ele>9.7</ele>
        <time>2021-10-21T15:16:11Z</time>
      </trkpt>
      <trkpt lat="37.3955030" lon="-6.0277760">
        <ele>9.7</ele>
        <time>2021-10-21T15:16:11Z</time>
      </trkpt>
      <trkpt lat="37.3954510" lon="-6.0275990">
        <ele>9.7</ele>
        <time>2021-10-21T15:16:11Z</time>
      </trkpt>
      <trkpt lat="37.3953470" lon="-6.0275410">
        <ele>9.6</ele>
        <time>2021-10-21T15:16:11Z</time>
      </trkpt>
      <trkpt lat="37.3952430" lon="-6.0274380">
        <ele>9.5</ele>
        <time>2021-10-21T15:16:11Z</time>
      </trkpt>
      <trkpt lat="37.3951510" lon="-6.0272040">
        <ele>9.4</ele>
        <time>2021-10-21T15:16:11Z</time>
      </trkpt>
      <trkpt lat="37.3950570" lon="-6.0269190">
        <ele>9.3</ele>
        <time>2021-10-21T15:16:11Z</time>
      </trkpt>
      <trkpt lat="37.3950230" lon="-6.0267920">
        <ele>9.3</ele>
        <time>2021-10-21T15:16:11Z</time>
      </trkpt>
      <trkpt lat="37.3948930" lon="-6.0264070">
        <ele>9.2</ele>
        <time>2021-10-21T15:16:11Z</time>
      </trkpt>
      <trkpt lat="37.3948230" lon="-6.0261830">
        <ele>9.2</ele>
        <time>2021-10-21T15:16:11Z</time>
      </trkpt>
      <trkpt lat="37.3947920" lon="-6.0260050">
        <ele>9.1</ele>
        <time>2021-10-21T15:16:11Z</time>
      </trkpt>
      <trkpt lat="37.3947660" lon="-6.0258380">
        <ele>9.0</ele>
        <time>2021-10-21T15:16:11Z</time>
      </trkpt>
      <trkpt lat="37.3947220" lon="-6.0257300">
        <ele>9.0</ele>
        <time>2021-10-21T15:16:11Z</time>
      </trkpt>
      <trkpt lat="37.3945950" lon="-6.0253990">
        <ele>9.3</ele>
        <time>2021-10-21T15:16:11Z</time>
      </trkpt>
      <trkpt lat="37.3945770" lon="-6.0253420">
        <ele>9.4</ele>
        <time>2021-10-21T15:16:11Z</time>
      </trkpt>
      <trkpt lat="37.3945610" lon="-6.0252860">
        <ele>9.4</ele>
        <time>2021-10-21T15:16:11Z</time>
      </trkpt>
      <trkpt lat="37.3945320" lon="-6.0251970">
        <ele>9.5</ele>
        <time>2021-10-21T15:16:11Z</time>
      </trkpt>
      <trkpt lat="37.3945320" lon="-6.0251330">
        <ele>9.6</ele>
        <time>2021-10-21T15:16:11Z</time>
      </trkpt>
      <trkpt lat="37.3945390" lon="-6.0250810">
        <ele>9.6</ele>
        <time>2021-10-21T15:16:11Z</time>
      </trkpt>
      <trkpt lat="37.3945400" lon="-6.0249640">
        <ele>9.7</ele>
        <time>2021-10-21T15:16:11Z</time>
      </trkpt>
      <trkpt lat="37.3945340" lon="-6.0249250">
        <ele>9.7</ele>
        <time>2021-10-21T15:16:11Z</time>
      </trkpt>
      <trkpt lat="37.3945330" lon="-6.0249180">
        <ele>9.7</ele>
        <time>2021-10-21T15:16:11Z</time>
      </trkpt>
      <trkpt lat="37.3945210" lon="-6.0248780">
        <ele>9.7</ele>
        <time>2021-10-21T15:16:11Z</time>
      </trkpt>
      <trkpt lat="37.3945070" lon="-6.0248490">
        <ele>9.7</ele>
        <time>2021-10-21T15:16:11Z</time>
      </trkpt>
      <trkpt lat="37.3944950" lon="-6.0248180">
        <ele>9.7</ele>
        <time>2021-10-21T15:16:11Z</time>
      </trkpt>
      <trkpt lat="37.3944180" lon="-6.0246090">
        <ele>9.1</ele>
        <time>2021-10-21T15:16:11Z</time>
      </trkpt>
      <trkpt lat="37.3943360" lon="-6.0243890">
        <ele>8.4</ele>
        <time>2021-10-21T15:16:11Z</time>
      </trkpt>
      <trkpt lat="37.3942930" lon="-6.0242700">
        <ele>8.1</ele>
        <time>2021-10-21T15:16:11Z</time>
      </trkpt>
      <trkpt lat="37.3942280" lon="-6.0240860">
        <ele>7.7</ele>
        <time>2021-10-21T15:16:11Z</time>
      </trkpt>
      <trkpt lat="37.3941390" lon="-6.0238410">
        <ele>7.6</ele>
        <time>2021-10-21T15:16:11Z</time>
      </trkpt>
      <trkpt lat="37.3940940" lon="-6.0237240">
        <ele>7.6</ele>
        <time>2021-10-21T15:16:11Z</time>
      </trkpt>
      <trkpt lat="37.3938500" lon="-6.0230530">
        <ele>7.5</ele>
        <time>2021-10-21T15:16:11Z</time>
      </trkpt>
      <trkpt lat="37.3937660" lon="-6.0228240">
        <ele>7.5</ele>
        <time>2021-10-21T15:16:11Z</time>
      </trkpt>
      <trkpt lat="37.3936970" lon="-6.0226290">
        <ele>7.6</ele>
        <time>2021-10-21T15:16:11Z</time>
      </trkpt>
      <trkpt lat="37.3935870" lon="-6.0223200">
        <ele>7.6</ele>
        <time>2021-10-21T15:16:11Z</time>
      </trkpt>
      <trkpt lat="37.3933830" lon="-6.0216960">
        <ele>7.6</ele>
        <time>2021-10-21T15:16:11Z</time>
      </trkpt>
      <trkpt lat="37.3932310" lon="-6.0210440">
        <ele>7.8</ele>
        <time>2021-10-21T15:16:11Z</time>
      </trkpt>
      <trkpt lat="37.3932160" lon="-6.0209760">
        <ele>7.8</ele>
        <time>2021-10-21T15:16:11Z</time>
      </trkpt>
      <trkpt lat="37.3930700" lon="-6.0203220">
        <ele>8.7</ele>
        <time>2021-10-21T15:16:11Z</time>
      </trkpt>
      <trkpt lat="37.3930430" lon="-6.0202040">
        <ele>9.0</ele>
        <time>2021-10-21T15:16:11Z</time>
      </trkpt>
      <trkpt lat="37.3930070" lon="-6.0200480">
        <ele>9.4</ele>
        <time>2021-10-21T15:16:11Z</time>
      </trkpt>
      <trkpt lat="37.3929720" lon="-6.0199090">
        <ele>9.8</ele>
        <time>2021-10-21T15:16:11Z</time>
      </trkpt>
      <trkpt lat="37.3929270" lon="-6.0196690">
        <ele>10.5</ele>
        <time>2021-10-21T15:16:11Z</time>
      </trkpt>
      <trkpt lat="37.3928950" lon="-6.0195190">
        <ele>10.9</ele>
        <time>2021-10-21T15:16:11Z</time>
      </trkpt>
      <trkpt lat="37.3928370" lon="-6.0192310">
        <ele>11.8</ele>
        <time>2021-10-21T15:16:11Z</time>
      </trkpt>
      <trkpt lat="37.3928250" lon="-6.0191820">
        <ele>12.0</ele>
        <time>2021-10-21T15:16:11Z</time>
      </trkpt>
      <trkpt lat="37.3927530" lon="-6.0188740">
        <ele>13.0</ele>
        <time>2021-10-21T15:16:11Z</time>
      </trkpt>
      <trkpt lat="37.3927360" lon="-6.0187890">
        <ele>13.2</ele>
        <time>2021-10-21T15:16:11Z</time>
      </trkpt>
      <trkpt lat="37.3927180" lon="-6.0187200">
        <ele>13.4</ele>
        <time>2021-10-21T15:16:11Z</time>
      </trkpt>
      <trkpt lat="37.3926890" lon="-6.0186060">
        <ele>13.6</ele>
        <time>2021-10-21T15:16:11Z</time>
      </trkpt>
      <trkpt lat="37.3926750" lon="-6.0185480">
        <ele>13.8</ele>
        <time>2021-10-21T15:16:11Z</time>
      </trkpt>
      <trkpt lat="37.3926430" lon="-6.0184200">
        <ele>14.0</ele>
        <time>2021-10-21T15:16:11Z</time>
      </trkpt>
      <trkpt lat="37.3925890" lon="-6.0181700">
        <ele>14.0</ele>
        <time>2021-10-21T15:16:11Z</time>
      </trkpt>
      <trkpt lat="37.3925760" lon="-6.0181060">
        <ele>14.1</ele>
        <time>2021-10-21T15:16:11Z</time>
      </trkpt>
      <trkpt lat="37.3925630" lon="-6.0180240">
        <ele>14.1</ele>
        <time>2021-10-21T15:16:11Z</time>
      </trkpt>
      <trkpt lat="37.3925470" lon="-6.0179490">
        <ele>14.1</ele>
        <time>2021-10-21T15:16:11Z</time>
      </trkpt>
      <trkpt lat="37.3925210" lon="-6.0178420">
        <ele>14.1</ele>
        <time>2021-10-21T15:16:11Z</time>
      </trkpt>
      <trkpt lat="37.3925040" lon="-6.0177740">
        <ele>14.1</ele>
        <time>2021-10-21T15:16:11Z</time>
      </trkpt>
      <trkpt lat="37.3924840" lon="-6.0176680">
        <ele>14.1</ele>
        <time>2021-10-21T15:16:11Z</time>
      </trkpt>
      <trkpt lat="37.3924550" lon="-6.0175070">
        <ele>14.1</ele>
        <time>2021-10-21T15:16:11Z</time>
      </trkpt>
      <trkpt lat="37.3924580" lon="-6.0174810">
        <ele>14.1</ele>
        <time>2021-10-21T15:16:11Z</time>
      </trkpt>
      <trkpt lat="37.3924550" lon="-6.0174630">
        <ele>14.1</ele>
        <time>2021-10-21T15:16:11Z</time>
      </trkpt>
      <trkpt lat="37.3924330" lon="-6.0174330">
        <ele>14.1</ele>
        <time>2021-10-21T15:16:11Z</time>
      </trkpt>
      <trkpt lat="37.3924280" lon="-6.0174120">
        <ele>14.1</ele>
        <time>2021-10-21T15:16:11Z</time>
      </trkpt>
      <trkpt lat="37.3924180" lon="-6.0173690">
        <ele>14.1</ele>
        <time>2021-10-21T15:16:11Z</time>
      </trkpt>
      <trkpt lat="37.3923790" lon="-6.0172400">
        <ele>14.1</ele>
        <time>2021-10-21T15:16:11Z</time>
      </trkpt>
      <trkpt lat="37.3923720" lon="-6.0172050">
        <ele>14.1</ele>
        <time>2021-10-21T15:16:11Z</time>
      </trkpt>
      <trkpt lat="37.3923060" lon="-6.0169260">
        <ele>14.1</ele>
        <time>2021-10-21T15:16:11Z</time>
      </trkpt>
      <trkpt lat="37.3922440" lon="-6.0166590">
        <ele>14.1</ele>
        <time>2021-10-21T15:16:11Z</time>
      </trkpt>
      <trkpt lat="37.3922250" lon="-6.0165620">
        <ele>14.1</ele>
        <time>2021-10-21T15:16:11Z</time>
      </trkpt>
      <trkpt lat="37.3921650" lon="-6.0162770">
        <ele>14.1</ele>
        <time>2021-10-21T15:16:11Z</time>
      </trkpt>
      <trkpt lat="37.3921240" lon="-6.0160950">
        <ele>14.1</ele>
        <time>2021-10-21T15:16:11Z</time>
      </trkpt>
      <trkpt lat="37.3920490" lon="-6.0157510">
        <ele>13.9</ele>
        <time>2021-10-21T15:16:11Z</time>
      </trkpt>
      <trkpt lat="37.3920250" lon="-6.0156510">
        <ele>13.8</ele>
        <time>2021-10-21T15:16:11Z</time>
      </trkpt>
      <trkpt lat="37.3919470" lon="-6.0152540">
        <ele>12.9</ele>
        <time>2021-10-21T15:16:11Z</time>
      </trkpt>
      <trkpt lat="37.3919410" lon="-6.0151960">
        <ele>12.7</ele>
        <time>2021-10-21T15:16:11Z</time>
      </trkpt>
      <trkpt lat="37.3919370" lon="-6.0150140">
        <ele>11.9</ele>
        <time>2021-10-21T15:16:11Z</time>
      </trkpt>
      <trkpt lat="37.3919430" lon="-6.0149410">
        <ele>11.6</ele>
        <time>2021-10-21T15:16:11Z</time>
      </trkpt>
      <trkpt lat="37.3919630" lon="-6.0148310">
        <ele>11.1</ele>
        <time>2021-10-21T15:16:11Z</time>
      </trkpt>
      <trkpt lat="37.3919810" lon="-6.0147700">
        <ele>10.8</ele>
        <time>2021-10-21T15:16:11Z</time>
      </trkpt>
      <trkpt lat="37.3920490" lon="-6.0145990">
        <ele>10.1</ele>
        <time>2021-10-21T15:16:11Z</time>
      </trkpt>
      <trkpt lat="37.3920740" lon="-6.0145480">
        <ele>10.0</ele>
        <time>2021-10-21T15:16:11Z</time>
      </trkpt>
      <trkpt lat="37.3921010" lon="-6.0144990">
        <ele>9.8</ele>
        <time>2021-10-21T15:16:11Z</time>
      </trkpt>
      <trkpt lat="37.3921320" lon="-6.0144520">
        <ele>9.7</ele>
        <time>2021-10-21T15:16:11Z</time>
      </trkpt>
      <trkpt lat="37.3921720" lon="-6.0144040">
        <ele>9.6</ele>
        <time>2021-10-21T15:16:11Z</time>
      </trkpt>
      <trkpt lat="37.3922690" lon="-6.0143080">
        <ele>9.4</ele>
        <time>2021-10-21T15:16:11Z</time>
      </trkpt>
      <trkpt lat="37.3923210" lon="-6.0142020">
        <ele>8.8</ele>
        <time>2021-10-21T15:16:11Z</time>
      </trkpt>
      <trkpt lat="37.3923120" lon="-6.0141610">
        <ele>8.2</ele>
        <time>2021-10-21T15:16:11Z</time>
      </trkpt>
      <trkpt lat="37.3922360" lon="-6.0140560">
        <ele>7.7</ele>
        <time>2021-10-21T15:16:11Z</time>
      </trkpt>
      <trkpt lat="37.3921950" lon="-6.0140470">
        <ele>7.6</ele>
        <time>2021-10-21T15:16:11Z</time>
      </trkpt>
      <trkpt lat="37.3919090" lon="-6.0140790">
        <ele>7.1</ele>
        <time>2021-10-21T15:16:11Z</time>
      </trkpt>
      <trkpt lat="37.3916460" lon="-6.0141180">
        <ele>6.9</ele>
        <time>2021-10-21T15:16:11Z</time>
      </trkpt>
      <trkpt lat="37.3914790" lon="-6.0140800">
        <ele>6.7</ele>
        <time>2021-10-21T15:16:11Z</time>
      </trkpt>
      <trkpt lat="37.3914570" lon="-6.0140490">
        <ele>6.7</ele>
        <time>2021-10-21T15:16:11Z</time>
      </trkpt>
      <trkpt lat="37.3914370" lon="-6.0139790">
        <ele>6.6</ele>
        <time>2021-10-21T15:16:11Z</time>
      </trkpt>
      <trkpt lat="37.3914070" lon="-6.0138650">
        <ele>6.5</ele>
        <time>2021-10-21T15:16:11Z</time>
      </trkpt>
      <trkpt lat="37.3914190" lon="-6.0139120">
        <ele>6.4</ele>
        <time>2021-10-21T15:16:11Z</time>
      </trkpt>
      <trkpt lat="37.3914310" lon="-6.0139580">
        <ele>6.4</ele>
        <time>2021-10-21T15:16:11Z</time>
      </trkpt>
      <trkpt lat="37.3914430" lon="-6.0140040">
        <ele>6.4</ele>
        <time>2021-10-21T15:16:11Z</time>
      </trkpt>
      <trkpt lat="37.3914590" lon="-6.0140610">
        <ele>6.3</ele>
        <time>2021-10-21T15:16:11Z</time>
      </trkpt>
      <trkpt lat="37.3915250" lon="-6.0141510">
        <ele>6.2</ele>
        <time>2021-10-21T15:16:11Z</time>
      </trkpt>
      <trkpt lat="37.3916170" lon="-6.0141700">
        <ele>6.3</ele>
        <time>2021-10-21T15:16:11Z</time>
      </trkpt>
      <trkpt lat="37.3916650" lon="-6.0141670">
        <ele>6.4</ele>
        <time>2021-10-21T15:16:11Z</time>
      </trkpt>
      <trkpt lat="37.3917490" lon="-6.0141510">
        <ele>6.6</ele>
        <time>2021-10-21T15:16:11Z</time>
      </trkpt>
      <trkpt lat="37.3919550" lon="-6.0140990">
        <ele>6.9</ele>
        <time>2021-10-21T15:16:11Z</time>
      </trkpt>
      <trkpt lat="37.3920510" lon="-6.0140880">
        <ele>7.1</ele>
        <time>2021-10-21T15:16:11Z</time>
      </trkpt>
      <trkpt lat="37.3922320" lon="-6.0140450">
        <ele>7.7</ele>
        <time>2021-10-21T15:16:11Z</time>
      </trkpt>
      <trkpt lat="37.3925890" lon="-6.0139490">
        <ele>9.2</ele>
        <time>2021-10-21T15:16:11Z</time>
      </trkpt>
      <trkpt lat="37.3927020" lon="-6.0139230">
        <ele>9.3</ele>
        <time>2021-10-21T15:16:11Z</time>
      </trkpt>
      <trkpt lat="37.3927730" lon="-6.0138930">
        <ele>9.4</ele>
        <time>2021-10-21T15:16:11Z</time>
      </trkpt>
      <trkpt lat="37.3928000" lon="-6.0138130">
        <ele>9.3</ele>
        <time>2021-10-21T15:16:11Z</time>
      </trkpt>
      <trkpt lat="37.3927420" lon="-6.0134710">
        <ele>9.3</ele>
        <time>2021-10-21T15:16:11Z</time>
      </trkpt>
      <trkpt lat="37.3927270" lon="-6.0133850">
        <ele>9.4</ele>
        <time>2021-10-21T15:16:11Z</time>
      </trkpt>
      <trkpt lat="37.3927040" lon="-6.0132310">
        <ele>9.5</ele>
        <time>2021-10-21T15:16:11Z</time>
      </trkpt>
      <trkpt lat="37.3926560" lon="-6.0128750">
        <ele>10.8</ele>
        <time>2021-10-21T15:16:11Z</time>
      </trkpt>
      <trkpt lat="37.3926410" lon="-6.0128130">
        <ele>11.2</ele>
        <time>2021-10-21T15:16:11Z</time>
      </trkpt>
      <trkpt lat="37.3926020" lon="-6.0126690">
        <ele>12.1</ele>
        <time>2021-10-21T15:16:11Z</time>
      </trkpt>
      <trkpt lat="37.3925920" lon="-6.0126340">
        <ele>12.3</ele>
        <time>2021-10-21T15:16:11Z</time>
      </trkpt>
      <trkpt lat="37.3925790" lon="-6.0125790">
        <ele>12.7</ele>
        <time>2021-10-21T15:16:11Z</time>
      </trkpt>
      <trkpt lat="37.3925750" lon="-6.0125510">
        <ele>12.8</ele>
        <time>2021-10-21T15:16:11Z</time>
      </trkpt>
      <trkpt lat="37.3925640" lon="-6.0125040">
        <ele>13.1</ele>
        <time>2021-10-21T15:16:11Z</time>
      </trkpt>
      <trkpt lat="37.3925490" lon="-6.0124490">
        <ele>13.3</ele>
        <time>2021-10-21T15:16:11Z</time>
      </trkpt>
      <trkpt lat="37.3925090" lon="-6.0123660">
        <ele>13.5</ele>
        <time>2021-10-21T15:16:11Z</time>
      </trkpt>
      <trkpt lat="37.3924690" lon="-6.0123220">
        <ele>13.6</ele>
        <time>2021-10-21T15:16:11Z</time>
      </trkpt>
      <trkpt lat="37.3924350" lon="-6.0122080">
        <ele>13.5</ele>
        <time>2021-10-21T15:16:11Z</time>
      </trkpt>
      <trkpt lat="37.3924200" lon="-6.0121400">
        <ele>13.5</ele>
        <time>2021-10-21T15:16:11Z</time>
      </trkpt>
      <trkpt lat="37.3924000" lon="-6.0120560">
        <ele>13.3</ele>
        <time>2021-10-21T15:16:11Z</time>
      </trkpt>
      <trkpt lat="37.3923810" lon="-6.0118960">
        <ele>13.0</ele>
        <time>2021-10-21T15:16:11Z</time>
      </trkpt>
      <trkpt lat="37.3923330" lon="-6.0116430">
        <ele>12.5</ele>
        <time>2021-10-21T15:16:11Z</time>
      </trkpt>
      <trkpt lat="37.3923090" lon="-6.0115010">
        <ele>12.3</ele>
        <time>2021-10-21T15:16:11Z</time>
      </trkpt>
      <trkpt lat="37.3922840" lon="-6.0113630">
        <ele>12.1</ele>
        <time>2021-10-21T15:16:11Z</time>
      </trkpt>
      <trkpt lat="37.3922790" lon="-6.0113180">
        <ele>12.1</ele>
        <time>2021-10-21T15:16:11Z</time>
      </trkpt>
      <trkpt lat="37.3922240" lon="-6.0109760">
        <ele>11.9</ele>
        <time>2021-10-21T15:16:11Z</time>
      </trkpt>
      <trkpt lat="37.3922120" lon="-6.0109370">
        <ele>11.9</ele>
        <time>2021-10-21T15:16:11Z</time>
      </trkpt>
      <trkpt lat="37.3921920" lon="-6.0109160">
        <ele>11.9</ele>
        <time>2021-10-21T15:16:11Z</time>
      </trkpt>
      <trkpt lat="37.3921690" lon="-6.0109140">
        <ele>11.9</ele>
        <time>2021-10-21T15:16:11Z</time>
      </trkpt>
      <trkpt lat="37.3920800" lon="-6.0109510">
        <ele>11.9</ele>
        <time>2021-10-21T15:16:11Z</time>
      </trkpt>
      <trkpt lat="37.3920510" lon="-6.0109590">
        <ele>11.9</ele>
        <time>2021-10-21T15:16:11Z</time>
      </trkpt>
      <trkpt lat="37.3919380" lon="-6.0109910">
        <ele>11.9</ele>
        <time>2021-10-21T15:16:11Z</time>
      </trkpt>
      <trkpt lat="37.3918760" lon="-6.0110120">
        <ele>11.9</ele>
        <time>2021-10-21T15:16:11Z</time>
      </trkpt>
      <trkpt lat="37.3916560" lon="-6.0111160">
        <ele>12.0</ele>
        <time>2021-10-21T15:16:11Z</time>
      </trkpt>
      <trkpt lat="37.3916020" lon="-6.0111420">
        <ele>12.0</ele>
        <time>2021-10-21T15:16:11Z</time>
      </trkpt>
      <trkpt lat="37.3914870" lon="-6.0111800">
        <ele>12.1</ele>
        <time>2021-10-21T15:16:11Z</time>
      </trkpt>
      <trkpt lat="37.3914360" lon="-6.0112070">
        <ele>12.1</ele>
        <time>2021-10-21T15:16:11Z</time>
      </trkpt>
      <trkpt lat="37.3912780" lon="-6.0112850">
        <ele>12.0</ele>
        <time>2021-10-21T15:16:11Z</time>
      </trkpt>
      <trkpt lat="37.3912350" lon="-6.0112760">
        <ele>11.9</ele>
        <time>2021-10-21T15:16:11Z</time>
      </trkpt>
      <trkpt lat="37.3911770" lon="-6.0112330">
        <ele>11.9</ele>
        <time>2021-10-21T15:16:11Z</time>
      </trkpt>
      <trkpt lat="37.3910210" lon="-6.0111270">
        <ele>11.8</ele>
        <time>2021-10-21T15:16:11Z</time>
      </trkpt>
      <trkpt lat="37.3908170" lon="-6.0110060">
        <ele>11.7</ele>
        <time>2021-10-21T15:16:11Z</time>
      </trkpt>
      <trkpt lat="37.3907470" lon="-6.0109680">
        <ele>11.6</ele>
        <time>2021-10-21T15:16:11Z</time>
      </trkpt>
      <trkpt lat="37.3904490" lon="-6.0107940">
        <ele>11.6</ele>
        <time>2021-10-21T15:16:11Z</time>
      </trkpt>
      <trkpt lat="37.3903400" lon="-6.0107390">
        <ele>11.7</ele>
        <time>2021-10-21T15:16:11Z</time>
      </trkpt>
      <trkpt lat="37.3902130" lon="-6.0106760">
        <ele>11.8</ele>
        <time>2021-10-21T15:16:11Z</time>
      </trkpt>
      <trkpt lat="37.3901830" lon="-6.0106640">
        <ele>11.8</ele>
        <time>2021-10-21T15:16:11Z</time>
      </trkpt>
      <trkpt lat="37.3901260" lon="-6.0106560">
        <ele>11.8</ele>
        <time>2021-10-21T15:16:11Z</time>
      </trkpt>
      <trkpt lat="37.3900770" lon="-6.0106790">
        <ele>11.8</ele>
        <time>2021-10-21T15:16:11Z</time>
      </trkpt>
      <trkpt lat="37.3900390" lon="-6.0107530">
        <ele>11.8</ele>
        <time>2021-10-21T15:16:11Z</time>
      </trkpt>
      <trkpt lat="37.3900270" lon="-6.0107670">
        <ele>11.9</ele>
        <time>2021-10-21T15:16:11Z</time>
      </trkpt>
      <trkpt lat="37.3900120" lon="-6.0107730">
        <ele>11.9</ele>
        <time>2021-10-21T15:16:11Z</time>
      </trkpt>
      <trkpt lat="37.3899040" lon="-6.0107610">
        <ele>11.9</ele>
        <time>2021-10-21T15:16:11Z</time>
      </trkpt>
      <trkpt lat="37.3897560" lon="-6.0107270">
        <ele>12.0</ele>
        <time>2021-10-21T15:16:11Z</time>
      </trkpt>
      <trkpt lat="37.3897530" lon="-6.0106100">
        <ele>11.7</ele>
        <time>2021-10-21T15:16:11Z</time>
      </trkpt>
      <trkpt lat="37.3897510" lon="-6.0105750">
        <ele>11.6</ele>
        <time>2021-10-21T15:16:11Z</time>
      </trkpt>
      <trkpt lat="37.3896930" lon="-6.0104700">
        <ele>11.2</ele>
        <time>2021-10-21T15:16:11Z</time>
      </trkpt>
      <trkpt lat="37.3896290" lon="-6.0104580">
        <ele>11.0</ele>
        <time>2021-10-21T15:16:11Z</time>
      </trkpt>
      <trkpt lat="37.3895520" lon="-6.0104490">
        <ele>10.8</ele>
        <time>2021-10-21T15:16:11Z</time>
      </trkpt>
      <trkpt lat="37.3893670" lon="-6.0104830">
        <ele>10.3</ele>
        <time>2021-10-21T15:16:11Z</time>
      </trkpt>
      <trkpt lat="37.3891900" lon="-6.0105340">
        <ele>10.0</ele>
        <time>2021-10-21T15:16:11Z</time>
      </trkpt>
      <trkpt lat="37.3889200" lon="-6.0105850">
        <ele>10.0</ele>
        <time>2021-10-21T15:16:11Z</time>
      </trkpt>
      <trkpt lat="37.3888360" lon="-6.0105890">
        <ele>10.0</ele>
        <time>2021-10-21T15:16:11Z</time>
      </trkpt>
      <trkpt lat="37.3887630" lon="-6.0105880">
        <ele>10.2</ele>
        <time>2021-10-21T15:16:11Z</time>
      </trkpt>
      <trkpt lat="37.3887580" lon="-6.0105890">
        <ele>10.2</ele>
        <time>2021-10-21T15:16:11Z</time>
      </trkpt>
      <trkpt lat="37.3887110" lon="-6.0106240">
        <ele>10.2</ele>
        <time>2021-10-21T15:16:11Z</time>
      </trkpt>
      <trkpt lat="37.3885300" lon="-6.0106440">
        <ele>10.2</ele>
        <time>2021-10-21T15:16:11Z</time>
      </trkpt>
      <trkpt lat="37.3884220" lon="-6.0107060">
        <ele>10.2</ele>
        <time>2021-10-21T15:16:11Z</time>
      </trkpt>
      <trkpt lat="37.3883070" lon="-6.0107070">
        <ele>10.2</ele>
        <time>2021-10-21T15:16:11Z</time>
      </trkpt>
      <trkpt lat="37.3881990" lon="-6.0107120">
        <ele>10.2</ele>
        <time>2021-10-21T15:16:11Z</time>
      </trkpt>
      <trkpt lat="37.3881100" lon="-6.0107210">
        <ele>10.3</ele>
        <time>2021-10-21T15:16:11Z</time>
      </trkpt>
      <trkpt lat="37.3879180" lon="-6.0108390">
        <ele>10.2</ele>
        <time>2021-10-21T15:16:11Z</time>
      </trkpt>
      <trkpt lat="37.3877860" lon="-6.0108660">
        <ele>10.2</ele>
        <time>2021-10-21T15:16:11Z</time>
      </trkpt>
      <trkpt lat="37.3876450" lon="-6.0109010">
        <ele>10.2</ele>
        <time>2021-10-21T15:16:11Z</time>
      </trkpt>
      <trkpt lat="37.3874660" lon="-6.0109100">
        <ele>10.2</ele>
        <time>2021-10-21T15:16:11Z</time>
      </trkpt>
      <trkpt lat="37.3873110" lon="-6.0110150">
        <ele>10.2</ele>
        <time>2021-10-21T15:16:11Z</time>
      </trkpt>
      <trkpt lat="37.3872490" lon="-6.0110320">
        <ele>10.2</ele>
        <time>2021-10-21T15:16:11Z</time>
      </trkpt>
      <trkpt lat="37.3869580" lon="-6.0110820">
        <ele>10.3</ele>
        <time>2021-10-21T15:16:11Z</time>
      </trkpt>
      <trkpt lat="37.3867820" lon="-6.0111010">
        <ele>10.3</ele>
        <time>2021-10-21T15:16:11Z</time>
      </trkpt>
      <trkpt lat="37.3867440" lon="-6.0111010">
        <ele>10.3</ele>
        <time>2021-10-21T15:16:11Z</time>
      </trkpt>
      <trkpt lat="37.3866630" lon="-6.0110980">
        <ele>10.4</ele>
        <time>2021-10-21T15:16:11Z</time>
      </trkpt>
      <trkpt lat="37.3864600" lon="-6.0110980">
        <ele>10.4</ele>
        <time>2021-10-21T15:16:11Z</time>
      </trkpt>
      <trkpt lat="37.3861820" lon="-6.0111710">
        <ele>10.5</ele>
        <time>2021-10-21T15:16:11Z</time>
      </trkpt>
      <trkpt lat="37.3861630" lon="-6.0111950">
        <ele>10.5</ele>
        <time>2021-10-21T15:16:11Z</time>
      </trkpt>
      <trkpt lat="37.3859300" lon="-6.0112340">
        <ele>10.6</ele>
        <time>2021-10-21T15:16:11Z</time>
      </trkpt>
      <trkpt lat="37.3857860" lon="-6.0112380">
        <ele>10.6</ele>
        <time>2021-10-21T15:16:11Z</time>
      </trkpt>
      <trkpt lat="37.3857440" lon="-6.0112530">
        <ele>10.6</ele>
        <time>2021-10-21T15:16:11Z</time>
      </trkpt>
      <trkpt lat="37.3857190" lon="-6.0113060">
        <ele>10.5</ele>
        <time>2021-10-21T15:16:11Z</time>
      </trkpt>
      <trkpt lat="37.3857040" lon="-6.0113360">
        <ele>10.4</ele>
        <time>2021-10-21T15:16:11Z</time>
      </trkpt>
      <trkpt lat="37.3856730" lon="-6.0113610">
        <ele>10.4</ele>
        <time>2021-10-21T15:16:11Z</time>
      </trkpt>
      <trkpt lat="37.3855700" lon="-6.0113810">
        <ele>10.3</ele>
        <time>2021-10-21T15:16:11Z</time>
      </trkpt>
      <trkpt lat="37.3853960" lon="-6.0113530">
        <ele>10.3</ele>
        <time>2021-10-21T15:16:11Z</time>
      </trkpt>
      <trkpt lat="37.3851840" lon="-6.0113800">
        <ele>10.2</ele>
        <time>2021-10-21T15:16:11Z</time>
      </trkpt>
      <trkpt lat="37.3850340" lon="-6.0113700">
        <ele>10.2</ele>
        <time>2021-10-21T15:16:11Z</time>
      </trkpt>
      <trkpt lat="37.3849600" lon="-6.0113580">
        <ele>10.2</ele>
        <time>2021-10-21T15:16:11Z</time>
      </trkpt>
      <trkpt lat="37.3848000" lon="-6.0113210">
        <ele>10.2</ele>
        <time>2021-10-21T15:16:11Z</time>
      </trkpt>
      <trkpt lat="37.3845450" lon="-6.0112800">
        <ele>10.2</ele>
        <time>2021-10-21T15:16:11Z</time>
      </trkpt>
      <trkpt lat="37.3843320" lon="-6.0112340">
        <ele>10.4</ele>
        <time>2021-10-21T15:16:11Z</time>
      </trkpt>
      <trkpt lat="37.3841320" lon="-6.0112000">
        <ele>10.4</ele>
        <time>2021-10-21T15:16:11Z</time>
      </trkpt>
      <trkpt lat="37.3839500" lon="-6.0111720">
        <ele>10.4</ele>
        <time>2021-10-21T15:16:11Z</time>
      </trkpt>
      <trkpt lat="37.3837740" lon="-6.0111470">
        <ele>10.3</ele>
        <time>2021-10-21T15:16:11Z</time>
      </trkpt>
      <trkpt lat="37.3836290" lon="-6.0111090">
        <ele>10.1</ele>
        <time>2021-10-21T15:16:11Z</time>
      </trkpt>
      <trkpt lat="37.3835200" lon="-6.0110660">
        <ele>9.9</ele>
        <time>2021-10-21T15:16:11Z</time>
      </trkpt>
      <trkpt lat="37.3834270" lon="-6.0110320">
        <ele>9.8</ele>
        <time>2021-10-21T15:16:11Z</time>
      </trkpt>
      <trkpt lat="37.3832880" lon="-6.0109600">
        <ele>9.6</ele>
        <time>2021-10-21T15:16:11Z</time>
      </trkpt>
      <trkpt lat="37.3832450" lon="-6.0109310">
        <ele>9.5</ele>
        <time>2021-10-21T15:16:11Z</time>
      </trkpt>
      <trkpt lat="37.3830680" lon="-6.0108530">
        <ele>9.4</ele>
        <time>2021-10-21T15:16:11Z</time>
      </trkpt>
      <trkpt lat="37.3828780" lon="-6.0107170">
        <ele>9.2</ele>
        <time>2021-10-21T15:16:11Z</time>
      </trkpt>
      <trkpt lat="37.3828390" lon="-6.0106870">
        <ele>9.2</ele>
        <time>2021-10-21T15:16:11Z</time>
      </trkpt>
      <trkpt lat="37.3825420" lon="-6.0104520">
        <ele>8.9</ele>
        <time>2021-10-21T15:16:11Z</time>
      </trkpt>
      <trkpt lat="37.3825070" lon="-6.0104290">
        <ele>8.9</ele>
        <time>2021-10-21T15:16:11Z</time>
      </trkpt>
      <trkpt lat="37.3824690" lon="-6.0104030">
        <ele>8.9</ele>
        <time>2021-10-21T15:16:11Z</time>
      </trkpt>
      <trkpt lat="37.3821420" lon="-6.0101350">
        <ele>8.9</ele>
        <time>2021-10-21T15:16:11Z</time>
      </trkpt>
      <trkpt lat="37.3819380" lon="-6.0099940">
        <ele>9.1</ele>
        <time>2021-10-21T15:16:11Z</time>
      </trkpt>
      <trkpt lat="37.3816080" lon="-6.0097540">
        <ele>9.4</ele>
        <time>2021-10-21T15:16:11Z</time>
      </trkpt>
      <trkpt lat="37.3814250" lon="-6.0096100">
        <ele>9.6</ele>
        <time>2021-10-21T15:16:11Z</time>
      </trkpt>
      <trkpt lat="37.3811960" lon="-6.0094590">
        <ele>9.9</ele>
        <time>2021-10-21T15:16:11Z</time>
      </trkpt>
      <trkpt lat="37.3811580" lon="-6.0094770">
        <ele>9.9</ele>
        <time>2021-10-21T15:16:11Z</time>
      </trkpt>
      <trkpt lat="37.3811370" lon="-6.0095610">
        <ele>9.9</ele>
        <time>2021-10-21T15:16:11Z</time>
      </trkpt>
      <trkpt lat="37.3811340" lon="-6.0095910">
        <ele>9.9</ele>
        <time>2021-10-21T15:16:11Z</time>
      </trkpt>
      <trkpt lat="37.3811280" lon="-6.0096160">
        <ele>9.9</ele>
        <time>2021-10-21T15:16:11Z</time>
      </trkpt>
      <trkpt lat="37.3810980" lon="-6.0096110">
        <ele>9.9</ele>
        <time>2021-10-21T15:16:11Z</time>
      </trkpt>
      <trkpt lat="37.3810690" lon="-6.0096050">
        <ele>9.9</ele>
        <time>2021-10-21T15:16:11Z</time>
      </trkpt>
      <trkpt lat="37.3810320" lon="-6.0095900">
        <ele>9.9</ele>
        <time>2021-10-21T15:16:11Z</time>
      </trkpt>
      <trkpt lat="37.3809490" lon="-6.0095300">
        <ele>9.9</ele>
        <time>2021-10-21T15:16:11Z</time>
      </trkpt>
      <trkpt lat="37.3807690" lon="-6.0095060">
        <ele>9.9</ele>
        <time>2021-10-21T15:16:11Z</time>
      </trkpt>
      <trkpt lat="37.3805640" lon="-6.0094710">
        <ele>9.8</ele>
        <time>2021-10-21T15:16:11Z</time>
      </trkpt>
      <trkpt lat="37.3803800" lon="-6.0093830">
        <ele>9.7</ele>
        <time>2021-10-21T15:16:11Z</time>
      </trkpt>
      <trkpt lat="37.3803250" lon="-6.0093080">
        <ele>9.6</ele>
        <time>2021-10-21T15:16:11Z</time>
      </trkpt>
      <trkpt lat="37.3803160" lon="-6.0092650">
        <ele>9.6</ele>
        <time>2021-10-21T15:16:11Z</time>
      </trkpt>
      <trkpt lat="37.3803010" lon="-6.0092000">
        <ele>9.4</ele>
        <time>2021-10-21T15:16:11Z</time>
      </trkpt>
      <trkpt lat="37.3802520" lon="-6.0091460">
        <ele>9.2</ele>
        <time>2021-10-21T15:16:11Z</time>
      </trkpt>
      <trkpt lat="37.3801230" lon="-6.0090180">
        <ele>8.7</ele>
        <time>2021-10-21T15:16:11Z</time>
      </trkpt>
      <trkpt lat="37.3800990" lon="-6.0089850">
        <ele>8.7</ele>
        <time>2021-10-21T15:16:11Z</time>
      </trkpt>
      <trkpt lat="37.3800000" lon="-6.0088600">
        <ele>8.5</ele>
        <time>2021-10-21T15:16:11Z</time>
      </trkpt>
      <trkpt lat="37.3799300" lon="-6.0087780">
        <ele>8.5</ele>
        <time>2021-10-21T15:16:11Z</time>
      </trkpt>
      <trkpt lat="37.3799060" lon="-6.0087450">
        <ele>8.4</ele>
        <time>2021-10-21T15:16:11Z</time>
      </trkpt>
      <trkpt lat="37.3796950" lon="-6.0085190">
        <ele>8.4</ele>
        <time>2021-10-21T15:16:11Z</time>
      </trkpt>
      <trkpt lat="37.3794460" lon="-6.0084520">
        <ele>8.5</ele>
        <time>2021-10-21T15:16:11Z</time>
      </trkpt>
      <trkpt lat="37.3793240" lon="-6.0083410">
        <ele>8.5</ele>
        <time>2021-10-21T15:16:11Z</time>
      </trkpt>
      <trkpt lat="37.3792170" lon="-6.0082540">
        <ele>8.5</ele>
        <time>2021-10-21T15:16:11Z</time>
      </trkpt>
      <trkpt lat="37.3789840" lon="-6.0080340">
        <ele>8.6</ele>
        <time>2021-10-21T15:16:11Z</time>
      </trkpt>
      <trkpt lat="37.3788960" lon="-6.0079890">
        <ele>8.6</ele>
        <time>2021-10-21T15:16:11Z</time>
      </trkpt>
      <trkpt lat="37.3788760" lon="-6.0079760">
        <ele>8.7</ele>
        <time>2021-10-21T15:16:11Z</time>
      </trkpt>
      <trkpt lat="37.3788550" lon="-6.0079630">
        <ele>8.7</ele>
        <time>2021-10-21T15:16:11Z</time>
      </trkpt>
      <trkpt lat="37.3788340" lon="-6.0079510">
        <ele>8.7</ele>
        <time>2021-10-21T15:16:11Z</time>
      </trkpt>
      <trkpt lat="37.3787970" lon="-6.0079290">
        <ele>8.7</ele>
        <time>2021-10-21T15:16:11Z</time>
      </trkpt>
      <trkpt lat="37.3785620" lon="-6.0077740">
        <ele>8.7</ele>
        <time>2021-10-21T15:16:11Z</time>
      </trkpt>
      <trkpt lat="37.3782500" lon="-6.0075300">
        <ele>8.8</ele>
        <time>2021-10-21T15:16:11Z</time>
      </trkpt>
      <trkpt lat="37.3780030" lon="-6.0073240">
        <ele>8.9</ele>
        <time>2021-10-21T15:16:11Z</time>
      </trkpt>
      <trkpt lat="37.3779720" lon="-6.0073020">
        <ele>8.9</ele>
        <time>2021-10-21T15:16:11Z</time>
      </trkpt>
      <trkpt lat="37.3778490" lon="-6.0071990">
        <ele>8.9</ele>
        <time>2021-10-21T15:16:11Z</time>
      </trkpt>
      <trkpt lat="37.3777560" lon="-6.0071240">
        <ele>8.9</ele>
        <time>2021-10-21T15:16:11Z</time>
      </trkpt>
      <trkpt lat="37.3775600" lon="-6.0069760">
        <ele>9.0</ele>
        <time>2021-10-21T15:16:11Z</time>
      </trkpt>
      <trkpt lat="37.3774740" lon="-6.0068960">
        <ele>9.0</ele>
        <time>2021-10-21T15:16:11Z</time>
      </trkpt>
      <trkpt lat="37.3773280" lon="-6.0067750">
        <ele>9.0</ele>
        <time>2021-10-21T15:16:11Z</time>
      </trkpt>
      <trkpt lat="37.3772400" lon="-6.0067030">
        <ele>9.1</ele>
        <time>2021-10-21T15:16:11Z</time>
      </trkpt>
      <trkpt lat="37.3770750" lon="-6.0065970">
        <ele>9.1</ele>
        <time>2021-10-21T15:16:11Z</time>
      </trkpt>
      <trkpt lat="37.3769830" lon="-6.0065190">
        <ele>9.1</ele>
        <time>2021-10-21T15:16:11Z</time>
      </trkpt>
      <trkpt lat="37.3768560" lon="-6.0064210">
        <ele>9.1</ele>
        <time>2021-10-21T15:16:11Z</time>
      </trkpt>
      <trkpt lat="37.3767520" lon="-6.0063540">
        <ele>9.2</ele>
        <time>2021-10-21T15:16:11Z</time>
      </trkpt>
      <trkpt lat="37.3766580" lon="-6.0062660">
        <ele>9.2</ele>
        <time>2021-10-21T15:16:11Z</time>
      </trkpt>
      <trkpt lat="37.3764380" lon="-6.0060800">
        <ele>9.3</ele>
        <time>2021-10-21T15:16:11Z</time>
      </trkpt>
      <trkpt lat="37.3762410" lon="-6.0059230">
        <ele>9.4</ele>
        <time>2021-10-21T15:16:11Z</time>
      </trkpt>
      <trkpt lat="37.3761150" lon="-6.0058470">
        <ele>9.6</ele>
        <time>2021-10-21T15:16:11Z</time>
      </trkpt>
      <trkpt lat="37.3760190" lon="-6.0058750">
        <ele>9.7</ele>
        <time>2021-10-21T15:16:11Z</time>
      </trkpt>
      <trkpt lat="37.3759670" lon="-6.0059230">
        <ele>9.7</ele>
        <time>2021-10-21T15:16:11Z</time>
      </trkpt>
      <trkpt lat="37.3759250" lon="-6.0059840">
        <ele>9.8</ele>
        <time>2021-10-21T15:16:11Z</time>
      </trkpt>
      <trkpt lat="37.3758910" lon="-6.0060790">
        <ele>9.8</ele>
        <time>2021-10-21T15:16:11Z</time>
      </trkpt>
      <trkpt lat="37.3758820" lon="-6.0060970">
        <ele>9.8</ele>
        <time>2021-10-21T15:16:11Z</time>
      </trkpt>
      <trkpt lat="37.3758750" lon="-6.0061010">
        <ele>9.8</ele>
        <time>2021-10-21T15:16:11Z</time>
      </trkpt>
      <trkpt lat="37.3758450" lon="-6.0060730">
        <ele>9.8</ele>
        <time>2021-10-21T15:16:11Z</time>
      </trkpt>
      <trkpt lat="37.3758260" lon="-6.0060570">
        <ele>9.8</ele>
        <time>2021-10-21T15:16:11Z</time>
      </trkpt>
      <trkpt lat="37.3757990" lon="-6.0060370">
        <ele>9.8</ele>
        <time>2021-10-21T15:16:11Z</time>
      </trkpt>
      <trkpt lat="37.3756970" lon="-6.0059850">
        <ele>9.9</ele>
        <time>2021-10-21T15:16:11Z</time>
      </trkpt>
      <trkpt lat="37.3756940" lon="-6.0059870">
        <ele>9.9</ele>
        <time>2021-10-21T15:16:11Z</time>
      </trkpt>
      <trkpt lat="37.3757050" lon="-6.0059630">
        <ele>9.9</ele>
        <time>2021-10-21T15:16:11Z</time>
      </trkpt>
      <trkpt lat="37.3757290" lon="-6.0059230">
        <ele>9.9</ele>
        <time>2021-10-21T15:16:11Z</time>
      </trkpt>
      <trkpt lat="37.3757540" lon="-6.0058770">
        <ele>9.9</ele>
        <time>2021-10-21T15:16:11Z</time>
      </trkpt>
      <trkpt lat="37.3757800" lon="-6.0057750">
        <ele>9.9</ele>
        <time>2021-10-21T15:16:11Z</time>
      </trkpt>
      <trkpt lat="37.3757610" lon="-6.0055920">
        <ele>10.0</ele>
        <time>2021-10-21T15:16:11Z</time>
      </trkpt>
      <trkpt lat="37.3756990" lon="-6.0054680">
        <ele>10.0</ele>
        <time>2021-10-21T15:16:11Z</time>
      </trkpt>
      <trkpt lat="37.3757050" lon="-6.0053530">
        <ele>10.1</ele>
        <time>2021-10-21T15:16:11Z</time>
      </trkpt>
      <trkpt lat="37.3757100" lon="-6.0053590">
        <ele>10.1</ele>
        <time>2021-10-21T15:16:11Z</time>
      </trkpt>
      <trkpt lat="37.3758140" lon="-6.0053440">
        <ele>10.2</ele>
        <time>2021-10-21T15:16:11Z</time>
      </trkpt>
      <trkpt lat="37.3759220" lon="-6.0053310">
        <ele>10.1</ele>
        <time>2021-10-21T15:16:11Z</time>
      </trkpt>
      <trkpt lat="37.3759430" lon="-6.0053180">
        <ele>10.1</ele>
        <time>2021-10-21T15:16:11Z</time>
      </trkpt>
      <trkpt lat="37.3760620" lon="-6.0051060">
        <ele>10.1</ele>
        <time>2021-10-21T15:16:11Z</time>
      </trkpt>
      <trkpt lat="37.3761070" lon="-6.0049900">
        <ele>10.1</ele>
        <time>2021-10-21T15:16:11Z</time>
      </trkpt>
      <trkpt lat="37.3761700" lon="-6.0048920">
        <ele>10.1</ele>
        <time>2021-10-21T15:16:11Z</time>
      </trkpt>
      <trkpt lat="37.3762950" lon="-6.0047360">
        <ele>10.1</ele>
        <time>2021-10-21T15:16:11Z</time>
      </trkpt>
      <trkpt lat="37.3763930" lon="-6.0046920">
        <ele>10.1</ele>
        <time>2021-10-21T15:16:11Z</time>
      </trkpt>
      <trkpt lat="37.3765100" lon="-6.0045960">
        <ele>10.1</ele>
        <time>2021-10-21T15:16:11Z</time>
      </trkpt>
      <trkpt lat="37.3765350" lon="-6.0045280">
        <ele>10.2</ele>
        <time>2021-10-21T15:16:11Z</time>
      </trkpt>
      <trkpt lat="37.3765880" lon="-6.0043680">
        <ele>10.2</ele>
        <time>2021-10-21T15:16:11Z</time>
      </trkpt>
      <trkpt lat="37.3766350" lon="-6.0042790">
        <ele>10.2</ele>
        <time>2021-10-21T15:16:11Z</time>
      </trkpt>
      <trkpt lat="37.3766900" lon="-6.0041710">
        <ele>10.3</ele>
        <time>2021-10-21T15:16:11Z</time>
      </trkpt>
      <trkpt lat="37.3767410" lon="-6.0040630">
        <ele>10.3</ele>
        <time>2021-10-21T15:16:11Z</time>
      </trkpt>
      <trkpt lat="37.3767690" lon="-6.0040170">
        <ele>10.4</ele>
        <time>2021-10-21T15:16:11Z</time>
      </trkpt>
      <trkpt lat="37.3768440" lon="-6.0038380">
        <ele>10.5</ele>
        <time>2021-10-21T15:16:11Z</time>
      </trkpt>
      <trkpt lat="37.3769000" lon="-6.0037240">
        <ele>10.6</ele>
        <time>2021-10-21T15:16:11Z</time>
      </trkpt>
      <trkpt lat="37.3769280" lon="-6.0036120">
        <ele>10.7</ele>
        <time>2021-10-21T15:16:11Z</time>
      </trkpt>
      <trkpt lat="37.3770110" lon="-6.0034370">
        <ele>10.8</ele>
        <time>2021-10-21T15:16:11Z</time>
      </trkpt>
      <trkpt lat="37.3770330" lon="-6.0033840">
        <ele>10.9</ele>
        <time>2021-10-21T15:16:11Z</time>
      </trkpt>
      <trkpt lat="37.3770520" lon="-6.0033290">
        <ele>10.9</ele>
        <time>2021-10-21T15:16:11Z</time>
      </trkpt>
      <trkpt lat="37.3770630" lon="-6.0032920">
        <ele>10.9</ele>
        <time>2021-10-21T15:16:11Z</time>
      </trkpt>
      <trkpt lat="37.3771280" lon="-6.0032010">
        <ele>11.0</ele>
        <time>2021-10-21T15:16:11Z</time>
      </trkpt>
      <trkpt lat="37.3772520" lon="-6.0029720">
        <ele>11.1</ele>
        <time>2021-10-21T15:16:11Z</time>
      </trkpt>
      <trkpt lat="37.3773810" lon="-6.0027160">
        <ele>11.3</ele>
        <time>2021-10-21T15:16:11Z</time>
      </trkpt>
      <trkpt lat="37.3774280" lon="-6.0026410">
        <ele>11.4</ele>
        <time>2021-10-21T15:16:11Z</time>
      </trkpt>
      <trkpt lat="37.3775890" lon="-6.0023750">
        <ele>11.8</ele>
        <time>2021-10-21T15:16:11Z</time>
      </trkpt>
      <trkpt lat="37.3776330" lon="-6.0022650">
        <ele>11.9</ele>
        <time>2021-10-21T15:16:11Z</time>
      </trkpt>
      <trkpt lat="37.3776760" lon="-6.0021850">
        <ele>11.9</ele>
        <time>2021-10-21T15:16:11Z</time>
      </trkpt>
      <trkpt lat="37.3777320" lon="-6.0020360">
        <ele>12.0</ele>
        <time>2021-10-21T15:16:11Z</time>
      </trkpt>
      <trkpt lat="37.3779010" lon="-6.0016590">
        <ele>12.3</ele>
        <time>2021-10-21T15:16:11Z</time>
      </trkpt>
      <trkpt lat="37.3780060" lon="-6.0013990">
        <ele>12.4</ele>
        <time>2021-10-21T15:16:11Z</time>
      </trkpt>
      <trkpt lat="37.3780500" lon="-6.0013120">
        <ele>12.5</ele>
        <time>2021-10-21T15:16:11Z</time>
      </trkpt>
      <trkpt lat="37.3781670" lon="-6.0011090">
        <ele>12.6</ele>
        <time>2021-10-21T15:16:11Z</time>
      </trkpt>
      <trkpt lat="37.3782130" lon="-6.0010300">
        <ele>12.6</ele>
        <time>2021-10-21T15:16:11Z</time>
      </trkpt>
      <trkpt lat="37.3782630" lon="-6.0009070">
        <ele>12.7</ele>
        <time>2021-10-21T15:16:11Z</time>
      </trkpt>
      <trkpt lat="37.3782630" lon="-6.0008990">
        <ele>12.7</ele>
        <time>2021-10-21T15:16:11Z</time>
      </trkpt>
      <trkpt lat="37.3782840" lon="-6.0008390">
        <ele>12.8</ele>
        <time>2021-10-21T15:16:11Z</time>
      </trkpt>
      <trkpt lat="37.3782940" lon="-6.0008180">
        <ele>12.8</ele>
        <time>2021-10-21T15:16:11Z</time>
      </trkpt>
      <trkpt lat="37.3783820" lon="-6.0006770">
        <ele>12.8</ele>
        <time>2021-10-21T15:16:11Z</time>
      </trkpt>
      <trkpt lat="37.3784410" lon="-6.0005410">
        <ele>12.9</ele>
        <time>2021-10-21T15:16:11Z</time>
      </trkpt>
      <trkpt lat="37.3785690" lon="-6.0002560">
        <ele>13.0</ele>
        <time>2021-10-21T15:16:11Z</time>
      </trkpt>
      <trkpt lat="37.3786480" lon="-6.0000710">
        <ele>13.1</ele>
        <time>2021-10-21T15:16:11Z</time>
      </trkpt>
      <trkpt lat="37.3787810" lon="-5.9998310">
        <ele>13.3</ele>
        <time>2021-10-21T15:16:11Z</time>
      </trkpt>
      <trkpt lat="37.3788380" lon="-5.9997560">
        <ele>13.3</ele>
        <time>2021-10-21T15:16:11Z</time>
      </trkpt>
      <trkpt lat="37.3789220" lon="-5.9996150">
        <ele>13.4</ele>
        <time>2021-10-21T15:16:11Z</time>
      </trkpt>
      <trkpt lat="37.3789620" lon="-5.9995420">
        <ele>13.5</ele>
        <time>2021-10-21T15:16:11Z</time>
      </trkpt>
      <trkpt lat="37.3789850" lon="-5.9994640">
        <ele>13.5</ele>
        <time>2021-10-21T15:16:11Z</time>
      </trkpt>
      <trkpt lat="37.3790810" lon="-5.9993520">
        <ele>13.6</ele>
        <time>2021-10-21T15:16:11Z</time>
      </trkpt>
      <trkpt lat="37.3792040" lon="-5.9992870">
        <ele>13.7</ele>
        <time>2021-10-21T15:16:11Z</time>
      </trkpt>
      <trkpt lat="37.3793330" lon="-5.9989720">
        <ele>13.9</ele>
        <time>2021-10-21T15:16:11Z</time>
      </trkpt>
      <trkpt lat="37.3794510" lon="-5.9986590">
        <ele>14.2</ele>
        <time>2021-10-21T15:16:11Z</time>
      </trkpt>
      <trkpt lat="37.3795170" lon="-5.9985420">
        <ele>14.3</ele>
        <time>2021-10-21T15:16:11Z</time>
      </trkpt>
      <trkpt lat="37.3795600" lon="-5.9984600">
        <ele>14.3</ele>
        <time>2021-10-21T15:16:11Z</time>
      </trkpt>
      <trkpt lat="37.3796240" lon="-5.9983390">
        <ele>14.3</ele>
        <time>2021-10-21T15:16:11Z</time>
      </trkpt>
      <trkpt lat="37.3796720" lon="-5.9982070">
        <ele>14.3</ele>
        <time>2021-10-21T15:16:11Z</time>
      </trkpt>
      <trkpt lat="37.3796790" lon="-5.9981820">
        <ele>14.3</ele>
        <time>2021-10-21T15:16:11Z</time>
      </trkpt>
      <trkpt lat="37.3797000" lon="-5.9981630">
        <ele>14.2</ele>
        <time>2021-10-21T15:16:11Z</time>
      </trkpt>
      <trkpt lat="37.3797080" lon="-5.9981550">
        <ele>14.2</ele>
        <time>2021-10-21T15:16:11Z</time>
      </trkpt>
      <trkpt lat="37.3797240" lon="-5.9981350">
        <ele>14.2</ele>
        <time>2021-10-21T15:16:11Z</time>
      </trkpt>
      <trkpt lat="37.3796950" lon="-5.9980860">
        <ele>14.2</ele>
        <time>2021-10-21T15:16:11Z</time>
      </trkpt>
      <trkpt lat="37.3796430" lon="-5.9979160">
        <ele>13.9</ele>
        <time>2021-10-21T15:16:11Z</time>
      </trkpt>
      <trkpt lat="37.3796080" lon="-5.9977330">
        <ele>13.5</ele>
        <time>2021-10-21T15:16:11Z</time>
      </trkpt>
      <trkpt lat="37.3796360" lon="-5.9975710">
        <ele>13.5</ele>
        <time>2021-10-21T15:16:11Z</time>
      </trkpt>
      <trkpt lat="37.3797210" lon="-5.9974180">
        <ele>13.5</ele>
        <time>2021-10-21T15:16:11Z</time>
      </trkpt>
      <trkpt lat="37.3798170" lon="-5.9972610">
        <ele>13.5</ele>
        <time>2021-10-21T15:16:11Z</time>
      </trkpt>
      <trkpt lat="37.3798560" lon="-5.9971930">
        <ele>13.5</ele>
        <time>2021-10-21T15:16:11Z</time>
      </trkpt>
      <trkpt lat="37.3798720" lon="-5.9971920">
        <ele>13.5</ele>
        <time>2021-10-21T15:16:11Z</time>
      </trkpt>
      <trkpt lat="37.3798890" lon="-5.9971900">
        <ele>13.5</ele>
        <time>2021-10-21T15:16:11Z</time>
      </trkpt>
      <trkpt lat="37.3799050" lon="-5.9971890">
        <ele>13.5</ele>
        <time>2021-10-21T15:16:11Z</time>
      </trkpt>
      <trkpt lat="37.3799220" lon="-5.9971870">
        <ele>13.5</ele>
        <time>2021-10-21T15:16:11Z</time>
      </trkpt>
      <trkpt lat="37.3800880" lon="-5.9971620">
        <ele>13.7</ele>
        <time>2021-10-21T15:16:11Z</time>
      </trkpt>
      <trkpt lat="37.3801650" lon="-5.9971320">
        <ele>13.8</ele>
        <time>2021-10-21T15:16:11Z</time>
      </trkpt>
      <trkpt lat="37.3801780" lon="-5.9971410">
        <ele>13.8</ele>
        <time>2021-10-21T15:16:11Z</time>
      </trkpt>
      <trkpt lat="37.3802120" lon="-5.9971580">
        <ele>13.9</ele>
        <time>2021-10-21T15:16:11Z</time>
      </trkpt>
      <trkpt lat="37.3802370" lon="-5.9971690">
        <ele>14.1</ele>
        <time>2021-10-21T15:16:11Z</time>
      </trkpt>
      <trkpt lat="37.3802460" lon="-5.9971600">
        <ele>14.1</ele>
        <time>2021-10-21T15:16:11Z</time>
      </trkpt>
      <trkpt lat="37.3802500" lon="-5.9971290">
        <ele>14.1</ele>
        <time>2021-10-21T15:16:11Z</time>
      </trkpt>
      <trkpt lat="37.3802520" lon="-5.9971150">
        <ele>14.1</ele>
        <time>2021-10-21T15:16:11Z</time>
      </trkpt>
      <trkpt lat="37.3802860" lon="-5.9970760">
        <ele>14.0</ele>
        <time>2021-10-21T15:16:11Z</time>
      </trkpt>
      <trkpt lat="37.3803660" lon="-5.9969290">
        <ele>14.0</ele>
        <time>2021-10-21T15:16:11Z</time>
      </trkpt>
      <trkpt lat="37.3804940" lon="-5.9966870">
        <ele>13.9</ele>
        <time>2021-10-21T15:16:11Z</time>
      </trkpt>
      <trkpt lat="37.3805910" lon="-5.9964900">
        <ele>13.8</ele>
        <time>2021-10-21T15:16:11Z</time>
      </trkpt>
      <trkpt lat="37.3806340" lon="-5.9964170">
        <ele>13.8</ele>
        <time>2021-10-21T15:16:11Z</time>
      </trkpt>
      <trkpt lat="37.3807630" lon="-5.9961910">
        <ele>13.7</ele>
        <time>2021-10-21T15:16:11Z</time>
      </trkpt>
      <trkpt lat="37.3807880" lon="-5.9961430">
        <ele>13.7</ele>
        <time>2021-10-21T15:16:11Z</time>
      </trkpt>
      <trkpt lat="37.3809050" lon="-5.9958880">
        <ele>13.7</ele>
        <time>2021-10-21T15:16:11Z</time>
      </trkpt>
      <trkpt lat="37.3810470" lon="-5.9956190">
        <ele>13.6</ele>
        <time>2021-10-21T15:16:11Z</time>
      </trkpt>
      <trkpt lat="37.3810620" lon="-5.9955930">
        <ele>13.6</ele>
        <time>2021-10-21T15:16:11Z</time>
      </trkpt>
      <trkpt lat="37.3811520" lon="-5.9954110">
        <ele>12.4</ele>
        <time>2021-10-21T15:16:11Z</time>
      </trkpt>
      <trkpt lat="37.3811670" lon="-5.9953770">
        <ele>12.4</ele>
        <time>2021-10-21T15:16:11Z</time>
      </trkpt>
      <trkpt lat="37.3812060" lon="-5.9954090">
        <ele>12.4</ele>
        <time>2021-10-21T15:16:11Z</time>
      </trkpt>
      <trkpt lat="37.3813240" lon="-5.9955050">
        <ele>12.2</ele>
        <time>2021-10-21T15:16:11Z</time>
      </trkpt>
      <trkpt lat="37.3813840" lon="-5.9955510">
        <ele>12.0</ele>
        <time>2021-10-21T15:16:11Z</time>
      </trkpt>
      <trkpt lat="37.3815040" lon="-5.9956360">
        <ele>11.3</ele>
        <time>2021-10-21T15:16:11Z</time>
      </trkpt>
      <trkpt lat="37.3816040" lon="-5.9957190">
        <ele>10.7</ele>
        <time>2021-10-21T15:16:11Z</time>
      </trkpt>
      <trkpt lat="37.3817710" lon="-5.9958730">
        <ele>9.6</ele>
        <time>2021-10-21T15:16:11Z</time>
      </trkpt>
      <trkpt lat="37.3818010" lon="-5.9959080">
        <ele>9.4</ele>
        <time>2021-10-21T15:16:11Z</time>
      </trkpt>
      <trkpt lat="37.3819020" lon="-5.9960310">
        <ele>8.7</ele>
        <time>2021-10-21T15:16:11Z</time>
      </trkpt>
      <trkpt lat="37.3819480" lon="-5.9961020">
        <ele>8.4</ele>
        <time>2021-10-21T15:16:11Z</time>
      </trkpt>
      <trkpt lat="37.3820200" lon="-5.9961920">
        <ele>7.9</ele>
        <time>2021-10-21T15:16:11Z</time>
      </trkpt>
      <trkpt lat="37.3820800" lon="-5.9962630">
        <ele>7.5</ele>
        <time>2021-10-21T15:16:11Z</time>
      </trkpt>
      <trkpt lat="37.3822150" lon="-5.9964130">
        <ele>7.0</ele>
        <time>2021-10-21T15:16:11Z</time>
      </trkpt>
      <trkpt lat="37.3822340" lon="-5.9964380">
        <ele>6.9</ele>
        <time>2021-10-21T15:16:11Z</time>
      </trkpt>
      <trkpt lat="37.3823340" lon="-5.9965280">
        <ele>6.8</ele>
        <time>2021-10-21T15:16:11Z</time>
      </trkpt>
      <trkpt lat="37.3824160" lon="-5.9965730">
        <ele>6.7</ele>
        <time>2021-10-21T15:16:11Z</time>
      </trkpt>
      <trkpt lat="37.3823910" lon="-5.9965060">
        <ele>6.7</ele>
        <time>2021-10-21T15:16:11Z</time>
      </trkpt>
      <trkpt lat="37.3823910" lon="-5.9965320">
        <ele>6.7</ele>
        <time>2021-10-21T15:16:11Z</time>
      </trkpt>
      <trkpt lat="37.3824010" lon="-5.9965840">
        <ele>6.7</ele>
        <time>2021-10-21T15:16:11Z</time>
      </trkpt>
      <trkpt lat="37.3824130" lon="-5.9966030">
        <ele>6.7</ele>
        <time>2021-10-21T15:16:11Z</time>
      </trkpt>
      <trkpt lat="37.3824700" lon="-5.9966640">
        <ele>6.7</ele>
        <time>2021-10-21T15:16:11Z</time>
      </trkpt>
      <trkpt lat="37.3826340" lon="-5.9968060">
        <ele>6.7</ele>
        <time>2021-10-21T15:16:11Z</time>
      </trkpt>
      <trkpt lat="37.3827160" lon="-5.9968890">
        <ele>6.7</ele>
        <time>2021-10-21T15:16:11Z</time>
      </trkpt>
      <trkpt lat="37.3828300" lon="-5.9969930">
        <ele>6.8</ele>
        <time>2021-10-21T15:16:11Z</time>
      </trkpt>
      <trkpt lat="37.3830850" lon="-5.9972500">
        <ele>6.8</ele>
        <time>2021-10-21T15:16:11Z</time>
      </trkpt>
      <trkpt lat="37.3831970" lon="-5.9973650">
        <ele>6.8</ele>
        <time>2021-10-21T15:16:11Z</time>
      </trkpt>
      <trkpt lat="37.3832980" lon="-5.9974710">
        <ele>6.7</ele>
        <time>2021-10-21T15:16:11Z</time>
      </trkpt>
      <trkpt lat="37.3834450" lon="-5.9976420">
        <ele>6.7</ele>
        <time>2021-10-21T15:16:11Z</time>
      </trkpt>
      <trkpt lat="37.3835440" lon="-5.9977640">
        <ele>6.7</ele>
        <time>2021-10-21T15:16:11Z</time>
      </trkpt>
      <trkpt lat="37.3836700" lon="-5.9979070">
        <ele>6.7</ele>
        <time>2021-10-21T15:16:11Z</time>
      </trkpt>
      <trkpt lat="37.3837920" lon="-5.9980420">
        <ele>6.8</ele>
        <time>2021-10-21T15:16:11Z</time>
      </trkpt>
      <trkpt lat="37.3839970" lon="-5.9982630">
        <ele>6.7</ele>
        <time>2021-10-21T15:16:11Z</time>
      </trkpt>
      <trkpt lat="37.3841860" lon="-5.9984770">
        <ele>6.7</ele>
        <time>2021-10-21T15:16:11Z</time>
      </trkpt>
      <trkpt lat="37.3842590" lon="-5.9985740">
        <ele>6.8</ele>
        <time>2021-10-21T15:16:11Z</time>
      </trkpt>
      <trkpt lat="37.3842900" lon="-5.9986580">
        <ele>6.8</ele>
        <time>2021-10-21T15:16:11Z</time>
      </trkpt>
      <trkpt lat="37.3842920" lon="-5.9986630">
        <ele>6.8</ele>
        <time>2021-10-21T15:16:11Z</time>
      </trkpt>
      <trkpt lat="37.3843750" lon="-5.9987020">
        <ele>6.8</ele>
        <time>2021-10-21T15:16:11Z</time>
      </trkpt>
      <trkpt lat="37.3843980" lon="-5.9987210">
        <ele>6.8</ele>
        <time>2021-10-21T15:16:11Z</time>
      </trkpt>
      <trkpt lat="37.3845260" lon="-5.9988490">
        <ele>6.8</ele>
        <time>2021-10-21T15:16:11Z</time>
      </trkpt>
      <trkpt lat="37.3847350" lon="-5.9990560">
        <ele>6.8</ele>
        <time>2021-10-21T15:16:11Z</time>
      </trkpt>
      <trkpt lat="37.3849280" lon="-5.9992760">
        <ele>6.8</ele>
        <time>2021-10-21T15:16:11Z</time>
      </trkpt>
      <trkpt lat="37.3851590" lon="-5.9995390">
        <ele>6.8</ele>
        <time>2021-10-21T15:16:11Z</time>
      </trkpt>
      <trkpt lat="37.3852890" lon="-5.9996900">
        <ele>6.9</ele>
        <time>2021-10-21T15:16:11Z</time>
      </trkpt>
      <trkpt lat="37.3853810" lon="-5.9997780">
        <ele>6.9</ele>
        <time>2021-10-21T15:16:11Z</time>
      </trkpt>
      <trkpt lat="37.3855050" lon="-5.9999140">
        <ele>6.9</ele>
        <time>2021-10-21T15:16:11Z</time>
      </trkpt>
      <trkpt lat="37.3856610" lon="-6.0000930">
        <ele>7.0</ele>
        <time>2021-10-21T15:16:11Z</time>
      </trkpt>
      <trkpt lat="37.3857250" lon="-6.0001730">
        <ele>7.1</ele>
        <time>2021-10-21T15:16:11Z</time>
      </trkpt>
      <trkpt lat="37.3857480" lon="-6.0001990">
        <ele>7.1</ele>
        <time>2021-10-21T15:16:11Z</time>
      </trkpt>
      <trkpt lat="37.3858490" lon="-6.0002800">
        <ele>7.2</ele>
        <time>2021-10-21T15:16:11Z</time>
      </trkpt>
      <trkpt lat="37.3858750" lon="-6.0003020">
        <ele>7.2</ele>
        <time>2021-10-21T15:16:11Z</time>
      </trkpt>
      <trkpt lat="37.3859570" lon="-6.0004110">
        <ele>7.3</ele>
        <time>2021-10-21T15:16:11Z</time>
      </trkpt>
      <trkpt lat="37.3859820" lon="-6.0004720">
        <ele>7.4</ele>
        <time>2021-10-21T15:16:11Z</time>
      </trkpt>
      <trkpt lat="37.3860850" lon="-6.0007300">
        <ele>7.5</ele>
        <time>2021-10-21T15:16:11Z</time>
      </trkpt>
      <trkpt lat="37.3860930" lon="-6.0007560">
        <ele>7.6</ele>
        <time>2021-10-21T15:16:11Z</time>
      </trkpt>
      <trkpt lat="37.3860920" lon="-6.0008090">
        <ele>7.6</ele>
        <time>2021-10-21T15:16:11Z</time>
      </trkpt>
      <trkpt lat="37.3860820" lon="-6.0008480">
        <ele>7.6</ele>
        <time>2021-10-21T15:16:11Z</time>
      </trkpt>
      <trkpt lat="37.3860850" lon="-6.0008630">
        <ele>7.6</ele>
        <time>2021-10-21T15:16:11Z</time>
      </trkpt>
      <trkpt lat="37.3861210" lon="-6.0008310">
        <ele>7.6</ele>
        <time>2021-10-21T15:16:11Z</time>
      </trkpt>
      <trkpt lat="37.3861420" lon="-6.0008190">
        <ele>7.6</ele>
        <time>2021-10-21T15:16:11Z</time>
      </trkpt>
      <trkpt lat="37.3862330" lon="-6.0007690">
        <ele>7.7</ele>
        <time>2021-10-21T15:16:11Z</time>
      </trkpt>
      <trkpt lat="37.3862650" lon="-6.0007640">
        <ele>7.8</ele>
        <time>2021-10-21T15:16:11Z</time>
      </trkpt>
      <trkpt lat="37.3863940" lon="-6.0006460">
        <ele>8.3</ele>
        <time>2021-10-21T15:16:11Z</time>
      </trkpt>
      <trkpt lat="37.3863910" lon="-6.0005980">
        <ele>8.4</ele>
        <time>2021-10-21T15:16:11Z</time>
      </trkpt>
      <trkpt lat="37.3863630" lon="-6.0005550">
        <ele>8.6</ele>
        <time>2021-10-21T15:16:11Z</time>
      </trkpt>
      <trkpt lat="37.3862810" lon="-6.0004480">
        <ele>9.1</ele>
        <time>2021-10-21T15:16:11Z</time>
      </trkpt>
      <trkpt lat="37.3862550" lon="-6.0004150">
        <ele>9.3</ele>
        <time>2021-10-21T15:16:11Z</time>
      </trkpt>
      <trkpt lat="37.3862120" lon="-6.0003730">
        <ele>9.5</ele>
        <time>2021-10-21T15:16:11Z</time>
      </trkpt>
      <trkpt lat="37.3861640" lon="-6.0003130">
        <ele>9.9</ele>
        <time>2021-10-21T15:16:11Z</time>
      </trkpt>
      <trkpt lat="37.3861420" lon="-6.0002870">
        <ele>10.1</ele>
        <time>2021-10-21T15:16:11Z</time>
      </trkpt>
      <trkpt lat="37.3861050" lon="-6.0002440">
        <ele>10.3</ele>
        <time>2021-10-21T15:16:11Z</time>
      </trkpt>
      <trkpt lat="37.3860700" lon="-6.0002020">
        <ele>10.6</ele>
        <time>2021-10-21T15:16:11Z</time>
      </trkpt>
      <trkpt lat="37.3860220" lon="-6.0001440">
        <ele>11.0</ele>
        <time>2021-10-21T15:16:11Z</time>
      </trkpt>
      <trkpt lat="37.3860210" lon="-6.0001280">
        <ele>11.1</ele>
        <time>2021-10-21T15:16:11Z</time>
      </trkpt>
      <trkpt lat="37.3860270" lon="-6.0001000">
        <ele>11.2</ele>
        <time>2021-10-21T15:16:11Z</time>
      </trkpt>
      <trkpt lat="37.3860300" lon="-6.0000790">
        <ele>11.3</ele>
        <time>2021-10-21T15:16:11Z</time>
      </trkpt>
      <trkpt lat="37.3860310" lon="-6.0000750">
        <ele>11.3</ele>
        <time>2021-10-21T15:16:11Z</time>
      </trkpt>
      <trkpt lat="37.3860980" lon="-6.0001530">
        <ele>11.4</ele>
        <time>2021-10-21T15:16:11Z</time>
      </trkpt>
      <trkpt lat="37.3861130" lon="-6.0001720">
        <ele>11.4</ele>
        <time>2021-10-21T15:16:11Z</time>
      </trkpt>
      <trkpt lat="37.3862030" lon="-6.0002620">
        <ele>11.5</ele>
        <time>2021-10-21T15:16:11Z</time>
      </trkpt>
      <trkpt lat="37.3862850" lon="-6.0003450">
        <ele>11.6</ele>
        <time>2021-10-21T15:16:11Z</time>
      </trkpt>
      <trkpt lat="37.3863460" lon="-6.0004040">
        <ele>11.7</ele>
        <time>2021-10-21T15:16:11Z</time>
      </trkpt>
      <trkpt lat="37.3864540" lon="-6.0005340">
        <ele>11.8</ele>
        <time>2021-10-21T15:16:11Z</time>
      </trkpt>
      <trkpt lat="37.3865070" lon="-6.0005830">
        <ele>11.9</ele>
        <time>2021-10-21T15:16:11Z</time>
      </trkpt>
      <trkpt lat="37.3865210" lon="-6.0005920">
        <ele>11.9</ele>
        <time>2021-10-21T15:16:11Z</time>
      </trkpt>
      <trkpt lat="37.3865460" lon="-6.0005850">
        <ele>11.9</ele>
        <time>2021-10-21T15:16:11Z</time>
      </trkpt>
      <trkpt lat="37.3866070" lon="-6.0005060">
        <ele>12.0</ele>
        <time>2021-10-21T15:16:11Z</time>
      </trkpt>
      <trkpt lat="37.3867160" lon="-6.0003730">
        <ele>12.1</ele>
        <time>2021-10-21T15:16:11Z</time>
      </trkpt>
      <trkpt lat="37.3867360" lon="-6.0002790">
        <ele>12.1</ele>
        <time>2021-10-21T15:16:11Z</time>
      </trkpt>
      <trkpt lat="37.3866900" lon="-6.0001880">
        <ele>12.1</ele>
        <time>2021-10-21T15:16:11Z</time>
      </trkpt>
      <trkpt lat="37.3866660" lon="-6.0001570">
        <ele>12.1</ele>
        <time>2021-10-21T15:16:11Z</time>
      </trkpt>
      <trkpt lat="37.3866290" lon="-6.0001080">
        <ele>12.2</ele>
        <time>2021-10-21T15:16:11Z</time>
      </trkpt>
      <trkpt lat="37.3866160" lon="-6.0000540">
        <ele>12.3</ele>
        <time>2021-10-21T15:16:11Z</time>
      </trkpt>
      <trkpt lat="37.3865950" lon="-5.9998880">
        <ele>12.4</ele>
        <time>2021-10-21T15:16:11Z</time>
      </trkpt>
      <trkpt lat="37.3865920" lon="-5.9998500">
        <ele>12.5</ele>
        <time>2021-10-21T15:16:11Z</time>
      </trkpt>
      <trkpt lat="37.3865810" lon="-5.9996400">
        <ele>12.6</ele>
        <time>2021-10-21T15:16:11Z</time>
      </trkpt>
      <trkpt lat="37.3866120" lon="-5.9993350">
        <ele>12.6</ele>
        <time>2021-10-21T15:16:11Z</time>
      </trkpt>
      <trkpt lat="37.3866320" lon="-5.9990720">
        <ele>12.7</ele>
        <time>2021-10-21T15:16:11Z</time>
      </trkpt>
      <trkpt lat="37.3866620" lon="-5.9988480">
        <ele>12.8</ele>
        <time>2021-10-21T15:16:11Z</time>
      </trkpt>
      <trkpt lat="37.3866660" lon="-5.9987440">
        <ele>12.9</ele>
        <time>2021-10-21T15:16:11Z</time>
      </trkpt>
      <trkpt lat="37.3867030" lon="-5.9984360">
        <ele>13.0</ele>
        <time>2021-10-21T15:16:11Z</time>
      </trkpt>
      <trkpt lat="37.3867040" lon="-5.9982860">
        <ele>13.1</ele>
        <time>2021-10-21T15:16:11Z</time>
      </trkpt>
      <trkpt lat="37.3867020" lon="-5.9981880">
        <ele>13.1</ele>
        <time>2021-10-21T15:16:11Z</time>
      </trkpt>
      <trkpt lat="37.3866640" lon="-5.9980600">
        <ele>13.1</ele>
        <time>2021-10-21T15:16:11Z</time>
      </trkpt>
      <trkpt lat="37.3866170" lon="-5.9979300">
        <ele>13.1</ele>
        <time>2021-10-21T15:16:11Z</time>
      </trkpt>
      <trkpt lat="37.3865440" lon="-5.9978280">
        <ele>13.1</ele>
        <time>2021-10-21T15:16:11Z</time>
      </trkpt>
      <trkpt lat="37.3865020" lon="-5.9977440">
        <ele>13.1</ele>
        <time>2021-10-21T15:16:11Z</time>
      </trkpt>
      <trkpt lat="37.3864000" lon="-5.9974430">
        <ele>13.2</ele>
        <time>2021-10-21T15:16:11Z</time>
      </trkpt>
      <trkpt lat="37.3863440" lon="-5.9972290">
        <ele>13.3</ele>
        <time>2021-10-21T15:16:11Z</time>
      </trkpt>
      <trkpt lat="37.3862900" lon="-5.9969890">
        <ele>13.4</ele>
        <time>2021-10-21T15:16:11Z</time>
      </trkpt>
      <trkpt lat="37.3862790" lon="-5.9967760">
        <ele>13.5</ele>
        <time>2021-10-21T15:16:11Z</time>
      </trkpt>
      <trkpt lat="37.3863260" lon="-5.9966340">
        <ele>13.6</ele>
        <time>2021-10-21T15:16:11Z</time>
      </trkpt>
      <trkpt lat="37.3863320" lon="-5.9966060">
        <ele>13.6</ele>
        <time>2021-10-21T15:16:11Z</time>
      </trkpt>
      <trkpt lat="37.3863290" lon="-5.9965620">
        <ele>13.6</ele>
        <time>2021-10-21T15:16:11Z</time>
      </trkpt>
      <trkpt lat="37.3863280" lon="-5.9965260">
        <ele>13.6</ele>
        <time>2021-10-21T15:16:11Z</time>
      </trkpt>
      <trkpt lat="37.3862500" lon="-5.9963380">
        <ele>13.6</ele>
        <time>2021-10-21T15:16:11Z</time>
      </trkpt>
      <trkpt lat="37.3862540" lon="-5.9963000">
        <ele>13.6</ele>
        <time>2021-10-21T15:16:11Z</time>
      </trkpt>
      <trkpt lat="37.3862510" lon="-5.9962740">
        <ele>13.6</ele>
        <time>2021-10-21T15:16:11Z</time>
      </trkpt>
      <trkpt lat="37.3862440" lon="-5.9962540">
        <ele>13.6</ele>
        <time>2021-10-21T15:16:11Z</time>
      </trkpt>
      <trkpt lat="37.3861500" lon="-5.9961600">
        <ele>13.7</ele>
        <time>2021-10-21T15:16:11Z</time>
      </trkpt>
      <trkpt lat="37.3861120" lon="-5.9961580">
        <ele>13.8</ele>
        <time>2021-10-21T15:16:11Z</time>
      </trkpt>
      <trkpt lat="37.3860720" lon="-5.9960990">
        <ele>13.9</ele>
        <time>2021-10-21T15:16:11Z</time>
      </trkpt>
      <trkpt lat="37.3860710" lon="-5.9960800">
        <ele>14.0</ele>
        <time>2021-10-21T15:16:11Z</time>
      </trkpt>
      <trkpt lat="37.3860650" lon="-5.9960600">
        <ele>14.0</ele>
        <time>2021-10-21T15:16:11Z</time>
      </trkpt>
      <trkpt lat="37.3860510" lon="-5.9960470">
        <ele>14.1</ele>
        <time>2021-10-21T15:16:11Z</time>
      </trkpt>
      <trkpt lat="37.3860470" lon="-5.9960370">
        <ele>14.1</ele>
        <time>2021-10-21T15:16:11Z</time>
      </trkpt>
      <trkpt lat="37.3860360" lon="-5.9959180">
        <ele>14.3</ele>
        <time>2021-10-21T15:16:11Z</time>
      </trkpt>
      <trkpt lat="37.3860320" lon="-5.9959060">
        <ele>14.3</ele>
        <time>2021-10-21T15:16:11Z</time>
      </trkpt>
      <trkpt lat="37.3860180" lon="-5.9958730">
        <ele>14.3</ele>
        <time>2021-10-21T15:16:11Z</time>
      </trkpt>
      <trkpt lat="37.3859920" lon="-5.9958120">
        <ele>14.5</ele>
        <time>2021-10-21T15:16:11Z</time>
      </trkpt>
      <trkpt lat="37.3859230" lon="-5.9957080">
        <ele>14.7</ele>
        <time>2021-10-21T15:16:11Z</time>
      </trkpt>
      <trkpt lat="37.3858790" lon="-5.9956480">
        <ele>14.8</ele>
        <time>2021-10-21T15:16:11Z</time>
      </trkpt>
      <trkpt lat="37.3858690" lon="-5.9956220">
        <ele>14.9</ele>
        <time>2021-10-21T15:16:11Z</time>
      </trkpt>
      <trkpt lat="37.3858120" lon="-5.9955690">
        <ele>14.9</ele>
        <time>2021-10-21T15:16:11Z</time>
      </trkpt>
      <trkpt lat="37.3857970" lon="-5.9955390">
        <ele>14.8</ele>
        <time>2021-10-21T15:16:11Z</time>
      </trkpt>
      <trkpt lat="37.3857770" lon="-5.9955180">
        <ele>14.8</ele>
        <time>2021-10-21T15:16:11Z</time>
      </trkpt>
      <trkpt lat="37.3857680" lon="-5.9955070">
        <ele>14.8</ele>
        <time>2021-10-21T15:16:11Z</time>
      </trkpt>
      <trkpt lat="37.3857570" lon="-5.9954850">
        <ele>14.7</ele>
        <time>2021-10-21T15:16:11Z</time>
      </trkpt>
      <trkpt lat="37.3857240" lon="-5.9954390">
        <ele>14.7</ele>
        <time>2021-10-21T15:16:11Z</time>
      </trkpt>
      <trkpt lat="37.3856740" lon="-5.9953750">
        <ele>14.6</ele>
        <time>2021-10-21T15:16:11Z</time>
      </trkpt>
      <trkpt lat="37.3856630" lon="-5.9953710">
        <ele>14.6</ele>
        <time>2021-10-21T15:16:11Z</time>
      </trkpt>
      <trkpt lat="37.3856540" lon="-5.9953700">
        <ele>14.6</ele>
        <time>2021-10-21T15:16:11Z</time>
      </trkpt>
      <trkpt lat="37.3856330" lon="-5.9953790">
        <ele>14.5</ele>
        <time>2021-10-21T15:16:11Z</time>
      </trkpt>
      <trkpt lat="37.3856100" lon="-5.9953650">
        <ele>14.5</ele>
        <time>2021-10-21T15:16:11Z</time>
      </trkpt>
      <trkpt lat="37.3855910" lon="-5.9953580">
        <ele>14.5</ele>
        <time>2021-10-21T15:16:11Z</time>
      </trkpt>
      <trkpt lat="37.3855880" lon="-5.9953600">
        <ele>14.5</ele>
        <time>2021-10-21T15:16:11Z</time>
      </trkpt>
      <trkpt lat="37.3854970" lon="-5.9952970">
        <ele>14.6</ele>
        <time>2021-10-21T15:16:11Z</time>
      </trkpt>
      <trkpt lat="37.3854700" lon="-5.9952900">
        <ele>14.6</ele>
        <time>2021-10-21T15:16:11Z</time>
      </trkpt>
      <trkpt lat="37.3854430" lon="-5.9952670">
        <ele>14.6</ele>
        <time>2021-10-21T15:16:11Z</time>
      </trkpt>
      <trkpt lat="37.3854100" lon="-5.9952170">
        <ele>14.5</ele>
        <time>2021-10-21T15:16:11Z</time>
      </trkpt>
      <trkpt lat="37.3854010" lon="-5.9952030">
        <ele>14.5</ele>
        <time>2021-10-21T15:16:11Z</time>
      </trkpt>
      <trkpt lat="37.3853800" lon="-5.9951650">
        <ele>14.5</ele>
        <time>2021-10-21T15:16:11Z</time>
      </trkpt>
      <trkpt lat="37.3853390" lon="-5.9951210">
        <ele>14.4</ele>
        <time>2021-10-21T15:16:11Z</time>
      </trkpt>
      <trkpt lat="37.3853250" lon="-5.9950690">
        <ele>14.3</ele>
        <time>2021-10-21T15:16:11Z</time>
      </trkpt>
      <trkpt lat="37.3853160" lon="-5.9950520">
        <ele>14.3</ele>
        <time>2021-10-21T15:16:11Z</time>
      </trkpt>
      <trkpt lat="37.3853140" lon="-5.9950350">
        <ele>14.3</ele>
        <time>2021-10-21T15:16:11Z</time>
      </trkpt>
      <trkpt lat="37.3853280" lon="-5.9949930">
        <ele>14.2</ele>
        <time>2021-10-21T15:16:11Z</time>
      </trkpt>
      <trkpt lat="37.3853180" lon="-5.9949610">
        <ele>14.2</ele>
        <time>2021-10-21T15:16:11Z</time>
      </trkpt>
      <trkpt lat="37.3853060" lon="-5.9949370">
        <ele>14.3</ele>
        <time>2021-10-21T15:16:11Z</time>
      </trkpt>
      <trkpt lat="37.3852460" lon="-5.9948650">
        <ele>14.3</ele>
        <time>2021-10-21T15:16:11Z</time>
      </trkpt>
      <trkpt lat="37.3851830" lon="-5.9948290">
        <ele>14.3</ele>
        <time>2021-10-21T15:16:11Z</time>
      </trkpt>
      <trkpt lat="37.3851750" lon="-5.9948280">
        <ele>14.3</ele>
        <time>2021-10-21T15:16:11Z</time>
      </trkpt>
      <trkpt lat="37.3851980" lon="-5.9943980">
        <ele>14.6</ele>
        <time>2021-10-21T15:16:11Z</time>
      </trkpt>
      <trkpt lat="37.3851700" lon="-5.9943010">
        <ele>14.6</ele>
        <time>2021-10-21T15:16:11Z</time>
      </trkpt>
      <trkpt lat="37.3852230" lon="-5.9941910">
        <ele>14.7</ele>
        <time>2021-10-21T15:16:11Z</time>
      </trkpt>
      <trkpt lat="37.3852360" lon="-5.9941160">
        <ele>14.7</ele>
        <time>2021-10-21T15:16:11Z</time>
      </trkpt>
      <trkpt lat="37.3852360" lon="-5.9941050">
        <ele>14.7</ele>
        <time>2021-10-21T15:16:11Z</time>
      </trkpt>
      <trkpt lat="37.3851450" lon="-5.9940570">
        <ele>14.8</ele>
        <time>2021-10-21T15:16:11Z</time>
      </trkpt>
      <trkpt lat="37.3851410" lon="-5.9940520">
        <ele>14.8</ele>
        <time>2021-10-21T15:16:11Z</time>
      </trkpt>
      <trkpt lat="37.3851260" lon="-5.9939180">
        <ele>14.9</ele>
        <time>2021-10-21T15:16:11Z</time>
      </trkpt>
      <trkpt lat="37.3851080" lon="-5.9938700">
        <ele>14.9</ele>
        <time>2021-10-21T15:16:11Z</time>
      </trkpt>
      <trkpt lat="37.3850980" lon="-5.9938570">
        <ele>14.9</ele>
        <time>2021-10-21T15:16:11Z</time>
      </trkpt>
      <trkpt lat="37.3850630" lon="-5.9937540">
        <ele>15.0</ele>
        <time>2021-10-21T15:16:11Z</time>
      </trkpt>
      <trkpt lat="37.3850300" lon="-5.9936430">
        <ele>15.1</ele>
        <time>2021-10-21T15:16:11Z</time>
      </trkpt>
      <trkpt lat="37.3850380" lon="-5.9935030">
        <ele>15.3</ele>
        <time>2021-10-21T15:16:11Z</time>
      </trkpt>
      <trkpt lat="37.3850410" lon="-5.9934860">
        <ele>15.4</ele>
        <time>2021-10-21T15:16:11Z</time>
      </trkpt>
      <trkpt lat="37.3850450" lon="-5.9934620">
        <ele>15.4</ele>
        <time>2021-10-21T15:16:11Z</time>
      </trkpt>
      <trkpt lat="37.3850450" lon="-5.9934530">
        <ele>15.4</ele>
        <time>2021-10-21T15:16:11Z</time>
      </trkpt>
      <trkpt lat="37.3850490" lon="-5.9934240">
        <ele>15.5</ele>
        <time>2021-10-21T15:16:11Z</time>
      </trkpt>
      <trkpt lat="37.3850740" lon="-5.9933530">
        <ele>15.6</ele>
        <time>2021-10-21T15:16:11Z</time>
      </trkpt>
      <trkpt lat="37.3850810" lon="-5.9933170">
        <ele>15.7</ele>
        <time>2021-10-21T15:16:11Z</time>
      </trkpt>
      <trkpt lat="37.3850830" lon="-5.9932180">
        <ele>15.9</ele>
        <time>2021-10-21T15:16:11Z</time>
      </trkpt>
      <trkpt lat="37.3850910" lon="-5.9931620">
        <ele>16.0</ele>
        <time>2021-10-21T15:16:11Z</time>
      </trkpt>
      <trkpt lat="37.3851070" lon="-5.9930760">
        <ele>16.2</ele>
        <time>2021-10-21T15:16:11Z</time>
      </trkpt>
      <trkpt lat="37.3851530" lon="-5.9929150">
        <ele>16.5</ele>
        <time>2021-10-21T15:16:11Z</time>
      </trkpt>
      <trkpt lat="37.3851560" lon="-5.9928940">
        <ele>16.5</ele>
        <time>2021-10-21T15:16:11Z</time>
      </trkpt>
      <trkpt lat="37.3851480" lon="-5.9926770">
        <ele>16.9</ele>
        <time>2021-10-21T15:16:11Z</time>
      </trkpt>
      <trkpt lat="37.3851710" lon="-5.9924870">
        <ele>17.1</ele>
        <time>2021-10-21T15:16:11Z</time>
      </trkpt>
      <trkpt lat="37.3852280" lon="-5.9922760">
        <ele>17.2</ele>
        <time>2021-10-21T15:16:11Z</time>
      </trkpt>
      <trkpt lat="37.3852780" lon="-5.9921650">
        <ele>17.3</ele>
        <time>2021-10-21T15:16:11Z</time>
      </trkpt>
      <trkpt lat="37.3852780" lon="-5.9921470">
        <ele>17.3</ele>
        <time>2021-10-21T15:16:11Z</time>
      </trkpt>
      <trkpt lat="37.3852940" lon="-5.9921580">
        <ele>17.3</ele>
        <time>2021-10-21T15:16:11Z</time>
      </trkpt>
      <trkpt lat="37.3853100" lon="-5.9921690">
        <ele>17.3</ele>
        <time>2021-10-21T15:16:11Z</time>
      </trkpt>
      <trkpt lat="37.3853290" lon="-5.9921790">
        <ele>17.3</ele>
        <time>2021-10-21T15:16:11Z</time>
      </trkpt>
      <trkpt lat="37.3853950" lon="-5.9921890">
        <ele>17.3</ele>
        <time>2021-10-21T15:16:11Z</time>
      </trkpt>
      <trkpt lat="37.3855680" lon="-5.9922330">
        <ele>17.3</ele>
        <time>2021-10-21T15:16:11Z</time>
      </trkpt>
      <trkpt lat="37.3855930" lon="-5.9922430">
        <ele>17.3</ele>
        <time>2021-10-21T15:16:11Z</time>
      </trkpt>
      <trkpt lat="37.3856510" lon="-5.9922610">
        <ele>17.3</ele>
        <time>2021-10-21T15:16:11Z</time>
      </trkpt>
      <trkpt lat="37.3856580" lon="-5.9922630">
        <ele>17.3</ele>
        <time>2021-10-21T15:16:11Z</time>
      </trkpt>
      <trkpt lat="37.3856610" lon="-5.9922580">
        <ele>17.3</ele>
        <time>2021-10-21T15:16:11Z</time>
      </trkpt>
      <trkpt lat="37.3856770" lon="-5.9922380">
        <ele>17.2</ele>
        <time>2021-10-21T15:16:11Z</time>
      </trkpt>
      <trkpt lat="37.3857270" lon="-5.9922210">
        <ele>17.2</ele>
        <time>2021-10-21T15:16:11Z</time>
      </trkpt>
      <trkpt lat="37.3858600" lon="-5.9922040">
        <ele>17.2</ele>
        <time>2021-10-21T15:16:11Z</time>
      </trkpt>
      <trkpt lat="37.3859680" lon="-5.9921720">
        <ele>17.1</ele>
        <time>2021-10-21T15:16:11Z</time>
      </trkpt>
      <trkpt lat="37.3860820" lon="-5.9921450">
        <ele>17.0</ele>
        <time>2021-10-21T15:16:11Z</time>
      </trkpt>
      <trkpt lat="37.3861260" lon="-5.9920590">
        <ele>17.0</ele>
        <time>2021-10-21T15:16:11Z</time>
      </trkpt>
      <trkpt lat="37.3861600" lon="-5.9920530">
        <ele>17.0</ele>
        <time>2021-10-21T15:16:11Z</time>
      </trkpt>
      <trkpt lat="37.3861760" lon="-5.9920630">
        <ele>17.0</ele>
        <time>2021-10-21T15:16:11Z</time>
      </trkpt>
      <trkpt lat="37.3862050" lon="-5.9920960">
        <ele>17.0</ele>
        <time>2021-10-21T15:16:11Z</time>
      </trkpt>
      <trkpt lat="37.3862190" lon="-5.9920950">
        <ele>17.0</ele>
        <time>2021-10-21T15:16:11Z</time>
      </trkpt>
      <trkpt lat="37.3862350" lon="-5.9920610">
        <ele>17.0</ele>
        <time>2021-10-21T15:16:11Z</time>
      </trkpt>
      <trkpt lat="37.3862180" lon="-5.9920850">
        <ele>17.0</ele>
        <time>2021-10-21T15:16:11Z</time>
      </trkpt>
      <trkpt lat="37.3862170" lon="-5.9920860">
        <ele>17.0</ele>
        <time>2021-10-21T15:16:11Z</time>
      </trkpt>
      <trkpt lat="37.3862060" lon="-5.9920710">
        <ele>17.0</ele>
        <time>2021-10-21T15:16:11Z</time>
      </trkpt>
      <trkpt lat="37.3861850" lon="-5.9920250">
        <ele>17.1</ele>
        <time>2021-10-21T15:16:11Z</time>
      </trkpt>
      <trkpt lat="37.3861720" lon="-5.9920010">
        <ele>17.1</ele>
        <time>2021-10-21T15:16:11Z</time>
      </trkpt>
      <trkpt lat="37.3861530" lon="-5.9919850">
        <ele>17.1</ele>
        <time>2021-10-21T15:16:11Z</time>
      </trkpt>
      <trkpt lat="37.3861380" lon="-5.9919670">
        <ele>17.1</ele>
        <time>2021-10-21T15:16:11Z</time>
      </trkpt>
      <trkpt lat="37.3861330" lon="-5.9919590">
        <ele>17.1</ele>
        <time>2021-10-21T15:16:11Z</time>
      </trkpt>
      <trkpt lat="37.3861290" lon="-5.9919570">
        <ele>17.1</ele>
        <time>2021-10-21T15:16:11Z</time>
      </trkpt>
      <trkpt lat="37.3860900" lon="-5.9919710">
        <ele>17.1</ele>
        <time>2021-10-21T15:16:11Z</time>
      </trkpt>
      <trkpt lat="37.3860860" lon="-5.9919690">
        <ele>17.1</ele>
        <time>2021-10-21T15:16:11Z</time>
      </trkpt>
      <trkpt lat="37.3859980" lon="-5.9921340">
        <ele>17.2</ele>
        <time>2021-10-21T15:16:11Z</time>
      </trkpt>
      <trkpt lat="37.3859910" lon="-5.9921520">
        <ele>17.2</ele>
        <time>2021-10-21T15:16:11Z</time>
      </trkpt>
      <trkpt lat="37.3859690" lon="-5.9921600">
        <ele>17.2</ele>
        <time>2021-10-21T15:16:11Z</time>
      </trkpt>
      <trkpt lat="37.3859020" lon="-5.9921530">
        <ele>17.2</ele>
        <time>2021-10-21T15:16:11Z</time>
      </trkpt>
      <trkpt lat="37.3858310" lon="-5.9921980">
        <ele>17.2</ele>
        <time>2021-10-21T15:16:11Z</time>
      </trkpt>
      <trkpt lat="37.3857810" lon="-5.9922430">
        <ele>17.3</ele>
        <time>2021-10-21T15:16:11Z</time>
      </trkpt>
      <trkpt lat="37.3857090" lon="-5.9922640">
        <ele>17.3</ele>
        <time>2021-10-21T15:16:11Z</time>
      </trkpt>
      <trkpt lat="37.3855550" lon="-5.9922520">
        <ele>17.3</ele>
        <time>2021-10-21T15:16:11Z</time>
      </trkpt>
      <trkpt lat="37.3854530" lon="-5.9921790">
        <ele>17.3</ele>
        <time>2021-10-21T15:16:11Z</time>
      </trkpt>
      <trkpt lat="37.3853850" lon="-5.9921140">
        <ele>17.3</ele>
        <time>2021-10-21T15:16:11Z</time>
      </trkpt>
      <trkpt lat="37.3853290" lon="-5.9920520">
        <ele>17.3</ele>
        <time>2021-10-21T15:16:11Z</time>
      </trkpt>
      <trkpt lat="37.3852890" lon="-5.9920190">
        <ele>17.3</ele>
        <time>2021-10-21T15:16:11Z</time>
      </trkpt>
      <trkpt lat="37.3852800" lon="-5.9920030">
        <ele>17.5</ele>
        <time>2021-10-21T15:16:11Z</time>
      </trkpt>
      <trkpt lat="37.3852530" lon="-5.9919540">
        <ele>17.4</ele>
        <time>2021-10-21T15:16:11Z</time>
      </trkpt>
      <trkpt lat="37.3852350" lon="-5.9919530">
        <ele>17.6</ele>
        <time>2021-10-21T15:16:11Z</time>
      </trkpt>
      <trkpt lat="37.3851850" lon="-5.9919470">
        <ele>17.5</ele>
        <time>2021-10-21T15:16:11Z</time>
      </trkpt>
      <trkpt lat="37.3851740" lon="-5.9919540">
        <ele>17.7</ele>
        <time>2021-10-21T15:16:11Z</time>
      </trkpt>
      <trkpt lat="37.3851550" lon="-5.9919540">
        <ele>17.8</ele>
        <time>2021-10-21T15:16:11Z</time>
      </trkpt>
      <trkpt lat="37.3851490" lon="-5.9919390">
        <ele>18.1</ele>
        <time>2021-10-21T15:16:11Z</time>
      </trkpt>
      <trkpt lat="37.3851040" lon="-5.9919910">
        <ele>18.2</ele>
        <time>2021-10-21T15:16:11Z</time>
      </trkpt>
      <trkpt lat="37.3850800" lon="-5.9920250">
        <ele>18.3</ele>
        <time>2021-10-21T15:16:11Z</time>
      </trkpt>
      <trkpt lat="37.3850030" lon="-5.9921370">
        <ele>18.1</ele>
        <time>2021-10-21T15:16:11Z</time>
      </trkpt>
      <trkpt lat="37.3848880" lon="-5.9923430">
        <ele>17.5</ele>
        <time>2021-10-21T15:16:11Z</time>
      </trkpt>
      <trkpt lat="37.3847700" lon="-5.9924720">
        <ele>17.2</ele>
        <time>2021-10-21T15:16:11Z</time>
      </trkpt>
      <trkpt lat="37.3846790" lon="-5.9924880">
        <ele>17.0</ele>
        <time>2021-10-21T15:16:11Z</time>
      </trkpt>
      <trkpt lat="37.3846090" lon="-5.9925440">
        <ele>17.1</ele>
        <time>2021-10-21T15:16:11Z</time>
      </trkpt>
      <trkpt lat="37.3845340" lon="-5.9926470">
        <ele>17.1</ele>
        <time>2021-10-21T15:16:11Z</time>
      </trkpt>
      <trkpt lat="37.3844870" lon="-5.9927050">
        <ele>17.1</ele>
        <time>2021-10-21T15:16:11Z</time>
      </trkpt>
      <trkpt lat="37.3843890" lon="-5.9928550">
        <ele>16.8</ele>
        <time>2021-10-21T15:16:11Z</time>
      </trkpt>
      <trkpt lat="37.3843460" lon="-5.9929440">
        <ele>16.6</ele>
        <time>2021-10-21T15:16:11Z</time>
      </trkpt>
      <trkpt lat="37.3842670" lon="-5.9932180">
        <ele>16.2</ele>
        <time>2021-10-21T15:16:11Z</time>
      </trkpt>
      <trkpt lat="37.3842550" lon="-5.9932410">
        <ele>16.1</ele>
        <time>2021-10-21T15:16:11Z</time>
      </trkpt>
      <trkpt lat="37.3842230" lon="-5.9932890">
        <ele>16.0</ele>
        <time>2021-10-21T15:16:11Z</time>
      </trkpt>
      <trkpt lat="37.3841810" lon="-5.9934220">
        <ele>15.8</ele>
        <time>2021-10-21T15:16:11Z</time>
      </trkpt>
      <trkpt lat="37.3841310" lon="-5.9935200">
        <ele>15.6</ele>
        <time>2021-10-21T15:16:11Z</time>
      </trkpt>
      <trkpt lat="37.3840850" lon="-5.9935820">
        <ele>15.3</ele>
        <time>2021-10-21T15:16:11Z</time>
      </trkpt>
      <trkpt lat="37.3839750" lon="-5.9936500">
        <ele>14.0</ele>
        <time>2021-10-21T15:16:11Z</time>
      </trkpt>
      <trkpt lat="37.3838010" lon="-5.9936560">
        <ele>13.9</ele>
        <time>2021-10-21T15:16:11Z</time>
      </trkpt>
      <trkpt lat="37.3837030" lon="-5.9936490">
        <ele>13.8</ele>
        <time>2021-10-21T15:16:11Z</time>
      </trkpt>
      <trkpt lat="37.3835160" lon="-5.9936110">
        <ele>13.8</ele>
        <time>2021-10-21T15:16:11Z</time>
      </trkpt>
      <trkpt lat="37.3833530" lon="-5.9935840">
        <ele>13.8</ele>
        <time>2021-10-21T15:16:11Z</time>
      </trkpt>
      <trkpt lat="37.3832140" lon="-5.9935470">
        <ele>13.7</ele>
        <time>2021-10-21T15:16:11Z</time>
      </trkpt>
      <trkpt lat="37.3831340" lon="-5.9935340">
        <ele>13.7</ele>
        <time>2021-10-21T15:16:11Z</time>
      </trkpt>
      <trkpt lat="37.3829960" lon="-5.9935290">
        <ele>13.8</ele>
        <time>2021-10-21T15:16:11Z</time>
      </trkpt>
      <trkpt lat="37.3829320" lon="-5.9935270">
        <ele>13.8</ele>
        <time>2021-10-21T15:16:11Z</time>
      </trkpt>
      <trkpt lat="37.3827440" lon="-5.9934470">
        <ele>13.8</ele>
        <time>2021-10-21T15:16:11Z</time>
      </trkpt>
      <trkpt lat="37.3825920" lon="-5.9933420">
        <ele>14.0</ele>
        <time>2021-10-21T15:16:11Z</time>
      </trkpt>
      <trkpt lat="37.3825700" lon="-5.9933210">
        <ele>14.0</ele>
        <time>2021-10-21T15:16:11Z</time>
      </trkpt>
      <trkpt lat="37.3824130" lon="-5.9931590">
        <ele>14.0</ele>
        <time>2021-10-21T15:16:11Z</time>
      </trkpt>
      <trkpt lat="37.3823860" lon="-5.9931340">
        <ele>13.9</ele>
        <time>2021-10-21T15:16:11Z</time>
      </trkpt>
      <trkpt lat="37.3823200" lon="-5.9930520">
        <ele>13.7</ele>
        <time>2021-10-21T15:16:11Z</time>
      </trkpt>
      <trkpt lat="37.3822680" lon="-5.9929680">
        <ele>12.8</ele>
        <time>2021-10-21T15:16:11Z</time>
      </trkpt>
      <trkpt lat="37.3822410" lon="-5.9928720">
        <ele>12.8</ele>
        <time>2021-10-21T15:16:11Z</time>
      </trkpt>
      <trkpt lat="37.3822080" lon="-5.9927470">
        <ele>12.8</ele>
        <time>2021-10-21T15:16:11Z</time>
      </trkpt>
      <trkpt lat="37.3821750" lon="-5.9926320">
        <ele>12.8</ele>
        <time>2021-10-21T15:16:11Z</time>
      </trkpt>
      <trkpt lat="37.3821510" lon="-5.9925790">
        <ele>12.8</ele>
        <time>2021-10-21T15:16:11Z</time>
      </trkpt>
      <trkpt lat="37.3821090" lon="-5.9924370">
        <ele>12.8</ele>
        <time>2021-10-21T15:16:11Z</time>
      </trkpt>
      <trkpt lat="37.3820800" lon="-5.9922590">
        <ele>12.8</ele>
        <time>2021-10-21T15:16:11Z</time>
      </trkpt>
      <trkpt lat="37.3820690" lon="-5.9921970">
        <ele>12.8</ele>
        <time>2021-10-21T15:16:11Z</time>
      </trkpt>
      <trkpt lat="37.3820300" lon="-5.9920700">
        <ele>12.8</ele>
        <time>2021-10-21T15:16:11Z</time>
      </trkpt>
      <trkpt lat="37.3820180" lon="-5.9919890">
        <ele>12.8</ele>
        <time>2021-10-21T15:16:11Z</time>
      </trkpt>
      <trkpt lat="37.3819650" lon="-5.9917570">
        <ele>12.8</ele>
        <time>2021-10-21T15:16:11Z</time>
      </trkpt>
      <trkpt lat="37.3818710" lon="-5.9914740">
        <ele>12.8</ele>
        <time>2021-10-21T15:16:11Z</time>
      </trkpt>
      <trkpt lat="37.3818630" lon="-5.9914430">
        <ele>12.8</ele>
        <time>2021-10-21T15:16:11Z</time>
      </trkpt>
      <trkpt lat="37.3818250" lon="-5.9913170">
        <ele>12.8</ele>
        <time>2021-10-21T15:16:11Z</time>
      </trkpt>
      <trkpt lat="37.3817650" lon="-5.9910690">
        <ele>12.8</ele>
        <time>2021-10-21T15:16:11Z</time>
      </trkpt>
      <trkpt lat="37.3817010" lon="-5.9908450">
        <ele>12.9</ele>
        <time>2021-10-21T15:16:11Z</time>
      </trkpt>
      <trkpt lat="37.3816710" lon="-5.9907300">
        <ele>12.9</ele>
        <time>2021-10-21T15:16:11Z</time>
      </trkpt>
      <trkpt lat="37.3816100" lon="-5.9905200">
        <ele>12.9</ele>
        <time>2021-10-21T15:16:11Z</time>
      </trkpt>
      <trkpt lat="37.3815730" lon="-5.9903860">
        <ele>12.9</ele>
        <time>2021-10-21T15:16:11Z</time>
      </trkpt>
      <trkpt lat="37.3815490" lon="-5.9902740">
        <ele>12.9</ele>
        <time>2021-10-21T15:16:11Z</time>
      </trkpt>
      <trkpt lat="37.3815070" lon="-5.9901110">
        <ele>12.9</ele>
        <time>2021-10-21T15:16:11Z</time>
      </trkpt>
      <trkpt lat="37.3814610" lon="-5.9899500">
        <ele>12.9</ele>
        <time>2021-10-21T15:16:11Z</time>
      </trkpt>
      <trkpt lat="37.3814160" lon="-5.9897810">
        <ele>12.9</ele>
        <time>2021-10-21T15:16:11Z</time>
      </trkpt>
      <trkpt lat="37.3814120" lon="-5.9897630">
        <ele>12.9</ele>
        <time>2021-10-21T15:16:11Z</time>
      </trkpt>
      <trkpt lat="37.3814080" lon="-5.9896980">
        <ele>12.9</ele>
        <time>2021-10-21T15:16:11Z</time>
      </trkpt>
      <trkpt lat="37.3813740" lon="-5.9895900">
        <ele>12.9</ele>
        <time>2021-10-21T15:16:11Z</time>
      </trkpt>
      <trkpt lat="37.3813960" lon="-5.9896180">
        <ele>12.9</ele>
        <time>2021-10-21T15:16:11Z</time>
      </trkpt>
      <trkpt lat="37.3814250" lon="-5.9896810">
        <ele>12.9</ele>
        <time>2021-10-21T15:16:11Z</time>
      </trkpt>
      <trkpt lat="37.3814960" lon="-5.9898310">
        <ele>12.9</ele>
        <time>2021-10-21T15:16:11Z</time>
      </trkpt>
      <trkpt lat="37.3815240" lon="-5.9898760">
        <ele>12.9</ele>
        <time>2021-10-21T15:16:11Z</time>
      </trkpt>
      <trkpt lat="37.3815670" lon="-5.9899240">
        <ele>12.9</ele>
        <time>2021-10-21T15:16:11Z</time>
      </trkpt>
      <trkpt lat="37.3815890" lon="-5.9899530">
        <ele>12.9</ele>
        <time>2021-10-21T15:16:11Z</time>
      </trkpt>
      <trkpt lat="37.3816040" lon="-5.9899750">
        <ele>12.9</ele>
        <time>2021-10-21T15:16:11Z</time>
      </trkpt>
      <trkpt lat="37.3816330" lon="-5.9899840">
        <ele>12.9</ele>
        <time>2021-10-21T15:16:11Z</time>
      </trkpt>
      <trkpt lat="37.3816350" lon="-5.9899870">
        <ele>12.9</ele>
        <time>2021-10-21T15:16:11Z</time>
      </trkpt>
      <trkpt lat="37.3816390" lon="-5.9900000">
        <ele>13.0</ele>
        <time>2021-10-21T15:16:11Z</time>
      </trkpt>
      <trkpt lat="37.3816140" lon="-5.9900020">
        <ele>13.0</ele>
        <time>2021-10-21T15:16:11Z</time>
      </trkpt>
      <trkpt lat="37.3815980" lon="-5.9900040">
        <ele>13.0</ele>
        <time>2021-10-21T15:16:11Z</time>
      </trkpt>
      <trkpt lat="37.3815820" lon="-5.9899920">
        <ele>13.0</ele>
        <time>2021-10-21T15:16:11Z</time>
      </trkpt>
      <trkpt lat="37.3814990" lon="-5.9898100">
        <ele>13.0</ele>
        <time>2021-10-21T15:16:11Z</time>
      </trkpt>
      <trkpt lat="37.3814390" lon="-5.9896220">
        <ele>13.1</ele>
        <time>2021-10-21T15:16:11Z</time>
      </trkpt>
      <trkpt lat="37.3814310" lon="-5.9895950">
        <ele>13.1</ele>
        <time>2021-10-21T15:16:11Z</time>
      </trkpt>
      <trkpt lat="37.3813960" lon="-5.9894790">
        <ele>13.1</ele>
        <time>2021-10-21T15:16:11Z</time>
      </trkpt>
      <trkpt lat="37.3813870" lon="-5.9893770">
        <ele>13.1</ele>
        <time>2021-10-21T15:16:11Z</time>
      </trkpt>
      <trkpt lat="37.3814280" lon="-5.9892150">
        <ele>13.2</ele>
        <time>2021-10-21T15:16:11Z</time>
      </trkpt>
      <trkpt lat="37.3814340" lon="-5.9891890">
        <ele>13.2</ele>
        <time>2021-10-21T15:16:11Z</time>
      </trkpt>
      <trkpt lat="37.3814580" lon="-5.9891100">
        <ele>13.1</ele>
        <time>2021-10-21T15:16:11Z</time>
      </trkpt>
      <trkpt lat="37.3814590" lon="-5.9890950">
        <ele>13.1</ele>
        <time>2021-10-21T15:16:11Z</time>
      </trkpt>
      <trkpt lat="37.3814570" lon="-5.9891330">
        <ele>13.1</ele>
        <time>2021-10-21T15:16:11Z</time>
      </trkpt>
      <trkpt lat="37.3814410" lon="-5.9891710">
        <ele>13.2</ele>
        <time>2021-10-21T15:16:11Z</time>
      </trkpt>
      <trkpt lat="37.3814040" lon="-5.9891910">
        <ele>13.2</ele>
        <time>2021-10-21T15:16:11Z</time>
      </trkpt>
      <trkpt lat="37.3813070" lon="-5.9891620">
        <ele>13.2</ele>
        <time>2021-10-21T15:16:11Z</time>
      </trkpt>
      <trkpt lat="37.3812870" lon="-5.9891430">
        <ele>13.2</ele>
        <time>2021-10-21T15:16:11Z</time>
      </trkpt>
      <trkpt lat="37.3812360" lon="-5.9890620">
        <ele>13.3</ele>
        <time>2021-10-21T15:16:11Z</time>
      </trkpt>
      <trkpt lat="37.3812110" lon="-5.9890510">
        <ele>13.3</ele>
        <time>2021-10-21T15:16:11Z</time>
      </trkpt>
      <trkpt lat="37.3810680" lon="-5.9891000">
        <ele>13.3</ele>
        <time>2021-10-21T15:16:11Z</time>
      </trkpt>
      <trkpt lat="37.3809370" lon="-5.9891520">
        <ele>13.2</ele>
        <time>2021-10-21T15:16:11Z</time>
      </trkpt>
      <trkpt lat="37.3809210" lon="-5.9891380">
        <ele>13.2</ele>
        <time>2021-10-21T15:16:11Z</time>
      </trkpt>
      <trkpt lat="37.3808630" lon="-5.9890290">
        <ele>13.1</ele>
        <time>2021-10-21T15:16:11Z</time>
      </trkpt>
      <trkpt lat="37.3808360" lon="-5.9889600">
        <ele>13.1</ele>
        <time>2021-10-21T15:16:11Z</time>
      </trkpt>
      <trkpt lat="37.3808190" lon="-5.9888990">
        <ele>13.1</ele>
        <time>2021-10-21T15:16:11Z</time>
      </trkpt>
      <trkpt lat="37.3808040" lon="-5.9888020">
        <ele>13.0</ele>
        <time>2021-10-21T15:16:11Z</time>
      </trkpt>
      <trkpt lat="37.3807600" lon="-5.9886100">
        <ele>12.9</ele>
        <time>2021-10-21T15:16:11Z</time>
      </trkpt>
      <trkpt lat="37.3807190" lon="-5.9884820">
        <ele>12.8</ele>
        <time>2021-10-21T15:16:11Z</time>
      </trkpt>
      <trkpt lat="37.3806660" lon="-5.9883320">
        <ele>13.0</ele>
        <time>2021-10-21T15:16:11Z</time>
      </trkpt>
      <trkpt lat="37.3806400" lon="-5.9883200">
        <ele>12.9</ele>
        <time>2021-10-21T15:16:11Z</time>
      </trkpt>
      <trkpt lat="37.3806110" lon="-5.9883260">
        <ele>12.9</ele>
        <time>2021-10-21T15:16:11Z</time>
      </trkpt>
      <trkpt lat="37.3805150" lon="-5.9883630">
        <ele>12.9</ele>
        <time>2021-10-21T15:16:11Z</time>
      </trkpt>
      <trkpt lat="37.3804600" lon="-5.9883840">
        <ele>12.9</ele>
        <time>2021-10-21T15:16:11Z</time>
      </trkpt>
      <trkpt lat="37.3803490" lon="-5.9884340">
        <ele>12.9</ele>
        <time>2021-10-21T15:16:11Z</time>
      </trkpt>
      <trkpt lat="37.3802330" lon="-5.9884710">
        <ele>12.8</ele>
        <time>2021-10-21T15:16:11Z</time>
      </trkpt>
      <trkpt lat="37.3801750" lon="-5.9884920">
        <ele>12.8</ele>
        <time>2021-10-21T15:16:11Z</time>
      </trkpt>
      <trkpt lat="37.3801520" lon="-5.9884940">
        <ele>12.8</ele>
        <time>2021-10-21T15:16:11Z</time>
      </trkpt>
      <trkpt lat="37.3801190" lon="-5.9884980">
        <ele>12.8</ele>
        <time>2021-10-21T15:16:11Z</time>
      </trkpt>
      <trkpt lat="37.3799830" lon="-5.9885390">
        <ele>12.8</ele>
        <time>2021-10-21T15:16:11Z</time>
      </trkpt>
      <trkpt lat="37.3798260" lon="-5.9885910">
        <ele>12.8</ele>
        <time>2021-10-21T15:16:11Z</time>
      </trkpt>
      <trkpt lat="37.3795970" lon="-5.9886620">
        <ele>12.7</ele>
        <time>2021-10-21T15:16:11Z</time>
      </trkpt>
      <trkpt lat="37.3794210" lon="-5.9887250">
        <ele>12.7</ele>
        <time>2021-10-21T15:16:11Z</time>
      </trkpt>
      <trkpt lat="37.3793530" lon="-5.9887520">
        <ele>12.7</ele>
        <time>2021-10-21T15:16:11Z</time>
      </trkpt>
      <trkpt lat="37.3792960" lon="-5.9887690">
        <ele>12.8</ele>
        <time>2021-10-21T15:16:11Z</time>
      </trkpt>
      <trkpt lat="37.3792580" lon="-5.9887330">
        <ele>12.8</ele>
        <time>2021-10-21T15:16:11Z</time>
      </trkpt>
      <trkpt lat="37.3792370" lon="-5.9886840">
        <ele>12.8</ele>
        <time>2021-10-21T15:16:11Z</time>
      </trkpt>
      <trkpt lat="37.3791930" lon="-5.9886710">
        <ele>12.8</ele>
        <time>2021-10-21T15:16:11Z</time>
      </trkpt>
      <trkpt lat="37.3790800" lon="-5.9887340">
        <ele>12.9</ele>
        <time>2021-10-21T15:16:11Z</time>
      </trkpt>
      <trkpt lat="37.3790540" lon="-5.9887380">
        <ele>13.0</ele>
        <time>2021-10-21T15:16:11Z</time>
      </trkpt>
      <trkpt lat="37.3790520" lon="-5.9887520">
        <ele>13.0</ele>
        <time>2021-10-21T15:16:11Z</time>
      </trkpt>
      <trkpt lat="37.3790730" lon="-5.9888680">
        <ele>13.0</ele>
        <time>2021-10-21T15:16:11Z</time>
      </trkpt>
      <trkpt lat="37.3790220" lon="-5.9889530">
        <ele>13.0</ele>
        <time>2021-10-21T15:16:11Z</time>
      </trkpt>
      <trkpt lat="37.3789820" lon="-5.9889900">
        <ele>13.0</ele>
        <time>2021-10-21T15:16:11Z</time>
      </trkpt>
      <trkpt lat="37.3788890" lon="-5.9889750">
        <ele>13.2</ele>
        <time>2021-10-21T15:16:11Z</time>
      </trkpt>
      <trkpt lat="37.3787940" lon="-5.9888900">
        <ele>13.2</ele>
        <time>2021-10-21T15:16:11Z</time>
      </trkpt>
      <trkpt lat="37.3787060" lon="-5.9888170">
        <ele>13.1</ele>
        <time>2021-10-21T15:16:11Z</time>
      </trkpt>
      <trkpt lat="37.3786150" lon="-5.9887360">
        <ele>13.1</ele>
        <time>2021-10-21T15:16:11Z</time>
      </trkpt>
      <trkpt lat="37.3785730" lon="-5.9886880">
        <ele>13.1</ele>
        <time>2021-10-21T15:16:11Z</time>
      </trkpt>
      <trkpt lat="37.3784840" lon="-5.9886210">
        <ele>13.1</ele>
        <time>2021-10-21T15:16:11Z</time>
      </trkpt>
      <trkpt lat="37.3783940" lon="-5.9885800">
        <ele>13.2</ele>
        <time>2021-10-21T15:16:11Z</time>
      </trkpt>
      <trkpt lat="37.3782950" lon="-5.9885280">
        <ele>13.3</ele>
        <time>2021-10-21T15:16:11Z</time>
      </trkpt>
      <trkpt lat="37.3782040" lon="-5.9885120">
        <ele>13.4</ele>
        <time>2021-10-21T15:16:11Z</time>
      </trkpt>
      <trkpt lat="37.3780180" lon="-5.9884040">
        <ele>13.4</ele>
        <time>2021-10-21T15:16:11Z</time>
      </trkpt>
      <trkpt lat="37.3778900" lon="-5.9883270">
        <ele>13.4</ele>
        <time>2021-10-21T15:16:11Z</time>
      </trkpt>
      <trkpt lat="37.3777640" lon="-5.9883060">
        <ele>13.4</ele>
        <time>2021-10-21T15:16:11Z</time>
      </trkpt>
      <trkpt lat="37.3776570" lon="-5.9882170">
        <ele>13.4</ele>
        <time>2021-10-21T15:16:11Z</time>
      </trkpt>
      <trkpt lat="37.3776480" lon="-5.9882120">
        <ele>13.4</ele>
        <time>2021-10-21T15:16:11Z</time>
      </trkpt>
      <trkpt lat="37.3775390" lon="-5.9881520">
        <ele>13.3</ele>
        <time>2021-10-21T15:16:11Z</time>
      </trkpt>
      <trkpt lat="37.3775250" lon="-5.9881380">
        <ele>13.3</ele>
        <time>2021-10-21T15:16:11Z</time>
      </trkpt>
      <trkpt lat="37.3775640" lon="-5.9880810">
        <ele>13.3</ele>
        <time>2021-10-21T15:16:11Z</time>
      </trkpt>
      <trkpt lat="37.3775720" lon="-5.9880720">
        <ele>13.3</ele>
        <time>2021-10-21T15:16:11Z</time>
      </trkpt>
      <trkpt lat="37.3775900" lon="-5.9880450">
        <ele>13.3</ele>
        <time>2021-10-21T15:16:11Z</time>
      </trkpt>
      <trkpt lat="37.3775900" lon="-5.9880270">
        <ele>13.3</ele>
        <time>2021-10-21T15:16:11Z</time>
      </trkpt>
      <trkpt lat="37.3772380" lon="-5.9879710">
        <ele>13.2</ele>
        <time>2021-10-21T15:16:11Z</time>
      </trkpt>
      <trkpt lat="37.3772340" lon="-5.9880030">
        <ele>13.2</ele>
        <time>2021-10-21T15:16:11Z</time>
      </trkpt>
      <trkpt lat="37.3772220" lon="-5.9881140">
        <ele>13.2</ele>
        <time>2021-10-21T15:16:11Z</time>
      </trkpt>
      <trkpt lat="37.3772340" lon="-5.9881960">
        <ele>13.2</ele>
        <time>2021-10-21T15:16:11Z</time>
      </trkpt>
      <trkpt lat="37.3772380" lon="-5.9882210">
        <ele>13.2</ele>
        <time>2021-10-21T15:16:11Z</time>
      </trkpt>
      <trkpt lat="37.3765030" lon="-5.9860030">
        <ele>15.2</ele>
        <time>2021-10-21T15:16:11Z</time>
      </trkpt>
      <trkpt lat="37.3764360" lon="-5.9860520">
        <ele>15.2</ele>
        <time>2021-10-21T15:16:11Z</time>
      </trkpt>
      <trkpt lat="37.3764000" lon="-5.9860810">
        <ele>15.2</ele>
        <time>2021-10-21T15:16:11Z</time>
      </trkpt>
      <trkpt lat="37.3762990" lon="-5.9861040">
        <ele>15.2</ele>
        <time>2021-10-21T15:16:11Z</time>
      </trkpt>
      <trkpt lat="37.3762540" lon="-5.9861250">
        <ele>15.2</ele>
        <time>2021-10-21T15:16:11Z</time>
      </trkpt>
      <trkpt lat="37.3762350" lon="-5.9861280">
        <ele>15.2</ele>
        <time>2021-10-21T15:16:11Z</time>
      </trkpt>
      <trkpt lat="37.3761890" lon="-5.9861500">
        <ele>15.2</ele>
        <time>2021-10-21T15:16:11Z</time>
      </trkpt>
      <trkpt lat="37.3761900" lon="-5.9861250">
        <ele>15.2</ele>
        <time>2021-10-21T15:16:11Z</time>
      </trkpt>
      <trkpt lat="37.3761910" lon="-5.9861240">
        <ele>15.2</ele>
        <time>2021-10-21T15:16:11Z</time>
      </trkpt>
      <trkpt lat="37.3783680" lon="-5.9885500">
        <ele>13.4</ele>
        <time>2021-10-21T15:16:11Z</time>
      </trkpt>
      <trkpt lat="37.3783780" lon="-5.9885630">
        <ele>13.2</ele>
        <time>2021-10-21T15:16:11Z</time>
      </trkpt>
      <trkpt lat="37.3783880" lon="-5.9885760">
        <ele>13.2</ele>
        <time>2021-10-21T15:16:11Z</time>
      </trkpt>
      <trkpt lat="37.3784000" lon="-5.9885840">
        <ele>13.2</ele>
        <time>2021-10-21T15:16:11Z</time>
      </trkpt>
      <trkpt lat="37.3784810" lon="-5.9886520">
        <ele>13.1</ele>
        <time>2021-10-21T15:16:11Z</time>
      </trkpt>
      <trkpt lat="37.3785880" lon="-5.9887190">
        <ele>13.1</ele>
        <time>2021-10-21T15:16:11Z</time>
      </trkpt>
      <trkpt lat="37.3787080" lon="-5.9888640">
        <ele>13.2</ele>
        <time>2021-10-21T15:16:11Z</time>
      </trkpt>
      <trkpt lat="37.3787390" lon="-5.9889070">
        <ele>13.2</ele>
        <time>2021-10-21T15:16:11Z</time>
      </trkpt>
      <trkpt lat="37.3788130" lon="-5.9890310">
        <ele>13.3</ele>
        <time>2021-10-21T15:16:11Z</time>
      </trkpt>
      <trkpt lat="37.3788680" lon="-5.9891710">
        <ele>13.1</ele>
        <time>2021-10-21T15:16:11Z</time>
      </trkpt>
      <trkpt lat="37.3788680" lon="-5.9892400">
        <ele>13.1</ele>
        <time>2021-10-21T15:16:11Z</time>
      </trkpt>
      <trkpt lat="37.3788420" lon="-5.9894650">
        <ele>13.1</ele>
        <time>2021-10-21T15:16:11Z</time>
      </trkpt>
      <trkpt lat="37.3788600" lon="-5.9896010">
        <ele>13.1</ele>
        <time>2021-10-21T15:16:11Z</time>
      </trkpt>
      <trkpt lat="37.3788540" lon="-5.9896480">
        <ele>13.1</ele>
        <time>2021-10-21T15:16:11Z</time>
      </trkpt>
      <trkpt lat="37.3788460" lon="-5.9896650">
        <ele>13.1</ele>
        <time>2021-10-21T15:16:11Z</time>
      </trkpt>
      <trkpt lat="37.3788010" lon="-5.9897140">
        <ele>13.2</ele>
        <time>2021-10-21T15:16:11Z</time>
      </trkpt>
      <trkpt lat="37.3787300" lon="-5.9897470">
        <ele>13.2</ele>
        <time>2021-10-21T15:16:11Z</time>
      </trkpt>
      <trkpt lat="37.3786710" lon="-5.9897590">
        <ele>13.2</ele>
        <time>2021-10-21T15:16:11Z</time>
      </trkpt>
      <trkpt lat="37.3786160" lon="-5.9897680">
        <ele>13.2</ele>
        <time>2021-10-21T15:16:11Z</time>
      </trkpt>
      <trkpt lat="37.3785960" lon="-5.9897770">
        <ele>13.2</ele>
        <time>2021-10-21T15:16:11Z</time>
      </trkpt>
      <trkpt lat="37.3784800" lon="-5.9898730">
        <ele>13.1</ele>
        <time>2021-10-21T15:16:11Z</time>
      </trkpt>
      <trkpt lat="37.3783800" lon="-5.9899540">
        <ele>13.1</ele>
        <time>2021-10-21T15:16:11Z</time>
      </trkpt>
      <trkpt lat="37.3782880" lon="-5.9900000">
        <ele>13.1</ele>
        <time>2021-10-21T15:16:11Z</time>
      </trkpt>
      <trkpt lat="37.3781670" lon="-5.9900800">
        <ele>13.0</ele>
        <time>2021-10-21T15:16:11Z</time>
      </trkpt>
      <trkpt lat="37.3780570" lon="-5.9901510">
        <ele>13.0</ele>
        <time>2021-10-21T15:16:11Z</time>
      </trkpt>
      <trkpt lat="37.3780310" lon="-5.9901660">
        <ele>13.0</ele>
        <time>2021-10-21T15:16:11Z</time>
      </trkpt>
      <trkpt lat="37.3779890" lon="-5.9901940">
        <ele>13.0</ele>
        <time>2021-10-21T15:16:11Z</time>
      </trkpt>
      <trkpt lat="37.3778870" lon="-5.9902510">
        <ele>13.0</ele>
        <time>2021-10-21T15:16:11Z</time>
      </trkpt>
      <trkpt lat="37.3777190" lon="-5.9903230">
        <ele>13.0</ele>
        <time>2021-10-21T15:16:11Z</time>
      </trkpt>
      <trkpt lat="37.3775780" lon="-5.9904020">
        <ele>12.9</ele>
        <time>2021-10-21T15:16:11Z</time>
      </trkpt>
      <trkpt lat="37.3773340" lon="-5.9905280">
        <ele>12.8</ele>
        <time>2021-10-21T15:16:11Z</time>
      </trkpt>
      <trkpt lat="37.3771480" lon="-5.9906080">
        <ele>12.7</ele>
        <time>2021-10-21T15:16:11Z</time>
      </trkpt>
      <trkpt lat="37.3768840" lon="-5.9907330">
        <ele>12.6</ele>
        <time>2021-10-21T15:16:11Z</time>
      </trkpt>
      <trkpt lat="37.3768230" lon="-5.9907700">
        <ele>12.6</ele>
        <time>2021-10-21T15:16:11Z</time>
      </trkpt>
      <trkpt lat="37.3766850" lon="-5.9908580">
        <ele>12.6</ele>
        <time>2021-10-21T15:16:11Z</time>
      </trkpt>
      <trkpt lat="37.3765520" lon="-5.9909390">
        <ele>12.5</ele>
        <time>2021-10-21T15:16:11Z</time>
      </trkpt>
      <trkpt lat="37.3765300" lon="-5.9909540">
        <ele>12.5</ele>
        <time>2021-10-21T15:16:11Z</time>
      </trkpt>
      <trkpt lat="37.3763480" lon="-5.9910440">
        <ele>12.5</ele>
        <time>2021-10-21T15:16:11Z</time>
      </trkpt>
      <trkpt lat="37.3762190" lon="-5.9911200">
        <ele>12.5</ele>
        <time>2021-10-21T15:16:11Z</time>
      </trkpt>
      <trkpt lat="37.3761130" lon="-5.9912120">
        <ele>12.5</ele>
        <time>2021-10-21T15:16:11Z</time>
      </trkpt>
      <trkpt lat="37.3760760" lon="-5.9912300">
        <ele>12.4</ele>
        <time>2021-10-21T15:16:11Z</time>
      </trkpt>
      <trkpt lat="37.3759970" lon="-5.9912820">
        <ele>12.4</ele>
        <time>2021-10-21T15:16:11Z</time>
      </trkpt>
      <trkpt lat="37.3759960" lon="-5.9913290">
        <ele>12.3</ele>
        <time>2021-10-21T15:16:11Z</time>
      </trkpt>
      <trkpt lat="37.3760100" lon="-5.9913740">
        <ele>12.3</ele>
        <time>2021-10-21T15:16:11Z</time>
      </trkpt>
      <trkpt lat="37.3759990" lon="-5.9914090">
        <ele>12.3</ele>
        <time>2021-10-21T15:16:11Z</time>
      </trkpt>
      <trkpt lat="37.3759760" lon="-5.9914070">
        <ele>12.3</ele>
        <time>2021-10-21T15:16:11Z</time>
      </trkpt>
      <trkpt lat="37.3759400" lon="-5.9914380">
        <ele>12.2</ele>
        <time>2021-10-21T15:16:11Z</time>
      </trkpt>
      <trkpt lat="37.3759090" lon="-5.9915150">
        <ele>12.2</ele>
        <time>2021-10-21T15:16:11Z</time>
      </trkpt>
      <trkpt lat="37.3759040" lon="-5.9916170">
        <ele>12.2</ele>
        <time>2021-10-21T15:16:11Z</time>
      </trkpt>
      <trkpt lat="37.3759120" lon="-5.9916360">
        <ele>12.2</ele>
        <time>2021-10-21T15:16:11Z</time>
      </trkpt>
      <trkpt lat="37.3759220" lon="-5.9916450">
        <ele>12.1</ele>
        <time>2021-10-21T15:16:11Z</time>
      </trkpt>
      <trkpt lat="37.3759340" lon="-5.9916490">
        <ele>12.1</ele>
        <time>2021-10-21T15:16:11Z</time>
      </trkpt>
      <trkpt lat="37.3759460" lon="-5.9916520">
        <ele>12.1</ele>
        <time>2021-10-21T15:16:11Z</time>
      </trkpt>
      <trkpt lat="37.3759650" lon="-5.9916510">
        <ele>12.1</ele>
        <time>2021-10-21T15:16:11Z</time>
      </trkpt>
      <trkpt lat="37.3759730" lon="-5.9916560">
        <ele>12.1</ele>
        <time>2021-10-21T15:16:11Z</time>
      </trkpt>
      <trkpt lat="37.3759730" lon="-5.9916580">
        <ele>12.1</ele>
        <time>2021-10-21T15:16:11Z</time>
      </trkpt>
      <trkpt lat="37.3759690" lon="-5.9916990">
        <ele>12.1</ele>
        <time>2021-10-21T15:16:11Z</time>
      </trkpt>
      <trkpt lat="37.3759660" lon="-5.9917270">
        <ele>12.0</ele>
        <time>2021-10-21T15:16:11Z</time>
      </trkpt>
      <trkpt lat="37.3759570" lon="-5.9918840">
        <ele>11.7</ele>
        <time>2021-10-21T15:16:11Z</time>
      </trkpt>
      <trkpt lat="37.3759700" lon="-5.9919210">
        <ele>11.5</ele>
        <time>2021-10-21T15:16:11Z</time>
      </trkpt>
      <trkpt lat="37.3760630" lon="-5.9920220">
        <ele>11.4</ele>
        <time>2021-10-21T15:16:11Z</time>
      </trkpt>
      <trkpt lat="37.3760900" lon="-5.9920350">
        <ele>11.4</ele>
        <time>2021-10-21T15:16:11Z</time>
      </trkpt>
      <trkpt lat="37.3762450" lon="-5.9921250">
        <ele>11.3</ele>
        <time>2021-10-21T15:16:11Z</time>
      </trkpt>
      <trkpt lat="37.3763110" lon="-5.9921660">
        <ele>11.2</ele>
        <time>2021-10-21T15:16:11Z</time>
      </trkpt>
      <trkpt lat="37.3765680" lon="-5.9923160">
        <ele>11.3</ele>
        <time>2021-10-21T15:16:11Z</time>
      </trkpt>
      <trkpt lat="37.3767350" lon="-5.9924240">
        <ele>11.4</ele>
        <time>2021-10-21T15:16:11Z</time>
      </trkpt>
      <trkpt lat="37.3769260" lon="-5.9925420">
        <ele>11.4</ele>
        <time>2021-10-21T15:16:11Z</time>
      </trkpt>
      <trkpt lat="37.3770750" lon="-5.9926250">
        <ele>11.4</ele>
        <time>2021-10-21T15:16:11Z</time>
      </trkpt>
      <trkpt lat="37.3772070" lon="-5.9927060">
        <ele>11.4</ele>
        <time>2021-10-21T15:16:11Z</time>
      </trkpt>
      <trkpt lat="37.3774400" lon="-5.9928450">
        <ele>11.5</ele>
        <time>2021-10-21T15:16:11Z</time>
      </trkpt>
      <trkpt lat="37.3774950" lon="-5.9928770">
        <ele>11.5</ele>
        <time>2021-10-21T15:16:11Z</time>
      </trkpt>
      <trkpt lat="37.3776850" lon="-5.9929970">
        <ele>11.5</ele>
        <time>2021-10-21T15:16:11Z</time>
      </trkpt>
      <trkpt lat="37.3779910" lon="-5.9931960">
        <ele>11.4</ele>
        <time>2021-10-21T15:16:11Z</time>
      </trkpt>
      <trkpt lat="37.3784140" lon="-5.9934560">
        <ele>11.4</ele>
        <time>2021-10-21T15:16:11Z</time>
      </trkpt>
      <trkpt lat="37.3786860" lon="-5.9936200">
        <ele>11.3</ele>
        <time>2021-10-21T15:16:11Z</time>
      </trkpt>
      <trkpt lat="37.3788270" lon="-5.9937070">
        <ele>11.3</ele>
        <time>2021-10-21T15:16:11Z</time>
      </trkpt>
      <trkpt lat="37.3789210" lon="-5.9937640">
        <ele>11.4</ele>
        <time>2021-10-21T15:16:11Z</time>
      </trkpt>
      <trkpt lat="37.3790300" lon="-5.9938460">
        <ele>11.5</ele>
        <time>2021-10-21T15:16:11Z</time>
      </trkpt>
      <trkpt lat="37.3791930" lon="-5.9939590">
        <ele>11.6</ele>
        <time>2021-10-21T15:16:11Z</time>
      </trkpt>
      <trkpt lat="37.3792480" lon="-5.9939890">
        <ele>11.6</ele>
        <time>2021-10-21T15:16:11Z</time>
      </trkpt>
      <trkpt lat="37.3793900" lon="-5.9940770">
        <ele>11.6</ele>
        <time>2021-10-21T15:16:11Z</time>
      </trkpt>
      <trkpt lat="37.3795080" lon="-5.9941310">
        <ele>11.6</ele>
        <time>2021-10-21T15:16:11Z</time>
      </trkpt>
      <trkpt lat="37.3797270" lon="-5.9942540">
        <ele>11.6</ele>
        <time>2021-10-21T15:16:11Z</time>
      </trkpt>
      <trkpt lat="37.3798810" lon="-5.9943450">
        <ele>11.5</ele>
        <time>2021-10-21T15:16:11Z</time>
      </trkpt>
      <trkpt lat="37.3801160" lon="-5.9944860">
        <ele>11.4</ele>
        <time>2021-10-21T15:16:11Z</time>
      </trkpt>
      <trkpt lat="37.3802290" lon="-5.9945780">
        <ele>11.4</ele>
        <time>2021-10-21T15:16:11Z</time>
      </trkpt>
      <trkpt lat="37.3802350" lon="-5.9945790">
        <ele>11.4</ele>
        <time>2021-10-21T15:16:11Z</time>
      </trkpt>
      <trkpt lat="37.3803290" lon="-5.9946060">
        <ele>11.4</ele>
        <time>2021-10-21T15:16:11Z</time>
      </trkpt>
      <trkpt lat="37.3803540" lon="-5.9946190">
        <ele>11.4</ele>
        <time>2021-10-21T15:16:11Z</time>
      </trkpt>
      <trkpt lat="37.3804600" lon="-5.9946610">
        <ele>11.4</ele>
        <time>2021-10-21T15:16:11Z</time>
      </trkpt>
      <trkpt lat="37.3806020" lon="-5.9947370">
        <ele>11.5</ele>
        <time>2021-10-21T15:16:11Z</time>
      </trkpt>
      <trkpt lat="37.3807790" lon="-5.9948820">
        <ele>11.6</ele>
        <time>2021-10-21T15:16:11Z</time>
      </trkpt>
      <trkpt lat="37.3808860" lon="-5.9949460">
        <ele>11.7</ele>
        <time>2021-10-21T15:16:11Z</time>
      </trkpt>
      <trkpt lat="37.3809730" lon="-5.9950100">
        <ele>11.8</ele>
        <time>2021-10-21T15:16:11Z</time>
      </trkpt>
      <trkpt lat="37.3811490" lon="-5.9952010">
        <ele>12.1</ele>
        <time>2021-10-21T15:16:11Z</time>
      </trkpt>
      <trkpt lat="37.3811570" lon="-5.9952260">
        <ele>12.1</ele>
        <time>2021-10-21T15:16:11Z</time>
      </trkpt>
      <trkpt lat="37.3811650" lon="-5.9953010">
        <ele>12.2</ele>
        <time>2021-10-21T15:16:11Z</time>
      </trkpt>
      <trkpt lat="37.3811520" lon="-5.9953670">
        <ele>12.3</ele>
        <time>2021-10-21T15:16:11Z</time>
      </trkpt>
      <trkpt lat="37.3810860" lon="-5.9955420">
        <ele>13.6</ele>
        <time>2021-10-21T15:16:11Z</time>
      </trkpt>
      <trkpt lat="37.3810270" lon="-5.9956730">
        <ele>13.6</ele>
        <time>2021-10-21T15:16:11Z</time>
      </trkpt>
      <trkpt lat="37.3809830" lon="-5.9957680">
        <ele>13.6</ele>
        <time>2021-10-21T15:16:11Z</time>
      </trkpt>
      <trkpt lat="37.3809290" lon="-5.9958860">
        <ele>13.7</ele>
        <time>2021-10-21T15:16:11Z</time>
      </trkpt>
      <trkpt lat="37.3808560" lon="-5.9960360">
        <ele>13.7</ele>
        <time>2021-10-21T15:16:11Z</time>
      </trkpt>
      <trkpt lat="37.3807840" lon="-5.9961840">
        <ele>13.7</ele>
        <time>2021-10-21T15:16:11Z</time>
      </trkpt>
      <trkpt lat="37.3806860" lon="-5.9963780">
        <ele>13.7</ele>
        <time>2021-10-21T15:16:11Z</time>
      </trkpt>
      <trkpt lat="37.3806280" lon="-5.9964870">
        <ele>13.8</ele>
        <time>2021-10-21T15:16:11Z</time>
      </trkpt>
      <trkpt lat="37.3805710" lon="-5.9966010">
        <ele>13.9</ele>
        <time>2021-10-21T15:16:11Z</time>
      </trkpt>
      <trkpt lat="37.3804640" lon="-5.9968330">
        <ele>13.9</ele>
        <time>2021-10-21T15:16:11Z</time>
      </trkpt>
      <trkpt lat="37.3803640" lon="-5.9970260">
        <ele>14.0</ele>
        <time>2021-10-21T15:16:11Z</time>
      </trkpt>
      <trkpt lat="37.3803260" lon="-5.9971050">
        <ele>14.0</ele>
        <time>2021-10-21T15:16:11Z</time>
      </trkpt>
      <trkpt lat="37.3803110" lon="-5.9971460">
        <ele>14.1</ele>
        <time>2021-10-21T15:16:11Z</time>
      </trkpt>
      <trkpt lat="37.3802750" lon="-5.9972210">
        <ele>14.0</ele>
        <time>2021-10-21T15:16:11Z</time>
      </trkpt>
      <trkpt lat="37.3802970" lon="-5.9972460">
        <ele>14.0</ele>
        <time>2021-10-21T15:16:11Z</time>
      </trkpt>
      <trkpt lat="37.3803170" lon="-5.9972730">
        <ele>14.0</ele>
        <time>2021-10-21T15:16:11Z</time>
      </trkpt>
      <trkpt lat="37.3803350" lon="-5.9972970">
        <ele>14.1</ele>
        <time>2021-10-21T15:16:11Z</time>
      </trkpt>
      <trkpt lat="37.3804650" lon="-5.9974680">
        <ele>14.1</ele>
        <time>2021-10-21T15:16:11Z</time>
      </trkpt>
      <trkpt lat="37.3805170" lon="-5.9975130">
        <ele>14.0</ele>
        <time>2021-10-21T15:16:11Z</time>
      </trkpt>
      <trkpt lat="37.3805170" lon="-5.9975160">
        <ele>14.0</ele>
        <time>2021-10-21T15:16:11Z</time>
      </trkpt>
      <trkpt lat="37.3805080" lon="-5.9975610">
        <ele>14.0</ele>
        <time>2021-10-21T15:16:11Z</time>
      </trkpt>
      <trkpt lat="37.3805000" lon="-5.9975850">
        <ele>14.0</ele>
        <time>2021-10-21T15:16:11Z</time>
      </trkpt>
      <trkpt lat="37.3804690" lon="-5.9977640">
        <ele>14.3</ele>
        <time>2021-10-21T15:16:11Z</time>
      </trkpt>
      <trkpt lat="37.3804110" lon="-5.9978460">
        <ele>14.7</ele>
        <time>2021-10-21T15:16:11Z</time>
      </trkpt>
      <trkpt lat="37.3803910" lon="-5.9978580">
        <ele>14.8</ele>
        <time>2021-10-21T15:16:11Z</time>
      </trkpt>
      <trkpt lat="37.3803770" lon="-5.9978800">
        <ele>14.9</ele>
        <time>2021-10-21T15:16:11Z</time>
      </trkpt>
      <trkpt lat="37.3803610" lon="-5.9979380">
        <ele>15.2</ele>
        <time>2021-10-21T15:16:11Z</time>
      </trkpt>
      <trkpt lat="37.3803500" lon="-5.9979540">
        <ele>15.2</ele>
        <time>2021-10-21T15:16:11Z</time>
      </trkpt>
      <trkpt lat="37.3803070" lon="-5.9979720">
        <ele>15.1</ele>
        <time>2021-10-21T15:16:11Z</time>
      </trkpt>
      <trkpt lat="37.3802240" lon="-5.9980550">
        <ele>14.8</ele>
        <time>2021-10-21T15:16:11Z</time>
      </trkpt>
      <trkpt lat="37.3802240" lon="-5.9980780">
        <ele>14.8</ele>
        <time>2021-10-21T15:16:11Z</time>
      </trkpt>
      <trkpt lat="37.3801930" lon="-5.9981580">
        <ele>14.6</ele>
        <time>2021-10-21T15:16:11Z</time>
      </trkpt>
      <trkpt lat="37.3801770" lon="-5.9981680">
        <ele>14.6</ele>
        <time>2021-10-21T15:16:11Z</time>
      </trkpt>
      <trkpt lat="37.3801400" lon="-5.9981880">
        <ele>14.5</ele>
        <time>2021-10-21T15:16:11Z</time>
      </trkpt>
      <trkpt lat="37.3800760" lon="-5.9981940">
        <ele>14.4</ele>
        <time>2021-10-21T15:16:11Z</time>
      </trkpt>
      <trkpt lat="37.3800470" lon="-5.9981960">
        <ele>14.3</ele>
        <time>2021-10-21T15:16:11Z</time>
      </trkpt>
      <trkpt lat="37.3800160" lon="-5.9981920">
        <ele>14.3</ele>
        <time>2021-10-21T15:16:11Z</time>
      </trkpt>
      <trkpt lat="37.3798710" lon="-5.9981600">
        <ele>13.9</ele>
        <time>2021-10-21T15:16:11Z</time>
      </trkpt>
      <trkpt lat="37.3798480" lon="-5.9982530">
        <ele>13.9</ele>
        <time>2021-10-21T15:16:11Z</time>
      </trkpt>
      <trkpt lat="37.3797880" lon="-5.9983060">
        <ele>13.9</ele>
        <time>2021-10-21T15:16:11Z</time>
      </trkpt>
      <trkpt lat="37.3797840" lon="-5.9983120">
        <ele>13.9</ele>
        <time>2021-10-21T15:16:11Z</time>
      </trkpt>
      <trkpt lat="37.3797720" lon="-5.9983250">
        <ele>13.9</ele>
        <time>2021-10-21T15:16:11Z</time>
      </trkpt>
      <trkpt lat="37.3797480" lon="-5.9983800">
        <ele>13.8</ele>
        <time>2021-10-21T15:16:11Z</time>
      </trkpt>
      <trkpt lat="37.3797440" lon="-5.9983990">
        <ele>13.8</ele>
        <time>2021-10-21T15:16:11Z</time>
      </trkpt>
      <trkpt lat="37.3796740" lon="-5.9985040">
        <ele>13.8</ele>
        <time>2021-10-21T15:16:11Z</time>
      </trkpt>
      <trkpt lat="37.3796570" lon="-5.9985470">
        <ele>13.7</ele>
        <time>2021-10-21T15:16:11Z</time>
      </trkpt>
      <trkpt lat="37.3796250" lon="-5.9985870">
        <ele>13.7</ele>
        <time>2021-10-21T15:16:11Z</time>
      </trkpt>
      <trkpt lat="37.3795090" lon="-5.9987060">
        <ele>13.4</ele>
        <time>2021-10-21T15:16:11Z</time>
      </trkpt>
      <trkpt lat="37.3795060" lon="-5.9987210">
        <ele>13.4</ele>
        <time>2021-10-21T15:16:11Z</time>
      </trkpt>
      <trkpt lat="37.3795640" lon="-5.9987960">
        <ele>13.3</ele>
        <time>2021-10-21T15:16:11Z</time>
      </trkpt>
      <trkpt lat="37.3795820" lon="-5.9988170">
        <ele>13.3</ele>
        <time>2021-10-21T15:16:11Z</time>
      </trkpt>
      <trkpt lat="37.3796570" lon="-5.9989030">
        <ele>13.3</ele>
        <time>2021-10-21T15:16:11Z</time>
      </trkpt>
      <trkpt lat="37.3797670" lon="-5.9990140">
        <ele>13.3</ele>
        <time>2021-10-21T15:16:11Z</time>
      </trkpt>
      <trkpt lat="37.3797960" lon="-5.9990390">
        <ele>13.3</ele>
        <time>2021-10-21T15:16:11Z</time>
      </trkpt>
      <trkpt lat="37.3799020" lon="-5.9991480">
        <ele>13.4</ele>
        <time>2021-10-21T15:16:11Z</time>
      </trkpt>
      <trkpt lat="37.3799190" lon="-5.9991690">
        <ele>13.4</ele>
        <time>2021-10-21T15:16:11Z</time>
      </trkpt>
      <trkpt lat="37.3799310" lon="-5.9991990">
        <ele>13.4</ele>
        <time>2021-10-21T15:16:11Z</time>
      </trkpt>
      <trkpt lat="37.3799450" lon="-5.9992310">
        <ele>13.5</ele>
        <time>2021-10-21T15:16:11Z</time>
      </trkpt>
      <trkpt lat="37.3799950" lon="-5.9992880">
        <ele>13.4</ele>
        <time>2021-10-21T15:16:11Z</time>
      </trkpt>
      <trkpt lat="37.3800880" lon="-5.9993610">
        <ele>13.4</ele>
        <time>2021-10-21T15:16:11Z</time>
      </trkpt>
      <trkpt lat="37.3801460" lon="-5.9993840">
        <ele>13.4</ele>
        <time>2021-10-21T15:16:11Z</time>
      </trkpt>
      <trkpt lat="37.3801800" lon="-5.9994450">
        <ele>13.4</ele>
        <time>2021-10-21T15:16:11Z</time>
      </trkpt>
      <trkpt lat="37.3801800" lon="-5.9994480">
        <ele>13.4</ele>
        <time>2021-10-21T15:16:11Z</time>
      </trkpt>
      <trkpt lat="37.3801870" lon="-5.9994570">
        <ele>13.4</ele>
        <time>2021-10-21T15:16:11Z</time>
      </trkpt>
      <trkpt lat="37.3802130" lon="-5.9995460">
        <ele>13.4</ele>
        <time>2021-10-21T15:16:11Z</time>
      </trkpt>
      <trkpt lat="37.3802350" lon="-5.9995780">
        <ele>13.4</ele>
        <time>2021-10-21T15:16:11Z</time>
      </trkpt>
      <trkpt lat="37.3803420" lon="-5.9996900">
        <ele>13.3</ele>
        <time>2021-10-21T15:16:11Z</time>
      </trkpt>
      <trkpt lat="37.3803840" lon="-5.9997270">
        <ele>13.3</ele>
        <time>2021-10-21T15:16:11Z</time>
      </trkpt>
      <trkpt lat="37.3805490" lon="-5.9998760">
        <ele>13.2</ele>
        <time>2021-10-21T15:16:11Z</time>
      </trkpt>
      <trkpt lat="37.3806350" lon="-5.9999580">
        <ele>13.2</ele>
        <time>2021-10-21T15:16:11Z</time>
      </trkpt>
      <trkpt lat="37.3807490" lon="-6.0000800">
        <ele>13.1</ele>
        <time>2021-10-21T15:16:11Z</time>
      </trkpt>
      <trkpt lat="37.3807880" lon="-6.0001180">
        <ele>13.1</ele>
        <time>2021-10-21T15:16:11Z</time>
      </trkpt>
      <trkpt lat="37.3808610" lon="-6.0001840">
        <ele>13.0</ele>
        <time>2021-10-21T15:16:11Z</time>
      </trkpt>
      <trkpt lat="37.3809060" lon="-6.0002300">
        <ele>13.0</ele>
        <time>2021-10-21T15:16:11Z</time>
      </trkpt>
      <trkpt lat="37.3810420" lon="-6.0003490">
        <ele>12.9</ele>
        <time>2021-10-21T15:16:11Z</time>
      </trkpt>
      <trkpt lat="37.3810840" lon="-6.0003910">
        <ele>12.9</ele>
        <time>2021-10-21T15:16:11Z</time>
      </trkpt>
      <trkpt lat="37.3811530" lon="-6.0004700">
        <ele>12.8</ele>
        <time>2021-10-21T15:16:11Z</time>
      </trkpt>
      <trkpt lat="37.3812650" lon="-6.0005910">
        <ele>12.7</ele>
        <time>2021-10-21T15:16:11Z</time>
      </trkpt>
      <trkpt lat="37.3814120" lon="-6.0007810">
        <ele>12.6</ele>
        <time>2021-10-21T15:16:11Z</time>
      </trkpt>
      <trkpt lat="37.3814770" lon="-6.0008420">
        <ele>12.6</ele>
        <time>2021-10-21T15:16:11Z</time>
      </trkpt>
      <trkpt lat="37.3815380" lon="-6.0008910">
        <ele>12.6</ele>
        <time>2021-10-21T15:16:11Z</time>
      </trkpt>
      <trkpt lat="37.3816510" lon="-6.0010350">
        <ele>12.5</ele>
        <time>2021-10-21T15:16:11Z</time>
      </trkpt>
      <trkpt lat="37.3817660" lon="-6.0011900">
        <ele>12.6</ele>
        <time>2021-10-21T15:16:11Z</time>
      </trkpt>
      <trkpt lat="37.3818200" lon="-6.0012640">
        <ele>12.6</ele>
        <time>2021-10-21T15:16:11Z</time>
      </trkpt>
      <trkpt lat="37.3820190" lon="-6.0014490">
        <ele>12.5</ele>
        <time>2021-10-21T15:16:11Z</time>
      </trkpt>
      <trkpt lat="37.3821960" lon="-6.0016870">
        <ele>12.4</ele>
        <time>2021-10-21T15:16:11Z</time>
      </trkpt>
      <trkpt lat="37.3822920" lon="-6.0018150">
        <ele>12.4</ele>
        <time>2021-10-21T15:16:11Z</time>
      </trkpt>
      <trkpt lat="37.3823140" lon="-6.0018280">
        <ele>12.4</ele>
        <time>2021-10-21T15:16:11Z</time>
      </trkpt>
      <trkpt lat="37.3824060" lon="-6.0019790">
        <ele>12.3</ele>
        <time>2021-10-21T15:16:11Z</time>
      </trkpt>
      <trkpt lat="37.3824970" lon="-6.0021060">
        <ele>12.3</ele>
        <time>2021-10-21T15:16:11Z</time>
      </trkpt>
      <trkpt lat="37.3826060" lon="-6.0020260">
        <ele>11.8</ele>
        <time>2021-10-21T15:16:11Z</time>
      </trkpt>
      <trkpt lat="37.3827530" lon="-6.0018600">
        <ele>11.6</ele>
        <time>2021-10-21T15:16:11Z</time>
      </trkpt>
      <trkpt lat="37.3828930" lon="-6.0016840">
        <ele>11.4</ele>
        <time>2021-10-21T15:16:11Z</time>
      </trkpt>
      <trkpt lat="37.3829070" lon="-6.0016790">
        <ele>11.4</ele>
        <time>2021-10-21T15:16:11Z</time>
      </trkpt>
      <trkpt lat="37.3829120" lon="-6.0016680">
        <ele>11.4</ele>
        <time>2021-10-21T15:16:11Z</time>
      </trkpt>
      <trkpt lat="37.3829030" lon="-6.0016620">
        <ele>11.4</ele>
        <time>2021-10-21T15:16:11Z</time>
      </trkpt>
      <trkpt lat="37.3828800" lon="-6.0016220">
        <ele>11.4</ele>
        <time>2021-10-21T15:16:11Z</time>
      </trkpt>
      <trkpt lat="37.3828470" lon="-6.0015670">
        <ele>11.3</ele>
        <time>2021-10-21T15:16:11Z</time>
      </trkpt>
      <trkpt lat="37.3828540" lon="-6.0014360">
        <ele>11.3</ele>
        <time>2021-10-21T15:16:11Z</time>
      </trkpt>
      <trkpt lat="37.3828550" lon="-6.0013850">
        <ele>11.3</ele>
        <time>2021-10-21T15:16:11Z</time>
      </trkpt>
      <trkpt lat="37.3828700" lon="-6.0014240">
        <ele>11.2</ele>
        <time>2021-10-21T15:16:11Z</time>
      </trkpt>
    </trkseg>
  </trk>
</gpx>
